<?xml version="1.0" encoding="UTF-8" standalone="no" ?>
<gpx xmlns="http://www.topografix.com/GPX/1/1" xmlns:xsi="http://www.w3.org/2001/XMLSchema-instance" xsi:schemaLocation="http://www.topografix.com/GPX/1/1 http://www.topografix.com/GPX/1/1/gpx.xsd" version="1.1" creator="VisuGPX - https://www.visugpx.com">
  <metadata>
    <name>glaris-engelberg(f)</name>
  </metadata>
  <trk>
    <name><![CDATA[glaris-engelberg(f)_3]]></name>
    <extensions>
      <line xmlns="http://www.topografix.com/GPX/gpx_style/0/2">
        <color>008800</color>
        <width>4</width>
      </line>
    </extensions>
    <trkseg>
      <trkpt lat="46.96679" lon="8.58465">
        <ele>849</ele>
        <time>2021-08-10T09:24:31.736Z</time>
      </trkpt>
      <trkpt lat="46.96679" lon="8.58465">
        <ele>849</ele>
        <time>2021-08-10T09:24:31.736Z</time>
      </trkpt>
      <trkpt lat="46.96679" lon="8.58465">
        <ele>849</ele>
        <time>2021-08-10T09:24:31.736Z</time>
      </trkpt>
      <trkpt lat="46.96679" lon="8.58465">
        <ele>849</ele>
        <time>2021-08-10T09:24:32.736Z</time>
      </trkpt>
      <trkpt lat="46.96679" lon="8.58465">
        <ele>848</ele>
        <time>2021-08-10T09:24:33.735Z</time>
      </trkpt>
      <trkpt lat="46.96679" lon="8.58465">
        <ele>848</ele>
        <time>2021-08-10T09:24:34.736Z</time>
      </trkpt>
      <trkpt lat="46.96679" lon="8.58465">
        <ele>847</ele>
        <time>2021-08-10T09:24:35.735Z</time>
      </trkpt>
      <trkpt lat="46.96679" lon="8.58465">
        <ele>847</ele>
        <time>2021-08-10T09:24:36.735Z</time>
      </trkpt>
      <trkpt lat="46.96678" lon="8.58466">
        <ele>846</ele>
        <time>2021-08-10T09:24:37.735Z</time>
      </trkpt>
      <trkpt lat="46.96677" lon="8.58466">
        <ele>846</ele>
        <time>2021-08-10T09:24:38.736Z</time>
      </trkpt>
      <trkpt lat="46.96677" lon="8.58466">
        <ele>845</ele>
        <time>2021-08-10T09:24:39.735Z</time>
      </trkpt>
      <trkpt lat="46.96676" lon="8.58467">
        <ele>845</ele>
        <time>2021-08-10T09:24:40.736Z</time>
      </trkpt>
      <trkpt lat="46.96674" lon="8.58468">
        <ele>844</ele>
        <time>2021-08-10T09:24:41.735Z</time>
      </trkpt>
      <trkpt lat="46.96673" lon="8.58468">
        <ele>844</ele>
        <time>2021-08-10T09:24:42.735Z</time>
      </trkpt>
      <trkpt lat="46.96672" lon="8.58468">
        <ele>844</ele>
        <time>2021-08-10T09:24:43.736Z</time>
      </trkpt>
      <trkpt lat="46.96671" lon="8.58468">
        <ele>844</ele>
        <time>2021-08-10T09:24:44.735Z</time>
      </trkpt>
      <trkpt lat="46.96669" lon="8.58467">
        <ele>844</ele>
        <time>2021-08-10T09:24:45.735Z</time>
      </trkpt>
      <trkpt lat="46.96668" lon="8.58467">
        <ele>844</ele>
        <time>2021-08-10T09:24:46.735Z</time>
      </trkpt>
      <trkpt lat="46.96666" lon="8.58467">
        <ele>844</ele>
        <time>2021-08-10T09:24:47.735Z</time>
      </trkpt>
      <trkpt lat="46.96665" lon="8.58468">
        <ele>844</ele>
        <time>2021-08-10T09:24:48.736Z</time>
      </trkpt>
      <trkpt lat="46.96663" lon="8.58468">
        <ele>844</ele>
        <time>2021-08-10T09:24:49.735Z</time>
      </trkpt>
      <trkpt lat="46.96662" lon="8.58468">
        <ele>845</ele>
        <time>2021-08-10T09:24:50.735Z</time>
      </trkpt>
      <trkpt lat="46.96661" lon="8.58469">
        <ele>845</ele>
        <time>2021-08-10T09:24:51.735Z</time>
      </trkpt>
      <trkpt lat="46.9666" lon="8.5847">
        <ele>845</ele>
        <time>2021-08-10T09:24:52.735Z</time>
      </trkpt>
      <trkpt lat="46.96659" lon="8.58472">
        <ele>845</ele>
        <time>2021-08-10T09:24:53.735Z</time>
      </trkpt>
      <trkpt lat="46.96658" lon="8.58475">
        <ele>845</ele>
        <time>2021-08-10T09:24:54.735Z</time>
      </trkpt>
      <trkpt lat="46.96657" lon="8.58477">
        <ele>845</ele>
        <time>2021-08-10T09:24:55.736Z</time>
      </trkpt>
      <trkpt lat="46.96657" lon="8.58479">
        <ele>845</ele>
        <time>2021-08-10T09:24:56.735Z</time>
      </trkpt>
      <trkpt lat="46.96656" lon="8.58481">
        <ele>845</ele>
        <time>2021-08-10T09:24:57.735Z</time>
      </trkpt>
      <trkpt lat="46.96656" lon="8.58483">
        <ele>845</ele>
        <time>2021-08-10T09:24:58.735Z</time>
      </trkpt>
      <trkpt lat="46.96655" lon="8.58485">
        <ele>845</ele>
        <time>2021-08-10T09:24:59.735Z</time>
      </trkpt>
      <trkpt lat="46.96654" lon="8.58487">
        <ele>845</ele>
        <time>2021-08-10T09:25:00.735Z</time>
      </trkpt>
      <trkpt lat="46.96654" lon="8.58488">
        <ele>845</ele>
        <time>2021-08-10T09:25:01.735Z</time>
      </trkpt>
      <trkpt lat="46.96653" lon="8.5849">
        <ele>845</ele>
        <time>2021-08-10T09:25:02.736Z</time>
      </trkpt>
      <trkpt lat="46.96652" lon="8.58491">
        <ele>845</ele>
        <time>2021-08-10T09:25:03.735Z</time>
      </trkpt>
      <trkpt lat="46.96652" lon="8.58493">
        <ele>845</ele>
        <time>2021-08-10T09:25:04.735Z</time>
      </trkpt>
      <trkpt lat="46.96651" lon="8.58494">
        <ele>844</ele>
        <time>2021-08-10T09:25:05.735Z</time>
      </trkpt>
      <trkpt lat="46.96651" lon="8.58495">
        <ele>844</ele>
        <time>2021-08-10T09:25:06.735Z</time>
      </trkpt>
      <trkpt lat="46.96651" lon="8.58496">
        <ele>844</ele>
        <time>2021-08-10T09:25:07.735Z</time>
      </trkpt>
      <trkpt lat="46.96651" lon="8.58496">
        <ele>844</ele>
        <time>2021-08-10T09:25:08.735Z</time>
      </trkpt>
      <trkpt lat="46.9665" lon="8.58497">
        <ele>844</ele>
        <time>2021-08-10T09:25:09.735Z</time>
      </trkpt>
      <trkpt lat="46.9665" lon="8.58498">
        <ele>844</ele>
        <time>2021-08-10T09:25:10.735Z</time>
      </trkpt>
      <trkpt lat="46.96649" lon="8.58499">
        <ele>845</ele>
        <time>2021-08-10T09:25:11.735Z</time>
      </trkpt>
      <trkpt lat="46.96649" lon="8.58501">
        <ele>845</ele>
        <time>2021-08-10T09:25:12.735Z</time>
      </trkpt>
      <trkpt lat="46.96649" lon="8.58501">
        <ele>845</ele>
        <time>2021-08-10T09:25:13.735Z</time>
      </trkpt>
      <trkpt lat="46.96649" lon="8.58502">
        <ele>845</ele>
        <time>2021-08-10T09:25:14.736Z</time>
      </trkpt>
      <trkpt lat="46.96648" lon="8.58502">
        <ele>846</ele>
        <time>2021-08-10T09:25:15.735Z</time>
      </trkpt>
      <trkpt lat="46.96648" lon="8.58503">
        <ele>846</ele>
        <time>2021-08-10T09:25:16.735Z</time>
      </trkpt>
      <trkpt lat="46.96647" lon="8.58504">
        <ele>847</ele>
        <time>2021-08-10T09:25:17.735Z</time>
      </trkpt>
      <trkpt lat="46.96647" lon="8.58505">
        <ele>847</ele>
        <time>2021-08-10T09:25:18.735Z</time>
      </trkpt>
      <trkpt lat="46.96646" lon="8.58506">
        <ele>847</ele>
        <time>2021-08-10T09:25:19.736Z</time>
      </trkpt>
      <trkpt lat="46.96646" lon="8.58508">
        <ele>848</ele>
        <time>2021-08-10T09:25:20.736Z</time>
      </trkpt>
      <trkpt lat="46.96645" lon="8.58509">
        <ele>848</ele>
        <time>2021-08-10T09:25:21.735Z</time>
      </trkpt>
      <trkpt lat="46.96645" lon="8.58511">
        <ele>848</ele>
        <time>2021-08-10T09:25:22.735Z</time>
      </trkpt>
      <trkpt lat="46.96645" lon="8.58512">
        <ele>848</ele>
        <time>2021-08-10T09:25:23.735Z</time>
      </trkpt>
      <trkpt lat="46.96644" lon="8.58513">
        <ele>848</ele>
        <time>2021-08-10T09:25:24.735Z</time>
      </trkpt>
      <trkpt lat="46.96643" lon="8.58515">
        <ele>848</ele>
        <time>2021-08-10T09:25:25.735Z</time>
      </trkpt>
      <trkpt lat="46.96643" lon="8.58516">
        <ele>848</ele>
        <time>2021-08-10T09:25:26.735Z</time>
      </trkpt>
      <trkpt lat="46.96642" lon="8.58518">
        <ele>848</ele>
        <time>2021-08-10T09:25:27.736Z</time>
      </trkpt>
      <trkpt lat="46.96641" lon="8.5852">
        <ele>848</ele>
        <time>2021-08-10T09:25:28.735Z</time>
      </trkpt>
      <trkpt lat="46.96641" lon="8.58522">
        <ele>847</ele>
        <time>2021-08-10T09:25:29.735Z</time>
      </trkpt>
      <trkpt lat="46.96639" lon="8.58524">
        <ele>847</ele>
        <time>2021-08-10T09:25:30.735Z</time>
      </trkpt>
      <trkpt lat="46.96639" lon="8.58525">
        <ele>847</ele>
        <time>2021-08-10T09:25:31.736Z</time>
      </trkpt>
      <trkpt lat="46.96638" lon="8.58527">
        <ele>847</ele>
        <time>2021-08-10T09:25:32.735Z</time>
      </trkpt>
      <trkpt lat="46.96638" lon="8.58527">
        <ele>846</ele>
        <time>2021-08-10T09:25:33.735Z</time>
      </trkpt>
      <trkpt lat="46.96638" lon="8.58528">
        <ele>846</ele>
        <time>2021-08-10T09:25:34.735Z</time>
      </trkpt>
      <trkpt lat="46.96637" lon="8.58529">
        <ele>846</ele>
        <time>2021-08-10T09:25:35.735Z</time>
      </trkpt>
      <trkpt lat="46.96636" lon="8.5853">
        <ele>845</ele>
        <time>2021-08-10T09:25:36.735Z</time>
      </trkpt>
      <trkpt lat="46.96635" lon="8.58531">
        <ele>845</ele>
        <time>2021-08-10T09:25:37.736Z</time>
      </trkpt>
      <trkpt lat="46.96634" lon="8.58532">
        <ele>845</ele>
        <time>2021-08-10T09:25:38.735Z</time>
      </trkpt>
      <trkpt lat="46.96633" lon="8.58533">
        <ele>844</ele>
        <time>2021-08-10T09:25:39.735Z</time>
      </trkpt>
      <trkpt lat="46.96632" lon="8.58535">
        <ele>844</ele>
        <time>2021-08-10T09:25:40.735Z</time>
      </trkpt>
      <trkpt lat="46.96631" lon="8.58537">
        <ele>844</ele>
        <time>2021-08-10T09:25:41.735Z</time>
      </trkpt>
      <trkpt lat="46.9663" lon="8.58539">
        <ele>844</ele>
        <time>2021-08-10T09:25:42.735Z</time>
      </trkpt>
      <trkpt lat="46.96628" lon="8.58541">
        <ele>844</ele>
        <time>2021-08-10T09:25:43.735Z</time>
      </trkpt>
      <trkpt lat="46.96627" lon="8.58543">
        <ele>844</ele>
        <time>2021-08-10T09:25:44.735Z</time>
      </trkpt>
      <trkpt lat="46.96626" lon="8.58545">
        <ele>844</ele>
        <time>2021-08-10T09:25:45.735Z</time>
      </trkpt>
      <trkpt lat="46.96625" lon="8.58545">
        <ele>844</ele>
        <time>2021-08-10T09:25:46.735Z</time>
      </trkpt>
      <trkpt lat="46.96624" lon="8.58546">
        <ele>844</ele>
        <time>2021-08-10T09:25:47.735Z</time>
      </trkpt>
      <trkpt lat="46.96624" lon="8.58546">
        <ele>844</ele>
        <time>2021-08-10T09:25:48.736Z</time>
      </trkpt>
      <trkpt lat="46.96623" lon="8.58548">
        <ele>844</ele>
        <time>2021-08-10T09:25:49.735Z</time>
      </trkpt>
      <trkpt lat="46.96623" lon="8.58547">
        <ele>844</ele>
        <time>2021-08-10T09:25:50.736Z</time>
      </trkpt>
      <trkpt lat="46.96622" lon="8.58548">
        <ele>844</ele>
        <time>2021-08-10T09:25:51.735Z</time>
      </trkpt>
      <trkpt lat="46.96622" lon="8.58549">
        <ele>844</ele>
        <time>2021-08-10T09:25:52.736Z</time>
      </trkpt>
      <trkpt lat="46.96622" lon="8.58549">
        <ele>845</ele>
        <time>2021-08-10T09:25:53.735Z</time>
      </trkpt>
      <trkpt lat="46.96621" lon="8.5855">
        <ele>845</ele>
        <time>2021-08-10T09:25:54.735Z</time>
      </trkpt>
      <trkpt lat="46.96621" lon="8.5855">
        <ele>845</ele>
        <time>2021-08-10T09:25:55.735Z</time>
      </trkpt>
      <trkpt lat="46.9662" lon="8.58551">
        <ele>845</ele>
        <time>2021-08-10T09:25:56.736Z</time>
      </trkpt>
      <trkpt lat="46.96619" lon="8.58552">
        <ele>846</ele>
        <time>2021-08-10T09:25:57.735Z</time>
      </trkpt>
      <trkpt lat="46.96619" lon="8.58553">
        <ele>846</ele>
        <time>2021-08-10T09:25:58.735Z</time>
      </trkpt>
      <trkpt lat="46.96618" lon="8.58555">
        <ele>846</ele>
        <time>2021-08-10T09:25:59.735Z</time>
      </trkpt>
      <trkpt lat="46.96617" lon="8.58556">
        <ele>846</ele>
        <time>2021-08-10T09:26:00.735Z</time>
      </trkpt>
      <trkpt lat="46.96616" lon="8.58557">
        <ele>847</ele>
        <time>2021-08-10T09:26:01.735Z</time>
      </trkpt>
      <trkpt lat="46.96614" lon="8.58557">
        <ele>847</ele>
        <time>2021-08-10T09:26:02.735Z</time>
      </trkpt>
      <trkpt lat="46.96613" lon="8.58557">
        <ele>847</ele>
        <time>2021-08-10T09:26:03.735Z</time>
      </trkpt>
      <trkpt lat="46.96612" lon="8.58557">
        <ele>847</ele>
        <time>2021-08-10T09:26:04.736Z</time>
      </trkpt>
      <trkpt lat="46.96611" lon="8.58557">
        <ele>847</ele>
        <time>2021-08-10T09:26:05.735Z</time>
      </trkpt>
      <trkpt lat="46.96611" lon="8.58558">
        <ele>847</ele>
        <time>2021-08-10T09:26:06.735Z</time>
      </trkpt>
      <trkpt lat="46.9661" lon="8.58558">
        <ele>847</ele>
        <time>2021-08-10T09:26:07.736Z</time>
      </trkpt>
      <trkpt lat="46.9661" lon="8.58559">
        <ele>847</ele>
        <time>2021-08-10T09:26:08.735Z</time>
      </trkpt>
      <trkpt lat="46.96609" lon="8.58559">
        <ele>847</ele>
        <time>2021-08-10T09:26:09.735Z</time>
      </trkpt>
      <trkpt lat="46.96609" lon="8.5856">
        <ele>847</ele>
        <time>2021-08-10T09:26:10.735Z</time>
      </trkpt>
      <trkpt lat="46.96609" lon="8.5856">
        <ele>847</ele>
        <time>2021-08-10T09:26:11.735Z</time>
      </trkpt>
      <trkpt lat="46.9661" lon="8.5856">
        <ele>847</ele>
        <time>2021-08-10T09:26:12.735Z</time>
      </trkpt>
      <trkpt lat="46.96611" lon="8.5856">
        <ele>848</ele>
        <time>2021-08-10T09:26:13.735Z</time>
      </trkpt>
      <trkpt lat="46.96611" lon="8.5856">
        <ele>848</ele>
        <time>2021-08-10T09:26:14.735Z</time>
      </trkpt>
      <trkpt lat="46.96611" lon="8.5856">
        <ele>848</ele>
        <time>2021-08-10T09:26:15.735Z</time>
      </trkpt>
      <trkpt lat="46.96611" lon="8.5856">
        <ele>849</ele>
        <time>2021-08-10T09:26:16.735Z</time>
      </trkpt>
      <trkpt lat="46.9661" lon="8.58561">
        <ele>849</ele>
        <time>2021-08-10T09:26:17.735Z</time>
      </trkpt>
      <trkpt lat="46.96608" lon="8.58562">
        <ele>849</ele>
        <time>2021-08-10T09:26:18.735Z</time>
      </trkpt>
      <trkpt lat="46.96608" lon="8.58563">
        <ele>849</ele>
        <time>2021-08-10T09:26:19.735Z</time>
      </trkpt>
      <trkpt lat="46.96607" lon="8.58564">
        <ele>849</ele>
        <time>2021-08-10T09:26:20.735Z</time>
      </trkpt>
      <trkpt lat="46.96606" lon="8.58565">
        <ele>849</ele>
        <time>2021-08-10T09:26:21.735Z</time>
      </trkpt>
      <trkpt lat="46.96606" lon="8.58566">
        <ele>849</ele>
        <time>2021-08-10T09:26:22.735Z</time>
      </trkpt>
      <trkpt lat="46.96605" lon="8.58567">
        <ele>849</ele>
        <time>2021-08-10T09:26:23.735Z</time>
      </trkpt>
      <trkpt lat="46.96604" lon="8.58567">
        <ele>849</ele>
        <time>2021-08-10T09:26:24.735Z</time>
      </trkpt>
      <trkpt lat="46.96603" lon="8.58569">
        <ele>849</ele>
        <time>2021-08-10T09:26:25.735Z</time>
      </trkpt>
      <trkpt lat="46.96602" lon="8.5857">
        <ele>849</ele>
        <time>2021-08-10T09:26:26.735Z</time>
      </trkpt>
      <trkpt lat="46.96602" lon="8.58571">
        <ele>849</ele>
        <time>2021-08-10T09:26:27.735Z</time>
      </trkpt>
      <trkpt lat="46.96601" lon="8.58572">
        <ele>849</ele>
        <time>2021-08-10T09:26:28.735Z</time>
      </trkpt>
      <trkpt lat="46.966" lon="8.58573">
        <ele>849</ele>
        <time>2021-08-10T09:26:29.736Z</time>
      </trkpt>
      <trkpt lat="46.96599" lon="8.58574">
        <ele>850</ele>
        <time>2021-08-10T09:26:30.735Z</time>
      </trkpt>
      <trkpt lat="46.96597" lon="8.58576">
        <ele>850</ele>
        <time>2021-08-10T09:26:31.735Z</time>
      </trkpt>
      <trkpt lat="46.96596" lon="8.58578">
        <ele>850</ele>
        <time>2021-08-10T09:26:32.736Z</time>
      </trkpt>
      <trkpt lat="46.96595" lon="8.5858">
        <ele>850</ele>
        <time>2021-08-10T09:26:33.735Z</time>
      </trkpt>
      <trkpt lat="46.96594" lon="8.58581">
        <ele>850</ele>
        <time>2021-08-10T09:26:34.735Z</time>
      </trkpt>
      <trkpt lat="46.96593" lon="8.58582">
        <ele>850</ele>
        <time>2021-08-10T09:26:35.735Z</time>
      </trkpt>
      <trkpt lat="46.96591" lon="8.58583">
        <ele>850</ele>
        <time>2021-08-10T09:26:36.735Z</time>
      </trkpt>
      <trkpt lat="46.9659" lon="8.58583">
        <ele>851</ele>
        <time>2021-08-10T09:26:37.736Z</time>
      </trkpt>
      <trkpt lat="46.96589" lon="8.58584">
        <ele>851</ele>
        <time>2021-08-10T09:26:38.735Z</time>
      </trkpt>
      <trkpt lat="46.96587" lon="8.58584">
        <ele>851</ele>
        <time>2021-08-10T09:26:39.736Z</time>
      </trkpt>
      <trkpt lat="46.96585" lon="8.58584">
        <ele>851</ele>
        <time>2021-08-10T09:26:40.735Z</time>
      </trkpt>
      <trkpt lat="46.96584" lon="8.58584">
        <ele>851</ele>
        <time>2021-08-10T09:26:41.735Z</time>
      </trkpt>
      <trkpt lat="46.96582" lon="8.58585">
        <ele>851</ele>
        <time>2021-08-10T09:26:42.735Z</time>
      </trkpt>
      <trkpt lat="46.96579" lon="8.58586">
        <ele>851</ele>
        <time>2021-08-10T09:26:43.735Z</time>
      </trkpt>
      <trkpt lat="46.96577" lon="8.58587">
        <ele>851</ele>
        <time>2021-08-10T09:26:44.735Z</time>
      </trkpt>
      <trkpt lat="46.96576" lon="8.58587">
        <ele>851</ele>
        <time>2021-08-10T09:26:45.735Z</time>
      </trkpt>
      <trkpt lat="46.96575" lon="8.58587">
        <ele>851</ele>
        <time>2021-08-10T09:26:46.735Z</time>
      </trkpt>
      <trkpt lat="46.96575" lon="8.58587">
        <ele>851</ele>
        <time>2021-08-10T09:26:47.735Z</time>
      </trkpt>
      <trkpt lat="46.96574" lon="8.58588">
        <ele>851</ele>
        <time>2021-08-10T09:26:48.735Z</time>
      </trkpt>
      <trkpt lat="46.96573" lon="8.58589">
        <ele>852</ele>
        <time>2021-08-10T09:26:49.735Z</time>
      </trkpt>
      <trkpt lat="46.96572" lon="8.5859">
        <ele>852</ele>
        <time>2021-08-10T09:26:50.736Z</time>
      </trkpt>
      <trkpt lat="46.96571" lon="8.58591">
        <ele>852</ele>
        <time>2021-08-10T09:26:51.735Z</time>
      </trkpt>
      <trkpt lat="46.9657" lon="8.58592">
        <ele>852</ele>
        <time>2021-08-10T09:26:52.735Z</time>
      </trkpt>
      <trkpt lat="46.9657" lon="8.58592">
        <ele>852</ele>
        <time>2021-08-10T09:26:53.735Z</time>
      </trkpt>
      <trkpt lat="46.96569" lon="8.58594">
        <ele>852</ele>
        <time>2021-08-10T09:26:54.735Z</time>
      </trkpt>
      <trkpt lat="46.96567" lon="8.58595">
        <ele>852</ele>
        <time>2021-08-10T09:26:55.735Z</time>
      </trkpt>
      <trkpt lat="46.96566" lon="8.58597">
        <ele>853</ele>
        <time>2021-08-10T09:26:56.736Z</time>
      </trkpt>
      <trkpt lat="46.96564" lon="8.58597">
        <ele>853</ele>
        <time>2021-08-10T09:26:57.735Z</time>
      </trkpt>
      <trkpt lat="46.96563" lon="8.58598">
        <ele>854</ele>
        <time>2021-08-10T09:26:58.735Z</time>
      </trkpt>
      <trkpt lat="46.96561" lon="8.58599">
        <ele>854</ele>
        <time>2021-08-10T09:26:59.735Z</time>
      </trkpt>
      <trkpt lat="46.96561" lon="8.586">
        <ele>855</ele>
        <time>2021-08-10T09:27:00.735Z</time>
      </trkpt>
      <trkpt lat="46.96561" lon="8.586">
        <ele>855</ele>
        <time>2021-08-10T09:27:01.736Z</time>
      </trkpt>
      <trkpt lat="46.9656" lon="8.586">
        <ele>856</ele>
        <time>2021-08-10T09:27:02.735Z</time>
      </trkpt>
      <trkpt lat="46.96558" lon="8.58601">
        <ele>856</ele>
        <time>2021-08-10T09:27:03.735Z</time>
      </trkpt>
      <trkpt lat="46.96557" lon="8.58601">
        <ele>857</ele>
        <time>2021-08-10T09:27:04.735Z</time>
      </trkpt>
      <trkpt lat="46.96557" lon="8.58602">
        <ele>857</ele>
        <time>2021-08-10T09:27:05.735Z</time>
      </trkpt>
      <trkpt lat="46.96556" lon="8.58602">
        <ele>858</ele>
        <time>2021-08-10T09:27:06.735Z</time>
      </trkpt>
      <trkpt lat="46.96555" lon="8.58603">
        <ele>858</ele>
        <time>2021-08-10T09:27:07.735Z</time>
      </trkpt>
      <trkpt lat="46.96554" lon="8.58603">
        <ele>858</ele>
        <time>2021-08-10T09:27:08.735Z</time>
      </trkpt>
      <trkpt lat="46.96553" lon="8.58604">
        <ele>859</ele>
        <time>2021-08-10T09:27:09.735Z</time>
      </trkpt>
      <trkpt lat="46.96551" lon="8.58604">
        <ele>859</ele>
        <time>2021-08-10T09:27:10.736Z</time>
      </trkpt>
      <trkpt lat="46.96549" lon="8.58605">
        <ele>859</ele>
        <time>2021-08-10T09:27:11.736Z</time>
      </trkpt>
      <trkpt lat="46.96548" lon="8.58606">
        <ele>860</ele>
        <time>2021-08-10T09:27:12.735Z</time>
      </trkpt>
      <trkpt lat="46.96547" lon="8.58607">
        <ele>860</ele>
        <time>2021-08-10T09:27:13.735Z</time>
      </trkpt>
      <trkpt lat="46.96546" lon="8.58609">
        <ele>860</ele>
        <time>2021-08-10T09:27:14.735Z</time>
      </trkpt>
      <trkpt lat="46.96545" lon="8.58609">
        <ele>860</ele>
        <time>2021-08-10T09:27:15.735Z</time>
      </trkpt>
      <trkpt lat="46.96545" lon="8.5861">
        <ele>861</ele>
        <time>2021-08-10T09:27:16.736Z</time>
      </trkpt>
      <trkpt lat="46.96545" lon="8.58611">
        <ele>861</ele>
        <time>2021-08-10T09:27:17.735Z</time>
      </trkpt>
      <trkpt lat="46.96545" lon="8.58612">
        <ele>860</ele>
        <time>2021-08-10T09:27:18.736Z</time>
      </trkpt>
      <trkpt lat="46.96546" lon="8.58613">
        <ele>860</ele>
        <time>2021-08-10T09:27:19.735Z</time>
      </trkpt>
      <trkpt lat="46.96545" lon="8.58614">
        <ele>860</ele>
        <time>2021-08-10T09:27:20.736Z</time>
      </trkpt>
      <trkpt lat="46.96545" lon="8.58614">
        <ele>860</ele>
        <time>2021-08-10T09:27:21.736Z</time>
      </trkpt>
      <trkpt lat="46.96544" lon="8.58615">
        <ele>859</ele>
        <time>2021-08-10T09:27:22.735Z</time>
      </trkpt>
      <trkpt lat="46.96542" lon="8.58616">
        <ele>859</ele>
        <time>2021-08-10T09:27:23.735Z</time>
      </trkpt>
      <trkpt lat="46.96541" lon="8.58617">
        <ele>859</ele>
        <time>2021-08-10T09:27:24.735Z</time>
      </trkpt>
      <trkpt lat="46.96541" lon="8.58618">
        <ele>858</ele>
        <time>2021-08-10T09:27:25.735Z</time>
      </trkpt>
      <trkpt lat="46.9654" lon="8.58618">
        <ele>858</ele>
        <time>2021-08-10T09:27:26.736Z</time>
      </trkpt>
      <trkpt lat="46.96539" lon="8.58619">
        <ele>858</ele>
        <time>2021-08-10T09:27:27.735Z</time>
      </trkpt>
      <trkpt lat="46.96538" lon="8.58619">
        <ele>858</ele>
        <time>2021-08-10T09:27:28.735Z</time>
      </trkpt>
      <trkpt lat="46.96537" lon="8.5862">
        <ele>859</ele>
        <time>2021-08-10T09:27:29.735Z</time>
      </trkpt>
      <trkpt lat="46.96536" lon="8.5862">
        <ele>859</ele>
        <time>2021-08-10T09:27:30.735Z</time>
      </trkpt>
      <trkpt lat="46.96535" lon="8.58621">
        <ele>860</ele>
        <time>2021-08-10T09:27:31.736Z</time>
      </trkpt>
      <trkpt lat="46.96534" lon="8.58621">
        <ele>860</ele>
        <time>2021-08-10T09:27:32.736Z</time>
      </trkpt>
      <trkpt lat="46.96534" lon="8.58622">
        <ele>860</ele>
        <time>2021-08-10T09:27:33.735Z</time>
      </trkpt>
      <trkpt lat="46.96533" lon="8.58623">
        <ele>861</ele>
        <time>2021-08-10T09:27:34.735Z</time>
      </trkpt>
      <trkpt lat="46.96532" lon="8.58624">
        <ele>861</ele>
        <time>2021-08-10T09:27:35.735Z</time>
      </trkpt>
      <trkpt lat="46.96531" lon="8.58625">
        <ele>861</ele>
        <time>2021-08-10T09:27:36.736Z</time>
      </trkpt>
      <trkpt lat="46.9653" lon="8.58625">
        <ele>861</ele>
        <time>2021-08-10T09:27:37.736Z</time>
      </trkpt>
      <trkpt lat="46.96529" lon="8.58625">
        <ele>860</ele>
        <time>2021-08-10T09:27:38.735Z</time>
      </trkpt>
      <trkpt lat="46.96528" lon="8.58626">
        <ele>861</ele>
        <time>2021-08-10T09:27:39.735Z</time>
      </trkpt>
      <trkpt lat="46.96528" lon="8.58627">
        <ele>861</ele>
        <time>2021-08-10T09:27:40.736Z</time>
      </trkpt>
      <trkpt lat="46.96527" lon="8.58627">
        <ele>861</ele>
        <time>2021-08-10T09:27:41.736Z</time>
      </trkpt>
      <trkpt lat="46.96526" lon="8.58628">
        <ele>861</ele>
        <time>2021-08-10T09:27:42.735Z</time>
      </trkpt>
      <trkpt lat="46.96525" lon="8.58629">
        <ele>861</ele>
        <time>2021-08-10T09:27:43.735Z</time>
      </trkpt>
      <trkpt lat="46.96524" lon="8.5863">
        <ele>861</ele>
        <time>2021-08-10T09:27:44.735Z</time>
      </trkpt>
      <trkpt lat="46.96522" lon="8.58631">
        <ele>860</ele>
        <time>2021-08-10T09:27:45.735Z</time>
      </trkpt>
      <trkpt lat="46.96521" lon="8.58633">
        <ele>860</ele>
        <time>2021-08-10T09:27:46.735Z</time>
      </trkpt>
      <trkpt lat="46.9652" lon="8.58634">
        <ele>860</ele>
        <time>2021-08-10T09:27:47.736Z</time>
      </trkpt>
      <trkpt lat="46.96519" lon="8.58635">
        <ele>860</ele>
        <time>2021-08-10T09:27:48.735Z</time>
      </trkpt>
      <trkpt lat="46.96518" lon="8.58636">
        <ele>860</ele>
        <time>2021-08-10T09:27:49.735Z</time>
      </trkpt>
      <trkpt lat="46.96517" lon="8.58636">
        <ele>860</ele>
        <time>2021-08-10T09:27:50.735Z</time>
      </trkpt>
      <trkpt lat="46.96516" lon="8.58636">
        <ele>860</ele>
        <time>2021-08-10T09:27:51.736Z</time>
      </trkpt>
      <trkpt lat="46.96515" lon="8.58636">
        <ele>860</ele>
        <time>2021-08-10T09:27:52.736Z</time>
      </trkpt>
      <trkpt lat="46.96514" lon="8.58637">
        <ele>860</ele>
        <time>2021-08-10T09:27:53.735Z</time>
      </trkpt>
      <trkpt lat="46.96513" lon="8.58637">
        <ele>860</ele>
        <time>2021-08-10T09:27:54.735Z</time>
      </trkpt>
      <trkpt lat="46.96512" lon="8.58637">
        <ele>860</ele>
        <time>2021-08-10T09:27:55.735Z</time>
      </trkpt>
      <trkpt lat="46.96511" lon="8.58637">
        <ele>860</ele>
        <time>2021-08-10T09:27:56.735Z</time>
      </trkpt>
      <trkpt lat="46.9651" lon="8.58637">
        <ele>860</ele>
        <time>2021-08-10T09:27:57.736Z</time>
      </trkpt>
      <trkpt lat="46.96509" lon="8.58637">
        <ele>860</ele>
        <time>2021-08-10T09:27:58.735Z</time>
      </trkpt>
      <trkpt lat="46.96508" lon="8.58637">
        <ele>860</ele>
        <time>2021-08-10T09:27:59.736Z</time>
      </trkpt>
      <trkpt lat="46.96507" lon="8.58636">
        <ele>860</ele>
        <time>2021-08-10T09:28:00.735Z</time>
      </trkpt>
      <trkpt lat="46.96506" lon="8.58635">
        <ele>860</ele>
        <time>2021-08-10T09:28:01.736Z</time>
      </trkpt>
      <trkpt lat="46.96505" lon="8.58635">
        <ele>860</ele>
        <time>2021-08-10T09:28:02.735Z</time>
      </trkpt>
      <trkpt lat="46.96504" lon="8.58635">
        <ele>860</ele>
        <time>2021-08-10T09:28:03.735Z</time>
      </trkpt>
      <trkpt lat="46.96503" lon="8.58634">
        <ele>859</ele>
        <time>2021-08-10T09:28:04.736Z</time>
      </trkpt>
      <trkpt lat="46.96502" lon="8.58633">
        <ele>859</ele>
        <time>2021-08-10T09:28:05.736Z</time>
      </trkpt>
      <trkpt lat="46.96499" lon="8.58632">
        <ele>859</ele>
        <time>2021-08-10T09:28:06.735Z</time>
      </trkpt>
      <trkpt lat="46.96497" lon="8.58631">
        <ele>858</ele>
        <time>2021-08-10T09:28:07.735Z</time>
      </trkpt>
      <trkpt lat="46.96496" lon="8.5863">
        <ele>858</ele>
        <time>2021-08-10T09:28:08.736Z</time>
      </trkpt>
      <trkpt lat="46.96495" lon="8.58629">
        <ele>858</ele>
        <time>2021-08-10T09:28:09.735Z</time>
      </trkpt>
      <trkpt lat="46.96494" lon="8.58629">
        <ele>858</ele>
        <time>2021-08-10T09:28:10.736Z</time>
      </trkpt>
      <trkpt lat="46.96492" lon="8.58627">
        <ele>858</ele>
        <time>2021-08-10T09:28:11.735Z</time>
      </trkpt>
      <trkpt lat="46.96491" lon="8.58627">
        <ele>858</ele>
        <time>2021-08-10T09:28:12.735Z</time>
      </trkpt>
      <trkpt lat="46.9649" lon="8.58627">
        <ele>858</ele>
        <time>2021-08-10T09:28:13.736Z</time>
      </trkpt>
      <trkpt lat="46.9649" lon="8.58627">
        <ele>858</ele>
        <time>2021-08-10T09:28:14.736Z</time>
      </trkpt>
      <trkpt lat="46.96489" lon="8.58627">
        <ele>858</ele>
        <time>2021-08-10T09:28:15.735Z</time>
      </trkpt>
      <trkpt lat="46.96488" lon="8.58628">
        <ele>858</ele>
        <time>2021-08-10T09:28:16.735Z</time>
      </trkpt>
      <trkpt lat="46.96488" lon="8.58628">
        <ele>858</ele>
        <time>2021-08-10T09:28:17.736Z</time>
      </trkpt>
      <trkpt lat="46.96487" lon="8.58627">
        <ele>858</ele>
        <time>2021-08-10T09:28:18.735Z</time>
      </trkpt>
      <trkpt lat="46.96487" lon="8.58627">
        <ele>858</ele>
        <time>2021-08-10T09:28:19.735Z</time>
      </trkpt>
      <trkpt lat="46.96487" lon="8.58626">
        <ele>858</ele>
        <time>2021-08-10T09:28:20.735Z</time>
      </trkpt>
      <trkpt lat="46.96483" lon="8.58622">
        <ele>858</ele>
        <time>2021-08-10T09:28:21.738Z</time>
      </trkpt>
      <trkpt lat="46.9648" lon="8.58621">
        <ele>858</ele>
        <time>2021-08-10T09:28:22.738Z</time>
      </trkpt>
      <trkpt lat="46.96478" lon="8.5862">
        <ele>858</ele>
        <time>2021-08-10T09:28:23.738Z</time>
      </trkpt>
      <trkpt lat="46.96476" lon="8.5862">
        <ele>858</ele>
        <time>2021-08-10T09:28:24.738Z</time>
      </trkpt>
      <trkpt lat="46.96475" lon="8.58619">
        <ele>858</ele>
        <time>2021-08-10T09:28:25.738Z</time>
      </trkpt>
      <trkpt lat="46.96474" lon="8.58619">
        <ele>858</ele>
        <time>2021-08-10T09:28:26.738Z</time>
      </trkpt>
      <trkpt lat="46.96472" lon="8.58618">
        <ele>858</ele>
        <time>2021-08-10T09:28:27.738Z</time>
      </trkpt>
      <trkpt lat="46.96471" lon="8.58618">
        <ele>858</ele>
        <time>2021-08-10T09:28:28.738Z</time>
      </trkpt>
      <trkpt lat="46.96469" lon="8.58617">
        <ele>858</ele>
        <time>2021-08-10T09:28:29.738Z</time>
      </trkpt>
      <trkpt lat="46.96467" lon="8.58617">
        <ele>857</ele>
        <time>2021-08-10T09:28:30.738Z</time>
      </trkpt>
      <trkpt lat="46.96465" lon="8.58616">
        <ele>857</ele>
        <time>2021-08-10T09:28:31.737Z</time>
      </trkpt>
      <trkpt lat="46.96465" lon="8.58616">
        <ele>857</ele>
        <time>2021-08-10T09:28:32.738Z</time>
      </trkpt>
      <trkpt lat="46.96464" lon="8.58616">
        <ele>856</ele>
        <time>2021-08-10T09:28:33.737Z</time>
      </trkpt>
      <trkpt lat="46.96464" lon="8.58616">
        <ele>856</ele>
        <time>2021-08-10T09:28:34.738Z</time>
      </trkpt>
      <trkpt lat="46.96463" lon="8.58617">
        <ele>856</ele>
        <time>2021-08-10T09:28:35.737Z</time>
      </trkpt>
      <trkpt lat="46.96462" lon="8.58617">
        <ele>856</ele>
        <time>2021-08-10T09:28:36.737Z</time>
      </trkpt>
      <trkpt lat="46.96461" lon="8.58618">
        <ele>856</ele>
        <time>2021-08-10T09:28:37.737Z</time>
      </trkpt>
      <trkpt lat="46.96461" lon="8.58619">
        <ele>856</ele>
        <time>2021-08-10T09:28:38.737Z</time>
      </trkpt>
      <trkpt lat="46.96461" lon="8.58621">
        <ele>855</ele>
        <time>2021-08-10T09:28:39.738Z</time>
      </trkpt>
      <trkpt lat="46.96461" lon="8.58621">
        <ele>855</ele>
        <time>2021-08-10T09:28:40.738Z</time>
      </trkpt>
      <trkpt lat="46.96459" lon="8.58622">
        <ele>855</ele>
        <time>2021-08-10T09:28:41.738Z</time>
      </trkpt>
      <trkpt lat="46.96458" lon="8.58622">
        <ele>855</ele>
        <time>2021-08-10T09:28:42.738Z</time>
      </trkpt>
      <trkpt lat="46.96458" lon="8.58623">
        <ele>855</ele>
        <time>2021-08-10T09:28:43.737Z</time>
      </trkpt>
      <trkpt lat="46.96458" lon="8.58624">
        <ele>855</ele>
        <time>2021-08-10T09:28:44.738Z</time>
      </trkpt>
      <trkpt lat="46.96457" lon="8.58626">
        <ele>855</ele>
        <time>2021-08-10T09:28:45.738Z</time>
      </trkpt>
      <trkpt lat="46.96457" lon="8.58627">
        <ele>855</ele>
        <time>2021-08-10T09:28:46.737Z</time>
      </trkpt>
      <trkpt lat="46.96456" lon="8.58628">
        <ele>855</ele>
        <time>2021-08-10T09:28:47.738Z</time>
      </trkpt>
      <trkpt lat="46.96455" lon="8.58629">
        <ele>855</ele>
        <time>2021-08-10T09:28:48.738Z</time>
      </trkpt>
      <trkpt lat="46.96455" lon="8.5863">
        <ele>855</ele>
        <time>2021-08-10T09:28:49.738Z</time>
      </trkpt>
      <trkpt lat="46.96454" lon="8.58631">
        <ele>855</ele>
        <time>2021-08-10T09:28:50.737Z</time>
      </trkpt>
      <trkpt lat="46.96452" lon="8.58631">
        <ele>855</ele>
        <time>2021-08-10T09:28:51.737Z</time>
      </trkpt>
      <trkpt lat="46.9645" lon="8.58632">
        <ele>855</ele>
        <time>2021-08-10T09:28:52.738Z</time>
      </trkpt>
      <trkpt lat="46.96449" lon="8.58632">
        <ele>855</ele>
        <time>2021-08-10T09:28:53.737Z</time>
      </trkpt>
      <trkpt lat="46.96448" lon="8.58633">
        <ele>855</ele>
        <time>2021-08-10T09:28:54.738Z</time>
      </trkpt>
      <trkpt lat="46.96447" lon="8.58634">
        <ele>855</ele>
        <time>2021-08-10T09:28:55.737Z</time>
      </trkpt>
      <trkpt lat="46.96446" lon="8.58635">
        <ele>855</ele>
        <time>2021-08-10T09:28:56.738Z</time>
      </trkpt>
      <trkpt lat="46.96445" lon="8.58636">
        <ele>855</ele>
        <time>2021-08-10T09:28:57.737Z</time>
      </trkpt>
      <trkpt lat="46.96445" lon="8.58636">
        <ele>856</ele>
        <time>2021-08-10T09:28:58.738Z</time>
      </trkpt>
      <trkpt lat="46.96444" lon="8.58636">
        <ele>856</ele>
        <time>2021-08-10T09:28:59.738Z</time>
      </trkpt>
      <trkpt lat="46.96443" lon="8.58637">
        <ele>856</ele>
        <time>2021-08-10T09:29:00.738Z</time>
      </trkpt>
      <trkpt lat="46.96442" lon="8.58637">
        <ele>857</ele>
        <time>2021-08-10T09:29:01.738Z</time>
      </trkpt>
      <trkpt lat="46.9644" lon="8.58638">
        <ele>857</ele>
        <time>2021-08-10T09:29:02.738Z</time>
      </trkpt>
      <trkpt lat="46.96439" lon="8.5864">
        <ele>857</ele>
        <time>2021-08-10T09:29:03.737Z</time>
      </trkpt>
      <trkpt lat="46.96438" lon="8.5864">
        <ele>858</ele>
        <time>2021-08-10T09:29:04.738Z</time>
      </trkpt>
      <trkpt lat="46.96436" lon="8.58641">
        <ele>858</ele>
        <time>2021-08-10T09:29:05.737Z</time>
      </trkpt>
      <trkpt lat="46.96435" lon="8.58642">
        <ele>858</ele>
        <time>2021-08-10T09:29:06.738Z</time>
      </trkpt>
      <trkpt lat="46.96433" lon="8.58644">
        <ele>859</ele>
        <time>2021-08-10T09:29:07.737Z</time>
      </trkpt>
      <trkpt lat="46.96432" lon="8.58645">
        <ele>859</ele>
        <time>2021-08-10T09:29:08.738Z</time>
      </trkpt>
      <trkpt lat="46.96431" lon="8.58645">
        <ele>860</ele>
        <time>2021-08-10T09:29:09.737Z</time>
      </trkpt>
      <trkpt lat="46.96431" lon="8.58645">
        <ele>860</ele>
        <time>2021-08-10T09:29:10.738Z</time>
      </trkpt>
      <trkpt lat="46.9643" lon="8.58645">
        <ele>861</ele>
        <time>2021-08-10T09:29:11.737Z</time>
      </trkpt>
      <trkpt lat="46.9643" lon="8.58645">
        <ele>861</ele>
        <time>2021-08-10T09:29:12.737Z</time>
      </trkpt>
      <trkpt lat="46.96429" lon="8.58647">
        <ele>862</ele>
        <time>2021-08-10T09:29:13.737Z</time>
      </trkpt>
      <trkpt lat="46.96428" lon="8.58647">
        <ele>862</ele>
        <time>2021-08-10T09:29:14.737Z</time>
      </trkpt>
      <trkpt lat="46.96428" lon="8.58648">
        <ele>863</ele>
        <time>2021-08-10T09:29:15.738Z</time>
      </trkpt>
      <trkpt lat="46.96427" lon="8.58649">
        <ele>863</ele>
        <time>2021-08-10T09:29:16.738Z</time>
      </trkpt>
      <trkpt lat="46.96424" lon="8.58651">
        <ele>864</ele>
        <time>2021-08-10T09:29:17.738Z</time>
      </trkpt>
      <trkpt lat="46.96423" lon="8.58652">
        <ele>864</ele>
        <time>2021-08-10T09:29:18.737Z</time>
      </trkpt>
      <trkpt lat="46.96421" lon="8.58653">
        <ele>864</ele>
        <time>2021-08-10T09:29:19.738Z</time>
      </trkpt>
      <trkpt lat="46.9642" lon="8.58654">
        <ele>865</ele>
        <time>2021-08-10T09:29:20.737Z</time>
      </trkpt>
      <trkpt lat="46.96419" lon="8.58654">
        <ele>865</ele>
        <time>2021-08-10T09:29:21.737Z</time>
      </trkpt>
      <trkpt lat="46.96418" lon="8.58654">
        <ele>865</ele>
        <time>2021-08-10T09:29:22.738Z</time>
      </trkpt>
      <trkpt lat="46.96418" lon="8.58654">
        <ele>865</ele>
        <time>2021-08-10T09:29:23.737Z</time>
      </trkpt>
      <trkpt lat="46.96417" lon="8.58654">
        <ele>865</ele>
        <time>2021-08-10T09:29:24.737Z</time>
      </trkpt>
      <trkpt lat="46.96413" lon="8.58658">
        <ele>865</ele>
        <time>2021-08-10T09:29:25.738Z</time>
      </trkpt>
      <trkpt lat="46.96412" lon="8.58659">
        <ele>864</ele>
        <time>2021-08-10T09:29:26.737Z</time>
      </trkpt>
      <trkpt lat="46.96411" lon="8.5866">
        <ele>864</ele>
        <time>2021-08-10T09:29:27.737Z</time>
      </trkpt>
      <trkpt lat="46.9641" lon="8.5866">
        <ele>864</ele>
        <time>2021-08-10T09:29:28.738Z</time>
      </trkpt>
      <trkpt lat="46.96409" lon="8.58661">
        <ele>864</ele>
        <time>2021-08-10T09:29:29.737Z</time>
      </trkpt>
      <trkpt lat="46.96409" lon="8.58662">
        <ele>864</ele>
        <time>2021-08-10T09:29:30.737Z</time>
      </trkpt>
      <trkpt lat="46.96407" lon="8.58664">
        <ele>863</ele>
        <time>2021-08-10T09:29:31.738Z</time>
      </trkpt>
      <trkpt lat="46.96407" lon="8.58665">
        <ele>863</ele>
        <time>2021-08-10T09:29:32.737Z</time>
      </trkpt>
      <trkpt lat="46.96406" lon="8.58666">
        <ele>863</ele>
        <time>2021-08-10T09:29:33.738Z</time>
      </trkpt>
      <trkpt lat="46.96405" lon="8.58666">
        <ele>863</ele>
        <time>2021-08-10T09:29:34.737Z</time>
      </trkpt>
      <trkpt lat="46.96404" lon="8.58667">
        <ele>863</ele>
        <time>2021-08-10T09:29:35.737Z</time>
      </trkpt>
      <trkpt lat="46.96403" lon="8.58668">
        <ele>862</ele>
        <time>2021-08-10T09:29:36.737Z</time>
      </trkpt>
      <trkpt lat="46.96402" lon="8.58669">
        <ele>862</ele>
        <time>2021-08-10T09:29:37.737Z</time>
      </trkpt>
      <trkpt lat="46.96401" lon="8.58669">
        <ele>861</ele>
        <time>2021-08-10T09:29:38.737Z</time>
      </trkpt>
      <trkpt lat="46.964" lon="8.58669">
        <ele>861</ele>
        <time>2021-08-10T09:29:39.737Z</time>
      </trkpt>
      <trkpt lat="46.96399" lon="8.5867">
        <ele>861</ele>
        <time>2021-08-10T09:29:40.737Z</time>
      </trkpt>
      <trkpt lat="46.96397" lon="8.58672">
        <ele>860</ele>
        <time>2021-08-10T09:29:41.737Z</time>
      </trkpt>
      <trkpt lat="46.96396" lon="8.58673">
        <ele>860</ele>
        <time>2021-08-10T09:29:42.738Z</time>
      </trkpt>
      <trkpt lat="46.96395" lon="8.58674">
        <ele>860</ele>
        <time>2021-08-10T09:29:43.737Z</time>
      </trkpt>
      <trkpt lat="46.96394" lon="8.58675">
        <ele>860</ele>
        <time>2021-08-10T09:29:44.737Z</time>
      </trkpt>
      <trkpt lat="46.96393" lon="8.58676">
        <ele>859</ele>
        <time>2021-08-10T09:29:45.738Z</time>
      </trkpt>
      <trkpt lat="46.96393" lon="8.58678">
        <ele>859</ele>
        <time>2021-08-10T09:29:46.738Z</time>
      </trkpt>
      <trkpt lat="46.96392" lon="8.5868">
        <ele>859</ele>
        <time>2021-08-10T09:29:47.738Z</time>
      </trkpt>
      <trkpt lat="46.96391" lon="8.58682">
        <ele>858</ele>
        <time>2021-08-10T09:29:48.738Z</time>
      </trkpt>
      <trkpt lat="46.96391" lon="8.58684">
        <ele>858</ele>
        <time>2021-08-10T09:29:49.738Z</time>
      </trkpt>
      <trkpt lat="46.9639" lon="8.58686">
        <ele>858</ele>
        <time>2021-08-10T09:29:50.738Z</time>
      </trkpt>
      <trkpt lat="46.9639" lon="8.58686">
        <ele>858</ele>
        <time>2021-08-10T09:29:51.738Z</time>
      </trkpt>
      <trkpt lat="46.96387" lon="8.58689">
        <ele>858</ele>
        <time>2021-08-10T09:29:52.738Z</time>
      </trkpt>
      <trkpt lat="46.9638" lon="8.58691">
        <ele>859</ele>
        <time>2021-08-10T09:29:53.738Z</time>
      </trkpt>
      <trkpt lat="46.96379" lon="8.58691">
        <ele>859</ele>
        <time>2021-08-10T09:29:54.737Z</time>
      </trkpt>
      <trkpt lat="46.96378" lon="8.58691">
        <ele>860</ele>
        <time>2021-08-10T09:29:55.737Z</time>
      </trkpt>
      <trkpt lat="46.96377" lon="8.58692">
        <ele>860</ele>
        <time>2021-08-10T09:29:56.737Z</time>
      </trkpt>
      <trkpt lat="46.96375" lon="8.58693">
        <ele>860</ele>
        <time>2021-08-10T09:29:57.737Z</time>
      </trkpt>
      <trkpt lat="46.96374" lon="8.58695">
        <ele>861</ele>
        <time>2021-08-10T09:29:58.737Z</time>
      </trkpt>
      <trkpt lat="46.96373" lon="8.58695">
        <ele>861</ele>
        <time>2021-08-10T09:29:59.738Z</time>
      </trkpt>
      <trkpt lat="46.96369" lon="8.58696">
        <ele>863</ele>
        <time>2021-08-10T09:30:01.737Z</time>
      </trkpt>
      <trkpt lat="46.96368" lon="8.58697">
        <ele>864</ele>
        <time>2021-08-10T09:30:02.737Z</time>
      </trkpt>
      <trkpt lat="46.96367" lon="8.58698">
        <ele>864</ele>
        <time>2021-08-10T09:30:03.737Z</time>
      </trkpt>
      <trkpt lat="46.96365" lon="8.58698">
        <ele>865</ele>
        <time>2021-08-10T09:30:04.738Z</time>
      </trkpt>
      <trkpt lat="46.96364" lon="8.58699">
        <ele>865</ele>
        <time>2021-08-10T09:30:05.737Z</time>
      </trkpt>
      <trkpt lat="46.96363" lon="8.58699">
        <ele>866</ele>
        <time>2021-08-10T09:30:06.738Z</time>
      </trkpt>
      <trkpt lat="46.96362" lon="8.587">
        <ele>866</ele>
        <time>2021-08-10T09:30:07.738Z</time>
      </trkpt>
      <trkpt lat="46.9636" lon="8.587">
        <ele>866</ele>
        <time>2021-08-10T09:30:08.737Z</time>
      </trkpt>
      <trkpt lat="46.96358" lon="8.58701">
        <ele>866</ele>
        <time>2021-08-10T09:30:09.737Z</time>
      </trkpt>
      <trkpt lat="46.96357" lon="8.58701">
        <ele>866</ele>
        <time>2021-08-10T09:30:10.737Z</time>
      </trkpt>
      <trkpt lat="46.96357" lon="8.58702">
        <ele>866</ele>
        <time>2021-08-10T09:30:11.737Z</time>
      </trkpt>
      <trkpt lat="46.96356" lon="8.58702">
        <ele>866</ele>
        <time>2021-08-10T09:30:12.737Z</time>
      </trkpt>
      <trkpt lat="46.96356" lon="8.58703">
        <ele>866</ele>
        <time>2021-08-10T09:30:13.737Z</time>
      </trkpt>
      <trkpt lat="46.96355" lon="8.58704">
        <ele>865</ele>
        <time>2021-08-10T09:30:14.737Z</time>
      </trkpt>
      <trkpt lat="46.96354" lon="8.58705">
        <ele>865</ele>
        <time>2021-08-10T09:30:15.737Z</time>
      </trkpt>
      <trkpt lat="46.96354" lon="8.58706">
        <ele>864</ele>
        <time>2021-08-10T09:30:16.737Z</time>
      </trkpt>
      <trkpt lat="46.96353" lon="8.58707">
        <ele>864</ele>
        <time>2021-08-10T09:30:17.737Z</time>
      </trkpt>
      <trkpt lat="46.96352" lon="8.58707">
        <ele>864</ele>
        <time>2021-08-10T09:30:18.737Z</time>
      </trkpt>
      <trkpt lat="46.96352" lon="8.58707">
        <ele>864</ele>
        <time>2021-08-10T09:30:19.737Z</time>
      </trkpt>
      <trkpt lat="46.96351" lon="8.58707">
        <ele>864</ele>
        <time>2021-08-10T09:30:20.738Z</time>
      </trkpt>
      <trkpt lat="46.9635" lon="8.58707">
        <ele>863</ele>
        <time>2021-08-10T09:30:21.737Z</time>
      </trkpt>
      <trkpt lat="46.9635" lon="8.58708">
        <ele>864</ele>
        <time>2021-08-10T09:30:22.737Z</time>
      </trkpt>
      <trkpt lat="46.96349" lon="8.58709">
        <ele>864</ele>
        <time>2021-08-10T09:30:23.738Z</time>
      </trkpt>
      <trkpt lat="46.96348" lon="8.5871">
        <ele>864</ele>
        <time>2021-08-10T09:30:24.738Z</time>
      </trkpt>
      <trkpt lat="46.96347" lon="8.58711">
        <ele>864</ele>
        <time>2021-08-10T09:30:25.738Z</time>
      </trkpt>
      <trkpt lat="46.96347" lon="8.58712">
        <ele>864</ele>
        <time>2021-08-10T09:30:26.738Z</time>
      </trkpt>
      <trkpt lat="46.96347" lon="8.58713">
        <ele>864</ele>
        <time>2021-08-10T09:30:27.738Z</time>
      </trkpt>
      <trkpt lat="46.96347" lon="8.58714">
        <ele>864</ele>
        <time>2021-08-10T09:30:28.737Z</time>
      </trkpt>
      <trkpt lat="46.96346" lon="8.58722">
        <ele>862</ele>
        <time>2021-08-10T09:30:29.738Z</time>
      </trkpt>
      <trkpt lat="46.96346" lon="8.58723">
        <ele>862</ele>
        <time>2021-08-10T09:30:30.737Z</time>
      </trkpt>
      <trkpt lat="46.96345" lon="8.58723">
        <ele>862</ele>
        <time>2021-08-10T09:30:31.737Z</time>
      </trkpt>
      <trkpt lat="46.96345" lon="8.58723">
        <ele>862</ele>
        <time>2021-08-10T09:30:32.737Z</time>
      </trkpt>
      <trkpt lat="46.96344" lon="8.58723">
        <ele>862</ele>
        <time>2021-08-10T09:30:33.737Z</time>
      </trkpt>
      <trkpt lat="46.96344" lon="8.58724">
        <ele>862</ele>
        <time>2021-08-10T09:30:34.738Z</time>
      </trkpt>
      <trkpt lat="46.96343" lon="8.58725">
        <ele>862</ele>
        <time>2021-08-10T09:30:35.737Z</time>
      </trkpt>
      <trkpt lat="46.96343" lon="8.58725">
        <ele>862</ele>
        <time>2021-08-10T09:30:36.738Z</time>
      </trkpt>
      <trkpt lat="46.96343" lon="8.58725">
        <ele>862</ele>
        <time>2021-08-10T09:30:37.738Z</time>
      </trkpt>
      <trkpt lat="46.96342" lon="8.58726">
        <ele>862</ele>
        <time>2021-08-10T09:30:38.737Z</time>
      </trkpt>
      <trkpt lat="46.96341" lon="8.58726">
        <ele>862</ele>
        <time>2021-08-10T09:30:39.738Z</time>
      </trkpt>
      <trkpt lat="46.96341" lon="8.58726">
        <ele>862</ele>
        <time>2021-08-10T09:30:40.738Z</time>
      </trkpt>
      <trkpt lat="46.9634" lon="8.58727">
        <ele>862</ele>
        <time>2021-08-10T09:30:41.738Z</time>
      </trkpt>
      <trkpt lat="46.9634" lon="8.58727">
        <ele>862</ele>
        <time>2021-08-10T09:30:42.738Z</time>
      </trkpt>
      <trkpt lat="46.96339" lon="8.58727">
        <ele>862</ele>
        <time>2021-08-10T09:30:43.737Z</time>
      </trkpt>
      <trkpt lat="46.96338" lon="8.58727">
        <ele>862</ele>
        <time>2021-08-10T09:30:44.737Z</time>
      </trkpt>
      <trkpt lat="46.96336" lon="8.58728">
        <ele>862</ele>
        <time>2021-08-10T09:30:45.738Z</time>
      </trkpt>
      <trkpt lat="46.96335" lon="8.58728">
        <ele>862</ele>
        <time>2021-08-10T09:30:46.737Z</time>
      </trkpt>
      <trkpt lat="46.96333" lon="8.58728">
        <ele>862</ele>
        <time>2021-08-10T09:30:47.737Z</time>
      </trkpt>
      <trkpt lat="46.96332" lon="8.58728">
        <ele>862</ele>
        <time>2021-08-10T09:30:48.737Z</time>
      </trkpt>
      <trkpt lat="46.96331" lon="8.58729">
        <ele>862</ele>
        <time>2021-08-10T09:30:49.737Z</time>
      </trkpt>
      <trkpt lat="46.9633" lon="8.58729">
        <ele>862</ele>
        <time>2021-08-10T09:30:50.738Z</time>
      </trkpt>
      <trkpt lat="46.96329" lon="8.58729">
        <ele>863</ele>
        <time>2021-08-10T09:30:51.738Z</time>
      </trkpt>
      <trkpt lat="46.96328" lon="8.5873">
        <ele>863</ele>
        <time>2021-08-10T09:30:52.737Z</time>
      </trkpt>
      <trkpt lat="46.96327" lon="8.58731">
        <ele>863</ele>
        <time>2021-08-10T09:30:53.738Z</time>
      </trkpt>
      <trkpt lat="46.96325" lon="8.58731">
        <ele>863</ele>
        <time>2021-08-10T09:30:54.738Z</time>
      </trkpt>
      <trkpt lat="46.96325" lon="8.58731">
        <ele>864</ele>
        <time>2021-08-10T09:30:55.737Z</time>
      </trkpt>
      <trkpt lat="46.96324" lon="8.58732">
        <ele>864</ele>
        <time>2021-08-10T09:30:56.737Z</time>
      </trkpt>
      <trkpt lat="46.96322" lon="8.58734">
        <ele>864</ele>
        <time>2021-08-10T09:30:57.738Z</time>
      </trkpt>
      <trkpt lat="46.96321" lon="8.58735">
        <ele>864</ele>
        <time>2021-08-10T09:30:58.738Z</time>
      </trkpt>
      <trkpt lat="46.9632" lon="8.58735">
        <ele>865</ele>
        <time>2021-08-10T09:30:59.738Z</time>
      </trkpt>
      <trkpt lat="46.96319" lon="8.58735">
        <ele>865</ele>
        <time>2021-08-10T09:31:00.738Z</time>
      </trkpt>
      <trkpt lat="46.96318" lon="8.58736">
        <ele>865</ele>
        <time>2021-08-10T09:31:01.738Z</time>
      </trkpt>
      <trkpt lat="46.96318" lon="8.58736">
        <ele>866</ele>
        <time>2021-08-10T09:31:02.738Z</time>
      </trkpt>
      <trkpt lat="46.96317" lon="8.58736">
        <ele>866</ele>
        <time>2021-08-10T09:31:03.738Z</time>
      </trkpt>
      <trkpt lat="46.96316" lon="8.58737">
        <ele>866</ele>
        <time>2021-08-10T09:31:04.737Z</time>
      </trkpt>
      <trkpt lat="46.96316" lon="8.58737">
        <ele>867</ele>
        <time>2021-08-10T09:31:05.738Z</time>
      </trkpt>
      <trkpt lat="46.96315" lon="8.58737">
        <ele>867</ele>
        <time>2021-08-10T09:31:06.738Z</time>
      </trkpt>
      <trkpt lat="46.96314" lon="8.58738">
        <ele>867</ele>
        <time>2021-08-10T09:31:07.738Z</time>
      </trkpt>
      <trkpt lat="46.96314" lon="8.58739">
        <ele>867</ele>
        <time>2021-08-10T09:31:08.738Z</time>
      </trkpt>
      <trkpt lat="46.96314" lon="8.5874">
        <ele>867</ele>
        <time>2021-08-10T09:31:09.738Z</time>
      </trkpt>
      <trkpt lat="46.96314" lon="8.58741">
        <ele>867</ele>
        <time>2021-08-10T09:31:10.737Z</time>
      </trkpt>
      <trkpt lat="46.96315" lon="8.58744">
        <ele>867</ele>
        <time>2021-08-10T09:31:11.738Z</time>
      </trkpt>
      <trkpt lat="46.96315" lon="8.58746">
        <ele>867</ele>
        <time>2021-08-10T09:31:12.738Z</time>
      </trkpt>
      <trkpt lat="46.96315" lon="8.58748">
        <ele>867</ele>
        <time>2021-08-10T09:31:13.738Z</time>
      </trkpt>
      <trkpt lat="46.96315" lon="8.58748">
        <ele>867</ele>
        <time>2021-08-10T09:31:14.738Z</time>
      </trkpt>
      <trkpt lat="46.96315" lon="8.58749">
        <ele>867</ele>
        <time>2021-08-10T09:31:15.738Z</time>
      </trkpt>
      <trkpt lat="46.96316" lon="8.5875">
        <ele>867</ele>
        <time>2021-08-10T09:31:16.737Z</time>
      </trkpt>
      <trkpt lat="46.96316" lon="8.58751">
        <ele>867</ele>
        <time>2021-08-10T09:31:17.738Z</time>
      </trkpt>
      <trkpt lat="46.96317" lon="8.58753">
        <ele>867</ele>
        <time>2021-08-10T09:31:18.738Z</time>
      </trkpt>
      <trkpt lat="46.96317" lon="8.58754">
        <ele>866</ele>
        <time>2021-08-10T09:31:19.738Z</time>
      </trkpt>
      <trkpt lat="46.96317" lon="8.58755">
        <ele>866</ele>
        <time>2021-08-10T09:31:20.738Z</time>
      </trkpt>
      <trkpt lat="46.96317" lon="8.58756">
        <ele>865</ele>
        <time>2021-08-10T09:31:21.737Z</time>
      </trkpt>
      <trkpt lat="46.96317" lon="8.58757">
        <ele>865</ele>
        <time>2021-08-10T09:31:22.738Z</time>
      </trkpt>
      <trkpt lat="46.96317" lon="8.58758">
        <ele>865</ele>
        <time>2021-08-10T09:31:23.738Z</time>
      </trkpt>
      <trkpt lat="46.96318" lon="8.58759">
        <ele>864</ele>
        <time>2021-08-10T09:31:24.738Z</time>
      </trkpt>
      <trkpt lat="46.96318" lon="8.58761">
        <ele>864</ele>
        <time>2021-08-10T09:31:25.738Z</time>
      </trkpt>
      <trkpt lat="46.96318" lon="8.58762">
        <ele>864</ele>
        <time>2021-08-10T09:31:26.738Z</time>
      </trkpt>
      <trkpt lat="46.96319" lon="8.58764">
        <ele>863</ele>
        <time>2021-08-10T09:31:27.738Z</time>
      </trkpt>
      <trkpt lat="46.9632" lon="8.58764">
        <ele>863</ele>
        <time>2021-08-10T09:31:28.738Z</time>
      </trkpt>
      <trkpt lat="46.96321" lon="8.58764">
        <ele>862</ele>
        <time>2021-08-10T09:31:29.737Z</time>
      </trkpt>
      <trkpt lat="46.96321" lon="8.58763">
        <ele>862</ele>
        <time>2021-08-10T09:31:30.738Z</time>
      </trkpt>
      <trkpt lat="46.96322" lon="8.58763">
        <ele>862</ele>
        <time>2021-08-10T09:31:31.738Z</time>
      </trkpt>
      <trkpt lat="46.96323" lon="8.58762">
        <ele>861</ele>
        <time>2021-08-10T09:31:32.738Z</time>
      </trkpt>
      <trkpt lat="46.96323" lon="8.58762">
        <ele>861</ele>
        <time>2021-08-10T09:31:33.738Z</time>
      </trkpt>
      <trkpt lat="46.96323" lon="8.58763">
        <ele>860</ele>
        <time>2021-08-10T09:31:34.738Z</time>
      </trkpt>
      <trkpt lat="46.96323" lon="8.58764">
        <ele>861</ele>
        <time>2021-08-10T09:31:35.737Z</time>
      </trkpt>
      <trkpt lat="46.96323" lon="8.58764">
        <ele>861</ele>
        <time>2021-08-10T09:31:36.737Z</time>
      </trkpt>
      <trkpt lat="46.96324" lon="8.58763">
        <ele>861</ele>
        <time>2021-08-10T09:31:37.738Z</time>
      </trkpt>
      <trkpt lat="46.96331" lon="8.58763">
        <ele>859</ele>
        <time>2021-08-10T09:31:38.738Z</time>
      </trkpt>
      <trkpt lat="46.96332" lon="8.58762">
        <ele>859</ele>
        <time>2021-08-10T09:31:39.739Z</time>
      </trkpt>
      <trkpt lat="46.96332" lon="8.58761">
        <ele>859</ele>
        <time>2021-08-10T09:31:40.738Z</time>
      </trkpt>
      <trkpt lat="46.96332" lon="8.58761">
        <ele>859</ele>
        <time>2021-08-10T09:31:41.738Z</time>
      </trkpt>
      <trkpt lat="46.96332" lon="8.58762">
        <ele>859</ele>
        <time>2021-08-10T09:31:42.739Z</time>
      </trkpt>
      <trkpt lat="46.96332" lon="8.58762">
        <ele>858</ele>
        <time>2021-08-10T09:31:43.739Z</time>
      </trkpt>
      <trkpt lat="46.96332" lon="8.58763">
        <ele>858</ele>
        <time>2021-08-10T09:31:44.739Z</time>
      </trkpt>
      <trkpt lat="46.96333" lon="8.58763">
        <ele>858</ele>
        <time>2021-08-10T09:31:45.738Z</time>
      </trkpt>
      <trkpt lat="46.96333" lon="8.58764">
        <ele>858</ele>
        <time>2021-08-10T09:31:46.739Z</time>
      </trkpt>
      <trkpt lat="46.96333" lon="8.58764">
        <ele>858</ele>
        <time>2021-08-10T09:31:47.739Z</time>
      </trkpt>
      <trkpt lat="46.96324" lon="8.5876">
        <ele>860</ele>
        <time>2021-08-10T09:31:48.739Z</time>
      </trkpt>
      <trkpt lat="46.96321" lon="8.58759">
        <ele>860</ele>
        <time>2021-08-10T09:31:49.739Z</time>
      </trkpt>
      <trkpt lat="46.96324" lon="8.58755">
        <ele>837</ele>
        <time>2021-08-10T09:31:50.739Z</time>
      </trkpt>
      <trkpt lat="46.96324" lon="8.58756">
        <ele>837</ele>
        <time>2021-08-10T09:31:51.738Z</time>
      </trkpt>
      <trkpt lat="46.96324" lon="8.58757">
        <ele>836</ele>
        <time>2021-08-10T09:31:52.739Z</time>
      </trkpt>
      <trkpt lat="46.96323" lon="8.58758">
        <ele>836</ele>
        <time>2021-08-10T09:31:53.739Z</time>
      </trkpt>
      <trkpt lat="46.96321" lon="8.58761">
        <ele>836</ele>
        <time>2021-08-10T09:31:54.739Z</time>
      </trkpt>
      <trkpt lat="46.9632" lon="8.58762">
        <ele>836</ele>
        <time>2021-08-10T09:31:55.739Z</time>
      </trkpt>
      <trkpt lat="46.96319" lon="8.58762">
        <ele>837</ele>
        <time>2021-08-10T09:31:56.738Z</time>
      </trkpt>
      <trkpt lat="46.96317" lon="8.58764">
        <ele>837</ele>
        <time>2021-08-10T09:31:57.739Z</time>
      </trkpt>
      <trkpt lat="46.96317" lon="8.58764">
        <ele>838</ele>
        <time>2021-08-10T09:31:58.739Z</time>
      </trkpt>
      <trkpt lat="46.96316" lon="8.58765">
        <ele>839</ele>
        <time>2021-08-10T09:31:59.740Z</time>
      </trkpt>
      <trkpt lat="46.96316" lon="8.58765">
        <ele>839</ele>
        <time>2021-08-10T09:32:00.740Z</time>
      </trkpt>
      <trkpt lat="46.96315" lon="8.58766">
        <ele>840</ele>
        <time>2021-08-10T09:32:01.740Z</time>
      </trkpt>
      <trkpt lat="46.96314" lon="8.58767">
        <ele>840</ele>
        <time>2021-08-10T09:32:02.740Z</time>
      </trkpt>
      <trkpt lat="46.96309" lon="8.58767">
        <ele>842</ele>
        <time>2021-08-10T09:32:03.740Z</time>
      </trkpt>
      <trkpt lat="46.96308" lon="8.58767">
        <ele>843</ele>
        <time>2021-08-10T09:32:04.741Z</time>
      </trkpt>
      <trkpt lat="46.96307" lon="8.58767">
        <ele>843</ele>
        <time>2021-08-10T09:32:05.740Z</time>
      </trkpt>
      <trkpt lat="46.96307" lon="8.58767">
        <ele>845</ele>
        <time>2021-08-10T09:32:06.741Z</time>
      </trkpt>
      <trkpt lat="46.96306" lon="8.58767">
        <ele>845</ele>
        <time>2021-08-10T09:32:07.742Z</time>
      </trkpt>
      <trkpt lat="46.96305" lon="8.58767">
        <ele>846</ele>
        <time>2021-08-10T09:32:08.741Z</time>
      </trkpt>
      <trkpt lat="46.96305" lon="8.58768">
        <ele>846</ele>
        <time>2021-08-10T09:32:09.741Z</time>
      </trkpt>
      <trkpt lat="46.96305" lon="8.58768">
        <ele>847</ele>
        <time>2021-08-10T09:32:10.741Z</time>
      </trkpt>
      <trkpt lat="46.96304" lon="8.58769">
        <ele>847</ele>
        <time>2021-08-10T09:32:11.742Z</time>
      </trkpt>
      <trkpt lat="46.96303" lon="8.58771">
        <ele>848</ele>
        <time>2021-08-10T09:32:12.741Z</time>
      </trkpt>
      <trkpt lat="46.96302" lon="8.58772">
        <ele>848</ele>
        <time>2021-08-10T09:32:13.741Z</time>
      </trkpt>
      <trkpt lat="46.96302" lon="8.58773">
        <ele>848</ele>
        <time>2021-08-10T09:32:14.742Z</time>
      </trkpt>
      <trkpt lat="46.96301" lon="8.58774">
        <ele>849</ele>
        <time>2021-08-10T09:32:15.741Z</time>
      </trkpt>
      <trkpt lat="46.96301" lon="8.58775">
        <ele>849</ele>
        <time>2021-08-10T09:32:16.742Z</time>
      </trkpt>
      <trkpt lat="46.963" lon="8.58775">
        <ele>850</ele>
        <time>2021-08-10T09:32:17.742Z</time>
      </trkpt>
      <trkpt lat="46.963" lon="8.58775">
        <ele>850</ele>
        <time>2021-08-10T09:32:18.742Z</time>
      </trkpt>
      <trkpt lat="46.96299" lon="8.58775">
        <ele>850</ele>
        <time>2021-08-10T09:32:19.742Z</time>
      </trkpt>
      <trkpt lat="46.96298" lon="8.58776">
        <ele>850</ele>
        <time>2021-08-10T09:32:20.742Z</time>
      </trkpt>
      <trkpt lat="46.96298" lon="8.58777">
        <ele>850</ele>
        <time>2021-08-10T09:32:21.742Z</time>
      </trkpt>
      <trkpt lat="46.96297" lon="8.58778">
        <ele>851</ele>
        <time>2021-08-10T09:32:22.741Z</time>
      </trkpt>
      <trkpt lat="46.96296" lon="8.58779">
        <ele>851</ele>
        <time>2021-08-10T09:32:23.741Z</time>
      </trkpt>
      <trkpt lat="46.96295" lon="8.5878">
        <ele>851</ele>
        <time>2021-08-10T09:32:24.741Z</time>
      </trkpt>
      <trkpt lat="46.96295" lon="8.58781">
        <ele>852</ele>
        <time>2021-08-10T09:32:25.742Z</time>
      </trkpt>
      <trkpt lat="46.96294" lon="8.58783">
        <ele>852</ele>
        <time>2021-08-10T09:32:26.742Z</time>
      </trkpt>
      <trkpt lat="46.96293" lon="8.58784">
        <ele>852</ele>
        <time>2021-08-10T09:32:27.741Z</time>
      </trkpt>
      <trkpt lat="46.96291" lon="8.58786">
        <ele>852</ele>
        <time>2021-08-10T09:32:28.742Z</time>
      </trkpt>
      <trkpt lat="46.9629" lon="8.58786">
        <ele>852</ele>
        <time>2021-08-10T09:32:29.742Z</time>
      </trkpt>
      <trkpt lat="46.96289" lon="8.58787">
        <ele>852</ele>
        <time>2021-08-10T09:32:30.742Z</time>
      </trkpt>
      <trkpt lat="46.96288" lon="8.58787">
        <ele>853</ele>
        <time>2021-08-10T09:32:31.742Z</time>
      </trkpt>
      <trkpt lat="46.96287" lon="8.58788">
        <ele>853</ele>
        <time>2021-08-10T09:32:32.742Z</time>
      </trkpt>
      <trkpt lat="46.96285" lon="8.58789">
        <ele>852</ele>
        <time>2021-08-10T09:32:33.742Z</time>
      </trkpt>
      <trkpt lat="46.96284" lon="8.5879">
        <ele>852</ele>
        <time>2021-08-10T09:32:34.742Z</time>
      </trkpt>
      <trkpt lat="46.96283" lon="8.58791">
        <ele>852</ele>
        <time>2021-08-10T09:32:35.742Z</time>
      </trkpt>
      <trkpt lat="46.96281" lon="8.58793">
        <ele>852</ele>
        <time>2021-08-10T09:32:36.741Z</time>
      </trkpt>
      <trkpt lat="46.96279" lon="8.58797">
        <ele>852</ele>
        <time>2021-08-10T09:32:37.742Z</time>
      </trkpt>
      <trkpt lat="46.96277" lon="8.58798">
        <ele>851</ele>
        <time>2021-08-10T09:32:38.742Z</time>
      </trkpt>
      <trkpt lat="46.96276" lon="8.588">
        <ele>851</ele>
        <time>2021-08-10T09:32:39.742Z</time>
      </trkpt>
      <trkpt lat="46.96275" lon="8.58801">
        <ele>851</ele>
        <time>2021-08-10T09:32:40.742Z</time>
      </trkpt>
      <trkpt lat="46.96275" lon="8.58804">
        <ele>851</ele>
        <time>2021-08-10T09:32:41.741Z</time>
      </trkpt>
      <trkpt lat="46.96274" lon="8.58806">
        <ele>852</ele>
        <time>2021-08-10T09:32:42.742Z</time>
      </trkpt>
      <trkpt lat="46.96274" lon="8.58808">
        <ele>852</ele>
        <time>2021-08-10T09:32:43.742Z</time>
      </trkpt>
      <trkpt lat="46.96274" lon="8.5881">
        <ele>852</ele>
        <time>2021-08-10T09:32:44.741Z</time>
      </trkpt>
      <trkpt lat="46.96274" lon="8.58812">
        <ele>851</ele>
        <time>2021-08-10T09:32:45.742Z</time>
      </trkpt>
      <trkpt lat="46.96274" lon="8.58814">
        <ele>851</ele>
        <time>2021-08-10T09:32:46.742Z</time>
      </trkpt>
      <trkpt lat="46.96275" lon="8.58817">
        <ele>851</ele>
        <time>2021-08-10T09:32:47.742Z</time>
      </trkpt>
      <trkpt lat="46.96275" lon="8.58819">
        <ele>851</ele>
        <time>2021-08-10T09:32:48.742Z</time>
      </trkpt>
      <trkpt lat="46.96275" lon="8.58821">
        <ele>851</ele>
        <time>2021-08-10T09:32:49.741Z</time>
      </trkpt>
      <trkpt lat="46.96274" lon="8.58821">
        <ele>851</ele>
        <time>2021-08-10T09:32:50.742Z</time>
      </trkpt>
      <trkpt lat="46.96274" lon="8.58822">
        <ele>851</ele>
        <time>2021-08-10T09:32:51.741Z</time>
      </trkpt>
      <trkpt lat="46.96274" lon="8.58824">
        <ele>851</ele>
        <time>2021-08-10T09:32:52.742Z</time>
      </trkpt>
      <trkpt lat="46.96274" lon="8.58825">
        <ele>851</ele>
        <time>2021-08-10T09:32:53.741Z</time>
      </trkpt>
      <trkpt lat="46.96274" lon="8.58827">
        <ele>851</ele>
        <time>2021-08-10T09:32:54.741Z</time>
      </trkpt>
      <trkpt lat="46.96274" lon="8.58829">
        <ele>851</ele>
        <time>2021-08-10T09:32:55.741Z</time>
      </trkpt>
      <trkpt lat="46.96273" lon="8.5883">
        <ele>851</ele>
        <time>2021-08-10T09:32:56.741Z</time>
      </trkpt>
      <trkpt lat="46.96273" lon="8.58832">
        <ele>850</ele>
        <time>2021-08-10T09:32:57.741Z</time>
      </trkpt>
      <trkpt lat="46.96274" lon="8.58833">
        <ele>850</ele>
        <time>2021-08-10T09:32:58.741Z</time>
      </trkpt>
      <trkpt lat="46.96274" lon="8.58834">
        <ele>850</ele>
        <time>2021-08-10T09:32:59.742Z</time>
      </trkpt>
      <trkpt lat="46.96275" lon="8.58836">
        <ele>850</ele>
        <time>2021-08-10T09:33:00.742Z</time>
      </trkpt>
      <trkpt lat="46.96274" lon="8.58837">
        <ele>850</ele>
        <time>2021-08-10T09:33:01.742Z</time>
      </trkpt>
      <trkpt lat="46.96274" lon="8.58838">
        <ele>851</ele>
        <time>2021-08-10T09:33:02.742Z</time>
      </trkpt>
      <trkpt lat="46.96274" lon="8.5884">
        <ele>851</ele>
        <time>2021-08-10T09:33:03.742Z</time>
      </trkpt>
      <trkpt lat="46.96275" lon="8.58841">
        <ele>851</ele>
        <time>2021-08-10T09:33:04.742Z</time>
      </trkpt>
      <trkpt lat="46.96275" lon="8.58843">
        <ele>851</ele>
        <time>2021-08-10T09:33:05.742Z</time>
      </trkpt>
      <trkpt lat="46.96274" lon="8.58845">
        <ele>851</ele>
        <time>2021-08-10T09:33:06.742Z</time>
      </trkpt>
      <trkpt lat="46.96273" lon="8.58848">
        <ele>851</ele>
        <time>2021-08-10T09:33:07.741Z</time>
      </trkpt>
      <trkpt lat="46.96273" lon="8.5885">
        <ele>850</ele>
        <time>2021-08-10T09:33:08.742Z</time>
      </trkpt>
      <trkpt lat="46.96273" lon="8.58851">
        <ele>850</ele>
        <time>2021-08-10T09:33:09.742Z</time>
      </trkpt>
      <trkpt lat="46.96273" lon="8.58854">
        <ele>850</ele>
        <time>2021-08-10T09:33:10.741Z</time>
      </trkpt>
      <trkpt lat="46.96273" lon="8.58855">
        <ele>850</ele>
        <time>2021-08-10T09:33:11.742Z</time>
      </trkpt>
      <trkpt lat="46.96272" lon="8.58856">
        <ele>850</ele>
        <time>2021-08-10T09:33:12.741Z</time>
      </trkpt>
      <trkpt lat="46.96272" lon="8.58857">
        <ele>850</ele>
        <time>2021-08-10T09:33:13.742Z</time>
      </trkpt>
      <trkpt lat="46.96271" lon="8.58858">
        <ele>849</ele>
        <time>2021-08-10T09:33:14.741Z</time>
      </trkpt>
      <trkpt lat="46.9627" lon="8.5886">
        <ele>849</ele>
        <time>2021-08-10T09:33:15.742Z</time>
      </trkpt>
      <trkpt lat="46.9627" lon="8.58861">
        <ele>849</ele>
        <time>2021-08-10T09:33:16.742Z</time>
      </trkpt>
      <trkpt lat="46.96269" lon="8.58862">
        <ele>849</ele>
        <time>2021-08-10T09:33:17.742Z</time>
      </trkpt>
      <trkpt lat="46.96269" lon="8.58863">
        <ele>849</ele>
        <time>2021-08-10T09:33:18.742Z</time>
      </trkpt>
      <trkpt lat="46.96268" lon="8.58864">
        <ele>849</ele>
        <time>2021-08-10T09:33:19.741Z</time>
      </trkpt>
      <trkpt lat="46.96267" lon="8.58865">
        <ele>849</ele>
        <time>2021-08-10T09:33:20.742Z</time>
      </trkpt>
      <trkpt lat="46.96266" lon="8.58866">
        <ele>849</ele>
        <time>2021-08-10T09:33:21.742Z</time>
      </trkpt>
      <trkpt lat="46.96266" lon="8.58867">
        <ele>849</ele>
        <time>2021-08-10T09:33:22.741Z</time>
      </trkpt>
      <trkpt lat="46.96265" lon="8.58868">
        <ele>849</ele>
        <time>2021-08-10T09:33:23.742Z</time>
      </trkpt>
      <trkpt lat="46.96265" lon="8.58869">
        <ele>849</ele>
        <time>2021-08-10T09:33:24.742Z</time>
      </trkpt>
      <trkpt lat="46.96265" lon="8.5887">
        <ele>849</ele>
        <time>2021-08-10T09:33:25.741Z</time>
      </trkpt>
      <trkpt lat="46.96264" lon="8.58876">
        <ele>848</ele>
        <time>2021-08-10T09:33:26.742Z</time>
      </trkpt>
      <trkpt lat="46.96265" lon="8.58877">
        <ele>848</ele>
        <time>2021-08-10T09:33:27.742Z</time>
      </trkpt>
      <trkpt lat="46.96267" lon="8.58878">
        <ele>848</ele>
        <time>2021-08-10T09:33:28.742Z</time>
      </trkpt>
      <trkpt lat="46.96268" lon="8.58878">
        <ele>848</ele>
        <time>2021-08-10T09:33:29.741Z</time>
      </trkpt>
      <trkpt lat="46.96269" lon="8.58878">
        <ele>848</ele>
        <time>2021-08-10T09:33:30.741Z</time>
      </trkpt>
      <trkpt lat="46.9627" lon="8.58878">
        <ele>848</ele>
        <time>2021-08-10T09:33:31.742Z</time>
      </trkpt>
      <trkpt lat="46.9627" lon="8.58879">
        <ele>848</ele>
        <time>2021-08-10T09:33:32.741Z</time>
      </trkpt>
      <trkpt lat="46.9627" lon="8.58879">
        <ele>848</ele>
        <time>2021-08-10T09:33:33.742Z</time>
      </trkpt>
      <trkpt lat="46.96271" lon="8.5888">
        <ele>848</ele>
        <time>2021-08-10T09:33:34.741Z</time>
      </trkpt>
      <trkpt lat="46.96271" lon="8.5888">
        <ele>847</ele>
        <time>2021-08-10T09:33:35.742Z</time>
      </trkpt>
      <trkpt lat="46.96272" lon="8.58881">
        <ele>847</ele>
        <time>2021-08-10T09:33:36.742Z</time>
      </trkpt>
      <trkpt lat="46.96272" lon="8.58882">
        <ele>847</ele>
        <time>2021-08-10T09:33:37.742Z</time>
      </trkpt>
      <trkpt lat="46.96272" lon="8.58884">
        <ele>847</ele>
        <time>2021-08-10T09:33:38.741Z</time>
      </trkpt>
      <trkpt lat="46.96272" lon="8.58885">
        <ele>847</ele>
        <time>2021-08-10T09:33:39.741Z</time>
      </trkpt>
      <trkpt lat="46.96272" lon="8.58886">
        <ele>847</ele>
        <time>2021-08-10T09:33:40.742Z</time>
      </trkpt>
      <trkpt lat="46.96272" lon="8.58888">
        <ele>847</ele>
        <time>2021-08-10T09:33:41.742Z</time>
      </trkpt>
      <trkpt lat="46.96272" lon="8.58889">
        <ele>847</ele>
        <time>2021-08-10T09:33:42.741Z</time>
      </trkpt>
      <trkpt lat="46.96272" lon="8.58891">
        <ele>847</ele>
        <time>2021-08-10T09:33:43.741Z</time>
      </trkpt>
      <trkpt lat="46.96272" lon="8.58892">
        <ele>847</ele>
        <time>2021-08-10T09:33:44.741Z</time>
      </trkpt>
      <trkpt lat="46.96272" lon="8.58892">
        <ele>847</ele>
        <time>2021-08-10T09:33:45.741Z</time>
      </trkpt>
      <trkpt lat="46.96272" lon="8.58892">
        <ele>847</ele>
        <time>2021-08-10T09:33:46.741Z</time>
      </trkpt>
      <trkpt lat="46.96273" lon="8.5889">
        <ele>847</ele>
        <time>2021-08-10T09:33:47.741Z</time>
      </trkpt>
      <trkpt lat="46.96273" lon="8.5889">
        <ele>847</ele>
        <time>2021-08-10T09:33:48.741Z</time>
      </trkpt>
      <trkpt lat="46.96273" lon="8.5889">
        <ele>847</ele>
        <time>2021-08-10T09:33:49.741Z</time>
      </trkpt>
      <trkpt lat="46.96273" lon="8.58891">
        <ele>848</ele>
        <time>2021-08-10T09:33:50.741Z</time>
      </trkpt>
      <trkpt lat="46.96273" lon="8.58892">
        <ele>848</ele>
        <time>2021-08-10T09:33:51.741Z</time>
      </trkpt>
      <trkpt lat="46.96274" lon="8.58892">
        <ele>848</ele>
        <time>2021-08-10T09:33:52.741Z</time>
      </trkpt>
      <trkpt lat="46.96274" lon="8.58892">
        <ele>848</ele>
        <time>2021-08-10T09:33:53.741Z</time>
      </trkpt>
      <trkpt lat="46.96274" lon="8.58892">
        <ele>848</ele>
        <time>2021-08-10T09:33:54.741Z</time>
      </trkpt>
      <trkpt lat="46.96274" lon="8.58893">
        <ele>848</ele>
        <time>2021-08-10T09:33:55.741Z</time>
      </trkpt>
      <trkpt lat="46.96274" lon="8.58892">
        <ele>848</ele>
        <time>2021-08-10T09:33:56.741Z</time>
      </trkpt>
      <trkpt lat="46.96274" lon="8.58891">
        <ele>848</ele>
        <time>2021-08-10T09:33:57.741Z</time>
      </trkpt>
      <trkpt lat="46.96275" lon="8.5889">
        <ele>848</ele>
        <time>2021-08-10T09:33:58.742Z</time>
      </trkpt>
      <trkpt lat="46.96275" lon="8.5889">
        <ele>848</ele>
        <time>2021-08-10T09:33:59.741Z</time>
      </trkpt>
      <trkpt lat="46.96275" lon="8.5889">
        <ele>848</ele>
        <time>2021-08-10T09:34:00.741Z</time>
      </trkpt>
      <trkpt lat="46.96276" lon="8.5889">
        <ele>847</ele>
        <time>2021-08-10T09:34:01.741Z</time>
      </trkpt>
      <trkpt lat="46.96276" lon="8.5889">
        <ele>847</ele>
        <time>2021-08-10T09:34:02.742Z</time>
      </trkpt>
      <trkpt lat="46.96276" lon="8.5889">
        <ele>847</ele>
        <time>2021-08-10T09:34:03.741Z</time>
      </trkpt>
      <trkpt lat="46.96276" lon="8.5889">
        <ele>847</ele>
        <time>2021-08-10T09:34:04.742Z</time>
      </trkpt>
      <trkpt lat="46.96275" lon="8.58891">
        <ele>847</ele>
        <time>2021-08-10T09:34:05.742Z</time>
      </trkpt>
      <trkpt lat="46.96274" lon="8.58894">
        <ele>847</ele>
        <time>2021-08-10T09:34:06.742Z</time>
      </trkpt>
      <trkpt lat="46.96274" lon="8.58895">
        <ele>847</ele>
        <time>2021-08-10T09:34:07.741Z</time>
      </trkpt>
      <trkpt lat="46.96274" lon="8.58895">
        <ele>846</ele>
        <time>2021-08-10T09:34:08.742Z</time>
      </trkpt>
      <trkpt lat="46.96274" lon="8.58896">
        <ele>846</ele>
        <time>2021-08-10T09:34:09.742Z</time>
      </trkpt>
      <trkpt lat="46.96273" lon="8.58901">
        <ele>846</ele>
        <time>2021-08-10T09:34:10.742Z</time>
      </trkpt>
      <trkpt lat="46.96273" lon="8.58902">
        <ele>846</ele>
        <time>2021-08-10T09:34:11.742Z</time>
      </trkpt>
      <trkpt lat="46.96273" lon="8.58904">
        <ele>846</ele>
        <time>2021-08-10T09:34:12.743Z</time>
      </trkpt>
      <trkpt lat="46.96273" lon="8.58905">
        <ele>845</ele>
        <time>2021-08-10T09:34:13.742Z</time>
      </trkpt>
      <trkpt lat="46.96272" lon="8.58907">
        <ele>845</ele>
        <time>2021-08-10T09:34:14.742Z</time>
      </trkpt>
      <trkpt lat="46.96272" lon="8.58907">
        <ele>845</ele>
        <time>2021-08-10T09:34:15.742Z</time>
      </trkpt>
      <trkpt lat="46.96273" lon="8.58905">
        <ele>842</ele>
        <time>2021-08-10T09:34:16.743Z</time>
      </trkpt>
      <trkpt lat="46.96273" lon="8.58904">
        <ele>842</ele>
        <time>2021-08-10T09:34:17.743Z</time>
      </trkpt>
      <trkpt lat="46.96273" lon="8.58903">
        <ele>842</ele>
        <time>2021-08-10T09:34:18.742Z</time>
      </trkpt>
      <trkpt lat="46.96273" lon="8.58903">
        <ele>842</ele>
        <time>2021-08-10T09:34:19.743Z</time>
      </trkpt>
      <trkpt lat="46.96272" lon="8.58903">
        <ele>842</ele>
        <time>2021-08-10T09:34:20.742Z</time>
      </trkpt>
      <trkpt lat="46.96272" lon="8.58902">
        <ele>843</ele>
        <time>2021-08-10T09:34:21.743Z</time>
      </trkpt>
      <trkpt lat="46.9627" lon="8.58903">
        <ele>845</ele>
        <time>2021-08-10T09:34:22.743Z</time>
      </trkpt>
      <trkpt lat="46.9627" lon="8.58903">
        <ele>845</ele>
        <time>2021-08-10T09:34:23.743Z</time>
      </trkpt>
      <trkpt lat="46.9627" lon="8.58903">
        <ele>846</ele>
        <time>2021-08-10T09:34:24.742Z</time>
      </trkpt>
      <trkpt lat="46.9627" lon="8.58904">
        <ele>847</ele>
        <time>2021-08-10T09:34:25.743Z</time>
      </trkpt>
      <trkpt lat="46.96269" lon="8.58904">
        <ele>866</ele>
        <time>2021-08-10T09:34:26.742Z</time>
      </trkpt>
      <trkpt lat="46.96269" lon="8.58903">
        <ele>867</ele>
        <time>2021-08-10T09:34:27.742Z</time>
      </trkpt>
      <trkpt lat="46.96269" lon="8.58904">
        <ele>868</ele>
        <time>2021-08-10T09:34:28.743Z</time>
      </trkpt>
      <trkpt lat="46.96268" lon="8.58905">
        <ele>868</ele>
        <time>2021-08-10T09:34:29.743Z</time>
      </trkpt>
      <trkpt lat="46.96268" lon="8.58905">
        <ele>868</ele>
        <time>2021-08-10T09:34:30.742Z</time>
      </trkpt>
      <trkpt lat="46.96272" lon="8.58901">
        <ele>850</ele>
        <time>2021-08-10T09:34:31.744Z</time>
      </trkpt>
      <trkpt lat="46.96272" lon="8.58902">
        <ele>849</ele>
        <time>2021-08-10T09:34:32.744Z</time>
      </trkpt>
      <trkpt lat="46.96272" lon="8.58902">
        <ele>848</ele>
        <time>2021-08-10T09:34:33.744Z</time>
      </trkpt>
      <trkpt lat="46.96272" lon="8.58901">
        <ele>847</ele>
        <time>2021-08-10T09:34:34.743Z</time>
      </trkpt>
      <trkpt lat="46.96273" lon="8.58901">
        <ele>846</ele>
        <time>2021-08-10T09:34:35.743Z</time>
      </trkpt>
      <trkpt lat="46.96273" lon="8.58902">
        <ele>844</ele>
        <time>2021-08-10T09:34:36.744Z</time>
      </trkpt>
      <trkpt lat="46.96273" lon="8.58902">
        <ele>843</ele>
        <time>2021-08-10T09:34:37.743Z</time>
      </trkpt>
      <trkpt lat="46.96272" lon="8.58907">
        <ele>842</ele>
        <time>2021-08-10T09:34:38.744Z</time>
      </trkpt>
      <trkpt lat="46.96272" lon="8.58907">
        <ele>843</ele>
        <time>2021-08-10T09:34:39.745Z</time>
      </trkpt>
      <trkpt lat="46.96273" lon="8.58907">
        <ele>844</ele>
        <time>2021-08-10T09:34:40.744Z</time>
      </trkpt>
      <trkpt lat="46.96273" lon="8.58907">
        <ele>848</ele>
        <time>2021-08-10T09:34:41.745Z</time>
      </trkpt>
      <trkpt lat="46.96272" lon="8.58912">
        <ele>853</ele>
        <time>2021-08-10T09:34:42.745Z</time>
      </trkpt>
      <trkpt lat="46.9627" lon="8.5891">
        <ele>853</ele>
        <time>2021-08-10T09:34:43.744Z</time>
      </trkpt>
      <trkpt lat="46.96269" lon="8.58909">
        <ele>853</ele>
        <time>2021-08-10T09:34:44.745Z</time>
      </trkpt>
      <trkpt lat="46.96268" lon="8.5891">
        <ele>852</ele>
        <time>2021-08-10T09:34:45.744Z</time>
      </trkpt>
      <trkpt lat="46.96268" lon="8.58911">
        <ele>851</ele>
        <time>2021-08-10T09:34:46.745Z</time>
      </trkpt>
      <trkpt lat="46.96271" lon="8.58909">
        <ele>850</ele>
        <time>2021-08-10T09:34:47.745Z</time>
      </trkpt>
      <trkpt lat="46.96271" lon="8.58908">
        <ele>850</ele>
        <time>2021-08-10T09:34:48.745Z</time>
      </trkpt>
      <trkpt lat="46.96276" lon="8.58902">
        <ele>851</ele>
        <time>2021-08-10T09:34:49.746Z</time>
      </trkpt>
      <trkpt lat="46.96276" lon="8.58902">
        <ele>850</ele>
        <time>2021-08-10T09:34:50.746Z</time>
      </trkpt>
      <trkpt lat="46.96276" lon="8.58901">
        <ele>850</ele>
        <time>2021-08-10T09:34:51.745Z</time>
      </trkpt>
      <trkpt lat="46.96276" lon="8.58902">
        <ele>849</ele>
        <time>2021-08-10T09:34:52.746Z</time>
      </trkpt>
      <trkpt lat="46.96277" lon="8.58903">
        <ele>849</ele>
        <time>2021-08-10T09:34:53.746Z</time>
      </trkpt>
      <trkpt lat="46.96277" lon="8.58903">
        <ele>848</ele>
        <time>2021-08-10T09:34:54.745Z</time>
      </trkpt>
      <trkpt lat="46.96276" lon="8.58903">
        <ele>847</ele>
        <time>2021-08-10T09:34:55.745Z</time>
      </trkpt>
      <trkpt lat="46.96274" lon="8.58905">
        <ele>847</ele>
        <time>2021-08-10T09:34:56.745Z</time>
      </trkpt>
      <trkpt lat="46.96275" lon="8.58905">
        <ele>846</ele>
        <time>2021-08-10T09:34:57.746Z</time>
      </trkpt>
      <trkpt lat="46.96276" lon="8.58905">
        <ele>845</ele>
        <time>2021-08-10T09:34:58.746Z</time>
      </trkpt>
      <trkpt lat="46.96276" lon="8.58905">
        <ele>845</ele>
        <time>2021-08-10T09:34:59.745Z</time>
      </trkpt>
      <trkpt lat="46.96276" lon="8.58904">
        <ele>844</ele>
        <time>2021-08-10T09:35:00.746Z</time>
      </trkpt>
      <trkpt lat="46.96276" lon="8.58904">
        <ele>843</ele>
        <time>2021-08-10T09:35:01.746Z</time>
      </trkpt>
      <trkpt lat="46.96276" lon="8.58904">
        <ele>843</ele>
        <time>2021-08-10T09:35:02.746Z</time>
      </trkpt>
      <trkpt lat="46.96276" lon="8.58905">
        <ele>842</ele>
        <time>2021-08-10T09:35:03.746Z</time>
      </trkpt>
      <trkpt lat="46.96275" lon="8.58906">
        <ele>841</ele>
        <time>2021-08-10T09:35:04.745Z</time>
      </trkpt>
      <trkpt lat="46.96274" lon="8.58906">
        <ele>841</ele>
        <time>2021-08-10T09:35:05.746Z</time>
      </trkpt>
      <trkpt lat="46.96274" lon="8.58911">
        <ele>842</ele>
        <time>2021-08-10T09:35:06.746Z</time>
      </trkpt>
      <trkpt lat="46.96274" lon="8.58911">
        <ele>843</ele>
        <time>2021-08-10T09:35:07.747Z</time>
      </trkpt>
      <trkpt lat="46.96274" lon="8.58911">
        <ele>843</ele>
        <time>2021-08-10T09:35:08.747Z</time>
      </trkpt>
      <trkpt lat="46.96273" lon="8.58911">
        <ele>843</ele>
        <time>2021-08-10T09:35:09.746Z</time>
      </trkpt>
      <trkpt lat="46.96275" lon="8.5891">
        <ele>843</ele>
        <time>2021-08-10T09:35:10.748Z</time>
      </trkpt>
      <trkpt lat="46.96275" lon="8.5891">
        <ele>843</ele>
        <time>2021-08-10T09:35:11.747Z</time>
      </trkpt>
      <trkpt lat="46.96275" lon="8.5891">
        <ele>843</ele>
        <time>2021-08-10T09:35:12.747Z</time>
      </trkpt>
      <trkpt lat="46.96275" lon="8.5891">
        <ele>843</ele>
        <time>2021-08-10T09:35:13.747Z</time>
      </trkpt>
      <trkpt lat="46.96275" lon="8.5891">
        <ele>843</ele>
        <time>2021-08-10T09:35:14.748Z</time>
      </trkpt>
      <trkpt lat="46.96275" lon="8.58909">
        <ele>843</ele>
        <time>2021-08-10T09:35:15.747Z</time>
      </trkpt>
      <trkpt lat="46.96275" lon="8.58909">
        <ele>843</ele>
        <time>2021-08-10T09:35:16.748Z</time>
      </trkpt>
      <trkpt lat="46.96275" lon="8.58909">
        <ele>843</ele>
        <time>2021-08-10T09:35:17.747Z</time>
      </trkpt>
      <trkpt lat="46.96275" lon="8.58909">
        <ele>843</ele>
        <time>2021-08-10T09:35:18.747Z</time>
      </trkpt>
      <trkpt lat="46.96275" lon="8.58908">
        <ele>843</ele>
        <time>2021-08-10T09:35:19.747Z</time>
      </trkpt>
      <trkpt lat="46.96275" lon="8.58907">
        <ele>843</ele>
        <time>2021-08-10T09:35:20.747Z</time>
      </trkpt>
      <trkpt lat="46.96273" lon="8.58907">
        <ele>845</ele>
        <time>2021-08-10T09:35:21.748Z</time>
      </trkpt>
      <trkpt lat="46.96272" lon="8.58906">
        <ele>846</ele>
        <time>2021-08-10T09:35:22.748Z</time>
      </trkpt>
      <trkpt lat="46.96272" lon="8.58906">
        <ele>846</ele>
        <time>2021-08-10T09:35:23.748Z</time>
      </trkpt>
      <trkpt lat="46.96269" lon="8.58908">
        <ele>850</ele>
        <time>2021-08-10T09:35:24.748Z</time>
      </trkpt>
      <trkpt lat="46.96268" lon="8.58909">
        <ele>851</ele>
        <time>2021-08-10T09:35:25.747Z</time>
      </trkpt>
      <trkpt lat="46.96268" lon="8.58909">
        <ele>853</ele>
        <time>2021-08-10T09:35:26.747Z</time>
      </trkpt>
      <trkpt lat="46.96267" lon="8.58908">
        <ele>854</ele>
        <time>2021-08-10T09:35:27.747Z</time>
      </trkpt>
      <trkpt lat="46.96267" lon="8.58908">
        <ele>855</ele>
        <time>2021-08-10T09:35:28.747Z</time>
      </trkpt>
      <trkpt lat="46.96265" lon="8.58904">
        <ele>860</ele>
        <time>2021-08-10T09:35:29.747Z</time>
      </trkpt>
      <trkpt lat="46.96264" lon="8.58903">
        <ele>861</ele>
        <time>2021-08-10T09:35:30.747Z</time>
      </trkpt>
      <trkpt lat="46.96263" lon="8.58902">
        <ele>861</ele>
        <time>2021-08-10T09:35:31.748Z</time>
      </trkpt>
      <trkpt lat="46.96262" lon="8.58901">
        <ele>861</ele>
        <time>2021-08-10T09:35:32.748Z</time>
      </trkpt>
      <trkpt lat="46.96261" lon="8.58901">
        <ele>861</ele>
        <time>2021-08-10T09:35:33.748Z</time>
      </trkpt>
      <trkpt lat="46.96261" lon="8.589">
        <ele>861</ele>
        <time>2021-08-10T09:35:34.748Z</time>
      </trkpt>
      <trkpt lat="46.96261" lon="8.58898">
        <ele>861</ele>
        <time>2021-08-10T09:35:35.747Z</time>
      </trkpt>
      <trkpt lat="46.96262" lon="8.58896">
        <ele>860</ele>
        <time>2021-08-10T09:35:36.747Z</time>
      </trkpt>
      <trkpt lat="46.96262" lon="8.58894">
        <ele>860</ele>
        <time>2021-08-10T09:35:37.748Z</time>
      </trkpt>
      <trkpt lat="46.96262" lon="8.58893">
        <ele>860</ele>
        <time>2021-08-10T09:35:38.748Z</time>
      </trkpt>
      <trkpt lat="46.96261" lon="8.58893">
        <ele>859</ele>
        <time>2021-08-10T09:35:39.748Z</time>
      </trkpt>
      <trkpt lat="46.96261" lon="8.58893">
        <ele>859</ele>
        <time>2021-08-10T09:35:40.747Z</time>
      </trkpt>
      <trkpt lat="46.9626" lon="8.58893">
        <ele>858</ele>
        <time>2021-08-10T09:35:41.748Z</time>
      </trkpt>
      <trkpt lat="46.9626" lon="8.58893">
        <ele>858</ele>
        <time>2021-08-10T09:35:42.748Z</time>
      </trkpt>
      <trkpt lat="46.96259" lon="8.58893">
        <ele>858</ele>
        <time>2021-08-10T09:35:43.747Z</time>
      </trkpt>
      <trkpt lat="46.96258" lon="8.58893">
        <ele>857</ele>
        <time>2021-08-10T09:35:44.747Z</time>
      </trkpt>
      <trkpt lat="46.96258" lon="8.58893">
        <ele>857</ele>
        <time>2021-08-10T09:35:45.748Z</time>
      </trkpt>
      <trkpt lat="46.96257" lon="8.58893">
        <ele>857</ele>
        <time>2021-08-10T09:35:46.748Z</time>
      </trkpt>
      <trkpt lat="46.96256" lon="8.58893">
        <ele>856</ele>
        <time>2021-08-10T09:35:47.748Z</time>
      </trkpt>
      <trkpt lat="46.96255" lon="8.58893">
        <ele>856</ele>
        <time>2021-08-10T09:35:48.748Z</time>
      </trkpt>
      <trkpt lat="46.96254" lon="8.58892">
        <ele>856</ele>
        <time>2021-08-10T09:35:49.747Z</time>
      </trkpt>
      <trkpt lat="46.96253" lon="8.58892">
        <ele>856</ele>
        <time>2021-08-10T09:35:50.748Z</time>
      </trkpt>
      <trkpt lat="46.96252" lon="8.58891">
        <ele>856</ele>
        <time>2021-08-10T09:35:51.747Z</time>
      </trkpt>
      <trkpt lat="46.96251" lon="8.5889">
        <ele>856</ele>
        <time>2021-08-10T09:35:52.748Z</time>
      </trkpt>
      <trkpt lat="46.96249" lon="8.58889">
        <ele>857</ele>
        <time>2021-08-10T09:35:53.748Z</time>
      </trkpt>
      <trkpt lat="46.96248" lon="8.58889">
        <ele>857</ele>
        <time>2021-08-10T09:35:54.747Z</time>
      </trkpt>
      <trkpt lat="46.96247" lon="8.58889">
        <ele>857</ele>
        <time>2021-08-10T09:35:55.748Z</time>
      </trkpt>
      <trkpt lat="46.96246" lon="8.58888">
        <ele>857</ele>
        <time>2021-08-10T09:35:56.747Z</time>
      </trkpt>
      <trkpt lat="46.96245" lon="8.58886">
        <ele>857</ele>
        <time>2021-08-10T09:35:57.747Z</time>
      </trkpt>
      <trkpt lat="46.96244" lon="8.58881">
        <ele>859</ele>
        <time>2021-08-10T09:35:58.747Z</time>
      </trkpt>
      <trkpt lat="46.96245" lon="8.58883">
        <ele>859</ele>
        <time>2021-08-10T09:35:59.747Z</time>
      </trkpt>
      <trkpt lat="46.96246" lon="8.58884">
        <ele>859</ele>
        <time>2021-08-10T09:36:00.748Z</time>
      </trkpt>
      <trkpt lat="46.96246" lon="8.58884">
        <ele>857</ele>
        <time>2021-08-10T09:36:01.748Z</time>
      </trkpt>
      <trkpt lat="46.96245" lon="8.58884">
        <ele>857</ele>
        <time>2021-08-10T09:36:02.748Z</time>
      </trkpt>
      <trkpt lat="46.96245" lon="8.58884">
        <ele>856</ele>
        <time>2021-08-10T09:36:03.747Z</time>
      </trkpt>
      <trkpt lat="46.96245" lon="8.58884">
        <ele>856</ele>
        <time>2021-08-10T09:36:04.748Z</time>
      </trkpt>
      <trkpt lat="46.96246" lon="8.58884">
        <ele>856</ele>
        <time>2021-08-10T09:36:05.748Z</time>
      </trkpt>
      <trkpt lat="46.96247" lon="8.58883">
        <ele>853</ele>
        <time>2021-08-10T09:36:06.749Z</time>
      </trkpt>
      <trkpt lat="46.96246" lon="8.58883">
        <ele>853</ele>
        <time>2021-08-10T09:36:07.750Z</time>
      </trkpt>
      <trkpt lat="46.96245" lon="8.58883">
        <ele>853</ele>
        <time>2021-08-10T09:36:08.749Z</time>
      </trkpt>
      <trkpt lat="46.96244" lon="8.58882">
        <ele>853</ele>
        <time>2021-08-10T09:36:09.749Z</time>
      </trkpt>
      <trkpt lat="46.96242" lon="8.58882">
        <ele>854</ele>
        <time>2021-08-10T09:36:10.750Z</time>
      </trkpt>
      <trkpt lat="46.96241" lon="8.58882">
        <ele>854</ele>
        <time>2021-08-10T09:36:11.749Z</time>
      </trkpt>
      <trkpt lat="46.9624" lon="8.58882">
        <ele>855</ele>
        <time>2021-08-10T09:36:12.750Z</time>
      </trkpt>
      <trkpt lat="46.96239" lon="8.58881">
        <ele>855</ele>
        <time>2021-08-10T09:36:13.750Z</time>
      </trkpt>
      <trkpt lat="46.96238" lon="8.5888">
        <ele>856</ele>
        <time>2021-08-10T09:36:14.750Z</time>
      </trkpt>
      <trkpt lat="46.96236" lon="8.58879">
        <ele>857</ele>
        <time>2021-08-10T09:36:15.749Z</time>
      </trkpt>
      <trkpt lat="46.96235" lon="8.58879">
        <ele>858</ele>
        <time>2021-08-10T09:36:16.750Z</time>
      </trkpt>
      <trkpt lat="46.96234" lon="8.58878">
        <ele>859</ele>
        <time>2021-08-10T09:36:17.749Z</time>
      </trkpt>
      <trkpt lat="46.96233" lon="8.58878">
        <ele>859</ele>
        <time>2021-08-10T09:36:18.750Z</time>
      </trkpt>
      <trkpt lat="46.96232" lon="8.58877">
        <ele>860</ele>
        <time>2021-08-10T09:36:19.750Z</time>
      </trkpt>
      <trkpt lat="46.9623" lon="8.58876">
        <ele>861</ele>
        <time>2021-08-10T09:36:20.749Z</time>
      </trkpt>
      <trkpt lat="46.96229" lon="8.58876">
        <ele>862</ele>
        <time>2021-08-10T09:36:21.749Z</time>
      </trkpt>
      <trkpt lat="46.96226" lon="8.58875">
        <ele>862</ele>
        <time>2021-08-10T09:36:22.750Z</time>
      </trkpt>
      <trkpt lat="46.96224" lon="8.58874">
        <ele>863</ele>
        <time>2021-08-10T09:36:23.750Z</time>
      </trkpt>
      <trkpt lat="46.96223" lon="8.58874">
        <ele>864</ele>
        <time>2021-08-10T09:36:24.750Z</time>
      </trkpt>
      <trkpt lat="46.96222" lon="8.58874">
        <ele>865</ele>
        <time>2021-08-10T09:36:25.750Z</time>
      </trkpt>
      <trkpt lat="46.96222" lon="8.58874">
        <ele>865</ele>
        <time>2021-08-10T09:36:26.750Z</time>
      </trkpt>
      <trkpt lat="46.96221" lon="8.58874">
        <ele>865</ele>
        <time>2021-08-10T09:36:27.750Z</time>
      </trkpt>
      <trkpt lat="46.9622" lon="8.58874">
        <ele>865</ele>
        <time>2021-08-10T09:36:28.749Z</time>
      </trkpt>
      <trkpt lat="46.96219" lon="8.58874">
        <ele>864</ele>
        <time>2021-08-10T09:36:29.749Z</time>
      </trkpt>
      <trkpt lat="46.96219" lon="8.58873">
        <ele>864</ele>
        <time>2021-08-10T09:36:30.750Z</time>
      </trkpt>
      <trkpt lat="46.96218" lon="8.58872">
        <ele>863</ele>
        <time>2021-08-10T09:36:31.750Z</time>
      </trkpt>
      <trkpt lat="46.96217" lon="8.58871">
        <ele>862</ele>
        <time>2021-08-10T09:36:32.749Z</time>
      </trkpt>
      <trkpt lat="46.96216" lon="8.58871">
        <ele>862</ele>
        <time>2021-08-10T09:36:33.750Z</time>
      </trkpt>
      <trkpt lat="46.96215" lon="8.58871">
        <ele>861</ele>
        <time>2021-08-10T09:36:34.750Z</time>
      </trkpt>
      <trkpt lat="46.96215" lon="8.58871">
        <ele>860</ele>
        <time>2021-08-10T09:36:35.750Z</time>
      </trkpt>
      <trkpt lat="46.96215" lon="8.58871">
        <ele>860</ele>
        <time>2021-08-10T09:36:36.750Z</time>
      </trkpt>
      <trkpt lat="46.96213" lon="8.58872">
        <ele>849</ele>
        <time>2021-08-10T09:36:37.750Z</time>
      </trkpt>
      <trkpt lat="46.96213" lon="8.58871">
        <ele>848</ele>
        <time>2021-08-10T09:36:38.750Z</time>
      </trkpt>
      <trkpt lat="46.96212" lon="8.58871">
        <ele>848</ele>
        <time>2021-08-10T09:36:39.749Z</time>
      </trkpt>
      <trkpt lat="46.96212" lon="8.58871">
        <ele>848</ele>
        <time>2021-08-10T09:36:40.750Z</time>
      </trkpt>
      <trkpt lat="46.96212" lon="8.58871">
        <ele>848</ele>
        <time>2021-08-10T09:36:41.750Z</time>
      </trkpt>
      <trkpt lat="46.96211" lon="8.58872">
        <ele>848</ele>
        <time>2021-08-10T09:36:42.750Z</time>
      </trkpt>
      <trkpt lat="46.9621" lon="8.58871">
        <ele>848</ele>
        <time>2021-08-10T09:36:43.749Z</time>
      </trkpt>
      <trkpt lat="46.9621" lon="8.58871">
        <ele>848</ele>
        <time>2021-08-10T09:36:44.750Z</time>
      </trkpt>
      <trkpt lat="46.96209" lon="8.58871">
        <ele>847</ele>
        <time>2021-08-10T09:36:45.750Z</time>
      </trkpt>
      <trkpt lat="46.96209" lon="8.58871">
        <ele>847</ele>
        <time>2021-08-10T09:36:46.750Z</time>
      </trkpt>
      <trkpt lat="46.96208" lon="8.58871">
        <ele>847</ele>
        <time>2021-08-10T09:36:47.749Z</time>
      </trkpt>
      <trkpt lat="46.96207" lon="8.58871">
        <ele>846</ele>
        <time>2021-08-10T09:36:48.750Z</time>
      </trkpt>
      <trkpt lat="46.96206" lon="8.58871">
        <ele>846</ele>
        <time>2021-08-10T09:36:49.750Z</time>
      </trkpt>
      <trkpt lat="46.96205" lon="8.5887">
        <ele>845</ele>
        <time>2021-08-10T09:36:50.750Z</time>
      </trkpt>
      <trkpt lat="46.96204" lon="8.58868">
        <ele>845</ele>
        <time>2021-08-10T09:36:51.750Z</time>
      </trkpt>
      <trkpt lat="46.96203" lon="8.58866">
        <ele>845</ele>
        <time>2021-08-10T09:36:52.750Z</time>
      </trkpt>
      <trkpt lat="46.96202" lon="8.58865">
        <ele>845</ele>
        <time>2021-08-10T09:36:53.749Z</time>
      </trkpt>
      <trkpt lat="46.96201" lon="8.58863">
        <ele>845</ele>
        <time>2021-08-10T09:36:54.750Z</time>
      </trkpt>
      <trkpt lat="46.962" lon="8.58863">
        <ele>846</ele>
        <time>2021-08-10T09:36:55.749Z</time>
      </trkpt>
      <trkpt lat="46.96199" lon="8.58861">
        <ele>846</ele>
        <time>2021-08-10T09:36:56.749Z</time>
      </trkpt>
      <trkpt lat="46.96198" lon="8.5886">
        <ele>847</ele>
        <time>2021-08-10T09:36:57.750Z</time>
      </trkpt>
      <trkpt lat="46.96197" lon="8.58859">
        <ele>847</ele>
        <time>2021-08-10T09:36:58.750Z</time>
      </trkpt>
      <trkpt lat="46.96196" lon="8.58858">
        <ele>848</ele>
        <time>2021-08-10T09:36:59.750Z</time>
      </trkpt>
      <trkpt lat="46.96195" lon="8.58855">
        <ele>848</ele>
        <time>2021-08-10T09:37:00.749Z</time>
      </trkpt>
      <trkpt lat="46.96194" lon="8.58854">
        <ele>849</ele>
        <time>2021-08-10T09:37:01.749Z</time>
      </trkpt>
      <trkpt lat="46.96193" lon="8.58853">
        <ele>849</ele>
        <time>2021-08-10T09:37:02.750Z</time>
      </trkpt>
      <trkpt lat="46.96193" lon="8.58852">
        <ele>850</ele>
        <time>2021-08-10T09:37:03.750Z</time>
      </trkpt>
      <trkpt lat="46.96192" lon="8.58851">
        <ele>850</ele>
        <time>2021-08-10T09:37:04.750Z</time>
      </trkpt>
      <trkpt lat="46.96191" lon="8.58851">
        <ele>850</ele>
        <time>2021-08-10T09:37:05.750Z</time>
      </trkpt>
      <trkpt lat="46.9619" lon="8.58851">
        <ele>850</ele>
        <time>2021-08-10T09:37:06.750Z</time>
      </trkpt>
      <trkpt lat="46.9619" lon="8.5885">
        <ele>850</ele>
        <time>2021-08-10T09:37:07.750Z</time>
      </trkpt>
      <trkpt lat="46.96189" lon="8.5885">
        <ele>850</ele>
        <time>2021-08-10T09:37:08.749Z</time>
      </trkpt>
      <trkpt lat="46.96189" lon="8.58849">
        <ele>850</ele>
        <time>2021-08-10T09:37:09.750Z</time>
      </trkpt>
      <trkpt lat="46.96188" lon="8.58849">
        <ele>850</ele>
        <time>2021-08-10T09:37:10.750Z</time>
      </trkpt>
      <trkpt lat="46.96188" lon="8.58849">
        <ele>850</ele>
        <time>2021-08-10T09:37:11.749Z</time>
      </trkpt>
      <trkpt lat="46.96188" lon="8.58849">
        <ele>850</ele>
        <time>2021-08-10T09:37:12.750Z</time>
      </trkpt>
      <trkpt lat="46.96187" lon="8.58848">
        <ele>850</ele>
        <time>2021-08-10T09:37:13.750Z</time>
      </trkpt>
      <trkpt lat="46.96186" lon="8.58848">
        <ele>850</ele>
        <time>2021-08-10T09:37:14.750Z</time>
      </trkpt>
      <trkpt lat="46.96186" lon="8.58847">
        <ele>850</ele>
        <time>2021-08-10T09:37:15.750Z</time>
      </trkpt>
      <trkpt lat="46.96185" lon="8.58846">
        <ele>850</ele>
        <time>2021-08-10T09:37:16.750Z</time>
      </trkpt>
      <trkpt lat="46.96184" lon="8.58846">
        <ele>850</ele>
        <time>2021-08-10T09:37:17.750Z</time>
      </trkpt>
      <trkpt lat="46.96183" lon="8.58843">
        <ele>850</ele>
        <time>2021-08-10T09:37:18.750Z</time>
      </trkpt>
      <trkpt lat="46.96183" lon="8.58841">
        <ele>850</ele>
        <time>2021-08-10T09:37:19.750Z</time>
      </trkpt>
      <trkpt lat="46.96182" lon="8.58839">
        <ele>850</ele>
        <time>2021-08-10T09:37:20.750Z</time>
      </trkpt>
      <trkpt lat="46.96181" lon="8.58837">
        <ele>849</ele>
        <time>2021-08-10T09:37:21.750Z</time>
      </trkpt>
      <trkpt lat="46.96181" lon="8.58837">
        <ele>849</ele>
        <time>2021-08-10T09:37:22.750Z</time>
      </trkpt>
      <trkpt lat="46.9618" lon="8.58836">
        <ele>849</ele>
        <time>2021-08-10T09:37:23.750Z</time>
      </trkpt>
      <trkpt lat="46.9618" lon="8.58836">
        <ele>849</ele>
        <time>2021-08-10T09:37:24.750Z</time>
      </trkpt>
      <trkpt lat="46.96179" lon="8.58835">
        <ele>848</ele>
        <time>2021-08-10T09:37:25.750Z</time>
      </trkpt>
      <trkpt lat="46.96178" lon="8.58835">
        <ele>848</ele>
        <time>2021-08-10T09:37:26.749Z</time>
      </trkpt>
      <trkpt lat="46.96177" lon="8.58834">
        <ele>847</ele>
        <time>2021-08-10T09:37:27.750Z</time>
      </trkpt>
      <trkpt lat="46.96176" lon="8.58833">
        <ele>847</ele>
        <time>2021-08-10T09:37:28.750Z</time>
      </trkpt>
      <trkpt lat="46.96175" lon="8.58832">
        <ele>847</ele>
        <time>2021-08-10T09:37:29.749Z</time>
      </trkpt>
      <trkpt lat="46.96173" lon="8.5883">
        <ele>846</ele>
        <time>2021-08-10T09:37:30.750Z</time>
      </trkpt>
      <trkpt lat="46.96172" lon="8.58829">
        <ele>846</ele>
        <time>2021-08-10T09:37:31.750Z</time>
      </trkpt>
      <trkpt lat="46.9617" lon="8.58828">
        <ele>845</ele>
        <time>2021-08-10T09:37:32.750Z</time>
      </trkpt>
      <trkpt lat="46.96169" lon="8.58827">
        <ele>844</ele>
        <time>2021-08-10T09:37:33.749Z</time>
      </trkpt>
      <trkpt lat="46.96168" lon="8.58826">
        <ele>844</ele>
        <time>2021-08-10T09:37:34.749Z</time>
      </trkpt>
      <trkpt lat="46.96167" lon="8.58825">
        <ele>844</ele>
        <time>2021-08-10T09:37:35.750Z</time>
      </trkpt>
      <trkpt lat="46.96167" lon="8.58824">
        <ele>843</ele>
        <time>2021-08-10T09:37:36.750Z</time>
      </trkpt>
      <trkpt lat="46.96168" lon="8.58825">
        <ele>843</ele>
        <time>2021-08-10T09:37:37.750Z</time>
      </trkpt>
      <trkpt lat="46.96169" lon="8.58825">
        <ele>843</ele>
        <time>2021-08-10T09:37:38.750Z</time>
      </trkpt>
      <trkpt lat="46.96169" lon="8.58825">
        <ele>842</ele>
        <time>2021-08-10T09:37:39.750Z</time>
      </trkpt>
      <trkpt lat="46.96169" lon="8.58825">
        <ele>842</ele>
        <time>2021-08-10T09:37:40.750Z</time>
      </trkpt>
      <trkpt lat="46.9617" lon="8.58825">
        <ele>846</ele>
        <time>2021-08-10T09:37:41.750Z</time>
      </trkpt>
      <trkpt lat="46.9617" lon="8.58825">
        <ele>847</ele>
        <time>2021-08-10T09:37:42.749Z</time>
      </trkpt>
      <trkpt lat="46.96168" lon="8.58823">
        <ele>847</ele>
        <time>2021-08-10T09:37:43.750Z</time>
      </trkpt>
      <trkpt lat="46.96167" lon="8.58823">
        <ele>848</ele>
        <time>2021-08-10T09:37:44.749Z</time>
      </trkpt>
      <trkpt lat="46.96167" lon="8.58824">
        <ele>848</ele>
        <time>2021-08-10T09:37:45.749Z</time>
      </trkpt>
      <trkpt lat="46.96165" lon="8.58822">
        <ele>845</ele>
        <time>2021-08-10T09:37:46.750Z</time>
      </trkpt>
      <trkpt lat="46.96165" lon="8.58821">
        <ele>845</ele>
        <time>2021-08-10T09:37:47.749Z</time>
      </trkpt>
      <trkpt lat="46.96165" lon="8.58819">
        <ele>844</ele>
        <time>2021-08-10T09:37:48.749Z</time>
      </trkpt>
      <trkpt lat="46.96165" lon="8.58818">
        <ele>844</ele>
        <time>2021-08-10T09:37:49.749Z</time>
      </trkpt>
      <trkpt lat="46.96165" lon="8.58816">
        <ele>843</ele>
        <time>2021-08-10T09:37:50.749Z</time>
      </trkpt>
      <trkpt lat="46.96165" lon="8.58815">
        <ele>843</ele>
        <time>2021-08-10T09:37:51.749Z</time>
      </trkpt>
      <trkpt lat="46.96165" lon="8.58814">
        <ele>843</ele>
        <time>2021-08-10T09:37:52.749Z</time>
      </trkpt>
      <trkpt lat="46.96164" lon="8.58812">
        <ele>843</ele>
        <time>2021-08-10T09:37:53.750Z</time>
      </trkpt>
      <trkpt lat="46.96163" lon="8.58811">
        <ele>842</ele>
        <time>2021-08-10T09:37:54.750Z</time>
      </trkpt>
      <trkpt lat="46.96163" lon="8.5881">
        <ele>843</ele>
        <time>2021-08-10T09:37:55.749Z</time>
      </trkpt>
      <trkpt lat="46.96163" lon="8.5881">
        <ele>843</ele>
        <time>2021-08-10T09:37:56.749Z</time>
      </trkpt>
      <trkpt lat="46.96164" lon="8.5881">
        <ele>845</ele>
        <time>2021-08-10T09:37:57.750Z</time>
      </trkpt>
      <trkpt lat="46.96164" lon="8.58811">
        <ele>845</ele>
        <time>2021-08-10T09:37:58.750Z</time>
      </trkpt>
      <trkpt lat="46.96164" lon="8.5881">
        <ele>845</ele>
        <time>2021-08-10T09:37:59.749Z</time>
      </trkpt>
      <trkpt lat="46.96164" lon="8.5881">
        <ele>845</ele>
        <time>2021-08-10T09:38:00.749Z</time>
      </trkpt>
      <trkpt lat="46.96165" lon="8.58809">
        <ele>845</ele>
        <time>2021-08-10T09:38:01.749Z</time>
      </trkpt>
      <trkpt lat="46.96166" lon="8.58809">
        <ele>845</ele>
        <time>2021-08-10T09:38:02.749Z</time>
      </trkpt>
      <trkpt lat="46.96166" lon="8.58809">
        <ele>844</ele>
        <time>2021-08-10T09:38:03.750Z</time>
      </trkpt>
      <trkpt lat="46.96167" lon="8.58808">
        <ele>844</ele>
        <time>2021-08-10T09:38:04.750Z</time>
      </trkpt>
      <trkpt lat="46.96167" lon="8.58807">
        <ele>843</ele>
        <time>2021-08-10T09:38:05.750Z</time>
      </trkpt>
      <trkpt lat="46.96168" lon="8.58806">
        <ele>843</ele>
        <time>2021-08-10T09:38:06.749Z</time>
      </trkpt>
      <trkpt lat="46.96168" lon="8.58805">
        <ele>842</ele>
        <time>2021-08-10T09:38:07.750Z</time>
      </trkpt>
      <trkpt lat="46.96168" lon="8.58803">
        <ele>842</ele>
        <time>2021-08-10T09:38:08.749Z</time>
      </trkpt>
      <trkpt lat="46.96169" lon="8.58802">
        <ele>841</ele>
        <time>2021-08-10T09:38:09.750Z</time>
      </trkpt>
      <trkpt lat="46.96169" lon="8.58801">
        <ele>840</ele>
        <time>2021-08-10T09:38:10.750Z</time>
      </trkpt>
      <trkpt lat="46.9617" lon="8.58799">
        <ele>840</ele>
        <time>2021-08-10T09:38:11.750Z</time>
      </trkpt>
      <trkpt lat="46.9617" lon="8.58798">
        <ele>839</ele>
        <time>2021-08-10T09:38:12.750Z</time>
      </trkpt>
      <trkpt lat="46.9617" lon="8.58796">
        <ele>838</ele>
        <time>2021-08-10T09:38:13.750Z</time>
      </trkpt>
      <trkpt lat="46.9617" lon="8.58795">
        <ele>838</ele>
        <time>2021-08-10T09:38:14.750Z</time>
      </trkpt>
      <trkpt lat="46.9617" lon="8.58793">
        <ele>837</ele>
        <time>2021-08-10T09:38:15.750Z</time>
      </trkpt>
      <trkpt lat="46.9617" lon="8.58792">
        <ele>836</ele>
        <time>2021-08-10T09:38:16.749Z</time>
      </trkpt>
      <trkpt lat="46.96171" lon="8.58791">
        <ele>835</ele>
        <time>2021-08-10T09:38:17.749Z</time>
      </trkpt>
      <trkpt lat="46.96171" lon="8.5879">
        <ele>835</ele>
        <time>2021-08-10T09:38:18.749Z</time>
      </trkpt>
      <trkpt lat="46.96172" lon="8.58788">
        <ele>834</ele>
        <time>2021-08-10T09:38:19.750Z</time>
      </trkpt>
      <trkpt lat="46.96173" lon="8.58787">
        <ele>834</ele>
        <time>2021-08-10T09:38:20.750Z</time>
      </trkpt>
      <trkpt lat="46.96174" lon="8.58785">
        <ele>833</ele>
        <time>2021-08-10T09:38:21.750Z</time>
      </trkpt>
      <trkpt lat="46.96175" lon="8.58784">
        <ele>833</ele>
        <time>2021-08-10T09:38:22.750Z</time>
      </trkpt>
      <trkpt lat="46.96175" lon="8.58782">
        <ele>833</ele>
        <time>2021-08-10T09:38:23.750Z</time>
      </trkpt>
      <trkpt lat="46.96176" lon="8.58781">
        <ele>832</ele>
        <time>2021-08-10T09:38:24.750Z</time>
      </trkpt>
      <trkpt lat="46.96176" lon="8.5878">
        <ele>832</ele>
        <time>2021-08-10T09:38:25.749Z</time>
      </trkpt>
      <trkpt lat="46.96176" lon="8.58779">
        <ele>832</ele>
        <time>2021-08-10T09:38:26.749Z</time>
      </trkpt>
      <trkpt lat="46.96177" lon="8.58778">
        <ele>831</ele>
        <time>2021-08-10T09:38:27.749Z</time>
      </trkpt>
      <trkpt lat="46.96178" lon="8.58776">
        <ele>831</ele>
        <time>2021-08-10T09:38:28.750Z</time>
      </trkpt>
      <trkpt lat="46.96178" lon="8.58774">
        <ele>831</ele>
        <time>2021-08-10T09:38:29.749Z</time>
      </trkpt>
      <trkpt lat="46.96179" lon="8.58772">
        <ele>831</ele>
        <time>2021-08-10T09:38:30.750Z</time>
      </trkpt>
      <trkpt lat="46.9618" lon="8.5877">
        <ele>831</ele>
        <time>2021-08-10T09:38:31.750Z</time>
      </trkpt>
      <trkpt lat="46.9618" lon="8.58768">
        <ele>831</ele>
        <time>2021-08-10T09:38:32.749Z</time>
      </trkpt>
      <trkpt lat="46.9618" lon="8.58767">
        <ele>831</ele>
        <time>2021-08-10T09:38:33.750Z</time>
      </trkpt>
      <trkpt lat="46.9618" lon="8.58765">
        <ele>831</ele>
        <time>2021-08-10T09:38:34.749Z</time>
      </trkpt>
      <trkpt lat="46.9618" lon="8.58764">
        <ele>831</ele>
        <time>2021-08-10T09:38:35.749Z</time>
      </trkpt>
      <trkpt lat="46.9618" lon="8.58762">
        <ele>830</ele>
        <time>2021-08-10T09:38:36.749Z</time>
      </trkpt>
      <trkpt lat="46.96181" lon="8.5876">
        <ele>830</ele>
        <time>2021-08-10T09:38:37.749Z</time>
      </trkpt>
      <trkpt lat="46.9618" lon="8.58758">
        <ele>830</ele>
        <time>2021-08-10T09:38:38.750Z</time>
      </trkpt>
      <trkpt lat="46.96181" lon="8.58756">
        <ele>831</ele>
        <time>2021-08-10T09:38:39.749Z</time>
      </trkpt>
      <trkpt lat="46.9618" lon="8.58754">
        <ele>831</ele>
        <time>2021-08-10T09:38:40.750Z</time>
      </trkpt>
      <trkpt lat="46.9618" lon="8.58752">
        <ele>832</ele>
        <time>2021-08-10T09:38:41.750Z</time>
      </trkpt>
      <trkpt lat="46.9618" lon="8.5875">
        <ele>832</ele>
        <time>2021-08-10T09:38:42.750Z</time>
      </trkpt>
      <trkpt lat="46.96179" lon="8.58749">
        <ele>833</ele>
        <time>2021-08-10T09:38:43.750Z</time>
      </trkpt>
      <trkpt lat="46.96179" lon="8.58746">
        <ele>833</ele>
        <time>2021-08-10T09:38:44.750Z</time>
      </trkpt>
      <trkpt lat="46.96178" lon="8.58743">
        <ele>834</ele>
        <time>2021-08-10T09:38:45.750Z</time>
      </trkpt>
      <trkpt lat="46.96177" lon="8.58741">
        <ele>835</ele>
        <time>2021-08-10T09:38:46.750Z</time>
      </trkpt>
      <trkpt lat="46.96176" lon="8.58739">
        <ele>836</ele>
        <time>2021-08-10T09:38:47.750Z</time>
      </trkpt>
      <trkpt lat="46.96175" lon="8.58735">
        <ele>837</ele>
        <time>2021-08-10T09:38:48.749Z</time>
      </trkpt>
      <trkpt lat="46.96173" lon="8.58733">
        <ele>838</ele>
        <time>2021-08-10T09:38:49.750Z</time>
      </trkpt>
      <trkpt lat="46.96171" lon="8.58731">
        <ele>838</ele>
        <time>2021-08-10T09:38:50.750Z</time>
      </trkpt>
      <trkpt lat="46.96171" lon="8.58729">
        <ele>839</ele>
        <time>2021-08-10T09:38:51.749Z</time>
      </trkpt>
      <trkpt lat="46.9617" lon="8.58727">
        <ele>840</ele>
        <time>2021-08-10T09:38:52.749Z</time>
      </trkpt>
      <trkpt lat="46.96169" lon="8.58725">
        <ele>841</ele>
        <time>2021-08-10T09:38:53.749Z</time>
      </trkpt>
      <trkpt lat="46.96169" lon="8.58725">
        <ele>841</ele>
        <time>2021-08-10T09:38:54.750Z</time>
      </trkpt>
      <trkpt lat="46.96169" lon="8.58725">
        <ele>840</ele>
        <time>2021-08-10T09:38:55.750Z</time>
      </trkpt>
      <trkpt lat="46.96168" lon="8.58724">
        <ele>840</ele>
        <time>2021-08-10T09:38:56.750Z</time>
      </trkpt>
      <trkpt lat="46.96167" lon="8.58723">
        <ele>839</ele>
        <time>2021-08-10T09:38:57.749Z</time>
      </trkpt>
      <trkpt lat="46.96167" lon="8.58721">
        <ele>838</ele>
        <time>2021-08-10T09:38:58.749Z</time>
      </trkpt>
      <trkpt lat="46.96166" lon="8.58719">
        <ele>837</ele>
        <time>2021-08-10T09:38:59.750Z</time>
      </trkpt>
      <trkpt lat="46.96166" lon="8.58718">
        <ele>836</ele>
        <time>2021-08-10T09:39:00.750Z</time>
      </trkpt>
      <trkpt lat="46.96165" lon="8.58717">
        <ele>836</ele>
        <time>2021-08-10T09:39:01.750Z</time>
      </trkpt>
      <trkpt lat="46.96164" lon="8.58715">
        <ele>835</ele>
        <time>2021-08-10T09:39:02.749Z</time>
      </trkpt>
      <trkpt lat="46.96164" lon="8.58714">
        <ele>835</ele>
        <time>2021-08-10T09:39:03.750Z</time>
      </trkpt>
      <trkpt lat="46.96163" lon="8.58713">
        <ele>835</ele>
        <time>2021-08-10T09:39:04.749Z</time>
      </trkpt>
      <trkpt lat="46.96162" lon="8.58712">
        <ele>835</ele>
        <time>2021-08-10T09:39:05.750Z</time>
      </trkpt>
      <trkpt lat="46.96162" lon="8.58712">
        <ele>835</ele>
        <time>2021-08-10T09:39:06.750Z</time>
      </trkpt>
      <trkpt lat="46.96162" lon="8.58711">
        <ele>835</ele>
        <time>2021-08-10T09:39:07.750Z</time>
      </trkpt>
      <trkpt lat="46.96162" lon="8.58709">
        <ele>835</ele>
        <time>2021-08-10T09:39:08.749Z</time>
      </trkpt>
      <trkpt lat="46.96162" lon="8.58708">
        <ele>834</ele>
        <time>2021-08-10T09:39:09.749Z</time>
      </trkpt>
      <trkpt lat="46.96162" lon="8.58706">
        <ele>834</ele>
        <time>2021-08-10T09:39:10.750Z</time>
      </trkpt>
      <trkpt lat="46.96162" lon="8.58704">
        <ele>834</ele>
        <time>2021-08-10T09:39:11.749Z</time>
      </trkpt>
      <trkpt lat="46.96162" lon="8.58703">
        <ele>834</ele>
        <time>2021-08-10T09:39:12.749Z</time>
      </trkpt>
      <trkpt lat="46.96163" lon="8.58702">
        <ele>833</ele>
        <time>2021-08-10T09:39:13.750Z</time>
      </trkpt>
      <trkpt lat="46.96164" lon="8.58701">
        <ele>833</ele>
        <time>2021-08-10T09:39:14.749Z</time>
      </trkpt>
      <trkpt lat="46.96164" lon="8.587">
        <ele>833</ele>
        <time>2021-08-10T09:39:15.749Z</time>
      </trkpt>
      <trkpt lat="46.96165" lon="8.58698">
        <ele>834</ele>
        <time>2021-08-10T09:39:16.749Z</time>
      </trkpt>
      <trkpt lat="46.96166" lon="8.58697">
        <ele>834</ele>
        <time>2021-08-10T09:39:17.749Z</time>
      </trkpt>
      <trkpt lat="46.96166" lon="8.58695">
        <ele>834</ele>
        <time>2021-08-10T09:39:18.750Z</time>
      </trkpt>
      <trkpt lat="46.96167" lon="8.58693">
        <ele>834</ele>
        <time>2021-08-10T09:39:19.749Z</time>
      </trkpt>
      <trkpt lat="46.96167" lon="8.58692">
        <ele>834</ele>
        <time>2021-08-10T09:39:20.749Z</time>
      </trkpt>
      <trkpt lat="46.96168" lon="8.5869">
        <ele>834</ele>
        <time>2021-08-10T09:39:21.750Z</time>
      </trkpt>
      <trkpt lat="46.96168" lon="8.58688">
        <ele>833</ele>
        <time>2021-08-10T09:39:22.749Z</time>
      </trkpt>
      <trkpt lat="46.96169" lon="8.58687">
        <ele>833</ele>
        <time>2021-08-10T09:39:23.749Z</time>
      </trkpt>
      <trkpt lat="46.9617" lon="8.58685">
        <ele>833</ele>
        <time>2021-08-10T09:39:24.749Z</time>
      </trkpt>
      <trkpt lat="46.9617" lon="8.58684">
        <ele>833</ele>
        <time>2021-08-10T09:39:25.750Z</time>
      </trkpt>
      <trkpt lat="46.9617" lon="8.58683">
        <ele>833</ele>
        <time>2021-08-10T09:39:26.749Z</time>
      </trkpt>
      <trkpt lat="46.9617" lon="8.58681">
        <ele>833</ele>
        <time>2021-08-10T09:39:27.750Z</time>
      </trkpt>
      <trkpt lat="46.96171" lon="8.5868">
        <ele>833</ele>
        <time>2021-08-10T09:39:28.750Z</time>
      </trkpt>
      <trkpt lat="46.9617" lon="8.58679">
        <ele>833</ele>
        <time>2021-08-10T09:39:29.749Z</time>
      </trkpt>
      <trkpt lat="46.96171" lon="8.58678">
        <ele>834</ele>
        <time>2021-08-10T09:39:30.750Z</time>
      </trkpt>
      <trkpt lat="46.96171" lon="8.58677">
        <ele>834</ele>
        <time>2021-08-10T09:39:31.749Z</time>
      </trkpt>
      <trkpt lat="46.96171" lon="8.58676">
        <ele>834</ele>
        <time>2021-08-10T09:39:32.749Z</time>
      </trkpt>
      <trkpt lat="46.96172" lon="8.58675">
        <ele>834</ele>
        <time>2021-08-10T09:39:33.749Z</time>
      </trkpt>
      <trkpt lat="46.96173" lon="8.58673">
        <ele>834</ele>
        <time>2021-08-10T09:39:34.749Z</time>
      </trkpt>
      <trkpt lat="46.96174" lon="8.58671">
        <ele>834</ele>
        <time>2021-08-10T09:39:35.749Z</time>
      </trkpt>
      <trkpt lat="46.96174" lon="8.5867">
        <ele>834</ele>
        <time>2021-08-10T09:39:36.749Z</time>
      </trkpt>
      <trkpt lat="46.96175" lon="8.5867">
        <ele>834</ele>
        <time>2021-08-10T09:39:37.749Z</time>
      </trkpt>
      <trkpt lat="46.96175" lon="8.58668">
        <ele>834</ele>
        <time>2021-08-10T09:39:38.749Z</time>
      </trkpt>
      <trkpt lat="46.96175" lon="8.58667">
        <ele>834</ele>
        <time>2021-08-10T09:39:39.749Z</time>
      </trkpt>
      <trkpt lat="46.96176" lon="8.58666">
        <ele>834</ele>
        <time>2021-08-10T09:39:40.750Z</time>
      </trkpt>
      <trkpt lat="46.96176" lon="8.58665">
        <ele>834</ele>
        <time>2021-08-10T09:39:41.750Z</time>
      </trkpt>
      <trkpt lat="46.96177" lon="8.58664">
        <ele>834</ele>
        <time>2021-08-10T09:39:42.750Z</time>
      </trkpt>
      <trkpt lat="46.96177" lon="8.58663">
        <ele>834</ele>
        <time>2021-08-10T09:39:43.750Z</time>
      </trkpt>
      <trkpt lat="46.96178" lon="8.58662">
        <ele>834</ele>
        <time>2021-08-10T09:39:44.750Z</time>
      </trkpt>
      <trkpt lat="46.96178" lon="8.5866">
        <ele>834</ele>
        <time>2021-08-10T09:39:45.749Z</time>
      </trkpt>
      <trkpt lat="46.96178" lon="8.58659">
        <ele>835</ele>
        <time>2021-08-10T09:39:46.750Z</time>
      </trkpt>
      <trkpt lat="46.96178" lon="8.58658">
        <ele>835</ele>
        <time>2021-08-10T09:39:47.749Z</time>
      </trkpt>
      <trkpt lat="46.96178" lon="8.58658">
        <ele>835</ele>
        <time>2021-08-10T09:39:48.750Z</time>
      </trkpt>
      <trkpt lat="46.96178" lon="8.58658">
        <ele>834</ele>
        <time>2021-08-10T09:39:49.750Z</time>
      </trkpt>
      <trkpt lat="46.96179" lon="8.58657">
        <ele>834</ele>
        <time>2021-08-10T09:39:50.749Z</time>
      </trkpt>
      <trkpt lat="46.9618" lon="8.58656">
        <ele>834</ele>
        <time>2021-08-10T09:39:51.750Z</time>
      </trkpt>
      <trkpt lat="46.96181" lon="8.58654">
        <ele>834</ele>
        <time>2021-08-10T09:39:52.750Z</time>
      </trkpt>
      <trkpt lat="46.96182" lon="8.58654">
        <ele>834</ele>
        <time>2021-08-10T09:39:53.750Z</time>
      </trkpt>
      <trkpt lat="46.96183" lon="8.58653">
        <ele>833</ele>
        <time>2021-08-10T09:39:54.749Z</time>
      </trkpt>
      <trkpt lat="46.96184" lon="8.58652">
        <ele>833</ele>
        <time>2021-08-10T09:39:55.749Z</time>
      </trkpt>
      <trkpt lat="46.96185" lon="8.58651">
        <ele>834</ele>
        <time>2021-08-10T09:39:56.750Z</time>
      </trkpt>
      <trkpt lat="46.96186" lon="8.5865">
        <ele>834</ele>
        <time>2021-08-10T09:39:57.750Z</time>
      </trkpt>
      <trkpt lat="46.96188" lon="8.58649">
        <ele>835</ele>
        <time>2021-08-10T09:39:58.750Z</time>
      </trkpt>
      <trkpt lat="46.96189" lon="8.58648">
        <ele>835</ele>
        <time>2021-08-10T09:39:59.750Z</time>
      </trkpt>
      <trkpt lat="46.96191" lon="8.58647">
        <ele>836</ele>
        <time>2021-08-10T09:40:00.750Z</time>
      </trkpt>
      <trkpt lat="46.96192" lon="8.58646">
        <ele>836</ele>
        <time>2021-08-10T09:40:01.749Z</time>
      </trkpt>
      <trkpt lat="46.96193" lon="8.58645">
        <ele>837</ele>
        <time>2021-08-10T09:40:02.749Z</time>
      </trkpt>
      <trkpt lat="46.96195" lon="8.58643">
        <ele>838</ele>
        <time>2021-08-10T09:40:03.750Z</time>
      </trkpt>
      <trkpt lat="46.96196" lon="8.58642">
        <ele>839</ele>
        <time>2021-08-10T09:40:04.749Z</time>
      </trkpt>
      <trkpt lat="46.96197" lon="8.58641">
        <ele>840</ele>
        <time>2021-08-10T09:40:05.749Z</time>
      </trkpt>
      <trkpt lat="46.96199" lon="8.5864">
        <ele>841</ele>
        <time>2021-08-10T09:40:06.749Z</time>
      </trkpt>
      <trkpt lat="46.96199" lon="8.58638">
        <ele>842</ele>
        <time>2021-08-10T09:40:07.750Z</time>
      </trkpt>
      <trkpt lat="46.96199" lon="8.58636">
        <ele>843</ele>
        <time>2021-08-10T09:40:08.749Z</time>
      </trkpt>
      <trkpt lat="46.96199" lon="8.58634">
        <ele>844</ele>
        <time>2021-08-10T09:40:09.749Z</time>
      </trkpt>
      <trkpt lat="46.96198" lon="8.58631">
        <ele>844</ele>
        <time>2021-08-10T09:40:10.749Z</time>
      </trkpt>
      <trkpt lat="46.96198" lon="8.58629">
        <ele>845</ele>
        <time>2021-08-10T09:40:11.749Z</time>
      </trkpt>
      <trkpt lat="46.96197" lon="8.58627">
        <ele>845</ele>
        <time>2021-08-10T09:40:12.749Z</time>
      </trkpt>
      <trkpt lat="46.96197" lon="8.58625">
        <ele>846</ele>
        <time>2021-08-10T09:40:13.750Z</time>
      </trkpt>
      <trkpt lat="46.96197" lon="8.58624">
        <ele>846</ele>
        <time>2021-08-10T09:40:14.750Z</time>
      </trkpt>
      <trkpt lat="46.96197" lon="8.58622">
        <ele>846</ele>
        <time>2021-08-10T09:40:15.749Z</time>
      </trkpt>
      <trkpt lat="46.96198" lon="8.58621">
        <ele>847</ele>
        <time>2021-08-10T09:40:16.749Z</time>
      </trkpt>
      <trkpt lat="46.96198" lon="8.58619">
        <ele>847</ele>
        <time>2021-08-10T09:40:17.749Z</time>
      </trkpt>
      <trkpt lat="46.96198" lon="8.58617">
        <ele>847</ele>
        <time>2021-08-10T09:40:18.749Z</time>
      </trkpt>
      <trkpt lat="46.96198" lon="8.58616">
        <ele>847</ele>
        <time>2021-08-10T09:40:19.749Z</time>
      </trkpt>
      <trkpt lat="46.96198" lon="8.58614">
        <ele>847</ele>
        <time>2021-08-10T09:40:20.749Z</time>
      </trkpt>
      <trkpt lat="46.96198" lon="8.58612">
        <ele>848</ele>
        <time>2021-08-10T09:40:21.749Z</time>
      </trkpt>
      <trkpt lat="46.96198" lon="8.58611">
        <ele>848</ele>
        <time>2021-08-10T09:40:22.749Z</time>
      </trkpt>
      <trkpt lat="46.96198" lon="8.5861">
        <ele>848</ele>
        <time>2021-08-10T09:40:23.749Z</time>
      </trkpt>
      <trkpt lat="46.96198" lon="8.58609">
        <ele>848</ele>
        <time>2021-08-10T09:40:24.750Z</time>
      </trkpt>
      <trkpt lat="46.96199" lon="8.58608">
        <ele>848</ele>
        <time>2021-08-10T09:40:25.749Z</time>
      </trkpt>
      <trkpt lat="46.96199" lon="8.58607">
        <ele>848</ele>
        <time>2021-08-10T09:40:26.749Z</time>
      </trkpt>
      <trkpt lat="46.96199" lon="8.58606">
        <ele>848</ele>
        <time>2021-08-10T09:40:27.749Z</time>
      </trkpt>
      <trkpt lat="46.96199" lon="8.58605">
        <ele>849</ele>
        <time>2021-08-10T09:40:28.749Z</time>
      </trkpt>
      <trkpt lat="46.962" lon="8.58603">
        <ele>850</ele>
        <time>2021-08-10T09:40:29.750Z</time>
      </trkpt>
      <trkpt lat="46.962" lon="8.58602">
        <ele>850</ele>
        <time>2021-08-10T09:40:30.749Z</time>
      </trkpt>
      <trkpt lat="46.96201" lon="8.58601">
        <ele>851</ele>
        <time>2021-08-10T09:40:31.749Z</time>
      </trkpt>
      <trkpt lat="46.96202" lon="8.58601">
        <ele>851</ele>
        <time>2021-08-10T09:40:32.749Z</time>
      </trkpt>
      <trkpt lat="46.96203" lon="8.586">
        <ele>852</ele>
        <time>2021-08-10T09:40:33.750Z</time>
      </trkpt>
      <trkpt lat="46.96204" lon="8.58599">
        <ele>852</ele>
        <time>2021-08-10T09:40:34.750Z</time>
      </trkpt>
      <trkpt lat="46.96206" lon="8.58599">
        <ele>853</ele>
        <time>2021-08-10T09:40:35.750Z</time>
      </trkpt>
      <trkpt lat="46.96207" lon="8.58598">
        <ele>853</ele>
        <time>2021-08-10T09:40:36.749Z</time>
      </trkpt>
      <trkpt lat="46.96209" lon="8.58598">
        <ele>854</ele>
        <time>2021-08-10T09:40:37.749Z</time>
      </trkpt>
      <trkpt lat="46.96211" lon="8.58597">
        <ele>855</ele>
        <time>2021-08-10T09:40:38.750Z</time>
      </trkpt>
      <trkpt lat="46.96212" lon="8.58597">
        <ele>855</ele>
        <time>2021-08-10T09:40:39.750Z</time>
      </trkpt>
      <trkpt lat="46.96214" lon="8.58596">
        <ele>856</ele>
        <time>2021-08-10T09:40:40.749Z</time>
      </trkpt>
      <trkpt lat="46.96214" lon="8.58595">
        <ele>857</ele>
        <time>2021-08-10T09:40:41.749Z</time>
      </trkpt>
      <trkpt lat="46.96214" lon="8.58594">
        <ele>857</ele>
        <time>2021-08-10T09:40:42.749Z</time>
      </trkpt>
      <trkpt lat="46.96214" lon="8.58593">
        <ele>858</ele>
        <time>2021-08-10T09:40:43.750Z</time>
      </trkpt>
      <trkpt lat="46.96216" lon="8.58592">
        <ele>858</ele>
        <time>2021-08-10T09:40:44.750Z</time>
      </trkpt>
      <trkpt lat="46.96216" lon="8.5859">
        <ele>858</ele>
        <time>2021-08-10T09:40:45.749Z</time>
      </trkpt>
      <trkpt lat="46.96217" lon="8.58588">
        <ele>859</ele>
        <time>2021-08-10T09:40:46.749Z</time>
      </trkpt>
      <trkpt lat="46.96217" lon="8.58587">
        <ele>859</ele>
        <time>2021-08-10T09:40:47.749Z</time>
      </trkpt>
      <trkpt lat="46.96217" lon="8.58585">
        <ele>860</ele>
        <time>2021-08-10T09:40:48.750Z</time>
      </trkpt>
      <trkpt lat="46.96217" lon="8.58583">
        <ele>860</ele>
        <time>2021-08-10T09:40:49.749Z</time>
      </trkpt>
      <trkpt lat="46.96217" lon="8.58581">
        <ele>860</ele>
        <time>2021-08-10T09:40:50.749Z</time>
      </trkpt>
      <trkpt lat="46.96217" lon="8.5858">
        <ele>861</ele>
        <time>2021-08-10T09:40:51.749Z</time>
      </trkpt>
      <trkpt lat="46.96217" lon="8.58579">
        <ele>861</ele>
        <time>2021-08-10T09:40:52.750Z</time>
      </trkpt>
      <trkpt lat="46.96217" lon="8.58577">
        <ele>861</ele>
        <time>2021-08-10T09:40:53.749Z</time>
      </trkpt>
      <trkpt lat="46.96217" lon="8.58575">
        <ele>861</ele>
        <time>2021-08-10T09:40:54.750Z</time>
      </trkpt>
      <trkpt lat="46.96217" lon="8.58574">
        <ele>861</ele>
        <time>2021-08-10T09:40:55.750Z</time>
      </trkpt>
      <trkpt lat="46.96217" lon="8.58571">
        <ele>861</ele>
        <time>2021-08-10T09:40:56.750Z</time>
      </trkpt>
      <trkpt lat="46.96217" lon="8.58569">
        <ele>860</ele>
        <time>2021-08-10T09:40:57.749Z</time>
      </trkpt>
      <trkpt lat="46.96217" lon="8.58567">
        <ele>860</ele>
        <time>2021-08-10T09:40:58.750Z</time>
      </trkpt>
      <trkpt lat="46.96216" lon="8.58566">
        <ele>860</ele>
        <time>2021-08-10T09:40:59.750Z</time>
      </trkpt>
      <trkpt lat="46.96215" lon="8.58565">
        <ele>860</ele>
        <time>2021-08-10T09:41:00.750Z</time>
      </trkpt>
      <trkpt lat="46.96213" lon="8.58564">
        <ele>860</ele>
        <time>2021-08-10T09:41:01.749Z</time>
      </trkpt>
      <trkpt lat="46.96213" lon="8.58563">
        <ele>859</ele>
        <time>2021-08-10T09:41:02.750Z</time>
      </trkpt>
      <trkpt lat="46.96212" lon="8.58562">
        <ele>859</ele>
        <time>2021-08-10T09:41:03.750Z</time>
      </trkpt>
      <trkpt lat="46.96212" lon="8.58561">
        <ele>858</ele>
        <time>2021-08-10T09:41:04.750Z</time>
      </trkpt>
      <trkpt lat="46.96212" lon="8.58559">
        <ele>858</ele>
        <time>2021-08-10T09:41:05.749Z</time>
      </trkpt>
      <trkpt lat="46.96213" lon="8.58558">
        <ele>858</ele>
        <time>2021-08-10T09:41:06.750Z</time>
      </trkpt>
      <trkpt lat="46.96213" lon="8.58556">
        <ele>857</ele>
        <time>2021-08-10T09:41:07.750Z</time>
      </trkpt>
      <trkpt lat="46.96213" lon="8.58554">
        <ele>857</ele>
        <time>2021-08-10T09:41:08.750Z</time>
      </trkpt>
      <trkpt lat="46.96213" lon="8.58553">
        <ele>856</ele>
        <time>2021-08-10T09:41:09.750Z</time>
      </trkpt>
      <trkpt lat="46.96213" lon="8.58552">
        <ele>856</ele>
        <time>2021-08-10T09:41:10.750Z</time>
      </trkpt>
      <trkpt lat="46.96213" lon="8.58551">
        <ele>855</ele>
        <time>2021-08-10T09:41:11.749Z</time>
      </trkpt>
      <trkpt lat="46.96213" lon="8.58549">
        <ele>855</ele>
        <time>2021-08-10T09:41:12.750Z</time>
      </trkpt>
      <trkpt lat="46.96213" lon="8.58548">
        <ele>856</ele>
        <time>2021-08-10T09:41:13.750Z</time>
      </trkpt>
      <trkpt lat="46.96212" lon="8.58546">
        <ele>856</ele>
        <time>2021-08-10T09:41:14.750Z</time>
      </trkpt>
      <trkpt lat="46.96212" lon="8.58544">
        <ele>856</ele>
        <time>2021-08-10T09:41:15.750Z</time>
      </trkpt>
      <trkpt lat="46.96211" lon="8.58541">
        <ele>856</ele>
        <time>2021-08-10T09:41:16.750Z</time>
      </trkpt>
      <trkpt lat="46.96209" lon="8.58538">
        <ele>856</ele>
        <time>2021-08-10T09:41:17.750Z</time>
      </trkpt>
      <trkpt lat="46.96206" lon="8.58537">
        <ele>856</ele>
        <time>2021-08-10T09:41:18.750Z</time>
      </trkpt>
      <trkpt lat="46.96203" lon="8.58533">
        <ele>857</ele>
        <time>2021-08-10T09:41:19.750Z</time>
      </trkpt>
      <trkpt lat="46.96201" lon="8.5853">
        <ele>857</ele>
        <time>2021-08-10T09:41:20.750Z</time>
      </trkpt>
      <trkpt lat="46.96198" lon="8.58528">
        <ele>857</ele>
        <time>2021-08-10T09:41:21.750Z</time>
      </trkpt>
      <trkpt lat="46.96196" lon="8.58528">
        <ele>857</ele>
        <time>2021-08-10T09:41:22.749Z</time>
      </trkpt>
      <trkpt lat="46.96195" lon="8.58527">
        <ele>857</ele>
        <time>2021-08-10T09:41:23.749Z</time>
      </trkpt>
      <trkpt lat="46.96194" lon="8.58526">
        <ele>857</ele>
        <time>2021-08-10T09:41:24.750Z</time>
      </trkpt>
      <trkpt lat="46.96193" lon="8.58525">
        <ele>858</ele>
        <time>2021-08-10T09:41:25.750Z</time>
      </trkpt>
      <trkpt lat="46.96193" lon="8.58525">
        <ele>858</ele>
        <time>2021-08-10T09:41:26.750Z</time>
      </trkpt>
      <trkpt lat="46.96192" lon="8.58524">
        <ele>859</ele>
        <time>2021-08-10T09:41:27.750Z</time>
      </trkpt>
      <trkpt lat="46.9619" lon="8.58524">
        <ele>859</ele>
        <time>2021-08-10T09:41:28.750Z</time>
      </trkpt>
      <trkpt lat="46.96189" lon="8.58524">
        <ele>859</ele>
        <time>2021-08-10T09:41:29.750Z</time>
      </trkpt>
      <trkpt lat="46.96188" lon="8.58524">
        <ele>860</ele>
        <time>2021-08-10T09:41:30.750Z</time>
      </trkpt>
      <trkpt lat="46.96187" lon="8.58524">
        <ele>860</ele>
        <time>2021-08-10T09:41:31.750Z</time>
      </trkpt>
      <trkpt lat="46.96186" lon="8.58524">
        <ele>860</ele>
        <time>2021-08-10T09:41:32.750Z</time>
      </trkpt>
      <trkpt lat="46.96185" lon="8.58524">
        <ele>861</ele>
        <time>2021-08-10T09:41:33.749Z</time>
      </trkpt>
      <trkpt lat="46.96184" lon="8.58525">
        <ele>861</ele>
        <time>2021-08-10T09:41:34.750Z</time>
      </trkpt>
      <trkpt lat="46.96184" lon="8.58525">
        <ele>861</ele>
        <time>2021-08-10T09:41:35.749Z</time>
      </trkpt>
      <trkpt lat="46.96183" lon="8.58525">
        <ele>861</ele>
        <time>2021-08-10T09:41:36.749Z</time>
      </trkpt>
      <trkpt lat="46.96182" lon="8.58524">
        <ele>861</ele>
        <time>2021-08-10T09:41:37.750Z</time>
      </trkpt>
      <trkpt lat="46.96181" lon="8.58524">
        <ele>861</ele>
        <time>2021-08-10T09:41:38.750Z</time>
      </trkpt>
      <trkpt lat="46.9618" lon="8.58524">
        <ele>861</ele>
        <time>2021-08-10T09:41:39.749Z</time>
      </trkpt>
      <trkpt lat="46.96179" lon="8.58524">
        <ele>861</ele>
        <time>2021-08-10T09:41:40.750Z</time>
      </trkpt>
      <trkpt lat="46.96179" lon="8.58524">
        <ele>860</ele>
        <time>2021-08-10T09:41:41.749Z</time>
      </trkpt>
      <trkpt lat="46.96178" lon="8.58525">
        <ele>860</ele>
        <time>2021-08-10T09:41:42.750Z</time>
      </trkpt>
      <trkpt lat="46.96177" lon="8.58526">
        <ele>860</ele>
        <time>2021-08-10T09:41:43.749Z</time>
      </trkpt>
      <trkpt lat="46.96176" lon="8.58525">
        <ele>860</ele>
        <time>2021-08-10T09:41:44.749Z</time>
      </trkpt>
      <trkpt lat="46.96174" lon="8.58524">
        <ele>860</ele>
        <time>2021-08-10T09:41:45.749Z</time>
      </trkpt>
      <trkpt lat="46.96172" lon="8.58523">
        <ele>860</ele>
        <time>2021-08-10T09:41:46.750Z</time>
      </trkpt>
      <trkpt lat="46.96172" lon="8.58521">
        <ele>860</ele>
        <time>2021-08-10T09:41:47.750Z</time>
      </trkpt>
      <trkpt lat="46.96171" lon="8.5852">
        <ele>860</ele>
        <time>2021-08-10T09:41:48.750Z</time>
      </trkpt>
      <trkpt lat="46.96171" lon="8.58519">
        <ele>860</ele>
        <time>2021-08-10T09:41:49.750Z</time>
      </trkpt>
      <trkpt lat="46.9617" lon="8.58518">
        <ele>860</ele>
        <time>2021-08-10T09:41:50.750Z</time>
      </trkpt>
      <trkpt lat="46.96169" lon="8.58518">
        <ele>860</ele>
        <time>2021-08-10T09:41:51.750Z</time>
      </trkpt>
      <trkpt lat="46.96169" lon="8.58518">
        <ele>860</ele>
        <time>2021-08-10T09:41:52.750Z</time>
      </trkpt>
      <trkpt lat="46.96168" lon="8.58518">
        <ele>860</ele>
        <time>2021-08-10T09:41:53.750Z</time>
      </trkpt>
      <trkpt lat="46.96167" lon="8.58517">
        <ele>860</ele>
        <time>2021-08-10T09:41:54.749Z</time>
      </trkpt>
      <trkpt lat="46.96165" lon="8.58517">
        <ele>859</ele>
        <time>2021-08-10T09:41:55.749Z</time>
      </trkpt>
      <trkpt lat="46.96165" lon="8.58518">
        <ele>860</ele>
        <time>2021-08-10T09:41:56.749Z</time>
      </trkpt>
      <trkpt lat="46.96164" lon="8.58518">
        <ele>860</ele>
        <time>2021-08-10T09:41:57.749Z</time>
      </trkpt>
      <trkpt lat="46.96163" lon="8.58519">
        <ele>860</ele>
        <time>2021-08-10T09:41:58.752Z</time>
      </trkpt>
      <trkpt lat="46.96163" lon="8.58518">
        <ele>859</ele>
        <time>2021-08-10T09:41:59.752Z</time>
      </trkpt>
      <trkpt lat="46.96162" lon="8.58516">
        <ele>859</ele>
        <time>2021-08-10T09:42:00.752Z</time>
      </trkpt>
      <trkpt lat="46.96162" lon="8.58514">
        <ele>858</ele>
        <time>2021-08-10T09:42:01.752Z</time>
      </trkpt>
      <trkpt lat="46.9616" lon="8.58513">
        <ele>858</ele>
        <time>2021-08-10T09:42:02.752Z</time>
      </trkpt>
      <trkpt lat="46.96159" lon="8.58512">
        <ele>857</ele>
        <time>2021-08-10T09:42:03.752Z</time>
      </trkpt>
      <trkpt lat="46.96159" lon="8.58511">
        <ele>857</ele>
        <time>2021-08-10T09:42:04.751Z</time>
      </trkpt>
      <trkpt lat="46.96158" lon="8.5851">
        <ele>856</ele>
        <time>2021-08-10T09:42:05.751Z</time>
      </trkpt>
      <trkpt lat="46.96158" lon="8.58509">
        <ele>856</ele>
        <time>2021-08-10T09:42:06.751Z</time>
      </trkpt>
      <trkpt lat="46.96157" lon="8.58508">
        <ele>856</ele>
        <time>2021-08-10T09:42:07.752Z</time>
      </trkpt>
      <trkpt lat="46.96156" lon="8.58507">
        <ele>856</ele>
        <time>2021-08-10T09:42:08.751Z</time>
      </trkpt>
      <trkpt lat="46.96156" lon="8.58506">
        <ele>856</ele>
        <time>2021-08-10T09:42:09.752Z</time>
      </trkpt>
      <trkpt lat="46.96155" lon="8.58505">
        <ele>856</ele>
        <time>2021-08-10T09:42:10.752Z</time>
      </trkpt>
      <trkpt lat="46.96153" lon="8.58505">
        <ele>857</ele>
        <time>2021-08-10T09:42:11.752Z</time>
      </trkpt>
      <trkpt lat="46.96152" lon="8.58504">
        <ele>857</ele>
        <time>2021-08-10T09:42:12.752Z</time>
      </trkpt>
      <trkpt lat="46.96151" lon="8.58503">
        <ele>858</ele>
        <time>2021-08-10T09:42:13.752Z</time>
      </trkpt>
      <trkpt lat="46.9615" lon="8.58502">
        <ele>858</ele>
        <time>2021-08-10T09:42:14.751Z</time>
      </trkpt>
      <trkpt lat="46.96149" lon="8.585">
        <ele>858</ele>
        <time>2021-08-10T09:42:15.752Z</time>
      </trkpt>
      <trkpt lat="46.96148" lon="8.58499">
        <ele>858</ele>
        <time>2021-08-10T09:42:16.752Z</time>
      </trkpt>
      <trkpt lat="46.96147" lon="8.58498">
        <ele>859</ele>
        <time>2021-08-10T09:42:17.752Z</time>
      </trkpt>
      <trkpt lat="46.96146" lon="8.58497">
        <ele>859</ele>
        <time>2021-08-10T09:42:18.752Z</time>
      </trkpt>
      <trkpt lat="46.96145" lon="8.58496">
        <ele>859</ele>
        <time>2021-08-10T09:42:19.752Z</time>
      </trkpt>
      <trkpt lat="46.96143" lon="8.58496">
        <ele>860</ele>
        <time>2021-08-10T09:42:20.752Z</time>
      </trkpt>
      <trkpt lat="46.96142" lon="8.58496">
        <ele>860</ele>
        <time>2021-08-10T09:42:21.751Z</time>
      </trkpt>
      <trkpt lat="46.96141" lon="8.58496">
        <ele>861</ele>
        <time>2021-08-10T09:42:22.752Z</time>
      </trkpt>
      <trkpt lat="46.9614" lon="8.58496">
        <ele>861</ele>
        <time>2021-08-10T09:42:23.752Z</time>
      </trkpt>
      <trkpt lat="46.9614" lon="8.58495">
        <ele>861</ele>
        <time>2021-08-10T09:42:24.752Z</time>
      </trkpt>
      <trkpt lat="46.96138" lon="8.58493">
        <ele>861</ele>
        <time>2021-08-10T09:42:25.752Z</time>
      </trkpt>
      <trkpt lat="46.96136" lon="8.58493">
        <ele>861</ele>
        <time>2021-08-10T09:42:26.752Z</time>
      </trkpt>
      <trkpt lat="46.96135" lon="8.58491">
        <ele>861</ele>
        <time>2021-08-10T09:42:27.752Z</time>
      </trkpt>
      <trkpt lat="46.96134" lon="8.58492">
        <ele>860</ele>
        <time>2021-08-10T09:42:28.751Z</time>
      </trkpt>
      <trkpt lat="46.96132" lon="8.58492">
        <ele>861</ele>
        <time>2021-08-10T09:42:29.752Z</time>
      </trkpt>
      <trkpt lat="46.96132" lon="8.58494">
        <ele>860</ele>
        <time>2021-08-10T09:42:30.751Z</time>
      </trkpt>
      <trkpt lat="46.96131" lon="8.58496">
        <ele>860</ele>
        <time>2021-08-10T09:42:31.752Z</time>
      </trkpt>
      <trkpt lat="46.9613" lon="8.58496">
        <ele>860</ele>
        <time>2021-08-10T09:42:32.751Z</time>
      </trkpt>
      <trkpt lat="46.9613" lon="8.58496">
        <ele>859</ele>
        <time>2021-08-10T09:42:33.752Z</time>
      </trkpt>
      <trkpt lat="46.96129" lon="8.58496">
        <ele>859</ele>
        <time>2021-08-10T09:42:34.752Z</time>
      </trkpt>
      <trkpt lat="46.96128" lon="8.58497">
        <ele>859</ele>
        <time>2021-08-10T09:42:35.751Z</time>
      </trkpt>
      <trkpt lat="46.96126" lon="8.58497">
        <ele>858</ele>
        <time>2021-08-10T09:42:36.752Z</time>
      </trkpt>
      <trkpt lat="46.96124" lon="8.58497">
        <ele>858</ele>
        <time>2021-08-10T09:42:37.752Z</time>
      </trkpt>
      <trkpt lat="46.96122" lon="8.58497">
        <ele>857</ele>
        <time>2021-08-10T09:42:38.751Z</time>
      </trkpt>
      <trkpt lat="46.96121" lon="8.58497">
        <ele>857</ele>
        <time>2021-08-10T09:42:39.751Z</time>
      </trkpt>
      <trkpt lat="46.9612" lon="8.58497">
        <ele>856</ele>
        <time>2021-08-10T09:42:40.751Z</time>
      </trkpt>
      <trkpt lat="46.96119" lon="8.58497">
        <ele>855</ele>
        <time>2021-08-10T09:42:41.752Z</time>
      </trkpt>
      <trkpt lat="46.96118" lon="8.58497">
        <ele>855</ele>
        <time>2021-08-10T09:42:42.751Z</time>
      </trkpt>
      <trkpt lat="46.96118" lon="8.58497">
        <ele>854</ele>
        <time>2021-08-10T09:42:43.751Z</time>
      </trkpt>
      <trkpt lat="46.96117" lon="8.58497">
        <ele>854</ele>
        <time>2021-08-10T09:42:44.751Z</time>
      </trkpt>
      <trkpt lat="46.96117" lon="8.58497">
        <ele>853</ele>
        <time>2021-08-10T09:42:45.751Z</time>
      </trkpt>
      <trkpt lat="46.96116" lon="8.58496">
        <ele>853</ele>
        <time>2021-08-10T09:42:46.751Z</time>
      </trkpt>
      <trkpt lat="46.96116" lon="8.58496">
        <ele>853</ele>
        <time>2021-08-10T09:42:47.752Z</time>
      </trkpt>
      <trkpt lat="46.96115" lon="8.58496">
        <ele>853</ele>
        <time>2021-08-10T09:42:48.751Z</time>
      </trkpt>
      <trkpt lat="46.96115" lon="8.58496">
        <ele>853</ele>
        <time>2021-08-10T09:42:49.752Z</time>
      </trkpt>
      <trkpt lat="46.96112" lon="8.58495">
        <ele>853</ele>
        <time>2021-08-10T09:42:50.752Z</time>
      </trkpt>
      <trkpt lat="46.96112" lon="8.58494">
        <ele>852</ele>
        <time>2021-08-10T09:42:51.752Z</time>
      </trkpt>
      <trkpt lat="46.96111" lon="8.58494">
        <ele>852</ele>
        <time>2021-08-10T09:42:52.752Z</time>
      </trkpt>
      <trkpt lat="46.96111" lon="8.58493">
        <ele>852</ele>
        <time>2021-08-10T09:42:53.752Z</time>
      </trkpt>
      <trkpt lat="46.9611" lon="8.58493">
        <ele>851</ele>
        <time>2021-08-10T09:42:54.753Z</time>
      </trkpt>
      <trkpt lat="46.96109" lon="8.58493">
        <ele>850</ele>
        <time>2021-08-10T09:42:55.753Z</time>
      </trkpt>
      <trkpt lat="46.96108" lon="8.58493">
        <ele>850</ele>
        <time>2021-08-10T09:42:56.752Z</time>
      </trkpt>
      <trkpt lat="46.96107" lon="8.58493">
        <ele>849</ele>
        <time>2021-08-10T09:42:57.753Z</time>
      </trkpt>
      <trkpt lat="46.96106" lon="8.58493">
        <ele>849</ele>
        <time>2021-08-10T09:42:58.752Z</time>
      </trkpt>
      <trkpt lat="46.96105" lon="8.58492">
        <ele>849</ele>
        <time>2021-08-10T09:42:59.753Z</time>
      </trkpt>
      <trkpt lat="46.96105" lon="8.5849">
        <ele>849</ele>
        <time>2021-08-10T09:43:00.753Z</time>
      </trkpt>
      <trkpt lat="46.96105" lon="8.58489">
        <ele>849</ele>
        <time>2021-08-10T09:43:01.752Z</time>
      </trkpt>
      <trkpt lat="46.96105" lon="8.58488">
        <ele>849</ele>
        <time>2021-08-10T09:43:02.753Z</time>
      </trkpt>
      <trkpt lat="46.96105" lon="8.58486">
        <ele>849</ele>
        <time>2021-08-10T09:43:03.752Z</time>
      </trkpt>
      <trkpt lat="46.96106" lon="8.58485">
        <ele>849</ele>
        <time>2021-08-10T09:43:04.753Z</time>
      </trkpt>
      <trkpt lat="46.96104" lon="8.58484">
        <ele>849</ele>
        <time>2021-08-10T09:43:05.753Z</time>
      </trkpt>
      <trkpt lat="46.96104" lon="8.58483">
        <ele>849</ele>
        <time>2021-08-10T09:43:06.753Z</time>
      </trkpt>
      <trkpt lat="46.96103" lon="8.58482">
        <ele>849</ele>
        <time>2021-08-10T09:43:07.752Z</time>
      </trkpt>
      <trkpt lat="46.96103" lon="8.5848">
        <ele>850</ele>
        <time>2021-08-10T09:43:08.752Z</time>
      </trkpt>
      <trkpt lat="46.96102" lon="8.58478">
        <ele>850</ele>
        <time>2021-08-10T09:43:09.752Z</time>
      </trkpt>
      <trkpt lat="46.96101" lon="8.58477">
        <ele>850</ele>
        <time>2021-08-10T09:43:10.752Z</time>
      </trkpt>
      <trkpt lat="46.961" lon="8.58476">
        <ele>850</ele>
        <time>2021-08-10T09:43:11.753Z</time>
      </trkpt>
      <trkpt lat="46.961" lon="8.58476">
        <ele>850</ele>
        <time>2021-08-10T09:43:12.753Z</time>
      </trkpt>
      <trkpt lat="46.96099" lon="8.58474">
        <ele>850</ele>
        <time>2021-08-10T09:43:13.752Z</time>
      </trkpt>
      <trkpt lat="46.96098" lon="8.58473">
        <ele>850</ele>
        <time>2021-08-10T09:43:14.753Z</time>
      </trkpt>
      <trkpt lat="46.96098" lon="8.58471">
        <ele>850</ele>
        <time>2021-08-10T09:43:15.753Z</time>
      </trkpt>
      <trkpt lat="46.96098" lon="8.58469">
        <ele>850</ele>
        <time>2021-08-10T09:43:16.753Z</time>
      </trkpt>
      <trkpt lat="46.96098" lon="8.58467">
        <ele>849</ele>
        <time>2021-08-10T09:43:17.753Z</time>
      </trkpt>
      <trkpt lat="46.96098" lon="8.58465">
        <ele>849</ele>
        <time>2021-08-10T09:43:18.753Z</time>
      </trkpt>
      <trkpt lat="46.96098" lon="8.58463">
        <ele>849</ele>
        <time>2021-08-10T09:43:19.753Z</time>
      </trkpt>
      <trkpt lat="46.96098" lon="8.58462">
        <ele>849</ele>
        <time>2021-08-10T09:43:20.752Z</time>
      </trkpt>
      <trkpt lat="46.96097" lon="8.58461">
        <ele>849</ele>
        <time>2021-08-10T09:43:21.752Z</time>
      </trkpt>
      <trkpt lat="46.96096" lon="8.5846">
        <ele>849</ele>
        <time>2021-08-10T09:43:22.753Z</time>
      </trkpt>
      <trkpt lat="46.96095" lon="8.58459">
        <ele>849</ele>
        <time>2021-08-10T09:43:23.752Z</time>
      </trkpt>
      <trkpt lat="46.96095" lon="8.58457">
        <ele>849</ele>
        <time>2021-08-10T09:43:24.753Z</time>
      </trkpt>
      <trkpt lat="46.96094" lon="8.58456">
        <ele>849</ele>
        <time>2021-08-10T09:43:25.752Z</time>
      </trkpt>
      <trkpt lat="46.96094" lon="8.58455">
        <ele>849</ele>
        <time>2021-08-10T09:43:26.752Z</time>
      </trkpt>
      <trkpt lat="46.96093" lon="8.58454">
        <ele>849</ele>
        <time>2021-08-10T09:43:27.752Z</time>
      </trkpt>
      <trkpt lat="46.96092" lon="8.58453">
        <ele>849</ele>
        <time>2021-08-10T09:43:28.753Z</time>
      </trkpt>
      <trkpt lat="46.96091" lon="8.58452">
        <ele>849</ele>
        <time>2021-08-10T09:43:29.753Z</time>
      </trkpt>
      <trkpt lat="46.9609" lon="8.58451">
        <ele>848</ele>
        <time>2021-08-10T09:43:30.752Z</time>
      </trkpt>
      <trkpt lat="46.96089" lon="8.58451">
        <ele>847</ele>
        <time>2021-08-10T09:43:31.752Z</time>
      </trkpt>
      <trkpt lat="46.96088" lon="8.5845">
        <ele>846</ele>
        <time>2021-08-10T09:43:32.753Z</time>
      </trkpt>
      <trkpt lat="46.96087" lon="8.58449">
        <ele>846</ele>
        <time>2021-08-10T09:43:33.753Z</time>
      </trkpt>
      <trkpt lat="46.96087" lon="8.58448">
        <ele>846</ele>
        <time>2021-08-10T09:43:34.752Z</time>
      </trkpt>
      <trkpt lat="46.96087" lon="8.58446">
        <ele>846</ele>
        <time>2021-08-10T09:43:35.753Z</time>
      </trkpt>
      <trkpt lat="46.96086" lon="8.58444">
        <ele>846</ele>
        <time>2021-08-10T09:43:36.752Z</time>
      </trkpt>
      <trkpt lat="46.96086" lon="8.58441">
        <ele>845</ele>
        <time>2021-08-10T09:43:37.752Z</time>
      </trkpt>
      <trkpt lat="46.96086" lon="8.58438">
        <ele>845</ele>
        <time>2021-08-10T09:43:38.753Z</time>
      </trkpt>
      <trkpt lat="46.96086" lon="8.58437">
        <ele>845</ele>
        <time>2021-08-10T09:43:39.753Z</time>
      </trkpt>
      <trkpt lat="46.96086" lon="8.58435">
        <ele>845</ele>
        <time>2021-08-10T09:43:40.753Z</time>
      </trkpt>
      <trkpt lat="46.96085" lon="8.58434">
        <ele>845</ele>
        <time>2021-08-10T09:43:41.752Z</time>
      </trkpt>
      <trkpt lat="46.96085" lon="8.58433">
        <ele>845</ele>
        <time>2021-08-10T09:43:42.752Z</time>
      </trkpt>
      <trkpt lat="46.96084" lon="8.58433">
        <ele>845</ele>
        <time>2021-08-10T09:43:43.753Z</time>
      </trkpt>
      <trkpt lat="46.96085" lon="8.58432">
        <ele>846</ele>
        <time>2021-08-10T09:43:44.753Z</time>
      </trkpt>
      <trkpt lat="46.96085" lon="8.58431">
        <ele>846</ele>
        <time>2021-08-10T09:43:45.752Z</time>
      </trkpt>
      <trkpt lat="46.96084" lon="8.5843">
        <ele>846</ele>
        <time>2021-08-10T09:43:46.752Z</time>
      </trkpt>
      <trkpt lat="46.96083" lon="8.58429">
        <ele>846</ele>
        <time>2021-08-10T09:43:47.753Z</time>
      </trkpt>
      <trkpt lat="46.96083" lon="8.58427">
        <ele>846</ele>
        <time>2021-08-10T09:43:48.753Z</time>
      </trkpt>
      <trkpt lat="46.96082" lon="8.58426">
        <ele>846</ele>
        <time>2021-08-10T09:43:49.752Z</time>
      </trkpt>
      <trkpt lat="46.96082" lon="8.58424">
        <ele>846</ele>
        <time>2021-08-10T09:43:50.753Z</time>
      </trkpt>
      <trkpt lat="46.96081" lon="8.58423">
        <ele>846</ele>
        <time>2021-08-10T09:43:51.752Z</time>
      </trkpt>
      <trkpt lat="46.96081" lon="8.58422">
        <ele>846</ele>
        <time>2021-08-10T09:43:52.753Z</time>
      </trkpt>
      <trkpt lat="46.96081" lon="8.5842">
        <ele>846</ele>
        <time>2021-08-10T09:43:53.752Z</time>
      </trkpt>
      <trkpt lat="46.9608" lon="8.58418">
        <ele>847</ele>
        <time>2021-08-10T09:43:54.753Z</time>
      </trkpt>
      <trkpt lat="46.96079" lon="8.58417">
        <ele>847</ele>
        <time>2021-08-10T09:43:55.752Z</time>
      </trkpt>
      <trkpt lat="46.96079" lon="8.58415">
        <ele>848</ele>
        <time>2021-08-10T09:43:56.753Z</time>
      </trkpt>
      <trkpt lat="46.96079" lon="8.58414">
        <ele>848</ele>
        <time>2021-08-10T09:43:57.752Z</time>
      </trkpt>
      <trkpt lat="46.96078" lon="8.58412">
        <ele>849</ele>
        <time>2021-08-10T09:43:58.753Z</time>
      </trkpt>
      <trkpt lat="46.96078" lon="8.58411">
        <ele>849</ele>
        <time>2021-08-10T09:43:59.752Z</time>
      </trkpt>
      <trkpt lat="46.96078" lon="8.58409">
        <ele>849</ele>
        <time>2021-08-10T09:44:00.753Z</time>
      </trkpt>
      <trkpt lat="46.96077" lon="8.58407">
        <ele>850</ele>
        <time>2021-08-10T09:44:01.752Z</time>
      </trkpt>
      <trkpt lat="46.96077" lon="8.58406">
        <ele>850</ele>
        <time>2021-08-10T09:44:02.753Z</time>
      </trkpt>
      <trkpt lat="46.96076" lon="8.58403">
        <ele>850</ele>
        <time>2021-08-10T09:44:03.753Z</time>
      </trkpt>
      <trkpt lat="46.96076" lon="8.58401">
        <ele>850</ele>
        <time>2021-08-10T09:44:04.753Z</time>
      </trkpt>
      <trkpt lat="46.96075" lon="8.58399">
        <ele>850</ele>
        <time>2021-08-10T09:44:05.752Z</time>
      </trkpt>
      <trkpt lat="46.96075" lon="8.58396">
        <ele>850</ele>
        <time>2021-08-10T09:44:06.753Z</time>
      </trkpt>
      <trkpt lat="46.96074" lon="8.58394">
        <ele>849</ele>
        <time>2021-08-10T09:44:07.752Z</time>
      </trkpt>
      <trkpt lat="46.96073" lon="8.58392">
        <ele>849</ele>
        <time>2021-08-10T09:44:08.753Z</time>
      </trkpt>
      <trkpt lat="46.96072" lon="8.5839">
        <ele>849</ele>
        <time>2021-08-10T09:44:09.753Z</time>
      </trkpt>
      <trkpt lat="46.9607" lon="8.58388">
        <ele>850</ele>
        <time>2021-08-10T09:44:10.753Z</time>
      </trkpt>
      <trkpt lat="46.96069" lon="8.58387">
        <ele>850</ele>
        <time>2021-08-10T09:44:11.752Z</time>
      </trkpt>
      <trkpt lat="46.96068" lon="8.58385">
        <ele>850</ele>
        <time>2021-08-10T09:44:12.752Z</time>
      </trkpt>
      <trkpt lat="46.96067" lon="8.58384">
        <ele>850</ele>
        <time>2021-08-10T09:44:13.752Z</time>
      </trkpt>
      <trkpt lat="46.96065" lon="8.58383">
        <ele>850</ele>
        <time>2021-08-10T09:44:14.753Z</time>
      </trkpt>
      <trkpt lat="46.96064" lon="8.58381">
        <ele>849</ele>
        <time>2021-08-10T09:44:15.753Z</time>
      </trkpt>
      <trkpt lat="46.96062" lon="8.5838">
        <ele>849</ele>
        <time>2021-08-10T09:44:16.752Z</time>
      </trkpt>
      <trkpt lat="46.9606" lon="8.5838">
        <ele>848</ele>
        <time>2021-08-10T09:44:17.753Z</time>
      </trkpt>
      <trkpt lat="46.96058" lon="8.5838">
        <ele>848</ele>
        <time>2021-08-10T09:44:18.753Z</time>
      </trkpt>
      <trkpt lat="46.96057" lon="8.58379">
        <ele>848</ele>
        <time>2021-08-10T09:44:19.753Z</time>
      </trkpt>
      <trkpt lat="46.96057" lon="8.58378">
        <ele>848</ele>
        <time>2021-08-10T09:44:20.752Z</time>
      </trkpt>
      <trkpt lat="46.96056" lon="8.58377">
        <ele>848</ele>
        <time>2021-08-10T09:44:21.753Z</time>
      </trkpt>
      <trkpt lat="46.96055" lon="8.58375">
        <ele>847</ele>
        <time>2021-08-10T09:44:22.752Z</time>
      </trkpt>
      <trkpt lat="46.96054" lon="8.58374">
        <ele>847</ele>
        <time>2021-08-10T09:44:23.752Z</time>
      </trkpt>
      <trkpt lat="46.96053" lon="8.58373">
        <ele>847</ele>
        <time>2021-08-10T09:44:24.752Z</time>
      </trkpt>
      <trkpt lat="46.96053" lon="8.58372">
        <ele>847</ele>
        <time>2021-08-10T09:44:25.752Z</time>
      </trkpt>
      <trkpt lat="46.96052" lon="8.58371">
        <ele>847</ele>
        <time>2021-08-10T09:44:26.752Z</time>
      </trkpt>
      <trkpt lat="46.96051" lon="8.5837">
        <ele>847</ele>
        <time>2021-08-10T09:44:27.752Z</time>
      </trkpt>
      <trkpt lat="46.9605" lon="8.58369">
        <ele>847</ele>
        <time>2021-08-10T09:44:28.752Z</time>
      </trkpt>
      <trkpt lat="46.96049" lon="8.58368">
        <ele>847</ele>
        <time>2021-08-10T09:44:29.752Z</time>
      </trkpt>
      <trkpt lat="46.96049" lon="8.58367">
        <ele>847</ele>
        <time>2021-08-10T09:44:30.752Z</time>
      </trkpt>
      <trkpt lat="46.96048" lon="8.58365">
        <ele>847</ele>
        <time>2021-08-10T09:44:31.752Z</time>
      </trkpt>
      <trkpt lat="46.96048" lon="8.58364">
        <ele>847</ele>
        <time>2021-08-10T09:44:32.752Z</time>
      </trkpt>
      <trkpt lat="46.96047" lon="8.58363">
        <ele>847</ele>
        <time>2021-08-10T09:44:33.752Z</time>
      </trkpt>
      <trkpt lat="46.96044" lon="8.58358">
        <ele>846</ele>
        <time>2021-08-10T09:44:34.753Z</time>
      </trkpt>
      <trkpt lat="46.96043" lon="8.58357">
        <ele>846</ele>
        <time>2021-08-10T09:44:35.752Z</time>
      </trkpt>
      <trkpt lat="46.96042" lon="8.58356">
        <ele>845</ele>
        <time>2021-08-10T09:44:36.753Z</time>
      </trkpt>
      <trkpt lat="46.96041" lon="8.58355">
        <ele>845</ele>
        <time>2021-08-10T09:44:37.752Z</time>
      </trkpt>
      <trkpt lat="46.9604" lon="8.58354">
        <ele>845</ele>
        <time>2021-08-10T09:44:38.753Z</time>
      </trkpt>
      <trkpt lat="46.96039" lon="8.58352">
        <ele>845</ele>
        <time>2021-08-10T09:44:39.753Z</time>
      </trkpt>
      <trkpt lat="46.96039" lon="8.58349">
        <ele>845</ele>
        <time>2021-08-10T09:44:40.753Z</time>
      </trkpt>
      <trkpt lat="46.96038" lon="8.58348">
        <ele>845</ele>
        <time>2021-08-10T09:44:41.752Z</time>
      </trkpt>
      <trkpt lat="46.96037" lon="8.58347">
        <ele>844</ele>
        <time>2021-08-10T09:44:42.753Z</time>
      </trkpt>
      <trkpt lat="46.96037" lon="8.58346">
        <ele>844</ele>
        <time>2021-08-10T09:44:43.752Z</time>
      </trkpt>
      <trkpt lat="46.96036" lon="8.58344">
        <ele>844</ele>
        <time>2021-08-10T09:44:44.753Z</time>
      </trkpt>
      <trkpt lat="46.96035" lon="8.58343">
        <ele>844</ele>
        <time>2021-08-10T09:44:45.752Z</time>
      </trkpt>
      <trkpt lat="46.96034" lon="8.58341">
        <ele>844</ele>
        <time>2021-08-10T09:44:46.753Z</time>
      </trkpt>
      <trkpt lat="46.96033" lon="8.5834">
        <ele>844</ele>
        <time>2021-08-10T09:44:47.752Z</time>
      </trkpt>
      <trkpt lat="46.96031" lon="8.58339">
        <ele>844</ele>
        <time>2021-08-10T09:44:48.752Z</time>
      </trkpt>
      <trkpt lat="46.96028" lon="8.58337">
        <ele>843</ele>
        <time>2021-08-10T09:44:49.753Z</time>
      </trkpt>
      <trkpt lat="46.96026" lon="8.58335">
        <ele>843</ele>
        <time>2021-08-10T09:44:50.752Z</time>
      </trkpt>
      <trkpt lat="46.96024" lon="8.58334">
        <ele>843</ele>
        <time>2021-08-10T09:44:51.752Z</time>
      </trkpt>
      <trkpt lat="46.96023" lon="8.58333">
        <ele>842</ele>
        <time>2021-08-10T09:44:52.752Z</time>
      </trkpt>
      <trkpt lat="46.96022" lon="8.58332">
        <ele>842</ele>
        <time>2021-08-10T09:44:53.753Z</time>
      </trkpt>
      <trkpt lat="46.96021" lon="8.58332">
        <ele>841</ele>
        <time>2021-08-10T09:44:54.753Z</time>
      </trkpt>
      <trkpt lat="46.9602" lon="8.58332">
        <ele>840</ele>
        <time>2021-08-10T09:44:55.752Z</time>
      </trkpt>
      <trkpt lat="46.96019" lon="8.58332">
        <ele>840</ele>
        <time>2021-08-10T09:44:56.752Z</time>
      </trkpt>
      <trkpt lat="46.96017" lon="8.58332">
        <ele>840</ele>
        <time>2021-08-10T09:44:57.753Z</time>
      </trkpt>
      <trkpt lat="46.96016" lon="8.58331">
        <ele>840</ele>
        <time>2021-08-10T09:44:58.752Z</time>
      </trkpt>
      <trkpt lat="46.96014" lon="8.5833">
        <ele>840</ele>
        <time>2021-08-10T09:44:59.752Z</time>
      </trkpt>
      <trkpt lat="46.96013" lon="8.5833">
        <ele>840</ele>
        <time>2021-08-10T09:45:00.753Z</time>
      </trkpt>
      <trkpt lat="46.96011" lon="8.58329">
        <ele>840</ele>
        <time>2021-08-10T09:45:01.752Z</time>
      </trkpt>
      <trkpt lat="46.9601" lon="8.58328">
        <ele>840</ele>
        <time>2021-08-10T09:45:02.752Z</time>
      </trkpt>
      <trkpt lat="46.96008" lon="8.58328">
        <ele>840</ele>
        <time>2021-08-10T09:45:03.753Z</time>
      </trkpt>
      <trkpt lat="46.96007" lon="8.58327">
        <ele>840</ele>
        <time>2021-08-10T09:45:04.752Z</time>
      </trkpt>
      <trkpt lat="46.96006" lon="8.58327">
        <ele>840</ele>
        <time>2021-08-10T09:45:05.753Z</time>
      </trkpt>
      <trkpt lat="46.96005" lon="8.58326">
        <ele>840</ele>
        <time>2021-08-10T09:45:06.753Z</time>
      </trkpt>
      <trkpt lat="46.96003" lon="8.58325">
        <ele>839</ele>
        <time>2021-08-10T09:45:07.753Z</time>
      </trkpt>
      <trkpt lat="46.96002" lon="8.58324">
        <ele>838</ele>
        <time>2021-08-10T09:45:08.752Z</time>
      </trkpt>
      <trkpt lat="46.96001" lon="8.58324">
        <ele>837</ele>
        <time>2021-08-10T09:45:09.752Z</time>
      </trkpt>
      <trkpt lat="46.96001" lon="8.58324">
        <ele>837</ele>
        <time>2021-08-10T09:45:10.752Z</time>
      </trkpt>
      <trkpt lat="46.96" lon="8.58323">
        <ele>836</ele>
        <time>2021-08-10T09:45:11.753Z</time>
      </trkpt>
      <trkpt lat="46.95999" lon="8.58323">
        <ele>836</ele>
        <time>2021-08-10T09:45:12.753Z</time>
      </trkpt>
      <trkpt lat="46.95998" lon="8.58322">
        <ele>835</ele>
        <time>2021-08-10T09:45:13.753Z</time>
      </trkpt>
      <trkpt lat="46.95997" lon="8.58322">
        <ele>835</ele>
        <time>2021-08-10T09:45:14.752Z</time>
      </trkpt>
      <trkpt lat="46.95996" lon="8.58321">
        <ele>835</ele>
        <time>2021-08-10T09:45:15.752Z</time>
      </trkpt>
      <trkpt lat="46.95995" lon="8.58321">
        <ele>834</ele>
        <time>2021-08-10T09:45:16.753Z</time>
      </trkpt>
      <trkpt lat="46.95994" lon="8.5832">
        <ele>834</ele>
        <time>2021-08-10T09:45:17.752Z</time>
      </trkpt>
      <trkpt lat="46.95994" lon="8.58319">
        <ele>833</ele>
        <time>2021-08-10T09:45:18.752Z</time>
      </trkpt>
      <trkpt lat="46.95993" lon="8.58318">
        <ele>832</ele>
        <time>2021-08-10T09:45:19.752Z</time>
      </trkpt>
      <trkpt lat="46.95992" lon="8.58317">
        <ele>831</ele>
        <time>2021-08-10T09:45:20.752Z</time>
      </trkpt>
      <trkpt lat="46.95991" lon="8.58316">
        <ele>831</ele>
        <time>2021-08-10T09:45:21.752Z</time>
      </trkpt>
      <trkpt lat="46.95991" lon="8.58316">
        <ele>830</ele>
        <time>2021-08-10T09:45:22.752Z</time>
      </trkpt>
      <trkpt lat="46.9599" lon="8.58315">
        <ele>830</ele>
        <time>2021-08-10T09:45:23.752Z</time>
      </trkpt>
      <trkpt lat="46.95989" lon="8.58314">
        <ele>830</ele>
        <time>2021-08-10T09:45:24.752Z</time>
      </trkpt>
      <trkpt lat="46.95988" lon="8.58314">
        <ele>830</ele>
        <time>2021-08-10T09:45:25.752Z</time>
      </trkpt>
      <trkpt lat="46.95987" lon="8.58313">
        <ele>830</ele>
        <time>2021-08-10T09:45:26.752Z</time>
      </trkpt>
      <trkpt lat="46.95986" lon="8.58313">
        <ele>830</ele>
        <time>2021-08-10T09:45:27.752Z</time>
      </trkpt>
      <trkpt lat="46.95985" lon="8.58312">
        <ele>830</ele>
        <time>2021-08-10T09:45:28.752Z</time>
      </trkpt>
      <trkpt lat="46.95985" lon="8.58311">
        <ele>829</ele>
        <time>2021-08-10T09:45:29.752Z</time>
      </trkpt>
      <trkpt lat="46.95984" lon="8.58311">
        <ele>829</ele>
        <time>2021-08-10T09:45:30.753Z</time>
      </trkpt>
      <trkpt lat="46.95984" lon="8.58311">
        <ele>830</ele>
        <time>2021-08-10T09:45:31.753Z</time>
      </trkpt>
      <trkpt lat="46.95983" lon="8.58313">
        <ele>830</ele>
        <time>2021-08-10T09:45:32.752Z</time>
      </trkpt>
      <trkpt lat="46.95983" lon="8.58314">
        <ele>831</ele>
        <time>2021-08-10T09:45:33.753Z</time>
      </trkpt>
      <trkpt lat="46.95983" lon="8.58312">
        <ele>831</ele>
        <time>2021-08-10T09:45:34.753Z</time>
      </trkpt>
      <trkpt lat="46.95982" lon="8.58311">
        <ele>832</ele>
        <time>2021-08-10T09:45:35.753Z</time>
      </trkpt>
      <trkpt lat="46.95982" lon="8.58311">
        <ele>832</ele>
        <time>2021-08-10T09:45:36.753Z</time>
      </trkpt>
      <trkpt lat="46.95981" lon="8.5831">
        <ele>832</ele>
        <time>2021-08-10T09:45:37.752Z</time>
      </trkpt>
      <trkpt lat="46.95981" lon="8.58309">
        <ele>832</ele>
        <time>2021-08-10T09:45:38.753Z</time>
      </trkpt>
      <trkpt lat="46.9598" lon="8.58308">
        <ele>832</ele>
        <time>2021-08-10T09:45:39.753Z</time>
      </trkpt>
      <trkpt lat="46.9598" lon="8.58307">
        <ele>832</ele>
        <time>2021-08-10T09:45:40.753Z</time>
      </trkpt>
      <trkpt lat="46.95979" lon="8.58306">
        <ele>832</ele>
        <time>2021-08-10T09:45:41.753Z</time>
      </trkpt>
      <trkpt lat="46.95979" lon="8.58305">
        <ele>833</ele>
        <time>2021-08-10T09:45:42.752Z</time>
      </trkpt>
      <trkpt lat="46.95978" lon="8.58304">
        <ele>833</ele>
        <time>2021-08-10T09:45:43.753Z</time>
      </trkpt>
      <trkpt lat="46.95977" lon="8.58303">
        <ele>833</ele>
        <time>2021-08-10T09:45:44.752Z</time>
      </trkpt>
      <trkpt lat="46.95976" lon="8.58303">
        <ele>833</ele>
        <time>2021-08-10T09:45:45.752Z</time>
      </trkpt>
      <trkpt lat="46.95975" lon="8.58302">
        <ele>833</ele>
        <time>2021-08-10T09:45:46.752Z</time>
      </trkpt>
      <trkpt lat="46.95974" lon="8.58302">
        <ele>833</ele>
        <time>2021-08-10T09:45:47.753Z</time>
      </trkpt>
      <trkpt lat="46.95973" lon="8.58301">
        <ele>833</ele>
        <time>2021-08-10T09:45:48.753Z</time>
      </trkpt>
      <trkpt lat="46.95973" lon="8.583">
        <ele>833</ele>
        <time>2021-08-10T09:45:49.752Z</time>
      </trkpt>
      <trkpt lat="46.95972" lon="8.58299">
        <ele>833</ele>
        <time>2021-08-10T09:45:50.753Z</time>
      </trkpt>
      <trkpt lat="46.95971" lon="8.58298">
        <ele>833</ele>
        <time>2021-08-10T09:45:51.753Z</time>
      </trkpt>
      <trkpt lat="46.9597" lon="8.58296">
        <ele>832</ele>
        <time>2021-08-10T09:45:52.753Z</time>
      </trkpt>
      <trkpt lat="46.95969" lon="8.58295">
        <ele>832</ele>
        <time>2021-08-10T09:45:53.753Z</time>
      </trkpt>
      <trkpt lat="46.95968" lon="8.58295">
        <ele>831</ele>
        <time>2021-08-10T09:45:54.752Z</time>
      </trkpt>
      <trkpt lat="46.95968" lon="8.58294">
        <ele>831</ele>
        <time>2021-08-10T09:45:55.752Z</time>
      </trkpt>
      <trkpt lat="46.95967" lon="8.58292">
        <ele>831</ele>
        <time>2021-08-10T09:45:56.752Z</time>
      </trkpt>
      <trkpt lat="46.95967" lon="8.58291">
        <ele>831</ele>
        <time>2021-08-10T09:45:57.753Z</time>
      </trkpt>
      <trkpt lat="46.95966" lon="8.5829">
        <ele>832</ele>
        <time>2021-08-10T09:45:58.752Z</time>
      </trkpt>
      <trkpt lat="46.95965" lon="8.58288">
        <ele>831</ele>
        <time>2021-08-10T09:45:59.752Z</time>
      </trkpt>
      <trkpt lat="46.95964" lon="8.58287">
        <ele>831</ele>
        <time>2021-08-10T09:46:00.753Z</time>
      </trkpt>
      <trkpt lat="46.95964" lon="8.58286">
        <ele>831</ele>
        <time>2021-08-10T09:46:01.752Z</time>
      </trkpt>
      <trkpt lat="46.95963" lon="8.58284">
        <ele>831</ele>
        <time>2021-08-10T09:46:02.752Z</time>
      </trkpt>
      <trkpt lat="46.95962" lon="8.58283">
        <ele>831</ele>
        <time>2021-08-10T09:46:03.752Z</time>
      </trkpt>
      <trkpt lat="46.95961" lon="8.58282">
        <ele>831</ele>
        <time>2021-08-10T09:46:04.752Z</time>
      </trkpt>
      <trkpt lat="46.95961" lon="8.58281">
        <ele>831</ele>
        <time>2021-08-10T09:46:05.752Z</time>
      </trkpt>
      <trkpt lat="46.9596" lon="8.5828">
        <ele>831</ele>
        <time>2021-08-10T09:46:06.752Z</time>
      </trkpt>
      <trkpt lat="46.95959" lon="8.58279">
        <ele>831</ele>
        <time>2021-08-10T09:46:07.752Z</time>
      </trkpt>
      <trkpt lat="46.95959" lon="8.58277">
        <ele>831</ele>
        <time>2021-08-10T09:46:08.752Z</time>
      </trkpt>
      <trkpt lat="46.95958" lon="8.58276">
        <ele>831</ele>
        <time>2021-08-10T09:46:09.752Z</time>
      </trkpt>
      <trkpt lat="46.95957" lon="8.58275">
        <ele>831</ele>
        <time>2021-08-10T09:46:10.752Z</time>
      </trkpt>
      <trkpt lat="46.95956" lon="8.58274">
        <ele>831</ele>
        <time>2021-08-10T09:46:11.753Z</time>
      </trkpt>
      <trkpt lat="46.95955" lon="8.58273">
        <ele>831</ele>
        <time>2021-08-10T09:46:12.752Z</time>
      </trkpt>
      <trkpt lat="46.95955" lon="8.58272">
        <ele>831</ele>
        <time>2021-08-10T09:46:13.753Z</time>
      </trkpt>
      <trkpt lat="46.95954" lon="8.58271">
        <ele>831</ele>
        <time>2021-08-10T09:46:14.752Z</time>
      </trkpt>
      <trkpt lat="46.95953" lon="8.5827">
        <ele>831</ele>
        <time>2021-08-10T09:46:15.753Z</time>
      </trkpt>
      <trkpt lat="46.95952" lon="8.58268">
        <ele>831</ele>
        <time>2021-08-10T09:46:16.752Z</time>
      </trkpt>
      <trkpt lat="46.95952" lon="8.58267">
        <ele>831</ele>
        <time>2021-08-10T09:46:17.752Z</time>
      </trkpt>
      <trkpt lat="46.95951" lon="8.58266">
        <ele>832</ele>
        <time>2021-08-10T09:46:18.752Z</time>
      </trkpt>
      <trkpt lat="46.9595" lon="8.58264">
        <ele>832</ele>
        <time>2021-08-10T09:46:19.753Z</time>
      </trkpt>
      <trkpt lat="46.95949" lon="8.58263">
        <ele>832</ele>
        <time>2021-08-10T09:46:20.753Z</time>
      </trkpt>
      <trkpt lat="46.95948" lon="8.58261">
        <ele>832</ele>
        <time>2021-08-10T09:46:21.752Z</time>
      </trkpt>
      <trkpt lat="46.95947" lon="8.5826">
        <ele>832</ele>
        <time>2021-08-10T09:46:22.753Z</time>
      </trkpt>
      <trkpt lat="46.95946" lon="8.58259">
        <ele>832</ele>
        <time>2021-08-10T09:46:23.753Z</time>
      </trkpt>
      <trkpt lat="46.95945" lon="8.58258">
        <ele>832</ele>
        <time>2021-08-10T09:46:24.753Z</time>
      </trkpt>
      <trkpt lat="46.95944" lon="8.58257">
        <ele>832</ele>
        <time>2021-08-10T09:46:25.752Z</time>
      </trkpt>
      <trkpt lat="46.95943" lon="8.58257">
        <ele>832</ele>
        <time>2021-08-10T09:46:26.753Z</time>
      </trkpt>
      <trkpt lat="46.95942" lon="8.58256">
        <ele>832</ele>
        <time>2021-08-10T09:46:27.753Z</time>
      </trkpt>
      <trkpt lat="46.95941" lon="8.58255">
        <ele>832</ele>
        <time>2021-08-10T09:46:28.752Z</time>
      </trkpt>
      <trkpt lat="46.9594" lon="8.58254">
        <ele>832</ele>
        <time>2021-08-10T09:46:29.752Z</time>
      </trkpt>
      <trkpt lat="46.95939" lon="8.58253">
        <ele>833</ele>
        <time>2021-08-10T09:46:30.753Z</time>
      </trkpt>
      <trkpt lat="46.95938" lon="8.58252">
        <ele>833</ele>
        <time>2021-08-10T09:46:31.752Z</time>
      </trkpt>
      <trkpt lat="46.95937" lon="8.58251">
        <ele>833</ele>
        <time>2021-08-10T09:46:32.753Z</time>
      </trkpt>
      <trkpt lat="46.95936" lon="8.5825">
        <ele>833</ele>
        <time>2021-08-10T09:46:33.752Z</time>
      </trkpt>
      <trkpt lat="46.95935" lon="8.58249">
        <ele>832</ele>
        <time>2021-08-10T09:46:34.752Z</time>
      </trkpt>
      <trkpt lat="46.95934" lon="8.58249">
        <ele>832</ele>
        <time>2021-08-10T09:46:35.753Z</time>
      </trkpt>
      <trkpt lat="46.95933" lon="8.58248">
        <ele>832</ele>
        <time>2021-08-10T09:46:36.752Z</time>
      </trkpt>
      <trkpt lat="46.95932" lon="8.58248">
        <ele>832</ele>
        <time>2021-08-10T09:46:37.752Z</time>
      </trkpt>
      <trkpt lat="46.95931" lon="8.58247">
        <ele>833</ele>
        <time>2021-08-10T09:46:38.752Z</time>
      </trkpt>
      <trkpt lat="46.9593" lon="8.58247">
        <ele>833</ele>
        <time>2021-08-10T09:46:39.752Z</time>
      </trkpt>
      <trkpt lat="46.95929" lon="8.58246">
        <ele>833</ele>
        <time>2021-08-10T09:46:40.753Z</time>
      </trkpt>
      <trkpt lat="46.95928" lon="8.58245">
        <ele>834</ele>
        <time>2021-08-10T09:46:41.752Z</time>
      </trkpt>
      <trkpt lat="46.95927" lon="8.58244">
        <ele>834</ele>
        <time>2021-08-10T09:46:42.753Z</time>
      </trkpt>
      <trkpt lat="46.95926" lon="8.58243">
        <ele>834</ele>
        <time>2021-08-10T09:46:43.753Z</time>
      </trkpt>
      <trkpt lat="46.95925" lon="8.58243">
        <ele>834</ele>
        <time>2021-08-10T09:46:44.753Z</time>
      </trkpt>
      <trkpt lat="46.95924" lon="8.58242">
        <ele>834</ele>
        <time>2021-08-10T09:46:45.752Z</time>
      </trkpt>
      <trkpt lat="46.95923" lon="8.58241">
        <ele>834</ele>
        <time>2021-08-10T09:46:46.752Z</time>
      </trkpt>
      <trkpt lat="46.95922" lon="8.5824">
        <ele>833</ele>
        <time>2021-08-10T09:46:47.752Z</time>
      </trkpt>
      <trkpt lat="46.95922" lon="8.58239">
        <ele>833</ele>
        <time>2021-08-10T09:46:48.753Z</time>
      </trkpt>
      <trkpt lat="46.95921" lon="8.58238">
        <ele>833</ele>
        <time>2021-08-10T09:46:49.752Z</time>
      </trkpt>
      <trkpt lat="46.95919" lon="8.58237">
        <ele>833</ele>
        <time>2021-08-10T09:46:50.753Z</time>
      </trkpt>
      <trkpt lat="46.95919" lon="8.58236">
        <ele>834</ele>
        <time>2021-08-10T09:46:51.753Z</time>
      </trkpt>
      <trkpt lat="46.95918" lon="8.58235">
        <ele>834</ele>
        <time>2021-08-10T09:46:52.752Z</time>
      </trkpt>
      <trkpt lat="46.95916" lon="8.58234">
        <ele>834</ele>
        <time>2021-08-10T09:46:53.753Z</time>
      </trkpt>
      <trkpt lat="46.95915" lon="8.58233">
        <ele>835</ele>
        <time>2021-08-10T09:46:54.752Z</time>
      </trkpt>
      <trkpt lat="46.95914" lon="8.58232">
        <ele>835</ele>
        <time>2021-08-10T09:46:55.753Z</time>
      </trkpt>
      <trkpt lat="46.95913" lon="8.58232">
        <ele>836</ele>
        <time>2021-08-10T09:46:56.752Z</time>
      </trkpt>
      <trkpt lat="46.95912" lon="8.58231">
        <ele>836</ele>
        <time>2021-08-10T09:46:57.752Z</time>
      </trkpt>
      <trkpt lat="46.9591" lon="8.58231">
        <ele>836</ele>
        <time>2021-08-10T09:46:58.753Z</time>
      </trkpt>
      <trkpt lat="46.95909" lon="8.58231">
        <ele>835</ele>
        <time>2021-08-10T09:46:59.752Z</time>
      </trkpt>
      <trkpt lat="46.95908" lon="8.5823">
        <ele>835</ele>
        <time>2021-08-10T09:47:00.752Z</time>
      </trkpt>
      <trkpt lat="46.95907" lon="8.5823">
        <ele>835</ele>
        <time>2021-08-10T09:47:01.752Z</time>
      </trkpt>
      <trkpt lat="46.95906" lon="8.58229">
        <ele>835</ele>
        <time>2021-08-10T09:47:02.752Z</time>
      </trkpt>
      <trkpt lat="46.95905" lon="8.58229">
        <ele>835</ele>
        <time>2021-08-10T09:47:03.753Z</time>
      </trkpt>
      <trkpt lat="46.95903" lon="8.58228">
        <ele>835</ele>
        <time>2021-08-10T09:47:04.753Z</time>
      </trkpt>
      <trkpt lat="46.95902" lon="8.58228">
        <ele>834</ele>
        <time>2021-08-10T09:47:05.752Z</time>
      </trkpt>
      <trkpt lat="46.95901" lon="8.58227">
        <ele>834</ele>
        <time>2021-08-10T09:47:06.753Z</time>
      </trkpt>
      <trkpt lat="46.959" lon="8.58226">
        <ele>834</ele>
        <time>2021-08-10T09:47:07.752Z</time>
      </trkpt>
      <trkpt lat="46.95898" lon="8.58226">
        <ele>834</ele>
        <time>2021-08-10T09:47:08.752Z</time>
      </trkpt>
      <trkpt lat="46.95897" lon="8.58225">
        <ele>835</ele>
        <time>2021-08-10T09:47:09.753Z</time>
      </trkpt>
      <trkpt lat="46.95896" lon="8.58224">
        <ele>835</ele>
        <time>2021-08-10T09:47:10.752Z</time>
      </trkpt>
      <trkpt lat="46.95895" lon="8.58223">
        <ele>835</ele>
        <time>2021-08-10T09:47:11.752Z</time>
      </trkpt>
      <trkpt lat="46.95894" lon="8.58223">
        <ele>835</ele>
        <time>2021-08-10T09:47:12.752Z</time>
      </trkpt>
      <trkpt lat="46.95893" lon="8.58223">
        <ele>836</ele>
        <time>2021-08-10T09:47:13.753Z</time>
      </trkpt>
      <trkpt lat="46.95892" lon="8.58223">
        <ele>835</ele>
        <time>2021-08-10T09:47:14.753Z</time>
      </trkpt>
      <trkpt lat="46.95892" lon="8.58223">
        <ele>835</ele>
        <time>2021-08-10T09:47:15.752Z</time>
      </trkpt>
      <trkpt lat="46.9589" lon="8.58223">
        <ele>835</ele>
        <time>2021-08-10T09:47:16.752Z</time>
      </trkpt>
      <trkpt lat="46.95889" lon="8.58223">
        <ele>835</ele>
        <time>2021-08-10T09:47:17.753Z</time>
      </trkpt>
      <trkpt lat="46.95888" lon="8.58223">
        <ele>835</ele>
        <time>2021-08-10T09:47:18.753Z</time>
      </trkpt>
      <trkpt lat="46.95887" lon="8.58223">
        <ele>834</ele>
        <time>2021-08-10T09:47:19.753Z</time>
      </trkpt>
      <trkpt lat="46.95886" lon="8.58223">
        <ele>834</ele>
        <time>2021-08-10T09:47:20.752Z</time>
      </trkpt>
      <trkpt lat="46.95885" lon="8.58223">
        <ele>834</ele>
        <time>2021-08-10T09:47:21.753Z</time>
      </trkpt>
      <trkpt lat="46.95884" lon="8.58223">
        <ele>833</ele>
        <time>2021-08-10T09:47:22.753Z</time>
      </trkpt>
      <trkpt lat="46.95882" lon="8.58222">
        <ele>833</ele>
        <time>2021-08-10T09:47:23.753Z</time>
      </trkpt>
      <trkpt lat="46.95881" lon="8.58222">
        <ele>832</ele>
        <time>2021-08-10T09:47:24.753Z</time>
      </trkpt>
      <trkpt lat="46.9588" lon="8.58222">
        <ele>832</ele>
        <time>2021-08-10T09:47:25.752Z</time>
      </trkpt>
      <trkpt lat="46.95879" lon="8.58221">
        <ele>832</ele>
        <time>2021-08-10T09:47:26.752Z</time>
      </trkpt>
      <trkpt lat="46.95878" lon="8.58221">
        <ele>832</ele>
        <time>2021-08-10T09:47:27.752Z</time>
      </trkpt>
      <trkpt lat="46.95877" lon="8.5822">
        <ele>832</ele>
        <time>2021-08-10T09:47:28.752Z</time>
      </trkpt>
      <trkpt lat="46.95876" lon="8.5822">
        <ele>832</ele>
        <time>2021-08-10T09:47:29.752Z</time>
      </trkpt>
      <trkpt lat="46.95874" lon="8.5822">
        <ele>832</ele>
        <time>2021-08-10T09:47:30.752Z</time>
      </trkpt>
      <trkpt lat="46.95873" lon="8.5822">
        <ele>832</ele>
        <time>2021-08-10T09:47:31.752Z</time>
      </trkpt>
      <trkpt lat="46.95872" lon="8.5822">
        <ele>832</ele>
        <time>2021-08-10T09:47:32.752Z</time>
      </trkpt>
      <trkpt lat="46.95871" lon="8.5822">
        <ele>831</ele>
        <time>2021-08-10T09:47:33.753Z</time>
      </trkpt>
      <trkpt lat="46.9587" lon="8.58219">
        <ele>831</ele>
        <time>2021-08-10T09:47:34.753Z</time>
      </trkpt>
      <trkpt lat="46.95869" lon="8.58219">
        <ele>831</ele>
        <time>2021-08-10T09:47:35.753Z</time>
      </trkpt>
      <trkpt lat="46.95868" lon="8.5822">
        <ele>831</ele>
        <time>2021-08-10T09:47:36.752Z</time>
      </trkpt>
      <trkpt lat="46.95867" lon="8.58219">
        <ele>831</ele>
        <time>2021-08-10T09:47:37.752Z</time>
      </trkpt>
      <trkpt lat="46.95865" lon="8.58219">
        <ele>831</ele>
        <time>2021-08-10T09:47:38.753Z</time>
      </trkpt>
      <trkpt lat="46.95865" lon="8.58219">
        <ele>831</ele>
        <time>2021-08-10T09:47:39.753Z</time>
      </trkpt>
      <trkpt lat="46.95863" lon="8.58218">
        <ele>831</ele>
        <time>2021-08-10T09:47:40.752Z</time>
      </trkpt>
      <trkpt lat="46.95862" lon="8.58217">
        <ele>831</ele>
        <time>2021-08-10T09:47:41.753Z</time>
      </trkpt>
      <trkpt lat="46.9586" lon="8.58217">
        <ele>831</ele>
        <time>2021-08-10T09:47:42.753Z</time>
      </trkpt>
      <trkpt lat="46.95859" lon="8.58216">
        <ele>831</ele>
        <time>2021-08-10T09:47:43.752Z</time>
      </trkpt>
      <trkpt lat="46.95858" lon="8.58216">
        <ele>831</ele>
        <time>2021-08-10T09:47:44.753Z</time>
      </trkpt>
      <trkpt lat="46.95857" lon="8.58216">
        <ele>831</ele>
        <time>2021-08-10T09:47:45.753Z</time>
      </trkpt>
      <trkpt lat="46.95856" lon="8.58216">
        <ele>831</ele>
        <time>2021-08-10T09:47:46.753Z</time>
      </trkpt>
      <trkpt lat="46.95855" lon="8.58216">
        <ele>831</ele>
        <time>2021-08-10T09:47:47.752Z</time>
      </trkpt>
      <trkpt lat="46.95853" lon="8.58216">
        <ele>831</ele>
        <time>2021-08-10T09:47:48.752Z</time>
      </trkpt>
      <trkpt lat="46.95852" lon="8.58215">
        <ele>832</ele>
        <time>2021-08-10T09:47:49.753Z</time>
      </trkpt>
      <trkpt lat="46.95851" lon="8.58215">
        <ele>832</ele>
        <time>2021-08-10T09:47:50.753Z</time>
      </trkpt>
      <trkpt lat="46.9585" lon="8.58215">
        <ele>832</ele>
        <time>2021-08-10T09:47:51.753Z</time>
      </trkpt>
      <trkpt lat="46.95848" lon="8.58215">
        <ele>832</ele>
        <time>2021-08-10T09:47:52.753Z</time>
      </trkpt>
      <trkpt lat="46.95847" lon="8.58214">
        <ele>832</ele>
        <time>2021-08-10T09:47:53.752Z</time>
      </trkpt>
      <trkpt lat="46.95846" lon="8.58214">
        <ele>833</ele>
        <time>2021-08-10T09:47:54.753Z</time>
      </trkpt>
      <trkpt lat="46.95844" lon="8.58214">
        <ele>833</ele>
        <time>2021-08-10T09:47:55.752Z</time>
      </trkpt>
      <trkpt lat="46.95843" lon="8.58213">
        <ele>833</ele>
        <time>2021-08-10T09:47:56.753Z</time>
      </trkpt>
      <trkpt lat="46.95842" lon="8.58213">
        <ele>833</ele>
        <time>2021-08-10T09:47:57.753Z</time>
      </trkpt>
      <trkpt lat="46.95841" lon="8.58213">
        <ele>833</ele>
        <time>2021-08-10T09:47:58.752Z</time>
      </trkpt>
      <trkpt lat="46.9584" lon="8.58212">
        <ele>833</ele>
        <time>2021-08-10T09:47:59.753Z</time>
      </trkpt>
      <trkpt lat="46.95839" lon="8.58212">
        <ele>834</ele>
        <time>2021-08-10T09:48:00.752Z</time>
      </trkpt>
      <trkpt lat="46.95837" lon="8.58212">
        <ele>834</ele>
        <time>2021-08-10T09:48:01.753Z</time>
      </trkpt>
      <trkpt lat="46.95836" lon="8.58212">
        <ele>834</ele>
        <time>2021-08-10T09:48:02.753Z</time>
      </trkpt>
      <trkpt lat="46.95835" lon="8.58213">
        <ele>834</ele>
        <time>2021-08-10T09:48:03.753Z</time>
      </trkpt>
      <trkpt lat="46.95833" lon="8.58213">
        <ele>834</ele>
        <time>2021-08-10T09:48:04.753Z</time>
      </trkpt>
      <trkpt lat="46.95832" lon="8.58213">
        <ele>834</ele>
        <time>2021-08-10T09:48:05.752Z</time>
      </trkpt>
      <trkpt lat="46.95831" lon="8.58213">
        <ele>835</ele>
        <time>2021-08-10T09:48:06.753Z</time>
      </trkpt>
      <trkpt lat="46.9583" lon="8.58213">
        <ele>835</ele>
        <time>2021-08-10T09:48:07.753Z</time>
      </trkpt>
      <trkpt lat="46.95829" lon="8.58212">
        <ele>835</ele>
        <time>2021-08-10T09:48:08.752Z</time>
      </trkpt>
      <trkpt lat="46.95828" lon="8.58211">
        <ele>835</ele>
        <time>2021-08-10T09:48:09.752Z</time>
      </trkpt>
      <trkpt lat="46.95826" lon="8.58211">
        <ele>834</ele>
        <time>2021-08-10T09:48:10.752Z</time>
      </trkpt>
      <trkpt lat="46.95825" lon="8.5821">
        <ele>834</ele>
        <time>2021-08-10T09:48:11.752Z</time>
      </trkpt>
      <trkpt lat="46.95824" lon="8.5821">
        <ele>834</ele>
        <time>2021-08-10T09:48:12.753Z</time>
      </trkpt>
      <trkpt lat="46.95823" lon="8.5821">
        <ele>835</ele>
        <time>2021-08-10T09:48:13.752Z</time>
      </trkpt>
      <trkpt lat="46.95822" lon="8.5821">
        <ele>835</ele>
        <time>2021-08-10T09:48:14.753Z</time>
      </trkpt>
      <trkpt lat="46.9582" lon="8.5821">
        <ele>835</ele>
        <time>2021-08-10T09:48:15.753Z</time>
      </trkpt>
      <trkpt lat="46.95819" lon="8.5821">
        <ele>835</ele>
        <time>2021-08-10T09:48:16.753Z</time>
      </trkpt>
      <trkpt lat="46.95818" lon="8.5821">
        <ele>835</ele>
        <time>2021-08-10T09:48:17.752Z</time>
      </trkpt>
      <trkpt lat="46.95817" lon="8.58209">
        <ele>835</ele>
        <time>2021-08-10T09:48:18.753Z</time>
      </trkpt>
      <trkpt lat="46.95816" lon="8.58208">
        <ele>834</ele>
        <time>2021-08-10T09:48:19.752Z</time>
      </trkpt>
      <trkpt lat="46.95815" lon="8.58207">
        <ele>834</ele>
        <time>2021-08-10T09:48:20.753Z</time>
      </trkpt>
      <trkpt lat="46.95815" lon="8.58207">
        <ele>834</ele>
        <time>2021-08-10T09:48:21.753Z</time>
      </trkpt>
      <trkpt lat="46.95814" lon="8.58206">
        <ele>834</ele>
        <time>2021-08-10T09:48:22.753Z</time>
      </trkpt>
      <trkpt lat="46.95814" lon="8.58206">
        <ele>834</ele>
        <time>2021-08-10T09:48:23.752Z</time>
      </trkpt>
      <trkpt lat="46.95814" lon="8.58207">
        <ele>834</ele>
        <time>2021-08-10T09:48:24.753Z</time>
      </trkpt>
      <trkpt lat="46.95814" lon="8.58206">
        <ele>834</ele>
        <time>2021-08-10T09:48:25.753Z</time>
      </trkpt>
      <trkpt lat="46.95815" lon="8.58206">
        <ele>833</ele>
        <time>2021-08-10T09:48:26.752Z</time>
      </trkpt>
      <trkpt lat="46.95815" lon="8.58208">
        <ele>833</ele>
        <time>2021-08-10T09:48:27.754Z</time>
      </trkpt>
      <trkpt lat="46.95815" lon="8.58208">
        <ele>833</ele>
        <time>2021-08-10T09:48:28.754Z</time>
      </trkpt>
      <trkpt lat="46.95815" lon="8.58209">
        <ele>833</ele>
        <time>2021-08-10T09:48:29.753Z</time>
      </trkpt>
      <trkpt lat="46.95815" lon="8.58209">
        <ele>833</ele>
        <time>2021-08-10T09:48:30.753Z</time>
      </trkpt>
      <trkpt lat="46.95816" lon="8.58208">
        <ele>833</ele>
        <time>2021-08-10T09:48:31.754Z</time>
      </trkpt>
      <trkpt lat="46.95817" lon="8.58207">
        <ele>836</ele>
        <time>2021-08-10T09:48:32.754Z</time>
      </trkpt>
      <trkpt lat="46.95818" lon="8.58207">
        <ele>836</ele>
        <time>2021-08-10T09:48:33.754Z</time>
      </trkpt>
      <trkpt lat="46.95818" lon="8.58207">
        <ele>836</ele>
        <time>2021-08-10T09:48:34.753Z</time>
      </trkpt>
      <trkpt lat="46.95818" lon="8.58207">
        <ele>836</ele>
        <time>2021-08-10T09:48:35.754Z</time>
      </trkpt>
      <trkpt lat="46.95818" lon="8.58207">
        <ele>836</ele>
        <time>2021-08-10T09:48:36.753Z</time>
      </trkpt>
      <trkpt lat="46.95818" lon="8.5821">
        <ele>837</ele>
        <time>2021-08-10T09:48:37.756Z</time>
      </trkpt>
      <trkpt lat="46.95818" lon="8.5821">
        <ele>838</ele>
        <time>2021-08-10T09:48:38.755Z</time>
      </trkpt>
      <trkpt lat="46.95818" lon="8.58208">
        <ele>839</ele>
        <time>2021-08-10T09:48:39.755Z</time>
      </trkpt>
      <trkpt lat="46.95816" lon="8.5821">
        <ele>834</ele>
        <time>2021-08-10T09:48:40.757Z</time>
      </trkpt>
      <trkpt lat="46.95815" lon="8.5821">
        <ele>833</ele>
        <time>2021-08-10T09:48:41.756Z</time>
      </trkpt>
      <trkpt lat="46.95814" lon="8.5821">
        <ele>833</ele>
        <time>2021-08-10T09:48:42.757Z</time>
      </trkpt>
      <trkpt lat="46.95813" lon="8.5821">
        <ele>834</ele>
        <time>2021-08-10T09:48:43.756Z</time>
      </trkpt>
      <trkpt lat="46.95812" lon="8.58211">
        <ele>834</ele>
        <time>2021-08-10T09:48:44.757Z</time>
      </trkpt>
      <trkpt lat="46.95811" lon="8.58212">
        <ele>834</ele>
        <time>2021-08-10T09:48:45.757Z</time>
      </trkpt>
      <trkpt lat="46.9581" lon="8.58213">
        <ele>834</ele>
        <time>2021-08-10T09:48:46.757Z</time>
      </trkpt>
      <trkpt lat="46.95809" lon="8.58213">
        <ele>834</ele>
        <time>2021-08-10T09:48:47.756Z</time>
      </trkpt>
      <trkpt lat="46.95808" lon="8.58214">
        <ele>834</ele>
        <time>2021-08-10T09:48:48.757Z</time>
      </trkpt>
      <trkpt lat="46.95807" lon="8.58214">
        <ele>834</ele>
        <time>2021-08-10T09:48:49.756Z</time>
      </trkpt>
      <trkpt lat="46.95806" lon="8.58215">
        <ele>834</ele>
        <time>2021-08-10T09:48:50.756Z</time>
      </trkpt>
      <trkpt lat="46.95804" lon="8.58215">
        <ele>834</ele>
        <time>2021-08-10T09:48:51.757Z</time>
      </trkpt>
      <trkpt lat="46.95803" lon="8.58215">
        <ele>834</ele>
        <time>2021-08-10T09:48:52.756Z</time>
      </trkpt>
      <trkpt lat="46.95802" lon="8.58215">
        <ele>835</ele>
        <time>2021-08-10T09:48:53.757Z</time>
      </trkpt>
      <trkpt lat="46.95801" lon="8.58215">
        <ele>835</ele>
        <time>2021-08-10T09:48:54.757Z</time>
      </trkpt>
      <trkpt lat="46.958" lon="8.58216">
        <ele>835</ele>
        <time>2021-08-10T09:48:55.757Z</time>
      </trkpt>
      <trkpt lat="46.95799" lon="8.58216">
        <ele>835</ele>
        <time>2021-08-10T09:48:56.757Z</time>
      </trkpt>
      <trkpt lat="46.95798" lon="8.58216">
        <ele>835</ele>
        <time>2021-08-10T09:48:57.757Z</time>
      </trkpt>
      <trkpt lat="46.95796" lon="8.58216">
        <ele>834</ele>
        <time>2021-08-10T09:48:58.756Z</time>
      </trkpt>
      <trkpt lat="46.95795" lon="8.58216">
        <ele>834</ele>
        <time>2021-08-10T09:48:59.756Z</time>
      </trkpt>
      <trkpt lat="46.95794" lon="8.58217">
        <ele>834</ele>
        <time>2021-08-10T09:49:00.756Z</time>
      </trkpt>
      <trkpt lat="46.95792" lon="8.58217">
        <ele>833</ele>
        <time>2021-08-10T09:49:01.757Z</time>
      </trkpt>
      <trkpt lat="46.95791" lon="8.58218">
        <ele>833</ele>
        <time>2021-08-10T09:49:02.757Z</time>
      </trkpt>
      <trkpt lat="46.9579" lon="8.58219">
        <ele>833</ele>
        <time>2021-08-10T09:49:03.757Z</time>
      </trkpt>
      <trkpt lat="46.95789" lon="8.5822">
        <ele>833</ele>
        <time>2021-08-10T09:49:04.757Z</time>
      </trkpt>
      <trkpt lat="46.95788" lon="8.58221">
        <ele>833</ele>
        <time>2021-08-10T09:49:05.757Z</time>
      </trkpt>
      <trkpt lat="46.95787" lon="8.58221">
        <ele>833</ele>
        <time>2021-08-10T09:49:06.756Z</time>
      </trkpt>
      <trkpt lat="46.95785" lon="8.58222">
        <ele>833</ele>
        <time>2021-08-10T09:49:07.757Z</time>
      </trkpt>
      <trkpt lat="46.95784" lon="8.58223">
        <ele>833</ele>
        <time>2021-08-10T09:49:08.757Z</time>
      </trkpt>
      <trkpt lat="46.95783" lon="8.58224">
        <ele>833</ele>
        <time>2021-08-10T09:49:09.757Z</time>
      </trkpt>
      <trkpt lat="46.95782" lon="8.58225">
        <ele>833</ele>
        <time>2021-08-10T09:49:10.756Z</time>
      </trkpt>
      <trkpt lat="46.95781" lon="8.58226">
        <ele>833</ele>
        <time>2021-08-10T09:49:11.757Z</time>
      </trkpt>
      <trkpt lat="46.9578" lon="8.58227">
        <ele>832</ele>
        <time>2021-08-10T09:49:12.757Z</time>
      </trkpt>
      <trkpt lat="46.95779" lon="8.58228">
        <ele>832</ele>
        <time>2021-08-10T09:49:13.756Z</time>
      </trkpt>
      <trkpt lat="46.95778" lon="8.58229">
        <ele>832</ele>
        <time>2021-08-10T09:49:14.757Z</time>
      </trkpt>
      <trkpt lat="46.95777" lon="8.5823">
        <ele>832</ele>
        <time>2021-08-10T09:49:15.757Z</time>
      </trkpt>
      <trkpt lat="46.95775" lon="8.5823">
        <ele>831</ele>
        <time>2021-08-10T09:49:16.756Z</time>
      </trkpt>
      <trkpt lat="46.95774" lon="8.58231">
        <ele>831</ele>
        <time>2021-08-10T09:49:17.757Z</time>
      </trkpt>
      <trkpt lat="46.95773" lon="8.58232">
        <ele>831</ele>
        <time>2021-08-10T09:49:18.757Z</time>
      </trkpt>
      <trkpt lat="46.95772" lon="8.58231">
        <ele>830</ele>
        <time>2021-08-10T09:49:19.756Z</time>
      </trkpt>
      <trkpt lat="46.95771" lon="8.58232">
        <ele>830</ele>
        <time>2021-08-10T09:49:20.756Z</time>
      </trkpt>
      <trkpt lat="46.95769" lon="8.58234">
        <ele>830</ele>
        <time>2021-08-10T09:49:21.757Z</time>
      </trkpt>
      <trkpt lat="46.95768" lon="8.58234">
        <ele>830</ele>
        <time>2021-08-10T09:49:22.757Z</time>
      </trkpt>
      <trkpt lat="46.95767" lon="8.58236">
        <ele>830</ele>
        <time>2021-08-10T09:49:23.757Z</time>
      </trkpt>
      <trkpt lat="46.95766" lon="8.58237">
        <ele>830</ele>
        <time>2021-08-10T09:49:24.756Z</time>
      </trkpt>
      <trkpt lat="46.95765" lon="8.58238">
        <ele>830</ele>
        <time>2021-08-10T09:49:25.757Z</time>
      </trkpt>
      <trkpt lat="46.95764" lon="8.58239">
        <ele>830</ele>
        <time>2021-08-10T09:49:26.756Z</time>
      </trkpt>
      <trkpt lat="46.95763" lon="8.5824">
        <ele>830</ele>
        <time>2021-08-10T09:49:27.757Z</time>
      </trkpt>
      <trkpt lat="46.95762" lon="8.58242">
        <ele>831</ele>
        <time>2021-08-10T09:49:28.757Z</time>
      </trkpt>
      <trkpt lat="46.9576" lon="8.58243">
        <ele>831</ele>
        <time>2021-08-10T09:49:29.756Z</time>
      </trkpt>
      <trkpt lat="46.95759" lon="8.58244">
        <ele>832</ele>
        <time>2021-08-10T09:49:30.757Z</time>
      </trkpt>
      <trkpt lat="46.95759" lon="8.58246">
        <ele>832</ele>
        <time>2021-08-10T09:49:31.757Z</time>
      </trkpt>
      <trkpt lat="46.95758" lon="8.58248">
        <ele>832</ele>
        <time>2021-08-10T09:49:32.756Z</time>
      </trkpt>
      <trkpt lat="46.95757" lon="8.5825">
        <ele>832</ele>
        <time>2021-08-10T09:49:33.757Z</time>
      </trkpt>
      <trkpt lat="46.95756" lon="8.58251">
        <ele>832</ele>
        <time>2021-08-10T09:49:34.756Z</time>
      </trkpt>
      <trkpt lat="46.95755" lon="8.58252">
        <ele>831</ele>
        <time>2021-08-10T09:49:35.757Z</time>
      </trkpt>
      <trkpt lat="46.95754" lon="8.58253">
        <ele>831</ele>
        <time>2021-08-10T09:49:36.757Z</time>
      </trkpt>
      <trkpt lat="46.95753" lon="8.58256">
        <ele>831</ele>
        <time>2021-08-10T09:49:37.757Z</time>
      </trkpt>
      <trkpt lat="46.95752" lon="8.58257">
        <ele>830</ele>
        <time>2021-08-10T09:49:38.757Z</time>
      </trkpt>
      <trkpt lat="46.95751" lon="8.58259">
        <ele>829</ele>
        <time>2021-08-10T09:49:39.756Z</time>
      </trkpt>
      <trkpt lat="46.9575" lon="8.5826">
        <ele>829</ele>
        <time>2021-08-10T09:49:40.756Z</time>
      </trkpt>
      <trkpt lat="46.95749" lon="8.58262">
        <ele>829</ele>
        <time>2021-08-10T09:49:41.757Z</time>
      </trkpt>
      <trkpt lat="46.95748" lon="8.58263">
        <ele>828</ele>
        <time>2021-08-10T09:49:42.756Z</time>
      </trkpt>
      <trkpt lat="46.95747" lon="8.58264">
        <ele>828</ele>
        <time>2021-08-10T09:49:43.756Z</time>
      </trkpt>
      <trkpt lat="46.95746" lon="8.58265">
        <ele>827</ele>
        <time>2021-08-10T09:49:44.756Z</time>
      </trkpt>
      <trkpt lat="46.95745" lon="8.58266">
        <ele>827</ele>
        <time>2021-08-10T09:49:45.756Z</time>
      </trkpt>
      <trkpt lat="46.95744" lon="8.58268">
        <ele>826</ele>
        <time>2021-08-10T09:49:46.757Z</time>
      </trkpt>
      <trkpt lat="46.95743" lon="8.58268">
        <ele>826</ele>
        <time>2021-08-10T09:49:47.756Z</time>
      </trkpt>
      <trkpt lat="46.95742" lon="8.5827">
        <ele>826</ele>
        <time>2021-08-10T09:49:48.756Z</time>
      </trkpt>
      <trkpt lat="46.95742" lon="8.58271">
        <ele>825</ele>
        <time>2021-08-10T09:49:49.756Z</time>
      </trkpt>
      <trkpt lat="46.95741" lon="8.58272">
        <ele>825</ele>
        <time>2021-08-10T09:49:50.756Z</time>
      </trkpt>
      <trkpt lat="46.9574" lon="8.58273">
        <ele>825</ele>
        <time>2021-08-10T09:49:51.756Z</time>
      </trkpt>
      <trkpt lat="46.95739" lon="8.58274">
        <ele>825</ele>
        <time>2021-08-10T09:49:52.756Z</time>
      </trkpt>
      <trkpt lat="46.95738" lon="8.58276">
        <ele>825</ele>
        <time>2021-08-10T09:49:53.756Z</time>
      </trkpt>
      <trkpt lat="46.95737" lon="8.58277">
        <ele>825</ele>
        <time>2021-08-10T09:49:54.756Z</time>
      </trkpt>
      <trkpt lat="46.95736" lon="8.58277">
        <ele>825</ele>
        <time>2021-08-10T09:49:55.756Z</time>
      </trkpt>
      <trkpt lat="46.95734" lon="8.58277">
        <ele>826</ele>
        <time>2021-08-10T09:49:56.756Z</time>
      </trkpt>
      <trkpt lat="46.95732" lon="8.58278">
        <ele>826</ele>
        <time>2021-08-10T09:49:57.756Z</time>
      </trkpt>
      <trkpt lat="46.95731" lon="8.58279">
        <ele>826</ele>
        <time>2021-08-10T09:49:58.757Z</time>
      </trkpt>
      <trkpt lat="46.9573" lon="8.5828">
        <ele>826</ele>
        <time>2021-08-10T09:49:59.756Z</time>
      </trkpt>
      <trkpt lat="46.9573" lon="8.58282">
        <ele>825</ele>
        <time>2021-08-10T09:50:00.756Z</time>
      </trkpt>
      <trkpt lat="46.95729" lon="8.58283">
        <ele>824</ele>
        <time>2021-08-10T09:50:01.756Z</time>
      </trkpt>
      <trkpt lat="46.95729" lon="8.58284">
        <ele>823</ele>
        <time>2021-08-10T09:50:02.757Z</time>
      </trkpt>
      <trkpt lat="46.95727" lon="8.58285">
        <ele>822</ele>
        <time>2021-08-10T09:50:03.756Z</time>
      </trkpt>
      <trkpt lat="46.95726" lon="8.58286">
        <ele>821</ele>
        <time>2021-08-10T09:50:04.757Z</time>
      </trkpt>
      <trkpt lat="46.95726" lon="8.58288">
        <ele>820</ele>
        <time>2021-08-10T09:50:05.756Z</time>
      </trkpt>
      <trkpt lat="46.95725" lon="8.58289">
        <ele>819</ele>
        <time>2021-08-10T09:50:06.757Z</time>
      </trkpt>
      <trkpt lat="46.95724" lon="8.5829">
        <ele>818</ele>
        <time>2021-08-10T09:50:07.757Z</time>
      </trkpt>
      <trkpt lat="46.95723" lon="8.58291">
        <ele>818</ele>
        <time>2021-08-10T09:50:08.756Z</time>
      </trkpt>
      <trkpt lat="46.95722" lon="8.58293">
        <ele>818</ele>
        <time>2021-08-10T09:50:09.756Z</time>
      </trkpt>
      <trkpt lat="46.95722" lon="8.58294">
        <ele>818</ele>
        <time>2021-08-10T09:50:10.756Z</time>
      </trkpt>
      <trkpt lat="46.95721" lon="8.58294">
        <ele>818</ele>
        <time>2021-08-10T09:50:11.756Z</time>
      </trkpt>
      <trkpt lat="46.95721" lon="8.58295">
        <ele>818</ele>
        <time>2021-08-10T09:50:12.756Z</time>
      </trkpt>
      <trkpt lat="46.9572" lon="8.58296">
        <ele>819</ele>
        <time>2021-08-10T09:50:13.756Z</time>
      </trkpt>
      <trkpt lat="46.9572" lon="8.58296">
        <ele>819</ele>
        <time>2021-08-10T09:50:14.756Z</time>
      </trkpt>
      <trkpt lat="46.95719" lon="8.58296">
        <ele>819</ele>
        <time>2021-08-10T09:50:15.757Z</time>
      </trkpt>
      <trkpt lat="46.95718" lon="8.58296">
        <ele>819</ele>
        <time>2021-08-10T09:50:16.756Z</time>
      </trkpt>
      <trkpt lat="46.95716" lon="8.58296">
        <ele>819</ele>
        <time>2021-08-10T09:50:17.756Z</time>
      </trkpt>
      <trkpt lat="46.95716" lon="8.58296">
        <ele>819</ele>
        <time>2021-08-10T09:50:18.757Z</time>
      </trkpt>
      <trkpt lat="46.95715" lon="8.58294">
        <ele>819</ele>
        <time>2021-08-10T09:50:19.756Z</time>
      </trkpt>
      <trkpt lat="46.95714" lon="8.58293">
        <ele>819</ele>
        <time>2021-08-10T09:50:20.756Z</time>
      </trkpt>
      <trkpt lat="46.95712" lon="8.58292">
        <ele>819</ele>
        <time>2021-08-10T09:50:21.756Z</time>
      </trkpt>
      <trkpt lat="46.95711" lon="8.58291">
        <ele>818</ele>
        <time>2021-08-10T09:50:22.756Z</time>
      </trkpt>
      <trkpt lat="46.9571" lon="8.58291">
        <ele>818</ele>
        <time>2021-08-10T09:50:23.757Z</time>
      </trkpt>
      <trkpt lat="46.95709" lon="8.58291">
        <ele>818</ele>
        <time>2021-08-10T09:50:24.757Z</time>
      </trkpt>
      <trkpt lat="46.95708" lon="8.58292">
        <ele>819</ele>
        <time>2021-08-10T09:50:25.756Z</time>
      </trkpt>
      <trkpt lat="46.95706" lon="8.58292">
        <ele>819</ele>
        <time>2021-08-10T09:50:26.757Z</time>
      </trkpt>
      <trkpt lat="46.95704" lon="8.58292">
        <ele>820</ele>
        <time>2021-08-10T09:50:27.756Z</time>
      </trkpt>
      <trkpt lat="46.95703" lon="8.58292">
        <ele>821</ele>
        <time>2021-08-10T09:50:28.756Z</time>
      </trkpt>
      <trkpt lat="46.95702" lon="8.58292">
        <ele>822</ele>
        <time>2021-08-10T09:50:29.757Z</time>
      </trkpt>
      <trkpt lat="46.95701" lon="8.58293">
        <ele>822</ele>
        <time>2021-08-10T09:50:30.757Z</time>
      </trkpt>
      <trkpt lat="46.95699" lon="8.58293">
        <ele>823</ele>
        <time>2021-08-10T09:50:31.756Z</time>
      </trkpt>
      <trkpt lat="46.95698" lon="8.58292">
        <ele>823</ele>
        <time>2021-08-10T09:50:32.756Z</time>
      </trkpt>
      <trkpt lat="46.95697" lon="8.58293">
        <ele>824</ele>
        <time>2021-08-10T09:50:33.756Z</time>
      </trkpt>
      <trkpt lat="46.95696" lon="8.58294">
        <ele>824</ele>
        <time>2021-08-10T09:50:34.756Z</time>
      </trkpt>
      <trkpt lat="46.95696" lon="8.58296">
        <ele>824</ele>
        <time>2021-08-10T09:50:35.757Z</time>
      </trkpt>
      <trkpt lat="46.95695" lon="8.58297">
        <ele>825</ele>
        <time>2021-08-10T09:50:36.757Z</time>
      </trkpt>
      <trkpt lat="46.95694" lon="8.58296">
        <ele>825</ele>
        <time>2021-08-10T09:50:37.756Z</time>
      </trkpt>
      <trkpt lat="46.95694" lon="8.58297">
        <ele>826</ele>
        <time>2021-08-10T09:50:38.756Z</time>
      </trkpt>
      <trkpt lat="46.95693" lon="8.58297">
        <ele>826</ele>
        <time>2021-08-10T09:50:39.757Z</time>
      </trkpt>
      <trkpt lat="46.95693" lon="8.58298">
        <ele>827</ele>
        <time>2021-08-10T09:50:40.756Z</time>
      </trkpt>
      <trkpt lat="46.95694" lon="8.58297">
        <ele>827</ele>
        <time>2021-08-10T09:50:41.757Z</time>
      </trkpt>
      <trkpt lat="46.95694" lon="8.58297">
        <ele>828</ele>
        <time>2021-08-10T09:50:42.757Z</time>
      </trkpt>
      <trkpt lat="46.95694" lon="8.58297">
        <ele>828</ele>
        <time>2021-08-10T09:50:43.756Z</time>
      </trkpt>
      <trkpt lat="46.95694" lon="8.58297">
        <ele>829</ele>
        <time>2021-08-10T09:50:44.757Z</time>
      </trkpt>
      <trkpt lat="46.95693" lon="8.58297">
        <ele>829</ele>
        <time>2021-08-10T09:50:45.756Z</time>
      </trkpt>
      <trkpt lat="46.95692" lon="8.58298">
        <ele>830</ele>
        <time>2021-08-10T09:50:46.757Z</time>
      </trkpt>
      <trkpt lat="46.95691" lon="8.58298">
        <ele>830</ele>
        <time>2021-08-10T09:50:47.757Z</time>
      </trkpt>
      <trkpt lat="46.9569" lon="8.58298">
        <ele>830</ele>
        <time>2021-08-10T09:50:48.756Z</time>
      </trkpt>
      <trkpt lat="46.95689" lon="8.58298">
        <ele>830</ele>
        <time>2021-08-10T09:50:49.757Z</time>
      </trkpt>
      <trkpt lat="46.95688" lon="8.58298">
        <ele>831</ele>
        <time>2021-08-10T09:50:50.756Z</time>
      </trkpt>
      <trkpt lat="46.95687" lon="8.58298">
        <ele>831</ele>
        <time>2021-08-10T09:50:51.756Z</time>
      </trkpt>
      <trkpt lat="46.95687" lon="8.58298">
        <ele>831</ele>
        <time>2021-08-10T09:50:52.757Z</time>
      </trkpt>
      <trkpt lat="46.95686" lon="8.58297">
        <ele>831</ele>
        <time>2021-08-10T09:50:53.757Z</time>
      </trkpt>
      <trkpt lat="46.95685" lon="8.58297">
        <ele>831</ele>
        <time>2021-08-10T09:50:54.756Z</time>
      </trkpt>
      <trkpt lat="46.95684" lon="8.58296">
        <ele>831</ele>
        <time>2021-08-10T09:50:55.756Z</time>
      </trkpt>
      <trkpt lat="46.95683" lon="8.58296">
        <ele>831</ele>
        <time>2021-08-10T09:50:56.756Z</time>
      </trkpt>
      <trkpt lat="46.95683" lon="8.58296">
        <ele>832</ele>
        <time>2021-08-10T09:50:57.757Z</time>
      </trkpt>
      <trkpt lat="46.95682" lon="8.58295">
        <ele>832</ele>
        <time>2021-08-10T09:50:58.757Z</time>
      </trkpt>
      <trkpt lat="46.95682" lon="8.58296">
        <ele>832</ele>
        <time>2021-08-10T09:50:59.757Z</time>
      </trkpt>
      <trkpt lat="46.95682" lon="8.58298">
        <ele>833</ele>
        <time>2021-08-10T09:51:00.756Z</time>
      </trkpt>
      <trkpt lat="46.95681" lon="8.58301">
        <ele>833</ele>
        <time>2021-08-10T09:51:01.757Z</time>
      </trkpt>
      <trkpt lat="46.9568" lon="8.583">
        <ele>832</ele>
        <time>2021-08-10T09:51:02.756Z</time>
      </trkpt>
      <trkpt lat="46.9568" lon="8.583">
        <ele>833</ele>
        <time>2021-08-10T09:51:03.757Z</time>
      </trkpt>
      <trkpt lat="46.95679" lon="8.58299">
        <ele>834</ele>
        <time>2021-08-10T09:51:04.756Z</time>
      </trkpt>
      <trkpt lat="46.95679" lon="8.58298">
        <ele>834</ele>
        <time>2021-08-10T09:51:05.757Z</time>
      </trkpt>
      <trkpt lat="46.95678" lon="8.58298">
        <ele>835</ele>
        <time>2021-08-10T09:51:06.756Z</time>
      </trkpt>
      <trkpt lat="46.95677" lon="8.58297">
        <ele>836</ele>
        <time>2021-08-10T09:51:07.757Z</time>
      </trkpt>
      <trkpt lat="46.95677" lon="8.58297">
        <ele>837</ele>
        <time>2021-08-10T09:51:08.756Z</time>
      </trkpt>
      <trkpt lat="46.95676" lon="8.58296">
        <ele>837</ele>
        <time>2021-08-10T09:51:09.757Z</time>
      </trkpt>
      <trkpt lat="46.95676" lon="8.58296">
        <ele>838</ele>
        <time>2021-08-10T09:51:10.756Z</time>
      </trkpt>
      <trkpt lat="46.95675" lon="8.58296">
        <ele>838</ele>
        <time>2021-08-10T09:51:11.757Z</time>
      </trkpt>
      <trkpt lat="46.95674" lon="8.58295">
        <ele>839</ele>
        <time>2021-08-10T09:51:12.757Z</time>
      </trkpt>
      <trkpt lat="46.95673" lon="8.58295">
        <ele>839</ele>
        <time>2021-08-10T09:51:13.757Z</time>
      </trkpt>
      <trkpt lat="46.95673" lon="8.58295">
        <ele>839</ele>
        <time>2021-08-10T09:51:14.756Z</time>
      </trkpt>
      <trkpt lat="46.95672" lon="8.58295">
        <ele>839</ele>
        <time>2021-08-10T09:51:15.756Z</time>
      </trkpt>
      <trkpt lat="46.95672" lon="8.58294">
        <ele>839</ele>
        <time>2021-08-10T09:51:16.756Z</time>
      </trkpt>
      <trkpt lat="46.95672" lon="8.58295">
        <ele>839</ele>
        <time>2021-08-10T09:51:17.756Z</time>
      </trkpt>
      <trkpt lat="46.95672" lon="8.58296">
        <ele>839</ele>
        <time>2021-08-10T09:51:18.756Z</time>
      </trkpt>
      <trkpt lat="46.95672" lon="8.58295">
        <ele>838</ele>
        <time>2021-08-10T09:51:19.757Z</time>
      </trkpt>
      <trkpt lat="46.95672" lon="8.58294">
        <ele>839</ele>
        <time>2021-08-10T09:51:20.756Z</time>
      </trkpt>
      <trkpt lat="46.95672" lon="8.58293">
        <ele>839</ele>
        <time>2021-08-10T09:51:21.757Z</time>
      </trkpt>
      <trkpt lat="46.95671" lon="8.58292">
        <ele>839</ele>
        <time>2021-08-10T09:51:22.757Z</time>
      </trkpt>
      <trkpt lat="46.9567" lon="8.58293">
        <ele>840</ele>
        <time>2021-08-10T09:51:23.757Z</time>
      </trkpt>
      <trkpt lat="46.9567" lon="8.58292">
        <ele>840</ele>
        <time>2021-08-10T09:51:24.757Z</time>
      </trkpt>
      <trkpt lat="46.95669" lon="8.58292">
        <ele>840</ele>
        <time>2021-08-10T09:51:25.756Z</time>
      </trkpt>
      <trkpt lat="46.95669" lon="8.58292">
        <ele>840</ele>
        <time>2021-08-10T09:51:26.756Z</time>
      </trkpt>
      <trkpt lat="46.95668" lon="8.58293">
        <ele>840</ele>
        <time>2021-08-10T09:51:27.756Z</time>
      </trkpt>
      <trkpt lat="46.95667" lon="8.58293">
        <ele>840</ele>
        <time>2021-08-10T09:51:28.757Z</time>
      </trkpt>
      <trkpt lat="46.95666" lon="8.58294">
        <ele>840</ele>
        <time>2021-08-10T09:51:29.757Z</time>
      </trkpt>
      <trkpt lat="46.95666" lon="8.58295">
        <ele>841</ele>
        <time>2021-08-10T09:51:30.756Z</time>
      </trkpt>
      <trkpt lat="46.95666" lon="8.58295">
        <ele>841</ele>
        <time>2021-08-10T09:51:31.757Z</time>
      </trkpt>
      <trkpt lat="46.95667" lon="8.58295">
        <ele>841</ele>
        <time>2021-08-10T09:51:32.757Z</time>
      </trkpt>
      <trkpt lat="46.95667" lon="8.58296">
        <ele>841</ele>
        <time>2021-08-10T09:51:33.757Z</time>
      </trkpt>
      <trkpt lat="46.95667" lon="8.58297">
        <ele>841</ele>
        <time>2021-08-10T09:51:34.757Z</time>
      </trkpt>
      <trkpt lat="46.95667" lon="8.58298">
        <ele>841</ele>
        <time>2021-08-10T09:51:35.757Z</time>
      </trkpt>
      <trkpt lat="46.95667" lon="8.58299">
        <ele>840</ele>
        <time>2021-08-10T09:51:36.757Z</time>
      </trkpt>
      <trkpt lat="46.95667" lon="8.58299">
        <ele>840</ele>
        <time>2021-08-10T09:51:37.756Z</time>
      </trkpt>
      <trkpt lat="46.95667" lon="8.583">
        <ele>839</ele>
        <time>2021-08-10T09:51:38.757Z</time>
      </trkpt>
      <trkpt lat="46.95667" lon="8.58301">
        <ele>839</ele>
        <time>2021-08-10T09:51:39.756Z</time>
      </trkpt>
      <trkpt lat="46.95667" lon="8.58302">
        <ele>839</ele>
        <time>2021-08-10T09:51:40.756Z</time>
      </trkpt>
      <trkpt lat="46.95667" lon="8.58302">
        <ele>839</ele>
        <time>2021-08-10T09:51:41.757Z</time>
      </trkpt>
      <trkpt lat="46.95667" lon="8.58303">
        <ele>839</ele>
        <time>2021-08-10T09:51:42.757Z</time>
      </trkpt>
      <trkpt lat="46.95667" lon="8.58304">
        <ele>839</ele>
        <time>2021-08-10T09:51:43.757Z</time>
      </trkpt>
      <trkpt lat="46.95667" lon="8.58304">
        <ele>839</ele>
        <time>2021-08-10T09:51:44.757Z</time>
      </trkpt>
      <trkpt lat="46.95668" lon="8.58304">
        <ele>838</ele>
        <time>2021-08-10T09:51:45.756Z</time>
      </trkpt>
      <trkpt lat="46.95668" lon="8.58305">
        <ele>838</ele>
        <time>2021-08-10T09:51:46.757Z</time>
      </trkpt>
      <trkpt lat="46.95669" lon="8.58305">
        <ele>837</ele>
        <time>2021-08-10T09:51:47.757Z</time>
      </trkpt>
      <trkpt lat="46.95668" lon="8.58306">
        <ele>838</ele>
        <time>2021-08-10T09:51:48.758Z</time>
      </trkpt>
      <trkpt lat="46.95667" lon="8.58307">
        <ele>842</ele>
        <time>2021-08-10T09:51:49.759Z</time>
      </trkpt>
      <trkpt lat="46.95667" lon="8.58307">
        <ele>842</ele>
        <time>2021-08-10T09:51:50.759Z</time>
      </trkpt>
      <trkpt lat="46.95667" lon="8.58308">
        <ele>842</ele>
        <time>2021-08-10T09:51:51.759Z</time>
      </trkpt>
      <trkpt lat="46.95667" lon="8.58308">
        <ele>842</ele>
        <time>2021-08-10T09:51:52.759Z</time>
      </trkpt>
      <trkpt lat="46.95668" lon="8.58308">
        <ele>843</ele>
        <time>2021-08-10T09:51:53.759Z</time>
      </trkpt>
      <trkpt lat="46.95668" lon="8.58309">
        <ele>843</ele>
        <time>2021-08-10T09:51:54.760Z</time>
      </trkpt>
      <trkpt lat="46.95668" lon="8.58311">
        <ele>843</ele>
        <time>2021-08-10T09:51:55.760Z</time>
      </trkpt>
      <trkpt lat="46.95668" lon="8.58312">
        <ele>843</ele>
        <time>2021-08-10T09:51:56.760Z</time>
      </trkpt>
      <trkpt lat="46.95668" lon="8.58313">
        <ele>843</ele>
        <time>2021-08-10T09:51:57.760Z</time>
      </trkpt>
      <trkpt lat="46.95669" lon="8.58314">
        <ele>842</ele>
        <time>2021-08-10T09:51:58.760Z</time>
      </trkpt>
      <trkpt lat="46.95669" lon="8.58314">
        <ele>843</ele>
        <time>2021-08-10T09:51:59.760Z</time>
      </trkpt>
      <trkpt lat="46.9567" lon="8.58315">
        <ele>843</ele>
        <time>2021-08-10T09:52:00.760Z</time>
      </trkpt>
      <trkpt lat="46.9567" lon="8.58316">
        <ele>842</ele>
        <time>2021-08-10T09:52:01.759Z</time>
      </trkpt>
      <trkpt lat="46.9567" lon="8.58317">
        <ele>842</ele>
        <time>2021-08-10T09:52:02.759Z</time>
      </trkpt>
      <trkpt lat="46.9567" lon="8.58318">
        <ele>842</ele>
        <time>2021-08-10T09:52:03.760Z</time>
      </trkpt>
      <trkpt lat="46.95671" lon="8.58319">
        <ele>842</ele>
        <time>2021-08-10T09:52:04.760Z</time>
      </trkpt>
      <trkpt lat="46.95671" lon="8.5832">
        <ele>842</ele>
        <time>2021-08-10T09:52:05.759Z</time>
      </trkpt>
      <trkpt lat="46.95671" lon="8.58321">
        <ele>842</ele>
        <time>2021-08-10T09:52:06.759Z</time>
      </trkpt>
      <trkpt lat="46.95671" lon="8.58322">
        <ele>842</ele>
        <time>2021-08-10T09:52:07.760Z</time>
      </trkpt>
      <trkpt lat="46.95671" lon="8.58323">
        <ele>842</ele>
        <time>2021-08-10T09:52:08.760Z</time>
      </trkpt>
      <trkpt lat="46.95671" lon="8.58323">
        <ele>842</ele>
        <time>2021-08-10T09:52:09.759Z</time>
      </trkpt>
      <trkpt lat="46.95672" lon="8.58324">
        <ele>842</ele>
        <time>2021-08-10T09:52:10.760Z</time>
      </trkpt>
      <trkpt lat="46.95672" lon="8.58324">
        <ele>842</ele>
        <time>2021-08-10T09:52:11.760Z</time>
      </trkpt>
      <trkpt lat="46.95672" lon="8.58325">
        <ele>842</ele>
        <time>2021-08-10T09:52:12.759Z</time>
      </trkpt>
      <trkpt lat="46.95673" lon="8.58327">
        <ele>842</ele>
        <time>2021-08-10T09:52:13.760Z</time>
      </trkpt>
      <trkpt lat="46.95672" lon="8.58329">
        <ele>842</ele>
        <time>2021-08-10T09:52:14.760Z</time>
      </trkpt>
      <trkpt lat="46.95672" lon="8.58329">
        <ele>842</ele>
        <time>2021-08-10T09:52:15.760Z</time>
      </trkpt>
      <trkpt lat="46.95673" lon="8.58332">
        <ele>842</ele>
        <time>2021-08-10T09:52:16.761Z</time>
      </trkpt>
      <trkpt lat="46.95673" lon="8.58332">
        <ele>842</ele>
        <time>2021-08-10T09:52:17.760Z</time>
      </trkpt>
      <trkpt lat="46.95673" lon="8.58333">
        <ele>842</ele>
        <time>2021-08-10T09:52:18.761Z</time>
      </trkpt>
      <trkpt lat="46.95673" lon="8.58334">
        <ele>842</ele>
        <time>2021-08-10T09:52:19.760Z</time>
      </trkpt>
      <trkpt lat="46.95673" lon="8.58335">
        <ele>842</ele>
        <time>2021-08-10T09:52:20.760Z</time>
      </trkpt>
      <trkpt lat="46.95673" lon="8.58336">
        <ele>842</ele>
        <time>2021-08-10T09:52:21.761Z</time>
      </trkpt>
      <trkpt lat="46.95673" lon="8.58338">
        <ele>842</ele>
        <time>2021-08-10T09:52:22.760Z</time>
      </trkpt>
      <trkpt lat="46.95672" lon="8.5834">
        <ele>842</ele>
        <time>2021-08-10T09:52:23.760Z</time>
      </trkpt>
      <trkpt lat="46.9567" lon="8.58341">
        <ele>842</ele>
        <time>2021-08-10T09:52:24.760Z</time>
      </trkpt>
      <trkpt lat="46.95669" lon="8.58343">
        <ele>842</ele>
        <time>2021-08-10T09:52:25.761Z</time>
      </trkpt>
      <trkpt lat="46.95669" lon="8.58343">
        <ele>842</ele>
        <time>2021-08-10T09:52:26.761Z</time>
      </trkpt>
      <trkpt lat="46.95669" lon="8.58344">
        <ele>841</ele>
        <time>2021-08-10T09:52:27.761Z</time>
      </trkpt>
      <trkpt lat="46.95669" lon="8.58345">
        <ele>841</ele>
        <time>2021-08-10T09:52:28.761Z</time>
      </trkpt>
      <trkpt lat="46.95669" lon="8.58347">
        <ele>841</ele>
        <time>2021-08-10T09:52:29.761Z</time>
      </trkpt>
      <trkpt lat="46.9567" lon="8.58348">
        <ele>840</ele>
        <time>2021-08-10T09:52:30.761Z</time>
      </trkpt>
      <trkpt lat="46.9567" lon="8.5835">
        <ele>840</ele>
        <time>2021-08-10T09:52:31.761Z</time>
      </trkpt>
      <trkpt lat="46.95669" lon="8.58351">
        <ele>840</ele>
        <time>2021-08-10T09:52:32.761Z</time>
      </trkpt>
      <trkpt lat="46.95669" lon="8.58351">
        <ele>840</ele>
        <time>2021-08-10T09:52:33.761Z</time>
      </trkpt>
      <trkpt lat="46.95668" lon="8.58352">
        <ele>839</ele>
        <time>2021-08-10T09:52:34.761Z</time>
      </trkpt>
      <trkpt lat="46.95668" lon="8.58353">
        <ele>839</ele>
        <time>2021-08-10T09:52:35.761Z</time>
      </trkpt>
      <trkpt lat="46.95669" lon="8.58353">
        <ele>838</ele>
        <time>2021-08-10T09:52:36.761Z</time>
      </trkpt>
      <trkpt lat="46.9567" lon="8.58353">
        <ele>838</ele>
        <time>2021-08-10T09:52:37.761Z</time>
      </trkpt>
      <trkpt lat="46.9567" lon="8.58351">
        <ele>838</ele>
        <time>2021-08-10T09:52:38.761Z</time>
      </trkpt>
      <trkpt lat="46.9567" lon="8.5835">
        <ele>838</ele>
        <time>2021-08-10T09:52:39.760Z</time>
      </trkpt>
      <trkpt lat="46.9567" lon="8.58349">
        <ele>838</ele>
        <time>2021-08-10T09:52:40.760Z</time>
      </trkpt>
      <trkpt lat="46.9567" lon="8.58348">
        <ele>839</ele>
        <time>2021-08-10T09:52:41.761Z</time>
      </trkpt>
      <trkpt lat="46.9567" lon="8.58348">
        <ele>839</ele>
        <time>2021-08-10T09:52:42.761Z</time>
      </trkpt>
      <trkpt lat="46.95669" lon="8.58346">
        <ele>839</ele>
        <time>2021-08-10T09:52:43.761Z</time>
      </trkpt>
      <trkpt lat="46.95669" lon="8.58345">
        <ele>839</ele>
        <time>2021-08-10T09:52:44.761Z</time>
      </trkpt>
      <trkpt lat="46.95669" lon="8.58345">
        <ele>839</ele>
        <time>2021-08-10T09:52:45.761Z</time>
      </trkpt>
      <trkpt lat="46.95669" lon="8.58344">
        <ele>839</ele>
        <time>2021-08-10T09:52:46.760Z</time>
      </trkpt>
      <trkpt lat="46.95668" lon="8.58344">
        <ele>839</ele>
        <time>2021-08-10T09:52:47.760Z</time>
      </trkpt>
      <trkpt lat="46.95667" lon="8.58343">
        <ele>839</ele>
        <time>2021-08-10T09:52:48.761Z</time>
      </trkpt>
      <trkpt lat="46.95666" lon="8.58343">
        <ele>839</ele>
        <time>2021-08-10T09:52:49.760Z</time>
      </trkpt>
      <trkpt lat="46.95666" lon="8.58342">
        <ele>839</ele>
        <time>2021-08-10T09:52:50.760Z</time>
      </trkpt>
      <trkpt lat="46.95665" lon="8.58341">
        <ele>839</ele>
        <time>2021-08-10T09:52:51.760Z</time>
      </trkpt>
      <trkpt lat="46.95665" lon="8.58341">
        <ele>839</ele>
        <time>2021-08-10T09:52:52.760Z</time>
      </trkpt>
      <trkpt lat="46.95665" lon="8.5834">
        <ele>839</ele>
        <time>2021-08-10T09:52:53.760Z</time>
      </trkpt>
      <trkpt lat="46.95665" lon="8.58339">
        <ele>840</ele>
        <time>2021-08-10T09:52:54.761Z</time>
      </trkpt>
      <trkpt lat="46.95664" lon="8.58338">
        <ele>840</ele>
        <time>2021-08-10T09:52:55.760Z</time>
      </trkpt>
      <trkpt lat="46.95664" lon="8.58338">
        <ele>840</ele>
        <time>2021-08-10T09:52:56.760Z</time>
      </trkpt>
      <trkpt lat="46.95663" lon="8.58338">
        <ele>841</ele>
        <time>2021-08-10T09:52:57.761Z</time>
      </trkpt>
      <trkpt lat="46.95663" lon="8.58337">
        <ele>841</ele>
        <time>2021-08-10T09:52:58.761Z</time>
      </trkpt>
      <trkpt lat="46.95663" lon="8.58337">
        <ele>841</ele>
        <time>2021-08-10T09:52:59.760Z</time>
      </trkpt>
      <trkpt lat="46.95663" lon="8.58336">
        <ele>841</ele>
        <time>2021-08-10T09:53:00.760Z</time>
      </trkpt>
      <trkpt lat="46.95663" lon="8.58335">
        <ele>841</ele>
        <time>2021-08-10T09:53:01.760Z</time>
      </trkpt>
      <trkpt lat="46.95662" lon="8.58334">
        <ele>841</ele>
        <time>2021-08-10T09:53:02.760Z</time>
      </trkpt>
      <trkpt lat="46.95661" lon="8.58334">
        <ele>841</ele>
        <time>2021-08-10T09:53:03.761Z</time>
      </trkpt>
      <trkpt lat="46.95661" lon="8.58333">
        <ele>841</ele>
        <time>2021-08-10T09:53:04.760Z</time>
      </trkpt>
      <trkpt lat="46.9566" lon="8.58333">
        <ele>841</ele>
        <time>2021-08-10T09:53:05.761Z</time>
      </trkpt>
      <trkpt lat="46.9566" lon="8.58332">
        <ele>841</ele>
        <time>2021-08-10T09:53:06.760Z</time>
      </trkpt>
      <trkpt lat="46.95659" lon="8.58331">
        <ele>841</ele>
        <time>2021-08-10T09:53:07.760Z</time>
      </trkpt>
      <trkpt lat="46.95659" lon="8.5833">
        <ele>841</ele>
        <time>2021-08-10T09:53:08.760Z</time>
      </trkpt>
      <trkpt lat="46.95658" lon="8.58329">
        <ele>841</ele>
        <time>2021-08-10T09:53:09.760Z</time>
      </trkpt>
      <trkpt lat="46.95658" lon="8.58328">
        <ele>842</ele>
        <time>2021-08-10T09:53:10.760Z</time>
      </trkpt>
      <trkpt lat="46.95658" lon="8.58327">
        <ele>842</ele>
        <time>2021-08-10T09:53:11.760Z</time>
      </trkpt>
      <trkpt lat="46.95657" lon="8.58326">
        <ele>843</ele>
        <time>2021-08-10T09:53:12.761Z</time>
      </trkpt>
      <trkpt lat="46.95657" lon="8.58326">
        <ele>844</ele>
        <time>2021-08-10T09:53:13.760Z</time>
      </trkpt>
      <trkpt lat="46.95658" lon="8.58325">
        <ele>844</ele>
        <time>2021-08-10T09:53:14.761Z</time>
      </trkpt>
      <trkpt lat="46.95657" lon="8.58324">
        <ele>845</ele>
        <time>2021-08-10T09:53:15.761Z</time>
      </trkpt>
      <trkpt lat="46.95657" lon="8.58323">
        <ele>846</ele>
        <time>2021-08-10T09:53:16.761Z</time>
      </trkpt>
      <trkpt lat="46.95657" lon="8.58322">
        <ele>847</ele>
        <time>2021-08-10T09:53:17.761Z</time>
      </trkpt>
      <trkpt lat="46.95657" lon="8.58321">
        <ele>848</ele>
        <time>2021-08-10T09:53:18.760Z</time>
      </trkpt>
      <trkpt lat="46.95656" lon="8.58319">
        <ele>848</ele>
        <time>2021-08-10T09:53:19.761Z</time>
      </trkpt>
      <trkpt lat="46.95656" lon="8.58318">
        <ele>849</ele>
        <time>2021-08-10T09:53:20.761Z</time>
      </trkpt>
      <trkpt lat="46.95656" lon="8.58317">
        <ele>850</ele>
        <time>2021-08-10T09:53:21.761Z</time>
      </trkpt>
      <trkpt lat="46.95655" lon="8.58316">
        <ele>851</ele>
        <time>2021-08-10T09:53:22.760Z</time>
      </trkpt>
      <trkpt lat="46.95656" lon="8.58315">
        <ele>851</ele>
        <time>2021-08-10T09:53:23.761Z</time>
      </trkpt>
      <trkpt lat="46.95656" lon="8.58314">
        <ele>851</ele>
        <time>2021-08-10T09:53:24.761Z</time>
      </trkpt>
      <trkpt lat="46.95655" lon="8.58313">
        <ele>851</ele>
        <time>2021-08-10T09:53:25.761Z</time>
      </trkpt>
      <trkpt lat="46.95655" lon="8.58311">
        <ele>851</ele>
        <time>2021-08-10T09:53:26.761Z</time>
      </trkpt>
      <trkpt lat="46.95655" lon="8.5831">
        <ele>851</ele>
        <time>2021-08-10T09:53:27.761Z</time>
      </trkpt>
      <trkpt lat="46.95656" lon="8.58308">
        <ele>851</ele>
        <time>2021-08-10T09:53:28.761Z</time>
      </trkpt>
      <trkpt lat="46.95656" lon="8.58307">
        <ele>852</ele>
        <time>2021-08-10T09:53:29.761Z</time>
      </trkpt>
      <trkpt lat="46.95656" lon="8.58306">
        <ele>852</ele>
        <time>2021-08-10T09:53:30.761Z</time>
      </trkpt>
      <trkpt lat="46.95655" lon="8.58306">
        <ele>852</ele>
        <time>2021-08-10T09:53:31.761Z</time>
      </trkpt>
      <trkpt lat="46.95654" lon="8.58306">
        <ele>852</ele>
        <time>2021-08-10T09:53:32.760Z</time>
      </trkpt>
      <trkpt lat="46.95653" lon="8.58306">
        <ele>852</ele>
        <time>2021-08-10T09:53:33.761Z</time>
      </trkpt>
      <trkpt lat="46.95652" lon="8.58305">
        <ele>852</ele>
        <time>2021-08-10T09:53:34.760Z</time>
      </trkpt>
      <trkpt lat="46.95651" lon="8.58305">
        <ele>852</ele>
        <time>2021-08-10T09:53:35.760Z</time>
      </trkpt>
      <trkpt lat="46.9565" lon="8.58304">
        <ele>851</ele>
        <time>2021-08-10T09:53:36.760Z</time>
      </trkpt>
      <trkpt lat="46.9565" lon="8.58304">
        <ele>851</ele>
        <time>2021-08-10T09:53:37.761Z</time>
      </trkpt>
      <trkpt lat="46.95649" lon="8.58304">
        <ele>851</ele>
        <time>2021-08-10T09:53:38.761Z</time>
      </trkpt>
      <trkpt lat="46.95649" lon="8.58304">
        <ele>851</ele>
        <time>2021-08-10T09:53:39.761Z</time>
      </trkpt>
      <trkpt lat="46.95648" lon="8.58303">
        <ele>851</ele>
        <time>2021-08-10T09:53:40.761Z</time>
      </trkpt>
      <trkpt lat="46.95648" lon="8.58304">
        <ele>851</ele>
        <time>2021-08-10T09:53:41.761Z</time>
      </trkpt>
      <trkpt lat="46.95648" lon="8.58304">
        <ele>851</ele>
        <time>2021-08-10T09:53:42.760Z</time>
      </trkpt>
      <trkpt lat="46.95648" lon="8.58303">
        <ele>851</ele>
        <time>2021-08-10T09:53:43.760Z</time>
      </trkpt>
      <trkpt lat="46.95648" lon="8.58303">
        <ele>852</ele>
        <time>2021-08-10T09:53:44.761Z</time>
      </trkpt>
      <trkpt lat="46.95648" lon="8.58301">
        <ele>852</ele>
        <time>2021-08-10T09:53:45.761Z</time>
      </trkpt>
      <trkpt lat="46.95647" lon="8.58301">
        <ele>852</ele>
        <time>2021-08-10T09:53:46.761Z</time>
      </trkpt>
      <trkpt lat="46.95647" lon="8.583">
        <ele>852</ele>
        <time>2021-08-10T09:53:47.761Z</time>
      </trkpt>
      <trkpt lat="46.95646" lon="8.58298">
        <ele>853</ele>
        <time>2021-08-10T09:53:48.761Z</time>
      </trkpt>
      <trkpt lat="46.95645" lon="8.58297">
        <ele>853</ele>
        <time>2021-08-10T09:53:49.761Z</time>
      </trkpt>
      <trkpt lat="46.95644" lon="8.58297">
        <ele>853</ele>
        <time>2021-08-10T09:53:50.762Z</time>
      </trkpt>
      <trkpt lat="46.95643" lon="8.58296">
        <ele>853</ele>
        <time>2021-08-10T09:53:51.762Z</time>
      </trkpt>
      <trkpt lat="46.95642" lon="8.58296">
        <ele>854</ele>
        <time>2021-08-10T09:53:52.761Z</time>
      </trkpt>
      <trkpt lat="46.95642" lon="8.58295">
        <ele>854</ele>
        <time>2021-08-10T09:53:53.762Z</time>
      </trkpt>
      <trkpt lat="46.95641" lon="8.58294">
        <ele>855</ele>
        <time>2021-08-10T09:53:54.761Z</time>
      </trkpt>
      <trkpt lat="46.9564" lon="8.58293">
        <ele>855</ele>
        <time>2021-08-10T09:53:55.762Z</time>
      </trkpt>
      <trkpt lat="46.95639" lon="8.58293">
        <ele>855</ele>
        <time>2021-08-10T09:53:56.761Z</time>
      </trkpt>
      <trkpt lat="46.95638" lon="8.58292">
        <ele>855</ele>
        <time>2021-08-10T09:53:57.761Z</time>
      </trkpt>
      <trkpt lat="46.95637" lon="8.58292">
        <ele>856</ele>
        <time>2021-08-10T09:53:58.762Z</time>
      </trkpt>
      <trkpt lat="46.95634" lon="8.58291">
        <ele>856</ele>
        <time>2021-08-10T09:53:59.762Z</time>
      </trkpt>
      <trkpt lat="46.95633" lon="8.58292">
        <ele>856</ele>
        <time>2021-08-10T09:54:00.761Z</time>
      </trkpt>
      <trkpt lat="46.95631" lon="8.58291">
        <ele>856</ele>
        <time>2021-08-10T09:54:01.762Z</time>
      </trkpt>
      <trkpt lat="46.95629" lon="8.5829">
        <ele>856</ele>
        <time>2021-08-10T09:54:02.761Z</time>
      </trkpt>
      <trkpt lat="46.95628" lon="8.5829">
        <ele>857</ele>
        <time>2021-08-10T09:54:03.761Z</time>
      </trkpt>
      <trkpt lat="46.95627" lon="8.58289">
        <ele>857</ele>
        <time>2021-08-10T09:54:04.761Z</time>
      </trkpt>
      <trkpt lat="46.95626" lon="8.58288">
        <ele>857</ele>
        <time>2021-08-10T09:54:05.762Z</time>
      </trkpt>
      <trkpt lat="46.95625" lon="8.58288">
        <ele>858</ele>
        <time>2021-08-10T09:54:06.762Z</time>
      </trkpt>
      <trkpt lat="46.95624" lon="8.58287">
        <ele>858</ele>
        <time>2021-08-10T09:54:07.761Z</time>
      </trkpt>
      <trkpt lat="46.95624" lon="8.58286">
        <ele>858</ele>
        <time>2021-08-10T09:54:08.761Z</time>
      </trkpt>
      <trkpt lat="46.95623" lon="8.58286">
        <ele>859</ele>
        <time>2021-08-10T09:54:09.762Z</time>
      </trkpt>
      <trkpt lat="46.95623" lon="8.58285">
        <ele>859</ele>
        <time>2021-08-10T09:54:10.761Z</time>
      </trkpt>
      <trkpt lat="46.95623" lon="8.58284">
        <ele>859</ele>
        <time>2021-08-10T09:54:11.762Z</time>
      </trkpt>
      <trkpt lat="46.95622" lon="8.58284">
        <ele>859</ele>
        <time>2021-08-10T09:54:12.762Z</time>
      </trkpt>
      <trkpt lat="46.95621" lon="8.58284">
        <ele>859</ele>
        <time>2021-08-10T09:54:13.762Z</time>
      </trkpt>
      <trkpt lat="46.95618" lon="8.58285">
        <ele>860</ele>
        <time>2021-08-10T09:54:14.762Z</time>
      </trkpt>
      <trkpt lat="46.95616" lon="8.58285">
        <ele>860</ele>
        <time>2021-08-10T09:54:15.762Z</time>
      </trkpt>
      <trkpt lat="46.95614" lon="8.58285">
        <ele>860</ele>
        <time>2021-08-10T09:54:16.762Z</time>
      </trkpt>
      <trkpt lat="46.95613" lon="8.58285">
        <ele>861</ele>
        <time>2021-08-10T09:54:17.762Z</time>
      </trkpt>
      <trkpt lat="46.95613" lon="8.58286">
        <ele>861</ele>
        <time>2021-08-10T09:54:18.762Z</time>
      </trkpt>
      <trkpt lat="46.95612" lon="8.58287">
        <ele>861</ele>
        <time>2021-08-10T09:54:19.762Z</time>
      </trkpt>
      <trkpt lat="46.95611" lon="8.58287">
        <ele>861</ele>
        <time>2021-08-10T09:54:20.762Z</time>
      </trkpt>
      <trkpt lat="46.95611" lon="8.58287">
        <ele>862</ele>
        <time>2021-08-10T09:54:21.761Z</time>
      </trkpt>
      <trkpt lat="46.9561" lon="8.58287">
        <ele>862</ele>
        <time>2021-08-10T09:54:22.762Z</time>
      </trkpt>
      <trkpt lat="46.95609" lon="8.58288">
        <ele>862</ele>
        <time>2021-08-10T09:54:23.761Z</time>
      </trkpt>
      <trkpt lat="46.95609" lon="8.58289">
        <ele>863</ele>
        <time>2021-08-10T09:54:24.762Z</time>
      </trkpt>
      <trkpt lat="46.95609" lon="8.58289">
        <ele>863</ele>
        <time>2021-08-10T09:54:25.762Z</time>
      </trkpt>
      <trkpt lat="46.95609" lon="8.58288">
        <ele>863</ele>
        <time>2021-08-10T09:54:26.762Z</time>
      </trkpt>
      <trkpt lat="46.9561" lon="8.58287">
        <ele>864</ele>
        <time>2021-08-10T09:54:27.762Z</time>
      </trkpt>
      <trkpt lat="46.95611" lon="8.58286">
        <ele>864</ele>
        <time>2021-08-10T09:54:28.762Z</time>
      </trkpt>
      <trkpt lat="46.95611" lon="8.58285">
        <ele>864</ele>
        <time>2021-08-10T09:54:29.761Z</time>
      </trkpt>
      <trkpt lat="46.95611" lon="8.58285">
        <ele>864</ele>
        <time>2021-08-10T09:54:30.762Z</time>
      </trkpt>
      <trkpt lat="46.95611" lon="8.58285">
        <ele>864</ele>
        <time>2021-08-10T09:54:31.761Z</time>
      </trkpt>
      <trkpt lat="46.9561" lon="8.58284">
        <ele>864</ele>
        <time>2021-08-10T09:54:32.761Z</time>
      </trkpt>
      <trkpt lat="46.95609" lon="8.58284">
        <ele>865</ele>
        <time>2021-08-10T09:54:33.762Z</time>
      </trkpt>
      <trkpt lat="46.95608" lon="8.58284">
        <ele>865</ele>
        <time>2021-08-10T09:54:34.762Z</time>
      </trkpt>
      <trkpt lat="46.95609" lon="8.58281">
        <ele>865</ele>
        <time>2021-08-10T09:54:35.762Z</time>
      </trkpt>
      <trkpt lat="46.9561" lon="8.5828">
        <ele>865</ele>
        <time>2021-08-10T09:54:36.761Z</time>
      </trkpt>
      <trkpt lat="46.95609" lon="8.5828">
        <ele>865</ele>
        <time>2021-08-10T09:54:37.762Z</time>
      </trkpt>
      <trkpt lat="46.95608" lon="8.58281">
        <ele>866</ele>
        <time>2021-08-10T09:54:38.761Z</time>
      </trkpt>
      <trkpt lat="46.95608" lon="8.58283">
        <ele>866</ele>
        <time>2021-08-10T09:54:39.762Z</time>
      </trkpt>
      <trkpt lat="46.95608" lon="8.58285">
        <ele>866</ele>
        <time>2021-08-10T09:54:40.761Z</time>
      </trkpt>
      <trkpt lat="46.95608" lon="8.58285">
        <ele>866</ele>
        <time>2021-08-10T09:54:41.762Z</time>
      </trkpt>
      <trkpt lat="46.95608" lon="8.58285">
        <ele>867</ele>
        <time>2021-08-10T09:54:42.761Z</time>
      </trkpt>
      <trkpt lat="46.95607" lon="8.58286">
        <ele>867</ele>
        <time>2021-08-10T09:54:43.762Z</time>
      </trkpt>
      <trkpt lat="46.95606" lon="8.58287">
        <ele>867</ele>
        <time>2021-08-10T09:54:44.761Z</time>
      </trkpt>
      <trkpt lat="46.95604" lon="8.5829">
        <ele>867</ele>
        <time>2021-08-10T09:54:45.762Z</time>
      </trkpt>
      <trkpt lat="46.95604" lon="8.58288">
        <ele>867</ele>
        <time>2021-08-10T09:54:46.762Z</time>
      </trkpt>
      <trkpt lat="46.95604" lon="8.58285">
        <ele>867</ele>
        <time>2021-08-10T09:54:47.761Z</time>
      </trkpt>
      <trkpt lat="46.95604" lon="8.58282">
        <ele>867</ele>
        <time>2021-08-10T09:54:48.762Z</time>
      </trkpt>
      <trkpt lat="46.95603" lon="8.58279">
        <ele>867</ele>
        <time>2021-08-10T09:54:49.762Z</time>
      </trkpt>
      <trkpt lat="46.95603" lon="8.58276">
        <ele>868</ele>
        <time>2021-08-10T09:54:50.761Z</time>
      </trkpt>
      <trkpt lat="46.95603" lon="8.58274">
        <ele>868</ele>
        <time>2021-08-10T09:54:51.762Z</time>
      </trkpt>
      <trkpt lat="46.95603" lon="8.58272">
        <ele>868</ele>
        <time>2021-08-10T09:54:52.762Z</time>
      </trkpt>
      <trkpt lat="46.95601" lon="8.58272">
        <ele>868</ele>
        <time>2021-08-10T09:54:53.761Z</time>
      </trkpt>
      <trkpt lat="46.956" lon="8.58272">
        <ele>868</ele>
        <time>2021-08-10T09:54:54.761Z</time>
      </trkpt>
      <trkpt lat="46.95598" lon="8.58273">
        <ele>868</ele>
        <time>2021-08-10T09:54:55.761Z</time>
      </trkpt>
      <trkpt lat="46.95595" lon="8.58275">
        <ele>868</ele>
        <time>2021-08-10T09:54:56.761Z</time>
      </trkpt>
      <trkpt lat="46.95594" lon="8.58276">
        <ele>867</ele>
        <time>2021-08-10T09:54:57.762Z</time>
      </trkpt>
      <trkpt lat="46.95593" lon="8.58278">
        <ele>867</ele>
        <time>2021-08-10T09:54:58.761Z</time>
      </trkpt>
      <trkpt lat="46.95593" lon="8.58279">
        <ele>867</ele>
        <time>2021-08-10T09:54:59.762Z</time>
      </trkpt>
      <trkpt lat="46.95593" lon="8.58281">
        <ele>867</ele>
        <time>2021-08-10T09:55:00.762Z</time>
      </trkpt>
      <trkpt lat="46.95592" lon="8.58283">
        <ele>867</ele>
        <time>2021-08-10T09:55:01.762Z</time>
      </trkpt>
      <trkpt lat="46.95592" lon="8.58284">
        <ele>867</ele>
        <time>2021-08-10T09:55:02.762Z</time>
      </trkpt>
      <trkpt lat="46.95593" lon="8.58286">
        <ele>867</ele>
        <time>2021-08-10T09:55:03.761Z</time>
      </trkpt>
      <trkpt lat="46.95594" lon="8.58286">
        <ele>867</ele>
        <time>2021-08-10T09:55:04.762Z</time>
      </trkpt>
      <trkpt lat="46.95595" lon="8.58286">
        <ele>867</ele>
        <time>2021-08-10T09:55:05.762Z</time>
      </trkpt>
      <trkpt lat="46.95595" lon="8.58286">
        <ele>867</ele>
        <time>2021-08-10T09:55:06.761Z</time>
      </trkpt>
      <trkpt lat="46.95594" lon="8.58287">
        <ele>867</ele>
        <time>2021-08-10T09:55:07.762Z</time>
      </trkpt>
      <trkpt lat="46.95594" lon="8.58288">
        <ele>867</ele>
        <time>2021-08-10T09:55:08.762Z</time>
      </trkpt>
      <trkpt lat="46.95594" lon="8.58289">
        <ele>867</ele>
        <time>2021-08-10T09:55:09.762Z</time>
      </trkpt>
      <trkpt lat="46.95593" lon="8.5829">
        <ele>867</ele>
        <time>2021-08-10T09:55:10.762Z</time>
      </trkpt>
      <trkpt lat="46.95593" lon="8.58292">
        <ele>867</ele>
        <time>2021-08-10T09:55:11.762Z</time>
      </trkpt>
      <trkpt lat="46.95591" lon="8.58294">
        <ele>867</ele>
        <time>2021-08-10T09:55:12.762Z</time>
      </trkpt>
      <trkpt lat="46.95587" lon="8.58296">
        <ele>867</ele>
        <time>2021-08-10T09:55:13.762Z</time>
      </trkpt>
      <trkpt lat="46.95584" lon="8.58298">
        <ele>867</ele>
        <time>2021-08-10T09:55:14.762Z</time>
      </trkpt>
      <trkpt lat="46.95581" lon="8.583">
        <ele>867</ele>
        <time>2021-08-10T09:55:15.762Z</time>
      </trkpt>
      <trkpt lat="46.95579" lon="8.58303">
        <ele>867</ele>
        <time>2021-08-10T09:55:16.762Z</time>
      </trkpt>
      <trkpt lat="46.95576" lon="8.58306">
        <ele>867</ele>
        <time>2021-08-10T09:55:17.761Z</time>
      </trkpt>
      <trkpt lat="46.95575" lon="8.58309">
        <ele>867</ele>
        <time>2021-08-10T09:55:18.762Z</time>
      </trkpt>
      <trkpt lat="46.95576" lon="8.58311">
        <ele>867</ele>
        <time>2021-08-10T09:55:19.762Z</time>
      </trkpt>
      <trkpt lat="46.95575" lon="8.58313">
        <ele>867</ele>
        <time>2021-08-10T09:55:20.762Z</time>
      </trkpt>
      <trkpt lat="46.95574" lon="8.58315">
        <ele>867</ele>
        <time>2021-08-10T09:55:21.762Z</time>
      </trkpt>
      <trkpt lat="46.95573" lon="8.58316">
        <ele>867</ele>
        <time>2021-08-10T09:55:22.762Z</time>
      </trkpt>
      <trkpt lat="46.95572" lon="8.58318">
        <ele>867</ele>
        <time>2021-08-10T09:55:23.761Z</time>
      </trkpt>
      <trkpt lat="46.95571" lon="8.5832">
        <ele>868</ele>
        <time>2021-08-10T09:55:24.761Z</time>
      </trkpt>
      <trkpt lat="46.9557" lon="8.58321">
        <ele>868</ele>
        <time>2021-08-10T09:55:25.761Z</time>
      </trkpt>
      <trkpt lat="46.9557" lon="8.58321">
        <ele>868</ele>
        <time>2021-08-10T09:55:26.761Z</time>
      </trkpt>
      <trkpt lat="46.95569" lon="8.58322">
        <ele>868</ele>
        <time>2021-08-10T09:55:27.761Z</time>
      </trkpt>
      <trkpt lat="46.95569" lon="8.58322">
        <ele>869</ele>
        <time>2021-08-10T09:55:28.762Z</time>
      </trkpt>
      <trkpt lat="46.95568" lon="8.58322">
        <ele>869</ele>
        <time>2021-08-10T09:55:29.762Z</time>
      </trkpt>
      <trkpt lat="46.95567" lon="8.58322">
        <ele>869</ele>
        <time>2021-08-10T09:55:30.761Z</time>
      </trkpt>
      <trkpt lat="46.95566" lon="8.58321">
        <ele>869</ele>
        <time>2021-08-10T09:55:31.762Z</time>
      </trkpt>
      <trkpt lat="46.95564" lon="8.58321">
        <ele>870</ele>
        <time>2021-08-10T09:55:32.762Z</time>
      </trkpt>
      <trkpt lat="46.95563" lon="8.58321">
        <ele>870</ele>
        <time>2021-08-10T09:55:33.761Z</time>
      </trkpt>
      <trkpt lat="46.95562" lon="8.58321">
        <ele>870</ele>
        <time>2021-08-10T09:55:34.761Z</time>
      </trkpt>
      <trkpt lat="46.95562" lon="8.58321">
        <ele>870</ele>
        <time>2021-08-10T09:55:35.761Z</time>
      </trkpt>
      <trkpt lat="46.95561" lon="8.58323">
        <ele>870</ele>
        <time>2021-08-10T09:55:36.761Z</time>
      </trkpt>
      <trkpt lat="46.9556" lon="8.58324">
        <ele>869</ele>
        <time>2021-08-10T09:55:37.762Z</time>
      </trkpt>
      <trkpt lat="46.9556" lon="8.58325">
        <ele>869</ele>
        <time>2021-08-10T09:55:38.761Z</time>
      </trkpt>
      <trkpt lat="46.9556" lon="8.58326">
        <ele>869</ele>
        <time>2021-08-10T09:55:39.762Z</time>
      </trkpt>
      <trkpt lat="46.95559" lon="8.58327">
        <ele>869</ele>
        <time>2021-08-10T09:55:40.761Z</time>
      </trkpt>
      <trkpt lat="46.95558" lon="8.58327">
        <ele>869</ele>
        <time>2021-08-10T09:55:41.761Z</time>
      </trkpt>
      <trkpt lat="46.95557" lon="8.58326">
        <ele>868</ele>
        <time>2021-08-10T09:55:42.761Z</time>
      </trkpt>
      <trkpt lat="46.95555" lon="8.58325">
        <ele>868</ele>
        <time>2021-08-10T09:55:43.762Z</time>
      </trkpt>
      <trkpt lat="46.95555" lon="8.58325">
        <ele>868</ele>
        <time>2021-08-10T09:55:44.761Z</time>
      </trkpt>
      <trkpt lat="46.95553" lon="8.58324">
        <ele>867</ele>
        <time>2021-08-10T09:55:45.761Z</time>
      </trkpt>
      <trkpt lat="46.95552" lon="8.58324">
        <ele>868</ele>
        <time>2021-08-10T09:55:46.761Z</time>
      </trkpt>
      <trkpt lat="46.95551" lon="8.58323">
        <ele>868</ele>
        <time>2021-08-10T09:55:47.762Z</time>
      </trkpt>
      <trkpt lat="46.9555" lon="8.58323">
        <ele>868</ele>
        <time>2021-08-10T09:55:48.761Z</time>
      </trkpt>
      <trkpt lat="46.95549" lon="8.58323">
        <ele>869</ele>
        <time>2021-08-10T09:55:49.762Z</time>
      </trkpt>
      <trkpt lat="46.95546" lon="8.58322">
        <ele>869</ele>
        <time>2021-08-10T09:55:50.761Z</time>
      </trkpt>
      <trkpt lat="46.95544" lon="8.58322">
        <ele>869</ele>
        <time>2021-08-10T09:55:51.761Z</time>
      </trkpt>
      <trkpt lat="46.95543" lon="8.58322">
        <ele>870</ele>
        <time>2021-08-10T09:55:52.761Z</time>
      </trkpt>
      <trkpt lat="46.95541" lon="8.58321">
        <ele>871</ele>
        <time>2021-08-10T09:55:53.761Z</time>
      </trkpt>
      <trkpt lat="46.9554" lon="8.58321">
        <ele>872</ele>
        <time>2021-08-10T09:55:54.761Z</time>
      </trkpt>
      <trkpt lat="46.95538" lon="8.58322">
        <ele>873</ele>
        <time>2021-08-10T09:55:55.761Z</time>
      </trkpt>
      <trkpt lat="46.95538" lon="8.58322">
        <ele>873</ele>
        <time>2021-08-10T09:55:56.761Z</time>
      </trkpt>
      <trkpt lat="46.95537" lon="8.58323">
        <ele>874</ele>
        <time>2021-08-10T09:55:57.761Z</time>
      </trkpt>
      <trkpt lat="46.95536" lon="8.58324">
        <ele>875</ele>
        <time>2021-08-10T09:55:58.761Z</time>
      </trkpt>
      <trkpt lat="46.95536" lon="8.58324">
        <ele>876</ele>
        <time>2021-08-10T09:55:59.761Z</time>
      </trkpt>
      <trkpt lat="46.95535" lon="8.58325">
        <ele>876</ele>
        <time>2021-08-10T09:56:00.761Z</time>
      </trkpt>
      <trkpt lat="46.95534" lon="8.58326">
        <ele>877</ele>
        <time>2021-08-10T09:56:01.761Z</time>
      </trkpt>
      <trkpt lat="46.95534" lon="8.58327">
        <ele>877</ele>
        <time>2021-08-10T09:56:02.761Z</time>
      </trkpt>
      <trkpt lat="46.95532" lon="8.58328">
        <ele>877</ele>
        <time>2021-08-10T09:56:03.762Z</time>
      </trkpt>
      <trkpt lat="46.95531" lon="8.58329">
        <ele>877</ele>
        <time>2021-08-10T09:56:04.762Z</time>
      </trkpt>
      <trkpt lat="46.9553" lon="8.58329">
        <ele>877</ele>
        <time>2021-08-10T09:56:05.762Z</time>
      </trkpt>
      <trkpt lat="46.95529" lon="8.58329">
        <ele>877</ele>
        <time>2021-08-10T09:56:06.762Z</time>
      </trkpt>
      <trkpt lat="46.95528" lon="8.58328">
        <ele>877</ele>
        <time>2021-08-10T09:56:07.762Z</time>
      </trkpt>
      <trkpt lat="46.95527" lon="8.58328">
        <ele>876</ele>
        <time>2021-08-10T09:56:08.761Z</time>
      </trkpt>
      <trkpt lat="46.95525" lon="8.58327">
        <ele>876</ele>
        <time>2021-08-10T09:56:09.761Z</time>
      </trkpt>
      <trkpt lat="46.95524" lon="8.58327">
        <ele>876</ele>
        <time>2021-08-10T09:56:10.761Z</time>
      </trkpt>
      <trkpt lat="46.95523" lon="8.58327">
        <ele>875</ele>
        <time>2021-08-10T09:56:11.762Z</time>
      </trkpt>
      <trkpt lat="46.95523" lon="8.58327">
        <ele>875</ele>
        <time>2021-08-10T09:56:12.762Z</time>
      </trkpt>
      <trkpt lat="46.95522" lon="8.58328">
        <ele>875</ele>
        <time>2021-08-10T09:56:13.762Z</time>
      </trkpt>
      <trkpt lat="46.95521" lon="8.58328">
        <ele>875</ele>
        <time>2021-08-10T09:56:14.762Z</time>
      </trkpt>
      <trkpt lat="46.95521" lon="8.58329">
        <ele>875</ele>
        <time>2021-08-10T09:56:15.761Z</time>
      </trkpt>
      <trkpt lat="46.9552" lon="8.58329">
        <ele>874</ele>
        <time>2021-08-10T09:56:16.762Z</time>
      </trkpt>
      <trkpt lat="46.9552" lon="8.5833">
        <ele>874</ele>
        <time>2021-08-10T09:56:17.762Z</time>
      </trkpt>
      <trkpt lat="46.95519" lon="8.5833">
        <ele>874</ele>
        <time>2021-08-10T09:56:18.762Z</time>
      </trkpt>
      <trkpt lat="46.95518" lon="8.5833">
        <ele>874</ele>
        <time>2021-08-10T09:56:19.761Z</time>
      </trkpt>
      <trkpt lat="46.95518" lon="8.5833">
        <ele>874</ele>
        <time>2021-08-10T09:56:20.762Z</time>
      </trkpt>
      <trkpt lat="46.95517" lon="8.5833">
        <ele>873</ele>
        <time>2021-08-10T09:56:21.762Z</time>
      </trkpt>
      <trkpt lat="46.95516" lon="8.5833">
        <ele>873</ele>
        <time>2021-08-10T09:56:22.762Z</time>
      </trkpt>
      <trkpt lat="46.95515" lon="8.5833">
        <ele>872</ele>
        <time>2021-08-10T09:56:23.762Z</time>
      </trkpt>
      <trkpt lat="46.95514" lon="8.5833">
        <ele>872</ele>
        <time>2021-08-10T09:56:24.761Z</time>
      </trkpt>
      <trkpt lat="46.95512" lon="8.58329">
        <ele>871</ele>
        <time>2021-08-10T09:56:25.761Z</time>
      </trkpt>
      <trkpt lat="46.95511" lon="8.58329">
        <ele>870</ele>
        <time>2021-08-10T09:56:26.762Z</time>
      </trkpt>
      <trkpt lat="46.9551" lon="8.58329">
        <ele>870</ele>
        <time>2021-08-10T09:56:27.761Z</time>
      </trkpt>
      <trkpt lat="46.95509" lon="8.58328">
        <ele>869</ele>
        <time>2021-08-10T09:56:28.762Z</time>
      </trkpt>
      <trkpt lat="46.95508" lon="8.58329">
        <ele>869</ele>
        <time>2021-08-10T09:56:29.761Z</time>
      </trkpt>
      <trkpt lat="46.95506" lon="8.58329">
        <ele>869</ele>
        <time>2021-08-10T09:56:30.761Z</time>
      </trkpt>
      <trkpt lat="46.95506" lon="8.58329">
        <ele>869</ele>
        <time>2021-08-10T09:56:31.761Z</time>
      </trkpt>
      <trkpt lat="46.95505" lon="8.5833">
        <ele>869</ele>
        <time>2021-08-10T09:56:32.761Z</time>
      </trkpt>
      <trkpt lat="46.95504" lon="8.5833">
        <ele>869</ele>
        <time>2021-08-10T09:56:33.761Z</time>
      </trkpt>
      <trkpt lat="46.95503" lon="8.58331">
        <ele>868</ele>
        <time>2021-08-10T09:56:34.761Z</time>
      </trkpt>
      <trkpt lat="46.95502" lon="8.58331">
        <ele>868</ele>
        <time>2021-08-10T09:56:35.761Z</time>
      </trkpt>
      <trkpt lat="46.95502" lon="8.58332">
        <ele>868</ele>
        <time>2021-08-10T09:56:36.762Z</time>
      </trkpt>
      <trkpt lat="46.95502" lon="8.58331">
        <ele>868</ele>
        <time>2021-08-10T09:56:37.762Z</time>
      </trkpt>
      <trkpt lat="46.95502" lon="8.58331">
        <ele>867</ele>
        <time>2021-08-10T09:56:38.762Z</time>
      </trkpt>
      <trkpt lat="46.95502" lon="8.58331">
        <ele>867</ele>
        <time>2021-08-10T09:56:39.762Z</time>
      </trkpt>
      <trkpt lat="46.95502" lon="8.58331">
        <ele>867</ele>
        <time>2021-08-10T09:56:40.762Z</time>
      </trkpt>
      <trkpt lat="46.95501" lon="8.58332">
        <ele>866</ele>
        <time>2021-08-10T09:56:41.762Z</time>
      </trkpt>
      <trkpt lat="46.95501" lon="8.58332">
        <ele>866</ele>
        <time>2021-08-10T09:56:42.762Z</time>
      </trkpt>
      <trkpt lat="46.955" lon="8.58332">
        <ele>866</ele>
        <time>2021-08-10T09:56:43.761Z</time>
      </trkpt>
      <trkpt lat="46.95499" lon="8.58333">
        <ele>866</ele>
        <time>2021-08-10T09:56:44.762Z</time>
      </trkpt>
      <trkpt lat="46.95499" lon="8.58333">
        <ele>866</ele>
        <time>2021-08-10T09:56:45.762Z</time>
      </trkpt>
      <trkpt lat="46.95498" lon="8.58333">
        <ele>866</ele>
        <time>2021-08-10T09:56:46.762Z</time>
      </trkpt>
      <trkpt lat="46.95497" lon="8.58334">
        <ele>866</ele>
        <time>2021-08-10T09:56:47.762Z</time>
      </trkpt>
      <trkpt lat="46.95496" lon="8.58334">
        <ele>866</ele>
        <time>2021-08-10T09:56:48.762Z</time>
      </trkpt>
      <trkpt lat="46.95495" lon="8.58334">
        <ele>866</ele>
        <time>2021-08-10T09:56:49.762Z</time>
      </trkpt>
      <trkpt lat="46.95495" lon="8.58334">
        <ele>866</ele>
        <time>2021-08-10T09:56:50.762Z</time>
      </trkpt>
      <trkpt lat="46.95494" lon="8.58335">
        <ele>866</ele>
        <time>2021-08-10T09:56:51.761Z</time>
      </trkpt>
      <trkpt lat="46.95492" lon="8.58335">
        <ele>867</ele>
        <time>2021-08-10T09:56:52.763Z</time>
      </trkpt>
      <trkpt lat="46.95491" lon="8.58335">
        <ele>867</ele>
        <time>2021-08-10T09:56:53.763Z</time>
      </trkpt>
      <trkpt lat="46.95491" lon="8.58335">
        <ele>867</ele>
        <time>2021-08-10T09:56:54.763Z</time>
      </trkpt>
      <trkpt lat="46.9549" lon="8.58334">
        <ele>867</ele>
        <time>2021-08-10T09:56:55.762Z</time>
      </trkpt>
      <trkpt lat="46.95488" lon="8.58333">
        <ele>868</ele>
        <time>2021-08-10T09:56:56.762Z</time>
      </trkpt>
      <trkpt lat="46.95487" lon="8.58333">
        <ele>868</ele>
        <time>2021-08-10T09:56:57.762Z</time>
      </trkpt>
      <trkpt lat="46.95486" lon="8.58332">
        <ele>868</ele>
        <time>2021-08-10T09:56:58.763Z</time>
      </trkpt>
      <trkpt lat="46.95486" lon="8.58331">
        <ele>868</ele>
        <time>2021-08-10T09:56:59.763Z</time>
      </trkpt>
      <trkpt lat="46.95482" lon="8.58332">
        <ele>870</ele>
        <time>2021-08-10T09:57:00.763Z</time>
      </trkpt>
      <trkpt lat="46.95483" lon="8.58331">
        <ele>868</ele>
        <time>2021-08-10T09:57:01.763Z</time>
      </trkpt>
      <trkpt lat="46.95483" lon="8.58331">
        <ele>867</ele>
        <time>2021-08-10T09:57:02.763Z</time>
      </trkpt>
      <trkpt lat="46.95483" lon="8.58332">
        <ele>863</ele>
        <time>2021-08-10T09:57:03.765Z</time>
      </trkpt>
      <trkpt lat="46.95484" lon="8.58332">
        <ele>863</ele>
        <time>2021-08-10T09:57:04.765Z</time>
      </trkpt>
      <trkpt lat="46.95484" lon="8.58332">
        <ele>863</ele>
        <time>2021-08-10T09:57:05.765Z</time>
      </trkpt>
      <trkpt lat="46.95484" lon="8.58332">
        <ele>863</ele>
        <time>2021-08-10T09:57:06.764Z</time>
      </trkpt>
      <trkpt lat="46.95485" lon="8.58333">
        <ele>864</ele>
        <time>2021-08-10T09:57:07.764Z</time>
      </trkpt>
      <trkpt lat="46.95485" lon="8.58333">
        <ele>864</ele>
        <time>2021-08-10T09:57:08.765Z</time>
      </trkpt>
      <trkpt lat="46.95486" lon="8.58334">
        <ele>864</ele>
        <time>2021-08-10T09:57:09.765Z</time>
      </trkpt>
      <trkpt lat="46.95486" lon="8.58335">
        <ele>870</ele>
        <time>2021-08-10T09:57:10.765Z</time>
      </trkpt>
      <trkpt lat="46.95486" lon="8.58335">
        <ele>871</ele>
        <time>2021-08-10T09:57:11.764Z</time>
      </trkpt>
      <trkpt lat="46.95482" lon="8.58342">
        <ele>873</ele>
        <time>2021-08-10T09:57:12.766Z</time>
      </trkpt>
      <trkpt lat="46.95482" lon="8.58343">
        <ele>873</ele>
        <time>2021-08-10T09:57:13.766Z</time>
      </trkpt>
      <trkpt lat="46.95482" lon="8.58343">
        <ele>874</ele>
        <time>2021-08-10T09:57:14.766Z</time>
      </trkpt>
      <trkpt lat="46.95483" lon="8.58342">
        <ele>874</ele>
        <time>2021-08-10T09:57:15.765Z</time>
      </trkpt>
      <trkpt lat="46.95482" lon="8.58341">
        <ele>874</ele>
        <time>2021-08-10T09:57:16.766Z</time>
      </trkpt>
      <trkpt lat="46.95483" lon="8.58342">
        <ele>874</ele>
        <time>2021-08-10T09:57:17.765Z</time>
      </trkpt>
      <trkpt lat="46.95483" lon="8.58341">
        <ele>874</ele>
        <time>2021-08-10T09:57:18.766Z</time>
      </trkpt>
      <trkpt lat="46.95484" lon="8.58341">
        <ele>874</ele>
        <time>2021-08-10T09:57:19.766Z</time>
      </trkpt>
      <trkpt lat="46.95484" lon="8.58341">
        <ele>873</ele>
        <time>2021-08-10T09:57:20.766Z</time>
      </trkpt>
      <trkpt lat="46.95482" lon="8.58341">
        <ele>871</ele>
        <time>2021-08-10T09:57:21.767Z</time>
      </trkpt>
      <trkpt lat="46.95481" lon="8.58341">
        <ele>871</ele>
        <time>2021-08-10T09:57:22.766Z</time>
      </trkpt>
      <trkpt lat="46.9548" lon="8.5834">
        <ele>871</ele>
        <time>2021-08-10T09:57:23.766Z</time>
      </trkpt>
      <trkpt lat="46.95479" lon="8.5834">
        <ele>871</ele>
        <time>2021-08-10T09:57:24.767Z</time>
      </trkpt>
      <trkpt lat="46.95478" lon="8.5834">
        <ele>871</ele>
        <time>2021-08-10T09:57:25.766Z</time>
      </trkpt>
      <trkpt lat="46.95477" lon="8.58341">
        <ele>870</ele>
        <time>2021-08-10T09:57:26.767Z</time>
      </trkpt>
      <trkpt lat="46.95477" lon="8.58341">
        <ele>869</ele>
        <time>2021-08-10T09:57:27.766Z</time>
      </trkpt>
      <trkpt lat="46.95476" lon="8.58342">
        <ele>869</ele>
        <time>2021-08-10T09:57:28.767Z</time>
      </trkpt>
      <trkpt lat="46.95475" lon="8.58342">
        <ele>868</ele>
        <time>2021-08-10T09:57:29.767Z</time>
      </trkpt>
      <trkpt lat="46.95475" lon="8.58343">
        <ele>868</ele>
        <time>2021-08-10T09:57:30.767Z</time>
      </trkpt>
      <trkpt lat="46.95474" lon="8.58342">
        <ele>868</ele>
        <time>2021-08-10T09:57:31.767Z</time>
      </trkpt>
      <trkpt lat="46.95473" lon="8.58342">
        <ele>868</ele>
        <time>2021-08-10T09:57:32.767Z</time>
      </trkpt>
      <trkpt lat="46.95472" lon="8.58342">
        <ele>868</ele>
        <time>2021-08-10T09:57:33.767Z</time>
      </trkpt>
      <trkpt lat="46.95471" lon="8.58342">
        <ele>868</ele>
        <time>2021-08-10T09:57:34.766Z</time>
      </trkpt>
      <trkpt lat="46.9547" lon="8.58342">
        <ele>867</ele>
        <time>2021-08-10T09:57:35.767Z</time>
      </trkpt>
      <trkpt lat="46.95469" lon="8.58342">
        <ele>867</ele>
        <time>2021-08-10T09:57:36.767Z</time>
      </trkpt>
      <trkpt lat="46.95469" lon="8.58342">
        <ele>866</ele>
        <time>2021-08-10T09:57:37.766Z</time>
      </trkpt>
      <trkpt lat="46.95468" lon="8.58342">
        <ele>866</ele>
        <time>2021-08-10T09:57:38.766Z</time>
      </trkpt>
      <trkpt lat="46.95468" lon="8.58341">
        <ele>866</ele>
        <time>2021-08-10T09:57:39.767Z</time>
      </trkpt>
      <trkpt lat="46.95467" lon="8.5834">
        <ele>866</ele>
        <time>2021-08-10T09:57:40.767Z</time>
      </trkpt>
      <trkpt lat="46.95466" lon="8.58338">
        <ele>866</ele>
        <time>2021-08-10T09:57:41.767Z</time>
      </trkpt>
      <trkpt lat="46.95466" lon="8.58336">
        <ele>866</ele>
        <time>2021-08-10T09:57:42.767Z</time>
      </trkpt>
      <trkpt lat="46.95465" lon="8.58335">
        <ele>866</ele>
        <time>2021-08-10T09:57:43.766Z</time>
      </trkpt>
      <trkpt lat="46.95464" lon="8.58334">
        <ele>866</ele>
        <time>2021-08-10T09:57:44.767Z</time>
      </trkpt>
      <trkpt lat="46.95463" lon="8.58334">
        <ele>867</ele>
        <time>2021-08-10T09:57:45.767Z</time>
      </trkpt>
      <trkpt lat="46.95463" lon="8.58334">
        <ele>867</ele>
        <time>2021-08-10T09:57:46.767Z</time>
      </trkpt>
      <trkpt lat="46.95462" lon="8.58334">
        <ele>867</ele>
        <time>2021-08-10T09:57:47.767Z</time>
      </trkpt>
      <trkpt lat="46.95462" lon="8.58334">
        <ele>867</ele>
        <time>2021-08-10T09:57:48.767Z</time>
      </trkpt>
      <trkpt lat="46.95461" lon="8.58334">
        <ele>868</ele>
        <time>2021-08-10T09:57:49.767Z</time>
      </trkpt>
      <trkpt lat="46.95461" lon="8.58334">
        <ele>868</ele>
        <time>2021-08-10T09:57:50.766Z</time>
      </trkpt>
      <trkpt lat="46.95461" lon="8.58334">
        <ele>868</ele>
        <time>2021-08-10T09:57:51.766Z</time>
      </trkpt>
      <trkpt lat="46.95459" lon="8.58333">
        <ele>867</ele>
        <time>2021-08-10T09:57:52.767Z</time>
      </trkpt>
      <trkpt lat="46.95458" lon="8.58333">
        <ele>867</ele>
        <time>2021-08-10T09:57:53.767Z</time>
      </trkpt>
      <trkpt lat="46.95457" lon="8.58333">
        <ele>867</ele>
        <time>2021-08-10T09:57:54.767Z</time>
      </trkpt>
      <trkpt lat="46.95456" lon="8.58334">
        <ele>867</ele>
        <time>2021-08-10T09:57:55.766Z</time>
      </trkpt>
      <trkpt lat="46.95456" lon="8.58334">
        <ele>866</ele>
        <time>2021-08-10T09:57:56.767Z</time>
      </trkpt>
      <trkpt lat="46.95455" lon="8.58335">
        <ele>866</ele>
        <time>2021-08-10T09:57:57.767Z</time>
      </trkpt>
      <trkpt lat="46.95455" lon="8.58335">
        <ele>866</ele>
        <time>2021-08-10T09:57:58.766Z</time>
      </trkpt>
      <trkpt lat="46.95455" lon="8.58335">
        <ele>866</ele>
        <time>2021-08-10T09:57:59.767Z</time>
      </trkpt>
      <trkpt lat="46.95454" lon="8.58336">
        <ele>865</ele>
        <time>2021-08-10T09:58:00.766Z</time>
      </trkpt>
      <trkpt lat="46.95454" lon="8.58336">
        <ele>865</ele>
        <time>2021-08-10T09:58:01.766Z</time>
      </trkpt>
      <trkpt lat="46.95453" lon="8.58336">
        <ele>865</ele>
        <time>2021-08-10T09:58:02.766Z</time>
      </trkpt>
      <trkpt lat="46.95452" lon="8.58336">
        <ele>864</ele>
        <time>2021-08-10T09:58:03.766Z</time>
      </trkpt>
      <trkpt lat="46.95452" lon="8.58337">
        <ele>864</ele>
        <time>2021-08-10T09:58:04.767Z</time>
      </trkpt>
      <trkpt lat="46.9545" lon="8.58336">
        <ele>864</ele>
        <time>2021-08-10T09:58:05.767Z</time>
      </trkpt>
      <trkpt lat="46.95449" lon="8.58336">
        <ele>863</ele>
        <time>2021-08-10T09:58:06.767Z</time>
      </trkpt>
      <trkpt lat="46.95447" lon="8.58336">
        <ele>863</ele>
        <time>2021-08-10T09:58:07.767Z</time>
      </trkpt>
      <trkpt lat="46.95445" lon="8.58336">
        <ele>863</ele>
        <time>2021-08-10T09:58:08.766Z</time>
      </trkpt>
      <trkpt lat="46.95443" lon="8.58335">
        <ele>863</ele>
        <time>2021-08-10T09:58:09.767Z</time>
      </trkpt>
      <trkpt lat="46.95441" lon="8.58334">
        <ele>863</ele>
        <time>2021-08-10T09:58:10.767Z</time>
      </trkpt>
      <trkpt lat="46.9544" lon="8.58334">
        <ele>863</ele>
        <time>2021-08-10T09:58:11.766Z</time>
      </trkpt>
      <trkpt lat="46.95439" lon="8.58334">
        <ele>863</ele>
        <time>2021-08-10T09:58:12.767Z</time>
      </trkpt>
      <trkpt lat="46.95438" lon="8.58334">
        <ele>863</ele>
        <time>2021-08-10T09:58:13.767Z</time>
      </trkpt>
      <trkpt lat="46.95438" lon="8.58334">
        <ele>862</ele>
        <time>2021-08-10T09:58:14.767Z</time>
      </trkpt>
      <trkpt lat="46.95438" lon="8.58334">
        <ele>862</ele>
        <time>2021-08-10T09:58:15.767Z</time>
      </trkpt>
      <trkpt lat="46.95437" lon="8.58333">
        <ele>862</ele>
        <time>2021-08-10T09:58:16.767Z</time>
      </trkpt>
      <trkpt lat="46.95437" lon="8.58333">
        <ele>861</ele>
        <time>2021-08-10T09:58:17.767Z</time>
      </trkpt>
      <trkpt lat="46.95436" lon="8.58333">
        <ele>861</ele>
        <time>2021-08-10T09:58:18.767Z</time>
      </trkpt>
      <trkpt lat="46.95435" lon="8.58332">
        <ele>861</ele>
        <time>2021-08-10T09:58:19.767Z</time>
      </trkpt>
      <trkpt lat="46.95434" lon="8.58332">
        <ele>860</ele>
        <time>2021-08-10T09:58:20.767Z</time>
      </trkpt>
      <trkpt lat="46.95434" lon="8.58331">
        <ele>860</ele>
        <time>2021-08-10T09:58:21.767Z</time>
      </trkpt>
      <trkpt lat="46.95433" lon="8.58331">
        <ele>860</ele>
        <time>2021-08-10T09:58:22.767Z</time>
      </trkpt>
      <trkpt lat="46.95432" lon="8.5833">
        <ele>860</ele>
        <time>2021-08-10T09:58:23.766Z</time>
      </trkpt>
      <trkpt lat="46.95431" lon="8.58329">
        <ele>860</ele>
        <time>2021-08-10T09:58:24.766Z</time>
      </trkpt>
      <trkpt lat="46.95431" lon="8.58329">
        <ele>860</ele>
        <time>2021-08-10T09:58:25.767Z</time>
      </trkpt>
      <trkpt lat="46.95431" lon="8.58329">
        <ele>860</ele>
        <time>2021-08-10T09:58:26.767Z</time>
      </trkpt>
      <trkpt lat="46.95431" lon="8.58329">
        <ele>860</ele>
        <time>2021-08-10T09:58:27.767Z</time>
      </trkpt>
      <trkpt lat="46.9543" lon="8.58327">
        <ele>859</ele>
        <time>2021-08-10T09:58:28.769Z</time>
      </trkpt>
      <trkpt lat="46.9543" lon="8.58326">
        <ele>859</ele>
        <time>2021-08-10T09:58:29.768Z</time>
      </trkpt>
      <trkpt lat="46.9543" lon="8.58325">
        <ele>858</ele>
        <time>2021-08-10T09:58:30.769Z</time>
      </trkpt>
      <trkpt lat="46.9543" lon="8.58324">
        <ele>858</ele>
        <time>2021-08-10T09:58:31.769Z</time>
      </trkpt>
      <trkpt lat="46.95429" lon="8.58323">
        <ele>858</ele>
        <time>2021-08-10T09:58:32.768Z</time>
      </trkpt>
      <trkpt lat="46.95428" lon="8.58322">
        <ele>858</ele>
        <time>2021-08-10T09:58:33.768Z</time>
      </trkpt>
      <trkpt lat="46.95428" lon="8.58321">
        <ele>858</ele>
        <time>2021-08-10T09:58:34.768Z</time>
      </trkpt>
      <trkpt lat="46.95427" lon="8.5832">
        <ele>858</ele>
        <time>2021-08-10T09:58:35.768Z</time>
      </trkpt>
      <trkpt lat="46.95427" lon="8.58319">
        <ele>858</ele>
        <time>2021-08-10T09:58:36.769Z</time>
      </trkpt>
      <trkpt lat="46.95427" lon="8.58318">
        <ele>858</ele>
        <time>2021-08-10T09:58:37.769Z</time>
      </trkpt>
      <trkpt lat="46.95427" lon="8.58317">
        <ele>858</ele>
        <time>2021-08-10T09:58:38.768Z</time>
      </trkpt>
      <trkpt lat="46.95426" lon="8.58315">
        <ele>858</ele>
        <time>2021-08-10T09:58:39.769Z</time>
      </trkpt>
      <trkpt lat="46.95425" lon="8.58314">
        <ele>859</ele>
        <time>2021-08-10T09:58:40.769Z</time>
      </trkpt>
      <trkpt lat="46.95424" lon="8.58313">
        <ele>859</ele>
        <time>2021-08-10T09:58:41.769Z</time>
      </trkpt>
      <trkpt lat="46.95423" lon="8.58311">
        <ele>860</ele>
        <time>2021-08-10T09:58:42.769Z</time>
      </trkpt>
      <trkpt lat="46.95423" lon="8.5831">
        <ele>860</ele>
        <time>2021-08-10T09:58:43.768Z</time>
      </trkpt>
      <trkpt lat="46.95423" lon="8.58308">
        <ele>861</ele>
        <time>2021-08-10T09:58:44.768Z</time>
      </trkpt>
      <trkpt lat="46.95424" lon="8.58308">
        <ele>861</ele>
        <time>2021-08-10T09:58:45.768Z</time>
      </trkpt>
      <trkpt lat="46.95424" lon="8.58307">
        <ele>861</ele>
        <time>2021-08-10T09:58:46.769Z</time>
      </trkpt>
      <trkpt lat="46.95424" lon="8.58303">
        <ele>855</ele>
        <time>2021-08-10T09:58:47.769Z</time>
      </trkpt>
      <trkpt lat="46.95424" lon="8.58303">
        <ele>855</ele>
        <time>2021-08-10T09:58:48.770Z</time>
      </trkpt>
      <trkpt lat="46.95423" lon="8.58302">
        <ele>855</ele>
        <time>2021-08-10T09:58:49.769Z</time>
      </trkpt>
      <trkpt lat="46.95423" lon="8.58301">
        <ele>855</ele>
        <time>2021-08-10T09:58:50.770Z</time>
      </trkpt>
      <trkpt lat="46.95423" lon="8.58301">
        <ele>855</ele>
        <time>2021-08-10T09:58:51.769Z</time>
      </trkpt>
      <trkpt lat="46.95423" lon="8.58301">
        <ele>855</ele>
        <time>2021-08-10T09:58:52.770Z</time>
      </trkpt>
      <trkpt lat="46.95423" lon="8.583">
        <ele>855</ele>
        <time>2021-08-10T09:58:53.770Z</time>
      </trkpt>
      <trkpt lat="46.95423" lon="8.58299">
        <ele>854</ele>
        <time>2021-08-10T09:58:54.769Z</time>
      </trkpt>
      <trkpt lat="46.95423" lon="8.58298">
        <ele>854</ele>
        <time>2021-08-10T09:58:55.770Z</time>
      </trkpt>
      <trkpt lat="46.95422" lon="8.58298">
        <ele>854</ele>
        <time>2021-08-10T09:58:56.770Z</time>
      </trkpt>
      <trkpt lat="46.95422" lon="8.58297">
        <ele>854</ele>
        <time>2021-08-10T09:58:57.770Z</time>
      </trkpt>
      <trkpt lat="46.95421" lon="8.58296">
        <ele>853</ele>
        <time>2021-08-10T09:58:58.770Z</time>
      </trkpt>
      <trkpt lat="46.95421" lon="8.58295">
        <ele>853</ele>
        <time>2021-08-10T09:58:59.769Z</time>
      </trkpt>
      <trkpt lat="46.95421" lon="8.58294">
        <ele>853</ele>
        <time>2021-08-10T09:59:00.770Z</time>
      </trkpt>
      <trkpt lat="46.95421" lon="8.58293">
        <ele>853</ele>
        <time>2021-08-10T09:59:01.770Z</time>
      </trkpt>
      <trkpt lat="46.9542" lon="8.58292">
        <ele>854</ele>
        <time>2021-08-10T09:59:02.770Z</time>
      </trkpt>
      <trkpt lat="46.9542" lon="8.58291">
        <ele>854</ele>
        <time>2021-08-10T09:59:03.770Z</time>
      </trkpt>
      <trkpt lat="46.9542" lon="8.58291">
        <ele>854</ele>
        <time>2021-08-10T09:59:04.770Z</time>
      </trkpt>
      <trkpt lat="46.9542" lon="8.5829">
        <ele>853</ele>
        <time>2021-08-10T09:59:05.769Z</time>
      </trkpt>
      <trkpt lat="46.9542" lon="8.58289">
        <ele>853</ele>
        <time>2021-08-10T09:59:06.770Z</time>
      </trkpt>
      <trkpt lat="46.9542" lon="8.58287">
        <ele>853</ele>
        <time>2021-08-10T09:59:07.770Z</time>
      </trkpt>
      <trkpt lat="46.9542" lon="8.58286">
        <ele>853</ele>
        <time>2021-08-10T09:59:08.770Z</time>
      </trkpt>
      <trkpt lat="46.95419" lon="8.58284">
        <ele>853</ele>
        <time>2021-08-10T09:59:09.769Z</time>
      </trkpt>
      <trkpt lat="46.95419" lon="8.58283">
        <ele>853</ele>
        <time>2021-08-10T09:59:10.770Z</time>
      </trkpt>
      <trkpt lat="46.9542" lon="8.58283">
        <ele>853</ele>
        <time>2021-08-10T09:59:11.770Z</time>
      </trkpt>
      <trkpt lat="46.95419" lon="8.58282">
        <ele>853</ele>
        <time>2021-08-10T09:59:12.770Z</time>
      </trkpt>
      <trkpt lat="46.95419" lon="8.58281">
        <ele>853</ele>
        <time>2021-08-10T09:59:13.770Z</time>
      </trkpt>
      <trkpt lat="46.95418" lon="8.58281">
        <ele>853</ele>
        <time>2021-08-10T09:59:14.769Z</time>
      </trkpt>
      <trkpt lat="46.95418" lon="8.5828">
        <ele>853</ele>
        <time>2021-08-10T09:59:15.770Z</time>
      </trkpt>
      <trkpt lat="46.95418" lon="8.5828">
        <ele>852</ele>
        <time>2021-08-10T09:59:16.770Z</time>
      </trkpt>
      <trkpt lat="46.95417" lon="8.58279">
        <ele>852</ele>
        <time>2021-08-10T09:59:17.770Z</time>
      </trkpt>
      <trkpt lat="46.95416" lon="8.58278">
        <ele>851</ele>
        <time>2021-08-10T09:59:18.770Z</time>
      </trkpt>
      <trkpt lat="46.95415" lon="8.58278">
        <ele>851</ele>
        <time>2021-08-10T09:59:19.770Z</time>
      </trkpt>
      <trkpt lat="46.95414" lon="8.58277">
        <ele>850</ele>
        <time>2021-08-10T09:59:20.770Z</time>
      </trkpt>
      <trkpt lat="46.95414" lon="8.58277">
        <ele>850</ele>
        <time>2021-08-10T09:59:21.770Z</time>
      </trkpt>
      <trkpt lat="46.95413" lon="8.58277">
        <ele>850</ele>
        <time>2021-08-10T09:59:22.770Z</time>
      </trkpt>
      <trkpt lat="46.95413" lon="8.58277">
        <ele>850</ele>
        <time>2021-08-10T09:59:23.769Z</time>
      </trkpt>
      <trkpt lat="46.95412" lon="8.58276">
        <ele>849</ele>
        <time>2021-08-10T09:59:24.770Z</time>
      </trkpt>
      <trkpt lat="46.9541" lon="8.58274">
        <ele>849</ele>
        <time>2021-08-10T09:59:25.770Z</time>
      </trkpt>
      <trkpt lat="46.95409" lon="8.58273">
        <ele>848</ele>
        <time>2021-08-10T09:59:26.770Z</time>
      </trkpt>
      <trkpt lat="46.95409" lon="8.58271">
        <ele>848</ele>
        <time>2021-08-10T09:59:27.770Z</time>
      </trkpt>
      <trkpt lat="46.95408" lon="8.58269">
        <ele>847</ele>
        <time>2021-08-10T09:59:28.770Z</time>
      </trkpt>
      <trkpt lat="46.95408" lon="8.58268">
        <ele>847</ele>
        <time>2021-08-10T09:59:29.769Z</time>
      </trkpt>
      <trkpt lat="46.95408" lon="8.58267">
        <ele>846</ele>
        <time>2021-08-10T09:59:30.770Z</time>
      </trkpt>
      <trkpt lat="46.95408" lon="8.58267">
        <ele>846</ele>
        <time>2021-08-10T09:59:31.770Z</time>
      </trkpt>
      <trkpt lat="46.95408" lon="8.58266">
        <ele>846</ele>
        <time>2021-08-10T09:59:32.770Z</time>
      </trkpt>
      <trkpt lat="46.95408" lon="8.58264">
        <ele>846</ele>
        <time>2021-08-10T09:59:33.769Z</time>
      </trkpt>
      <trkpt lat="46.95407" lon="8.58263">
        <ele>845</ele>
        <time>2021-08-10T09:59:34.769Z</time>
      </trkpt>
      <trkpt lat="46.95407" lon="8.58262">
        <ele>845</ele>
        <time>2021-08-10T09:59:35.769Z</time>
      </trkpt>
      <trkpt lat="46.95407" lon="8.5826">
        <ele>844</ele>
        <time>2021-08-10T09:59:36.769Z</time>
      </trkpt>
      <trkpt lat="46.95407" lon="8.58259">
        <ele>844</ele>
        <time>2021-08-10T09:59:37.769Z</time>
      </trkpt>
      <trkpt lat="46.95407" lon="8.58258">
        <ele>843</ele>
        <time>2021-08-10T09:59:38.770Z</time>
      </trkpt>
      <trkpt lat="46.95407" lon="8.58256">
        <ele>843</ele>
        <time>2021-08-10T09:59:39.770Z</time>
      </trkpt>
      <trkpt lat="46.95406" lon="8.58255">
        <ele>843</ele>
        <time>2021-08-10T09:59:40.769Z</time>
      </trkpt>
      <trkpt lat="46.95406" lon="8.58254">
        <ele>843</ele>
        <time>2021-08-10T09:59:41.770Z</time>
      </trkpt>
      <trkpt lat="46.95405" lon="8.58253">
        <ele>843</ele>
        <time>2021-08-10T09:59:42.770Z</time>
      </trkpt>
      <trkpt lat="46.95404" lon="8.58251">
        <ele>843</ele>
        <time>2021-08-10T09:59:43.770Z</time>
      </trkpt>
      <trkpt lat="46.95403" lon="8.5825">
        <ele>844</ele>
        <time>2021-08-10T09:59:44.770Z</time>
      </trkpt>
      <trkpt lat="46.95403" lon="8.58249">
        <ele>844</ele>
        <time>2021-08-10T09:59:45.769Z</time>
      </trkpt>
      <trkpt lat="46.95402" lon="8.58248">
        <ele>844</ele>
        <time>2021-08-10T09:59:46.769Z</time>
      </trkpt>
      <trkpt lat="46.95402" lon="8.58246">
        <ele>844</ele>
        <time>2021-08-10T09:59:47.770Z</time>
      </trkpt>
      <trkpt lat="46.95402" lon="8.58245">
        <ele>844</ele>
        <time>2021-08-10T09:59:48.769Z</time>
      </trkpt>
      <trkpt lat="46.95402" lon="8.58244">
        <ele>845</ele>
        <time>2021-08-10T09:59:49.770Z</time>
      </trkpt>
      <trkpt lat="46.95401" lon="8.58243">
        <ele>845</ele>
        <time>2021-08-10T09:59:50.770Z</time>
      </trkpt>
      <trkpt lat="46.95401" lon="8.58241">
        <ele>845</ele>
        <time>2021-08-10T09:59:51.770Z</time>
      </trkpt>
      <trkpt lat="46.95401" lon="8.5824">
        <ele>846</ele>
        <time>2021-08-10T09:59:52.770Z</time>
      </trkpt>
      <trkpt lat="46.954" lon="8.58238">
        <ele>846</ele>
        <time>2021-08-10T09:59:53.769Z</time>
      </trkpt>
      <trkpt lat="46.95399" lon="8.58237">
        <ele>846</ele>
        <time>2021-08-10T09:59:54.770Z</time>
      </trkpt>
      <trkpt lat="46.95398" lon="8.58235">
        <ele>847</ele>
        <time>2021-08-10T09:59:55.770Z</time>
      </trkpt>
      <trkpt lat="46.95397" lon="8.58234">
        <ele>847</ele>
        <time>2021-08-10T09:59:56.769Z</time>
      </trkpt>
      <trkpt lat="46.95396" lon="8.58232">
        <ele>847</ele>
        <time>2021-08-10T09:59:57.770Z</time>
      </trkpt>
      <trkpt lat="46.95395" lon="8.58231">
        <ele>847</ele>
        <time>2021-08-10T09:59:58.770Z</time>
      </trkpt>
      <trkpt lat="46.95394" lon="8.5823">
        <ele>847</ele>
        <time>2021-08-10T09:59:59.770Z</time>
      </trkpt>
      <trkpt lat="46.95394" lon="8.58229">
        <ele>847</ele>
        <time>2021-08-10T10:00:00.770Z</time>
      </trkpt>
      <trkpt lat="46.95393" lon="8.58229">
        <ele>848</ele>
        <time>2021-08-10T10:00:01.769Z</time>
      </trkpt>
      <trkpt lat="46.95392" lon="8.58228">
        <ele>848</ele>
        <time>2021-08-10T10:00:02.769Z</time>
      </trkpt>
      <trkpt lat="46.95392" lon="8.58227">
        <ele>848</ele>
        <time>2021-08-10T10:00:03.769Z</time>
      </trkpt>
      <trkpt lat="46.95391" lon="8.58226">
        <ele>848</ele>
        <time>2021-08-10T10:00:04.769Z</time>
      </trkpt>
      <trkpt lat="46.9539" lon="8.58225">
        <ele>848</ele>
        <time>2021-08-10T10:00:05.770Z</time>
      </trkpt>
      <trkpt lat="46.95389" lon="8.58223">
        <ele>848</ele>
        <time>2021-08-10T10:00:06.770Z</time>
      </trkpt>
      <trkpt lat="46.95388" lon="8.58221">
        <ele>847</ele>
        <time>2021-08-10T10:00:07.769Z</time>
      </trkpt>
      <trkpt lat="46.95387" lon="8.58219">
        <ele>847</ele>
        <time>2021-08-10T10:00:08.770Z</time>
      </trkpt>
      <trkpt lat="46.95386" lon="8.58219">
        <ele>847</ele>
        <time>2021-08-10T10:00:09.769Z</time>
      </trkpt>
      <trkpt lat="46.95386" lon="8.58218">
        <ele>847</ele>
        <time>2021-08-10T10:00:10.770Z</time>
      </trkpt>
      <trkpt lat="46.95385" lon="8.58217">
        <ele>847</ele>
        <time>2021-08-10T10:00:11.770Z</time>
      </trkpt>
      <trkpt lat="46.95384" lon="8.58215">
        <ele>847</ele>
        <time>2021-08-10T10:00:12.770Z</time>
      </trkpt>
      <trkpt lat="46.95382" lon="8.58214">
        <ele>847</ele>
        <time>2021-08-10T10:00:13.770Z</time>
      </trkpt>
      <trkpt lat="46.9538" lon="8.58214">
        <ele>847</ele>
        <time>2021-08-10T10:00:14.769Z</time>
      </trkpt>
      <trkpt lat="46.9538" lon="8.58213">
        <ele>847</ele>
        <time>2021-08-10T10:00:15.770Z</time>
      </trkpt>
      <trkpt lat="46.9538" lon="8.58212">
        <ele>847</ele>
        <time>2021-08-10T10:00:16.770Z</time>
      </trkpt>
      <trkpt lat="46.9538" lon="8.58212">
        <ele>847</ele>
        <time>2021-08-10T10:00:17.770Z</time>
      </trkpt>
      <trkpt lat="46.95379" lon="8.58212">
        <ele>847</ele>
        <time>2021-08-10T10:00:18.770Z</time>
      </trkpt>
      <trkpt lat="46.95379" lon="8.58211">
        <ele>847</ele>
        <time>2021-08-10T10:00:19.770Z</time>
      </trkpt>
      <trkpt lat="46.95378" lon="8.58211">
        <ele>847</ele>
        <time>2021-08-10T10:00:20.769Z</time>
      </trkpt>
      <trkpt lat="46.95378" lon="8.58211">
        <ele>848</ele>
        <time>2021-08-10T10:00:21.770Z</time>
      </trkpt>
      <trkpt lat="46.95378" lon="8.58211">
        <ele>848</ele>
        <time>2021-08-10T10:00:22.769Z</time>
      </trkpt>
      <trkpt lat="46.95377" lon="8.58207">
        <ele>845</ele>
        <time>2021-08-10T10:00:23.772Z</time>
      </trkpt>
      <trkpt lat="46.95375" lon="8.58206">
        <ele>844</ele>
        <time>2021-08-10T10:00:24.772Z</time>
      </trkpt>
      <trkpt lat="46.95374" lon="8.58205">
        <ele>844</ele>
        <time>2021-08-10T10:00:25.771Z</time>
      </trkpt>
      <trkpt lat="46.95373" lon="8.58205">
        <ele>844</ele>
        <time>2021-08-10T10:00:26.772Z</time>
      </trkpt>
      <trkpt lat="46.95372" lon="8.58204">
        <ele>844</ele>
        <time>2021-08-10T10:00:27.771Z</time>
      </trkpt>
      <trkpt lat="46.95371" lon="8.58204">
        <ele>843</ele>
        <time>2021-08-10T10:00:28.772Z</time>
      </trkpt>
      <trkpt lat="46.95371" lon="8.58204">
        <ele>843</ele>
        <time>2021-08-10T10:00:29.771Z</time>
      </trkpt>
      <trkpt lat="46.9537" lon="8.58203">
        <ele>843</ele>
        <time>2021-08-10T10:00:30.772Z</time>
      </trkpt>
      <trkpt lat="46.95369" lon="8.58203">
        <ele>843</ele>
        <time>2021-08-10T10:00:31.772Z</time>
      </trkpt>
      <trkpt lat="46.95367" lon="8.58202">
        <ele>842</ele>
        <time>2021-08-10T10:00:32.771Z</time>
      </trkpt>
      <trkpt lat="46.95367" lon="8.58202">
        <ele>842</ele>
        <time>2021-08-10T10:00:33.772Z</time>
      </trkpt>
      <trkpt lat="46.95366" lon="8.58202">
        <ele>842</ele>
        <time>2021-08-10T10:00:34.772Z</time>
      </trkpt>
      <trkpt lat="46.95365" lon="8.58202">
        <ele>843</ele>
        <time>2021-08-10T10:00:35.772Z</time>
      </trkpt>
      <trkpt lat="46.95363" lon="8.58201">
        <ele>843</ele>
        <time>2021-08-10T10:00:36.772Z</time>
      </trkpt>
      <trkpt lat="46.95362" lon="8.58201">
        <ele>843</ele>
        <time>2021-08-10T10:00:37.771Z</time>
      </trkpt>
      <trkpt lat="46.95361" lon="8.58201">
        <ele>843</ele>
        <time>2021-08-10T10:00:38.771Z</time>
      </trkpt>
      <trkpt lat="46.9536" lon="8.58201">
        <ele>842</ele>
        <time>2021-08-10T10:00:39.772Z</time>
      </trkpt>
      <trkpt lat="46.95359" lon="8.58201">
        <ele>842</ele>
        <time>2021-08-10T10:00:40.772Z</time>
      </trkpt>
      <trkpt lat="46.95357" lon="8.582">
        <ele>841</ele>
        <time>2021-08-10T10:00:41.772Z</time>
      </trkpt>
      <trkpt lat="46.95357" lon="8.58199">
        <ele>841</ele>
        <time>2021-08-10T10:00:42.772Z</time>
      </trkpt>
      <trkpt lat="46.95356" lon="8.58198">
        <ele>840</ele>
        <time>2021-08-10T10:00:43.772Z</time>
      </trkpt>
      <trkpt lat="46.95356" lon="8.58197">
        <ele>840</ele>
        <time>2021-08-10T10:00:44.772Z</time>
      </trkpt>
      <trkpt lat="46.95357" lon="8.582">
        <ele>836</ele>
        <time>2021-08-10T10:00:45.773Z</time>
      </trkpt>
      <trkpt lat="46.95356" lon="8.582">
        <ele>836</ele>
        <time>2021-08-10T10:00:46.773Z</time>
      </trkpt>
      <trkpt lat="46.95356" lon="8.582">
        <ele>835</ele>
        <time>2021-08-10T10:00:47.772Z</time>
      </trkpt>
      <trkpt lat="46.95355" lon="8.582">
        <ele>835</ele>
        <time>2021-08-10T10:00:48.773Z</time>
      </trkpt>
      <trkpt lat="46.95355" lon="8.582">
        <ele>835</ele>
        <time>2021-08-10T10:00:49.773Z</time>
      </trkpt>
      <trkpt lat="46.95354" lon="8.58201">
        <ele>835</ele>
        <time>2021-08-10T10:00:50.773Z</time>
      </trkpt>
      <trkpt lat="46.95353" lon="8.58201">
        <ele>835</ele>
        <time>2021-08-10T10:00:51.773Z</time>
      </trkpt>
      <trkpt lat="46.95352" lon="8.58202">
        <ele>835</ele>
        <time>2021-08-10T10:00:52.773Z</time>
      </trkpt>
      <trkpt lat="46.95351" lon="8.58203">
        <ele>835</ele>
        <time>2021-08-10T10:00:53.773Z</time>
      </trkpt>
      <trkpt lat="46.95351" lon="8.58203">
        <ele>835</ele>
        <time>2021-08-10T10:00:54.773Z</time>
      </trkpt>
      <trkpt lat="46.9535" lon="8.58204">
        <ele>835</ele>
        <time>2021-08-10T10:00:55.772Z</time>
      </trkpt>
      <trkpt lat="46.9535" lon="8.58204">
        <ele>835</ele>
        <time>2021-08-10T10:00:56.773Z</time>
      </trkpt>
      <trkpt lat="46.9535" lon="8.58205">
        <ele>836</ele>
        <time>2021-08-10T10:00:57.773Z</time>
      </trkpt>
      <trkpt lat="46.9535" lon="8.58205">
        <ele>836</ele>
        <time>2021-08-10T10:00:58.772Z</time>
      </trkpt>
      <trkpt lat="46.95349" lon="8.58206">
        <ele>836</ele>
        <time>2021-08-10T10:00:59.773Z</time>
      </trkpt>
      <trkpt lat="46.95349" lon="8.58206">
        <ele>836</ele>
        <time>2021-08-10T10:01:00.773Z</time>
      </trkpt>
      <trkpt lat="46.95348" lon="8.58206">
        <ele>836</ele>
        <time>2021-08-10T10:01:01.772Z</time>
      </trkpt>
      <trkpt lat="46.95348" lon="8.58206">
        <ele>836</ele>
        <time>2021-08-10T10:01:02.773Z</time>
      </trkpt>
      <trkpt lat="46.95344" lon="8.58208">
        <ele>835</ele>
        <time>2021-08-10T10:01:03.773Z</time>
      </trkpt>
      <trkpt lat="46.95343" lon="8.58209">
        <ele>834</ele>
        <time>2021-08-10T10:01:04.772Z</time>
      </trkpt>
      <trkpt lat="46.95342" lon="8.58209">
        <ele>834</ele>
        <time>2021-08-10T10:01:05.772Z</time>
      </trkpt>
      <trkpt lat="46.9534" lon="8.58209">
        <ele>834</ele>
        <time>2021-08-10T10:01:06.772Z</time>
      </trkpt>
      <trkpt lat="46.95339" lon="8.58209">
        <ele>833</ele>
        <time>2021-08-10T10:01:07.773Z</time>
      </trkpt>
      <trkpt lat="46.95338" lon="8.5821">
        <ele>833</ele>
        <time>2021-08-10T10:01:08.772Z</time>
      </trkpt>
      <trkpt lat="46.95337" lon="8.5821">
        <ele>833</ele>
        <time>2021-08-10T10:01:09.772Z</time>
      </trkpt>
      <trkpt lat="46.95336" lon="8.58211">
        <ele>832</ele>
        <time>2021-08-10T10:01:10.773Z</time>
      </trkpt>
      <trkpt lat="46.95336" lon="8.58211">
        <ele>832</ele>
        <time>2021-08-10T10:01:11.772Z</time>
      </trkpt>
      <trkpt lat="46.95336" lon="8.5821">
        <ele>832</ele>
        <time>2021-08-10T10:01:12.772Z</time>
      </trkpt>
      <trkpt lat="46.95335" lon="8.5821">
        <ele>831</ele>
        <time>2021-08-10T10:01:13.772Z</time>
      </trkpt>
      <trkpt lat="46.95334" lon="8.5821">
        <ele>831</ele>
        <time>2021-08-10T10:01:14.773Z</time>
      </trkpt>
      <trkpt lat="46.95333" lon="8.5821">
        <ele>831</ele>
        <time>2021-08-10T10:01:15.773Z</time>
      </trkpt>
      <trkpt lat="46.95331" lon="8.5821">
        <ele>831</ele>
        <time>2021-08-10T10:01:16.772Z</time>
      </trkpt>
      <trkpt lat="46.95329" lon="8.58209">
        <ele>830</ele>
        <time>2021-08-10T10:01:17.772Z</time>
      </trkpt>
      <trkpt lat="46.95327" lon="8.58209">
        <ele>830</ele>
        <time>2021-08-10T10:01:18.773Z</time>
      </trkpt>
      <trkpt lat="46.95326" lon="8.58209">
        <ele>830</ele>
        <time>2021-08-10T10:01:19.773Z</time>
      </trkpt>
      <trkpt lat="46.95325" lon="8.58209">
        <ele>830</ele>
        <time>2021-08-10T10:01:20.773Z</time>
      </trkpt>
      <trkpt lat="46.95323" lon="8.58209">
        <ele>829</ele>
        <time>2021-08-10T10:01:21.772Z</time>
      </trkpt>
      <trkpt lat="46.95321" lon="8.58209">
        <ele>829</ele>
        <time>2021-08-10T10:01:22.773Z</time>
      </trkpt>
      <trkpt lat="46.9532" lon="8.5821">
        <ele>828</ele>
        <time>2021-08-10T10:01:23.773Z</time>
      </trkpt>
      <trkpt lat="46.95319" lon="8.5821">
        <ele>828</ele>
        <time>2021-08-10T10:01:24.773Z</time>
      </trkpt>
      <trkpt lat="46.95318" lon="8.5821">
        <ele>828</ele>
        <time>2021-08-10T10:01:25.772Z</time>
      </trkpt>
      <trkpt lat="46.95317" lon="8.58211">
        <ele>827</ele>
        <time>2021-08-10T10:01:26.773Z</time>
      </trkpt>
      <trkpt lat="46.95317" lon="8.58211">
        <ele>827</ele>
        <time>2021-08-10T10:01:27.773Z</time>
      </trkpt>
      <trkpt lat="46.95316" lon="8.58212">
        <ele>827</ele>
        <time>2021-08-10T10:01:28.772Z</time>
      </trkpt>
      <trkpt lat="46.95316" lon="8.58212">
        <ele>827</ele>
        <time>2021-08-10T10:01:29.772Z</time>
      </trkpt>
      <trkpt lat="46.95315" lon="8.58213">
        <ele>827</ele>
        <time>2021-08-10T10:01:30.772Z</time>
      </trkpt>
      <trkpt lat="46.95315" lon="8.58213">
        <ele>827</ele>
        <time>2021-08-10T10:01:31.772Z</time>
      </trkpt>
      <trkpt lat="46.95314" lon="8.58213">
        <ele>827</ele>
        <time>2021-08-10T10:01:32.772Z</time>
      </trkpt>
      <trkpt lat="46.95313" lon="8.58213">
        <ele>827</ele>
        <time>2021-08-10T10:01:33.772Z</time>
      </trkpt>
      <trkpt lat="46.95312" lon="8.58212">
        <ele>827</ele>
        <time>2021-08-10T10:01:34.772Z</time>
      </trkpt>
      <trkpt lat="46.95311" lon="8.58212">
        <ele>827</ele>
        <time>2021-08-10T10:01:35.773Z</time>
      </trkpt>
      <trkpt lat="46.9531" lon="8.58212">
        <ele>827</ele>
        <time>2021-08-10T10:01:36.772Z</time>
      </trkpt>
      <trkpt lat="46.9531" lon="8.58212">
        <ele>827</ele>
        <time>2021-08-10T10:01:37.772Z</time>
      </trkpt>
      <trkpt lat="46.95309" lon="8.58213">
        <ele>827</ele>
        <time>2021-08-10T10:01:38.773Z</time>
      </trkpt>
      <trkpt lat="46.95309" lon="8.58214">
        <ele>827</ele>
        <time>2021-08-10T10:01:39.773Z</time>
      </trkpt>
      <trkpt lat="46.95308" lon="8.58215">
        <ele>827</ele>
        <time>2021-08-10T10:01:40.772Z</time>
      </trkpt>
      <trkpt lat="46.95308" lon="8.58217">
        <ele>827</ele>
        <time>2021-08-10T10:01:41.772Z</time>
      </trkpt>
      <trkpt lat="46.95307" lon="8.58218">
        <ele>828</ele>
        <time>2021-08-10T10:01:42.773Z</time>
      </trkpt>
      <trkpt lat="46.95306" lon="8.58219">
        <ele>828</ele>
        <time>2021-08-10T10:01:43.773Z</time>
      </trkpt>
      <trkpt lat="46.95305" lon="8.5822">
        <ele>828</ele>
        <time>2021-08-10T10:01:44.773Z</time>
      </trkpt>
      <trkpt lat="46.95304" lon="8.58221">
        <ele>829</ele>
        <time>2021-08-10T10:01:45.773Z</time>
      </trkpt>
      <trkpt lat="46.95303" lon="8.58221">
        <ele>829</ele>
        <time>2021-08-10T10:01:46.772Z</time>
      </trkpt>
      <trkpt lat="46.95302" lon="8.58222">
        <ele>829</ele>
        <time>2021-08-10T10:01:47.773Z</time>
      </trkpt>
      <trkpt lat="46.953" lon="8.58223">
        <ele>828</ele>
        <time>2021-08-10T10:01:48.773Z</time>
      </trkpt>
      <trkpt lat="46.95299" lon="8.58224">
        <ele>828</ele>
        <time>2021-08-10T10:01:49.773Z</time>
      </trkpt>
      <trkpt lat="46.95299" lon="8.58226">
        <ele>828</ele>
        <time>2021-08-10T10:01:50.772Z</time>
      </trkpt>
      <trkpt lat="46.95298" lon="8.58227">
        <ele>828</ele>
        <time>2021-08-10T10:01:51.773Z</time>
      </trkpt>
      <trkpt lat="46.95297" lon="8.58228">
        <ele>827</ele>
        <time>2021-08-10T10:01:52.773Z</time>
      </trkpt>
      <trkpt lat="46.95295" lon="8.58229">
        <ele>827</ele>
        <time>2021-08-10T10:01:53.773Z</time>
      </trkpt>
      <trkpt lat="46.95293" lon="8.58229">
        <ele>827</ele>
        <time>2021-08-10T10:01:54.773Z</time>
      </trkpt>
      <trkpt lat="46.95292" lon="8.5823">
        <ele>827</ele>
        <time>2021-08-10T10:01:55.773Z</time>
      </trkpt>
      <trkpt lat="46.9529" lon="8.5823">
        <ele>827</ele>
        <time>2021-08-10T10:01:56.772Z</time>
      </trkpt>
      <trkpt lat="46.95288" lon="8.58232">
        <ele>827</ele>
        <time>2021-08-10T10:01:57.772Z</time>
      </trkpt>
      <trkpt lat="46.95287" lon="8.58233">
        <ele>827</ele>
        <time>2021-08-10T10:01:58.773Z</time>
      </trkpt>
      <trkpt lat="46.95287" lon="8.58234">
        <ele>827</ele>
        <time>2021-08-10T10:01:59.773Z</time>
      </trkpt>
      <trkpt lat="46.95286" lon="8.58235">
        <ele>827</ele>
        <time>2021-08-10T10:02:00.773Z</time>
      </trkpt>
      <trkpt lat="46.95286" lon="8.58236">
        <ele>826</ele>
        <time>2021-08-10T10:02:01.772Z</time>
      </trkpt>
      <trkpt lat="46.95285" lon="8.58237">
        <ele>826</ele>
        <time>2021-08-10T10:02:02.773Z</time>
      </trkpt>
      <trkpt lat="46.95284" lon="8.58239">
        <ele>826</ele>
        <time>2021-08-10T10:02:03.772Z</time>
      </trkpt>
      <trkpt lat="46.95284" lon="8.5824">
        <ele>826</ele>
        <time>2021-08-10T10:02:04.772Z</time>
      </trkpt>
      <trkpt lat="46.95283" lon="8.58242">
        <ele>826</ele>
        <time>2021-08-10T10:02:05.772Z</time>
      </trkpt>
      <trkpt lat="46.95282" lon="8.58243">
        <ele>825</ele>
        <time>2021-08-10T10:02:06.773Z</time>
      </trkpt>
      <trkpt lat="46.95281" lon="8.58244">
        <ele>825</ele>
        <time>2021-08-10T10:02:07.772Z</time>
      </trkpt>
      <trkpt lat="46.9528" lon="8.58245">
        <ele>825</ele>
        <time>2021-08-10T10:02:08.772Z</time>
      </trkpt>
      <trkpt lat="46.95279" lon="8.58245">
        <ele>824</ele>
        <time>2021-08-10T10:02:09.773Z</time>
      </trkpt>
      <trkpt lat="46.95277" lon="8.58246">
        <ele>824</ele>
        <time>2021-08-10T10:02:10.773Z</time>
      </trkpt>
      <trkpt lat="46.95275" lon="8.58246">
        <ele>824</ele>
        <time>2021-08-10T10:02:11.772Z</time>
      </trkpt>
      <trkpt lat="46.95273" lon="8.58247">
        <ele>824</ele>
        <time>2021-08-10T10:02:12.773Z</time>
      </trkpt>
      <trkpt lat="46.95272" lon="8.58248">
        <ele>823</ele>
        <time>2021-08-10T10:02:13.773Z</time>
      </trkpt>
      <trkpt lat="46.9527" lon="8.5825">
        <ele>823</ele>
        <time>2021-08-10T10:02:14.773Z</time>
      </trkpt>
      <trkpt lat="46.95268" lon="8.58251">
        <ele>822</ele>
        <time>2021-08-10T10:02:15.772Z</time>
      </trkpt>
      <trkpt lat="46.95267" lon="8.58252">
        <ele>822</ele>
        <time>2021-08-10T10:02:16.773Z</time>
      </trkpt>
      <trkpt lat="46.95266" lon="8.58253">
        <ele>821</ele>
        <time>2021-08-10T10:02:17.772Z</time>
      </trkpt>
      <trkpt lat="46.95265" lon="8.58256">
        <ele>821</ele>
        <time>2021-08-10T10:02:18.772Z</time>
      </trkpt>
      <trkpt lat="46.95265" lon="8.58259">
        <ele>821</ele>
        <time>2021-08-10T10:02:19.773Z</time>
      </trkpt>
      <trkpt lat="46.95266" lon="8.58261">
        <ele>821</ele>
        <time>2021-08-10T10:02:20.773Z</time>
      </trkpt>
      <trkpt lat="46.95267" lon="8.58263">
        <ele>821</ele>
        <time>2021-08-10T10:02:21.772Z</time>
      </trkpt>
      <trkpt lat="46.95267" lon="8.58265">
        <ele>821</ele>
        <time>2021-08-10T10:02:22.773Z</time>
      </trkpt>
      <trkpt lat="46.95267" lon="8.58267">
        <ele>822</ele>
        <time>2021-08-10T10:02:23.773Z</time>
      </trkpt>
      <trkpt lat="46.95267" lon="8.58269">
        <ele>822</ele>
        <time>2021-08-10T10:02:24.772Z</time>
      </trkpt>
      <trkpt lat="46.95266" lon="8.58271">
        <ele>822</ele>
        <time>2021-08-10T10:02:25.773Z</time>
      </trkpt>
      <trkpt lat="46.95266" lon="8.58273">
        <ele>822</ele>
        <time>2021-08-10T10:02:26.773Z</time>
      </trkpt>
      <trkpt lat="46.95266" lon="8.58274">
        <ele>822</ele>
        <time>2021-08-10T10:02:27.773Z</time>
      </trkpt>
      <trkpt lat="46.95266" lon="8.58276">
        <ele>821</ele>
        <time>2021-08-10T10:02:28.773Z</time>
      </trkpt>
      <trkpt lat="46.95266" lon="8.58278">
        <ele>821</ele>
        <time>2021-08-10T10:02:29.773Z</time>
      </trkpt>
      <trkpt lat="46.95265" lon="8.58279">
        <ele>821</ele>
        <time>2021-08-10T10:02:30.773Z</time>
      </trkpt>
      <trkpt lat="46.95265" lon="8.58281">
        <ele>821</ele>
        <time>2021-08-10T10:02:31.772Z</time>
      </trkpt>
      <trkpt lat="46.95264" lon="8.58283">
        <ele>820</ele>
        <time>2021-08-10T10:02:32.773Z</time>
      </trkpt>
      <trkpt lat="46.95264" lon="8.58284">
        <ele>820</ele>
        <time>2021-08-10T10:02:33.773Z</time>
      </trkpt>
      <trkpt lat="46.95263" lon="8.58285">
        <ele>821</ele>
        <time>2021-08-10T10:02:34.773Z</time>
      </trkpt>
      <trkpt lat="46.95261" lon="8.58286">
        <ele>820</ele>
        <time>2021-08-10T10:02:35.772Z</time>
      </trkpt>
      <trkpt lat="46.95261" lon="8.58288">
        <ele>820</ele>
        <time>2021-08-10T10:02:36.773Z</time>
      </trkpt>
      <trkpt lat="46.9526" lon="8.58289">
        <ele>820</ele>
        <time>2021-08-10T10:02:37.773Z</time>
      </trkpt>
      <trkpt lat="46.95259" lon="8.5829">
        <ele>820</ele>
        <time>2021-08-10T10:02:38.773Z</time>
      </trkpt>
      <trkpt lat="46.95259" lon="8.58292">
        <ele>820</ele>
        <time>2021-08-10T10:02:39.773Z</time>
      </trkpt>
      <trkpt lat="46.95258" lon="8.58293">
        <ele>820</ele>
        <time>2021-08-10T10:02:40.773Z</time>
      </trkpt>
      <trkpt lat="46.95257" lon="8.58295">
        <ele>819</ele>
        <time>2021-08-10T10:02:41.773Z</time>
      </trkpt>
      <trkpt lat="46.95257" lon="8.58296">
        <ele>819</ele>
        <time>2021-08-10T10:02:42.772Z</time>
      </trkpt>
      <trkpt lat="46.95257" lon="8.58298">
        <ele>818</ele>
        <time>2021-08-10T10:02:43.773Z</time>
      </trkpt>
      <trkpt lat="46.95257" lon="8.583">
        <ele>818</ele>
        <time>2021-08-10T10:02:44.773Z</time>
      </trkpt>
      <trkpt lat="46.95257" lon="8.58302">
        <ele>818</ele>
        <time>2021-08-10T10:02:45.773Z</time>
      </trkpt>
      <trkpt lat="46.95257" lon="8.58304">
        <ele>818</ele>
        <time>2021-08-10T10:02:46.773Z</time>
      </trkpt>
      <trkpt lat="46.95257" lon="8.58306">
        <ele>819</ele>
        <time>2021-08-10T10:02:47.773Z</time>
      </trkpt>
      <trkpt lat="46.95256" lon="8.58307">
        <ele>819</ele>
        <time>2021-08-10T10:02:48.773Z</time>
      </trkpt>
      <trkpt lat="46.95256" lon="8.58308">
        <ele>819</ele>
        <time>2021-08-10T10:02:49.772Z</time>
      </trkpt>
      <trkpt lat="46.95255" lon="8.58309">
        <ele>819</ele>
        <time>2021-08-10T10:02:50.773Z</time>
      </trkpt>
      <trkpt lat="46.95255" lon="8.58311">
        <ele>819</ele>
        <time>2021-08-10T10:02:51.773Z</time>
      </trkpt>
      <trkpt lat="46.95254" lon="8.58312">
        <ele>819</ele>
        <time>2021-08-10T10:02:52.773Z</time>
      </trkpt>
      <trkpt lat="46.95254" lon="8.58312">
        <ele>819</ele>
        <time>2021-08-10T10:02:53.772Z</time>
      </trkpt>
      <trkpt lat="46.95253" lon="8.58314">
        <ele>819</ele>
        <time>2021-08-10T10:02:54.773Z</time>
      </trkpt>
      <trkpt lat="46.95253" lon="8.58315">
        <ele>818</ele>
        <time>2021-08-10T10:02:55.772Z</time>
      </trkpt>
      <trkpt lat="46.95252" lon="8.58315">
        <ele>818</ele>
        <time>2021-08-10T10:02:56.773Z</time>
      </trkpt>
      <trkpt lat="46.95252" lon="8.58316">
        <ele>818</ele>
        <time>2021-08-10T10:02:57.773Z</time>
      </trkpt>
      <trkpt lat="46.95251" lon="8.58316">
        <ele>818</ele>
        <time>2021-08-10T10:02:58.773Z</time>
      </trkpt>
      <trkpt lat="46.9525" lon="8.58317">
        <ele>818</ele>
        <time>2021-08-10T10:02:59.773Z</time>
      </trkpt>
      <trkpt lat="46.9525" lon="8.58317">
        <ele>818</ele>
        <time>2021-08-10T10:03:00.772Z</time>
      </trkpt>
      <trkpt lat="46.9525" lon="8.58317">
        <ele>817</ele>
        <time>2021-08-10T10:03:01.773Z</time>
      </trkpt>
      <trkpt lat="46.9525" lon="8.58317">
        <ele>817</ele>
        <time>2021-08-10T10:03:02.773Z</time>
      </trkpt>
      <trkpt lat="46.9525" lon="8.58317">
        <ele>817</ele>
        <time>2021-08-10T10:03:03.773Z</time>
      </trkpt>
      <trkpt lat="46.9525" lon="8.58317">
        <ele>817</ele>
        <time>2021-08-10T10:03:04.772Z</time>
      </trkpt>
      <trkpt lat="46.9525" lon="8.58317">
        <ele>817</ele>
        <time>2021-08-10T10:03:05.772Z</time>
      </trkpt>
      <trkpt lat="46.95251" lon="8.58317">
        <ele>817</ele>
        <time>2021-08-10T10:03:06.772Z</time>
      </trkpt>
      <trkpt lat="46.95251" lon="8.58316">
        <ele>817</ele>
        <time>2021-08-10T10:03:07.773Z</time>
      </trkpt>
      <trkpt lat="46.9525" lon="8.58315">
        <ele>818</ele>
        <time>2021-08-10T10:03:08.772Z</time>
      </trkpt>
      <trkpt lat="46.9525" lon="8.58314">
        <ele>818</ele>
        <time>2021-08-10T10:03:09.772Z</time>
      </trkpt>
      <trkpt lat="46.9525" lon="8.58312">
        <ele>819</ele>
        <time>2021-08-10T10:03:10.772Z</time>
      </trkpt>
      <trkpt lat="46.95249" lon="8.58311">
        <ele>819</ele>
        <time>2021-08-10T10:03:11.773Z</time>
      </trkpt>
      <trkpt lat="46.95249" lon="8.5831">
        <ele>820</ele>
        <time>2021-08-10T10:03:12.773Z</time>
      </trkpt>
      <trkpt lat="46.95248" lon="8.58309">
        <ele>820</ele>
        <time>2021-08-10T10:03:13.772Z</time>
      </trkpt>
      <trkpt lat="46.95247" lon="8.58307">
        <ele>820</ele>
        <time>2021-08-10T10:03:14.773Z</time>
      </trkpt>
      <trkpt lat="46.95247" lon="8.58306">
        <ele>820</ele>
        <time>2021-08-10T10:03:15.773Z</time>
      </trkpt>
      <trkpt lat="46.95246" lon="8.58305">
        <ele>820</ele>
        <time>2021-08-10T10:03:16.773Z</time>
      </trkpt>
      <trkpt lat="46.95247" lon="8.58305">
        <ele>821</ele>
        <time>2021-08-10T10:03:17.773Z</time>
      </trkpt>
      <trkpt lat="46.95247" lon="8.58304">
        <ele>821</ele>
        <time>2021-08-10T10:03:18.772Z</time>
      </trkpt>
      <trkpt lat="46.95247" lon="8.58303">
        <ele>821</ele>
        <time>2021-08-10T10:03:19.773Z</time>
      </trkpt>
      <trkpt lat="46.95246" lon="8.58302">
        <ele>821</ele>
        <time>2021-08-10T10:03:20.773Z</time>
      </trkpt>
      <trkpt lat="46.95245" lon="8.58301">
        <ele>821</ele>
        <time>2021-08-10T10:03:21.773Z</time>
      </trkpt>
      <trkpt lat="46.95245" lon="8.58299">
        <ele>821</ele>
        <time>2021-08-10T10:03:22.772Z</time>
      </trkpt>
      <trkpt lat="46.95244" lon="8.58298">
        <ele>820</ele>
        <time>2021-08-10T10:03:23.772Z</time>
      </trkpt>
      <trkpt lat="46.95243" lon="8.58297">
        <ele>820</ele>
        <time>2021-08-10T10:03:24.772Z</time>
      </trkpt>
      <trkpt lat="46.95241" lon="8.58296">
        <ele>820</ele>
        <time>2021-08-10T10:03:25.773Z</time>
      </trkpt>
      <trkpt lat="46.95239" lon="8.58295">
        <ele>820</ele>
        <time>2021-08-10T10:03:26.773Z</time>
      </trkpt>
      <trkpt lat="46.95238" lon="8.58294">
        <ele>820</ele>
        <time>2021-08-10T10:03:27.773Z</time>
      </trkpt>
      <trkpt lat="46.95237" lon="8.58293">
        <ele>820</ele>
        <time>2021-08-10T10:03:28.773Z</time>
      </trkpt>
      <trkpt lat="46.95236" lon="8.58292">
        <ele>820</ele>
        <time>2021-08-10T10:03:29.772Z</time>
      </trkpt>
      <trkpt lat="46.95235" lon="8.58291">
        <ele>819</ele>
        <time>2021-08-10T10:03:30.773Z</time>
      </trkpt>
      <trkpt lat="46.95235" lon="8.5829">
        <ele>819</ele>
        <time>2021-08-10T10:03:31.773Z</time>
      </trkpt>
      <trkpt lat="46.95234" lon="8.58289">
        <ele>818</ele>
        <time>2021-08-10T10:03:32.773Z</time>
      </trkpt>
      <trkpt lat="46.95233" lon="8.58289">
        <ele>818</ele>
        <time>2021-08-10T10:03:33.772Z</time>
      </trkpt>
      <trkpt lat="46.95232" lon="8.58288">
        <ele>818</ele>
        <time>2021-08-10T10:03:34.772Z</time>
      </trkpt>
      <trkpt lat="46.95231" lon="8.58287">
        <ele>817</ele>
        <time>2021-08-10T10:03:35.772Z</time>
      </trkpt>
      <trkpt lat="46.9523" lon="8.58287">
        <ele>817</ele>
        <time>2021-08-10T10:03:36.773Z</time>
      </trkpt>
      <trkpt lat="46.95229" lon="8.58286">
        <ele>817</ele>
        <time>2021-08-10T10:03:37.772Z</time>
      </trkpt>
      <trkpt lat="46.95228" lon="8.58285">
        <ele>817</ele>
        <time>2021-08-10T10:03:38.773Z</time>
      </trkpt>
      <trkpt lat="46.95226" lon="8.58285">
        <ele>817</ele>
        <time>2021-08-10T10:03:39.773Z</time>
      </trkpt>
      <trkpt lat="46.95225" lon="8.58285">
        <ele>817</ele>
        <time>2021-08-10T10:03:40.772Z</time>
      </trkpt>
      <trkpt lat="46.95223" lon="8.58284">
        <ele>817</ele>
        <time>2021-08-10T10:03:41.773Z</time>
      </trkpt>
      <trkpt lat="46.95222" lon="8.58284">
        <ele>817</ele>
        <time>2021-08-10T10:03:42.772Z</time>
      </trkpt>
      <trkpt lat="46.95221" lon="8.58283">
        <ele>817</ele>
        <time>2021-08-10T10:03:43.772Z</time>
      </trkpt>
      <trkpt lat="46.9522" lon="8.58283">
        <ele>816</ele>
        <time>2021-08-10T10:03:44.772Z</time>
      </trkpt>
      <trkpt lat="46.9522" lon="8.58283">
        <ele>816</ele>
        <time>2021-08-10T10:03:45.772Z</time>
      </trkpt>
      <trkpt lat="46.95219" lon="8.58282">
        <ele>817</ele>
        <time>2021-08-10T10:03:46.772Z</time>
      </trkpt>
      <trkpt lat="46.95218" lon="8.58282">
        <ele>817</ele>
        <time>2021-08-10T10:03:47.773Z</time>
      </trkpt>
      <trkpt lat="46.95217" lon="8.58281">
        <ele>817</ele>
        <time>2021-08-10T10:03:48.773Z</time>
      </trkpt>
      <trkpt lat="46.95216" lon="8.5828">
        <ele>818</ele>
        <time>2021-08-10T10:03:49.773Z</time>
      </trkpt>
      <trkpt lat="46.95214" lon="8.58279">
        <ele>818</ele>
        <time>2021-08-10T10:03:50.773Z</time>
      </trkpt>
      <trkpt lat="46.95213" lon="8.58278">
        <ele>818</ele>
        <time>2021-08-10T10:03:51.772Z</time>
      </trkpt>
      <trkpt lat="46.95212" lon="8.58278">
        <ele>818</ele>
        <time>2021-08-10T10:03:52.772Z</time>
      </trkpt>
      <trkpt lat="46.95211" lon="8.58277">
        <ele>818</ele>
        <time>2021-08-10T10:03:53.772Z</time>
      </trkpt>
      <trkpt lat="46.95211" lon="8.58276">
        <ele>818</ele>
        <time>2021-08-10T10:03:54.773Z</time>
      </trkpt>
      <trkpt lat="46.9521" lon="8.58276">
        <ele>818</ele>
        <time>2021-08-10T10:03:55.773Z</time>
      </trkpt>
      <trkpt lat="46.95209" lon="8.58275">
        <ele>817</ele>
        <time>2021-08-10T10:03:56.773Z</time>
      </trkpt>
      <trkpt lat="46.95208" lon="8.58275">
        <ele>817</ele>
        <time>2021-08-10T10:03:57.773Z</time>
      </trkpt>
      <trkpt lat="46.95207" lon="8.58274">
        <ele>817</ele>
        <time>2021-08-10T10:03:58.772Z</time>
      </trkpt>
      <trkpt lat="46.95206" lon="8.58273">
        <ele>817</ele>
        <time>2021-08-10T10:03:59.773Z</time>
      </trkpt>
      <trkpt lat="46.95205" lon="8.58272">
        <ele>817</ele>
        <time>2021-08-10T10:04:00.772Z</time>
      </trkpt>
      <trkpt lat="46.95204" lon="8.58272">
        <ele>818</ele>
        <time>2021-08-10T10:04:01.773Z</time>
      </trkpt>
      <trkpt lat="46.95203" lon="8.58271">
        <ele>818</ele>
        <time>2021-08-10T10:04:02.772Z</time>
      </trkpt>
      <trkpt lat="46.95201" lon="8.58269">
        <ele>818</ele>
        <time>2021-08-10T10:04:03.772Z</time>
      </trkpt>
      <trkpt lat="46.95199" lon="8.58269">
        <ele>818</ele>
        <time>2021-08-10T10:04:04.773Z</time>
      </trkpt>
      <trkpt lat="46.95199" lon="8.58269">
        <ele>818</ele>
        <time>2021-08-10T10:04:05.773Z</time>
      </trkpt>
      <trkpt lat="46.95197" lon="8.5827">
        <ele>817</ele>
        <time>2021-08-10T10:04:06.773Z</time>
      </trkpt>
      <trkpt lat="46.95196" lon="8.58269">
        <ele>817</ele>
        <time>2021-08-10T10:04:07.772Z</time>
      </trkpt>
      <trkpt lat="46.95195" lon="8.58269">
        <ele>816</ele>
        <time>2021-08-10T10:04:08.773Z</time>
      </trkpt>
      <trkpt lat="46.95195" lon="8.58268">
        <ele>816</ele>
        <time>2021-08-10T10:04:09.772Z</time>
      </trkpt>
      <trkpt lat="46.95194" lon="8.58267">
        <ele>815</ele>
        <time>2021-08-10T10:04:10.772Z</time>
      </trkpt>
      <trkpt lat="46.95193" lon="8.58267">
        <ele>815</ele>
        <time>2021-08-10T10:04:11.772Z</time>
      </trkpt>
      <trkpt lat="46.95192" lon="8.58266">
        <ele>815</ele>
        <time>2021-08-10T10:04:12.772Z</time>
      </trkpt>
      <trkpt lat="46.9519" lon="8.58265">
        <ele>815</ele>
        <time>2021-08-10T10:04:13.773Z</time>
      </trkpt>
      <trkpt lat="46.95189" lon="8.58265">
        <ele>815</ele>
        <time>2021-08-10T10:04:14.772Z</time>
      </trkpt>
      <trkpt lat="46.95187" lon="8.58264">
        <ele>814</ele>
        <time>2021-08-10T10:04:15.772Z</time>
      </trkpt>
      <trkpt lat="46.95186" lon="8.58264">
        <ele>814</ele>
        <time>2021-08-10T10:04:16.773Z</time>
      </trkpt>
      <trkpt lat="46.95185" lon="8.58264">
        <ele>814</ele>
        <time>2021-08-10T10:04:17.773Z</time>
      </trkpt>
      <trkpt lat="46.95184" lon="8.58264">
        <ele>814</ele>
        <time>2021-08-10T10:04:18.773Z</time>
      </trkpt>
      <trkpt lat="46.95183" lon="8.58263">
        <ele>814</ele>
        <time>2021-08-10T10:04:19.772Z</time>
      </trkpt>
      <trkpt lat="46.95182" lon="8.58263">
        <ele>813</ele>
        <time>2021-08-10T10:04:20.772Z</time>
      </trkpt>
      <trkpt lat="46.95181" lon="8.58263">
        <ele>814</ele>
        <time>2021-08-10T10:04:21.772Z</time>
      </trkpt>
      <trkpt lat="46.9518" lon="8.58262">
        <ele>814</ele>
        <time>2021-08-10T10:04:22.773Z</time>
      </trkpt>
      <trkpt lat="46.95179" lon="8.58262">
        <ele>814</ele>
        <time>2021-08-10T10:04:23.773Z</time>
      </trkpt>
      <trkpt lat="46.95179" lon="8.58261">
        <ele>814</ele>
        <time>2021-08-10T10:04:24.773Z</time>
      </trkpt>
      <trkpt lat="46.95178" lon="8.58261">
        <ele>813</ele>
        <time>2021-08-10T10:04:25.773Z</time>
      </trkpt>
      <trkpt lat="46.95177" lon="8.58261">
        <ele>813</ele>
        <time>2021-08-10T10:04:26.772Z</time>
      </trkpt>
      <trkpt lat="46.95176" lon="8.58261">
        <ele>813</ele>
        <time>2021-08-10T10:04:27.772Z</time>
      </trkpt>
      <trkpt lat="46.95176" lon="8.58261">
        <ele>813</ele>
        <time>2021-08-10T10:04:28.773Z</time>
      </trkpt>
      <trkpt lat="46.95174" lon="8.58261">
        <ele>812</ele>
        <time>2021-08-10T10:04:29.773Z</time>
      </trkpt>
      <trkpt lat="46.95173" lon="8.58261">
        <ele>812</ele>
        <time>2021-08-10T10:04:30.772Z</time>
      </trkpt>
      <trkpt lat="46.95172" lon="8.5826">
        <ele>812</ele>
        <time>2021-08-10T10:04:31.772Z</time>
      </trkpt>
      <trkpt lat="46.95172" lon="8.58259">
        <ele>813</ele>
        <time>2021-08-10T10:04:32.773Z</time>
      </trkpt>
      <trkpt lat="46.95171" lon="8.58259">
        <ele>813</ele>
        <time>2021-08-10T10:04:33.773Z</time>
      </trkpt>
      <trkpt lat="46.9517" lon="8.58258">
        <ele>813</ele>
        <time>2021-08-10T10:04:34.773Z</time>
      </trkpt>
      <trkpt lat="46.95169" lon="8.58257">
        <ele>812</ele>
        <time>2021-08-10T10:04:35.772Z</time>
      </trkpt>
      <trkpt lat="46.95169" lon="8.58256">
        <ele>812</ele>
        <time>2021-08-10T10:04:36.772Z</time>
      </trkpt>
      <trkpt lat="46.95168" lon="8.58255">
        <ele>811</ele>
        <time>2021-08-10T10:04:37.772Z</time>
      </trkpt>
      <trkpt lat="46.95168" lon="8.58253">
        <ele>811</ele>
        <time>2021-08-10T10:04:38.773Z</time>
      </trkpt>
      <trkpt lat="46.95167" lon="8.58252">
        <ele>810</ele>
        <time>2021-08-10T10:04:39.772Z</time>
      </trkpt>
      <trkpt lat="46.95166" lon="8.58251">
        <ele>810</ele>
        <time>2021-08-10T10:04:40.772Z</time>
      </trkpt>
      <trkpt lat="46.95164" lon="8.5825">
        <ele>809</ele>
        <time>2021-08-10T10:04:41.772Z</time>
      </trkpt>
      <trkpt lat="46.95164" lon="8.58249">
        <ele>809</ele>
        <time>2021-08-10T10:04:42.773Z</time>
      </trkpt>
      <trkpt lat="46.95163" lon="8.58248">
        <ele>808</ele>
        <time>2021-08-10T10:04:43.773Z</time>
      </trkpt>
      <trkpt lat="46.95162" lon="8.58247">
        <ele>808</ele>
        <time>2021-08-10T10:04:44.772Z</time>
      </trkpt>
      <trkpt lat="46.95161" lon="8.58246">
        <ele>807</ele>
        <time>2021-08-10T10:04:45.772Z</time>
      </trkpt>
      <trkpt lat="46.95159" lon="8.58245">
        <ele>807</ele>
        <time>2021-08-10T10:04:46.773Z</time>
      </trkpt>
      <trkpt lat="46.95158" lon="8.58244">
        <ele>807</ele>
        <time>2021-08-10T10:04:47.773Z</time>
      </trkpt>
      <trkpt lat="46.95156" lon="8.58244">
        <ele>806</ele>
        <time>2021-08-10T10:04:48.772Z</time>
      </trkpt>
      <trkpt lat="46.95155" lon="8.58242">
        <ele>806</ele>
        <time>2021-08-10T10:04:49.772Z</time>
      </trkpt>
      <trkpt lat="46.95154" lon="8.58241">
        <ele>806</ele>
        <time>2021-08-10T10:04:50.772Z</time>
      </trkpt>
      <trkpt lat="46.95153" lon="8.5824">
        <ele>805</ele>
        <time>2021-08-10T10:04:51.773Z</time>
      </trkpt>
      <trkpt lat="46.95153" lon="8.58239">
        <ele>805</ele>
        <time>2021-08-10T10:04:52.772Z</time>
      </trkpt>
      <trkpt lat="46.95152" lon="8.58238">
        <ele>805</ele>
        <time>2021-08-10T10:04:53.773Z</time>
      </trkpt>
      <trkpt lat="46.95151" lon="8.58238">
        <ele>804</ele>
        <time>2021-08-10T10:04:54.773Z</time>
      </trkpt>
      <trkpt lat="46.95149" lon="8.58238">
        <ele>804</ele>
        <time>2021-08-10T10:04:55.773Z</time>
      </trkpt>
      <trkpt lat="46.95147" lon="8.58237">
        <ele>803</ele>
        <time>2021-08-10T10:04:56.772Z</time>
      </trkpt>
      <trkpt lat="46.95145" lon="8.58238">
        <ele>802</ele>
        <time>2021-08-10T10:04:57.773Z</time>
      </trkpt>
      <trkpt lat="46.95144" lon="8.58238">
        <ele>802</ele>
        <time>2021-08-10T10:04:58.773Z</time>
      </trkpt>
      <trkpt lat="46.95143" lon="8.58238">
        <ele>801</ele>
        <time>2021-08-10T10:04:59.772Z</time>
      </trkpt>
      <trkpt lat="46.95143" lon="8.58238">
        <ele>801</ele>
        <time>2021-08-10T10:05:00.772Z</time>
      </trkpt>
      <trkpt lat="46.95142" lon="8.58236">
        <ele>801</ele>
        <time>2021-08-10T10:05:01.772Z</time>
      </trkpt>
      <trkpt lat="46.95142" lon="8.58235">
        <ele>801</ele>
        <time>2021-08-10T10:05:02.773Z</time>
      </trkpt>
      <trkpt lat="46.95141" lon="8.58235">
        <ele>802</ele>
        <time>2021-08-10T10:05:03.772Z</time>
      </trkpt>
      <trkpt lat="46.9514" lon="8.58234">
        <ele>802</ele>
        <time>2021-08-10T10:05:04.773Z</time>
      </trkpt>
      <trkpt lat="46.9514" lon="8.58234">
        <ele>803</ele>
        <time>2021-08-10T10:05:05.772Z</time>
      </trkpt>
      <trkpt lat="46.95138" lon="8.58233">
        <ele>803</ele>
        <time>2021-08-10T10:05:06.772Z</time>
      </trkpt>
      <trkpt lat="46.95137" lon="8.58233">
        <ele>803</ele>
        <time>2021-08-10T10:05:07.773Z</time>
      </trkpt>
      <trkpt lat="46.95136" lon="8.58232">
        <ele>804</ele>
        <time>2021-08-10T10:05:08.773Z</time>
      </trkpt>
      <trkpt lat="46.95135" lon="8.58232">
        <ele>804</ele>
        <time>2021-08-10T10:05:09.772Z</time>
      </trkpt>
      <trkpt lat="46.95134" lon="8.58231">
        <ele>804</ele>
        <time>2021-08-10T10:05:10.772Z</time>
      </trkpt>
      <trkpt lat="46.95133" lon="8.5823">
        <ele>804</ele>
        <time>2021-08-10T10:05:11.772Z</time>
      </trkpt>
      <trkpt lat="46.95133" lon="8.58229">
        <ele>805</ele>
        <time>2021-08-10T10:05:12.772Z</time>
      </trkpt>
      <trkpt lat="46.95132" lon="8.58228">
        <ele>805</ele>
        <time>2021-08-10T10:05:13.773Z</time>
      </trkpt>
      <trkpt lat="46.95131" lon="8.58228">
        <ele>805</ele>
        <time>2021-08-10T10:05:14.772Z</time>
      </trkpt>
      <trkpt lat="46.9513" lon="8.58227">
        <ele>805</ele>
        <time>2021-08-10T10:05:15.772Z</time>
      </trkpt>
      <trkpt lat="46.95128" lon="8.58227">
        <ele>805</ele>
        <time>2021-08-10T10:05:16.772Z</time>
      </trkpt>
      <trkpt lat="46.95128" lon="8.58226">
        <ele>806</ele>
        <time>2021-08-10T10:05:17.773Z</time>
      </trkpt>
      <trkpt lat="46.95126" lon="8.58227">
        <ele>807</ele>
        <time>2021-08-10T10:05:18.773Z</time>
      </trkpt>
      <trkpt lat="46.95125" lon="8.58227">
        <ele>807</ele>
        <time>2021-08-10T10:05:19.772Z</time>
      </trkpt>
      <trkpt lat="46.95123" lon="8.58226">
        <ele>807</ele>
        <time>2021-08-10T10:05:20.772Z</time>
      </trkpt>
      <trkpt lat="46.95122" lon="8.58226">
        <ele>807</ele>
        <time>2021-08-10T10:05:21.772Z</time>
      </trkpt>
      <trkpt lat="46.95121" lon="8.58226">
        <ele>807</ele>
        <time>2021-08-10T10:05:22.773Z</time>
      </trkpt>
      <trkpt lat="46.9512" lon="8.58226">
        <ele>807</ele>
        <time>2021-08-10T10:05:23.773Z</time>
      </trkpt>
      <trkpt lat="46.95119" lon="8.58226">
        <ele>807</ele>
        <time>2021-08-10T10:05:24.772Z</time>
      </trkpt>
      <trkpt lat="46.95117" lon="8.58225">
        <ele>807</ele>
        <time>2021-08-10T10:05:25.772Z</time>
      </trkpt>
      <trkpt lat="46.95116" lon="8.58224">
        <ele>807</ele>
        <time>2021-08-10T10:05:26.772Z</time>
      </trkpt>
      <trkpt lat="46.95115" lon="8.58224">
        <ele>807</ele>
        <time>2021-08-10T10:05:27.772Z</time>
      </trkpt>
      <trkpt lat="46.95113" lon="8.58223">
        <ele>807</ele>
        <time>2021-08-10T10:05:28.773Z</time>
      </trkpt>
      <trkpt lat="46.95112" lon="8.58222">
        <ele>807</ele>
        <time>2021-08-10T10:05:29.772Z</time>
      </trkpt>
      <trkpt lat="46.9511" lon="8.58222">
        <ele>807</ele>
        <time>2021-08-10T10:05:30.772Z</time>
      </trkpt>
      <trkpt lat="46.95109" lon="8.58221">
        <ele>807</ele>
        <time>2021-08-10T10:05:31.772Z</time>
      </trkpt>
      <trkpt lat="46.95108" lon="8.5822">
        <ele>807</ele>
        <time>2021-08-10T10:05:32.773Z</time>
      </trkpt>
      <trkpt lat="46.95107" lon="8.5822">
        <ele>807</ele>
        <time>2021-08-10T10:05:33.773Z</time>
      </trkpt>
      <trkpt lat="46.95106" lon="8.58219">
        <ele>807</ele>
        <time>2021-08-10T10:05:34.772Z</time>
      </trkpt>
      <trkpt lat="46.95105" lon="8.58219">
        <ele>807</ele>
        <time>2021-08-10T10:05:35.772Z</time>
      </trkpt>
      <trkpt lat="46.95104" lon="8.58219">
        <ele>807</ele>
        <time>2021-08-10T10:05:36.772Z</time>
      </trkpt>
      <trkpt lat="46.95103" lon="8.58219">
        <ele>807</ele>
        <time>2021-08-10T10:05:37.773Z</time>
      </trkpt>
      <trkpt lat="46.95102" lon="8.58219">
        <ele>807</ele>
        <time>2021-08-10T10:05:38.772Z</time>
      </trkpt>
      <trkpt lat="46.95101" lon="8.58218">
        <ele>807</ele>
        <time>2021-08-10T10:05:39.772Z</time>
      </trkpt>
      <trkpt lat="46.95101" lon="8.58218">
        <ele>807</ele>
        <time>2021-08-10T10:05:40.772Z</time>
      </trkpt>
      <trkpt lat="46.951" lon="8.58218">
        <ele>807</ele>
        <time>2021-08-10T10:05:41.772Z</time>
      </trkpt>
      <trkpt lat="46.95098" lon="8.58217">
        <ele>807</ele>
        <time>2021-08-10T10:05:42.772Z</time>
      </trkpt>
      <trkpt lat="46.95098" lon="8.58217">
        <ele>807</ele>
        <time>2021-08-10T10:05:43.772Z</time>
      </trkpt>
      <trkpt lat="46.95097" lon="8.58217">
        <ele>806</ele>
        <time>2021-08-10T10:05:44.772Z</time>
      </trkpt>
      <trkpt lat="46.95096" lon="8.58215">
        <ele>806</ele>
        <time>2021-08-10T10:05:45.772Z</time>
      </trkpt>
      <trkpt lat="46.95094" lon="8.58214">
        <ele>806</ele>
        <time>2021-08-10T10:05:46.772Z</time>
      </trkpt>
      <trkpt lat="46.95093" lon="8.58213">
        <ele>806</ele>
        <time>2021-08-10T10:05:47.772Z</time>
      </trkpt>
      <trkpt lat="46.95092" lon="8.58211">
        <ele>805</ele>
        <time>2021-08-10T10:05:48.772Z</time>
      </trkpt>
      <trkpt lat="46.95091" lon="8.58211">
        <ele>805</ele>
        <time>2021-08-10T10:05:49.772Z</time>
      </trkpt>
      <trkpt lat="46.95091" lon="8.58211">
        <ele>805</ele>
        <time>2021-08-10T10:05:50.772Z</time>
      </trkpt>
      <trkpt lat="46.9509" lon="8.58211">
        <ele>805</ele>
        <time>2021-08-10T10:05:51.772Z</time>
      </trkpt>
      <trkpt lat="46.95089" lon="8.58211">
        <ele>805</ele>
        <time>2021-08-10T10:05:52.772Z</time>
      </trkpt>
      <trkpt lat="46.95088" lon="8.58211">
        <ele>805</ele>
        <time>2021-08-10T10:05:53.773Z</time>
      </trkpt>
      <trkpt lat="46.95087" lon="8.5821">
        <ele>805</ele>
        <time>2021-08-10T10:05:54.773Z</time>
      </trkpt>
      <trkpt lat="46.95086" lon="8.58209">
        <ele>805</ele>
        <time>2021-08-10T10:05:55.772Z</time>
      </trkpt>
      <trkpt lat="46.95084" lon="8.58209">
        <ele>804</ele>
        <time>2021-08-10T10:05:56.773Z</time>
      </trkpt>
      <trkpt lat="46.95083" lon="8.58208">
        <ele>804</ele>
        <time>2021-08-10T10:05:57.772Z</time>
      </trkpt>
      <trkpt lat="46.95082" lon="8.58207">
        <ele>804</ele>
        <time>2021-08-10T10:05:58.772Z</time>
      </trkpt>
      <trkpt lat="46.95081" lon="8.58206">
        <ele>804</ele>
        <time>2021-08-10T10:05:59.772Z</time>
      </trkpt>
      <trkpt lat="46.9508" lon="8.58205">
        <ele>804</ele>
        <time>2021-08-10T10:06:00.773Z</time>
      </trkpt>
      <trkpt lat="46.95078" lon="8.58205">
        <ele>803</ele>
        <time>2021-08-10T10:06:01.773Z</time>
      </trkpt>
      <trkpt lat="46.95077" lon="8.58204">
        <ele>803</ele>
        <time>2021-08-10T10:06:02.773Z</time>
      </trkpt>
      <trkpt lat="46.95076" lon="8.58204">
        <ele>803</ele>
        <time>2021-08-10T10:06:03.772Z</time>
      </trkpt>
      <trkpt lat="46.95075" lon="8.58203">
        <ele>803</ele>
        <time>2021-08-10T10:06:04.773Z</time>
      </trkpt>
      <trkpt lat="46.95073" lon="8.58202">
        <ele>803</ele>
        <time>2021-08-10T10:06:05.773Z</time>
      </trkpt>
      <trkpt lat="46.95072" lon="8.58202">
        <ele>803</ele>
        <time>2021-08-10T10:06:06.773Z</time>
      </trkpt>
      <trkpt lat="46.95071" lon="8.58201">
        <ele>802</ele>
        <time>2021-08-10T10:06:07.773Z</time>
      </trkpt>
      <trkpt lat="46.9507" lon="8.582">
        <ele>802</ele>
        <time>2021-08-10T10:06:08.773Z</time>
      </trkpt>
      <trkpt lat="46.95069" lon="8.582">
        <ele>802</ele>
        <time>2021-08-10T10:06:09.773Z</time>
      </trkpt>
      <trkpt lat="46.95068" lon="8.58199">
        <ele>803</ele>
        <time>2021-08-10T10:06:10.773Z</time>
      </trkpt>
      <trkpt lat="46.95067" lon="8.58198">
        <ele>803</ele>
        <time>2021-08-10T10:06:11.773Z</time>
      </trkpt>
      <trkpt lat="46.95066" lon="8.58198">
        <ele>803</ele>
        <time>2021-08-10T10:06:12.773Z</time>
      </trkpt>
      <trkpt lat="46.95064" lon="8.58197">
        <ele>804</ele>
        <time>2021-08-10T10:06:13.773Z</time>
      </trkpt>
      <trkpt lat="46.95063" lon="8.58196">
        <ele>804</ele>
        <time>2021-08-10T10:06:14.772Z</time>
      </trkpt>
      <trkpt lat="46.95062" lon="8.58195">
        <ele>804</ele>
        <time>2021-08-10T10:06:15.773Z</time>
      </trkpt>
      <trkpt lat="46.95061" lon="8.58195">
        <ele>804</ele>
        <time>2021-08-10T10:06:16.773Z</time>
      </trkpt>
      <trkpt lat="46.9506" lon="8.58194">
        <ele>805</ele>
        <time>2021-08-10T10:06:17.773Z</time>
      </trkpt>
      <trkpt lat="46.95059" lon="8.58193">
        <ele>805</ele>
        <time>2021-08-10T10:06:18.773Z</time>
      </trkpt>
      <trkpt lat="46.95057" lon="8.58192">
        <ele>805</ele>
        <time>2021-08-10T10:06:19.773Z</time>
      </trkpt>
      <trkpt lat="46.95056" lon="8.58192">
        <ele>805</ele>
        <time>2021-08-10T10:06:20.773Z</time>
      </trkpt>
      <trkpt lat="46.95054" lon="8.58191">
        <ele>806</ele>
        <time>2021-08-10T10:06:21.773Z</time>
      </trkpt>
      <trkpt lat="46.95053" lon="8.58192">
        <ele>806</ele>
        <time>2021-08-10T10:06:22.773Z</time>
      </trkpt>
      <trkpt lat="46.95052" lon="8.58193">
        <ele>807</ele>
        <time>2021-08-10T10:06:23.773Z</time>
      </trkpt>
      <trkpt lat="46.9505" lon="8.58193">
        <ele>807</ele>
        <time>2021-08-10T10:06:24.773Z</time>
      </trkpt>
      <trkpt lat="46.95049" lon="8.58192">
        <ele>808</ele>
        <time>2021-08-10T10:06:25.773Z</time>
      </trkpt>
      <trkpt lat="46.95048" lon="8.58192">
        <ele>808</ele>
        <time>2021-08-10T10:06:26.772Z</time>
      </trkpt>
      <trkpt lat="46.95047" lon="8.58192">
        <ele>809</ele>
        <time>2021-08-10T10:06:27.773Z</time>
      </trkpt>
      <trkpt lat="46.95046" lon="8.58191">
        <ele>810</ele>
        <time>2021-08-10T10:06:28.772Z</time>
      </trkpt>
      <trkpt lat="46.95045" lon="8.58191">
        <ele>811</ele>
        <time>2021-08-10T10:06:29.773Z</time>
      </trkpt>
      <trkpt lat="46.95044" lon="8.58191">
        <ele>811</ele>
        <time>2021-08-10T10:06:30.772Z</time>
      </trkpt>
      <trkpt lat="46.95043" lon="8.5819">
        <ele>812</ele>
        <time>2021-08-10T10:06:31.773Z</time>
      </trkpt>
      <trkpt lat="46.95043" lon="8.58189">
        <ele>812</ele>
        <time>2021-08-10T10:06:32.772Z</time>
      </trkpt>
      <trkpt lat="46.95042" lon="8.58187">
        <ele>812</ele>
        <time>2021-08-10T10:06:33.773Z</time>
      </trkpt>
      <trkpt lat="46.95042" lon="8.58186">
        <ele>812</ele>
        <time>2021-08-10T10:06:34.773Z</time>
      </trkpt>
      <trkpt lat="46.9504" lon="8.58186">
        <ele>812</ele>
        <time>2021-08-10T10:06:35.773Z</time>
      </trkpt>
      <trkpt lat="46.95039" lon="8.58186">
        <ele>812</ele>
        <time>2021-08-10T10:06:36.773Z</time>
      </trkpt>
      <trkpt lat="46.95038" lon="8.58186">
        <ele>812</ele>
        <time>2021-08-10T10:06:37.772Z</time>
      </trkpt>
      <trkpt lat="46.95037" lon="8.58185">
        <ele>811</ele>
        <time>2021-08-10T10:06:38.772Z</time>
      </trkpt>
      <trkpt lat="46.95036" lon="8.58185">
        <ele>811</ele>
        <time>2021-08-10T10:06:39.773Z</time>
      </trkpt>
      <trkpt lat="46.95035" lon="8.58184">
        <ele>810</ele>
        <time>2021-08-10T10:06:40.772Z</time>
      </trkpt>
      <trkpt lat="46.95034" lon="8.58183">
        <ele>810</ele>
        <time>2021-08-10T10:06:41.772Z</time>
      </trkpt>
      <trkpt lat="46.95034" lon="8.58182">
        <ele>809</ele>
        <time>2021-08-10T10:06:42.773Z</time>
      </trkpt>
      <trkpt lat="46.95033" lon="8.58181">
        <ele>809</ele>
        <time>2021-08-10T10:06:43.773Z</time>
      </trkpt>
      <trkpt lat="46.95032" lon="8.5818">
        <ele>808</ele>
        <time>2021-08-10T10:06:44.773Z</time>
      </trkpt>
      <trkpt lat="46.95031" lon="8.5818">
        <ele>808</ele>
        <time>2021-08-10T10:06:45.773Z</time>
      </trkpt>
      <trkpt lat="46.9503" lon="8.58179">
        <ele>807</ele>
        <time>2021-08-10T10:06:46.772Z</time>
      </trkpt>
      <trkpt lat="46.95029" lon="8.58179">
        <ele>807</ele>
        <time>2021-08-10T10:06:47.773Z</time>
      </trkpt>
      <trkpt lat="46.95029" lon="8.58177">
        <ele>806</ele>
        <time>2021-08-10T10:06:48.773Z</time>
      </trkpt>
      <trkpt lat="46.95028" lon="8.58176">
        <ele>806</ele>
        <time>2021-08-10T10:06:49.772Z</time>
      </trkpt>
      <trkpt lat="46.95027" lon="8.58175">
        <ele>805</ele>
        <time>2021-08-10T10:06:50.772Z</time>
      </trkpt>
      <trkpt lat="46.95027" lon="8.58174">
        <ele>805</ele>
        <time>2021-08-10T10:06:51.773Z</time>
      </trkpt>
      <trkpt lat="46.95026" lon="8.58174">
        <ele>805</ele>
        <time>2021-08-10T10:06:52.773Z</time>
      </trkpt>
      <trkpt lat="46.95024" lon="8.58174">
        <ele>804</ele>
        <time>2021-08-10T10:06:53.772Z</time>
      </trkpt>
      <trkpt lat="46.95024" lon="8.58174">
        <ele>804</ele>
        <time>2021-08-10T10:06:54.772Z</time>
      </trkpt>
      <trkpt lat="46.95023" lon="8.58174">
        <ele>804</ele>
        <time>2021-08-10T10:06:55.773Z</time>
      </trkpt>
      <trkpt lat="46.95023" lon="8.58173">
        <ele>804</ele>
        <time>2021-08-10T10:06:56.773Z</time>
      </trkpt>
      <trkpt lat="46.95022" lon="8.58173">
        <ele>804</ele>
        <time>2021-08-10T10:06:57.773Z</time>
      </trkpt>
      <trkpt lat="46.95021" lon="8.58172">
        <ele>805</ele>
        <time>2021-08-10T10:06:58.773Z</time>
      </trkpt>
      <trkpt lat="46.9502" lon="8.58171">
        <ele>805</ele>
        <time>2021-08-10T10:06:59.773Z</time>
      </trkpt>
      <trkpt lat="46.95019" lon="8.5817">
        <ele>805</ele>
        <time>2021-08-10T10:07:00.773Z</time>
      </trkpt>
      <trkpt lat="46.95018" lon="8.5817">
        <ele>805</ele>
        <time>2021-08-10T10:07:01.773Z</time>
      </trkpt>
      <trkpt lat="46.95016" lon="8.58169">
        <ele>805</ele>
        <time>2021-08-10T10:07:02.773Z</time>
      </trkpt>
      <trkpt lat="46.95015" lon="8.58169">
        <ele>805</ele>
        <time>2021-08-10T10:07:03.772Z</time>
      </trkpt>
      <trkpt lat="46.95014" lon="8.58168">
        <ele>806</ele>
        <time>2021-08-10T10:07:04.772Z</time>
      </trkpt>
      <trkpt lat="46.95013" lon="8.58168">
        <ele>806</ele>
        <time>2021-08-10T10:07:05.772Z</time>
      </trkpt>
      <trkpt lat="46.95012" lon="8.58167">
        <ele>806</ele>
        <time>2021-08-10T10:07:06.773Z</time>
      </trkpt>
      <trkpt lat="46.95011" lon="8.58167">
        <ele>806</ele>
        <time>2021-08-10T10:07:07.773Z</time>
      </trkpt>
      <trkpt lat="46.9501" lon="8.58166">
        <ele>806</ele>
        <time>2021-08-10T10:07:08.773Z</time>
      </trkpt>
      <trkpt lat="46.9501" lon="8.58165">
        <ele>807</ele>
        <time>2021-08-10T10:07:09.772Z</time>
      </trkpt>
      <trkpt lat="46.95009" lon="8.58164">
        <ele>807</ele>
        <time>2021-08-10T10:07:10.773Z</time>
      </trkpt>
      <trkpt lat="46.95009" lon="8.58161">
        <ele>807</ele>
        <time>2021-08-10T10:07:11.773Z</time>
      </trkpt>
      <trkpt lat="46.95008" lon="8.5816">
        <ele>807</ele>
        <time>2021-08-10T10:07:12.772Z</time>
      </trkpt>
      <trkpt lat="46.95008" lon="8.58159">
        <ele>807</ele>
        <time>2021-08-10T10:07:13.773Z</time>
      </trkpt>
      <trkpt lat="46.95008" lon="8.58158">
        <ele>807</ele>
        <time>2021-08-10T10:07:14.773Z</time>
      </trkpt>
      <trkpt lat="46.95008" lon="8.58157">
        <ele>807</ele>
        <time>2021-08-10T10:07:15.773Z</time>
      </trkpt>
      <trkpt lat="46.95007" lon="8.58156">
        <ele>807</ele>
        <time>2021-08-10T10:07:16.773Z</time>
      </trkpt>
      <trkpt lat="46.95006" lon="8.58156">
        <ele>807</ele>
        <time>2021-08-10T10:07:17.773Z</time>
      </trkpt>
      <trkpt lat="46.95004" lon="8.58154">
        <ele>807</ele>
        <time>2021-08-10T10:07:18.773Z</time>
      </trkpt>
      <trkpt lat="46.95003" lon="8.58153">
        <ele>807</ele>
        <time>2021-08-10T10:07:19.773Z</time>
      </trkpt>
      <trkpt lat="46.95002" lon="8.58152">
        <ele>807</ele>
        <time>2021-08-10T10:07:20.773Z</time>
      </trkpt>
      <trkpt lat="46.95002" lon="8.58151">
        <ele>807</ele>
        <time>2021-08-10T10:07:21.773Z</time>
      </trkpt>
      <trkpt lat="46.95001" lon="8.5815">
        <ele>806</ele>
        <time>2021-08-10T10:07:22.772Z</time>
      </trkpt>
      <trkpt lat="46.95" lon="8.5815">
        <ele>806</ele>
        <time>2021-08-10T10:07:23.773Z</time>
      </trkpt>
      <trkpt lat="46.94999" lon="8.58149">
        <ele>806</ele>
        <time>2021-08-10T10:07:24.773Z</time>
      </trkpt>
      <trkpt lat="46.94998" lon="8.58148">
        <ele>806</ele>
        <time>2021-08-10T10:07:25.773Z</time>
      </trkpt>
      <trkpt lat="46.94996" lon="8.58148">
        <ele>806</ele>
        <time>2021-08-10T10:07:26.773Z</time>
      </trkpt>
      <trkpt lat="46.94995" lon="8.58147">
        <ele>806</ele>
        <time>2021-08-10T10:07:27.773Z</time>
      </trkpt>
      <trkpt lat="46.94993" lon="8.58146">
        <ele>806</ele>
        <time>2021-08-10T10:07:28.772Z</time>
      </trkpt>
      <trkpt lat="46.94993" lon="8.58144">
        <ele>806</ele>
        <time>2021-08-10T10:07:29.772Z</time>
      </trkpt>
      <trkpt lat="46.94992" lon="8.58142">
        <ele>806</ele>
        <time>2021-08-10T10:07:30.773Z</time>
      </trkpt>
      <trkpt lat="46.9499" lon="8.58141">
        <ele>806</ele>
        <time>2021-08-10T10:07:31.773Z</time>
      </trkpt>
      <trkpt lat="46.94988" lon="8.5814">
        <ele>806</ele>
        <time>2021-08-10T10:07:32.772Z</time>
      </trkpt>
      <trkpt lat="46.94987" lon="8.5814">
        <ele>806</ele>
        <time>2021-08-10T10:07:33.773Z</time>
      </trkpt>
      <trkpt lat="46.94986" lon="8.58139">
        <ele>806</ele>
        <time>2021-08-10T10:07:34.773Z</time>
      </trkpt>
      <trkpt lat="46.94985" lon="8.58138">
        <ele>805</ele>
        <time>2021-08-10T10:07:35.773Z</time>
      </trkpt>
      <trkpt lat="46.94984" lon="8.58137">
        <ele>805</ele>
        <time>2021-08-10T10:07:36.773Z</time>
      </trkpt>
      <trkpt lat="46.94983" lon="8.58136">
        <ele>805</ele>
        <time>2021-08-10T10:07:37.772Z</time>
      </trkpt>
      <trkpt lat="46.94983" lon="8.58136">
        <ele>805</ele>
        <time>2021-08-10T10:07:38.773Z</time>
      </trkpt>
      <trkpt lat="46.94982" lon="8.58135">
        <ele>805</ele>
        <time>2021-08-10T10:07:39.772Z</time>
      </trkpt>
      <trkpt lat="46.94981" lon="8.58134">
        <ele>805</ele>
        <time>2021-08-10T10:07:40.773Z</time>
      </trkpt>
      <trkpt lat="46.9498" lon="8.58134">
        <ele>805</ele>
        <time>2021-08-10T10:07:41.773Z</time>
      </trkpt>
      <trkpt lat="46.94979" lon="8.58134">
        <ele>805</ele>
        <time>2021-08-10T10:07:42.772Z</time>
      </trkpt>
      <trkpt lat="46.94977" lon="8.58133">
        <ele>805</ele>
        <time>2021-08-10T10:07:43.772Z</time>
      </trkpt>
      <trkpt lat="46.94976" lon="8.58131">
        <ele>805</ele>
        <time>2021-08-10T10:07:44.772Z</time>
      </trkpt>
      <trkpt lat="46.94976" lon="8.5813">
        <ele>804</ele>
        <time>2021-08-10T10:07:45.772Z</time>
      </trkpt>
      <trkpt lat="46.94975" lon="8.58129">
        <ele>804</ele>
        <time>2021-08-10T10:07:46.773Z</time>
      </trkpt>
      <trkpt lat="46.94973" lon="8.58128">
        <ele>804</ele>
        <time>2021-08-10T10:07:47.773Z</time>
      </trkpt>
      <trkpt lat="46.94972" lon="8.58127">
        <ele>804</ele>
        <time>2021-08-10T10:07:48.773Z</time>
      </trkpt>
      <trkpt lat="46.94971" lon="8.58126">
        <ele>804</ele>
        <time>2021-08-10T10:07:49.773Z</time>
      </trkpt>
      <trkpt lat="46.9497" lon="8.58126">
        <ele>804</ele>
        <time>2021-08-10T10:07:50.773Z</time>
      </trkpt>
      <trkpt lat="46.94968" lon="8.58123">
        <ele>804</ele>
        <time>2021-08-10T10:07:51.772Z</time>
      </trkpt>
      <trkpt lat="46.94967" lon="8.58123">
        <ele>804</ele>
        <time>2021-08-10T10:07:52.773Z</time>
      </trkpt>
      <trkpt lat="46.94966" lon="8.58122">
        <ele>804</ele>
        <time>2021-08-10T10:07:53.772Z</time>
      </trkpt>
      <trkpt lat="46.94964" lon="8.58121">
        <ele>804</ele>
        <time>2021-08-10T10:07:54.772Z</time>
      </trkpt>
      <trkpt lat="46.94963" lon="8.58121">
        <ele>804</ele>
        <time>2021-08-10T10:07:55.773Z</time>
      </trkpt>
      <trkpt lat="46.94962" lon="8.58121">
        <ele>804</ele>
        <time>2021-08-10T10:07:56.772Z</time>
      </trkpt>
      <trkpt lat="46.94961" lon="8.58121">
        <ele>804</ele>
        <time>2021-08-10T10:07:57.773Z</time>
      </trkpt>
      <trkpt lat="46.9496" lon="8.5812">
        <ele>805</ele>
        <time>2021-08-10T10:07:58.773Z</time>
      </trkpt>
      <trkpt lat="46.94959" lon="8.5812">
        <ele>805</ele>
        <time>2021-08-10T10:07:59.772Z</time>
      </trkpt>
      <trkpt lat="46.94957" lon="8.58119">
        <ele>805</ele>
        <time>2021-08-10T10:08:00.773Z</time>
      </trkpt>
      <trkpt lat="46.94956" lon="8.58118">
        <ele>806</ele>
        <time>2021-08-10T10:08:01.772Z</time>
      </trkpt>
      <trkpt lat="46.94954" lon="8.58118">
        <ele>806</ele>
        <time>2021-08-10T10:08:02.773Z</time>
      </trkpt>
      <trkpt lat="46.94953" lon="8.58117">
        <ele>806</ele>
        <time>2021-08-10T10:08:03.773Z</time>
      </trkpt>
      <trkpt lat="46.94952" lon="8.58117">
        <ele>806</ele>
        <time>2021-08-10T10:08:04.773Z</time>
      </trkpt>
      <trkpt lat="46.94951" lon="8.58117">
        <ele>805</ele>
        <time>2021-08-10T10:08:05.773Z</time>
      </trkpt>
      <trkpt lat="46.9495" lon="8.58117">
        <ele>805</ele>
        <time>2021-08-10T10:08:06.772Z</time>
      </trkpt>
      <trkpt lat="46.94948" lon="8.58117">
        <ele>804</ele>
        <time>2021-08-10T10:08:07.772Z</time>
      </trkpt>
      <trkpt lat="46.94947" lon="8.58118">
        <ele>804</ele>
        <time>2021-08-10T10:08:08.773Z</time>
      </trkpt>
      <trkpt lat="46.94946" lon="8.58118">
        <ele>804</ele>
        <time>2021-08-10T10:08:09.773Z</time>
      </trkpt>
      <trkpt lat="46.94945" lon="8.58118">
        <ele>804</ele>
        <time>2021-08-10T10:08:10.773Z</time>
      </trkpt>
      <trkpt lat="46.94944" lon="8.58118">
        <ele>804</ele>
        <time>2021-08-10T10:08:11.772Z</time>
      </trkpt>
      <trkpt lat="46.94943" lon="8.58117">
        <ele>803</ele>
        <time>2021-08-10T10:08:12.772Z</time>
      </trkpt>
      <trkpt lat="46.94942" lon="8.58116">
        <ele>803</ele>
        <time>2021-08-10T10:08:13.773Z</time>
      </trkpt>
      <trkpt lat="46.94941" lon="8.58116">
        <ele>803</ele>
        <time>2021-08-10T10:08:14.772Z</time>
      </trkpt>
      <trkpt lat="46.94939" lon="8.58117">
        <ele>802</ele>
        <time>2021-08-10T10:08:15.772Z</time>
      </trkpt>
      <trkpt lat="46.94938" lon="8.58117">
        <ele>802</ele>
        <time>2021-08-10T10:08:16.772Z</time>
      </trkpt>
      <trkpt lat="46.94936" lon="8.58119">
        <ele>802</ele>
        <time>2021-08-10T10:08:17.772Z</time>
      </trkpt>
      <trkpt lat="46.94933" lon="8.58121">
        <ele>802</ele>
        <time>2021-08-10T10:08:18.772Z</time>
      </trkpt>
      <trkpt lat="46.94932" lon="8.58121">
        <ele>802</ele>
        <time>2021-08-10T10:08:19.772Z</time>
      </trkpt>
      <trkpt lat="46.94931" lon="8.58121">
        <ele>802</ele>
        <time>2021-08-10T10:08:20.773Z</time>
      </trkpt>
      <trkpt lat="46.94929" lon="8.58121">
        <ele>802</ele>
        <time>2021-08-10T10:08:21.773Z</time>
      </trkpt>
      <trkpt lat="46.94927" lon="8.58122">
        <ele>802</ele>
        <time>2021-08-10T10:08:22.772Z</time>
      </trkpt>
      <trkpt lat="46.94925" lon="8.58123">
        <ele>802</ele>
        <time>2021-08-10T10:08:23.772Z</time>
      </trkpt>
      <trkpt lat="46.94924" lon="8.58124">
        <ele>802</ele>
        <time>2021-08-10T10:08:24.772Z</time>
      </trkpt>
      <trkpt lat="46.94923" lon="8.58125">
        <ele>802</ele>
        <time>2021-08-10T10:08:25.772Z</time>
      </trkpt>
      <trkpt lat="46.94921" lon="8.58126">
        <ele>802</ele>
        <time>2021-08-10T10:08:26.772Z</time>
      </trkpt>
      <trkpt lat="46.9492" lon="8.58126">
        <ele>802</ele>
        <time>2021-08-10T10:08:27.772Z</time>
      </trkpt>
      <trkpt lat="46.94919" lon="8.58125">
        <ele>802</ele>
        <time>2021-08-10T10:08:28.772Z</time>
      </trkpt>
      <trkpt lat="46.94919" lon="8.58124">
        <ele>802</ele>
        <time>2021-08-10T10:08:29.772Z</time>
      </trkpt>
      <trkpt lat="46.94918" lon="8.58123">
        <ele>802</ele>
        <time>2021-08-10T10:08:30.772Z</time>
      </trkpt>
      <trkpt lat="46.94917" lon="8.58122">
        <ele>802</ele>
        <time>2021-08-10T10:08:31.772Z</time>
      </trkpt>
      <trkpt lat="46.94916" lon="8.58122">
        <ele>802</ele>
        <time>2021-08-10T10:08:32.772Z</time>
      </trkpt>
      <trkpt lat="46.94916" lon="8.58122">
        <ele>802</ele>
        <time>2021-08-10T10:08:33.772Z</time>
      </trkpt>
      <trkpt lat="46.94915" lon="8.58122">
        <ele>802</ele>
        <time>2021-08-10T10:08:34.772Z</time>
      </trkpt>
      <trkpt lat="46.94914" lon="8.58122">
        <ele>802</ele>
        <time>2021-08-10T10:08:35.772Z</time>
      </trkpt>
      <trkpt lat="46.94913" lon="8.58123">
        <ele>802</ele>
        <time>2021-08-10T10:08:36.772Z</time>
      </trkpt>
      <trkpt lat="46.94912" lon="8.58123">
        <ele>801</ele>
        <time>2021-08-10T10:08:37.773Z</time>
      </trkpt>
      <trkpt lat="46.94911" lon="8.58123">
        <ele>800</ele>
        <time>2021-08-10T10:08:38.772Z</time>
      </trkpt>
      <trkpt lat="46.9491" lon="8.58124">
        <ele>800</ele>
        <time>2021-08-10T10:08:39.772Z</time>
      </trkpt>
      <trkpt lat="46.94909" lon="8.58124">
        <ele>799</ele>
        <time>2021-08-10T10:08:40.773Z</time>
      </trkpt>
      <trkpt lat="46.94907" lon="8.58124">
        <ele>799</ele>
        <time>2021-08-10T10:08:41.772Z</time>
      </trkpt>
      <trkpt lat="46.94906" lon="8.58124">
        <ele>798</ele>
        <time>2021-08-10T10:08:42.773Z</time>
      </trkpt>
      <trkpt lat="46.94904" lon="8.58125">
        <ele>798</ele>
        <time>2021-08-10T10:08:43.772Z</time>
      </trkpt>
      <trkpt lat="46.94902" lon="8.58124">
        <ele>798</ele>
        <time>2021-08-10T10:08:44.772Z</time>
      </trkpt>
      <trkpt lat="46.949" lon="8.58124">
        <ele>798</ele>
        <time>2021-08-10T10:08:45.772Z</time>
      </trkpt>
      <trkpt lat="46.94898" lon="8.58124">
        <ele>797</ele>
        <time>2021-08-10T10:08:46.772Z</time>
      </trkpt>
      <trkpt lat="46.94897" lon="8.58124">
        <ele>797</ele>
        <time>2021-08-10T10:08:47.772Z</time>
      </trkpt>
      <trkpt lat="46.94896" lon="8.58124">
        <ele>797</ele>
        <time>2021-08-10T10:08:48.772Z</time>
      </trkpt>
      <trkpt lat="46.94894" lon="8.58124">
        <ele>797</ele>
        <time>2021-08-10T10:08:49.773Z</time>
      </trkpt>
      <trkpt lat="46.94893" lon="8.58124">
        <ele>796</ele>
        <time>2021-08-10T10:08:50.773Z</time>
      </trkpt>
      <trkpt lat="46.94893" lon="8.58124">
        <ele>796</ele>
        <time>2021-08-10T10:08:51.773Z</time>
      </trkpt>
      <trkpt lat="46.94891" lon="8.58125">
        <ele>796</ele>
        <time>2021-08-10T10:08:52.772Z</time>
      </trkpt>
      <trkpt lat="46.9489" lon="8.58125">
        <ele>795</ele>
        <time>2021-08-10T10:08:53.772Z</time>
      </trkpt>
      <trkpt lat="46.94888" lon="8.58125">
        <ele>795</ele>
        <time>2021-08-10T10:08:54.772Z</time>
      </trkpt>
      <trkpt lat="46.94887" lon="8.58124">
        <ele>794</ele>
        <time>2021-08-10T10:08:55.772Z</time>
      </trkpt>
      <trkpt lat="46.94885" lon="8.58123">
        <ele>794</ele>
        <time>2021-08-10T10:08:56.772Z</time>
      </trkpt>
      <trkpt lat="46.94884" lon="8.58123">
        <ele>794</ele>
        <time>2021-08-10T10:08:57.772Z</time>
      </trkpt>
      <trkpt lat="46.94883" lon="8.58123">
        <ele>793</ele>
        <time>2021-08-10T10:08:58.772Z</time>
      </trkpt>
      <trkpt lat="46.94881" lon="8.58123">
        <ele>793</ele>
        <time>2021-08-10T10:08:59.772Z</time>
      </trkpt>
      <trkpt lat="46.9488" lon="8.58123">
        <ele>793</ele>
        <time>2021-08-10T10:09:00.773Z</time>
      </trkpt>
      <trkpt lat="46.94879" lon="8.58122">
        <ele>793</ele>
        <time>2021-08-10T10:09:01.772Z</time>
      </trkpt>
      <trkpt lat="46.94879" lon="8.58121">
        <ele>793</ele>
        <time>2021-08-10T10:09:02.772Z</time>
      </trkpt>
      <trkpt lat="46.94878" lon="8.5812">
        <ele>793</ele>
        <time>2021-08-10T10:09:03.772Z</time>
      </trkpt>
      <trkpt lat="46.94877" lon="8.58119">
        <ele>792</ele>
        <time>2021-08-10T10:09:04.772Z</time>
      </trkpt>
      <trkpt lat="46.94877" lon="8.58117">
        <ele>792</ele>
        <time>2021-08-10T10:09:05.772Z</time>
      </trkpt>
      <trkpt lat="46.94876" lon="8.58115">
        <ele>791</ele>
        <time>2021-08-10T10:09:06.773Z</time>
      </trkpt>
      <trkpt lat="46.94875" lon="8.58114">
        <ele>791</ele>
        <time>2021-08-10T10:09:07.772Z</time>
      </trkpt>
      <trkpt lat="46.94875" lon="8.58113">
        <ele>791</ele>
        <time>2021-08-10T10:09:08.772Z</time>
      </trkpt>
      <trkpt lat="46.94874" lon="8.58113">
        <ele>790</ele>
        <time>2021-08-10T10:09:09.772Z</time>
      </trkpt>
      <trkpt lat="46.94873" lon="8.58112">
        <ele>790</ele>
        <time>2021-08-10T10:09:10.773Z</time>
      </trkpt>
      <trkpt lat="46.94872" lon="8.58111">
        <ele>790</ele>
        <time>2021-08-10T10:09:11.772Z</time>
      </trkpt>
      <trkpt lat="46.94871" lon="8.58108">
        <ele>790</ele>
        <time>2021-08-10T10:09:12.772Z</time>
      </trkpt>
      <trkpt lat="46.9487" lon="8.58106">
        <ele>790</ele>
        <time>2021-08-10T10:09:13.772Z</time>
      </trkpt>
      <trkpt lat="46.94869" lon="8.58106">
        <ele>789</ele>
        <time>2021-08-10T10:09:14.772Z</time>
      </trkpt>
      <trkpt lat="46.94868" lon="8.58106">
        <ele>789</ele>
        <time>2021-08-10T10:09:15.772Z</time>
      </trkpt>
      <trkpt lat="46.94867" lon="8.58106">
        <ele>789</ele>
        <time>2021-08-10T10:09:16.773Z</time>
      </trkpt>
      <trkpt lat="46.94867" lon="8.58106">
        <ele>789</ele>
        <time>2021-08-10T10:09:17.772Z</time>
      </trkpt>
      <trkpt lat="46.94866" lon="8.58106">
        <ele>789</ele>
        <time>2021-08-10T10:09:18.772Z</time>
      </trkpt>
      <trkpt lat="46.94865" lon="8.58107">
        <ele>789</ele>
        <time>2021-08-10T10:09:19.773Z</time>
      </trkpt>
      <trkpt lat="46.94864" lon="8.58107">
        <ele>789</ele>
        <time>2021-08-10T10:09:20.772Z</time>
      </trkpt>
      <trkpt lat="46.94863" lon="8.58107">
        <ele>789</ele>
        <time>2021-08-10T10:09:21.772Z</time>
      </trkpt>
      <trkpt lat="46.94861" lon="8.58107">
        <ele>789</ele>
        <time>2021-08-10T10:09:22.772Z</time>
      </trkpt>
      <trkpt lat="46.9486" lon="8.58107">
        <ele>789</ele>
        <time>2021-08-10T10:09:23.772Z</time>
      </trkpt>
      <trkpt lat="46.94859" lon="8.58107">
        <ele>789</ele>
        <time>2021-08-10T10:09:24.773Z</time>
      </trkpt>
      <trkpt lat="46.94857" lon="8.58106">
        <ele>789</ele>
        <time>2021-08-10T10:09:25.772Z</time>
      </trkpt>
      <trkpt lat="46.94856" lon="8.58105">
        <ele>789</ele>
        <time>2021-08-10T10:09:26.772Z</time>
      </trkpt>
      <trkpt lat="46.94855" lon="8.58104">
        <ele>789</ele>
        <time>2021-08-10T10:09:27.772Z</time>
      </trkpt>
      <trkpt lat="46.94854" lon="8.58102">
        <ele>789</ele>
        <time>2021-08-10T10:09:28.772Z</time>
      </trkpt>
      <trkpt lat="46.94854" lon="8.58101">
        <ele>789</ele>
        <time>2021-08-10T10:09:29.773Z</time>
      </trkpt>
      <trkpt lat="46.94853" lon="8.581">
        <ele>789</ele>
        <time>2021-08-10T10:09:30.773Z</time>
      </trkpt>
      <trkpt lat="46.94852" lon="8.58099">
        <ele>788</ele>
        <time>2021-08-10T10:09:31.772Z</time>
      </trkpt>
      <trkpt lat="46.9485" lon="8.58098">
        <ele>788</ele>
        <time>2021-08-10T10:09:32.773Z</time>
      </trkpt>
      <trkpt lat="46.94849" lon="8.58097">
        <ele>788</ele>
        <time>2021-08-10T10:09:33.773Z</time>
      </trkpt>
      <trkpt lat="46.94848" lon="8.58096">
        <ele>787</ele>
        <time>2021-08-10T10:09:34.773Z</time>
      </trkpt>
      <trkpt lat="46.94846" lon="8.58095">
        <ele>787</ele>
        <time>2021-08-10T10:09:35.773Z</time>
      </trkpt>
      <trkpt lat="46.94845" lon="8.58094">
        <ele>787</ele>
        <time>2021-08-10T10:09:36.773Z</time>
      </trkpt>
      <trkpt lat="46.94844" lon="8.58093">
        <ele>786</ele>
        <time>2021-08-10T10:09:37.773Z</time>
      </trkpt>
      <trkpt lat="46.94842" lon="8.58093">
        <ele>786</ele>
        <time>2021-08-10T10:09:38.772Z</time>
      </trkpt>
      <trkpt lat="46.9484" lon="8.58092">
        <ele>786</ele>
        <time>2021-08-10T10:09:39.773Z</time>
      </trkpt>
      <trkpt lat="46.94839" lon="8.58091">
        <ele>786</ele>
        <time>2021-08-10T10:09:40.773Z</time>
      </trkpt>
      <trkpt lat="46.94838" lon="8.58091">
        <ele>786</ele>
        <time>2021-08-10T10:09:41.773Z</time>
      </trkpt>
      <trkpt lat="46.94837" lon="8.58091">
        <ele>785</ele>
        <time>2021-08-10T10:09:42.773Z</time>
      </trkpt>
      <trkpt lat="46.94835" lon="8.5809">
        <ele>784</ele>
        <time>2021-08-10T10:09:43.773Z</time>
      </trkpt>
      <trkpt lat="46.94834" lon="8.58088">
        <ele>784</ele>
        <time>2021-08-10T10:09:44.772Z</time>
      </trkpt>
      <trkpt lat="46.94832" lon="8.58086">
        <ele>783</ele>
        <time>2021-08-10T10:09:45.773Z</time>
      </trkpt>
      <trkpt lat="46.9483" lon="8.58084">
        <ele>783</ele>
        <time>2021-08-10T10:09:46.773Z</time>
      </trkpt>
      <trkpt lat="46.94828" lon="8.58082">
        <ele>783</ele>
        <time>2021-08-10T10:09:47.772Z</time>
      </trkpt>
      <trkpt lat="46.94827" lon="8.58081">
        <ele>782</ele>
        <time>2021-08-10T10:09:48.772Z</time>
      </trkpt>
      <trkpt lat="46.94826" lon="8.58081">
        <ele>782</ele>
        <time>2021-08-10T10:09:49.772Z</time>
      </trkpt>
      <trkpt lat="46.94825" lon="8.5808">
        <ele>782</ele>
        <time>2021-08-10T10:09:50.773Z</time>
      </trkpt>
      <trkpt lat="46.94824" lon="8.58079">
        <ele>781</ele>
        <time>2021-08-10T10:09:51.773Z</time>
      </trkpt>
      <trkpt lat="46.94823" lon="8.58078">
        <ele>781</ele>
        <time>2021-08-10T10:09:52.773Z</time>
      </trkpt>
      <trkpt lat="46.94822" lon="8.58077">
        <ele>780</ele>
        <time>2021-08-10T10:09:53.773Z</time>
      </trkpt>
      <trkpt lat="46.94821" lon="8.58077">
        <ele>780</ele>
        <time>2021-08-10T10:09:54.772Z</time>
      </trkpt>
      <trkpt lat="46.94819" lon="8.58076">
        <ele>779</ele>
        <time>2021-08-10T10:09:55.773Z</time>
      </trkpt>
      <trkpt lat="46.94818" lon="8.58076">
        <ele>779</ele>
        <time>2021-08-10T10:09:56.773Z</time>
      </trkpt>
      <trkpt lat="46.94817" lon="8.58075">
        <ele>779</ele>
        <time>2021-08-10T10:09:57.772Z</time>
      </trkpt>
      <trkpt lat="46.94816" lon="8.58074">
        <ele>779</ele>
        <time>2021-08-10T10:09:58.773Z</time>
      </trkpt>
      <trkpt lat="46.94814" lon="8.58073">
        <ele>778</ele>
        <time>2021-08-10T10:09:59.773Z</time>
      </trkpt>
      <trkpt lat="46.94813" lon="8.58072">
        <ele>778</ele>
        <time>2021-08-10T10:10:00.773Z</time>
      </trkpt>
      <trkpt lat="46.94812" lon="8.58072">
        <ele>779</ele>
        <time>2021-08-10T10:10:01.773Z</time>
      </trkpt>
      <trkpt lat="46.9481" lon="8.58072">
        <ele>779</ele>
        <time>2021-08-10T10:10:02.773Z</time>
      </trkpt>
      <trkpt lat="46.94808" lon="8.58072">
        <ele>779</ele>
        <time>2021-08-10T10:10:03.773Z</time>
      </trkpt>
      <trkpt lat="46.94807" lon="8.58071">
        <ele>779</ele>
        <time>2021-08-10T10:10:04.773Z</time>
      </trkpt>
      <trkpt lat="46.94806" lon="8.58071">
        <ele>780</ele>
        <time>2021-08-10T10:10:05.772Z</time>
      </trkpt>
      <trkpt lat="46.94805" lon="8.5807">
        <ele>780</ele>
        <time>2021-08-10T10:10:06.773Z</time>
      </trkpt>
      <trkpt lat="46.94804" lon="8.5807">
        <ele>780</ele>
        <time>2021-08-10T10:10:07.773Z</time>
      </trkpt>
      <trkpt lat="46.94803" lon="8.5807">
        <ele>780</ele>
        <time>2021-08-10T10:10:08.772Z</time>
      </trkpt>
      <trkpt lat="46.94802" lon="8.58069">
        <ele>780</ele>
        <time>2021-08-10T10:10:09.773Z</time>
      </trkpt>
      <trkpt lat="46.94801" lon="8.58068">
        <ele>780</ele>
        <time>2021-08-10T10:10:10.773Z</time>
      </trkpt>
      <trkpt lat="46.948" lon="8.58067">
        <ele>780</ele>
        <time>2021-08-10T10:10:11.773Z</time>
      </trkpt>
      <trkpt lat="46.94799" lon="8.58067">
        <ele>780</ele>
        <time>2021-08-10T10:10:12.772Z</time>
      </trkpt>
      <trkpt lat="46.94798" lon="8.58066">
        <ele>779</ele>
        <time>2021-08-10T10:10:13.773Z</time>
      </trkpt>
      <trkpt lat="46.94797" lon="8.58066">
        <ele>779</ele>
        <time>2021-08-10T10:10:14.772Z</time>
      </trkpt>
      <trkpt lat="46.94795" lon="8.58065">
        <ele>779</ele>
        <time>2021-08-10T10:10:15.772Z</time>
      </trkpt>
      <trkpt lat="46.94794" lon="8.58065">
        <ele>778</ele>
        <time>2021-08-10T10:10:16.773Z</time>
      </trkpt>
      <trkpt lat="46.94793" lon="8.58064">
        <ele>778</ele>
        <time>2021-08-10T10:10:17.773Z</time>
      </trkpt>
      <trkpt lat="46.94791" lon="8.58064">
        <ele>777</ele>
        <time>2021-08-10T10:10:18.772Z</time>
      </trkpt>
      <trkpt lat="46.9479" lon="8.58063">
        <ele>777</ele>
        <time>2021-08-10T10:10:19.772Z</time>
      </trkpt>
      <trkpt lat="46.94789" lon="8.58063">
        <ele>776</ele>
        <time>2021-08-10T10:10:20.773Z</time>
      </trkpt>
      <trkpt lat="46.94788" lon="8.58063">
        <ele>776</ele>
        <time>2021-08-10T10:10:21.773Z</time>
      </trkpt>
      <trkpt lat="46.94787" lon="8.58063">
        <ele>775</ele>
        <time>2021-08-10T10:10:22.772Z</time>
      </trkpt>
      <trkpt lat="46.94786" lon="8.58062">
        <ele>775</ele>
        <time>2021-08-10T10:10:23.773Z</time>
      </trkpt>
      <trkpt lat="46.94784" lon="8.58062">
        <ele>775</ele>
        <time>2021-08-10T10:10:24.773Z</time>
      </trkpt>
      <trkpt lat="46.94783" lon="8.58061">
        <ele>775</ele>
        <time>2021-08-10T10:10:25.773Z</time>
      </trkpt>
      <trkpt lat="46.94783" lon="8.58061">
        <ele>774</ele>
        <time>2021-08-10T10:10:26.772Z</time>
      </trkpt>
      <trkpt lat="46.94782" lon="8.58061">
        <ele>774</ele>
        <time>2021-08-10T10:10:27.773Z</time>
      </trkpt>
      <trkpt lat="46.94781" lon="8.5806">
        <ele>773</ele>
        <time>2021-08-10T10:10:28.773Z</time>
      </trkpt>
      <trkpt lat="46.9478" lon="8.5806">
        <ele>773</ele>
        <time>2021-08-10T10:10:29.773Z</time>
      </trkpt>
      <trkpt lat="46.94779" lon="8.58059">
        <ele>772</ele>
        <time>2021-08-10T10:10:30.773Z</time>
      </trkpt>
      <trkpt lat="46.94778" lon="8.58059">
        <ele>772</ele>
        <time>2021-08-10T10:10:31.772Z</time>
      </trkpt>
      <trkpt lat="46.94777" lon="8.58059">
        <ele>772</ele>
        <time>2021-08-10T10:10:32.773Z</time>
      </trkpt>
      <trkpt lat="46.94776" lon="8.58059">
        <ele>772</ele>
        <time>2021-08-10T10:10:33.773Z</time>
      </trkpt>
      <trkpt lat="46.94774" lon="8.58059">
        <ele>772</ele>
        <time>2021-08-10T10:10:34.772Z</time>
      </trkpt>
      <trkpt lat="46.94773" lon="8.58058">
        <ele>772</ele>
        <time>2021-08-10T10:10:35.773Z</time>
      </trkpt>
      <trkpt lat="46.94773" lon="8.58058">
        <ele>772</ele>
        <time>2021-08-10T10:10:36.772Z</time>
      </trkpt>
      <trkpt lat="46.94772" lon="8.58058">
        <ele>772</ele>
        <time>2021-08-10T10:10:37.773Z</time>
      </trkpt>
      <trkpt lat="46.9477" lon="8.58057">
        <ele>772</ele>
        <time>2021-08-10T10:10:38.773Z</time>
      </trkpt>
      <trkpt lat="46.94769" lon="8.58056">
        <ele>772</ele>
        <time>2021-08-10T10:10:39.772Z</time>
      </trkpt>
      <trkpt lat="46.94767" lon="8.58055">
        <ele>772</ele>
        <time>2021-08-10T10:10:40.773Z</time>
      </trkpt>
      <trkpt lat="46.94766" lon="8.58056">
        <ele>772</ele>
        <time>2021-08-10T10:10:41.773Z</time>
      </trkpt>
      <trkpt lat="46.94765" lon="8.58055">
        <ele>772</ele>
        <time>2021-08-10T10:10:42.772Z</time>
      </trkpt>
      <trkpt lat="46.94764" lon="8.58055">
        <ele>772</ele>
        <time>2021-08-10T10:10:43.773Z</time>
      </trkpt>
      <trkpt lat="46.94763" lon="8.58054">
        <ele>772</ele>
        <time>2021-08-10T10:10:44.773Z</time>
      </trkpt>
      <trkpt lat="46.94762" lon="8.58054">
        <ele>772</ele>
        <time>2021-08-10T10:10:45.773Z</time>
      </trkpt>
      <trkpt lat="46.94761" lon="8.58053">
        <ele>772</ele>
        <time>2021-08-10T10:10:46.772Z</time>
      </trkpt>
      <trkpt lat="46.9476" lon="8.58053">
        <ele>772</ele>
        <time>2021-08-10T10:10:47.773Z</time>
      </trkpt>
      <trkpt lat="46.94759" lon="8.58052">
        <ele>772</ele>
        <time>2021-08-10T10:10:48.772Z</time>
      </trkpt>
      <trkpt lat="46.94758" lon="8.58052">
        <ele>772</ele>
        <time>2021-08-10T10:10:49.773Z</time>
      </trkpt>
      <trkpt lat="46.94757" lon="8.58051">
        <ele>772</ele>
        <time>2021-08-10T10:10:50.773Z</time>
      </trkpt>
      <trkpt lat="46.94757" lon="8.5805">
        <ele>772</ele>
        <time>2021-08-10T10:10:51.773Z</time>
      </trkpt>
      <trkpt lat="46.94756" lon="8.5805">
        <ele>772</ele>
        <time>2021-08-10T10:10:52.772Z</time>
      </trkpt>
      <trkpt lat="46.94754" lon="8.58049">
        <ele>773</ele>
        <time>2021-08-10T10:10:53.772Z</time>
      </trkpt>
      <trkpt lat="46.94752" lon="8.58048">
        <ele>773</ele>
        <time>2021-08-10T10:10:54.773Z</time>
      </trkpt>
      <trkpt lat="46.94751" lon="8.58046">
        <ele>774</ele>
        <time>2021-08-10T10:10:55.773Z</time>
      </trkpt>
      <trkpt lat="46.9475" lon="8.58045">
        <ele>775</ele>
        <time>2021-08-10T10:10:56.772Z</time>
      </trkpt>
      <trkpt lat="46.94749" lon="8.58045">
        <ele>775</ele>
        <time>2021-08-10T10:10:57.773Z</time>
      </trkpt>
      <trkpt lat="46.94748" lon="8.58044">
        <ele>775</ele>
        <time>2021-08-10T10:10:58.773Z</time>
      </trkpt>
      <trkpt lat="46.94748" lon="8.58044">
        <ele>775</ele>
        <time>2021-08-10T10:10:59.773Z</time>
      </trkpt>
      <trkpt lat="46.94747" lon="8.58043">
        <ele>775</ele>
        <time>2021-08-10T10:11:00.773Z</time>
      </trkpt>
      <trkpt lat="46.94746" lon="8.58041">
        <ele>774</ele>
        <time>2021-08-10T10:11:01.773Z</time>
      </trkpt>
      <trkpt lat="46.94745" lon="8.58039">
        <ele>774</ele>
        <time>2021-08-10T10:11:02.773Z</time>
      </trkpt>
      <trkpt lat="46.94744" lon="8.58038">
        <ele>773</ele>
        <time>2021-08-10T10:11:03.772Z</time>
      </trkpt>
      <trkpt lat="46.94743" lon="8.58037">
        <ele>773</ele>
        <time>2021-08-10T10:11:04.773Z</time>
      </trkpt>
      <trkpt lat="46.94742" lon="8.58036">
        <ele>774</ele>
        <time>2021-08-10T10:11:05.773Z</time>
      </trkpt>
      <trkpt lat="46.9474" lon="8.58034">
        <ele>774</ele>
        <time>2021-08-10T10:11:06.772Z</time>
      </trkpt>
      <trkpt lat="46.94739" lon="8.58033">
        <ele>775</ele>
        <time>2021-08-10T10:11:07.773Z</time>
      </trkpt>
      <trkpt lat="46.94739" lon="8.58032">
        <ele>775</ele>
        <time>2021-08-10T10:11:08.772Z</time>
      </trkpt>
      <trkpt lat="46.94738" lon="8.58031">
        <ele>775</ele>
        <time>2021-08-10T10:11:09.773Z</time>
      </trkpt>
      <trkpt lat="46.94737" lon="8.58029">
        <ele>775</ele>
        <time>2021-08-10T10:11:10.773Z</time>
      </trkpt>
      <trkpt lat="46.94737" lon="8.58028">
        <ele>774</ele>
        <time>2021-08-10T10:11:11.772Z</time>
      </trkpt>
      <trkpt lat="46.94737" lon="8.58027">
        <ele>774</ele>
        <time>2021-08-10T10:11:12.772Z</time>
      </trkpt>
      <trkpt lat="46.94735" lon="8.58027">
        <ele>774</ele>
        <time>2021-08-10T10:11:13.773Z</time>
      </trkpt>
      <trkpt lat="46.94734" lon="8.58026">
        <ele>773</ele>
        <time>2021-08-10T10:11:14.773Z</time>
      </trkpt>
      <trkpt lat="46.94734" lon="8.58024">
        <ele>773</ele>
        <time>2021-08-10T10:11:15.773Z</time>
      </trkpt>
      <trkpt lat="46.94733" lon="8.58023">
        <ele>773</ele>
        <time>2021-08-10T10:11:16.772Z</time>
      </trkpt>
      <trkpt lat="46.94733" lon="8.58022">
        <ele>773</ele>
        <time>2021-08-10T10:11:17.773Z</time>
      </trkpt>
      <trkpt lat="46.94732" lon="8.5802">
        <ele>772</ele>
        <time>2021-08-10T10:11:18.773Z</time>
      </trkpt>
      <trkpt lat="46.94731" lon="8.58019">
        <ele>772</ele>
        <time>2021-08-10T10:11:19.773Z</time>
      </trkpt>
      <trkpt lat="46.9473" lon="8.58018">
        <ele>772</ele>
        <time>2021-08-10T10:11:20.772Z</time>
      </trkpt>
      <trkpt lat="46.94729" lon="8.58016">
        <ele>771</ele>
        <time>2021-08-10T10:11:21.773Z</time>
      </trkpt>
      <trkpt lat="46.94728" lon="8.58015">
        <ele>771</ele>
        <time>2021-08-10T10:11:22.772Z</time>
      </trkpt>
      <trkpt lat="46.94728" lon="8.58014">
        <ele>771</ele>
        <time>2021-08-10T10:11:23.773Z</time>
      </trkpt>
      <trkpt lat="46.94728" lon="8.58012">
        <ele>771</ele>
        <time>2021-08-10T10:11:24.773Z</time>
      </trkpt>
      <trkpt lat="46.94727" lon="8.58011">
        <ele>770</ele>
        <time>2021-08-10T10:11:25.773Z</time>
      </trkpt>
      <trkpt lat="46.94727" lon="8.5801">
        <ele>770</ele>
        <time>2021-08-10T10:11:26.773Z</time>
      </trkpt>
      <trkpt lat="46.94726" lon="8.58008">
        <ele>770</ele>
        <time>2021-08-10T10:11:27.773Z</time>
      </trkpt>
      <trkpt lat="46.94726" lon="8.58007">
        <ele>770</ele>
        <time>2021-08-10T10:11:28.773Z</time>
      </trkpt>
      <trkpt lat="46.94725" lon="8.58006">
        <ele>769</ele>
        <time>2021-08-10T10:11:29.773Z</time>
      </trkpt>
      <trkpt lat="46.94724" lon="8.58005">
        <ele>769</ele>
        <time>2021-08-10T10:11:30.772Z</time>
      </trkpt>
      <trkpt lat="46.94724" lon="8.58003">
        <ele>769</ele>
        <time>2021-08-10T10:11:31.773Z</time>
      </trkpt>
      <trkpt lat="46.94723" lon="8.58002">
        <ele>768</ele>
        <time>2021-08-10T10:11:32.773Z</time>
      </trkpt>
      <trkpt lat="46.94722" lon="8.58001">
        <ele>767</ele>
        <time>2021-08-10T10:11:33.773Z</time>
      </trkpt>
      <trkpt lat="46.94722" lon="8.57999">
        <ele>766</ele>
        <time>2021-08-10T10:11:34.773Z</time>
      </trkpt>
      <trkpt lat="46.94721" lon="8.57998">
        <ele>766</ele>
        <time>2021-08-10T10:11:35.773Z</time>
      </trkpt>
      <trkpt lat="46.94721" lon="8.57996">
        <ele>765</ele>
        <time>2021-08-10T10:11:36.773Z</time>
      </trkpt>
      <trkpt lat="46.9472" lon="8.57995">
        <ele>764</ele>
        <time>2021-08-10T10:11:37.772Z</time>
      </trkpt>
      <trkpt lat="46.9472" lon="8.57994">
        <ele>763</ele>
        <time>2021-08-10T10:11:38.773Z</time>
      </trkpt>
      <trkpt lat="46.94719" lon="8.57993">
        <ele>762</ele>
        <time>2021-08-10T10:11:39.773Z</time>
      </trkpt>
      <trkpt lat="46.94718" lon="8.57992">
        <ele>762</ele>
        <time>2021-08-10T10:11:40.773Z</time>
      </trkpt>
      <trkpt lat="46.94718" lon="8.57991">
        <ele>762</ele>
        <time>2021-08-10T10:11:41.773Z</time>
      </trkpt>
      <trkpt lat="46.94717" lon="8.5799">
        <ele>762</ele>
        <time>2021-08-10T10:11:42.773Z</time>
      </trkpt>
      <trkpt lat="46.94716" lon="8.57989">
        <ele>761</ele>
        <time>2021-08-10T10:11:43.772Z</time>
      </trkpt>
      <trkpt lat="46.94716" lon="8.57988">
        <ele>761</ele>
        <time>2021-08-10T10:11:44.772Z</time>
      </trkpt>
      <trkpt lat="46.94715" lon="8.57987">
        <ele>761</ele>
        <time>2021-08-10T10:11:45.773Z</time>
      </trkpt>
      <trkpt lat="46.94714" lon="8.57986">
        <ele>761</ele>
        <time>2021-08-10T10:11:46.773Z</time>
      </trkpt>
      <trkpt lat="46.94713" lon="8.57985">
        <ele>761</ele>
        <time>2021-08-10T10:11:47.773Z</time>
      </trkpt>
      <trkpt lat="46.94712" lon="8.57984">
        <ele>761</ele>
        <time>2021-08-10T10:11:48.773Z</time>
      </trkpt>
      <trkpt lat="46.94711" lon="8.57983">
        <ele>761</ele>
        <time>2021-08-10T10:11:49.773Z</time>
      </trkpt>
      <trkpt lat="46.9471" lon="8.57983">
        <ele>761</ele>
        <time>2021-08-10T10:11:50.772Z</time>
      </trkpt>
      <trkpt lat="46.9471" lon="8.57981">
        <ele>761</ele>
        <time>2021-08-10T10:11:51.772Z</time>
      </trkpt>
      <trkpt lat="46.9471" lon="8.57979">
        <ele>761</ele>
        <time>2021-08-10T10:11:52.773Z</time>
      </trkpt>
      <trkpt lat="46.94709" lon="8.57978">
        <ele>761</ele>
        <time>2021-08-10T10:11:53.773Z</time>
      </trkpt>
      <trkpt lat="46.94708" lon="8.57976">
        <ele>761</ele>
        <time>2021-08-10T10:11:54.772Z</time>
      </trkpt>
      <trkpt lat="46.94707" lon="8.57975">
        <ele>761</ele>
        <time>2021-08-10T10:11:55.773Z</time>
      </trkpt>
      <trkpt lat="46.94706" lon="8.57974">
        <ele>762</ele>
        <time>2021-08-10T10:11:56.773Z</time>
      </trkpt>
      <trkpt lat="46.94705" lon="8.57973">
        <ele>763</ele>
        <time>2021-08-10T10:11:57.772Z</time>
      </trkpt>
      <trkpt lat="46.94704" lon="8.57972">
        <ele>763</ele>
        <time>2021-08-10T10:11:58.773Z</time>
      </trkpt>
      <trkpt lat="46.94702" lon="8.5797">
        <ele>764</ele>
        <time>2021-08-10T10:11:59.773Z</time>
      </trkpt>
      <trkpt lat="46.94701" lon="8.57969">
        <ele>765</ele>
        <time>2021-08-10T10:12:00.773Z</time>
      </trkpt>
      <trkpt lat="46.947" lon="8.57968">
        <ele>765</ele>
        <time>2021-08-10T10:12:01.773Z</time>
      </trkpt>
      <trkpt lat="46.94699" lon="8.57967">
        <ele>765</ele>
        <time>2021-08-10T10:12:02.773Z</time>
      </trkpt>
      <trkpt lat="46.94698" lon="8.57965">
        <ele>765</ele>
        <time>2021-08-10T10:12:03.772Z</time>
      </trkpt>
      <trkpt lat="46.94697" lon="8.57964">
        <ele>764</ele>
        <time>2021-08-10T10:12:04.773Z</time>
      </trkpt>
      <trkpt lat="46.94696" lon="8.57963">
        <ele>764</ele>
        <time>2021-08-10T10:12:05.773Z</time>
      </trkpt>
      <trkpt lat="46.94694" lon="8.57963">
        <ele>764</ele>
        <time>2021-08-10T10:12:06.773Z</time>
      </trkpt>
      <trkpt lat="46.94693" lon="8.57962">
        <ele>764</ele>
        <time>2021-08-10T10:12:07.772Z</time>
      </trkpt>
      <trkpt lat="46.94692" lon="8.57962">
        <ele>764</ele>
        <time>2021-08-10T10:12:08.773Z</time>
      </trkpt>
      <trkpt lat="46.9469" lon="8.57961">
        <ele>764</ele>
        <time>2021-08-10T10:12:09.772Z</time>
      </trkpt>
      <trkpt lat="46.94689" lon="8.57961">
        <ele>764</ele>
        <time>2021-08-10T10:12:10.773Z</time>
      </trkpt>
      <trkpt lat="46.94688" lon="8.5796">
        <ele>763</ele>
        <time>2021-08-10T10:12:11.773Z</time>
      </trkpt>
      <trkpt lat="46.94687" lon="8.5796">
        <ele>763</ele>
        <time>2021-08-10T10:12:12.773Z</time>
      </trkpt>
      <trkpt lat="46.94686" lon="8.57959">
        <ele>763</ele>
        <time>2021-08-10T10:12:13.773Z</time>
      </trkpt>
      <trkpt lat="46.94685" lon="8.57959">
        <ele>764</ele>
        <time>2021-08-10T10:12:14.773Z</time>
      </trkpt>
      <trkpt lat="46.94684" lon="8.57958">
        <ele>764</ele>
        <time>2021-08-10T10:12:15.773Z</time>
      </trkpt>
      <trkpt lat="46.94682" lon="8.57957">
        <ele>764</ele>
        <time>2021-08-10T10:12:16.773Z</time>
      </trkpt>
      <trkpt lat="46.94681" lon="8.57957">
        <ele>764</ele>
        <time>2021-08-10T10:12:17.773Z</time>
      </trkpt>
      <trkpt lat="46.9468" lon="8.57956">
        <ele>764</ele>
        <time>2021-08-10T10:12:18.773Z</time>
      </trkpt>
      <trkpt lat="46.94678" lon="8.57956">
        <ele>764</ele>
        <time>2021-08-10T10:12:19.772Z</time>
      </trkpt>
      <trkpt lat="46.94677" lon="8.57956">
        <ele>764</ele>
        <time>2021-08-10T10:12:20.773Z</time>
      </trkpt>
      <trkpt lat="46.94676" lon="8.57955">
        <ele>764</ele>
        <time>2021-08-10T10:12:21.773Z</time>
      </trkpt>
      <trkpt lat="46.94674" lon="8.57955">
        <ele>764</ele>
        <time>2021-08-10T10:12:22.773Z</time>
      </trkpt>
      <trkpt lat="46.94673" lon="8.57955">
        <ele>764</ele>
        <time>2021-08-10T10:12:23.773Z</time>
      </trkpt>
      <trkpt lat="46.94672" lon="8.57955">
        <ele>763</ele>
        <time>2021-08-10T10:12:24.773Z</time>
      </trkpt>
      <trkpt lat="46.94671" lon="8.57955">
        <ele>763</ele>
        <time>2021-08-10T10:12:25.772Z</time>
      </trkpt>
      <trkpt lat="46.9467" lon="8.57955">
        <ele>763</ele>
        <time>2021-08-10T10:12:26.773Z</time>
      </trkpt>
      <trkpt lat="46.94669" lon="8.57956">
        <ele>762</ele>
        <time>2021-08-10T10:12:27.772Z</time>
      </trkpt>
      <trkpt lat="46.94668" lon="8.57957">
        <ele>763</ele>
        <time>2021-08-10T10:12:28.773Z</time>
      </trkpt>
      <trkpt lat="46.94667" lon="8.57957">
        <ele>763</ele>
        <time>2021-08-10T10:12:29.772Z</time>
      </trkpt>
      <trkpt lat="46.94665" lon="8.57957">
        <ele>763</ele>
        <time>2021-08-10T10:12:30.772Z</time>
      </trkpt>
      <trkpt lat="46.94664" lon="8.57957">
        <ele>763</ele>
        <time>2021-08-10T10:12:31.772Z</time>
      </trkpt>
      <trkpt lat="46.94663" lon="8.57957">
        <ele>763</ele>
        <time>2021-08-10T10:12:32.772Z</time>
      </trkpt>
      <trkpt lat="46.94661" lon="8.57958">
        <ele>763</ele>
        <time>2021-08-10T10:12:33.773Z</time>
      </trkpt>
      <trkpt lat="46.94659" lon="8.57959">
        <ele>763</ele>
        <time>2021-08-10T10:12:34.773Z</time>
      </trkpt>
      <trkpt lat="46.94657" lon="8.57959">
        <ele>763</ele>
        <time>2021-08-10T10:12:35.772Z</time>
      </trkpt>
      <trkpt lat="46.94656" lon="8.57959">
        <ele>763</ele>
        <time>2021-08-10T10:12:36.773Z</time>
      </trkpt>
      <trkpt lat="46.94654" lon="8.5796">
        <ele>763</ele>
        <time>2021-08-10T10:12:37.773Z</time>
      </trkpt>
      <trkpt lat="46.94653" lon="8.57961">
        <ele>763</ele>
        <time>2021-08-10T10:12:38.773Z</time>
      </trkpt>
      <trkpt lat="46.94652" lon="8.57962">
        <ele>763</ele>
        <time>2021-08-10T10:12:39.773Z</time>
      </trkpt>
      <trkpt lat="46.9465" lon="8.57962">
        <ele>763</ele>
        <time>2021-08-10T10:12:40.773Z</time>
      </trkpt>
      <trkpt lat="46.94649" lon="8.57963">
        <ele>763</ele>
        <time>2021-08-10T10:12:41.773Z</time>
      </trkpt>
      <trkpt lat="46.94648" lon="8.57964">
        <ele>762</ele>
        <time>2021-08-10T10:12:42.772Z</time>
      </trkpt>
      <trkpt lat="46.94647" lon="8.57965">
        <ele>762</ele>
        <time>2021-08-10T10:12:43.773Z</time>
      </trkpt>
      <trkpt lat="46.94645" lon="8.57966">
        <ele>761</ele>
        <time>2021-08-10T10:12:44.772Z</time>
      </trkpt>
      <trkpt lat="46.94644" lon="8.57968">
        <ele>761</ele>
        <time>2021-08-10T10:12:45.773Z</time>
      </trkpt>
      <trkpt lat="46.94643" lon="8.57969">
        <ele>760</ele>
        <time>2021-08-10T10:12:46.773Z</time>
      </trkpt>
      <trkpt lat="46.94642" lon="8.5797">
        <ele>760</ele>
        <time>2021-08-10T10:12:47.772Z</time>
      </trkpt>
      <trkpt lat="46.94641" lon="8.57971">
        <ele>759</ele>
        <time>2021-08-10T10:12:48.773Z</time>
      </trkpt>
      <trkpt lat="46.94641" lon="8.57973">
        <ele>758</ele>
        <time>2021-08-10T10:12:49.773Z</time>
      </trkpt>
      <trkpt lat="46.9464" lon="8.57974">
        <ele>758</ele>
        <time>2021-08-10T10:12:50.773Z</time>
      </trkpt>
      <trkpt lat="46.94639" lon="8.57976">
        <ele>758</ele>
        <time>2021-08-10T10:12:51.772Z</time>
      </trkpt>
      <trkpt lat="46.94638" lon="8.57978">
        <ele>758</ele>
        <time>2021-08-10T10:12:52.773Z</time>
      </trkpt>
      <trkpt lat="46.94637" lon="8.57979">
        <ele>758</ele>
        <time>2021-08-10T10:12:53.772Z</time>
      </trkpt>
      <trkpt lat="46.94637" lon="8.5798">
        <ele>757</ele>
        <time>2021-08-10T10:12:54.773Z</time>
      </trkpt>
      <trkpt lat="46.94636" lon="8.57982">
        <ele>757</ele>
        <time>2021-08-10T10:12:55.772Z</time>
      </trkpt>
      <trkpt lat="46.94636" lon="8.57983">
        <ele>757</ele>
        <time>2021-08-10T10:12:56.773Z</time>
      </trkpt>
      <trkpt lat="46.94635" lon="8.57984">
        <ele>756</ele>
        <time>2021-08-10T10:12:57.773Z</time>
      </trkpt>
      <trkpt lat="46.94634" lon="8.57986">
        <ele>756</ele>
        <time>2021-08-10T10:12:58.773Z</time>
      </trkpt>
      <trkpt lat="46.94633" lon="8.57987">
        <ele>756</ele>
        <time>2021-08-10T10:12:59.772Z</time>
      </trkpt>
      <trkpt lat="46.94632" lon="8.57988">
        <ele>756</ele>
        <time>2021-08-10T10:13:00.773Z</time>
      </trkpt>
      <trkpt lat="46.94631" lon="8.5799">
        <ele>756</ele>
        <time>2021-08-10T10:13:01.773Z</time>
      </trkpt>
      <trkpt lat="46.9463" lon="8.57991">
        <ele>756</ele>
        <time>2021-08-10T10:13:02.773Z</time>
      </trkpt>
      <trkpt lat="46.94629" lon="8.57993">
        <ele>756</ele>
        <time>2021-08-10T10:13:03.772Z</time>
      </trkpt>
      <trkpt lat="46.94628" lon="8.57994">
        <ele>756</ele>
        <time>2021-08-10T10:13:04.772Z</time>
      </trkpt>
      <trkpt lat="46.94627" lon="8.57996">
        <ele>756</ele>
        <time>2021-08-10T10:13:05.772Z</time>
      </trkpt>
      <trkpt lat="46.94626" lon="8.57997">
        <ele>756</ele>
        <time>2021-08-10T10:13:06.772Z</time>
      </trkpt>
      <trkpt lat="46.94626" lon="8.57998">
        <ele>756</ele>
        <time>2021-08-10T10:13:07.772Z</time>
      </trkpt>
      <trkpt lat="46.94625" lon="8.58">
        <ele>756</ele>
        <time>2021-08-10T10:13:08.773Z</time>
      </trkpt>
      <trkpt lat="46.94625" lon="8.58002">
        <ele>755</ele>
        <time>2021-08-10T10:13:09.773Z</time>
      </trkpt>
      <trkpt lat="46.94624" lon="8.58003">
        <ele>755</ele>
        <time>2021-08-10T10:13:10.773Z</time>
      </trkpt>
      <trkpt lat="46.94623" lon="8.58005">
        <ele>755</ele>
        <time>2021-08-10T10:13:11.773Z</time>
      </trkpt>
      <trkpt lat="46.94623" lon="8.58007">
        <ele>755</ele>
        <time>2021-08-10T10:13:12.772Z</time>
      </trkpt>
      <trkpt lat="46.94623" lon="8.58008">
        <ele>755</ele>
        <time>2021-08-10T10:13:13.772Z</time>
      </trkpt>
      <trkpt lat="46.94622" lon="8.5801">
        <ele>755</ele>
        <time>2021-08-10T10:13:14.772Z</time>
      </trkpt>
      <trkpt lat="46.94622" lon="8.58011">
        <ele>755</ele>
        <time>2021-08-10T10:13:15.773Z</time>
      </trkpt>
      <trkpt lat="46.94621" lon="8.58013">
        <ele>754</ele>
        <time>2021-08-10T10:13:16.772Z</time>
      </trkpt>
      <trkpt lat="46.94621" lon="8.58015">
        <ele>754</ele>
        <time>2021-08-10T10:13:17.772Z</time>
      </trkpt>
      <trkpt lat="46.9462" lon="8.58017">
        <ele>754</ele>
        <time>2021-08-10T10:13:18.772Z</time>
      </trkpt>
      <trkpt lat="46.94619" lon="8.58018">
        <ele>753</ele>
        <time>2021-08-10T10:13:19.772Z</time>
      </trkpt>
      <trkpt lat="46.94619" lon="8.5802">
        <ele>753</ele>
        <time>2021-08-10T10:13:20.773Z</time>
      </trkpt>
      <trkpt lat="46.94618" lon="8.58021">
        <ele>753</ele>
        <time>2021-08-10T10:13:21.772Z</time>
      </trkpt>
      <trkpt lat="46.94617" lon="8.58023">
        <ele>753</ele>
        <time>2021-08-10T10:13:22.773Z</time>
      </trkpt>
      <trkpt lat="46.94616" lon="8.58024">
        <ele>753</ele>
        <time>2021-08-10T10:13:23.773Z</time>
      </trkpt>
      <trkpt lat="46.94616" lon="8.58025">
        <ele>753</ele>
        <time>2021-08-10T10:13:24.772Z</time>
      </trkpt>
      <trkpt lat="46.94615" lon="8.58027">
        <ele>754</ele>
        <time>2021-08-10T10:13:25.772Z</time>
      </trkpt>
      <trkpt lat="46.94614" lon="8.58028">
        <ele>754</ele>
        <time>2021-08-10T10:13:26.773Z</time>
      </trkpt>
      <trkpt lat="46.94614" lon="8.5803">
        <ele>755</ele>
        <time>2021-08-10T10:13:27.772Z</time>
      </trkpt>
      <trkpt lat="46.94613" lon="8.58031">
        <ele>755</ele>
        <time>2021-08-10T10:13:28.772Z</time>
      </trkpt>
      <trkpt lat="46.94612" lon="8.58032">
        <ele>756</ele>
        <time>2021-08-10T10:13:29.773Z</time>
      </trkpt>
      <trkpt lat="46.94612" lon="8.58034">
        <ele>756</ele>
        <time>2021-08-10T10:13:30.772Z</time>
      </trkpt>
      <trkpt lat="46.94611" lon="8.58035">
        <ele>756</ele>
        <time>2021-08-10T10:13:31.773Z</time>
      </trkpt>
      <trkpt lat="46.9461" lon="8.58036">
        <ele>757</ele>
        <time>2021-08-10T10:13:32.772Z</time>
      </trkpt>
      <trkpt lat="46.94609" lon="8.58037">
        <ele>757</ele>
        <time>2021-08-10T10:13:33.772Z</time>
      </trkpt>
      <trkpt lat="46.94608" lon="8.58038">
        <ele>757</ele>
        <time>2021-08-10T10:13:34.772Z</time>
      </trkpt>
      <trkpt lat="46.94607" lon="8.58039">
        <ele>758</ele>
        <time>2021-08-10T10:13:35.772Z</time>
      </trkpt>
      <trkpt lat="46.94606" lon="8.58041">
        <ele>758</ele>
        <time>2021-08-10T10:13:36.772Z</time>
      </trkpt>
      <trkpt lat="46.94605" lon="8.58042">
        <ele>757</ele>
        <time>2021-08-10T10:13:37.772Z</time>
      </trkpt>
      <trkpt lat="46.94605" lon="8.58043">
        <ele>757</ele>
        <time>2021-08-10T10:13:38.773Z</time>
      </trkpt>
      <trkpt lat="46.94604" lon="8.58044">
        <ele>757</ele>
        <time>2021-08-10T10:13:39.772Z</time>
      </trkpt>
      <trkpt lat="46.94603" lon="8.58045">
        <ele>757</ele>
        <time>2021-08-10T10:13:40.772Z</time>
      </trkpt>
      <trkpt lat="46.94601" lon="8.58047">
        <ele>756</ele>
        <time>2021-08-10T10:13:41.772Z</time>
      </trkpt>
      <trkpt lat="46.946" lon="8.58048">
        <ele>756</ele>
        <time>2021-08-10T10:13:42.772Z</time>
      </trkpt>
      <trkpt lat="46.94599" lon="8.58048">
        <ele>756</ele>
        <time>2021-08-10T10:13:43.772Z</time>
      </trkpt>
      <trkpt lat="46.94598" lon="8.58049">
        <ele>755</ele>
        <time>2021-08-10T10:13:44.773Z</time>
      </trkpt>
      <trkpt lat="46.94597" lon="8.5805">
        <ele>755</ele>
        <time>2021-08-10T10:13:45.773Z</time>
      </trkpt>
      <trkpt lat="46.94596" lon="8.58051">
        <ele>754</ele>
        <time>2021-08-10T10:13:46.772Z</time>
      </trkpt>
      <trkpt lat="46.94595" lon="8.58052">
        <ele>753</ele>
        <time>2021-08-10T10:13:47.773Z</time>
      </trkpt>
      <trkpt lat="46.94595" lon="8.58053">
        <ele>753</ele>
        <time>2021-08-10T10:13:48.773Z</time>
      </trkpt>
      <trkpt lat="46.94594" lon="8.58054">
        <ele>752</ele>
        <time>2021-08-10T10:13:49.773Z</time>
      </trkpt>
      <trkpt lat="46.94593" lon="8.58055">
        <ele>752</ele>
        <time>2021-08-10T10:13:50.772Z</time>
      </trkpt>
      <trkpt lat="46.94592" lon="8.58056">
        <ele>752</ele>
        <time>2021-08-10T10:13:51.772Z</time>
      </trkpt>
      <trkpt lat="46.9459" lon="8.58057">
        <ele>752</ele>
        <time>2021-08-10T10:13:52.773Z</time>
      </trkpt>
      <trkpt lat="46.94589" lon="8.58057">
        <ele>752</ele>
        <time>2021-08-10T10:13:53.772Z</time>
      </trkpt>
      <trkpt lat="46.94588" lon="8.58057">
        <ele>752</ele>
        <time>2021-08-10T10:13:54.772Z</time>
      </trkpt>
      <trkpt lat="46.94587" lon="8.58057">
        <ele>752</ele>
        <time>2021-08-10T10:13:55.772Z</time>
      </trkpt>
      <trkpt lat="46.94586" lon="8.58058">
        <ele>751</ele>
        <time>2021-08-10T10:13:56.773Z</time>
      </trkpt>
      <trkpt lat="46.94584" lon="8.58058">
        <ele>751</ele>
        <time>2021-08-10T10:13:57.773Z</time>
      </trkpt>
      <trkpt lat="46.94583" lon="8.58058">
        <ele>750</ele>
        <time>2021-08-10T10:13:58.772Z</time>
      </trkpt>
      <trkpt lat="46.94582" lon="8.58058">
        <ele>749</ele>
        <time>2021-08-10T10:13:59.772Z</time>
      </trkpt>
      <trkpt lat="46.94581" lon="8.58059">
        <ele>748</ele>
        <time>2021-08-10T10:14:00.772Z</time>
      </trkpt>
      <trkpt lat="46.9458" lon="8.58059">
        <ele>747</ele>
        <time>2021-08-10T10:14:01.773Z</time>
      </trkpt>
      <trkpt lat="46.94579" lon="8.58059">
        <ele>747</ele>
        <time>2021-08-10T10:14:02.773Z</time>
      </trkpt>
      <trkpt lat="46.94578" lon="8.58059">
        <ele>747</ele>
        <time>2021-08-10T10:14:03.773Z</time>
      </trkpt>
      <trkpt lat="46.94577" lon="8.58058">
        <ele>747</ele>
        <time>2021-08-10T10:14:04.772Z</time>
      </trkpt>
      <trkpt lat="46.94576" lon="8.58059">
        <ele>746</ele>
        <time>2021-08-10T10:14:05.772Z</time>
      </trkpt>
      <trkpt lat="46.94575" lon="8.58059">
        <ele>746</ele>
        <time>2021-08-10T10:14:06.772Z</time>
      </trkpt>
      <trkpt lat="46.94573" lon="8.58059">
        <ele>746</ele>
        <time>2021-08-10T10:14:07.772Z</time>
      </trkpt>
      <trkpt lat="46.94572" lon="8.58058">
        <ele>746</ele>
        <time>2021-08-10T10:14:08.773Z</time>
      </trkpt>
      <trkpt lat="46.94571" lon="8.58058">
        <ele>746</ele>
        <time>2021-08-10T10:14:09.772Z</time>
      </trkpt>
      <trkpt lat="46.9457" lon="8.58057">
        <ele>746</ele>
        <time>2021-08-10T10:14:10.773Z</time>
      </trkpt>
      <trkpt lat="46.94569" lon="8.58057">
        <ele>746</ele>
        <time>2021-08-10T10:14:11.773Z</time>
      </trkpt>
      <trkpt lat="46.94568" lon="8.58056">
        <ele>745</ele>
        <time>2021-08-10T10:14:12.773Z</time>
      </trkpt>
      <trkpt lat="46.94567" lon="8.58056">
        <ele>745</ele>
        <time>2021-08-10T10:14:13.773Z</time>
      </trkpt>
      <trkpt lat="46.94566" lon="8.58055">
        <ele>745</ele>
        <time>2021-08-10T10:14:14.772Z</time>
      </trkpt>
      <trkpt lat="46.94565" lon="8.58055">
        <ele>746</ele>
        <time>2021-08-10T10:14:15.773Z</time>
      </trkpt>
      <trkpt lat="46.94563" lon="8.58054">
        <ele>746</ele>
        <time>2021-08-10T10:14:16.772Z</time>
      </trkpt>
      <trkpt lat="46.94562" lon="8.58054">
        <ele>746</ele>
        <time>2021-08-10T10:14:17.773Z</time>
      </trkpt>
      <trkpt lat="46.94561" lon="8.58053">
        <ele>747</ele>
        <time>2021-08-10T10:14:18.772Z</time>
      </trkpt>
      <trkpt lat="46.9456" lon="8.58052">
        <ele>747</ele>
        <time>2021-08-10T10:14:19.772Z</time>
      </trkpt>
      <trkpt lat="46.94559" lon="8.58051">
        <ele>747</ele>
        <time>2021-08-10T10:14:20.773Z</time>
      </trkpt>
      <trkpt lat="46.94557" lon="8.58051">
        <ele>747</ele>
        <time>2021-08-10T10:14:21.773Z</time>
      </trkpt>
      <trkpt lat="46.94556" lon="8.58049">
        <ele>748</ele>
        <time>2021-08-10T10:14:22.773Z</time>
      </trkpt>
      <trkpt lat="46.94555" lon="8.58049">
        <ele>748</ele>
        <time>2021-08-10T10:14:23.773Z</time>
      </trkpt>
      <trkpt lat="46.94554" lon="8.58048">
        <ele>749</ele>
        <time>2021-08-10T10:14:24.773Z</time>
      </trkpt>
      <trkpt lat="46.94553" lon="8.58046">
        <ele>749</ele>
        <time>2021-08-10T10:14:25.773Z</time>
      </trkpt>
      <trkpt lat="46.94552" lon="8.58045">
        <ele>749</ele>
        <time>2021-08-10T10:14:26.772Z</time>
      </trkpt>
      <trkpt lat="46.94551" lon="8.58043">
        <ele>749</ele>
        <time>2021-08-10T10:14:27.772Z</time>
      </trkpt>
      <trkpt lat="46.9455" lon="8.58042">
        <ele>749</ele>
        <time>2021-08-10T10:14:28.773Z</time>
      </trkpt>
      <trkpt lat="46.94549" lon="8.58041">
        <ele>748</ele>
        <time>2021-08-10T10:14:29.773Z</time>
      </trkpt>
      <trkpt lat="46.94549" lon="8.5804">
        <ele>748</ele>
        <time>2021-08-10T10:14:30.773Z</time>
      </trkpt>
      <trkpt lat="46.94548" lon="8.58039">
        <ele>748</ele>
        <time>2021-08-10T10:14:31.773Z</time>
      </trkpt>
      <trkpt lat="46.94547" lon="8.58038">
        <ele>747</ele>
        <time>2021-08-10T10:14:32.772Z</time>
      </trkpt>
      <trkpt lat="46.94547" lon="8.58036">
        <ele>746</ele>
        <time>2021-08-10T10:14:33.772Z</time>
      </trkpt>
      <trkpt lat="46.94546" lon="8.58035">
        <ele>746</ele>
        <time>2021-08-10T10:14:34.773Z</time>
      </trkpt>
      <trkpt lat="46.94545" lon="8.58033">
        <ele>746</ele>
        <time>2021-08-10T10:14:35.773Z</time>
      </trkpt>
      <trkpt lat="46.94545" lon="8.58031">
        <ele>746</ele>
        <time>2021-08-10T10:14:36.773Z</time>
      </trkpt>
      <trkpt lat="46.94544" lon="8.58031">
        <ele>745</ele>
        <time>2021-08-10T10:14:37.772Z</time>
      </trkpt>
      <trkpt lat="46.94543" lon="8.58029">
        <ele>745</ele>
        <time>2021-08-10T10:14:38.773Z</time>
      </trkpt>
      <trkpt lat="46.94542" lon="8.58028">
        <ele>746</ele>
        <time>2021-08-10T10:14:39.773Z</time>
      </trkpt>
      <trkpt lat="46.9454" lon="8.58027">
        <ele>746</ele>
        <time>2021-08-10T10:14:40.773Z</time>
      </trkpt>
      <trkpt lat="46.94539" lon="8.58026">
        <ele>746</ele>
        <time>2021-08-10T10:14:41.772Z</time>
      </trkpt>
      <trkpt lat="46.94538" lon="8.58024">
        <ele>746</ele>
        <time>2021-08-10T10:14:42.772Z</time>
      </trkpt>
      <trkpt lat="46.94538" lon="8.58023">
        <ele>747</ele>
        <time>2021-08-10T10:14:43.773Z</time>
      </trkpt>
      <trkpt lat="46.94537" lon="8.58021">
        <ele>747</ele>
        <time>2021-08-10T10:14:44.772Z</time>
      </trkpt>
      <trkpt lat="46.94537" lon="8.5802">
        <ele>747</ele>
        <time>2021-08-10T10:14:45.773Z</time>
      </trkpt>
      <trkpt lat="46.94537" lon="8.58018">
        <ele>747</ele>
        <time>2021-08-10T10:14:46.773Z</time>
      </trkpt>
      <trkpt lat="46.94537" lon="8.58017">
        <ele>747</ele>
        <time>2021-08-10T10:14:47.773Z</time>
      </trkpt>
      <trkpt lat="46.94537" lon="8.58015">
        <ele>747</ele>
        <time>2021-08-10T10:14:48.773Z</time>
      </trkpt>
      <trkpt lat="46.94537" lon="8.58013">
        <ele>747</ele>
        <time>2021-08-10T10:14:49.772Z</time>
      </trkpt>
      <trkpt lat="46.94537" lon="8.58012">
        <ele>747</ele>
        <time>2021-08-10T10:14:50.772Z</time>
      </trkpt>
      <trkpt lat="46.94536" lon="8.5801">
        <ele>747</ele>
        <time>2021-08-10T10:14:51.773Z</time>
      </trkpt>
      <trkpt lat="46.94536" lon="8.58009">
        <ele>747</ele>
        <time>2021-08-10T10:14:52.773Z</time>
      </trkpt>
      <trkpt lat="46.94536" lon="8.58009">
        <ele>747</ele>
        <time>2021-08-10T10:14:53.772Z</time>
      </trkpt>
      <trkpt lat="46.94535" lon="8.58008">
        <ele>747</ele>
        <time>2021-08-10T10:14:54.773Z</time>
      </trkpt>
      <trkpt lat="46.94534" lon="8.58007">
        <ele>747</ele>
        <time>2021-08-10T10:14:55.772Z</time>
      </trkpt>
      <trkpt lat="46.94534" lon="8.58006">
        <ele>746</ele>
        <time>2021-08-10T10:14:56.772Z</time>
      </trkpt>
      <trkpt lat="46.94534" lon="8.58004">
        <ele>746</ele>
        <time>2021-08-10T10:14:57.772Z</time>
      </trkpt>
      <trkpt lat="46.94533" lon="8.58002">
        <ele>746</ele>
        <time>2021-08-10T10:14:58.772Z</time>
      </trkpt>
      <trkpt lat="46.94533" lon="8.58001">
        <ele>745</ele>
        <time>2021-08-10T10:14:59.772Z</time>
      </trkpt>
      <trkpt lat="46.94532" lon="8.57998">
        <ele>745</ele>
        <time>2021-08-10T10:15:00.773Z</time>
      </trkpt>
      <trkpt lat="46.94532" lon="8.57997">
        <ele>745</ele>
        <time>2021-08-10T10:15:01.773Z</time>
      </trkpt>
      <trkpt lat="46.94531" lon="8.57994">
        <ele>745</ele>
        <time>2021-08-10T10:15:02.773Z</time>
      </trkpt>
      <trkpt lat="46.9453" lon="8.57993">
        <ele>745</ele>
        <time>2021-08-10T10:15:03.773Z</time>
      </trkpt>
      <trkpt lat="46.94529" lon="8.57992">
        <ele>745</ele>
        <time>2021-08-10T10:15:04.773Z</time>
      </trkpt>
      <trkpt lat="46.94529" lon="8.57992">
        <ele>746</ele>
        <time>2021-08-10T10:15:05.772Z</time>
      </trkpt>
      <trkpt lat="46.94528" lon="8.57991">
        <ele>746</ele>
        <time>2021-08-10T10:15:06.773Z</time>
      </trkpt>
      <trkpt lat="46.94528" lon="8.5799">
        <ele>746</ele>
        <time>2021-08-10T10:15:07.773Z</time>
      </trkpt>
      <trkpt lat="46.94528" lon="8.57989">
        <ele>745</ele>
        <time>2021-08-10T10:15:08.773Z</time>
      </trkpt>
      <trkpt lat="46.94528" lon="8.57988">
        <ele>745</ele>
        <time>2021-08-10T10:15:09.773Z</time>
      </trkpt>
      <trkpt lat="46.94527" lon="8.57986">
        <ele>744</ele>
        <time>2021-08-10T10:15:10.773Z</time>
      </trkpt>
      <trkpt lat="46.94527" lon="8.57984">
        <ele>744</ele>
        <time>2021-08-10T10:15:11.772Z</time>
      </trkpt>
      <trkpt lat="46.94527" lon="8.57982">
        <ele>744</ele>
        <time>2021-08-10T10:15:12.773Z</time>
      </trkpt>
      <trkpt lat="46.94526" lon="8.57981">
        <ele>744</ele>
        <time>2021-08-10T10:15:13.773Z</time>
      </trkpt>
      <trkpt lat="46.94525" lon="8.57979">
        <ele>743</ele>
        <time>2021-08-10T10:15:14.772Z</time>
      </trkpt>
      <trkpt lat="46.94525" lon="8.57978">
        <ele>743</ele>
        <time>2021-08-10T10:15:15.772Z</time>
      </trkpt>
      <trkpt lat="46.94524" lon="8.57976">
        <ele>743</ele>
        <time>2021-08-10T10:15:16.772Z</time>
      </trkpt>
      <trkpt lat="46.94523" lon="8.57975">
        <ele>743</ele>
        <time>2021-08-10T10:15:17.773Z</time>
      </trkpt>
      <trkpt lat="46.94522" lon="8.57973">
        <ele>743</ele>
        <time>2021-08-10T10:15:18.773Z</time>
      </trkpt>
      <trkpt lat="46.94522" lon="8.57972">
        <ele>743</ele>
        <time>2021-08-10T10:15:19.773Z</time>
      </trkpt>
      <trkpt lat="46.94521" lon="8.5797">
        <ele>743</ele>
        <time>2021-08-10T10:15:20.773Z</time>
      </trkpt>
      <trkpt lat="46.9452" lon="8.57969">
        <ele>744</ele>
        <time>2021-08-10T10:15:21.772Z</time>
      </trkpt>
      <trkpt lat="46.94519" lon="8.57968">
        <ele>744</ele>
        <time>2021-08-10T10:15:22.773Z</time>
      </trkpt>
      <trkpt lat="46.94518" lon="8.57966">
        <ele>743</ele>
        <time>2021-08-10T10:15:23.772Z</time>
      </trkpt>
      <trkpt lat="46.94518" lon="8.57964">
        <ele>743</ele>
        <time>2021-08-10T10:15:24.773Z</time>
      </trkpt>
      <trkpt lat="46.94517" lon="8.57962">
        <ele>743</ele>
        <time>2021-08-10T10:15:25.772Z</time>
      </trkpt>
      <trkpt lat="46.94517" lon="8.5796">
        <ele>743</ele>
        <time>2021-08-10T10:15:26.772Z</time>
      </trkpt>
      <trkpt lat="46.94517" lon="8.57958">
        <ele>743</ele>
        <time>2021-08-10T10:15:27.773Z</time>
      </trkpt>
      <trkpt lat="46.94516" lon="8.57957">
        <ele>743</ele>
        <time>2021-08-10T10:15:28.773Z</time>
      </trkpt>
      <trkpt lat="46.94515" lon="8.57955">
        <ele>742</ele>
        <time>2021-08-10T10:15:29.772Z</time>
      </trkpt>
      <trkpt lat="46.94514" lon="8.57954">
        <ele>742</ele>
        <time>2021-08-10T10:15:30.773Z</time>
      </trkpt>
      <trkpt lat="46.94512" lon="8.57952">
        <ele>742</ele>
        <time>2021-08-10T10:15:31.773Z</time>
      </trkpt>
      <trkpt lat="46.94511" lon="8.5795">
        <ele>742</ele>
        <time>2021-08-10T10:15:32.773Z</time>
      </trkpt>
      <trkpt lat="46.9451" lon="8.57949">
        <ele>742</ele>
        <time>2021-08-10T10:15:33.772Z</time>
      </trkpt>
      <trkpt lat="46.94509" lon="8.57948">
        <ele>742</ele>
        <time>2021-08-10T10:15:34.773Z</time>
      </trkpt>
      <trkpt lat="46.94508" lon="8.57947">
        <ele>742</ele>
        <time>2021-08-10T10:15:35.773Z</time>
      </trkpt>
      <trkpt lat="46.94507" lon="8.57946">
        <ele>742</ele>
        <time>2021-08-10T10:15:36.773Z</time>
      </trkpt>
      <trkpt lat="46.94506" lon="8.57945">
        <ele>742</ele>
        <time>2021-08-10T10:15:37.773Z</time>
      </trkpt>
      <trkpt lat="46.94505" lon="8.57943">
        <ele>742</ele>
        <time>2021-08-10T10:15:38.772Z</time>
      </trkpt>
      <trkpt lat="46.94504" lon="8.57942">
        <ele>742</ele>
        <time>2021-08-10T10:15:39.773Z</time>
      </trkpt>
      <trkpt lat="46.94502" lon="8.57941">
        <ele>742</ele>
        <time>2021-08-10T10:15:40.773Z</time>
      </trkpt>
      <trkpt lat="46.94501" lon="8.5794">
        <ele>742</ele>
        <time>2021-08-10T10:15:41.773Z</time>
      </trkpt>
      <trkpt lat="46.945" lon="8.57939">
        <ele>743</ele>
        <time>2021-08-10T10:15:42.773Z</time>
      </trkpt>
      <trkpt lat="46.94499" lon="8.57938">
        <ele>742</ele>
        <time>2021-08-10T10:15:43.772Z</time>
      </trkpt>
      <trkpt lat="46.94498" lon="8.57937">
        <ele>742</ele>
        <time>2021-08-10T10:15:44.773Z</time>
      </trkpt>
      <trkpt lat="46.94497" lon="8.57937">
        <ele>742</ele>
        <time>2021-08-10T10:15:45.773Z</time>
      </trkpt>
      <trkpt lat="46.94496" lon="8.57936">
        <ele>741</ele>
        <time>2021-08-10T10:15:46.773Z</time>
      </trkpt>
      <trkpt lat="46.94495" lon="8.57935">
        <ele>741</ele>
        <time>2021-08-10T10:15:47.773Z</time>
      </trkpt>
      <trkpt lat="46.94494" lon="8.57934">
        <ele>741</ele>
        <time>2021-08-10T10:15:48.773Z</time>
      </trkpt>
      <trkpt lat="46.94493" lon="8.57934">
        <ele>741</ele>
        <time>2021-08-10T10:15:49.773Z</time>
      </trkpt>
      <trkpt lat="46.94491" lon="8.57933">
        <ele>741</ele>
        <time>2021-08-10T10:15:50.772Z</time>
      </trkpt>
      <trkpt lat="46.9449" lon="8.57933">
        <ele>741</ele>
        <time>2021-08-10T10:15:51.773Z</time>
      </trkpt>
      <trkpt lat="46.94489" lon="8.57932">
        <ele>741</ele>
        <time>2021-08-10T10:15:52.773Z</time>
      </trkpt>
      <trkpt lat="46.94487" lon="8.57932">
        <ele>741</ele>
        <time>2021-08-10T10:15:53.772Z</time>
      </trkpt>
      <trkpt lat="46.94486" lon="8.57931">
        <ele>740</ele>
        <time>2021-08-10T10:15:54.773Z</time>
      </trkpt>
      <trkpt lat="46.94485" lon="8.5793">
        <ele>739</ele>
        <time>2021-08-10T10:15:55.773Z</time>
      </trkpt>
      <trkpt lat="46.94484" lon="8.5793">
        <ele>739</ele>
        <time>2021-08-10T10:15:56.773Z</time>
      </trkpt>
      <trkpt lat="46.94483" lon="8.5793">
        <ele>739</ele>
        <time>2021-08-10T10:15:57.773Z</time>
      </trkpt>
      <trkpt lat="46.94482" lon="8.5793">
        <ele>738</ele>
        <time>2021-08-10T10:15:58.772Z</time>
      </trkpt>
      <trkpt lat="46.94481" lon="8.5793">
        <ele>738</ele>
        <time>2021-08-10T10:15:59.773Z</time>
      </trkpt>
      <trkpt lat="46.9448" lon="8.57929">
        <ele>738</ele>
        <time>2021-08-10T10:16:00.773Z</time>
      </trkpt>
      <trkpt lat="46.94479" lon="8.57929">
        <ele>738</ele>
        <time>2021-08-10T10:16:01.773Z</time>
      </trkpt>
      <trkpt lat="46.94478" lon="8.57929">
        <ele>737</ele>
        <time>2021-08-10T10:16:02.773Z</time>
      </trkpt>
      <trkpt lat="46.94477" lon="8.57929">
        <ele>737</ele>
        <time>2021-08-10T10:16:03.773Z</time>
      </trkpt>
      <trkpt lat="46.94476" lon="8.57929">
        <ele>737</ele>
        <time>2021-08-10T10:16:04.773Z</time>
      </trkpt>
      <trkpt lat="46.94475" lon="8.57929">
        <ele>737</ele>
        <time>2021-08-10T10:16:05.772Z</time>
      </trkpt>
      <trkpt lat="46.94474" lon="8.57928">
        <ele>737</ele>
        <time>2021-08-10T10:16:06.772Z</time>
      </trkpt>
      <trkpt lat="46.94472" lon="8.57928">
        <ele>736</ele>
        <time>2021-08-10T10:16:07.772Z</time>
      </trkpt>
      <trkpt lat="46.94471" lon="8.57927">
        <ele>736</ele>
        <time>2021-08-10T10:16:08.772Z</time>
      </trkpt>
      <trkpt lat="46.9447" lon="8.57927">
        <ele>736</ele>
        <time>2021-08-10T10:16:09.772Z</time>
      </trkpt>
      <trkpt lat="46.94469" lon="8.57926">
        <ele>736</ele>
        <time>2021-08-10T10:16:10.772Z</time>
      </trkpt>
      <trkpt lat="46.94468" lon="8.57926">
        <ele>736</ele>
        <time>2021-08-10T10:16:11.772Z</time>
      </trkpt>
      <trkpt lat="46.94467" lon="8.57925">
        <ele>735</ele>
        <time>2021-08-10T10:16:12.772Z</time>
      </trkpt>
      <trkpt lat="46.94467" lon="8.57925">
        <ele>735</ele>
        <time>2021-08-10T10:16:13.772Z</time>
      </trkpt>
      <trkpt lat="46.94466" lon="8.57924">
        <ele>735</ele>
        <time>2021-08-10T10:16:14.773Z</time>
      </trkpt>
      <trkpt lat="46.94466" lon="8.57924">
        <ele>734</ele>
        <time>2021-08-10T10:16:15.772Z</time>
      </trkpt>
      <trkpt lat="46.94465" lon="8.57923">
        <ele>734</ele>
        <time>2021-08-10T10:16:16.772Z</time>
      </trkpt>
      <trkpt lat="46.94464" lon="8.57922">
        <ele>734</ele>
        <time>2021-08-10T10:16:17.772Z</time>
      </trkpt>
      <trkpt lat="46.94463" lon="8.57921">
        <ele>734</ele>
        <time>2021-08-10T10:16:18.773Z</time>
      </trkpt>
      <trkpt lat="46.94462" lon="8.57921">
        <ele>734</ele>
        <time>2021-08-10T10:16:19.773Z</time>
      </trkpt>
      <trkpt lat="46.9446" lon="8.57921">
        <ele>734</ele>
        <time>2021-08-10T10:16:20.772Z</time>
      </trkpt>
      <trkpt lat="46.94458" lon="8.5792">
        <ele>734</ele>
        <time>2021-08-10T10:16:21.773Z</time>
      </trkpt>
      <trkpt lat="46.94456" lon="8.57919">
        <ele>735</ele>
        <time>2021-08-10T10:16:22.773Z</time>
      </trkpt>
      <trkpt lat="46.94455" lon="8.57919">
        <ele>736</ele>
        <time>2021-08-10T10:16:23.773Z</time>
      </trkpt>
      <trkpt lat="46.94453" lon="8.57919">
        <ele>736</ele>
        <time>2021-08-10T10:16:24.773Z</time>
      </trkpt>
      <trkpt lat="46.94452" lon="8.57918">
        <ele>736</ele>
        <time>2021-08-10T10:16:25.773Z</time>
      </trkpt>
      <trkpt lat="46.94451" lon="8.57918">
        <ele>736</ele>
        <time>2021-08-10T10:16:26.773Z</time>
      </trkpt>
      <trkpt lat="46.94449" lon="8.57917">
        <ele>736</ele>
        <time>2021-08-10T10:16:27.772Z</time>
      </trkpt>
      <trkpt lat="46.94448" lon="8.57917">
        <ele>737</ele>
        <time>2021-08-10T10:16:28.772Z</time>
      </trkpt>
      <trkpt lat="46.94447" lon="8.57916">
        <ele>737</ele>
        <time>2021-08-10T10:16:29.773Z</time>
      </trkpt>
      <trkpt lat="46.94445" lon="8.57915">
        <ele>737</ele>
        <time>2021-08-10T10:16:30.773Z</time>
      </trkpt>
      <trkpt lat="46.94444" lon="8.57914">
        <ele>737</ele>
        <time>2021-08-10T10:16:31.772Z</time>
      </trkpt>
      <trkpt lat="46.94443" lon="8.57914">
        <ele>738</ele>
        <time>2021-08-10T10:16:32.773Z</time>
      </trkpt>
      <trkpt lat="46.94442" lon="8.57914">
        <ele>738</ele>
        <time>2021-08-10T10:16:33.772Z</time>
      </trkpt>
      <trkpt lat="46.94441" lon="8.57913">
        <ele>739</ele>
        <time>2021-08-10T10:16:34.772Z</time>
      </trkpt>
      <trkpt lat="46.9444" lon="8.57912">
        <ele>739</ele>
        <time>2021-08-10T10:16:35.773Z</time>
      </trkpt>
      <trkpt lat="46.94439" lon="8.57912">
        <ele>739</ele>
        <time>2021-08-10T10:16:36.772Z</time>
      </trkpt>
      <trkpt lat="46.94437" lon="8.57911">
        <ele>738</ele>
        <time>2021-08-10T10:16:37.773Z</time>
      </trkpt>
      <trkpt lat="46.94436" lon="8.5791">
        <ele>738</ele>
        <time>2021-08-10T10:16:38.773Z</time>
      </trkpt>
      <trkpt lat="46.94435" lon="8.5791">
        <ele>738</ele>
        <time>2021-08-10T10:16:39.773Z</time>
      </trkpt>
      <trkpt lat="46.94434" lon="8.57909">
        <ele>738</ele>
        <time>2021-08-10T10:16:40.772Z</time>
      </trkpt>
      <trkpt lat="46.94433" lon="8.57909">
        <ele>737</ele>
        <time>2021-08-10T10:16:41.773Z</time>
      </trkpt>
      <trkpt lat="46.94432" lon="8.57909">
        <ele>737</ele>
        <time>2021-08-10T10:16:42.773Z</time>
      </trkpt>
      <trkpt lat="46.94431" lon="8.57909">
        <ele>737</ele>
        <time>2021-08-10T10:16:43.773Z</time>
      </trkpt>
      <trkpt lat="46.9443" lon="8.57908">
        <ele>736</ele>
        <time>2021-08-10T10:16:44.773Z</time>
      </trkpt>
      <trkpt lat="46.94429" lon="8.57908">
        <ele>736</ele>
        <time>2021-08-10T10:16:45.773Z</time>
      </trkpt>
      <trkpt lat="46.94428" lon="8.57907">
        <ele>736</ele>
        <time>2021-08-10T10:16:46.773Z</time>
      </trkpt>
      <trkpt lat="46.94426" lon="8.57907">
        <ele>736</ele>
        <time>2021-08-10T10:16:47.772Z</time>
      </trkpt>
      <trkpt lat="46.94425" lon="8.57907">
        <ele>735</ele>
        <time>2021-08-10T10:16:48.773Z</time>
      </trkpt>
      <trkpt lat="46.94424" lon="8.57906">
        <ele>735</ele>
        <time>2021-08-10T10:16:49.772Z</time>
      </trkpt>
      <trkpt lat="46.94424" lon="8.57906">
        <ele>735</ele>
        <time>2021-08-10T10:16:50.772Z</time>
      </trkpt>
      <trkpt lat="46.94422" lon="8.57905">
        <ele>735</ele>
        <time>2021-08-10T10:16:51.773Z</time>
      </trkpt>
      <trkpt lat="46.94421" lon="8.57903">
        <ele>735</ele>
        <time>2021-08-10T10:16:52.773Z</time>
      </trkpt>
      <trkpt lat="46.9442" lon="8.57902">
        <ele>734</ele>
        <time>2021-08-10T10:16:53.772Z</time>
      </trkpt>
      <trkpt lat="46.94418" lon="8.57901">
        <ele>734</ele>
        <time>2021-08-10T10:16:54.772Z</time>
      </trkpt>
      <trkpt lat="46.94416" lon="8.57901">
        <ele>734</ele>
        <time>2021-08-10T10:16:55.772Z</time>
      </trkpt>
      <trkpt lat="46.94414" lon="8.57901">
        <ele>734</ele>
        <time>2021-08-10T10:16:56.772Z</time>
      </trkpt>
      <trkpt lat="46.94413" lon="8.57901">
        <ele>734</ele>
        <time>2021-08-10T10:16:57.773Z</time>
      </trkpt>
      <trkpt lat="46.94412" lon="8.579">
        <ele>733</ele>
        <time>2021-08-10T10:16:58.773Z</time>
      </trkpt>
      <trkpt lat="46.94412" lon="8.579">
        <ele>733</ele>
        <time>2021-08-10T10:16:59.773Z</time>
      </trkpt>
      <trkpt lat="46.9441" lon="8.57899">
        <ele>732</ele>
        <time>2021-08-10T10:17:00.772Z</time>
      </trkpt>
      <trkpt lat="46.94409" lon="8.57898">
        <ele>732</ele>
        <time>2021-08-10T10:17:01.772Z</time>
      </trkpt>
      <trkpt lat="46.94408" lon="8.57897">
        <ele>732</ele>
        <time>2021-08-10T10:17:02.772Z</time>
      </trkpt>
      <trkpt lat="46.94407" lon="8.57895">
        <ele>732</ele>
        <time>2021-08-10T10:17:03.772Z</time>
      </trkpt>
      <trkpt lat="46.94405" lon="8.57894">
        <ele>732</ele>
        <time>2021-08-10T10:17:04.772Z</time>
      </trkpt>
      <trkpt lat="46.94404" lon="8.57893">
        <ele>732</ele>
        <time>2021-08-10T10:17:05.773Z</time>
      </trkpt>
      <trkpt lat="46.94402" lon="8.57892">
        <ele>732</ele>
        <time>2021-08-10T10:17:06.772Z</time>
      </trkpt>
      <trkpt lat="46.94402" lon="8.57891">
        <ele>733</ele>
        <time>2021-08-10T10:17:07.772Z</time>
      </trkpt>
      <trkpt lat="46.944" lon="8.5789">
        <ele>732</ele>
        <time>2021-08-10T10:17:08.772Z</time>
      </trkpt>
      <trkpt lat="46.94399" lon="8.57889">
        <ele>732</ele>
        <time>2021-08-10T10:17:09.773Z</time>
      </trkpt>
      <trkpt lat="46.94398" lon="8.57888">
        <ele>732</ele>
        <time>2021-08-10T10:17:10.772Z</time>
      </trkpt>
      <trkpt lat="46.94397" lon="8.57887">
        <ele>731</ele>
        <time>2021-08-10T10:17:11.772Z</time>
      </trkpt>
      <trkpt lat="46.94396" lon="8.57887">
        <ele>731</ele>
        <time>2021-08-10T10:17:12.772Z</time>
      </trkpt>
      <trkpt lat="46.94395" lon="8.57886">
        <ele>731</ele>
        <time>2021-08-10T10:17:13.772Z</time>
      </trkpt>
      <trkpt lat="46.94394" lon="8.57885">
        <ele>730</ele>
        <time>2021-08-10T10:17:14.772Z</time>
      </trkpt>
      <trkpt lat="46.94393" lon="8.57884">
        <ele>730</ele>
        <time>2021-08-10T10:17:15.772Z</time>
      </trkpt>
      <trkpt lat="46.94392" lon="8.57884">
        <ele>729</ele>
        <time>2021-08-10T10:17:16.772Z</time>
      </trkpt>
      <trkpt lat="46.94391" lon="8.57884">
        <ele>728</ele>
        <time>2021-08-10T10:17:17.772Z</time>
      </trkpt>
      <trkpt lat="46.9439" lon="8.57883">
        <ele>728</ele>
        <time>2021-08-10T10:17:18.772Z</time>
      </trkpt>
      <trkpt lat="46.94389" lon="8.57883">
        <ele>728</ele>
        <time>2021-08-10T10:17:19.772Z</time>
      </trkpt>
      <trkpt lat="46.94388" lon="8.57882">
        <ele>728</ele>
        <time>2021-08-10T10:17:20.772Z</time>
      </trkpt>
      <trkpt lat="46.94386" lon="8.5788">
        <ele>728</ele>
        <time>2021-08-10T10:17:21.772Z</time>
      </trkpt>
      <trkpt lat="46.94385" lon="8.5788">
        <ele>729</ele>
        <time>2021-08-10T10:17:22.772Z</time>
      </trkpt>
      <trkpt lat="46.94383" lon="8.57878">
        <ele>729</ele>
        <time>2021-08-10T10:17:23.772Z</time>
      </trkpt>
      <trkpt lat="46.94382" lon="8.57878">
        <ele>729</ele>
        <time>2021-08-10T10:17:24.772Z</time>
      </trkpt>
      <trkpt lat="46.94381" lon="8.57877">
        <ele>729</ele>
        <time>2021-08-10T10:17:25.772Z</time>
      </trkpt>
      <trkpt lat="46.9438" lon="8.57876">
        <ele>728</ele>
        <time>2021-08-10T10:17:26.772Z</time>
      </trkpt>
      <trkpt lat="46.9438" lon="8.57875">
        <ele>728</ele>
        <time>2021-08-10T10:17:27.772Z</time>
      </trkpt>
      <trkpt lat="46.94379" lon="8.57875">
        <ele>728</ele>
        <time>2021-08-10T10:17:28.773Z</time>
      </trkpt>
      <trkpt lat="46.94378" lon="8.57873">
        <ele>728</ele>
        <time>2021-08-10T10:17:29.773Z</time>
      </trkpt>
      <trkpt lat="46.94377" lon="8.57872">
        <ele>728</ele>
        <time>2021-08-10T10:17:30.773Z</time>
      </trkpt>
      <trkpt lat="46.94376" lon="8.57871">
        <ele>728</ele>
        <time>2021-08-10T10:17:31.773Z</time>
      </trkpt>
      <trkpt lat="46.94374" lon="8.5787">
        <ele>728</ele>
        <time>2021-08-10T10:17:32.773Z</time>
      </trkpt>
      <trkpt lat="46.94373" lon="8.5787">
        <ele>727</ele>
        <time>2021-08-10T10:17:33.772Z</time>
      </trkpt>
      <trkpt lat="46.94372" lon="8.57869">
        <ele>727</ele>
        <time>2021-08-10T10:17:34.773Z</time>
      </trkpt>
      <trkpt lat="46.94371" lon="8.57867">
        <ele>727</ele>
        <time>2021-08-10T10:17:35.773Z</time>
      </trkpt>
      <trkpt lat="46.9437" lon="8.57866">
        <ele>728</ele>
        <time>2021-08-10T10:17:36.773Z</time>
      </trkpt>
      <trkpt lat="46.94369" lon="8.57865">
        <ele>728</ele>
        <time>2021-08-10T10:17:37.773Z</time>
      </trkpt>
      <trkpt lat="46.94368" lon="8.57864">
        <ele>729</ele>
        <time>2021-08-10T10:17:38.773Z</time>
      </trkpt>
      <trkpt lat="46.94367" lon="8.57863">
        <ele>729</ele>
        <time>2021-08-10T10:17:39.773Z</time>
      </trkpt>
      <trkpt lat="46.94366" lon="8.57861">
        <ele>729</ele>
        <time>2021-08-10T10:17:40.773Z</time>
      </trkpt>
      <trkpt lat="46.94365" lon="8.5786">
        <ele>728</ele>
        <time>2021-08-10T10:17:41.773Z</time>
      </trkpt>
      <trkpt lat="46.94365" lon="8.57858">
        <ele>728</ele>
        <time>2021-08-10T10:17:42.773Z</time>
      </trkpt>
      <trkpt lat="46.94364" lon="8.57857">
        <ele>727</ele>
        <time>2021-08-10T10:17:43.772Z</time>
      </trkpt>
      <trkpt lat="46.94363" lon="8.57856">
        <ele>727</ele>
        <time>2021-08-10T10:17:44.772Z</time>
      </trkpt>
      <trkpt lat="46.94363" lon="8.57856">
        <ele>726</ele>
        <time>2021-08-10T10:17:45.773Z</time>
      </trkpt>
      <trkpt lat="46.94361" lon="8.57855">
        <ele>726</ele>
        <time>2021-08-10T10:17:46.772Z</time>
      </trkpt>
      <trkpt lat="46.9436" lon="8.57854">
        <ele>725</ele>
        <time>2021-08-10T10:17:47.773Z</time>
      </trkpt>
      <trkpt lat="46.9436" lon="8.57852">
        <ele>725</ele>
        <time>2021-08-10T10:17:48.773Z</time>
      </trkpt>
      <trkpt lat="46.94359" lon="8.57849">
        <ele>724</ele>
        <time>2021-08-10T10:17:49.773Z</time>
      </trkpt>
      <trkpt lat="46.94359" lon="8.57847">
        <ele>724</ele>
        <time>2021-08-10T10:17:50.773Z</time>
      </trkpt>
      <trkpt lat="46.94358" lon="8.57846">
        <ele>723</ele>
        <time>2021-08-10T10:17:51.773Z</time>
      </trkpt>
      <trkpt lat="46.94357" lon="8.57845">
        <ele>722</ele>
        <time>2021-08-10T10:17:52.773Z</time>
      </trkpt>
      <trkpt lat="46.94356" lon="8.57844">
        <ele>721</ele>
        <time>2021-08-10T10:17:53.773Z</time>
      </trkpt>
      <trkpt lat="46.94356" lon="8.57843">
        <ele>721</ele>
        <time>2021-08-10T10:17:54.773Z</time>
      </trkpt>
      <trkpt lat="46.94355" lon="8.57842">
        <ele>720</ele>
        <time>2021-08-10T10:17:55.773Z</time>
      </trkpt>
      <trkpt lat="46.94354" lon="8.57841">
        <ele>720</ele>
        <time>2021-08-10T10:17:56.772Z</time>
      </trkpt>
      <trkpt lat="46.94353" lon="8.5784">
        <ele>720</ele>
        <time>2021-08-10T10:17:57.772Z</time>
      </trkpt>
      <trkpt lat="46.94352" lon="8.57839">
        <ele>719</ele>
        <time>2021-08-10T10:17:58.773Z</time>
      </trkpt>
      <trkpt lat="46.94351" lon="8.57837">
        <ele>719</ele>
        <time>2021-08-10T10:17:59.773Z</time>
      </trkpt>
      <trkpt lat="46.9435" lon="8.57836">
        <ele>719</ele>
        <time>2021-08-10T10:18:00.773Z</time>
      </trkpt>
      <trkpt lat="46.9435" lon="8.57834">
        <ele>718</ele>
        <time>2021-08-10T10:18:01.772Z</time>
      </trkpt>
      <trkpt lat="46.94349" lon="8.57833">
        <ele>718</ele>
        <time>2021-08-10T10:18:02.772Z</time>
      </trkpt>
      <trkpt lat="46.94347" lon="8.57833">
        <ele>718</ele>
        <time>2021-08-10T10:18:03.773Z</time>
      </trkpt>
      <trkpt lat="46.94346" lon="8.57832">
        <ele>718</ele>
        <time>2021-08-10T10:18:04.773Z</time>
      </trkpt>
      <trkpt lat="46.94345" lon="8.57831">
        <ele>717</ele>
        <time>2021-08-10T10:18:05.773Z</time>
      </trkpt>
      <trkpt lat="46.94344" lon="8.5783">
        <ele>717</ele>
        <time>2021-08-10T10:18:06.773Z</time>
      </trkpt>
      <trkpt lat="46.94343" lon="8.57829">
        <ele>717</ele>
        <time>2021-08-10T10:18:07.773Z</time>
      </trkpt>
      <trkpt lat="46.94342" lon="8.57828">
        <ele>716</ele>
        <time>2021-08-10T10:18:08.773Z</time>
      </trkpt>
      <trkpt lat="46.94342" lon="8.57828">
        <ele>716</ele>
        <time>2021-08-10T10:18:09.773Z</time>
      </trkpt>
      <trkpt lat="46.94342" lon="8.57827">
        <ele>715</ele>
        <time>2021-08-10T10:18:10.773Z</time>
      </trkpt>
      <trkpt lat="46.94341" lon="8.57826">
        <ele>715</ele>
        <time>2021-08-10T10:18:11.773Z</time>
      </trkpt>
      <trkpt lat="46.94341" lon="8.57824">
        <ele>715</ele>
        <time>2021-08-10T10:18:12.772Z</time>
      </trkpt>
      <trkpt lat="46.9434" lon="8.57822">
        <ele>715</ele>
        <time>2021-08-10T10:18:13.773Z</time>
      </trkpt>
      <trkpt lat="46.9434" lon="8.57821">
        <ele>715</ele>
        <time>2021-08-10T10:18:14.772Z</time>
      </trkpt>
      <trkpt lat="46.94339" lon="8.5782">
        <ele>714</ele>
        <time>2021-08-10T10:18:15.772Z</time>
      </trkpt>
      <trkpt lat="46.94339" lon="8.5782">
        <ele>714</ele>
        <time>2021-08-10T10:18:16.773Z</time>
      </trkpt>
      <trkpt lat="46.94339" lon="8.57819">
        <ele>714</ele>
        <time>2021-08-10T10:18:17.773Z</time>
      </trkpt>
      <trkpt lat="46.94339" lon="8.57818">
        <ele>714</ele>
        <time>2021-08-10T10:18:18.773Z</time>
      </trkpt>
      <trkpt lat="46.94339" lon="8.57816">
        <ele>713</ele>
        <time>2021-08-10T10:18:19.773Z</time>
      </trkpt>
      <trkpt lat="46.94339" lon="8.57815">
        <ele>713</ele>
        <time>2021-08-10T10:18:20.773Z</time>
      </trkpt>
      <trkpt lat="46.94339" lon="8.57814">
        <ele>712</ele>
        <time>2021-08-10T10:18:21.773Z</time>
      </trkpt>
      <trkpt lat="46.94339" lon="8.57814">
        <ele>712</ele>
        <time>2021-08-10T10:18:22.773Z</time>
      </trkpt>
      <trkpt lat="46.94338" lon="8.57814">
        <ele>712</ele>
        <time>2021-08-10T10:18:23.773Z</time>
      </trkpt>
      <trkpt lat="46.94339" lon="8.57813">
        <ele>711</ele>
        <time>2021-08-10T10:18:24.773Z</time>
      </trkpt>
      <trkpt lat="46.94339" lon="8.57813">
        <ele>711</ele>
        <time>2021-08-10T10:18:25.772Z</time>
      </trkpt>
      <trkpt lat="46.94338" lon="8.57814">
        <ele>712</ele>
        <time>2021-08-10T10:18:26.773Z</time>
      </trkpt>
      <trkpt lat="46.94338" lon="8.57813">
        <ele>712</ele>
        <time>2021-08-10T10:18:27.773Z</time>
      </trkpt>
      <trkpt lat="46.94334" lon="8.57813">
        <ele>722</ele>
        <time>2021-08-10T10:18:28.772Z</time>
      </trkpt>
      <trkpt lat="46.94334" lon="8.57813">
        <ele>724</ele>
        <time>2021-08-10T10:18:29.772Z</time>
      </trkpt>
      <trkpt lat="46.94333" lon="8.57813">
        <ele>726</ele>
        <time>2021-08-10T10:18:30.773Z</time>
      </trkpt>
      <trkpt lat="46.94333" lon="8.57812">
        <ele>727</ele>
        <time>2021-08-10T10:18:31.773Z</time>
      </trkpt>
      <trkpt lat="46.94333" lon="8.57812">
        <ele>729</ele>
        <time>2021-08-10T10:18:32.773Z</time>
      </trkpt>
      <trkpt lat="46.94333" lon="8.57811">
        <ele>730</ele>
        <time>2021-08-10T10:18:33.773Z</time>
      </trkpt>
      <trkpt lat="46.94333" lon="8.57811">
        <ele>731</ele>
        <time>2021-08-10T10:18:34.774Z</time>
      </trkpt>
      <trkpt lat="46.94334" lon="8.57812">
        <ele>731</ele>
        <time>2021-08-10T10:18:35.774Z</time>
      </trkpt>
      <trkpt lat="46.94334" lon="8.57818">
        <ele>725</ele>
        <time>2021-08-10T10:18:36.774Z</time>
      </trkpt>
      <trkpt lat="46.94333" lon="8.57819">
        <ele>725</ele>
        <time>2021-08-10T10:18:37.774Z</time>
      </trkpt>
      <trkpt lat="46.94333" lon="8.57819">
        <ele>725</ele>
        <time>2021-08-10T10:18:38.773Z</time>
      </trkpt>
      <trkpt lat="46.94333" lon="8.57818">
        <ele>725</ele>
        <time>2021-08-10T10:18:39.773Z</time>
      </trkpt>
      <trkpt lat="46.94333" lon="8.57815">
        <ele>725</ele>
        <time>2021-08-10T10:18:40.774Z</time>
      </trkpt>
      <trkpt lat="46.94333" lon="8.57814">
        <ele>725</ele>
        <time>2021-08-10T10:18:41.774Z</time>
      </trkpt>
      <trkpt lat="46.94333" lon="8.57813">
        <ele>725</ele>
        <time>2021-08-10T10:18:42.773Z</time>
      </trkpt>
      <trkpt lat="46.94333" lon="8.57813">
        <ele>724</ele>
        <time>2021-08-10T10:18:43.774Z</time>
      </trkpt>
      <trkpt lat="46.94332" lon="8.57813">
        <ele>724</ele>
        <time>2021-08-10T10:18:44.774Z</time>
      </trkpt>
      <trkpt lat="46.94331" lon="8.57813">
        <ele>723</ele>
        <time>2021-08-10T10:18:45.774Z</time>
      </trkpt>
      <trkpt lat="46.9433" lon="8.57813">
        <ele>723</ele>
        <time>2021-08-10T10:18:46.774Z</time>
      </trkpt>
      <trkpt lat="46.94329" lon="8.57813">
        <ele>723</ele>
        <time>2021-08-10T10:18:47.774Z</time>
      </trkpt>
      <trkpt lat="46.94328" lon="8.57812">
        <ele>723</ele>
        <time>2021-08-10T10:18:48.774Z</time>
      </trkpt>
      <trkpt lat="46.94328" lon="8.57812">
        <ele>723</ele>
        <time>2021-08-10T10:18:49.774Z</time>
      </trkpt>
      <trkpt lat="46.94328" lon="8.57812">
        <ele>723</ele>
        <time>2021-08-10T10:18:50.773Z</time>
      </trkpt>
      <trkpt lat="46.9433" lon="8.57809">
        <ele>721</ele>
        <time>2021-08-10T10:18:51.774Z</time>
      </trkpt>
      <trkpt lat="46.9433" lon="8.57809">
        <ele>721</ele>
        <time>2021-08-10T10:18:52.774Z</time>
      </trkpt>
      <trkpt lat="46.94329" lon="8.57808">
        <ele>721</ele>
        <time>2021-08-10T10:18:53.773Z</time>
      </trkpt>
      <trkpt lat="46.94329" lon="8.57808">
        <ele>721</ele>
        <time>2021-08-10T10:18:54.774Z</time>
      </trkpt>
      <trkpt lat="46.94328" lon="8.57808">
        <ele>721</ele>
        <time>2021-08-10T10:18:55.774Z</time>
      </trkpt>
      <trkpt lat="46.94327" lon="8.57807">
        <ele>721</ele>
        <time>2021-08-10T10:18:56.773Z</time>
      </trkpt>
      <trkpt lat="46.94326" lon="8.57806">
        <ele>721</ele>
        <time>2021-08-10T10:18:57.773Z</time>
      </trkpt>
      <trkpt lat="46.94326" lon="8.57805">
        <ele>722</ele>
        <time>2021-08-10T10:18:58.773Z</time>
      </trkpt>
      <trkpt lat="46.94325" lon="8.57804">
        <ele>722</ele>
        <time>2021-08-10T10:18:59.774Z</time>
      </trkpt>
      <trkpt lat="46.94324" lon="8.57803">
        <ele>722</ele>
        <time>2021-08-10T10:19:00.774Z</time>
      </trkpt>
      <trkpt lat="46.94324" lon="8.57802">
        <ele>722</ele>
        <time>2021-08-10T10:19:01.774Z</time>
      </trkpt>
      <trkpt lat="46.94323" lon="8.57801">
        <ele>721</ele>
        <time>2021-08-10T10:19:02.774Z</time>
      </trkpt>
      <trkpt lat="46.94322" lon="8.57799">
        <ele>721</ele>
        <time>2021-08-10T10:19:03.773Z</time>
      </trkpt>
      <trkpt lat="46.94322" lon="8.57798">
        <ele>721</ele>
        <time>2021-08-10T10:19:04.773Z</time>
      </trkpt>
      <trkpt lat="46.94321" lon="8.57797">
        <ele>721</ele>
        <time>2021-08-10T10:19:05.773Z</time>
      </trkpt>
      <trkpt lat="46.94321" lon="8.57795">
        <ele>721</ele>
        <time>2021-08-10T10:19:06.774Z</time>
      </trkpt>
      <trkpt lat="46.9432" lon="8.57794">
        <ele>721</ele>
        <time>2021-08-10T10:19:07.773Z</time>
      </trkpt>
      <trkpt lat="46.94319" lon="8.57792">
        <ele>721</ele>
        <time>2021-08-10T10:19:08.774Z</time>
      </trkpt>
      <trkpt lat="46.94319" lon="8.57791">
        <ele>721</ele>
        <time>2021-08-10T10:19:09.773Z</time>
      </trkpt>
      <trkpt lat="46.94318" lon="8.5779">
        <ele>720</ele>
        <time>2021-08-10T10:19:10.774Z</time>
      </trkpt>
      <trkpt lat="46.94317" lon="8.57788">
        <ele>720</ele>
        <time>2021-08-10T10:19:11.774Z</time>
      </trkpt>
      <trkpt lat="46.94317" lon="8.57788">
        <ele>720</ele>
        <time>2021-08-10T10:19:12.774Z</time>
      </trkpt>
      <trkpt lat="46.94316" lon="8.57787">
        <ele>719</ele>
        <time>2021-08-10T10:19:13.774Z</time>
      </trkpt>
      <trkpt lat="46.94316" lon="8.57787">
        <ele>719</ele>
        <time>2021-08-10T10:19:14.774Z</time>
      </trkpt>
      <trkpt lat="46.94316" lon="8.57786">
        <ele>718</ele>
        <time>2021-08-10T10:19:15.774Z</time>
      </trkpt>
      <trkpt lat="46.94316" lon="8.57786">
        <ele>718</ele>
        <time>2021-08-10T10:19:16.774Z</time>
      </trkpt>
      <trkpt lat="46.94315" lon="8.57786">
        <ele>717</ele>
        <time>2021-08-10T10:19:17.774Z</time>
      </trkpt>
      <trkpt lat="46.94315" lon="8.57786">
        <ele>717</ele>
        <time>2021-08-10T10:19:18.774Z</time>
      </trkpt>
      <trkpt lat="46.94314" lon="8.57785">
        <ele>716</ele>
        <time>2021-08-10T10:19:19.774Z</time>
      </trkpt>
      <trkpt lat="46.94314" lon="8.57784">
        <ele>716</ele>
        <time>2021-08-10T10:19:20.774Z</time>
      </trkpt>
      <trkpt lat="46.94313" lon="8.57783">
        <ele>716</ele>
        <time>2021-08-10T10:19:21.773Z</time>
      </trkpt>
      <trkpt lat="46.94311" lon="8.57783">
        <ele>715</ele>
        <time>2021-08-10T10:19:22.774Z</time>
      </trkpt>
      <trkpt lat="46.9431" lon="8.57781">
        <ele>715</ele>
        <time>2021-08-10T10:19:23.774Z</time>
      </trkpt>
      <trkpt lat="46.94309" lon="8.57779">
        <ele>716</ele>
        <time>2021-08-10T10:19:24.773Z</time>
      </trkpt>
      <trkpt lat="46.94308" lon="8.57778">
        <ele>716</ele>
        <time>2021-08-10T10:19:25.774Z</time>
      </trkpt>
      <trkpt lat="46.94307" lon="8.57777">
        <ele>716</ele>
        <time>2021-08-10T10:19:26.774Z</time>
      </trkpt>
      <trkpt lat="46.94307" lon="8.57776">
        <ele>715</ele>
        <time>2021-08-10T10:19:27.774Z</time>
      </trkpt>
      <trkpt lat="46.94306" lon="8.57775">
        <ele>715</ele>
        <time>2021-08-10T10:19:28.774Z</time>
      </trkpt>
      <trkpt lat="46.94306" lon="8.57774">
        <ele>715</ele>
        <time>2021-08-10T10:19:29.774Z</time>
      </trkpt>
      <trkpt lat="46.94305" lon="8.57772">
        <ele>715</ele>
        <time>2021-08-10T10:19:30.774Z</time>
      </trkpt>
      <trkpt lat="46.94305" lon="8.57771">
        <ele>714</ele>
        <time>2021-08-10T10:19:31.774Z</time>
      </trkpt>
      <trkpt lat="46.94305" lon="8.5777">
        <ele>714</ele>
        <time>2021-08-10T10:19:32.774Z</time>
      </trkpt>
      <trkpt lat="46.94305" lon="8.57769">
        <ele>714</ele>
        <time>2021-08-10T10:19:33.774Z</time>
      </trkpt>
      <trkpt lat="46.94304" lon="8.57768">
        <ele>714</ele>
        <time>2021-08-10T10:19:34.774Z</time>
      </trkpt>
      <trkpt lat="46.94303" lon="8.57766">
        <ele>714</ele>
        <time>2021-08-10T10:19:35.774Z</time>
      </trkpt>
      <trkpt lat="46.94303" lon="8.57765">
        <ele>714</ele>
        <time>2021-08-10T10:19:36.773Z</time>
      </trkpt>
      <trkpt lat="46.94302" lon="8.57763">
        <ele>714</ele>
        <time>2021-08-10T10:19:37.773Z</time>
      </trkpt>
      <trkpt lat="46.94301" lon="8.57762">
        <ele>715</ele>
        <time>2021-08-10T10:19:38.774Z</time>
      </trkpt>
      <trkpt lat="46.943" lon="8.57761">
        <ele>715</ele>
        <time>2021-08-10T10:19:39.773Z</time>
      </trkpt>
      <trkpt lat="46.943" lon="8.57759">
        <ele>715</ele>
        <time>2021-08-10T10:19:40.774Z</time>
      </trkpt>
      <trkpt lat="46.94299" lon="8.57757">
        <ele>715</ele>
        <time>2021-08-10T10:19:41.774Z</time>
      </trkpt>
      <trkpt lat="46.94299" lon="8.57756">
        <ele>715</ele>
        <time>2021-08-10T10:19:42.773Z</time>
      </trkpt>
      <trkpt lat="46.94299" lon="8.57755">
        <ele>715</ele>
        <time>2021-08-10T10:19:43.774Z</time>
      </trkpt>
      <trkpt lat="46.94298" lon="8.57753">
        <ele>715</ele>
        <time>2021-08-10T10:19:44.773Z</time>
      </trkpt>
      <trkpt lat="46.94297" lon="8.57752">
        <ele>715</ele>
        <time>2021-08-10T10:19:45.774Z</time>
      </trkpt>
      <trkpt lat="46.94297" lon="8.5775">
        <ele>715</ele>
        <time>2021-08-10T10:19:46.773Z</time>
      </trkpt>
      <trkpt lat="46.94296" lon="8.57747">
        <ele>716</ele>
        <time>2021-08-10T10:19:47.774Z</time>
      </trkpt>
      <trkpt lat="46.94295" lon="8.57745">
        <ele>716</ele>
        <time>2021-08-10T10:19:48.773Z</time>
      </trkpt>
      <trkpt lat="46.94294" lon="8.57744">
        <ele>716</ele>
        <time>2021-08-10T10:19:49.774Z</time>
      </trkpt>
      <trkpt lat="46.94293" lon="8.57742">
        <ele>716</ele>
        <time>2021-08-10T10:19:50.774Z</time>
      </trkpt>
      <trkpt lat="46.94292" lon="8.5774">
        <ele>716</ele>
        <time>2021-08-10T10:19:51.774Z</time>
      </trkpt>
      <trkpt lat="46.94291" lon="8.57738">
        <ele>717</ele>
        <time>2021-08-10T10:19:52.774Z</time>
      </trkpt>
      <trkpt lat="46.94291" lon="8.57736">
        <ele>716</ele>
        <time>2021-08-10T10:19:53.774Z</time>
      </trkpt>
      <trkpt lat="46.94291" lon="8.57735">
        <ele>716</ele>
        <time>2021-08-10T10:19:54.773Z</time>
      </trkpt>
      <trkpt lat="46.94291" lon="8.57733">
        <ele>716</ele>
        <time>2021-08-10T10:19:55.773Z</time>
      </trkpt>
      <trkpt lat="46.9429" lon="8.57732">
        <ele>716</ele>
        <time>2021-08-10T10:19:56.774Z</time>
      </trkpt>
      <trkpt lat="46.9429" lon="8.5773">
        <ele>716</ele>
        <time>2021-08-10T10:19:57.773Z</time>
      </trkpt>
      <trkpt lat="46.94289" lon="8.57728">
        <ele>716</ele>
        <time>2021-08-10T10:19:58.773Z</time>
      </trkpt>
      <trkpt lat="46.94289" lon="8.57726">
        <ele>716</ele>
        <time>2021-08-10T10:19:59.773Z</time>
      </trkpt>
      <trkpt lat="46.94288" lon="8.57725">
        <ele>716</ele>
        <time>2021-08-10T10:20:00.774Z</time>
      </trkpt>
      <trkpt lat="46.94288" lon="8.57723">
        <ele>717</ele>
        <time>2021-08-10T10:20:01.774Z</time>
      </trkpt>
      <trkpt lat="46.94287" lon="8.57722">
        <ele>717</ele>
        <time>2021-08-10T10:20:02.773Z</time>
      </trkpt>
      <trkpt lat="46.94286" lon="8.57721">
        <ele>717</ele>
        <time>2021-08-10T10:20:03.773Z</time>
      </trkpt>
      <trkpt lat="46.94284" lon="8.5772">
        <ele>717</ele>
        <time>2021-08-10T10:20:04.774Z</time>
      </trkpt>
      <trkpt lat="46.94283" lon="8.57718">
        <ele>717</ele>
        <time>2021-08-10T10:20:05.774Z</time>
      </trkpt>
      <trkpt lat="46.94282" lon="8.57717">
        <ele>717</ele>
        <time>2021-08-10T10:20:06.774Z</time>
      </trkpt>
      <trkpt lat="46.9428" lon="8.57715">
        <ele>717</ele>
        <time>2021-08-10T10:20:07.774Z</time>
      </trkpt>
      <trkpt lat="46.94279" lon="8.57714">
        <ele>717</ele>
        <time>2021-08-10T10:20:08.774Z</time>
      </trkpt>
      <trkpt lat="46.94278" lon="8.57715">
        <ele>718</ele>
        <time>2021-08-10T10:20:09.774Z</time>
      </trkpt>
      <trkpt lat="46.94278" lon="8.57715">
        <ele>718</ele>
        <time>2021-08-10T10:20:10.774Z</time>
      </trkpt>
      <trkpt lat="46.94278" lon="8.57716">
        <ele>718</ele>
        <time>2021-08-10T10:20:11.774Z</time>
      </trkpt>
      <trkpt lat="46.94278" lon="8.57715">
        <ele>718</ele>
        <time>2021-08-10T10:20:12.774Z</time>
      </trkpt>
      <trkpt lat="46.94278" lon="8.57715">
        <ele>718</ele>
        <time>2021-08-10T10:20:13.774Z</time>
      </trkpt>
      <trkpt lat="46.94276" lon="8.57713">
        <ele>718</ele>
        <time>2021-08-10T10:20:14.774Z</time>
      </trkpt>
      <trkpt lat="46.94274" lon="8.57711">
        <ele>718</ele>
        <time>2021-08-10T10:20:15.775Z</time>
      </trkpt>
      <trkpt lat="46.94273" lon="8.5771">
        <ele>718</ele>
        <time>2021-08-10T10:20:16.775Z</time>
      </trkpt>
      <trkpt lat="46.94271" lon="8.57709">
        <ele>718</ele>
        <time>2021-08-10T10:20:17.774Z</time>
      </trkpt>
      <trkpt lat="46.9427" lon="8.57708">
        <ele>718</ele>
        <time>2021-08-10T10:20:18.774Z</time>
      </trkpt>
      <trkpt lat="46.94271" lon="8.57707">
        <ele>718</ele>
        <time>2021-08-10T10:20:19.774Z</time>
      </trkpt>
      <trkpt lat="46.94271" lon="8.57707">
        <ele>718</ele>
        <time>2021-08-10T10:20:20.774Z</time>
      </trkpt>
      <trkpt lat="46.94271" lon="8.57706">
        <ele>718</ele>
        <time>2021-08-10T10:20:21.774Z</time>
      </trkpt>
      <trkpt lat="46.94271" lon="8.57706">
        <ele>718</ele>
        <time>2021-08-10T10:20:22.774Z</time>
      </trkpt>
      <trkpt lat="46.94271" lon="8.57705">
        <ele>718</ele>
        <time>2021-08-10T10:20:23.774Z</time>
      </trkpt>
      <trkpt lat="46.94271" lon="8.57704">
        <ele>718</ele>
        <time>2021-08-10T10:20:24.775Z</time>
      </trkpt>
      <trkpt lat="46.94271" lon="8.57703">
        <ele>718</ele>
        <time>2021-08-10T10:20:25.774Z</time>
      </trkpt>
      <trkpt lat="46.9427" lon="8.57703">
        <ele>718</ele>
        <time>2021-08-10T10:20:26.774Z</time>
      </trkpt>
      <trkpt lat="46.9427" lon="8.57703">
        <ele>718</ele>
        <time>2021-08-10T10:20:27.774Z</time>
      </trkpt>
      <trkpt lat="46.9427" lon="8.57703">
        <ele>717</ele>
        <time>2021-08-10T10:20:28.774Z</time>
      </trkpt>
      <trkpt lat="46.9427" lon="8.57703">
        <ele>717</ele>
        <time>2021-08-10T10:20:29.774Z</time>
      </trkpt>
      <trkpt lat="46.94271" lon="8.57703">
        <ele>717</ele>
        <time>2021-08-10T10:20:30.774Z</time>
      </trkpt>
      <trkpt lat="46.9427" lon="8.57703">
        <ele>717</ele>
        <time>2021-08-10T10:20:31.774Z</time>
      </trkpt>
      <trkpt lat="46.9427" lon="8.57702">
        <ele>717</ele>
        <time>2021-08-10T10:20:32.774Z</time>
      </trkpt>
      <trkpt lat="46.94271" lon="8.57702">
        <ele>717</ele>
        <time>2021-08-10T10:20:33.774Z</time>
      </trkpt>
      <trkpt lat="46.94272" lon="8.57702">
        <ele>717</ele>
        <time>2021-08-10T10:20:34.774Z</time>
      </trkpt>
      <trkpt lat="46.94273" lon="8.577">
        <ele>717</ele>
        <time>2021-08-10T10:20:35.774Z</time>
      </trkpt>
      <trkpt lat="46.94272" lon="8.57698">
        <ele>717</ele>
        <time>2021-08-10T10:20:36.774Z</time>
      </trkpt>
      <trkpt lat="46.94272" lon="8.57695">
        <ele>717</ele>
        <time>2021-08-10T10:20:37.774Z</time>
      </trkpt>
      <trkpt lat="46.94272" lon="8.57691">
        <ele>717</ele>
        <time>2021-08-10T10:20:38.774Z</time>
      </trkpt>
      <trkpt lat="46.94272" lon="8.5769">
        <ele>717</ele>
        <time>2021-08-10T10:20:39.774Z</time>
      </trkpt>
      <trkpt lat="46.94272" lon="8.57689">
        <ele>717</ele>
        <time>2021-08-10T10:20:40.774Z</time>
      </trkpt>
      <trkpt lat="46.94272" lon="8.5769">
        <ele>716</ele>
        <time>2021-08-10T10:20:41.774Z</time>
      </trkpt>
      <trkpt lat="46.94271" lon="8.57689">
        <ele>716</ele>
        <time>2021-08-10T10:20:42.774Z</time>
      </trkpt>
      <trkpt lat="46.94271" lon="8.57689">
        <ele>715</ele>
        <time>2021-08-10T10:20:43.774Z</time>
      </trkpt>
      <trkpt lat="46.94269" lon="8.57688">
        <ele>715</ele>
        <time>2021-08-10T10:20:44.774Z</time>
      </trkpt>
      <trkpt lat="46.94268" lon="8.57687">
        <ele>714</ele>
        <time>2021-08-10T10:20:45.774Z</time>
      </trkpt>
      <trkpt lat="46.94267" lon="8.57684">
        <ele>714</ele>
        <time>2021-08-10T10:20:46.775Z</time>
      </trkpt>
      <trkpt lat="46.94265" lon="8.57683">
        <ele>713</ele>
        <time>2021-08-10T10:20:47.775Z</time>
      </trkpt>
      <trkpt lat="46.94263" lon="8.57681">
        <ele>712</ele>
        <time>2021-08-10T10:20:48.775Z</time>
      </trkpt>
      <trkpt lat="46.9426" lon="8.57679">
        <ele>712</ele>
        <time>2021-08-10T10:20:49.775Z</time>
      </trkpt>
      <trkpt lat="46.94259" lon="8.57678">
        <ele>711</ele>
        <time>2021-08-10T10:20:50.774Z</time>
      </trkpt>
      <trkpt lat="46.94259" lon="8.57677">
        <ele>711</ele>
        <time>2021-08-10T10:20:51.774Z</time>
      </trkpt>
      <trkpt lat="46.94258" lon="8.57676">
        <ele>710</ele>
        <time>2021-08-10T10:20:52.774Z</time>
      </trkpt>
      <trkpt lat="46.94256" lon="8.57674">
        <ele>710</ele>
        <time>2021-08-10T10:20:53.775Z</time>
      </trkpt>
      <trkpt lat="46.94254" lon="8.57673">
        <ele>709</ele>
        <time>2021-08-10T10:20:54.775Z</time>
      </trkpt>
      <trkpt lat="46.94252" lon="8.57672">
        <ele>708</ele>
        <time>2021-08-10T10:20:55.775Z</time>
      </trkpt>
      <trkpt lat="46.94251" lon="8.57671">
        <ele>708</ele>
        <time>2021-08-10T10:20:56.774Z</time>
      </trkpt>
      <trkpt lat="46.94249" lon="8.57669">
        <ele>707</ele>
        <time>2021-08-10T10:20:57.774Z</time>
      </trkpt>
      <trkpt lat="46.94248" lon="8.57667">
        <ele>707</ele>
        <time>2021-08-10T10:20:58.775Z</time>
      </trkpt>
      <trkpt lat="46.94248" lon="8.57664">
        <ele>707</ele>
        <time>2021-08-10T10:20:59.774Z</time>
      </trkpt>
      <trkpt lat="46.94248" lon="8.57662">
        <ele>707</ele>
        <time>2021-08-10T10:21:00.775Z</time>
      </trkpt>
      <trkpt lat="46.94249" lon="8.5766">
        <ele>707</ele>
        <time>2021-08-10T10:21:01.774Z</time>
      </trkpt>
      <trkpt lat="46.9425" lon="8.57658">
        <ele>707</ele>
        <time>2021-08-10T10:21:02.775Z</time>
      </trkpt>
      <trkpt lat="46.94251" lon="8.57656">
        <ele>707</ele>
        <time>2021-08-10T10:21:03.774Z</time>
      </trkpt>
      <trkpt lat="46.94252" lon="8.57654">
        <ele>707</ele>
        <time>2021-08-10T10:21:04.775Z</time>
      </trkpt>
      <trkpt lat="46.94251" lon="8.57651">
        <ele>707</ele>
        <time>2021-08-10T10:21:05.775Z</time>
      </trkpt>
      <trkpt lat="46.94251" lon="8.5765">
        <ele>706</ele>
        <time>2021-08-10T10:21:06.775Z</time>
      </trkpt>
      <trkpt lat="46.9425" lon="8.57649">
        <ele>706</ele>
        <time>2021-08-10T10:21:07.775Z</time>
      </trkpt>
      <trkpt lat="46.9425" lon="8.57647">
        <ele>706</ele>
        <time>2021-08-10T10:21:08.775Z</time>
      </trkpt>
      <trkpt lat="46.94249" lon="8.57646">
        <ele>706</ele>
        <time>2021-08-10T10:21:09.775Z</time>
      </trkpt>
      <trkpt lat="46.94249" lon="8.57645">
        <ele>706</ele>
        <time>2021-08-10T10:21:10.775Z</time>
      </trkpt>
      <trkpt lat="46.94248" lon="8.57643">
        <ele>706</ele>
        <time>2021-08-10T10:21:11.775Z</time>
      </trkpt>
      <trkpt lat="46.94246" lon="8.57642">
        <ele>706</ele>
        <time>2021-08-10T10:21:12.775Z</time>
      </trkpt>
      <trkpt lat="46.94245" lon="8.57641">
        <ele>706</ele>
        <time>2021-08-10T10:21:13.775Z</time>
      </trkpt>
      <trkpt lat="46.94245" lon="8.5764">
        <ele>706</ele>
        <time>2021-08-10T10:21:14.775Z</time>
      </trkpt>
      <trkpt lat="46.94245" lon="8.57638">
        <ele>706</ele>
        <time>2021-08-10T10:21:15.774Z</time>
      </trkpt>
      <trkpt lat="46.94245" lon="8.57637">
        <ele>706</ele>
        <time>2021-08-10T10:21:16.775Z</time>
      </trkpt>
      <trkpt lat="46.94244" lon="8.57636">
        <ele>706</ele>
        <time>2021-08-10T10:21:17.775Z</time>
      </trkpt>
      <trkpt lat="46.94244" lon="8.57635">
        <ele>706</ele>
        <time>2021-08-10T10:21:18.775Z</time>
      </trkpt>
      <trkpt lat="46.94244" lon="8.57634">
        <ele>706</ele>
        <time>2021-08-10T10:21:19.774Z</time>
      </trkpt>
      <trkpt lat="46.94244" lon="8.57634">
        <ele>706</ele>
        <time>2021-08-10T10:21:20.775Z</time>
      </trkpt>
      <trkpt lat="46.94243" lon="8.57634">
        <ele>706</ele>
        <time>2021-08-10T10:21:21.775Z</time>
      </trkpt>
      <trkpt lat="46.94244" lon="8.57633">
        <ele>707</ele>
        <time>2021-08-10T10:21:22.775Z</time>
      </trkpt>
      <trkpt lat="46.94244" lon="8.57631">
        <ele>707</ele>
        <time>2021-08-10T10:21:23.774Z</time>
      </trkpt>
      <trkpt lat="46.94244" lon="8.5763">
        <ele>707</ele>
        <time>2021-08-10T10:21:24.775Z</time>
      </trkpt>
      <trkpt lat="46.94244" lon="8.57629">
        <ele>706</ele>
        <time>2021-08-10T10:21:25.775Z</time>
      </trkpt>
      <trkpt lat="46.94245" lon="8.57628">
        <ele>706</ele>
        <time>2021-08-10T10:21:26.775Z</time>
      </trkpt>
      <trkpt lat="46.94245" lon="8.57627">
        <ele>706</ele>
        <time>2021-08-10T10:21:27.775Z</time>
      </trkpt>
      <trkpt lat="46.94246" lon="8.57625">
        <ele>706</ele>
        <time>2021-08-10T10:21:28.775Z</time>
      </trkpt>
      <trkpt lat="46.94247" lon="8.57624">
        <ele>705</ele>
        <time>2021-08-10T10:21:29.775Z</time>
      </trkpt>
      <trkpt lat="46.94247" lon="8.57622">
        <ele>705</ele>
        <time>2021-08-10T10:21:30.774Z</time>
      </trkpt>
      <trkpt lat="46.94247" lon="8.57621">
        <ele>705</ele>
        <time>2021-08-10T10:21:31.775Z</time>
      </trkpt>
      <trkpt lat="46.94246" lon="8.57619">
        <ele>705</ele>
        <time>2021-08-10T10:21:32.774Z</time>
      </trkpt>
      <trkpt lat="46.94246" lon="8.57618">
        <ele>705</ele>
        <time>2021-08-10T10:21:33.775Z</time>
      </trkpt>
      <trkpt lat="46.94246" lon="8.57617">
        <ele>705</ele>
        <time>2021-08-10T10:21:34.774Z</time>
      </trkpt>
      <trkpt lat="46.94247" lon="8.57616">
        <ele>705</ele>
        <time>2021-08-10T10:21:35.775Z</time>
      </trkpt>
      <trkpt lat="46.94247" lon="8.57615">
        <ele>705</ele>
        <time>2021-08-10T10:21:36.774Z</time>
      </trkpt>
      <trkpt lat="46.94247" lon="8.57614">
        <ele>706</ele>
        <time>2021-08-10T10:21:37.775Z</time>
      </trkpt>
      <trkpt lat="46.94247" lon="8.57613">
        <ele>706</ele>
        <time>2021-08-10T10:21:38.774Z</time>
      </trkpt>
      <trkpt lat="46.94247" lon="8.57611">
        <ele>706</ele>
        <time>2021-08-10T10:21:39.775Z</time>
      </trkpt>
      <trkpt lat="46.94246" lon="8.5761">
        <ele>706</ele>
        <time>2021-08-10T10:21:40.775Z</time>
      </trkpt>
      <trkpt lat="46.94245" lon="8.57609">
        <ele>706</ele>
        <time>2021-08-10T10:21:41.775Z</time>
      </trkpt>
      <trkpt lat="46.94244" lon="8.57607">
        <ele>707</ele>
        <time>2021-08-10T10:21:42.774Z</time>
      </trkpt>
      <trkpt lat="46.94243" lon="8.57605">
        <ele>707</ele>
        <time>2021-08-10T10:21:43.775Z</time>
      </trkpt>
      <trkpt lat="46.94242" lon="8.57605">
        <ele>707</ele>
        <time>2021-08-10T10:21:44.775Z</time>
      </trkpt>
      <trkpt lat="46.94242" lon="8.57604">
        <ele>707</ele>
        <time>2021-08-10T10:21:45.775Z</time>
      </trkpt>
      <trkpt lat="46.94241" lon="8.57603">
        <ele>707</ele>
        <time>2021-08-10T10:21:46.775Z</time>
      </trkpt>
      <trkpt lat="46.94241" lon="8.57601">
        <ele>707</ele>
        <time>2021-08-10T10:21:47.775Z</time>
      </trkpt>
      <trkpt lat="46.9424" lon="8.57599">
        <ele>708</ele>
        <time>2021-08-10T10:21:48.775Z</time>
      </trkpt>
      <trkpt lat="46.94239" lon="8.57597">
        <ele>708</ele>
        <time>2021-08-10T10:21:49.775Z</time>
      </trkpt>
      <trkpt lat="46.94238" lon="8.57596">
        <ele>708</ele>
        <time>2021-08-10T10:21:50.774Z</time>
      </trkpt>
      <trkpt lat="46.94236" lon="8.57595">
        <ele>708</ele>
        <time>2021-08-10T10:21:51.775Z</time>
      </trkpt>
      <trkpt lat="46.94236" lon="8.57595">
        <ele>708</ele>
        <time>2021-08-10T10:21:52.775Z</time>
      </trkpt>
      <trkpt lat="46.94235" lon="8.57596">
        <ele>708</ele>
        <time>2021-08-10T10:21:53.775Z</time>
      </trkpt>
      <trkpt lat="46.94234" lon="8.57595">
        <ele>708</ele>
        <time>2021-08-10T10:21:54.775Z</time>
      </trkpt>
      <trkpt lat="46.94233" lon="8.57595">
        <ele>708</ele>
        <time>2021-08-10T10:21:55.775Z</time>
      </trkpt>
      <trkpt lat="46.94232" lon="8.57594">
        <ele>709</ele>
        <time>2021-08-10T10:21:56.775Z</time>
      </trkpt>
      <trkpt lat="46.94232" lon="8.57594">
        <ele>709</ele>
        <time>2021-08-10T10:21:57.775Z</time>
      </trkpt>
      <trkpt lat="46.9423" lon="8.57593">
        <ele>709</ele>
        <time>2021-08-10T10:21:58.775Z</time>
      </trkpt>
      <trkpt lat="46.94228" lon="8.57592">
        <ele>710</ele>
        <time>2021-08-10T10:21:59.775Z</time>
      </trkpt>
      <trkpt lat="46.94227" lon="8.57593">
        <ele>710</ele>
        <time>2021-08-10T10:22:00.775Z</time>
      </trkpt>
      <trkpt lat="46.94226" lon="8.57593">
        <ele>710</ele>
        <time>2021-08-10T10:22:01.774Z</time>
      </trkpt>
      <trkpt lat="46.94225" lon="8.57592">
        <ele>710</ele>
        <time>2021-08-10T10:22:02.775Z</time>
      </trkpt>
      <trkpt lat="46.94224" lon="8.57591">
        <ele>710</ele>
        <time>2021-08-10T10:22:03.774Z</time>
      </trkpt>
      <trkpt lat="46.94224" lon="8.5759">
        <ele>711</ele>
        <time>2021-08-10T10:22:04.775Z</time>
      </trkpt>
      <trkpt lat="46.94223" lon="8.57589">
        <ele>711</ele>
        <time>2021-08-10T10:22:05.775Z</time>
      </trkpt>
      <trkpt lat="46.94223" lon="8.57589">
        <ele>711</ele>
        <time>2021-08-10T10:22:06.775Z</time>
      </trkpt>
      <trkpt lat="46.94223" lon="8.57589">
        <ele>711</ele>
        <time>2021-08-10T10:22:07.775Z</time>
      </trkpt>
      <trkpt lat="46.94222" lon="8.57589">
        <ele>712</ele>
        <time>2021-08-10T10:22:08.775Z</time>
      </trkpt>
      <trkpt lat="46.94222" lon="8.5759">
        <ele>712</ele>
        <time>2021-08-10T10:22:09.776Z</time>
      </trkpt>
      <trkpt lat="46.94221" lon="8.5759">
        <ele>712</ele>
        <time>2021-08-10T10:22:10.775Z</time>
      </trkpt>
      <trkpt lat="46.9422" lon="8.57591">
        <ele>712</ele>
        <time>2021-08-10T10:22:11.775Z</time>
      </trkpt>
      <trkpt lat="46.94219" lon="8.57591">
        <ele>712</ele>
        <time>2021-08-10T10:22:12.775Z</time>
      </trkpt>
      <trkpt lat="46.94218" lon="8.57591">
        <ele>712</ele>
        <time>2021-08-10T10:22:13.776Z</time>
      </trkpt>
      <trkpt lat="46.94217" lon="8.57591">
        <ele>712</ele>
        <time>2021-08-10T10:22:14.776Z</time>
      </trkpt>
      <trkpt lat="46.94216" lon="8.57591">
        <ele>712</ele>
        <time>2021-08-10T10:22:15.775Z</time>
      </trkpt>
      <trkpt lat="46.94215" lon="8.57592">
        <ele>713</ele>
        <time>2021-08-10T10:22:16.776Z</time>
      </trkpt>
      <trkpt lat="46.94214" lon="8.57592">
        <ele>713</ele>
        <time>2021-08-10T10:22:17.776Z</time>
      </trkpt>
      <trkpt lat="46.94212" lon="8.57593">
        <ele>713</ele>
        <time>2021-08-10T10:22:18.776Z</time>
      </trkpt>
      <trkpt lat="46.9421" lon="8.57595">
        <ele>713</ele>
        <time>2021-08-10T10:22:19.776Z</time>
      </trkpt>
      <trkpt lat="46.94208" lon="8.57594">
        <ele>712</ele>
        <time>2021-08-10T10:22:20.777Z</time>
      </trkpt>
      <trkpt lat="46.94207" lon="8.57594">
        <ele>712</ele>
        <time>2021-08-10T10:22:21.777Z</time>
      </trkpt>
      <trkpt lat="46.94206" lon="8.57594">
        <ele>712</ele>
        <time>2021-08-10T10:22:22.777Z</time>
      </trkpt>
      <trkpt lat="46.94205" lon="8.57593">
        <ele>712</ele>
        <time>2021-08-10T10:22:23.777Z</time>
      </trkpt>
      <trkpt lat="46.94204" lon="8.57593">
        <ele>712</ele>
        <time>2021-08-10T10:22:24.777Z</time>
      </trkpt>
      <trkpt lat="46.94203" lon="8.57593">
        <ele>712</ele>
        <time>2021-08-10T10:22:25.777Z</time>
      </trkpt>
      <trkpt lat="46.94203" lon="8.57593">
        <ele>712</ele>
        <time>2021-08-10T10:22:26.777Z</time>
      </trkpt>
      <trkpt lat="46.94202" lon="8.57593">
        <ele>712</ele>
        <time>2021-08-10T10:22:27.777Z</time>
      </trkpt>
      <trkpt lat="46.94201" lon="8.57593">
        <ele>713</ele>
        <time>2021-08-10T10:22:28.777Z</time>
      </trkpt>
      <trkpt lat="46.942" lon="8.57593">
        <ele>713</ele>
        <time>2021-08-10T10:22:29.777Z</time>
      </trkpt>
      <trkpt lat="46.94199" lon="8.57593">
        <ele>713</ele>
        <time>2021-08-10T10:22:30.777Z</time>
      </trkpt>
      <trkpt lat="46.94198" lon="8.57593">
        <ele>713</ele>
        <time>2021-08-10T10:22:31.776Z</time>
      </trkpt>
      <trkpt lat="46.94197" lon="8.57594">
        <ele>713</ele>
        <time>2021-08-10T10:22:32.776Z</time>
      </trkpt>
      <trkpt lat="46.94197" lon="8.57594">
        <ele>713</ele>
        <time>2021-08-10T10:22:33.777Z</time>
      </trkpt>
      <trkpt lat="46.94196" lon="8.57595">
        <ele>713</ele>
        <time>2021-08-10T10:22:34.777Z</time>
      </trkpt>
      <trkpt lat="46.94196" lon="8.57594">
        <ele>713</ele>
        <time>2021-08-10T10:22:35.777Z</time>
      </trkpt>
      <trkpt lat="46.94195" lon="8.57594">
        <ele>713</ele>
        <time>2021-08-10T10:22:36.777Z</time>
      </trkpt>
      <trkpt lat="46.94194" lon="8.57593">
        <ele>714</ele>
        <time>2021-08-10T10:22:37.777Z</time>
      </trkpt>
      <trkpt lat="46.94193" lon="8.57591">
        <ele>714</ele>
        <time>2021-08-10T10:22:38.776Z</time>
      </trkpt>
      <trkpt lat="46.94193" lon="8.57589">
        <ele>714</ele>
        <time>2021-08-10T10:22:39.777Z</time>
      </trkpt>
      <trkpt lat="46.94192" lon="8.57589">
        <ele>714</ele>
        <time>2021-08-10T10:22:40.777Z</time>
      </trkpt>
      <trkpt lat="46.94192" lon="8.57589">
        <ele>714</ele>
        <time>2021-08-10T10:22:41.777Z</time>
      </trkpt>
      <trkpt lat="46.94191" lon="8.57589">
        <ele>714</ele>
        <time>2021-08-10T10:22:42.777Z</time>
      </trkpt>
      <trkpt lat="46.9419" lon="8.57588">
        <ele>713</ele>
        <time>2021-08-10T10:22:43.776Z</time>
      </trkpt>
      <trkpt lat="46.94189" lon="8.57587">
        <ele>713</ele>
        <time>2021-08-10T10:22:44.776Z</time>
      </trkpt>
      <trkpt lat="46.94188" lon="8.57587">
        <ele>712</ele>
        <time>2021-08-10T10:22:45.777Z</time>
      </trkpt>
      <trkpt lat="46.94187" lon="8.57587">
        <ele>711</ele>
        <time>2021-08-10T10:22:46.777Z</time>
      </trkpt>
      <trkpt lat="46.94185" lon="8.57587">
        <ele>710</ele>
        <time>2021-08-10T10:22:47.776Z</time>
      </trkpt>
      <trkpt lat="46.94184" lon="8.57587">
        <ele>708</ele>
        <time>2021-08-10T10:22:48.777Z</time>
      </trkpt>
      <trkpt lat="46.94183" lon="8.57588">
        <ele>708</ele>
        <time>2021-08-10T10:22:49.777Z</time>
      </trkpt>
      <trkpt lat="46.94181" lon="8.57587">
        <ele>707</ele>
        <time>2021-08-10T10:22:50.777Z</time>
      </trkpt>
      <trkpt lat="46.9418" lon="8.57587">
        <ele>706</ele>
        <time>2021-08-10T10:22:51.776Z</time>
      </trkpt>
      <trkpt lat="46.94179" lon="8.57587">
        <ele>706</ele>
        <time>2021-08-10T10:22:52.777Z</time>
      </trkpt>
      <trkpt lat="46.94177" lon="8.57586">
        <ele>706</ele>
        <time>2021-08-10T10:22:53.777Z</time>
      </trkpt>
      <trkpt lat="46.94176" lon="8.57586">
        <ele>705</ele>
        <time>2021-08-10T10:22:54.777Z</time>
      </trkpt>
      <trkpt lat="46.94175" lon="8.57587">
        <ele>705</ele>
        <time>2021-08-10T10:22:55.777Z</time>
      </trkpt>
      <trkpt lat="46.94174" lon="8.57589">
        <ele>705</ele>
        <time>2021-08-10T10:22:56.777Z</time>
      </trkpt>
      <trkpt lat="46.94174" lon="8.57589">
        <ele>705</ele>
        <time>2021-08-10T10:22:57.776Z</time>
      </trkpt>
      <trkpt lat="46.94174" lon="8.57589">
        <ele>705</ele>
        <time>2021-08-10T10:22:58.777Z</time>
      </trkpt>
      <trkpt lat="46.94173" lon="8.5759">
        <ele>705</ele>
        <time>2021-08-10T10:22:59.777Z</time>
      </trkpt>
      <trkpt lat="46.94172" lon="8.5759">
        <ele>705</ele>
        <time>2021-08-10T10:23:00.777Z</time>
      </trkpt>
      <trkpt lat="46.94171" lon="8.5759">
        <ele>705</ele>
        <time>2021-08-10T10:23:01.777Z</time>
      </trkpt>
      <trkpt lat="46.94171" lon="8.5759">
        <ele>706</ele>
        <time>2021-08-10T10:23:02.777Z</time>
      </trkpt>
      <trkpt lat="46.9417" lon="8.5759">
        <ele>706</ele>
        <time>2021-08-10T10:23:03.778Z</time>
      </trkpt>
      <trkpt lat="46.9417" lon="8.5759">
        <ele>706</ele>
        <time>2021-08-10T10:23:04.777Z</time>
      </trkpt>
      <trkpt lat="46.94169" lon="8.57591">
        <ele>706</ele>
        <time>2021-08-10T10:23:05.777Z</time>
      </trkpt>
      <trkpt lat="46.94168" lon="8.57592">
        <ele>706</ele>
        <time>2021-08-10T10:23:06.778Z</time>
      </trkpt>
      <trkpt lat="46.94167" lon="8.57592">
        <ele>706</ele>
        <time>2021-08-10T10:23:07.777Z</time>
      </trkpt>
      <trkpt lat="46.94166" lon="8.57593">
        <ele>706</ele>
        <time>2021-08-10T10:23:08.778Z</time>
      </trkpt>
      <trkpt lat="46.94164" lon="8.57594">
        <ele>706</ele>
        <time>2021-08-10T10:23:09.777Z</time>
      </trkpt>
      <trkpt lat="46.94163" lon="8.57595">
        <ele>706</ele>
        <time>2021-08-10T10:23:10.777Z</time>
      </trkpt>
      <trkpt lat="46.94161" lon="8.57596">
        <ele>706</ele>
        <time>2021-08-10T10:23:11.777Z</time>
      </trkpt>
      <trkpt lat="46.9416" lon="8.57598">
        <ele>706</ele>
        <time>2021-08-10T10:23:12.777Z</time>
      </trkpt>
      <trkpt lat="46.94159" lon="8.57599">
        <ele>706</ele>
        <time>2021-08-10T10:23:13.778Z</time>
      </trkpt>
      <trkpt lat="46.94158" lon="8.57601">
        <ele>706</ele>
        <time>2021-08-10T10:23:14.777Z</time>
      </trkpt>
      <trkpt lat="46.94158" lon="8.57602">
        <ele>706</ele>
        <time>2021-08-10T10:23:15.777Z</time>
      </trkpt>
      <trkpt lat="46.94158" lon="8.57604">
        <ele>706</ele>
        <time>2021-08-10T10:23:16.778Z</time>
      </trkpt>
      <trkpt lat="46.94158" lon="8.57605">
        <ele>706</ele>
        <time>2021-08-10T10:23:17.778Z</time>
      </trkpt>
      <trkpt lat="46.94158" lon="8.57606">
        <ele>707</ele>
        <time>2021-08-10T10:23:18.777Z</time>
      </trkpt>
      <trkpt lat="46.94157" lon="8.57615">
        <ele>710</ele>
        <time>2021-08-10T10:23:19.777Z</time>
      </trkpt>
      <trkpt lat="46.94157" lon="8.57617">
        <ele>710</ele>
        <time>2021-08-10T10:23:20.777Z</time>
      </trkpt>
      <trkpt lat="46.94152" lon="8.57624">
        <ele>711</ele>
        <time>2021-08-10T10:23:21.778Z</time>
      </trkpt>
      <trkpt lat="46.94152" lon="8.57625">
        <ele>712</ele>
        <time>2021-08-10T10:23:22.778Z</time>
      </trkpt>
      <trkpt lat="46.94153" lon="8.57627">
        <ele>713</ele>
        <time>2021-08-10T10:23:23.777Z</time>
      </trkpt>
      <trkpt lat="46.94156" lon="8.57632">
        <ele>719</ele>
        <time>2021-08-10T10:23:24.777Z</time>
      </trkpt>
      <trkpt lat="46.94156" lon="8.57632">
        <ele>719</ele>
        <time>2021-08-10T10:23:25.777Z</time>
      </trkpt>
      <trkpt lat="46.94151" lon="8.57639">
        <ele>723</ele>
        <time>2021-08-10T10:23:26.777Z</time>
      </trkpt>
      <trkpt lat="46.94151" lon="8.57639">
        <ele>723</ele>
        <time>2021-08-10T10:23:27.777Z</time>
      </trkpt>
      <trkpt lat="46.94154" lon="8.57636">
        <ele>731</ele>
        <time>2021-08-10T10:23:28.778Z</time>
      </trkpt>
      <trkpt lat="46.94154" lon="8.57635">
        <ele>731</ele>
        <time>2021-08-10T10:23:29.777Z</time>
      </trkpt>
      <trkpt lat="46.94154" lon="8.57635">
        <ele>732</ele>
        <time>2021-08-10T10:23:30.778Z</time>
      </trkpt>
      <trkpt lat="46.94154" lon="8.57634">
        <ele>732</ele>
        <time>2021-08-10T10:23:31.778Z</time>
      </trkpt>
      <trkpt lat="46.94154" lon="8.57634">
        <ele>732</ele>
        <time>2021-08-10T10:23:32.778Z</time>
      </trkpt>
      <trkpt lat="46.94154" lon="8.57632">
        <ele>723</ele>
        <time>2021-08-10T10:23:33.779Z</time>
      </trkpt>
      <trkpt lat="46.94154" lon="8.57631">
        <ele>722</ele>
        <time>2021-08-10T10:23:34.778Z</time>
      </trkpt>
      <trkpt lat="46.94155" lon="8.57632">
        <ele>721</ele>
        <time>2021-08-10T10:23:35.778Z</time>
      </trkpt>
      <trkpt lat="46.94155" lon="8.57632">
        <ele>720</ele>
        <time>2021-08-10T10:23:36.778Z</time>
      </trkpt>
      <trkpt lat="46.94155" lon="8.57633">
        <ele>718</ele>
        <time>2021-08-10T10:23:37.778Z</time>
      </trkpt>
      <trkpt lat="46.94157" lon="8.57631">
        <ele>714</ele>
        <time>2021-08-10T10:23:38.779Z</time>
      </trkpt>
      <trkpt lat="46.94157" lon="8.5763">
        <ele>714</ele>
        <time>2021-08-10T10:23:39.779Z</time>
      </trkpt>
      <trkpt lat="46.94157" lon="8.57629">
        <ele>713</ele>
        <time>2021-08-10T10:23:40.779Z</time>
      </trkpt>
      <trkpt lat="46.94158" lon="8.57628">
        <ele>712</ele>
        <time>2021-08-10T10:23:41.779Z</time>
      </trkpt>
      <trkpt lat="46.94158" lon="8.57628">
        <ele>712</ele>
        <time>2021-08-10T10:23:42.779Z</time>
      </trkpt>
      <trkpt lat="46.94158" lon="8.57627">
        <ele>711</ele>
        <time>2021-08-10T10:23:43.778Z</time>
      </trkpt>
      <trkpt lat="46.9416" lon="8.57625">
        <ele>709</ele>
        <time>2021-08-10T10:23:44.779Z</time>
      </trkpt>
      <trkpt lat="46.9416" lon="8.57625">
        <ele>709</ele>
        <time>2021-08-10T10:23:45.778Z</time>
      </trkpt>
      <trkpt lat="46.94161" lon="8.57624">
        <ele>709</ele>
        <time>2021-08-10T10:23:46.778Z</time>
      </trkpt>
      <trkpt lat="46.94161" lon="8.57624">
        <ele>709</ele>
        <time>2021-08-10T10:23:47.778Z</time>
      </trkpt>
      <trkpt lat="46.94161" lon="8.57623">
        <ele>709</ele>
        <time>2021-08-10T10:23:48.779Z</time>
      </trkpt>
      <trkpt lat="46.94162" lon="8.57623">
        <ele>708</ele>
        <time>2021-08-10T10:23:49.778Z</time>
      </trkpt>
      <trkpt lat="46.94162" lon="8.57623">
        <ele>708</ele>
        <time>2021-08-10T10:23:50.779Z</time>
      </trkpt>
      <trkpt lat="46.94162" lon="8.57623">
        <ele>709</ele>
        <time>2021-08-10T10:23:51.778Z</time>
      </trkpt>
      <trkpt lat="46.94163" lon="8.57623">
        <ele>709</ele>
        <time>2021-08-10T10:23:52.778Z</time>
      </trkpt>
      <trkpt lat="46.94163" lon="8.57623">
        <ele>709</ele>
        <time>2021-08-10T10:23:53.779Z</time>
      </trkpt>
      <trkpt lat="46.94163" lon="8.57624">
        <ele>709</ele>
        <time>2021-08-10T10:23:54.779Z</time>
      </trkpt>
      <trkpt lat="46.94163" lon="8.57623">
        <ele>709</ele>
        <time>2021-08-10T10:23:55.779Z</time>
      </trkpt>
      <trkpt lat="46.94164" lon="8.57617">
        <ele>709</ele>
        <time>2021-08-10T10:23:56.780Z</time>
      </trkpt>
      <trkpt lat="46.94164" lon="8.57617">
        <ele>709</ele>
        <time>2021-08-10T10:23:57.780Z</time>
      </trkpt>
      <trkpt lat="46.94164" lon="8.57616">
        <ele>709</ele>
        <time>2021-08-10T10:23:58.779Z</time>
      </trkpt>
      <trkpt lat="46.94159" lon="8.57619">
        <ele>705</ele>
        <time>2021-08-10T10:23:59.780Z</time>
      </trkpt>
      <trkpt lat="46.94159" lon="8.57618">
        <ele>704</ele>
        <time>2021-08-10T10:24:00.781Z</time>
      </trkpt>
      <trkpt lat="46.94161" lon="8.57618">
        <ele>704</ele>
        <time>2021-08-10T10:24:01.781Z</time>
      </trkpt>
      <trkpt lat="46.94161" lon="8.57618">
        <ele>705</ele>
        <time>2021-08-10T10:24:02.781Z</time>
      </trkpt>
      <trkpt lat="46.94161" lon="8.57619">
        <ele>705</ele>
        <time>2021-08-10T10:24:03.780Z</time>
      </trkpt>
      <trkpt lat="46.94161" lon="8.57623">
        <ele>709</ele>
        <time>2021-08-10T10:24:04.780Z</time>
      </trkpt>
      <trkpt lat="46.94161" lon="8.57624">
        <ele>709</ele>
        <time>2021-08-10T10:24:05.780Z</time>
      </trkpt>
      <trkpt lat="46.9416" lon="8.57627">
        <ele>710</ele>
        <time>2021-08-10T10:24:06.780Z</time>
      </trkpt>
      <trkpt lat="46.94159" lon="8.5763">
        <ele>710</ele>
        <time>2021-08-10T10:24:07.780Z</time>
      </trkpt>
      <trkpt lat="46.94162" lon="8.5763">
        <ele>720</ele>
        <time>2021-08-10T10:24:08.781Z</time>
      </trkpt>
      <trkpt lat="46.94163" lon="8.57631">
        <ele>720</ele>
        <time>2021-08-10T10:24:09.781Z</time>
      </trkpt>
      <trkpt lat="46.94164" lon="8.57631">
        <ele>721</ele>
        <time>2021-08-10T10:24:10.781Z</time>
      </trkpt>
      <trkpt lat="46.94164" lon="8.57632">
        <ele>722</ele>
        <time>2021-08-10T10:24:11.781Z</time>
      </trkpt>
      <trkpt lat="46.94166" lon="8.57632">
        <ele>722</ele>
        <time>2021-08-10T10:24:12.781Z</time>
      </trkpt>
      <trkpt lat="46.94166" lon="8.57633">
        <ele>722</ele>
        <time>2021-08-10T10:24:13.782Z</time>
      </trkpt>
      <trkpt lat="46.94166" lon="8.57633">
        <ele>722</ele>
        <time>2021-08-10T10:24:14.782Z</time>
      </trkpt>
      <trkpt lat="46.94166" lon="8.57633">
        <ele>722</ele>
        <time>2021-08-10T10:24:15.782Z</time>
      </trkpt>
      <trkpt lat="46.94169" lon="8.57632">
        <ele>721</ele>
        <time>2021-08-10T10:24:16.782Z</time>
      </trkpt>
      <trkpt lat="46.94165" lon="8.57631">
        <ele>719</ele>
        <time>2021-08-10T10:24:17.783Z</time>
      </trkpt>
      <trkpt lat="46.94163" lon="8.5763">
        <ele>717</ele>
        <time>2021-08-10T10:24:18.783Z</time>
      </trkpt>
      <trkpt lat="46.94162" lon="8.57629">
        <ele>717</ele>
        <time>2021-08-10T10:24:19.782Z</time>
      </trkpt>
      <trkpt lat="46.94161" lon="8.57629">
        <ele>717</ele>
        <time>2021-08-10T10:24:20.782Z</time>
      </trkpt>
      <trkpt lat="46.94159" lon="8.57628">
        <ele>717</ele>
        <time>2021-08-10T10:24:21.782Z</time>
      </trkpt>
      <trkpt lat="46.94158" lon="8.57626">
        <ele>717</ele>
        <time>2021-08-10T10:24:22.782Z</time>
      </trkpt>
      <trkpt lat="46.94158" lon="8.57627">
        <ele>716</ele>
        <time>2021-08-10T10:24:23.782Z</time>
      </trkpt>
      <trkpt lat="46.94157" lon="8.57627">
        <ele>716</ele>
        <time>2021-08-10T10:24:24.782Z</time>
      </trkpt>
      <trkpt lat="46.94156" lon="8.57628">
        <ele>715</ele>
        <time>2021-08-10T10:24:25.782Z</time>
      </trkpt>
      <trkpt lat="46.94156" lon="8.57629">
        <ele>715</ele>
        <time>2021-08-10T10:24:26.783Z</time>
      </trkpt>
      <trkpt lat="46.94155" lon="8.57629">
        <ele>714</ele>
        <time>2021-08-10T10:24:27.782Z</time>
      </trkpt>
      <trkpt lat="46.94156" lon="8.5763">
        <ele>714</ele>
        <time>2021-08-10T10:24:28.782Z</time>
      </trkpt>
      <trkpt lat="46.94156" lon="8.57631">
        <ele>714</ele>
        <time>2021-08-10T10:24:29.782Z</time>
      </trkpt>
      <trkpt lat="46.94156" lon="8.57632">
        <ele>713</ele>
        <time>2021-08-10T10:24:30.782Z</time>
      </trkpt>
      <trkpt lat="46.94156" lon="8.57633">
        <ele>712</ele>
        <time>2021-08-10T10:24:31.783Z</time>
      </trkpt>
      <trkpt lat="46.94156" lon="8.57634">
        <ele>711</ele>
        <time>2021-08-10T10:24:32.782Z</time>
      </trkpt>
      <trkpt lat="46.94157" lon="8.57635">
        <ele>711</ele>
        <time>2021-08-10T10:24:33.782Z</time>
      </trkpt>
      <trkpt lat="46.94157" lon="8.57636">
        <ele>710</ele>
        <time>2021-08-10T10:24:34.782Z</time>
      </trkpt>
      <trkpt lat="46.94157" lon="8.57637">
        <ele>710</ele>
        <time>2021-08-10T10:24:35.782Z</time>
      </trkpt>
      <trkpt lat="46.94158" lon="8.57638">
        <ele>709</ele>
        <time>2021-08-10T10:24:36.782Z</time>
      </trkpt>
      <trkpt lat="46.94158" lon="8.57639">
        <ele>709</ele>
        <time>2021-08-10T10:24:37.782Z</time>
      </trkpt>
      <trkpt lat="46.94158" lon="8.57639">
        <ele>709</ele>
        <time>2021-08-10T10:24:38.782Z</time>
      </trkpt>
      <trkpt lat="46.94158" lon="8.57641">
        <ele>709</ele>
        <time>2021-08-10T10:24:39.782Z</time>
      </trkpt>
      <trkpt lat="46.94157" lon="8.57642">
        <ele>709</ele>
        <time>2021-08-10T10:24:40.782Z</time>
      </trkpt>
      <trkpt lat="46.94157" lon="8.57641">
        <ele>709</ele>
        <time>2021-08-10T10:24:41.783Z</time>
      </trkpt>
      <trkpt lat="46.94156" lon="8.57641">
        <ele>709</ele>
        <time>2021-08-10T10:24:42.783Z</time>
      </trkpt>
      <trkpt lat="46.94156" lon="8.57641">
        <ele>708</ele>
        <time>2021-08-10T10:24:43.782Z</time>
      </trkpt>
      <trkpt lat="46.94155" lon="8.57641">
        <ele>707</ele>
        <time>2021-08-10T10:24:44.782Z</time>
      </trkpt>
      <trkpt lat="46.94154" lon="8.5764">
        <ele>706</ele>
        <time>2021-08-10T10:24:45.782Z</time>
      </trkpt>
      <trkpt lat="46.94153" lon="8.5764">
        <ele>705</ele>
        <time>2021-08-10T10:24:46.783Z</time>
      </trkpt>
      <trkpt lat="46.94153" lon="8.5764">
        <ele>704</ele>
        <time>2021-08-10T10:24:47.783Z</time>
      </trkpt>
      <trkpt lat="46.94153" lon="8.5764">
        <ele>703</ele>
        <time>2021-08-10T10:24:48.782Z</time>
      </trkpt>
      <trkpt lat="46.94155" lon="8.57641">
        <ele>702</ele>
        <time>2021-08-10T10:24:49.783Z</time>
      </trkpt>
      <trkpt lat="46.94156" lon="8.57641">
        <ele>701</ele>
        <time>2021-08-10T10:24:50.783Z</time>
      </trkpt>
      <trkpt lat="46.94156" lon="8.57641">
        <ele>700</ele>
        <time>2021-08-10T10:24:51.783Z</time>
      </trkpt>
      <trkpt lat="46.94157" lon="8.57641">
        <ele>699</ele>
        <time>2021-08-10T10:24:52.783Z</time>
      </trkpt>
      <trkpt lat="46.94157" lon="8.57642">
        <ele>698</ele>
        <time>2021-08-10T10:24:53.783Z</time>
      </trkpt>
      <trkpt lat="46.94157" lon="8.57643">
        <ele>697</ele>
        <time>2021-08-10T10:24:54.782Z</time>
      </trkpt>
      <trkpt lat="46.94157" lon="8.57643">
        <ele>696</ele>
        <time>2021-08-10T10:24:55.783Z</time>
      </trkpt>
      <trkpt lat="46.94157" lon="8.57643">
        <ele>695</ele>
        <time>2021-08-10T10:24:56.782Z</time>
      </trkpt>
      <trkpt lat="46.94157" lon="8.57642">
        <ele>694</ele>
        <time>2021-08-10T10:24:57.782Z</time>
      </trkpt>
      <trkpt lat="46.94157" lon="8.57642">
        <ele>693</ele>
        <time>2021-08-10T10:24:58.783Z</time>
      </trkpt>
      <trkpt lat="46.94157" lon="8.57642">
        <ele>692</ele>
        <time>2021-08-10T10:24:59.783Z</time>
      </trkpt>
      <trkpt lat="46.94157" lon="8.57643">
        <ele>691</ele>
        <time>2021-08-10T10:25:00.783Z</time>
      </trkpt>
      <trkpt lat="46.94157" lon="8.57643">
        <ele>690</ele>
        <time>2021-08-10T10:25:01.782Z</time>
      </trkpt>
      <trkpt lat="46.94156" lon="8.57644">
        <ele>689</ele>
        <time>2021-08-10T10:25:02.783Z</time>
      </trkpt>
      <trkpt lat="46.94156" lon="8.57645">
        <ele>688</ele>
        <time>2021-08-10T10:25:03.782Z</time>
      </trkpt>
      <trkpt lat="46.94155" lon="8.57645">
        <ele>686</ele>
        <time>2021-08-10T10:25:04.783Z</time>
      </trkpt>
      <trkpt lat="46.94155" lon="8.57645">
        <ele>685</ele>
        <time>2021-08-10T10:25:05.783Z</time>
      </trkpt>
      <trkpt lat="46.94154" lon="8.57645">
        <ele>684</ele>
        <time>2021-08-10T10:25:06.783Z</time>
      </trkpt>
      <trkpt lat="46.94154" lon="8.57645">
        <ele>683</ele>
        <time>2021-08-10T10:25:07.783Z</time>
      </trkpt>
      <trkpt lat="46.94153" lon="8.57645">
        <ele>682</ele>
        <time>2021-08-10T10:25:08.782Z</time>
      </trkpt>
      <trkpt lat="46.94153" lon="8.57645">
        <ele>681</ele>
        <time>2021-08-10T10:25:09.783Z</time>
      </trkpt>
      <trkpt lat="46.94152" lon="8.57644">
        <ele>680</ele>
        <time>2021-08-10T10:25:10.782Z</time>
      </trkpt>
      <trkpt lat="46.94152" lon="8.57644">
        <ele>679</ele>
        <time>2021-08-10T10:25:11.782Z</time>
      </trkpt>
      <trkpt lat="46.94151" lon="8.57644">
        <ele>678</ele>
        <time>2021-08-10T10:25:12.783Z</time>
      </trkpt>
      <trkpt lat="46.9415" lon="8.57644">
        <ele>678</ele>
        <time>2021-08-10T10:25:13.782Z</time>
      </trkpt>
      <trkpt lat="46.9415" lon="8.57644">
        <ele>677</ele>
        <time>2021-08-10T10:25:14.782Z</time>
      </trkpt>
      <trkpt lat="46.94149" lon="8.57644">
        <ele>676</ele>
        <time>2021-08-10T10:25:15.783Z</time>
      </trkpt>
      <trkpt lat="46.94148" lon="8.57645">
        <ele>676</ele>
        <time>2021-08-10T10:25:16.783Z</time>
      </trkpt>
      <trkpt lat="46.94148" lon="8.57645">
        <ele>676</ele>
        <time>2021-08-10T10:25:17.783Z</time>
      </trkpt>
      <trkpt lat="46.94147" lon="8.57645">
        <ele>676</ele>
        <time>2021-08-10T10:25:18.783Z</time>
      </trkpt>
      <trkpt lat="46.94146" lon="8.57643">
        <ele>676</ele>
        <time>2021-08-10T10:25:19.783Z</time>
      </trkpt>
      <trkpt lat="46.94144" lon="8.57643">
        <ele>676</ele>
        <time>2021-08-10T10:25:20.783Z</time>
      </trkpt>
      <trkpt lat="46.94142" lon="8.57643">
        <ele>676</ele>
        <time>2021-08-10T10:25:21.783Z</time>
      </trkpt>
      <trkpt lat="46.94141" lon="8.57642">
        <ele>676</ele>
        <time>2021-08-10T10:25:22.782Z</time>
      </trkpt>
      <trkpt lat="46.94141" lon="8.57642">
        <ele>675</ele>
        <time>2021-08-10T10:25:23.783Z</time>
      </trkpt>
      <trkpt lat="46.9414" lon="8.57643">
        <ele>675</ele>
        <time>2021-08-10T10:25:24.783Z</time>
      </trkpt>
      <trkpt lat="46.94139" lon="8.57643">
        <ele>674</ele>
        <time>2021-08-10T10:25:25.782Z</time>
      </trkpt>
      <trkpt lat="46.94138" lon="8.57643">
        <ele>674</ele>
        <time>2021-08-10T10:25:26.783Z</time>
      </trkpt>
      <trkpt lat="46.94137" lon="8.57643">
        <ele>674</ele>
        <time>2021-08-10T10:25:27.783Z</time>
      </trkpt>
      <trkpt lat="46.94136" lon="8.57643">
        <ele>673</ele>
        <time>2021-08-10T10:25:28.783Z</time>
      </trkpt>
      <trkpt lat="46.94136" lon="8.57643">
        <ele>673</ele>
        <time>2021-08-10T10:25:29.782Z</time>
      </trkpt>
      <trkpt lat="46.94136" lon="8.57643">
        <ele>672</ele>
        <time>2021-08-10T10:25:30.783Z</time>
      </trkpt>
      <trkpt lat="46.94135" lon="8.57644">
        <ele>672</ele>
        <time>2021-08-10T10:25:31.782Z</time>
      </trkpt>
      <trkpt lat="46.94134" lon="8.57644">
        <ele>671</ele>
        <time>2021-08-10T10:25:32.783Z</time>
      </trkpt>
      <trkpt lat="46.94133" lon="8.57644">
        <ele>670</ele>
        <time>2021-08-10T10:25:33.783Z</time>
      </trkpt>
      <trkpt lat="46.94132" lon="8.57644">
        <ele>669</ele>
        <time>2021-08-10T10:25:34.783Z</time>
      </trkpt>
      <trkpt lat="46.94132" lon="8.57642">
        <ele>669</ele>
        <time>2021-08-10T10:25:35.782Z</time>
      </trkpt>
      <trkpt lat="46.94131" lon="8.57641">
        <ele>668</ele>
        <time>2021-08-10T10:25:36.782Z</time>
      </trkpt>
      <trkpt lat="46.9413" lon="8.57641">
        <ele>668</ele>
        <time>2021-08-10T10:25:37.782Z</time>
      </trkpt>
      <trkpt lat="46.9413" lon="8.5764">
        <ele>667</ele>
        <time>2021-08-10T10:25:38.782Z</time>
      </trkpt>
      <trkpt lat="46.94129" lon="8.57641">
        <ele>667</ele>
        <time>2021-08-10T10:25:39.783Z</time>
      </trkpt>
      <trkpt lat="46.94129" lon="8.57642">
        <ele>667</ele>
        <time>2021-08-10T10:25:40.783Z</time>
      </trkpt>
      <trkpt lat="46.94128" lon="8.57643">
        <ele>668</ele>
        <time>2021-08-10T10:25:41.783Z</time>
      </trkpt>
      <trkpt lat="46.94128" lon="8.57645">
        <ele>669</ele>
        <time>2021-08-10T10:25:42.783Z</time>
      </trkpt>
      <trkpt lat="46.94127" lon="8.57646">
        <ele>670</ele>
        <time>2021-08-10T10:25:43.783Z</time>
      </trkpt>
      <trkpt lat="46.94127" lon="8.57646">
        <ele>671</ele>
        <time>2021-08-10T10:25:44.783Z</time>
      </trkpt>
      <trkpt lat="46.94127" lon="8.57647">
        <ele>672</ele>
        <time>2021-08-10T10:25:45.782Z</time>
      </trkpt>
      <trkpt lat="46.94127" lon="8.57648">
        <ele>672</ele>
        <time>2021-08-10T10:25:46.782Z</time>
      </trkpt>
      <trkpt lat="46.94127" lon="8.57648">
        <ele>673</ele>
        <time>2021-08-10T10:25:47.782Z</time>
      </trkpt>
      <trkpt lat="46.94127" lon="8.57649">
        <ele>672</ele>
        <time>2021-08-10T10:25:48.783Z</time>
      </trkpt>
      <trkpt lat="46.94126" lon="8.57649">
        <ele>672</ele>
        <time>2021-08-10T10:25:49.783Z</time>
      </trkpt>
      <trkpt lat="46.94126" lon="8.5765">
        <ele>672</ele>
        <time>2021-08-10T10:25:50.783Z</time>
      </trkpt>
      <trkpt lat="46.94125" lon="8.57651">
        <ele>672</ele>
        <time>2021-08-10T10:25:51.783Z</time>
      </trkpt>
      <trkpt lat="46.94124" lon="8.57652">
        <ele>672</ele>
        <time>2021-08-10T10:25:52.783Z</time>
      </trkpt>
      <trkpt lat="46.94123" lon="8.57652">
        <ele>672</ele>
        <time>2021-08-10T10:25:53.782Z</time>
      </trkpt>
      <trkpt lat="46.94123" lon="8.57652">
        <ele>672</ele>
        <time>2021-08-10T10:25:54.783Z</time>
      </trkpt>
      <trkpt lat="46.94122" lon="8.57653">
        <ele>671</ele>
        <time>2021-08-10T10:25:55.783Z</time>
      </trkpt>
      <trkpt lat="46.9412" lon="8.57653">
        <ele>671</ele>
        <time>2021-08-10T10:25:56.783Z</time>
      </trkpt>
      <trkpt lat="46.9412" lon="8.57654">
        <ele>670</ele>
        <time>2021-08-10T10:25:57.783Z</time>
      </trkpt>
      <trkpt lat="46.94119" lon="8.57655">
        <ele>670</ele>
        <time>2021-08-10T10:25:58.783Z</time>
      </trkpt>
      <trkpt lat="46.94118" lon="8.57656">
        <ele>669</ele>
        <time>2021-08-10T10:25:59.783Z</time>
      </trkpt>
      <trkpt lat="46.94117" lon="8.57656">
        <ele>669</ele>
        <time>2021-08-10T10:26:00.782Z</time>
      </trkpt>
      <trkpt lat="46.94116" lon="8.57656">
        <ele>669</ele>
        <time>2021-08-10T10:26:01.783Z</time>
      </trkpt>
      <trkpt lat="46.94115" lon="8.57657">
        <ele>669</ele>
        <time>2021-08-10T10:26:02.783Z</time>
      </trkpt>
      <trkpt lat="46.94115" lon="8.57658">
        <ele>670</ele>
        <time>2021-08-10T10:26:03.783Z</time>
      </trkpt>
      <trkpt lat="46.94114" lon="8.57659">
        <ele>670</ele>
        <time>2021-08-10T10:26:04.783Z</time>
      </trkpt>
      <trkpt lat="46.94114" lon="8.5766">
        <ele>670</ele>
        <time>2021-08-10T10:26:05.782Z</time>
      </trkpt>
      <trkpt lat="46.94114" lon="8.57661">
        <ele>670</ele>
        <time>2021-08-10T10:26:06.782Z</time>
      </trkpt>
      <trkpt lat="46.94115" lon="8.57662">
        <ele>669</ele>
        <time>2021-08-10T10:26:07.783Z</time>
      </trkpt>
      <trkpt lat="46.94115" lon="8.57663">
        <ele>668</ele>
        <time>2021-08-10T10:26:08.783Z</time>
      </trkpt>
      <trkpt lat="46.94116" lon="8.57665">
        <ele>667</ele>
        <time>2021-08-10T10:26:09.783Z</time>
      </trkpt>
      <trkpt lat="46.94116" lon="8.57666">
        <ele>666</ele>
        <time>2021-08-10T10:26:10.782Z</time>
      </trkpt>
      <trkpt lat="46.94117" lon="8.57667">
        <ele>666</ele>
        <time>2021-08-10T10:26:11.783Z</time>
      </trkpt>
      <trkpt lat="46.94117" lon="8.57668">
        <ele>665</ele>
        <time>2021-08-10T10:26:12.782Z</time>
      </trkpt>
      <trkpt lat="46.94118" lon="8.57668">
        <ele>664</ele>
        <time>2021-08-10T10:26:13.783Z</time>
      </trkpt>
      <trkpt lat="46.94118" lon="8.57669">
        <ele>663</ele>
        <time>2021-08-10T10:26:14.783Z</time>
      </trkpt>
      <trkpt lat="46.94117" lon="8.5767">
        <ele>663</ele>
        <time>2021-08-10T10:26:15.782Z</time>
      </trkpt>
      <trkpt lat="46.94117" lon="8.5767">
        <ele>663</ele>
        <time>2021-08-10T10:26:16.783Z</time>
      </trkpt>
      <trkpt lat="46.94117" lon="8.5767">
        <ele>662</ele>
        <time>2021-08-10T10:26:17.782Z</time>
      </trkpt>
      <trkpt lat="46.94117" lon="8.5767">
        <ele>662</ele>
        <time>2021-08-10T10:26:18.783Z</time>
      </trkpt>
      <trkpt lat="46.94116" lon="8.5767">
        <ele>661</ele>
        <time>2021-08-10T10:26:19.782Z</time>
      </trkpt>
      <trkpt lat="46.94115" lon="8.5767">
        <ele>661</ele>
        <time>2021-08-10T10:26:20.783Z</time>
      </trkpt>
      <trkpt lat="46.94115" lon="8.57669">
        <ele>660</ele>
        <time>2021-08-10T10:26:21.783Z</time>
      </trkpt>
      <trkpt lat="46.94114" lon="8.57669">
        <ele>660</ele>
        <time>2021-08-10T10:26:22.783Z</time>
      </trkpt>
      <trkpt lat="46.94114" lon="8.57669">
        <ele>659</ele>
        <time>2021-08-10T10:26:23.782Z</time>
      </trkpt>
      <trkpt lat="46.94113" lon="8.57669">
        <ele>659</ele>
        <time>2021-08-10T10:26:24.782Z</time>
      </trkpt>
      <trkpt lat="46.94112" lon="8.5767">
        <ele>659</ele>
        <time>2021-08-10T10:26:25.782Z</time>
      </trkpt>
      <trkpt lat="46.94112" lon="8.5767">
        <ele>659</ele>
        <time>2021-08-10T10:26:26.782Z</time>
      </trkpt>
      <trkpt lat="46.94111" lon="8.57671">
        <ele>658</ele>
        <time>2021-08-10T10:26:27.782Z</time>
      </trkpt>
      <trkpt lat="46.94111" lon="8.57671">
        <ele>658</ele>
        <time>2021-08-10T10:26:28.783Z</time>
      </trkpt>
      <trkpt lat="46.9411" lon="8.57671">
        <ele>657</ele>
        <time>2021-08-10T10:26:29.783Z</time>
      </trkpt>
      <trkpt lat="46.94109" lon="8.57672">
        <ele>657</ele>
        <time>2021-08-10T10:26:30.783Z</time>
      </trkpt>
      <trkpt lat="46.94108" lon="8.57672">
        <ele>656</ele>
        <time>2021-08-10T10:26:31.783Z</time>
      </trkpt>
      <trkpt lat="46.94108" lon="8.57672">
        <ele>656</ele>
        <time>2021-08-10T10:26:32.782Z</time>
      </trkpt>
      <trkpt lat="46.94107" lon="8.57672">
        <ele>655</ele>
        <time>2021-08-10T10:26:33.782Z</time>
      </trkpt>
      <trkpt lat="46.94107" lon="8.57672">
        <ele>655</ele>
        <time>2021-08-10T10:26:34.782Z</time>
      </trkpt>
      <trkpt lat="46.94106" lon="8.57673">
        <ele>654</ele>
        <time>2021-08-10T10:26:35.782Z</time>
      </trkpt>
      <trkpt lat="46.94105" lon="8.57673">
        <ele>654</ele>
        <time>2021-08-10T10:26:36.782Z</time>
      </trkpt>
      <trkpt lat="46.94105" lon="8.57674">
        <ele>654</ele>
        <time>2021-08-10T10:26:37.783Z</time>
      </trkpt>
      <trkpt lat="46.94104" lon="8.57675">
        <ele>654</ele>
        <time>2021-08-10T10:26:38.783Z</time>
      </trkpt>
      <trkpt lat="46.94104" lon="8.57676">
        <ele>654</ele>
        <time>2021-08-10T10:26:39.783Z</time>
      </trkpt>
      <trkpt lat="46.94105" lon="8.57677">
        <ele>654</ele>
        <time>2021-08-10T10:26:40.783Z</time>
      </trkpt>
      <trkpt lat="46.94105" lon="8.57679">
        <ele>654</ele>
        <time>2021-08-10T10:26:41.783Z</time>
      </trkpt>
      <trkpt lat="46.94105" lon="8.5768">
        <ele>654</ele>
        <time>2021-08-10T10:26:42.783Z</time>
      </trkpt>
      <trkpt lat="46.94106" lon="8.57681">
        <ele>655</ele>
        <time>2021-08-10T10:26:43.783Z</time>
      </trkpt>
      <trkpt lat="46.94107" lon="8.57682">
        <ele>655</ele>
        <time>2021-08-10T10:26:44.783Z</time>
      </trkpt>
      <trkpt lat="46.94108" lon="8.57683">
        <ele>655</ele>
        <time>2021-08-10T10:26:45.783Z</time>
      </trkpt>
      <trkpt lat="46.94108" lon="8.57684">
        <ele>655</ele>
        <time>2021-08-10T10:26:46.782Z</time>
      </trkpt>
      <trkpt lat="46.94109" lon="8.57685">
        <ele>655</ele>
        <time>2021-08-10T10:26:47.783Z</time>
      </trkpt>
      <trkpt lat="46.94109" lon="8.57686">
        <ele>655</ele>
        <time>2021-08-10T10:26:48.783Z</time>
      </trkpt>
      <trkpt lat="46.9411" lon="8.57687">
        <ele>655</ele>
        <time>2021-08-10T10:26:49.782Z</time>
      </trkpt>
      <trkpt lat="46.9411" lon="8.57688">
        <ele>655</ele>
        <time>2021-08-10T10:26:50.782Z</time>
      </trkpt>
      <trkpt lat="46.94111" lon="8.57689">
        <ele>655</ele>
        <time>2021-08-10T10:26:51.782Z</time>
      </trkpt>
      <trkpt lat="46.94111" lon="8.57689">
        <ele>654</ele>
        <time>2021-08-10T10:26:52.783Z</time>
      </trkpt>
      <trkpt lat="46.94112" lon="8.5769">
        <ele>654</ele>
        <time>2021-08-10T10:26:53.783Z</time>
      </trkpt>
      <trkpt lat="46.94112" lon="8.57691">
        <ele>654</ele>
        <time>2021-08-10T10:26:54.783Z</time>
      </trkpt>
      <trkpt lat="46.94113" lon="8.57691">
        <ele>655</ele>
        <time>2021-08-10T10:26:55.783Z</time>
      </trkpt>
      <trkpt lat="46.94113" lon="8.57692">
        <ele>655</ele>
        <time>2021-08-10T10:26:56.782Z</time>
      </trkpt>
      <trkpt lat="46.94114" lon="8.57692">
        <ele>656</ele>
        <time>2021-08-10T10:26:57.783Z</time>
      </trkpt>
      <trkpt lat="46.94114" lon="8.57693">
        <ele>656</ele>
        <time>2021-08-10T10:26:58.783Z</time>
      </trkpt>
      <trkpt lat="46.94115" lon="8.57693">
        <ele>655</ele>
        <time>2021-08-10T10:26:59.783Z</time>
      </trkpt>
      <trkpt lat="46.94115" lon="8.57694">
        <ele>655</ele>
        <time>2021-08-10T10:27:00.783Z</time>
      </trkpt>
      <trkpt lat="46.94116" lon="8.57695">
        <ele>655</ele>
        <time>2021-08-10T10:27:01.783Z</time>
      </trkpt>
      <trkpt lat="46.94116" lon="8.57695">
        <ele>655</ele>
        <time>2021-08-10T10:27:02.783Z</time>
      </trkpt>
      <trkpt lat="46.94117" lon="8.57696">
        <ele>655</ele>
        <time>2021-08-10T10:27:03.782Z</time>
      </trkpt>
      <trkpt lat="46.94118" lon="8.57696">
        <ele>655</ele>
        <time>2021-08-10T10:27:04.783Z</time>
      </trkpt>
      <trkpt lat="46.94119" lon="8.57696">
        <ele>655</ele>
        <time>2021-08-10T10:27:05.783Z</time>
      </trkpt>
      <trkpt lat="46.9412" lon="8.57697">
        <ele>656</ele>
        <time>2021-08-10T10:27:06.782Z</time>
      </trkpt>
      <trkpt lat="46.94121" lon="8.57698">
        <ele>656</ele>
        <time>2021-08-10T10:27:07.783Z</time>
      </trkpt>
      <trkpt lat="46.94122" lon="8.57699">
        <ele>656</ele>
        <time>2021-08-10T10:27:08.782Z</time>
      </trkpt>
      <trkpt lat="46.94123" lon="8.577">
        <ele>657</ele>
        <time>2021-08-10T10:27:09.783Z</time>
      </trkpt>
      <trkpt lat="46.94123" lon="8.577">
        <ele>657</ele>
        <time>2021-08-10T10:27:10.783Z</time>
      </trkpt>
      <trkpt lat="46.94124" lon="8.57701">
        <ele>657</ele>
        <time>2021-08-10T10:27:11.783Z</time>
      </trkpt>
      <trkpt lat="46.94124" lon="8.57702">
        <ele>658</ele>
        <time>2021-08-10T10:27:12.783Z</time>
      </trkpt>
      <trkpt lat="46.94125" lon="8.57703">
        <ele>658</ele>
        <time>2021-08-10T10:27:13.783Z</time>
      </trkpt>
      <trkpt lat="46.94125" lon="8.57703">
        <ele>658</ele>
        <time>2021-08-10T10:27:14.783Z</time>
      </trkpt>
      <trkpt lat="46.94126" lon="8.57704">
        <ele>658</ele>
        <time>2021-08-10T10:27:15.783Z</time>
      </trkpt>
      <trkpt lat="46.94126" lon="8.57704">
        <ele>659</ele>
        <time>2021-08-10T10:27:16.782Z</time>
      </trkpt>
      <trkpt lat="46.94125" lon="8.57704">
        <ele>659</ele>
        <time>2021-08-10T10:27:17.782Z</time>
      </trkpt>
      <trkpt lat="46.94125" lon="8.57704">
        <ele>659</ele>
        <time>2021-08-10T10:27:18.782Z</time>
      </trkpt>
      <trkpt lat="46.94124" lon="8.57706">
        <ele>660</ele>
        <time>2021-08-10T10:27:19.783Z</time>
      </trkpt>
      <trkpt lat="46.94125" lon="8.57706">
        <ele>660</ele>
        <time>2021-08-10T10:27:20.783Z</time>
      </trkpt>
      <trkpt lat="46.94125" lon="8.57705">
        <ele>660</ele>
        <time>2021-08-10T10:27:21.783Z</time>
      </trkpt>
      <trkpt lat="46.94123" lon="8.57702">
        <ele>661</ele>
        <time>2021-08-10T10:27:22.782Z</time>
      </trkpt>
      <trkpt lat="46.94123" lon="8.57701">
        <ele>661</ele>
        <time>2021-08-10T10:27:23.783Z</time>
      </trkpt>
      <trkpt lat="46.94116" lon="8.57696">
        <ele>658</ele>
        <time>2021-08-10T10:27:24.783Z</time>
      </trkpt>
      <trkpt lat="46.94115" lon="8.57696">
        <ele>658</ele>
        <time>2021-08-10T10:27:25.782Z</time>
      </trkpt>
      <trkpt lat="46.94115" lon="8.57697">
        <ele>657</ele>
        <time>2021-08-10T10:27:26.783Z</time>
      </trkpt>
      <trkpt lat="46.94115" lon="8.57697">
        <ele>657</ele>
        <time>2021-08-10T10:27:27.783Z</time>
      </trkpt>
      <trkpt lat="46.94115" lon="8.57697">
        <ele>657</ele>
        <time>2021-08-10T10:27:28.783Z</time>
      </trkpt>
      <trkpt lat="46.94114" lon="8.57698">
        <ele>656</ele>
        <time>2021-08-10T10:27:29.783Z</time>
      </trkpt>
      <trkpt lat="46.94114" lon="8.57698">
        <ele>656</ele>
        <time>2021-08-10T10:27:30.784Z</time>
      </trkpt>
      <trkpt lat="46.94114" lon="8.57699">
        <ele>656</ele>
        <time>2021-08-10T10:27:31.783Z</time>
      </trkpt>
      <trkpt lat="46.94113" lon="8.577">
        <ele>656</ele>
        <time>2021-08-10T10:27:32.784Z</time>
      </trkpt>
      <trkpt lat="46.94113" lon="8.57699">
        <ele>656</ele>
        <time>2021-08-10T10:27:33.784Z</time>
      </trkpt>
      <trkpt lat="46.94112" lon="8.577">
        <ele>656</ele>
        <time>2021-08-10T10:27:34.783Z</time>
      </trkpt>
      <trkpt lat="46.94111" lon="8.577">
        <ele>656</ele>
        <time>2021-08-10T10:27:35.784Z</time>
      </trkpt>
      <trkpt lat="46.94111" lon="8.57699">
        <ele>656</ele>
        <time>2021-08-10T10:27:36.784Z</time>
      </trkpt>
      <trkpt lat="46.9411" lon="8.57697">
        <ele>657</ele>
        <time>2021-08-10T10:27:37.783Z</time>
      </trkpt>
      <trkpt lat="46.94109" lon="8.57697">
        <ele>657</ele>
        <time>2021-08-10T10:27:38.784Z</time>
      </trkpt>
      <trkpt lat="46.94109" lon="8.57696">
        <ele>657</ele>
        <time>2021-08-10T10:27:39.784Z</time>
      </trkpt>
      <trkpt lat="46.94109" lon="8.57696">
        <ele>657</ele>
        <time>2021-08-10T10:27:40.783Z</time>
      </trkpt>
      <trkpt lat="46.94109" lon="8.57696">
        <ele>657</ele>
        <time>2021-08-10T10:27:41.783Z</time>
      </trkpt>
      <trkpt lat="46.94109" lon="8.57696">
        <ele>657</ele>
        <time>2021-08-10T10:27:42.783Z</time>
      </trkpt>
      <trkpt lat="46.94109" lon="8.57696">
        <ele>657</ele>
        <time>2021-08-10T10:27:43.783Z</time>
      </trkpt>
      <trkpt lat="46.94109" lon="8.57696">
        <ele>657</ele>
        <time>2021-08-10T10:27:44.783Z</time>
      </trkpt>
      <trkpt lat="46.94108" lon="8.57696">
        <ele>656</ele>
        <time>2021-08-10T10:27:45.783Z</time>
      </trkpt>
      <trkpt lat="46.94107" lon="8.57697">
        <ele>656</ele>
        <time>2021-08-10T10:27:46.783Z</time>
      </trkpt>
      <trkpt lat="46.94107" lon="8.57698">
        <ele>655</ele>
        <time>2021-08-10T10:27:47.783Z</time>
      </trkpt>
      <trkpt lat="46.94106" lon="8.57699">
        <ele>655</ele>
        <time>2021-08-10T10:27:48.783Z</time>
      </trkpt>
      <trkpt lat="46.94104" lon="8.577">
        <ele>655</ele>
        <time>2021-08-10T10:27:49.783Z</time>
      </trkpt>
      <trkpt lat="46.94102" lon="8.57702">
        <ele>654</ele>
        <time>2021-08-10T10:27:50.783Z</time>
      </trkpt>
      <trkpt lat="46.94102" lon="8.57703">
        <ele>654</ele>
        <time>2021-08-10T10:27:51.783Z</time>
      </trkpt>
      <trkpt lat="46.94102" lon="8.57703">
        <ele>653</ele>
        <time>2021-08-10T10:27:52.783Z</time>
      </trkpt>
      <trkpt lat="46.94102" lon="8.57704">
        <ele>652</ele>
        <time>2021-08-10T10:27:53.784Z</time>
      </trkpt>
      <trkpt lat="46.941" lon="8.57707">
        <ele>650</ele>
        <time>2021-08-10T10:27:54.785Z</time>
      </trkpt>
      <trkpt lat="46.94099" lon="8.57708">
        <ele>650</ele>
        <time>2021-08-10T10:27:55.785Z</time>
      </trkpt>
      <trkpt lat="46.941" lon="8.57709">
        <ele>649</ele>
        <time>2021-08-10T10:27:56.784Z</time>
      </trkpt>
      <trkpt lat="46.941" lon="8.57709">
        <ele>648</ele>
        <time>2021-08-10T10:27:57.785Z</time>
      </trkpt>
      <trkpt lat="46.94099" lon="8.57709">
        <ele>648</ele>
        <time>2021-08-10T10:27:58.785Z</time>
      </trkpt>
      <trkpt lat="46.94099" lon="8.5771">
        <ele>647</ele>
        <time>2021-08-10T10:27:59.784Z</time>
      </trkpt>
      <trkpt lat="46.94098" lon="8.5771">
        <ele>647</ele>
        <time>2021-08-10T10:28:00.785Z</time>
      </trkpt>
      <trkpt lat="46.94097" lon="8.5771">
        <ele>647</ele>
        <time>2021-08-10T10:28:01.785Z</time>
      </trkpt>
      <trkpt lat="46.94098" lon="8.5771">
        <ele>647</ele>
        <time>2021-08-10T10:28:02.784Z</time>
      </trkpt>
      <trkpt lat="46.94097" lon="8.57711">
        <ele>646</ele>
        <time>2021-08-10T10:28:03.784Z</time>
      </trkpt>
      <trkpt lat="46.94096" lon="8.57711">
        <ele>646</ele>
        <time>2021-08-10T10:28:04.784Z</time>
      </trkpt>
      <trkpt lat="46.94095" lon="8.57711">
        <ele>646</ele>
        <time>2021-08-10T10:28:05.784Z</time>
      </trkpt>
      <trkpt lat="46.94094" lon="8.57712">
        <ele>646</ele>
        <time>2021-08-10T10:28:06.784Z</time>
      </trkpt>
      <trkpt lat="46.94092" lon="8.57712">
        <ele>645</ele>
        <time>2021-08-10T10:28:07.785Z</time>
      </trkpt>
      <trkpt lat="46.94091" lon="8.57712">
        <ele>645</ele>
        <time>2021-08-10T10:28:08.784Z</time>
      </trkpt>
      <trkpt lat="46.94091" lon="8.57712">
        <ele>644</ele>
        <time>2021-08-10T10:28:09.785Z</time>
      </trkpt>
      <trkpt lat="46.94091" lon="8.57712">
        <ele>644</ele>
        <time>2021-08-10T10:28:10.785Z</time>
      </trkpt>
      <trkpt lat="46.9409" lon="8.57712">
        <ele>643</ele>
        <time>2021-08-10T10:28:11.785Z</time>
      </trkpt>
      <trkpt lat="46.94091" lon="8.57712">
        <ele>643</ele>
        <time>2021-08-10T10:28:12.785Z</time>
      </trkpt>
      <trkpt lat="46.94092" lon="8.57711">
        <ele>642</ele>
        <time>2021-08-10T10:28:13.785Z</time>
      </trkpt>
      <trkpt lat="46.94092" lon="8.57711">
        <ele>641</ele>
        <time>2021-08-10T10:28:14.784Z</time>
      </trkpt>
      <trkpt lat="46.94091" lon="8.5771">
        <ele>640</ele>
        <time>2021-08-10T10:28:15.784Z</time>
      </trkpt>
      <trkpt lat="46.94091" lon="8.57709">
        <ele>640</ele>
        <time>2021-08-10T10:28:16.785Z</time>
      </trkpt>
      <trkpt lat="46.94091" lon="8.57708">
        <ele>639</ele>
        <time>2021-08-10T10:28:17.785Z</time>
      </trkpt>
      <trkpt lat="46.94091" lon="8.57708">
        <ele>639</ele>
        <time>2021-08-10T10:28:18.785Z</time>
      </trkpt>
      <trkpt lat="46.9409" lon="8.57708">
        <ele>639</ele>
        <time>2021-08-10T10:28:19.784Z</time>
      </trkpt>
      <trkpt lat="46.94089" lon="8.57707">
        <ele>639</ele>
        <time>2021-08-10T10:28:20.784Z</time>
      </trkpt>
      <trkpt lat="46.94089" lon="8.57707">
        <ele>638</ele>
        <time>2021-08-10T10:28:21.785Z</time>
      </trkpt>
      <trkpt lat="46.94089" lon="8.57708">
        <ele>638</ele>
        <time>2021-08-10T10:28:22.785Z</time>
      </trkpt>
      <trkpt lat="46.94088" lon="8.57707">
        <ele>638</ele>
        <time>2021-08-10T10:28:23.785Z</time>
      </trkpt>
      <trkpt lat="46.94087" lon="8.57706">
        <ele>637</ele>
        <time>2021-08-10T10:28:24.784Z</time>
      </trkpt>
      <trkpt lat="46.94086" lon="8.57706">
        <ele>637</ele>
        <time>2021-08-10T10:28:25.785Z</time>
      </trkpt>
      <trkpt lat="46.94086" lon="8.57707">
        <ele>636</ele>
        <time>2021-08-10T10:28:26.785Z</time>
      </trkpt>
      <trkpt lat="46.94086" lon="8.57706">
        <ele>636</ele>
        <time>2021-08-10T10:28:27.784Z</time>
      </trkpt>
      <trkpt lat="46.94085" lon="8.57705">
        <ele>635</ele>
        <time>2021-08-10T10:28:28.785Z</time>
      </trkpt>
      <trkpt lat="46.94084" lon="8.57705">
        <ele>635</ele>
        <time>2021-08-10T10:28:29.784Z</time>
      </trkpt>
      <trkpt lat="46.94083" lon="8.57705">
        <ele>635</ele>
        <time>2021-08-10T10:28:30.785Z</time>
      </trkpt>
      <trkpt lat="46.94083" lon="8.57704">
        <ele>634</ele>
        <time>2021-08-10T10:28:31.785Z</time>
      </trkpt>
      <trkpt lat="46.94082" lon="8.57703">
        <ele>634</ele>
        <time>2021-08-10T10:28:32.785Z</time>
      </trkpt>
      <trkpt lat="46.94081" lon="8.57703">
        <ele>633</ele>
        <time>2021-08-10T10:28:33.785Z</time>
      </trkpt>
      <trkpt lat="46.9408" lon="8.57702">
        <ele>632</ele>
        <time>2021-08-10T10:28:34.785Z</time>
      </trkpt>
      <trkpt lat="46.94079" lon="8.57701">
        <ele>632</ele>
        <time>2021-08-10T10:28:35.785Z</time>
      </trkpt>
      <trkpt lat="46.94078" lon="8.57701">
        <ele>632</ele>
        <time>2021-08-10T10:28:36.785Z</time>
      </trkpt>
      <trkpt lat="46.94078" lon="8.57701">
        <ele>632</ele>
        <time>2021-08-10T10:28:37.785Z</time>
      </trkpt>
      <trkpt lat="46.94077" lon="8.57701">
        <ele>633</ele>
        <time>2021-08-10T10:28:38.784Z</time>
      </trkpt>
      <trkpt lat="46.94075" lon="8.57701">
        <ele>634</ele>
        <time>2021-08-10T10:28:39.785Z</time>
      </trkpt>
      <trkpt lat="46.94075" lon="8.57701">
        <ele>634</ele>
        <time>2021-08-10T10:28:40.785Z</time>
      </trkpt>
      <trkpt lat="46.94074" lon="8.57702">
        <ele>635</ele>
        <time>2021-08-10T10:28:41.785Z</time>
      </trkpt>
      <trkpt lat="46.94073" lon="8.57702">
        <ele>635</ele>
        <time>2021-08-10T10:28:42.784Z</time>
      </trkpt>
      <trkpt lat="46.94073" lon="8.57703">
        <ele>635</ele>
        <time>2021-08-10T10:28:43.785Z</time>
      </trkpt>
      <trkpt lat="46.94073" lon="8.57704">
        <ele>636</ele>
        <time>2021-08-10T10:28:44.785Z</time>
      </trkpt>
      <trkpt lat="46.94072" lon="8.57705">
        <ele>636</ele>
        <time>2021-08-10T10:28:45.785Z</time>
      </trkpt>
      <trkpt lat="46.94072" lon="8.57707">
        <ele>636</ele>
        <time>2021-08-10T10:28:46.785Z</time>
      </trkpt>
      <trkpt lat="46.94072" lon="8.57708">
        <ele>636</ele>
        <time>2021-08-10T10:28:47.785Z</time>
      </trkpt>
      <trkpt lat="46.94072" lon="8.57709">
        <ele>637</ele>
        <time>2021-08-10T10:28:48.785Z</time>
      </trkpt>
      <trkpt lat="46.94073" lon="8.5771">
        <ele>637</ele>
        <time>2021-08-10T10:28:49.785Z</time>
      </trkpt>
      <trkpt lat="46.94073" lon="8.57711">
        <ele>636</ele>
        <time>2021-08-10T10:28:50.785Z</time>
      </trkpt>
      <trkpt lat="46.94074" lon="8.57712">
        <ele>636</ele>
        <time>2021-08-10T10:28:51.785Z</time>
      </trkpt>
      <trkpt lat="46.94074" lon="8.57713">
        <ele>636</ele>
        <time>2021-08-10T10:28:52.784Z</time>
      </trkpt>
      <trkpt lat="46.94075" lon="8.57714">
        <ele>636</ele>
        <time>2021-08-10T10:28:53.785Z</time>
      </trkpt>
      <trkpt lat="46.94075" lon="8.57715">
        <ele>636</ele>
        <time>2021-08-10T10:28:54.785Z</time>
      </trkpt>
      <trkpt lat="46.94075" lon="8.57716">
        <ele>636</ele>
        <time>2021-08-10T10:28:55.785Z</time>
      </trkpt>
      <trkpt lat="46.94075" lon="8.57718">
        <ele>636</ele>
        <time>2021-08-10T10:28:56.785Z</time>
      </trkpt>
      <trkpt lat="46.94075" lon="8.57719">
        <ele>636</ele>
        <time>2021-08-10T10:28:57.785Z</time>
      </trkpt>
      <trkpt lat="46.94075" lon="8.57719">
        <ele>636</ele>
        <time>2021-08-10T10:28:58.785Z</time>
      </trkpt>
      <trkpt lat="46.94076" lon="8.5772">
        <ele>636</ele>
        <time>2021-08-10T10:28:59.785Z</time>
      </trkpt>
      <trkpt lat="46.94075" lon="8.57721">
        <ele>635</ele>
        <time>2021-08-10T10:29:00.786Z</time>
      </trkpt>
      <trkpt lat="46.94075" lon="8.57722">
        <ele>635</ele>
        <time>2021-08-10T10:29:01.785Z</time>
      </trkpt>
      <trkpt lat="46.94075" lon="8.57723">
        <ele>635</ele>
        <time>2021-08-10T10:29:02.785Z</time>
      </trkpt>
      <trkpt lat="46.94075" lon="8.57724">
        <ele>635</ele>
        <time>2021-08-10T10:29:03.786Z</time>
      </trkpt>
      <trkpt lat="46.94075" lon="8.57725">
        <ele>635</ele>
        <time>2021-08-10T10:29:04.786Z</time>
      </trkpt>
      <trkpt lat="46.94074" lon="8.57726">
        <ele>635</ele>
        <time>2021-08-10T10:29:05.786Z</time>
      </trkpt>
      <trkpt lat="46.94074" lon="8.57727">
        <ele>635</ele>
        <time>2021-08-10T10:29:06.786Z</time>
      </trkpt>
      <trkpt lat="46.94074" lon="8.57727">
        <ele>635</ele>
        <time>2021-08-10T10:29:07.786Z</time>
      </trkpt>
      <trkpt lat="46.94074" lon="8.57727">
        <ele>634</ele>
        <time>2021-08-10T10:29:08.785Z</time>
      </trkpt>
      <trkpt lat="46.94074" lon="8.57727">
        <ele>634</ele>
        <time>2021-08-10T10:29:09.786Z</time>
      </trkpt>
      <trkpt lat="46.94074" lon="8.57728">
        <ele>633</ele>
        <time>2021-08-10T10:29:10.785Z</time>
      </trkpt>
      <trkpt lat="46.94074" lon="8.57728">
        <ele>632</ele>
        <time>2021-08-10T10:29:11.786Z</time>
      </trkpt>
      <trkpt lat="46.94074" lon="8.5773">
        <ele>631</ele>
        <time>2021-08-10T10:29:12.786Z</time>
      </trkpt>
      <trkpt lat="46.94073" lon="8.57731">
        <ele>631</ele>
        <time>2021-08-10T10:29:13.785Z</time>
      </trkpt>
      <trkpt lat="46.94073" lon="8.57732">
        <ele>630</ele>
        <time>2021-08-10T10:29:14.786Z</time>
      </trkpt>
      <trkpt lat="46.94073" lon="8.57733">
        <ele>630</ele>
        <time>2021-08-10T10:29:15.786Z</time>
      </trkpt>
      <trkpt lat="46.94072" lon="8.57734">
        <ele>629</ele>
        <time>2021-08-10T10:29:16.785Z</time>
      </trkpt>
      <trkpt lat="46.94072" lon="8.57735">
        <ele>629</ele>
        <time>2021-08-10T10:29:17.785Z</time>
      </trkpt>
      <trkpt lat="46.94071" lon="8.57736">
        <ele>629</ele>
        <time>2021-08-10T10:29:18.786Z</time>
      </trkpt>
      <trkpt lat="46.94071" lon="8.57736">
        <ele>628</ele>
        <time>2021-08-10T10:29:19.786Z</time>
      </trkpt>
      <trkpt lat="46.9407" lon="8.57737">
        <ele>628</ele>
        <time>2021-08-10T10:29:20.786Z</time>
      </trkpt>
      <trkpt lat="46.9407" lon="8.57737">
        <ele>628</ele>
        <time>2021-08-10T10:29:21.785Z</time>
      </trkpt>
      <trkpt lat="46.94069" lon="8.57736">
        <ele>627</ele>
        <time>2021-08-10T10:29:22.786Z</time>
      </trkpt>
      <trkpt lat="46.94069" lon="8.57737">
        <ele>627</ele>
        <time>2021-08-10T10:29:23.785Z</time>
      </trkpt>
      <trkpt lat="46.94068" lon="8.57738">
        <ele>627</ele>
        <time>2021-08-10T10:29:24.786Z</time>
      </trkpt>
      <trkpt lat="46.94067" lon="8.57738">
        <ele>627</ele>
        <time>2021-08-10T10:29:25.786Z</time>
      </trkpt>
      <trkpt lat="46.94067" lon="8.57738">
        <ele>627</ele>
        <time>2021-08-10T10:29:26.786Z</time>
      </trkpt>
      <trkpt lat="46.94067" lon="8.57738">
        <ele>627</ele>
        <time>2021-08-10T10:29:27.786Z</time>
      </trkpt>
      <trkpt lat="46.94066" lon="8.57738">
        <ele>626</ele>
        <time>2021-08-10T10:29:28.786Z</time>
      </trkpt>
      <trkpt lat="46.94066" lon="8.57738">
        <ele>626</ele>
        <time>2021-08-10T10:29:29.786Z</time>
      </trkpt>
      <trkpt lat="46.94065" lon="8.57739">
        <ele>626</ele>
        <time>2021-08-10T10:29:30.787Z</time>
      </trkpt>
      <trkpt lat="46.94065" lon="8.5774">
        <ele>627</ele>
        <time>2021-08-10T10:29:31.787Z</time>
      </trkpt>
      <trkpt lat="46.94064" lon="8.57741">
        <ele>627</ele>
        <time>2021-08-10T10:29:32.787Z</time>
      </trkpt>
      <trkpt lat="46.94063" lon="8.57742">
        <ele>628</ele>
        <time>2021-08-10T10:29:33.786Z</time>
      </trkpt>
      <trkpt lat="46.94063" lon="8.57743">
        <ele>628</ele>
        <time>2021-08-10T10:29:34.787Z</time>
      </trkpt>
      <trkpt lat="46.94063" lon="8.57743">
        <ele>628</ele>
        <time>2021-08-10T10:29:35.786Z</time>
      </trkpt>
      <trkpt lat="46.94063" lon="8.57743">
        <ele>628</ele>
        <time>2021-08-10T10:29:36.787Z</time>
      </trkpt>
      <trkpt lat="46.94062" lon="8.57744">
        <ele>628</ele>
        <time>2021-08-10T10:29:37.787Z</time>
      </trkpt>
      <trkpt lat="46.94062" lon="8.57744">
        <ele>628</ele>
        <time>2021-08-10T10:29:38.786Z</time>
      </trkpt>
      <trkpt lat="46.94062" lon="8.57744">
        <ele>628</ele>
        <time>2021-08-10T10:29:39.786Z</time>
      </trkpt>
      <trkpt lat="46.94062" lon="8.57745">
        <ele>627</ele>
        <time>2021-08-10T10:29:40.786Z</time>
      </trkpt>
      <trkpt lat="46.9406" lon="8.57745">
        <ele>627</ele>
        <time>2021-08-10T10:29:41.787Z</time>
      </trkpt>
      <trkpt lat="46.94059" lon="8.57746">
        <ele>626</ele>
        <time>2021-08-10T10:29:42.786Z</time>
      </trkpt>
      <trkpt lat="46.94057" lon="8.57746">
        <ele>626</ele>
        <time>2021-08-10T10:29:43.787Z</time>
      </trkpt>
      <trkpt lat="46.94056" lon="8.57747">
        <ele>625</ele>
        <time>2021-08-10T10:29:44.787Z</time>
      </trkpt>
      <trkpt lat="46.94055" lon="8.57748">
        <ele>625</ele>
        <time>2021-08-10T10:29:45.787Z</time>
      </trkpt>
      <trkpt lat="46.94054" lon="8.57748">
        <ele>625</ele>
        <time>2021-08-10T10:29:46.787Z</time>
      </trkpt>
      <trkpt lat="46.94054" lon="8.57748">
        <ele>625</ele>
        <time>2021-08-10T10:29:47.787Z</time>
      </trkpt>
      <trkpt lat="46.94053" lon="8.57747">
        <ele>624</ele>
        <time>2021-08-10T10:29:48.786Z</time>
      </trkpt>
      <trkpt lat="46.94052" lon="8.57746">
        <ele>624</ele>
        <time>2021-08-10T10:29:49.786Z</time>
      </trkpt>
      <trkpt lat="46.94052" lon="8.57746">
        <ele>623</ele>
        <time>2021-08-10T10:29:50.787Z</time>
      </trkpt>
      <trkpt lat="46.94051" lon="8.57745">
        <ele>622</ele>
        <time>2021-08-10T10:29:51.787Z</time>
      </trkpt>
      <trkpt lat="46.9405" lon="8.57745">
        <ele>621</ele>
        <time>2021-08-10T10:29:52.786Z</time>
      </trkpt>
      <trkpt lat="46.94049" lon="8.57744">
        <ele>620</ele>
        <time>2021-08-10T10:29:53.786Z</time>
      </trkpt>
      <trkpt lat="46.94049" lon="8.57744">
        <ele>620</ele>
        <time>2021-08-10T10:29:54.786Z</time>
      </trkpt>
      <trkpt lat="46.94048" lon="8.57743">
        <ele>620</ele>
        <time>2021-08-10T10:29:55.786Z</time>
      </trkpt>
      <trkpt lat="46.94046" lon="8.57742">
        <ele>620</ele>
        <time>2021-08-10T10:29:56.787Z</time>
      </trkpt>
      <trkpt lat="46.94044" lon="8.57742">
        <ele>621</ele>
        <time>2021-08-10T10:29:57.786Z</time>
      </trkpt>
      <trkpt lat="46.94043" lon="8.57743">
        <ele>621</ele>
        <time>2021-08-10T10:29:58.786Z</time>
      </trkpt>
      <trkpt lat="46.94042" lon="8.57743">
        <ele>622</ele>
        <time>2021-08-10T10:29:59.786Z</time>
      </trkpt>
      <trkpt lat="46.9404" lon="8.57743">
        <ele>622</ele>
        <time>2021-08-10T10:30:00.786Z</time>
      </trkpt>
      <trkpt lat="46.94039" lon="8.57742">
        <ele>622</ele>
        <time>2021-08-10T10:30:01.786Z</time>
      </trkpt>
      <trkpt lat="46.94038" lon="8.57742">
        <ele>623</ele>
        <time>2021-08-10T10:30:02.786Z</time>
      </trkpt>
      <trkpt lat="46.94036" lon="8.57742">
        <ele>623</ele>
        <time>2021-08-10T10:30:03.787Z</time>
      </trkpt>
      <trkpt lat="46.94035" lon="8.57742">
        <ele>623</ele>
        <time>2021-08-10T10:30:04.786Z</time>
      </trkpt>
      <trkpt lat="46.94034" lon="8.57741">
        <ele>623</ele>
        <time>2021-08-10T10:30:05.786Z</time>
      </trkpt>
      <trkpt lat="46.94034" lon="8.5774">
        <ele>623</ele>
        <time>2021-08-10T10:30:06.786Z</time>
      </trkpt>
      <trkpt lat="46.94033" lon="8.57739">
        <ele>623</ele>
        <time>2021-08-10T10:30:07.786Z</time>
      </trkpt>
      <trkpt lat="46.94032" lon="8.57739">
        <ele>623</ele>
        <time>2021-08-10T10:30:08.786Z</time>
      </trkpt>
      <trkpt lat="46.94031" lon="8.57739">
        <ele>623</ele>
        <time>2021-08-10T10:30:09.786Z</time>
      </trkpt>
      <trkpt lat="46.9403" lon="8.57739">
        <ele>622</ele>
        <time>2021-08-10T10:30:10.786Z</time>
      </trkpt>
      <trkpt lat="46.9403" lon="8.57739">
        <ele>622</ele>
        <time>2021-08-10T10:30:11.786Z</time>
      </trkpt>
      <trkpt lat="46.94029" lon="8.57739">
        <ele>621</ele>
        <time>2021-08-10T10:30:12.786Z</time>
      </trkpt>
      <trkpt lat="46.94028" lon="8.57739">
        <ele>621</ele>
        <time>2021-08-10T10:30:13.786Z</time>
      </trkpt>
      <trkpt lat="46.94027" lon="8.57739">
        <ele>621</ele>
        <time>2021-08-10T10:30:14.786Z</time>
      </trkpt>
      <trkpt lat="46.94026" lon="8.57739">
        <ele>621</ele>
        <time>2021-08-10T10:30:15.786Z</time>
      </trkpt>
      <trkpt lat="46.94025" lon="8.57739">
        <ele>621</ele>
        <time>2021-08-10T10:30:16.787Z</time>
      </trkpt>
      <trkpt lat="46.94024" lon="8.5774">
        <ele>621</ele>
        <time>2021-08-10T10:30:17.787Z</time>
      </trkpt>
      <trkpt lat="46.94023" lon="8.5774">
        <ele>620</ele>
        <time>2021-08-10T10:30:18.786Z</time>
      </trkpt>
      <trkpt lat="46.94023" lon="8.5774">
        <ele>620</ele>
        <time>2021-08-10T10:30:19.786Z</time>
      </trkpt>
      <trkpt lat="46.94022" lon="8.5774">
        <ele>619</ele>
        <time>2021-08-10T10:30:20.786Z</time>
      </trkpt>
      <trkpt lat="46.94021" lon="8.5774">
        <ele>618</ele>
        <time>2021-08-10T10:30:21.786Z</time>
      </trkpt>
      <trkpt lat="46.94019" lon="8.5774">
        <ele>618</ele>
        <time>2021-08-10T10:30:22.786Z</time>
      </trkpt>
      <trkpt lat="46.94018" lon="8.5774">
        <ele>617</ele>
        <time>2021-08-10T10:30:23.786Z</time>
      </trkpt>
      <trkpt lat="46.94017" lon="8.57739">
        <ele>617</ele>
        <time>2021-08-10T10:30:24.786Z</time>
      </trkpt>
      <trkpt lat="46.94016" lon="8.57739">
        <ele>617</ele>
        <time>2021-08-10T10:30:25.786Z</time>
      </trkpt>
      <trkpt lat="46.94015" lon="8.5774">
        <ele>616</ele>
        <time>2021-08-10T10:30:26.786Z</time>
      </trkpt>
      <trkpt lat="46.94014" lon="8.5774">
        <ele>616</ele>
        <time>2021-08-10T10:30:27.787Z</time>
      </trkpt>
      <trkpt lat="46.94013" lon="8.5774">
        <ele>616</ele>
        <time>2021-08-10T10:30:28.786Z</time>
      </trkpt>
      <trkpt lat="46.94012" lon="8.57741">
        <ele>616</ele>
        <time>2021-08-10T10:30:29.786Z</time>
      </trkpt>
      <trkpt lat="46.9401" lon="8.57742">
        <ele>616</ele>
        <time>2021-08-10T10:30:30.786Z</time>
      </trkpt>
      <trkpt lat="46.94009" lon="8.57742">
        <ele>616</ele>
        <time>2021-08-10T10:30:31.787Z</time>
      </trkpt>
      <trkpt lat="46.94008" lon="8.57743">
        <ele>616</ele>
        <time>2021-08-10T10:30:32.787Z</time>
      </trkpt>
      <trkpt lat="46.94007" lon="8.57744">
        <ele>616</ele>
        <time>2021-08-10T10:30:33.786Z</time>
      </trkpt>
      <trkpt lat="46.94006" lon="8.57744">
        <ele>616</ele>
        <time>2021-08-10T10:30:34.786Z</time>
      </trkpt>
      <trkpt lat="46.94003" lon="8.57744">
        <ele>617</ele>
        <time>2021-08-10T10:30:35.786Z</time>
      </trkpt>
      <trkpt lat="46.94001" lon="8.57744">
        <ele>617</ele>
        <time>2021-08-10T10:30:36.787Z</time>
      </trkpt>
      <trkpt lat="46.93999" lon="8.57744">
        <ele>617</ele>
        <time>2021-08-10T10:30:37.786Z</time>
      </trkpt>
      <trkpt lat="46.93997" lon="8.57744">
        <ele>617</ele>
        <time>2021-08-10T10:30:38.786Z</time>
      </trkpt>
      <trkpt lat="46.93996" lon="8.57743">
        <ele>617</ele>
        <time>2021-08-10T10:30:39.787Z</time>
      </trkpt>
      <trkpt lat="46.93995" lon="8.57743">
        <ele>617</ele>
        <time>2021-08-10T10:30:40.787Z</time>
      </trkpt>
      <trkpt lat="46.93993" lon="8.57743">
        <ele>617</ele>
        <time>2021-08-10T10:30:41.786Z</time>
      </trkpt>
      <trkpt lat="46.93992" lon="8.57743">
        <ele>617</ele>
        <time>2021-08-10T10:30:42.786Z</time>
      </trkpt>
      <trkpt lat="46.9399" lon="8.57744">
        <ele>617</ele>
        <time>2021-08-10T10:30:43.786Z</time>
      </trkpt>
      <trkpt lat="46.93989" lon="8.57744">
        <ele>616</ele>
        <time>2021-08-10T10:30:44.786Z</time>
      </trkpt>
      <trkpt lat="46.93987" lon="8.57745">
        <ele>616</ele>
        <time>2021-08-10T10:30:45.786Z</time>
      </trkpt>
      <trkpt lat="46.93986" lon="8.57745">
        <ele>615</ele>
        <time>2021-08-10T10:30:46.786Z</time>
      </trkpt>
      <trkpt lat="46.93985" lon="8.57745">
        <ele>615</ele>
        <time>2021-08-10T10:30:47.786Z</time>
      </trkpt>
      <trkpt lat="46.93984" lon="8.57745">
        <ele>614</ele>
        <time>2021-08-10T10:30:48.787Z</time>
      </trkpt>
      <trkpt lat="46.93983" lon="8.57745">
        <ele>614</ele>
        <time>2021-08-10T10:30:49.787Z</time>
      </trkpt>
      <trkpt lat="46.93983" lon="8.57745">
        <ele>614</ele>
        <time>2021-08-10T10:30:50.787Z</time>
      </trkpt>
      <trkpt lat="46.93982" lon="8.57745">
        <ele>614</ele>
        <time>2021-08-10T10:30:51.786Z</time>
      </trkpt>
      <trkpt lat="46.93981" lon="8.57744">
        <ele>614</ele>
        <time>2021-08-10T10:30:52.787Z</time>
      </trkpt>
      <trkpt lat="46.9398" lon="8.57744">
        <ele>614</ele>
        <time>2021-08-10T10:30:53.787Z</time>
      </trkpt>
      <trkpt lat="46.93979" lon="8.57744">
        <ele>614</ele>
        <time>2021-08-10T10:30:54.786Z</time>
      </trkpt>
      <trkpt lat="46.93977" lon="8.57744">
        <ele>614</ele>
        <time>2021-08-10T10:30:55.787Z</time>
      </trkpt>
      <trkpt lat="46.93976" lon="8.57744">
        <ele>614</ele>
        <time>2021-08-10T10:30:56.787Z</time>
      </trkpt>
      <trkpt lat="46.93975" lon="8.57744">
        <ele>614</ele>
        <time>2021-08-10T10:30:57.787Z</time>
      </trkpt>
      <trkpt lat="46.93973" lon="8.57744">
        <ele>614</ele>
        <time>2021-08-10T10:30:58.787Z</time>
      </trkpt>
      <trkpt lat="46.93972" lon="8.57743">
        <ele>615</ele>
        <time>2021-08-10T10:30:59.787Z</time>
      </trkpt>
      <trkpt lat="46.93971" lon="8.57743">
        <ele>615</ele>
        <time>2021-08-10T10:31:00.787Z</time>
      </trkpt>
      <trkpt lat="46.9397" lon="8.57743">
        <ele>615</ele>
        <time>2021-08-10T10:31:01.787Z</time>
      </trkpt>
      <trkpt lat="46.93969" lon="8.57742">
        <ele>615</ele>
        <time>2021-08-10T10:31:02.786Z</time>
      </trkpt>
      <trkpt lat="46.93968" lon="8.57741">
        <ele>615</ele>
        <time>2021-08-10T10:31:03.787Z</time>
      </trkpt>
      <trkpt lat="46.93967" lon="8.57741">
        <ele>615</ele>
        <time>2021-08-10T10:31:04.787Z</time>
      </trkpt>
      <trkpt lat="46.93966" lon="8.5774">
        <ele>615</ele>
        <time>2021-08-10T10:31:05.786Z</time>
      </trkpt>
      <trkpt lat="46.93966" lon="8.5774">
        <ele>614</ele>
        <time>2021-08-10T10:31:06.786Z</time>
      </trkpt>
      <trkpt lat="46.93965" lon="8.57739">
        <ele>614</ele>
        <time>2021-08-10T10:31:07.786Z</time>
      </trkpt>
      <trkpt lat="46.93965" lon="8.57738">
        <ele>614</ele>
        <time>2021-08-10T10:31:08.786Z</time>
      </trkpt>
      <trkpt lat="46.93964" lon="8.57737">
        <ele>614</ele>
        <time>2021-08-10T10:31:09.786Z</time>
      </trkpt>
      <trkpt lat="46.93964" lon="8.57737">
        <ele>613</ele>
        <time>2021-08-10T10:31:10.787Z</time>
      </trkpt>
      <trkpt lat="46.93959" lon="8.57733">
        <ele>610</ele>
        <time>2021-08-10T10:31:11.786Z</time>
      </trkpt>
      <trkpt lat="46.9396" lon="8.57733">
        <ele>610</ele>
        <time>2021-08-10T10:31:12.786Z</time>
      </trkpt>
      <trkpt lat="46.9396" lon="8.57733">
        <ele>610</ele>
        <time>2021-08-10T10:31:13.786Z</time>
      </trkpt>
      <trkpt lat="46.9396" lon="8.57733">
        <ele>610</ele>
        <time>2021-08-10T10:31:14.786Z</time>
      </trkpt>
      <trkpt lat="46.9396" lon="8.57734">
        <ele>611</ele>
        <time>2021-08-10T10:31:15.787Z</time>
      </trkpt>
      <trkpt lat="46.9396" lon="8.57734">
        <ele>611</ele>
        <time>2021-08-10T10:31:16.786Z</time>
      </trkpt>
      <trkpt lat="46.9396" lon="8.57734">
        <ele>611</ele>
        <time>2021-08-10T10:31:17.787Z</time>
      </trkpt>
      <trkpt lat="46.93958" lon="8.57732">
        <ele>616</ele>
        <time>2021-08-10T10:31:18.787Z</time>
      </trkpt>
      <trkpt lat="46.93957" lon="8.57731">
        <ele>616</ele>
        <time>2021-08-10T10:31:19.786Z</time>
      </trkpt>
      <trkpt lat="46.93956" lon="8.5773">
        <ele>617</ele>
        <time>2021-08-10T10:31:20.786Z</time>
      </trkpt>
      <trkpt lat="46.93956" lon="8.5773">
        <ele>617</ele>
        <time>2021-08-10T10:31:21.786Z</time>
      </trkpt>
      <trkpt lat="46.93955" lon="8.57729">
        <ele>617</ele>
        <time>2021-08-10T10:31:22.787Z</time>
      </trkpt>
      <trkpt lat="46.93954" lon="8.57728">
        <ele>617</ele>
        <time>2021-08-10T10:31:23.786Z</time>
      </trkpt>
      <trkpt lat="46.93954" lon="8.57727">
        <ele>618</ele>
        <time>2021-08-10T10:31:24.786Z</time>
      </trkpt>
      <trkpt lat="46.93953" lon="8.57727">
        <ele>618</ele>
        <time>2021-08-10T10:31:25.787Z</time>
      </trkpt>
      <trkpt lat="46.93953" lon="8.57726">
        <ele>618</ele>
        <time>2021-08-10T10:31:26.786Z</time>
      </trkpt>
      <trkpt lat="46.93953" lon="8.57726">
        <ele>618</ele>
        <time>2021-08-10T10:31:27.787Z</time>
      </trkpt>
      <trkpt lat="46.93953" lon="8.57725">
        <ele>618</ele>
        <time>2021-08-10T10:31:28.786Z</time>
      </trkpt>
      <trkpt lat="46.93953" lon="8.57724">
        <ele>619</ele>
        <time>2021-08-10T10:31:29.786Z</time>
      </trkpt>
      <trkpt lat="46.93953" lon="8.57723">
        <ele>619</ele>
        <time>2021-08-10T10:31:30.787Z</time>
      </trkpt>
      <trkpt lat="46.93953" lon="8.57722">
        <ele>619</ele>
        <time>2021-08-10T10:31:31.786Z</time>
      </trkpt>
      <trkpt lat="46.93952" lon="8.57721">
        <ele>620</ele>
        <time>2021-08-10T10:31:32.786Z</time>
      </trkpt>
      <trkpt lat="46.93952" lon="8.5772">
        <ele>620</ele>
        <time>2021-08-10T10:31:33.787Z</time>
      </trkpt>
      <trkpt lat="46.93951" lon="8.57719">
        <ele>620</ele>
        <time>2021-08-10T10:31:34.786Z</time>
      </trkpt>
      <trkpt lat="46.9395" lon="8.57719">
        <ele>620</ele>
        <time>2021-08-10T10:31:35.786Z</time>
      </trkpt>
      <trkpt lat="46.93949" lon="8.57719">
        <ele>620</ele>
        <time>2021-08-10T10:31:36.786Z</time>
      </trkpt>
      <trkpt lat="46.93948" lon="8.57718">
        <ele>619</ele>
        <time>2021-08-10T10:31:37.786Z</time>
      </trkpt>
      <trkpt lat="46.93947" lon="8.57717">
        <ele>619</ele>
        <time>2021-08-10T10:31:38.786Z</time>
      </trkpt>
      <trkpt lat="46.93947" lon="8.57716">
        <ele>619</ele>
        <time>2021-08-10T10:31:39.786Z</time>
      </trkpt>
      <trkpt lat="46.93947" lon="8.57714">
        <ele>618</ele>
        <time>2021-08-10T10:31:40.786Z</time>
      </trkpt>
      <trkpt lat="46.93947" lon="8.57712">
        <ele>618</ele>
        <time>2021-08-10T10:31:41.786Z</time>
      </trkpt>
      <trkpt lat="46.93946" lon="8.57711">
        <ele>618</ele>
        <time>2021-08-10T10:31:42.786Z</time>
      </trkpt>
      <trkpt lat="46.93945" lon="8.57711">
        <ele>618</ele>
        <time>2021-08-10T10:31:43.786Z</time>
      </trkpt>
      <trkpt lat="46.93944" lon="8.57711">
        <ele>617</ele>
        <time>2021-08-10T10:31:44.786Z</time>
      </trkpt>
      <trkpt lat="46.93944" lon="8.57711">
        <ele>617</ele>
        <time>2021-08-10T10:31:45.786Z</time>
      </trkpt>
      <trkpt lat="46.93944" lon="8.57711">
        <ele>617</ele>
        <time>2021-08-10T10:31:46.786Z</time>
      </trkpt>
      <trkpt lat="46.93944" lon="8.57713">
        <ele>617</ele>
        <time>2021-08-10T10:31:47.786Z</time>
      </trkpt>
      <trkpt lat="46.93944" lon="8.57712">
        <ele>617</ele>
        <time>2021-08-10T10:31:48.786Z</time>
      </trkpt>
      <trkpt lat="46.93944" lon="8.57711">
        <ele>617</ele>
        <time>2021-08-10T10:31:49.787Z</time>
      </trkpt>
      <trkpt lat="46.93944" lon="8.57711">
        <ele>617</ele>
        <time>2021-08-10T10:31:50.787Z</time>
      </trkpt>
      <trkpt lat="46.93943" lon="8.57711">
        <ele>617</ele>
        <time>2021-08-10T10:31:51.787Z</time>
      </trkpt>
      <trkpt lat="46.93943" lon="8.57711">
        <ele>619</ele>
        <time>2021-08-10T10:31:52.788Z</time>
      </trkpt>
      <trkpt lat="46.93942" lon="8.57712">
        <ele>620</ele>
        <time>2021-08-10T10:31:53.789Z</time>
      </trkpt>
      <trkpt lat="46.93942" lon="8.57712">
        <ele>621</ele>
        <time>2021-08-10T10:31:54.789Z</time>
      </trkpt>
      <trkpt lat="46.93941" lon="8.57711">
        <ele>622</ele>
        <time>2021-08-10T10:31:55.789Z</time>
      </trkpt>
      <trkpt lat="46.9394" lon="8.57711">
        <ele>623</ele>
        <time>2021-08-10T10:31:56.788Z</time>
      </trkpt>
      <trkpt lat="46.93939" lon="8.5771">
        <ele>623</ele>
        <time>2021-08-10T10:31:57.789Z</time>
      </trkpt>
      <trkpt lat="46.93938" lon="8.57709">
        <ele>623</ele>
        <time>2021-08-10T10:31:58.789Z</time>
      </trkpt>
      <trkpt lat="46.93937" lon="8.57709">
        <ele>622</ele>
        <time>2021-08-10T10:31:59.789Z</time>
      </trkpt>
      <trkpt lat="46.93936" lon="8.57708">
        <ele>622</ele>
        <time>2021-08-10T10:32:00.789Z</time>
      </trkpt>
      <trkpt lat="46.93935" lon="8.57708">
        <ele>622</ele>
        <time>2021-08-10T10:32:01.788Z</time>
      </trkpt>
      <trkpt lat="46.93933" lon="8.57709">
        <ele>622</ele>
        <time>2021-08-10T10:32:02.788Z</time>
      </trkpt>
      <trkpt lat="46.93931" lon="8.57709">
        <ele>622</ele>
        <time>2021-08-10T10:32:03.789Z</time>
      </trkpt>
      <trkpt lat="46.9393" lon="8.57709">
        <ele>622</ele>
        <time>2021-08-10T10:32:04.789Z</time>
      </trkpt>
      <trkpt lat="46.93929" lon="8.57708">
        <ele>621</ele>
        <time>2021-08-10T10:32:05.788Z</time>
      </trkpt>
      <trkpt lat="46.93928" lon="8.57709">
        <ele>621</ele>
        <time>2021-08-10T10:32:06.789Z</time>
      </trkpt>
      <trkpt lat="46.93926" lon="8.57709">
        <ele>621</ele>
        <time>2021-08-10T10:32:07.788Z</time>
      </trkpt>
      <trkpt lat="46.93925" lon="8.57709">
        <ele>621</ele>
        <time>2021-08-10T10:32:08.788Z</time>
      </trkpt>
      <trkpt lat="46.93924" lon="8.5771">
        <ele>621</ele>
        <time>2021-08-10T10:32:09.788Z</time>
      </trkpt>
      <trkpt lat="46.93923" lon="8.5771">
        <ele>621</ele>
        <time>2021-08-10T10:32:10.788Z</time>
      </trkpt>
      <trkpt lat="46.93923" lon="8.5771">
        <ele>622</ele>
        <time>2021-08-10T10:32:11.788Z</time>
      </trkpt>
      <trkpt lat="46.93923" lon="8.5771">
        <ele>622</ele>
        <time>2021-08-10T10:32:12.788Z</time>
      </trkpt>
      <trkpt lat="46.93922" lon="8.57711">
        <ele>622</ele>
        <time>2021-08-10T10:32:13.788Z</time>
      </trkpt>
      <trkpt lat="46.93921" lon="8.57712">
        <ele>622</ele>
        <time>2021-08-10T10:32:14.789Z</time>
      </trkpt>
      <trkpt lat="46.9392" lon="8.57713">
        <ele>621</ele>
        <time>2021-08-10T10:32:15.789Z</time>
      </trkpt>
      <trkpt lat="46.9392" lon="8.57713">
        <ele>621</ele>
        <time>2021-08-10T10:32:16.789Z</time>
      </trkpt>
      <trkpt lat="46.93919" lon="8.57714">
        <ele>620</ele>
        <time>2021-08-10T10:32:17.789Z</time>
      </trkpt>
      <trkpt lat="46.93917" lon="8.57714">
        <ele>620</ele>
        <time>2021-08-10T10:32:18.789Z</time>
      </trkpt>
      <trkpt lat="46.93916" lon="8.57713">
        <ele>620</ele>
        <time>2021-08-10T10:32:19.789Z</time>
      </trkpt>
      <trkpt lat="46.93916" lon="8.57713">
        <ele>620</ele>
        <time>2021-08-10T10:32:20.789Z</time>
      </trkpt>
      <trkpt lat="46.93915" lon="8.57713">
        <ele>620</ele>
        <time>2021-08-10T10:32:21.788Z</time>
      </trkpt>
      <trkpt lat="46.93914" lon="8.57713">
        <ele>620</ele>
        <time>2021-08-10T10:32:22.789Z</time>
      </trkpt>
      <trkpt lat="46.93914" lon="8.57712">
        <ele>620</ele>
        <time>2021-08-10T10:32:23.788Z</time>
      </trkpt>
      <trkpt lat="46.93913" lon="8.57712">
        <ele>621</ele>
        <time>2021-08-10T10:32:24.789Z</time>
      </trkpt>
      <trkpt lat="46.93913" lon="8.5771">
        <ele>621</ele>
        <time>2021-08-10T10:32:25.788Z</time>
      </trkpt>
      <trkpt lat="46.93913" lon="8.57709">
        <ele>621</ele>
        <time>2021-08-10T10:32:26.788Z</time>
      </trkpt>
      <trkpt lat="46.93913" lon="8.57707">
        <ele>621</ele>
        <time>2021-08-10T10:32:27.789Z</time>
      </trkpt>
      <trkpt lat="46.93913" lon="8.57706">
        <ele>621</ele>
        <time>2021-08-10T10:32:28.789Z</time>
      </trkpt>
      <trkpt lat="46.93913" lon="8.57706">
        <ele>621</ele>
        <time>2021-08-10T10:32:29.789Z</time>
      </trkpt>
      <trkpt lat="46.93912" lon="8.57706">
        <ele>621</ele>
        <time>2021-08-10T10:32:30.789Z</time>
      </trkpt>
      <trkpt lat="46.93912" lon="8.57706">
        <ele>621</ele>
        <time>2021-08-10T10:32:31.789Z</time>
      </trkpt>
      <trkpt lat="46.93912" lon="8.57706">
        <ele>621</ele>
        <time>2021-08-10T10:32:32.789Z</time>
      </trkpt>
      <trkpt lat="46.93911" lon="8.57706">
        <ele>622</ele>
        <time>2021-08-10T10:32:33.789Z</time>
      </trkpt>
      <trkpt lat="46.9391" lon="8.57705">
        <ele>622</ele>
        <time>2021-08-10T10:32:34.789Z</time>
      </trkpt>
      <trkpt lat="46.9391" lon="8.57705">
        <ele>622</ele>
        <time>2021-08-10T10:32:35.790Z</time>
      </trkpt>
      <trkpt lat="46.93909" lon="8.57704">
        <ele>622</ele>
        <time>2021-08-10T10:32:36.790Z</time>
      </trkpt>
      <trkpt lat="46.93909" lon="8.57703">
        <ele>622</ele>
        <time>2021-08-10T10:32:37.789Z</time>
      </trkpt>
      <trkpt lat="46.93909" lon="8.57703">
        <ele>622</ele>
        <time>2021-08-10T10:32:38.790Z</time>
      </trkpt>
      <trkpt lat="46.93908" lon="8.57702">
        <ele>622</ele>
        <time>2021-08-10T10:32:39.790Z</time>
      </trkpt>
      <trkpt lat="46.93907" lon="8.57701">
        <ele>622</ele>
        <time>2021-08-10T10:32:40.790Z</time>
      </trkpt>
      <trkpt lat="46.93907" lon="8.57701">
        <ele>623</ele>
        <time>2021-08-10T10:32:41.789Z</time>
      </trkpt>
      <trkpt lat="46.93907" lon="8.57699">
        <ele>623</ele>
        <time>2021-08-10T10:32:42.790Z</time>
      </trkpt>
      <trkpt lat="46.93907" lon="8.57698">
        <ele>622</ele>
        <time>2021-08-10T10:32:43.789Z</time>
      </trkpt>
      <trkpt lat="46.93907" lon="8.57697">
        <ele>622</ele>
        <time>2021-08-10T10:32:44.790Z</time>
      </trkpt>
      <trkpt lat="46.93906" lon="8.57697">
        <ele>621</ele>
        <time>2021-08-10T10:32:45.790Z</time>
      </trkpt>
      <trkpt lat="46.93906" lon="8.57696">
        <ele>621</ele>
        <time>2021-08-10T10:32:46.790Z</time>
      </trkpt>
      <trkpt lat="46.93906" lon="8.57696">
        <ele>621</ele>
        <time>2021-08-10T10:32:47.790Z</time>
      </trkpt>
      <trkpt lat="46.93906" lon="8.57695">
        <ele>620</ele>
        <time>2021-08-10T10:32:48.790Z</time>
      </trkpt>
      <trkpt lat="46.93906" lon="8.57694">
        <ele>620</ele>
        <time>2021-08-10T10:32:49.790Z</time>
      </trkpt>
      <trkpt lat="46.93905" lon="8.57691">
        <ele>618</ele>
        <time>2021-08-10T10:32:50.791Z</time>
      </trkpt>
      <trkpt lat="46.93905" lon="8.57691">
        <ele>617</ele>
        <time>2021-08-10T10:32:51.790Z</time>
      </trkpt>
      <trkpt lat="46.93905" lon="8.57689">
        <ele>616</ele>
        <time>2021-08-10T10:32:52.791Z</time>
      </trkpt>
      <trkpt lat="46.93904" lon="8.57688">
        <ele>616</ele>
        <time>2021-08-10T10:32:53.790Z</time>
      </trkpt>
      <trkpt lat="46.93905" lon="8.57685">
        <ele>615</ele>
        <time>2021-08-10T10:32:54.791Z</time>
      </trkpt>
      <trkpt lat="46.93906" lon="8.57684">
        <ele>615</ele>
        <time>2021-08-10T10:32:55.790Z</time>
      </trkpt>
      <trkpt lat="46.93907" lon="8.57684">
        <ele>614</ele>
        <time>2021-08-10T10:32:56.791Z</time>
      </trkpt>
      <trkpt lat="46.93907" lon="8.57684">
        <ele>614</ele>
        <time>2021-08-10T10:32:57.790Z</time>
      </trkpt>
      <trkpt lat="46.93906" lon="8.57683">
        <ele>613</ele>
        <time>2021-08-10T10:32:58.791Z</time>
      </trkpt>
      <trkpt lat="46.93906" lon="8.57683">
        <ele>613</ele>
        <time>2021-08-10T10:32:59.790Z</time>
      </trkpt>
      <trkpt lat="46.93905" lon="8.57682">
        <ele>612</ele>
        <time>2021-08-10T10:33:00.791Z</time>
      </trkpt>
      <trkpt lat="46.93905" lon="8.57682">
        <ele>612</ele>
        <time>2021-08-10T10:33:01.791Z</time>
      </trkpt>
      <trkpt lat="46.93905" lon="8.57682">
        <ele>612</ele>
        <time>2021-08-10T10:33:02.791Z</time>
      </trkpt>
      <trkpt lat="46.93905" lon="8.57681">
        <ele>612</ele>
        <time>2021-08-10T10:33:03.790Z</time>
      </trkpt>
      <trkpt lat="46.93905" lon="8.57681">
        <ele>611</ele>
        <time>2021-08-10T10:33:04.791Z</time>
      </trkpt>
      <trkpt lat="46.93905" lon="8.57681">
        <ele>611</ele>
        <time>2021-08-10T10:33:05.791Z</time>
      </trkpt>
      <trkpt lat="46.93905" lon="8.5768">
        <ele>611</ele>
        <time>2021-08-10T10:33:06.791Z</time>
      </trkpt>
      <trkpt lat="46.93904" lon="8.57681">
        <ele>610</ele>
        <time>2021-08-10T10:33:07.791Z</time>
      </trkpt>
      <trkpt lat="46.93904" lon="8.57681">
        <ele>610</ele>
        <time>2021-08-10T10:33:08.790Z</time>
      </trkpt>
      <trkpt lat="46.93904" lon="8.57681">
        <ele>610</ele>
        <time>2021-08-10T10:33:09.791Z</time>
      </trkpt>
      <trkpt lat="46.93903" lon="8.5768">
        <ele>609</ele>
        <time>2021-08-10T10:33:10.792Z</time>
      </trkpt>
      <trkpt lat="46.93902" lon="8.57679">
        <ele>609</ele>
        <time>2021-08-10T10:33:11.792Z</time>
      </trkpt>
      <trkpt lat="46.93902" lon="8.57679">
        <ele>609</ele>
        <time>2021-08-10T10:33:12.791Z</time>
      </trkpt>
      <trkpt lat="46.93901" lon="8.57679">
        <ele>608</ele>
        <time>2021-08-10T10:33:13.792Z</time>
      </trkpt>
      <trkpt lat="46.93901" lon="8.57678">
        <ele>608</ele>
        <time>2021-08-10T10:33:14.792Z</time>
      </trkpt>
      <trkpt lat="46.939" lon="8.57678">
        <ele>608</ele>
        <time>2021-08-10T10:33:15.792Z</time>
      </trkpt>
      <trkpt lat="46.93899" lon="8.57678">
        <ele>608</ele>
        <time>2021-08-10T10:33:16.792Z</time>
      </trkpt>
      <trkpt lat="46.93899" lon="8.57678">
        <ele>608</ele>
        <time>2021-08-10T10:33:17.792Z</time>
      </trkpt>
      <trkpt lat="46.93898" lon="8.57677">
        <ele>608</ele>
        <time>2021-08-10T10:33:18.792Z</time>
      </trkpt>
      <trkpt lat="46.93897" lon="8.57677">
        <ele>608</ele>
        <time>2021-08-10T10:33:19.792Z</time>
      </trkpt>
      <trkpt lat="46.93896" lon="8.57676">
        <ele>608</ele>
        <time>2021-08-10T10:33:20.792Z</time>
      </trkpt>
      <trkpt lat="46.93894" lon="8.57675">
        <ele>607</ele>
        <time>2021-08-10T10:33:21.792Z</time>
      </trkpt>
      <trkpt lat="46.93892" lon="8.57674">
        <ele>607</ele>
        <time>2021-08-10T10:33:22.792Z</time>
      </trkpt>
      <trkpt lat="46.9389" lon="8.57673">
        <ele>607</ele>
        <time>2021-08-10T10:33:23.792Z</time>
      </trkpt>
      <trkpt lat="46.9389" lon="8.57674">
        <ele>608</ele>
        <time>2021-08-10T10:33:24.791Z</time>
      </trkpt>
      <trkpt lat="46.93889" lon="8.57676">
        <ele>607</ele>
        <time>2021-08-10T10:33:25.792Z</time>
      </trkpt>
      <trkpt lat="46.93889" lon="8.57676">
        <ele>607</ele>
        <time>2021-08-10T10:33:26.791Z</time>
      </trkpt>
      <trkpt lat="46.93889" lon="8.57676">
        <ele>607</ele>
        <time>2021-08-10T10:33:27.791Z</time>
      </trkpt>
      <trkpt lat="46.93888" lon="8.57676">
        <ele>606</ele>
        <time>2021-08-10T10:33:28.791Z</time>
      </trkpt>
      <trkpt lat="46.93888" lon="8.57676">
        <ele>605</ele>
        <time>2021-08-10T10:33:29.792Z</time>
      </trkpt>
      <trkpt lat="46.93888" lon="8.57678">
        <ele>604</ele>
        <time>2021-08-10T10:33:30.792Z</time>
      </trkpt>
      <trkpt lat="46.93889" lon="8.57679">
        <ele>604</ele>
        <time>2021-08-10T10:33:31.792Z</time>
      </trkpt>
      <trkpt lat="46.93889" lon="8.5768">
        <ele>603</ele>
        <time>2021-08-10T10:33:32.792Z</time>
      </trkpt>
      <trkpt lat="46.93889" lon="8.57682">
        <ele>602</ele>
        <time>2021-08-10T10:33:33.792Z</time>
      </trkpt>
      <trkpt lat="46.93889" lon="8.57684">
        <ele>602</ele>
        <time>2021-08-10T10:33:34.791Z</time>
      </trkpt>
      <trkpt lat="46.93888" lon="8.57685">
        <ele>601</ele>
        <time>2021-08-10T10:33:35.792Z</time>
      </trkpt>
      <trkpt lat="46.93887" lon="8.57685">
        <ele>601</ele>
        <time>2021-08-10T10:33:36.792Z</time>
      </trkpt>
      <trkpt lat="46.93886" lon="8.57685">
        <ele>601</ele>
        <time>2021-08-10T10:33:37.792Z</time>
      </trkpt>
      <trkpt lat="46.93886" lon="8.57685">
        <ele>600</ele>
        <time>2021-08-10T10:33:38.792Z</time>
      </trkpt>
      <trkpt lat="46.93886" lon="8.57685">
        <ele>600</ele>
        <time>2021-08-10T10:33:39.792Z</time>
      </trkpt>
      <trkpt lat="46.93886" lon="8.57684">
        <ele>600</ele>
        <time>2021-08-10T10:33:40.791Z</time>
      </trkpt>
      <trkpt lat="46.93885" lon="8.57684">
        <ele>600</ele>
        <time>2021-08-10T10:33:41.791Z</time>
      </trkpt>
      <trkpt lat="46.93884" lon="8.57684">
        <ele>601</ele>
        <time>2021-08-10T10:33:42.792Z</time>
      </trkpt>
      <trkpt lat="46.93884" lon="8.57683">
        <ele>601</ele>
        <time>2021-08-10T10:33:43.791Z</time>
      </trkpt>
      <trkpt lat="46.93883" lon="8.57683">
        <ele>602</ele>
        <time>2021-08-10T10:33:44.792Z</time>
      </trkpt>
      <trkpt lat="46.93882" lon="8.57682">
        <ele>602</ele>
        <time>2021-08-10T10:33:45.791Z</time>
      </trkpt>
      <trkpt lat="46.93882" lon="8.57681">
        <ele>603</ele>
        <time>2021-08-10T10:33:46.791Z</time>
      </trkpt>
      <trkpt lat="46.93881" lon="8.57681">
        <ele>603</ele>
        <time>2021-08-10T10:33:47.791Z</time>
      </trkpt>
      <trkpt lat="46.9388" lon="8.57679">
        <ele>603</ele>
        <time>2021-08-10T10:33:48.791Z</time>
      </trkpt>
      <trkpt lat="46.9388" lon="8.57678">
        <ele>603</ele>
        <time>2021-08-10T10:33:49.791Z</time>
      </trkpt>
      <trkpt lat="46.93879" lon="8.57678">
        <ele>603</ele>
        <time>2021-08-10T10:33:50.791Z</time>
      </trkpt>
      <trkpt lat="46.93878" lon="8.57677">
        <ele>603</ele>
        <time>2021-08-10T10:33:51.791Z</time>
      </trkpt>
      <trkpt lat="46.93877" lon="8.57677">
        <ele>603</ele>
        <time>2021-08-10T10:33:52.791Z</time>
      </trkpt>
      <trkpt lat="46.93876" lon="8.57677">
        <ele>603</ele>
        <time>2021-08-10T10:33:53.791Z</time>
      </trkpt>
      <trkpt lat="46.93875" lon="8.57676">
        <ele>603</ele>
        <time>2021-08-10T10:33:54.791Z</time>
      </trkpt>
      <trkpt lat="46.93875" lon="8.57675">
        <ele>603</ele>
        <time>2021-08-10T10:33:55.791Z</time>
      </trkpt>
      <trkpt lat="46.93875" lon="8.57674">
        <ele>604</ele>
        <time>2021-08-10T10:33:56.792Z</time>
      </trkpt>
      <trkpt lat="46.93874" lon="8.57673">
        <ele>604</ele>
        <time>2021-08-10T10:33:57.792Z</time>
      </trkpt>
      <trkpt lat="46.93873" lon="8.57673">
        <ele>604</ele>
        <time>2021-08-10T10:33:58.792Z</time>
      </trkpt>
      <trkpt lat="46.93873" lon="8.57672">
        <ele>604</ele>
        <time>2021-08-10T10:33:59.791Z</time>
      </trkpt>
      <trkpt lat="46.93872" lon="8.57671">
        <ele>604</ele>
        <time>2021-08-10T10:34:00.791Z</time>
      </trkpt>
      <trkpt lat="46.93871" lon="8.57671">
        <ele>604</ele>
        <time>2021-08-10T10:34:01.792Z</time>
      </trkpt>
      <trkpt lat="46.9387" lon="8.57671">
        <ele>604</ele>
        <time>2021-08-10T10:34:02.791Z</time>
      </trkpt>
      <trkpt lat="46.9387" lon="8.57671">
        <ele>603</ele>
        <time>2021-08-10T10:34:03.791Z</time>
      </trkpt>
      <trkpt lat="46.93869" lon="8.57671">
        <ele>603</ele>
        <time>2021-08-10T10:34:04.791Z</time>
      </trkpt>
      <trkpt lat="46.93867" lon="8.5767">
        <ele>602</ele>
        <time>2021-08-10T10:34:05.791Z</time>
      </trkpt>
      <trkpt lat="46.93866" lon="8.5767">
        <ele>602</ele>
        <time>2021-08-10T10:34:06.791Z</time>
      </trkpt>
      <trkpt lat="46.93864" lon="8.5767">
        <ele>601</ele>
        <time>2021-08-10T10:34:07.792Z</time>
      </trkpt>
      <trkpt lat="46.93862" lon="8.5767">
        <ele>601</ele>
        <time>2021-08-10T10:34:08.791Z</time>
      </trkpt>
      <trkpt lat="46.93861" lon="8.57671">
        <ele>600</ele>
        <time>2021-08-10T10:34:09.791Z</time>
      </trkpt>
      <trkpt lat="46.9386" lon="8.57671">
        <ele>600</ele>
        <time>2021-08-10T10:34:10.791Z</time>
      </trkpt>
      <trkpt lat="46.9386" lon="8.5767">
        <ele>599</ele>
        <time>2021-08-10T10:34:11.791Z</time>
      </trkpt>
      <trkpt lat="46.9386" lon="8.5767">
        <ele>599</ele>
        <time>2021-08-10T10:34:12.792Z</time>
      </trkpt>
      <trkpt lat="46.9386" lon="8.57668">
        <ele>598</ele>
        <time>2021-08-10T10:34:13.792Z</time>
      </trkpt>
      <trkpt lat="46.93858" lon="8.57667">
        <ele>597</ele>
        <time>2021-08-10T10:34:14.791Z</time>
      </trkpt>
      <trkpt lat="46.93858" lon="8.57667">
        <ele>597</ele>
        <time>2021-08-10T10:34:15.792Z</time>
      </trkpt>
      <trkpt lat="46.93857" lon="8.57666">
        <ele>597</ele>
        <time>2021-08-10T10:34:16.791Z</time>
      </trkpt>
      <trkpt lat="46.93857" lon="8.57666">
        <ele>596</ele>
        <time>2021-08-10T10:34:17.791Z</time>
      </trkpt>
      <trkpt lat="46.93856" lon="8.57665">
        <ele>596</ele>
        <time>2021-08-10T10:34:18.791Z</time>
      </trkpt>
      <trkpt lat="46.93856" lon="8.57665">
        <ele>595</ele>
        <time>2021-08-10T10:34:19.792Z</time>
      </trkpt>
      <trkpt lat="46.93855" lon="8.57664">
        <ele>595</ele>
        <time>2021-08-10T10:34:20.791Z</time>
      </trkpt>
      <trkpt lat="46.93854" lon="8.57664">
        <ele>595</ele>
        <time>2021-08-10T10:34:21.791Z</time>
      </trkpt>
      <trkpt lat="46.93854" lon="8.57663">
        <ele>595</ele>
        <time>2021-08-10T10:34:22.791Z</time>
      </trkpt>
      <trkpt lat="46.93854" lon="8.57663">
        <ele>595</ele>
        <time>2021-08-10T10:34:23.792Z</time>
      </trkpt>
      <trkpt lat="46.93854" lon="8.57663">
        <ele>595</ele>
        <time>2021-08-10T10:34:24.792Z</time>
      </trkpt>
      <trkpt lat="46.93854" lon="8.57662">
        <ele>595</ele>
        <time>2021-08-10T10:34:25.791Z</time>
      </trkpt>
      <trkpt lat="46.93853" lon="8.57663">
        <ele>592</ele>
        <time>2021-08-10T10:34:26.792Z</time>
      </trkpt>
      <trkpt lat="46.93852" lon="8.57662">
        <ele>591</ele>
        <time>2021-08-10T10:34:27.791Z</time>
      </trkpt>
      <trkpt lat="46.93851" lon="8.57661">
        <ele>591</ele>
        <time>2021-08-10T10:34:28.791Z</time>
      </trkpt>
      <trkpt lat="46.93851" lon="8.5766">
        <ele>591</ele>
        <time>2021-08-10T10:34:29.792Z</time>
      </trkpt>
      <trkpt lat="46.9385" lon="8.57659">
        <ele>591</ele>
        <time>2021-08-10T10:34:30.792Z</time>
      </trkpt>
      <trkpt lat="46.93849" lon="8.57657">
        <ele>591</ele>
        <time>2021-08-10T10:34:31.791Z</time>
      </trkpt>
      <trkpt lat="46.93848" lon="8.57656">
        <ele>591</ele>
        <time>2021-08-10T10:34:32.791Z</time>
      </trkpt>
      <trkpt lat="46.93848" lon="8.57654">
        <ele>591</ele>
        <time>2021-08-10T10:34:33.791Z</time>
      </trkpt>
      <trkpt lat="46.93849" lon="8.57653">
        <ele>591</ele>
        <time>2021-08-10T10:34:34.791Z</time>
      </trkpt>
      <trkpt lat="46.93849" lon="8.57651">
        <ele>591</ele>
        <time>2021-08-10T10:34:35.791Z</time>
      </trkpt>
      <trkpt lat="46.93848" lon="8.5765">
        <ele>591</ele>
        <time>2021-08-10T10:34:36.791Z</time>
      </trkpt>
      <trkpt lat="46.93848" lon="8.57649">
        <ele>591</ele>
        <time>2021-08-10T10:34:37.791Z</time>
      </trkpt>
      <trkpt lat="46.93847" lon="8.57648">
        <ele>591</ele>
        <time>2021-08-10T10:34:38.791Z</time>
      </trkpt>
      <trkpt lat="46.93847" lon="8.57646">
        <ele>591</ele>
        <time>2021-08-10T10:34:39.792Z</time>
      </trkpt>
      <trkpt lat="46.93846" lon="8.57645">
        <ele>591</ele>
        <time>2021-08-10T10:34:40.791Z</time>
      </trkpt>
      <trkpt lat="46.93845" lon="8.57643">
        <ele>591</ele>
        <time>2021-08-10T10:34:41.791Z</time>
      </trkpt>
      <trkpt lat="46.93844" lon="8.57642">
        <ele>591</ele>
        <time>2021-08-10T10:34:42.791Z</time>
      </trkpt>
      <trkpt lat="46.93843" lon="8.57641">
        <ele>591</ele>
        <time>2021-08-10T10:34:43.792Z</time>
      </trkpt>
      <trkpt lat="46.93842" lon="8.5764">
        <ele>592</ele>
        <time>2021-08-10T10:34:44.791Z</time>
      </trkpt>
      <trkpt lat="46.93841" lon="8.57639">
        <ele>592</ele>
        <time>2021-08-10T10:34:45.792Z</time>
      </trkpt>
      <trkpt lat="46.93841" lon="8.57638">
        <ele>591</ele>
        <time>2021-08-10T10:34:46.792Z</time>
      </trkpt>
      <trkpt lat="46.9384" lon="8.57637">
        <ele>591</ele>
        <time>2021-08-10T10:34:47.792Z</time>
      </trkpt>
      <trkpt lat="46.93839" lon="8.57636">
        <ele>591</ele>
        <time>2021-08-10T10:34:48.792Z</time>
      </trkpt>
      <trkpt lat="46.93839" lon="8.57636">
        <ele>590</ele>
        <time>2021-08-10T10:34:49.791Z</time>
      </trkpt>
      <trkpt lat="46.93839" lon="8.57636">
        <ele>590</ele>
        <time>2021-08-10T10:34:50.792Z</time>
      </trkpt>
      <trkpt lat="46.93838" lon="8.57637">
        <ele>589</ele>
        <time>2021-08-10T10:34:51.791Z</time>
      </trkpt>
      <trkpt lat="46.93834" lon="8.57635">
        <ele>592</ele>
        <time>2021-08-10T10:34:52.791Z</time>
      </trkpt>
      <trkpt lat="46.93834" lon="8.57634">
        <ele>592</ele>
        <time>2021-08-10T10:34:53.791Z</time>
      </trkpt>
      <trkpt lat="46.93834" lon="8.57632">
        <ele>591</ele>
        <time>2021-08-10T10:34:54.791Z</time>
      </trkpt>
      <trkpt lat="46.93834" lon="8.57631">
        <ele>591</ele>
        <time>2021-08-10T10:34:55.791Z</time>
      </trkpt>
      <trkpt lat="46.93833" lon="8.5763">
        <ele>590</ele>
        <time>2021-08-10T10:34:56.791Z</time>
      </trkpt>
      <trkpt lat="46.93833" lon="8.57629">
        <ele>590</ele>
        <time>2021-08-10T10:34:57.792Z</time>
      </trkpt>
      <trkpt lat="46.93832" lon="8.57628">
        <ele>589</ele>
        <time>2021-08-10T10:34:58.791Z</time>
      </trkpt>
      <trkpt lat="46.93832" lon="8.57627">
        <ele>589</ele>
        <time>2021-08-10T10:34:59.791Z</time>
      </trkpt>
      <trkpt lat="46.93832" lon="8.57626">
        <ele>589</ele>
        <time>2021-08-10T10:35:00.791Z</time>
      </trkpt>
      <trkpt lat="46.93832" lon="8.57625">
        <ele>589</ele>
        <time>2021-08-10T10:35:01.792Z</time>
      </trkpt>
      <trkpt lat="46.93831" lon="8.57624">
        <ele>589</ele>
        <time>2021-08-10T10:35:02.791Z</time>
      </trkpt>
      <trkpt lat="46.9383" lon="8.57623">
        <ele>589</ele>
        <time>2021-08-10T10:35:03.792Z</time>
      </trkpt>
      <trkpt lat="46.9383" lon="8.57623">
        <ele>588</ele>
        <time>2021-08-10T10:35:04.792Z</time>
      </trkpt>
      <trkpt lat="46.9383" lon="8.57621">
        <ele>588</ele>
        <time>2021-08-10T10:35:05.791Z</time>
      </trkpt>
      <trkpt lat="46.93829" lon="8.57619">
        <ele>588</ele>
        <time>2021-08-10T10:35:06.791Z</time>
      </trkpt>
      <trkpt lat="46.93828" lon="8.57618">
        <ele>587</ele>
        <time>2021-08-10T10:35:07.791Z</time>
      </trkpt>
      <trkpt lat="46.93828" lon="8.57618">
        <ele>587</ele>
        <time>2021-08-10T10:35:08.792Z</time>
      </trkpt>
      <trkpt lat="46.93827" lon="8.57617">
        <ele>587</ele>
        <time>2021-08-10T10:35:09.792Z</time>
      </trkpt>
      <trkpt lat="46.93826" lon="8.57616">
        <ele>587</ele>
        <time>2021-08-10T10:35:10.791Z</time>
      </trkpt>
      <trkpt lat="46.93825" lon="8.57615">
        <ele>588</ele>
        <time>2021-08-10T10:35:11.791Z</time>
      </trkpt>
      <trkpt lat="46.93824" lon="8.57614">
        <ele>588</ele>
        <time>2021-08-10T10:35:12.792Z</time>
      </trkpt>
      <trkpt lat="46.93823" lon="8.57613">
        <ele>588</ele>
        <time>2021-08-10T10:35:13.791Z</time>
      </trkpt>
      <trkpt lat="46.93823" lon="8.57611">
        <ele>588</ele>
        <time>2021-08-10T10:35:14.791Z</time>
      </trkpt>
      <trkpt lat="46.93822" lon="8.5761">
        <ele>588</ele>
        <time>2021-08-10T10:35:15.791Z</time>
      </trkpt>
      <trkpt lat="46.93821" lon="8.57609">
        <ele>588</ele>
        <time>2021-08-10T10:35:16.791Z</time>
      </trkpt>
      <trkpt lat="46.93821" lon="8.57607">
        <ele>588</ele>
        <time>2021-08-10T10:35:17.791Z</time>
      </trkpt>
      <trkpt lat="46.9382" lon="8.57606">
        <ele>588</ele>
        <time>2021-08-10T10:35:18.791Z</time>
      </trkpt>
      <trkpt lat="46.9382" lon="8.57603">
        <ele>588</ele>
        <time>2021-08-10T10:35:19.792Z</time>
      </trkpt>
      <trkpt lat="46.93819" lon="8.57602">
        <ele>588</ele>
        <time>2021-08-10T10:35:20.791Z</time>
      </trkpt>
      <trkpt lat="46.93818" lon="8.576">
        <ele>588</ele>
        <time>2021-08-10T10:35:21.791Z</time>
      </trkpt>
      <trkpt lat="46.93817" lon="8.57599">
        <ele>588</ele>
        <time>2021-08-10T10:35:22.791Z</time>
      </trkpt>
      <trkpt lat="46.93817" lon="8.57598">
        <ele>589</ele>
        <time>2021-08-10T10:35:23.791Z</time>
      </trkpt>
      <trkpt lat="46.93816" lon="8.57597">
        <ele>589</ele>
        <time>2021-08-10T10:35:24.792Z</time>
      </trkpt>
      <trkpt lat="46.93816" lon="8.57596">
        <ele>590</ele>
        <time>2021-08-10T10:35:25.791Z</time>
      </trkpt>
      <trkpt lat="46.93816" lon="8.57594">
        <ele>590</ele>
        <time>2021-08-10T10:35:26.792Z</time>
      </trkpt>
      <trkpt lat="46.93816" lon="8.57593">
        <ele>590</ele>
        <time>2021-08-10T10:35:27.791Z</time>
      </trkpt>
      <trkpt lat="46.93816" lon="8.57591">
        <ele>590</ele>
        <time>2021-08-10T10:35:28.791Z</time>
      </trkpt>
      <trkpt lat="46.93816" lon="8.57589">
        <ele>590</ele>
        <time>2021-08-10T10:35:29.792Z</time>
      </trkpt>
      <trkpt lat="46.93816" lon="8.57588">
        <ele>591</ele>
        <time>2021-08-10T10:35:30.792Z</time>
      </trkpt>
      <trkpt lat="46.93816" lon="8.57586">
        <ele>592</ele>
        <time>2021-08-10T10:35:31.792Z</time>
      </trkpt>
      <trkpt lat="46.93816" lon="8.57585">
        <ele>592</ele>
        <time>2021-08-10T10:35:32.792Z</time>
      </trkpt>
      <trkpt lat="46.93815" lon="8.57585">
        <ele>593</ele>
        <time>2021-08-10T10:35:33.792Z</time>
      </trkpt>
      <trkpt lat="46.93816" lon="8.57584">
        <ele>594</ele>
        <time>2021-08-10T10:35:34.792Z</time>
      </trkpt>
      <trkpt lat="46.93816" lon="8.57582">
        <ele>594</ele>
        <time>2021-08-10T10:35:35.792Z</time>
      </trkpt>
      <trkpt lat="46.93815" lon="8.5758">
        <ele>595</ele>
        <time>2021-08-10T10:35:36.791Z</time>
      </trkpt>
      <trkpt lat="46.93815" lon="8.57578">
        <ele>596</ele>
        <time>2021-08-10T10:35:37.792Z</time>
      </trkpt>
      <trkpt lat="46.93814" lon="8.57577">
        <ele>596</ele>
        <time>2021-08-10T10:35:38.792Z</time>
      </trkpt>
      <trkpt lat="46.93814" lon="8.57575">
        <ele>597</ele>
        <time>2021-08-10T10:35:39.792Z</time>
      </trkpt>
      <trkpt lat="46.93813" lon="8.57575">
        <ele>598</ele>
        <time>2021-08-10T10:35:40.791Z</time>
      </trkpt>
      <trkpt lat="46.93813" lon="8.57574">
        <ele>598</ele>
        <time>2021-08-10T10:35:41.791Z</time>
      </trkpt>
      <trkpt lat="46.93813" lon="8.57574">
        <ele>599</ele>
        <time>2021-08-10T10:35:42.791Z</time>
      </trkpt>
      <trkpt lat="46.93812" lon="8.57573">
        <ele>599</ele>
        <time>2021-08-10T10:35:43.791Z</time>
      </trkpt>
      <trkpt lat="46.93811" lon="8.57574">
        <ele>599</ele>
        <time>2021-08-10T10:35:44.791Z</time>
      </trkpt>
      <trkpt lat="46.9381" lon="8.57573">
        <ele>599</ele>
        <time>2021-08-10T10:35:45.792Z</time>
      </trkpt>
      <trkpt lat="46.93809" lon="8.57573">
        <ele>599</ele>
        <time>2021-08-10T10:35:46.791Z</time>
      </trkpt>
      <trkpt lat="46.93807" lon="8.57574">
        <ele>599</ele>
        <time>2021-08-10T10:35:47.792Z</time>
      </trkpt>
      <trkpt lat="46.93806" lon="8.57574">
        <ele>599</ele>
        <time>2021-08-10T10:35:48.791Z</time>
      </trkpt>
      <trkpt lat="46.93805" lon="8.57573">
        <ele>599</ele>
        <time>2021-08-10T10:35:49.791Z</time>
      </trkpt>
      <trkpt lat="46.93804" lon="8.57573">
        <ele>599</ele>
        <time>2021-08-10T10:35:50.791Z</time>
      </trkpt>
      <trkpt lat="46.93803" lon="8.57572">
        <ele>599</ele>
        <time>2021-08-10T10:35:51.792Z</time>
      </trkpt>
      <trkpt lat="46.93803" lon="8.57572">
        <ele>598</ele>
        <time>2021-08-10T10:35:52.791Z</time>
      </trkpt>
      <trkpt lat="46.93802" lon="8.57571">
        <ele>598</ele>
        <time>2021-08-10T10:35:53.791Z</time>
      </trkpt>
      <trkpt lat="46.93802" lon="8.5757">
        <ele>599</ele>
        <time>2021-08-10T10:35:54.791Z</time>
      </trkpt>
      <trkpt lat="46.93802" lon="8.57569">
        <ele>599</ele>
        <time>2021-08-10T10:35:55.791Z</time>
      </trkpt>
      <trkpt lat="46.93801" lon="8.57569">
        <ele>599</ele>
        <time>2021-08-10T10:35:56.791Z</time>
      </trkpt>
      <trkpt lat="46.93801" lon="8.57568">
        <ele>599</ele>
        <time>2021-08-10T10:35:57.792Z</time>
      </trkpt>
      <trkpt lat="46.93801" lon="8.57568">
        <ele>599</ele>
        <time>2021-08-10T10:35:58.792Z</time>
      </trkpt>
      <trkpt lat="46.938" lon="8.57567">
        <ele>601</ele>
        <time>2021-08-10T10:35:59.792Z</time>
      </trkpt>
      <trkpt lat="46.938" lon="8.57567">
        <ele>601</ele>
        <time>2021-08-10T10:36:00.792Z</time>
      </trkpt>
      <trkpt lat="46.938" lon="8.57566">
        <ele>602</ele>
        <time>2021-08-10T10:36:01.791Z</time>
      </trkpt>
      <trkpt lat="46.93799" lon="8.57566">
        <ele>602</ele>
        <time>2021-08-10T10:36:02.792Z</time>
      </trkpt>
      <trkpt lat="46.93799" lon="8.57565">
        <ele>603</ele>
        <time>2021-08-10T10:36:03.792Z</time>
      </trkpt>
      <trkpt lat="46.93798" lon="8.57565">
        <ele>603</ele>
        <time>2021-08-10T10:36:04.792Z</time>
      </trkpt>
      <trkpt lat="46.93797" lon="8.57565">
        <ele>602</ele>
        <time>2021-08-10T10:36:05.792Z</time>
      </trkpt>
      <trkpt lat="46.93797" lon="8.57566">
        <ele>602</ele>
        <time>2021-08-10T10:36:06.792Z</time>
      </trkpt>
      <trkpt lat="46.93797" lon="8.57565">
        <ele>602</ele>
        <time>2021-08-10T10:36:07.792Z</time>
      </trkpt>
      <trkpt lat="46.93796" lon="8.57564">
        <ele>602</ele>
        <time>2021-08-10T10:36:08.792Z</time>
      </trkpt>
      <trkpt lat="46.93796" lon="8.57563">
        <ele>602</ele>
        <time>2021-08-10T10:36:09.792Z</time>
      </trkpt>
      <trkpt lat="46.93795" lon="8.57562">
        <ele>601</ele>
        <time>2021-08-10T10:36:10.792Z</time>
      </trkpt>
      <trkpt lat="46.93795" lon="8.5756">
        <ele>601</ele>
        <time>2021-08-10T10:36:11.791Z</time>
      </trkpt>
      <trkpt lat="46.93796" lon="8.57558">
        <ele>601</ele>
        <time>2021-08-10T10:36:12.791Z</time>
      </trkpt>
      <trkpt lat="46.93796" lon="8.57557">
        <ele>601</ele>
        <time>2021-08-10T10:36:13.791Z</time>
      </trkpt>
      <trkpt lat="46.93795" lon="8.57557">
        <ele>600</ele>
        <time>2021-08-10T10:36:14.791Z</time>
      </trkpt>
      <trkpt lat="46.93795" lon="8.57557">
        <ele>600</ele>
        <time>2021-08-10T10:36:15.792Z</time>
      </trkpt>
      <trkpt lat="46.93795" lon="8.57556">
        <ele>599</ele>
        <time>2021-08-10T10:36:16.792Z</time>
      </trkpt>
      <trkpt lat="46.93795" lon="8.57554">
        <ele>599</ele>
        <time>2021-08-10T10:36:17.792Z</time>
      </trkpt>
      <trkpt lat="46.93795" lon="8.57554">
        <ele>599</ele>
        <time>2021-08-10T10:36:18.792Z</time>
      </trkpt>
      <trkpt lat="46.93794" lon="8.57553">
        <ele>599</ele>
        <time>2021-08-10T10:36:19.791Z</time>
      </trkpt>
      <trkpt lat="46.93793" lon="8.57552">
        <ele>599</ele>
        <time>2021-08-10T10:36:20.791Z</time>
      </trkpt>
      <trkpt lat="46.93792" lon="8.57551">
        <ele>599</ele>
        <time>2021-08-10T10:36:21.792Z</time>
      </trkpt>
      <trkpt lat="46.93791" lon="8.57551">
        <ele>599</ele>
        <time>2021-08-10T10:36:22.792Z</time>
      </trkpt>
      <trkpt lat="46.9379" lon="8.57551">
        <ele>600</ele>
        <time>2021-08-10T10:36:23.792Z</time>
      </trkpt>
      <trkpt lat="46.93789" lon="8.5755">
        <ele>599</ele>
        <time>2021-08-10T10:36:24.792Z</time>
      </trkpt>
      <trkpt lat="46.93788" lon="8.5755">
        <ele>599</ele>
        <time>2021-08-10T10:36:25.792Z</time>
      </trkpt>
      <trkpt lat="46.93787" lon="8.5755">
        <ele>599</ele>
        <time>2021-08-10T10:36:26.792Z</time>
      </trkpt>
      <trkpt lat="46.93786" lon="8.5755">
        <ele>599</ele>
        <time>2021-08-10T10:36:27.791Z</time>
      </trkpt>
      <trkpt lat="46.93785" lon="8.57549">
        <ele>600</ele>
        <time>2021-08-10T10:36:28.791Z</time>
      </trkpt>
      <trkpt lat="46.93784" lon="8.57549">
        <ele>600</ele>
        <time>2021-08-10T10:36:29.792Z</time>
      </trkpt>
      <trkpt lat="46.93784" lon="8.57549">
        <ele>600</ele>
        <time>2021-08-10T10:36:30.792Z</time>
      </trkpt>
      <trkpt lat="46.93783" lon="8.57548">
        <ele>600</ele>
        <time>2021-08-10T10:36:31.792Z</time>
      </trkpt>
      <trkpt lat="46.93782" lon="8.57548">
        <ele>600</ele>
        <time>2021-08-10T10:36:32.791Z</time>
      </trkpt>
      <trkpt lat="46.93782" lon="8.57548">
        <ele>600</ele>
        <time>2021-08-10T10:36:33.792Z</time>
      </trkpt>
      <trkpt lat="46.93781" lon="8.57548">
        <ele>600</ele>
        <time>2021-08-10T10:36:34.792Z</time>
      </trkpt>
      <trkpt lat="46.9378" lon="8.57548">
        <ele>600</ele>
        <time>2021-08-10T10:36:35.792Z</time>
      </trkpt>
      <trkpt lat="46.93779" lon="8.57548">
        <ele>600</ele>
        <time>2021-08-10T10:36:36.792Z</time>
      </trkpt>
      <trkpt lat="46.93778" lon="8.57548">
        <ele>600</ele>
        <time>2021-08-10T10:36:37.792Z</time>
      </trkpt>
      <trkpt lat="46.93777" lon="8.57548">
        <ele>600</ele>
        <time>2021-08-10T10:36:38.792Z</time>
      </trkpt>
      <trkpt lat="46.93776" lon="8.57548">
        <ele>600</ele>
        <time>2021-08-10T10:36:39.791Z</time>
      </trkpt>
      <trkpt lat="46.93776" lon="8.57548">
        <ele>600</ele>
        <time>2021-08-10T10:36:40.791Z</time>
      </trkpt>
      <trkpt lat="46.93776" lon="8.57549">
        <ele>600</ele>
        <time>2021-08-10T10:36:41.792Z</time>
      </trkpt>
      <trkpt lat="46.93776" lon="8.57549">
        <ele>600</ele>
        <time>2021-08-10T10:36:42.791Z</time>
      </trkpt>
      <trkpt lat="46.93774" lon="8.57549">
        <ele>599</ele>
        <time>2021-08-10T10:36:43.792Z</time>
      </trkpt>
      <trkpt lat="46.93774" lon="8.57548">
        <ele>599</ele>
        <time>2021-08-10T10:36:44.792Z</time>
      </trkpt>
      <trkpt lat="46.93773" lon="8.57548">
        <ele>599</ele>
        <time>2021-08-10T10:36:45.791Z</time>
      </trkpt>
      <trkpt lat="46.93772" lon="8.57547">
        <ele>599</ele>
        <time>2021-08-10T10:36:46.792Z</time>
      </trkpt>
      <trkpt lat="46.93771" lon="8.57546">
        <ele>599</ele>
        <time>2021-08-10T10:36:47.792Z</time>
      </trkpt>
      <trkpt lat="46.93769" lon="8.57546">
        <ele>599</ele>
        <time>2021-08-10T10:36:48.792Z</time>
      </trkpt>
      <trkpt lat="46.93768" lon="8.57546">
        <ele>599</ele>
        <time>2021-08-10T10:36:49.792Z</time>
      </trkpt>
      <trkpt lat="46.93767" lon="8.57546">
        <ele>599</ele>
        <time>2021-08-10T10:36:50.792Z</time>
      </trkpt>
      <trkpt lat="46.93766" lon="8.57545">
        <ele>599</ele>
        <time>2021-08-10T10:36:51.792Z</time>
      </trkpt>
      <trkpt lat="46.93765" lon="8.57544">
        <ele>598</ele>
        <time>2021-08-10T10:36:52.791Z</time>
      </trkpt>
      <trkpt lat="46.93763" lon="8.57543">
        <ele>598</ele>
        <time>2021-08-10T10:36:53.792Z</time>
      </trkpt>
      <trkpt lat="46.93762" lon="8.57543">
        <ele>597</ele>
        <time>2021-08-10T10:36:54.792Z</time>
      </trkpt>
      <trkpt lat="46.9376" lon="8.57543">
        <ele>596</ele>
        <time>2021-08-10T10:36:55.792Z</time>
      </trkpt>
      <trkpt lat="46.93759" lon="8.57542">
        <ele>595</ele>
        <time>2021-08-10T10:36:56.792Z</time>
      </trkpt>
      <trkpt lat="46.93758" lon="8.57541">
        <ele>594</ele>
        <time>2021-08-10T10:36:57.791Z</time>
      </trkpt>
      <trkpt lat="46.93756" lon="8.57541">
        <ele>593</ele>
        <time>2021-08-10T10:36:58.791Z</time>
      </trkpt>
      <trkpt lat="46.93755" lon="8.5754">
        <ele>592</ele>
        <time>2021-08-10T10:36:59.791Z</time>
      </trkpt>
      <trkpt lat="46.93754" lon="8.5754">
        <ele>591</ele>
        <time>2021-08-10T10:37:00.791Z</time>
      </trkpt>
      <trkpt lat="46.93753" lon="8.5754">
        <ele>591</ele>
        <time>2021-08-10T10:37:01.792Z</time>
      </trkpt>
      <trkpt lat="46.93753" lon="8.57539">
        <ele>590</ele>
        <time>2021-08-10T10:37:02.792Z</time>
      </trkpt>
      <trkpt lat="46.93752" lon="8.57539">
        <ele>590</ele>
        <time>2021-08-10T10:37:03.792Z</time>
      </trkpt>
      <trkpt lat="46.93751" lon="8.57538">
        <ele>590</ele>
        <time>2021-08-10T10:37:04.792Z</time>
      </trkpt>
      <trkpt lat="46.9375" lon="8.57538">
        <ele>590</ele>
        <time>2021-08-10T10:37:05.793Z</time>
      </trkpt>
      <trkpt lat="46.9375" lon="8.57538">
        <ele>590</ele>
        <time>2021-08-10T10:37:06.792Z</time>
      </trkpt>
      <trkpt lat="46.93749" lon="8.57538">
        <ele>591</ele>
        <time>2021-08-10T10:37:07.793Z</time>
      </trkpt>
      <trkpt lat="46.93749" lon="8.57538">
        <ele>591</ele>
        <time>2021-08-10T10:37:08.793Z</time>
      </trkpt>
      <trkpt lat="46.93749" lon="8.57538">
        <ele>591</ele>
        <time>2021-08-10T10:37:09.792Z</time>
      </trkpt>
      <trkpt lat="46.93748" lon="8.57538">
        <ele>592</ele>
        <time>2021-08-10T10:37:10.793Z</time>
      </trkpt>
      <trkpt lat="46.93748" lon="8.57538">
        <ele>592</ele>
        <time>2021-08-10T10:37:11.792Z</time>
      </trkpt>
      <trkpt lat="46.93747" lon="8.57537">
        <ele>592</ele>
        <time>2021-08-10T10:37:12.792Z</time>
      </trkpt>
      <trkpt lat="46.93747" lon="8.57537">
        <ele>592</ele>
        <time>2021-08-10T10:37:13.793Z</time>
      </trkpt>
      <trkpt lat="46.93746" lon="8.57537">
        <ele>593</ele>
        <time>2021-08-10T10:37:14.792Z</time>
      </trkpt>
      <trkpt lat="46.93746" lon="8.57536">
        <ele>593</ele>
        <time>2021-08-10T10:37:15.793Z</time>
      </trkpt>
      <trkpt lat="46.93746" lon="8.57535">
        <ele>593</ele>
        <time>2021-08-10T10:37:16.793Z</time>
      </trkpt>
      <trkpt lat="46.93747" lon="8.57535">
        <ele>593</ele>
        <time>2021-08-10T10:37:17.793Z</time>
      </trkpt>
      <trkpt lat="46.93746" lon="8.57534">
        <ele>593</ele>
        <time>2021-08-10T10:37:18.792Z</time>
      </trkpt>
      <trkpt lat="46.93744" lon="8.57536">
        <ele>593</ele>
        <time>2021-08-10T10:37:19.793Z</time>
      </trkpt>
      <trkpt lat="46.93743" lon="8.57538">
        <ele>594</ele>
        <time>2021-08-10T10:37:20.793Z</time>
      </trkpt>
      <trkpt lat="46.93741" lon="8.57538">
        <ele>594</ele>
        <time>2021-08-10T10:37:21.792Z</time>
      </trkpt>
      <trkpt lat="46.93741" lon="8.57539">
        <ele>595</ele>
        <time>2021-08-10T10:37:22.793Z</time>
      </trkpt>
      <trkpt lat="46.9374" lon="8.57539">
        <ele>596</ele>
        <time>2021-08-10T10:37:23.793Z</time>
      </trkpt>
      <trkpt lat="46.93739" lon="8.57539">
        <ele>596</ele>
        <time>2021-08-10T10:37:24.793Z</time>
      </trkpt>
      <trkpt lat="46.93738" lon="8.57539">
        <ele>596</ele>
        <time>2021-08-10T10:37:25.793Z</time>
      </trkpt>
      <trkpt lat="46.93737" lon="8.57539">
        <ele>596</ele>
        <time>2021-08-10T10:37:26.793Z</time>
      </trkpt>
      <trkpt lat="46.93736" lon="8.57539">
        <ele>596</ele>
        <time>2021-08-10T10:37:27.792Z</time>
      </trkpt>
      <trkpt lat="46.93736" lon="8.57539">
        <ele>596</ele>
        <time>2021-08-10T10:37:28.793Z</time>
      </trkpt>
      <trkpt lat="46.93736" lon="8.57539">
        <ele>596</ele>
        <time>2021-08-10T10:37:29.793Z</time>
      </trkpt>
      <trkpt lat="46.93736" lon="8.57538">
        <ele>597</ele>
        <time>2021-08-10T10:37:30.792Z</time>
      </trkpt>
      <trkpt lat="46.93736" lon="8.57537">
        <ele>597</ele>
        <time>2021-08-10T10:37:31.792Z</time>
      </trkpt>
      <trkpt lat="46.93736" lon="8.57537">
        <ele>597</ele>
        <time>2021-08-10T10:37:32.793Z</time>
      </trkpt>
      <trkpt lat="46.93736" lon="8.57537">
        <ele>597</ele>
        <time>2021-08-10T10:37:33.792Z</time>
      </trkpt>
      <trkpt lat="46.93735" lon="8.57537">
        <ele>597</ele>
        <time>2021-08-10T10:37:34.795Z</time>
      </trkpt>
      <trkpt lat="46.93734" lon="8.57537">
        <ele>597</ele>
        <time>2021-08-10T10:37:35.794Z</time>
      </trkpt>
      <trkpt lat="46.93734" lon="8.57536">
        <ele>597</ele>
        <time>2021-08-10T10:37:36.794Z</time>
      </trkpt>
      <trkpt lat="46.93733" lon="8.57536">
        <ele>597</ele>
        <time>2021-08-10T10:37:37.794Z</time>
      </trkpt>
      <trkpt lat="46.93733" lon="8.57536">
        <ele>597</ele>
        <time>2021-08-10T10:37:38.795Z</time>
      </trkpt>
      <trkpt lat="46.93733" lon="8.57535">
        <ele>597</ele>
        <time>2021-08-10T10:37:39.795Z</time>
      </trkpt>
      <trkpt lat="46.93732" lon="8.57535">
        <ele>596</ele>
        <time>2021-08-10T10:37:40.795Z</time>
      </trkpt>
      <trkpt lat="46.93732" lon="8.57535">
        <ele>596</ele>
        <time>2021-08-10T10:37:41.794Z</time>
      </trkpt>
      <trkpt lat="46.93732" lon="8.57536">
        <ele>596</ele>
        <time>2021-08-10T10:37:42.795Z</time>
      </trkpt>
      <trkpt lat="46.93731" lon="8.57538">
        <ele>596</ele>
        <time>2021-08-10T10:37:43.795Z</time>
      </trkpt>
      <trkpt lat="46.9373" lon="8.57539">
        <ele>596</ele>
        <time>2021-08-10T10:37:44.795Z</time>
      </trkpt>
      <trkpt lat="46.93728" lon="8.5754">
        <ele>596</ele>
        <time>2021-08-10T10:37:45.795Z</time>
      </trkpt>
      <trkpt lat="46.93727" lon="8.57539">
        <ele>596</ele>
        <time>2021-08-10T10:37:46.795Z</time>
      </trkpt>
      <trkpt lat="46.93727" lon="8.57539">
        <ele>595</ele>
        <time>2021-08-10T10:37:47.794Z</time>
      </trkpt>
      <trkpt lat="46.93727" lon="8.57537">
        <ele>595</ele>
        <time>2021-08-10T10:37:48.794Z</time>
      </trkpt>
      <trkpt lat="46.93727" lon="8.57534">
        <ele>595</ele>
        <time>2021-08-10T10:37:49.795Z</time>
      </trkpt>
      <trkpt lat="46.93727" lon="8.57532">
        <ele>594</ele>
        <time>2021-08-10T10:37:50.795Z</time>
      </trkpt>
      <trkpt lat="46.93726" lon="8.57532">
        <ele>594</ele>
        <time>2021-08-10T10:37:51.794Z</time>
      </trkpt>
      <trkpt lat="46.93725" lon="8.5753">
        <ele>593</ele>
        <time>2021-08-10T10:37:52.795Z</time>
      </trkpt>
      <trkpt lat="46.93724" lon="8.5753">
        <ele>593</ele>
        <time>2021-08-10T10:37:53.794Z</time>
      </trkpt>
      <trkpt lat="46.93723" lon="8.5753">
        <ele>593</ele>
        <time>2021-08-10T10:37:54.794Z</time>
      </trkpt>
      <trkpt lat="46.93723" lon="8.57531">
        <ele>593</ele>
        <time>2021-08-10T10:37:55.795Z</time>
      </trkpt>
      <trkpt lat="46.93723" lon="8.57532">
        <ele>593</ele>
        <time>2021-08-10T10:37:56.794Z</time>
      </trkpt>
      <trkpt lat="46.93723" lon="8.57533">
        <ele>594</ele>
        <time>2021-08-10T10:37:57.795Z</time>
      </trkpt>
      <trkpt lat="46.93722" lon="8.57533">
        <ele>594</ele>
        <time>2021-08-10T10:37:58.795Z</time>
      </trkpt>
      <trkpt lat="46.93721" lon="8.57534">
        <ele>594</ele>
        <time>2021-08-10T10:37:59.795Z</time>
      </trkpt>
      <trkpt lat="46.93721" lon="8.57533">
        <ele>595</ele>
        <time>2021-08-10T10:38:00.794Z</time>
      </trkpt>
      <trkpt lat="46.93721" lon="8.57533">
        <ele>595</ele>
        <time>2021-08-10T10:38:01.794Z</time>
      </trkpt>
      <trkpt lat="46.93721" lon="8.57532">
        <ele>595</ele>
        <time>2021-08-10T10:38:02.795Z</time>
      </trkpt>
      <trkpt lat="46.93721" lon="8.57531">
        <ele>595</ele>
        <time>2021-08-10T10:38:03.794Z</time>
      </trkpt>
      <trkpt lat="46.93719" lon="8.57531">
        <ele>595</ele>
        <time>2021-08-10T10:38:04.794Z</time>
      </trkpt>
      <trkpt lat="46.93718" lon="8.57531">
        <ele>595</ele>
        <time>2021-08-10T10:38:05.795Z</time>
      </trkpt>
      <trkpt lat="46.93717" lon="8.57532">
        <ele>595</ele>
        <time>2021-08-10T10:38:06.794Z</time>
      </trkpt>
      <trkpt lat="46.93716" lon="8.57532">
        <ele>594</ele>
        <time>2021-08-10T10:38:07.794Z</time>
      </trkpt>
      <trkpt lat="46.93715" lon="8.57533">
        <ele>594</ele>
        <time>2021-08-10T10:38:08.795Z</time>
      </trkpt>
      <trkpt lat="46.93715" lon="8.57534">
        <ele>594</ele>
        <time>2021-08-10T10:38:09.795Z</time>
      </trkpt>
      <trkpt lat="46.93715" lon="8.57536">
        <ele>593</ele>
        <time>2021-08-10T10:38:10.795Z</time>
      </trkpt>
      <trkpt lat="46.93714" lon="8.57537">
        <ele>593</ele>
        <time>2021-08-10T10:38:11.795Z</time>
      </trkpt>
      <trkpt lat="46.93714" lon="8.57538">
        <ele>593</ele>
        <time>2021-08-10T10:38:12.795Z</time>
      </trkpt>
      <trkpt lat="46.93713" lon="8.57538">
        <ele>592</ele>
        <time>2021-08-10T10:38:13.795Z</time>
      </trkpt>
      <trkpt lat="46.93712" lon="8.57538">
        <ele>592</ele>
        <time>2021-08-10T10:38:14.795Z</time>
      </trkpt>
      <trkpt lat="46.93712" lon="8.57539">
        <ele>591</ele>
        <time>2021-08-10T10:38:15.794Z</time>
      </trkpt>
      <trkpt lat="46.9371" lon="8.57539">
        <ele>591</ele>
        <time>2021-08-10T10:38:16.795Z</time>
      </trkpt>
      <trkpt lat="46.93709" lon="8.5754">
        <ele>590</ele>
        <time>2021-08-10T10:38:17.795Z</time>
      </trkpt>
      <trkpt lat="46.93708" lon="8.57541">
        <ele>590</ele>
        <time>2021-08-10T10:38:18.795Z</time>
      </trkpt>
      <trkpt lat="46.93708" lon="8.57542">
        <ele>589</ele>
        <time>2021-08-10T10:38:19.795Z</time>
      </trkpt>
      <trkpt lat="46.93708" lon="8.57543">
        <ele>589</ele>
        <time>2021-08-10T10:38:20.795Z</time>
      </trkpt>
      <trkpt lat="46.93707" lon="8.57544">
        <ele>589</ele>
        <time>2021-08-10T10:38:21.795Z</time>
      </trkpt>
      <trkpt lat="46.93707" lon="8.57546">
        <ele>588</ele>
        <time>2021-08-10T10:38:22.795Z</time>
      </trkpt>
      <trkpt lat="46.93707" lon="8.57547">
        <ele>588</ele>
        <time>2021-08-10T10:38:23.795Z</time>
      </trkpt>
      <trkpt lat="46.93706" lon="8.57549">
        <ele>588</ele>
        <time>2021-08-10T10:38:24.795Z</time>
      </trkpt>
      <trkpt lat="46.93706" lon="8.5755">
        <ele>587</ele>
        <time>2021-08-10T10:38:25.795Z</time>
      </trkpt>
      <trkpt lat="46.93705" lon="8.57551">
        <ele>586</ele>
        <time>2021-08-10T10:38:26.794Z</time>
      </trkpt>
      <trkpt lat="46.93705" lon="8.57551">
        <ele>585</ele>
        <time>2021-08-10T10:38:27.795Z</time>
      </trkpt>
      <trkpt lat="46.93703" lon="8.57553">
        <ele>580</ele>
        <time>2021-08-10T10:38:28.796Z</time>
      </trkpt>
      <trkpt lat="46.937" lon="8.57553">
        <ele>581</ele>
        <time>2021-08-10T10:38:29.796Z</time>
      </trkpt>
      <trkpt lat="46.937" lon="8.57554">
        <ele>581</ele>
        <time>2021-08-10T10:38:30.796Z</time>
      </trkpt>
      <trkpt lat="46.93699" lon="8.57554">
        <ele>581</ele>
        <time>2021-08-10T10:38:31.796Z</time>
      </trkpt>
      <trkpt lat="46.93699" lon="8.57554">
        <ele>581</ele>
        <time>2021-08-10T10:38:32.796Z</time>
      </trkpt>
      <trkpt lat="46.93698" lon="8.57554">
        <ele>581</ele>
        <time>2021-08-10T10:38:33.797Z</time>
      </trkpt>
      <trkpt lat="46.93698" lon="8.57554">
        <ele>581</ele>
        <time>2021-08-10T10:38:34.797Z</time>
      </trkpt>
      <trkpt lat="46.93697" lon="8.57554">
        <ele>581</ele>
        <time>2021-08-10T10:38:35.796Z</time>
      </trkpt>
      <trkpt lat="46.93697" lon="8.57554">
        <ele>582</ele>
        <time>2021-08-10T10:38:36.796Z</time>
      </trkpt>
      <trkpt lat="46.93696" lon="8.57551">
        <ele>581</ele>
        <time>2021-08-10T10:38:40.796Z</time>
      </trkpt>
      <trkpt lat="46.93696" lon="8.5755">
        <ele>581</ele>
        <time>2021-08-10T10:38:41.797Z</time>
      </trkpt>
      <trkpt lat="46.93697" lon="8.57551">
        <ele>581</ele>
        <time>2021-08-10T10:38:42.796Z</time>
      </trkpt>
      <trkpt lat="46.93699" lon="8.57552">
        <ele>581</ele>
        <time>2021-08-10T10:38:43.797Z</time>
      </trkpt>
      <trkpt lat="46.93698" lon="8.57552">
        <ele>581</ele>
        <time>2021-08-10T10:38:44.797Z</time>
      </trkpt>
      <trkpt lat="46.93698" lon="8.57552">
        <ele>580</ele>
        <time>2021-08-10T10:38:45.797Z</time>
      </trkpt>
      <trkpt lat="46.93698" lon="8.57551">
        <ele>580</ele>
        <time>2021-08-10T10:38:46.796Z</time>
      </trkpt>
      <trkpt lat="46.93699" lon="8.57548">
        <ele>580</ele>
        <time>2021-08-10T10:38:47.797Z</time>
      </trkpt>
      <trkpt lat="46.93699" lon="8.57546">
        <ele>580</ele>
        <time>2021-08-10T10:38:48.796Z</time>
      </trkpt>
      <trkpt lat="46.93698" lon="8.57545">
        <ele>579</ele>
        <time>2021-08-10T10:38:49.796Z</time>
      </trkpt>
      <trkpt lat="46.93697" lon="8.57545">
        <ele>579</ele>
        <time>2021-08-10T10:38:50.796Z</time>
      </trkpt>
      <trkpt lat="46.93696" lon="8.57544">
        <ele>578</ele>
        <time>2021-08-10T10:38:51.796Z</time>
      </trkpt>
      <trkpt lat="46.93696" lon="8.57544">
        <ele>577</ele>
        <time>2021-08-10T10:38:52.797Z</time>
      </trkpt>
      <trkpt lat="46.93697" lon="8.57543">
        <ele>577</ele>
        <time>2021-08-10T10:38:53.796Z</time>
      </trkpt>
      <trkpt lat="46.93697" lon="8.57544">
        <ele>576</ele>
        <time>2021-08-10T10:38:54.797Z</time>
      </trkpt>
      <trkpt lat="46.93698" lon="8.57544">
        <ele>577</ele>
        <time>2021-08-10T10:38:55.797Z</time>
      </trkpt>
      <trkpt lat="46.93698" lon="8.57544">
        <ele>577</ele>
        <time>2021-08-10T10:38:56.797Z</time>
      </trkpt>
      <trkpt lat="46.93698" lon="8.57544">
        <ele>577</ele>
        <time>2021-08-10T10:38:57.796Z</time>
      </trkpt>
      <trkpt lat="46.93698" lon="8.57544">
        <ele>577</ele>
        <time>2021-08-10T10:38:58.796Z</time>
      </trkpt>
      <trkpt lat="46.93698" lon="8.57544">
        <ele>577</ele>
        <time>2021-08-10T10:38:59.796Z</time>
      </trkpt>
      <trkpt lat="46.93698" lon="8.57544">
        <ele>578</ele>
        <time>2021-08-10T10:39:00.797Z</time>
      </trkpt>
      <trkpt lat="46.93698" lon="8.57543">
        <ele>577</ele>
        <time>2021-08-10T10:39:01.798Z</time>
      </trkpt>
      <trkpt lat="46.93698" lon="8.57543">
        <ele>577</ele>
        <time>2021-08-10T10:39:02.798Z</time>
      </trkpt>
      <trkpt lat="46.93697" lon="8.57543">
        <ele>577</ele>
        <time>2021-08-10T10:39:03.798Z</time>
      </trkpt>
      <trkpt lat="46.93697" lon="8.57543">
        <ele>577</ele>
        <time>2021-08-10T10:39:04.798Z</time>
      </trkpt>
      <trkpt lat="46.93696" lon="8.57544">
        <ele>576</ele>
        <time>2021-08-10T10:39:05.797Z</time>
      </trkpt>
      <trkpt lat="46.93697" lon="8.57545">
        <ele>576</ele>
        <time>2021-08-10T10:39:06.797Z</time>
      </trkpt>
      <trkpt lat="46.93697" lon="8.57545">
        <ele>576</ele>
        <time>2021-08-10T10:39:07.797Z</time>
      </trkpt>
      <trkpt lat="46.93697" lon="8.57546">
        <ele>576</ele>
        <time>2021-08-10T10:39:08.797Z</time>
      </trkpt>
      <trkpt lat="46.93696" lon="8.57547">
        <ele>576</ele>
        <time>2021-08-10T10:39:09.798Z</time>
      </trkpt>
      <trkpt lat="46.93696" lon="8.57548">
        <ele>576</ele>
        <time>2021-08-10T10:39:10.798Z</time>
      </trkpt>
      <trkpt lat="46.93695" lon="8.57548">
        <ele>575</ele>
        <time>2021-08-10T10:39:11.797Z</time>
      </trkpt>
      <trkpt lat="46.93695" lon="8.57548">
        <ele>575</ele>
        <time>2021-08-10T10:39:12.798Z</time>
      </trkpt>
      <trkpt lat="46.93694" lon="8.57548">
        <ele>574</ele>
        <time>2021-08-10T10:39:13.798Z</time>
      </trkpt>
      <trkpt lat="46.93693" lon="8.57548">
        <ele>574</ele>
        <time>2021-08-10T10:39:14.798Z</time>
      </trkpt>
      <trkpt lat="46.93693" lon="8.57546">
        <ele>573</ele>
        <time>2021-08-10T10:39:15.797Z</time>
      </trkpt>
      <trkpt lat="46.93691" lon="8.57545">
        <ele>573</ele>
        <time>2021-08-10T10:39:16.798Z</time>
      </trkpt>
      <trkpt lat="46.9369" lon="8.57544">
        <ele>572</ele>
        <time>2021-08-10T10:39:17.797Z</time>
      </trkpt>
      <trkpt lat="46.93689" lon="8.57542">
        <ele>572</ele>
        <time>2021-08-10T10:39:18.798Z</time>
      </trkpt>
      <trkpt lat="46.93688" lon="8.57542">
        <ele>572</ele>
        <time>2021-08-10T10:39:19.798Z</time>
      </trkpt>
      <trkpt lat="46.93688" lon="8.57542">
        <ele>572</ele>
        <time>2021-08-10T10:39:20.797Z</time>
      </trkpt>
      <trkpt lat="46.93688" lon="8.57541">
        <ele>572</ele>
        <time>2021-08-10T10:39:21.797Z</time>
      </trkpt>
      <trkpt lat="46.93688" lon="8.5754">
        <ele>572</ele>
        <time>2021-08-10T10:39:22.798Z</time>
      </trkpt>
      <trkpt lat="46.93688" lon="8.5754">
        <ele>572</ele>
        <time>2021-08-10T10:39:23.798Z</time>
      </trkpt>
      <trkpt lat="46.93688" lon="8.57539">
        <ele>571</ele>
        <time>2021-08-10T10:39:24.797Z</time>
      </trkpt>
      <trkpt lat="46.93689" lon="8.57539">
        <ele>571</ele>
        <time>2021-08-10T10:39:25.798Z</time>
      </trkpt>
      <trkpt lat="46.93689" lon="8.57539">
        <ele>571</ele>
        <time>2021-08-10T10:39:26.798Z</time>
      </trkpt>
      <trkpt lat="46.93689" lon="8.57538">
        <ele>571</ele>
        <time>2021-08-10T10:39:27.798Z</time>
      </trkpt>
      <trkpt lat="46.93688" lon="8.57536">
        <ele>571</ele>
        <time>2021-08-10T10:39:28.798Z</time>
      </trkpt>
      <trkpt lat="46.93687" lon="8.57536">
        <ele>570</ele>
        <time>2021-08-10T10:39:29.798Z</time>
      </trkpt>
      <trkpt lat="46.93686" lon="8.57535">
        <ele>570</ele>
        <time>2021-08-10T10:39:30.797Z</time>
      </trkpt>
      <trkpt lat="46.93684" lon="8.57533">
        <ele>569</ele>
        <time>2021-08-10T10:39:31.798Z</time>
      </trkpt>
      <trkpt lat="46.93683" lon="8.57532">
        <ele>569</ele>
        <time>2021-08-10T10:39:32.797Z</time>
      </trkpt>
      <trkpt lat="46.93683" lon="8.57532">
        <ele>569</ele>
        <time>2021-08-10T10:39:33.798Z</time>
      </trkpt>
      <trkpt lat="46.93682" lon="8.57533">
        <ele>569</ele>
        <time>2021-08-10T10:39:34.798Z</time>
      </trkpt>
      <trkpt lat="46.93682" lon="8.57532">
        <ele>569</ele>
        <time>2021-08-10T10:39:35.798Z</time>
      </trkpt>
      <trkpt lat="46.93682" lon="8.57532">
        <ele>569</ele>
        <time>2021-08-10T10:39:36.797Z</time>
      </trkpt>
      <trkpt lat="46.93683" lon="8.57533">
        <ele>568</ele>
        <time>2021-08-10T10:39:37.798Z</time>
      </trkpt>
      <trkpt lat="46.93684" lon="8.57532">
        <ele>568</ele>
        <time>2021-08-10T10:39:38.797Z</time>
      </trkpt>
      <trkpt lat="46.93684" lon="8.57531">
        <ele>568</ele>
        <time>2021-08-10T10:39:39.797Z</time>
      </trkpt>
      <trkpt lat="46.93684" lon="8.57531">
        <ele>568</ele>
        <time>2021-08-10T10:39:40.797Z</time>
      </trkpt>
      <trkpt lat="46.93685" lon="8.5753">
        <ele>568</ele>
        <time>2021-08-10T10:39:41.798Z</time>
      </trkpt>
      <trkpt lat="46.93686" lon="8.57531">
        <ele>568</ele>
        <time>2021-08-10T10:39:42.798Z</time>
      </trkpt>
      <trkpt lat="46.93687" lon="8.57532">
        <ele>568</ele>
        <time>2021-08-10T10:39:43.798Z</time>
      </trkpt>
      <trkpt lat="46.93686" lon="8.57531">
        <ele>568</ele>
        <time>2021-08-10T10:39:44.798Z</time>
      </trkpt>
      <trkpt lat="46.93686" lon="8.57531">
        <ele>569</ele>
        <time>2021-08-10T10:39:45.798Z</time>
      </trkpt>
      <trkpt lat="46.93685" lon="8.5753">
        <ele>569</ele>
        <time>2021-08-10T10:39:46.798Z</time>
      </trkpt>
      <trkpt lat="46.93683" lon="8.5753">
        <ele>570</ele>
        <time>2021-08-10T10:39:47.798Z</time>
      </trkpt>
      <trkpt lat="46.93683" lon="8.57529">
        <ele>570</ele>
        <time>2021-08-10T10:39:48.798Z</time>
      </trkpt>
      <trkpt lat="46.93682" lon="8.57528">
        <ele>570</ele>
        <time>2021-08-10T10:39:49.798Z</time>
      </trkpt>
      <trkpt lat="46.93682" lon="8.57528">
        <ele>571</ele>
        <time>2021-08-10T10:39:50.798Z</time>
      </trkpt>
      <trkpt lat="46.93682" lon="8.57527">
        <ele>571</ele>
        <time>2021-08-10T10:39:51.798Z</time>
      </trkpt>
      <trkpt lat="46.93681" lon="8.57527">
        <ele>571</ele>
        <time>2021-08-10T10:39:52.797Z</time>
      </trkpt>
      <trkpt lat="46.93681" lon="8.57527">
        <ele>572</ele>
        <time>2021-08-10T10:39:53.798Z</time>
      </trkpt>
      <trkpt lat="46.93681" lon="8.57527">
        <ele>572</ele>
        <time>2021-08-10T10:39:54.797Z</time>
      </trkpt>
      <trkpt lat="46.9368" lon="8.57527">
        <ele>572</ele>
        <time>2021-08-10T10:39:55.798Z</time>
      </trkpt>
      <trkpt lat="46.9368" lon="8.57526">
        <ele>573</ele>
        <time>2021-08-10T10:39:56.797Z</time>
      </trkpt>
      <trkpt lat="46.93679" lon="8.57525">
        <ele>573</ele>
        <time>2021-08-10T10:39:57.797Z</time>
      </trkpt>
      <trkpt lat="46.93679" lon="8.57525">
        <ele>573</ele>
        <time>2021-08-10T10:39:58.798Z</time>
      </trkpt>
      <trkpt lat="46.93678" lon="8.57525">
        <ele>573</ele>
        <time>2021-08-10T10:39:59.798Z</time>
      </trkpt>
      <trkpt lat="46.93678" lon="8.57525">
        <ele>573</ele>
        <time>2021-08-10T10:40:00.798Z</time>
      </trkpt>
      <trkpt lat="46.93678" lon="8.57525">
        <ele>572</ele>
        <time>2021-08-10T10:40:01.798Z</time>
      </trkpt>
      <trkpt lat="46.93678" lon="8.57526">
        <ele>572</ele>
        <time>2021-08-10T10:40:02.797Z</time>
      </trkpt>
      <trkpt lat="46.93678" lon="8.57526">
        <ele>572</ele>
        <time>2021-08-10T10:40:03.797Z</time>
      </trkpt>
      <trkpt lat="46.93678" lon="8.57526">
        <ele>571</ele>
        <time>2021-08-10T10:40:04.797Z</time>
      </trkpt>
      <trkpt lat="46.93678" lon="8.57528">
        <ele>570</ele>
        <time>2021-08-10T10:40:05.800Z</time>
      </trkpt>
      <trkpt lat="46.93677" lon="8.57528">
        <ele>569</ele>
        <time>2021-08-10T10:40:06.800Z</time>
      </trkpt>
      <trkpt lat="46.93676" lon="8.57529">
        <ele>569</ele>
        <time>2021-08-10T10:40:07.799Z</time>
      </trkpt>
      <trkpt lat="46.93676" lon="8.57531">
        <ele>569</ele>
        <time>2021-08-10T10:40:08.800Z</time>
      </trkpt>
      <trkpt lat="46.93675" lon="8.57532">
        <ele>569</ele>
        <time>2021-08-10T10:40:09.799Z</time>
      </trkpt>
      <trkpt lat="46.93675" lon="8.57533">
        <ele>569</ele>
        <time>2021-08-10T10:40:10.800Z</time>
      </trkpt>
      <trkpt lat="46.93675" lon="8.57534">
        <ele>570</ele>
        <time>2021-08-10T10:40:11.800Z</time>
      </trkpt>
      <trkpt lat="46.93674" lon="8.57536">
        <ele>570</ele>
        <time>2021-08-10T10:40:12.800Z</time>
      </trkpt>
      <trkpt lat="46.93674" lon="8.57537">
        <ele>570</ele>
        <time>2021-08-10T10:40:13.800Z</time>
      </trkpt>
      <trkpt lat="46.93674" lon="8.57538">
        <ele>570</ele>
        <time>2021-08-10T10:40:14.799Z</time>
      </trkpt>
      <trkpt lat="46.93673" lon="8.57539">
        <ele>570</ele>
        <time>2021-08-10T10:40:15.799Z</time>
      </trkpt>
      <trkpt lat="46.93673" lon="8.57541">
        <ele>570</ele>
        <time>2021-08-10T10:40:16.799Z</time>
      </trkpt>
      <trkpt lat="46.93672" lon="8.57541">
        <ele>570</ele>
        <time>2021-08-10T10:40:17.799Z</time>
      </trkpt>
      <trkpt lat="46.93672" lon="8.57541">
        <ele>569</ele>
        <time>2021-08-10T10:40:18.800Z</time>
      </trkpt>
      <trkpt lat="46.93671" lon="8.57542">
        <ele>569</ele>
        <time>2021-08-10T10:40:19.800Z</time>
      </trkpt>
      <trkpt lat="46.9367" lon="8.57542">
        <ele>569</ele>
        <time>2021-08-10T10:40:20.799Z</time>
      </trkpt>
      <trkpt lat="46.9367" lon="8.57541">
        <ele>569</ele>
        <time>2021-08-10T10:40:21.800Z</time>
      </trkpt>
      <trkpt lat="46.9367" lon="8.5754">
        <ele>569</ele>
        <time>2021-08-10T10:40:22.799Z</time>
      </trkpt>
      <trkpt lat="46.9367" lon="8.57538">
        <ele>568</ele>
        <time>2021-08-10T10:40:23.799Z</time>
      </trkpt>
      <trkpt lat="46.9367" lon="8.57536">
        <ele>567</ele>
        <time>2021-08-10T10:40:24.799Z</time>
      </trkpt>
      <trkpt lat="46.9367" lon="8.57535">
        <ele>567</ele>
        <time>2021-08-10T10:40:25.799Z</time>
      </trkpt>
      <trkpt lat="46.93671" lon="8.57534">
        <ele>566</ele>
        <time>2021-08-10T10:40:26.799Z</time>
      </trkpt>
      <trkpt lat="46.93671" lon="8.57535">
        <ele>565</ele>
        <time>2021-08-10T10:40:27.799Z</time>
      </trkpt>
      <trkpt lat="46.93672" lon="8.57535">
        <ele>565</ele>
        <time>2021-08-10T10:40:28.799Z</time>
      </trkpt>
      <trkpt lat="46.93671" lon="8.57535">
        <ele>565</ele>
        <time>2021-08-10T10:40:29.799Z</time>
      </trkpt>
      <trkpt lat="46.93671" lon="8.57534">
        <ele>564</ele>
        <time>2021-08-10T10:40:30.800Z</time>
      </trkpt>
      <trkpt lat="46.9367" lon="8.57534">
        <ele>564</ele>
        <time>2021-08-10T10:40:31.799Z</time>
      </trkpt>
      <trkpt lat="46.9367" lon="8.57533">
        <ele>564</ele>
        <time>2021-08-10T10:40:32.800Z</time>
      </trkpt>
      <trkpt lat="46.93669" lon="8.57533">
        <ele>563</ele>
        <time>2021-08-10T10:40:33.799Z</time>
      </trkpt>
      <trkpt lat="46.93667" lon="8.57532">
        <ele>563</ele>
        <time>2021-08-10T10:40:34.800Z</time>
      </trkpt>
      <trkpt lat="46.93666" lon="8.57531">
        <ele>562</ele>
        <time>2021-08-10T10:40:35.800Z</time>
      </trkpt>
      <trkpt lat="46.93665" lon="8.5753">
        <ele>561</ele>
        <time>2021-08-10T10:40:36.799Z</time>
      </trkpt>
      <trkpt lat="46.93663" lon="8.57528">
        <ele>560</ele>
        <time>2021-08-10T10:40:37.800Z</time>
      </trkpt>
      <trkpt lat="46.93663" lon="8.57527">
        <ele>559</ele>
        <time>2021-08-10T10:40:38.800Z</time>
      </trkpt>
      <trkpt lat="46.93662" lon="8.57527">
        <ele>559</ele>
        <time>2021-08-10T10:40:39.799Z</time>
      </trkpt>
      <trkpt lat="46.93662" lon="8.57527">
        <ele>559</ele>
        <time>2021-08-10T10:40:40.799Z</time>
      </trkpt>
      <trkpt lat="46.93662" lon="8.57526">
        <ele>558</ele>
        <time>2021-08-10T10:40:41.800Z</time>
      </trkpt>
      <trkpt lat="46.93661" lon="8.57526">
        <ele>558</ele>
        <time>2021-08-10T10:40:42.799Z</time>
      </trkpt>
      <trkpt lat="46.93661" lon="8.57525">
        <ele>558</ele>
        <time>2021-08-10T10:40:43.799Z</time>
      </trkpt>
      <trkpt lat="46.9366" lon="8.57525">
        <ele>558</ele>
        <time>2021-08-10T10:40:44.800Z</time>
      </trkpt>
      <trkpt lat="46.9366" lon="8.57524">
        <ele>558</ele>
        <time>2021-08-10T10:40:45.800Z</time>
      </trkpt>
      <trkpt lat="46.93659" lon="8.57524">
        <ele>558</ele>
        <time>2021-08-10T10:40:46.800Z</time>
      </trkpt>
      <trkpt lat="46.93659" lon="8.57524">
        <ele>558</ele>
        <time>2021-08-10T10:40:47.800Z</time>
      </trkpt>
      <trkpt lat="46.93659" lon="8.57523">
        <ele>557</ele>
        <time>2021-08-10T10:40:48.800Z</time>
      </trkpt>
      <trkpt lat="46.93659" lon="8.57522">
        <ele>557</ele>
        <time>2021-08-10T10:40:49.799Z</time>
      </trkpt>
      <trkpt lat="46.93659" lon="8.57522">
        <ele>556</ele>
        <time>2021-08-10T10:40:50.799Z</time>
      </trkpt>
      <trkpt lat="46.93656" lon="8.57518">
        <ele>553</ele>
        <time>2021-08-10T10:40:51.800Z</time>
      </trkpt>
      <trkpt lat="46.93655" lon="8.57518">
        <ele>552</ele>
        <time>2021-08-10T10:40:52.800Z</time>
      </trkpt>
      <trkpt lat="46.93654" lon="8.57519">
        <ele>552</ele>
        <time>2021-08-10T10:40:53.799Z</time>
      </trkpt>
      <trkpt lat="46.93655" lon="8.5752">
        <ele>552</ele>
        <time>2021-08-10T10:40:54.800Z</time>
      </trkpt>
      <trkpt lat="46.93655" lon="8.57521">
        <ele>551</ele>
        <time>2021-08-10T10:40:55.800Z</time>
      </trkpt>
      <trkpt lat="46.93655" lon="8.57522">
        <ele>551</ele>
        <time>2021-08-10T10:40:56.799Z</time>
      </trkpt>
      <trkpt lat="46.93655" lon="8.57522">
        <ele>550</ele>
        <time>2021-08-10T10:40:57.800Z</time>
      </trkpt>
      <trkpt lat="46.93655" lon="8.57523">
        <ele>549</ele>
        <time>2021-08-10T10:40:58.800Z</time>
      </trkpt>
      <trkpt lat="46.93654" lon="8.57524">
        <ele>549</ele>
        <time>2021-08-10T10:40:59.800Z</time>
      </trkpt>
      <trkpt lat="46.93654" lon="8.57525">
        <ele>548</ele>
        <time>2021-08-10T10:41:00.800Z</time>
      </trkpt>
      <trkpt lat="46.93653" lon="8.57526">
        <ele>548</ele>
        <time>2021-08-10T10:41:01.799Z</time>
      </trkpt>
      <trkpt lat="46.93653" lon="8.57527">
        <ele>547</ele>
        <time>2021-08-10T10:41:02.800Z</time>
      </trkpt>
      <trkpt lat="46.93653" lon="8.57528">
        <ele>547</ele>
        <time>2021-08-10T10:41:03.800Z</time>
      </trkpt>
      <trkpt lat="46.93653" lon="8.57528">
        <ele>546</ele>
        <time>2021-08-10T10:41:04.799Z</time>
      </trkpt>
      <trkpt lat="46.93653" lon="8.57529">
        <ele>546</ele>
        <time>2021-08-10T10:41:05.799Z</time>
      </trkpt>
      <trkpt lat="46.93653" lon="8.57529">
        <ele>545</ele>
        <time>2021-08-10T10:41:06.799Z</time>
      </trkpt>
      <trkpt lat="46.93654" lon="8.57528">
        <ele>545</ele>
        <time>2021-08-10T10:41:07.800Z</time>
      </trkpt>
      <trkpt lat="46.93654" lon="8.57528">
        <ele>545</ele>
        <time>2021-08-10T10:41:08.800Z</time>
      </trkpt>
      <trkpt lat="46.93653" lon="8.57527">
        <ele>544</ele>
        <time>2021-08-10T10:41:09.799Z</time>
      </trkpt>
      <trkpt lat="46.93653" lon="8.57526">
        <ele>544</ele>
        <time>2021-08-10T10:41:10.800Z</time>
      </trkpt>
      <trkpt lat="46.93652" lon="8.57525">
        <ele>544</ele>
        <time>2021-08-10T10:41:11.800Z</time>
      </trkpt>
      <trkpt lat="46.93652" lon="8.57524">
        <ele>545</ele>
        <time>2021-08-10T10:41:12.800Z</time>
      </trkpt>
      <trkpt lat="46.93652" lon="8.57523">
        <ele>545</ele>
        <time>2021-08-10T10:41:13.800Z</time>
      </trkpt>
      <trkpt lat="46.93651" lon="8.57522">
        <ele>546</ele>
        <time>2021-08-10T10:41:14.800Z</time>
      </trkpt>
      <trkpt lat="46.93651" lon="8.5752">
        <ele>546</ele>
        <time>2021-08-10T10:41:15.799Z</time>
      </trkpt>
      <trkpt lat="46.93651" lon="8.57519">
        <ele>547</ele>
        <time>2021-08-10T10:41:16.800Z</time>
      </trkpt>
      <trkpt lat="46.9365" lon="8.57518">
        <ele>548</ele>
        <time>2021-08-10T10:41:17.800Z</time>
      </trkpt>
      <trkpt lat="46.9365" lon="8.57517">
        <ele>548</ele>
        <time>2021-08-10T10:41:18.799Z</time>
      </trkpt>
      <trkpt lat="46.93649" lon="8.57516">
        <ele>548</ele>
        <time>2021-08-10T10:41:19.800Z</time>
      </trkpt>
      <trkpt lat="46.9365" lon="8.57516">
        <ele>549</ele>
        <time>2021-08-10T10:41:20.800Z</time>
      </trkpt>
      <trkpt lat="46.93649" lon="8.57515">
        <ele>548</ele>
        <time>2021-08-10T10:41:21.799Z</time>
      </trkpt>
      <trkpt lat="46.93648" lon="8.57515">
        <ele>548</ele>
        <time>2021-08-10T10:41:22.800Z</time>
      </trkpt>
      <trkpt lat="46.93648" lon="8.57514">
        <ele>549</ele>
        <time>2021-08-10T10:41:23.799Z</time>
      </trkpt>
      <trkpt lat="46.93647" lon="8.57513">
        <ele>549</ele>
        <time>2021-08-10T10:41:24.799Z</time>
      </trkpt>
      <trkpt lat="46.93646" lon="8.57512">
        <ele>549</ele>
        <time>2021-08-10T10:41:25.800Z</time>
      </trkpt>
      <trkpt lat="46.93646" lon="8.5751">
        <ele>550</ele>
        <time>2021-08-10T10:41:26.800Z</time>
      </trkpt>
      <trkpt lat="46.93646" lon="8.57509">
        <ele>550</ele>
        <time>2021-08-10T10:41:27.800Z</time>
      </trkpt>
      <trkpt lat="46.93646" lon="8.57508">
        <ele>549</ele>
        <time>2021-08-10T10:41:28.799Z</time>
      </trkpt>
      <trkpt lat="46.93645" lon="8.57506">
        <ele>549</ele>
        <time>2021-08-10T10:41:29.799Z</time>
      </trkpt>
      <trkpt lat="46.93645" lon="8.57505">
        <ele>549</ele>
        <time>2021-08-10T10:41:30.800Z</time>
      </trkpt>
      <trkpt lat="46.93645" lon="8.57504">
        <ele>549</ele>
        <time>2021-08-10T10:41:31.799Z</time>
      </trkpt>
      <trkpt lat="46.93644" lon="8.57504">
        <ele>549</ele>
        <time>2021-08-10T10:41:32.800Z</time>
      </trkpt>
      <trkpt lat="46.93643" lon="8.57503">
        <ele>550</ele>
        <time>2021-08-10T10:41:33.799Z</time>
      </trkpt>
      <trkpt lat="46.93642" lon="8.57503">
        <ele>550</ele>
        <time>2021-08-10T10:41:34.799Z</time>
      </trkpt>
      <trkpt lat="46.93642" lon="8.57502">
        <ele>550</ele>
        <time>2021-08-10T10:41:35.800Z</time>
      </trkpt>
      <trkpt lat="46.93641" lon="8.57501">
        <ele>550</ele>
        <time>2021-08-10T10:41:36.800Z</time>
      </trkpt>
      <trkpt lat="46.9364" lon="8.575">
        <ele>550</ele>
        <time>2021-08-10T10:41:37.799Z</time>
      </trkpt>
      <trkpt lat="46.9364" lon="8.575">
        <ele>550</ele>
        <time>2021-08-10T10:41:38.800Z</time>
      </trkpt>
      <trkpt lat="46.9364" lon="8.57499">
        <ele>550</ele>
        <time>2021-08-10T10:41:39.799Z</time>
      </trkpt>
      <trkpt lat="46.9364" lon="8.57499">
        <ele>550</ele>
        <time>2021-08-10T10:41:40.800Z</time>
      </trkpt>
      <trkpt lat="46.93639" lon="8.57498">
        <ele>551</ele>
        <time>2021-08-10T10:41:41.799Z</time>
      </trkpt>
      <trkpt lat="46.93638" lon="8.57498">
        <ele>551</ele>
        <time>2021-08-10T10:41:42.799Z</time>
      </trkpt>
      <trkpt lat="46.93637" lon="8.57498">
        <ele>551</ele>
        <time>2021-08-10T10:41:43.800Z</time>
      </trkpt>
      <trkpt lat="46.93637" lon="8.57499">
        <ele>550</ele>
        <time>2021-08-10T10:41:44.799Z</time>
      </trkpt>
      <trkpt lat="46.93636" lon="8.575">
        <ele>550</ele>
        <time>2021-08-10T10:41:45.799Z</time>
      </trkpt>
      <trkpt lat="46.93635" lon="8.57501">
        <ele>550</ele>
        <time>2021-08-10T10:41:46.799Z</time>
      </trkpt>
      <trkpt lat="46.93635" lon="8.57501">
        <ele>550</ele>
        <time>2021-08-10T10:41:47.799Z</time>
      </trkpt>
      <trkpt lat="46.93633" lon="8.57502">
        <ele>550</ele>
        <time>2021-08-10T10:41:48.800Z</time>
      </trkpt>
      <trkpt lat="46.93633" lon="8.57503">
        <ele>550</ele>
        <time>2021-08-10T10:41:49.799Z</time>
      </trkpt>
      <trkpt lat="46.93632" lon="8.57504">
        <ele>550</ele>
        <time>2021-08-10T10:41:50.800Z</time>
      </trkpt>
      <trkpt lat="46.93631" lon="8.57505">
        <ele>550</ele>
        <time>2021-08-10T10:41:51.799Z</time>
      </trkpt>
      <trkpt lat="46.9363" lon="8.57506">
        <ele>550</ele>
        <time>2021-08-10T10:41:52.799Z</time>
      </trkpt>
      <trkpt lat="46.93629" lon="8.57506">
        <ele>550</ele>
        <time>2021-08-10T10:41:53.800Z</time>
      </trkpt>
      <trkpt lat="46.93629" lon="8.57507">
        <ele>550</ele>
        <time>2021-08-10T10:41:54.800Z</time>
      </trkpt>
      <trkpt lat="46.93629" lon="8.57507">
        <ele>550</ele>
        <time>2021-08-10T10:41:55.799Z</time>
      </trkpt>
      <trkpt lat="46.93628" lon="8.57508">
        <ele>550</ele>
        <time>2021-08-10T10:41:56.799Z</time>
      </trkpt>
      <trkpt lat="46.93626" lon="8.57508">
        <ele>550</ele>
        <time>2021-08-10T10:41:57.799Z</time>
      </trkpt>
      <trkpt lat="46.93625" lon="8.57508">
        <ele>550</ele>
        <time>2021-08-10T10:41:58.799Z</time>
      </trkpt>
      <trkpt lat="46.93624" lon="8.57507">
        <ele>550</ele>
        <time>2021-08-10T10:41:59.800Z</time>
      </trkpt>
      <trkpt lat="46.93623" lon="8.57507">
        <ele>549</ele>
        <time>2021-08-10T10:42:00.799Z</time>
      </trkpt>
      <trkpt lat="46.93622" lon="8.57506">
        <ele>549</ele>
        <time>2021-08-10T10:42:01.800Z</time>
      </trkpt>
      <trkpt lat="46.93621" lon="8.57506">
        <ele>549</ele>
        <time>2021-08-10T10:42:02.800Z</time>
      </trkpt>
      <trkpt lat="46.9362" lon="8.57507">
        <ele>549</ele>
        <time>2021-08-10T10:42:03.800Z</time>
      </trkpt>
      <trkpt lat="46.93619" lon="8.57507">
        <ele>549</ele>
        <time>2021-08-10T10:42:04.799Z</time>
      </trkpt>
      <trkpt lat="46.93618" lon="8.57508">
        <ele>549</ele>
        <time>2021-08-10T10:42:05.799Z</time>
      </trkpt>
      <trkpt lat="46.93617" lon="8.57509">
        <ele>549</ele>
        <time>2021-08-10T10:42:06.799Z</time>
      </trkpt>
      <trkpt lat="46.93616" lon="8.57508">
        <ele>549</ele>
        <time>2021-08-10T10:42:07.799Z</time>
      </trkpt>
      <trkpt lat="46.93615" lon="8.57507">
        <ele>549</ele>
        <time>2021-08-10T10:42:08.800Z</time>
      </trkpt>
      <trkpt lat="46.93614" lon="8.57507">
        <ele>549</ele>
        <time>2021-08-10T10:42:09.800Z</time>
      </trkpt>
      <trkpt lat="46.93614" lon="8.57508">
        <ele>549</ele>
        <time>2021-08-10T10:42:10.800Z</time>
      </trkpt>
      <trkpt lat="46.93613" lon="8.57508">
        <ele>549</ele>
        <time>2021-08-10T10:42:11.800Z</time>
      </trkpt>
      <trkpt lat="46.93613" lon="8.57508">
        <ele>548</ele>
        <time>2021-08-10T10:42:12.799Z</time>
      </trkpt>
      <trkpt lat="46.93612" lon="8.57509">
        <ele>548</ele>
        <time>2021-08-10T10:42:13.799Z</time>
      </trkpt>
      <trkpt lat="46.93611" lon="8.57509">
        <ele>548</ele>
        <time>2021-08-10T10:42:14.799Z</time>
      </trkpt>
      <trkpt lat="46.9361" lon="8.57508">
        <ele>548</ele>
        <time>2021-08-10T10:42:15.799Z</time>
      </trkpt>
      <trkpt lat="46.9361" lon="8.57507">
        <ele>548</ele>
        <time>2021-08-10T10:42:16.800Z</time>
      </trkpt>
      <trkpt lat="46.9361" lon="8.57507">
        <ele>547</ele>
        <time>2021-08-10T10:42:17.799Z</time>
      </trkpt>
      <trkpt lat="46.9361" lon="8.57507">
        <ele>547</ele>
        <time>2021-08-10T10:42:18.800Z</time>
      </trkpt>
      <trkpt lat="46.93609" lon="8.57507">
        <ele>546</ele>
        <time>2021-08-10T10:42:19.799Z</time>
      </trkpt>
      <trkpt lat="46.93609" lon="8.57507">
        <ele>546</ele>
        <time>2021-08-10T10:42:20.800Z</time>
      </trkpt>
      <trkpt lat="46.93608" lon="8.57508">
        <ele>545</ele>
        <time>2021-08-10T10:42:21.799Z</time>
      </trkpt>
      <trkpt lat="46.93607" lon="8.57508">
        <ele>545</ele>
        <time>2021-08-10T10:42:22.799Z</time>
      </trkpt>
      <trkpt lat="46.93606" lon="8.57509">
        <ele>544</ele>
        <time>2021-08-10T10:42:23.799Z</time>
      </trkpt>
      <trkpt lat="46.93605" lon="8.5751">
        <ele>544</ele>
        <time>2021-08-10T10:42:24.799Z</time>
      </trkpt>
      <trkpt lat="46.93605" lon="8.57511">
        <ele>544</ele>
        <time>2021-08-10T10:42:25.800Z</time>
      </trkpt>
      <trkpt lat="46.93605" lon="8.57512">
        <ele>545</ele>
        <time>2021-08-10T10:42:26.800Z</time>
      </trkpt>
      <trkpt lat="46.93605" lon="8.57512">
        <ele>545</ele>
        <time>2021-08-10T10:42:27.799Z</time>
      </trkpt>
      <trkpt lat="46.93606" lon="8.57513">
        <ele>545</ele>
        <time>2021-08-10T10:42:28.800Z</time>
      </trkpt>
      <trkpt lat="46.93607" lon="8.57514">
        <ele>545</ele>
        <time>2021-08-10T10:42:29.800Z</time>
      </trkpt>
      <trkpt lat="46.93607" lon="8.57515">
        <ele>545</ele>
        <time>2021-08-10T10:42:30.800Z</time>
      </trkpt>
      <trkpt lat="46.93608" lon="8.57516">
        <ele>545</ele>
        <time>2021-08-10T10:42:31.799Z</time>
      </trkpt>
      <trkpt lat="46.93607" lon="8.57517">
        <ele>546</ele>
        <time>2021-08-10T10:42:32.800Z</time>
      </trkpt>
      <trkpt lat="46.93607" lon="8.57519">
        <ele>546</ele>
        <time>2021-08-10T10:42:33.800Z</time>
      </trkpt>
      <trkpt lat="46.93606" lon="8.57521">
        <ele>546</ele>
        <time>2021-08-10T10:42:34.800Z</time>
      </trkpt>
      <trkpt lat="46.93605" lon="8.57523">
        <ele>545</ele>
        <time>2021-08-10T10:42:35.800Z</time>
      </trkpt>
      <trkpt lat="46.93605" lon="8.57524">
        <ele>545</ele>
        <time>2021-08-10T10:42:36.800Z</time>
      </trkpt>
      <trkpt lat="46.93604" lon="8.57524">
        <ele>544</ele>
        <time>2021-08-10T10:42:37.799Z</time>
      </trkpt>
      <trkpt lat="46.93604" lon="8.57525">
        <ele>544</ele>
        <time>2021-08-10T10:42:38.799Z</time>
      </trkpt>
      <trkpt lat="46.93603" lon="8.57526">
        <ele>544</ele>
        <time>2021-08-10T10:42:39.799Z</time>
      </trkpt>
      <trkpt lat="46.93602" lon="8.57526">
        <ele>544</ele>
        <time>2021-08-10T10:42:40.800Z</time>
      </trkpt>
      <trkpt lat="46.93601" lon="8.57527">
        <ele>544</ele>
        <time>2021-08-10T10:42:41.800Z</time>
      </trkpt>
      <trkpt lat="46.93601" lon="8.57528">
        <ele>543</ele>
        <time>2021-08-10T10:42:42.799Z</time>
      </trkpt>
      <trkpt lat="46.936" lon="8.57528">
        <ele>542</ele>
        <time>2021-08-10T10:42:43.800Z</time>
      </trkpt>
      <trkpt lat="46.93599" lon="8.57529">
        <ele>542</ele>
        <time>2021-08-10T10:42:44.800Z</time>
      </trkpt>
      <trkpt lat="46.93598" lon="8.5753">
        <ele>541</ele>
        <time>2021-08-10T10:42:45.799Z</time>
      </trkpt>
      <trkpt lat="46.93597" lon="8.57531">
        <ele>540</ele>
        <time>2021-08-10T10:42:46.800Z</time>
      </trkpt>
      <trkpt lat="46.93596" lon="8.57532">
        <ele>540</ele>
        <time>2021-08-10T10:42:47.800Z</time>
      </trkpt>
      <trkpt lat="46.93595" lon="8.57534">
        <ele>540</ele>
        <time>2021-08-10T10:42:48.799Z</time>
      </trkpt>
      <trkpt lat="46.93595" lon="8.57535">
        <ele>540</ele>
        <time>2021-08-10T10:42:49.800Z</time>
      </trkpt>
      <trkpt lat="46.93595" lon="8.57536">
        <ele>540</ele>
        <time>2021-08-10T10:42:50.800Z</time>
      </trkpt>
      <trkpt lat="46.93595" lon="8.57537">
        <ele>539</ele>
        <time>2021-08-10T10:42:51.800Z</time>
      </trkpt>
      <trkpt lat="46.93595" lon="8.57538">
        <ele>539</ele>
        <time>2021-08-10T10:42:52.799Z</time>
      </trkpt>
      <trkpt lat="46.93595" lon="8.57539">
        <ele>538</ele>
        <time>2021-08-10T10:42:53.799Z</time>
      </trkpt>
      <trkpt lat="46.93595" lon="8.57539">
        <ele>538</ele>
        <time>2021-08-10T10:42:54.800Z</time>
      </trkpt>
      <trkpt lat="46.93596" lon="8.57541">
        <ele>537</ele>
        <time>2021-08-10T10:42:55.799Z</time>
      </trkpt>
      <trkpt lat="46.93596" lon="8.57542">
        <ele>536</ele>
        <time>2021-08-10T10:42:56.799Z</time>
      </trkpt>
      <trkpt lat="46.93597" lon="8.57542">
        <ele>536</ele>
        <time>2021-08-10T10:42:57.800Z</time>
      </trkpt>
      <trkpt lat="46.93598" lon="8.57542">
        <ele>535</ele>
        <time>2021-08-10T10:42:58.799Z</time>
      </trkpt>
      <trkpt lat="46.936" lon="8.57543">
        <ele>534</ele>
        <time>2021-08-10T10:42:59.799Z</time>
      </trkpt>
      <trkpt lat="46.93602" lon="8.57544">
        <ele>534</ele>
        <time>2021-08-10T10:43:00.800Z</time>
      </trkpt>
      <trkpt lat="46.93603" lon="8.57545">
        <ele>533</ele>
        <time>2021-08-10T10:43:01.799Z</time>
      </trkpt>
      <trkpt lat="46.93604" lon="8.57545">
        <ele>532</ele>
        <time>2021-08-10T10:43:02.799Z</time>
      </trkpt>
      <trkpt lat="46.93605" lon="8.57545">
        <ele>531</ele>
        <time>2021-08-10T10:43:03.799Z</time>
      </trkpt>
      <trkpt lat="46.93605" lon="8.57546">
        <ele>531</ele>
        <time>2021-08-10T10:43:04.799Z</time>
      </trkpt>
      <trkpt lat="46.93607" lon="8.57547">
        <ele>529</ele>
        <time>2021-08-10T10:43:05.799Z</time>
      </trkpt>
      <trkpt lat="46.93607" lon="8.57547">
        <ele>528</ele>
        <time>2021-08-10T10:43:06.799Z</time>
      </trkpt>
      <trkpt lat="46.93608" lon="8.57546">
        <ele>527</ele>
        <time>2021-08-10T10:43:07.799Z</time>
      </trkpt>
      <trkpt lat="46.93608" lon="8.57547">
        <ele>526</ele>
        <time>2021-08-10T10:43:08.799Z</time>
      </trkpt>
      <trkpt lat="46.93608" lon="8.57548">
        <ele>525</ele>
        <time>2021-08-10T10:43:09.799Z</time>
      </trkpt>
      <trkpt lat="46.93608" lon="8.57549">
        <ele>524</ele>
        <time>2021-08-10T10:43:10.799Z</time>
      </trkpt>
      <trkpt lat="46.93608" lon="8.5755">
        <ele>523</ele>
        <time>2021-08-10T10:43:11.799Z</time>
      </trkpt>
      <trkpt lat="46.93607" lon="8.57551">
        <ele>522</ele>
        <time>2021-08-10T10:43:12.800Z</time>
      </trkpt>
      <trkpt lat="46.93606" lon="8.57553">
        <ele>522</ele>
        <time>2021-08-10T10:43:13.799Z</time>
      </trkpt>
      <trkpt lat="46.93606" lon="8.57555">
        <ele>521</ele>
        <time>2021-08-10T10:43:14.799Z</time>
      </trkpt>
      <trkpt lat="46.93605" lon="8.57555">
        <ele>520</ele>
        <time>2021-08-10T10:43:15.800Z</time>
      </trkpt>
      <trkpt lat="46.93605" lon="8.57555">
        <ele>520</ele>
        <time>2021-08-10T10:43:16.799Z</time>
      </trkpt>
      <trkpt lat="46.93604" lon="8.57555">
        <ele>520</ele>
        <time>2021-08-10T10:43:17.799Z</time>
      </trkpt>
      <trkpt lat="46.93603" lon="8.57555">
        <ele>520</ele>
        <time>2021-08-10T10:43:18.799Z</time>
      </trkpt>
      <trkpt lat="46.93603" lon="8.57556">
        <ele>520</ele>
        <time>2021-08-10T10:43:19.799Z</time>
      </trkpt>
      <trkpt lat="46.93602" lon="8.57556">
        <ele>521</ele>
        <time>2021-08-10T10:43:20.799Z</time>
      </trkpt>
      <trkpt lat="46.93601" lon="8.57558">
        <ele>521</ele>
        <time>2021-08-10T10:43:21.799Z</time>
      </trkpt>
      <trkpt lat="46.936" lon="8.57559">
        <ele>521</ele>
        <time>2021-08-10T10:43:22.799Z</time>
      </trkpt>
      <trkpt lat="46.93599" lon="8.5756">
        <ele>522</ele>
        <time>2021-08-10T10:43:23.799Z</time>
      </trkpt>
      <trkpt lat="46.93599" lon="8.57561">
        <ele>522</ele>
        <time>2021-08-10T10:43:24.799Z</time>
      </trkpt>
      <trkpt lat="46.93598" lon="8.57561">
        <ele>522</ele>
        <time>2021-08-10T10:43:25.799Z</time>
      </trkpt>
      <trkpt lat="46.93597" lon="8.57561">
        <ele>522</ele>
        <time>2021-08-10T10:43:26.799Z</time>
      </trkpt>
      <trkpt lat="46.93596" lon="8.57562">
        <ele>522</ele>
        <time>2021-08-10T10:43:27.799Z</time>
      </trkpt>
      <trkpt lat="46.93595" lon="8.57562">
        <ele>522</ele>
        <time>2021-08-10T10:43:28.799Z</time>
      </trkpt>
      <trkpt lat="46.93594" lon="8.57563">
        <ele>522</ele>
        <time>2021-08-10T10:43:29.800Z</time>
      </trkpt>
      <trkpt lat="46.93592" lon="8.57564">
        <ele>522</ele>
        <time>2021-08-10T10:43:30.800Z</time>
      </trkpt>
      <trkpt lat="46.93591" lon="8.57565">
        <ele>522</ele>
        <time>2021-08-10T10:43:31.799Z</time>
      </trkpt>
      <trkpt lat="46.93591" lon="8.57565">
        <ele>522</ele>
        <time>2021-08-10T10:43:32.799Z</time>
      </trkpt>
      <trkpt lat="46.9359" lon="8.57565">
        <ele>521</ele>
        <time>2021-08-10T10:43:33.799Z</time>
      </trkpt>
      <trkpt lat="46.9359" lon="8.57565">
        <ele>521</ele>
        <time>2021-08-10T10:43:34.799Z</time>
      </trkpt>
      <trkpt lat="46.9359" lon="8.57566">
        <ele>520</ele>
        <time>2021-08-10T10:43:35.801Z</time>
      </trkpt>
      <trkpt lat="46.93589" lon="8.57566">
        <ele>520</ele>
        <time>2021-08-10T10:43:36.802Z</time>
      </trkpt>
      <trkpt lat="46.93588" lon="8.57565">
        <ele>520</ele>
        <time>2021-08-10T10:43:37.801Z</time>
      </trkpt>
      <trkpt lat="46.93587" lon="8.57565">
        <ele>520</ele>
        <time>2021-08-10T10:43:38.802Z</time>
      </trkpt>
      <trkpt lat="46.93586" lon="8.57565">
        <ele>520</ele>
        <time>2021-08-10T10:43:39.802Z</time>
      </trkpt>
      <trkpt lat="46.93585" lon="8.57565">
        <ele>520</ele>
        <time>2021-08-10T10:43:40.802Z</time>
      </trkpt>
      <trkpt lat="46.93585" lon="8.57565">
        <ele>520</ele>
        <time>2021-08-10T10:43:41.802Z</time>
      </trkpt>
      <trkpt lat="46.93584" lon="8.57565">
        <ele>519</ele>
        <time>2021-08-10T10:43:42.801Z</time>
      </trkpt>
      <trkpt lat="46.93583" lon="8.57565">
        <ele>519</ele>
        <time>2021-08-10T10:43:43.802Z</time>
      </trkpt>
      <trkpt lat="46.93583" lon="8.57565">
        <ele>518</ele>
        <time>2021-08-10T10:43:44.801Z</time>
      </trkpt>
      <trkpt lat="46.93582" lon="8.57565">
        <ele>518</ele>
        <time>2021-08-10T10:43:45.801Z</time>
      </trkpt>
      <trkpt lat="46.93581" lon="8.57565">
        <ele>517</ele>
        <time>2021-08-10T10:43:46.802Z</time>
      </trkpt>
      <trkpt lat="46.93581" lon="8.57565">
        <ele>517</ele>
        <time>2021-08-10T10:43:47.801Z</time>
      </trkpt>
      <trkpt lat="46.9358" lon="8.57566">
        <ele>516</ele>
        <time>2021-08-10T10:43:48.802Z</time>
      </trkpt>
      <trkpt lat="46.9358" lon="8.57566">
        <ele>516</ele>
        <time>2021-08-10T10:43:49.802Z</time>
      </trkpt>
      <trkpt lat="46.93579" lon="8.57567">
        <ele>515</ele>
        <time>2021-08-10T10:43:50.801Z</time>
      </trkpt>
      <trkpt lat="46.93578" lon="8.57567">
        <ele>515</ele>
        <time>2021-08-10T10:43:51.801Z</time>
      </trkpt>
      <trkpt lat="46.93578" lon="8.57568">
        <ele>515</ele>
        <time>2021-08-10T10:43:52.801Z</time>
      </trkpt>
      <trkpt lat="46.93577" lon="8.57568">
        <ele>515</ele>
        <time>2021-08-10T10:43:53.801Z</time>
      </trkpt>
      <trkpt lat="46.93577" lon="8.57568">
        <ele>515</ele>
        <time>2021-08-10T10:43:54.802Z</time>
      </trkpt>
      <trkpt lat="46.93576" lon="8.57568">
        <ele>515</ele>
        <time>2021-08-10T10:43:55.802Z</time>
      </trkpt>
      <trkpt lat="46.93576" lon="8.57568">
        <ele>515</ele>
        <time>2021-08-10T10:43:56.802Z</time>
      </trkpt>
      <trkpt lat="46.93575" lon="8.57569">
        <ele>516</ele>
        <time>2021-08-10T10:43:57.801Z</time>
      </trkpt>
      <trkpt lat="46.93575" lon="8.57569">
        <ele>516</ele>
        <time>2021-08-10T10:43:58.802Z</time>
      </trkpt>
      <trkpt lat="46.93574" lon="8.5757">
        <ele>517</ele>
        <time>2021-08-10T10:43:59.801Z</time>
      </trkpt>
      <trkpt lat="46.93574" lon="8.57571">
        <ele>517</ele>
        <time>2021-08-10T10:44:00.801Z</time>
      </trkpt>
      <trkpt lat="46.93574" lon="8.57572">
        <ele>518</ele>
        <time>2021-08-10T10:44:01.801Z</time>
      </trkpt>
      <trkpt lat="46.93574" lon="8.57573">
        <ele>518</ele>
        <time>2021-08-10T10:44:02.802Z</time>
      </trkpt>
      <trkpt lat="46.93574" lon="8.57573">
        <ele>519</ele>
        <time>2021-08-10T10:44:03.801Z</time>
      </trkpt>
      <trkpt lat="46.93574" lon="8.57574">
        <ele>520</ele>
        <time>2021-08-10T10:44:04.801Z</time>
      </trkpt>
      <trkpt lat="46.93574" lon="8.57574">
        <ele>520</ele>
        <time>2021-08-10T10:44:05.801Z</time>
      </trkpt>
      <trkpt lat="46.93573" lon="8.57575">
        <ele>521</ele>
        <time>2021-08-10T10:44:06.801Z</time>
      </trkpt>
      <trkpt lat="46.93573" lon="8.57575">
        <ele>521</ele>
        <time>2021-08-10T10:44:07.801Z</time>
      </trkpt>
      <trkpt lat="46.93573" lon="8.57577">
        <ele>521</ele>
        <time>2021-08-10T10:44:08.802Z</time>
      </trkpt>
      <trkpt lat="46.93573" lon="8.57579">
        <ele>522</ele>
        <time>2021-08-10T10:44:09.801Z</time>
      </trkpt>
      <trkpt lat="46.93572" lon="8.5758">
        <ele>522</ele>
        <time>2021-08-10T10:44:10.801Z</time>
      </trkpt>
      <trkpt lat="46.93572" lon="8.57581">
        <ele>522</ele>
        <time>2021-08-10T10:44:11.802Z</time>
      </trkpt>
      <trkpt lat="46.93572" lon="8.57581">
        <ele>522</ele>
        <time>2021-08-10T10:44:12.801Z</time>
      </trkpt>
      <trkpt lat="46.93572" lon="8.57582">
        <ele>522</ele>
        <time>2021-08-10T10:44:13.802Z</time>
      </trkpt>
      <trkpt lat="46.93571" lon="8.57582">
        <ele>522</ele>
        <time>2021-08-10T10:44:14.802Z</time>
      </trkpt>
      <trkpt lat="46.93571" lon="8.57582">
        <ele>522</ele>
        <time>2021-08-10T10:44:15.801Z</time>
      </trkpt>
      <trkpt lat="46.93571" lon="8.57583">
        <ele>521</ele>
        <time>2021-08-10T10:44:16.802Z</time>
      </trkpt>
      <trkpt lat="46.9357" lon="8.57583">
        <ele>521</ele>
        <time>2021-08-10T10:44:17.802Z</time>
      </trkpt>
      <trkpt lat="46.9357" lon="8.57584">
        <ele>522</ele>
        <time>2021-08-10T10:44:18.801Z</time>
      </trkpt>
      <trkpt lat="46.9357" lon="8.57586">
        <ele>522</ele>
        <time>2021-08-10T10:44:19.802Z</time>
      </trkpt>
      <trkpt lat="46.93569" lon="8.57587">
        <ele>522</ele>
        <time>2021-08-10T10:44:20.801Z</time>
      </trkpt>
      <trkpt lat="46.93568" lon="8.57589">
        <ele>522</ele>
        <time>2021-08-10T10:44:21.802Z</time>
      </trkpt>
      <trkpt lat="46.93568" lon="8.5759">
        <ele>522</ele>
        <time>2021-08-10T10:44:22.802Z</time>
      </trkpt>
      <trkpt lat="46.93567" lon="8.5759">
        <ele>522</ele>
        <time>2021-08-10T10:44:23.801Z</time>
      </trkpt>
      <trkpt lat="46.93567" lon="8.57591">
        <ele>522</ele>
        <time>2021-08-10T10:44:24.802Z</time>
      </trkpt>
      <trkpt lat="46.93566" lon="8.57591">
        <ele>522</ele>
        <time>2021-08-10T10:44:25.801Z</time>
      </trkpt>
      <trkpt lat="46.93566" lon="8.57592">
        <ele>522</ele>
        <time>2021-08-10T10:44:26.801Z</time>
      </trkpt>
      <trkpt lat="46.93565" lon="8.57593">
        <ele>522</ele>
        <time>2021-08-10T10:44:27.801Z</time>
      </trkpt>
      <trkpt lat="46.93565" lon="8.57594">
        <ele>522</ele>
        <time>2021-08-10T10:44:28.801Z</time>
      </trkpt>
      <trkpt lat="46.93564" lon="8.57594">
        <ele>521</ele>
        <time>2021-08-10T10:44:29.802Z</time>
      </trkpt>
      <trkpt lat="46.93564" lon="8.57595">
        <ele>521</ele>
        <time>2021-08-10T10:44:30.801Z</time>
      </trkpt>
      <trkpt lat="46.93563" lon="8.57596">
        <ele>521</ele>
        <time>2021-08-10T10:44:31.801Z</time>
      </trkpt>
      <trkpt lat="46.93563" lon="8.57596">
        <ele>521</ele>
        <time>2021-08-10T10:44:32.801Z</time>
      </trkpt>
      <trkpt lat="46.93562" lon="8.57598">
        <ele>521</ele>
        <time>2021-08-10T10:44:33.801Z</time>
      </trkpt>
      <trkpt lat="46.93563" lon="8.576">
        <ele>520</ele>
        <time>2021-08-10T10:44:34.802Z</time>
      </trkpt>
      <trkpt lat="46.93562" lon="8.57601">
        <ele>520</ele>
        <time>2021-08-10T10:44:35.801Z</time>
      </trkpt>
      <trkpt lat="46.93562" lon="8.57602">
        <ele>520</ele>
        <time>2021-08-10T10:44:36.801Z</time>
      </trkpt>
      <trkpt lat="46.93561" lon="8.57603">
        <ele>519</ele>
        <time>2021-08-10T10:44:37.801Z</time>
      </trkpt>
      <trkpt lat="46.93561" lon="8.57605">
        <ele>519</ele>
        <time>2021-08-10T10:44:38.802Z</time>
      </trkpt>
      <trkpt lat="46.93561" lon="8.57605">
        <ele>518</ele>
        <time>2021-08-10T10:44:39.802Z</time>
      </trkpt>
      <trkpt lat="46.93561" lon="8.57606">
        <ele>518</ele>
        <time>2021-08-10T10:44:40.801Z</time>
      </trkpt>
      <trkpt lat="46.93561" lon="8.57607">
        <ele>517</ele>
        <time>2021-08-10T10:44:41.802Z</time>
      </trkpt>
      <trkpt lat="46.9356" lon="8.57607">
        <ele>517</ele>
        <time>2021-08-10T10:44:42.802Z</time>
      </trkpt>
      <trkpt lat="46.9356" lon="8.57608">
        <ele>516</ele>
        <time>2021-08-10T10:44:43.801Z</time>
      </trkpt>
      <trkpt lat="46.9356" lon="8.57608">
        <ele>516</ele>
        <time>2021-08-10T10:44:44.801Z</time>
      </trkpt>
      <trkpt lat="46.9356" lon="8.57608">
        <ele>515</ele>
        <time>2021-08-10T10:44:45.802Z</time>
      </trkpt>
      <trkpt lat="46.9356" lon="8.57608">
        <ele>515</ele>
        <time>2021-08-10T10:44:46.802Z</time>
      </trkpt>
      <trkpt lat="46.9356" lon="8.57607">
        <ele>514</ele>
        <time>2021-08-10T10:44:47.802Z</time>
      </trkpt>
      <trkpt lat="46.9356" lon="8.57607">
        <ele>514</ele>
        <time>2021-08-10T10:44:48.802Z</time>
      </trkpt>
      <trkpt lat="46.93561" lon="8.57607">
        <ele>513</ele>
        <time>2021-08-10T10:44:49.801Z</time>
      </trkpt>
      <trkpt lat="46.93562" lon="8.57607">
        <ele>513</ele>
        <time>2021-08-10T10:44:50.802Z</time>
      </trkpt>
      <trkpt lat="46.93562" lon="8.57607">
        <ele>513</ele>
        <time>2021-08-10T10:44:51.801Z</time>
      </trkpt>
      <trkpt lat="46.93562" lon="8.57606">
        <ele>513</ele>
        <time>2021-08-10T10:44:52.801Z</time>
      </trkpt>
      <trkpt lat="46.93562" lon="8.57606">
        <ele>512</ele>
        <time>2021-08-10T10:44:53.801Z</time>
      </trkpt>
      <trkpt lat="46.93558" lon="8.57611">
        <ele>509</ele>
        <time>2021-08-10T10:44:54.802Z</time>
      </trkpt>
      <trkpt lat="46.93558" lon="8.57612">
        <ele>509</ele>
        <time>2021-08-10T10:44:55.801Z</time>
      </trkpt>
      <trkpt lat="46.93558" lon="8.57612">
        <ele>509</ele>
        <time>2021-08-10T10:44:56.801Z</time>
      </trkpt>
      <trkpt lat="46.93559" lon="8.57611">
        <ele>509</ele>
        <time>2021-08-10T10:44:57.802Z</time>
      </trkpt>
      <trkpt lat="46.93559" lon="8.57611">
        <ele>509</ele>
        <time>2021-08-10T10:44:58.802Z</time>
      </trkpt>
      <trkpt lat="46.9356" lon="8.57609">
        <ele>508</ele>
        <time>2021-08-10T10:44:59.802Z</time>
      </trkpt>
      <trkpt lat="46.9356" lon="8.57609">
        <ele>507</ele>
        <time>2021-08-10T10:45:00.801Z</time>
      </trkpt>
      <trkpt lat="46.9356" lon="8.57608">
        <ele>506</ele>
        <time>2021-08-10T10:45:01.802Z</time>
      </trkpt>
      <trkpt lat="46.9356" lon="8.57608">
        <ele>505</ele>
        <time>2021-08-10T10:45:02.802Z</time>
      </trkpt>
      <trkpt lat="46.9356" lon="8.57609">
        <ele>504</ele>
        <time>2021-08-10T10:45:03.803Z</time>
      </trkpt>
      <trkpt lat="46.9356" lon="8.5761">
        <ele>503</ele>
        <time>2021-08-10T10:45:04.803Z</time>
      </trkpt>
      <trkpt lat="46.9356" lon="8.57611">
        <ele>503</ele>
        <time>2021-08-10T10:45:05.803Z</time>
      </trkpt>
      <trkpt lat="46.9356" lon="8.57612">
        <ele>503</ele>
        <time>2021-08-10T10:45:06.802Z</time>
      </trkpt>
      <trkpt lat="46.9356" lon="8.57612">
        <ele>502</ele>
        <time>2021-08-10T10:45:07.802Z</time>
      </trkpt>
      <trkpt lat="46.93559" lon="8.57613">
        <ele>502</ele>
        <time>2021-08-10T10:45:08.803Z</time>
      </trkpt>
      <trkpt lat="46.93559" lon="8.57613">
        <ele>501</ele>
        <time>2021-08-10T10:45:09.803Z</time>
      </trkpt>
      <trkpt lat="46.93559" lon="8.57614">
        <ele>500</ele>
        <time>2021-08-10T10:45:10.803Z</time>
      </trkpt>
      <trkpt lat="46.93559" lon="8.57616">
        <ele>499</ele>
        <time>2021-08-10T10:45:11.803Z</time>
      </trkpt>
      <trkpt lat="46.93559" lon="8.57616">
        <ele>499</ele>
        <time>2021-08-10T10:45:12.803Z</time>
      </trkpt>
      <trkpt lat="46.93558" lon="8.57617">
        <ele>498</ele>
        <time>2021-08-10T10:45:13.803Z</time>
      </trkpt>
      <trkpt lat="46.93558" lon="8.57618">
        <ele>498</ele>
        <time>2021-08-10T10:45:14.802Z</time>
      </trkpt>
      <trkpt lat="46.93558" lon="8.5762">
        <ele>498</ele>
        <time>2021-08-10T10:45:15.802Z</time>
      </trkpt>
      <trkpt lat="46.93557" lon="8.57621">
        <ele>499</ele>
        <time>2021-08-10T10:45:16.803Z</time>
      </trkpt>
      <trkpt lat="46.93557" lon="8.57621">
        <ele>499</ele>
        <time>2021-08-10T10:45:17.803Z</time>
      </trkpt>
      <trkpt lat="46.93557" lon="8.57621">
        <ele>499</ele>
        <time>2021-08-10T10:45:18.802Z</time>
      </trkpt>
      <trkpt lat="46.93558" lon="8.57622">
        <ele>499</ele>
        <time>2021-08-10T10:45:19.803Z</time>
      </trkpt>
      <trkpt lat="46.93557" lon="8.57624">
        <ele>499</ele>
        <time>2021-08-10T10:45:20.803Z</time>
      </trkpt>
      <trkpt lat="46.93556" lon="8.57625">
        <ele>499</ele>
        <time>2021-08-10T10:45:21.802Z</time>
      </trkpt>
      <trkpt lat="46.93556" lon="8.57627">
        <ele>500</ele>
        <time>2021-08-10T10:45:22.802Z</time>
      </trkpt>
      <trkpt lat="46.93556" lon="8.57628">
        <ele>500</ele>
        <time>2021-08-10T10:45:23.802Z</time>
      </trkpt>
      <trkpt lat="46.93555" lon="8.57629">
        <ele>501</ele>
        <time>2021-08-10T10:45:24.803Z</time>
      </trkpt>
      <trkpt lat="46.93555" lon="8.5763">
        <ele>502</ele>
        <time>2021-08-10T10:45:25.803Z</time>
      </trkpt>
      <trkpt lat="46.93555" lon="8.57631">
        <ele>503</ele>
        <time>2021-08-10T10:45:26.803Z</time>
      </trkpt>
      <trkpt lat="46.93555" lon="8.57631">
        <ele>503</ele>
        <time>2021-08-10T10:45:27.802Z</time>
      </trkpt>
      <trkpt lat="46.93555" lon="8.57631">
        <ele>503</ele>
        <time>2021-08-10T10:45:28.803Z</time>
      </trkpt>
      <trkpt lat="46.93555" lon="8.57632">
        <ele>503</ele>
        <time>2021-08-10T10:45:29.802Z</time>
      </trkpt>
      <trkpt lat="46.93554" lon="8.57632">
        <ele>504</ele>
        <time>2021-08-10T10:45:30.802Z</time>
      </trkpt>
      <trkpt lat="46.93554" lon="8.57631">
        <ele>504</ele>
        <time>2021-08-10T10:45:31.802Z</time>
      </trkpt>
      <trkpt lat="46.93553" lon="8.57631">
        <ele>504</ele>
        <time>2021-08-10T10:45:32.802Z</time>
      </trkpt>
      <trkpt lat="46.93552" lon="8.57631">
        <ele>503</ele>
        <time>2021-08-10T10:45:33.803Z</time>
      </trkpt>
      <trkpt lat="46.93551" lon="8.57632">
        <ele>503</ele>
        <time>2021-08-10T10:45:34.803Z</time>
      </trkpt>
      <trkpt lat="46.9355" lon="8.57632">
        <ele>502</ele>
        <time>2021-08-10T10:45:35.802Z</time>
      </trkpt>
      <trkpt lat="46.9355" lon="8.57632">
        <ele>502</ele>
        <time>2021-08-10T10:45:36.803Z</time>
      </trkpt>
      <trkpt lat="46.9355" lon="8.57632">
        <ele>501</ele>
        <time>2021-08-10T10:45:37.803Z</time>
      </trkpt>
      <trkpt lat="46.9355" lon="8.57633">
        <ele>500</ele>
        <time>2021-08-10T10:45:38.803Z</time>
      </trkpt>
      <trkpt lat="46.93547" lon="8.57631">
        <ele>499</ele>
        <time>2021-08-10T10:45:39.804Z</time>
      </trkpt>
      <trkpt lat="46.93546" lon="8.57631">
        <ele>498</ele>
        <time>2021-08-10T10:45:40.803Z</time>
      </trkpt>
      <trkpt lat="46.93545" lon="8.57632">
        <ele>498</ele>
        <time>2021-08-10T10:45:41.804Z</time>
      </trkpt>
      <trkpt lat="46.93545" lon="8.57632">
        <ele>498</ele>
        <time>2021-08-10T10:45:42.803Z</time>
      </trkpt>
      <trkpt lat="46.93544" lon="8.57632">
        <ele>498</ele>
        <time>2021-08-10T10:45:43.803Z</time>
      </trkpt>
      <trkpt lat="46.93543" lon="8.57633">
        <ele>498</ele>
        <time>2021-08-10T10:45:44.803Z</time>
      </trkpt>
      <trkpt lat="46.93543" lon="8.57633">
        <ele>498</ele>
        <time>2021-08-10T10:45:45.803Z</time>
      </trkpt>
      <trkpt lat="46.93542" lon="8.57633">
        <ele>499</ele>
        <time>2021-08-10T10:45:46.803Z</time>
      </trkpt>
      <trkpt lat="46.93541" lon="8.57633">
        <ele>499</ele>
        <time>2021-08-10T10:45:47.803Z</time>
      </trkpt>
      <trkpt lat="46.93541" lon="8.57633">
        <ele>499</ele>
        <time>2021-08-10T10:45:48.803Z</time>
      </trkpt>
      <trkpt lat="46.9354" lon="8.57633">
        <ele>498</ele>
        <time>2021-08-10T10:45:49.803Z</time>
      </trkpt>
      <trkpt lat="46.9354" lon="8.57633">
        <ele>499</ele>
        <time>2021-08-10T10:45:50.804Z</time>
      </trkpt>
      <trkpt lat="46.93539" lon="8.57633">
        <ele>499</ele>
        <time>2021-08-10T10:45:51.803Z</time>
      </trkpt>
      <trkpt lat="46.93539" lon="8.57633">
        <ele>499</ele>
        <time>2021-08-10T10:45:52.803Z</time>
      </trkpt>
      <trkpt lat="46.93538" lon="8.57632">
        <ele>499</ele>
        <time>2021-08-10T10:45:53.804Z</time>
      </trkpt>
      <trkpt lat="46.93537" lon="8.57631">
        <ele>498</ele>
        <time>2021-08-10T10:45:54.803Z</time>
      </trkpt>
      <trkpt lat="46.93536" lon="8.5763">
        <ele>498</ele>
        <time>2021-08-10T10:45:55.803Z</time>
      </trkpt>
      <trkpt lat="46.93536" lon="8.57629">
        <ele>498</ele>
        <time>2021-08-10T10:45:56.803Z</time>
      </trkpt>
      <trkpt lat="46.93535" lon="8.57628">
        <ele>498</ele>
        <time>2021-08-10T10:45:57.803Z</time>
      </trkpt>
      <trkpt lat="46.93534" lon="8.57627">
        <ele>498</ele>
        <time>2021-08-10T10:45:58.803Z</time>
      </trkpt>
      <trkpt lat="46.93533" lon="8.57626">
        <ele>498</ele>
        <time>2021-08-10T10:45:59.803Z</time>
      </trkpt>
      <trkpt lat="46.93533" lon="8.57627">
        <ele>498</ele>
        <time>2021-08-10T10:46:00.803Z</time>
      </trkpt>
      <trkpt lat="46.93532" lon="8.57628">
        <ele>498</ele>
        <time>2021-08-10T10:46:01.804Z</time>
      </trkpt>
      <trkpt lat="46.93531" lon="8.57629">
        <ele>498</ele>
        <time>2021-08-10T10:46:02.803Z</time>
      </trkpt>
      <trkpt lat="46.93531" lon="8.57629">
        <ele>498</ele>
        <time>2021-08-10T10:46:03.803Z</time>
      </trkpt>
      <trkpt lat="46.93531" lon="8.57629">
        <ele>498</ele>
        <time>2021-08-10T10:46:04.803Z</time>
      </trkpt>
      <trkpt lat="46.9353" lon="8.57629">
        <ele>498</ele>
        <time>2021-08-10T10:46:05.803Z</time>
      </trkpt>
      <trkpt lat="46.93529" lon="8.5763">
        <ele>499</ele>
        <time>2021-08-10T10:46:06.803Z</time>
      </trkpt>
      <trkpt lat="46.93528" lon="8.5763">
        <ele>500</ele>
        <time>2021-08-10T10:46:07.803Z</time>
      </trkpt>
      <trkpt lat="46.93527" lon="8.57631">
        <ele>500</ele>
        <time>2021-08-10T10:46:08.803Z</time>
      </trkpt>
      <trkpt lat="46.93527" lon="8.57632">
        <ele>500</ele>
        <time>2021-08-10T10:46:09.803Z</time>
      </trkpt>
      <trkpt lat="46.93526" lon="8.57632">
        <ele>500</ele>
        <time>2021-08-10T10:46:10.803Z</time>
      </trkpt>
      <trkpt lat="46.93526" lon="8.57633">
        <ele>500</ele>
        <time>2021-08-10T10:46:11.803Z</time>
      </trkpt>
      <trkpt lat="46.93526" lon="8.57634">
        <ele>500</ele>
        <time>2021-08-10T10:46:12.804Z</time>
      </trkpt>
      <trkpt lat="46.93525" lon="8.57635">
        <ele>500</ele>
        <time>2021-08-10T10:46:13.803Z</time>
      </trkpt>
      <trkpt lat="46.93525" lon="8.57637">
        <ele>500</ele>
        <time>2021-08-10T10:46:14.803Z</time>
      </trkpt>
      <trkpt lat="46.93524" lon="8.57638">
        <ele>500</ele>
        <time>2021-08-10T10:46:15.804Z</time>
      </trkpt>
      <trkpt lat="46.93524" lon="8.5764">
        <ele>499</ele>
        <time>2021-08-10T10:46:16.803Z</time>
      </trkpt>
      <trkpt lat="46.93524" lon="8.57641">
        <ele>499</ele>
        <time>2021-08-10T10:46:17.803Z</time>
      </trkpt>
      <trkpt lat="46.93524" lon="8.57641">
        <ele>499</ele>
        <time>2021-08-10T10:46:18.803Z</time>
      </trkpt>
      <trkpt lat="46.93524" lon="8.57642">
        <ele>499</ele>
        <time>2021-08-10T10:46:19.804Z</time>
      </trkpt>
      <trkpt lat="46.93524" lon="8.57642">
        <ele>498</ele>
        <time>2021-08-10T10:46:20.804Z</time>
      </trkpt>
      <trkpt lat="46.93524" lon="8.57642">
        <ele>498</ele>
        <time>2021-08-10T10:46:21.804Z</time>
      </trkpt>
      <trkpt lat="46.93523" lon="8.57643">
        <ele>498</ele>
        <time>2021-08-10T10:46:22.804Z</time>
      </trkpt>
      <trkpt lat="46.93522" lon="8.57645">
        <ele>498</ele>
        <time>2021-08-10T10:46:23.803Z</time>
      </trkpt>
      <trkpt lat="46.93521" lon="8.57646">
        <ele>498</ele>
        <time>2021-08-10T10:46:24.803Z</time>
      </trkpt>
      <trkpt lat="46.9352" lon="8.57647">
        <ele>498</ele>
        <time>2021-08-10T10:46:25.803Z</time>
      </trkpt>
      <trkpt lat="46.9352" lon="8.57648">
        <ele>498</ele>
        <time>2021-08-10T10:46:26.804Z</time>
      </trkpt>
      <trkpt lat="46.93519" lon="8.57648">
        <ele>498</ele>
        <time>2021-08-10T10:46:27.804Z</time>
      </trkpt>
      <trkpt lat="46.93519" lon="8.57649">
        <ele>498</ele>
        <time>2021-08-10T10:46:28.804Z</time>
      </trkpt>
      <trkpt lat="46.93518" lon="8.57649">
        <ele>498</ele>
        <time>2021-08-10T10:46:29.804Z</time>
      </trkpt>
      <trkpt lat="46.93518" lon="8.57648">
        <ele>498</ele>
        <time>2021-08-10T10:46:30.804Z</time>
      </trkpt>
      <trkpt lat="46.93517" lon="8.57647">
        <ele>498</ele>
        <time>2021-08-10T10:46:31.804Z</time>
      </trkpt>
      <trkpt lat="46.93517" lon="8.57647">
        <ele>498</ele>
        <time>2021-08-10T10:46:32.803Z</time>
      </trkpt>
      <trkpt lat="46.93515" lon="8.57647">
        <ele>498</ele>
        <time>2021-08-10T10:46:33.804Z</time>
      </trkpt>
      <trkpt lat="46.93514" lon="8.57646">
        <ele>498</ele>
        <time>2021-08-10T10:46:34.804Z</time>
      </trkpt>
      <trkpt lat="46.93514" lon="8.57646">
        <ele>499</ele>
        <time>2021-08-10T10:46:35.804Z</time>
      </trkpt>
      <trkpt lat="46.93513" lon="8.57646">
        <ele>499</ele>
        <time>2021-08-10T10:46:36.804Z</time>
      </trkpt>
      <trkpt lat="46.93513" lon="8.57645">
        <ele>499</ele>
        <time>2021-08-10T10:46:37.803Z</time>
      </trkpt>
      <trkpt lat="46.93513" lon="8.57644">
        <ele>499</ele>
        <time>2021-08-10T10:46:38.803Z</time>
      </trkpt>
      <trkpt lat="46.93512" lon="8.57644">
        <ele>498</ele>
        <time>2021-08-10T10:46:39.804Z</time>
      </trkpt>
      <trkpt lat="46.93511" lon="8.57644">
        <ele>498</ele>
        <time>2021-08-10T10:46:40.803Z</time>
      </trkpt>
      <trkpt lat="46.93511" lon="8.57644">
        <ele>497</ele>
        <time>2021-08-10T10:46:41.804Z</time>
      </trkpt>
      <trkpt lat="46.9351" lon="8.57644">
        <ele>497</ele>
        <time>2021-08-10T10:46:42.804Z</time>
      </trkpt>
      <trkpt lat="46.93509" lon="8.57644">
        <ele>497</ele>
        <time>2021-08-10T10:46:43.804Z</time>
      </trkpt>
      <trkpt lat="46.93507" lon="8.57644">
        <ele>497</ele>
        <time>2021-08-10T10:46:44.804Z</time>
      </trkpt>
      <trkpt lat="46.93507" lon="8.57644">
        <ele>496</ele>
        <time>2021-08-10T10:46:45.804Z</time>
      </trkpt>
      <trkpt lat="46.93505" lon="8.57644">
        <ele>496</ele>
        <time>2021-08-10T10:46:46.804Z</time>
      </trkpt>
      <trkpt lat="46.93504" lon="8.57643">
        <ele>495</ele>
        <time>2021-08-10T10:46:47.803Z</time>
      </trkpt>
      <trkpt lat="46.93503" lon="8.57642">
        <ele>495</ele>
        <time>2021-08-10T10:46:48.804Z</time>
      </trkpt>
      <trkpt lat="46.93502" lon="8.57643">
        <ele>495</ele>
        <time>2021-08-10T10:46:49.804Z</time>
      </trkpt>
      <trkpt lat="46.93501" lon="8.57643">
        <ele>495</ele>
        <time>2021-08-10T10:46:50.804Z</time>
      </trkpt>
      <trkpt lat="46.935" lon="8.57643">
        <ele>495</ele>
        <time>2021-08-10T10:46:51.803Z</time>
      </trkpt>
      <trkpt lat="46.93499" lon="8.57643">
        <ele>495</ele>
        <time>2021-08-10T10:46:52.803Z</time>
      </trkpt>
      <trkpt lat="46.93498" lon="8.57643">
        <ele>496</ele>
        <time>2021-08-10T10:46:53.803Z</time>
      </trkpt>
      <trkpt lat="46.93497" lon="8.57643">
        <ele>496</ele>
        <time>2021-08-10T10:46:54.804Z</time>
      </trkpt>
      <trkpt lat="46.93495" lon="8.57643">
        <ele>497</ele>
        <time>2021-08-10T10:46:55.804Z</time>
      </trkpt>
      <trkpt lat="46.93491" lon="8.57645">
        <ele>501</ele>
        <time>2021-08-10T10:46:56.803Z</time>
      </trkpt>
      <trkpt lat="46.9349" lon="8.57645">
        <ele>502</ele>
        <time>2021-08-10T10:46:57.803Z</time>
      </trkpt>
      <trkpt lat="46.93489" lon="8.57644">
        <ele>503</ele>
        <time>2021-08-10T10:46:58.804Z</time>
      </trkpt>
      <trkpt lat="46.93489" lon="8.57644">
        <ele>503</ele>
        <time>2021-08-10T10:46:59.803Z</time>
      </trkpt>
      <trkpt lat="46.93487" lon="8.57645">
        <ele>504</ele>
        <time>2021-08-10T10:47:00.804Z</time>
      </trkpt>
      <trkpt lat="46.93486" lon="8.57647">
        <ele>504</ele>
        <time>2021-08-10T10:47:01.803Z</time>
      </trkpt>
      <trkpt lat="46.93485" lon="8.57647">
        <ele>504</ele>
        <time>2021-08-10T10:47:02.804Z</time>
      </trkpt>
      <trkpt lat="46.93485" lon="8.57648">
        <ele>504</ele>
        <time>2021-08-10T10:47:03.803Z</time>
      </trkpt>
      <trkpt lat="46.93484" lon="8.57649">
        <ele>503</ele>
        <time>2021-08-10T10:47:04.803Z</time>
      </trkpt>
      <trkpt lat="46.93483" lon="8.57649">
        <ele>502</ele>
        <time>2021-08-10T10:47:05.804Z</time>
      </trkpt>
      <trkpt lat="46.93482" lon="8.5765">
        <ele>501</ele>
        <time>2021-08-10T10:47:06.803Z</time>
      </trkpt>
      <trkpt lat="46.93481" lon="8.57651">
        <ele>501</ele>
        <time>2021-08-10T10:47:07.804Z</time>
      </trkpt>
      <trkpt lat="46.93481" lon="8.57651">
        <ele>499</ele>
        <time>2021-08-10T10:47:08.804Z</time>
      </trkpt>
      <trkpt lat="46.9348" lon="8.57653">
        <ele>498</ele>
        <time>2021-08-10T10:47:09.804Z</time>
      </trkpt>
      <trkpt lat="46.93478" lon="8.57654">
        <ele>497</ele>
        <time>2021-08-10T10:47:10.804Z</time>
      </trkpt>
      <trkpt lat="46.93477" lon="8.57654">
        <ele>496</ele>
        <time>2021-08-10T10:47:11.803Z</time>
      </trkpt>
      <trkpt lat="46.93476" lon="8.57654">
        <ele>495</ele>
        <time>2021-08-10T10:47:12.803Z</time>
      </trkpt>
      <trkpt lat="46.93475" lon="8.57654">
        <ele>495</ele>
        <time>2021-08-10T10:47:13.803Z</time>
      </trkpt>
      <trkpt lat="46.93474" lon="8.57655">
        <ele>494</ele>
        <time>2021-08-10T10:47:14.804Z</time>
      </trkpt>
      <trkpt lat="46.93473" lon="8.57655">
        <ele>494</ele>
        <time>2021-08-10T10:47:15.803Z</time>
      </trkpt>
      <trkpt lat="46.93472" lon="8.57655">
        <ele>494</ele>
        <time>2021-08-10T10:47:16.803Z</time>
      </trkpt>
      <trkpt lat="46.93471" lon="8.57656">
        <ele>493</ele>
        <time>2021-08-10T10:47:17.803Z</time>
      </trkpt>
      <trkpt lat="46.93471" lon="8.57656">
        <ele>493</ele>
        <time>2021-08-10T10:47:18.804Z</time>
      </trkpt>
      <trkpt lat="46.9347" lon="8.57657">
        <ele>492</ele>
        <time>2021-08-10T10:47:19.803Z</time>
      </trkpt>
      <trkpt lat="46.9347" lon="8.57657">
        <ele>492</ele>
        <time>2021-08-10T10:47:20.803Z</time>
      </trkpt>
      <trkpt lat="46.93469" lon="8.57658">
        <ele>491</ele>
        <time>2021-08-10T10:47:21.804Z</time>
      </trkpt>
      <trkpt lat="46.93468" lon="8.57658">
        <ele>491</ele>
        <time>2021-08-10T10:47:22.803Z</time>
      </trkpt>
      <trkpt lat="46.93468" lon="8.57659">
        <ele>492</ele>
        <time>2021-08-10T10:47:23.803Z</time>
      </trkpt>
      <trkpt lat="46.93467" lon="8.57659">
        <ele>492</ele>
        <time>2021-08-10T10:47:24.803Z</time>
      </trkpt>
      <trkpt lat="46.93466" lon="8.5766">
        <ele>492</ele>
        <time>2021-08-10T10:47:25.804Z</time>
      </trkpt>
      <trkpt lat="46.93466" lon="8.5766">
        <ele>492</ele>
        <time>2021-08-10T10:47:26.803Z</time>
      </trkpt>
      <trkpt lat="46.93465" lon="8.5766">
        <ele>492</ele>
        <time>2021-08-10T10:47:27.803Z</time>
      </trkpt>
      <trkpt lat="46.93465" lon="8.5766">
        <ele>493</ele>
        <time>2021-08-10T10:47:28.803Z</time>
      </trkpt>
      <trkpt lat="46.93464" lon="8.5766">
        <ele>493</ele>
        <time>2021-08-10T10:47:29.804Z</time>
      </trkpt>
      <trkpt lat="46.93463" lon="8.5766">
        <ele>493</ele>
        <time>2021-08-10T10:47:30.803Z</time>
      </trkpt>
      <trkpt lat="46.93462" lon="8.5766">
        <ele>493</ele>
        <time>2021-08-10T10:47:31.803Z</time>
      </trkpt>
      <trkpt lat="46.93461" lon="8.57659">
        <ele>493</ele>
        <time>2021-08-10T10:47:32.804Z</time>
      </trkpt>
      <trkpt lat="46.9346" lon="8.57658">
        <ele>494</ele>
        <time>2021-08-10T10:47:33.804Z</time>
      </trkpt>
      <trkpt lat="46.93459" lon="8.57657">
        <ele>494</ele>
        <time>2021-08-10T10:47:34.804Z</time>
      </trkpt>
      <trkpt lat="46.93458" lon="8.57657">
        <ele>494</ele>
        <time>2021-08-10T10:47:35.803Z</time>
      </trkpt>
      <trkpt lat="46.93457" lon="8.57656">
        <ele>494</ele>
        <time>2021-08-10T10:47:36.803Z</time>
      </trkpt>
      <trkpt lat="46.93456" lon="8.57656">
        <ele>494</ele>
        <time>2021-08-10T10:47:37.803Z</time>
      </trkpt>
      <trkpt lat="46.93457" lon="8.57656">
        <ele>494</ele>
        <time>2021-08-10T10:47:38.804Z</time>
      </trkpt>
      <trkpt lat="46.93455" lon="8.57657">
        <ele>493</ele>
        <time>2021-08-10T10:47:39.804Z</time>
      </trkpt>
      <trkpt lat="46.93454" lon="8.57658">
        <ele>493</ele>
        <time>2021-08-10T10:47:40.804Z</time>
      </trkpt>
      <trkpt lat="46.93454" lon="8.57659">
        <ele>492</ele>
        <time>2021-08-10T10:47:41.804Z</time>
      </trkpt>
      <trkpt lat="46.93453" lon="8.5766">
        <ele>492</ele>
        <time>2021-08-10T10:47:42.804Z</time>
      </trkpt>
      <trkpt lat="46.93452" lon="8.5766">
        <ele>492</ele>
        <time>2021-08-10T10:47:43.804Z</time>
      </trkpt>
      <trkpt lat="46.93451" lon="8.57661">
        <ele>491</ele>
        <time>2021-08-10T10:47:44.804Z</time>
      </trkpt>
      <trkpt lat="46.9345" lon="8.57662">
        <ele>491</ele>
        <time>2021-08-10T10:47:45.804Z</time>
      </trkpt>
      <trkpt lat="46.93449" lon="8.57663">
        <ele>490</ele>
        <time>2021-08-10T10:47:46.805Z</time>
      </trkpt>
      <trkpt lat="46.93448" lon="8.57664">
        <ele>489</ele>
        <time>2021-08-10T10:47:47.804Z</time>
      </trkpt>
      <trkpt lat="46.93447" lon="8.57665">
        <ele>489</ele>
        <time>2021-08-10T10:47:48.804Z</time>
      </trkpt>
      <trkpt lat="46.93446" lon="8.57666">
        <ele>488</ele>
        <time>2021-08-10T10:47:49.804Z</time>
      </trkpt>
      <trkpt lat="46.93446" lon="8.57667">
        <ele>488</ele>
        <time>2021-08-10T10:47:50.805Z</time>
      </trkpt>
      <trkpt lat="46.93445" lon="8.57668">
        <ele>488</ele>
        <time>2021-08-10T10:47:51.804Z</time>
      </trkpt>
      <trkpt lat="46.93444" lon="8.57668">
        <ele>488</ele>
        <time>2021-08-10T10:47:52.804Z</time>
      </trkpt>
      <trkpt lat="46.93443" lon="8.57669">
        <ele>487</ele>
        <time>2021-08-10T10:47:53.804Z</time>
      </trkpt>
      <trkpt lat="46.93442" lon="8.57669">
        <ele>487</ele>
        <time>2021-08-10T10:47:54.804Z</time>
      </trkpt>
      <trkpt lat="46.93441" lon="8.57671">
        <ele>486</ele>
        <time>2021-08-10T10:47:55.804Z</time>
      </trkpt>
      <trkpt lat="46.9344" lon="8.57672">
        <ele>486</ele>
        <time>2021-08-10T10:47:56.804Z</time>
      </trkpt>
      <trkpt lat="46.9344" lon="8.57672">
        <ele>486</ele>
        <time>2021-08-10T10:47:57.805Z</time>
      </trkpt>
      <trkpt lat="46.93439" lon="8.57672">
        <ele>485</ele>
        <time>2021-08-10T10:47:58.804Z</time>
      </trkpt>
      <trkpt lat="46.93438" lon="8.57674">
        <ele>485</ele>
        <time>2021-08-10T10:47:59.804Z</time>
      </trkpt>
      <trkpt lat="46.93437" lon="8.57674">
        <ele>484</ele>
        <time>2021-08-10T10:48:00.804Z</time>
      </trkpt>
      <trkpt lat="46.93436" lon="8.57674">
        <ele>483</ele>
        <time>2021-08-10T10:48:01.804Z</time>
      </trkpt>
      <trkpt lat="46.93436" lon="8.57675">
        <ele>483</ele>
        <time>2021-08-10T10:48:02.805Z</time>
      </trkpt>
      <trkpt lat="46.93435" lon="8.57675">
        <ele>482</ele>
        <time>2021-08-10T10:48:03.804Z</time>
      </trkpt>
      <trkpt lat="46.93435" lon="8.57675">
        <ele>481</ele>
        <time>2021-08-10T10:48:04.804Z</time>
      </trkpt>
      <trkpt lat="46.93434" lon="8.57675">
        <ele>480</ele>
        <time>2021-08-10T10:48:05.804Z</time>
      </trkpt>
      <trkpt lat="46.93434" lon="8.57676">
        <ele>480</ele>
        <time>2021-08-10T10:48:06.804Z</time>
      </trkpt>
      <trkpt lat="46.93434" lon="8.57676">
        <ele>479</ele>
        <time>2021-08-10T10:48:07.804Z</time>
      </trkpt>
      <trkpt lat="46.93433" lon="8.57677">
        <ele>479</ele>
        <time>2021-08-10T10:48:08.804Z</time>
      </trkpt>
      <trkpt lat="46.93433" lon="8.57677">
        <ele>478</ele>
        <time>2021-08-10T10:48:09.804Z</time>
      </trkpt>
      <trkpt lat="46.93433" lon="8.57677">
        <ele>478</ele>
        <time>2021-08-10T10:48:10.804Z</time>
      </trkpt>
      <trkpt lat="46.93432" lon="8.57677">
        <ele>475</ele>
        <time>2021-08-10T10:48:11.805Z</time>
      </trkpt>
      <trkpt lat="46.93431" lon="8.57678">
        <ele>475</ele>
        <time>2021-08-10T10:48:12.806Z</time>
      </trkpt>
      <trkpt lat="46.9343" lon="8.57679">
        <ele>475</ele>
        <time>2021-08-10T10:48:13.806Z</time>
      </trkpt>
      <trkpt lat="46.9343" lon="8.57679">
        <ele>475</ele>
        <time>2021-08-10T10:48:14.806Z</time>
      </trkpt>
      <trkpt lat="46.93429" lon="8.5768">
        <ele>475</ele>
        <time>2021-08-10T10:48:15.805Z</time>
      </trkpt>
      <trkpt lat="46.93428" lon="8.57681">
        <ele>475</ele>
        <time>2021-08-10T10:48:16.806Z</time>
      </trkpt>
      <trkpt lat="46.93427" lon="8.57681">
        <ele>475</ele>
        <time>2021-08-10T10:48:17.806Z</time>
      </trkpt>
      <trkpt lat="46.93426" lon="8.57682">
        <ele>475</ele>
        <time>2021-08-10T10:48:18.806Z</time>
      </trkpt>
      <trkpt lat="46.93425" lon="8.57682">
        <ele>475</ele>
        <time>2021-08-10T10:48:19.806Z</time>
      </trkpt>
      <trkpt lat="46.93424" lon="8.57683">
        <ele>475</ele>
        <time>2021-08-10T10:48:20.805Z</time>
      </trkpt>
      <trkpt lat="46.93423" lon="8.57683">
        <ele>475</ele>
        <time>2021-08-10T10:48:21.805Z</time>
      </trkpt>
      <trkpt lat="46.93422" lon="8.57684">
        <ele>475</ele>
        <time>2021-08-10T10:48:22.806Z</time>
      </trkpt>
      <trkpt lat="46.93421" lon="8.57685">
        <ele>475</ele>
        <time>2021-08-10T10:48:23.805Z</time>
      </trkpt>
      <trkpt lat="46.9342" lon="8.57685">
        <ele>476</ele>
        <time>2021-08-10T10:48:24.806Z</time>
      </trkpt>
      <trkpt lat="46.93419" lon="8.57686">
        <ele>476</ele>
        <time>2021-08-10T10:48:25.806Z</time>
      </trkpt>
      <trkpt lat="46.93418" lon="8.57686">
        <ele>477</ele>
        <time>2021-08-10T10:48:26.806Z</time>
      </trkpt>
      <trkpt lat="46.93417" lon="8.57686">
        <ele>477</ele>
        <time>2021-08-10T10:48:27.805Z</time>
      </trkpt>
      <trkpt lat="46.93417" lon="8.57686">
        <ele>478</ele>
        <time>2021-08-10T10:48:28.805Z</time>
      </trkpt>
      <trkpt lat="46.93416" lon="8.57686">
        <ele>478</ele>
        <time>2021-08-10T10:48:29.806Z</time>
      </trkpt>
      <trkpt lat="46.93415" lon="8.57687">
        <ele>479</ele>
        <time>2021-08-10T10:48:30.806Z</time>
      </trkpt>
      <trkpt lat="46.93414" lon="8.57687">
        <ele>479</ele>
        <time>2021-08-10T10:48:31.806Z</time>
      </trkpt>
      <trkpt lat="46.93414" lon="8.57687">
        <ele>480</ele>
        <time>2021-08-10T10:48:32.805Z</time>
      </trkpt>
      <trkpt lat="46.93413" lon="8.57688">
        <ele>480</ele>
        <time>2021-08-10T10:48:33.805Z</time>
      </trkpt>
      <trkpt lat="46.93412" lon="8.57688">
        <ele>480</ele>
        <time>2021-08-10T10:48:34.806Z</time>
      </trkpt>
      <trkpt lat="46.93412" lon="8.57688">
        <ele>480</ele>
        <time>2021-08-10T10:48:35.806Z</time>
      </trkpt>
      <trkpt lat="46.93411" lon="8.57688">
        <ele>481</ele>
        <time>2021-08-10T10:48:36.806Z</time>
      </trkpt>
      <trkpt lat="46.9341" lon="8.57687">
        <ele>481</ele>
        <time>2021-08-10T10:48:37.805Z</time>
      </trkpt>
      <trkpt lat="46.93409" lon="8.57687">
        <ele>480</ele>
        <time>2021-08-10T10:48:38.806Z</time>
      </trkpt>
      <trkpt lat="46.93408" lon="8.57687">
        <ele>480</ele>
        <time>2021-08-10T10:48:39.805Z</time>
      </trkpt>
      <trkpt lat="46.93407" lon="8.57687">
        <ele>480</ele>
        <time>2021-08-10T10:48:40.805Z</time>
      </trkpt>
      <trkpt lat="46.93407" lon="8.57686">
        <ele>480</ele>
        <time>2021-08-10T10:48:41.806Z</time>
      </trkpt>
      <trkpt lat="46.93406" lon="8.57686">
        <ele>480</ele>
        <time>2021-08-10T10:48:42.806Z</time>
      </trkpt>
      <trkpt lat="46.93404" lon="8.57686">
        <ele>481</ele>
        <time>2021-08-10T10:48:43.806Z</time>
      </trkpt>
      <trkpt lat="46.93403" lon="8.57687">
        <ele>482</ele>
        <time>2021-08-10T10:48:44.806Z</time>
      </trkpt>
      <trkpt lat="46.93402" lon="8.57687">
        <ele>482</ele>
        <time>2021-08-10T10:48:45.805Z</time>
      </trkpt>
      <trkpt lat="46.93401" lon="8.57688">
        <ele>482</ele>
        <time>2021-08-10T10:48:46.805Z</time>
      </trkpt>
      <trkpt lat="46.934" lon="8.57689">
        <ele>482</ele>
        <time>2021-08-10T10:48:47.805Z</time>
      </trkpt>
      <trkpt lat="46.93399" lon="8.5769">
        <ele>482</ele>
        <time>2021-08-10T10:48:48.805Z</time>
      </trkpt>
      <trkpt lat="46.93399" lon="8.57691">
        <ele>482</ele>
        <time>2021-08-10T10:48:49.806Z</time>
      </trkpt>
      <trkpt lat="46.93397" lon="8.57691">
        <ele>482</ele>
        <time>2021-08-10T10:48:50.805Z</time>
      </trkpt>
      <trkpt lat="46.93397" lon="8.57692">
        <ele>482</ele>
        <time>2021-08-10T10:48:51.806Z</time>
      </trkpt>
      <trkpt lat="46.93396" lon="8.57693">
        <ele>481</ele>
        <time>2021-08-10T10:48:52.806Z</time>
      </trkpt>
      <trkpt lat="46.93395" lon="8.57694">
        <ele>481</ele>
        <time>2021-08-10T10:48:53.806Z</time>
      </trkpt>
      <trkpt lat="46.93394" lon="8.57695">
        <ele>480</ele>
        <time>2021-08-10T10:48:54.806Z</time>
      </trkpt>
      <trkpt lat="46.93394" lon="8.57696">
        <ele>479</ele>
        <time>2021-08-10T10:48:55.806Z</time>
      </trkpt>
      <trkpt lat="46.93393" lon="8.57696">
        <ele>479</ele>
        <time>2021-08-10T10:48:56.806Z</time>
      </trkpt>
      <trkpt lat="46.93392" lon="8.57697">
        <ele>478</ele>
        <time>2021-08-10T10:48:57.806Z</time>
      </trkpt>
      <trkpt lat="46.93392" lon="8.57697">
        <ele>477</ele>
        <time>2021-08-10T10:48:58.806Z</time>
      </trkpt>
      <trkpt lat="46.93391" lon="8.57698">
        <ele>476</ele>
        <time>2021-08-10T10:48:59.805Z</time>
      </trkpt>
      <trkpt lat="46.9339" lon="8.57698">
        <ele>476</ele>
        <time>2021-08-10T10:49:00.806Z</time>
      </trkpt>
      <trkpt lat="46.93389" lon="8.57699">
        <ele>475</ele>
        <time>2021-08-10T10:49:01.805Z</time>
      </trkpt>
      <trkpt lat="46.93389" lon="8.57699">
        <ele>476</ele>
        <time>2021-08-10T10:49:02.805Z</time>
      </trkpt>
      <trkpt lat="46.93388" lon="8.577">
        <ele>476</ele>
        <time>2021-08-10T10:49:03.805Z</time>
      </trkpt>
      <trkpt lat="46.93387" lon="8.57702">
        <ele>476</ele>
        <time>2021-08-10T10:49:04.806Z</time>
      </trkpt>
      <trkpt lat="46.93387" lon="8.57702">
        <ele>477</ele>
        <time>2021-08-10T10:49:05.806Z</time>
      </trkpt>
      <trkpt lat="46.93386" lon="8.57703">
        <ele>477</ele>
        <time>2021-08-10T10:49:06.805Z</time>
      </trkpt>
      <trkpt lat="46.93385" lon="8.57704">
        <ele>477</ele>
        <time>2021-08-10T10:49:07.806Z</time>
      </trkpt>
      <trkpt lat="46.93384" lon="8.57704">
        <ele>477</ele>
        <time>2021-08-10T10:49:08.805Z</time>
      </trkpt>
      <trkpt lat="46.93383" lon="8.57705">
        <ele>477</ele>
        <time>2021-08-10T10:49:09.805Z</time>
      </trkpt>
      <trkpt lat="46.93382" lon="8.57705">
        <ele>477</ele>
        <time>2021-08-10T10:49:10.805Z</time>
      </trkpt>
      <trkpt lat="46.93381" lon="8.57705">
        <ele>477</ele>
        <time>2021-08-10T10:49:11.805Z</time>
      </trkpt>
      <trkpt lat="46.9338" lon="8.57705">
        <ele>476</ele>
        <time>2021-08-10T10:49:12.805Z</time>
      </trkpt>
      <trkpt lat="46.9338" lon="8.57705">
        <ele>476</ele>
        <time>2021-08-10T10:49:13.806Z</time>
      </trkpt>
      <trkpt lat="46.93378" lon="8.57705">
        <ele>476</ele>
        <time>2021-08-10T10:49:14.806Z</time>
      </trkpt>
      <trkpt lat="46.93377" lon="8.57705">
        <ele>476</ele>
        <time>2021-08-10T10:49:15.805Z</time>
      </trkpt>
      <trkpt lat="46.93376" lon="8.57705">
        <ele>476</ele>
        <time>2021-08-10T10:49:16.806Z</time>
      </trkpt>
      <trkpt lat="46.93376" lon="8.57705">
        <ele>476</ele>
        <time>2021-08-10T10:49:17.805Z</time>
      </trkpt>
      <trkpt lat="46.93375" lon="8.57704">
        <ele>475</ele>
        <time>2021-08-10T10:49:18.806Z</time>
      </trkpt>
      <trkpt lat="46.93374" lon="8.57704">
        <ele>475</ele>
        <time>2021-08-10T10:49:19.806Z</time>
      </trkpt>
      <trkpt lat="46.93373" lon="8.57704">
        <ele>475</ele>
        <time>2021-08-10T10:49:20.806Z</time>
      </trkpt>
      <trkpt lat="46.93373" lon="8.57704">
        <ele>475</ele>
        <time>2021-08-10T10:49:21.806Z</time>
      </trkpt>
      <trkpt lat="46.93372" lon="8.57704">
        <ele>476</ele>
        <time>2021-08-10T10:49:22.806Z</time>
      </trkpt>
      <trkpt lat="46.93371" lon="8.57704">
        <ele>476</ele>
        <time>2021-08-10T10:49:23.805Z</time>
      </trkpt>
      <trkpt lat="46.9337" lon="8.57703">
        <ele>476</ele>
        <time>2021-08-10T10:49:24.806Z</time>
      </trkpt>
      <trkpt lat="46.9337" lon="8.57703">
        <ele>475</ele>
        <time>2021-08-10T10:49:25.806Z</time>
      </trkpt>
      <trkpt lat="46.93369" lon="8.57703">
        <ele>475</ele>
        <time>2021-08-10T10:49:26.806Z</time>
      </trkpt>
      <trkpt lat="46.93368" lon="8.57703">
        <ele>474</ele>
        <time>2021-08-10T10:49:27.806Z</time>
      </trkpt>
      <trkpt lat="46.93368" lon="8.57704">
        <ele>473</ele>
        <time>2021-08-10T10:49:28.805Z</time>
      </trkpt>
      <trkpt lat="46.93367" lon="8.57704">
        <ele>473</ele>
        <time>2021-08-10T10:49:29.806Z</time>
      </trkpt>
      <trkpt lat="46.93366" lon="8.57704">
        <ele>473</ele>
        <time>2021-08-10T10:49:30.806Z</time>
      </trkpt>
      <trkpt lat="46.93365" lon="8.57705">
        <ele>472</ele>
        <time>2021-08-10T10:49:31.805Z</time>
      </trkpt>
      <trkpt lat="46.93364" lon="8.57705">
        <ele>472</ele>
        <time>2021-08-10T10:49:32.805Z</time>
      </trkpt>
      <trkpt lat="46.93362" lon="8.57706">
        <ele>471</ele>
        <time>2021-08-10T10:49:33.806Z</time>
      </trkpt>
      <trkpt lat="46.93361" lon="8.57706">
        <ele>471</ele>
        <time>2021-08-10T10:49:34.805Z</time>
      </trkpt>
      <trkpt lat="46.9336" lon="8.57707">
        <ele>470</ele>
        <time>2021-08-10T10:49:35.806Z</time>
      </trkpt>
      <trkpt lat="46.93359" lon="8.57706">
        <ele>469</ele>
        <time>2021-08-10T10:49:36.806Z</time>
      </trkpt>
      <trkpt lat="46.93358" lon="8.57706">
        <ele>469</ele>
        <time>2021-08-10T10:49:37.806Z</time>
      </trkpt>
      <trkpt lat="46.93357" lon="8.57706">
        <ele>468</ele>
        <time>2021-08-10T10:49:38.806Z</time>
      </trkpt>
      <trkpt lat="46.93356" lon="8.57706">
        <ele>467</ele>
        <time>2021-08-10T10:49:39.806Z</time>
      </trkpt>
      <trkpt lat="46.93356" lon="8.57706">
        <ele>467</ele>
        <time>2021-08-10T10:49:40.806Z</time>
      </trkpt>
      <trkpt lat="46.93356" lon="8.57706">
        <ele>465</ele>
        <time>2021-08-10T10:49:41.805Z</time>
      </trkpt>
      <trkpt lat="46.93355" lon="8.57707">
        <ele>464</ele>
        <time>2021-08-10T10:49:42.806Z</time>
      </trkpt>
      <trkpt lat="46.93354" lon="8.57707">
        <ele>464</ele>
        <time>2021-08-10T10:49:43.806Z</time>
      </trkpt>
      <trkpt lat="46.93353" lon="8.57707">
        <ele>463</ele>
        <time>2021-08-10T10:49:44.806Z</time>
      </trkpt>
      <trkpt lat="46.93353" lon="8.57706">
        <ele>463</ele>
        <time>2021-08-10T10:49:45.805Z</time>
      </trkpt>
      <trkpt lat="46.93352" lon="8.57706">
        <ele>464</ele>
        <time>2021-08-10T10:49:46.805Z</time>
      </trkpt>
      <trkpt lat="46.93351" lon="8.57705">
        <ele>464</ele>
        <time>2021-08-10T10:49:47.806Z</time>
      </trkpt>
      <trkpt lat="46.9335" lon="8.57705">
        <ele>464</ele>
        <time>2021-08-10T10:49:48.805Z</time>
      </trkpt>
      <trkpt lat="46.93349" lon="8.57704">
        <ele>464</ele>
        <time>2021-08-10T10:49:49.805Z</time>
      </trkpt>
      <trkpt lat="46.93348" lon="8.57703">
        <ele>464</ele>
        <time>2021-08-10T10:49:50.806Z</time>
      </trkpt>
      <trkpt lat="46.93347" lon="8.57702">
        <ele>465</ele>
        <time>2021-08-10T10:49:51.805Z</time>
      </trkpt>
      <trkpt lat="46.93346" lon="8.57701">
        <ele>465</ele>
        <time>2021-08-10T10:49:52.805Z</time>
      </trkpt>
      <trkpt lat="46.93346" lon="8.577">
        <ele>466</ele>
        <time>2021-08-10T10:49:53.806Z</time>
      </trkpt>
      <trkpt lat="46.93345" lon="8.57699">
        <ele>467</ele>
        <time>2021-08-10T10:49:54.806Z</time>
      </trkpt>
      <trkpt lat="46.93345" lon="8.57698">
        <ele>467</ele>
        <time>2021-08-10T10:49:55.805Z</time>
      </trkpt>
      <trkpt lat="46.93344" lon="8.57698">
        <ele>467</ele>
        <time>2021-08-10T10:49:56.806Z</time>
      </trkpt>
      <trkpt lat="46.93344" lon="8.57697">
        <ele>468</ele>
        <time>2021-08-10T10:49:57.806Z</time>
      </trkpt>
      <trkpt lat="46.93344" lon="8.57696">
        <ele>468</ele>
        <time>2021-08-10T10:49:58.805Z</time>
      </trkpt>
      <trkpt lat="46.93342" lon="8.57695">
        <ele>468</ele>
        <time>2021-08-10T10:49:59.806Z</time>
      </trkpt>
      <trkpt lat="46.93342" lon="8.57694">
        <ele>467</ele>
        <time>2021-08-10T10:50:00.806Z</time>
      </trkpt>
      <trkpt lat="46.93341" lon="8.57693">
        <ele>467</ele>
        <time>2021-08-10T10:50:01.806Z</time>
      </trkpt>
      <trkpt lat="46.9334" lon="8.57692">
        <ele>467</ele>
        <time>2021-08-10T10:50:02.806Z</time>
      </trkpt>
      <trkpt lat="46.93339" lon="8.57692">
        <ele>467</ele>
        <time>2021-08-10T10:50:03.805Z</time>
      </trkpt>
      <trkpt lat="46.93338" lon="8.57692">
        <ele>467</ele>
        <time>2021-08-10T10:50:04.806Z</time>
      </trkpt>
      <trkpt lat="46.93336" lon="8.57692">
        <ele>467</ele>
        <time>2021-08-10T10:50:05.805Z</time>
      </trkpt>
      <trkpt lat="46.93336" lon="8.57692">
        <ele>467</ele>
        <time>2021-08-10T10:50:06.805Z</time>
      </trkpt>
      <trkpt lat="46.93334" lon="8.57692">
        <ele>467</ele>
        <time>2021-08-10T10:50:07.806Z</time>
      </trkpt>
      <trkpt lat="46.93333" lon="8.57693">
        <ele>467</ele>
        <time>2021-08-10T10:50:08.806Z</time>
      </trkpt>
      <trkpt lat="46.93332" lon="8.57693">
        <ele>467</ele>
        <time>2021-08-10T10:50:09.806Z</time>
      </trkpt>
      <trkpt lat="46.93331" lon="8.57693">
        <ele>467</ele>
        <time>2021-08-10T10:50:10.806Z</time>
      </trkpt>
      <trkpt lat="46.93331" lon="8.57693">
        <ele>467</ele>
        <time>2021-08-10T10:50:11.806Z</time>
      </trkpt>
      <trkpt lat="46.9333" lon="8.57694">
        <ele>468</ele>
        <time>2021-08-10T10:50:12.806Z</time>
      </trkpt>
      <trkpt lat="46.93329" lon="8.57694">
        <ele>468</ele>
        <time>2021-08-10T10:50:13.806Z</time>
      </trkpt>
      <trkpt lat="46.93328" lon="8.57695">
        <ele>469</ele>
        <time>2021-08-10T10:50:14.806Z</time>
      </trkpt>
      <trkpt lat="46.93327" lon="8.57695">
        <ele>470</ele>
        <time>2021-08-10T10:50:15.805Z</time>
      </trkpt>
      <trkpt lat="46.93326" lon="8.57696">
        <ele>470</ele>
        <time>2021-08-10T10:50:16.805Z</time>
      </trkpt>
      <trkpt lat="46.93325" lon="8.57696">
        <ele>471</ele>
        <time>2021-08-10T10:50:17.806Z</time>
      </trkpt>
      <trkpt lat="46.93324" lon="8.57697">
        <ele>471</ele>
        <time>2021-08-10T10:50:18.806Z</time>
      </trkpt>
      <trkpt lat="46.93323" lon="8.57697">
        <ele>471</ele>
        <time>2021-08-10T10:50:19.805Z</time>
      </trkpt>
      <trkpt lat="46.93322" lon="8.57697">
        <ele>471</ele>
        <time>2021-08-10T10:50:20.806Z</time>
      </trkpt>
      <trkpt lat="46.93322" lon="8.57698">
        <ele>471</ele>
        <time>2021-08-10T10:50:21.806Z</time>
      </trkpt>
      <trkpt lat="46.93321" lon="8.57699">
        <ele>470</ele>
        <time>2021-08-10T10:50:22.806Z</time>
      </trkpt>
      <trkpt lat="46.9332" lon="8.57699">
        <ele>470</ele>
        <time>2021-08-10T10:50:23.806Z</time>
      </trkpt>
      <trkpt lat="46.93319" lon="8.57699">
        <ele>470</ele>
        <time>2021-08-10T10:50:24.805Z</time>
      </trkpt>
      <trkpt lat="46.93318" lon="8.57699">
        <ele>470</ele>
        <time>2021-08-10T10:50:25.806Z</time>
      </trkpt>
      <trkpt lat="46.93317" lon="8.57699">
        <ele>470</ele>
        <time>2021-08-10T10:50:26.806Z</time>
      </trkpt>
      <trkpt lat="46.93317" lon="8.57699">
        <ele>470</ele>
        <time>2021-08-10T10:50:27.805Z</time>
      </trkpt>
      <trkpt lat="46.93316" lon="8.57699">
        <ele>470</ele>
        <time>2021-08-10T10:50:28.806Z</time>
      </trkpt>
      <trkpt lat="46.93315" lon="8.57699">
        <ele>470</ele>
        <time>2021-08-10T10:50:29.806Z</time>
      </trkpt>
      <trkpt lat="46.93314" lon="8.57699">
        <ele>470</ele>
        <time>2021-08-10T10:50:30.806Z</time>
      </trkpt>
      <trkpt lat="46.93314" lon="8.57699">
        <ele>469</ele>
        <time>2021-08-10T10:50:31.806Z</time>
      </trkpt>
      <trkpt lat="46.93313" lon="8.57698">
        <ele>469</ele>
        <time>2021-08-10T10:50:32.805Z</time>
      </trkpt>
      <trkpt lat="46.93312" lon="8.57698">
        <ele>469</ele>
        <time>2021-08-10T10:50:33.806Z</time>
      </trkpt>
      <trkpt lat="46.93312" lon="8.57699">
        <ele>469</ele>
        <time>2021-08-10T10:50:34.805Z</time>
      </trkpt>
      <trkpt lat="46.93312" lon="8.57699">
        <ele>470</ele>
        <time>2021-08-10T10:50:35.806Z</time>
      </trkpt>
      <trkpt lat="46.93311" lon="8.57699">
        <ele>470</ele>
        <time>2021-08-10T10:50:36.806Z</time>
      </trkpt>
      <trkpt lat="46.93311" lon="8.57699">
        <ele>471</ele>
        <time>2021-08-10T10:50:37.805Z</time>
      </trkpt>
      <trkpt lat="46.9331" lon="8.577">
        <ele>471</ele>
        <time>2021-08-10T10:50:38.805Z</time>
      </trkpt>
      <trkpt lat="46.93308" lon="8.577">
        <ele>471</ele>
        <time>2021-08-10T10:50:39.805Z</time>
      </trkpt>
      <trkpt lat="46.93307" lon="8.577">
        <ele>471</ele>
        <time>2021-08-10T10:50:40.806Z</time>
      </trkpt>
      <trkpt lat="46.93306" lon="8.577">
        <ele>471</ele>
        <time>2021-08-10T10:50:41.805Z</time>
      </trkpt>
      <trkpt lat="46.93305" lon="8.57701">
        <ele>471</ele>
        <time>2021-08-10T10:50:42.806Z</time>
      </trkpt>
      <trkpt lat="46.93303" lon="8.57701">
        <ele>471</ele>
        <time>2021-08-10T10:50:43.805Z</time>
      </trkpt>
      <trkpt lat="46.93301" lon="8.57701">
        <ele>471</ele>
        <time>2021-08-10T10:50:44.805Z</time>
      </trkpt>
      <trkpt lat="46.93299" lon="8.57701">
        <ele>471</ele>
        <time>2021-08-10T10:50:45.806Z</time>
      </trkpt>
      <trkpt lat="46.93297" lon="8.57701">
        <ele>471</ele>
        <time>2021-08-10T10:50:46.806Z</time>
      </trkpt>
      <trkpt lat="46.93296" lon="8.57701">
        <ele>471</ele>
        <time>2021-08-10T10:50:47.806Z</time>
      </trkpt>
      <trkpt lat="46.93295" lon="8.577">
        <ele>471</ele>
        <time>2021-08-10T10:50:48.806Z</time>
      </trkpt>
      <trkpt lat="46.93294" lon="8.57699">
        <ele>471</ele>
        <time>2021-08-10T10:50:49.806Z</time>
      </trkpt>
      <trkpt lat="46.93294" lon="8.57699">
        <ele>471</ele>
        <time>2021-08-10T10:50:50.806Z</time>
      </trkpt>
      <trkpt lat="46.93293" lon="8.57699">
        <ele>471</ele>
        <time>2021-08-10T10:50:51.806Z</time>
      </trkpt>
      <trkpt lat="46.93292" lon="8.57699">
        <ele>471</ele>
        <time>2021-08-10T10:50:52.806Z</time>
      </trkpt>
      <trkpt lat="46.93292" lon="8.57698">
        <ele>471</ele>
        <time>2021-08-10T10:50:53.806Z</time>
      </trkpt>
      <trkpt lat="46.93291" lon="8.57698">
        <ele>471</ele>
        <time>2021-08-10T10:50:54.805Z</time>
      </trkpt>
      <trkpt lat="46.93291" lon="8.57698">
        <ele>471</ele>
        <time>2021-08-10T10:50:55.806Z</time>
      </trkpt>
      <trkpt lat="46.9329" lon="8.57698">
        <ele>470</ele>
        <time>2021-08-10T10:50:56.806Z</time>
      </trkpt>
      <trkpt lat="46.93289" lon="8.57699">
        <ele>470</ele>
        <time>2021-08-10T10:50:57.805Z</time>
      </trkpt>
      <trkpt lat="46.93287" lon="8.57699">
        <ele>470</ele>
        <time>2021-08-10T10:50:58.806Z</time>
      </trkpt>
      <trkpt lat="46.93286" lon="8.57699">
        <ele>470</ele>
        <time>2021-08-10T10:50:59.805Z</time>
      </trkpt>
      <trkpt lat="46.93285" lon="8.577">
        <ele>471</ele>
        <time>2021-08-10T10:51:00.806Z</time>
      </trkpt>
      <trkpt lat="46.93284" lon="8.577">
        <ele>472</ele>
        <time>2021-08-10T10:51:01.805Z</time>
      </trkpt>
      <trkpt lat="46.93283" lon="8.577">
        <ele>473</ele>
        <time>2021-08-10T10:51:02.806Z</time>
      </trkpt>
      <trkpt lat="46.93282" lon="8.577">
        <ele>474</ele>
        <time>2021-08-10T10:51:03.806Z</time>
      </trkpt>
      <trkpt lat="46.93281" lon="8.57701">
        <ele>474</ele>
        <time>2021-08-10T10:51:04.805Z</time>
      </trkpt>
      <trkpt lat="46.9328" lon="8.57702">
        <ele>475</ele>
        <time>2021-08-10T10:51:05.805Z</time>
      </trkpt>
      <trkpt lat="46.93279" lon="8.57702">
        <ele>475</ele>
        <time>2021-08-10T10:51:06.805Z</time>
      </trkpt>
      <trkpt lat="46.93278" lon="8.57703">
        <ele>476</ele>
        <time>2021-08-10T10:51:07.805Z</time>
      </trkpt>
      <trkpt lat="46.93277" lon="8.57704">
        <ele>476</ele>
        <time>2021-08-10T10:51:08.806Z</time>
      </trkpt>
      <trkpt lat="46.93276" lon="8.57705">
        <ele>476</ele>
        <time>2021-08-10T10:51:09.805Z</time>
      </trkpt>
      <trkpt lat="46.93275" lon="8.57706">
        <ele>477</ele>
        <time>2021-08-10T10:51:10.805Z</time>
      </trkpt>
      <trkpt lat="46.93275" lon="8.57707">
        <ele>477</ele>
        <time>2021-08-10T10:51:11.806Z</time>
      </trkpt>
      <trkpt lat="46.93274" lon="8.57708">
        <ele>477</ele>
        <time>2021-08-10T10:51:12.806Z</time>
      </trkpt>
      <trkpt lat="46.93273" lon="8.57708">
        <ele>478</ele>
        <time>2021-08-10T10:51:13.806Z</time>
      </trkpt>
      <trkpt lat="46.93272" lon="8.57709">
        <ele>478</ele>
        <time>2021-08-10T10:51:14.805Z</time>
      </trkpt>
      <trkpt lat="46.93272" lon="8.57711">
        <ele>478</ele>
        <time>2021-08-10T10:51:15.806Z</time>
      </trkpt>
      <trkpt lat="46.93271" lon="8.57712">
        <ele>479</ele>
        <time>2021-08-10T10:51:16.806Z</time>
      </trkpt>
      <trkpt lat="46.9327" lon="8.57713">
        <ele>479</ele>
        <time>2021-08-10T10:51:17.806Z</time>
      </trkpt>
      <trkpt lat="46.9327" lon="8.57714">
        <ele>479</ele>
        <time>2021-08-10T10:51:18.806Z</time>
      </trkpt>
      <trkpt lat="46.93269" lon="8.57714">
        <ele>479</ele>
        <time>2021-08-10T10:51:19.805Z</time>
      </trkpt>
      <trkpt lat="46.93269" lon="8.57714">
        <ele>480</ele>
        <time>2021-08-10T10:51:20.806Z</time>
      </trkpt>
      <trkpt lat="46.93268" lon="8.57715">
        <ele>480</ele>
        <time>2021-08-10T10:51:21.806Z</time>
      </trkpt>
      <trkpt lat="46.93268" lon="8.57716">
        <ele>481</ele>
        <time>2021-08-10T10:51:22.805Z</time>
      </trkpt>
      <trkpt lat="46.93267" lon="8.57717">
        <ele>481</ele>
        <time>2021-08-10T10:51:23.806Z</time>
      </trkpt>
      <trkpt lat="46.93266" lon="8.57718">
        <ele>481</ele>
        <time>2021-08-10T10:51:24.806Z</time>
      </trkpt>
      <trkpt lat="46.93266" lon="8.57719">
        <ele>481</ele>
        <time>2021-08-10T10:51:25.805Z</time>
      </trkpt>
      <trkpt lat="46.93265" lon="8.57719">
        <ele>480</ele>
        <time>2021-08-10T10:51:26.806Z</time>
      </trkpt>
      <trkpt lat="46.93265" lon="8.5772">
        <ele>480</ele>
        <time>2021-08-10T10:51:27.805Z</time>
      </trkpt>
      <trkpt lat="46.93264" lon="8.57721">
        <ele>480</ele>
        <time>2021-08-10T10:51:28.806Z</time>
      </trkpt>
      <trkpt lat="46.93264" lon="8.57722">
        <ele>479</ele>
        <time>2021-08-10T10:51:29.806Z</time>
      </trkpt>
      <trkpt lat="46.93263" lon="8.57722">
        <ele>479</ele>
        <time>2021-08-10T10:51:30.806Z</time>
      </trkpt>
      <trkpt lat="46.93263" lon="8.57723">
        <ele>479</ele>
        <time>2021-08-10T10:51:31.806Z</time>
      </trkpt>
      <trkpt lat="46.93263" lon="8.57723">
        <ele>479</ele>
        <time>2021-08-10T10:51:32.806Z</time>
      </trkpt>
      <trkpt lat="46.93264" lon="8.57739">
        <ele>485</ele>
        <time>2021-08-10T10:51:33.807Z</time>
      </trkpt>
      <trkpt lat="46.93264" lon="8.57739">
        <ele>485</ele>
        <time>2021-08-10T10:51:34.807Z</time>
      </trkpt>
      <trkpt lat="46.93264" lon="8.57737">
        <ele>485</ele>
        <time>2021-08-10T10:51:35.807Z</time>
      </trkpt>
      <trkpt lat="46.93264" lon="8.57736">
        <ele>485</ele>
        <time>2021-08-10T10:51:36.807Z</time>
      </trkpt>
      <trkpt lat="46.93262" lon="8.57738">
        <ele>486</ele>
        <time>2021-08-10T10:51:37.807Z</time>
      </trkpt>
      <trkpt lat="46.93262" lon="8.57737">
        <ele>486</ele>
        <time>2021-08-10T10:51:38.808Z</time>
      </trkpt>
      <trkpt lat="46.93262" lon="8.57737">
        <ele>486</ele>
        <time>2021-08-10T10:51:39.807Z</time>
      </trkpt>
      <trkpt lat="46.93261" lon="8.57737">
        <ele>486</ele>
        <time>2021-08-10T10:51:40.807Z</time>
      </trkpt>
      <trkpt lat="46.93259" lon="8.57738">
        <ele>485</ele>
        <time>2021-08-10T10:51:41.807Z</time>
      </trkpt>
      <trkpt lat="46.93259" lon="8.57738">
        <ele>485</ele>
        <time>2021-08-10T10:51:42.807Z</time>
      </trkpt>
      <trkpt lat="46.93258" lon="8.57739">
        <ele>485</ele>
        <time>2021-08-10T10:51:43.807Z</time>
      </trkpt>
      <trkpt lat="46.93258" lon="8.57739">
        <ele>486</ele>
        <time>2021-08-10T10:51:44.808Z</time>
      </trkpt>
      <trkpt lat="46.93257" lon="8.57739">
        <ele>485</ele>
        <time>2021-08-10T10:51:45.807Z</time>
      </trkpt>
      <trkpt lat="46.93257" lon="8.57739">
        <ele>485</ele>
        <time>2021-08-10T10:51:46.807Z</time>
      </trkpt>
      <trkpt lat="46.93256" lon="8.57738">
        <ele>485</ele>
        <time>2021-08-10T10:51:47.808Z</time>
      </trkpt>
      <trkpt lat="46.93256" lon="8.57738">
        <ele>485</ele>
        <time>2021-08-10T10:51:48.807Z</time>
      </trkpt>
      <trkpt lat="46.93254" lon="8.57739">
        <ele>485</ele>
        <time>2021-08-10T10:51:49.807Z</time>
      </trkpt>
      <trkpt lat="46.93252" lon="8.57739">
        <ele>485</ele>
        <time>2021-08-10T10:51:50.808Z</time>
      </trkpt>
      <trkpt lat="46.93251" lon="8.5774">
        <ele>484</ele>
        <time>2021-08-10T10:51:51.807Z</time>
      </trkpt>
      <trkpt lat="46.9325" lon="8.57739">
        <ele>484</ele>
        <time>2021-08-10T10:51:52.807Z</time>
      </trkpt>
      <trkpt lat="46.93249" lon="8.57739">
        <ele>484</ele>
        <time>2021-08-10T10:51:53.807Z</time>
      </trkpt>
      <trkpt lat="46.93248" lon="8.57739">
        <ele>484</ele>
        <time>2021-08-10T10:51:54.807Z</time>
      </trkpt>
      <trkpt lat="46.93247" lon="8.57738">
        <ele>484</ele>
        <time>2021-08-10T10:51:55.808Z</time>
      </trkpt>
      <trkpt lat="46.93246" lon="8.57738">
        <ele>484</ele>
        <time>2021-08-10T10:51:56.807Z</time>
      </trkpt>
      <trkpt lat="46.93245" lon="8.57737">
        <ele>484</ele>
        <time>2021-08-10T10:51:57.808Z</time>
      </trkpt>
      <trkpt lat="46.93244" lon="8.57736">
        <ele>484</ele>
        <time>2021-08-10T10:51:58.808Z</time>
      </trkpt>
      <trkpt lat="46.93243" lon="8.57736">
        <ele>484</ele>
        <time>2021-08-10T10:51:59.808Z</time>
      </trkpt>
      <trkpt lat="46.93243" lon="8.57735">
        <ele>484</ele>
        <time>2021-08-10T10:52:00.808Z</time>
      </trkpt>
      <trkpt lat="46.93241" lon="8.57735">
        <ele>483</ele>
        <time>2021-08-10T10:52:01.808Z</time>
      </trkpt>
      <trkpt lat="46.9324" lon="8.57735">
        <ele>483</ele>
        <time>2021-08-10T10:52:02.807Z</time>
      </trkpt>
      <trkpt lat="46.9324" lon="8.57735">
        <ele>483</ele>
        <time>2021-08-10T10:52:03.808Z</time>
      </trkpt>
      <trkpt lat="46.93239" lon="8.57734">
        <ele>484</ele>
        <time>2021-08-10T10:52:04.808Z</time>
      </trkpt>
      <trkpt lat="46.93238" lon="8.57734">
        <ele>484</ele>
        <time>2021-08-10T10:52:05.808Z</time>
      </trkpt>
      <trkpt lat="46.93238" lon="8.57734">
        <ele>484</ele>
        <time>2021-08-10T10:52:06.808Z</time>
      </trkpt>
      <trkpt lat="46.93237" lon="8.57732">
        <ele>484</ele>
        <time>2021-08-10T10:52:07.807Z</time>
      </trkpt>
      <trkpt lat="46.93236" lon="8.57731">
        <ele>484</ele>
        <time>2021-08-10T10:52:08.808Z</time>
      </trkpt>
      <trkpt lat="46.93236" lon="8.57731">
        <ele>484</ele>
        <time>2021-08-10T10:52:09.807Z</time>
      </trkpt>
      <trkpt lat="46.93235" lon="8.5773">
        <ele>484</ele>
        <time>2021-08-10T10:52:10.808Z</time>
      </trkpt>
      <trkpt lat="46.93234" lon="8.5773">
        <ele>484</ele>
        <time>2021-08-10T10:52:11.808Z</time>
      </trkpt>
      <trkpt lat="46.93234" lon="8.5773">
        <ele>485</ele>
        <time>2021-08-10T10:52:12.808Z</time>
      </trkpt>
      <trkpt lat="46.93233" lon="8.5773">
        <ele>485</ele>
        <time>2021-08-10T10:52:13.808Z</time>
      </trkpt>
      <trkpt lat="46.93232" lon="8.5773">
        <ele>485</ele>
        <time>2021-08-10T10:52:14.807Z</time>
      </trkpt>
      <trkpt lat="46.93231" lon="8.5773">
        <ele>486</ele>
        <time>2021-08-10T10:52:15.808Z</time>
      </trkpt>
      <trkpt lat="46.9323" lon="8.57729">
        <ele>486</ele>
        <time>2021-08-10T10:52:16.808Z</time>
      </trkpt>
      <trkpt lat="46.93229" lon="8.57729">
        <ele>486</ele>
        <time>2021-08-10T10:52:17.808Z</time>
      </trkpt>
      <trkpt lat="46.93228" lon="8.57729">
        <ele>486</ele>
        <time>2021-08-10T10:52:18.808Z</time>
      </trkpt>
      <trkpt lat="46.93228" lon="8.57728">
        <ele>486</ele>
        <time>2021-08-10T10:52:19.808Z</time>
      </trkpt>
      <trkpt lat="46.93227" lon="8.57728">
        <ele>485</ele>
        <time>2021-08-10T10:52:20.807Z</time>
      </trkpt>
      <trkpt lat="46.93226" lon="8.57727">
        <ele>485</ele>
        <time>2021-08-10T10:52:21.808Z</time>
      </trkpt>
      <trkpt lat="46.93225" lon="8.57726">
        <ele>485</ele>
        <time>2021-08-10T10:52:22.808Z</time>
      </trkpt>
      <trkpt lat="46.93224" lon="8.57726">
        <ele>484</ele>
        <time>2021-08-10T10:52:23.807Z</time>
      </trkpt>
      <trkpt lat="46.93223" lon="8.57725">
        <ele>484</ele>
        <time>2021-08-10T10:52:24.808Z</time>
      </trkpt>
      <trkpt lat="46.93222" lon="8.57724">
        <ele>483</ele>
        <time>2021-08-10T10:52:25.807Z</time>
      </trkpt>
      <trkpt lat="46.93221" lon="8.57724">
        <ele>483</ele>
        <time>2021-08-10T10:52:26.807Z</time>
      </trkpt>
      <trkpt lat="46.9322" lon="8.57723">
        <ele>483</ele>
        <time>2021-08-10T10:52:27.808Z</time>
      </trkpt>
      <trkpt lat="46.93219" lon="8.57722">
        <ele>483</ele>
        <time>2021-08-10T10:52:28.808Z</time>
      </trkpt>
      <trkpt lat="46.93218" lon="8.57721">
        <ele>483</ele>
        <time>2021-08-10T10:52:29.808Z</time>
      </trkpt>
      <trkpt lat="46.93217" lon="8.5772">
        <ele>483</ele>
        <time>2021-08-10T10:52:30.808Z</time>
      </trkpt>
      <trkpt lat="46.93217" lon="8.57719">
        <ele>483</ele>
        <time>2021-08-10T10:52:31.808Z</time>
      </trkpt>
      <trkpt lat="46.93216" lon="8.57717">
        <ele>483</ele>
        <time>2021-08-10T10:52:32.808Z</time>
      </trkpt>
      <trkpt lat="46.93216" lon="8.57716">
        <ele>483</ele>
        <time>2021-08-10T10:52:33.807Z</time>
      </trkpt>
      <trkpt lat="46.93215" lon="8.57715">
        <ele>483</ele>
        <time>2021-08-10T10:52:34.808Z</time>
      </trkpt>
      <trkpt lat="46.93215" lon="8.57714">
        <ele>483</ele>
        <time>2021-08-10T10:52:35.808Z</time>
      </trkpt>
      <trkpt lat="46.93215" lon="8.57714">
        <ele>483</ele>
        <time>2021-08-10T10:52:36.808Z</time>
      </trkpt>
      <trkpt lat="46.93214" lon="8.57713">
        <ele>483</ele>
        <time>2021-08-10T10:52:37.808Z</time>
      </trkpt>
      <trkpt lat="46.93213" lon="8.57713">
        <ele>482</ele>
        <time>2021-08-10T10:52:38.808Z</time>
      </trkpt>
      <trkpt lat="46.93213" lon="8.57712">
        <ele>482</ele>
        <time>2021-08-10T10:52:39.807Z</time>
      </trkpt>
      <trkpt lat="46.93213" lon="8.57712">
        <ele>481</ele>
        <time>2021-08-10T10:52:40.807Z</time>
      </trkpt>
      <trkpt lat="46.93212" lon="8.57711">
        <ele>481</ele>
        <time>2021-08-10T10:52:41.807Z</time>
      </trkpt>
      <trkpt lat="46.9321" lon="8.5771">
        <ele>480</ele>
        <time>2021-08-10T10:52:42.808Z</time>
      </trkpt>
      <trkpt lat="46.9321" lon="8.57709">
        <ele>480</ele>
        <time>2021-08-10T10:52:43.807Z</time>
      </trkpt>
      <trkpt lat="46.93209" lon="8.57709">
        <ele>479</ele>
        <time>2021-08-10T10:52:44.808Z</time>
      </trkpt>
      <trkpt lat="46.93208" lon="8.57708">
        <ele>479</ele>
        <time>2021-08-10T10:52:45.808Z</time>
      </trkpt>
      <trkpt lat="46.93207" lon="8.57707">
        <ele>479</ele>
        <time>2021-08-10T10:52:46.808Z</time>
      </trkpt>
      <trkpt lat="46.93206" lon="8.57707">
        <ele>479</ele>
        <time>2021-08-10T10:52:47.807Z</time>
      </trkpt>
      <trkpt lat="46.93206" lon="8.57706">
        <ele>479</ele>
        <time>2021-08-10T10:52:48.808Z</time>
      </trkpt>
      <trkpt lat="46.93204" lon="8.57704">
        <ele>479</ele>
        <time>2021-08-10T10:52:49.808Z</time>
      </trkpt>
      <trkpt lat="46.93203" lon="8.57703">
        <ele>480</ele>
        <time>2021-08-10T10:52:50.808Z</time>
      </trkpt>
      <trkpt lat="46.93202" lon="8.57703">
        <ele>480</ele>
        <time>2021-08-10T10:52:51.808Z</time>
      </trkpt>
      <trkpt lat="46.932" lon="8.57703">
        <ele>480</ele>
        <time>2021-08-10T10:52:52.808Z</time>
      </trkpt>
      <trkpt lat="46.93199" lon="8.57702">
        <ele>480</ele>
        <time>2021-08-10T10:52:53.808Z</time>
      </trkpt>
      <trkpt lat="46.93198" lon="8.57702">
        <ele>481</ele>
        <time>2021-08-10T10:52:54.807Z</time>
      </trkpt>
      <trkpt lat="46.93197" lon="8.57701">
        <ele>481</ele>
        <time>2021-08-10T10:52:55.808Z</time>
      </trkpt>
      <trkpt lat="46.93196" lon="8.57701">
        <ele>481</ele>
        <time>2021-08-10T10:52:56.808Z</time>
      </trkpt>
      <trkpt lat="46.93196" lon="8.57701">
        <ele>481</ele>
        <time>2021-08-10T10:52:57.807Z</time>
      </trkpt>
      <trkpt lat="46.93195" lon="8.577">
        <ele>481</ele>
        <time>2021-08-10T10:52:58.808Z</time>
      </trkpt>
      <trkpt lat="46.93194" lon="8.57699">
        <ele>481</ele>
        <time>2021-08-10T10:52:59.808Z</time>
      </trkpt>
      <trkpt lat="46.93194" lon="8.57698">
        <ele>480</ele>
        <time>2021-08-10T10:53:00.808Z</time>
      </trkpt>
      <trkpt lat="46.93193" lon="8.57698">
        <ele>480</ele>
        <time>2021-08-10T10:53:01.808Z</time>
      </trkpt>
      <trkpt lat="46.93192" lon="8.57697">
        <ele>480</ele>
        <time>2021-08-10T10:53:02.808Z</time>
      </trkpt>
      <trkpt lat="46.93191" lon="8.57696">
        <ele>480</ele>
        <time>2021-08-10T10:53:03.807Z</time>
      </trkpt>
      <trkpt lat="46.9319" lon="8.57695">
        <ele>480</ele>
        <time>2021-08-10T10:53:04.808Z</time>
      </trkpt>
      <trkpt lat="46.93189" lon="8.57695">
        <ele>480</ele>
        <time>2021-08-10T10:53:05.808Z</time>
      </trkpt>
      <trkpt lat="46.93189" lon="8.57694">
        <ele>479</ele>
        <time>2021-08-10T10:53:06.808Z</time>
      </trkpt>
      <trkpt lat="46.93188" lon="8.57694">
        <ele>479</ele>
        <time>2021-08-10T10:53:07.808Z</time>
      </trkpt>
      <trkpt lat="46.93187" lon="8.57693">
        <ele>479</ele>
        <time>2021-08-10T10:53:08.807Z</time>
      </trkpt>
      <trkpt lat="46.93186" lon="8.57692">
        <ele>478</ele>
        <time>2021-08-10T10:53:09.807Z</time>
      </trkpt>
      <trkpt lat="46.93185" lon="8.57691">
        <ele>478</ele>
        <time>2021-08-10T10:53:10.807Z</time>
      </trkpt>
      <trkpt lat="46.93184" lon="8.5769">
        <ele>478</ele>
        <time>2021-08-10T10:53:11.808Z</time>
      </trkpt>
      <trkpt lat="46.93183" lon="8.5769">
        <ele>479</ele>
        <time>2021-08-10T10:53:12.807Z</time>
      </trkpt>
      <trkpt lat="46.93182" lon="8.57689">
        <ele>479</ele>
        <time>2021-08-10T10:53:13.807Z</time>
      </trkpt>
      <trkpt lat="46.93181" lon="8.57688">
        <ele>479</ele>
        <time>2021-08-10T10:53:14.808Z</time>
      </trkpt>
      <trkpt lat="46.9318" lon="8.57687">
        <ele>479</ele>
        <time>2021-08-10T10:53:15.807Z</time>
      </trkpt>
      <trkpt lat="46.93179" lon="8.57686">
        <ele>479</ele>
        <time>2021-08-10T10:53:16.807Z</time>
      </trkpt>
      <trkpt lat="46.93179" lon="8.57686">
        <ele>479</ele>
        <time>2021-08-10T10:53:17.808Z</time>
      </trkpt>
      <trkpt lat="46.93178" lon="8.57686">
        <ele>480</ele>
        <time>2021-08-10T10:53:18.808Z</time>
      </trkpt>
      <trkpt lat="46.93177" lon="8.57685">
        <ele>480</ele>
        <time>2021-08-10T10:53:19.807Z</time>
      </trkpt>
      <trkpt lat="46.93176" lon="8.57684">
        <ele>479</ele>
        <time>2021-08-10T10:53:20.808Z</time>
      </trkpt>
      <trkpt lat="46.93176" lon="8.57684">
        <ele>480</ele>
        <time>2021-08-10T10:53:21.807Z</time>
      </trkpt>
      <trkpt lat="46.93175" lon="8.57684">
        <ele>479</ele>
        <time>2021-08-10T10:53:22.808Z</time>
      </trkpt>
      <trkpt lat="46.93175" lon="8.57683">
        <ele>479</ele>
        <time>2021-08-10T10:53:23.808Z</time>
      </trkpt>
      <trkpt lat="46.93174" lon="8.57683">
        <ele>478</ele>
        <time>2021-08-10T10:53:24.808Z</time>
      </trkpt>
      <trkpt lat="46.93174" lon="8.57682">
        <ele>478</ele>
        <time>2021-08-10T10:53:25.807Z</time>
      </trkpt>
      <trkpt lat="46.93173" lon="8.57682">
        <ele>478</ele>
        <time>2021-08-10T10:53:26.808Z</time>
      </trkpt>
      <trkpt lat="46.93173" lon="8.57681">
        <ele>478</ele>
        <time>2021-08-10T10:53:27.808Z</time>
      </trkpt>
      <trkpt lat="46.93172" lon="8.57681">
        <ele>479</ele>
        <time>2021-08-10T10:53:28.808Z</time>
      </trkpt>
      <trkpt lat="46.93171" lon="8.5768">
        <ele>479</ele>
        <time>2021-08-10T10:53:29.808Z</time>
      </trkpt>
      <trkpt lat="46.9317" lon="8.57679">
        <ele>480</ele>
        <time>2021-08-10T10:53:30.807Z</time>
      </trkpt>
      <trkpt lat="46.93169" lon="8.57679">
        <ele>481</ele>
        <time>2021-08-10T10:53:31.807Z</time>
      </trkpt>
      <trkpt lat="46.93169" lon="8.57678">
        <ele>482</ele>
        <time>2021-08-10T10:53:32.807Z</time>
      </trkpt>
      <trkpt lat="46.93168" lon="8.57677">
        <ele>483</ele>
        <time>2021-08-10T10:53:33.808Z</time>
      </trkpt>
      <trkpt lat="46.93168" lon="8.57677">
        <ele>484</ele>
        <time>2021-08-10T10:53:34.808Z</time>
      </trkpt>
      <trkpt lat="46.93167" lon="8.57676">
        <ele>484</ele>
        <time>2021-08-10T10:53:35.807Z</time>
      </trkpt>
      <trkpt lat="46.93167" lon="8.57675">
        <ele>484</ele>
        <time>2021-08-10T10:53:36.808Z</time>
      </trkpt>
      <trkpt lat="46.93166" lon="8.57674">
        <ele>485</ele>
        <time>2021-08-10T10:53:37.808Z</time>
      </trkpt>
      <trkpt lat="46.93166" lon="8.57673">
        <ele>485</ele>
        <time>2021-08-10T10:53:38.808Z</time>
      </trkpt>
      <trkpt lat="46.93165" lon="8.57672">
        <ele>485</ele>
        <time>2021-08-10T10:53:39.807Z</time>
      </trkpt>
      <trkpt lat="46.93164" lon="8.57671">
        <ele>486</ele>
        <time>2021-08-10T10:53:40.807Z</time>
      </trkpt>
      <trkpt lat="46.93164" lon="8.5767">
        <ele>486</ele>
        <time>2021-08-10T10:53:41.807Z</time>
      </trkpt>
      <trkpt lat="46.93163" lon="8.57668">
        <ele>486</ele>
        <time>2021-08-10T10:53:42.808Z</time>
      </trkpt>
      <trkpt lat="46.93161" lon="8.57667">
        <ele>486</ele>
        <time>2021-08-10T10:53:43.807Z</time>
      </trkpt>
      <trkpt lat="46.9316" lon="8.57666">
        <ele>486</ele>
        <time>2021-08-10T10:53:44.807Z</time>
      </trkpt>
      <trkpt lat="46.93159" lon="8.57665">
        <ele>486</ele>
        <time>2021-08-10T10:53:45.808Z</time>
      </trkpt>
      <trkpt lat="46.93158" lon="8.57665">
        <ele>487</ele>
        <time>2021-08-10T10:53:46.808Z</time>
      </trkpt>
      <trkpt lat="46.93158" lon="8.57665">
        <ele>487</ele>
        <time>2021-08-10T10:53:47.808Z</time>
      </trkpt>
      <trkpt lat="46.93157" lon="8.57664">
        <ele>487</ele>
        <time>2021-08-10T10:53:48.808Z</time>
      </trkpt>
      <trkpt lat="46.93156" lon="8.57664">
        <ele>488</ele>
        <time>2021-08-10T10:53:49.808Z</time>
      </trkpt>
      <trkpt lat="46.93155" lon="8.57663">
        <ele>489</ele>
        <time>2021-08-10T10:53:50.808Z</time>
      </trkpt>
      <trkpt lat="46.93154" lon="8.57663">
        <ele>489</ele>
        <time>2021-08-10T10:53:51.807Z</time>
      </trkpt>
      <trkpt lat="46.93154" lon="8.57662">
        <ele>490</ele>
        <time>2021-08-10T10:53:52.807Z</time>
      </trkpt>
      <trkpt lat="46.93153" lon="8.57662">
        <ele>490</ele>
        <time>2021-08-10T10:53:53.808Z</time>
      </trkpt>
      <trkpt lat="46.93152" lon="8.57661">
        <ele>490</ele>
        <time>2021-08-10T10:53:54.808Z</time>
      </trkpt>
      <trkpt lat="46.93152" lon="8.5766">
        <ele>490</ele>
        <time>2021-08-10T10:53:55.808Z</time>
      </trkpt>
      <trkpt lat="46.93151" lon="8.57659">
        <ele>490</ele>
        <time>2021-08-10T10:53:56.808Z</time>
      </trkpt>
      <trkpt lat="46.9315" lon="8.57659">
        <ele>490</ele>
        <time>2021-08-10T10:53:57.808Z</time>
      </trkpt>
      <trkpt lat="46.93149" lon="8.57658">
        <ele>490</ele>
        <time>2021-08-10T10:53:58.808Z</time>
      </trkpt>
      <trkpt lat="46.93148" lon="8.57657">
        <ele>490</ele>
        <time>2021-08-10T10:53:59.808Z</time>
      </trkpt>
      <trkpt lat="46.93147" lon="8.57656">
        <ele>490</ele>
        <time>2021-08-10T10:54:00.807Z</time>
      </trkpt>
      <trkpt lat="46.93146" lon="8.57655">
        <ele>489</ele>
        <time>2021-08-10T10:54:01.807Z</time>
      </trkpt>
      <trkpt lat="46.93146" lon="8.57654">
        <ele>489</ele>
        <time>2021-08-10T10:54:02.808Z</time>
      </trkpt>
      <trkpt lat="46.93145" lon="8.57652">
        <ele>488</ele>
        <time>2021-08-10T10:54:03.808Z</time>
      </trkpt>
      <trkpt lat="46.93144" lon="8.57651">
        <ele>488</ele>
        <time>2021-08-10T10:54:04.808Z</time>
      </trkpt>
      <trkpt lat="46.93143" lon="8.57649">
        <ele>487</ele>
        <time>2021-08-10T10:54:05.807Z</time>
      </trkpt>
      <trkpt lat="46.93143" lon="8.57648">
        <ele>487</ele>
        <time>2021-08-10T10:54:06.807Z</time>
      </trkpt>
      <trkpt lat="46.93142" lon="8.57647">
        <ele>487</ele>
        <time>2021-08-10T10:54:07.807Z</time>
      </trkpt>
      <trkpt lat="46.93141" lon="8.57645">
        <ele>487</ele>
        <time>2021-08-10T10:54:08.808Z</time>
      </trkpt>
      <trkpt lat="46.9314" lon="8.57644">
        <ele>487</ele>
        <time>2021-08-10T10:54:09.807Z</time>
      </trkpt>
      <trkpt lat="46.93139" lon="8.57643">
        <ele>488</ele>
        <time>2021-08-10T10:54:10.807Z</time>
      </trkpt>
      <trkpt lat="46.93138" lon="8.57642">
        <ele>488</ele>
        <time>2021-08-10T10:54:11.807Z</time>
      </trkpt>
      <trkpt lat="46.93137" lon="8.57642">
        <ele>488</ele>
        <time>2021-08-10T10:54:12.808Z</time>
      </trkpt>
      <trkpt lat="46.93136" lon="8.57642">
        <ele>489</ele>
        <time>2021-08-10T10:54:13.807Z</time>
      </trkpt>
      <trkpt lat="46.93135" lon="8.57641">
        <ele>489</ele>
        <time>2021-08-10T10:54:14.807Z</time>
      </trkpt>
      <trkpt lat="46.93134" lon="8.57641">
        <ele>489</ele>
        <time>2021-08-10T10:54:15.808Z</time>
      </trkpt>
      <trkpt lat="46.93133" lon="8.57641">
        <ele>489</ele>
        <time>2021-08-10T10:54:16.808Z</time>
      </trkpt>
      <trkpt lat="46.93132" lon="8.57641">
        <ele>490</ele>
        <time>2021-08-10T10:54:17.808Z</time>
      </trkpt>
      <trkpt lat="46.93131" lon="8.5764">
        <ele>490</ele>
        <time>2021-08-10T10:54:18.807Z</time>
      </trkpt>
      <trkpt lat="46.9313" lon="8.5764">
        <ele>491</ele>
        <time>2021-08-10T10:54:19.807Z</time>
      </trkpt>
      <trkpt lat="46.93129" lon="8.57639">
        <ele>491</ele>
        <time>2021-08-10T10:54:20.807Z</time>
      </trkpt>
      <trkpt lat="46.93127" lon="8.57639">
        <ele>491</ele>
        <time>2021-08-10T10:54:21.807Z</time>
      </trkpt>
      <trkpt lat="46.93126" lon="8.57638">
        <ele>491</ele>
        <time>2021-08-10T10:54:22.808Z</time>
      </trkpt>
      <trkpt lat="46.93125" lon="8.57637">
        <ele>491</ele>
        <time>2021-08-10T10:54:23.808Z</time>
      </trkpt>
      <trkpt lat="46.93124" lon="8.57636">
        <ele>491</ele>
        <time>2021-08-10T10:54:24.808Z</time>
      </trkpt>
      <trkpt lat="46.93123" lon="8.57635">
        <ele>491</ele>
        <time>2021-08-10T10:54:25.808Z</time>
      </trkpt>
      <trkpt lat="46.93122" lon="8.57634">
        <ele>491</ele>
        <time>2021-08-10T10:54:26.808Z</time>
      </trkpt>
      <trkpt lat="46.93122" lon="8.57633">
        <ele>490</ele>
        <time>2021-08-10T10:54:27.807Z</time>
      </trkpt>
      <trkpt lat="46.93121" lon="8.57632">
        <ele>489</ele>
        <time>2021-08-10T10:54:28.807Z</time>
      </trkpt>
      <trkpt lat="46.9312" lon="8.5763">
        <ele>489</ele>
        <time>2021-08-10T10:54:29.808Z</time>
      </trkpt>
      <trkpt lat="46.93119" lon="8.57629">
        <ele>489</ele>
        <time>2021-08-10T10:54:30.808Z</time>
      </trkpt>
      <trkpt lat="46.93118" lon="8.57628">
        <ele>489</ele>
        <time>2021-08-10T10:54:31.808Z</time>
      </trkpt>
      <trkpt lat="46.93118" lon="8.57627">
        <ele>489</ele>
        <time>2021-08-10T10:54:32.808Z</time>
      </trkpt>
      <trkpt lat="46.93118" lon="8.57625">
        <ele>489</ele>
        <time>2021-08-10T10:54:33.807Z</time>
      </trkpt>
      <trkpt lat="46.93117" lon="8.57624">
        <ele>489</ele>
        <time>2021-08-10T10:54:34.808Z</time>
      </trkpt>
      <trkpt lat="46.93117" lon="8.57623">
        <ele>489</ele>
        <time>2021-08-10T10:54:35.808Z</time>
      </trkpt>
      <trkpt lat="46.93117" lon="8.57622">
        <ele>489</ele>
        <time>2021-08-10T10:54:36.808Z</time>
      </trkpt>
      <trkpt lat="46.93116" lon="8.5762">
        <ele>489</ele>
        <time>2021-08-10T10:54:37.808Z</time>
      </trkpt>
      <trkpt lat="46.93115" lon="8.57619">
        <ele>489</ele>
        <time>2021-08-10T10:54:38.808Z</time>
      </trkpt>
      <trkpt lat="46.93114" lon="8.57618">
        <ele>489</ele>
        <time>2021-08-10T10:54:39.808Z</time>
      </trkpt>
      <trkpt lat="46.93114" lon="8.57617">
        <ele>489</ele>
        <time>2021-08-10T10:54:40.808Z</time>
      </trkpt>
      <trkpt lat="46.93113" lon="8.57616">
        <ele>489</ele>
        <time>2021-08-10T10:54:41.807Z</time>
      </trkpt>
      <trkpt lat="46.93112" lon="8.57615">
        <ele>489</ele>
        <time>2021-08-10T10:54:42.808Z</time>
      </trkpt>
      <trkpt lat="46.93112" lon="8.57613">
        <ele>488</ele>
        <time>2021-08-10T10:54:43.808Z</time>
      </trkpt>
      <trkpt lat="46.93111" lon="8.57612">
        <ele>488</ele>
        <time>2021-08-10T10:54:44.807Z</time>
      </trkpt>
      <trkpt lat="46.9311" lon="8.57611">
        <ele>488</ele>
        <time>2021-08-10T10:54:45.807Z</time>
      </trkpt>
      <trkpt lat="46.93109" lon="8.5761">
        <ele>488</ele>
        <time>2021-08-10T10:54:46.807Z</time>
      </trkpt>
      <trkpt lat="46.93108" lon="8.57609">
        <ele>488</ele>
        <time>2021-08-10T10:54:47.807Z</time>
      </trkpt>
      <trkpt lat="46.93107" lon="8.57608">
        <ele>488</ele>
        <time>2021-08-10T10:54:48.808Z</time>
      </trkpt>
      <trkpt lat="46.93106" lon="8.57607">
        <ele>488</ele>
        <time>2021-08-10T10:54:49.807Z</time>
      </trkpt>
      <trkpt lat="46.93104" lon="8.57606">
        <ele>488</ele>
        <time>2021-08-10T10:54:50.807Z</time>
      </trkpt>
      <trkpt lat="46.93104" lon="8.57606">
        <ele>488</ele>
        <time>2021-08-10T10:54:51.807Z</time>
      </trkpt>
      <trkpt lat="46.93103" lon="8.57606">
        <ele>488</ele>
        <time>2021-08-10T10:54:52.807Z</time>
      </trkpt>
      <trkpt lat="46.93103" lon="8.57605">
        <ele>488</ele>
        <time>2021-08-10T10:54:53.807Z</time>
      </trkpt>
      <trkpt lat="46.93102" lon="8.57604">
        <ele>488</ele>
        <time>2021-08-10T10:54:54.807Z</time>
      </trkpt>
      <trkpt lat="46.93101" lon="8.57604">
        <ele>487</ele>
        <time>2021-08-10T10:54:55.807Z</time>
      </trkpt>
      <trkpt lat="46.93101" lon="8.57603">
        <ele>487</ele>
        <time>2021-08-10T10:54:56.807Z</time>
      </trkpt>
      <trkpt lat="46.931" lon="8.57603">
        <ele>488</ele>
        <time>2021-08-10T10:54:57.808Z</time>
      </trkpt>
      <trkpt lat="46.93099" lon="8.57603">
        <ele>489</ele>
        <time>2021-08-10T10:54:58.807Z</time>
      </trkpt>
      <trkpt lat="46.93098" lon="8.57603">
        <ele>489</ele>
        <time>2021-08-10T10:54:59.808Z</time>
      </trkpt>
      <trkpt lat="46.93097" lon="8.57603">
        <ele>489</ele>
        <time>2021-08-10T10:55:00.808Z</time>
      </trkpt>
      <trkpt lat="46.93096" lon="8.57603">
        <ele>489</ele>
        <time>2021-08-10T10:55:01.807Z</time>
      </trkpt>
      <trkpt lat="46.93096" lon="8.57603">
        <ele>490</ele>
        <time>2021-08-10T10:55:02.807Z</time>
      </trkpt>
      <trkpt lat="46.93095" lon="8.57603">
        <ele>490</ele>
        <time>2021-08-10T10:55:03.807Z</time>
      </trkpt>
      <trkpt lat="46.93094" lon="8.57603">
        <ele>490</ele>
        <time>2021-08-10T10:55:04.808Z</time>
      </trkpt>
      <trkpt lat="46.93093" lon="8.57604">
        <ele>490</ele>
        <time>2021-08-10T10:55:05.808Z</time>
      </trkpt>
      <trkpt lat="46.93092" lon="8.57604">
        <ele>490</ele>
        <time>2021-08-10T10:55:06.808Z</time>
      </trkpt>
      <trkpt lat="46.93091" lon="8.57604">
        <ele>490</ele>
        <time>2021-08-10T10:55:07.807Z</time>
      </trkpt>
      <trkpt lat="46.9309" lon="8.57605">
        <ele>490</ele>
        <time>2021-08-10T10:55:08.807Z</time>
      </trkpt>
      <trkpt lat="46.93089" lon="8.57606">
        <ele>491</ele>
        <time>2021-08-10T10:55:09.807Z</time>
      </trkpt>
      <trkpt lat="46.93088" lon="8.57608">
        <ele>491</ele>
        <time>2021-08-10T10:55:10.807Z</time>
      </trkpt>
      <trkpt lat="46.93087" lon="8.57609">
        <ele>492</ele>
        <time>2021-08-10T10:55:11.807Z</time>
      </trkpt>
      <trkpt lat="46.93087" lon="8.57609">
        <ele>493</ele>
        <time>2021-08-10T10:55:12.807Z</time>
      </trkpt>
      <trkpt lat="46.93087" lon="8.5761">
        <ele>493</ele>
        <time>2021-08-10T10:55:13.807Z</time>
      </trkpt>
      <trkpt lat="46.93086" lon="8.5761">
        <ele>494</ele>
        <time>2021-08-10T10:55:14.807Z</time>
      </trkpt>
      <trkpt lat="46.93085" lon="8.5761">
        <ele>494</ele>
        <time>2021-08-10T10:55:15.807Z</time>
      </trkpt>
      <trkpt lat="46.93085" lon="8.5761">
        <ele>494</ele>
        <time>2021-08-10T10:55:16.807Z</time>
      </trkpt>
      <trkpt lat="46.93084" lon="8.57611">
        <ele>494</ele>
        <time>2021-08-10T10:55:17.808Z</time>
      </trkpt>
      <trkpt lat="46.93083" lon="8.57611">
        <ele>494</ele>
        <time>2021-08-10T10:55:18.808Z</time>
      </trkpt>
      <trkpt lat="46.93082" lon="8.57612">
        <ele>494</ele>
        <time>2021-08-10T10:55:19.807Z</time>
      </trkpt>
      <trkpt lat="46.93082" lon="8.57613">
        <ele>494</ele>
        <time>2021-08-10T10:55:20.807Z</time>
      </trkpt>
      <trkpt lat="46.93081" lon="8.57614">
        <ele>495</ele>
        <time>2021-08-10T10:55:21.807Z</time>
      </trkpt>
      <trkpt lat="46.9308" lon="8.57614">
        <ele>495</ele>
        <time>2021-08-10T10:55:22.808Z</time>
      </trkpt>
      <trkpt lat="46.93079" lon="8.57615">
        <ele>496</ele>
        <time>2021-08-10T10:55:23.808Z</time>
      </trkpt>
      <trkpt lat="46.93078" lon="8.57616">
        <ele>496</ele>
        <time>2021-08-10T10:55:24.808Z</time>
      </trkpt>
      <trkpt lat="46.93077" lon="8.57616">
        <ele>497</ele>
        <time>2021-08-10T10:55:25.807Z</time>
      </trkpt>
      <trkpt lat="46.93076" lon="8.57617">
        <ele>497</ele>
        <time>2021-08-10T10:55:26.808Z</time>
      </trkpt>
      <trkpt lat="46.93075" lon="8.57617">
        <ele>497</ele>
        <time>2021-08-10T10:55:27.808Z</time>
      </trkpt>
      <trkpt lat="46.93074" lon="8.57618">
        <ele>497</ele>
        <time>2021-08-10T10:55:28.807Z</time>
      </trkpt>
      <trkpt lat="46.93074" lon="8.57617">
        <ele>497</ele>
        <time>2021-08-10T10:55:29.808Z</time>
      </trkpt>
      <trkpt lat="46.93073" lon="8.57617">
        <ele>498</ele>
        <time>2021-08-10T10:55:30.808Z</time>
      </trkpt>
      <trkpt lat="46.93073" lon="8.57616">
        <ele>498</ele>
        <time>2021-08-10T10:55:31.808Z</time>
      </trkpt>
      <trkpt lat="46.93073" lon="8.57616">
        <ele>499</ele>
        <time>2021-08-10T10:55:32.808Z</time>
      </trkpt>
      <trkpt lat="46.93073" lon="8.57616">
        <ele>500</ele>
        <time>2021-08-10T10:55:33.808Z</time>
      </trkpt>
      <trkpt lat="46.93072" lon="8.57616">
        <ele>500</ele>
        <time>2021-08-10T10:55:34.807Z</time>
      </trkpt>
      <trkpt lat="46.93072" lon="8.57616">
        <ele>501</ele>
        <time>2021-08-10T10:55:35.807Z</time>
      </trkpt>
      <trkpt lat="46.93071" lon="8.57616">
        <ele>501</ele>
        <time>2021-08-10T10:55:36.808Z</time>
      </trkpt>
      <trkpt lat="46.93071" lon="8.57616">
        <ele>502</ele>
        <time>2021-08-10T10:55:37.808Z</time>
      </trkpt>
      <trkpt lat="46.93071" lon="8.57616">
        <ele>502</ele>
        <time>2021-08-10T10:55:38.807Z</time>
      </trkpt>
      <trkpt lat="46.93071" lon="8.57615">
        <ele>503</ele>
        <time>2021-08-10T10:55:39.807Z</time>
      </trkpt>
      <trkpt lat="46.9307" lon="8.57615">
        <ele>503</ele>
        <time>2021-08-10T10:55:40.808Z</time>
      </trkpt>
      <trkpt lat="46.9307" lon="8.57616">
        <ele>503</ele>
        <time>2021-08-10T10:55:41.807Z</time>
      </trkpt>
      <trkpt lat="46.93069" lon="8.57616">
        <ele>504</ele>
        <time>2021-08-10T10:55:42.808Z</time>
      </trkpt>
      <trkpt lat="46.93068" lon="8.57617">
        <ele>504</ele>
        <time>2021-08-10T10:55:43.808Z</time>
      </trkpt>
      <trkpt lat="46.93067" lon="8.57618">
        <ele>503</ele>
        <time>2021-08-10T10:55:44.808Z</time>
      </trkpt>
      <trkpt lat="46.93066" lon="8.57619">
        <ele>503</ele>
        <time>2021-08-10T10:55:45.807Z</time>
      </trkpt>
      <trkpt lat="46.93065" lon="8.5762">
        <ele>503</ele>
        <time>2021-08-10T10:55:46.807Z</time>
      </trkpt>
      <trkpt lat="46.93064" lon="8.57622">
        <ele>503</ele>
        <time>2021-08-10T10:55:47.807Z</time>
      </trkpt>
      <trkpt lat="46.93063" lon="8.57623">
        <ele>503</ele>
        <time>2021-08-10T10:55:48.808Z</time>
      </trkpt>
      <trkpt lat="46.93062" lon="8.57624">
        <ele>503</ele>
        <time>2021-08-10T10:55:49.807Z</time>
      </trkpt>
      <trkpt lat="46.93062" lon="8.57625">
        <ele>503</ele>
        <time>2021-08-10T10:55:50.807Z</time>
      </trkpt>
      <trkpt lat="46.93061" lon="8.57625">
        <ele>502</ele>
        <time>2021-08-10T10:55:51.807Z</time>
      </trkpt>
      <trkpt lat="46.93059" lon="8.57626">
        <ele>502</ele>
        <time>2021-08-10T10:55:52.808Z</time>
      </trkpt>
      <trkpt lat="46.93058" lon="8.57626">
        <ele>502</ele>
        <time>2021-08-10T10:55:53.808Z</time>
      </trkpt>
      <trkpt lat="46.93057" lon="8.57626">
        <ele>502</ele>
        <time>2021-08-10T10:55:54.807Z</time>
      </trkpt>
      <trkpt lat="46.93056" lon="8.57627">
        <ele>502</ele>
        <time>2021-08-10T10:55:55.808Z</time>
      </trkpt>
      <trkpt lat="46.93056" lon="8.57627">
        <ele>502</ele>
        <time>2021-08-10T10:55:56.807Z</time>
      </trkpt>
      <trkpt lat="46.93055" lon="8.57628">
        <ele>502</ele>
        <time>2021-08-10T10:55:57.808Z</time>
      </trkpt>
      <trkpt lat="46.93054" lon="8.57629">
        <ele>501</ele>
        <time>2021-08-10T10:55:58.808Z</time>
      </trkpt>
      <trkpt lat="46.93053" lon="8.57629">
        <ele>501</ele>
        <time>2021-08-10T10:55:59.807Z</time>
      </trkpt>
      <trkpt lat="46.93052" lon="8.57629">
        <ele>501</ele>
        <time>2021-08-10T10:56:00.807Z</time>
      </trkpt>
      <trkpt lat="46.93051" lon="8.57629">
        <ele>501</ele>
        <time>2021-08-10T10:56:01.807Z</time>
      </trkpt>
      <trkpt lat="46.9305" lon="8.57629">
        <ele>501</ele>
        <time>2021-08-10T10:56:02.808Z</time>
      </trkpt>
      <trkpt lat="46.93049" lon="8.57629">
        <ele>502</ele>
        <time>2021-08-10T10:56:03.808Z</time>
      </trkpt>
      <trkpt lat="46.93049" lon="8.57629">
        <ele>502</ele>
        <time>2021-08-10T10:56:04.807Z</time>
      </trkpt>
      <trkpt lat="46.93048" lon="8.57628">
        <ele>502</ele>
        <time>2021-08-10T10:56:05.807Z</time>
      </trkpt>
      <trkpt lat="46.93047" lon="8.57628">
        <ele>502</ele>
        <time>2021-08-10T10:56:06.807Z</time>
      </trkpt>
      <trkpt lat="46.93047" lon="8.57627">
        <ele>501</ele>
        <time>2021-08-10T10:56:07.808Z</time>
      </trkpt>
      <trkpt lat="46.93046" lon="8.57627">
        <ele>501</ele>
        <time>2021-08-10T10:56:08.808Z</time>
      </trkpt>
      <trkpt lat="46.93046" lon="8.57627">
        <ele>501</ele>
        <time>2021-08-10T10:56:09.807Z</time>
      </trkpt>
      <trkpt lat="46.93045" lon="8.57626">
        <ele>501</ele>
        <time>2021-08-10T10:56:10.807Z</time>
      </trkpt>
      <trkpt lat="46.93045" lon="8.57625">
        <ele>500</ele>
        <time>2021-08-10T10:56:11.807Z</time>
      </trkpt>
      <trkpt lat="46.93045" lon="8.57624">
        <ele>499</ele>
        <time>2021-08-10T10:56:12.808Z</time>
      </trkpt>
      <trkpt lat="46.93044" lon="8.57623">
        <ele>499</ele>
        <time>2021-08-10T10:56:13.807Z</time>
      </trkpt>
      <trkpt lat="46.93044" lon="8.57622">
        <ele>498</ele>
        <time>2021-08-10T10:56:14.807Z</time>
      </trkpt>
      <trkpt lat="46.93044" lon="8.57621">
        <ele>498</ele>
        <time>2021-08-10T10:56:15.807Z</time>
      </trkpt>
      <trkpt lat="46.93043" lon="8.5762">
        <ele>498</ele>
        <time>2021-08-10T10:56:16.807Z</time>
      </trkpt>
      <trkpt lat="46.93043" lon="8.5762">
        <ele>498</ele>
        <time>2021-08-10T10:56:17.808Z</time>
      </trkpt>
      <trkpt lat="46.93042" lon="8.57619">
        <ele>498</ele>
        <time>2021-08-10T10:56:18.807Z</time>
      </trkpt>
      <trkpt lat="46.93042" lon="8.57618">
        <ele>498</ele>
        <time>2021-08-10T10:56:19.807Z</time>
      </trkpt>
      <trkpt lat="46.93041" lon="8.57617">
        <ele>498</ele>
        <time>2021-08-10T10:56:20.807Z</time>
      </trkpt>
      <trkpt lat="46.9304" lon="8.57616">
        <ele>499</ele>
        <time>2021-08-10T10:56:21.807Z</time>
      </trkpt>
      <trkpt lat="46.93039" lon="8.57616">
        <ele>499</ele>
        <time>2021-08-10T10:56:22.808Z</time>
      </trkpt>
      <trkpt lat="46.93039" lon="8.57615">
        <ele>499</ele>
        <time>2021-08-10T10:56:23.807Z</time>
      </trkpt>
      <trkpt lat="46.93038" lon="8.57614">
        <ele>499</ele>
        <time>2021-08-10T10:56:24.807Z</time>
      </trkpt>
      <trkpt lat="46.93037" lon="8.57613">
        <ele>498</ele>
        <time>2021-08-10T10:56:25.807Z</time>
      </trkpt>
      <trkpt lat="46.93036" lon="8.57612">
        <ele>498</ele>
        <time>2021-08-10T10:56:26.807Z</time>
      </trkpt>
      <trkpt lat="46.93036" lon="8.57612">
        <ele>498</ele>
        <time>2021-08-10T10:56:27.807Z</time>
      </trkpt>
      <trkpt lat="46.93035" lon="8.57611">
        <ele>499</ele>
        <time>2021-08-10T10:56:28.808Z</time>
      </trkpt>
      <trkpt lat="46.93034" lon="8.5761">
        <ele>499</ele>
        <time>2021-08-10T10:56:29.807Z</time>
      </trkpt>
      <trkpt lat="46.93033" lon="8.5761">
        <ele>500</ele>
        <time>2021-08-10T10:56:30.807Z</time>
      </trkpt>
      <trkpt lat="46.93032" lon="8.57609">
        <ele>500</ele>
        <time>2021-08-10T10:56:31.808Z</time>
      </trkpt>
      <trkpt lat="46.93031" lon="8.57609">
        <ele>501</ele>
        <time>2021-08-10T10:56:32.807Z</time>
      </trkpt>
      <trkpt lat="46.9303" lon="8.57609">
        <ele>502</ele>
        <time>2021-08-10T10:56:33.807Z</time>
      </trkpt>
      <trkpt lat="46.93029" lon="8.57609">
        <ele>503</ele>
        <time>2021-08-10T10:56:34.807Z</time>
      </trkpt>
      <trkpt lat="46.93028" lon="8.57608">
        <ele>504</ele>
        <time>2021-08-10T10:56:35.808Z</time>
      </trkpt>
      <trkpt lat="46.93027" lon="8.57609">
        <ele>504</ele>
        <time>2021-08-10T10:56:36.807Z</time>
      </trkpt>
      <trkpt lat="46.93027" lon="8.57609">
        <ele>505</ele>
        <time>2021-08-10T10:56:37.808Z</time>
      </trkpt>
      <trkpt lat="46.93026" lon="8.5761">
        <ele>505</ele>
        <time>2021-08-10T10:56:38.808Z</time>
      </trkpt>
      <trkpt lat="46.93026" lon="8.57611">
        <ele>505</ele>
        <time>2021-08-10T10:56:39.808Z</time>
      </trkpt>
      <trkpt lat="46.93025" lon="8.57615">
        <ele>510</ele>
        <time>2021-08-10T10:56:40.807Z</time>
      </trkpt>
      <trkpt lat="46.93025" lon="8.57615">
        <ele>510</ele>
        <time>2021-08-10T10:56:41.808Z</time>
      </trkpt>
      <trkpt lat="46.93025" lon="8.57614">
        <ele>505</ele>
        <time>2021-08-10T10:56:42.810Z</time>
      </trkpt>
      <trkpt lat="46.93023" lon="8.57616">
        <ele>503</ele>
        <time>2021-08-10T10:56:43.809Z</time>
      </trkpt>
      <trkpt lat="46.93023" lon="8.57617">
        <ele>503</ele>
        <time>2021-08-10T10:56:44.809Z</time>
      </trkpt>
      <trkpt lat="46.93023" lon="8.57616">
        <ele>502</ele>
        <time>2021-08-10T10:56:45.809Z</time>
      </trkpt>
      <trkpt lat="46.93023" lon="8.57616">
        <ele>502</ele>
        <time>2021-08-10T10:56:46.810Z</time>
      </trkpt>
      <trkpt lat="46.93023" lon="8.57616">
        <ele>502</ele>
        <time>2021-08-10T10:56:47.810Z</time>
      </trkpt>
      <trkpt lat="46.93023" lon="8.57616">
        <ele>502</ele>
        <time>2021-08-10T10:56:48.810Z</time>
      </trkpt>
      <trkpt lat="46.93024" lon="8.57615">
        <ele>503</ele>
        <time>2021-08-10T10:56:49.811Z</time>
      </trkpt>
      <trkpt lat="46.93024" lon="8.57615">
        <ele>502</ele>
        <time>2021-08-10T10:56:50.811Z</time>
      </trkpt>
      <trkpt lat="46.93024" lon="8.57615">
        <ele>501</ele>
        <time>2021-08-10T10:56:51.810Z</time>
      </trkpt>
      <trkpt lat="46.93024" lon="8.57615">
        <ele>501</ele>
        <time>2021-08-10T10:56:52.810Z</time>
      </trkpt>
      <trkpt lat="46.93023" lon="8.57616">
        <ele>500</ele>
        <time>2021-08-10T10:56:53.812Z</time>
      </trkpt>
      <trkpt lat="46.93023" lon="8.57617">
        <ele>499</ele>
        <time>2021-08-10T10:56:54.811Z</time>
      </trkpt>
      <trkpt lat="46.93022" lon="8.57617">
        <ele>499</ele>
        <time>2021-08-10T10:56:55.812Z</time>
      </trkpt>
      <trkpt lat="46.93022" lon="8.57617">
        <ele>499</ele>
        <time>2021-08-10T10:56:56.811Z</time>
      </trkpt>
      <trkpt lat="46.93022" lon="8.57617">
        <ele>498</ele>
        <time>2021-08-10T10:56:57.811Z</time>
      </trkpt>
      <trkpt lat="46.93022" lon="8.57617">
        <ele>498</ele>
        <time>2021-08-10T10:56:58.811Z</time>
      </trkpt>
      <trkpt lat="46.93022" lon="8.57617">
        <ele>498</ele>
        <time>2021-08-10T10:56:59.812Z</time>
      </trkpt>
      <trkpt lat="46.93021" lon="8.57617">
        <ele>497</ele>
        <time>2021-08-10T10:57:00.811Z</time>
      </trkpt>
      <trkpt lat="46.9302" lon="8.57618">
        <ele>497</ele>
        <time>2021-08-10T10:57:01.812Z</time>
      </trkpt>
      <trkpt lat="46.93019" lon="8.57618">
        <ele>497</ele>
        <time>2021-08-10T10:57:02.812Z</time>
      </trkpt>
      <trkpt lat="46.93019" lon="8.57619">
        <ele>498</ele>
        <time>2021-08-10T10:57:03.812Z</time>
      </trkpt>
      <trkpt lat="46.93018" lon="8.5762">
        <ele>498</ele>
        <time>2021-08-10T10:57:04.812Z</time>
      </trkpt>
      <trkpt lat="46.93018" lon="8.57621">
        <ele>498</ele>
        <time>2021-08-10T10:57:05.812Z</time>
      </trkpt>
      <trkpt lat="46.93018" lon="8.57621">
        <ele>498</ele>
        <time>2021-08-10T10:57:06.812Z</time>
      </trkpt>
      <trkpt lat="46.93018" lon="8.57621">
        <ele>499</ele>
        <time>2021-08-10T10:57:07.812Z</time>
      </trkpt>
      <trkpt lat="46.93017" lon="8.57621">
        <ele>499</ele>
        <time>2021-08-10T10:57:08.812Z</time>
      </trkpt>
      <trkpt lat="46.93017" lon="8.57621">
        <ele>499</ele>
        <time>2021-08-10T10:57:09.811Z</time>
      </trkpt>
      <trkpt lat="46.93016" lon="8.57621">
        <ele>500</ele>
        <time>2021-08-10T10:57:10.812Z</time>
      </trkpt>
      <trkpt lat="46.93015" lon="8.57621">
        <ele>500</ele>
        <time>2021-08-10T10:57:11.811Z</time>
      </trkpt>
      <trkpt lat="46.93014" lon="8.57622">
        <ele>500</ele>
        <time>2021-08-10T10:57:12.811Z</time>
      </trkpt>
      <trkpt lat="46.93014" lon="8.57623">
        <ele>501</ele>
        <time>2021-08-10T10:57:13.812Z</time>
      </trkpt>
      <trkpt lat="46.93013" lon="8.57623">
        <ele>502</ele>
        <time>2021-08-10T10:57:14.812Z</time>
      </trkpt>
      <trkpt lat="46.93012" lon="8.57624">
        <ele>503</ele>
        <time>2021-08-10T10:57:15.812Z</time>
      </trkpt>
      <trkpt lat="46.93011" lon="8.57624">
        <ele>503</ele>
        <time>2021-08-10T10:57:16.812Z</time>
      </trkpt>
      <trkpt lat="46.9301" lon="8.57625">
        <ele>503</ele>
        <time>2021-08-10T10:57:17.812Z</time>
      </trkpt>
      <trkpt lat="46.93009" lon="8.57625">
        <ele>503</ele>
        <time>2021-08-10T10:57:18.812Z</time>
      </trkpt>
      <trkpt lat="46.93008" lon="8.57626">
        <ele>504</ele>
        <time>2021-08-10T10:57:19.812Z</time>
      </trkpt>
      <trkpt lat="46.93007" lon="8.57626">
        <ele>504</ele>
        <time>2021-08-10T10:57:20.812Z</time>
      </trkpt>
      <trkpt lat="46.93006" lon="8.57627">
        <ele>504</ele>
        <time>2021-08-10T10:57:21.812Z</time>
      </trkpt>
      <trkpt lat="46.93006" lon="8.57628">
        <ele>504</ele>
        <time>2021-08-10T10:57:22.812Z</time>
      </trkpt>
      <trkpt lat="46.93005" lon="8.57628">
        <ele>503</ele>
        <time>2021-08-10T10:57:23.812Z</time>
      </trkpt>
      <trkpt lat="46.93004" lon="8.57628">
        <ele>503</ele>
        <time>2021-08-10T10:57:24.812Z</time>
      </trkpt>
      <trkpt lat="46.93003" lon="8.57629">
        <ele>504</ele>
        <time>2021-08-10T10:57:25.812Z</time>
      </trkpt>
      <trkpt lat="46.93002" lon="8.57629">
        <ele>504</ele>
        <time>2021-08-10T10:57:26.812Z</time>
      </trkpt>
      <trkpt lat="46.93001" lon="8.5763">
        <ele>504</ele>
        <time>2021-08-10T10:57:27.812Z</time>
      </trkpt>
      <trkpt lat="46.93001" lon="8.57631">
        <ele>504</ele>
        <time>2021-08-10T10:57:28.812Z</time>
      </trkpt>
      <trkpt lat="46.93" lon="8.57632">
        <ele>504</ele>
        <time>2021-08-10T10:57:29.811Z</time>
      </trkpt>
      <trkpt lat="46.92999" lon="8.57632">
        <ele>505</ele>
        <time>2021-08-10T10:57:30.812Z</time>
      </trkpt>
      <trkpt lat="46.92999" lon="8.57632">
        <ele>505</ele>
        <time>2021-08-10T10:57:31.812Z</time>
      </trkpt>
      <trkpt lat="46.92998" lon="8.57633">
        <ele>505</ele>
        <time>2021-08-10T10:57:32.811Z</time>
      </trkpt>
      <trkpt lat="46.92998" lon="8.57633">
        <ele>505</ele>
        <time>2021-08-10T10:57:33.812Z</time>
      </trkpt>
      <trkpt lat="46.92997" lon="8.57634">
        <ele>505</ele>
        <time>2021-08-10T10:57:34.812Z</time>
      </trkpt>
      <trkpt lat="46.92996" lon="8.57634">
        <ele>505</ele>
        <time>2021-08-10T10:57:35.812Z</time>
      </trkpt>
      <trkpt lat="46.92996" lon="8.57634">
        <ele>505</ele>
        <time>2021-08-10T10:57:36.811Z</time>
      </trkpt>
      <trkpt lat="46.92995" lon="8.57634">
        <ele>505</ele>
        <time>2021-08-10T10:57:37.811Z</time>
      </trkpt>
      <trkpt lat="46.92994" lon="8.57634">
        <ele>504</ele>
        <time>2021-08-10T10:57:38.811Z</time>
      </trkpt>
      <trkpt lat="46.92994" lon="8.57634">
        <ele>504</ele>
        <time>2021-08-10T10:57:39.812Z</time>
      </trkpt>
      <trkpt lat="46.92993" lon="8.57635">
        <ele>504</ele>
        <time>2021-08-10T10:57:40.812Z</time>
      </trkpt>
      <trkpt lat="46.92992" lon="8.57635">
        <ele>505</ele>
        <time>2021-08-10T10:57:41.812Z</time>
      </trkpt>
      <trkpt lat="46.92991" lon="8.57635">
        <ele>505</ele>
        <time>2021-08-10T10:57:42.811Z</time>
      </trkpt>
      <trkpt lat="46.92991" lon="8.57636">
        <ele>505</ele>
        <time>2021-08-10T10:57:43.811Z</time>
      </trkpt>
      <trkpt lat="46.9299" lon="8.57636">
        <ele>505</ele>
        <time>2021-08-10T10:57:44.811Z</time>
      </trkpt>
      <trkpt lat="46.92989" lon="8.57637">
        <ele>505</ele>
        <time>2021-08-10T10:57:45.811Z</time>
      </trkpt>
      <trkpt lat="46.92988" lon="8.57638">
        <ele>505</ele>
        <time>2021-08-10T10:57:46.812Z</time>
      </trkpt>
      <trkpt lat="46.92987" lon="8.57639">
        <ele>505</ele>
        <time>2021-08-10T10:57:47.811Z</time>
      </trkpt>
      <trkpt lat="46.92986" lon="8.5764">
        <ele>505</ele>
        <time>2021-08-10T10:57:48.811Z</time>
      </trkpt>
      <trkpt lat="46.92986" lon="8.57641">
        <ele>505</ele>
        <time>2021-08-10T10:57:49.811Z</time>
      </trkpt>
      <trkpt lat="46.92985" lon="8.57642">
        <ele>505</ele>
        <time>2021-08-10T10:57:50.811Z</time>
      </trkpt>
      <trkpt lat="46.92984" lon="8.57643">
        <ele>504</ele>
        <time>2021-08-10T10:57:51.811Z</time>
      </trkpt>
      <trkpt lat="46.92984" lon="8.57644">
        <ele>504</ele>
        <time>2021-08-10T10:57:52.812Z</time>
      </trkpt>
      <trkpt lat="46.92983" lon="8.57645">
        <ele>504</ele>
        <time>2021-08-10T10:57:53.811Z</time>
      </trkpt>
      <trkpt lat="46.92983" lon="8.57647">
        <ele>504</ele>
        <time>2021-08-10T10:57:54.811Z</time>
      </trkpt>
      <trkpt lat="46.92983" lon="8.57648">
        <ele>503</ele>
        <time>2021-08-10T10:57:55.811Z</time>
      </trkpt>
      <trkpt lat="46.92983" lon="8.57649">
        <ele>503</ele>
        <time>2021-08-10T10:57:56.811Z</time>
      </trkpt>
      <trkpt lat="46.92982" lon="8.5765">
        <ele>503</ele>
        <time>2021-08-10T10:57:57.812Z</time>
      </trkpt>
      <trkpt lat="46.92982" lon="8.57651">
        <ele>502</ele>
        <time>2021-08-10T10:57:58.811Z</time>
      </trkpt>
      <trkpt lat="46.92982" lon="8.57652">
        <ele>502</ele>
        <time>2021-08-10T10:57:59.811Z</time>
      </trkpt>
      <trkpt lat="46.92981" lon="8.57653">
        <ele>502</ele>
        <time>2021-08-10T10:58:00.811Z</time>
      </trkpt>
      <trkpt lat="46.92981" lon="8.57653">
        <ele>502</ele>
        <time>2021-08-10T10:58:01.811Z</time>
      </trkpt>
      <trkpt lat="46.92981" lon="8.57654">
        <ele>502</ele>
        <time>2021-08-10T10:58:02.811Z</time>
      </trkpt>
      <trkpt lat="46.9298" lon="8.57655">
        <ele>502</ele>
        <time>2021-08-10T10:58:03.812Z</time>
      </trkpt>
      <trkpt lat="46.92979" lon="8.57656">
        <ele>503</ele>
        <time>2021-08-10T10:58:04.811Z</time>
      </trkpt>
      <trkpt lat="46.92978" lon="8.57657">
        <ele>503</ele>
        <time>2021-08-10T10:58:05.811Z</time>
      </trkpt>
      <trkpt lat="46.92977" lon="8.57657">
        <ele>503</ele>
        <time>2021-08-10T10:58:06.811Z</time>
      </trkpt>
      <trkpt lat="46.92976" lon="8.57658">
        <ele>503</ele>
        <time>2021-08-10T10:58:07.811Z</time>
      </trkpt>
      <trkpt lat="46.92975" lon="8.57659">
        <ele>503</ele>
        <time>2021-08-10T10:58:08.811Z</time>
      </trkpt>
      <trkpt lat="46.92975" lon="8.5766">
        <ele>504</ele>
        <time>2021-08-10T10:58:09.811Z</time>
      </trkpt>
      <trkpt lat="46.92974" lon="8.5766">
        <ele>504</ele>
        <time>2021-08-10T10:58:10.811Z</time>
      </trkpt>
      <trkpt lat="46.92973" lon="8.57661">
        <ele>504</ele>
        <time>2021-08-10T10:58:11.811Z</time>
      </trkpt>
      <trkpt lat="46.92972" lon="8.57661">
        <ele>504</ele>
        <time>2021-08-10T10:58:12.811Z</time>
      </trkpt>
      <trkpt lat="46.92972" lon="8.57661">
        <ele>505</ele>
        <time>2021-08-10T10:58:13.811Z</time>
      </trkpt>
      <trkpt lat="46.92972" lon="8.57662">
        <ele>505</ele>
        <time>2021-08-10T10:58:14.811Z</time>
      </trkpt>
      <trkpt lat="46.92971" lon="8.57662">
        <ele>506</ele>
        <time>2021-08-10T10:58:15.811Z</time>
      </trkpt>
      <trkpt lat="46.92971" lon="8.57663">
        <ele>506</ele>
        <time>2021-08-10T10:58:16.811Z</time>
      </trkpt>
      <trkpt lat="46.92969" lon="8.57664">
        <ele>506</ele>
        <time>2021-08-10T10:58:17.811Z</time>
      </trkpt>
      <trkpt lat="46.92968" lon="8.57665">
        <ele>507</ele>
        <time>2021-08-10T10:58:18.811Z</time>
      </trkpt>
      <trkpt lat="46.92967" lon="8.57665">
        <ele>507</ele>
        <time>2021-08-10T10:58:19.811Z</time>
      </trkpt>
      <trkpt lat="46.92967" lon="8.57665">
        <ele>507</ele>
        <time>2021-08-10T10:58:20.811Z</time>
      </trkpt>
      <trkpt lat="46.92966" lon="8.57665">
        <ele>507</ele>
        <time>2021-08-10T10:58:21.811Z</time>
      </trkpt>
      <trkpt lat="46.92966" lon="8.57665">
        <ele>507</ele>
        <time>2021-08-10T10:58:22.811Z</time>
      </trkpt>
      <trkpt lat="46.92965" lon="8.57665">
        <ele>507</ele>
        <time>2021-08-10T10:58:23.811Z</time>
      </trkpt>
      <trkpt lat="46.92965" lon="8.57665">
        <ele>507</ele>
        <time>2021-08-10T10:58:24.811Z</time>
      </trkpt>
      <trkpt lat="46.92964" lon="8.57665">
        <ele>506</ele>
        <time>2021-08-10T10:58:25.811Z</time>
      </trkpt>
      <trkpt lat="46.92964" lon="8.57665">
        <ele>506</ele>
        <time>2021-08-10T10:58:26.811Z</time>
      </trkpt>
      <trkpt lat="46.92963" lon="8.57665">
        <ele>505</ele>
        <time>2021-08-10T10:58:27.811Z</time>
      </trkpt>
      <trkpt lat="46.92962" lon="8.57665">
        <ele>505</ele>
        <time>2021-08-10T10:58:28.811Z</time>
      </trkpt>
      <trkpt lat="46.92961" lon="8.57665">
        <ele>505</ele>
        <time>2021-08-10T10:58:29.811Z</time>
      </trkpt>
      <trkpt lat="46.92961" lon="8.57665">
        <ele>506</ele>
        <time>2021-08-10T10:58:30.811Z</time>
      </trkpt>
      <trkpt lat="46.9296" lon="8.57665">
        <ele>506</ele>
        <time>2021-08-10T10:58:31.812Z</time>
      </trkpt>
      <trkpt lat="46.92959" lon="8.57665">
        <ele>507</ele>
        <time>2021-08-10T10:58:32.811Z</time>
      </trkpt>
      <trkpt lat="46.92959" lon="8.57666">
        <ele>507</ele>
        <time>2021-08-10T10:58:33.811Z</time>
      </trkpt>
      <trkpt lat="46.92958" lon="8.57666">
        <ele>508</ele>
        <time>2021-08-10T10:58:34.812Z</time>
      </trkpt>
      <trkpt lat="46.92958" lon="8.57666">
        <ele>509</ele>
        <time>2021-08-10T10:58:35.812Z</time>
      </trkpt>
      <trkpt lat="46.92958" lon="8.57668">
        <ele>510</ele>
        <time>2021-08-10T10:58:36.812Z</time>
      </trkpt>
      <trkpt lat="46.92957" lon="8.57669">
        <ele>511</ele>
        <time>2021-08-10T10:58:37.812Z</time>
      </trkpt>
      <trkpt lat="46.92957" lon="8.57671">
        <ele>511</ele>
        <time>2021-08-10T10:58:38.812Z</time>
      </trkpt>
      <trkpt lat="46.92957" lon="8.57672">
        <ele>512</ele>
        <time>2021-08-10T10:58:39.811Z</time>
      </trkpt>
      <trkpt lat="46.92956" lon="8.57673">
        <ele>512</ele>
        <time>2021-08-10T10:58:40.812Z</time>
      </trkpt>
      <trkpt lat="46.92955" lon="8.57674">
        <ele>512</ele>
        <time>2021-08-10T10:58:41.812Z</time>
      </trkpt>
      <trkpt lat="46.92955" lon="8.57674">
        <ele>513</ele>
        <time>2021-08-10T10:58:42.811Z</time>
      </trkpt>
      <trkpt lat="46.92954" lon="8.57674">
        <ele>513</ele>
        <time>2021-08-10T10:58:43.812Z</time>
      </trkpt>
      <trkpt lat="46.92953" lon="8.57674">
        <ele>513</ele>
        <time>2021-08-10T10:58:44.811Z</time>
      </trkpt>
      <trkpt lat="46.92953" lon="8.57673">
        <ele>513</ele>
        <time>2021-08-10T10:58:45.812Z</time>
      </trkpt>
      <trkpt lat="46.92952" lon="8.57673">
        <ele>513</ele>
        <time>2021-08-10T10:58:46.812Z</time>
      </trkpt>
      <trkpt lat="46.92951" lon="8.57673">
        <ele>514</ele>
        <time>2021-08-10T10:58:47.812Z</time>
      </trkpt>
      <trkpt lat="46.92951" lon="8.57673">
        <ele>514</ele>
        <time>2021-08-10T10:58:48.811Z</time>
      </trkpt>
      <trkpt lat="46.9295" lon="8.57672">
        <ele>514</ele>
        <time>2021-08-10T10:58:49.812Z</time>
      </trkpt>
      <trkpt lat="46.92949" lon="8.57671">
        <ele>514</ele>
        <time>2021-08-10T10:58:50.811Z</time>
      </trkpt>
      <trkpt lat="46.92948" lon="8.57671">
        <ele>514</ele>
        <time>2021-08-10T10:58:51.812Z</time>
      </trkpt>
      <trkpt lat="46.92947" lon="8.5767">
        <ele>514</ele>
        <time>2021-08-10T10:58:52.811Z</time>
      </trkpt>
      <trkpt lat="46.92947" lon="8.5767">
        <ele>514</ele>
        <time>2021-08-10T10:58:53.812Z</time>
      </trkpt>
      <trkpt lat="46.92945" lon="8.57669">
        <ele>514</ele>
        <time>2021-08-10T10:58:54.812Z</time>
      </trkpt>
      <trkpt lat="46.92945" lon="8.57669">
        <ele>513</ele>
        <time>2021-08-10T10:58:55.811Z</time>
      </trkpt>
      <trkpt lat="46.92943" lon="8.57669">
        <ele>513</ele>
        <time>2021-08-10T10:58:56.811Z</time>
      </trkpt>
      <trkpt lat="46.92942" lon="8.57668">
        <ele>512</ele>
        <time>2021-08-10T10:58:57.812Z</time>
      </trkpt>
      <trkpt lat="46.92941" lon="8.57668">
        <ele>512</ele>
        <time>2021-08-10T10:58:58.812Z</time>
      </trkpt>
      <trkpt lat="46.92939" lon="8.57667">
        <ele>511</ele>
        <time>2021-08-10T10:58:59.811Z</time>
      </trkpt>
      <trkpt lat="46.92937" lon="8.57665">
        <ele>511</ele>
        <time>2021-08-10T10:59:00.812Z</time>
      </trkpt>
      <trkpt lat="46.92937" lon="8.57664">
        <ele>511</ele>
        <time>2021-08-10T10:59:01.811Z</time>
      </trkpt>
      <trkpt lat="46.92937" lon="8.57663">
        <ele>511</ele>
        <time>2021-08-10T10:59:02.812Z</time>
      </trkpt>
      <trkpt lat="46.92937" lon="8.57663">
        <ele>511</ele>
        <time>2021-08-10T10:59:03.812Z</time>
      </trkpt>
      <trkpt lat="46.92936" lon="8.57663">
        <ele>511</ele>
        <time>2021-08-10T10:59:04.812Z</time>
      </trkpt>
      <trkpt lat="46.92936" lon="8.57662">
        <ele>511</ele>
        <time>2021-08-10T10:59:05.811Z</time>
      </trkpt>
      <trkpt lat="46.92935" lon="8.57662">
        <ele>511</ele>
        <time>2021-08-10T10:59:06.812Z</time>
      </trkpt>
      <trkpt lat="46.92934" lon="8.57661">
        <ele>511</ele>
        <time>2021-08-10T10:59:07.812Z</time>
      </trkpt>
      <trkpt lat="46.92934" lon="8.5766">
        <ele>510</ele>
        <time>2021-08-10T10:59:08.812Z</time>
      </trkpt>
      <trkpt lat="46.92933" lon="8.57658">
        <ele>510</ele>
        <time>2021-08-10T10:59:09.811Z</time>
      </trkpt>
      <trkpt lat="46.92933" lon="8.57657">
        <ele>510</ele>
        <time>2021-08-10T10:59:10.812Z</time>
      </trkpt>
      <trkpt lat="46.92932" lon="8.57656">
        <ele>510</ele>
        <time>2021-08-10T10:59:11.812Z</time>
      </trkpt>
      <trkpt lat="46.92932" lon="8.57656">
        <ele>509</ele>
        <time>2021-08-10T10:59:12.811Z</time>
      </trkpt>
      <trkpt lat="46.92931" lon="8.57655">
        <ele>509</ele>
        <time>2021-08-10T10:59:13.811Z</time>
      </trkpt>
      <trkpt lat="46.9293" lon="8.57655">
        <ele>509</ele>
        <time>2021-08-10T10:59:14.812Z</time>
      </trkpt>
      <trkpt lat="46.92929" lon="8.57655">
        <ele>508</ele>
        <time>2021-08-10T10:59:15.811Z</time>
      </trkpt>
      <trkpt lat="46.92928" lon="8.57656">
        <ele>508</ele>
        <time>2021-08-10T10:59:16.811Z</time>
      </trkpt>
      <trkpt lat="46.92928" lon="8.57658">
        <ele>507</ele>
        <time>2021-08-10T10:59:17.811Z</time>
      </trkpt>
      <trkpt lat="46.92928" lon="8.57659">
        <ele>507</ele>
        <time>2021-08-10T10:59:18.811Z</time>
      </trkpt>
      <trkpt lat="46.92928" lon="8.5766">
        <ele>506</ele>
        <time>2021-08-10T10:59:19.811Z</time>
      </trkpt>
      <trkpt lat="46.92928" lon="8.57662">
        <ele>506</ele>
        <time>2021-08-10T10:59:20.811Z</time>
      </trkpt>
      <trkpt lat="46.92927" lon="8.57663">
        <ele>506</ele>
        <time>2021-08-10T10:59:21.812Z</time>
      </trkpt>
      <trkpt lat="46.92927" lon="8.57665">
        <ele>506</ele>
        <time>2021-08-10T10:59:22.812Z</time>
      </trkpt>
      <trkpt lat="46.92927" lon="8.57666">
        <ele>505</ele>
        <time>2021-08-10T10:59:23.812Z</time>
      </trkpt>
      <trkpt lat="46.92927" lon="8.57668">
        <ele>505</ele>
        <time>2021-08-10T10:59:24.812Z</time>
      </trkpt>
      <trkpt lat="46.92928" lon="8.57669">
        <ele>504</ele>
        <time>2021-08-10T10:59:25.812Z</time>
      </trkpt>
      <trkpt lat="46.92928" lon="8.57668">
        <ele>504</ele>
        <time>2021-08-10T10:59:26.812Z</time>
      </trkpt>
      <trkpt lat="46.92928" lon="8.57669">
        <ele>503</ele>
        <time>2021-08-10T10:59:27.811Z</time>
      </trkpt>
      <trkpt lat="46.92927" lon="8.57671">
        <ele>502</ele>
        <time>2021-08-10T10:59:28.812Z</time>
      </trkpt>
      <trkpt lat="46.92927" lon="8.57672">
        <ele>501</ele>
        <time>2021-08-10T10:59:29.811Z</time>
      </trkpt>
      <trkpt lat="46.92928" lon="8.57673">
        <ele>501</ele>
        <time>2021-08-10T10:59:30.812Z</time>
      </trkpt>
      <trkpt lat="46.92928" lon="8.57673">
        <ele>501</ele>
        <time>2021-08-10T10:59:31.812Z</time>
      </trkpt>
      <trkpt lat="46.92928" lon="8.57674">
        <ele>500</ele>
        <time>2021-08-10T10:59:32.811Z</time>
      </trkpt>
      <trkpt lat="46.92928" lon="8.57675">
        <ele>500</ele>
        <time>2021-08-10T10:59:33.811Z</time>
      </trkpt>
      <trkpt lat="46.92928" lon="8.57676">
        <ele>500</ele>
        <time>2021-08-10T10:59:34.812Z</time>
      </trkpt>
      <trkpt lat="46.92928" lon="8.57677">
        <ele>500</ele>
        <time>2021-08-10T10:59:35.811Z</time>
      </trkpt>
      <trkpt lat="46.92928" lon="8.57678">
        <ele>499</ele>
        <time>2021-08-10T10:59:36.811Z</time>
      </trkpt>
      <trkpt lat="46.92928" lon="8.57679">
        <ele>499</ele>
        <time>2021-08-10T10:59:37.812Z</time>
      </trkpt>
      <trkpt lat="46.92929" lon="8.5768">
        <ele>498</ele>
        <time>2021-08-10T10:59:38.812Z</time>
      </trkpt>
      <trkpt lat="46.92929" lon="8.57681">
        <ele>498</ele>
        <time>2021-08-10T10:59:39.812Z</time>
      </trkpt>
      <trkpt lat="46.92929" lon="8.57682">
        <ele>498</ele>
        <time>2021-08-10T10:59:40.812Z</time>
      </trkpt>
      <trkpt lat="46.92929" lon="8.57683">
        <ele>497</ele>
        <time>2021-08-10T10:59:41.812Z</time>
      </trkpt>
      <trkpt lat="46.92929" lon="8.57683">
        <ele>497</ele>
        <time>2021-08-10T10:59:42.812Z</time>
      </trkpt>
      <trkpt lat="46.92929" lon="8.57684">
        <ele>497</ele>
        <time>2021-08-10T10:59:43.811Z</time>
      </trkpt>
      <trkpt lat="46.9293" lon="8.57685">
        <ele>496</ele>
        <time>2021-08-10T10:59:44.812Z</time>
      </trkpt>
      <trkpt lat="46.9293" lon="8.57685">
        <ele>496</ele>
        <time>2021-08-10T10:59:45.812Z</time>
      </trkpt>
      <trkpt lat="46.9293" lon="8.57686">
        <ele>495</ele>
        <time>2021-08-10T10:59:46.812Z</time>
      </trkpt>
      <trkpt lat="46.9293" lon="8.57687">
        <ele>495</ele>
        <time>2021-08-10T10:59:47.812Z</time>
      </trkpt>
      <trkpt lat="46.9293" lon="8.57688">
        <ele>495</ele>
        <time>2021-08-10T10:59:48.811Z</time>
      </trkpt>
      <trkpt lat="46.92929" lon="8.57689">
        <ele>494</ele>
        <time>2021-08-10T10:59:49.812Z</time>
      </trkpt>
      <trkpt lat="46.92929" lon="8.57691">
        <ele>494</ele>
        <time>2021-08-10T10:59:50.812Z</time>
      </trkpt>
      <trkpt lat="46.92929" lon="8.57692">
        <ele>493</ele>
        <time>2021-08-10T10:59:51.811Z</time>
      </trkpt>
      <trkpt lat="46.92928" lon="8.57694">
        <ele>493</ele>
        <time>2021-08-10T10:59:52.812Z</time>
      </trkpt>
      <trkpt lat="46.92929" lon="8.57695">
        <ele>492</ele>
        <time>2021-08-10T10:59:53.812Z</time>
      </trkpt>
      <trkpt lat="46.92929" lon="8.57696">
        <ele>492</ele>
        <time>2021-08-10T10:59:54.812Z</time>
      </trkpt>
      <trkpt lat="46.92929" lon="8.57697">
        <ele>491</ele>
        <time>2021-08-10T10:59:55.811Z</time>
      </trkpt>
      <trkpt lat="46.9293" lon="8.57698">
        <ele>491</ele>
        <time>2021-08-10T10:59:56.812Z</time>
      </trkpt>
      <trkpt lat="46.9293" lon="8.57699">
        <ele>490</ele>
        <time>2021-08-10T10:59:57.812Z</time>
      </trkpt>
      <trkpt lat="46.9293" lon="8.577">
        <ele>490</ele>
        <time>2021-08-10T10:59:58.812Z</time>
      </trkpt>
      <trkpt lat="46.9293" lon="8.57701">
        <ele>489</ele>
        <time>2021-08-10T10:59:59.812Z</time>
      </trkpt>
      <trkpt lat="46.92932" lon="8.577">
        <ele>489</ele>
        <time>2021-08-10T11:00:00.812Z</time>
      </trkpt>
      <trkpt lat="46.92933" lon="8.57701">
        <ele>488</ele>
        <time>2021-08-10T11:00:01.812Z</time>
      </trkpt>
      <trkpt lat="46.92933" lon="8.57702">
        <ele>488</ele>
        <time>2021-08-10T11:00:02.811Z</time>
      </trkpt>
      <trkpt lat="46.92933" lon="8.57704">
        <ele>488</ele>
        <time>2021-08-10T11:00:03.812Z</time>
      </trkpt>
      <trkpt lat="46.92932" lon="8.57704">
        <ele>488</ele>
        <time>2021-08-10T11:00:04.812Z</time>
      </trkpt>
      <trkpt lat="46.92931" lon="8.57704">
        <ele>488</ele>
        <time>2021-08-10T11:00:05.811Z</time>
      </trkpt>
      <trkpt lat="46.9293" lon="8.57704">
        <ele>488</ele>
        <time>2021-08-10T11:00:06.811Z</time>
      </trkpt>
      <trkpt lat="46.92929" lon="8.57704">
        <ele>489</ele>
        <time>2021-08-10T11:00:07.811Z</time>
      </trkpt>
      <trkpt lat="46.92928" lon="8.57705">
        <ele>489</ele>
        <time>2021-08-10T11:00:08.811Z</time>
      </trkpt>
      <trkpt lat="46.92927" lon="8.57707">
        <ele>489</ele>
        <time>2021-08-10T11:00:09.812Z</time>
      </trkpt>
      <trkpt lat="46.92926" lon="8.57708">
        <ele>489</ele>
        <time>2021-08-10T11:00:10.812Z</time>
      </trkpt>
      <trkpt lat="46.92926" lon="8.57709">
        <ele>489</ele>
        <time>2021-08-10T11:00:11.812Z</time>
      </trkpt>
      <trkpt lat="46.92925" lon="8.5771">
        <ele>489</ele>
        <time>2021-08-10T11:00:12.811Z</time>
      </trkpt>
      <trkpt lat="46.92925" lon="8.57712">
        <ele>488</ele>
        <time>2021-08-10T11:00:13.812Z</time>
      </trkpt>
      <trkpt lat="46.92925" lon="8.57713">
        <ele>488</ele>
        <time>2021-08-10T11:00:14.811Z</time>
      </trkpt>
      <trkpt lat="46.92925" lon="8.57714">
        <ele>488</ele>
        <time>2021-08-10T11:00:15.811Z</time>
      </trkpt>
      <trkpt lat="46.92924" lon="8.57715">
        <ele>488</ele>
        <time>2021-08-10T11:00:16.811Z</time>
      </trkpt>
      <trkpt lat="46.92924" lon="8.57716">
        <ele>488</ele>
        <time>2021-08-10T11:00:17.811Z</time>
      </trkpt>
      <trkpt lat="46.92924" lon="8.57718">
        <ele>488</ele>
        <time>2021-08-10T11:00:18.812Z</time>
      </trkpt>
      <trkpt lat="46.92924" lon="8.57719">
        <ele>488</ele>
        <time>2021-08-10T11:00:19.812Z</time>
      </trkpt>
      <trkpt lat="46.92923" lon="8.57721">
        <ele>488</ele>
        <time>2021-08-10T11:00:20.812Z</time>
      </trkpt>
      <trkpt lat="46.92923" lon="8.57723">
        <ele>488</ele>
        <time>2021-08-10T11:00:21.811Z</time>
      </trkpt>
      <trkpt lat="46.92923" lon="8.57725">
        <ele>488</ele>
        <time>2021-08-10T11:00:22.811Z</time>
      </trkpt>
      <trkpt lat="46.92922" lon="8.57726">
        <ele>488</ele>
        <time>2021-08-10T11:00:23.812Z</time>
      </trkpt>
      <trkpt lat="46.92922" lon="8.57726">
        <ele>488</ele>
        <time>2021-08-10T11:00:24.812Z</time>
      </trkpt>
      <trkpt lat="46.92922" lon="8.57726">
        <ele>489</ele>
        <time>2021-08-10T11:00:25.811Z</time>
      </trkpt>
      <trkpt lat="46.92921" lon="8.57726">
        <ele>489</ele>
        <time>2021-08-10T11:00:26.812Z</time>
      </trkpt>
      <trkpt lat="46.92921" lon="8.57725">
        <ele>489</ele>
        <time>2021-08-10T11:00:27.812Z</time>
      </trkpt>
      <trkpt lat="46.9292" lon="8.57724">
        <ele>489</ele>
        <time>2021-08-10T11:00:28.811Z</time>
      </trkpt>
      <trkpt lat="46.9292" lon="8.57723">
        <ele>489</ele>
        <time>2021-08-10T11:00:29.812Z</time>
      </trkpt>
      <trkpt lat="46.9292" lon="8.57721">
        <ele>489</ele>
        <time>2021-08-10T11:00:30.812Z</time>
      </trkpt>
      <trkpt lat="46.9292" lon="8.57721">
        <ele>489</ele>
        <time>2021-08-10T11:00:31.812Z</time>
      </trkpt>
      <trkpt lat="46.9292" lon="8.5772">
        <ele>489</ele>
        <time>2021-08-10T11:00:32.812Z</time>
      </trkpt>
      <trkpt lat="46.9292" lon="8.57719">
        <ele>489</ele>
        <time>2021-08-10T11:00:33.811Z</time>
      </trkpt>
      <trkpt lat="46.9292" lon="8.57717">
        <ele>489</ele>
        <time>2021-08-10T11:00:34.811Z</time>
      </trkpt>
      <trkpt lat="46.92919" lon="8.57716">
        <ele>489</ele>
        <time>2021-08-10T11:00:35.812Z</time>
      </trkpt>
      <trkpt lat="46.9292" lon="8.57715">
        <ele>489</ele>
        <time>2021-08-10T11:00:36.812Z</time>
      </trkpt>
      <trkpt lat="46.92919" lon="8.57714">
        <ele>489</ele>
        <time>2021-08-10T11:00:37.812Z</time>
      </trkpt>
      <trkpt lat="46.92919" lon="8.57713">
        <ele>489</ele>
        <time>2021-08-10T11:00:38.812Z</time>
      </trkpt>
      <trkpt lat="46.92919" lon="8.57712">
        <ele>488</ele>
        <time>2021-08-10T11:00:39.812Z</time>
      </trkpt>
      <trkpt lat="46.92919" lon="8.57711">
        <ele>488</ele>
        <time>2021-08-10T11:00:40.811Z</time>
      </trkpt>
      <trkpt lat="46.92919" lon="8.57711">
        <ele>488</ele>
        <time>2021-08-10T11:00:41.812Z</time>
      </trkpt>
      <trkpt lat="46.92919" lon="8.57709">
        <ele>487</ele>
        <time>2021-08-10T11:00:42.811Z</time>
      </trkpt>
      <trkpt lat="46.92918" lon="8.57709">
        <ele>487</ele>
        <time>2021-08-10T11:00:43.811Z</time>
      </trkpt>
      <trkpt lat="46.92919" lon="8.57709">
        <ele>487</ele>
        <time>2021-08-10T11:00:44.811Z</time>
      </trkpt>
      <trkpt lat="46.92919" lon="8.57708">
        <ele>486</ele>
        <time>2021-08-10T11:00:45.812Z</time>
      </trkpt>
      <trkpt lat="46.92919" lon="8.57707">
        <ele>486</ele>
        <time>2021-08-10T11:00:46.811Z</time>
      </trkpt>
      <trkpt lat="46.92919" lon="8.57707">
        <ele>486</ele>
        <time>2021-08-10T11:00:47.811Z</time>
      </trkpt>
      <trkpt lat="46.92918" lon="8.57707">
        <ele>486</ele>
        <time>2021-08-10T11:00:48.812Z</time>
      </trkpt>
      <trkpt lat="46.92917" lon="8.57706">
        <ele>487</ele>
        <time>2021-08-10T11:00:49.812Z</time>
      </trkpt>
      <trkpt lat="46.92918" lon="8.57706">
        <ele>487</ele>
        <time>2021-08-10T11:00:50.812Z</time>
      </trkpt>
      <trkpt lat="46.92918" lon="8.57705">
        <ele>487</ele>
        <time>2021-08-10T11:00:51.812Z</time>
      </trkpt>
      <trkpt lat="46.92917" lon="8.57704">
        <ele>487</ele>
        <time>2021-08-10T11:00:52.811Z</time>
      </trkpt>
      <trkpt lat="46.92917" lon="8.57703">
        <ele>488</ele>
        <time>2021-08-10T11:00:53.812Z</time>
      </trkpt>
      <trkpt lat="46.92916" lon="8.57703">
        <ele>488</ele>
        <time>2021-08-10T11:00:54.812Z</time>
      </trkpt>
      <trkpt lat="46.92916" lon="8.57703">
        <ele>488</ele>
        <time>2021-08-10T11:00:55.812Z</time>
      </trkpt>
      <trkpt lat="46.92917" lon="8.57702">
        <ele>489</ele>
        <time>2021-08-10T11:00:56.811Z</time>
      </trkpt>
      <trkpt lat="46.92917" lon="8.57701">
        <ele>489</ele>
        <time>2021-08-10T11:00:57.812Z</time>
      </trkpt>
      <trkpt lat="46.92916" lon="8.577">
        <ele>489</ele>
        <time>2021-08-10T11:00:58.812Z</time>
      </trkpt>
      <trkpt lat="46.92916" lon="8.577">
        <ele>489</ele>
        <time>2021-08-10T11:00:59.811Z</time>
      </trkpt>
      <trkpt lat="46.92916" lon="8.577">
        <ele>488</ele>
        <time>2021-08-10T11:01:00.811Z</time>
      </trkpt>
      <trkpt lat="46.92915" lon="8.57698">
        <ele>489</ele>
        <time>2021-08-10T11:01:01.812Z</time>
      </trkpt>
      <trkpt lat="46.92914" lon="8.57697">
        <ele>489</ele>
        <time>2021-08-10T11:01:02.813Z</time>
      </trkpt>
      <trkpt lat="46.92914" lon="8.57696">
        <ele>489</ele>
        <time>2021-08-10T11:01:03.813Z</time>
      </trkpt>
      <trkpt lat="46.92914" lon="8.57696">
        <ele>489</ele>
        <time>2021-08-10T11:01:04.812Z</time>
      </trkpt>
      <trkpt lat="46.92914" lon="8.57695">
        <ele>489</ele>
        <time>2021-08-10T11:01:05.813Z</time>
      </trkpt>
      <trkpt lat="46.92914" lon="8.57695">
        <ele>489</ele>
        <time>2021-08-10T11:01:06.813Z</time>
      </trkpt>
      <trkpt lat="46.92915" lon="8.57694">
        <ele>489</ele>
        <time>2021-08-10T11:01:07.813Z</time>
      </trkpt>
      <trkpt lat="46.92916" lon="8.57693">
        <ele>489</ele>
        <time>2021-08-10T11:01:08.813Z</time>
      </trkpt>
      <trkpt lat="46.92916" lon="8.57693">
        <ele>489</ele>
        <time>2021-08-10T11:01:09.813Z</time>
      </trkpt>
      <trkpt lat="46.92916" lon="8.57692">
        <ele>489</ele>
        <time>2021-08-10T11:01:10.813Z</time>
      </trkpt>
      <trkpt lat="46.92916" lon="8.57691">
        <ele>489</ele>
        <time>2021-08-10T11:01:11.813Z</time>
      </trkpt>
      <trkpt lat="46.92916" lon="8.5769">
        <ele>489</ele>
        <time>2021-08-10T11:01:12.813Z</time>
      </trkpt>
      <trkpt lat="46.92915" lon="8.5769">
        <ele>489</ele>
        <time>2021-08-10T11:01:13.812Z</time>
      </trkpt>
      <trkpt lat="46.92915" lon="8.5769">
        <ele>489</ele>
        <time>2021-08-10T11:01:14.813Z</time>
      </trkpt>
      <trkpt lat="46.92915" lon="8.57689">
        <ele>488</ele>
        <time>2021-08-10T11:01:15.813Z</time>
      </trkpt>
      <trkpt lat="46.92914" lon="8.57689">
        <ele>488</ele>
        <time>2021-08-10T11:01:16.812Z</time>
      </trkpt>
      <trkpt lat="46.92914" lon="8.57688">
        <ele>488</ele>
        <time>2021-08-10T11:01:17.813Z</time>
      </trkpt>
      <trkpt lat="46.92913" lon="8.57687">
        <ele>488</ele>
        <time>2021-08-10T11:01:18.813Z</time>
      </trkpt>
      <trkpt lat="46.92913" lon="8.57687">
        <ele>488</ele>
        <time>2021-08-10T11:01:19.812Z</time>
      </trkpt>
      <trkpt lat="46.92912" lon="8.57686">
        <ele>487</ele>
        <time>2021-08-10T11:01:20.812Z</time>
      </trkpt>
      <trkpt lat="46.92912" lon="8.57685">
        <ele>487</ele>
        <time>2021-08-10T11:01:21.813Z</time>
      </trkpt>
      <trkpt lat="46.92912" lon="8.57684">
        <ele>487</ele>
        <time>2021-08-10T11:01:22.812Z</time>
      </trkpt>
      <trkpt lat="46.92913" lon="8.57683">
        <ele>487</ele>
        <time>2021-08-10T11:01:23.813Z</time>
      </trkpt>
      <trkpt lat="46.92911" lon="8.57682">
        <ele>488</ele>
        <time>2021-08-10T11:01:24.813Z</time>
      </trkpt>
      <trkpt lat="46.92909" lon="8.57682">
        <ele>490</ele>
        <time>2021-08-10T11:01:25.812Z</time>
      </trkpt>
      <trkpt lat="46.92908" lon="8.57682">
        <ele>491</ele>
        <time>2021-08-10T11:01:26.813Z</time>
      </trkpt>
      <trkpt lat="46.92907" lon="8.57681">
        <ele>493</ele>
        <time>2021-08-10T11:01:27.813Z</time>
      </trkpt>
      <trkpt lat="46.92907" lon="8.57681">
        <ele>494</ele>
        <time>2021-08-10T11:01:28.812Z</time>
      </trkpt>
      <trkpt lat="46.92906" lon="8.57681">
        <ele>495</ele>
        <time>2021-08-10T11:01:29.813Z</time>
      </trkpt>
      <trkpt lat="46.92905" lon="8.57681">
        <ele>497</ele>
        <time>2021-08-10T11:01:30.812Z</time>
      </trkpt>
      <trkpt lat="46.92905" lon="8.57681">
        <ele>498</ele>
        <time>2021-08-10T11:01:31.812Z</time>
      </trkpt>
      <trkpt lat="46.92905" lon="8.57681">
        <ele>499</ele>
        <time>2021-08-10T11:01:32.813Z</time>
      </trkpt>
      <trkpt lat="46.92905" lon="8.57679">
        <ele>501</ele>
        <time>2021-08-10T11:01:33.814Z</time>
      </trkpt>
      <trkpt lat="46.92904" lon="8.57679">
        <ele>501</ele>
        <time>2021-08-10T11:01:34.813Z</time>
      </trkpt>
      <trkpt lat="46.92904" lon="8.57679">
        <ele>501</ele>
        <time>2021-08-10T11:01:35.813Z</time>
      </trkpt>
      <trkpt lat="46.92904" lon="8.57678">
        <ele>501</ele>
        <time>2021-08-10T11:01:36.813Z</time>
      </trkpt>
      <trkpt lat="46.92902" lon="8.57679">
        <ele>501</ele>
        <time>2021-08-10T11:01:37.813Z</time>
      </trkpt>
      <trkpt lat="46.92901" lon="8.5768">
        <ele>501</ele>
        <time>2021-08-10T11:01:38.813Z</time>
      </trkpt>
      <trkpt lat="46.929" lon="8.5768">
        <ele>501</ele>
        <time>2021-08-10T11:01:39.814Z</time>
      </trkpt>
      <trkpt lat="46.92899" lon="8.5768">
        <ele>501</ele>
        <time>2021-08-10T11:01:40.814Z</time>
      </trkpt>
      <trkpt lat="46.92898" lon="8.57681">
        <ele>501</ele>
        <time>2021-08-10T11:01:41.814Z</time>
      </trkpt>
      <trkpt lat="46.92898" lon="8.57682">
        <ele>501</ele>
        <time>2021-08-10T11:01:42.814Z</time>
      </trkpt>
      <trkpt lat="46.92897" lon="8.57684">
        <ele>500</ele>
        <time>2021-08-10T11:01:43.813Z</time>
      </trkpt>
      <trkpt lat="46.92896" lon="8.57685">
        <ele>500</ele>
        <time>2021-08-10T11:01:44.814Z</time>
      </trkpt>
      <trkpt lat="46.92896" lon="8.57685">
        <ele>500</ele>
        <time>2021-08-10T11:01:45.813Z</time>
      </trkpt>
      <trkpt lat="46.92895" lon="8.57685">
        <ele>500</ele>
        <time>2021-08-10T11:01:46.814Z</time>
      </trkpt>
      <trkpt lat="46.92894" lon="8.57684">
        <ele>500</ele>
        <time>2021-08-10T11:01:47.813Z</time>
      </trkpt>
      <trkpt lat="46.92893" lon="8.57685">
        <ele>500</ele>
        <time>2021-08-10T11:01:48.814Z</time>
      </trkpt>
      <trkpt lat="46.92891" lon="8.57683">
        <ele>500</ele>
        <time>2021-08-10T11:01:49.813Z</time>
      </trkpt>
      <trkpt lat="46.92889" lon="8.57682">
        <ele>500</ele>
        <time>2021-08-10T11:01:50.813Z</time>
      </trkpt>
      <trkpt lat="46.92889" lon="8.57686">
        <ele>500</ele>
        <time>2021-08-10T11:01:51.814Z</time>
      </trkpt>
      <trkpt lat="46.9289" lon="8.57688">
        <ele>500</ele>
        <time>2021-08-10T11:01:52.814Z</time>
      </trkpt>
      <trkpt lat="46.92891" lon="8.5769">
        <ele>500</ele>
        <time>2021-08-10T11:01:53.814Z</time>
      </trkpt>
      <trkpt lat="46.92893" lon="8.57693">
        <ele>500</ele>
        <time>2021-08-10T11:01:54.813Z</time>
      </trkpt>
      <trkpt lat="46.92894" lon="8.57695">
        <ele>500</ele>
        <time>2021-08-10T11:01:55.813Z</time>
      </trkpt>
      <trkpt lat="46.92894" lon="8.57698">
        <ele>500</ele>
        <time>2021-08-10T11:01:56.813Z</time>
      </trkpt>
      <trkpt lat="46.92894" lon="8.57699">
        <ele>500</ele>
        <time>2021-08-10T11:01:57.814Z</time>
      </trkpt>
      <trkpt lat="46.92889" lon="8.57703">
        <ele>500</ele>
        <time>2021-08-10T11:01:58.813Z</time>
      </trkpt>
      <trkpt lat="46.92886" lon="8.57704">
        <ele>500</ele>
        <time>2021-08-10T11:01:59.814Z</time>
      </trkpt>
      <trkpt lat="46.92883" lon="8.57706">
        <ele>500</ele>
        <time>2021-08-10T11:02:00.814Z</time>
      </trkpt>
      <trkpt lat="46.92883" lon="8.57707">
        <ele>500</ele>
        <time>2021-08-10T11:02:01.814Z</time>
      </trkpt>
      <trkpt lat="46.92884" lon="8.57708">
        <ele>501</ele>
        <time>2021-08-10T11:02:02.814Z</time>
      </trkpt>
      <trkpt lat="46.92885" lon="8.57709">
        <ele>501</ele>
        <time>2021-08-10T11:02:03.814Z</time>
      </trkpt>
      <trkpt lat="46.92886" lon="8.57711">
        <ele>501</ele>
        <time>2021-08-10T11:02:04.814Z</time>
      </trkpt>
      <trkpt lat="46.92887" lon="8.57713">
        <ele>501</ele>
        <time>2021-08-10T11:02:05.813Z</time>
      </trkpt>
      <trkpt lat="46.92887" lon="8.57713">
        <ele>501</ele>
        <time>2021-08-10T11:02:06.814Z</time>
      </trkpt>
      <trkpt lat="46.92887" lon="8.57712">
        <ele>501</ele>
        <time>2021-08-10T11:02:07.813Z</time>
      </trkpt>
      <trkpt lat="46.92887" lon="8.57712">
        <ele>501</ele>
        <time>2021-08-10T11:02:08.814Z</time>
      </trkpt>
      <trkpt lat="46.92888" lon="8.57711">
        <ele>501</ele>
        <time>2021-08-10T11:02:09.813Z</time>
      </trkpt>
      <trkpt lat="46.9289" lon="8.57711">
        <ele>501</ele>
        <time>2021-08-10T11:02:10.813Z</time>
      </trkpt>
      <trkpt lat="46.92891" lon="8.57711">
        <ele>502</ele>
        <time>2021-08-10T11:02:11.814Z</time>
      </trkpt>
      <trkpt lat="46.92891" lon="8.57711">
        <ele>502</ele>
        <time>2021-08-10T11:02:12.814Z</time>
      </trkpt>
      <trkpt lat="46.9289" lon="8.57711">
        <ele>501</ele>
        <time>2021-08-10T11:02:13.814Z</time>
      </trkpt>
      <trkpt lat="46.92892" lon="8.57711">
        <ele>501</ele>
        <time>2021-08-10T11:02:14.813Z</time>
      </trkpt>
      <trkpt lat="46.92893" lon="8.57711">
        <ele>501</ele>
        <time>2021-08-10T11:02:15.813Z</time>
      </trkpt>
      <trkpt lat="46.92894" lon="8.5771">
        <ele>501</ele>
        <time>2021-08-10T11:02:16.814Z</time>
      </trkpt>
      <trkpt lat="46.92893" lon="8.57709">
        <ele>501</ele>
        <time>2021-08-10T11:02:17.814Z</time>
      </trkpt>
      <trkpt lat="46.92894" lon="8.57709">
        <ele>501</ele>
        <time>2021-08-10T11:02:18.813Z</time>
      </trkpt>
      <trkpt lat="46.92895" lon="8.5771">
        <ele>500</ele>
        <time>2021-08-10T11:02:19.813Z</time>
      </trkpt>
      <trkpt lat="46.92897" lon="8.57711">
        <ele>500</ele>
        <time>2021-08-10T11:02:20.813Z</time>
      </trkpt>
      <trkpt lat="46.92898" lon="8.57713">
        <ele>500</ele>
        <time>2021-08-10T11:02:21.813Z</time>
      </trkpt>
      <trkpt lat="46.92898" lon="8.57714">
        <ele>500</ele>
        <time>2021-08-10T11:02:22.814Z</time>
      </trkpt>
      <trkpt lat="46.92898" lon="8.57714">
        <ele>500</ele>
        <time>2021-08-10T11:02:23.813Z</time>
      </trkpt>
      <trkpt lat="46.92898" lon="8.57715">
        <ele>500</ele>
        <time>2021-08-10T11:02:24.813Z</time>
      </trkpt>
      <trkpt lat="46.92898" lon="8.57715">
        <ele>500</ele>
        <time>2021-08-10T11:02:25.814Z</time>
      </trkpt>
      <trkpt lat="46.92899" lon="8.57715">
        <ele>500</ele>
        <time>2021-08-10T11:02:27.813Z</time>
      </trkpt>
      <trkpt lat="46.92898" lon="8.57714">
        <ele>499</ele>
        <time>2021-08-10T11:02:28.813Z</time>
      </trkpt>
      <trkpt lat="46.92898" lon="8.57714">
        <ele>499</ele>
        <time>2021-08-10T11:02:29.813Z</time>
      </trkpt>
      <trkpt lat="46.92895" lon="8.57714">
        <ele>498</ele>
        <time>2021-08-10T11:02:30.813Z</time>
      </trkpt>
      <trkpt lat="46.92894" lon="8.57715">
        <ele>498</ele>
        <time>2021-08-10T11:02:31.813Z</time>
      </trkpt>
      <trkpt lat="46.92895" lon="8.57715">
        <ele>498</ele>
        <time>2021-08-10T11:02:32.813Z</time>
      </trkpt>
      <trkpt lat="46.92895" lon="8.57715">
        <ele>497</ele>
        <time>2021-08-10T11:02:33.813Z</time>
      </trkpt>
      <trkpt lat="46.92894" lon="8.57716">
        <ele>497</ele>
        <time>2021-08-10T11:02:34.813Z</time>
      </trkpt>
      <trkpt lat="46.92894" lon="8.57718">
        <ele>496</ele>
        <time>2021-08-10T11:02:35.814Z</time>
      </trkpt>
      <trkpt lat="46.92894" lon="8.57719">
        <ele>496</ele>
        <time>2021-08-10T11:02:36.813Z</time>
      </trkpt>
      <trkpt lat="46.92893" lon="8.57718">
        <ele>496</ele>
        <time>2021-08-10T11:02:37.814Z</time>
      </trkpt>
      <trkpt lat="46.92892" lon="8.57717">
        <ele>496</ele>
        <time>2021-08-10T11:02:38.814Z</time>
      </trkpt>
      <trkpt lat="46.92891" lon="8.57716">
        <ele>497</ele>
        <time>2021-08-10T11:02:39.813Z</time>
      </trkpt>
      <trkpt lat="46.9289" lon="8.57714">
        <ele>497</ele>
        <time>2021-08-10T11:02:40.814Z</time>
      </trkpt>
      <trkpt lat="46.9289" lon="8.57713">
        <ele>497</ele>
        <time>2021-08-10T11:02:41.814Z</time>
      </trkpt>
      <trkpt lat="46.92889" lon="8.57712">
        <ele>498</ele>
        <time>2021-08-10T11:02:42.813Z</time>
      </trkpt>
      <trkpt lat="46.9289" lon="8.57711">
        <ele>498</ele>
        <time>2021-08-10T11:02:43.814Z</time>
      </trkpt>
      <trkpt lat="46.92889" lon="8.57711">
        <ele>499</ele>
        <time>2021-08-10T11:02:44.813Z</time>
      </trkpt>
      <trkpt lat="46.92889" lon="8.57711">
        <ele>500</ele>
        <time>2021-08-10T11:02:45.813Z</time>
      </trkpt>
      <trkpt lat="46.92889" lon="8.57711">
        <ele>501</ele>
        <time>2021-08-10T11:02:46.814Z</time>
      </trkpt>
      <trkpt lat="46.92888" lon="8.5771">
        <ele>502</ele>
        <time>2021-08-10T11:02:47.814Z</time>
      </trkpt>
      <trkpt lat="46.92888" lon="8.5771">
        <ele>503</ele>
        <time>2021-08-10T11:02:48.814Z</time>
      </trkpt>
      <trkpt lat="46.92887" lon="8.5771">
        <ele>504</ele>
        <time>2021-08-10T11:02:49.814Z</time>
      </trkpt>
      <trkpt lat="46.92891" lon="8.5771">
        <ele>506</ele>
        <time>2021-08-10T11:02:50.814Z</time>
      </trkpt>
      <trkpt lat="46.9289" lon="8.5771">
        <ele>506</ele>
        <time>2021-08-10T11:02:51.813Z</time>
      </trkpt>
      <trkpt lat="46.92889" lon="8.5771">
        <ele>506</ele>
        <time>2021-08-10T11:02:52.813Z</time>
      </trkpt>
      <trkpt lat="46.92889" lon="8.5771">
        <ele>507</ele>
        <time>2021-08-10T11:02:53.814Z</time>
      </trkpt>
      <trkpt lat="46.92888" lon="8.57709">
        <ele>507</ele>
        <time>2021-08-10T11:02:54.814Z</time>
      </trkpt>
      <trkpt lat="46.92888" lon="8.57709">
        <ele>507</ele>
        <time>2021-08-10T11:02:55.814Z</time>
      </trkpt>
      <trkpt lat="46.92887" lon="8.57709">
        <ele>508</ele>
        <time>2021-08-10T11:02:56.813Z</time>
      </trkpt>
      <trkpt lat="46.92887" lon="8.57708">
        <ele>508</ele>
        <time>2021-08-10T11:02:57.814Z</time>
      </trkpt>
      <trkpt lat="46.92887" lon="8.57707">
        <ele>508</ele>
        <time>2021-08-10T11:02:58.813Z</time>
      </trkpt>
      <trkpt lat="46.92886" lon="8.57707">
        <ele>509</ele>
        <time>2021-08-10T11:02:59.814Z</time>
      </trkpt>
      <trkpt lat="46.92886" lon="8.57706">
        <ele>509</ele>
        <time>2021-08-10T11:03:00.814Z</time>
      </trkpt>
      <trkpt lat="46.92886" lon="8.57706">
        <ele>509</ele>
        <time>2021-08-10T11:03:01.814Z</time>
      </trkpt>
      <trkpt lat="46.92886" lon="8.57706">
        <ele>509</ele>
        <time>2021-08-10T11:03:02.814Z</time>
      </trkpt>
      <trkpt lat="46.92885" lon="8.57707">
        <ele>509</ele>
        <time>2021-08-10T11:03:03.814Z</time>
      </trkpt>
      <trkpt lat="46.92884" lon="8.57707">
        <ele>510</ele>
        <time>2021-08-10T11:03:04.814Z</time>
      </trkpt>
      <trkpt lat="46.92883" lon="8.57707">
        <ele>510</ele>
        <time>2021-08-10T11:03:05.814Z</time>
      </trkpt>
      <trkpt lat="46.92883" lon="8.57707">
        <ele>510</ele>
        <time>2021-08-10T11:03:06.814Z</time>
      </trkpt>
      <trkpt lat="46.92883" lon="8.57707">
        <ele>510</ele>
        <time>2021-08-10T11:03:07.813Z</time>
      </trkpt>
      <trkpt lat="46.92883" lon="8.57708">
        <ele>510</ele>
        <time>2021-08-10T11:03:08.814Z</time>
      </trkpt>
      <trkpt lat="46.92882" lon="8.57709">
        <ele>511</ele>
        <time>2021-08-10T11:03:09.813Z</time>
      </trkpt>
      <trkpt lat="46.92881" lon="8.5771">
        <ele>511</ele>
        <time>2021-08-10T11:03:10.814Z</time>
      </trkpt>
      <trkpt lat="46.92881" lon="8.57711">
        <ele>512</ele>
        <time>2021-08-10T11:03:11.814Z</time>
      </trkpt>
      <trkpt lat="46.92881" lon="8.57713">
        <ele>512</ele>
        <time>2021-08-10T11:03:12.813Z</time>
      </trkpt>
      <trkpt lat="46.92881" lon="8.57713">
        <ele>513</ele>
        <time>2021-08-10T11:03:13.814Z</time>
      </trkpt>
      <trkpt lat="46.92881" lon="8.57714">
        <ele>514</ele>
        <time>2021-08-10T11:03:14.813Z</time>
      </trkpt>
      <trkpt lat="46.92881" lon="8.57715">
        <ele>515</ele>
        <time>2021-08-10T11:03:15.814Z</time>
      </trkpt>
      <trkpt lat="46.92881" lon="8.57716">
        <ele>516</ele>
        <time>2021-08-10T11:03:16.814Z</time>
      </trkpt>
      <trkpt lat="46.92881" lon="8.57717">
        <ele>517</ele>
        <time>2021-08-10T11:03:17.813Z</time>
      </trkpt>
      <trkpt lat="46.92882" lon="8.57718">
        <ele>518</ele>
        <time>2021-08-10T11:03:18.814Z</time>
      </trkpt>
      <trkpt lat="46.92883" lon="8.57719">
        <ele>519</ele>
        <time>2021-08-10T11:03:19.814Z</time>
      </trkpt>
      <trkpt lat="46.92883" lon="8.5772">
        <ele>520</ele>
        <time>2021-08-10T11:03:20.814Z</time>
      </trkpt>
      <trkpt lat="46.92884" lon="8.57721">
        <ele>521</ele>
        <time>2021-08-10T11:03:21.814Z</time>
      </trkpt>
      <trkpt lat="46.92883" lon="8.57721">
        <ele>521</ele>
        <time>2021-08-10T11:03:22.814Z</time>
      </trkpt>
      <trkpt lat="46.92882" lon="8.57722">
        <ele>522</ele>
        <time>2021-08-10T11:03:23.813Z</time>
      </trkpt>
      <trkpt lat="46.92881" lon="8.57722">
        <ele>522</ele>
        <time>2021-08-10T11:03:24.814Z</time>
      </trkpt>
      <trkpt lat="46.92881" lon="8.57723">
        <ele>522</ele>
        <time>2021-08-10T11:03:25.814Z</time>
      </trkpt>
      <trkpt lat="46.9288" lon="8.57724">
        <ele>522</ele>
        <time>2021-08-10T11:03:26.813Z</time>
      </trkpt>
      <trkpt lat="46.92879" lon="8.57726">
        <ele>522</ele>
        <time>2021-08-10T11:03:27.814Z</time>
      </trkpt>
      <trkpt lat="46.92879" lon="8.57727">
        <ele>522</ele>
        <time>2021-08-10T11:03:28.813Z</time>
      </trkpt>
      <trkpt lat="46.9288" lon="8.57728">
        <ele>522</ele>
        <time>2021-08-10T11:03:29.814Z</time>
      </trkpt>
      <trkpt lat="46.9288" lon="8.5773">
        <ele>522</ele>
        <time>2021-08-10T11:03:30.814Z</time>
      </trkpt>
      <trkpt lat="46.9288" lon="8.5773">
        <ele>522</ele>
        <time>2021-08-10T11:03:31.813Z</time>
      </trkpt>
      <trkpt lat="46.9288" lon="8.57731">
        <ele>522</ele>
        <time>2021-08-10T11:03:32.813Z</time>
      </trkpt>
      <trkpt lat="46.9288" lon="8.57733">
        <ele>522</ele>
        <time>2021-08-10T11:03:33.816Z</time>
      </trkpt>
      <trkpt lat="46.9288" lon="8.57734">
        <ele>522</ele>
        <time>2021-08-10T11:03:34.816Z</time>
      </trkpt>
      <trkpt lat="46.9288" lon="8.57735">
        <ele>521</ele>
        <time>2021-08-10T11:03:35.815Z</time>
      </trkpt>
      <trkpt lat="46.92879" lon="8.57735">
        <ele>522</ele>
        <time>2021-08-10T11:03:36.816Z</time>
      </trkpt>
      <trkpt lat="46.92879" lon="8.57736">
        <ele>522</ele>
        <time>2021-08-10T11:03:37.815Z</time>
      </trkpt>
      <trkpt lat="46.92878" lon="8.57737">
        <ele>521</ele>
        <time>2021-08-10T11:03:38.815Z</time>
      </trkpt>
      <trkpt lat="46.92878" lon="8.57738">
        <ele>521</ele>
        <time>2021-08-10T11:03:39.815Z</time>
      </trkpt>
      <trkpt lat="46.92877" lon="8.57739">
        <ele>521</ele>
        <time>2021-08-10T11:03:40.816Z</time>
      </trkpt>
      <trkpt lat="46.92877" lon="8.57741">
        <ele>521</ele>
        <time>2021-08-10T11:03:41.815Z</time>
      </trkpt>
      <trkpt lat="46.92876" lon="8.57742">
        <ele>521</ele>
        <time>2021-08-10T11:03:42.816Z</time>
      </trkpt>
      <trkpt lat="46.92875" lon="8.57743">
        <ele>520</ele>
        <time>2021-08-10T11:03:43.816Z</time>
      </trkpt>
      <trkpt lat="46.92875" lon="8.57744">
        <ele>520</ele>
        <time>2021-08-10T11:03:44.816Z</time>
      </trkpt>
      <trkpt lat="46.92874" lon="8.57745">
        <ele>520</ele>
        <time>2021-08-10T11:03:45.816Z</time>
      </trkpt>
      <trkpt lat="46.92873" lon="8.57746">
        <ele>519</ele>
        <time>2021-08-10T11:03:46.816Z</time>
      </trkpt>
      <trkpt lat="46.92873" lon="8.57747">
        <ele>519</ele>
        <time>2021-08-10T11:03:47.816Z</time>
      </trkpt>
      <trkpt lat="46.92872" lon="8.57748">
        <ele>519</ele>
        <time>2021-08-10T11:03:48.815Z</time>
      </trkpt>
      <trkpt lat="46.92872" lon="8.57749">
        <ele>519</ele>
        <time>2021-08-10T11:03:49.816Z</time>
      </trkpt>
      <trkpt lat="46.92872" lon="8.57749">
        <ele>518</ele>
        <time>2021-08-10T11:03:50.816Z</time>
      </trkpt>
      <trkpt lat="46.92871" lon="8.57751">
        <ele>518</ele>
        <time>2021-08-10T11:03:51.815Z</time>
      </trkpt>
      <trkpt lat="46.92871" lon="8.57752">
        <ele>518</ele>
        <time>2021-08-10T11:03:52.816Z</time>
      </trkpt>
      <trkpt lat="46.92871" lon="8.57753">
        <ele>517</ele>
        <time>2021-08-10T11:03:53.815Z</time>
      </trkpt>
      <trkpt lat="46.92872" lon="8.57754">
        <ele>517</ele>
        <time>2021-08-10T11:03:54.816Z</time>
      </trkpt>
      <trkpt lat="46.92872" lon="8.57755">
        <ele>517</ele>
        <time>2021-08-10T11:03:55.815Z</time>
      </trkpt>
      <trkpt lat="46.92872" lon="8.57756">
        <ele>517</ele>
        <time>2021-08-10T11:03:56.815Z</time>
      </trkpt>
      <trkpt lat="46.92872" lon="8.57756">
        <ele>517</ele>
        <time>2021-08-10T11:03:57.815Z</time>
      </trkpt>
      <trkpt lat="46.92872" lon="8.57757">
        <ele>517</ele>
        <time>2021-08-10T11:03:58.815Z</time>
      </trkpt>
      <trkpt lat="46.92872" lon="8.57758">
        <ele>517</ele>
        <time>2021-08-10T11:03:59.816Z</time>
      </trkpt>
      <trkpt lat="46.92872" lon="8.57758">
        <ele>517</ele>
        <time>2021-08-10T11:04:00.815Z</time>
      </trkpt>
      <trkpt lat="46.92871" lon="8.57759">
        <ele>517</ele>
        <time>2021-08-10T11:04:01.816Z</time>
      </trkpt>
      <trkpt lat="46.92871" lon="8.5776">
        <ele>517</ele>
        <time>2021-08-10T11:04:02.815Z</time>
      </trkpt>
      <trkpt lat="46.92869" lon="8.5776">
        <ele>517</ele>
        <time>2021-08-10T11:04:03.816Z</time>
      </trkpt>
      <trkpt lat="46.92868" lon="8.5776">
        <ele>516</ele>
        <time>2021-08-10T11:04:04.815Z</time>
      </trkpt>
      <trkpt lat="46.92868" lon="8.57759">
        <ele>516</ele>
        <time>2021-08-10T11:04:05.815Z</time>
      </trkpt>
      <trkpt lat="46.92868" lon="8.57759">
        <ele>516</ele>
        <time>2021-08-10T11:04:06.816Z</time>
      </trkpt>
      <trkpt lat="46.92869" lon="8.57757">
        <ele>516</ele>
        <time>2021-08-10T11:04:07.816Z</time>
      </trkpt>
      <trkpt lat="46.92868" lon="8.57756">
        <ele>516</ele>
        <time>2021-08-10T11:04:08.816Z</time>
      </trkpt>
      <trkpt lat="46.92868" lon="8.57755">
        <ele>516</ele>
        <time>2021-08-10T11:04:09.816Z</time>
      </trkpt>
      <trkpt lat="46.92869" lon="8.57754">
        <ele>517</ele>
        <time>2021-08-10T11:04:10.816Z</time>
      </trkpt>
      <trkpt lat="46.92869" lon="8.57753">
        <ele>517</ele>
        <time>2021-08-10T11:04:11.816Z</time>
      </trkpt>
      <trkpt lat="46.9287" lon="8.57751">
        <ele>517</ele>
        <time>2021-08-10T11:04:12.815Z</time>
      </trkpt>
      <trkpt lat="46.92869" lon="8.5775">
        <ele>517</ele>
        <time>2021-08-10T11:04:13.815Z</time>
      </trkpt>
      <trkpt lat="46.92869" lon="8.57749">
        <ele>516</ele>
        <time>2021-08-10T11:04:14.816Z</time>
      </trkpt>
      <trkpt lat="46.92868" lon="8.57749">
        <ele>515</ele>
        <time>2021-08-10T11:04:15.816Z</time>
      </trkpt>
      <trkpt lat="46.92867" lon="8.57748">
        <ele>515</ele>
        <time>2021-08-10T11:04:16.816Z</time>
      </trkpt>
      <trkpt lat="46.92867" lon="8.57748">
        <ele>514</ele>
        <time>2021-08-10T11:04:17.816Z</time>
      </trkpt>
      <trkpt lat="46.92867" lon="8.57747">
        <ele>514</ele>
        <time>2021-08-10T11:04:18.815Z</time>
      </trkpt>
      <trkpt lat="46.92867" lon="8.57747">
        <ele>515</ele>
        <time>2021-08-10T11:04:19.816Z</time>
      </trkpt>
      <trkpt lat="46.92866" lon="8.57746">
        <ele>516</ele>
        <time>2021-08-10T11:04:20.815Z</time>
      </trkpt>
      <trkpt lat="46.92866" lon="8.57745">
        <ele>517</ele>
        <time>2021-08-10T11:04:21.816Z</time>
      </trkpt>
      <trkpt lat="46.92866" lon="8.57744">
        <ele>519</ele>
        <time>2021-08-10T11:04:22.816Z</time>
      </trkpt>
      <trkpt lat="46.92866" lon="8.57743">
        <ele>520</ele>
        <time>2021-08-10T11:04:23.816Z</time>
      </trkpt>
      <trkpt lat="46.92865" lon="8.5774">
        <ele>524</ele>
        <time>2021-08-10T11:04:24.817Z</time>
      </trkpt>
      <trkpt lat="46.92865" lon="8.5774">
        <ele>525</ele>
        <time>2021-08-10T11:04:25.817Z</time>
      </trkpt>
      <trkpt lat="46.92865" lon="8.57739">
        <ele>526</ele>
        <time>2021-08-10T11:04:26.816Z</time>
      </trkpt>
      <trkpt lat="46.92866" lon="8.57738">
        <ele>527</ele>
        <time>2021-08-10T11:04:27.816Z</time>
      </trkpt>
      <trkpt lat="46.92868" lon="8.57737">
        <ele>527</ele>
        <time>2021-08-10T11:04:28.817Z</time>
      </trkpt>
      <trkpt lat="46.92869" lon="8.57735">
        <ele>528</ele>
        <time>2021-08-10T11:04:29.816Z</time>
      </trkpt>
      <trkpt lat="46.92869" lon="8.57735">
        <ele>528</ele>
        <time>2021-08-10T11:04:30.817Z</time>
      </trkpt>
      <trkpt lat="46.92869" lon="8.57735">
        <ele>529</ele>
        <time>2021-08-10T11:04:31.816Z</time>
      </trkpt>
      <trkpt lat="46.92868" lon="8.57734">
        <ele>529</ele>
        <time>2021-08-10T11:04:32.817Z</time>
      </trkpt>
      <trkpt lat="46.92867" lon="8.57733">
        <ele>529</ele>
        <time>2021-08-10T11:04:33.817Z</time>
      </trkpt>
      <trkpt lat="46.92867" lon="8.57733">
        <ele>530</ele>
        <time>2021-08-10T11:04:34.817Z</time>
      </trkpt>
      <trkpt lat="46.92866" lon="8.57732">
        <ele>530</ele>
        <time>2021-08-10T11:04:35.816Z</time>
      </trkpt>
      <trkpt lat="46.92866" lon="8.57732">
        <ele>530</ele>
        <time>2021-08-10T11:04:36.817Z</time>
      </trkpt>
      <trkpt lat="46.92866" lon="8.57732">
        <ele>531</ele>
        <time>2021-08-10T11:04:37.817Z</time>
      </trkpt>
      <trkpt lat="46.92865" lon="8.57731">
        <ele>532</ele>
        <time>2021-08-10T11:04:38.818Z</time>
      </trkpt>
      <trkpt lat="46.92864" lon="8.57731">
        <ele>532</ele>
        <time>2021-08-10T11:04:39.818Z</time>
      </trkpt>
      <trkpt lat="46.92864" lon="8.5773">
        <ele>532</ele>
        <time>2021-08-10T11:04:40.818Z</time>
      </trkpt>
      <trkpt lat="46.92863" lon="8.57729">
        <ele>532</ele>
        <time>2021-08-10T11:04:41.818Z</time>
      </trkpt>
      <trkpt lat="46.92863" lon="8.57729">
        <ele>532</ele>
        <time>2021-08-10T11:04:42.817Z</time>
      </trkpt>
      <trkpt lat="46.92862" lon="8.57728">
        <ele>532</ele>
        <time>2021-08-10T11:04:43.817Z</time>
      </trkpt>
      <trkpt lat="46.9286" lon="8.5773">
        <ele>532</ele>
        <time>2021-08-10T11:04:44.817Z</time>
      </trkpt>
      <trkpt lat="46.92859" lon="8.57732">
        <ele>531</ele>
        <time>2021-08-10T11:04:45.818Z</time>
      </trkpt>
      <trkpt lat="46.92858" lon="8.57732">
        <ele>531</ele>
        <time>2021-08-10T11:04:46.817Z</time>
      </trkpt>
      <trkpt lat="46.92857" lon="8.57733">
        <ele>530</ele>
        <time>2021-08-10T11:04:47.818Z</time>
      </trkpt>
      <trkpt lat="46.92857" lon="8.57733">
        <ele>530</ele>
        <time>2021-08-10T11:04:48.817Z</time>
      </trkpt>
      <trkpt lat="46.92857" lon="8.57733">
        <ele>529</ele>
        <time>2021-08-10T11:04:49.818Z</time>
      </trkpt>
      <trkpt lat="46.92857" lon="8.57734">
        <ele>528</ele>
        <time>2021-08-10T11:04:50.818Z</time>
      </trkpt>
      <trkpt lat="46.92857" lon="8.57735">
        <ele>527</ele>
        <time>2021-08-10T11:04:51.817Z</time>
      </trkpt>
      <trkpt lat="46.92857" lon="8.57735">
        <ele>527</ele>
        <time>2021-08-10T11:04:52.818Z</time>
      </trkpt>
      <trkpt lat="46.92856" lon="8.57736">
        <ele>527</ele>
        <time>2021-08-10T11:04:53.818Z</time>
      </trkpt>
      <trkpt lat="46.92856" lon="8.57736">
        <ele>526</ele>
        <time>2021-08-10T11:04:54.818Z</time>
      </trkpt>
      <trkpt lat="46.92855" lon="8.57736">
        <ele>526</ele>
        <time>2021-08-10T11:04:55.817Z</time>
      </trkpt>
      <trkpt lat="46.92854" lon="8.57737">
        <ele>526</ele>
        <time>2021-08-10T11:04:56.818Z</time>
      </trkpt>
      <trkpt lat="46.92854" lon="8.57737">
        <ele>526</ele>
        <time>2021-08-10T11:04:57.818Z</time>
      </trkpt>
      <trkpt lat="46.92853" lon="8.57738">
        <ele>526</ele>
        <time>2021-08-10T11:04:58.818Z</time>
      </trkpt>
      <trkpt lat="46.92852" lon="8.5774">
        <ele>526</ele>
        <time>2021-08-10T11:04:59.817Z</time>
      </trkpt>
      <trkpt lat="46.92852" lon="8.57741">
        <ele>527</ele>
        <time>2021-08-10T11:05:00.818Z</time>
      </trkpt>
      <trkpt lat="46.92851" lon="8.57743">
        <ele>527</ele>
        <time>2021-08-10T11:05:01.818Z</time>
      </trkpt>
      <trkpt lat="46.92851" lon="8.57743">
        <ele>527</ele>
        <time>2021-08-10T11:05:02.818Z</time>
      </trkpt>
      <trkpt lat="46.92851" lon="8.57743">
        <ele>527</ele>
        <time>2021-08-10T11:05:03.818Z</time>
      </trkpt>
      <trkpt lat="46.92851" lon="8.57743">
        <ele>527</ele>
        <time>2021-08-10T11:05:04.817Z</time>
      </trkpt>
      <trkpt lat="46.92851" lon="8.57745">
        <ele>528</ele>
        <time>2021-08-10T11:05:05.817Z</time>
      </trkpt>
      <trkpt lat="46.92851" lon="8.57746">
        <ele>529</ele>
        <time>2021-08-10T11:05:06.817Z</time>
      </trkpt>
      <trkpt lat="46.92851" lon="8.57747">
        <ele>529</ele>
        <time>2021-08-10T11:05:07.817Z</time>
      </trkpt>
      <trkpt lat="46.92851" lon="8.57748">
        <ele>530</ele>
        <time>2021-08-10T11:05:08.817Z</time>
      </trkpt>
      <trkpt lat="46.9285" lon="8.57749">
        <ele>530</ele>
        <time>2021-08-10T11:05:09.817Z</time>
      </trkpt>
      <trkpt lat="46.9285" lon="8.5775">
        <ele>531</ele>
        <time>2021-08-10T11:05:10.817Z</time>
      </trkpt>
      <trkpt lat="46.9285" lon="8.57751">
        <ele>532</ele>
        <time>2021-08-10T11:05:11.817Z</time>
      </trkpt>
      <trkpt lat="46.92849" lon="8.57752">
        <ele>533</ele>
        <time>2021-08-10T11:05:12.818Z</time>
      </trkpt>
      <trkpt lat="46.92849" lon="8.57752">
        <ele>533</ele>
        <time>2021-08-10T11:05:13.817Z</time>
      </trkpt>
      <trkpt lat="46.92849" lon="8.57753">
        <ele>534</ele>
        <time>2021-08-10T11:05:14.818Z</time>
      </trkpt>
      <trkpt lat="46.9285" lon="8.57753">
        <ele>534</ele>
        <time>2021-08-10T11:05:15.817Z</time>
      </trkpt>
      <trkpt lat="46.9285" lon="8.57753">
        <ele>534</ele>
        <time>2021-08-10T11:05:16.817Z</time>
      </trkpt>
      <trkpt lat="46.9285" lon="8.57754">
        <ele>535</ele>
        <time>2021-08-10T11:05:17.817Z</time>
      </trkpt>
      <trkpt lat="46.92849" lon="8.57755">
        <ele>536</ele>
        <time>2021-08-10T11:05:18.817Z</time>
      </trkpt>
      <trkpt lat="46.92848" lon="8.57755">
        <ele>536</ele>
        <time>2021-08-10T11:05:19.818Z</time>
      </trkpt>
      <trkpt lat="46.92847" lon="8.57756">
        <ele>537</ele>
        <time>2021-08-10T11:05:20.817Z</time>
      </trkpt>
      <trkpt lat="46.92846" lon="8.57757">
        <ele>538</ele>
        <time>2021-08-10T11:05:21.818Z</time>
      </trkpt>
      <trkpt lat="46.92846" lon="8.57757">
        <ele>538</ele>
        <time>2021-08-10T11:05:22.817Z</time>
      </trkpt>
      <trkpt lat="46.92845" lon="8.57757">
        <ele>539</ele>
        <time>2021-08-10T11:05:23.817Z</time>
      </trkpt>
      <trkpt lat="46.92845" lon="8.57758">
        <ele>539</ele>
        <time>2021-08-10T11:05:24.817Z</time>
      </trkpt>
      <trkpt lat="46.92845" lon="8.57758">
        <ele>540</ele>
        <time>2021-08-10T11:05:25.817Z</time>
      </trkpt>
      <trkpt lat="46.92844" lon="8.57758">
        <ele>540</ele>
        <time>2021-08-10T11:05:26.817Z</time>
      </trkpt>
      <trkpt lat="46.92844" lon="8.57758">
        <ele>540</ele>
        <time>2021-08-10T11:05:27.817Z</time>
      </trkpt>
      <trkpt lat="46.92843" lon="8.57758">
        <ele>540</ele>
        <time>2021-08-10T11:05:28.817Z</time>
      </trkpt>
      <trkpt lat="46.92843" lon="8.57758">
        <ele>541</ele>
        <time>2021-08-10T11:05:29.817Z</time>
      </trkpt>
      <trkpt lat="46.92842" lon="8.57758">
        <ele>541</ele>
        <time>2021-08-10T11:05:30.818Z</time>
      </trkpt>
      <trkpt lat="46.92842" lon="8.57758">
        <ele>541</ele>
        <time>2021-08-10T11:05:31.817Z</time>
      </trkpt>
      <trkpt lat="46.92839" lon="8.57759">
        <ele>541</ele>
        <time>2021-08-10T11:05:32.819Z</time>
      </trkpt>
      <trkpt lat="46.92839" lon="8.5776">
        <ele>541</ele>
        <time>2021-08-10T11:05:33.819Z</time>
      </trkpt>
      <trkpt lat="46.92838" lon="8.57761">
        <ele>540</ele>
        <time>2021-08-10T11:05:34.818Z</time>
      </trkpt>
      <trkpt lat="46.92837" lon="8.57762">
        <ele>540</ele>
        <time>2021-08-10T11:05:35.819Z</time>
      </trkpt>
      <trkpt lat="46.92836" lon="8.57763">
        <ele>540</ele>
        <time>2021-08-10T11:05:36.819Z</time>
      </trkpt>
      <trkpt lat="46.92835" lon="8.57764">
        <ele>540</ele>
        <time>2021-08-10T11:05:37.818Z</time>
      </trkpt>
      <trkpt lat="46.92834" lon="8.57764">
        <ele>540</ele>
        <time>2021-08-10T11:05:38.818Z</time>
      </trkpt>
      <trkpt lat="46.92834" lon="8.57764">
        <ele>540</ele>
        <time>2021-08-10T11:05:39.819Z</time>
      </trkpt>
      <trkpt lat="46.92834" lon="8.57764">
        <ele>541</ele>
        <time>2021-08-10T11:05:40.818Z</time>
      </trkpt>
      <trkpt lat="46.92834" lon="8.57764">
        <ele>541</ele>
        <time>2021-08-10T11:05:41.818Z</time>
      </trkpt>
      <trkpt lat="46.92834" lon="8.57764">
        <ele>541</ele>
        <time>2021-08-10T11:05:42.818Z</time>
      </trkpt>
      <trkpt lat="46.92833" lon="8.57763">
        <ele>541</ele>
        <time>2021-08-10T11:05:43.818Z</time>
      </trkpt>
      <trkpt lat="46.92831" lon="8.57763">
        <ele>542</ele>
        <time>2021-08-10T11:05:44.818Z</time>
      </trkpt>
      <trkpt lat="46.9283" lon="8.57764">
        <ele>542</ele>
        <time>2021-08-10T11:05:45.818Z</time>
      </trkpt>
      <trkpt lat="46.92829" lon="8.57765">
        <ele>542</ele>
        <time>2021-08-10T11:05:46.818Z</time>
      </trkpt>
      <trkpt lat="46.92828" lon="8.57766">
        <ele>543</ele>
        <time>2021-08-10T11:05:47.819Z</time>
      </trkpt>
      <trkpt lat="46.92828" lon="8.57766">
        <ele>543</ele>
        <time>2021-08-10T11:05:48.818Z</time>
      </trkpt>
      <trkpt lat="46.92827" lon="8.57766">
        <ele>543</ele>
        <time>2021-08-10T11:05:49.819Z</time>
      </trkpt>
      <trkpt lat="46.92827" lon="8.57766">
        <ele>543</ele>
        <time>2021-08-10T11:05:50.819Z</time>
      </trkpt>
      <trkpt lat="46.92826" lon="8.57766">
        <ele>543</ele>
        <time>2021-08-10T11:05:51.818Z</time>
      </trkpt>
      <trkpt lat="46.92826" lon="8.57767">
        <ele>543</ele>
        <time>2021-08-10T11:05:52.818Z</time>
      </trkpt>
      <trkpt lat="46.92825" lon="8.57767">
        <ele>542</ele>
        <time>2021-08-10T11:05:53.819Z</time>
      </trkpt>
      <trkpt lat="46.92825" lon="8.57767">
        <ele>542</ele>
        <time>2021-08-10T11:05:54.819Z</time>
      </trkpt>
      <trkpt lat="46.92825" lon="8.57767">
        <ele>542</ele>
        <time>2021-08-10T11:05:55.819Z</time>
      </trkpt>
      <trkpt lat="46.92824" lon="8.57767">
        <ele>542</ele>
        <time>2021-08-10T11:05:56.818Z</time>
      </trkpt>
      <trkpt lat="46.92823" lon="8.57766">
        <ele>542</ele>
        <time>2021-08-10T11:05:57.820Z</time>
      </trkpt>
      <trkpt lat="46.92823" lon="8.57765">
        <ele>542</ele>
        <time>2021-08-10T11:05:58.819Z</time>
      </trkpt>
      <trkpt lat="46.92822" lon="8.57764">
        <ele>543</ele>
        <time>2021-08-10T11:05:59.820Z</time>
      </trkpt>
      <trkpt lat="46.92821" lon="8.57763">
        <ele>543</ele>
        <time>2021-08-10T11:06:00.819Z</time>
      </trkpt>
      <trkpt lat="46.92821" lon="8.57762">
        <ele>543</ele>
        <time>2021-08-10T11:06:01.819Z</time>
      </trkpt>
      <trkpt lat="46.9282" lon="8.57761">
        <ele>543</ele>
        <time>2021-08-10T11:06:02.820Z</time>
      </trkpt>
      <trkpt lat="46.92819" lon="8.5776">
        <ele>544</ele>
        <time>2021-08-10T11:06:03.819Z</time>
      </trkpt>
      <trkpt lat="46.92819" lon="8.5776">
        <ele>544</ele>
        <time>2021-08-10T11:06:04.819Z</time>
      </trkpt>
      <trkpt lat="46.92818" lon="8.57759">
        <ele>545</ele>
        <time>2021-08-10T11:06:05.820Z</time>
      </trkpt>
      <trkpt lat="46.92818" lon="8.57759">
        <ele>545</ele>
        <time>2021-08-10T11:06:06.819Z</time>
      </trkpt>
      <trkpt lat="46.92818" lon="8.57759">
        <ele>545</ele>
        <time>2021-08-10T11:06:07.819Z</time>
      </trkpt>
      <trkpt lat="46.92817" lon="8.57759">
        <ele>545</ele>
        <time>2021-08-10T11:06:08.819Z</time>
      </trkpt>
      <trkpt lat="46.92816" lon="8.57759">
        <ele>545</ele>
        <time>2021-08-10T11:06:09.820Z</time>
      </trkpt>
      <trkpt lat="46.92816" lon="8.57759">
        <ele>545</ele>
        <time>2021-08-10T11:06:10.820Z</time>
      </trkpt>
      <trkpt lat="46.92815" lon="8.57759">
        <ele>545</ele>
        <time>2021-08-10T11:06:11.819Z</time>
      </trkpt>
      <trkpt lat="46.92815" lon="8.57759">
        <ele>545</ele>
        <time>2021-08-10T11:06:12.820Z</time>
      </trkpt>
      <trkpt lat="46.92815" lon="8.57758">
        <ele>545</ele>
        <time>2021-08-10T11:06:13.820Z</time>
      </trkpt>
      <trkpt lat="46.92814" lon="8.57758">
        <ele>545</ele>
        <time>2021-08-10T11:06:14.819Z</time>
      </trkpt>
      <trkpt lat="46.92814" lon="8.57758">
        <ele>544</ele>
        <time>2021-08-10T11:06:15.820Z</time>
      </trkpt>
      <trkpt lat="46.92814" lon="8.57758">
        <ele>544</ele>
        <time>2021-08-10T11:06:16.820Z</time>
      </trkpt>
      <trkpt lat="46.92813" lon="8.57758">
        <ele>544</ele>
        <time>2021-08-10T11:06:17.819Z</time>
      </trkpt>
      <trkpt lat="46.92812" lon="8.57758">
        <ele>544</ele>
        <time>2021-08-10T11:06:18.820Z</time>
      </trkpt>
      <trkpt lat="46.92811" lon="8.57757">
        <ele>544</ele>
        <time>2021-08-10T11:06:19.819Z</time>
      </trkpt>
      <trkpt lat="46.92811" lon="8.57756">
        <ele>544</ele>
        <time>2021-08-10T11:06:20.819Z</time>
      </trkpt>
      <trkpt lat="46.9281" lon="8.57754">
        <ele>544</ele>
        <time>2021-08-10T11:06:21.820Z</time>
      </trkpt>
      <trkpt lat="46.92809" lon="8.57754">
        <ele>544</ele>
        <time>2021-08-10T11:06:22.819Z</time>
      </trkpt>
      <trkpt lat="46.92807" lon="8.57756">
        <ele>544</ele>
        <time>2021-08-10T11:06:23.820Z</time>
      </trkpt>
      <trkpt lat="46.92806" lon="8.57758">
        <ele>544</ele>
        <time>2021-08-10T11:06:24.819Z</time>
      </trkpt>
      <trkpt lat="46.92806" lon="8.57759">
        <ele>544</ele>
        <time>2021-08-10T11:06:25.820Z</time>
      </trkpt>
      <trkpt lat="46.92806" lon="8.57759">
        <ele>545</ele>
        <time>2021-08-10T11:06:26.819Z</time>
      </trkpt>
      <trkpt lat="46.92807" lon="8.57759">
        <ele>545</ele>
        <time>2021-08-10T11:06:27.819Z</time>
      </trkpt>
      <trkpt lat="46.92807" lon="8.5776">
        <ele>545</ele>
        <time>2021-08-10T11:06:28.819Z</time>
      </trkpt>
      <trkpt lat="46.92807" lon="8.57761">
        <ele>545</ele>
        <time>2021-08-10T11:06:29.820Z</time>
      </trkpt>
      <trkpt lat="46.92807" lon="8.57762">
        <ele>545</ele>
        <time>2021-08-10T11:06:30.819Z</time>
      </trkpt>
      <trkpt lat="46.92807" lon="8.57763">
        <ele>546</ele>
        <time>2021-08-10T11:06:31.819Z</time>
      </trkpt>
      <trkpt lat="46.92807" lon="8.57764">
        <ele>546</ele>
        <time>2021-08-10T11:06:32.820Z</time>
      </trkpt>
      <trkpt lat="46.92807" lon="8.57765">
        <ele>546</ele>
        <time>2021-08-10T11:06:33.820Z</time>
      </trkpt>
      <trkpt lat="46.92807" lon="8.57766">
        <ele>546</ele>
        <time>2021-08-10T11:06:34.820Z</time>
      </trkpt>
      <trkpt lat="46.92807" lon="8.57766">
        <ele>546</ele>
        <time>2021-08-10T11:06:35.820Z</time>
      </trkpt>
      <trkpt lat="46.92807" lon="8.57767">
        <ele>546</ele>
        <time>2021-08-10T11:06:36.820Z</time>
      </trkpt>
      <trkpt lat="46.92808" lon="8.57767">
        <ele>547</ele>
        <time>2021-08-10T11:06:37.820Z</time>
      </trkpt>
      <trkpt lat="46.92809" lon="8.57771">
        <ele>551</ele>
        <time>2021-08-10T11:06:38.819Z</time>
      </trkpt>
      <trkpt lat="46.92808" lon="8.57772">
        <ele>551</ele>
        <time>2021-08-10T11:06:39.820Z</time>
      </trkpt>
      <trkpt lat="46.92809" lon="8.57773">
        <ele>552</ele>
        <time>2021-08-10T11:06:40.819Z</time>
      </trkpt>
      <trkpt lat="46.92809" lon="8.57772">
        <ele>552</ele>
        <time>2021-08-10T11:06:41.819Z</time>
      </trkpt>
      <trkpt lat="46.92809" lon="8.57771">
        <ele>552</ele>
        <time>2021-08-10T11:06:42.819Z</time>
      </trkpt>
      <trkpt lat="46.92806" lon="8.57769">
        <ele>554</ele>
        <time>2021-08-10T11:06:43.820Z</time>
      </trkpt>
      <trkpt lat="46.92806" lon="8.57769">
        <ele>554</ele>
        <time>2021-08-10T11:06:44.819Z</time>
      </trkpt>
      <trkpt lat="46.92806" lon="8.57769">
        <ele>555</ele>
        <time>2021-08-10T11:06:45.820Z</time>
      </trkpt>
      <trkpt lat="46.92805" lon="8.57768">
        <ele>555</ele>
        <time>2021-08-10T11:06:46.819Z</time>
      </trkpt>
      <trkpt lat="46.92805" lon="8.57768">
        <ele>555</ele>
        <time>2021-08-10T11:06:47.819Z</time>
      </trkpt>
      <trkpt lat="46.92804" lon="8.57767">
        <ele>556</ele>
        <time>2021-08-10T11:06:48.819Z</time>
      </trkpt>
      <trkpt lat="46.92804" lon="8.57766">
        <ele>556</ele>
        <time>2021-08-10T11:06:49.820Z</time>
      </trkpt>
      <trkpt lat="46.92804" lon="8.57765">
        <ele>557</ele>
        <time>2021-08-10T11:06:50.819Z</time>
      </trkpt>
      <trkpt lat="46.92803" lon="8.57764">
        <ele>557</ele>
        <time>2021-08-10T11:06:51.820Z</time>
      </trkpt>
      <trkpt lat="46.92803" lon="8.57764">
        <ele>557</ele>
        <time>2021-08-10T11:06:52.820Z</time>
      </trkpt>
      <trkpt lat="46.92801" lon="8.57762">
        <ele>558</ele>
        <time>2021-08-10T11:06:53.820Z</time>
      </trkpt>
      <trkpt lat="46.92801" lon="8.57761">
        <ele>558</ele>
        <time>2021-08-10T11:06:54.819Z</time>
      </trkpt>
      <trkpt lat="46.928" lon="8.5776">
        <ele>558</ele>
        <time>2021-08-10T11:06:55.819Z</time>
      </trkpt>
      <trkpt lat="46.928" lon="8.57759">
        <ele>558</ele>
        <time>2021-08-10T11:06:56.820Z</time>
      </trkpt>
      <trkpt lat="46.928" lon="8.57759">
        <ele>557</ele>
        <time>2021-08-10T11:06:57.820Z</time>
      </trkpt>
      <trkpt lat="46.92799" lon="8.57758">
        <ele>557</ele>
        <time>2021-08-10T11:06:58.820Z</time>
      </trkpt>
      <trkpt lat="46.92798" lon="8.57757">
        <ele>556</ele>
        <time>2021-08-10T11:06:59.819Z</time>
      </trkpt>
      <trkpt lat="46.92797" lon="8.57757">
        <ele>556</ele>
        <time>2021-08-10T11:07:00.819Z</time>
      </trkpt>
      <trkpt lat="46.92796" lon="8.57755">
        <ele>556</ele>
        <time>2021-08-10T11:07:01.820Z</time>
      </trkpt>
      <trkpt lat="46.92794" lon="8.57753">
        <ele>556</ele>
        <time>2021-08-10T11:07:02.819Z</time>
      </trkpt>
      <trkpt lat="46.92794" lon="8.57752">
        <ele>555</ele>
        <time>2021-08-10T11:07:03.820Z</time>
      </trkpt>
      <trkpt lat="46.92794" lon="8.57751">
        <ele>555</ele>
        <time>2021-08-10T11:07:04.819Z</time>
      </trkpt>
      <trkpt lat="46.92794" lon="8.5775">
        <ele>554</ele>
        <time>2021-08-10T11:07:05.820Z</time>
      </trkpt>
      <trkpt lat="46.92794" lon="8.5775">
        <ele>553</ele>
        <time>2021-08-10T11:07:06.820Z</time>
      </trkpt>
      <trkpt lat="46.92794" lon="8.57749">
        <ele>552</ele>
        <time>2021-08-10T11:07:07.820Z</time>
      </trkpt>
      <trkpt lat="46.92794" lon="8.57749">
        <ele>551</ele>
        <time>2021-08-10T11:07:08.820Z</time>
      </trkpt>
      <trkpt lat="46.92793" lon="8.57748">
        <ele>551</ele>
        <time>2021-08-10T11:07:09.820Z</time>
      </trkpt>
      <trkpt lat="46.92793" lon="8.57748">
        <ele>550</ele>
        <time>2021-08-10T11:07:10.820Z</time>
      </trkpt>
      <trkpt lat="46.92792" lon="8.57747">
        <ele>550</ele>
        <time>2021-08-10T11:07:11.821Z</time>
      </trkpt>
      <trkpt lat="46.92792" lon="8.57747">
        <ele>550</ele>
        <time>2021-08-10T11:07:12.820Z</time>
      </trkpt>
      <trkpt lat="46.92793" lon="8.57747">
        <ele>550</ele>
        <time>2021-08-10T11:07:13.820Z</time>
      </trkpt>
      <trkpt lat="46.92793" lon="8.57747">
        <ele>550</ele>
        <time>2021-08-10T11:07:14.821Z</time>
      </trkpt>
      <trkpt lat="46.92793" lon="8.57746">
        <ele>550</ele>
        <time>2021-08-10T11:07:15.821Z</time>
      </trkpt>
      <trkpt lat="46.92794" lon="8.57746">
        <ele>551</ele>
        <time>2021-08-10T11:07:16.821Z</time>
      </trkpt>
      <trkpt lat="46.92794" lon="8.57746">
        <ele>551</ele>
        <time>2021-08-10T11:07:17.821Z</time>
      </trkpt>
      <trkpt lat="46.9279" lon="8.57743">
        <ele>551</ele>
        <time>2021-08-10T11:07:18.820Z</time>
      </trkpt>
      <trkpt lat="46.92789" lon="8.57743">
        <ele>551</ele>
        <time>2021-08-10T11:07:19.820Z</time>
      </trkpt>
      <trkpt lat="46.92789" lon="8.57742">
        <ele>550</ele>
        <time>2021-08-10T11:07:20.820Z</time>
      </trkpt>
      <trkpt lat="46.92788" lon="8.57742">
        <ele>550</ele>
        <time>2021-08-10T11:07:21.820Z</time>
      </trkpt>
      <trkpt lat="46.92788" lon="8.57742">
        <ele>550</ele>
        <time>2021-08-10T11:07:22.820Z</time>
      </trkpt>
      <trkpt lat="46.92788" lon="8.57741">
        <ele>550</ele>
        <time>2021-08-10T11:07:23.821Z</time>
      </trkpt>
      <trkpt lat="46.92787" lon="8.5774">
        <ele>550</ele>
        <time>2021-08-10T11:07:24.821Z</time>
      </trkpt>
      <trkpt lat="46.92786" lon="8.5774">
        <ele>550</ele>
        <time>2021-08-10T11:07:25.821Z</time>
      </trkpt>
      <trkpt lat="46.92786" lon="8.5774">
        <ele>550</ele>
        <time>2021-08-10T11:07:26.821Z</time>
      </trkpt>
      <trkpt lat="46.92785" lon="8.5774">
        <ele>549</ele>
        <time>2021-08-10T11:07:27.821Z</time>
      </trkpt>
      <trkpt lat="46.92785" lon="8.57739">
        <ele>549</ele>
        <time>2021-08-10T11:07:28.821Z</time>
      </trkpt>
      <trkpt lat="46.92784" lon="8.57739">
        <ele>550</ele>
        <time>2021-08-10T11:07:29.821Z</time>
      </trkpt>
      <trkpt lat="46.92783" lon="8.57739">
        <ele>550</ele>
        <time>2021-08-10T11:07:30.821Z</time>
      </trkpt>
      <trkpt lat="46.92783" lon="8.57738">
        <ele>550</ele>
        <time>2021-08-10T11:07:31.820Z</time>
      </trkpt>
      <trkpt lat="46.92782" lon="8.57739">
        <ele>550</ele>
        <time>2021-08-10T11:07:32.820Z</time>
      </trkpt>
      <trkpt lat="46.92782" lon="8.57739">
        <ele>550</ele>
        <time>2021-08-10T11:07:33.821Z</time>
      </trkpt>
      <trkpt lat="46.92781" lon="8.57739">
        <ele>551</ele>
        <time>2021-08-10T11:07:34.821Z</time>
      </trkpt>
      <trkpt lat="46.9278" lon="8.57739">
        <ele>551</ele>
        <time>2021-08-10T11:07:35.821Z</time>
      </trkpt>
      <trkpt lat="46.92779" lon="8.57739">
        <ele>552</ele>
        <time>2021-08-10T11:07:36.821Z</time>
      </trkpt>
      <trkpt lat="46.92779" lon="8.5774">
        <ele>552</ele>
        <time>2021-08-10T11:07:37.821Z</time>
      </trkpt>
      <trkpt lat="46.92778" lon="8.5774">
        <ele>553</ele>
        <time>2021-08-10T11:07:38.821Z</time>
      </trkpt>
      <trkpt lat="46.92777" lon="8.5774">
        <ele>554</ele>
        <time>2021-08-10T11:07:39.821Z</time>
      </trkpt>
      <trkpt lat="46.92777" lon="8.5774">
        <ele>555</ele>
        <time>2021-08-10T11:07:40.821Z</time>
      </trkpt>
      <trkpt lat="46.92776" lon="8.5774">
        <ele>555</ele>
        <time>2021-08-10T11:07:41.821Z</time>
      </trkpt>
      <trkpt lat="46.92776" lon="8.5774">
        <ele>556</ele>
        <time>2021-08-10T11:07:42.821Z</time>
      </trkpt>
      <trkpt lat="46.92775" lon="8.57739">
        <ele>557</ele>
        <time>2021-08-10T11:07:43.821Z</time>
      </trkpt>
      <trkpt lat="46.92775" lon="8.57739">
        <ele>558</ele>
        <time>2021-08-10T11:07:44.821Z</time>
      </trkpt>
      <trkpt lat="46.92774" lon="8.57738">
        <ele>558</ele>
        <time>2021-08-10T11:07:45.820Z</time>
      </trkpt>
      <trkpt lat="46.92774" lon="8.57738">
        <ele>559</ele>
        <time>2021-08-10T11:07:46.821Z</time>
      </trkpt>
      <trkpt lat="46.92773" lon="8.57738">
        <ele>560</ele>
        <time>2021-08-10T11:07:47.821Z</time>
      </trkpt>
      <trkpt lat="46.92773" lon="8.57738">
        <ele>561</ele>
        <time>2021-08-10T11:07:48.821Z</time>
      </trkpt>
      <trkpt lat="46.92772" lon="8.57737">
        <ele>562</ele>
        <time>2021-08-10T11:07:49.821Z</time>
      </trkpt>
      <trkpt lat="46.92772" lon="8.57737">
        <ele>563</ele>
        <time>2021-08-10T11:07:50.821Z</time>
      </trkpt>
      <trkpt lat="46.92771" lon="8.57737">
        <ele>564</ele>
        <time>2021-08-10T11:07:51.821Z</time>
      </trkpt>
      <trkpt lat="46.92771" lon="8.57736">
        <ele>565</ele>
        <time>2021-08-10T11:07:52.821Z</time>
      </trkpt>
      <trkpt lat="46.9277" lon="8.57736">
        <ele>566</ele>
        <time>2021-08-10T11:07:53.821Z</time>
      </trkpt>
      <trkpt lat="46.9277" lon="8.57736">
        <ele>567</ele>
        <time>2021-08-10T11:07:54.821Z</time>
      </trkpt>
      <trkpt lat="46.92769" lon="8.57735">
        <ele>567</ele>
        <time>2021-08-10T11:07:55.821Z</time>
      </trkpt>
      <trkpt lat="46.92769" lon="8.57734">
        <ele>567</ele>
        <time>2021-08-10T11:07:56.821Z</time>
      </trkpt>
      <trkpt lat="46.92768" lon="8.57734">
        <ele>568</ele>
        <time>2021-08-10T11:07:57.821Z</time>
      </trkpt>
      <trkpt lat="46.92768" lon="8.57734">
        <ele>568</ele>
        <time>2021-08-10T11:07:58.821Z</time>
      </trkpt>
      <trkpt lat="46.92768" lon="8.57734">
        <ele>569</ele>
        <time>2021-08-10T11:07:59.821Z</time>
      </trkpt>
      <trkpt lat="46.92769" lon="8.57734">
        <ele>569</ele>
        <time>2021-08-10T11:08:00.822Z</time>
      </trkpt>
      <trkpt lat="46.92769" lon="8.57734">
        <ele>568</ele>
        <time>2021-08-10T11:08:01.822Z</time>
      </trkpt>
      <trkpt lat="46.92768" lon="8.57733">
        <ele>567</ele>
        <time>2021-08-10T11:08:02.821Z</time>
      </trkpt>
      <trkpt lat="46.92768" lon="8.57733">
        <ele>567</ele>
        <time>2021-08-10T11:08:03.822Z</time>
      </trkpt>
      <trkpt lat="46.92767" lon="8.57733">
        <ele>567</ele>
        <time>2021-08-10T11:08:04.821Z</time>
      </trkpt>
      <trkpt lat="46.92768" lon="8.5773">
        <ele>568</ele>
        <time>2021-08-10T11:08:05.822Z</time>
      </trkpt>
      <trkpt lat="46.92768" lon="8.5773">
        <ele>567</ele>
        <time>2021-08-10T11:08:06.821Z</time>
      </trkpt>
      <trkpt lat="46.92768" lon="8.5773">
        <ele>567</ele>
        <time>2021-08-10T11:08:07.822Z</time>
      </trkpt>
      <trkpt lat="46.92767" lon="8.57731">
        <ele>567</ele>
        <time>2021-08-10T11:08:08.821Z</time>
      </trkpt>
      <trkpt lat="46.92767" lon="8.57731">
        <ele>567</ele>
        <time>2021-08-10T11:08:09.821Z</time>
      </trkpt>
      <trkpt lat="46.92767" lon="8.57731">
        <ele>567</ele>
        <time>2021-08-10T11:08:10.821Z</time>
      </trkpt>
      <trkpt lat="46.92766" lon="8.57731">
        <ele>566</ele>
        <time>2021-08-10T11:08:11.822Z</time>
      </trkpt>
      <trkpt lat="46.92766" lon="8.57732">
        <ele>566</ele>
        <time>2021-08-10T11:08:12.821Z</time>
      </trkpt>
      <trkpt lat="46.92765" lon="8.57732">
        <ele>566</ele>
        <time>2021-08-10T11:08:13.822Z</time>
      </trkpt>
      <trkpt lat="46.92765" lon="8.57732">
        <ele>566</ele>
        <time>2021-08-10T11:08:14.821Z</time>
      </trkpt>
      <trkpt lat="46.92764" lon="8.57733">
        <ele>566</ele>
        <time>2021-08-10T11:08:15.822Z</time>
      </trkpt>
      <trkpt lat="46.92764" lon="8.57734">
        <ele>566</ele>
        <time>2021-08-10T11:08:16.821Z</time>
      </trkpt>
      <trkpt lat="46.92763" lon="8.57735">
        <ele>565</ele>
        <time>2021-08-10T11:08:17.821Z</time>
      </trkpt>
      <trkpt lat="46.92762" lon="8.57736">
        <ele>565</ele>
        <time>2021-08-10T11:08:18.821Z</time>
      </trkpt>
      <trkpt lat="46.92762" lon="8.57737">
        <ele>565</ele>
        <time>2021-08-10T11:08:19.821Z</time>
      </trkpt>
      <trkpt lat="46.92762" lon="8.57737">
        <ele>565</ele>
        <time>2021-08-10T11:08:20.822Z</time>
      </trkpt>
      <trkpt lat="46.92762" lon="8.57738">
        <ele>565</ele>
        <time>2021-08-10T11:08:21.821Z</time>
      </trkpt>
      <trkpt lat="46.92761" lon="8.57738">
        <ele>565</ele>
        <time>2021-08-10T11:08:22.821Z</time>
      </trkpt>
      <trkpt lat="46.9276" lon="8.57738">
        <ele>565</ele>
        <time>2021-08-10T11:08:23.821Z</time>
      </trkpt>
      <trkpt lat="46.92759" lon="8.57738">
        <ele>565</ele>
        <time>2021-08-10T11:08:24.822Z</time>
      </trkpt>
      <trkpt lat="46.92759" lon="8.57739">
        <ele>565</ele>
        <time>2021-08-10T11:08:25.822Z</time>
      </trkpt>
      <trkpt lat="46.92758" lon="8.5774">
        <ele>564</ele>
        <time>2021-08-10T11:08:26.821Z</time>
      </trkpt>
      <trkpt lat="46.92757" lon="8.5774">
        <ele>564</ele>
        <time>2021-08-10T11:08:27.822Z</time>
      </trkpt>
      <trkpt lat="46.92757" lon="8.5774">
        <ele>564</ele>
        <time>2021-08-10T11:08:28.822Z</time>
      </trkpt>
      <trkpt lat="46.92756" lon="8.57741">
        <ele>564</ele>
        <time>2021-08-10T11:08:29.822Z</time>
      </trkpt>
      <trkpt lat="46.92756" lon="8.5774">
        <ele>564</ele>
        <time>2021-08-10T11:08:30.822Z</time>
      </trkpt>
      <trkpt lat="46.92754" lon="8.5774">
        <ele>564</ele>
        <time>2021-08-10T11:08:31.822Z</time>
      </trkpt>
      <trkpt lat="46.92753" lon="8.5774">
        <ele>564</ele>
        <time>2021-08-10T11:08:32.822Z</time>
      </trkpt>
      <trkpt lat="46.92752" lon="8.57739">
        <ele>565</ele>
        <time>2021-08-10T11:08:33.822Z</time>
      </trkpt>
      <trkpt lat="46.92751" lon="8.57739">
        <ele>565</ele>
        <time>2021-08-10T11:08:34.821Z</time>
      </trkpt>
      <trkpt lat="46.92751" lon="8.57739">
        <ele>565</ele>
        <time>2021-08-10T11:08:35.821Z</time>
      </trkpt>
      <trkpt lat="46.92751" lon="8.57739">
        <ele>565</ele>
        <time>2021-08-10T11:08:36.821Z</time>
      </trkpt>
      <trkpt lat="46.92749" lon="8.5774">
        <ele>566</ele>
        <time>2021-08-10T11:08:37.823Z</time>
      </trkpt>
      <trkpt lat="46.92749" lon="8.57741">
        <ele>566</ele>
        <time>2021-08-10T11:08:38.823Z</time>
      </trkpt>
      <trkpt lat="46.92748" lon="8.57742">
        <ele>566</ele>
        <time>2021-08-10T11:08:39.822Z</time>
      </trkpt>
      <trkpt lat="46.92748" lon="8.57743">
        <ele>566</ele>
        <time>2021-08-10T11:08:40.823Z</time>
      </trkpt>
      <trkpt lat="46.92748" lon="8.57744">
        <ele>567</ele>
        <time>2021-08-10T11:08:41.823Z</time>
      </trkpt>
      <trkpt lat="46.92748" lon="8.57745">
        <ele>567</ele>
        <time>2021-08-10T11:08:42.822Z</time>
      </trkpt>
      <trkpt lat="46.92748" lon="8.57746">
        <ele>568</ele>
        <time>2021-08-10T11:08:43.823Z</time>
      </trkpt>
      <trkpt lat="46.92748" lon="8.57747">
        <ele>568</ele>
        <time>2021-08-10T11:08:44.823Z</time>
      </trkpt>
      <trkpt lat="46.92748" lon="8.57748">
        <ele>568</ele>
        <time>2021-08-10T11:08:45.823Z</time>
      </trkpt>
      <trkpt lat="46.92748" lon="8.57749">
        <ele>568</ele>
        <time>2021-08-10T11:08:46.822Z</time>
      </trkpt>
      <trkpt lat="46.92748" lon="8.5775">
        <ele>568</ele>
        <time>2021-08-10T11:08:47.823Z</time>
      </trkpt>
      <trkpt lat="46.92748" lon="8.57751">
        <ele>568</ele>
        <time>2021-08-10T11:08:48.823Z</time>
      </trkpt>
      <trkpt lat="46.92748" lon="8.57752">
        <ele>568</ele>
        <time>2021-08-10T11:08:49.823Z</time>
      </trkpt>
      <trkpt lat="46.92747" lon="8.57753">
        <ele>568</ele>
        <time>2021-08-10T11:08:50.822Z</time>
      </trkpt>
      <trkpt lat="46.92748" lon="8.57755">
        <ele>569</ele>
        <time>2021-08-10T11:08:51.823Z</time>
      </trkpt>
      <trkpt lat="46.92748" lon="8.57756">
        <ele>569</ele>
        <time>2021-08-10T11:08:52.822Z</time>
      </trkpt>
      <trkpt lat="46.92748" lon="8.57758">
        <ele>570</ele>
        <time>2021-08-10T11:08:53.823Z</time>
      </trkpt>
      <trkpt lat="46.92749" lon="8.57761">
        <ele>570</ele>
        <time>2021-08-10T11:08:54.823Z</time>
      </trkpt>
      <trkpt lat="46.92749" lon="8.57763">
        <ele>571</ele>
        <time>2021-08-10T11:08:55.823Z</time>
      </trkpt>
      <trkpt lat="46.9275" lon="8.57764">
        <ele>571</ele>
        <time>2021-08-10T11:08:56.823Z</time>
      </trkpt>
      <trkpt lat="46.9275" lon="8.57765">
        <ele>571</ele>
        <time>2021-08-10T11:08:57.823Z</time>
      </trkpt>
      <trkpt lat="46.9275" lon="8.57766">
        <ele>571</ele>
        <time>2021-08-10T11:08:58.823Z</time>
      </trkpt>
      <trkpt lat="46.9275" lon="8.57767">
        <ele>571</ele>
        <time>2021-08-10T11:08:59.822Z</time>
      </trkpt>
      <trkpt lat="46.9275" lon="8.57767">
        <ele>571</ele>
        <time>2021-08-10T11:09:00.823Z</time>
      </trkpt>
      <trkpt lat="46.92749" lon="8.57768">
        <ele>571</ele>
        <time>2021-08-10T11:09:01.822Z</time>
      </trkpt>
      <trkpt lat="46.9275" lon="8.57769">
        <ele>571</ele>
        <time>2021-08-10T11:09:02.822Z</time>
      </trkpt>
      <trkpt lat="46.92751" lon="8.57769">
        <ele>571</ele>
        <time>2021-08-10T11:09:03.822Z</time>
      </trkpt>
      <trkpt lat="46.92751" lon="8.5777">
        <ele>571</ele>
        <time>2021-08-10T11:09:04.822Z</time>
      </trkpt>
      <trkpt lat="46.92751" lon="8.57771">
        <ele>571</ele>
        <time>2021-08-10T11:09:05.823Z</time>
      </trkpt>
      <trkpt lat="46.9275" lon="8.57772">
        <ele>570</ele>
        <time>2021-08-10T11:09:06.823Z</time>
      </trkpt>
      <trkpt lat="46.9275" lon="8.57774">
        <ele>570</ele>
        <time>2021-08-10T11:09:07.823Z</time>
      </trkpt>
      <trkpt lat="46.9275" lon="8.57775">
        <ele>570</ele>
        <time>2021-08-10T11:09:08.823Z</time>
      </trkpt>
      <trkpt lat="46.9275" lon="8.57777">
        <ele>570</ele>
        <time>2021-08-10T11:09:09.823Z</time>
      </trkpt>
      <trkpt lat="46.92749" lon="8.57778">
        <ele>570</ele>
        <time>2021-08-10T11:09:10.822Z</time>
      </trkpt>
      <trkpt lat="46.92748" lon="8.57779">
        <ele>570</ele>
        <time>2021-08-10T11:09:11.822Z</time>
      </trkpt>
      <trkpt lat="46.92747" lon="8.5778">
        <ele>570</ele>
        <time>2021-08-10T11:09:12.822Z</time>
      </trkpt>
      <trkpt lat="46.92747" lon="8.5778">
        <ele>569</ele>
        <time>2021-08-10T11:09:13.823Z</time>
      </trkpt>
      <trkpt lat="46.92746" lon="8.57781">
        <ele>569</ele>
        <time>2021-08-10T11:09:14.823Z</time>
      </trkpt>
      <trkpt lat="46.92746" lon="8.57781">
        <ele>569</ele>
        <time>2021-08-10T11:09:15.822Z</time>
      </trkpt>
      <trkpt lat="46.92746" lon="8.57782">
        <ele>569</ele>
        <time>2021-08-10T11:09:16.822Z</time>
      </trkpt>
      <trkpt lat="46.92746" lon="8.57782">
        <ele>569</ele>
        <time>2021-08-10T11:09:17.823Z</time>
      </trkpt>
      <trkpt lat="46.92745" lon="8.57782">
        <ele>569</ele>
        <time>2021-08-10T11:09:18.822Z</time>
      </trkpt>
      <trkpt lat="46.92744" lon="8.57781">
        <ele>569</ele>
        <time>2021-08-10T11:09:19.823Z</time>
      </trkpt>
      <trkpt lat="46.92743" lon="8.5778">
        <ele>569</ele>
        <time>2021-08-10T11:09:20.822Z</time>
      </trkpt>
      <trkpt lat="46.92742" lon="8.5778">
        <ele>569</ele>
        <time>2021-08-10T11:09:21.823Z</time>
      </trkpt>
      <trkpt lat="46.92741" lon="8.57779">
        <ele>570</ele>
        <time>2021-08-10T11:09:22.823Z</time>
      </trkpt>
      <trkpt lat="46.92741" lon="8.57779">
        <ele>570</ele>
        <time>2021-08-10T11:09:23.823Z</time>
      </trkpt>
      <trkpt lat="46.9274" lon="8.57779">
        <ele>570</ele>
        <time>2021-08-10T11:09:24.823Z</time>
      </trkpt>
      <trkpt lat="46.9274" lon="8.57779">
        <ele>571</ele>
        <time>2021-08-10T11:09:25.823Z</time>
      </trkpt>
      <trkpt lat="46.9274" lon="8.57778">
        <ele>571</ele>
        <time>2021-08-10T11:09:26.823Z</time>
      </trkpt>
      <trkpt lat="46.92741" lon="8.57778">
        <ele>572</ele>
        <time>2021-08-10T11:09:27.823Z</time>
      </trkpt>
      <trkpt lat="46.92741" lon="8.57778">
        <ele>573</ele>
        <time>2021-08-10T11:09:28.822Z</time>
      </trkpt>
      <trkpt lat="46.92741" lon="8.57776">
        <ele>577</ele>
        <time>2021-08-10T11:09:29.822Z</time>
      </trkpt>
      <trkpt lat="46.92742" lon="8.57776">
        <ele>578</ele>
        <time>2021-08-10T11:09:30.823Z</time>
      </trkpt>
      <trkpt lat="46.92743" lon="8.57775">
        <ele>579</ele>
        <time>2021-08-10T11:09:31.823Z</time>
      </trkpt>
      <trkpt lat="46.92743" lon="8.57775">
        <ele>579</ele>
        <time>2021-08-10T11:09:32.823Z</time>
      </trkpt>
      <trkpt lat="46.92743" lon="8.57774">
        <ele>580</ele>
        <time>2021-08-10T11:09:33.822Z</time>
      </trkpt>
      <trkpt lat="46.92742" lon="8.57774">
        <ele>580</ele>
        <time>2021-08-10T11:09:34.822Z</time>
      </trkpt>
      <trkpt lat="46.92742" lon="8.57773">
        <ele>580</ele>
        <time>2021-08-10T11:09:35.822Z</time>
      </trkpt>
      <trkpt lat="46.92741" lon="8.57773">
        <ele>580</ele>
        <time>2021-08-10T11:09:36.822Z</time>
      </trkpt>
      <trkpt lat="46.92741" lon="8.57773">
        <ele>580</ele>
        <time>2021-08-10T11:09:37.823Z</time>
      </trkpt>
      <trkpt lat="46.92742" lon="8.57772">
        <ele>580</ele>
        <time>2021-08-10T11:09:38.823Z</time>
      </trkpt>
      <trkpt lat="46.92742" lon="8.57773">
        <ele>580</ele>
        <time>2021-08-10T11:09:39.822Z</time>
      </trkpt>
      <trkpt lat="46.92741" lon="8.57773">
        <ele>580</ele>
        <time>2021-08-10T11:09:40.823Z</time>
      </trkpt>
      <trkpt lat="46.92741" lon="8.57774">
        <ele>580</ele>
        <time>2021-08-10T11:09:41.822Z</time>
      </trkpt>
      <trkpt lat="46.92741" lon="8.57774">
        <ele>580</ele>
        <time>2021-08-10T11:09:42.823Z</time>
      </trkpt>
      <trkpt lat="46.92741" lon="8.57774">
        <ele>580</ele>
        <time>2021-08-10T11:09:43.822Z</time>
      </trkpt>
      <trkpt lat="46.92739" lon="8.57776">
        <ele>578</ele>
        <time>2021-08-10T11:09:44.825Z</time>
      </trkpt>
      <trkpt lat="46.92739" lon="8.57776">
        <ele>578</ele>
        <time>2021-08-10T11:09:45.825Z</time>
      </trkpt>
      <trkpt lat="46.92738" lon="8.57776">
        <ele>577</ele>
        <time>2021-08-10T11:09:46.824Z</time>
      </trkpt>
      <trkpt lat="46.92738" lon="8.57776">
        <ele>577</ele>
        <time>2021-08-10T11:09:47.825Z</time>
      </trkpt>
      <trkpt lat="46.92738" lon="8.57778">
        <ele>577</ele>
        <time>2021-08-10T11:09:48.824Z</time>
      </trkpt>
      <trkpt lat="46.92738" lon="8.57779">
        <ele>577</ele>
        <time>2021-08-10T11:09:49.824Z</time>
      </trkpt>
      <trkpt lat="46.92737" lon="8.57779">
        <ele>576</ele>
        <time>2021-08-10T11:09:50.824Z</time>
      </trkpt>
      <trkpt lat="46.92737" lon="8.57779">
        <ele>576</ele>
        <time>2021-08-10T11:09:51.825Z</time>
      </trkpt>
      <trkpt lat="46.92736" lon="8.57779">
        <ele>576</ele>
        <time>2021-08-10T11:09:52.825Z</time>
      </trkpt>
      <trkpt lat="46.92737" lon="8.57779">
        <ele>575</ele>
        <time>2021-08-10T11:09:53.825Z</time>
      </trkpt>
      <trkpt lat="46.92736" lon="8.57779">
        <ele>575</ele>
        <time>2021-08-10T11:09:54.825Z</time>
      </trkpt>
      <trkpt lat="46.92736" lon="8.5778">
        <ele>575</ele>
        <time>2021-08-10T11:09:55.824Z</time>
      </trkpt>
      <trkpt lat="46.92736" lon="8.57781">
        <ele>575</ele>
        <time>2021-08-10T11:09:56.825Z</time>
      </trkpt>
      <trkpt lat="46.92734" lon="8.57783">
        <ele>575</ele>
        <time>2021-08-10T11:09:57.825Z</time>
      </trkpt>
      <trkpt lat="46.92733" lon="8.57783">
        <ele>575</ele>
        <time>2021-08-10T11:09:58.825Z</time>
      </trkpt>
      <trkpt lat="46.92733" lon="8.57784">
        <ele>575</ele>
        <time>2021-08-10T11:09:59.825Z</time>
      </trkpt>
      <trkpt lat="46.92733" lon="8.57783">
        <ele>576</ele>
        <time>2021-08-10T11:10:00.826Z</time>
      </trkpt>
      <trkpt lat="46.92733" lon="8.57784">
        <ele>576</ele>
        <time>2021-08-10T11:10:01.826Z</time>
      </trkpt>
      <trkpt lat="46.92733" lon="8.57782">
        <ele>577</ele>
        <time>2021-08-10T11:10:02.826Z</time>
      </trkpt>
      <trkpt lat="46.92734" lon="8.57782">
        <ele>578</ele>
        <time>2021-08-10T11:10:03.825Z</time>
      </trkpt>
      <trkpt lat="46.92735" lon="8.57783">
        <ele>578</ele>
        <time>2021-08-10T11:10:04.825Z</time>
      </trkpt>
      <trkpt lat="46.92735" lon="8.57784">
        <ele>578</ele>
        <time>2021-08-10T11:10:05.825Z</time>
      </trkpt>
      <trkpt lat="46.92736" lon="8.57784">
        <ele>578</ele>
        <time>2021-08-10T11:10:06.825Z</time>
      </trkpt>
      <trkpt lat="46.92736" lon="8.57785">
        <ele>578</ele>
        <time>2021-08-10T11:10:07.825Z</time>
      </trkpt>
      <trkpt lat="46.92735" lon="8.57785">
        <ele>578</ele>
        <time>2021-08-10T11:10:08.826Z</time>
      </trkpt>
      <trkpt lat="46.92735" lon="8.57786">
        <ele>578</ele>
        <time>2021-08-10T11:10:09.825Z</time>
      </trkpt>
      <trkpt lat="46.92735" lon="8.57786">
        <ele>578</ele>
        <time>2021-08-10T11:10:10.826Z</time>
      </trkpt>
      <trkpt lat="46.92734" lon="8.57786">
        <ele>578</ele>
        <time>2021-08-10T11:10:11.825Z</time>
      </trkpt>
      <trkpt lat="46.92734" lon="8.57786">
        <ele>579</ele>
        <time>2021-08-10T11:10:12.826Z</time>
      </trkpt>
      <trkpt lat="46.92734" lon="8.57786">
        <ele>579</ele>
        <time>2021-08-10T11:10:13.825Z</time>
      </trkpt>
      <trkpt lat="46.92733" lon="8.57786">
        <ele>580</ele>
        <time>2021-08-10T11:10:14.825Z</time>
      </trkpt>
      <trkpt lat="46.92733" lon="8.57786">
        <ele>580</ele>
        <time>2021-08-10T11:10:15.826Z</time>
      </trkpt>
      <trkpt lat="46.92732" lon="8.57785">
        <ele>581</ele>
        <time>2021-08-10T11:10:16.825Z</time>
      </trkpt>
      <trkpt lat="46.92732" lon="8.57785">
        <ele>582</ele>
        <time>2021-08-10T11:10:17.825Z</time>
      </trkpt>
      <trkpt lat="46.9273" lon="8.57781">
        <ele>583</ele>
        <time>2021-08-10T11:10:18.827Z</time>
      </trkpt>
      <trkpt lat="46.92729" lon="8.57781">
        <ele>583</ele>
        <time>2021-08-10T11:10:19.827Z</time>
      </trkpt>
      <trkpt lat="46.9273" lon="8.57777">
        <ele>584</ele>
        <time>2021-08-10T11:10:20.827Z</time>
      </trkpt>
      <trkpt lat="46.9273" lon="8.57777">
        <ele>584</ele>
        <time>2021-08-10T11:10:21.826Z</time>
      </trkpt>
      <trkpt lat="46.92729" lon="8.57777">
        <ele>584</ele>
        <time>2021-08-10T11:10:22.827Z</time>
      </trkpt>
      <trkpt lat="46.92729" lon="8.57777">
        <ele>583</ele>
        <time>2021-08-10T11:10:23.826Z</time>
      </trkpt>
      <trkpt lat="46.92729" lon="8.57776">
        <ele>583</ele>
        <time>2021-08-10T11:10:24.827Z</time>
      </trkpt>
      <trkpt lat="46.9273" lon="8.57775">
        <ele>579</ele>
        <time>2021-08-10T11:10:25.828Z</time>
      </trkpt>
      <trkpt lat="46.92731" lon="8.57777">
        <ele>587</ele>
        <time>2021-08-10T11:10:26.828Z</time>
      </trkpt>
      <trkpt lat="46.92731" lon="8.57778">
        <ele>588</ele>
        <time>2021-08-10T11:10:27.828Z</time>
      </trkpt>
      <trkpt lat="46.92732" lon="8.57778">
        <ele>589</ele>
        <time>2021-08-10T11:10:28.827Z</time>
      </trkpt>
      <trkpt lat="46.92731" lon="8.57778">
        <ele>590</ele>
        <time>2021-08-10T11:10:29.827Z</time>
      </trkpt>
      <trkpt lat="46.92729" lon="8.57777">
        <ele>600</ele>
        <time>2021-08-10T11:10:30.827Z</time>
      </trkpt>
      <trkpt lat="46.9273" lon="8.57775">
        <ele>601</ele>
        <time>2021-08-10T11:10:31.828Z</time>
      </trkpt>
      <trkpt lat="46.92731" lon="8.57775">
        <ele>603</ele>
        <time>2021-08-10T11:10:32.828Z</time>
      </trkpt>
      <trkpt lat="46.92732" lon="8.57776">
        <ele>601</ele>
        <time>2021-08-10T11:10:33.828Z</time>
      </trkpt>
      <trkpt lat="46.92732" lon="8.57777">
        <ele>600</ele>
        <time>2021-08-10T11:10:34.828Z</time>
      </trkpt>
      <trkpt lat="46.92731" lon="8.57777">
        <ele>600</ele>
        <time>2021-08-10T11:10:35.829Z</time>
      </trkpt>
      <trkpt lat="46.92729" lon="8.57776">
        <ele>598</ele>
        <time>2021-08-10T11:10:36.830Z</time>
      </trkpt>
      <trkpt lat="46.92729" lon="8.57776">
        <ele>597</ele>
        <time>2021-08-10T11:10:37.830Z</time>
      </trkpt>
      <trkpt lat="46.9273" lon="8.57775">
        <ele>595</ele>
        <time>2021-08-10T11:10:38.830Z</time>
      </trkpt>
      <trkpt lat="46.92729" lon="8.57775">
        <ele>594</ele>
        <time>2021-08-10T11:10:39.831Z</time>
      </trkpt>
      <trkpt lat="46.92729" lon="8.57775">
        <ele>594</ele>
        <time>2021-08-10T11:10:40.830Z</time>
      </trkpt>
      <trkpt lat="46.92728" lon="8.57775">
        <ele>593</ele>
        <time>2021-08-10T11:10:41.831Z</time>
      </trkpt>
      <trkpt lat="46.92728" lon="8.57775">
        <ele>593</ele>
        <time>2021-08-10T11:10:42.830Z</time>
      </trkpt>
      <trkpt lat="46.92727" lon="8.57776">
        <ele>592</ele>
        <time>2021-08-10T11:10:43.830Z</time>
      </trkpt>
      <trkpt lat="46.92727" lon="8.57777">
        <ele>591</ele>
        <time>2021-08-10T11:10:44.830Z</time>
      </trkpt>
      <trkpt lat="46.92727" lon="8.57778">
        <ele>591</ele>
        <time>2021-08-10T11:10:45.831Z</time>
      </trkpt>
      <trkpt lat="46.92727" lon="8.57779">
        <ele>590</ele>
        <time>2021-08-10T11:10:46.831Z</time>
      </trkpt>
      <trkpt lat="46.92727" lon="8.5778">
        <ele>590</ele>
        <time>2021-08-10T11:10:47.830Z</time>
      </trkpt>
      <trkpt lat="46.92727" lon="8.57781">
        <ele>590</ele>
        <time>2021-08-10T11:10:48.830Z</time>
      </trkpt>
      <trkpt lat="46.92727" lon="8.57782">
        <ele>590</ele>
        <time>2021-08-10T11:10:49.831Z</time>
      </trkpt>
      <trkpt lat="46.92727" lon="8.57783">
        <ele>590</ele>
        <time>2021-08-10T11:10:50.831Z</time>
      </trkpt>
      <trkpt lat="46.92727" lon="8.57784">
        <ele>589</ele>
        <time>2021-08-10T11:10:51.830Z</time>
      </trkpt>
      <trkpt lat="46.92726" lon="8.57785">
        <ele>590</ele>
        <time>2021-08-10T11:10:52.830Z</time>
      </trkpt>
      <trkpt lat="46.92726" lon="8.57786">
        <ele>590</ele>
        <time>2021-08-10T11:10:53.830Z</time>
      </trkpt>
      <trkpt lat="46.92725" lon="8.57787">
        <ele>590</ele>
        <time>2021-08-10T11:10:54.831Z</time>
      </trkpt>
      <trkpt lat="46.92725" lon="8.57788">
        <ele>590</ele>
        <time>2021-08-10T11:10:55.831Z</time>
      </trkpt>
      <trkpt lat="46.92725" lon="8.57789">
        <ele>590</ele>
        <time>2021-08-10T11:10:56.830Z</time>
      </trkpt>
      <trkpt lat="46.92725" lon="8.5779">
        <ele>590</ele>
        <time>2021-08-10T11:10:57.830Z</time>
      </trkpt>
      <trkpt lat="46.92724" lon="8.57791">
        <ele>590</ele>
        <time>2021-08-10T11:10:58.830Z</time>
      </trkpt>
      <trkpt lat="46.92724" lon="8.57792">
        <ele>590</ele>
        <time>2021-08-10T11:10:59.831Z</time>
      </trkpt>
      <trkpt lat="46.92724" lon="8.57793">
        <ele>589</ele>
        <time>2021-08-10T11:11:00.831Z</time>
      </trkpt>
      <trkpt lat="46.92724" lon="8.57794">
        <ele>589</ele>
        <time>2021-08-10T11:11:01.830Z</time>
      </trkpt>
      <trkpt lat="46.92724" lon="8.57795">
        <ele>589</ele>
        <time>2021-08-10T11:11:02.830Z</time>
      </trkpt>
      <trkpt lat="46.92724" lon="8.57796">
        <ele>589</ele>
        <time>2021-08-10T11:11:03.830Z</time>
      </trkpt>
      <trkpt lat="46.92724" lon="8.57798">
        <ele>588</ele>
        <time>2021-08-10T11:11:04.830Z</time>
      </trkpt>
      <trkpt lat="46.92724" lon="8.57799">
        <ele>588</ele>
        <time>2021-08-10T11:11:05.830Z</time>
      </trkpt>
      <trkpt lat="46.92724" lon="8.57801">
        <ele>588</ele>
        <time>2021-08-10T11:11:06.830Z</time>
      </trkpt>
      <trkpt lat="46.92723" lon="8.57802">
        <ele>588</ele>
        <time>2021-08-10T11:11:07.830Z</time>
      </trkpt>
      <trkpt lat="46.92722" lon="8.57804">
        <ele>588</ele>
        <time>2021-08-10T11:11:08.830Z</time>
      </trkpt>
      <trkpt lat="46.92722" lon="8.57805">
        <ele>588</ele>
        <time>2021-08-10T11:11:09.830Z</time>
      </trkpt>
      <trkpt lat="46.9272" lon="8.57806">
        <ele>587</ele>
        <time>2021-08-10T11:11:10.831Z</time>
      </trkpt>
      <trkpt lat="46.92719" lon="8.57808">
        <ele>587</ele>
        <time>2021-08-10T11:11:11.831Z</time>
      </trkpt>
      <trkpt lat="46.92719" lon="8.57809">
        <ele>587</ele>
        <time>2021-08-10T11:11:12.830Z</time>
      </trkpt>
      <trkpt lat="46.92719" lon="8.5781">
        <ele>587</ele>
        <time>2021-08-10T11:11:13.830Z</time>
      </trkpt>
      <trkpt lat="46.92719" lon="8.57813">
        <ele>587</ele>
        <time>2021-08-10T11:11:14.831Z</time>
      </trkpt>
      <trkpt lat="46.92719" lon="8.57815">
        <ele>587</ele>
        <time>2021-08-10T11:11:15.831Z</time>
      </trkpt>
      <trkpt lat="46.92719" lon="8.57817">
        <ele>587</ele>
        <time>2021-08-10T11:11:16.830Z</time>
      </trkpt>
      <trkpt lat="46.92719" lon="8.57818">
        <ele>587</ele>
        <time>2021-08-10T11:11:17.830Z</time>
      </trkpt>
      <trkpt lat="46.9272" lon="8.5782">
        <ele>588</ele>
        <time>2021-08-10T11:11:18.831Z</time>
      </trkpt>
      <trkpt lat="46.9272" lon="8.57822">
        <ele>588</ele>
        <time>2021-08-10T11:11:19.830Z</time>
      </trkpt>
      <trkpt lat="46.9272" lon="8.57823">
        <ele>588</ele>
        <time>2021-08-10T11:11:20.831Z</time>
      </trkpt>
      <trkpt lat="46.9272" lon="8.57825">
        <ele>589</ele>
        <time>2021-08-10T11:11:21.830Z</time>
      </trkpt>
      <trkpt lat="46.9272" lon="8.57827">
        <ele>589</ele>
        <time>2021-08-10T11:11:22.831Z</time>
      </trkpt>
      <trkpt lat="46.9272" lon="8.57829">
        <ele>589</ele>
        <time>2021-08-10T11:11:23.831Z</time>
      </trkpt>
      <trkpt lat="46.9272" lon="8.5783">
        <ele>589</ele>
        <time>2021-08-10T11:11:24.831Z</time>
      </trkpt>
      <trkpt lat="46.92719" lon="8.57831">
        <ele>589</ele>
        <time>2021-08-10T11:11:25.831Z</time>
      </trkpt>
      <trkpt lat="46.92719" lon="8.57832">
        <ele>590</ele>
        <time>2021-08-10T11:11:26.830Z</time>
      </trkpt>
      <trkpt lat="46.92719" lon="8.57834">
        <ele>590</ele>
        <time>2021-08-10T11:11:27.830Z</time>
      </trkpt>
      <trkpt lat="46.92719" lon="8.57836">
        <ele>590</ele>
        <time>2021-08-10T11:11:28.831Z</time>
      </trkpt>
      <trkpt lat="46.92719" lon="8.57837">
        <ele>591</ele>
        <time>2021-08-10T11:11:29.831Z</time>
      </trkpt>
      <trkpt lat="46.92719" lon="8.57839">
        <ele>591</ele>
        <time>2021-08-10T11:11:30.831Z</time>
      </trkpt>
      <trkpt lat="46.92719" lon="8.5784">
        <ele>591</ele>
        <time>2021-08-10T11:11:31.831Z</time>
      </trkpt>
      <trkpt lat="46.9272" lon="8.57842">
        <ele>591</ele>
        <time>2021-08-10T11:11:32.831Z</time>
      </trkpt>
      <trkpt lat="46.92721" lon="8.57843">
        <ele>591</ele>
        <time>2021-08-10T11:11:33.830Z</time>
      </trkpt>
      <trkpt lat="46.92721" lon="8.57844">
        <ele>591</ele>
        <time>2021-08-10T11:11:34.830Z</time>
      </trkpt>
      <trkpt lat="46.92722" lon="8.57846">
        <ele>591</ele>
        <time>2021-08-10T11:11:35.831Z</time>
      </trkpt>
      <trkpt lat="46.92723" lon="8.5785">
        <ele>592</ele>
        <time>2021-08-10T11:11:36.832Z</time>
      </trkpt>
      <trkpt lat="46.92723" lon="8.5785">
        <ele>592</ele>
        <time>2021-08-10T11:11:37.832Z</time>
      </trkpt>
      <trkpt lat="46.92723" lon="8.57851">
        <ele>592</ele>
        <time>2021-08-10T11:11:38.831Z</time>
      </trkpt>
      <trkpt lat="46.92722" lon="8.57851">
        <ele>592</ele>
        <time>2021-08-10T11:11:39.832Z</time>
      </trkpt>
      <trkpt lat="46.92722" lon="8.57851">
        <ele>592</ele>
        <time>2021-08-10T11:11:40.831Z</time>
      </trkpt>
      <trkpt lat="46.92721" lon="8.57851">
        <ele>592</ele>
        <time>2021-08-10T11:11:41.831Z</time>
      </trkpt>
      <trkpt lat="46.9272" lon="8.57852">
        <ele>592</ele>
        <time>2021-08-10T11:11:42.831Z</time>
      </trkpt>
      <trkpt lat="46.9272" lon="8.57853">
        <ele>592</ele>
        <time>2021-08-10T11:11:43.832Z</time>
      </trkpt>
      <trkpt lat="46.9272" lon="8.57854">
        <ele>592</ele>
        <time>2021-08-10T11:11:44.832Z</time>
      </trkpt>
      <trkpt lat="46.92719" lon="8.57855">
        <ele>592</ele>
        <time>2021-08-10T11:11:45.832Z</time>
      </trkpt>
      <trkpt lat="46.92719" lon="8.57856">
        <ele>592</ele>
        <time>2021-08-10T11:11:46.832Z</time>
      </trkpt>
      <trkpt lat="46.92719" lon="8.57857">
        <ele>592</ele>
        <time>2021-08-10T11:11:47.832Z</time>
      </trkpt>
      <trkpt lat="46.92719" lon="8.57858">
        <ele>592</ele>
        <time>2021-08-10T11:11:48.831Z</time>
      </trkpt>
      <trkpt lat="46.92719" lon="8.57859">
        <ele>593</ele>
        <time>2021-08-10T11:11:49.832Z</time>
      </trkpt>
      <trkpt lat="46.92719" lon="8.57859">
        <ele>593</ele>
        <time>2021-08-10T11:11:50.832Z</time>
      </trkpt>
      <trkpt lat="46.9272" lon="8.57859">
        <ele>593</ele>
        <time>2021-08-10T11:11:51.832Z</time>
      </trkpt>
      <trkpt lat="46.9272" lon="8.57859">
        <ele>594</ele>
        <time>2021-08-10T11:11:52.832Z</time>
      </trkpt>
      <trkpt lat="46.92721" lon="8.57859">
        <ele>594</ele>
        <time>2021-08-10T11:11:53.832Z</time>
      </trkpt>
      <trkpt lat="46.92721" lon="8.57858">
        <ele>594</ele>
        <time>2021-08-10T11:11:54.831Z</time>
      </trkpt>
      <trkpt lat="46.92721" lon="8.57858">
        <ele>594</ele>
        <time>2021-08-10T11:11:55.832Z</time>
      </trkpt>
      <trkpt lat="46.92721" lon="8.57858">
        <ele>595</ele>
        <time>2021-08-10T11:11:56.832Z</time>
      </trkpt>
      <trkpt lat="46.92721" lon="8.57857">
        <ele>595</ele>
        <time>2021-08-10T11:11:57.832Z</time>
      </trkpt>
      <trkpt lat="46.92719" lon="8.57857">
        <ele>595</ele>
        <time>2021-08-10T11:11:58.832Z</time>
      </trkpt>
      <trkpt lat="46.92717" lon="8.57857">
        <ele>595</ele>
        <time>2021-08-10T11:11:59.831Z</time>
      </trkpt>
      <trkpt lat="46.92716" lon="8.57857">
        <ele>596</ele>
        <time>2021-08-10T11:12:00.832Z</time>
      </trkpt>
      <trkpt lat="46.92715" lon="8.57856">
        <ele>596</ele>
        <time>2021-08-10T11:12:01.832Z</time>
      </trkpt>
      <trkpt lat="46.92714" lon="8.57853">
        <ele>596</ele>
        <time>2021-08-10T11:12:02.832Z</time>
      </trkpt>
      <trkpt lat="46.92715" lon="8.57852">
        <ele>597</ele>
        <time>2021-08-10T11:12:03.832Z</time>
      </trkpt>
      <trkpt lat="46.92712" lon="8.57852">
        <ele>597</ele>
        <time>2021-08-10T11:12:04.832Z</time>
      </trkpt>
      <trkpt lat="46.92709" lon="8.57854">
        <ele>597</ele>
        <time>2021-08-10T11:12:05.831Z</time>
      </trkpt>
      <trkpt lat="46.92705" lon="8.57857">
        <ele>597</ele>
        <time>2021-08-10T11:12:06.832Z</time>
      </trkpt>
      <trkpt lat="46.92704" lon="8.57857">
        <ele>598</ele>
        <time>2021-08-10T11:12:07.831Z</time>
      </trkpt>
      <trkpt lat="46.92704" lon="8.57857">
        <ele>598</ele>
        <time>2021-08-10T11:12:08.832Z</time>
      </trkpt>
      <trkpt lat="46.92705" lon="8.57857">
        <ele>598</ele>
        <time>2021-08-10T11:12:09.831Z</time>
      </trkpt>
      <trkpt lat="46.92704" lon="8.57858">
        <ele>599</ele>
        <time>2021-08-10T11:12:10.832Z</time>
      </trkpt>
      <trkpt lat="46.92703" lon="8.57858">
        <ele>599</ele>
        <time>2021-08-10T11:12:11.832Z</time>
      </trkpt>
      <trkpt lat="46.92704" lon="8.57858">
        <ele>600</ele>
        <time>2021-08-10T11:12:12.832Z</time>
      </trkpt>
      <trkpt lat="46.92704" lon="8.57857">
        <ele>600</ele>
        <time>2021-08-10T11:12:13.831Z</time>
      </trkpt>
      <trkpt lat="46.92704" lon="8.57857">
        <ele>600</ele>
        <time>2021-08-10T11:12:14.832Z</time>
      </trkpt>
      <trkpt lat="46.92704" lon="8.57858">
        <ele>601</ele>
        <time>2021-08-10T11:12:15.831Z</time>
      </trkpt>
      <trkpt lat="46.92705" lon="8.57858">
        <ele>601</ele>
        <time>2021-08-10T11:12:16.831Z</time>
      </trkpt>
      <trkpt lat="46.92706" lon="8.57858">
        <ele>601</ele>
        <time>2021-08-10T11:12:17.832Z</time>
      </trkpt>
      <trkpt lat="46.92706" lon="8.57858">
        <ele>601</ele>
        <time>2021-08-10T11:12:18.831Z</time>
      </trkpt>
      <trkpt lat="46.92706" lon="8.57859">
        <ele>602</ele>
        <time>2021-08-10T11:12:19.831Z</time>
      </trkpt>
      <trkpt lat="46.92707" lon="8.57858">
        <ele>602</ele>
        <time>2021-08-10T11:12:20.832Z</time>
      </trkpt>
      <trkpt lat="46.92708" lon="8.57858">
        <ele>602</ele>
        <time>2021-08-10T11:12:21.832Z</time>
      </trkpt>
      <trkpt lat="46.92708" lon="8.57857">
        <ele>602</ele>
        <time>2021-08-10T11:12:22.832Z</time>
      </trkpt>
      <trkpt lat="46.92708" lon="8.57857">
        <ele>602</ele>
        <time>2021-08-10T11:12:23.831Z</time>
      </trkpt>
      <trkpt lat="46.92707" lon="8.57857">
        <ele>603</ele>
        <time>2021-08-10T11:12:24.832Z</time>
      </trkpt>
      <trkpt lat="46.92706" lon="8.57857">
        <ele>603</ele>
        <time>2021-08-10T11:12:25.832Z</time>
      </trkpt>
      <trkpt lat="46.92706" lon="8.57857">
        <ele>604</ele>
        <time>2021-08-10T11:12:26.832Z</time>
      </trkpt>
      <trkpt lat="46.92705" lon="8.57858">
        <ele>604</ele>
        <time>2021-08-10T11:12:27.832Z</time>
      </trkpt>
      <trkpt lat="46.92706" lon="8.57859">
        <ele>606</ele>
        <time>2021-08-10T11:12:28.833Z</time>
      </trkpt>
      <trkpt lat="46.92706" lon="8.5786">
        <ele>606</ele>
        <time>2021-08-10T11:12:29.832Z</time>
      </trkpt>
      <trkpt lat="46.92707" lon="8.57861">
        <ele>606</ele>
        <time>2021-08-10T11:12:30.832Z</time>
      </trkpt>
      <trkpt lat="46.92707" lon="8.57863">
        <ele>607</ele>
        <time>2021-08-10T11:12:31.832Z</time>
      </trkpt>
      <trkpt lat="46.92706" lon="8.57864">
        <ele>607</ele>
        <time>2021-08-10T11:12:32.833Z</time>
      </trkpt>
      <trkpt lat="46.92704" lon="8.57866">
        <ele>607</ele>
        <time>2021-08-10T11:12:33.833Z</time>
      </trkpt>
      <trkpt lat="46.92702" lon="8.57867">
        <ele>607</ele>
        <time>2021-08-10T11:12:34.833Z</time>
      </trkpt>
      <trkpt lat="46.92702" lon="8.57867">
        <ele>607</ele>
        <time>2021-08-10T11:12:35.832Z</time>
      </trkpt>
      <trkpt lat="46.92703" lon="8.57867">
        <ele>607</ele>
        <time>2021-08-10T11:12:36.833Z</time>
      </trkpt>
      <trkpt lat="46.92703" lon="8.57867">
        <ele>607</ele>
        <time>2021-08-10T11:12:37.833Z</time>
      </trkpt>
      <trkpt lat="46.92702" lon="8.57867">
        <ele>607</ele>
        <time>2021-08-10T11:12:38.832Z</time>
      </trkpt>
      <trkpt lat="46.92701" lon="8.57866">
        <ele>607</ele>
        <time>2021-08-10T11:12:39.833Z</time>
      </trkpt>
      <trkpt lat="46.92701" lon="8.57866">
        <ele>607</ele>
        <time>2021-08-10T11:12:40.833Z</time>
      </trkpt>
      <trkpt lat="46.927" lon="8.57866">
        <ele>607</ele>
        <time>2021-08-10T11:12:41.833Z</time>
      </trkpt>
      <trkpt lat="46.92701" lon="8.57866">
        <ele>607</ele>
        <time>2021-08-10T11:12:42.832Z</time>
      </trkpt>
      <trkpt lat="46.927" lon="8.57866">
        <ele>607</ele>
        <time>2021-08-10T11:12:43.833Z</time>
      </trkpt>
      <trkpt lat="46.92701" lon="8.57867">
        <ele>607</ele>
        <time>2021-08-10T11:12:44.833Z</time>
      </trkpt>
      <trkpt lat="46.92703" lon="8.57867">
        <ele>607</ele>
        <time>2021-08-10T11:12:45.833Z</time>
      </trkpt>
      <trkpt lat="46.92703" lon="8.57867">
        <ele>607</ele>
        <time>2021-08-10T11:12:46.832Z</time>
      </trkpt>
      <trkpt lat="46.92702" lon="8.57868">
        <ele>607</ele>
        <time>2021-08-10T11:12:47.833Z</time>
      </trkpt>
      <trkpt lat="46.92701" lon="8.57869">
        <ele>606</ele>
        <time>2021-08-10T11:12:48.832Z</time>
      </trkpt>
      <trkpt lat="46.927" lon="8.57871">
        <ele>606</ele>
        <time>2021-08-10T11:12:49.833Z</time>
      </trkpt>
      <trkpt lat="46.927" lon="8.57871">
        <ele>606</ele>
        <time>2021-08-10T11:12:50.833Z</time>
      </trkpt>
      <trkpt lat="46.927" lon="8.57871">
        <ele>605</ele>
        <time>2021-08-10T11:12:51.833Z</time>
      </trkpt>
      <trkpt lat="46.92699" lon="8.57871">
        <ele>605</ele>
        <time>2021-08-10T11:12:52.832Z</time>
      </trkpt>
      <trkpt lat="46.92697" lon="8.5787">
        <ele>604</ele>
        <time>2021-08-10T11:12:53.833Z</time>
      </trkpt>
      <trkpt lat="46.92696" lon="8.57869">
        <ele>604</ele>
        <time>2021-08-10T11:12:54.832Z</time>
      </trkpt>
      <trkpt lat="46.92695" lon="8.5787">
        <ele>603</ele>
        <time>2021-08-10T11:12:55.832Z</time>
      </trkpt>
      <trkpt lat="46.92693" lon="8.5787">
        <ele>603</ele>
        <time>2021-08-10T11:12:56.833Z</time>
      </trkpt>
      <trkpt lat="46.92692" lon="8.57869">
        <ele>603</ele>
        <time>2021-08-10T11:12:57.833Z</time>
      </trkpt>
      <trkpt lat="46.92692" lon="8.5787">
        <ele>602</ele>
        <time>2021-08-10T11:12:58.833Z</time>
      </trkpt>
      <trkpt lat="46.92692" lon="8.57871">
        <ele>602</ele>
        <time>2021-08-10T11:12:59.832Z</time>
      </trkpt>
      <trkpt lat="46.92693" lon="8.57872">
        <ele>602</ele>
        <time>2021-08-10T11:13:00.832Z</time>
      </trkpt>
      <trkpt lat="46.92693" lon="8.57874">
        <ele>603</ele>
        <time>2021-08-10T11:13:01.833Z</time>
      </trkpt>
      <trkpt lat="46.92694" lon="8.57876">
        <ele>603</ele>
        <time>2021-08-10T11:13:02.833Z</time>
      </trkpt>
      <trkpt lat="46.92694" lon="8.57879">
        <ele>603</ele>
        <time>2021-08-10T11:13:03.833Z</time>
      </trkpt>
      <trkpt lat="46.92694" lon="8.5788">
        <ele>603</ele>
        <time>2021-08-10T11:13:04.833Z</time>
      </trkpt>
      <trkpt lat="46.92694" lon="8.57881">
        <ele>604</ele>
        <time>2021-08-10T11:13:05.833Z</time>
      </trkpt>
      <trkpt lat="46.92694" lon="8.57882">
        <ele>604</ele>
        <time>2021-08-10T11:13:06.833Z</time>
      </trkpt>
      <trkpt lat="46.92693" lon="8.57883">
        <ele>604</ele>
        <time>2021-08-10T11:13:07.832Z</time>
      </trkpt>
      <trkpt lat="46.92694" lon="8.57884">
        <ele>605</ele>
        <time>2021-08-10T11:13:08.832Z</time>
      </trkpt>
      <trkpt lat="46.92694" lon="8.57886">
        <ele>605</ele>
        <time>2021-08-10T11:13:09.833Z</time>
      </trkpt>
      <trkpt lat="46.92693" lon="8.57886">
        <ele>606</ele>
        <time>2021-08-10T11:13:10.832Z</time>
      </trkpt>
      <trkpt lat="46.92693" lon="8.57885">
        <ele>606</ele>
        <time>2021-08-10T11:13:11.833Z</time>
      </trkpt>
      <trkpt lat="46.92692" lon="8.57886">
        <ele>607</ele>
        <time>2021-08-10T11:13:12.833Z</time>
      </trkpt>
      <trkpt lat="46.92692" lon="8.57886">
        <ele>607</ele>
        <time>2021-08-10T11:13:13.833Z</time>
      </trkpt>
      <trkpt lat="46.92692" lon="8.57885">
        <ele>608</ele>
        <time>2021-08-10T11:13:14.833Z</time>
      </trkpt>
      <trkpt lat="46.92692" lon="8.57886">
        <ele>608</ele>
        <time>2021-08-10T11:13:15.832Z</time>
      </trkpt>
      <trkpt lat="46.92691" lon="8.57886">
        <ele>609</ele>
        <time>2021-08-10T11:13:16.832Z</time>
      </trkpt>
      <trkpt lat="46.92692" lon="8.57888">
        <ele>610</ele>
        <time>2021-08-10T11:13:17.833Z</time>
      </trkpt>
      <trkpt lat="46.92692" lon="8.57889">
        <ele>611</ele>
        <time>2021-08-10T11:13:18.832Z</time>
      </trkpt>
      <trkpt lat="46.92692" lon="8.57891">
        <ele>612</ele>
        <time>2021-08-10T11:13:19.833Z</time>
      </trkpt>
      <trkpt lat="46.92691" lon="8.57893">
        <ele>613</ele>
        <time>2021-08-10T11:13:20.833Z</time>
      </trkpt>
      <trkpt lat="46.9269" lon="8.57894">
        <ele>614</ele>
        <time>2021-08-10T11:13:21.833Z</time>
      </trkpt>
      <trkpt lat="46.92689" lon="8.57895">
        <ele>615</ele>
        <time>2021-08-10T11:13:22.833Z</time>
      </trkpt>
      <trkpt lat="46.92688" lon="8.57896">
        <ele>616</ele>
        <time>2021-08-10T11:13:23.833Z</time>
      </trkpt>
      <trkpt lat="46.92687" lon="8.57897">
        <ele>617</ele>
        <time>2021-08-10T11:13:24.832Z</time>
      </trkpt>
      <trkpt lat="46.92687" lon="8.57897">
        <ele>617</ele>
        <time>2021-08-10T11:13:25.833Z</time>
      </trkpt>
      <trkpt lat="46.92686" lon="8.57898">
        <ele>618</ele>
        <time>2021-08-10T11:13:26.832Z</time>
      </trkpt>
      <trkpt lat="46.92686" lon="8.57898">
        <ele>619</ele>
        <time>2021-08-10T11:13:27.832Z</time>
      </trkpt>
      <trkpt lat="46.92685" lon="8.57897">
        <ele>619</ele>
        <time>2021-08-10T11:13:28.833Z</time>
      </trkpt>
      <trkpt lat="46.92684" lon="8.57896">
        <ele>619</ele>
        <time>2021-08-10T11:13:29.833Z</time>
      </trkpt>
      <trkpt lat="46.92683" lon="8.57896">
        <ele>620</ele>
        <time>2021-08-10T11:13:30.833Z</time>
      </trkpt>
      <trkpt lat="46.92683" lon="8.57895">
        <ele>620</ele>
        <time>2021-08-10T11:13:31.833Z</time>
      </trkpt>
      <trkpt lat="46.92683" lon="8.57895">
        <ele>620</ele>
        <time>2021-08-10T11:13:32.832Z</time>
      </trkpt>
      <trkpt lat="46.92683" lon="8.57895">
        <ele>621</ele>
        <time>2021-08-10T11:13:33.833Z</time>
      </trkpt>
      <trkpt lat="46.92682" lon="8.57896">
        <ele>621</ele>
        <time>2021-08-10T11:13:34.832Z</time>
      </trkpt>
      <trkpt lat="46.92681" lon="8.57896">
        <ele>621</ele>
        <time>2021-08-10T11:13:35.833Z</time>
      </trkpt>
      <trkpt lat="46.9268" lon="8.57897">
        <ele>622</ele>
        <time>2021-08-10T11:13:36.833Z</time>
      </trkpt>
      <trkpt lat="46.92679" lon="8.57897">
        <ele>622</ele>
        <time>2021-08-10T11:13:37.833Z</time>
      </trkpt>
      <trkpt lat="46.92679" lon="8.57897">
        <ele>622</ele>
        <time>2021-08-10T11:13:38.833Z</time>
      </trkpt>
      <trkpt lat="46.92679" lon="8.57898">
        <ele>622</ele>
        <time>2021-08-10T11:13:39.833Z</time>
      </trkpt>
      <trkpt lat="46.92679" lon="8.57898">
        <ele>622</ele>
        <time>2021-08-10T11:13:40.833Z</time>
      </trkpt>
      <trkpt lat="46.9268" lon="8.57898">
        <ele>623</ele>
        <time>2021-08-10T11:13:41.832Z</time>
      </trkpt>
      <trkpt lat="46.92682" lon="8.579">
        <ele>623</ele>
        <time>2021-08-10T11:13:42.832Z</time>
      </trkpt>
      <trkpt lat="46.92683" lon="8.57902">
        <ele>623</ele>
        <time>2021-08-10T11:13:43.833Z</time>
      </trkpt>
      <trkpt lat="46.92684" lon="8.57904">
        <ele>623</ele>
        <time>2021-08-10T11:13:44.833Z</time>
      </trkpt>
      <trkpt lat="46.92684" lon="8.57905">
        <ele>623</ele>
        <time>2021-08-10T11:13:45.832Z</time>
      </trkpt>
      <trkpt lat="46.92685" lon="8.57907">
        <ele>623</ele>
        <time>2021-08-10T11:13:46.833Z</time>
      </trkpt>
      <trkpt lat="46.92685" lon="8.57909">
        <ele>623</ele>
        <time>2021-08-10T11:13:47.833Z</time>
      </trkpt>
      <trkpt lat="46.92684" lon="8.57912">
        <ele>623</ele>
        <time>2021-08-10T11:13:48.833Z</time>
      </trkpt>
      <trkpt lat="46.92684" lon="8.57914">
        <ele>623</ele>
        <time>2021-08-10T11:13:49.833Z</time>
      </trkpt>
      <trkpt lat="46.92682" lon="8.57913">
        <ele>622</ele>
        <time>2021-08-10T11:13:50.833Z</time>
      </trkpt>
      <trkpt lat="46.92681" lon="8.57912">
        <ele>622</ele>
        <time>2021-08-10T11:13:51.833Z</time>
      </trkpt>
      <trkpt lat="46.9268" lon="8.57917">
        <ele>622</ele>
        <time>2021-08-10T11:13:52.833Z</time>
      </trkpt>
      <trkpt lat="46.92679" lon="8.57921">
        <ele>622</ele>
        <time>2021-08-10T11:13:53.833Z</time>
      </trkpt>
      <trkpt lat="46.92679" lon="8.57925">
        <ele>622</ele>
        <time>2021-08-10T11:13:54.833Z</time>
      </trkpt>
      <trkpt lat="46.92681" lon="8.57928">
        <ele>622</ele>
        <time>2021-08-10T11:13:55.833Z</time>
      </trkpt>
      <trkpt lat="46.92682" lon="8.5793">
        <ele>623</ele>
        <time>2021-08-10T11:13:56.833Z</time>
      </trkpt>
      <trkpt lat="46.92684" lon="8.57932">
        <ele>623</ele>
        <time>2021-08-10T11:13:57.833Z</time>
      </trkpt>
      <trkpt lat="46.92684" lon="8.57932">
        <ele>624</ele>
        <time>2021-08-10T11:13:58.833Z</time>
      </trkpt>
      <trkpt lat="46.92684" lon="8.57933">
        <ele>624</ele>
        <time>2021-08-10T11:13:59.833Z</time>
      </trkpt>
      <trkpt lat="46.92684" lon="8.57933">
        <ele>624</ele>
        <time>2021-08-10T11:14:00.833Z</time>
      </trkpt>
      <trkpt lat="46.92685" lon="8.57933">
        <ele>625</ele>
        <time>2021-08-10T11:14:01.832Z</time>
      </trkpt>
      <trkpt lat="46.92686" lon="8.57934">
        <ele>625</ele>
        <time>2021-08-10T11:14:02.833Z</time>
      </trkpt>
      <trkpt lat="46.92685" lon="8.57935">
        <ele>625</ele>
        <time>2021-08-10T11:14:03.833Z</time>
      </trkpt>
      <trkpt lat="46.92684" lon="8.57936">
        <ele>625</ele>
        <time>2021-08-10T11:14:04.833Z</time>
      </trkpt>
      <trkpt lat="46.92683" lon="8.57936">
        <ele>625</ele>
        <time>2021-08-10T11:14:05.832Z</time>
      </trkpt>
      <trkpt lat="46.92682" lon="8.57935">
        <ele>625</ele>
        <time>2021-08-10T11:14:06.832Z</time>
      </trkpt>
      <trkpt lat="46.92682" lon="8.57935">
        <ele>625</ele>
        <time>2021-08-10T11:14:07.833Z</time>
      </trkpt>
      <trkpt lat="46.9268" lon="8.57935">
        <ele>625</ele>
        <time>2021-08-10T11:14:08.832Z</time>
      </trkpt>
      <trkpt lat="46.92679" lon="8.57935">
        <ele>625</ele>
        <time>2021-08-10T11:14:09.832Z</time>
      </trkpt>
      <trkpt lat="46.92679" lon="8.57935">
        <ele>625</ele>
        <time>2021-08-10T11:14:10.833Z</time>
      </trkpt>
      <trkpt lat="46.92678" lon="8.57935">
        <ele>625</ele>
        <time>2021-08-10T11:14:11.832Z</time>
      </trkpt>
      <trkpt lat="46.92676" lon="8.57936">
        <ele>625</ele>
        <time>2021-08-10T11:14:12.832Z</time>
      </trkpt>
      <trkpt lat="46.92675" lon="8.57937">
        <ele>625</ele>
        <time>2021-08-10T11:14:13.832Z</time>
      </trkpt>
      <trkpt lat="46.92676" lon="8.57938">
        <ele>624</ele>
        <time>2021-08-10T11:14:14.832Z</time>
      </trkpt>
      <trkpt lat="46.92676" lon="8.57939">
        <ele>624</ele>
        <time>2021-08-10T11:14:15.833Z</time>
      </trkpt>
      <trkpt lat="46.92677" lon="8.57938">
        <ele>624</ele>
        <time>2021-08-10T11:14:16.833Z</time>
      </trkpt>
      <trkpt lat="46.92678" lon="8.57938">
        <ele>624</ele>
        <time>2021-08-10T11:14:17.833Z</time>
      </trkpt>
      <trkpt lat="46.92678" lon="8.57938">
        <ele>624</ele>
        <time>2021-08-10T11:14:18.832Z</time>
      </trkpt>
      <trkpt lat="46.92676" lon="8.57938">
        <ele>624</ele>
        <time>2021-08-10T11:14:19.833Z</time>
      </trkpt>
      <trkpt lat="46.92675" lon="8.57938">
        <ele>624</ele>
        <time>2021-08-10T11:14:20.833Z</time>
      </trkpt>
      <trkpt lat="46.92675" lon="8.57939">
        <ele>624</ele>
        <time>2021-08-10T11:14:21.833Z</time>
      </trkpt>
      <trkpt lat="46.92675" lon="8.57939">
        <ele>624</ele>
        <time>2021-08-10T11:14:22.832Z</time>
      </trkpt>
      <trkpt lat="46.92674" lon="8.57939">
        <ele>624</ele>
        <time>2021-08-10T11:14:23.832Z</time>
      </trkpt>
      <trkpt lat="46.92673" lon="8.57938">
        <ele>625</ele>
        <time>2021-08-10T11:14:24.832Z</time>
      </trkpt>
      <trkpt lat="46.92672" lon="8.57937">
        <ele>625</ele>
        <time>2021-08-10T11:14:25.833Z</time>
      </trkpt>
      <trkpt lat="46.92673" lon="8.57936">
        <ele>625</ele>
        <time>2021-08-10T11:14:26.833Z</time>
      </trkpt>
      <trkpt lat="46.92673" lon="8.57935">
        <ele>625</ele>
        <time>2021-08-10T11:14:27.832Z</time>
      </trkpt>
      <trkpt lat="46.92674" lon="8.57935">
        <ele>625</ele>
        <time>2021-08-10T11:14:28.832Z</time>
      </trkpt>
      <trkpt lat="46.92676" lon="8.57936">
        <ele>625</ele>
        <time>2021-08-10T11:14:29.833Z</time>
      </trkpt>
      <trkpt lat="46.92677" lon="8.57936">
        <ele>625</ele>
        <time>2021-08-10T11:14:30.832Z</time>
      </trkpt>
      <trkpt lat="46.92678" lon="8.57935">
        <ele>625</ele>
        <time>2021-08-10T11:14:31.833Z</time>
      </trkpt>
      <trkpt lat="46.92679" lon="8.57935">
        <ele>625</ele>
        <time>2021-08-10T11:14:32.833Z</time>
      </trkpt>
      <trkpt lat="46.9268" lon="8.57934">
        <ele>624</ele>
        <time>2021-08-10T11:14:33.832Z</time>
      </trkpt>
      <trkpt lat="46.9268" lon="8.57933">
        <ele>624</ele>
        <time>2021-08-10T11:14:34.832Z</time>
      </trkpt>
      <trkpt lat="46.92681" lon="8.57932">
        <ele>624</ele>
        <time>2021-08-10T11:14:35.832Z</time>
      </trkpt>
      <trkpt lat="46.92681" lon="8.57931">
        <ele>624</ele>
        <time>2021-08-10T11:14:36.833Z</time>
      </trkpt>
      <trkpt lat="46.92681" lon="8.57931">
        <ele>624</ele>
        <time>2021-08-10T11:14:37.833Z</time>
      </trkpt>
      <trkpt lat="46.92681" lon="8.5793">
        <ele>623</ele>
        <time>2021-08-10T11:14:38.832Z</time>
      </trkpt>
      <trkpt lat="46.92681" lon="8.57929">
        <ele>623</ele>
        <time>2021-08-10T11:14:39.833Z</time>
      </trkpt>
      <trkpt lat="46.92681" lon="8.57928">
        <ele>623</ele>
        <time>2021-08-10T11:14:40.832Z</time>
      </trkpt>
      <trkpt lat="46.92681" lon="8.57927">
        <ele>622</ele>
        <time>2021-08-10T11:14:41.833Z</time>
      </trkpt>
      <trkpt lat="46.9268" lon="8.57924">
        <ele>622</ele>
        <time>2021-08-10T11:14:42.832Z</time>
      </trkpt>
      <trkpt lat="46.9268" lon="8.57923">
        <ele>622</ele>
        <time>2021-08-10T11:14:43.833Z</time>
      </trkpt>
      <trkpt lat="46.9268" lon="8.57924">
        <ele>622</ele>
        <time>2021-08-10T11:14:44.832Z</time>
      </trkpt>
      <trkpt lat="46.92679" lon="8.57924">
        <ele>622</ele>
        <time>2021-08-10T11:14:45.832Z</time>
      </trkpt>
      <trkpt lat="46.92679" lon="8.57923">
        <ele>621</ele>
        <time>2021-08-10T11:14:46.833Z</time>
      </trkpt>
      <trkpt lat="46.92678" lon="8.57923">
        <ele>621</ele>
        <time>2021-08-10T11:14:47.833Z</time>
      </trkpt>
      <trkpt lat="46.92677" lon="8.57924">
        <ele>621</ele>
        <time>2021-08-10T11:14:48.833Z</time>
      </trkpt>
      <trkpt lat="46.92677" lon="8.57925">
        <ele>621</ele>
        <time>2021-08-10T11:14:49.833Z</time>
      </trkpt>
      <trkpt lat="46.92676" lon="8.57926">
        <ele>621</ele>
        <time>2021-08-10T11:14:50.832Z</time>
      </trkpt>
      <trkpt lat="46.92674" lon="8.57927">
        <ele>621</ele>
        <time>2021-08-10T11:14:51.833Z</time>
      </trkpt>
      <trkpt lat="46.92672" lon="8.57927">
        <ele>621</ele>
        <time>2021-08-10T11:14:52.832Z</time>
      </trkpt>
      <trkpt lat="46.92669" lon="8.57928">
        <ele>621</ele>
        <time>2021-08-10T11:14:53.833Z</time>
      </trkpt>
      <trkpt lat="46.92667" lon="8.57931">
        <ele>621</ele>
        <time>2021-08-10T11:14:54.833Z</time>
      </trkpt>
      <trkpt lat="46.92667" lon="8.57933">
        <ele>621</ele>
        <time>2021-08-10T11:14:55.833Z</time>
      </trkpt>
      <trkpt lat="46.92668" lon="8.57934">
        <ele>621</ele>
        <time>2021-08-10T11:14:56.832Z</time>
      </trkpt>
      <trkpt lat="46.92667" lon="8.57934">
        <ele>621</ele>
        <time>2021-08-10T11:14:57.833Z</time>
      </trkpt>
      <trkpt lat="46.92668" lon="8.57934">
        <ele>621</ele>
        <time>2021-08-10T11:14:58.832Z</time>
      </trkpt>
      <trkpt lat="46.92668" lon="8.57933">
        <ele>621</ele>
        <time>2021-08-10T11:14:59.833Z</time>
      </trkpt>
      <trkpt lat="46.92668" lon="8.57933">
        <ele>621</ele>
        <time>2021-08-10T11:15:00.833Z</time>
      </trkpt>
      <trkpt lat="46.92667" lon="8.57933">
        <ele>621</ele>
        <time>2021-08-10T11:15:01.832Z</time>
      </trkpt>
      <trkpt lat="46.92667" lon="8.57934">
        <ele>621</ele>
        <time>2021-08-10T11:15:02.832Z</time>
      </trkpt>
      <trkpt lat="46.92666" lon="8.57934">
        <ele>621</ele>
        <time>2021-08-10T11:15:03.833Z</time>
      </trkpt>
      <trkpt lat="46.92666" lon="8.57934">
        <ele>621</ele>
        <time>2021-08-10T11:15:04.832Z</time>
      </trkpt>
      <trkpt lat="46.92665" lon="8.57934">
        <ele>621</ele>
        <time>2021-08-10T11:15:05.833Z</time>
      </trkpt>
      <trkpt lat="46.92665" lon="8.57934">
        <ele>621</ele>
        <time>2021-08-10T11:15:06.833Z</time>
      </trkpt>
      <trkpt lat="46.92666" lon="8.57934">
        <ele>621</ele>
        <time>2021-08-10T11:15:07.833Z</time>
      </trkpt>
      <trkpt lat="46.92665" lon="8.57934">
        <ele>621</ele>
        <time>2021-08-10T11:15:08.832Z</time>
      </trkpt>
      <trkpt lat="46.92665" lon="8.57935">
        <ele>620</ele>
        <time>2021-08-10T11:15:09.832Z</time>
      </trkpt>
      <trkpt lat="46.92665" lon="8.57935">
        <ele>620</ele>
        <time>2021-08-10T11:15:10.833Z</time>
      </trkpt>
      <trkpt lat="46.92665" lon="8.57936">
        <ele>620</ele>
        <time>2021-08-10T11:15:11.833Z</time>
      </trkpt>
      <trkpt lat="46.92665" lon="8.57936">
        <ele>620</ele>
        <time>2021-08-10T11:15:12.832Z</time>
      </trkpt>
      <trkpt lat="46.92665" lon="8.57937">
        <ele>620</ele>
        <time>2021-08-10T11:15:13.833Z</time>
      </trkpt>
      <trkpt lat="46.92664" lon="8.57938">
        <ele>620</ele>
        <time>2021-08-10T11:15:14.833Z</time>
      </trkpt>
      <trkpt lat="46.92664" lon="8.57939">
        <ele>620</ele>
        <time>2021-08-10T11:15:15.833Z</time>
      </trkpt>
      <trkpt lat="46.92665" lon="8.57939">
        <ele>619</ele>
        <time>2021-08-10T11:15:16.832Z</time>
      </trkpt>
      <trkpt lat="46.92666" lon="8.57939">
        <ele>620</ele>
        <time>2021-08-10T11:15:17.833Z</time>
      </trkpt>
      <trkpt lat="46.92667" lon="8.57939">
        <ele>620</ele>
        <time>2021-08-10T11:15:18.833Z</time>
      </trkpt>
      <trkpt lat="46.92667" lon="8.57939">
        <ele>620</ele>
        <time>2021-08-10T11:15:19.833Z</time>
      </trkpt>
      <trkpt lat="46.92667" lon="8.57937">
        <ele>620</ele>
        <time>2021-08-10T11:15:20.832Z</time>
      </trkpt>
      <trkpt lat="46.92667" lon="8.57937">
        <ele>620</ele>
        <time>2021-08-10T11:15:21.833Z</time>
      </trkpt>
      <trkpt lat="46.92666" lon="8.57937">
        <ele>620</ele>
        <time>2021-08-10T11:15:22.833Z</time>
      </trkpt>
      <trkpt lat="46.92666" lon="8.57938">
        <ele>619</ele>
        <time>2021-08-10T11:15:23.833Z</time>
      </trkpt>
      <trkpt lat="46.92666" lon="8.5794">
        <ele>619</ele>
        <time>2021-08-10T11:15:24.833Z</time>
      </trkpt>
      <trkpt lat="46.92666" lon="8.57941">
        <ele>619</ele>
        <time>2021-08-10T11:15:25.832Z</time>
      </trkpt>
      <trkpt lat="46.92667" lon="8.5794">
        <ele>619</ele>
        <time>2021-08-10T11:15:26.833Z</time>
      </trkpt>
      <trkpt lat="46.92669" lon="8.57941">
        <ele>619</ele>
        <time>2021-08-10T11:15:27.832Z</time>
      </trkpt>
      <trkpt lat="46.92671" lon="8.57941">
        <ele>618</ele>
        <time>2021-08-10T11:15:28.832Z</time>
      </trkpt>
      <trkpt lat="46.92672" lon="8.57941">
        <ele>618</ele>
        <time>2021-08-10T11:15:29.833Z</time>
      </trkpt>
      <trkpt lat="46.92673" lon="8.5794">
        <ele>618</ele>
        <time>2021-08-10T11:15:30.832Z</time>
      </trkpt>
      <trkpt lat="46.92673" lon="8.5794">
        <ele>618</ele>
        <time>2021-08-10T11:15:31.832Z</time>
      </trkpt>
      <trkpt lat="46.9267" lon="8.57941">
        <ele>618</ele>
        <time>2021-08-10T11:15:32.832Z</time>
      </trkpt>
      <trkpt lat="46.92667" lon="8.5794">
        <ele>618</ele>
        <time>2021-08-10T11:15:33.833Z</time>
      </trkpt>
      <trkpt lat="46.92664" lon="8.57941">
        <ele>618</ele>
        <time>2021-08-10T11:15:34.833Z</time>
      </trkpt>
      <trkpt lat="46.9266" lon="8.57942">
        <ele>618</ele>
        <time>2021-08-10T11:15:35.832Z</time>
      </trkpt>
      <trkpt lat="46.92659" lon="8.57942">
        <ele>618</ele>
        <time>2021-08-10T11:15:36.833Z</time>
      </trkpt>
      <trkpt lat="46.92657" lon="8.57943">
        <ele>618</ele>
        <time>2021-08-10T11:15:37.833Z</time>
      </trkpt>
      <trkpt lat="46.92658" lon="8.57943">
        <ele>618</ele>
        <time>2021-08-10T11:15:38.832Z</time>
      </trkpt>
      <trkpt lat="46.92657" lon="8.57943">
        <ele>618</ele>
        <time>2021-08-10T11:15:39.832Z</time>
      </trkpt>
      <trkpt lat="46.92658" lon="8.57942">
        <ele>618</ele>
        <time>2021-08-10T11:15:40.832Z</time>
      </trkpt>
      <trkpt lat="46.92659" lon="8.57941">
        <ele>618</ele>
        <time>2021-08-10T11:15:41.832Z</time>
      </trkpt>
      <trkpt lat="46.9266" lon="8.57941">
        <ele>618</ele>
        <time>2021-08-10T11:15:42.833Z</time>
      </trkpt>
      <trkpt lat="46.9266" lon="8.57943">
        <ele>618</ele>
        <time>2021-08-10T11:15:43.832Z</time>
      </trkpt>
      <trkpt lat="46.92659" lon="8.57943">
        <ele>619</ele>
        <time>2021-08-10T11:15:44.833Z</time>
      </trkpt>
      <trkpt lat="46.92659" lon="8.57944">
        <ele>619</ele>
        <time>2021-08-10T11:15:45.833Z</time>
      </trkpt>
      <trkpt lat="46.92658" lon="8.57945">
        <ele>619</ele>
        <time>2021-08-10T11:15:46.832Z</time>
      </trkpt>
      <trkpt lat="46.92657" lon="8.57945">
        <ele>620</ele>
        <time>2021-08-10T11:15:47.833Z</time>
      </trkpt>
      <trkpt lat="46.92657" lon="8.57945">
        <ele>620</ele>
        <time>2021-08-10T11:15:48.833Z</time>
      </trkpt>
      <trkpt lat="46.92656" lon="8.57945">
        <ele>620</ele>
        <time>2021-08-10T11:15:49.833Z</time>
      </trkpt>
      <trkpt lat="46.92658" lon="8.57943">
        <ele>620</ele>
        <time>2021-08-10T11:15:50.832Z</time>
      </trkpt>
      <trkpt lat="46.92658" lon="8.57942">
        <ele>620</ele>
        <time>2021-08-10T11:15:51.833Z</time>
      </trkpt>
      <trkpt lat="46.92658" lon="8.57942">
        <ele>620</ele>
        <time>2021-08-10T11:15:52.833Z</time>
      </trkpt>
      <trkpt lat="46.92658" lon="8.57942">
        <ele>621</ele>
        <time>2021-08-10T11:15:53.833Z</time>
      </trkpt>
      <trkpt lat="46.9266" lon="8.57941">
        <ele>621</ele>
        <time>2021-08-10T11:15:54.833Z</time>
      </trkpt>
      <trkpt lat="46.92661" lon="8.57941">
        <ele>621</ele>
        <time>2021-08-10T11:15:55.833Z</time>
      </trkpt>
      <trkpt lat="46.92663" lon="8.5794">
        <ele>621</ele>
        <time>2021-08-10T11:15:56.832Z</time>
      </trkpt>
      <trkpt lat="46.92664" lon="8.57939">
        <ele>621</ele>
        <time>2021-08-10T11:15:57.833Z</time>
      </trkpt>
      <trkpt lat="46.92663" lon="8.5794">
        <ele>621</ele>
        <time>2021-08-10T11:15:58.833Z</time>
      </trkpt>
      <trkpt lat="46.92663" lon="8.5794">
        <ele>621</ele>
        <time>2021-08-10T11:15:59.833Z</time>
      </trkpt>
      <trkpt lat="46.92662" lon="8.5794">
        <ele>622</ele>
        <time>2021-08-10T11:16:00.833Z</time>
      </trkpt>
      <trkpt lat="46.92661" lon="8.5794">
        <ele>622</ele>
        <time>2021-08-10T11:16:01.832Z</time>
      </trkpt>
      <trkpt lat="46.92659" lon="8.57939">
        <ele>622</ele>
        <time>2021-08-10T11:16:02.832Z</time>
      </trkpt>
      <trkpt lat="46.92659" lon="8.57942">
        <ele>622</ele>
        <time>2021-08-10T11:16:03.832Z</time>
      </trkpt>
      <trkpt lat="46.92658" lon="8.57945">
        <ele>622</ele>
        <time>2021-08-10T11:16:04.832Z</time>
      </trkpt>
      <trkpt lat="46.92657" lon="8.57948">
        <ele>622</ele>
        <time>2021-08-10T11:16:05.833Z</time>
      </trkpt>
      <trkpt lat="46.92657" lon="8.5795">
        <ele>623</ele>
        <time>2021-08-10T11:16:06.832Z</time>
      </trkpt>
      <trkpt lat="46.92656" lon="8.57951">
        <ele>623</ele>
        <time>2021-08-10T11:16:07.832Z</time>
      </trkpt>
      <trkpt lat="46.92655" lon="8.57953">
        <ele>624</ele>
        <time>2021-08-10T11:16:08.832Z</time>
      </trkpt>
      <trkpt lat="46.92655" lon="8.57954">
        <ele>625</ele>
        <time>2021-08-10T11:16:09.832Z</time>
      </trkpt>
      <trkpt lat="46.92654" lon="8.57956">
        <ele>626</ele>
        <time>2021-08-10T11:16:10.832Z</time>
      </trkpt>
      <trkpt lat="46.92654" lon="8.57958">
        <ele>627</ele>
        <time>2021-08-10T11:16:11.833Z</time>
      </trkpt>
      <trkpt lat="46.92653" lon="8.5796">
        <ele>627</ele>
        <time>2021-08-10T11:16:12.832Z</time>
      </trkpt>
      <trkpt lat="46.92653" lon="8.57961">
        <ele>628</ele>
        <time>2021-08-10T11:16:13.833Z</time>
      </trkpt>
      <trkpt lat="46.92652" lon="8.57961">
        <ele>628</ele>
        <time>2021-08-10T11:16:14.833Z</time>
      </trkpt>
      <trkpt lat="46.92651" lon="8.57961">
        <ele>629</ele>
        <time>2021-08-10T11:16:15.833Z</time>
      </trkpt>
      <trkpt lat="46.9265" lon="8.57961">
        <ele>630</ele>
        <time>2021-08-10T11:16:16.833Z</time>
      </trkpt>
      <trkpt lat="46.92648" lon="8.57961">
        <ele>630</ele>
        <time>2021-08-10T11:16:17.832Z</time>
      </trkpt>
      <trkpt lat="46.92647" lon="8.57962">
        <ele>631</ele>
        <time>2021-08-10T11:16:18.832Z</time>
      </trkpt>
      <trkpt lat="46.92646" lon="8.57963">
        <ele>632</ele>
        <time>2021-08-10T11:16:19.833Z</time>
      </trkpt>
      <trkpt lat="46.92647" lon="8.57962">
        <ele>634</ele>
        <time>2021-08-10T11:16:20.832Z</time>
      </trkpt>
      <trkpt lat="46.92647" lon="8.57962">
        <ele>635</ele>
        <time>2021-08-10T11:16:21.833Z</time>
      </trkpt>
      <trkpt lat="46.92647" lon="8.57962">
        <ele>636</ele>
        <time>2021-08-10T11:16:22.833Z</time>
      </trkpt>
      <trkpt lat="46.92647" lon="8.57962">
        <ele>637</ele>
        <time>2021-08-10T11:16:23.832Z</time>
      </trkpt>
      <trkpt lat="46.92642" lon="8.57955">
        <ele>638</ele>
        <time>2021-08-10T11:16:27.833Z</time>
      </trkpt>
      <trkpt lat="46.92641" lon="8.57956">
        <ele>638</ele>
        <time>2021-08-10T11:16:28.833Z</time>
      </trkpt>
      <trkpt lat="46.92641" lon="8.57955">
        <ele>639</ele>
        <time>2021-08-10T11:16:29.832Z</time>
      </trkpt>
      <trkpt lat="46.92641" lon="8.57955">
        <ele>640</ele>
        <time>2021-08-10T11:16:30.832Z</time>
      </trkpt>
      <trkpt lat="46.92641" lon="8.57954">
        <ele>641</ele>
        <time>2021-08-10T11:16:31.833Z</time>
      </trkpt>
      <trkpt lat="46.92641" lon="8.57954">
        <ele>641</ele>
        <time>2021-08-10T11:16:32.832Z</time>
      </trkpt>
      <trkpt lat="46.92641" lon="8.57953">
        <ele>642</ele>
        <time>2021-08-10T11:16:33.832Z</time>
      </trkpt>
      <trkpt lat="46.92641" lon="8.57954">
        <ele>642</ele>
        <time>2021-08-10T11:16:34.833Z</time>
      </trkpt>
      <trkpt lat="46.9264" lon="8.57955">
        <ele>643</ele>
        <time>2021-08-10T11:16:35.833Z</time>
      </trkpt>
      <trkpt lat="46.9264" lon="8.57955">
        <ele>643</ele>
        <time>2021-08-10T11:16:36.833Z</time>
      </trkpt>
      <trkpt lat="46.92639" lon="8.57955">
        <ele>644</ele>
        <time>2021-08-10T11:16:37.832Z</time>
      </trkpt>
      <trkpt lat="46.92638" lon="8.57954">
        <ele>644</ele>
        <time>2021-08-10T11:16:38.833Z</time>
      </trkpt>
      <trkpt lat="46.92638" lon="8.57954">
        <ele>644</ele>
        <time>2021-08-10T11:16:39.833Z</time>
      </trkpt>
      <trkpt lat="46.92637" lon="8.57954">
        <ele>645</ele>
        <time>2021-08-10T11:16:40.833Z</time>
      </trkpt>
      <trkpt lat="46.92637" lon="8.57954">
        <ele>645</ele>
        <time>2021-08-10T11:16:41.833Z</time>
      </trkpt>
      <trkpt lat="46.92637" lon="8.57954">
        <ele>645</ele>
        <time>2021-08-10T11:16:42.832Z</time>
      </trkpt>
      <trkpt lat="46.92636" lon="8.57953">
        <ele>645</ele>
        <time>2021-08-10T11:16:43.833Z</time>
      </trkpt>
      <trkpt lat="46.92635" lon="8.57953">
        <ele>645</ele>
        <time>2021-08-10T11:16:44.832Z</time>
      </trkpt>
      <trkpt lat="46.92634" lon="8.57953">
        <ele>646</ele>
        <time>2021-08-10T11:16:45.833Z</time>
      </trkpt>
      <trkpt lat="46.92633" lon="8.57953">
        <ele>646</ele>
        <time>2021-08-10T11:16:46.833Z</time>
      </trkpt>
      <trkpt lat="46.92631" lon="8.57954">
        <ele>646</ele>
        <time>2021-08-10T11:16:47.832Z</time>
      </trkpt>
      <trkpt lat="46.9263" lon="8.57953">
        <ele>646</ele>
        <time>2021-08-10T11:16:48.833Z</time>
      </trkpt>
      <trkpt lat="46.92629" lon="8.57954">
        <ele>646</ele>
        <time>2021-08-10T11:16:49.832Z</time>
      </trkpt>
      <trkpt lat="46.92628" lon="8.57953">
        <ele>646</ele>
        <time>2021-08-10T11:16:50.833Z</time>
      </trkpt>
      <trkpt lat="46.92628" lon="8.57953">
        <ele>646</ele>
        <time>2021-08-10T11:16:51.832Z</time>
      </trkpt>
      <trkpt lat="46.92627" lon="8.57954">
        <ele>646</ele>
        <time>2021-08-10T11:16:52.833Z</time>
      </trkpt>
      <trkpt lat="46.92627" lon="8.57954">
        <ele>646</ele>
        <time>2021-08-10T11:16:53.833Z</time>
      </trkpt>
      <trkpt lat="46.92626" lon="8.57955">
        <ele>646</ele>
        <time>2021-08-10T11:16:54.833Z</time>
      </trkpt>
      <trkpt lat="46.92625" lon="8.57955">
        <ele>646</ele>
        <time>2021-08-10T11:16:55.833Z</time>
      </trkpt>
      <trkpt lat="46.92624" lon="8.57956">
        <ele>647</ele>
        <time>2021-08-10T11:16:56.833Z</time>
      </trkpt>
      <trkpt lat="46.92623" lon="8.57957">
        <ele>647</ele>
        <time>2021-08-10T11:16:57.833Z</time>
      </trkpt>
      <trkpt lat="46.92621" lon="8.57959">
        <ele>647</ele>
        <time>2021-08-10T11:16:58.833Z</time>
      </trkpt>
      <trkpt lat="46.9262" lon="8.5796">
        <ele>648</ele>
        <time>2021-08-10T11:16:59.833Z</time>
      </trkpt>
      <trkpt lat="46.9262" lon="8.57961">
        <ele>648</ele>
        <time>2021-08-10T11:17:00.833Z</time>
      </trkpt>
      <trkpt lat="46.9262" lon="8.57961">
        <ele>648</ele>
        <time>2021-08-10T11:17:01.832Z</time>
      </trkpt>
      <trkpt lat="46.92619" lon="8.57962">
        <ele>649</ele>
        <time>2021-08-10T11:17:02.832Z</time>
      </trkpt>
      <trkpt lat="46.92617" lon="8.57964">
        <ele>649</ele>
        <time>2021-08-10T11:17:03.832Z</time>
      </trkpt>
      <trkpt lat="46.92616" lon="8.57964">
        <ele>650</ele>
        <time>2021-08-10T11:17:04.832Z</time>
      </trkpt>
      <trkpt lat="46.92615" lon="8.57964">
        <ele>650</ele>
        <time>2021-08-10T11:17:05.832Z</time>
      </trkpt>
      <trkpt lat="46.92614" lon="8.57964">
        <ele>651</ele>
        <time>2021-08-10T11:17:06.832Z</time>
      </trkpt>
      <trkpt lat="46.92614" lon="8.57964">
        <ele>651</ele>
        <time>2021-08-10T11:17:07.833Z</time>
      </trkpt>
      <trkpt lat="46.92613" lon="8.57963">
        <ele>652</ele>
        <time>2021-08-10T11:17:08.832Z</time>
      </trkpt>
      <trkpt lat="46.92613" lon="8.57963">
        <ele>652</ele>
        <time>2021-08-10T11:17:09.832Z</time>
      </trkpt>
      <trkpt lat="46.92613" lon="8.57964">
        <ele>653</ele>
        <time>2021-08-10T11:17:10.832Z</time>
      </trkpt>
      <trkpt lat="46.92612" lon="8.57964">
        <ele>653</ele>
        <time>2021-08-10T11:17:11.832Z</time>
      </trkpt>
      <trkpt lat="46.92611" lon="8.57965">
        <ele>653</ele>
        <time>2021-08-10T11:17:12.832Z</time>
      </trkpt>
      <trkpt lat="46.9261" lon="8.57965">
        <ele>653</ele>
        <time>2021-08-10T11:17:13.833Z</time>
      </trkpt>
      <trkpt lat="46.9261" lon="8.57966">
        <ele>654</ele>
        <time>2021-08-10T11:17:14.832Z</time>
      </trkpt>
      <trkpt lat="46.92609" lon="8.57965">
        <ele>654</ele>
        <time>2021-08-10T11:17:15.833Z</time>
      </trkpt>
      <trkpt lat="46.92609" lon="8.57965">
        <ele>654</ele>
        <time>2021-08-10T11:17:16.833Z</time>
      </trkpt>
      <trkpt lat="46.92608" lon="8.57966">
        <ele>654</ele>
        <time>2021-08-10T11:17:17.833Z</time>
      </trkpt>
      <trkpt lat="46.92607" lon="8.57966">
        <ele>655</ele>
        <time>2021-08-10T11:17:18.833Z</time>
      </trkpt>
      <trkpt lat="46.92607" lon="8.57966">
        <ele>655</ele>
        <time>2021-08-10T11:17:19.833Z</time>
      </trkpt>
      <trkpt lat="46.92606" lon="8.57967">
        <ele>655</ele>
        <time>2021-08-10T11:17:20.832Z</time>
      </trkpt>
      <trkpt lat="46.92606" lon="8.57966">
        <ele>655</ele>
        <time>2021-08-10T11:17:21.833Z</time>
      </trkpt>
      <trkpt lat="46.92605" lon="8.57966">
        <ele>655</ele>
        <time>2021-08-10T11:17:22.833Z</time>
      </trkpt>
      <trkpt lat="46.92605" lon="8.57966">
        <ele>655</ele>
        <time>2021-08-10T11:17:23.832Z</time>
      </trkpt>
      <trkpt lat="46.92605" lon="8.57965">
        <ele>655</ele>
        <time>2021-08-10T11:17:24.832Z</time>
      </trkpt>
      <trkpt lat="46.92605" lon="8.57965">
        <ele>655</ele>
        <time>2021-08-10T11:17:25.833Z</time>
      </trkpt>
      <trkpt lat="46.92604" lon="8.57965">
        <ele>655</ele>
        <time>2021-08-10T11:17:26.833Z</time>
      </trkpt>
      <trkpt lat="46.92603" lon="8.57965">
        <ele>655</ele>
        <time>2021-08-10T11:17:27.832Z</time>
      </trkpt>
      <trkpt lat="46.92603" lon="8.57965">
        <ele>655</ele>
        <time>2021-08-10T11:17:28.833Z</time>
      </trkpt>
      <trkpt lat="46.92602" lon="8.57965">
        <ele>655</ele>
        <time>2021-08-10T11:17:29.833Z</time>
      </trkpt>
      <trkpt lat="46.92602" lon="8.57965">
        <ele>655</ele>
        <time>2021-08-10T11:17:30.833Z</time>
      </trkpt>
      <trkpt lat="46.92601" lon="8.57965">
        <ele>655</ele>
        <time>2021-08-10T11:17:31.833Z</time>
      </trkpt>
      <trkpt lat="46.926" lon="8.57966">
        <ele>655</ele>
        <time>2021-08-10T11:17:32.833Z</time>
      </trkpt>
      <trkpt lat="46.926" lon="8.57966">
        <ele>655</ele>
        <time>2021-08-10T11:17:33.832Z</time>
      </trkpt>
      <trkpt lat="46.92599" lon="8.57966">
        <ele>654</ele>
        <time>2021-08-10T11:17:34.833Z</time>
      </trkpt>
      <trkpt lat="46.92598" lon="8.57968">
        <ele>653</ele>
        <time>2021-08-10T11:17:35.833Z</time>
      </trkpt>
      <trkpt lat="46.92598" lon="8.57969">
        <ele>653</ele>
        <time>2021-08-10T11:17:36.833Z</time>
      </trkpt>
      <trkpt lat="46.92597" lon="8.5797">
        <ele>652</ele>
        <time>2021-08-10T11:17:37.832Z</time>
      </trkpt>
      <trkpt lat="46.92597" lon="8.57971">
        <ele>652</ele>
        <time>2021-08-10T11:17:38.832Z</time>
      </trkpt>
      <trkpt lat="46.92597" lon="8.57973">
        <ele>651</ele>
        <time>2021-08-10T11:17:39.833Z</time>
      </trkpt>
      <trkpt lat="46.92596" lon="8.57974">
        <ele>651</ele>
        <time>2021-08-10T11:17:40.832Z</time>
      </trkpt>
      <trkpt lat="46.92596" lon="8.57976">
        <ele>650</ele>
        <time>2021-08-10T11:17:41.832Z</time>
      </trkpt>
      <trkpt lat="46.92595" lon="8.57978">
        <ele>649</ele>
        <time>2021-08-10T11:17:42.833Z</time>
      </trkpt>
      <trkpt lat="46.92595" lon="8.57979">
        <ele>648</ele>
        <time>2021-08-10T11:17:43.833Z</time>
      </trkpt>
      <trkpt lat="46.92595" lon="8.57981">
        <ele>647</ele>
        <time>2021-08-10T11:17:44.833Z</time>
      </trkpt>
      <trkpt lat="46.92596" lon="8.57983">
        <ele>646</ele>
        <time>2021-08-10T11:17:45.832Z</time>
      </trkpt>
      <trkpt lat="46.92596" lon="8.57984">
        <ele>645</ele>
        <time>2021-08-10T11:17:46.832Z</time>
      </trkpt>
      <trkpt lat="46.92596" lon="8.57986">
        <ele>644</ele>
        <time>2021-08-10T11:17:47.832Z</time>
      </trkpt>
      <trkpt lat="46.92596" lon="8.57987">
        <ele>643</ele>
        <time>2021-08-10T11:17:48.832Z</time>
      </trkpt>
      <trkpt lat="46.92596" lon="8.57988">
        <ele>643</ele>
        <time>2021-08-10T11:17:49.833Z</time>
      </trkpt>
      <trkpt lat="46.92597" lon="8.57989">
        <ele>642</ele>
        <time>2021-08-10T11:17:50.833Z</time>
      </trkpt>
      <trkpt lat="46.92597" lon="8.57991">
        <ele>642</ele>
        <time>2021-08-10T11:17:51.833Z</time>
      </trkpt>
      <trkpt lat="46.92597" lon="8.57992">
        <ele>642</ele>
        <time>2021-08-10T11:17:52.833Z</time>
      </trkpt>
      <trkpt lat="46.92596" lon="8.57993">
        <ele>642</ele>
        <time>2021-08-10T11:17:53.832Z</time>
      </trkpt>
      <trkpt lat="46.92596" lon="8.57994">
        <ele>643</ele>
        <time>2021-08-10T11:17:54.833Z</time>
      </trkpt>
      <trkpt lat="46.92596" lon="8.57995">
        <ele>643</ele>
        <time>2021-08-10T11:17:55.833Z</time>
      </trkpt>
      <trkpt lat="46.92596" lon="8.57996">
        <ele>642</ele>
        <time>2021-08-10T11:17:56.833Z</time>
      </trkpt>
      <trkpt lat="46.92595" lon="8.57997">
        <ele>642</ele>
        <time>2021-08-10T11:17:57.833Z</time>
      </trkpt>
      <trkpt lat="46.92595" lon="8.57998">
        <ele>642</ele>
        <time>2021-08-10T11:17:58.832Z</time>
      </trkpt>
      <trkpt lat="46.92595" lon="8.57997">
        <ele>642</ele>
        <time>2021-08-10T11:17:59.833Z</time>
      </trkpt>
      <trkpt lat="46.92594" lon="8.57999">
        <ele>641</ele>
        <time>2021-08-10T11:18:00.833Z</time>
      </trkpt>
      <trkpt lat="46.92594" lon="8.58">
        <ele>640</ele>
        <time>2021-08-10T11:18:01.833Z</time>
      </trkpt>
      <trkpt lat="46.92594" lon="8.58">
        <ele>640</ele>
        <time>2021-08-10T11:18:02.833Z</time>
      </trkpt>
      <trkpt lat="46.92594" lon="8.58001">
        <ele>639</ele>
        <time>2021-08-10T11:18:03.833Z</time>
      </trkpt>
      <trkpt lat="46.92594" lon="8.58002">
        <ele>639</ele>
        <time>2021-08-10T11:18:04.833Z</time>
      </trkpt>
      <trkpt lat="46.92594" lon="8.58003">
        <ele>638</ele>
        <time>2021-08-10T11:18:05.833Z</time>
      </trkpt>
      <trkpt lat="46.92593" lon="8.58004">
        <ele>638</ele>
        <time>2021-08-10T11:18:06.832Z</time>
      </trkpt>
      <trkpt lat="46.92594" lon="8.58006">
        <ele>638</ele>
        <time>2021-08-10T11:18:07.832Z</time>
      </trkpt>
      <trkpt lat="46.92593" lon="8.58007">
        <ele>637</ele>
        <time>2021-08-10T11:18:08.832Z</time>
      </trkpt>
      <trkpt lat="46.92593" lon="8.58007">
        <ele>637</ele>
        <time>2021-08-10T11:18:09.833Z</time>
      </trkpt>
      <trkpt lat="46.92593" lon="8.58008">
        <ele>637</ele>
        <time>2021-08-10T11:18:10.833Z</time>
      </trkpt>
      <trkpt lat="46.92593" lon="8.58009">
        <ele>637</ele>
        <time>2021-08-10T11:18:11.833Z</time>
      </trkpt>
      <trkpt lat="46.92593" lon="8.58009">
        <ele>637</ele>
        <time>2021-08-10T11:18:12.833Z</time>
      </trkpt>
      <trkpt lat="46.92592" lon="8.5801">
        <ele>637</ele>
        <time>2021-08-10T11:18:13.833Z</time>
      </trkpt>
      <trkpt lat="46.92592" lon="8.5801">
        <ele>637</ele>
        <time>2021-08-10T11:18:14.832Z</time>
      </trkpt>
      <trkpt lat="46.92591" lon="8.58011">
        <ele>637</ele>
        <time>2021-08-10T11:18:15.832Z</time>
      </trkpt>
      <trkpt lat="46.9259" lon="8.58011">
        <ele>636</ele>
        <time>2021-08-10T11:18:16.833Z</time>
      </trkpt>
      <trkpt lat="46.92589" lon="8.5801">
        <ele>636</ele>
        <time>2021-08-10T11:18:17.833Z</time>
      </trkpt>
      <trkpt lat="46.92588" lon="8.5801">
        <ele>636</ele>
        <time>2021-08-10T11:18:18.832Z</time>
      </trkpt>
      <trkpt lat="46.92588" lon="8.5801">
        <ele>636</ele>
        <time>2021-08-10T11:18:19.833Z</time>
      </trkpt>
      <trkpt lat="46.92587" lon="8.5801">
        <ele>636</ele>
        <time>2021-08-10T11:18:20.832Z</time>
      </trkpt>
      <trkpt lat="46.92587" lon="8.58011">
        <ele>635</ele>
        <time>2021-08-10T11:18:21.833Z</time>
      </trkpt>
      <trkpt lat="46.92587" lon="8.58011">
        <ele>635</ele>
        <time>2021-08-10T11:18:22.832Z</time>
      </trkpt>
      <trkpt lat="46.92587" lon="8.58012">
        <ele>635</ele>
        <time>2021-08-10T11:18:23.833Z</time>
      </trkpt>
      <trkpt lat="46.92587" lon="8.58013">
        <ele>634</ele>
        <time>2021-08-10T11:18:24.833Z</time>
      </trkpt>
      <trkpt lat="46.92587" lon="8.58013">
        <ele>634</ele>
        <time>2021-08-10T11:18:25.832Z</time>
      </trkpt>
      <trkpt lat="46.92586" lon="8.58015">
        <ele>634</ele>
        <time>2021-08-10T11:18:26.833Z</time>
      </trkpt>
      <trkpt lat="46.92586" lon="8.58015">
        <ele>634</ele>
        <time>2021-08-10T11:18:27.833Z</time>
      </trkpt>
      <trkpt lat="46.92585" lon="8.58016">
        <ele>634</ele>
        <time>2021-08-10T11:18:28.833Z</time>
      </trkpt>
      <trkpt lat="46.92585" lon="8.58017">
        <ele>635</ele>
        <time>2021-08-10T11:18:29.833Z</time>
      </trkpt>
      <trkpt lat="46.92584" lon="8.58019">
        <ele>635</ele>
        <time>2021-08-10T11:18:30.833Z</time>
      </trkpt>
      <trkpt lat="46.92584" lon="8.5802">
        <ele>636</ele>
        <time>2021-08-10T11:18:31.833Z</time>
      </trkpt>
      <trkpt lat="46.92583" lon="8.58022">
        <ele>636</ele>
        <time>2021-08-10T11:18:32.833Z</time>
      </trkpt>
      <trkpt lat="46.92583" lon="8.58023">
        <ele>636</ele>
        <time>2021-08-10T11:18:33.833Z</time>
      </trkpt>
      <trkpt lat="46.92583" lon="8.58024">
        <ele>637</ele>
        <time>2021-08-10T11:18:34.833Z</time>
      </trkpt>
      <trkpt lat="46.92582" lon="8.58026">
        <ele>637</ele>
        <time>2021-08-10T11:18:35.833Z</time>
      </trkpt>
      <trkpt lat="46.92582" lon="8.58027">
        <ele>637</ele>
        <time>2021-08-10T11:18:36.833Z</time>
      </trkpt>
      <trkpt lat="46.92581" lon="8.58028">
        <ele>637</ele>
        <time>2021-08-10T11:18:37.832Z</time>
      </trkpt>
      <trkpt lat="46.92581" lon="8.5803">
        <ele>638</ele>
        <time>2021-08-10T11:18:38.833Z</time>
      </trkpt>
      <trkpt lat="46.9258" lon="8.58031">
        <ele>638</ele>
        <time>2021-08-10T11:18:39.833Z</time>
      </trkpt>
      <trkpt lat="46.92579" lon="8.58032">
        <ele>637</ele>
        <time>2021-08-10T11:18:40.832Z</time>
      </trkpt>
      <trkpt lat="46.92578" lon="8.58032">
        <ele>637</ele>
        <time>2021-08-10T11:18:41.833Z</time>
      </trkpt>
      <trkpt lat="46.92578" lon="8.58032">
        <ele>637</ele>
        <time>2021-08-10T11:18:42.833Z</time>
      </trkpt>
      <trkpt lat="46.92578" lon="8.58032">
        <ele>638</ele>
        <time>2021-08-10T11:18:43.832Z</time>
      </trkpt>
      <trkpt lat="46.92578" lon="8.58033">
        <ele>638</ele>
        <time>2021-08-10T11:18:44.833Z</time>
      </trkpt>
      <trkpt lat="46.92578" lon="8.58034">
        <ele>638</ele>
        <time>2021-08-10T11:18:45.833Z</time>
      </trkpt>
      <trkpt lat="46.92578" lon="8.58034">
        <ele>637</ele>
        <time>2021-08-10T11:18:46.832Z</time>
      </trkpt>
      <trkpt lat="46.92578" lon="8.58035">
        <ele>637</ele>
        <time>2021-08-10T11:18:47.833Z</time>
      </trkpt>
      <trkpt lat="46.92577" lon="8.58036">
        <ele>637</ele>
        <time>2021-08-10T11:18:48.833Z</time>
      </trkpt>
      <trkpt lat="46.92577" lon="8.58037">
        <ele>637</ele>
        <time>2021-08-10T11:18:49.833Z</time>
      </trkpt>
      <trkpt lat="46.92577" lon="8.58037">
        <ele>636</ele>
        <time>2021-08-10T11:18:50.833Z</time>
      </trkpt>
      <trkpt lat="46.92577" lon="8.58038">
        <ele>636</ele>
        <time>2021-08-10T11:18:51.833Z</time>
      </trkpt>
      <trkpt lat="46.92577" lon="8.58039">
        <ele>636</ele>
        <time>2021-08-10T11:18:52.833Z</time>
      </trkpt>
      <trkpt lat="46.92577" lon="8.5804">
        <ele>636</ele>
        <time>2021-08-10T11:18:53.832Z</time>
      </trkpt>
      <trkpt lat="46.92577" lon="8.5804">
        <ele>636</ele>
        <time>2021-08-10T11:18:54.833Z</time>
      </trkpt>
      <trkpt lat="46.92576" lon="8.5804">
        <ele>636</ele>
        <time>2021-08-10T11:18:55.833Z</time>
      </trkpt>
      <trkpt lat="46.92575" lon="8.5804">
        <ele>636</ele>
        <time>2021-08-10T11:18:56.832Z</time>
      </trkpt>
      <trkpt lat="46.92575" lon="8.58041">
        <ele>635</ele>
        <time>2021-08-10T11:18:57.833Z</time>
      </trkpt>
      <trkpt lat="46.92574" lon="8.58041">
        <ele>635</ele>
        <time>2021-08-10T11:18:58.832Z</time>
      </trkpt>
      <trkpt lat="46.92573" lon="8.58042">
        <ele>635</ele>
        <time>2021-08-10T11:18:59.832Z</time>
      </trkpt>
      <trkpt lat="46.92573" lon="8.58043">
        <ele>635</ele>
        <time>2021-08-10T11:19:00.832Z</time>
      </trkpt>
      <trkpt lat="46.92573" lon="8.58044">
        <ele>634</ele>
        <time>2021-08-10T11:19:01.833Z</time>
      </trkpt>
      <trkpt lat="46.92572" lon="8.58045">
        <ele>634</ele>
        <time>2021-08-10T11:19:02.833Z</time>
      </trkpt>
      <trkpt lat="46.92572" lon="8.58047">
        <ele>634</ele>
        <time>2021-08-10T11:19:03.832Z</time>
      </trkpt>
      <trkpt lat="46.92572" lon="8.58047">
        <ele>633</ele>
        <time>2021-08-10T11:19:04.833Z</time>
      </trkpt>
      <trkpt lat="46.92572" lon="8.58048">
        <ele>633</ele>
        <time>2021-08-10T11:19:05.833Z</time>
      </trkpt>
      <trkpt lat="46.92572" lon="8.58049">
        <ele>633</ele>
        <time>2021-08-10T11:19:06.833Z</time>
      </trkpt>
      <trkpt lat="46.92572" lon="8.5805">
        <ele>633</ele>
        <time>2021-08-10T11:19:07.832Z</time>
      </trkpt>
      <trkpt lat="46.92572" lon="8.58051">
        <ele>633</ele>
        <time>2021-08-10T11:19:08.833Z</time>
      </trkpt>
      <trkpt lat="46.92572" lon="8.58053">
        <ele>633</ele>
        <time>2021-08-10T11:19:09.833Z</time>
      </trkpt>
      <trkpt lat="46.92571" lon="8.58054">
        <ele>633</ele>
        <time>2021-08-10T11:19:10.833Z</time>
      </trkpt>
      <trkpt lat="46.92571" lon="8.58055">
        <ele>633</ele>
        <time>2021-08-10T11:19:11.832Z</time>
      </trkpt>
      <trkpt lat="46.92571" lon="8.58056">
        <ele>633</ele>
        <time>2021-08-10T11:19:12.832Z</time>
      </trkpt>
      <trkpt lat="46.92572" lon="8.58057">
        <ele>632</ele>
        <time>2021-08-10T11:19:13.832Z</time>
      </trkpt>
      <trkpt lat="46.92572" lon="8.58058">
        <ele>632</ele>
        <time>2021-08-10T11:19:14.833Z</time>
      </trkpt>
      <trkpt lat="46.92572" lon="8.5806">
        <ele>632</ele>
        <time>2021-08-10T11:19:15.833Z</time>
      </trkpt>
      <trkpt lat="46.92572" lon="8.5806">
        <ele>632</ele>
        <time>2021-08-10T11:19:16.832Z</time>
      </trkpt>
      <trkpt lat="46.92572" lon="8.58061">
        <ele>632</ele>
        <time>2021-08-10T11:19:17.833Z</time>
      </trkpt>
      <trkpt lat="46.92572" lon="8.58062">
        <ele>632</ele>
        <time>2021-08-10T11:19:18.833Z</time>
      </trkpt>
      <trkpt lat="46.92572" lon="8.58063">
        <ele>633</ele>
        <time>2021-08-10T11:19:19.833Z</time>
      </trkpt>
      <trkpt lat="46.92571" lon="8.58064">
        <ele>633</ele>
        <time>2021-08-10T11:19:20.833Z</time>
      </trkpt>
      <trkpt lat="46.92571" lon="8.58064">
        <ele>633</ele>
        <time>2021-08-10T11:19:21.832Z</time>
      </trkpt>
      <trkpt lat="46.9257" lon="8.58065">
        <ele>633</ele>
        <time>2021-08-10T11:19:22.833Z</time>
      </trkpt>
      <trkpt lat="46.9257" lon="8.58066">
        <ele>634</ele>
        <time>2021-08-10T11:19:23.833Z</time>
      </trkpt>
      <trkpt lat="46.9257" lon="8.58068">
        <ele>634</ele>
        <time>2021-08-10T11:19:24.832Z</time>
      </trkpt>
      <trkpt lat="46.9257" lon="8.58069">
        <ele>634</ele>
        <time>2021-08-10T11:19:25.833Z</time>
      </trkpt>
      <trkpt lat="46.9257" lon="8.5807">
        <ele>634</ele>
        <time>2021-08-10T11:19:26.832Z</time>
      </trkpt>
      <trkpt lat="46.92569" lon="8.58071">
        <ele>635</ele>
        <time>2021-08-10T11:19:27.833Z</time>
      </trkpt>
      <trkpt lat="46.92568" lon="8.58072">
        <ele>635</ele>
        <time>2021-08-10T11:19:28.833Z</time>
      </trkpt>
      <trkpt lat="46.92567" lon="8.58073">
        <ele>635</ele>
        <time>2021-08-10T11:19:29.833Z</time>
      </trkpt>
      <trkpt lat="46.92566" lon="8.58074">
        <ele>636</ele>
        <time>2021-08-10T11:19:30.832Z</time>
      </trkpt>
      <trkpt lat="46.92566" lon="8.58074">
        <ele>636</ele>
        <time>2021-08-10T11:19:31.833Z</time>
      </trkpt>
      <trkpt lat="46.92567" lon="8.58075">
        <ele>637</ele>
        <time>2021-08-10T11:19:32.833Z</time>
      </trkpt>
      <trkpt lat="46.92567" lon="8.58076">
        <ele>637</ele>
        <time>2021-08-10T11:19:33.833Z</time>
      </trkpt>
      <trkpt lat="46.92567" lon="8.58077">
        <ele>637</ele>
        <time>2021-08-10T11:19:34.833Z</time>
      </trkpt>
      <trkpt lat="46.92567" lon="8.58078">
        <ele>638</ele>
        <time>2021-08-10T11:19:35.832Z</time>
      </trkpt>
      <trkpt lat="46.92567" lon="8.58078">
        <ele>638</ele>
        <time>2021-08-10T11:19:36.833Z</time>
      </trkpt>
      <trkpt lat="46.92567" lon="8.58079">
        <ele>638</ele>
        <time>2021-08-10T11:19:37.833Z</time>
      </trkpt>
      <trkpt lat="46.92567" lon="8.5808">
        <ele>639</ele>
        <time>2021-08-10T11:19:38.833Z</time>
      </trkpt>
      <trkpt lat="46.92567" lon="8.5808">
        <ele>639</ele>
        <time>2021-08-10T11:19:39.833Z</time>
      </trkpt>
      <trkpt lat="46.92567" lon="8.58081">
        <ele>640</ele>
        <time>2021-08-10T11:19:40.833Z</time>
      </trkpt>
      <trkpt lat="46.92566" lon="8.58081">
        <ele>640</ele>
        <time>2021-08-10T11:19:41.833Z</time>
      </trkpt>
      <trkpt lat="46.92566" lon="8.58081">
        <ele>641</ele>
        <time>2021-08-10T11:19:42.833Z</time>
      </trkpt>
      <trkpt lat="46.92566" lon="8.58083">
        <ele>641</ele>
        <time>2021-08-10T11:19:43.832Z</time>
      </trkpt>
      <trkpt lat="46.92566" lon="8.58083">
        <ele>641</ele>
        <time>2021-08-10T11:19:44.832Z</time>
      </trkpt>
      <trkpt lat="46.92565" lon="8.58084">
        <ele>642</ele>
        <time>2021-08-10T11:19:45.832Z</time>
      </trkpt>
      <trkpt lat="46.92564" lon="8.58085">
        <ele>642</ele>
        <time>2021-08-10T11:19:46.833Z</time>
      </trkpt>
      <trkpt lat="46.92562" lon="8.58085">
        <ele>643</ele>
        <time>2021-08-10T11:19:47.832Z</time>
      </trkpt>
      <trkpt lat="46.92561" lon="8.58086">
        <ele>643</ele>
        <time>2021-08-10T11:19:48.833Z</time>
      </trkpt>
      <trkpt lat="46.92562" lon="8.58087">
        <ele>643</ele>
        <time>2021-08-10T11:19:49.832Z</time>
      </trkpt>
      <trkpt lat="46.92562" lon="8.58088">
        <ele>644</ele>
        <time>2021-08-10T11:19:50.833Z</time>
      </trkpt>
      <trkpt lat="46.92562" lon="8.58088">
        <ele>644</ele>
        <time>2021-08-10T11:19:51.833Z</time>
      </trkpt>
      <trkpt lat="46.92562" lon="8.58089">
        <ele>644</ele>
        <time>2021-08-10T11:19:52.832Z</time>
      </trkpt>
      <trkpt lat="46.92561" lon="8.5809">
        <ele>645</ele>
        <time>2021-08-10T11:19:53.832Z</time>
      </trkpt>
      <trkpt lat="46.9256" lon="8.58091">
        <ele>645</ele>
        <time>2021-08-10T11:19:54.832Z</time>
      </trkpt>
      <trkpt lat="46.92559" lon="8.58092">
        <ele>646</ele>
        <time>2021-08-10T11:19:55.832Z</time>
      </trkpt>
      <trkpt lat="46.92559" lon="8.58093">
        <ele>646</ele>
        <time>2021-08-10T11:19:56.833Z</time>
      </trkpt>
      <trkpt lat="46.92559" lon="8.58094">
        <ele>647</ele>
        <time>2021-08-10T11:19:57.832Z</time>
      </trkpt>
      <trkpt lat="46.92559" lon="8.58095">
        <ele>647</ele>
        <time>2021-08-10T11:19:58.832Z</time>
      </trkpt>
      <trkpt lat="46.92558" lon="8.58096">
        <ele>648</ele>
        <time>2021-08-10T11:19:59.833Z</time>
      </trkpt>
      <trkpt lat="46.92557" lon="8.58096">
        <ele>649</ele>
        <time>2021-08-10T11:20:00.833Z</time>
      </trkpt>
      <trkpt lat="46.92556" lon="8.58097">
        <ele>649</ele>
        <time>2021-08-10T11:20:01.832Z</time>
      </trkpt>
      <trkpt lat="46.92556" lon="8.58099">
        <ele>650</ele>
        <time>2021-08-10T11:20:02.833Z</time>
      </trkpt>
      <trkpt lat="46.92556" lon="8.58099">
        <ele>650</ele>
        <time>2021-08-10T11:20:03.832Z</time>
      </trkpt>
      <trkpt lat="46.92557" lon="8.58099">
        <ele>650</ele>
        <time>2021-08-10T11:20:04.833Z</time>
      </trkpt>
      <trkpt lat="46.92557" lon="8.58099">
        <ele>651</ele>
        <time>2021-08-10T11:20:05.832Z</time>
      </trkpt>
      <trkpt lat="46.92556" lon="8.58098">
        <ele>652</ele>
        <time>2021-08-10T11:20:06.832Z</time>
      </trkpt>
      <trkpt lat="46.92556" lon="8.58098">
        <ele>652</ele>
        <time>2021-08-10T11:20:07.832Z</time>
      </trkpt>
      <trkpt lat="46.92555" lon="8.58097">
        <ele>652</ele>
        <time>2021-08-10T11:20:08.833Z</time>
      </trkpt>
      <trkpt lat="46.92555" lon="8.58097">
        <ele>653</ele>
        <time>2021-08-10T11:20:09.832Z</time>
      </trkpt>
      <trkpt lat="46.92556" lon="8.58097">
        <ele>653</ele>
        <time>2021-08-10T11:20:10.832Z</time>
      </trkpt>
      <trkpt lat="46.92556" lon="8.58096">
        <ele>653</ele>
        <time>2021-08-10T11:20:11.832Z</time>
      </trkpt>
      <trkpt lat="46.92555" lon="8.58095">
        <ele>654</ele>
        <time>2021-08-10T11:20:12.832Z</time>
      </trkpt>
      <trkpt lat="46.92555" lon="8.58095">
        <ele>654</ele>
        <time>2021-08-10T11:20:13.832Z</time>
      </trkpt>
      <trkpt lat="46.92554" lon="8.58094">
        <ele>654</ele>
        <time>2021-08-10T11:20:14.832Z</time>
      </trkpt>
      <trkpt lat="46.92554" lon="8.58094">
        <ele>654</ele>
        <time>2021-08-10T11:20:15.833Z</time>
      </trkpt>
      <trkpt lat="46.92554" lon="8.58094">
        <ele>655</ele>
        <time>2021-08-10T11:20:16.833Z</time>
      </trkpt>
      <trkpt lat="46.92553" lon="8.58095">
        <ele>655</ele>
        <time>2021-08-10T11:20:17.833Z</time>
      </trkpt>
      <trkpt lat="46.92552" lon="8.58095">
        <ele>655</ele>
        <time>2021-08-10T11:20:18.833Z</time>
      </trkpt>
      <trkpt lat="46.9255" lon="8.58096">
        <ele>656</ele>
        <time>2021-08-10T11:20:19.833Z</time>
      </trkpt>
      <trkpt lat="46.92549" lon="8.58096">
        <ele>656</ele>
        <time>2021-08-10T11:20:20.833Z</time>
      </trkpt>
      <trkpt lat="46.92548" lon="8.58096">
        <ele>657</ele>
        <time>2021-08-10T11:20:21.832Z</time>
      </trkpt>
      <trkpt lat="46.92547" lon="8.58096">
        <ele>657</ele>
        <time>2021-08-10T11:20:22.833Z</time>
      </trkpt>
      <trkpt lat="46.92546" lon="8.58097">
        <ele>658</ele>
        <time>2021-08-10T11:20:23.833Z</time>
      </trkpt>
      <trkpt lat="46.92545" lon="8.58098">
        <ele>658</ele>
        <time>2021-08-10T11:20:24.832Z</time>
      </trkpt>
      <trkpt lat="46.92544" lon="8.58099">
        <ele>659</ele>
        <time>2021-08-10T11:20:25.833Z</time>
      </trkpt>
      <trkpt lat="46.92543" lon="8.581">
        <ele>659</ele>
        <time>2021-08-10T11:20:26.833Z</time>
      </trkpt>
      <trkpt lat="46.92542" lon="8.581">
        <ele>660</ele>
        <time>2021-08-10T11:20:27.832Z</time>
      </trkpt>
      <trkpt lat="46.92541" lon="8.58101">
        <ele>661</ele>
        <time>2021-08-10T11:20:28.833Z</time>
      </trkpt>
      <trkpt lat="46.9254" lon="8.58101">
        <ele>661</ele>
        <time>2021-08-10T11:20:29.833Z</time>
      </trkpt>
      <trkpt lat="46.92539" lon="8.58102">
        <ele>662</ele>
        <time>2021-08-10T11:20:30.833Z</time>
      </trkpt>
      <trkpt lat="46.92539" lon="8.58102">
        <ele>662</ele>
        <time>2021-08-10T11:20:31.833Z</time>
      </trkpt>
      <trkpt lat="46.92539" lon="8.58103">
        <ele>663</ele>
        <time>2021-08-10T11:20:32.833Z</time>
      </trkpt>
      <trkpt lat="46.92539" lon="8.58103">
        <ele>664</ele>
        <time>2021-08-10T11:20:33.833Z</time>
      </trkpt>
      <trkpt lat="46.9254" lon="8.58104">
        <ele>664</ele>
        <time>2021-08-10T11:20:34.833Z</time>
      </trkpt>
      <trkpt lat="46.9254" lon="8.58105">
        <ele>664</ele>
        <time>2021-08-10T11:20:35.833Z</time>
      </trkpt>
      <trkpt lat="46.92538" lon="8.58107">
        <ele>665</ele>
        <time>2021-08-10T11:20:36.833Z</time>
      </trkpt>
      <trkpt lat="46.92539" lon="8.58106">
        <ele>665</ele>
        <time>2021-08-10T11:20:37.833Z</time>
      </trkpt>
      <trkpt lat="46.9254" lon="8.58106">
        <ele>665</ele>
        <time>2021-08-10T11:20:38.833Z</time>
      </trkpt>
      <trkpt lat="46.9254" lon="8.58106">
        <ele>665</ele>
        <time>2021-08-10T11:20:39.833Z</time>
      </trkpt>
      <trkpt lat="46.9254" lon="8.58106">
        <ele>665</ele>
        <time>2021-08-10T11:20:40.832Z</time>
      </trkpt>
      <trkpt lat="46.9254" lon="8.58106">
        <ele>665</ele>
        <time>2021-08-10T11:20:41.832Z</time>
      </trkpt>
      <trkpt lat="46.92541" lon="8.58106">
        <ele>665</ele>
        <time>2021-08-10T11:20:42.833Z</time>
      </trkpt>
      <trkpt lat="46.92541" lon="8.58106">
        <ele>666</ele>
        <time>2021-08-10T11:20:43.833Z</time>
      </trkpt>
      <trkpt lat="46.9254" lon="8.58107">
        <ele>666</ele>
        <time>2021-08-10T11:20:44.832Z</time>
      </trkpt>
      <trkpt lat="46.9254" lon="8.58107">
        <ele>666</ele>
        <time>2021-08-10T11:20:45.833Z</time>
      </trkpt>
      <trkpt lat="46.9254" lon="8.58107">
        <ele>666</ele>
        <time>2021-08-10T11:20:46.832Z</time>
      </trkpt>
      <trkpt lat="46.92539" lon="8.58107">
        <ele>666</ele>
        <time>2021-08-10T11:20:47.833Z</time>
      </trkpt>
      <trkpt lat="46.92539" lon="8.58107">
        <ele>666</ele>
        <time>2021-08-10T11:20:48.833Z</time>
      </trkpt>
      <trkpt lat="46.92539" lon="8.58107">
        <ele>667</ele>
        <time>2021-08-10T11:20:49.833Z</time>
      </trkpt>
      <trkpt lat="46.92538" lon="8.58107">
        <ele>667</ele>
        <time>2021-08-10T11:20:50.832Z</time>
      </trkpt>
      <trkpt lat="46.92538" lon="8.58108">
        <ele>667</ele>
        <time>2021-08-10T11:20:51.833Z</time>
      </trkpt>
      <trkpt lat="46.92538" lon="8.58108">
        <ele>667</ele>
        <time>2021-08-10T11:20:52.832Z</time>
      </trkpt>
      <trkpt lat="46.92538" lon="8.58108">
        <ele>668</ele>
        <time>2021-08-10T11:20:53.833Z</time>
      </trkpt>
      <trkpt lat="46.92537" lon="8.58108">
        <ele>668</ele>
        <time>2021-08-10T11:20:54.832Z</time>
      </trkpt>
      <trkpt lat="46.92535" lon="8.58108">
        <ele>668</ele>
        <time>2021-08-10T11:20:55.833Z</time>
      </trkpt>
      <trkpt lat="46.92534" lon="8.58107">
        <ele>668</ele>
        <time>2021-08-10T11:20:56.832Z</time>
      </trkpt>
      <trkpt lat="46.92533" lon="8.58107">
        <ele>668</ele>
        <time>2021-08-10T11:20:57.832Z</time>
      </trkpt>
      <trkpt lat="46.92533" lon="8.58107">
        <ele>668</ele>
        <time>2021-08-10T11:20:58.833Z</time>
      </trkpt>
      <trkpt lat="46.92533" lon="8.58107">
        <ele>668</ele>
        <time>2021-08-10T11:20:59.832Z</time>
      </trkpt>
      <trkpt lat="46.92532" lon="8.5811">
        <ele>669</ele>
        <time>2021-08-10T11:21:00.832Z</time>
      </trkpt>
      <trkpt lat="46.92532" lon="8.58112">
        <ele>669</ele>
        <time>2021-08-10T11:21:01.832Z</time>
      </trkpt>
      <trkpt lat="46.92532" lon="8.58114">
        <ele>669</ele>
        <time>2021-08-10T11:21:02.832Z</time>
      </trkpt>
      <trkpt lat="46.92532" lon="8.58115">
        <ele>669</ele>
        <time>2021-08-10T11:21:03.832Z</time>
      </trkpt>
      <trkpt lat="46.92532" lon="8.58116">
        <ele>670</ele>
        <time>2021-08-10T11:21:04.833Z</time>
      </trkpt>
      <trkpt lat="46.92533" lon="8.58117">
        <ele>670</ele>
        <time>2021-08-10T11:21:05.832Z</time>
      </trkpt>
      <trkpt lat="46.92532" lon="8.58117">
        <ele>670</ele>
        <time>2021-08-10T11:21:06.832Z</time>
      </trkpt>
      <trkpt lat="46.92532" lon="8.58117">
        <ele>670</ele>
        <time>2021-08-10T11:21:07.832Z</time>
      </trkpt>
      <trkpt lat="46.92532" lon="8.58116">
        <ele>670</ele>
        <time>2021-08-10T11:21:08.832Z</time>
      </trkpt>
      <trkpt lat="46.92531" lon="8.58117">
        <ele>670</ele>
        <time>2021-08-10T11:21:09.832Z</time>
      </trkpt>
      <trkpt lat="46.92531" lon="8.58118">
        <ele>670</ele>
        <time>2021-08-10T11:21:10.832Z</time>
      </trkpt>
      <trkpt lat="46.9253" lon="8.58118">
        <ele>670</ele>
        <time>2021-08-10T11:21:11.833Z</time>
      </trkpt>
      <trkpt lat="46.92529" lon="8.58119">
        <ele>670</ele>
        <time>2021-08-10T11:21:12.833Z</time>
      </trkpt>
      <trkpt lat="46.92529" lon="8.58119">
        <ele>670</ele>
        <time>2021-08-10T11:21:13.832Z</time>
      </trkpt>
      <trkpt lat="46.92529" lon="8.5812">
        <ele>670</ele>
        <time>2021-08-10T11:21:14.832Z</time>
      </trkpt>
      <trkpt lat="46.92528" lon="8.58122">
        <ele>670</ele>
        <time>2021-08-10T11:21:15.832Z</time>
      </trkpt>
      <trkpt lat="46.92527" lon="8.58123">
        <ele>670</ele>
        <time>2021-08-10T11:21:16.833Z</time>
      </trkpt>
      <trkpt lat="46.92526" lon="8.58125">
        <ele>670</ele>
        <time>2021-08-10T11:21:17.832Z</time>
      </trkpt>
      <trkpt lat="46.92525" lon="8.58125">
        <ele>670</ele>
        <time>2021-08-10T11:21:18.833Z</time>
      </trkpt>
      <trkpt lat="46.92523" lon="8.58125">
        <ele>670</ele>
        <time>2021-08-10T11:21:19.832Z</time>
      </trkpt>
      <trkpt lat="46.92522" lon="8.58125">
        <ele>670</ele>
        <time>2021-08-10T11:21:20.832Z</time>
      </trkpt>
      <trkpt lat="46.92521" lon="8.58125">
        <ele>669</ele>
        <time>2021-08-10T11:21:21.833Z</time>
      </trkpt>
      <trkpt lat="46.9252" lon="8.58125">
        <ele>669</ele>
        <time>2021-08-10T11:21:22.833Z</time>
      </trkpt>
      <trkpt lat="46.9252" lon="8.58126">
        <ele>669</ele>
        <time>2021-08-10T11:21:23.832Z</time>
      </trkpt>
      <trkpt lat="46.92518" lon="8.58127">
        <ele>669</ele>
        <time>2021-08-10T11:21:24.832Z</time>
      </trkpt>
      <trkpt lat="46.92517" lon="8.58129">
        <ele>669</ele>
        <time>2021-08-10T11:21:25.832Z</time>
      </trkpt>
      <trkpt lat="46.92516" lon="8.58129">
        <ele>668</ele>
        <time>2021-08-10T11:21:26.832Z</time>
      </trkpt>
      <trkpt lat="46.92516" lon="8.58129">
        <ele>668</ele>
        <time>2021-08-10T11:21:27.833Z</time>
      </trkpt>
      <trkpt lat="46.92515" lon="8.58129">
        <ele>668</ele>
        <time>2021-08-10T11:21:28.833Z</time>
      </trkpt>
      <trkpt lat="46.92515" lon="8.58129">
        <ele>668</ele>
        <time>2021-08-10T11:21:29.833Z</time>
      </trkpt>
      <trkpt lat="46.92514" lon="8.58129">
        <ele>668</ele>
        <time>2021-08-10T11:21:30.832Z</time>
      </trkpt>
      <trkpt lat="46.92513" lon="8.58129">
        <ele>668</ele>
        <time>2021-08-10T11:21:31.832Z</time>
      </trkpt>
      <trkpt lat="46.92512" lon="8.58129">
        <ele>668</ele>
        <time>2021-08-10T11:21:32.833Z</time>
      </trkpt>
      <trkpt lat="46.92512" lon="8.58129">
        <ele>668</ele>
        <time>2021-08-10T11:21:33.833Z</time>
      </trkpt>
      <trkpt lat="46.92512" lon="8.58129">
        <ele>668</ele>
        <time>2021-08-10T11:21:34.832Z</time>
      </trkpt>
      <trkpt lat="46.92512" lon="8.5813">
        <ele>668</ele>
        <time>2021-08-10T11:21:35.832Z</time>
      </trkpt>
      <trkpt lat="46.92512" lon="8.5813">
        <ele>668</ele>
        <time>2021-08-10T11:21:36.833Z</time>
      </trkpt>
      <trkpt lat="46.92512" lon="8.5813">
        <ele>668</ele>
        <time>2021-08-10T11:21:37.835Z</time>
      </trkpt>
      <trkpt lat="46.92512" lon="8.58129">
        <ele>668</ele>
        <time>2021-08-10T11:21:38.835Z</time>
      </trkpt>
      <trkpt lat="46.92512" lon="8.5813">
        <ele>668</ele>
        <time>2021-08-10T11:21:39.835Z</time>
      </trkpt>
      <trkpt lat="46.92511" lon="8.5813">
        <ele>668</ele>
        <time>2021-08-10T11:21:40.835Z</time>
      </trkpt>
      <trkpt lat="46.92511" lon="8.5813">
        <ele>667</ele>
        <time>2021-08-10T11:21:41.835Z</time>
      </trkpt>
      <trkpt lat="46.9251" lon="8.5813">
        <ele>667</ele>
        <time>2021-08-10T11:21:42.835Z</time>
      </trkpt>
      <trkpt lat="46.92509" lon="8.5813">
        <ele>667</ele>
        <time>2021-08-10T11:21:43.835Z</time>
      </trkpt>
      <trkpt lat="46.92509" lon="8.58129">
        <ele>667</ele>
        <time>2021-08-10T11:21:44.835Z</time>
      </trkpt>
      <trkpt lat="46.92509" lon="8.5813">
        <ele>667</ele>
        <time>2021-08-10T11:21:45.835Z</time>
      </trkpt>
      <trkpt lat="46.92511" lon="8.58129">
        <ele>666</ele>
        <time>2021-08-10T11:21:46.835Z</time>
      </trkpt>
      <trkpt lat="46.92512" lon="8.5813">
        <ele>666</ele>
        <time>2021-08-10T11:21:47.835Z</time>
      </trkpt>
      <trkpt lat="46.92511" lon="8.5813">
        <ele>666</ele>
        <time>2021-08-10T11:21:48.834Z</time>
      </trkpt>
      <trkpt lat="46.92511" lon="8.5813">
        <ele>666</ele>
        <time>2021-08-10T11:21:49.835Z</time>
      </trkpt>
      <trkpt lat="46.92511" lon="8.5813">
        <ele>666</ele>
        <time>2021-08-10T11:21:50.834Z</time>
      </trkpt>
      <trkpt lat="46.92511" lon="8.58129">
        <ele>666</ele>
        <time>2021-08-10T11:21:51.834Z</time>
      </trkpt>
      <trkpt lat="46.92511" lon="8.58129">
        <ele>667</ele>
        <time>2021-08-10T11:21:52.834Z</time>
      </trkpt>
      <trkpt lat="46.92512" lon="8.58128">
        <ele>667</ele>
        <time>2021-08-10T11:21:53.835Z</time>
      </trkpt>
      <trkpt lat="46.92513" lon="8.58129">
        <ele>667</ele>
        <time>2021-08-10T11:21:54.835Z</time>
      </trkpt>
      <trkpt lat="46.92512" lon="8.5813">
        <ele>668</ele>
        <time>2021-08-10T11:21:55.835Z</time>
      </trkpt>
      <trkpt lat="46.92512" lon="8.58131">
        <ele>668</ele>
        <time>2021-08-10T11:21:56.834Z</time>
      </trkpt>
      <trkpt lat="46.9251" lon="8.58129">
        <ele>668</ele>
        <time>2021-08-10T11:21:57.835Z</time>
      </trkpt>
      <trkpt lat="46.92509" lon="8.58129">
        <ele>668</ele>
        <time>2021-08-10T11:21:58.835Z</time>
      </trkpt>
      <trkpt lat="46.92509" lon="8.58128">
        <ele>669</ele>
        <time>2021-08-10T11:21:59.835Z</time>
      </trkpt>
      <trkpt lat="46.92508" lon="8.58127">
        <ele>669</ele>
        <time>2021-08-10T11:22:00.835Z</time>
      </trkpt>
      <trkpt lat="46.92507" lon="8.58128">
        <ele>669</ele>
        <time>2021-08-10T11:22:01.835Z</time>
      </trkpt>
      <trkpt lat="46.92507" lon="8.58129">
        <ele>669</ele>
        <time>2021-08-10T11:22:02.834Z</time>
      </trkpt>
      <trkpt lat="46.92506" lon="8.5813">
        <ele>670</ele>
        <time>2021-08-10T11:22:03.834Z</time>
      </trkpt>
      <trkpt lat="46.92506" lon="8.58131">
        <ele>670</ele>
        <time>2021-08-10T11:22:04.835Z</time>
      </trkpt>
      <trkpt lat="46.92505" lon="8.58132">
        <ele>670</ele>
        <time>2021-08-10T11:22:05.835Z</time>
      </trkpt>
      <trkpt lat="46.92505" lon="8.58133">
        <ele>671</ele>
        <time>2021-08-10T11:22:06.835Z</time>
      </trkpt>
      <trkpt lat="46.92505" lon="8.58134">
        <ele>671</ele>
        <time>2021-08-10T11:22:07.835Z</time>
      </trkpt>
      <trkpt lat="46.92505" lon="8.58135">
        <ele>672</ele>
        <time>2021-08-10T11:22:08.835Z</time>
      </trkpt>
      <trkpt lat="46.92506" lon="8.58137">
        <ele>672</ele>
        <time>2021-08-10T11:22:09.835Z</time>
      </trkpt>
      <trkpt lat="46.92508" lon="8.58138">
        <ele>672</ele>
        <time>2021-08-10T11:22:10.835Z</time>
      </trkpt>
      <trkpt lat="46.9251" lon="8.5814">
        <ele>673</ele>
        <time>2021-08-10T11:22:11.835Z</time>
      </trkpt>
      <trkpt lat="46.92512" lon="8.58142">
        <ele>673</ele>
        <time>2021-08-10T11:22:12.834Z</time>
      </trkpt>
      <trkpt lat="46.92514" lon="8.58143">
        <ele>673</ele>
        <time>2021-08-10T11:22:13.834Z</time>
      </trkpt>
      <trkpt lat="46.92515" lon="8.58144">
        <ele>673</ele>
        <time>2021-08-10T11:22:14.835Z</time>
      </trkpt>
      <trkpt lat="46.92516" lon="8.58145">
        <ele>673</ele>
        <time>2021-08-10T11:22:15.834Z</time>
      </trkpt>
      <trkpt lat="46.92516" lon="8.58146">
        <ele>674</ele>
        <time>2021-08-10T11:22:16.835Z</time>
      </trkpt>
      <trkpt lat="46.92516" lon="8.58147">
        <ele>674</ele>
        <time>2021-08-10T11:22:17.835Z</time>
      </trkpt>
      <trkpt lat="46.92516" lon="8.58149">
        <ele>674</ele>
        <time>2021-08-10T11:22:18.835Z</time>
      </trkpt>
      <trkpt lat="46.92516" lon="8.5815">
        <ele>675</ele>
        <time>2021-08-10T11:22:19.835Z</time>
      </trkpt>
      <trkpt lat="46.92517" lon="8.58151">
        <ele>675</ele>
        <time>2021-08-10T11:22:20.835Z</time>
      </trkpt>
      <trkpt lat="46.92518" lon="8.58152">
        <ele>676</ele>
        <time>2021-08-10T11:22:21.834Z</time>
      </trkpt>
      <trkpt lat="46.9252" lon="8.58153">
        <ele>676</ele>
        <time>2021-08-10T11:22:22.834Z</time>
      </trkpt>
      <trkpt lat="46.9252" lon="8.58154">
        <ele>676</ele>
        <time>2021-08-10T11:22:23.835Z</time>
      </trkpt>
      <trkpt lat="46.9252" lon="8.58155">
        <ele>676</ele>
        <time>2021-08-10T11:22:24.835Z</time>
      </trkpt>
      <trkpt lat="46.9252" lon="8.58155">
        <ele>677</ele>
        <time>2021-08-10T11:22:25.835Z</time>
      </trkpt>
      <trkpt lat="46.92519" lon="8.58156">
        <ele>677</ele>
        <time>2021-08-10T11:22:26.834Z</time>
      </trkpt>
      <trkpt lat="46.92519" lon="8.58157">
        <ele>677</ele>
        <time>2021-08-10T11:22:27.835Z</time>
      </trkpt>
      <trkpt lat="46.92519" lon="8.58159">
        <ele>677</ele>
        <time>2021-08-10T11:22:28.834Z</time>
      </trkpt>
      <trkpt lat="46.92519" lon="8.5816">
        <ele>677</ele>
        <time>2021-08-10T11:22:29.835Z</time>
      </trkpt>
      <trkpt lat="46.92519" lon="8.58161">
        <ele>676</ele>
        <time>2021-08-10T11:22:30.835Z</time>
      </trkpt>
      <trkpt lat="46.92518" lon="8.58162">
        <ele>676</ele>
        <time>2021-08-10T11:22:31.835Z</time>
      </trkpt>
      <trkpt lat="46.92518" lon="8.58164">
        <ele>675</ele>
        <time>2021-08-10T11:22:32.835Z</time>
      </trkpt>
      <trkpt lat="46.92517" lon="8.58165">
        <ele>674</ele>
        <time>2021-08-10T11:22:33.835Z</time>
      </trkpt>
      <trkpt lat="46.92516" lon="8.58167">
        <ele>674</ele>
        <time>2021-08-10T11:22:34.835Z</time>
      </trkpt>
      <trkpt lat="46.92515" lon="8.58168">
        <ele>673</ele>
        <time>2021-08-10T11:22:35.835Z</time>
      </trkpt>
      <trkpt lat="46.92515" lon="8.58169">
        <ele>673</ele>
        <time>2021-08-10T11:22:36.835Z</time>
      </trkpt>
      <trkpt lat="46.92514" lon="8.5817">
        <ele>672</ele>
        <time>2021-08-10T11:22:37.834Z</time>
      </trkpt>
      <trkpt lat="46.92513" lon="8.58171">
        <ele>672</ele>
        <time>2021-08-10T11:22:38.834Z</time>
      </trkpt>
      <trkpt lat="46.92512" lon="8.58173">
        <ele>672</ele>
        <time>2021-08-10T11:22:39.834Z</time>
      </trkpt>
      <trkpt lat="46.92511" lon="8.58175">
        <ele>672</ele>
        <time>2021-08-10T11:22:40.835Z</time>
      </trkpt>
      <trkpt lat="46.9251" lon="8.58176">
        <ele>672</ele>
        <time>2021-08-10T11:22:41.834Z</time>
      </trkpt>
      <trkpt lat="46.92509" lon="8.58177">
        <ele>672</ele>
        <time>2021-08-10T11:22:42.835Z</time>
      </trkpt>
      <trkpt lat="46.92509" lon="8.58177">
        <ele>672</ele>
        <time>2021-08-10T11:22:43.835Z</time>
      </trkpt>
      <trkpt lat="46.92508" lon="8.58178">
        <ele>672</ele>
        <time>2021-08-10T11:22:44.835Z</time>
      </trkpt>
      <trkpt lat="46.92509" lon="8.58178">
        <ele>672</ele>
        <time>2021-08-10T11:22:45.835Z</time>
      </trkpt>
      <trkpt lat="46.92509" lon="8.58179">
        <ele>672</ele>
        <time>2021-08-10T11:22:46.835Z</time>
      </trkpt>
      <trkpt lat="46.92508" lon="8.58179">
        <ele>672</ele>
        <time>2021-08-10T11:22:47.835Z</time>
      </trkpt>
      <trkpt lat="46.92507" lon="8.58181">
        <ele>672</ele>
        <time>2021-08-10T11:22:48.834Z</time>
      </trkpt>
      <trkpt lat="46.92506" lon="8.58181">
        <ele>672</ele>
        <time>2021-08-10T11:22:49.835Z</time>
      </trkpt>
      <trkpt lat="46.92505" lon="8.58182">
        <ele>672</ele>
        <time>2021-08-10T11:22:50.835Z</time>
      </trkpt>
      <trkpt lat="46.92505" lon="8.58182">
        <ele>673</ele>
        <time>2021-08-10T11:22:51.835Z</time>
      </trkpt>
      <trkpt lat="46.92505" lon="8.58182">
        <ele>673</ele>
        <time>2021-08-10T11:22:52.835Z</time>
      </trkpt>
      <trkpt lat="46.92505" lon="8.58183">
        <ele>673</ele>
        <time>2021-08-10T11:22:53.834Z</time>
      </trkpt>
      <trkpt lat="46.92504" lon="8.58183">
        <ele>673</ele>
        <time>2021-08-10T11:22:54.834Z</time>
      </trkpt>
      <trkpt lat="46.92504" lon="8.58185">
        <ele>673</ele>
        <time>2021-08-10T11:22:55.835Z</time>
      </trkpt>
      <trkpt lat="46.92503" lon="8.58186">
        <ele>673</ele>
        <time>2021-08-10T11:22:56.834Z</time>
      </trkpt>
      <trkpt lat="46.92502" lon="8.58188">
        <ele>673</ele>
        <time>2021-08-10T11:22:57.835Z</time>
      </trkpt>
      <trkpt lat="46.92501" lon="8.58187">
        <ele>673</ele>
        <time>2021-08-10T11:22:58.834Z</time>
      </trkpt>
      <trkpt lat="46.92501" lon="8.58187">
        <ele>672</ele>
        <time>2021-08-10T11:22:59.835Z</time>
      </trkpt>
      <trkpt lat="46.92499" lon="8.58188">
        <ele>672</ele>
        <time>2021-08-10T11:23:00.834Z</time>
      </trkpt>
      <trkpt lat="46.92498" lon="8.5819">
        <ele>672</ele>
        <time>2021-08-10T11:23:01.835Z</time>
      </trkpt>
      <trkpt lat="46.92498" lon="8.58191">
        <ele>671</ele>
        <time>2021-08-10T11:23:02.835Z</time>
      </trkpt>
      <trkpt lat="46.92497" lon="8.58192">
        <ele>671</ele>
        <time>2021-08-10T11:23:03.835Z</time>
      </trkpt>
      <trkpt lat="46.92497" lon="8.58193">
        <ele>671</ele>
        <time>2021-08-10T11:23:04.835Z</time>
      </trkpt>
      <trkpt lat="46.92497" lon="8.58194">
        <ele>670</ele>
        <time>2021-08-10T11:23:05.835Z</time>
      </trkpt>
      <trkpt lat="46.92497" lon="8.58194">
        <ele>670</ele>
        <time>2021-08-10T11:23:06.835Z</time>
      </trkpt>
      <trkpt lat="46.92497" lon="8.58194">
        <ele>670</ele>
        <time>2021-08-10T11:23:07.835Z</time>
      </trkpt>
      <trkpt lat="46.92497" lon="8.58195">
        <ele>670</ele>
        <time>2021-08-10T11:23:08.835Z</time>
      </trkpt>
      <trkpt lat="46.92498" lon="8.58195">
        <ele>670</ele>
        <time>2021-08-10T11:23:09.835Z</time>
      </trkpt>
      <trkpt lat="46.92498" lon="8.58195">
        <ele>671</ele>
        <time>2021-08-10T11:23:10.835Z</time>
      </trkpt>
      <trkpt lat="46.92497" lon="8.58195">
        <ele>671</ele>
        <time>2021-08-10T11:23:11.834Z</time>
      </trkpt>
      <trkpt lat="46.92497" lon="8.58196">
        <ele>672</ele>
        <time>2021-08-10T11:23:12.835Z</time>
      </trkpt>
      <trkpt lat="46.92496" lon="8.58196">
        <ele>672</ele>
        <time>2021-08-10T11:23:13.834Z</time>
      </trkpt>
      <trkpt lat="46.92495" lon="8.58196">
        <ele>673</ele>
        <time>2021-08-10T11:23:14.835Z</time>
      </trkpt>
      <trkpt lat="46.92495" lon="8.58197">
        <ele>673</ele>
        <time>2021-08-10T11:23:15.835Z</time>
      </trkpt>
      <trkpt lat="46.92495" lon="8.58198">
        <ele>673</ele>
        <time>2021-08-10T11:23:16.835Z</time>
      </trkpt>
      <trkpt lat="46.92496" lon="8.582">
        <ele>674</ele>
        <time>2021-08-10T11:23:17.835Z</time>
      </trkpt>
      <trkpt lat="46.92497" lon="8.58202">
        <ele>674</ele>
        <time>2021-08-10T11:23:18.835Z</time>
      </trkpt>
      <trkpt lat="46.92497" lon="8.58203">
        <ele>674</ele>
        <time>2021-08-10T11:23:19.835Z</time>
      </trkpt>
      <trkpt lat="46.92497" lon="8.58205">
        <ele>675</ele>
        <time>2021-08-10T11:23:20.834Z</time>
      </trkpt>
      <trkpt lat="46.92497" lon="8.58205">
        <ele>675</ele>
        <time>2021-08-10T11:23:21.834Z</time>
      </trkpt>
      <trkpt lat="46.92497" lon="8.58205">
        <ele>675</ele>
        <time>2021-08-10T11:23:22.835Z</time>
      </trkpt>
      <trkpt lat="46.92498" lon="8.58206">
        <ele>676</ele>
        <time>2021-08-10T11:23:23.835Z</time>
      </trkpt>
      <trkpt lat="46.92498" lon="8.58207">
        <ele>676</ele>
        <time>2021-08-10T11:23:24.835Z</time>
      </trkpt>
      <trkpt lat="46.92498" lon="8.58208">
        <ele>675</ele>
        <time>2021-08-10T11:23:25.835Z</time>
      </trkpt>
      <trkpt lat="46.92498" lon="8.58209">
        <ele>675</ele>
        <time>2021-08-10T11:23:26.835Z</time>
      </trkpt>
      <trkpt lat="46.92498" lon="8.58211">
        <ele>675</ele>
        <time>2021-08-10T11:23:27.834Z</time>
      </trkpt>
      <trkpt lat="46.92498" lon="8.58212">
        <ele>675</ele>
        <time>2021-08-10T11:23:28.835Z</time>
      </trkpt>
      <trkpt lat="46.92498" lon="8.58214">
        <ele>675</ele>
        <time>2021-08-10T11:23:29.835Z</time>
      </trkpt>
      <trkpt lat="46.92498" lon="8.58215">
        <ele>675</ele>
        <time>2021-08-10T11:23:30.835Z</time>
      </trkpt>
      <trkpt lat="46.92498" lon="8.58217">
        <ele>675</ele>
        <time>2021-08-10T11:23:31.835Z</time>
      </trkpt>
      <trkpt lat="46.92498" lon="8.58219">
        <ele>675</ele>
        <time>2021-08-10T11:23:32.835Z</time>
      </trkpt>
      <trkpt lat="46.92499" lon="8.58221">
        <ele>676</ele>
        <time>2021-08-10T11:23:33.834Z</time>
      </trkpt>
      <trkpt lat="46.92499" lon="8.58222">
        <ele>676</ele>
        <time>2021-08-10T11:23:34.835Z</time>
      </trkpt>
      <trkpt lat="46.92499" lon="8.58224">
        <ele>676</ele>
        <time>2021-08-10T11:23:35.835Z</time>
      </trkpt>
      <trkpt lat="46.92498" lon="8.58225">
        <ele>677</ele>
        <time>2021-08-10T11:23:36.835Z</time>
      </trkpt>
      <trkpt lat="46.92498" lon="8.58227">
        <ele>677</ele>
        <time>2021-08-10T11:23:37.835Z</time>
      </trkpt>
      <trkpt lat="46.92498" lon="8.58228">
        <ele>677</ele>
        <time>2021-08-10T11:23:38.834Z</time>
      </trkpt>
      <trkpt lat="46.92498" lon="8.58229">
        <ele>677</ele>
        <time>2021-08-10T11:23:39.835Z</time>
      </trkpt>
      <trkpt lat="46.92498" lon="8.58231">
        <ele>676</ele>
        <time>2021-08-10T11:23:40.835Z</time>
      </trkpt>
      <trkpt lat="46.92498" lon="8.58232">
        <ele>676</ele>
        <time>2021-08-10T11:23:41.835Z</time>
      </trkpt>
      <trkpt lat="46.92498" lon="8.58234">
        <ele>676</ele>
        <time>2021-08-10T11:23:42.834Z</time>
      </trkpt>
      <trkpt lat="46.92498" lon="8.58235">
        <ele>676</ele>
        <time>2021-08-10T11:23:43.835Z</time>
      </trkpt>
      <trkpt lat="46.92498" lon="8.58236">
        <ele>676</ele>
        <time>2021-08-10T11:23:44.835Z</time>
      </trkpt>
      <trkpt lat="46.92499" lon="8.58238">
        <ele>675</ele>
        <time>2021-08-10T11:23:45.835Z</time>
      </trkpt>
      <trkpt lat="46.92498" lon="8.58239">
        <ele>675</ele>
        <time>2021-08-10T11:23:46.835Z</time>
      </trkpt>
      <trkpt lat="46.92497" lon="8.58241">
        <ele>675</ele>
        <time>2021-08-10T11:23:47.835Z</time>
      </trkpt>
      <trkpt lat="46.92496" lon="8.58242">
        <ele>675</ele>
        <time>2021-08-10T11:23:48.834Z</time>
      </trkpt>
      <trkpt lat="46.92496" lon="8.58243">
        <ele>674</ele>
        <time>2021-08-10T11:23:49.834Z</time>
      </trkpt>
      <trkpt lat="46.92497" lon="8.58242">
        <ele>674</ele>
        <time>2021-08-10T11:23:50.835Z</time>
      </trkpt>
      <trkpt lat="46.92497" lon="8.58242">
        <ele>674</ele>
        <time>2021-08-10T11:23:51.834Z</time>
      </trkpt>
      <trkpt lat="46.92497" lon="8.58242">
        <ele>673</ele>
        <time>2021-08-10T11:23:52.834Z</time>
      </trkpt>
      <trkpt lat="46.92497" lon="8.58243">
        <ele>673</ele>
        <time>2021-08-10T11:23:53.834Z</time>
      </trkpt>
      <trkpt lat="46.92496" lon="8.58244">
        <ele>673</ele>
        <time>2021-08-10T11:23:54.835Z</time>
      </trkpt>
      <trkpt lat="46.92496" lon="8.58245">
        <ele>673</ele>
        <time>2021-08-10T11:23:55.835Z</time>
      </trkpt>
      <trkpt lat="46.92496" lon="8.58245">
        <ele>673</ele>
        <time>2021-08-10T11:23:56.834Z</time>
      </trkpt>
      <trkpt lat="46.92496" lon="8.58246">
        <ele>673</ele>
        <time>2021-08-10T11:23:57.834Z</time>
      </trkpt>
      <trkpt lat="46.92496" lon="8.58247">
        <ele>673</ele>
        <time>2021-08-10T11:23:58.835Z</time>
      </trkpt>
      <trkpt lat="46.92496" lon="8.58247">
        <ele>673</ele>
        <time>2021-08-10T11:23:59.835Z</time>
      </trkpt>
      <trkpt lat="46.92495" lon="8.58248">
        <ele>673</ele>
        <time>2021-08-10T11:24:00.834Z</time>
      </trkpt>
      <trkpt lat="46.92496" lon="8.58248">
        <ele>673</ele>
        <time>2021-08-10T11:24:01.835Z</time>
      </trkpt>
      <trkpt lat="46.92496" lon="8.58248">
        <ele>673</ele>
        <time>2021-08-10T11:24:02.835Z</time>
      </trkpt>
      <trkpt lat="46.92497" lon="8.58249">
        <ele>673</ele>
        <time>2021-08-10T11:24:03.834Z</time>
      </trkpt>
      <trkpt lat="46.92496" lon="8.5825">
        <ele>673</ele>
        <time>2021-08-10T11:24:04.834Z</time>
      </trkpt>
      <trkpt lat="46.92496" lon="8.58251">
        <ele>674</ele>
        <time>2021-08-10T11:24:05.835Z</time>
      </trkpt>
      <trkpt lat="46.92495" lon="8.58253">
        <ele>674</ele>
        <time>2021-08-10T11:24:06.835Z</time>
      </trkpt>
      <trkpt lat="46.92495" lon="8.58254">
        <ele>674</ele>
        <time>2021-08-10T11:24:07.835Z</time>
      </trkpt>
      <trkpt lat="46.92495" lon="8.58255">
        <ele>674</ele>
        <time>2021-08-10T11:24:08.835Z</time>
      </trkpt>
      <trkpt lat="46.92495" lon="8.58255">
        <ele>674</ele>
        <time>2021-08-10T11:24:09.834Z</time>
      </trkpt>
      <trkpt lat="46.92495" lon="8.58256">
        <ele>674</ele>
        <time>2021-08-10T11:24:10.835Z</time>
      </trkpt>
      <trkpt lat="46.92494" lon="8.58256">
        <ele>674</ele>
        <time>2021-08-10T11:24:11.835Z</time>
      </trkpt>
      <trkpt lat="46.92495" lon="8.58256">
        <ele>674</ele>
        <time>2021-08-10T11:24:12.834Z</time>
      </trkpt>
      <trkpt lat="46.92495" lon="8.58256">
        <ele>674</ele>
        <time>2021-08-10T11:24:13.835Z</time>
      </trkpt>
      <trkpt lat="46.92495" lon="8.58257">
        <ele>674</ele>
        <time>2021-08-10T11:24:14.835Z</time>
      </trkpt>
      <trkpt lat="46.92494" lon="8.58258">
        <ele>674</ele>
        <time>2021-08-10T11:24:15.835Z</time>
      </trkpt>
      <trkpt lat="46.92494" lon="8.58259">
        <ele>674</ele>
        <time>2021-08-10T11:24:16.835Z</time>
      </trkpt>
      <trkpt lat="46.92493" lon="8.5826">
        <ele>675</ele>
        <time>2021-08-10T11:24:17.835Z</time>
      </trkpt>
      <trkpt lat="46.92493" lon="8.5826">
        <ele>675</ele>
        <time>2021-08-10T11:24:18.834Z</time>
      </trkpt>
      <trkpt lat="46.92492" lon="8.58261">
        <ele>675</ele>
        <time>2021-08-10T11:24:19.835Z</time>
      </trkpt>
      <trkpt lat="46.92491" lon="8.58262">
        <ele>675</ele>
        <time>2021-08-10T11:24:20.835Z</time>
      </trkpt>
      <trkpt lat="46.9249" lon="8.58263">
        <ele>675</ele>
        <time>2021-08-10T11:24:21.834Z</time>
      </trkpt>
      <trkpt lat="46.9249" lon="8.58263">
        <ele>675</ele>
        <time>2021-08-10T11:24:22.834Z</time>
      </trkpt>
      <trkpt lat="46.92489" lon="8.58264">
        <ele>675</ele>
        <time>2021-08-10T11:24:23.835Z</time>
      </trkpt>
      <trkpt lat="46.9249" lon="8.58264">
        <ele>675</ele>
        <time>2021-08-10T11:24:24.835Z</time>
      </trkpt>
      <trkpt lat="46.9249" lon="8.58264">
        <ele>674</ele>
        <time>2021-08-10T11:24:25.835Z</time>
      </trkpt>
      <trkpt lat="46.92492" lon="8.58265">
        <ele>674</ele>
        <time>2021-08-10T11:24:26.835Z</time>
      </trkpt>
      <trkpt lat="46.92492" lon="8.58266">
        <ele>674</ele>
        <time>2021-08-10T11:24:27.835Z</time>
      </trkpt>
      <trkpt lat="46.92492" lon="8.58266">
        <ele>674</ele>
        <time>2021-08-10T11:24:28.835Z</time>
      </trkpt>
      <trkpt lat="46.92493" lon="8.58266">
        <ele>674</ele>
        <time>2021-08-10T11:24:29.835Z</time>
      </trkpt>
      <trkpt lat="46.92492" lon="8.58266">
        <ele>674</ele>
        <time>2021-08-10T11:24:30.835Z</time>
      </trkpt>
      <trkpt lat="46.92492" lon="8.58266">
        <ele>675</ele>
        <time>2021-08-10T11:24:31.834Z</time>
      </trkpt>
      <trkpt lat="46.92491" lon="8.58266">
        <ele>675</ele>
        <time>2021-08-10T11:24:32.835Z</time>
      </trkpt>
      <trkpt lat="46.92491" lon="8.58266">
        <ele>676</ele>
        <time>2021-08-10T11:24:33.835Z</time>
      </trkpt>
      <trkpt lat="46.92491" lon="8.58267">
        <ele>676</ele>
        <time>2021-08-10T11:24:34.835Z</time>
      </trkpt>
      <trkpt lat="46.9249" lon="8.58267">
        <ele>676</ele>
        <time>2021-08-10T11:24:35.834Z</time>
      </trkpt>
      <trkpt lat="46.92491" lon="8.58267">
        <ele>676</ele>
        <time>2021-08-10T11:24:36.834Z</time>
      </trkpt>
      <trkpt lat="46.9249" lon="8.58267">
        <ele>677</ele>
        <time>2021-08-10T11:24:37.835Z</time>
      </trkpt>
      <trkpt lat="46.92489" lon="8.58268">
        <ele>677</ele>
        <time>2021-08-10T11:24:38.836Z</time>
      </trkpt>
      <trkpt lat="46.92489" lon="8.58269">
        <ele>677</ele>
        <time>2021-08-10T11:24:39.835Z</time>
      </trkpt>
      <trkpt lat="46.92489" lon="8.5827">
        <ele>678</ele>
        <time>2021-08-10T11:24:40.836Z</time>
      </trkpt>
      <trkpt lat="46.92488" lon="8.58271">
        <ele>678</ele>
        <time>2021-08-10T11:24:41.835Z</time>
      </trkpt>
      <trkpt lat="46.92488" lon="8.58272">
        <ele>678</ele>
        <time>2021-08-10T11:24:42.836Z</time>
      </trkpt>
      <trkpt lat="46.92487" lon="8.58273">
        <ele>678</ele>
        <time>2021-08-10T11:24:43.835Z</time>
      </trkpt>
      <trkpt lat="46.92486" lon="8.58274">
        <ele>678</ele>
        <time>2021-08-10T11:24:44.836Z</time>
      </trkpt>
      <trkpt lat="46.92486" lon="8.58274">
        <ele>678</ele>
        <time>2021-08-10T11:24:45.836Z</time>
      </trkpt>
      <trkpt lat="46.92485" lon="8.58275">
        <ele>679</ele>
        <time>2021-08-10T11:24:46.836Z</time>
      </trkpt>
      <trkpt lat="46.92483" lon="8.58276">
        <ele>679</ele>
        <time>2021-08-10T11:24:47.836Z</time>
      </trkpt>
      <trkpt lat="46.92481" lon="8.58277">
        <ele>679</ele>
        <time>2021-08-10T11:24:48.836Z</time>
      </trkpt>
      <trkpt lat="46.92481" lon="8.58278">
        <ele>679</ele>
        <time>2021-08-10T11:24:49.836Z</time>
      </trkpt>
      <trkpt lat="46.9248" lon="8.58278">
        <ele>680</ele>
        <time>2021-08-10T11:24:50.836Z</time>
      </trkpt>
      <trkpt lat="46.9248" lon="8.58279">
        <ele>680</ele>
        <time>2021-08-10T11:24:51.836Z</time>
      </trkpt>
      <trkpt lat="46.9248" lon="8.58281">
        <ele>680</ele>
        <time>2021-08-10T11:24:52.835Z</time>
      </trkpt>
      <trkpt lat="46.9248" lon="8.58282">
        <ele>680</ele>
        <time>2021-08-10T11:24:53.836Z</time>
      </trkpt>
      <trkpt lat="46.92479" lon="8.58283">
        <ele>680</ele>
        <time>2021-08-10T11:24:54.836Z</time>
      </trkpt>
      <trkpt lat="46.92479" lon="8.58284">
        <ele>680</ele>
        <time>2021-08-10T11:24:55.836Z</time>
      </trkpt>
      <trkpt lat="46.92479" lon="8.58285">
        <ele>680</ele>
        <time>2021-08-10T11:24:56.836Z</time>
      </trkpt>
      <trkpt lat="46.92479" lon="8.58287">
        <ele>680</ele>
        <time>2021-08-10T11:24:57.836Z</time>
      </trkpt>
      <trkpt lat="46.92479" lon="8.58288">
        <ele>681</ele>
        <time>2021-08-10T11:24:58.836Z</time>
      </trkpt>
      <trkpt lat="46.92479" lon="8.58289">
        <ele>681</ele>
        <time>2021-08-10T11:24:59.836Z</time>
      </trkpt>
      <trkpt lat="46.92479" lon="8.58289">
        <ele>681</ele>
        <time>2021-08-10T11:25:00.835Z</time>
      </trkpt>
      <trkpt lat="46.92478" lon="8.58289">
        <ele>681</ele>
        <time>2021-08-10T11:25:01.836Z</time>
      </trkpt>
      <trkpt lat="46.92478" lon="8.58289">
        <ele>681</ele>
        <time>2021-08-10T11:25:02.836Z</time>
      </trkpt>
      <trkpt lat="46.92479" lon="8.58288">
        <ele>681</ele>
        <time>2021-08-10T11:25:03.835Z</time>
      </trkpt>
      <trkpt lat="46.92478" lon="8.58289">
        <ele>682</ele>
        <time>2021-08-10T11:25:04.835Z</time>
      </trkpt>
      <trkpt lat="46.92478" lon="8.58289">
        <ele>682</ele>
        <time>2021-08-10T11:25:05.836Z</time>
      </trkpt>
      <trkpt lat="46.92479" lon="8.5829">
        <ele>682</ele>
        <time>2021-08-10T11:25:06.835Z</time>
      </trkpt>
      <trkpt lat="46.92479" lon="8.58291">
        <ele>682</ele>
        <time>2021-08-10T11:25:07.836Z</time>
      </trkpt>
      <trkpt lat="46.92478" lon="8.58292">
        <ele>682</ele>
        <time>2021-08-10T11:25:08.836Z</time>
      </trkpt>
      <trkpt lat="46.92477" lon="8.58292">
        <ele>682</ele>
        <time>2021-08-10T11:25:09.836Z</time>
      </trkpt>
      <trkpt lat="46.92477" lon="8.58293">
        <ele>682</ele>
        <time>2021-08-10T11:25:10.835Z</time>
      </trkpt>
      <trkpt lat="46.92476" lon="8.58294">
        <ele>682</ele>
        <time>2021-08-10T11:25:11.835Z</time>
      </trkpt>
      <trkpt lat="46.92476" lon="8.58295">
        <ele>682</ele>
        <time>2021-08-10T11:25:12.836Z</time>
      </trkpt>
      <trkpt lat="46.92476" lon="8.58296">
        <ele>682</ele>
        <time>2021-08-10T11:25:13.836Z</time>
      </trkpt>
      <trkpt lat="46.92476" lon="8.58297">
        <ele>682</ele>
        <time>2021-08-10T11:25:14.836Z</time>
      </trkpt>
      <trkpt lat="46.92477" lon="8.58298">
        <ele>682</ele>
        <time>2021-08-10T11:25:15.836Z</time>
      </trkpt>
      <trkpt lat="46.92477" lon="8.58298">
        <ele>682</ele>
        <time>2021-08-10T11:25:16.836Z</time>
      </trkpt>
      <trkpt lat="46.92477" lon="8.58299">
        <ele>682</ele>
        <time>2021-08-10T11:25:17.835Z</time>
      </trkpt>
      <trkpt lat="46.92477" lon="8.583">
        <ele>682</ele>
        <time>2021-08-10T11:25:18.836Z</time>
      </trkpt>
      <trkpt lat="46.92477" lon="8.583">
        <ele>682</ele>
        <time>2021-08-10T11:25:19.836Z</time>
      </trkpt>
      <trkpt lat="46.92476" lon="8.58301">
        <ele>683</ele>
        <time>2021-08-10T11:25:20.835Z</time>
      </trkpt>
      <trkpt lat="46.92475" lon="8.58302">
        <ele>683</ele>
        <time>2021-08-10T11:25:21.836Z</time>
      </trkpt>
      <trkpt lat="46.92475" lon="8.58302">
        <ele>683</ele>
        <time>2021-08-10T11:25:22.836Z</time>
      </trkpt>
      <trkpt lat="46.92475" lon="8.58303">
        <ele>684</ele>
        <time>2021-08-10T11:25:23.835Z</time>
      </trkpt>
      <trkpt lat="46.92474" lon="8.58303">
        <ele>685</ele>
        <time>2021-08-10T11:25:24.836Z</time>
      </trkpt>
      <trkpt lat="46.92474" lon="8.58303">
        <ele>686</ele>
        <time>2021-08-10T11:25:25.836Z</time>
      </trkpt>
      <trkpt lat="46.92474" lon="8.58307">
        <ele>692</ele>
        <time>2021-08-10T11:25:26.836Z</time>
      </trkpt>
      <trkpt lat="46.92474" lon="8.58308">
        <ele>693</ele>
        <time>2021-08-10T11:25:27.836Z</time>
      </trkpt>
      <trkpt lat="46.92473" lon="8.58309">
        <ele>694</ele>
        <time>2021-08-10T11:25:28.835Z</time>
      </trkpt>
      <trkpt lat="46.92472" lon="8.58321">
        <ele>699</ele>
        <time>2021-08-10T11:25:29.836Z</time>
      </trkpt>
      <trkpt lat="46.92471" lon="8.58322">
        <ele>699</ele>
        <time>2021-08-10T11:25:30.836Z</time>
      </trkpt>
      <trkpt lat="46.92471" lon="8.58322">
        <ele>700</ele>
        <time>2021-08-10T11:25:31.835Z</time>
      </trkpt>
      <trkpt lat="46.92472" lon="8.58323">
        <ele>700</ele>
        <time>2021-08-10T11:25:32.835Z</time>
      </trkpt>
      <trkpt lat="46.92473" lon="8.58324">
        <ele>700</ele>
        <time>2021-08-10T11:25:33.835Z</time>
      </trkpt>
      <trkpt lat="46.92472" lon="8.58325">
        <ele>701</ele>
        <time>2021-08-10T11:25:34.836Z</time>
      </trkpt>
      <trkpt lat="46.92472" lon="8.58324">
        <ele>701</ele>
        <time>2021-08-10T11:25:35.836Z</time>
      </trkpt>
      <trkpt lat="46.92471" lon="8.58324">
        <ele>701</ele>
        <time>2021-08-10T11:25:36.835Z</time>
      </trkpt>
      <trkpt lat="46.9247" lon="8.58325">
        <ele>701</ele>
        <time>2021-08-10T11:25:37.835Z</time>
      </trkpt>
      <trkpt lat="46.92468" lon="8.58326">
        <ele>701</ele>
        <time>2021-08-10T11:25:38.836Z</time>
      </trkpt>
      <trkpt lat="46.92468" lon="8.58327">
        <ele>701</ele>
        <time>2021-08-10T11:25:39.836Z</time>
      </trkpt>
      <trkpt lat="46.92468" lon="8.58329">
        <ele>701</ele>
        <time>2021-08-10T11:25:40.836Z</time>
      </trkpt>
      <trkpt lat="46.92468" lon="8.58331">
        <ele>701</ele>
        <time>2021-08-10T11:25:41.836Z</time>
      </trkpt>
      <trkpt lat="46.92469" lon="8.58333">
        <ele>701</ele>
        <time>2021-08-10T11:25:42.835Z</time>
      </trkpt>
      <trkpt lat="46.92469" lon="8.58334">
        <ele>701</ele>
        <time>2021-08-10T11:25:43.836Z</time>
      </trkpt>
      <trkpt lat="46.92469" lon="8.58335">
        <ele>701</ele>
        <time>2021-08-10T11:25:44.835Z</time>
      </trkpt>
      <trkpt lat="46.92469" lon="8.58336">
        <ele>701</ele>
        <time>2021-08-10T11:25:45.835Z</time>
      </trkpt>
      <trkpt lat="46.92469" lon="8.58337">
        <ele>701</ele>
        <time>2021-08-10T11:25:46.836Z</time>
      </trkpt>
      <trkpt lat="46.92469" lon="8.58338">
        <ele>701</ele>
        <time>2021-08-10T11:25:47.836Z</time>
      </trkpt>
      <trkpt lat="46.9247" lon="8.58339">
        <ele>701</ele>
        <time>2021-08-10T11:25:48.835Z</time>
      </trkpt>
      <trkpt lat="46.9247" lon="8.58339">
        <ele>700</ele>
        <time>2021-08-10T11:25:49.835Z</time>
      </trkpt>
      <trkpt lat="46.9247" lon="8.5834">
        <ele>700</ele>
        <time>2021-08-10T11:25:50.836Z</time>
      </trkpt>
      <trkpt lat="46.9247" lon="8.58341">
        <ele>700</ele>
        <time>2021-08-10T11:25:51.836Z</time>
      </trkpt>
      <trkpt lat="46.9247" lon="8.58342">
        <ele>700</ele>
        <time>2021-08-10T11:25:52.837Z</time>
      </trkpt>
      <trkpt lat="46.92471" lon="8.58343">
        <ele>700</ele>
        <time>2021-08-10T11:25:53.836Z</time>
      </trkpt>
      <trkpt lat="46.92471" lon="8.58344">
        <ele>700</ele>
        <time>2021-08-10T11:25:54.836Z</time>
      </trkpt>
      <trkpt lat="46.9247" lon="8.58344">
        <ele>700</ele>
        <time>2021-08-10T11:25:55.837Z</time>
      </trkpt>
      <trkpt lat="46.9247" lon="8.58345">
        <ele>700</ele>
        <time>2021-08-10T11:25:56.837Z</time>
      </trkpt>
      <trkpt lat="46.9247" lon="8.58346">
        <ele>700</ele>
        <time>2021-08-10T11:25:57.836Z</time>
      </trkpt>
      <trkpt lat="46.9247" lon="8.58348">
        <ele>700</ele>
        <time>2021-08-10T11:25:58.837Z</time>
      </trkpt>
      <trkpt lat="46.92469" lon="8.58349">
        <ele>700</ele>
        <time>2021-08-10T11:25:59.837Z</time>
      </trkpt>
      <trkpt lat="46.92469" lon="8.5835">
        <ele>700</ele>
        <time>2021-08-10T11:26:00.837Z</time>
      </trkpt>
      <trkpt lat="46.92469" lon="8.58351">
        <ele>700</ele>
        <time>2021-08-10T11:26:01.837Z</time>
      </trkpt>
      <trkpt lat="46.9247" lon="8.58352">
        <ele>700</ele>
        <time>2021-08-10T11:26:02.837Z</time>
      </trkpt>
      <trkpt lat="46.92469" lon="8.58353">
        <ele>700</ele>
        <time>2021-08-10T11:26:03.837Z</time>
      </trkpt>
      <trkpt lat="46.9247" lon="8.58354">
        <ele>700</ele>
        <time>2021-08-10T11:26:04.837Z</time>
      </trkpt>
      <trkpt lat="46.9247" lon="8.58355">
        <ele>700</ele>
        <time>2021-08-10T11:26:05.836Z</time>
      </trkpt>
      <trkpt lat="46.9247" lon="8.58356">
        <ele>700</ele>
        <time>2021-08-10T11:26:06.836Z</time>
      </trkpt>
      <trkpt lat="46.9247" lon="8.58356">
        <ele>700</ele>
        <time>2021-08-10T11:26:07.837Z</time>
      </trkpt>
      <trkpt lat="46.9247" lon="8.58356">
        <ele>700</ele>
        <time>2021-08-10T11:26:08.837Z</time>
      </trkpt>
      <trkpt lat="46.92469" lon="8.58357">
        <ele>700</ele>
        <time>2021-08-10T11:26:09.836Z</time>
      </trkpt>
      <trkpt lat="46.92469" lon="8.58357">
        <ele>700</ele>
        <time>2021-08-10T11:26:10.837Z</time>
      </trkpt>
      <trkpt lat="46.92469" lon="8.58358">
        <ele>700</ele>
        <time>2021-08-10T11:26:11.837Z</time>
      </trkpt>
      <trkpt lat="46.92469" lon="8.58359">
        <ele>700</ele>
        <time>2021-08-10T11:26:12.837Z</time>
      </trkpt>
      <trkpt lat="46.92469" lon="8.5836">
        <ele>700</ele>
        <time>2021-08-10T11:26:13.837Z</time>
      </trkpt>
      <trkpt lat="46.92469" lon="8.5836">
        <ele>700</ele>
        <time>2021-08-10T11:26:14.837Z</time>
      </trkpt>
      <trkpt lat="46.92469" lon="8.58361">
        <ele>700</ele>
        <time>2021-08-10T11:26:15.836Z</time>
      </trkpt>
      <trkpt lat="46.92469" lon="8.58362">
        <ele>700</ele>
        <time>2021-08-10T11:26:16.836Z</time>
      </trkpt>
      <trkpt lat="46.92469" lon="8.58363">
        <ele>700</ele>
        <time>2021-08-10T11:26:17.836Z</time>
      </trkpt>
      <trkpt lat="46.92469" lon="8.58364">
        <ele>700</ele>
        <time>2021-08-10T11:26:18.837Z</time>
      </trkpt>
      <trkpt lat="46.9247" lon="8.58364">
        <ele>700</ele>
        <time>2021-08-10T11:26:19.836Z</time>
      </trkpt>
      <trkpt lat="46.9247" lon="8.58365">
        <ele>700</ele>
        <time>2021-08-10T11:26:20.837Z</time>
      </trkpt>
      <trkpt lat="46.9247" lon="8.58365">
        <ele>700</ele>
        <time>2021-08-10T11:26:21.837Z</time>
      </trkpt>
      <trkpt lat="46.9247" lon="8.58366">
        <ele>700</ele>
        <time>2021-08-10T11:26:22.836Z</time>
      </trkpt>
      <trkpt lat="46.9247" lon="8.58367">
        <ele>700</ele>
        <time>2021-08-10T11:26:23.837Z</time>
      </trkpt>
      <trkpt lat="46.9247" lon="8.58367">
        <ele>700</ele>
        <time>2021-08-10T11:26:24.837Z</time>
      </trkpt>
      <trkpt lat="46.92469" lon="8.58367">
        <ele>700</ele>
        <time>2021-08-10T11:26:25.837Z</time>
      </trkpt>
      <trkpt lat="46.92469" lon="8.58368">
        <ele>699</ele>
        <time>2021-08-10T11:26:26.837Z</time>
      </trkpt>
      <trkpt lat="46.92468" lon="8.58369">
        <ele>699</ele>
        <time>2021-08-10T11:26:27.836Z</time>
      </trkpt>
      <trkpt lat="46.92469" lon="8.5837">
        <ele>699</ele>
        <time>2021-08-10T11:26:28.837Z</time>
      </trkpt>
      <trkpt lat="46.9247" lon="8.58371">
        <ele>698</ele>
        <time>2021-08-10T11:26:29.836Z</time>
      </trkpt>
      <trkpt lat="46.9247" lon="8.58372">
        <ele>698</ele>
        <time>2021-08-10T11:26:30.836Z</time>
      </trkpt>
      <trkpt lat="46.9247" lon="8.58373">
        <ele>698</ele>
        <time>2021-08-10T11:26:31.837Z</time>
      </trkpt>
      <trkpt lat="46.9247" lon="8.58373">
        <ele>698</ele>
        <time>2021-08-10T11:26:32.837Z</time>
      </trkpt>
      <trkpt lat="46.9247" lon="8.58374">
        <ele>698</ele>
        <time>2021-08-10T11:26:33.837Z</time>
      </trkpt>
      <trkpt lat="46.9247" lon="8.58375">
        <ele>697</ele>
        <time>2021-08-10T11:26:34.837Z</time>
      </trkpt>
      <trkpt lat="46.9247" lon="8.58377">
        <ele>697</ele>
        <time>2021-08-10T11:26:35.837Z</time>
      </trkpt>
      <trkpt lat="46.92469" lon="8.58377">
        <ele>697</ele>
        <time>2021-08-10T11:26:36.837Z</time>
      </trkpt>
      <trkpt lat="46.92468" lon="8.58378">
        <ele>696</ele>
        <time>2021-08-10T11:26:37.837Z</time>
      </trkpt>
      <trkpt lat="46.92468" lon="8.58378">
        <ele>696</ele>
        <time>2021-08-10T11:26:38.837Z</time>
      </trkpt>
      <trkpt lat="46.92467" lon="8.58378">
        <ele>696</ele>
        <time>2021-08-10T11:26:39.836Z</time>
      </trkpt>
      <trkpt lat="46.92467" lon="8.58379">
        <ele>695</ele>
        <time>2021-08-10T11:26:40.837Z</time>
      </trkpt>
      <trkpt lat="46.92467" lon="8.5838">
        <ele>695</ele>
        <time>2021-08-10T11:26:41.836Z</time>
      </trkpt>
      <trkpt lat="46.92468" lon="8.58381">
        <ele>695</ele>
        <time>2021-08-10T11:26:42.837Z</time>
      </trkpt>
      <trkpt lat="46.92469" lon="8.58382">
        <ele>694</ele>
        <time>2021-08-10T11:26:43.837Z</time>
      </trkpt>
      <trkpt lat="46.9247" lon="8.58383">
        <ele>694</ele>
        <time>2021-08-10T11:26:44.837Z</time>
      </trkpt>
      <trkpt lat="46.9247" lon="8.58383">
        <ele>694</ele>
        <time>2021-08-10T11:26:45.836Z</time>
      </trkpt>
      <trkpt lat="46.92469" lon="8.58384">
        <ele>693</ele>
        <time>2021-08-10T11:26:46.837Z</time>
      </trkpt>
      <trkpt lat="46.92469" lon="8.58385">
        <ele>693</ele>
        <time>2021-08-10T11:26:47.837Z</time>
      </trkpt>
      <trkpt lat="46.92469" lon="8.58387">
        <ele>693</ele>
        <time>2021-08-10T11:26:48.836Z</time>
      </trkpt>
      <trkpt lat="46.92469" lon="8.58387">
        <ele>693</ele>
        <time>2021-08-10T11:26:49.836Z</time>
      </trkpt>
      <trkpt lat="46.92468" lon="8.58388">
        <ele>693</ele>
        <time>2021-08-10T11:26:50.837Z</time>
      </trkpt>
      <trkpt lat="46.92468" lon="8.58389">
        <ele>693</ele>
        <time>2021-08-10T11:26:51.836Z</time>
      </trkpt>
      <trkpt lat="46.92467" lon="8.5839">
        <ele>692</ele>
        <time>2021-08-10T11:26:52.837Z</time>
      </trkpt>
      <trkpt lat="46.92466" lon="8.58391">
        <ele>692</ele>
        <time>2021-08-10T11:26:53.837Z</time>
      </trkpt>
      <trkpt lat="46.92466" lon="8.58392">
        <ele>693</ele>
        <time>2021-08-10T11:26:54.837Z</time>
      </trkpt>
      <trkpt lat="46.92466" lon="8.58393">
        <ele>693</ele>
        <time>2021-08-10T11:26:55.837Z</time>
      </trkpt>
      <trkpt lat="46.92466" lon="8.58394">
        <ele>693</ele>
        <time>2021-08-10T11:26:56.837Z</time>
      </trkpt>
      <trkpt lat="46.92465" lon="8.58396">
        <ele>693</ele>
        <time>2021-08-10T11:26:57.836Z</time>
      </trkpt>
      <trkpt lat="46.92465" lon="8.58397">
        <ele>693</ele>
        <time>2021-08-10T11:26:58.837Z</time>
      </trkpt>
      <trkpt lat="46.92465" lon="8.58398">
        <ele>693</ele>
        <time>2021-08-10T11:26:59.836Z</time>
      </trkpt>
      <trkpt lat="46.92466" lon="8.58399">
        <ele>693</ele>
        <time>2021-08-10T11:27:00.837Z</time>
      </trkpt>
      <trkpt lat="46.92466" lon="8.584">
        <ele>693</ele>
        <time>2021-08-10T11:27:01.837Z</time>
      </trkpt>
      <trkpt lat="46.92466" lon="8.58401">
        <ele>693</ele>
        <time>2021-08-10T11:27:02.837Z</time>
      </trkpt>
      <trkpt lat="46.92466" lon="8.58402">
        <ele>693</ele>
        <time>2021-08-10T11:27:03.836Z</time>
      </trkpt>
      <trkpt lat="46.92464" lon="8.58403">
        <ele>693</ele>
        <time>2021-08-10T11:27:04.837Z</time>
      </trkpt>
      <trkpt lat="46.92463" lon="8.58404">
        <ele>693</ele>
        <time>2021-08-10T11:27:05.836Z</time>
      </trkpt>
      <trkpt lat="46.92462" lon="8.58405">
        <ele>693</ele>
        <time>2021-08-10T11:27:06.837Z</time>
      </trkpt>
      <trkpt lat="46.92461" lon="8.58405">
        <ele>693</ele>
        <time>2021-08-10T11:27:07.836Z</time>
      </trkpt>
      <trkpt lat="46.92461" lon="8.58405">
        <ele>692</ele>
        <time>2021-08-10T11:27:08.836Z</time>
      </trkpt>
      <trkpt lat="46.9246" lon="8.58406">
        <ele>692</ele>
        <time>2021-08-10T11:27:09.837Z</time>
      </trkpt>
      <trkpt lat="46.9246" lon="8.58406">
        <ele>692</ele>
        <time>2021-08-10T11:27:10.836Z</time>
      </trkpt>
      <trkpt lat="46.9246" lon="8.58407">
        <ele>691</ele>
        <time>2021-08-10T11:27:11.837Z</time>
      </trkpt>
      <trkpt lat="46.92459" lon="8.58406">
        <ele>691</ele>
        <time>2021-08-10T11:27:12.836Z</time>
      </trkpt>
      <trkpt lat="46.92459" lon="8.58406">
        <ele>691</ele>
        <time>2021-08-10T11:27:13.837Z</time>
      </trkpt>
      <trkpt lat="46.9246" lon="8.58406">
        <ele>691</ele>
        <time>2021-08-10T11:27:14.837Z</time>
      </trkpt>
      <trkpt lat="46.92459" lon="8.58407">
        <ele>691</ele>
        <time>2021-08-10T11:27:15.837Z</time>
      </trkpt>
      <trkpt lat="46.92459" lon="8.58408">
        <ele>691</ele>
        <time>2021-08-10T11:27:16.837Z</time>
      </trkpt>
      <trkpt lat="46.92458" lon="8.58409">
        <ele>691</ele>
        <time>2021-08-10T11:27:17.836Z</time>
      </trkpt>
      <trkpt lat="46.92458" lon="8.5841">
        <ele>691</ele>
        <time>2021-08-10T11:27:18.837Z</time>
      </trkpt>
      <trkpt lat="46.92457" lon="8.58411">
        <ele>691</ele>
        <time>2021-08-10T11:27:19.836Z</time>
      </trkpt>
      <trkpt lat="46.92456" lon="8.58412">
        <ele>690</ele>
        <time>2021-08-10T11:27:20.837Z</time>
      </trkpt>
      <trkpt lat="46.92457" lon="8.58413">
        <ele>690</ele>
        <time>2021-08-10T11:27:21.837Z</time>
      </trkpt>
      <trkpt lat="46.92458" lon="8.58415">
        <ele>690</ele>
        <time>2021-08-10T11:27:22.837Z</time>
      </trkpt>
      <trkpt lat="46.92458" lon="8.58418">
        <ele>691</ele>
        <time>2021-08-10T11:27:23.838Z</time>
      </trkpt>
      <trkpt lat="46.92458" lon="8.58418">
        <ele>691</ele>
        <time>2021-08-10T11:27:24.837Z</time>
      </trkpt>
      <trkpt lat="46.92457" lon="8.58418">
        <ele>691</ele>
        <time>2021-08-10T11:27:25.838Z</time>
      </trkpt>
      <trkpt lat="46.92456" lon="8.58419">
        <ele>691</ele>
        <time>2021-08-10T11:27:26.838Z</time>
      </trkpt>
      <trkpt lat="46.92454" lon="8.58419">
        <ele>691</ele>
        <time>2021-08-10T11:27:27.837Z</time>
      </trkpt>
      <trkpt lat="46.92454" lon="8.5842">
        <ele>691</ele>
        <time>2021-08-10T11:27:28.838Z</time>
      </trkpt>
      <trkpt lat="46.92452" lon="8.58421">
        <ele>691</ele>
        <time>2021-08-10T11:27:29.838Z</time>
      </trkpt>
      <trkpt lat="46.92452" lon="8.58422">
        <ele>691</ele>
        <time>2021-08-10T11:27:30.837Z</time>
      </trkpt>
      <trkpt lat="46.92451" lon="8.58423">
        <ele>691</ele>
        <time>2021-08-10T11:27:31.837Z</time>
      </trkpt>
      <trkpt lat="46.92451" lon="8.58425">
        <ele>691</ele>
        <time>2021-08-10T11:27:32.837Z</time>
      </trkpt>
      <trkpt lat="46.9245" lon="8.58427">
        <ele>691</ele>
        <time>2021-08-10T11:27:33.838Z</time>
      </trkpt>
      <trkpt lat="46.92449" lon="8.58428">
        <ele>690</ele>
        <time>2021-08-10T11:27:34.838Z</time>
      </trkpt>
      <trkpt lat="46.92449" lon="8.58429">
        <ele>690</ele>
        <time>2021-08-10T11:27:35.837Z</time>
      </trkpt>
      <trkpt lat="46.92449" lon="8.5843">
        <ele>690</ele>
        <time>2021-08-10T11:27:36.838Z</time>
      </trkpt>
      <trkpt lat="46.92448" lon="8.58432">
        <ele>690</ele>
        <time>2021-08-10T11:27:37.838Z</time>
      </trkpt>
      <trkpt lat="46.92448" lon="8.58432">
        <ele>690</ele>
        <time>2021-08-10T11:27:38.838Z</time>
      </trkpt>
      <trkpt lat="46.92448" lon="8.58434">
        <ele>690</ele>
        <time>2021-08-10T11:27:39.838Z</time>
      </trkpt>
      <trkpt lat="46.92447" lon="8.58435">
        <ele>690</ele>
        <time>2021-08-10T11:27:40.838Z</time>
      </trkpt>
      <trkpt lat="46.92448" lon="8.58436">
        <ele>690</ele>
        <time>2021-08-10T11:27:41.838Z</time>
      </trkpt>
      <trkpt lat="46.92448" lon="8.58438">
        <ele>690</ele>
        <time>2021-08-10T11:27:42.838Z</time>
      </trkpt>
      <trkpt lat="46.92449" lon="8.58439">
        <ele>689</ele>
        <time>2021-08-10T11:27:43.837Z</time>
      </trkpt>
      <trkpt lat="46.9245" lon="8.5844">
        <ele>689</ele>
        <time>2021-08-10T11:27:44.838Z</time>
      </trkpt>
      <trkpt lat="46.92449" lon="8.58442">
        <ele>689</ele>
        <time>2021-08-10T11:27:45.838Z</time>
      </trkpt>
      <trkpt lat="46.92446" lon="8.58444">
        <ele>689</ele>
        <time>2021-08-10T11:27:46.837Z</time>
      </trkpt>
      <trkpt lat="46.92443" lon="8.58445">
        <ele>689</ele>
        <time>2021-08-10T11:27:47.837Z</time>
      </trkpt>
      <trkpt lat="46.9244" lon="8.58446">
        <ele>689</ele>
        <time>2021-08-10T11:27:48.838Z</time>
      </trkpt>
      <trkpt lat="46.92438" lon="8.58447">
        <ele>689</ele>
        <time>2021-08-10T11:27:49.838Z</time>
      </trkpt>
      <trkpt lat="46.92435" lon="8.58449">
        <ele>689</ele>
        <time>2021-08-10T11:27:51.837Z</time>
      </trkpt>
      <trkpt lat="46.92434" lon="8.58449">
        <ele>689</ele>
        <time>2021-08-10T11:27:52.838Z</time>
      </trkpt>
      <trkpt lat="46.92432" lon="8.58449">
        <ele>689</ele>
        <time>2021-08-10T11:27:53.837Z</time>
      </trkpt>
      <trkpt lat="46.92433" lon="8.58449">
        <ele>689</ele>
        <time>2021-08-10T11:27:54.837Z</time>
      </trkpt>
      <trkpt lat="46.92433" lon="8.58448">
        <ele>689</ele>
        <time>2021-08-10T11:27:55.838Z</time>
      </trkpt>
      <trkpt lat="46.92433" lon="8.58448">
        <ele>689</ele>
        <time>2021-08-10T11:27:56.837Z</time>
      </trkpt>
      <trkpt lat="46.92433" lon="8.58448">
        <ele>689</ele>
        <time>2021-08-10T11:27:57.837Z</time>
      </trkpt>
      <trkpt lat="46.92432" lon="8.58449">
        <ele>689</ele>
        <time>2021-08-10T11:27:58.838Z</time>
      </trkpt>
      <trkpt lat="46.92432" lon="8.5845">
        <ele>689</ele>
        <time>2021-08-10T11:27:59.838Z</time>
      </trkpt>
      <trkpt lat="46.92431" lon="8.58452">
        <ele>689</ele>
        <time>2021-08-10T11:28:00.837Z</time>
      </trkpt>
      <trkpt lat="46.9243" lon="8.58454">
        <ele>689</ele>
        <time>2021-08-10T11:28:01.837Z</time>
      </trkpt>
      <trkpt lat="46.92429" lon="8.58455">
        <ele>689</ele>
        <time>2021-08-10T11:28:02.837Z</time>
      </trkpt>
      <trkpt lat="46.92429" lon="8.58456">
        <ele>689</ele>
        <time>2021-08-10T11:28:03.837Z</time>
      </trkpt>
      <trkpt lat="46.92428" lon="8.58457">
        <ele>689</ele>
        <time>2021-08-10T11:28:04.837Z</time>
      </trkpt>
      <trkpt lat="46.92428" lon="8.58458">
        <ele>688</ele>
        <time>2021-08-10T11:28:05.838Z</time>
      </trkpt>
      <trkpt lat="46.92427" lon="8.58458">
        <ele>688</ele>
        <time>2021-08-10T11:28:06.838Z</time>
      </trkpt>
      <trkpt lat="46.92428" lon="8.58459">
        <ele>688</ele>
        <time>2021-08-10T11:28:07.838Z</time>
      </trkpt>
      <trkpt lat="46.92428" lon="8.5846">
        <ele>688</ele>
        <time>2021-08-10T11:28:08.838Z</time>
      </trkpt>
      <trkpt lat="46.92428" lon="8.5846">
        <ele>688</ele>
        <time>2021-08-10T11:28:09.838Z</time>
      </trkpt>
      <trkpt lat="46.92428" lon="8.5846">
        <ele>688</ele>
        <time>2021-08-10T11:28:10.838Z</time>
      </trkpt>
      <trkpt lat="46.92427" lon="8.5846">
        <ele>688</ele>
        <time>2021-08-10T11:28:11.838Z</time>
      </trkpt>
      <trkpt lat="46.92427" lon="8.58461">
        <ele>688</ele>
        <time>2021-08-10T11:28:12.838Z</time>
      </trkpt>
      <trkpt lat="46.92427" lon="8.58461">
        <ele>688</ele>
        <time>2021-08-10T11:28:13.838Z</time>
      </trkpt>
      <trkpt lat="46.92425" lon="8.58461">
        <ele>687</ele>
        <time>2021-08-10T11:28:14.838Z</time>
      </trkpt>
      <trkpt lat="46.92424" lon="8.58463">
        <ele>687</ele>
        <time>2021-08-10T11:28:15.837Z</time>
      </trkpt>
      <trkpt lat="46.92424" lon="8.58465">
        <ele>687</ele>
        <time>2021-08-10T11:28:16.838Z</time>
      </trkpt>
      <trkpt lat="46.92423" lon="8.58467">
        <ele>687</ele>
        <time>2021-08-10T11:28:17.837Z</time>
      </trkpt>
      <trkpt lat="46.92422" lon="8.58469">
        <ele>687</ele>
        <time>2021-08-10T11:28:18.837Z</time>
      </trkpt>
      <trkpt lat="46.92421" lon="8.58471">
        <ele>687</ele>
        <time>2021-08-10T11:28:19.838Z</time>
      </trkpt>
      <trkpt lat="46.92421" lon="8.58472">
        <ele>687</ele>
        <time>2021-08-10T11:28:20.838Z</time>
      </trkpt>
      <trkpt lat="46.92421" lon="8.58472">
        <ele>687</ele>
        <time>2021-08-10T11:28:26.020Z</time>
      </trkpt>
      <trkpt lat="46.92421" lon="8.58472">
        <ele>687</ele>
        <time>2021-08-10T11:28:27.020Z</time>
      </trkpt>
      <trkpt lat="46.92421" lon="8.58472">
        <ele>687</ele>
        <time>2021-08-10T11:28:28.022Z</time>
      </trkpt>
      <trkpt lat="46.9242" lon="8.58472">
        <ele>687</ele>
        <time>2021-08-10T11:28:29.022Z</time>
      </trkpt>
      <trkpt lat="46.92419" lon="8.58473">
        <ele>687</ele>
        <time>2021-08-10T11:28:30.022Z</time>
      </trkpt>
      <trkpt lat="46.92417" lon="8.58473">
        <ele>688</ele>
        <time>2021-08-10T11:28:31.021Z</time>
      </trkpt>
      <trkpt lat="46.92416" lon="8.58473">
        <ele>688</ele>
        <time>2021-08-10T11:28:32.022Z</time>
      </trkpt>
      <trkpt lat="46.92414" lon="8.58473">
        <ele>688</ele>
        <time>2021-08-10T11:28:33.022Z</time>
      </trkpt>
      <trkpt lat="46.92413" lon="8.58472">
        <ele>688</ele>
        <time>2021-08-10T11:28:34.021Z</time>
      </trkpt>
      <trkpt lat="46.92411" lon="8.58472">
        <ele>688</ele>
        <time>2021-08-10T11:28:35.021Z</time>
      </trkpt>
      <trkpt lat="46.9241" lon="8.58472">
        <ele>687</ele>
        <time>2021-08-10T11:28:36.021Z</time>
      </trkpt>
      <trkpt lat="46.92408" lon="8.58472">
        <ele>687</ele>
        <time>2021-08-10T11:28:37.022Z</time>
      </trkpt>
      <trkpt lat="46.92407" lon="8.58473">
        <ele>687</ele>
        <time>2021-08-10T11:28:38.022Z</time>
      </trkpt>
      <trkpt lat="46.92405" lon="8.58473">
        <ele>687</ele>
        <time>2021-08-10T11:28:39.021Z</time>
      </trkpt>
      <trkpt lat="46.92405" lon="8.58473">
        <ele>687</ele>
        <time>2021-08-10T11:28:40.022Z</time>
      </trkpt>
      <trkpt lat="46.92407" lon="8.58475">
        <ele>687</ele>
        <time>2021-08-10T11:28:41.021Z</time>
      </trkpt>
      <trkpt lat="46.92407" lon="8.58475">
        <ele>687</ele>
        <time>2021-08-10T11:28:42.022Z</time>
      </trkpt>
      <trkpt lat="46.92406" lon="8.58473">
        <ele>687</ele>
        <time>2021-08-10T11:28:43.021Z</time>
      </trkpt>
      <trkpt lat="46.92409" lon="8.58471">
        <ele>688</ele>
        <time>2021-08-10T11:28:44.022Z</time>
      </trkpt>
      <trkpt lat="46.92411" lon="8.5847">
        <ele>688</ele>
        <time>2021-08-10T11:28:45.021Z</time>
      </trkpt>
      <trkpt lat="46.92414" lon="8.5847">
        <ele>688</ele>
        <time>2021-08-10T11:28:46.021Z</time>
      </trkpt>
      <trkpt lat="46.92415" lon="8.58472">
        <ele>688</ele>
        <time>2021-08-10T11:28:47.022Z</time>
      </trkpt>
      <trkpt lat="46.92417" lon="8.58475">
        <ele>688</ele>
        <time>2021-08-10T11:28:48.022Z</time>
      </trkpt>
      <trkpt lat="46.92417" lon="8.58476">
        <ele>688</ele>
        <time>2021-08-10T11:28:49.021Z</time>
      </trkpt>
      <trkpt lat="46.92414" lon="8.58478">
        <ele>688</ele>
        <time>2021-08-10T11:28:50.021Z</time>
      </trkpt>
      <trkpt lat="46.92414" lon="8.58478">
        <ele>688</ele>
        <time>2021-08-10T11:28:51.021Z</time>
      </trkpt>
      <trkpt lat="46.92415" lon="8.58478">
        <ele>688</ele>
        <time>2021-08-10T11:28:52.022Z</time>
      </trkpt>
      <trkpt lat="46.92415" lon="8.58478">
        <ele>688</ele>
        <time>2021-08-10T11:28:53.021Z</time>
      </trkpt>
      <trkpt lat="46.92415" lon="8.58479">
        <ele>688</ele>
        <time>2021-08-10T11:28:54.022Z</time>
      </trkpt>
      <trkpt lat="46.92413" lon="8.5848">
        <ele>688</ele>
        <time>2021-08-10T11:28:55.021Z</time>
      </trkpt>
      <trkpt lat="46.9241" lon="8.58482">
        <ele>688</ele>
        <time>2021-08-10T11:28:56.022Z</time>
      </trkpt>
      <trkpt lat="46.9241" lon="8.58483">
        <ele>688</ele>
        <time>2021-08-10T11:28:57.022Z</time>
      </trkpt>
      <trkpt lat="46.9241" lon="8.58484">
        <ele>688</ele>
        <time>2021-08-10T11:28:58.021Z</time>
      </trkpt>
      <trkpt lat="46.92411" lon="8.58484">
        <ele>688</ele>
        <time>2021-08-10T11:28:59.021Z</time>
      </trkpt>
      <trkpt lat="46.92412" lon="8.58485">
        <ele>688</ele>
        <time>2021-08-10T11:29:00.021Z</time>
      </trkpt>
      <trkpt lat="46.92414" lon="8.58484">
        <ele>687</ele>
        <time>2021-08-10T11:29:01.022Z</time>
      </trkpt>
      <trkpt lat="46.92414" lon="8.58484">
        <ele>687</ele>
        <time>2021-08-10T11:29:02.021Z</time>
      </trkpt>
      <trkpt lat="46.92415" lon="8.58485">
        <ele>687</ele>
        <time>2021-08-10T11:29:03.021Z</time>
      </trkpt>
      <trkpt lat="46.92417" lon="8.58485">
        <ele>686</ele>
        <time>2021-08-10T11:29:04.021Z</time>
      </trkpt>
      <trkpt lat="46.92418" lon="8.58486">
        <ele>686</ele>
        <time>2021-08-10T11:29:05.022Z</time>
      </trkpt>
      <trkpt lat="46.92419" lon="8.58487">
        <ele>686</ele>
        <time>2021-08-10T11:29:06.022Z</time>
      </trkpt>
      <trkpt lat="46.9242" lon="8.58488">
        <ele>685</ele>
        <time>2021-08-10T11:29:07.022Z</time>
      </trkpt>
      <trkpt lat="46.92422" lon="8.5849">
        <ele>685</ele>
        <time>2021-08-10T11:29:08.022Z</time>
      </trkpt>
      <trkpt lat="46.92422" lon="8.58491">
        <ele>685</ele>
        <time>2021-08-10T11:29:09.022Z</time>
      </trkpt>
      <trkpt lat="46.92422" lon="8.58493">
        <ele>685</ele>
        <time>2021-08-10T11:29:10.021Z</time>
      </trkpt>
      <trkpt lat="46.92422" lon="8.58495">
        <ele>685</ele>
        <time>2021-08-10T11:29:11.022Z</time>
      </trkpt>
      <trkpt lat="46.92422" lon="8.58497">
        <ele>685</ele>
        <time>2021-08-10T11:29:12.022Z</time>
      </trkpt>
      <trkpt lat="46.92424" lon="8.58499">
        <ele>685</ele>
        <time>2021-08-10T11:29:13.022Z</time>
      </trkpt>
      <trkpt lat="46.92425" lon="8.585">
        <ele>685</ele>
        <time>2021-08-10T11:29:14.022Z</time>
      </trkpt>
      <trkpt lat="46.92426" lon="8.58502">
        <ele>685</ele>
        <time>2021-08-10T11:29:15.022Z</time>
      </trkpt>
      <trkpt lat="46.92428" lon="8.58504">
        <ele>685</ele>
        <time>2021-08-10T11:29:16.022Z</time>
      </trkpt>
      <trkpt lat="46.9243" lon="8.58505">
        <ele>685</ele>
        <time>2021-08-10T11:29:17.021Z</time>
      </trkpt>
      <trkpt lat="46.9243" lon="8.58507">
        <ele>685</ele>
        <time>2021-08-10T11:29:18.022Z</time>
      </trkpt>
      <trkpt lat="46.9243" lon="8.58509">
        <ele>685</ele>
        <time>2021-08-10T11:29:19.022Z</time>
      </trkpt>
      <trkpt lat="46.9243" lon="8.5851">
        <ele>685</ele>
        <time>2021-08-10T11:29:20.021Z</time>
      </trkpt>
      <trkpt lat="46.92431" lon="8.58511">
        <ele>684</ele>
        <time>2021-08-10T11:29:21.022Z</time>
      </trkpt>
      <trkpt lat="46.92431" lon="8.58511">
        <ele>684</ele>
        <time>2021-08-10T11:29:22.022Z</time>
      </trkpt>
      <trkpt lat="46.92432" lon="8.58512">
        <ele>684</ele>
        <time>2021-08-10T11:29:23.022Z</time>
      </trkpt>
      <trkpt lat="46.92431" lon="8.58513">
        <ele>684</ele>
        <time>2021-08-10T11:29:24.022Z</time>
      </trkpt>
      <trkpt lat="46.9243" lon="8.58514">
        <ele>684</ele>
        <time>2021-08-10T11:29:25.022Z</time>
      </trkpt>
      <trkpt lat="46.9243" lon="8.58515">
        <ele>683</ele>
        <time>2021-08-10T11:29:26.021Z</time>
      </trkpt>
      <trkpt lat="46.9243" lon="8.58516">
        <ele>683</ele>
        <time>2021-08-10T11:29:27.022Z</time>
      </trkpt>
      <trkpt lat="46.92431" lon="8.58517">
        <ele>683</ele>
        <time>2021-08-10T11:29:28.022Z</time>
      </trkpt>
      <trkpt lat="46.92432" lon="8.58518">
        <ele>684</ele>
        <time>2021-08-10T11:29:29.022Z</time>
      </trkpt>
      <trkpt lat="46.92432" lon="8.58519">
        <ele>684</ele>
        <time>2021-08-10T11:29:36.156Z</time>
      </trkpt>
      <trkpt lat="46.92432" lon="8.58519">
        <ele>685</ele>
        <time>2021-08-10T11:29:37.155Z</time>
      </trkpt>
      <trkpt lat="46.92433" lon="8.5852">
        <ele>686</ele>
        <time>2021-08-10T11:29:38.155Z</time>
      </trkpt>
      <trkpt lat="46.92434" lon="8.58521">
        <ele>686</ele>
        <time>2021-08-10T11:29:39.156Z</time>
      </trkpt>
      <trkpt lat="46.92433" lon="8.58522">
        <ele>686</ele>
        <time>2021-08-10T11:29:40.155Z</time>
      </trkpt>
      <trkpt lat="46.92433" lon="8.58523">
        <ele>687</ele>
        <time>2021-08-10T11:29:41.156Z</time>
      </trkpt>
      <trkpt lat="46.92431" lon="8.58525">
        <ele>687</ele>
        <time>2021-08-10T11:29:43.206Z</time>
      </trkpt>
      <trkpt lat="46.9243" lon="8.58525">
        <ele>687</ele>
        <time>2021-08-10T11:29:44.205Z</time>
      </trkpt>
      <trkpt lat="46.92429" lon="8.58526">
        <ele>687</ele>
        <time>2021-08-10T11:29:45.205Z</time>
      </trkpt>
      <trkpt lat="46.92427" lon="8.58528">
        <ele>687</ele>
        <time>2021-08-10T11:29:46.206Z</time>
      </trkpt>
      <trkpt lat="46.92425" lon="8.58529">
        <ele>687</ele>
        <time>2021-08-10T11:29:47.206Z</time>
      </trkpt>
      <trkpt lat="46.92423" lon="8.58529">
        <ele>688</ele>
        <time>2021-08-10T11:29:48.206Z</time>
      </trkpt>
      <trkpt lat="46.92422" lon="8.58528">
        <ele>688</ele>
        <time>2021-08-10T11:29:49.205Z</time>
      </trkpt>
      <trkpt lat="46.92421" lon="8.58528">
        <ele>688</ele>
        <time>2021-08-10T11:29:50.206Z</time>
      </trkpt>
      <trkpt lat="46.9242" lon="8.58528">
        <ele>688</ele>
        <time>2021-08-10T11:29:51.206Z</time>
      </trkpt>
      <trkpt lat="46.92419" lon="8.58529">
        <ele>688</ele>
        <time>2021-08-10T11:29:52.206Z</time>
      </trkpt>
      <trkpt lat="46.92416" lon="8.5853">
        <ele>689</ele>
        <time>2021-08-10T11:29:53.206Z</time>
      </trkpt>
      <trkpt lat="46.92416" lon="8.58532">
        <ele>689</ele>
        <time>2021-08-10T11:29:54.206Z</time>
      </trkpt>
      <trkpt lat="46.92416" lon="8.58533">
        <ele>689</ele>
        <time>2021-08-10T11:29:55.206Z</time>
      </trkpt>
      <trkpt lat="46.92416" lon="8.58534">
        <ele>690</ele>
        <time>2021-08-10T11:29:56.205Z</time>
      </trkpt>
      <trkpt lat="46.92417" lon="8.58534">
        <ele>690</ele>
        <time>2021-08-10T11:29:57.206Z</time>
      </trkpt>
      <trkpt lat="46.92417" lon="8.58535">
        <ele>690</ele>
        <time>2021-08-10T11:29:58.206Z</time>
      </trkpt>
      <trkpt lat="46.92417" lon="8.58535">
        <ele>690</ele>
        <time>2021-08-10T11:29:59.206Z</time>
      </trkpt>
      <trkpt lat="46.92417" lon="8.58536">
        <ele>690</ele>
        <time>2021-08-10T11:30:00.205Z</time>
      </trkpt>
      <trkpt lat="46.92418" lon="8.58536">
        <ele>690</ele>
        <time>2021-08-10T11:30:01.205Z</time>
      </trkpt>
      <trkpt lat="46.92417" lon="8.58537">
        <ele>690</ele>
        <time>2021-08-10T11:30:02.206Z</time>
      </trkpt>
      <trkpt lat="46.92416" lon="8.58538">
        <ele>690</ele>
        <time>2021-08-10T11:30:03.205Z</time>
      </trkpt>
      <trkpt lat="46.92416" lon="8.58539">
        <ele>691</ele>
        <time>2021-08-10T11:30:07.245Z</time>
      </trkpt>
      <trkpt lat="46.92415" lon="8.5854">
        <ele>691</ele>
        <time>2021-08-10T11:30:13.117Z</time>
      </trkpt>
      <trkpt lat="46.92414" lon="8.58541">
        <ele>691</ele>
        <time>2021-08-10T11:30:14.117Z</time>
      </trkpt>
      <trkpt lat="46.92413" lon="8.58541">
        <ele>690</ele>
        <time>2021-08-10T11:30:15.117Z</time>
      </trkpt>
      <trkpt lat="46.92413" lon="8.58542">
        <ele>690</ele>
        <time>2021-08-10T11:30:16.117Z</time>
      </trkpt>
      <trkpt lat="46.92412" lon="8.58541">
        <ele>690</ele>
        <time>2021-08-10T11:30:17.117Z</time>
      </trkpt>
      <trkpt lat="46.92411" lon="8.58541">
        <ele>690</ele>
        <time>2021-08-10T11:30:18.116Z</time>
      </trkpt>
      <trkpt lat="46.92411" lon="8.58541">
        <ele>689</ele>
        <time>2021-08-10T11:30:19.117Z</time>
      </trkpt>
      <trkpt lat="46.9241" lon="8.58541">
        <ele>689</ele>
        <time>2021-08-10T11:30:22.097Z</time>
      </trkpt>
      <trkpt lat="46.9241" lon="8.58541">
        <ele>689</ele>
        <time>2021-08-10T11:30:23.097Z</time>
      </trkpt>
      <trkpt lat="46.9241" lon="8.58541">
        <ele>689</ele>
        <time>2021-08-10T11:30:24.098Z</time>
      </trkpt>
      <trkpt lat="46.9241" lon="8.58542">
        <ele>689</ele>
        <time>2021-08-10T11:30:25.098Z</time>
      </trkpt>
      <trkpt lat="46.9241" lon="8.58542">
        <ele>689</ele>
        <time>2021-08-10T11:30:26.098Z</time>
      </trkpt>
      <trkpt lat="46.9241" lon="8.58542">
        <ele>689</ele>
        <time>2021-08-10T11:30:27.098Z</time>
      </trkpt>
      <trkpt lat="46.9241" lon="8.58542">
        <ele>689</ele>
        <time>2021-08-10T11:30:28.098Z</time>
      </trkpt>
      <trkpt lat="46.92411" lon="8.58542">
        <ele>689</ele>
        <time>2021-08-10T11:30:29.098Z</time>
      </trkpt>
      <trkpt lat="46.9241" lon="8.58543">
        <ele>689</ele>
        <time>2021-08-10T11:30:30.098Z</time>
      </trkpt>
      <trkpt lat="46.92409" lon="8.58543">
        <ele>689</ele>
        <time>2021-08-10T11:30:31.098Z</time>
      </trkpt>
      <trkpt lat="46.92408" lon="8.58543">
        <ele>689</ele>
        <time>2021-08-10T11:30:32.098Z</time>
      </trkpt>
      <trkpt lat="46.92409" lon="8.58542">
        <ele>690</ele>
        <time>2021-08-10T11:30:33.098Z</time>
      </trkpt>
      <trkpt lat="46.92409" lon="8.58542">
        <ele>690</ele>
        <time>2021-08-10T11:30:34.098Z</time>
      </trkpt>
      <trkpt lat="46.92409" lon="8.58542">
        <ele>690</ele>
        <time>2021-08-10T11:30:35.098Z</time>
      </trkpt>
      <trkpt lat="46.92408" lon="8.58542">
        <ele>690</ele>
        <time>2021-08-10T11:30:36.097Z</time>
      </trkpt>
      <trkpt lat="46.92407" lon="8.58541">
        <ele>690</ele>
        <time>2021-08-10T11:30:37.097Z</time>
      </trkpt>
      <trkpt lat="46.92407" lon="8.58542">
        <ele>690</ele>
        <time>2021-08-10T11:30:38.097Z</time>
      </trkpt>
      <trkpt lat="46.92407" lon="8.58542">
        <ele>690</ele>
        <time>2021-08-10T11:30:39.098Z</time>
      </trkpt>
      <trkpt lat="46.92405" lon="8.58542">
        <ele>690</ele>
        <time>2021-08-10T11:30:40.099Z</time>
      </trkpt>
      <trkpt lat="46.92405" lon="8.58541">
        <ele>690</ele>
        <time>2021-08-10T11:30:41.098Z</time>
      </trkpt>
      <trkpt lat="46.92405" lon="8.58541">
        <ele>690</ele>
        <time>2021-08-10T11:30:42.098Z</time>
      </trkpt>
      <trkpt lat="46.92405" lon="8.5854">
        <ele>690</ele>
        <time>2021-08-10T11:30:43.099Z</time>
      </trkpt>
      <trkpt lat="46.92405" lon="8.5854">
        <ele>690</ele>
        <time>2021-08-10T11:30:44.099Z</time>
      </trkpt>
      <trkpt lat="46.92406" lon="8.58539">
        <ele>690</ele>
        <time>2021-08-10T11:30:45.099Z</time>
      </trkpt>
      <trkpt lat="46.92407" lon="8.58538">
        <ele>691</ele>
        <time>2021-08-10T11:30:46.099Z</time>
      </trkpt>
      <trkpt lat="46.92407" lon="8.58537">
        <ele>691</ele>
        <time>2021-08-10T11:30:47.099Z</time>
      </trkpt>
      <trkpt lat="46.92407" lon="8.58536">
        <ele>691</ele>
        <time>2021-08-10T11:30:48.099Z</time>
      </trkpt>
      <trkpt lat="46.92408" lon="8.58535">
        <ele>691</ele>
        <time>2021-08-10T11:30:49.099Z</time>
      </trkpt>
      <trkpt lat="46.92408" lon="8.58535">
        <ele>691</ele>
        <time>2021-08-10T11:30:50.099Z</time>
      </trkpt>
      <trkpt lat="46.92409" lon="8.58536">
        <ele>691</ele>
        <time>2021-08-10T11:30:58.169Z</time>
      </trkpt>
      <trkpt lat="46.92409" lon="8.58535">
        <ele>691</ele>
        <time>2021-08-10T11:30:59.169Z</time>
      </trkpt>
      <trkpt lat="46.92409" lon="8.58535">
        <ele>691</ele>
        <time>2021-08-10T11:31:00.169Z</time>
      </trkpt>
      <trkpt lat="46.9241" lon="8.58535">
        <ele>691</ele>
        <time>2021-08-10T11:31:01.168Z</time>
      </trkpt>
      <trkpt lat="46.92411" lon="8.58534">
        <ele>691</ele>
        <time>2021-08-10T11:31:02.169Z</time>
      </trkpt>
      <trkpt lat="46.92412" lon="8.58534">
        <ele>691</ele>
        <time>2021-08-10T11:31:03.169Z</time>
      </trkpt>
      <trkpt lat="46.92413" lon="8.58534">
        <ele>692</ele>
        <time>2021-08-10T11:31:04.169Z</time>
      </trkpt>
      <trkpt lat="46.92414" lon="8.58534">
        <ele>692</ele>
        <time>2021-08-10T11:31:05.169Z</time>
      </trkpt>
      <trkpt lat="46.92414" lon="8.58534">
        <ele>692</ele>
        <time>2021-08-10T11:31:06.169Z</time>
      </trkpt>
      <trkpt lat="46.92414" lon="8.58534">
        <ele>692</ele>
        <time>2021-08-10T11:31:07.168Z</time>
      </trkpt>
      <trkpt lat="46.92415" lon="8.58532">
        <ele>692</ele>
        <time>2021-08-10T11:31:08.169Z</time>
      </trkpt>
      <trkpt lat="46.92416" lon="8.58531">
        <ele>692</ele>
        <time>2021-08-10T11:31:09.169Z</time>
      </trkpt>
      <trkpt lat="46.92416" lon="8.58529">
        <ele>693</ele>
        <time>2021-08-10T11:31:10.168Z</time>
      </trkpt>
      <trkpt lat="46.92416" lon="8.58529">
        <ele>693</ele>
        <time>2021-08-10T11:31:11.168Z</time>
      </trkpt>
      <trkpt lat="46.92416" lon="8.58528">
        <ele>693</ele>
        <time>2021-08-10T11:31:12.169Z</time>
      </trkpt>
      <trkpt lat="46.92415" lon="8.58528">
        <ele>693</ele>
        <time>2021-08-10T11:31:13.169Z</time>
      </trkpt>
      <trkpt lat="46.92414" lon="8.58529">
        <ele>693</ele>
        <time>2021-08-10T11:31:14.169Z</time>
      </trkpt>
      <trkpt lat="46.92413" lon="8.5853">
        <ele>693</ele>
        <time>2021-08-10T11:31:15.169Z</time>
      </trkpt>
      <trkpt lat="46.92412" lon="8.5853">
        <ele>694</ele>
        <time>2021-08-10T11:31:16.169Z</time>
      </trkpt>
      <trkpt lat="46.92411" lon="8.5853">
        <ele>694</ele>
        <time>2021-08-10T11:31:17.169Z</time>
      </trkpt>
      <trkpt lat="46.9241" lon="8.5853">
        <ele>694</ele>
        <time>2021-08-10T11:31:18.169Z</time>
      </trkpt>
      <trkpt lat="46.92409" lon="8.5853">
        <ele>694</ele>
        <time>2021-08-10T11:31:19.168Z</time>
      </trkpt>
      <trkpt lat="46.92409" lon="8.58531">
        <ele>694</ele>
        <time>2021-08-10T11:31:20.169Z</time>
      </trkpt>
      <trkpt lat="46.92409" lon="8.58531">
        <ele>694</ele>
        <time>2021-08-10T11:31:21.168Z</time>
      </trkpt>
      <trkpt lat="46.92409" lon="8.58531">
        <ele>694</ele>
        <time>2021-08-10T11:31:22.169Z</time>
      </trkpt>
      <trkpt lat="46.92408" lon="8.58531">
        <ele>694</ele>
        <time>2021-08-10T11:31:23.170Z</time>
      </trkpt>
      <trkpt lat="46.92407" lon="8.58531">
        <ele>693</ele>
        <time>2021-08-10T11:31:24.169Z</time>
      </trkpt>
      <trkpt lat="46.92407" lon="8.58531">
        <ele>693</ele>
        <time>2021-08-10T11:31:25.169Z</time>
      </trkpt>
      <trkpt lat="46.92406" lon="8.58531">
        <ele>693</ele>
        <time>2021-08-10T11:31:26.170Z</time>
      </trkpt>
      <trkpt lat="46.92405" lon="8.58531">
        <ele>693</ele>
        <time>2021-08-10T11:31:27.170Z</time>
      </trkpt>
      <trkpt lat="46.92405" lon="8.58531">
        <ele>693</ele>
        <time>2021-08-10T11:31:28.169Z</time>
      </trkpt>
      <trkpt lat="46.92405" lon="8.58532">
        <ele>693</ele>
        <time>2021-08-10T11:31:29.170Z</time>
      </trkpt>
      <trkpt lat="46.92405" lon="8.58532">
        <ele>693</ele>
        <time>2021-08-10T11:31:30.170Z</time>
      </trkpt>
      <trkpt lat="46.92405" lon="8.58534">
        <ele>693</ele>
        <time>2021-08-10T11:31:31.170Z</time>
      </trkpt>
      <trkpt lat="46.92404" lon="8.58535">
        <ele>693</ele>
        <time>2021-08-10T11:31:32.169Z</time>
      </trkpt>
      <trkpt lat="46.92402" lon="8.58536">
        <ele>693</ele>
        <time>2021-08-10T11:31:33.170Z</time>
      </trkpt>
      <trkpt lat="46.92401" lon="8.58538">
        <ele>693</ele>
        <time>2021-08-10T11:31:34.170Z</time>
      </trkpt>
      <trkpt lat="46.92401" lon="8.58538">
        <ele>692</ele>
        <time>2021-08-10T11:31:35.170Z</time>
      </trkpt>
      <trkpt lat="46.92401" lon="8.58538">
        <ele>692</ele>
        <time>2021-08-10T11:31:36.169Z</time>
      </trkpt>
      <trkpt lat="46.92399" lon="8.58537">
        <ele>692</ele>
        <time>2021-08-10T11:31:37.170Z</time>
      </trkpt>
      <trkpt lat="46.92399" lon="8.58538">
        <ele>692</ele>
        <time>2021-08-10T11:31:38.171Z</time>
      </trkpt>
      <trkpt lat="46.92399" lon="8.58538">
        <ele>692</ele>
        <time>2021-08-10T11:31:39.170Z</time>
      </trkpt>
      <trkpt lat="46.92399" lon="8.58538">
        <ele>692</ele>
        <time>2021-08-10T11:31:40.170Z</time>
      </trkpt>
      <trkpt lat="46.92399" lon="8.58539">
        <ele>692</ele>
        <time>2021-08-10T11:31:41.171Z</time>
      </trkpt>
      <trkpt lat="46.92398" lon="8.5854">
        <ele>692</ele>
        <time>2021-08-10T11:31:42.171Z</time>
      </trkpt>
      <trkpt lat="46.92398" lon="8.5854">
        <ele>692</ele>
        <time>2021-08-10T11:31:43.170Z</time>
      </trkpt>
      <trkpt lat="46.92399" lon="8.58538">
        <ele>693</ele>
        <time>2021-08-10T11:31:44.170Z</time>
      </trkpt>
      <trkpt lat="46.92398" lon="8.58539">
        <ele>693</ele>
        <time>2021-08-10T11:31:45.170Z</time>
      </trkpt>
      <trkpt lat="46.92398" lon="8.5854">
        <ele>693</ele>
        <time>2021-08-10T11:31:46.170Z</time>
      </trkpt>
      <trkpt lat="46.92397" lon="8.5854">
        <ele>693</ele>
        <time>2021-08-10T11:31:47.171Z</time>
      </trkpt>
      <trkpt lat="46.92397" lon="8.58541">
        <ele>693</ele>
        <time>2021-08-10T11:31:48.170Z</time>
      </trkpt>
      <trkpt lat="46.92398" lon="8.58541">
        <ele>693</ele>
        <time>2021-08-10T11:31:49.171Z</time>
      </trkpt>
      <trkpt lat="46.92397" lon="8.58543">
        <ele>693</ele>
        <time>2021-08-10T11:31:50.170Z</time>
      </trkpt>
      <trkpt lat="46.92397" lon="8.58545">
        <ele>693</ele>
        <time>2021-08-10T11:31:51.170Z</time>
      </trkpt>
      <trkpt lat="46.92397" lon="8.58546">
        <ele>693</ele>
        <time>2021-08-10T11:31:52.170Z</time>
      </trkpt>
      <trkpt lat="46.92397" lon="8.58547">
        <ele>693</ele>
        <time>2021-08-10T11:31:53.170Z</time>
      </trkpt>
      <trkpt lat="46.92396" lon="8.58548">
        <ele>693</ele>
        <time>2021-08-10T11:31:54.170Z</time>
      </trkpt>
      <trkpt lat="46.92396" lon="8.58546">
        <ele>693</ele>
        <time>2021-08-10T11:31:55.170Z</time>
      </trkpt>
      <trkpt lat="46.92396" lon="8.58545">
        <ele>693</ele>
        <time>2021-08-10T11:31:56.170Z</time>
      </trkpt>
      <trkpt lat="46.92395" lon="8.58543">
        <ele>694</ele>
        <time>2021-08-10T11:31:57.170Z</time>
      </trkpt>
      <trkpt lat="46.92395" lon="8.58541">
        <ele>694</ele>
        <time>2021-08-10T11:31:58.171Z</time>
      </trkpt>
      <trkpt lat="46.92395" lon="8.58542">
        <ele>694</ele>
        <time>2021-08-10T11:31:59.170Z</time>
      </trkpt>
      <trkpt lat="46.92394" lon="8.58541">
        <ele>694</ele>
        <time>2021-08-10T11:32:00.171Z</time>
      </trkpt>
      <trkpt lat="46.92394" lon="8.58539">
        <ele>694</ele>
        <time>2021-08-10T11:32:01.170Z</time>
      </trkpt>
      <trkpt lat="46.92392" lon="8.58536">
        <ele>694</ele>
        <time>2021-08-10T11:32:02.170Z</time>
      </trkpt>
      <trkpt lat="46.92391" lon="8.58536">
        <ele>694</ele>
        <time>2021-08-10T11:32:09.300Z</time>
      </trkpt>
      <trkpt lat="46.92391" lon="8.58539">
        <ele>694</ele>
        <time>2021-08-10T11:32:10.299Z</time>
      </trkpt>
      <trkpt lat="46.92389" lon="8.5854">
        <ele>694</ele>
        <time>2021-08-10T11:32:11.299Z</time>
      </trkpt>
      <trkpt lat="46.92389" lon="8.58541">
        <ele>695</ele>
        <time>2021-08-10T11:32:15.435Z</time>
      </trkpt>
      <trkpt lat="46.92388" lon="8.58542">
        <ele>695</ele>
        <time>2021-08-10T11:32:25.283Z</time>
      </trkpt>
      <trkpt lat="46.92388" lon="8.58543">
        <ele>695</ele>
        <time>2021-08-10T11:32:26.283Z</time>
      </trkpt>
      <trkpt lat="46.9239" lon="8.58543">
        <ele>695</ele>
        <time>2021-08-10T11:32:27.283Z</time>
      </trkpt>
      <trkpt lat="46.9239" lon="8.58543">
        <ele>695</ele>
        <time>2021-08-10T11:32:28.284Z</time>
      </trkpt>
      <trkpt lat="46.9239" lon="8.58543">
        <ele>695</ele>
        <time>2021-08-10T11:32:29.284Z</time>
      </trkpt>
      <trkpt lat="46.92389" lon="8.58544">
        <ele>696</ele>
        <time>2021-08-10T11:32:30.283Z</time>
      </trkpt>
      <trkpt lat="46.92389" lon="8.58545">
        <ele>696</ele>
        <time>2021-08-10T11:32:31.284Z</time>
      </trkpt>
      <trkpt lat="46.92388" lon="8.58546">
        <ele>696</ele>
        <time>2021-08-10T11:32:32.283Z</time>
      </trkpt>
      <trkpt lat="46.92388" lon="8.58547">
        <ele>696</ele>
        <time>2021-08-10T11:32:33.283Z</time>
      </trkpt>
      <trkpt lat="46.92389" lon="8.58549">
        <ele>697</ele>
        <time>2021-08-10T11:32:34.283Z</time>
      </trkpt>
      <trkpt lat="46.92387" lon="8.58548">
        <ele>697</ele>
        <time>2021-08-10T11:32:46.192Z</time>
      </trkpt>
      <trkpt lat="46.92384" lon="8.58545">
        <ele>697</ele>
        <time>2021-08-10T11:32:47.192Z</time>
      </trkpt>
      <trkpt lat="46.92381" lon="8.58542">
        <ele>698</ele>
        <time>2021-08-10T11:33:14.025Z</time>
      </trkpt>
      <trkpt lat="46.9238" lon="8.58541">
        <ele>698</ele>
        <time>2021-08-10T11:33:15.025Z</time>
      </trkpt>
      <trkpt lat="46.9238" lon="8.58541">
        <ele>698</ele>
        <time>2021-08-10T11:33:16.026Z</time>
      </trkpt>
      <trkpt lat="46.92381" lon="8.58541">
        <ele>698</ele>
        <time>2021-08-10T11:33:17.025Z</time>
      </trkpt>
      <trkpt lat="46.92381" lon="8.5854">
        <ele>698</ele>
        <time>2021-08-10T11:33:21.062Z</time>
      </trkpt>
      <trkpt lat="46.92381" lon="8.5854">
        <ele>698</ele>
        <time>2021-08-10T11:33:22.061Z</time>
      </trkpt>
      <trkpt lat="46.92381" lon="8.58539">
        <ele>698</ele>
        <time>2021-08-10T11:33:23.061Z</time>
      </trkpt>
      <trkpt lat="46.92382" lon="8.5854">
        <ele>698</ele>
        <time>2021-08-10T11:33:25.167Z</time>
      </trkpt>
      <trkpt lat="46.92382" lon="8.5854">
        <ele>699</ele>
        <time>2021-08-10T11:33:26.167Z</time>
      </trkpt>
      <trkpt lat="46.92383" lon="8.58539">
        <ele>699</ele>
        <time>2021-08-10T11:33:27.166Z</time>
      </trkpt>
      <trkpt lat="46.92383" lon="8.58539">
        <ele>699</ele>
        <time>2021-08-10T11:33:28.166Z</time>
      </trkpt>
      <trkpt lat="46.92384" lon="8.58538">
        <ele>699</ele>
        <time>2021-08-10T11:33:29.167Z</time>
      </trkpt>
      <trkpt lat="46.92384" lon="8.58538">
        <ele>699</ele>
        <time>2021-08-10T11:33:30.167Z</time>
      </trkpt>
      <trkpt lat="46.92384" lon="8.58537">
        <ele>699</ele>
        <time>2021-08-10T11:33:34.305Z</time>
      </trkpt>
      <trkpt lat="46.92384" lon="8.58537">
        <ele>699</ele>
        <time>2021-08-10T11:33:35.306Z</time>
      </trkpt>
      <trkpt lat="46.92383" lon="8.58538">
        <ele>700</ele>
        <time>2021-08-10T11:33:36.305Z</time>
      </trkpt>
      <trkpt lat="46.92383" lon="8.58538">
        <ele>700</ele>
        <time>2021-08-10T11:33:40.401Z</time>
      </trkpt>
      <trkpt lat="46.92382" lon="8.58538">
        <ele>700</ele>
        <time>2021-08-10T11:33:41.401Z</time>
      </trkpt>
      <trkpt lat="46.92383" lon="8.58538">
        <ele>700</ele>
        <time>2021-08-10T11:33:42.401Z</time>
      </trkpt>
      <trkpt lat="46.92384" lon="8.5854">
        <ele>700</ele>
        <time>2021-08-10T11:33:43.401Z</time>
      </trkpt>
      <trkpt lat="46.92383" lon="8.58544">
        <ele>700</ele>
        <time>2021-08-10T11:33:44.401Z</time>
      </trkpt>
      <trkpt lat="46.92382" lon="8.58547">
        <ele>701</ele>
        <time>2021-08-10T11:33:45.401Z</time>
      </trkpt>
      <trkpt lat="46.92381" lon="8.58549">
        <ele>701</ele>
        <time>2021-08-10T11:33:46.401Z</time>
      </trkpt>
      <trkpt lat="46.92379" lon="8.5855">
        <ele>702</ele>
        <time>2021-08-10T11:33:47.401Z</time>
      </trkpt>
      <trkpt lat="46.92378" lon="8.58552">
        <ele>703</ele>
        <time>2021-08-10T11:33:48.402Z</time>
      </trkpt>
      <trkpt lat="46.92371" lon="8.58557">
        <ele>703</ele>
        <time>2021-08-10T11:33:52.401Z</time>
      </trkpt>
      <trkpt lat="46.92372" lon="8.58556">
        <ele>704</ele>
        <time>2021-08-10T11:33:53.401Z</time>
      </trkpt>
      <trkpt lat="46.92373" lon="8.58557">
        <ele>704</ele>
        <time>2021-08-10T11:33:54.401Z</time>
      </trkpt>
      <trkpt lat="46.92373" lon="8.58556">
        <ele>705</ele>
        <time>2021-08-10T11:33:55.402Z</time>
      </trkpt>
      <trkpt lat="46.92373" lon="8.58556">
        <ele>705</ele>
        <time>2021-08-10T11:33:56.402Z</time>
      </trkpt>
      <trkpt lat="46.92372" lon="8.58557">
        <ele>705</ele>
        <time>2021-08-10T11:33:57.402Z</time>
      </trkpt>
      <trkpt lat="46.92372" lon="8.58558">
        <ele>706</ele>
        <time>2021-08-10T11:33:58.401Z</time>
      </trkpt>
      <trkpt lat="46.92371" lon="8.58565">
        <ele>706</ele>
        <time>2021-08-10T11:33:59.402Z</time>
      </trkpt>
      <trkpt lat="46.92371" lon="8.58565">
        <ele>706</ele>
        <time>2021-08-10T11:34:00.402Z</time>
      </trkpt>
      <trkpt lat="46.9237" lon="8.58568">
        <ele>707</ele>
        <time>2021-08-10T11:34:01.402Z</time>
      </trkpt>
      <trkpt lat="46.9237" lon="8.5857">
        <ele>707</ele>
        <time>2021-08-10T11:34:02.402Z</time>
      </trkpt>
      <trkpt lat="46.9237" lon="8.58573">
        <ele>707</ele>
        <time>2021-08-10T11:34:03.402Z</time>
      </trkpt>
      <trkpt lat="46.9237" lon="8.58574">
        <ele>708</ele>
        <time>2021-08-10T11:34:04.402Z</time>
      </trkpt>
      <trkpt lat="46.9237" lon="8.58575">
        <ele>708</ele>
        <time>2021-08-10T11:34:05.401Z</time>
      </trkpt>
      <trkpt lat="46.9237" lon="8.58576">
        <ele>708</ele>
        <time>2021-08-10T11:34:06.402Z</time>
      </trkpt>
      <trkpt lat="46.92368" lon="8.58577">
        <ele>708</ele>
        <time>2021-08-10T11:34:07.402Z</time>
      </trkpt>
      <trkpt lat="46.92368" lon="8.58576">
        <ele>709</ele>
        <time>2021-08-10T11:34:08.402Z</time>
      </trkpt>
      <trkpt lat="46.92366" lon="8.58576">
        <ele>709</ele>
        <time>2021-08-10T11:34:09.402Z</time>
      </trkpt>
      <trkpt lat="46.92364" lon="8.58575">
        <ele>709</ele>
        <time>2021-08-10T11:34:10.402Z</time>
      </trkpt>
      <trkpt lat="46.92364" lon="8.58575">
        <ele>709</ele>
        <time>2021-08-10T11:34:11.401Z</time>
      </trkpt>
      <trkpt lat="46.92363" lon="8.58576">
        <ele>709</ele>
        <time>2021-08-10T11:34:12.402Z</time>
      </trkpt>
      <trkpt lat="46.92361" lon="8.5858">
        <ele>710</ele>
        <time>2021-08-10T11:34:50.402Z</time>
      </trkpt>
      <trkpt lat="46.92359" lon="8.5858">
        <ele>711</ele>
        <time>2021-08-10T11:34:51.402Z</time>
      </trkpt>
      <trkpt lat="46.92357" lon="8.58583">
        <ele>711</ele>
        <time>2021-08-10T11:34:52.402Z</time>
      </trkpt>
      <trkpt lat="46.92356" lon="8.58585">
        <ele>712</ele>
        <time>2021-08-10T11:34:53.401Z</time>
      </trkpt>
      <trkpt lat="46.92354" lon="8.58586">
        <ele>712</ele>
        <time>2021-08-10T11:34:54.401Z</time>
      </trkpt>
      <trkpt lat="46.92353" lon="8.58586">
        <ele>713</ele>
        <time>2021-08-10T11:34:55.402Z</time>
      </trkpt>
      <trkpt lat="46.92353" lon="8.58583">
        <ele>713</ele>
        <time>2021-08-10T11:34:56.401Z</time>
      </trkpt>
      <trkpt lat="46.92355" lon="8.58582">
        <ele>714</ele>
        <time>2021-08-10T11:34:57.401Z</time>
      </trkpt>
      <trkpt lat="46.92356" lon="8.58581">
        <ele>714</ele>
        <time>2021-08-10T11:34:58.402Z</time>
      </trkpt>
      <trkpt lat="46.92355" lon="8.58581">
        <ele>715</ele>
        <time>2021-08-10T11:34:59.401Z</time>
      </trkpt>
      <trkpt lat="46.92354" lon="8.58579">
        <ele>716</ele>
        <time>2021-08-10T11:35:02.496Z</time>
      </trkpt>
      <trkpt lat="46.92354" lon="8.58578">
        <ele>716</ele>
        <time>2021-08-10T11:35:03.496Z</time>
      </trkpt>
      <trkpt lat="46.92355" lon="8.58577">
        <ele>717</ele>
        <time>2021-08-10T11:35:04.497Z</time>
      </trkpt>
      <trkpt lat="46.92353" lon="8.58577">
        <ele>718</ele>
        <time>2021-08-10T11:35:05.497Z</time>
      </trkpt>
      <trkpt lat="46.92352" lon="8.58577">
        <ele>718</ele>
        <time>2021-08-10T11:35:06.497Z</time>
      </trkpt>
      <trkpt lat="46.92351" lon="8.58578">
        <ele>718</ele>
        <time>2021-08-10T11:35:07.497Z</time>
      </trkpt>
      <trkpt lat="46.92351" lon="8.58577">
        <ele>718</ele>
        <time>2021-08-10T11:35:08.497Z</time>
      </trkpt>
      <trkpt lat="46.92349" lon="8.58577">
        <ele>718</ele>
        <time>2021-08-10T11:35:09.498Z</time>
      </trkpt>
      <trkpt lat="46.92349" lon="8.58577">
        <ele>718</ele>
        <time>2021-08-10T11:35:10.498Z</time>
      </trkpt>
      <trkpt lat="46.92349" lon="8.58577">
        <ele>718</ele>
        <time>2021-08-10T11:35:11.498Z</time>
      </trkpt>
      <trkpt lat="46.92349" lon="8.58577">
        <ele>718</ele>
        <time>2021-08-10T11:35:12.498Z</time>
      </trkpt>
      <trkpt lat="46.92348" lon="8.58576">
        <ele>717</ele>
        <time>2021-08-10T11:35:13.497Z</time>
      </trkpt>
      <trkpt lat="46.92348" lon="8.58576">
        <ele>717</ele>
        <time>2021-08-10T11:35:14.497Z</time>
      </trkpt>
      <trkpt lat="46.92348" lon="8.58575">
        <ele>717</ele>
        <time>2021-08-10T11:35:15.497Z</time>
      </trkpt>
      <trkpt lat="46.92347" lon="8.58574">
        <ele>717</ele>
        <time>2021-08-10T11:35:16.498Z</time>
      </trkpt>
      <trkpt lat="46.92346" lon="8.58574">
        <ele>717</ele>
        <time>2021-08-10T11:35:17.497Z</time>
      </trkpt>
      <trkpt lat="46.92346" lon="8.58573">
        <ele>717</ele>
        <time>2021-08-10T11:35:18.498Z</time>
      </trkpt>
      <trkpt lat="46.92346" lon="8.58572">
        <ele>716</ele>
        <time>2021-08-10T11:35:19.498Z</time>
      </trkpt>
      <trkpt lat="46.92346" lon="8.58571">
        <ele>716</ele>
        <time>2021-08-10T11:35:20.497Z</time>
      </trkpt>
      <trkpt lat="46.92345" lon="8.58571">
        <ele>716</ele>
        <time>2021-08-10T11:35:21.498Z</time>
      </trkpt>
      <trkpt lat="46.92345" lon="8.58571">
        <ele>716</ele>
        <time>2021-08-10T11:35:22.498Z</time>
      </trkpt>
      <trkpt lat="46.92344" lon="8.5857">
        <ele>716</ele>
        <time>2021-08-10T11:35:23.498Z</time>
      </trkpt>
      <trkpt lat="46.92343" lon="8.5857">
        <ele>716</ele>
        <time>2021-08-10T11:35:24.498Z</time>
      </trkpt>
      <trkpt lat="46.92342" lon="8.58571">
        <ele>715</ele>
        <time>2021-08-10T11:35:25.498Z</time>
      </trkpt>
      <trkpt lat="46.92342" lon="8.5857">
        <ele>715</ele>
        <time>2021-08-10T11:35:26.497Z</time>
      </trkpt>
      <trkpt lat="46.92341" lon="8.58569">
        <ele>715</ele>
        <time>2021-08-10T11:35:27.497Z</time>
      </trkpt>
      <trkpt lat="46.9234" lon="8.58567">
        <ele>714</ele>
        <time>2021-08-10T11:35:28.497Z</time>
      </trkpt>
      <trkpt lat="46.92339" lon="8.58566">
        <ele>714</ele>
        <time>2021-08-10T11:35:29.498Z</time>
      </trkpt>
      <trkpt lat="46.92339" lon="8.58567">
        <ele>714</ele>
        <time>2021-08-10T11:35:30.498Z</time>
      </trkpt>
      <trkpt lat="46.92339" lon="8.58567">
        <ele>714</ele>
        <time>2021-08-10T11:35:31.498Z</time>
      </trkpt>
      <trkpt lat="46.92339" lon="8.58567">
        <ele>714</ele>
        <time>2021-08-10T11:35:32.498Z</time>
      </trkpt>
      <trkpt lat="46.92339" lon="8.58567">
        <ele>714</ele>
        <time>2021-08-10T11:35:33.498Z</time>
      </trkpt>
      <trkpt lat="46.9234" lon="8.58567">
        <ele>714</ele>
        <time>2021-08-10T11:35:34.498Z</time>
      </trkpt>
      <trkpt lat="46.92341" lon="8.58567">
        <ele>714</ele>
        <time>2021-08-10T11:35:35.497Z</time>
      </trkpt>
      <trkpt lat="46.92342" lon="8.58568">
        <ele>714</ele>
        <time>2021-08-10T11:35:36.498Z</time>
      </trkpt>
      <trkpt lat="46.92342" lon="8.58567">
        <ele>714</ele>
        <time>2021-08-10T11:35:37.497Z</time>
      </trkpt>
      <trkpt lat="46.92343" lon="8.58567">
        <ele>714</ele>
        <time>2021-08-10T11:35:38.497Z</time>
      </trkpt>
      <trkpt lat="46.92344" lon="8.58566">
        <ele>714</ele>
        <time>2021-08-10T11:35:39.498Z</time>
      </trkpt>
      <trkpt lat="46.92344" lon="8.58566">
        <ele>714</ele>
        <time>2021-08-10T11:35:40.498Z</time>
      </trkpt>
      <trkpt lat="46.92344" lon="8.58566">
        <ele>714</ele>
        <time>2021-08-10T11:35:41.498Z</time>
      </trkpt>
      <trkpt lat="46.92344" lon="8.58565">
        <ele>714</ele>
        <time>2021-08-10T11:35:47.517Z</time>
      </trkpt>
      <trkpt lat="46.92344" lon="8.58565">
        <ele>714</ele>
        <time>2021-08-10T11:35:48.517Z</time>
      </trkpt>
      <trkpt lat="46.92343" lon="8.58564">
        <ele>714</ele>
        <time>2021-08-10T11:35:49.517Z</time>
      </trkpt>
      <trkpt lat="46.92342" lon="8.58564">
        <ele>715</ele>
        <time>2021-08-10T11:35:50.517Z</time>
      </trkpt>
      <trkpt lat="46.92341" lon="8.58565">
        <ele>715</ele>
        <time>2021-08-10T11:35:55.660Z</time>
      </trkpt>
      <trkpt lat="46.9234" lon="8.58565">
        <ele>715</ele>
        <time>2021-08-10T11:35:56.659Z</time>
      </trkpt>
      <trkpt lat="46.92339" lon="8.58565">
        <ele>715</ele>
        <time>2021-08-10T11:36:02.557Z</time>
      </trkpt>
      <trkpt lat="46.92338" lon="8.58564">
        <ele>715</ele>
        <time>2021-08-10T11:36:03.557Z</time>
      </trkpt>
      <trkpt lat="46.92337" lon="8.58564">
        <ele>716</ele>
        <time>2021-08-10T11:36:21.393Z</time>
      </trkpt>
      <trkpt lat="46.92336" lon="8.58563">
        <ele>716</ele>
        <time>2021-08-10T11:36:22.393Z</time>
      </trkpt>
      <trkpt lat="46.92336" lon="8.58564">
        <ele>717</ele>
        <time>2021-08-10T11:36:28.291Z</time>
      </trkpt>
      <trkpt lat="46.92335" lon="8.58564">
        <ele>718</ele>
        <time>2021-08-10T11:36:29.290Z</time>
      </trkpt>
      <trkpt lat="46.92335" lon="8.58565">
        <ele>719</ele>
        <time>2021-08-10T11:36:30.291Z</time>
      </trkpt>
      <trkpt lat="46.92334" lon="8.58566">
        <ele>720</ele>
        <time>2021-08-10T11:36:31.290Z</time>
      </trkpt>
      <trkpt lat="46.92334" lon="8.58567">
        <ele>721</ele>
        <time>2021-08-10T11:36:32.291Z</time>
      </trkpt>
      <trkpt lat="46.92334" lon="8.58567">
        <ele>721</ele>
        <time>2021-08-10T11:36:33.291Z</time>
      </trkpt>
      <trkpt lat="46.92334" lon="8.58567">
        <ele>722</ele>
        <time>2021-08-10T11:36:39.396Z</time>
      </trkpt>
      <trkpt lat="46.92333" lon="8.58568">
        <ele>723</ele>
        <time>2021-08-10T11:36:40.396Z</time>
      </trkpt>
      <trkpt lat="46.92333" lon="8.58566">
        <ele>723</ele>
        <time>2021-08-10T11:36:41.395Z</time>
      </trkpt>
      <trkpt lat="46.92333" lon="8.58565">
        <ele>724</ele>
        <time>2021-08-10T11:36:42.395Z</time>
      </trkpt>
      <trkpt lat="46.92332" lon="8.58564">
        <ele>724</ele>
        <time>2021-08-10T11:36:59.502Z</time>
      </trkpt>
      <trkpt lat="46.92331" lon="8.58565">
        <ele>725</ele>
        <time>2021-08-10T11:37:00.502Z</time>
      </trkpt>
      <trkpt lat="46.92331" lon="8.58565">
        <ele>726</ele>
        <time>2021-08-10T11:37:02.275Z</time>
      </trkpt>
      <trkpt lat="46.92332" lon="8.58565">
        <ele>726</ele>
        <time>2021-08-10T11:37:03.276Z</time>
      </trkpt>
      <trkpt lat="46.92331" lon="8.58565">
        <ele>726</ele>
        <time>2021-08-10T11:37:04.276Z</time>
      </trkpt>
      <trkpt lat="46.92331" lon="8.58566">
        <ele>727</ele>
        <time>2021-08-10T11:37:23.379Z</time>
      </trkpt>
      <trkpt lat="46.9233" lon="8.58566">
        <ele>727</ele>
        <time>2021-08-10T11:37:24.380Z</time>
      </trkpt>
      <trkpt lat="46.9233" lon="8.58566">
        <ele>727</ele>
        <time>2021-08-10T11:37:25.380Z</time>
      </trkpt>
      <trkpt lat="46.92329" lon="8.58567">
        <ele>727</ele>
        <time>2021-08-10T11:37:26.380Z</time>
      </trkpt>
      <trkpt lat="46.92328" lon="8.58568">
        <ele>728</ele>
        <time>2021-08-10T11:37:27.380Z</time>
      </trkpt>
      <trkpt lat="46.92327" lon="8.58568">
        <ele>728</ele>
        <time>2021-08-10T11:37:28.380Z</time>
      </trkpt>
      <trkpt lat="46.92326" lon="8.58569">
        <ele>728</ele>
        <time>2021-08-10T11:37:29.380Z</time>
      </trkpt>
      <trkpt lat="46.92325" lon="8.58568">
        <ele>729</ele>
        <time>2021-08-10T11:37:43.535Z</time>
      </trkpt>
      <trkpt lat="46.92325" lon="8.58568">
        <ele>729</ele>
        <time>2021-08-10T11:37:44.535Z</time>
      </trkpt>
      <trkpt lat="46.92325" lon="8.58568">
        <ele>730</ele>
        <time>2021-08-10T11:37:45.536Z</time>
      </trkpt>
      <trkpt lat="46.92325" lon="8.58568">
        <ele>730</ele>
        <time>2021-08-10T11:37:50.672Z</time>
      </trkpt>
      <trkpt lat="46.92325" lon="8.58568">
        <ele>732</ele>
        <time>2021-08-10T11:38:07.513Z</time>
      </trkpt>
      <trkpt lat="46.92325" lon="8.58568">
        <ele>732</ele>
        <time>2021-08-10T11:38:08.513Z</time>
      </trkpt>
      <trkpt lat="46.92325" lon="8.58568">
        <ele>732</ele>
        <time>2021-08-10T11:38:09.513Z</time>
      </trkpt>
      <trkpt lat="46.92324" lon="8.58567">
        <ele>733</ele>
        <time>2021-08-10T11:38:10.512Z</time>
      </trkpt>
      <trkpt lat="46.92325" lon="8.58567">
        <ele>733</ele>
        <time>2021-08-10T11:38:11.513Z</time>
      </trkpt>
      <trkpt lat="46.92325" lon="8.58567">
        <ele>733</ele>
        <time>2021-08-10T11:38:15.661Z</time>
      </trkpt>
      <trkpt lat="46.92325" lon="8.58566">
        <ele>733</ele>
        <time>2021-08-10T11:38:16.661Z</time>
      </trkpt>
      <trkpt lat="46.92323" lon="8.58567">
        <ele>734</ele>
        <time>2021-08-10T11:38:29.412Z</time>
      </trkpt>
      <trkpt lat="46.92322" lon="8.58569">
        <ele>734</ele>
        <time>2021-08-10T11:38:30.413Z</time>
      </trkpt>
      <trkpt lat="46.92321" lon="8.5857">
        <ele>734</ele>
        <time>2021-08-10T11:38:31.413Z</time>
      </trkpt>
      <trkpt lat="46.92321" lon="8.5857">
        <ele>734</ele>
        <time>2021-08-10T11:38:32.413Z</time>
      </trkpt>
      <trkpt lat="46.92321" lon="8.5857">
        <ele>735</ele>
        <time>2021-08-10T11:38:33.413Z</time>
      </trkpt>
      <trkpt lat="46.9232" lon="8.58572">
        <ele>735</ele>
        <time>2021-08-10T11:38:34.413Z</time>
      </trkpt>
      <trkpt lat="46.92319" lon="8.58573">
        <ele>735</ele>
        <time>2021-08-10T11:38:35.413Z</time>
      </trkpt>
      <trkpt lat="46.92319" lon="8.58574">
        <ele>736</ele>
        <time>2021-08-10T11:38:57.557Z</time>
      </trkpt>
      <trkpt lat="46.92319" lon="8.58574">
        <ele>735</ele>
        <time>2021-08-10T11:38:59.396Z</time>
      </trkpt>
      <trkpt lat="46.92318" lon="8.58575">
        <ele>735</ele>
        <time>2021-08-10T11:39:00.396Z</time>
      </trkpt>
      <trkpt lat="46.92318" lon="8.58576">
        <ele>736</ele>
        <time>2021-08-10T11:39:01.397Z</time>
      </trkpt>
      <trkpt lat="46.92317" lon="8.58577">
        <ele>736</ele>
        <time>2021-08-10T11:39:02.397Z</time>
      </trkpt>
      <trkpt lat="46.92316" lon="8.58577">
        <ele>736</ele>
        <time>2021-08-10T11:39:03.396Z</time>
      </trkpt>
      <trkpt lat="46.92316" lon="8.58578">
        <ele>736</ele>
        <time>2021-08-10T11:39:04.397Z</time>
      </trkpt>
      <trkpt lat="46.92315" lon="8.58578">
        <ele>736</ele>
        <time>2021-08-10T11:39:05.396Z</time>
      </trkpt>
      <trkpt lat="46.92314" lon="8.58578">
        <ele>736</ele>
        <time>2021-08-10T11:39:06.396Z</time>
      </trkpt>
      <trkpt lat="46.92313" lon="8.58579">
        <ele>736</ele>
        <time>2021-08-10T11:39:07.396Z</time>
      </trkpt>
      <trkpt lat="46.92312" lon="8.58579">
        <ele>736</ele>
        <time>2021-08-10T11:39:18.517Z</time>
      </trkpt>
      <trkpt lat="46.92311" lon="8.58579">
        <ele>736</ele>
        <time>2021-08-10T11:39:21.363Z</time>
      </trkpt>
      <trkpt lat="46.92311" lon="8.58579">
        <ele>736</ele>
        <time>2021-08-10T11:39:22.362Z</time>
      </trkpt>
      <trkpt lat="46.9231" lon="8.58579">
        <ele>735</ele>
        <time>2021-08-10T11:39:23.362Z</time>
      </trkpt>
      <trkpt lat="46.92309" lon="8.58579">
        <ele>735</ele>
        <time>2021-08-10T11:39:36.556Z</time>
      </trkpt>
      <trkpt lat="46.92308" lon="8.5858">
        <ele>735</ele>
        <time>2021-08-10T11:39:37.556Z</time>
      </trkpt>
      <trkpt lat="46.92308" lon="8.5858">
        <ele>735</ele>
        <time>2021-08-10T11:39:38.555Z</time>
      </trkpt>
      <trkpt lat="46.92307" lon="8.5858">
        <ele>735</ele>
        <time>2021-08-10T11:39:39.555Z</time>
      </trkpt>
      <trkpt lat="46.92306" lon="8.58579">
        <ele>735</ele>
        <time>2021-08-10T11:39:40.555Z</time>
      </trkpt>
      <trkpt lat="46.92306" lon="8.58579">
        <ele>735</ele>
        <time>2021-08-10T11:39:41.555Z</time>
      </trkpt>
      <trkpt lat="46.92306" lon="8.58579">
        <ele>735</ele>
        <time>2021-08-10T11:39:42.555Z</time>
      </trkpt>
      <trkpt lat="46.92305" lon="8.58579">
        <ele>735</ele>
        <time>2021-08-10T11:39:43.555Z</time>
      </trkpt>
      <trkpt lat="46.92305" lon="8.5858">
        <ele>735</ele>
        <time>2021-08-10T11:39:44.556Z</time>
      </trkpt>
      <trkpt lat="46.92304" lon="8.58583">
        <ele>735</ele>
        <time>2021-08-10T11:39:45.556Z</time>
      </trkpt>
      <trkpt lat="46.92304" lon="8.58585">
        <ele>734</ele>
        <time>2021-08-10T11:39:46.555Z</time>
      </trkpt>
      <trkpt lat="46.92302" lon="8.58586">
        <ele>734</ele>
        <time>2021-08-10T11:39:52.656Z</time>
      </trkpt>
      <trkpt lat="46.92302" lon="8.58587">
        <ele>734</ele>
        <time>2021-08-10T11:39:53.656Z</time>
      </trkpt>
      <trkpt lat="46.92301" lon="8.58588">
        <ele>734</ele>
        <time>2021-08-10T11:39:54.656Z</time>
      </trkpt>
      <trkpt lat="46.923" lon="8.58589">
        <ele>734</ele>
        <time>2021-08-10T11:40:00.789Z</time>
      </trkpt>
      <trkpt lat="46.923" lon="8.58589">
        <ele>734</ele>
        <time>2021-08-10T11:40:01.788Z</time>
      </trkpt>
      <trkpt lat="46.92299" lon="8.58589">
        <ele>734</ele>
        <time>2021-08-10T11:40:02.789Z</time>
      </trkpt>
      <trkpt lat="46.92298" lon="8.58589">
        <ele>735</ele>
        <time>2021-08-10T11:40:03.788Z</time>
      </trkpt>
      <trkpt lat="46.92298" lon="8.5859">
        <ele>735</ele>
        <time>2021-08-10T11:40:08.916Z</time>
      </trkpt>
      <trkpt lat="46.92297" lon="8.58589">
        <ele>735</ele>
        <time>2021-08-10T11:40:09.917Z</time>
      </trkpt>
      <trkpt lat="46.92296" lon="8.5859">
        <ele>736</ele>
        <time>2021-08-10T11:40:10.917Z</time>
      </trkpt>
      <trkpt lat="46.92296" lon="8.5859">
        <ele>736</ele>
        <time>2021-08-10T11:40:11.916Z</time>
      </trkpt>
      <trkpt lat="46.92294" lon="8.58589">
        <ele>736</ele>
        <time>2021-08-10T11:40:12.916Z</time>
      </trkpt>
      <trkpt lat="46.92293" lon="8.58589">
        <ele>737</ele>
        <time>2021-08-10T11:40:13.917Z</time>
      </trkpt>
      <trkpt lat="46.92293" lon="8.58589">
        <ele>737</ele>
        <time>2021-08-10T11:40:14.916Z</time>
      </trkpt>
      <trkpt lat="46.92292" lon="8.5859">
        <ele>737</ele>
        <time>2021-08-10T11:40:15.916Z</time>
      </trkpt>
      <trkpt lat="46.92292" lon="8.5859">
        <ele>738</ele>
        <time>2021-08-10T11:40:16.917Z</time>
      </trkpt>
      <trkpt lat="46.92292" lon="8.58589">
        <ele>738</ele>
        <time>2021-08-10T11:40:17.916Z</time>
      </trkpt>
      <trkpt lat="46.92291" lon="8.58589">
        <ele>738</ele>
        <time>2021-08-10T11:40:18.917Z</time>
      </trkpt>
      <trkpt lat="46.92291" lon="8.58588">
        <ele>738</ele>
        <time>2021-08-10T11:40:19.916Z</time>
      </trkpt>
      <trkpt lat="46.92291" lon="8.58585">
        <ele>739</ele>
        <time>2021-08-10T11:40:20.917Z</time>
      </trkpt>
      <trkpt lat="46.92291" lon="8.58585">
        <ele>739</ele>
        <time>2021-08-10T11:40:21.917Z</time>
      </trkpt>
      <trkpt lat="46.9229" lon="8.58585">
        <ele>740</ele>
        <time>2021-08-10T11:40:22.916Z</time>
      </trkpt>
      <trkpt lat="46.92289" lon="8.58585">
        <ele>740</ele>
        <time>2021-08-10T11:40:23.916Z</time>
      </trkpt>
      <trkpt lat="46.92288" lon="8.58584">
        <ele>740</ele>
        <time>2021-08-10T11:40:24.916Z</time>
      </trkpt>
      <trkpt lat="46.92288" lon="8.58583">
        <ele>740</ele>
        <time>2021-08-10T11:40:25.916Z</time>
      </trkpt>
      <trkpt lat="46.92287" lon="8.58581">
        <ele>741</ele>
        <time>2021-08-10T11:40:26.916Z</time>
      </trkpt>
      <trkpt lat="46.92286" lon="8.58581">
        <ele>741</ele>
        <time>2021-08-10T11:40:27.916Z</time>
      </trkpt>
      <trkpt lat="46.92284" lon="8.58579">
        <ele>742</ele>
        <time>2021-08-10T11:40:28.917Z</time>
      </trkpt>
      <trkpt lat="46.92284" lon="8.58578">
        <ele>742</ele>
        <time>2021-08-10T11:40:29.916Z</time>
      </trkpt>
      <trkpt lat="46.92284" lon="8.58578">
        <ele>742</ele>
        <time>2021-08-10T11:40:30.916Z</time>
      </trkpt>
      <trkpt lat="46.92283" lon="8.58577">
        <ele>742</ele>
        <time>2021-08-10T11:40:31.916Z</time>
      </trkpt>
      <trkpt lat="46.92283" lon="8.58577">
        <ele>742</ele>
        <time>2021-08-10T11:40:32.916Z</time>
      </trkpt>
      <trkpt lat="46.92282" lon="8.58576">
        <ele>742</ele>
        <time>2021-08-10T11:40:33.916Z</time>
      </trkpt>
      <trkpt lat="46.92281" lon="8.58576">
        <ele>742</ele>
        <time>2021-08-10T11:40:34.916Z</time>
      </trkpt>
      <trkpt lat="46.92281" lon="8.58575">
        <ele>743</ele>
        <time>2021-08-10T11:40:35.916Z</time>
      </trkpt>
      <trkpt lat="46.9228" lon="8.58573">
        <ele>743</ele>
        <time>2021-08-10T11:40:36.916Z</time>
      </trkpt>
      <trkpt lat="46.92281" lon="8.58571">
        <ele>743</ele>
        <time>2021-08-10T11:40:44.891Z</time>
      </trkpt>
      <trkpt lat="46.92281" lon="8.58569">
        <ele>744</ele>
        <time>2021-08-10T11:40:45.890Z</time>
      </trkpt>
      <trkpt lat="46.92281" lon="8.58567">
        <ele>744</ele>
        <time>2021-08-10T11:40:46.890Z</time>
      </trkpt>
      <trkpt lat="46.9228" lon="8.58566">
        <ele>744</ele>
        <time>2021-08-10T11:40:47.890Z</time>
      </trkpt>
      <trkpt lat="46.92278" lon="8.58566">
        <ele>744</ele>
        <time>2021-08-10T11:40:48.890Z</time>
      </trkpt>
      <trkpt lat="46.92278" lon="8.58566">
        <ele>744</ele>
        <time>2021-08-10T11:40:49.891Z</time>
      </trkpt>
      <trkpt lat="46.92277" lon="8.58566">
        <ele>744</ele>
        <time>2021-08-10T11:40:50.890Z</time>
      </trkpt>
      <trkpt lat="46.92277" lon="8.58566">
        <ele>745</ele>
        <time>2021-08-10T11:40:51.891Z</time>
      </trkpt>
      <trkpt lat="46.92277" lon="8.58565">
        <ele>745</ele>
        <time>2021-08-10T11:40:52.890Z</time>
      </trkpt>
      <trkpt lat="46.92276" lon="8.58565">
        <ele>745</ele>
        <time>2021-08-10T11:40:59.038Z</time>
      </trkpt>
      <trkpt lat="46.92277" lon="8.58565">
        <ele>745</ele>
        <time>2021-08-10T11:41:00.039Z</time>
      </trkpt>
      <trkpt lat="46.92277" lon="8.58564">
        <ele>745</ele>
        <time>2021-08-10T11:41:01.039Z</time>
      </trkpt>
      <trkpt lat="46.92276" lon="8.58564">
        <ele>744</ele>
        <time>2021-08-10T11:41:02.038Z</time>
      </trkpt>
      <trkpt lat="46.92276" lon="8.58563">
        <ele>744</ele>
        <time>2021-08-10T11:41:03.038Z</time>
      </trkpt>
      <trkpt lat="46.92276" lon="8.58562">
        <ele>744</ele>
        <time>2021-08-10T11:41:04.038Z</time>
      </trkpt>
      <trkpt lat="46.92275" lon="8.58561">
        <ele>744</ele>
        <time>2021-08-10T11:41:05.038Z</time>
      </trkpt>
      <trkpt lat="46.92275" lon="8.58561">
        <ele>744</ele>
        <time>2021-08-10T11:41:06.039Z</time>
      </trkpt>
      <trkpt lat="46.92274" lon="8.58561">
        <ele>744</ele>
        <time>2021-08-10T11:41:07.039Z</time>
      </trkpt>
      <trkpt lat="46.92274" lon="8.58561">
        <ele>744</ele>
        <time>2021-08-10T11:41:08.038Z</time>
      </trkpt>
      <trkpt lat="46.92275" lon="8.5856">
        <ele>744</ele>
        <time>2021-08-10T11:41:09.038Z</time>
      </trkpt>
      <trkpt lat="46.92275" lon="8.5856">
        <ele>744</ele>
        <time>2021-08-10T11:41:10.038Z</time>
      </trkpt>
      <trkpt lat="46.92273" lon="8.58561">
        <ele>737</ele>
        <time>2021-08-10T11:41:11.039Z</time>
      </trkpt>
      <trkpt lat="46.92272" lon="8.58562">
        <ele>737</ele>
        <time>2021-08-10T11:41:12.038Z</time>
      </trkpt>
      <trkpt lat="46.92271" lon="8.58561">
        <ele>736</ele>
        <time>2021-08-10T11:41:13.038Z</time>
      </trkpt>
      <trkpt lat="46.92271" lon="8.58562">
        <ele>736</ele>
        <time>2021-08-10T11:41:14.038Z</time>
      </trkpt>
      <trkpt lat="46.92271" lon="8.58562">
        <ele>735</ele>
        <time>2021-08-10T11:41:15.039Z</time>
      </trkpt>
      <trkpt lat="46.92271" lon="8.58564">
        <ele>734</ele>
        <time>2021-08-10T11:41:16.040Z</time>
      </trkpt>
      <trkpt lat="46.92271" lon="8.58564">
        <ele>733</ele>
        <time>2021-08-10T11:41:17.039Z</time>
      </trkpt>
      <trkpt lat="46.92273" lon="8.58553">
        <ele>721</ele>
        <time>2021-08-10T11:41:18.041Z</time>
      </trkpt>
      <trkpt lat="46.92273" lon="8.58553">
        <ele>721</ele>
        <time>2021-08-10T11:41:19.040Z</time>
      </trkpt>
      <trkpt lat="46.92272" lon="8.58553">
        <ele>721</ele>
        <time>2021-08-10T11:41:20.041Z</time>
      </trkpt>
      <trkpt lat="46.92271" lon="8.58554">
        <ele>720</ele>
        <time>2021-08-10T11:41:21.041Z</time>
      </trkpt>
      <trkpt lat="46.92271" lon="8.58555">
        <ele>720</ele>
        <time>2021-08-10T11:41:22.041Z</time>
      </trkpt>
      <trkpt lat="46.92269" lon="8.58554">
        <ele>720</ele>
        <time>2021-08-10T11:41:23.041Z</time>
      </trkpt>
      <trkpt lat="46.92269" lon="8.58553">
        <ele>720</ele>
        <time>2021-08-10T11:41:24.040Z</time>
      </trkpt>
      <trkpt lat="46.92269" lon="8.58552">
        <ele>720</ele>
        <time>2021-08-10T11:41:25.040Z</time>
      </trkpt>
      <trkpt lat="46.92268" lon="8.5855">
        <ele>720</ele>
        <time>2021-08-10T11:41:26.040Z</time>
      </trkpt>
      <trkpt lat="46.9227" lon="8.58548">
        <ele>714</ele>
        <time>2021-08-10T11:41:27.040Z</time>
      </trkpt>
      <trkpt lat="46.92271" lon="8.58548">
        <ele>714</ele>
        <time>2021-08-10T11:41:28.041Z</time>
      </trkpt>
      <trkpt lat="46.92271" lon="8.58547">
        <ele>713</ele>
        <time>2021-08-10T11:41:29.040Z</time>
      </trkpt>
      <trkpt lat="46.92271" lon="8.58547">
        <ele>712</ele>
        <time>2021-08-10T11:42:04.153Z</time>
      </trkpt>
      <trkpt lat="46.92271" lon="8.58545">
        <ele>711</ele>
        <time>2021-08-10T11:42:05.153Z</time>
      </trkpt>
      <trkpt lat="46.92271" lon="8.58545">
        <ele>711</ele>
        <time>2021-08-10T11:42:06.153Z</time>
      </trkpt>
      <trkpt lat="46.92271" lon="8.58548">
        <ele>714</ele>
        <time>2021-08-10T11:42:07.154Z</time>
      </trkpt>
      <trkpt lat="46.92271" lon="8.58548">
        <ele>715</ele>
        <time>2021-08-10T11:42:08.153Z</time>
      </trkpt>
      <trkpt lat="46.92271" lon="8.58548">
        <ele>715</ele>
        <time>2021-08-10T11:42:09.153Z</time>
      </trkpt>
      <trkpt lat="46.9227" lon="8.58548">
        <ele>717</ele>
        <time>2021-08-10T11:42:10.155Z</time>
      </trkpt>
      <trkpt lat="46.92268" lon="8.5855">
        <ele>717</ele>
        <time>2021-08-10T11:42:11.155Z</time>
      </trkpt>
      <trkpt lat="46.92268" lon="8.58552">
        <ele>718</ele>
        <time>2021-08-10T11:42:12.154Z</time>
      </trkpt>
      <trkpt lat="46.92267" lon="8.58553">
        <ele>718</ele>
        <time>2021-08-10T11:42:13.155Z</time>
      </trkpt>
      <trkpt lat="46.92267" lon="8.58554">
        <ele>718</ele>
        <time>2021-08-10T11:42:14.155Z</time>
      </trkpt>
      <trkpt lat="46.92267" lon="8.58555">
        <ele>719</ele>
        <time>2021-08-10T11:42:15.155Z</time>
      </trkpt>
      <trkpt lat="46.92266" lon="8.58557">
        <ele>719</ele>
        <time>2021-08-10T11:42:16.155Z</time>
      </trkpt>
      <trkpt lat="46.92265" lon="8.58558">
        <ele>719</ele>
        <time>2021-08-10T11:42:17.155Z</time>
      </trkpt>
      <trkpt lat="46.92264" lon="8.58559">
        <ele>720</ele>
        <time>2021-08-10T11:42:18.155Z</time>
      </trkpt>
      <trkpt lat="46.92263" lon="8.5856">
        <ele>720</ele>
        <time>2021-08-10T11:42:19.154Z</time>
      </trkpt>
      <trkpt lat="46.92263" lon="8.58562">
        <ele>720</ele>
        <time>2021-08-10T11:42:20.155Z</time>
      </trkpt>
      <trkpt lat="46.92263" lon="8.58563">
        <ele>721</ele>
        <time>2021-08-10T11:42:21.155Z</time>
      </trkpt>
      <trkpt lat="46.92262" lon="8.58564">
        <ele>721</ele>
        <time>2021-08-10T11:42:22.155Z</time>
      </trkpt>
      <trkpt lat="46.92261" lon="8.58565">
        <ele>721</ele>
        <time>2021-08-10T11:42:23.154Z</time>
      </trkpt>
      <trkpt lat="46.92261" lon="8.58567">
        <ele>721</ele>
        <time>2021-08-10T11:42:24.155Z</time>
      </trkpt>
      <trkpt lat="46.92261" lon="8.58569">
        <ele>721</ele>
        <time>2021-08-10T11:42:25.154Z</time>
      </trkpt>
      <trkpt lat="46.9226" lon="8.5857">
        <ele>722</ele>
        <time>2021-08-10T11:42:26.154Z</time>
      </trkpt>
      <trkpt lat="46.92259" lon="8.58572">
        <ele>722</ele>
        <time>2021-08-10T11:42:27.155Z</time>
      </trkpt>
      <trkpt lat="46.92258" lon="8.58574">
        <ele>722</ele>
        <time>2021-08-10T11:42:28.154Z</time>
      </trkpt>
      <trkpt lat="46.92257" lon="8.58575">
        <ele>722</ele>
        <time>2021-08-10T11:42:29.155Z</time>
      </trkpt>
      <trkpt lat="46.92256" lon="8.58577">
        <ele>722</ele>
        <time>2021-08-10T11:42:30.155Z</time>
      </trkpt>
      <trkpt lat="46.92255" lon="8.58578">
        <ele>722</ele>
        <time>2021-08-10T11:42:31.155Z</time>
      </trkpt>
      <trkpt lat="46.92254" lon="8.58579">
        <ele>723</ele>
        <time>2021-08-10T11:42:32.155Z</time>
      </trkpt>
      <trkpt lat="46.92253" lon="8.58581">
        <ele>723</ele>
        <time>2021-08-10T11:42:33.155Z</time>
      </trkpt>
      <trkpt lat="46.92251" lon="8.58581">
        <ele>723</ele>
        <time>2021-08-10T11:42:34.155Z</time>
      </trkpt>
      <trkpt lat="46.92249" lon="8.58581">
        <ele>723</ele>
        <time>2021-08-10T11:42:35.154Z</time>
      </trkpt>
      <trkpt lat="46.92249" lon="8.58581">
        <ele>723</ele>
        <time>2021-08-10T11:42:36.155Z</time>
      </trkpt>
      <trkpt lat="46.92248" lon="8.58582">
        <ele>724</ele>
        <time>2021-08-10T11:42:37.154Z</time>
      </trkpt>
      <trkpt lat="46.92247" lon="8.58584">
        <ele>724</ele>
        <time>2021-08-10T11:42:38.154Z</time>
      </trkpt>
      <trkpt lat="46.92246" lon="8.58586">
        <ele>724</ele>
        <time>2021-08-10T11:42:39.155Z</time>
      </trkpt>
      <trkpt lat="46.92244" lon="8.58588">
        <ele>725</ele>
        <time>2021-08-10T11:42:40.155Z</time>
      </trkpt>
      <trkpt lat="46.92244" lon="8.58588">
        <ele>725</ele>
        <time>2021-08-10T11:42:41.154Z</time>
      </trkpt>
      <trkpt lat="46.92243" lon="8.58589">
        <ele>725</ele>
        <time>2021-08-10T11:42:42.154Z</time>
      </trkpt>
      <trkpt lat="46.92242" lon="8.58592">
        <ele>726</ele>
        <time>2021-08-10T11:42:43.156Z</time>
      </trkpt>
      <trkpt lat="46.92242" lon="8.58593">
        <ele>726</ele>
        <time>2021-08-10T11:42:44.156Z</time>
      </trkpt>
      <trkpt lat="46.92241" lon="8.58593">
        <ele>726</ele>
        <time>2021-08-10T11:42:45.155Z</time>
      </trkpt>
      <trkpt lat="46.92241" lon="8.58593">
        <ele>726</ele>
        <time>2021-08-10T11:42:46.155Z</time>
      </trkpt>
      <trkpt lat="46.9224" lon="8.58594">
        <ele>726</ele>
        <time>2021-08-10T11:42:47.155Z</time>
      </trkpt>
      <trkpt lat="46.9224" lon="8.58594">
        <ele>727</ele>
        <time>2021-08-10T11:42:48.156Z</time>
      </trkpt>
      <trkpt lat="46.92239" lon="8.58594">
        <ele>727</ele>
        <time>2021-08-10T11:42:49.156Z</time>
      </trkpt>
      <trkpt lat="46.92238" lon="8.58594">
        <ele>727</ele>
        <time>2021-08-10T11:42:50.155Z</time>
      </trkpt>
      <trkpt lat="46.92238" lon="8.58594">
        <ele>727</ele>
        <time>2021-08-10T11:42:51.156Z</time>
      </trkpt>
      <trkpt lat="46.92237" lon="8.58593">
        <ele>728</ele>
        <time>2021-08-10T11:42:52.156Z</time>
      </trkpt>
      <trkpt lat="46.92236" lon="8.58592">
        <ele>728</ele>
        <time>2021-08-10T11:42:53.156Z</time>
      </trkpt>
      <trkpt lat="46.92234" lon="8.58591">
        <ele>728</ele>
        <time>2021-08-10T11:42:54.156Z</time>
      </trkpt>
      <trkpt lat="46.92233" lon="8.5859">
        <ele>728</ele>
        <time>2021-08-10T11:42:55.156Z</time>
      </trkpt>
      <trkpt lat="46.92232" lon="8.5859">
        <ele>729</ele>
        <time>2021-08-10T11:42:56.155Z</time>
      </trkpt>
      <trkpt lat="46.92231" lon="8.5859">
        <ele>729</ele>
        <time>2021-08-10T11:42:57.155Z</time>
      </trkpt>
      <trkpt lat="46.9223" lon="8.5859">
        <ele>729</ele>
        <time>2021-08-10T11:42:58.155Z</time>
      </trkpt>
      <trkpt lat="46.9223" lon="8.5859">
        <ele>729</ele>
        <time>2021-08-10T11:42:59.155Z</time>
      </trkpt>
      <trkpt lat="46.92229" lon="8.5859">
        <ele>729</ele>
        <time>2021-08-10T11:43:00.156Z</time>
      </trkpt>
      <trkpt lat="46.92228" lon="8.5859">
        <ele>729</ele>
        <time>2021-08-10T11:43:01.156Z</time>
      </trkpt>
      <trkpt lat="46.92228" lon="8.5859">
        <ele>729</ele>
        <time>2021-08-10T11:43:02.156Z</time>
      </trkpt>
      <trkpt lat="46.92227" lon="8.5859">
        <ele>729</ele>
        <time>2021-08-10T11:43:03.156Z</time>
      </trkpt>
      <trkpt lat="46.92227" lon="8.5859">
        <ele>729</ele>
        <time>2021-08-10T11:43:04.156Z</time>
      </trkpt>
      <trkpt lat="46.92226" lon="8.5859">
        <ele>729</ele>
        <time>2021-08-10T11:43:05.155Z</time>
      </trkpt>
      <trkpt lat="46.92226" lon="8.5859">
        <ele>729</ele>
        <time>2021-08-10T11:43:06.155Z</time>
      </trkpt>
      <trkpt lat="46.92226" lon="8.58589">
        <ele>729</ele>
        <time>2021-08-10T11:43:07.156Z</time>
      </trkpt>
      <trkpt lat="46.92225" lon="8.58589">
        <ele>729</ele>
        <time>2021-08-10T11:43:38.257Z</time>
      </trkpt>
      <trkpt lat="46.92224" lon="8.58589">
        <ele>729</ele>
        <time>2021-08-10T11:43:39.257Z</time>
      </trkpt>
      <trkpt lat="46.92223" lon="8.5859">
        <ele>729</ele>
        <time>2021-08-10T11:43:45.145Z</time>
      </trkpt>
      <trkpt lat="46.92222" lon="8.58591">
        <ele>729</ele>
        <time>2021-08-10T11:43:46.144Z</time>
      </trkpt>
      <trkpt lat="46.92221" lon="8.58591">
        <ele>729</ele>
        <time>2021-08-10T11:43:47.145Z</time>
      </trkpt>
      <trkpt lat="46.92221" lon="8.58591">
        <ele>728</ele>
        <time>2021-08-10T11:44:20.290Z</time>
      </trkpt>
      <trkpt lat="46.9222" lon="8.58591">
        <ele>728</ele>
        <time>2021-08-10T11:44:21.290Z</time>
      </trkpt>
      <trkpt lat="46.9222" lon="8.5859">
        <ele>728</ele>
        <time>2021-08-10T11:44:22.290Z</time>
      </trkpt>
      <trkpt lat="46.92219" lon="8.5859">
        <ele>728</ele>
        <time>2021-08-10T11:44:23.290Z</time>
      </trkpt>
      <trkpt lat="46.92219" lon="8.58589">
        <ele>728</ele>
        <time>2021-08-10T11:44:24.290Z</time>
      </trkpt>
      <trkpt lat="46.92218" lon="8.58588">
        <ele>727</ele>
        <time>2021-08-10T11:44:25.289Z</time>
      </trkpt>
      <trkpt lat="46.92217" lon="8.58588">
        <ele>727</ele>
        <time>2021-08-10T11:44:26.289Z</time>
      </trkpt>
      <trkpt lat="46.92217" lon="8.58588">
        <ele>727</ele>
        <time>2021-08-10T11:44:27.290Z</time>
      </trkpt>
      <trkpt lat="46.92216" lon="8.58588">
        <ele>727</ele>
        <time>2021-08-10T11:44:35.404Z</time>
      </trkpt>
      <trkpt lat="46.92215" lon="8.58589">
        <ele>727</ele>
        <time>2021-08-10T11:44:36.404Z</time>
      </trkpt>
      <trkpt lat="46.92214" lon="8.5859">
        <ele>727</ele>
        <time>2021-08-10T11:44:37.403Z</time>
      </trkpt>
      <trkpt lat="46.92214" lon="8.58591">
        <ele>727</ele>
        <time>2021-08-10T11:44:51.417Z</time>
      </trkpt>
      <trkpt lat="46.92213" lon="8.58592">
        <ele>727</ele>
        <time>2021-08-10T11:44:52.417Z</time>
      </trkpt>
      <trkpt lat="46.92213" lon="8.58592">
        <ele>728</ele>
        <time>2021-08-10T11:44:53.417Z</time>
      </trkpt>
      <trkpt lat="46.92212" lon="8.58592">
        <ele>728</ele>
        <time>2021-08-10T11:44:54.417Z</time>
      </trkpt>
      <trkpt lat="46.92212" lon="8.58593">
        <ele>728</ele>
        <time>2021-08-10T11:44:55.416Z</time>
      </trkpt>
      <trkpt lat="46.92211" lon="8.58594">
        <ele>728</ele>
        <time>2021-08-10T11:44:56.417Z</time>
      </trkpt>
      <trkpt lat="46.9221" lon="8.58595">
        <ele>729</ele>
        <time>2021-08-10T11:44:57.416Z</time>
      </trkpt>
      <trkpt lat="46.92209" lon="8.58595">
        <ele>729</ele>
        <time>2021-08-10T11:44:58.417Z</time>
      </trkpt>
      <trkpt lat="46.92208" lon="8.58595">
        <ele>729</ele>
        <time>2021-08-10T11:44:59.416Z</time>
      </trkpt>
      <trkpt lat="46.92208" lon="8.58595">
        <ele>730</ele>
        <time>2021-08-10T11:45:00.417Z</time>
      </trkpt>
      <trkpt lat="46.92207" lon="8.58595">
        <ele>730</ele>
        <time>2021-08-10T11:45:01.417Z</time>
      </trkpt>
      <trkpt lat="46.92207" lon="8.58594">
        <ele>731</ele>
        <time>2021-08-10T11:45:02.417Z</time>
      </trkpt>
      <trkpt lat="46.92207" lon="8.58594">
        <ele>731</ele>
        <time>2021-08-10T11:45:03.417Z</time>
      </trkpt>
      <trkpt lat="46.92207" lon="8.58594">
        <ele>731</ele>
        <time>2021-08-10T11:45:04.417Z</time>
      </trkpt>
      <trkpt lat="46.92206" lon="8.58594">
        <ele>731</ele>
        <time>2021-08-10T11:45:05.417Z</time>
      </trkpt>
      <trkpt lat="46.92205" lon="8.58594">
        <ele>731</ele>
        <time>2021-08-10T11:45:06.417Z</time>
      </trkpt>
      <trkpt lat="46.92204" lon="8.58593">
        <ele>732</ele>
        <time>2021-08-10T11:45:07.417Z</time>
      </trkpt>
      <trkpt lat="46.92204" lon="8.58592">
        <ele>732</ele>
        <time>2021-08-10T11:45:08.417Z</time>
      </trkpt>
      <trkpt lat="46.92203" lon="8.58592">
        <ele>732</ele>
        <time>2021-08-10T11:45:09.417Z</time>
      </trkpt>
      <trkpt lat="46.92203" lon="8.58591">
        <ele>732</ele>
        <time>2021-08-10T11:45:10.417Z</time>
      </trkpt>
      <trkpt lat="46.92203" lon="8.5859">
        <ele>732</ele>
        <time>2021-08-10T11:45:11.417Z</time>
      </trkpt>
      <trkpt lat="46.92202" lon="8.58588">
        <ele>732</ele>
        <time>2021-08-10T11:45:12.417Z</time>
      </trkpt>
      <trkpt lat="46.92201" lon="8.58588">
        <ele>732</ele>
        <time>2021-08-10T11:45:13.417Z</time>
      </trkpt>
      <trkpt lat="46.922" lon="8.58588">
        <ele>733</ele>
        <time>2021-08-10T11:45:14.417Z</time>
      </trkpt>
      <trkpt lat="46.92199" lon="8.58589">
        <ele>733</ele>
        <time>2021-08-10T11:45:15.417Z</time>
      </trkpt>
      <trkpt lat="46.92198" lon="8.58589">
        <ele>733</ele>
        <time>2021-08-10T11:45:16.417Z</time>
      </trkpt>
      <trkpt lat="46.92198" lon="8.58589">
        <ele>734</ele>
        <time>2021-08-10T11:45:17.416Z</time>
      </trkpt>
      <trkpt lat="46.92197" lon="8.58588">
        <ele>734</ele>
        <time>2021-08-10T11:45:18.416Z</time>
      </trkpt>
      <trkpt lat="46.92197" lon="8.58587">
        <ele>735</ele>
        <time>2021-08-10T11:45:19.417Z</time>
      </trkpt>
      <trkpt lat="46.92197" lon="8.58588">
        <ele>735</ele>
        <time>2021-08-10T11:45:20.417Z</time>
      </trkpt>
      <trkpt lat="46.92197" lon="8.58588">
        <ele>735</ele>
        <time>2021-08-10T11:45:21.417Z</time>
      </trkpt>
      <trkpt lat="46.92195" lon="8.58588">
        <ele>735</ele>
        <time>2021-08-10T11:45:22.417Z</time>
      </trkpt>
      <trkpt lat="46.92194" lon="8.58589">
        <ele>736</ele>
        <time>2021-08-10T11:45:23.416Z</time>
      </trkpt>
      <trkpt lat="46.92193" lon="8.58589">
        <ele>736</ele>
        <time>2021-08-10T11:45:24.417Z</time>
      </trkpt>
      <trkpt lat="46.92193" lon="8.58589">
        <ele>736</ele>
        <time>2021-08-10T11:45:25.416Z</time>
      </trkpt>
      <trkpt lat="46.92192" lon="8.58589">
        <ele>736</ele>
        <time>2021-08-10T11:45:26.417Z</time>
      </trkpt>
      <trkpt lat="46.92193" lon="8.5859">
        <ele>736</ele>
        <time>2021-08-10T11:45:27.416Z</time>
      </trkpt>
      <trkpt lat="46.92193" lon="8.5859">
        <ele>736</ele>
        <time>2021-08-10T11:45:28.417Z</time>
      </trkpt>
      <trkpt lat="46.92193" lon="8.58593">
        <ele>738</ele>
        <time>2021-08-10T11:45:29.416Z</time>
      </trkpt>
      <trkpt lat="46.92193" lon="8.58592">
        <ele>738</ele>
        <time>2021-08-10T11:45:30.416Z</time>
      </trkpt>
      <trkpt lat="46.92193" lon="8.58592">
        <ele>739</ele>
        <time>2021-08-10T11:45:31.417Z</time>
      </trkpt>
      <trkpt lat="46.92192" lon="8.58592">
        <ele>739</ele>
        <time>2021-08-10T11:45:32.417Z</time>
      </trkpt>
      <trkpt lat="46.92192" lon="8.58592">
        <ele>739</ele>
        <time>2021-08-10T11:45:33.417Z</time>
      </trkpt>
      <trkpt lat="46.92191" lon="8.58591">
        <ele>739</ele>
        <time>2021-08-10T11:45:34.417Z</time>
      </trkpt>
      <trkpt lat="46.92189" lon="8.5859">
        <ele>740</ele>
        <time>2021-08-10T11:45:35.417Z</time>
      </trkpt>
      <trkpt lat="46.92188" lon="8.5859">
        <ele>740</ele>
        <time>2021-08-10T11:45:36.417Z</time>
      </trkpt>
      <trkpt lat="46.92188" lon="8.58589">
        <ele>740</ele>
        <time>2021-08-10T11:45:37.417Z</time>
      </trkpt>
      <trkpt lat="46.92187" lon="8.58589">
        <ele>740</ele>
        <time>2021-08-10T11:45:38.417Z</time>
      </trkpt>
      <trkpt lat="46.92187" lon="8.58588">
        <ele>740</ele>
        <time>2021-08-10T11:45:39.417Z</time>
      </trkpt>
      <trkpt lat="46.92187" lon="8.58588">
        <ele>740</ele>
        <time>2021-08-10T11:45:40.416Z</time>
      </trkpt>
      <trkpt lat="46.92187" lon="8.58589">
        <ele>740</ele>
        <time>2021-08-10T11:45:41.416Z</time>
      </trkpt>
      <trkpt lat="46.92186" lon="8.5859">
        <ele>741</ele>
        <time>2021-08-10T11:45:42.417Z</time>
      </trkpt>
      <trkpt lat="46.92186" lon="8.5859">
        <ele>741</ele>
        <time>2021-08-10T11:45:43.417Z</time>
      </trkpt>
      <trkpt lat="46.92185" lon="8.58591">
        <ele>741</ele>
        <time>2021-08-10T11:45:44.416Z</time>
      </trkpt>
      <trkpt lat="46.92183" lon="8.58591">
        <ele>741</ele>
        <time>2021-08-10T11:45:45.416Z</time>
      </trkpt>
      <trkpt lat="46.92182" lon="8.58592">
        <ele>741</ele>
        <time>2021-08-10T11:45:46.416Z</time>
      </trkpt>
      <trkpt lat="46.92181" lon="8.58592">
        <ele>741</ele>
        <time>2021-08-10T11:45:47.416Z</time>
      </trkpt>
      <trkpt lat="46.92181" lon="8.58592">
        <ele>741</ele>
        <time>2021-08-10T11:45:48.417Z</time>
      </trkpt>
      <trkpt lat="46.9218" lon="8.58593">
        <ele>741</ele>
        <time>2021-08-10T11:45:49.417Z</time>
      </trkpt>
      <trkpt lat="46.92179" lon="8.58594">
        <ele>742</ele>
        <time>2021-08-10T11:45:50.417Z</time>
      </trkpt>
      <trkpt lat="46.92178" lon="8.58595">
        <ele>742</ele>
        <time>2021-08-10T11:45:51.417Z</time>
      </trkpt>
      <trkpt lat="46.92177" lon="8.58595">
        <ele>742</ele>
        <time>2021-08-10T11:45:52.416Z</time>
      </trkpt>
      <trkpt lat="46.92176" lon="8.58595">
        <ele>742</ele>
        <time>2021-08-10T11:45:53.416Z</time>
      </trkpt>
      <trkpt lat="46.92174" lon="8.58597">
        <ele>742</ele>
        <time>2021-08-10T11:45:54.417Z</time>
      </trkpt>
      <trkpt lat="46.92174" lon="8.58599">
        <ele>742</ele>
        <time>2021-08-10T11:45:55.416Z</time>
      </trkpt>
      <trkpt lat="46.92174" lon="8.58599">
        <ele>742</ele>
        <time>2021-08-10T11:45:56.417Z</time>
      </trkpt>
      <trkpt lat="46.92174" lon="8.586">
        <ele>743</ele>
        <time>2021-08-10T11:45:57.417Z</time>
      </trkpt>
      <trkpt lat="46.92173" lon="8.586">
        <ele>743</ele>
        <time>2021-08-10T11:45:58.417Z</time>
      </trkpt>
      <trkpt lat="46.92172" lon="8.58602">
        <ele>743</ele>
        <time>2021-08-10T11:45:59.417Z</time>
      </trkpt>
      <trkpt lat="46.92172" lon="8.58604">
        <ele>743</ele>
        <time>2021-08-10T11:46:00.417Z</time>
      </trkpt>
      <trkpt lat="46.9217" lon="8.58606">
        <ele>744</ele>
        <time>2021-08-10T11:46:01.416Z</time>
      </trkpt>
      <trkpt lat="46.92167" lon="8.58608">
        <ele>744</ele>
        <time>2021-08-10T11:46:02.417Z</time>
      </trkpt>
      <trkpt lat="46.92165" lon="8.58609">
        <ele>744</ele>
        <time>2021-08-10T11:46:03.417Z</time>
      </trkpt>
      <trkpt lat="46.92163" lon="8.58608">
        <ele>744</ele>
        <time>2021-08-10T11:46:04.416Z</time>
      </trkpt>
      <trkpt lat="46.9216" lon="8.58608">
        <ele>744</ele>
        <time>2021-08-10T11:46:05.417Z</time>
      </trkpt>
      <trkpt lat="46.92159" lon="8.58607">
        <ele>745</ele>
        <time>2021-08-10T11:46:06.416Z</time>
      </trkpt>
      <trkpt lat="46.92159" lon="8.58607">
        <ele>745</ele>
        <time>2021-08-10T11:46:07.417Z</time>
      </trkpt>
      <trkpt lat="46.92159" lon="8.58606">
        <ele>745</ele>
        <time>2021-08-10T11:46:08.417Z</time>
      </trkpt>
      <trkpt lat="46.92159" lon="8.58606">
        <ele>745</ele>
        <time>2021-08-10T11:46:09.417Z</time>
      </trkpt>
      <trkpt lat="46.92158" lon="8.58606">
        <ele>745</ele>
        <time>2021-08-10T11:46:10.417Z</time>
      </trkpt>
      <trkpt lat="46.92158" lon="8.58606">
        <ele>746</ele>
        <time>2021-08-10T11:46:11.416Z</time>
      </trkpt>
      <trkpt lat="46.92157" lon="8.58606">
        <ele>746</ele>
        <time>2021-08-10T11:46:12.416Z</time>
      </trkpt>
      <trkpt lat="46.92158" lon="8.58605">
        <ele>747</ele>
        <time>2021-08-10T11:46:13.417Z</time>
      </trkpt>
      <trkpt lat="46.92158" lon="8.58604">
        <ele>748</ele>
        <time>2021-08-10T11:46:14.416Z</time>
      </trkpt>
      <trkpt lat="46.92159" lon="8.58603">
        <ele>749</ele>
        <time>2021-08-10T11:46:15.416Z</time>
      </trkpt>
      <trkpt lat="46.92158" lon="8.58603">
        <ele>750</ele>
        <time>2021-08-10T11:46:16.416Z</time>
      </trkpt>
      <trkpt lat="46.92158" lon="8.58603">
        <ele>750</ele>
        <time>2021-08-10T11:46:17.416Z</time>
      </trkpt>
      <trkpt lat="46.92159" lon="8.58601">
        <ele>753</ele>
        <time>2021-08-10T11:46:18.417Z</time>
      </trkpt>
      <trkpt lat="46.92158" lon="8.58601">
        <ele>754</ele>
        <time>2021-08-10T11:46:19.417Z</time>
      </trkpt>
      <trkpt lat="46.92158" lon="8.586">
        <ele>754</ele>
        <time>2021-08-10T11:46:20.417Z</time>
      </trkpt>
      <trkpt lat="46.92158" lon="8.586">
        <ele>754</ele>
        <time>2021-08-10T11:46:21.417Z</time>
      </trkpt>
      <trkpt lat="46.92158" lon="8.58599">
        <ele>755</ele>
        <time>2021-08-10T11:46:22.417Z</time>
      </trkpt>
      <trkpt lat="46.92159" lon="8.58597">
        <ele>756</ele>
        <time>2021-08-10T11:46:23.417Z</time>
      </trkpt>
      <trkpt lat="46.92159" lon="8.58596">
        <ele>756</ele>
        <time>2021-08-10T11:46:24.417Z</time>
      </trkpt>
      <trkpt lat="46.92159" lon="8.58596">
        <ele>756</ele>
        <time>2021-08-10T11:46:25.417Z</time>
      </trkpt>
      <trkpt lat="46.92158" lon="8.58597">
        <ele>757</ele>
        <time>2021-08-10T11:46:26.418Z</time>
      </trkpt>
      <trkpt lat="46.92158" lon="8.58597">
        <ele>757</ele>
        <time>2021-08-10T11:46:27.417Z</time>
      </trkpt>
      <trkpt lat="46.92158" lon="8.58596">
        <ele>758</ele>
        <time>2021-08-10T11:46:28.417Z</time>
      </trkpt>
      <trkpt lat="46.92159" lon="8.58596">
        <ele>758</ele>
        <time>2021-08-10T11:46:29.417Z</time>
      </trkpt>
      <trkpt lat="46.92159" lon="8.58596">
        <ele>759</ele>
        <time>2021-08-10T11:46:30.417Z</time>
      </trkpt>
      <trkpt lat="46.92161" lon="8.58597">
        <ele>760</ele>
        <time>2021-08-10T11:46:31.417Z</time>
      </trkpt>
      <trkpt lat="46.92162" lon="8.58597">
        <ele>760</ele>
        <time>2021-08-10T11:46:32.417Z</time>
      </trkpt>
      <trkpt lat="46.9216" lon="8.58603">
        <ele>762</ele>
        <time>2021-08-10T11:46:33.417Z</time>
      </trkpt>
      <trkpt lat="46.92159" lon="8.58604">
        <ele>763</ele>
        <time>2021-08-10T11:46:34.417Z</time>
      </trkpt>
      <trkpt lat="46.92158" lon="8.58605">
        <ele>763</ele>
        <time>2021-08-10T11:46:35.418Z</time>
      </trkpt>
      <trkpt lat="46.92158" lon="8.58605">
        <ele>763</ele>
        <time>2021-08-10T11:46:36.418Z</time>
      </trkpt>
      <trkpt lat="46.92157" lon="8.58605">
        <ele>763</ele>
        <time>2021-08-10T11:46:37.418Z</time>
      </trkpt>
      <trkpt lat="46.92156" lon="8.58605">
        <ele>763</ele>
        <time>2021-08-10T11:46:38.417Z</time>
      </trkpt>
      <trkpt lat="46.92156" lon="8.58606">
        <ele>763</ele>
        <time>2021-08-10T11:46:39.417Z</time>
      </trkpt>
      <trkpt lat="46.92156" lon="8.58606">
        <ele>763</ele>
        <time>2021-08-10T11:46:40.417Z</time>
      </trkpt>
      <trkpt lat="46.92155" lon="8.58606">
        <ele>764</ele>
        <time>2021-08-10T11:46:41.417Z</time>
      </trkpt>
      <trkpt lat="46.92154" lon="8.58606">
        <ele>764</ele>
        <time>2021-08-10T11:46:42.417Z</time>
      </trkpt>
      <trkpt lat="46.92153" lon="8.58607">
        <ele>764</ele>
        <time>2021-08-10T11:46:43.417Z</time>
      </trkpt>
      <trkpt lat="46.92152" lon="8.58608">
        <ele>764</ele>
        <time>2021-08-10T11:46:44.418Z</time>
      </trkpt>
      <trkpt lat="46.92151" lon="8.58609">
        <ele>764</ele>
        <time>2021-08-10T11:46:45.417Z</time>
      </trkpt>
      <trkpt lat="46.9215" lon="8.58609">
        <ele>764</ele>
        <time>2021-08-10T11:46:46.417Z</time>
      </trkpt>
      <trkpt lat="46.92149" lon="8.5861">
        <ele>764</ele>
        <time>2021-08-10T11:46:47.418Z</time>
      </trkpt>
      <trkpt lat="46.92149" lon="8.5861">
        <ele>764</ele>
        <time>2021-08-10T11:46:48.417Z</time>
      </trkpt>
      <trkpt lat="46.92148" lon="8.5861">
        <ele>765</ele>
        <time>2021-08-10T11:46:49.418Z</time>
      </trkpt>
      <trkpt lat="46.92147" lon="8.5861">
        <ele>765</ele>
        <time>2021-08-10T11:46:50.418Z</time>
      </trkpt>
      <trkpt lat="46.92146" lon="8.58612">
        <ele>765</ele>
        <time>2021-08-10T11:46:51.417Z</time>
      </trkpt>
      <trkpt lat="46.92145" lon="8.58614">
        <ele>765</ele>
        <time>2021-08-10T11:46:52.418Z</time>
      </trkpt>
      <trkpt lat="46.92145" lon="8.58616">
        <ele>765</ele>
        <time>2021-08-10T11:46:53.417Z</time>
      </trkpt>
      <trkpt lat="46.92145" lon="8.58617">
        <ele>765</ele>
        <time>2021-08-10T11:46:54.417Z</time>
      </trkpt>
      <trkpt lat="46.92145" lon="8.58618">
        <ele>765</ele>
        <time>2021-08-10T11:46:55.417Z</time>
      </trkpt>
      <trkpt lat="46.92145" lon="8.58619">
        <ele>765</ele>
        <time>2021-08-10T11:46:56.417Z</time>
      </trkpt>
      <trkpt lat="46.92144" lon="8.58621">
        <ele>765</ele>
        <time>2021-08-10T11:46:57.418Z</time>
      </trkpt>
      <trkpt lat="46.92143" lon="8.58623">
        <ele>766</ele>
        <time>2021-08-10T11:46:58.417Z</time>
      </trkpt>
      <trkpt lat="46.92142" lon="8.58624">
        <ele>766</ele>
        <time>2021-08-10T11:46:59.417Z</time>
      </trkpt>
      <trkpt lat="46.92142" lon="8.58624">
        <ele>766</ele>
        <time>2021-08-10T11:47:00.417Z</time>
      </trkpt>
      <trkpt lat="46.92142" lon="8.58623">
        <ele>766</ele>
        <time>2021-08-10T11:47:01.417Z</time>
      </trkpt>
      <trkpt lat="46.92141" lon="8.58623">
        <ele>766</ele>
        <time>2021-08-10T11:47:02.417Z</time>
      </trkpt>
      <trkpt lat="46.9214" lon="8.58622">
        <ele>766</ele>
        <time>2021-08-10T11:47:03.417Z</time>
      </trkpt>
      <trkpt lat="46.92139" lon="8.58622">
        <ele>767</ele>
        <time>2021-08-10T11:47:04.417Z</time>
      </trkpt>
      <trkpt lat="46.92138" lon="8.58621">
        <ele>767</ele>
        <time>2021-08-10T11:47:05.417Z</time>
      </trkpt>
      <trkpt lat="46.92134" lon="8.58624">
        <ele>767</ele>
        <time>2021-08-10T11:47:06.417Z</time>
      </trkpt>
      <trkpt lat="46.92133" lon="8.58625">
        <ele>767</ele>
        <time>2021-08-10T11:47:07.417Z</time>
      </trkpt>
      <trkpt lat="46.92132" lon="8.58626">
        <ele>767</ele>
        <time>2021-08-10T11:47:08.418Z</time>
      </trkpt>
      <trkpt lat="46.92131" lon="8.58627">
        <ele>767</ele>
        <time>2021-08-10T11:47:09.417Z</time>
      </trkpt>
      <trkpt lat="46.9213" lon="8.58628">
        <ele>767</ele>
        <time>2021-08-10T11:47:10.417Z</time>
      </trkpt>
      <trkpt lat="46.92129" lon="8.58629">
        <ele>767</ele>
        <time>2021-08-10T11:47:11.417Z</time>
      </trkpt>
      <trkpt lat="46.92128" lon="8.58629">
        <ele>767</ele>
        <time>2021-08-10T11:47:12.417Z</time>
      </trkpt>
      <trkpt lat="46.92126" lon="8.58629">
        <ele>767</ele>
        <time>2021-08-10T11:47:13.417Z</time>
      </trkpt>
      <trkpt lat="46.92125" lon="8.58629">
        <ele>766</ele>
        <time>2021-08-10T11:47:14.417Z</time>
      </trkpt>
      <trkpt lat="46.92124" lon="8.58628">
        <ele>766</ele>
        <time>2021-08-10T11:47:15.418Z</time>
      </trkpt>
      <trkpt lat="46.92124" lon="8.58627">
        <ele>766</ele>
        <time>2021-08-10T11:47:16.417Z</time>
      </trkpt>
      <trkpt lat="46.92123" lon="8.58627">
        <ele>766</ele>
        <time>2021-08-10T11:47:17.417Z</time>
      </trkpt>
      <trkpt lat="46.92123" lon="8.58627">
        <ele>766</ele>
        <time>2021-08-10T11:47:18.417Z</time>
      </trkpt>
      <trkpt lat="46.92122" lon="8.58627">
        <ele>766</ele>
        <time>2021-08-10T11:47:19.418Z</time>
      </trkpt>
      <trkpt lat="46.92122" lon="8.58626">
        <ele>766</ele>
        <time>2021-08-10T11:47:20.417Z</time>
      </trkpt>
      <trkpt lat="46.92121" lon="8.58626">
        <ele>766</ele>
        <time>2021-08-10T11:47:21.417Z</time>
      </trkpt>
      <trkpt lat="46.9212" lon="8.58626">
        <ele>766</ele>
        <time>2021-08-10T11:47:22.418Z</time>
      </trkpt>
      <trkpt lat="46.92119" lon="8.58626">
        <ele>766</ele>
        <time>2021-08-10T11:47:23.417Z</time>
      </trkpt>
      <trkpt lat="46.92119" lon="8.58626">
        <ele>766</ele>
        <time>2021-08-10T11:47:24.418Z</time>
      </trkpt>
      <trkpt lat="46.92118" lon="8.58626">
        <ele>765</ele>
        <time>2021-08-10T11:47:25.417Z</time>
      </trkpt>
      <trkpt lat="46.92118" lon="8.58627">
        <ele>765</ele>
        <time>2021-08-10T11:47:26.417Z</time>
      </trkpt>
      <trkpt lat="46.92117" lon="8.58627">
        <ele>765</ele>
        <time>2021-08-10T11:47:27.417Z</time>
      </trkpt>
      <trkpt lat="46.92116" lon="8.58627">
        <ele>765</ele>
        <time>2021-08-10T11:47:28.418Z</time>
      </trkpt>
      <trkpt lat="46.92115" lon="8.58627">
        <ele>765</ele>
        <time>2021-08-10T11:47:29.418Z</time>
      </trkpt>
      <trkpt lat="46.92114" lon="8.58627">
        <ele>765</ele>
        <time>2021-08-10T11:47:30.417Z</time>
      </trkpt>
      <trkpt lat="46.92113" lon="8.58627">
        <ele>764</ele>
        <time>2021-08-10T11:47:31.418Z</time>
      </trkpt>
      <trkpt lat="46.92112" lon="8.58627">
        <ele>764</ele>
        <time>2021-08-10T11:47:32.417Z</time>
      </trkpt>
      <trkpt lat="46.92112" lon="8.58626">
        <ele>764</ele>
        <time>2021-08-10T11:47:33.418Z</time>
      </trkpt>
      <trkpt lat="46.92112" lon="8.58625">
        <ele>764</ele>
        <time>2021-08-10T11:47:34.418Z</time>
      </trkpt>
      <trkpt lat="46.92111" lon="8.58624">
        <ele>764</ele>
        <time>2021-08-10T11:47:35.417Z</time>
      </trkpt>
      <trkpt lat="46.92111" lon="8.58624">
        <ele>764</ele>
        <time>2021-08-10T11:47:36.417Z</time>
      </trkpt>
      <trkpt lat="46.9211" lon="8.58624">
        <ele>763</ele>
        <time>2021-08-10T11:47:37.417Z</time>
      </trkpt>
      <trkpt lat="46.9211" lon="8.58625">
        <ele>763</ele>
        <time>2021-08-10T11:47:38.417Z</time>
      </trkpt>
      <trkpt lat="46.9211" lon="8.58626">
        <ele>763</ele>
        <time>2021-08-10T11:47:39.417Z</time>
      </trkpt>
      <trkpt lat="46.92109" lon="8.58626">
        <ele>763</ele>
        <time>2021-08-10T11:47:40.418Z</time>
      </trkpt>
      <trkpt lat="46.92108" lon="8.58625">
        <ele>763</ele>
        <time>2021-08-10T11:47:41.417Z</time>
      </trkpt>
      <trkpt lat="46.92107" lon="8.58625">
        <ele>763</ele>
        <time>2021-08-10T11:47:42.417Z</time>
      </trkpt>
      <trkpt lat="46.92106" lon="8.58625">
        <ele>762</ele>
        <time>2021-08-10T11:47:43.417Z</time>
      </trkpt>
      <trkpt lat="46.92106" lon="8.58625">
        <ele>762</ele>
        <time>2021-08-10T11:47:44.418Z</time>
      </trkpt>
      <trkpt lat="46.92105" lon="8.58626">
        <ele>762</ele>
        <time>2021-08-10T11:47:45.417Z</time>
      </trkpt>
      <trkpt lat="46.92104" lon="8.58626">
        <ele>761</ele>
        <time>2021-08-10T11:47:46.417Z</time>
      </trkpt>
      <trkpt lat="46.92104" lon="8.58626">
        <ele>761</ele>
        <time>2021-08-10T11:47:47.417Z</time>
      </trkpt>
      <trkpt lat="46.92103" lon="8.58627">
        <ele>761</ele>
        <time>2021-08-10T11:47:48.418Z</time>
      </trkpt>
      <trkpt lat="46.92102" lon="8.58628">
        <ele>761</ele>
        <time>2021-08-10T11:47:49.418Z</time>
      </trkpt>
      <trkpt lat="46.92102" lon="8.58628">
        <ele>761</ele>
        <time>2021-08-10T11:47:50.417Z</time>
      </trkpt>
      <trkpt lat="46.92102" lon="8.58628">
        <ele>761</ele>
        <time>2021-08-10T11:47:51.417Z</time>
      </trkpt>
      <trkpt lat="46.92101" lon="8.58628">
        <ele>761</ele>
        <time>2021-08-10T11:47:52.417Z</time>
      </trkpt>
      <trkpt lat="46.921" lon="8.58627">
        <ele>761</ele>
        <time>2021-08-10T11:47:53.418Z</time>
      </trkpt>
      <trkpt lat="46.92099" lon="8.58625">
        <ele>761</ele>
        <time>2021-08-10T11:47:54.417Z</time>
      </trkpt>
      <trkpt lat="46.92099" lon="8.58624">
        <ele>761</ele>
        <time>2021-08-10T11:47:55.417Z</time>
      </trkpt>
      <trkpt lat="46.92099" lon="8.58623">
        <ele>762</ele>
        <time>2021-08-10T11:47:56.417Z</time>
      </trkpt>
      <trkpt lat="46.92098" lon="8.58622">
        <ele>762</ele>
        <time>2021-08-10T11:47:57.417Z</time>
      </trkpt>
      <trkpt lat="46.92098" lon="8.58621">
        <ele>762</ele>
        <time>2021-08-10T11:47:58.417Z</time>
      </trkpt>
      <trkpt lat="46.92097" lon="8.58621">
        <ele>762</ele>
        <time>2021-08-10T11:47:59.417Z</time>
      </trkpt>
      <trkpt lat="46.92096" lon="8.58622">
        <ele>762</ele>
        <time>2021-08-10T11:48:00.417Z</time>
      </trkpt>
      <trkpt lat="46.92095" lon="8.58623">
        <ele>762</ele>
        <time>2021-08-10T11:48:01.418Z</time>
      </trkpt>
      <trkpt lat="46.92095" lon="8.58623">
        <ele>762</ele>
        <time>2021-08-10T11:48:02.417Z</time>
      </trkpt>
      <trkpt lat="46.92094" lon="8.58623">
        <ele>763</ele>
        <time>2021-08-10T11:48:03.417Z</time>
      </trkpt>
      <trkpt lat="46.92093" lon="8.58623">
        <ele>763</ele>
        <time>2021-08-10T11:48:04.417Z</time>
      </trkpt>
      <trkpt lat="46.92093" lon="8.58624">
        <ele>763</ele>
        <time>2021-08-10T11:48:05.417Z</time>
      </trkpt>
      <trkpt lat="46.92092" lon="8.58624">
        <ele>763</ele>
        <time>2021-08-10T11:48:06.417Z</time>
      </trkpt>
      <trkpt lat="46.92091" lon="8.58625">
        <ele>764</ele>
        <time>2021-08-10T11:48:07.417Z</time>
      </trkpt>
      <trkpt lat="46.92091" lon="8.58625">
        <ele>764</ele>
        <time>2021-08-10T11:48:08.418Z</time>
      </trkpt>
      <trkpt lat="46.92091" lon="8.58624">
        <ele>764</ele>
        <time>2021-08-10T11:48:09.417Z</time>
      </trkpt>
      <trkpt lat="46.9209" lon="8.58624">
        <ele>765</ele>
        <time>2021-08-10T11:48:10.417Z</time>
      </trkpt>
      <trkpt lat="46.9209" lon="8.58623">
        <ele>765</ele>
        <time>2021-08-10T11:48:11.417Z</time>
      </trkpt>
      <trkpt lat="46.9209" lon="8.58622">
        <ele>765</ele>
        <time>2021-08-10T11:48:12.418Z</time>
      </trkpt>
      <trkpt lat="46.92089" lon="8.58621">
        <ele>765</ele>
        <time>2021-08-10T11:48:13.418Z</time>
      </trkpt>
      <trkpt lat="46.92089" lon="8.5862">
        <ele>766</ele>
        <time>2021-08-10T11:48:14.418Z</time>
      </trkpt>
      <trkpt lat="46.92088" lon="8.58621">
        <ele>766</ele>
        <time>2021-08-10T11:48:15.418Z</time>
      </trkpt>
      <trkpt lat="46.92088" lon="8.58621">
        <ele>766</ele>
        <time>2021-08-10T11:48:16.418Z</time>
      </trkpt>
      <trkpt lat="46.92087" lon="8.58621">
        <ele>766</ele>
        <time>2021-08-10T11:48:17.417Z</time>
      </trkpt>
      <trkpt lat="46.92087" lon="8.58621">
        <ele>766</ele>
        <time>2021-08-10T11:48:18.418Z</time>
      </trkpt>
      <trkpt lat="46.92087" lon="8.5862">
        <ele>766</ele>
        <time>2021-08-10T11:48:19.418Z</time>
      </trkpt>
      <trkpt lat="46.92087" lon="8.58619">
        <ele>766</ele>
        <time>2021-08-10T11:48:20.418Z</time>
      </trkpt>
      <trkpt lat="46.92086" lon="8.58618">
        <ele>766</ele>
        <time>2021-08-10T11:48:21.418Z</time>
      </trkpt>
      <trkpt lat="46.92086" lon="8.58617">
        <ele>766</ele>
        <time>2021-08-10T11:48:22.418Z</time>
      </trkpt>
      <trkpt lat="46.92086" lon="8.58617">
        <ele>766</ele>
        <time>2021-08-10T11:48:23.418Z</time>
      </trkpt>
      <trkpt lat="46.92086" lon="8.58617">
        <ele>766</ele>
        <time>2021-08-10T11:48:24.418Z</time>
      </trkpt>
      <trkpt lat="46.92085" lon="8.58617">
        <ele>767</ele>
        <time>2021-08-10T11:48:25.418Z</time>
      </trkpt>
      <trkpt lat="46.92085" lon="8.58616">
        <ele>767</ele>
        <time>2021-08-10T11:48:26.417Z</time>
      </trkpt>
      <trkpt lat="46.92085" lon="8.58615">
        <ele>767</ele>
        <time>2021-08-10T11:48:27.418Z</time>
      </trkpt>
      <trkpt lat="46.92084" lon="8.58615">
        <ele>767</ele>
        <time>2021-08-10T11:48:28.418Z</time>
      </trkpt>
      <trkpt lat="46.92083" lon="8.58614">
        <ele>768</ele>
        <time>2021-08-10T11:48:29.419Z</time>
      </trkpt>
      <trkpt lat="46.92083" lon="8.58613">
        <ele>768</ele>
        <time>2021-08-10T11:48:30.418Z</time>
      </trkpt>
      <trkpt lat="46.92082" lon="8.58612">
        <ele>768</ele>
        <time>2021-08-10T11:48:31.418Z</time>
      </trkpt>
      <trkpt lat="46.92076" lon="8.58613">
        <ele>769</ele>
        <time>2021-08-10T11:48:32.419Z</time>
      </trkpt>
      <trkpt lat="46.92075" lon="8.58613">
        <ele>769</ele>
        <time>2021-08-10T11:48:33.418Z</time>
      </trkpt>
      <trkpt lat="46.92074" lon="8.58614">
        <ele>769</ele>
        <time>2021-08-10T11:48:34.419Z</time>
      </trkpt>
      <trkpt lat="46.92073" lon="8.58614">
        <ele>769</ele>
        <time>2021-08-10T11:48:35.418Z</time>
      </trkpt>
      <trkpt lat="46.92073" lon="8.58614">
        <ele>769</ele>
        <time>2021-08-10T11:48:36.418Z</time>
      </trkpt>
      <trkpt lat="46.92073" lon="8.58613">
        <ele>770</ele>
        <time>2021-08-10T11:48:37.418Z</time>
      </trkpt>
      <trkpt lat="46.92072" lon="8.58614">
        <ele>770</ele>
        <time>2021-08-10T11:48:38.418Z</time>
      </trkpt>
      <trkpt lat="46.92071" lon="8.58613">
        <ele>770</ele>
        <time>2021-08-10T11:48:39.418Z</time>
      </trkpt>
      <trkpt lat="46.92069" lon="8.58613">
        <ele>771</ele>
        <time>2021-08-10T11:48:40.418Z</time>
      </trkpt>
      <trkpt lat="46.92068" lon="8.58614">
        <ele>771</ele>
        <time>2021-08-10T11:48:41.418Z</time>
      </trkpt>
      <trkpt lat="46.92067" lon="8.58614">
        <ele>771</ele>
        <time>2021-08-10T11:48:42.418Z</time>
      </trkpt>
      <trkpt lat="46.92067" lon="8.58614">
        <ele>771</ele>
        <time>2021-08-10T11:48:43.418Z</time>
      </trkpt>
      <trkpt lat="46.92067" lon="8.58613">
        <ele>771</ele>
        <time>2021-08-10T11:48:44.418Z</time>
      </trkpt>
      <trkpt lat="46.92067" lon="8.58613">
        <ele>771</ele>
        <time>2021-08-10T11:48:45.418Z</time>
      </trkpt>
      <trkpt lat="46.92067" lon="8.58612">
        <ele>771</ele>
        <time>2021-08-10T11:48:46.419Z</time>
      </trkpt>
      <trkpt lat="46.92067" lon="8.5861">
        <ele>771</ele>
        <time>2021-08-10T11:48:47.418Z</time>
      </trkpt>
      <trkpt lat="46.92067" lon="8.58608">
        <ele>771</ele>
        <time>2021-08-10T11:48:48.419Z</time>
      </trkpt>
      <trkpt lat="46.92067" lon="8.58607">
        <ele>771</ele>
        <time>2021-08-10T11:48:51.510Z</time>
      </trkpt>
      <trkpt lat="46.92067" lon="8.58606">
        <ele>771</ele>
        <time>2021-08-10T11:48:52.511Z</time>
      </trkpt>
      <trkpt lat="46.92066" lon="8.58605">
        <ele>771</ele>
        <time>2021-08-10T11:48:53.511Z</time>
      </trkpt>
      <trkpt lat="46.92066" lon="8.58605">
        <ele>770</ele>
        <time>2021-08-10T11:48:56.652Z</time>
      </trkpt>
      <trkpt lat="46.92065" lon="8.58605">
        <ele>770</ele>
        <time>2021-08-10T11:48:57.652Z</time>
      </trkpt>
      <trkpt lat="46.92065" lon="8.58605">
        <ele>770</ele>
        <time>2021-08-10T11:48:58.652Z</time>
      </trkpt>
      <trkpt lat="46.92065" lon="8.58604">
        <ele>770</ele>
        <time>2021-08-10T11:48:59.652Z</time>
      </trkpt>
      <trkpt lat="46.92065" lon="8.58603">
        <ele>770</ele>
        <time>2021-08-10T11:49:00.653Z</time>
      </trkpt>
      <trkpt lat="46.92065" lon="8.58603">
        <ele>770</ele>
        <time>2021-08-10T11:49:01.652Z</time>
      </trkpt>
      <trkpt lat="46.92064" lon="8.58603">
        <ele>770</ele>
        <time>2021-08-10T11:49:02.652Z</time>
      </trkpt>
      <trkpt lat="46.92063" lon="8.58603">
        <ele>771</ele>
        <time>2021-08-10T11:49:03.652Z</time>
      </trkpt>
      <trkpt lat="46.92062" lon="8.58603">
        <ele>771</ele>
        <time>2021-08-10T11:49:04.652Z</time>
      </trkpt>
      <trkpt lat="46.92061" lon="8.58604">
        <ele>771</ele>
        <time>2021-08-10T11:49:05.653Z</time>
      </trkpt>
      <trkpt lat="46.9206" lon="8.58604">
        <ele>771</ele>
        <time>2021-08-10T11:49:06.652Z</time>
      </trkpt>
      <trkpt lat="46.92059" lon="8.58605">
        <ele>771</ele>
        <time>2021-08-10T11:49:07.652Z</time>
      </trkpt>
      <trkpt lat="46.92058" lon="8.58604">
        <ele>772</ele>
        <time>2021-08-10T11:49:08.652Z</time>
      </trkpt>
      <trkpt lat="46.92058" lon="8.58604">
        <ele>772</ele>
        <time>2021-08-10T11:49:09.652Z</time>
      </trkpt>
      <trkpt lat="46.92057" lon="8.58605">
        <ele>772</ele>
        <time>2021-08-10T11:49:10.652Z</time>
      </trkpt>
      <trkpt lat="46.92058" lon="8.58605">
        <ele>772</ele>
        <time>2021-08-10T11:49:11.652Z</time>
      </trkpt>
      <trkpt lat="46.92058" lon="8.58604">
        <ele>773</ele>
        <time>2021-08-10T11:49:12.652Z</time>
      </trkpt>
      <trkpt lat="46.92058" lon="8.58603">
        <ele>773</ele>
        <time>2021-08-10T11:49:13.652Z</time>
      </trkpt>
      <trkpt lat="46.92058" lon="8.58602">
        <ele>773</ele>
        <time>2021-08-10T11:49:14.652Z</time>
      </trkpt>
      <trkpt lat="46.92057" lon="8.58602">
        <ele>773</ele>
        <time>2021-08-10T11:49:15.653Z</time>
      </trkpt>
      <trkpt lat="46.92056" lon="8.58603">
        <ele>774</ele>
        <time>2021-08-10T11:49:16.653Z</time>
      </trkpt>
      <trkpt lat="46.92056" lon="8.58604">
        <ele>774</ele>
        <time>2021-08-10T11:49:17.653Z</time>
      </trkpt>
      <trkpt lat="46.92055" lon="8.58605">
        <ele>774</ele>
        <time>2021-08-10T11:49:18.652Z</time>
      </trkpt>
      <trkpt lat="46.92055" lon="8.58604">
        <ele>774</ele>
        <time>2021-08-10T11:49:19.653Z</time>
      </trkpt>
      <trkpt lat="46.92054" lon="8.58604">
        <ele>775</ele>
        <time>2021-08-10T11:49:20.652Z</time>
      </trkpt>
      <trkpt lat="46.92054" lon="8.58603">
        <ele>775</ele>
        <time>2021-08-10T11:49:21.652Z</time>
      </trkpt>
      <trkpt lat="46.92054" lon="8.58603">
        <ele>775</ele>
        <time>2021-08-10T11:49:22.652Z</time>
      </trkpt>
      <trkpt lat="46.92054" lon="8.58603">
        <ele>775</ele>
        <time>2021-08-10T11:49:23.652Z</time>
      </trkpt>
      <trkpt lat="46.92054" lon="8.58602">
        <ele>775</ele>
        <time>2021-08-10T11:49:24.652Z</time>
      </trkpt>
      <trkpt lat="46.92054" lon="8.58603">
        <ele>775</ele>
        <time>2021-08-10T11:49:25.652Z</time>
      </trkpt>
      <trkpt lat="46.92054" lon="8.58602">
        <ele>775</ele>
        <time>2021-08-10T11:49:26.652Z</time>
      </trkpt>
      <trkpt lat="46.92054" lon="8.58603">
        <ele>776</ele>
        <time>2021-08-10T11:49:27.652Z</time>
      </trkpt>
      <trkpt lat="46.92053" lon="8.58604">
        <ele>776</ele>
        <time>2021-08-10T11:49:28.652Z</time>
      </trkpt>
      <trkpt lat="46.92052" lon="8.58605">
        <ele>776</ele>
        <time>2021-08-10T11:49:29.652Z</time>
      </trkpt>
      <trkpt lat="46.92051" lon="8.58605">
        <ele>776</ele>
        <time>2021-08-10T11:49:30.652Z</time>
      </trkpt>
      <trkpt lat="46.9205" lon="8.58605">
        <ele>777</ele>
        <time>2021-08-10T11:49:31.652Z</time>
      </trkpt>
      <trkpt lat="46.9205" lon="8.58604">
        <ele>777</ele>
        <time>2021-08-10T11:49:32.652Z</time>
      </trkpt>
      <trkpt lat="46.9205" lon="8.58604">
        <ele>777</ele>
        <time>2021-08-10T11:49:33.652Z</time>
      </trkpt>
      <trkpt lat="46.9205" lon="8.58604">
        <ele>777</ele>
        <time>2021-08-10T11:49:34.652Z</time>
      </trkpt>
      <trkpt lat="46.92049" lon="8.58604">
        <ele>778</ele>
        <time>2021-08-10T11:49:35.652Z</time>
      </trkpt>
      <trkpt lat="46.92048" lon="8.58603">
        <ele>778</ele>
        <time>2021-08-10T11:49:36.652Z</time>
      </trkpt>
      <trkpt lat="46.92047" lon="8.58603">
        <ele>779</ele>
        <time>2021-08-10T11:49:37.653Z</time>
      </trkpt>
      <trkpt lat="46.92046" lon="8.58604">
        <ele>779</ele>
        <time>2021-08-10T11:49:38.652Z</time>
      </trkpt>
      <trkpt lat="46.92045" lon="8.58603">
        <ele>779</ele>
        <time>2021-08-10T11:49:39.652Z</time>
      </trkpt>
      <trkpt lat="46.92044" lon="8.58603">
        <ele>779</ele>
        <time>2021-08-10T11:49:40.652Z</time>
      </trkpt>
      <trkpt lat="46.92042" lon="8.58602">
        <ele>780</ele>
        <time>2021-08-10T11:49:41.652Z</time>
      </trkpt>
      <trkpt lat="46.9204" lon="8.58601">
        <ele>780</ele>
        <time>2021-08-10T11:49:42.653Z</time>
      </trkpt>
      <trkpt lat="46.92039" lon="8.58601">
        <ele>780</ele>
        <time>2021-08-10T11:49:43.652Z</time>
      </trkpt>
      <trkpt lat="46.92038" lon="8.58601">
        <ele>780</ele>
        <time>2021-08-10T11:49:44.652Z</time>
      </trkpt>
      <trkpt lat="46.92037" lon="8.58602">
        <ele>780</ele>
        <time>2021-08-10T11:49:45.652Z</time>
      </trkpt>
      <trkpt lat="46.92036" lon="8.58603">
        <ele>780</ele>
        <time>2021-08-10T11:49:46.653Z</time>
      </trkpt>
      <trkpt lat="46.92036" lon="8.58602">
        <ele>780</ele>
        <time>2021-08-10T11:49:47.652Z</time>
      </trkpt>
      <trkpt lat="46.92035" lon="8.58602">
        <ele>780</ele>
        <time>2021-08-10T11:49:50.774Z</time>
      </trkpt>
      <trkpt lat="46.92035" lon="8.58602">
        <ele>780</ele>
        <time>2021-08-10T11:49:51.774Z</time>
      </trkpt>
      <trkpt lat="46.92034" lon="8.58603">
        <ele>780</ele>
        <time>2021-08-10T11:49:52.773Z</time>
      </trkpt>
      <trkpt lat="46.92033" lon="8.58603">
        <ele>780</ele>
        <time>2021-08-10T11:49:53.773Z</time>
      </trkpt>
      <trkpt lat="46.92032" lon="8.58603">
        <ele>780</ele>
        <time>2021-08-10T11:49:54.773Z</time>
      </trkpt>
      <trkpt lat="46.92032" lon="8.58603">
        <ele>780</ele>
        <time>2021-08-10T11:49:55.773Z</time>
      </trkpt>
      <trkpt lat="46.92032" lon="8.58603">
        <ele>780</ele>
        <time>2021-08-10T11:49:56.773Z</time>
      </trkpt>
      <trkpt lat="46.92031" lon="8.58603">
        <ele>779</ele>
        <time>2021-08-10T11:49:57.774Z</time>
      </trkpt>
      <trkpt lat="46.9203" lon="8.58603">
        <ele>779</ele>
        <time>2021-08-10T11:49:58.773Z</time>
      </trkpt>
      <trkpt lat="46.92029" lon="8.58603">
        <ele>779</ele>
        <time>2021-08-10T11:49:59.773Z</time>
      </trkpt>
      <trkpt lat="46.92028" lon="8.58602">
        <ele>779</ele>
        <time>2021-08-10T11:50:00.774Z</time>
      </trkpt>
      <trkpt lat="46.92028" lon="8.58602">
        <ele>779</ele>
        <time>2021-08-10T11:50:01.773Z</time>
      </trkpt>
      <trkpt lat="46.92028" lon="8.58602">
        <ele>779</ele>
        <time>2021-08-10T11:50:02.773Z</time>
      </trkpt>
      <trkpt lat="46.92027" lon="8.58602">
        <ele>779</ele>
        <time>2021-08-10T11:50:03.774Z</time>
      </trkpt>
      <trkpt lat="46.92027" lon="8.58602">
        <ele>779</ele>
        <time>2021-08-10T11:50:04.775Z</time>
      </trkpt>
      <trkpt lat="46.92027" lon="8.58602">
        <ele>779</ele>
        <time>2021-08-10T11:50:05.774Z</time>
      </trkpt>
      <trkpt lat="46.92027" lon="8.58602">
        <ele>779</ele>
        <time>2021-08-10T11:50:06.774Z</time>
      </trkpt>
      <trkpt lat="46.92027" lon="8.58602">
        <ele>779</ele>
        <time>2021-08-10T11:50:07.774Z</time>
      </trkpt>
      <trkpt lat="46.92032" lon="8.58607">
        <ele>782</ele>
        <time>2021-08-10T11:50:08.774Z</time>
      </trkpt>
      <trkpt lat="46.92032" lon="8.58607">
        <ele>781</ele>
        <time>2021-08-10T11:50:09.775Z</time>
      </trkpt>
      <trkpt lat="46.92034" lon="8.58607">
        <ele>781</ele>
        <time>2021-08-10T11:50:10.775Z</time>
      </trkpt>
      <trkpt lat="46.92034" lon="8.58607">
        <ele>781</ele>
        <time>2021-08-10T11:50:11.775Z</time>
      </trkpt>
      <trkpt lat="46.92034" lon="8.58608">
        <ele>781</ele>
        <time>2021-08-10T11:50:12.774Z</time>
      </trkpt>
      <trkpt lat="46.92034" lon="8.58607">
        <ele>781</ele>
        <time>2021-08-10T11:50:13.775Z</time>
      </trkpt>
      <trkpt lat="46.92034" lon="8.58606">
        <ele>781</ele>
        <time>2021-08-10T11:50:14.775Z</time>
      </trkpt>
      <trkpt lat="46.92034" lon="8.58605">
        <ele>781</ele>
        <time>2021-08-10T11:50:15.774Z</time>
      </trkpt>
      <trkpt lat="46.92033" lon="8.58606">
        <ele>781</ele>
        <time>2021-08-10T11:50:16.775Z</time>
      </trkpt>
      <trkpt lat="46.92033" lon="8.58606">
        <ele>781</ele>
        <time>2021-08-10T11:50:17.775Z</time>
      </trkpt>
      <trkpt lat="46.92032" lon="8.58605">
        <ele>781</ele>
        <time>2021-08-10T11:50:18.775Z</time>
      </trkpt>
      <trkpt lat="46.92031" lon="8.58604">
        <ele>781</ele>
        <time>2021-08-10T11:50:19.775Z</time>
      </trkpt>
      <trkpt lat="46.9203" lon="8.58604">
        <ele>781</ele>
        <time>2021-08-10T11:50:20.775Z</time>
      </trkpt>
      <trkpt lat="46.9203" lon="8.58604">
        <ele>781</ele>
        <time>2021-08-10T11:50:21.775Z</time>
      </trkpt>
      <trkpt lat="46.9203" lon="8.58604">
        <ele>781</ele>
        <time>2021-08-10T11:50:22.775Z</time>
      </trkpt>
      <trkpt lat="46.9203" lon="8.58603">
        <ele>781</ele>
        <time>2021-08-10T11:50:23.775Z</time>
      </trkpt>
      <trkpt lat="46.9203" lon="8.58602">
        <ele>781</ele>
        <time>2021-08-10T11:50:24.775Z</time>
      </trkpt>
      <trkpt lat="46.9203" lon="8.58602">
        <ele>781</ele>
        <time>2021-08-10T11:50:25.774Z</time>
      </trkpt>
      <trkpt lat="46.9203" lon="8.58602">
        <ele>781</ele>
        <time>2021-08-10T11:50:26.775Z</time>
      </trkpt>
      <trkpt lat="46.9203" lon="8.58603">
        <ele>782</ele>
        <time>2021-08-10T11:50:27.775Z</time>
      </trkpt>
      <trkpt lat="46.92031" lon="8.58603">
        <ele>783</ele>
        <time>2021-08-10T11:50:28.776Z</time>
      </trkpt>
      <trkpt lat="46.92031" lon="8.58603">
        <ele>783</ele>
        <time>2021-08-10T11:50:29.775Z</time>
      </trkpt>
      <trkpt lat="46.92031" lon="8.58603">
        <ele>783</ele>
        <time>2021-08-10T11:50:30.776Z</time>
      </trkpt>
      <trkpt lat="46.92031" lon="8.58604">
        <ele>784</ele>
        <time>2021-08-10T11:50:31.776Z</time>
      </trkpt>
      <trkpt lat="46.92032" lon="8.58605">
        <ele>784</ele>
        <time>2021-08-10T11:50:32.776Z</time>
      </trkpt>
      <trkpt lat="46.92031" lon="8.58606">
        <ele>784</ele>
        <time>2021-08-10T11:50:33.776Z</time>
      </trkpt>
      <trkpt lat="46.92031" lon="8.58607">
        <ele>784</ele>
        <time>2021-08-10T11:50:34.775Z</time>
      </trkpt>
      <trkpt lat="46.92032" lon="8.58608">
        <ele>785</ele>
        <time>2021-08-10T11:50:35.776Z</time>
      </trkpt>
      <trkpt lat="46.92032" lon="8.58608">
        <ele>785</ele>
        <time>2021-08-10T11:50:36.776Z</time>
      </trkpt>
      <trkpt lat="46.92033" lon="8.58608">
        <ele>785</ele>
        <time>2021-08-10T11:50:37.776Z</time>
      </trkpt>
      <trkpt lat="46.92033" lon="8.5861">
        <ele>786</ele>
        <time>2021-08-10T11:50:38.776Z</time>
      </trkpt>
      <trkpt lat="46.92033" lon="8.58612">
        <ele>786</ele>
        <time>2021-08-10T11:50:39.776Z</time>
      </trkpt>
      <trkpt lat="46.92034" lon="8.5861">
        <ele>786</ele>
        <time>2021-08-10T11:50:40.776Z</time>
      </trkpt>
      <trkpt lat="46.92035" lon="8.58608">
        <ele>786</ele>
        <time>2021-08-10T11:50:41.776Z</time>
      </trkpt>
      <trkpt lat="46.92034" lon="8.58607">
        <ele>786</ele>
        <time>2021-08-10T11:50:42.775Z</time>
      </trkpt>
      <trkpt lat="46.92034" lon="8.58605">
        <ele>786</ele>
        <time>2021-08-10T11:50:43.776Z</time>
      </trkpt>
      <trkpt lat="46.92034" lon="8.58603">
        <ele>786</ele>
        <time>2021-08-10T11:50:44.775Z</time>
      </trkpt>
      <trkpt lat="46.92034" lon="8.58601">
        <ele>786</ele>
        <time>2021-08-10T11:50:45.775Z</time>
      </trkpt>
      <trkpt lat="46.92034" lon="8.586">
        <ele>786</ele>
        <time>2021-08-10T11:50:46.775Z</time>
      </trkpt>
      <trkpt lat="46.92034" lon="8.58599">
        <ele>786</ele>
        <time>2021-08-10T11:50:47.776Z</time>
      </trkpt>
      <trkpt lat="46.92034" lon="8.58598">
        <ele>786</ele>
        <time>2021-08-10T11:50:48.776Z</time>
      </trkpt>
      <trkpt lat="46.92033" lon="8.58597">
        <ele>786</ele>
        <time>2021-08-10T11:50:49.776Z</time>
      </trkpt>
      <trkpt lat="46.92033" lon="8.58596">
        <ele>786</ele>
        <time>2021-08-10T11:50:50.775Z</time>
      </trkpt>
      <trkpt lat="46.92032" lon="8.58595">
        <ele>786</ele>
        <time>2021-08-10T11:50:51.775Z</time>
      </trkpt>
      <trkpt lat="46.92032" lon="8.58595">
        <ele>786</ele>
        <time>2021-08-10T11:50:52.776Z</time>
      </trkpt>
      <trkpt lat="46.92032" lon="8.58595">
        <ele>786</ele>
        <time>2021-08-10T11:50:53.775Z</time>
      </trkpt>
      <trkpt lat="46.92031" lon="8.58594">
        <ele>786</ele>
        <time>2021-08-10T11:50:54.776Z</time>
      </trkpt>
      <trkpt lat="46.92031" lon="8.58595">
        <ele>786</ele>
        <time>2021-08-10T11:50:55.776Z</time>
      </trkpt>
      <trkpt lat="46.92031" lon="8.58594">
        <ele>787</ele>
        <time>2021-08-10T11:50:56.776Z</time>
      </trkpt>
      <trkpt lat="46.92032" lon="8.58593">
        <ele>787</ele>
        <time>2021-08-10T11:50:57.776Z</time>
      </trkpt>
      <trkpt lat="46.92032" lon="8.58593">
        <ele>787</ele>
        <time>2021-08-10T11:50:58.775Z</time>
      </trkpt>
      <trkpt lat="46.92032" lon="8.58592">
        <ele>787</ele>
        <time>2021-08-10T11:50:59.775Z</time>
      </trkpt>
      <trkpt lat="46.92032" lon="8.58591">
        <ele>787</ele>
        <time>2021-08-10T11:51:00.776Z</time>
      </trkpt>
      <trkpt lat="46.92031" lon="8.5859">
        <ele>787</ele>
        <time>2021-08-10T11:51:01.776Z</time>
      </trkpt>
      <trkpt lat="46.9203" lon="8.58592">
        <ele>787</ele>
        <time>2021-08-10T11:51:02.776Z</time>
      </trkpt>
      <trkpt lat="46.92029" lon="8.58593">
        <ele>787</ele>
        <time>2021-08-10T11:51:03.776Z</time>
      </trkpt>
      <trkpt lat="46.92029" lon="8.58594">
        <ele>787</ele>
        <time>2021-08-10T11:51:04.775Z</time>
      </trkpt>
      <trkpt lat="46.92029" lon="8.58595">
        <ele>788</ele>
        <time>2021-08-10T11:51:05.776Z</time>
      </trkpt>
      <trkpt lat="46.92029" lon="8.58596">
        <ele>788</ele>
        <time>2021-08-10T11:51:06.776Z</time>
      </trkpt>
      <trkpt lat="46.92028" lon="8.58597">
        <ele>788</ele>
        <time>2021-08-10T11:51:07.776Z</time>
      </trkpt>
      <trkpt lat="46.92028" lon="8.58597">
        <ele>788</ele>
        <time>2021-08-10T11:51:08.775Z</time>
      </trkpt>
      <trkpt lat="46.92028" lon="8.58598">
        <ele>789</ele>
        <time>2021-08-10T11:51:09.775Z</time>
      </trkpt>
      <trkpt lat="46.92027" lon="8.58598">
        <ele>789</ele>
        <time>2021-08-10T11:51:10.776Z</time>
      </trkpt>
      <trkpt lat="46.92027" lon="8.58597">
        <ele>789</ele>
        <time>2021-08-10T11:51:11.775Z</time>
      </trkpt>
      <trkpt lat="46.92027" lon="8.58597">
        <ele>789</ele>
        <time>2021-08-10T11:51:12.775Z</time>
      </trkpt>
      <trkpt lat="46.92026" lon="8.58596">
        <ele>790</ele>
        <time>2021-08-10T11:51:13.776Z</time>
      </trkpt>
      <trkpt lat="46.92026" lon="8.58595">
        <ele>790</ele>
        <time>2021-08-10T11:51:14.776Z</time>
      </trkpt>
      <trkpt lat="46.92026" lon="8.58593">
        <ele>790</ele>
        <time>2021-08-10T11:51:15.775Z</time>
      </trkpt>
      <trkpt lat="46.92026" lon="8.58591">
        <ele>790</ele>
        <time>2021-08-10T11:51:16.775Z</time>
      </trkpt>
      <trkpt lat="46.92026" lon="8.5859">
        <ele>791</ele>
        <time>2021-08-10T11:51:17.775Z</time>
      </trkpt>
      <trkpt lat="46.92026" lon="8.58589">
        <ele>791</ele>
        <time>2021-08-10T11:51:18.775Z</time>
      </trkpt>
      <trkpt lat="46.92026" lon="8.58589">
        <ele>791</ele>
        <time>2021-08-10T11:51:19.775Z</time>
      </trkpt>
      <trkpt lat="46.92026" lon="8.58588">
        <ele>791</ele>
        <time>2021-08-10T11:51:20.775Z</time>
      </trkpt>
      <trkpt lat="46.92026" lon="8.58588">
        <ele>792</ele>
        <time>2021-08-10T11:51:21.776Z</time>
      </trkpt>
      <trkpt lat="46.92026" lon="8.58587">
        <ele>792</ele>
        <time>2021-08-10T11:51:22.775Z</time>
      </trkpt>
      <trkpt lat="46.92026" lon="8.58585">
        <ele>792</ele>
        <time>2021-08-10T11:51:23.775Z</time>
      </trkpt>
      <trkpt lat="46.92026" lon="8.58584">
        <ele>793</ele>
        <time>2021-08-10T11:51:24.776Z</time>
      </trkpt>
      <trkpt lat="46.92026" lon="8.58582">
        <ele>793</ele>
        <time>2021-08-10T11:51:25.775Z</time>
      </trkpt>
      <trkpt lat="46.92026" lon="8.58581">
        <ele>793</ele>
        <time>2021-08-10T11:51:26.775Z</time>
      </trkpt>
      <trkpt lat="46.92025" lon="8.58581">
        <ele>793</ele>
        <time>2021-08-10T11:51:27.775Z</time>
      </trkpt>
      <trkpt lat="46.92025" lon="8.5858">
        <ele>794</ele>
        <time>2021-08-10T11:51:28.775Z</time>
      </trkpt>
      <trkpt lat="46.92024" lon="8.58579">
        <ele>794</ele>
        <time>2021-08-10T11:51:29.776Z</time>
      </trkpt>
      <trkpt lat="46.92024" lon="8.58579">
        <ele>794</ele>
        <time>2021-08-10T11:51:30.776Z</time>
      </trkpt>
      <trkpt lat="46.92024" lon="8.58581">
        <ele>794</ele>
        <time>2021-08-10T11:51:31.776Z</time>
      </trkpt>
      <trkpt lat="46.92024" lon="8.58582">
        <ele>794</ele>
        <time>2021-08-10T11:51:32.775Z</time>
      </trkpt>
      <trkpt lat="46.92023" lon="8.58582">
        <ele>794</ele>
        <time>2021-08-10T11:51:34.906Z</time>
      </trkpt>
      <trkpt lat="46.92022" lon="8.58582">
        <ele>794</ele>
        <time>2021-08-10T11:51:35.907Z</time>
      </trkpt>
      <trkpt lat="46.92022" lon="8.58583">
        <ele>794</ele>
        <time>2021-08-10T11:51:36.907Z</time>
      </trkpt>
      <trkpt lat="46.92021" lon="8.58583">
        <ele>794</ele>
        <time>2021-08-10T11:51:37.906Z</time>
      </trkpt>
      <trkpt lat="46.92021" lon="8.58583">
        <ele>794</ele>
        <time>2021-08-10T11:51:38.907Z</time>
      </trkpt>
      <trkpt lat="46.9202" lon="8.58582">
        <ele>794</ele>
        <time>2021-08-10T11:51:39.906Z</time>
      </trkpt>
      <trkpt lat="46.9202" lon="8.58582">
        <ele>794</ele>
        <time>2021-08-10T11:51:40.906Z</time>
      </trkpt>
      <trkpt lat="46.9202" lon="8.58582">
        <ele>794</ele>
        <time>2021-08-10T11:51:41.907Z</time>
      </trkpt>
      <trkpt lat="46.9202" lon="8.58582">
        <ele>794</ele>
        <time>2021-08-10T11:51:42.906Z</time>
      </trkpt>
      <trkpt lat="46.92019" lon="8.58582">
        <ele>794</ele>
        <time>2021-08-10T11:51:43.907Z</time>
      </trkpt>
      <trkpt lat="46.92019" lon="8.58583">
        <ele>794</ele>
        <time>2021-08-10T11:51:44.907Z</time>
      </trkpt>
      <trkpt lat="46.92018" lon="8.58583">
        <ele>794</ele>
        <time>2021-08-10T11:51:45.906Z</time>
      </trkpt>
      <trkpt lat="46.92018" lon="8.58584">
        <ele>794</ele>
        <time>2021-08-10T11:51:46.907Z</time>
      </trkpt>
      <trkpt lat="46.92018" lon="8.58583">
        <ele>794</ele>
        <time>2021-08-10T11:51:47.907Z</time>
      </trkpt>
      <trkpt lat="46.92018" lon="8.58582">
        <ele>794</ele>
        <time>2021-08-10T11:51:48.907Z</time>
      </trkpt>
      <trkpt lat="46.92017" lon="8.58581">
        <ele>793</ele>
        <time>2021-08-10T11:51:49.907Z</time>
      </trkpt>
      <trkpt lat="46.92016" lon="8.58581">
        <ele>793</ele>
        <time>2021-08-10T11:51:50.907Z</time>
      </trkpt>
      <trkpt lat="46.92015" lon="8.58582">
        <ele>793</ele>
        <time>2021-08-10T11:51:51.907Z</time>
      </trkpt>
      <trkpt lat="46.92014" lon="8.58582">
        <ele>793</ele>
        <time>2021-08-10T11:51:52.907Z</time>
      </trkpt>
      <trkpt lat="46.92014" lon="8.58582">
        <ele>793</ele>
        <time>2021-08-10T11:51:53.907Z</time>
      </trkpt>
      <trkpt lat="46.92013" lon="8.58583">
        <ele>793</ele>
        <time>2021-08-10T11:51:54.907Z</time>
      </trkpt>
      <trkpt lat="46.92012" lon="8.58584">
        <ele>793</ele>
        <time>2021-08-10T11:51:55.906Z</time>
      </trkpt>
      <trkpt lat="46.92011" lon="8.58584">
        <ele>793</ele>
        <time>2021-08-10T11:51:56.907Z</time>
      </trkpt>
      <trkpt lat="46.92011" lon="8.58584">
        <ele>793</ele>
        <time>2021-08-10T11:51:57.907Z</time>
      </trkpt>
      <trkpt lat="46.9201" lon="8.58584">
        <ele>793</ele>
        <time>2021-08-10T11:51:58.907Z</time>
      </trkpt>
      <trkpt lat="46.92009" lon="8.58584">
        <ele>793</ele>
        <time>2021-08-10T11:51:59.907Z</time>
      </trkpt>
      <trkpt lat="46.92007" lon="8.58583">
        <ele>793</ele>
        <time>2021-08-10T11:52:00.908Z</time>
      </trkpt>
      <trkpt lat="46.92007" lon="8.58581">
        <ele>793</ele>
        <time>2021-08-10T11:52:01.907Z</time>
      </trkpt>
      <trkpt lat="46.92007" lon="8.5858">
        <ele>793</ele>
        <time>2021-08-10T11:52:02.907Z</time>
      </trkpt>
      <trkpt lat="46.92007" lon="8.58579">
        <ele>793</ele>
        <time>2021-08-10T11:52:03.907Z</time>
      </trkpt>
      <trkpt lat="46.92006" lon="8.58579">
        <ele>793</ele>
        <time>2021-08-10T11:52:04.907Z</time>
      </trkpt>
      <trkpt lat="46.92005" lon="8.5858">
        <ele>793</ele>
        <time>2021-08-10T11:52:05.907Z</time>
      </trkpt>
      <trkpt lat="46.92005" lon="8.5858">
        <ele>793</ele>
        <time>2021-08-10T11:52:06.908Z</time>
      </trkpt>
      <trkpt lat="46.92004" lon="8.58581">
        <ele>793</ele>
        <time>2021-08-10T11:52:07.907Z</time>
      </trkpt>
      <trkpt lat="46.92004" lon="8.58581">
        <ele>793</ele>
        <time>2021-08-10T11:52:08.907Z</time>
      </trkpt>
      <trkpt lat="46.92003" lon="8.58581">
        <ele>793</ele>
        <time>2021-08-10T11:52:09.907Z</time>
      </trkpt>
      <trkpt lat="46.92003" lon="8.58581">
        <ele>793</ele>
        <time>2021-08-10T11:52:10.908Z</time>
      </trkpt>
      <trkpt lat="46.92002" lon="8.58582">
        <ele>793</ele>
        <time>2021-08-10T11:52:11.908Z</time>
      </trkpt>
      <trkpt lat="46.92001" lon="8.58582">
        <ele>793</ele>
        <time>2021-08-10T11:52:12.907Z</time>
      </trkpt>
      <trkpt lat="46.92001" lon="8.58581">
        <ele>793</ele>
        <time>2021-08-10T11:52:13.907Z</time>
      </trkpt>
      <trkpt lat="46.92" lon="8.58582">
        <ele>794</ele>
        <time>2021-08-10T11:52:14.907Z</time>
      </trkpt>
      <trkpt lat="46.92" lon="8.58582">
        <ele>794</ele>
        <time>2021-08-10T11:52:15.908Z</time>
      </trkpt>
      <trkpt lat="46.92" lon="8.58582">
        <ele>794</ele>
        <time>2021-08-10T11:52:16.907Z</time>
      </trkpt>
      <trkpt lat="46.92" lon="8.58583">
        <ele>794</ele>
        <time>2021-08-10T11:52:17.907Z</time>
      </trkpt>
      <trkpt lat="46.92" lon="8.58583">
        <ele>795</ele>
        <time>2021-08-10T11:52:18.907Z</time>
      </trkpt>
      <trkpt lat="46.92" lon="8.58582">
        <ele>795</ele>
        <time>2021-08-10T11:52:19.907Z</time>
      </trkpt>
      <trkpt lat="46.92001" lon="8.58581">
        <ele>795</ele>
        <time>2021-08-10T11:52:20.907Z</time>
      </trkpt>
      <trkpt lat="46.92001" lon="8.5858">
        <ele>795</ele>
        <time>2021-08-10T11:52:21.908Z</time>
      </trkpt>
      <trkpt lat="46.92001" lon="8.58578">
        <ele>795</ele>
        <time>2021-08-10T11:52:22.907Z</time>
      </trkpt>
      <trkpt lat="46.92001" lon="8.58578">
        <ele>795</ele>
        <time>2021-08-10T11:52:23.907Z</time>
      </trkpt>
      <trkpt lat="46.92001" lon="8.58577">
        <ele>795</ele>
        <time>2021-08-10T11:52:24.907Z</time>
      </trkpt>
      <trkpt lat="46.92001" lon="8.58577">
        <ele>794</ele>
        <time>2021-08-10T11:52:25.908Z</time>
      </trkpt>
      <trkpt lat="46.92001" lon="8.58576">
        <ele>794</ele>
        <time>2021-08-10T11:52:26.907Z</time>
      </trkpt>
      <trkpt lat="46.92001" lon="8.58576">
        <ele>794</ele>
        <time>2021-08-10T11:52:27.907Z</time>
      </trkpt>
      <trkpt lat="46.92001" lon="8.58576">
        <ele>794</ele>
        <time>2021-08-10T11:52:28.907Z</time>
      </trkpt>
      <trkpt lat="46.92002" lon="8.58576">
        <ele>794</ele>
        <time>2021-08-10T11:52:29.907Z</time>
      </trkpt>
      <trkpt lat="46.92003" lon="8.58573">
        <ele>795</ele>
        <time>2021-08-10T11:52:30.909Z</time>
      </trkpt>
      <trkpt lat="46.92004" lon="8.58573">
        <ele>795</ele>
        <time>2021-08-10T11:52:31.909Z</time>
      </trkpt>
      <trkpt lat="46.92004" lon="8.58572">
        <ele>795</ele>
        <time>2021-08-10T11:52:32.909Z</time>
      </trkpt>
      <trkpt lat="46.92005" lon="8.58572">
        <ele>795</ele>
        <time>2021-08-10T11:52:33.908Z</time>
      </trkpt>
      <trkpt lat="46.92005" lon="8.58571">
        <ele>795</ele>
        <time>2021-08-10T11:52:34.908Z</time>
      </trkpt>
      <trkpt lat="46.92006" lon="8.5857">
        <ele>795</ele>
        <time>2021-08-10T11:52:35.908Z</time>
      </trkpt>
      <trkpt lat="46.92006" lon="8.5857">
        <ele>796</ele>
        <time>2021-08-10T11:52:36.909Z</time>
      </trkpt>
      <trkpt lat="46.92007" lon="8.58568">
        <ele>796</ele>
        <time>2021-08-10T11:52:37.909Z</time>
      </trkpt>
      <trkpt lat="46.92008" lon="8.58566">
        <ele>796</ele>
        <time>2021-08-10T11:52:38.908Z</time>
      </trkpt>
      <trkpt lat="46.92009" lon="8.58565">
        <ele>796</ele>
        <time>2021-08-10T11:52:39.908Z</time>
      </trkpt>
      <trkpt lat="46.9201" lon="8.58565">
        <ele>796</ele>
        <time>2021-08-10T11:52:40.909Z</time>
      </trkpt>
      <trkpt lat="46.9201" lon="8.58564">
        <ele>796</ele>
        <time>2021-08-10T11:52:41.909Z</time>
      </trkpt>
      <trkpt lat="46.9201" lon="8.58564">
        <ele>797</ele>
        <time>2021-08-10T11:52:42.908Z</time>
      </trkpt>
      <trkpt lat="46.92009" lon="8.58564">
        <ele>797</ele>
        <time>2021-08-10T11:52:43.908Z</time>
      </trkpt>
      <trkpt lat="46.92009" lon="8.58563">
        <ele>797</ele>
        <time>2021-08-10T11:52:44.908Z</time>
      </trkpt>
      <trkpt lat="46.92008" lon="8.58563">
        <ele>797</ele>
        <time>2021-08-10T11:52:45.909Z</time>
      </trkpt>
      <trkpt lat="46.92007" lon="8.58563">
        <ele>797</ele>
        <time>2021-08-10T11:52:46.908Z</time>
      </trkpt>
      <trkpt lat="46.92007" lon="8.58564">
        <ele>798</ele>
        <time>2021-08-10T11:52:47.910Z</time>
      </trkpt>
      <trkpt lat="46.92005" lon="8.58563">
        <ele>799</ele>
        <time>2021-08-10T11:52:48.910Z</time>
      </trkpt>
      <trkpt lat="46.92004" lon="8.58562">
        <ele>799</ele>
        <time>2021-08-10T11:52:49.910Z</time>
      </trkpt>
      <trkpt lat="46.92004" lon="8.58561">
        <ele>800</ele>
        <time>2021-08-10T11:52:50.909Z</time>
      </trkpt>
      <trkpt lat="46.92005" lon="8.58559">
        <ele>800</ele>
        <time>2021-08-10T11:52:51.910Z</time>
      </trkpt>
      <trkpt lat="46.92005" lon="8.58559">
        <ele>800</ele>
        <time>2021-08-10T11:52:52.909Z</time>
      </trkpt>
      <trkpt lat="46.92005" lon="8.58558">
        <ele>800</ele>
        <time>2021-08-10T11:52:53.910Z</time>
      </trkpt>
      <trkpt lat="46.92005" lon="8.58559">
        <ele>801</ele>
        <time>2021-08-10T11:52:54.910Z</time>
      </trkpt>
      <trkpt lat="46.92005" lon="8.5856">
        <ele>801</ele>
        <time>2021-08-10T11:52:55.909Z</time>
      </trkpt>
      <trkpt lat="46.92006" lon="8.58561">
        <ele>801</ele>
        <time>2021-08-10T11:52:56.910Z</time>
      </trkpt>
      <trkpt lat="46.92006" lon="8.5856">
        <ele>801</ele>
        <time>2021-08-10T11:52:57.910Z</time>
      </trkpt>
      <trkpt lat="46.92006" lon="8.58561">
        <ele>802</ele>
        <time>2021-08-10T11:52:58.910Z</time>
      </trkpt>
      <trkpt lat="46.92006" lon="8.58561">
        <ele>802</ele>
        <time>2021-08-10T11:52:59.910Z</time>
      </trkpt>
      <trkpt lat="46.92006" lon="8.5856">
        <ele>802</ele>
        <time>2021-08-10T11:53:00.909Z</time>
      </trkpt>
      <trkpt lat="46.92005" lon="8.58559">
        <ele>803</ele>
        <time>2021-08-10T11:53:01.910Z</time>
      </trkpt>
      <trkpt lat="46.92005" lon="8.58559">
        <ele>803</ele>
        <time>2021-08-10T11:53:02.910Z</time>
      </trkpt>
      <trkpt lat="46.92006" lon="8.58559">
        <ele>803</ele>
        <time>2021-08-10T11:53:03.910Z</time>
      </trkpt>
      <trkpt lat="46.92006" lon="8.58558">
        <ele>803</ele>
        <time>2021-08-10T11:53:04.910Z</time>
      </trkpt>
      <trkpt lat="46.92006" lon="8.58557">
        <ele>804</ele>
        <time>2021-08-10T11:53:05.910Z</time>
      </trkpt>
      <trkpt lat="46.92006" lon="8.58557">
        <ele>804</ele>
        <time>2021-08-10T11:53:06.909Z</time>
      </trkpt>
      <trkpt lat="46.92006" lon="8.58556">
        <ele>805</ele>
        <time>2021-08-10T11:53:07.910Z</time>
      </trkpt>
      <trkpt lat="46.92006" lon="8.58556">
        <ele>805</ele>
        <time>2021-08-10T11:53:08.909Z</time>
      </trkpt>
      <trkpt lat="46.92005" lon="8.58556">
        <ele>806</ele>
        <time>2021-08-10T11:53:09.909Z</time>
      </trkpt>
      <trkpt lat="46.92004" lon="8.58557">
        <ele>806</ele>
        <time>2021-08-10T11:53:10.909Z</time>
      </trkpt>
      <trkpt lat="46.92003" lon="8.58558">
        <ele>806</ele>
        <time>2021-08-10T11:53:11.909Z</time>
      </trkpt>
      <trkpt lat="46.92001" lon="8.58559">
        <ele>807</ele>
        <time>2021-08-10T11:53:12.910Z</time>
      </trkpt>
      <trkpt lat="46.92" lon="8.5856">
        <ele>807</ele>
        <time>2021-08-10T11:53:13.909Z</time>
      </trkpt>
      <trkpt lat="46.91999" lon="8.58561">
        <ele>807</ele>
        <time>2021-08-10T11:53:14.909Z</time>
      </trkpt>
      <trkpt lat="46.91999" lon="8.5856">
        <ele>807</ele>
        <time>2021-08-10T11:53:15.909Z</time>
      </trkpt>
      <trkpt lat="46.91998" lon="8.58559">
        <ele>807</ele>
        <time>2021-08-10T11:53:16.909Z</time>
      </trkpt>
      <trkpt lat="46.91998" lon="8.58559">
        <ele>807</ele>
        <time>2021-08-10T11:53:17.909Z</time>
      </trkpt>
      <trkpt lat="46.91999" lon="8.58559">
        <ele>807</ele>
        <time>2021-08-10T11:53:18.910Z</time>
      </trkpt>
      <trkpt lat="46.91999" lon="8.58557">
        <ele>807</ele>
        <time>2021-08-10T11:53:19.909Z</time>
      </trkpt>
      <trkpt lat="46.92" lon="8.58557">
        <ele>807</ele>
        <time>2021-08-10T11:53:20.909Z</time>
      </trkpt>
      <trkpt lat="46.92" lon="8.58556">
        <ele>808</ele>
        <time>2021-08-10T11:53:21.909Z</time>
      </trkpt>
      <trkpt lat="46.91999" lon="8.58557">
        <ele>808</ele>
        <time>2021-08-10T11:53:22.909Z</time>
      </trkpt>
      <trkpt lat="46.91998" lon="8.58557">
        <ele>808</ele>
        <time>2021-08-10T11:53:23.910Z</time>
      </trkpt>
      <trkpt lat="46.91997" lon="8.58557">
        <ele>808</ele>
        <time>2021-08-10T11:53:24.909Z</time>
      </trkpt>
      <trkpt lat="46.91996" lon="8.58557">
        <ele>809</ele>
        <time>2021-08-10T11:53:25.909Z</time>
      </trkpt>
      <trkpt lat="46.91996" lon="8.58558">
        <ele>809</ele>
        <time>2021-08-10T11:53:26.909Z</time>
      </trkpt>
      <trkpt lat="46.91996" lon="8.58559">
        <ele>809</ele>
        <time>2021-08-10T11:53:27.910Z</time>
      </trkpt>
      <trkpt lat="46.91997" lon="8.58559">
        <ele>809</ele>
        <time>2021-08-10T11:53:28.910Z</time>
      </trkpt>
      <trkpt lat="46.91997" lon="8.58559">
        <ele>810</ele>
        <time>2021-08-10T11:53:29.909Z</time>
      </trkpt>
      <trkpt lat="46.91997" lon="8.58559">
        <ele>810</ele>
        <time>2021-08-10T11:53:30.909Z</time>
      </trkpt>
      <trkpt lat="46.91996" lon="8.58559">
        <ele>810</ele>
        <time>2021-08-10T11:53:31.909Z</time>
      </trkpt>
      <trkpt lat="46.91996" lon="8.5856">
        <ele>811</ele>
        <time>2021-08-10T11:53:32.910Z</time>
      </trkpt>
      <trkpt lat="46.91995" lon="8.5856">
        <ele>811</ele>
        <time>2021-08-10T11:53:33.909Z</time>
      </trkpt>
      <trkpt lat="46.91995" lon="8.58559">
        <ele>811</ele>
        <time>2021-08-10T11:53:34.909Z</time>
      </trkpt>
      <trkpt lat="46.91995" lon="8.58559">
        <ele>811</ele>
        <time>2021-08-10T11:53:35.909Z</time>
      </trkpt>
      <trkpt lat="46.91995" lon="8.58558">
        <ele>811</ele>
        <time>2021-08-10T11:53:36.909Z</time>
      </trkpt>
      <trkpt lat="46.91995" lon="8.58557">
        <ele>812</ele>
        <time>2021-08-10T11:53:37.910Z</time>
      </trkpt>
      <trkpt lat="46.91995" lon="8.58557">
        <ele>812</ele>
        <time>2021-08-10T11:53:38.910Z</time>
      </trkpt>
      <trkpt lat="46.91995" lon="8.58557">
        <ele>812</ele>
        <time>2021-08-10T11:53:39.909Z</time>
      </trkpt>
      <trkpt lat="46.91995" lon="8.58558">
        <ele>812</ele>
        <time>2021-08-10T11:53:40.909Z</time>
      </trkpt>
      <trkpt lat="46.91995" lon="8.58558">
        <ele>812</ele>
        <time>2021-08-10T11:53:41.909Z</time>
      </trkpt>
      <trkpt lat="46.91995" lon="8.58558">
        <ele>812</ele>
        <time>2021-08-10T11:53:42.909Z</time>
      </trkpt>
      <trkpt lat="46.91992" lon="8.58561">
        <ele>812</ele>
        <time>2021-08-10T11:53:43.909Z</time>
      </trkpt>
      <trkpt lat="46.91991" lon="8.58562">
        <ele>812</ele>
        <time>2021-08-10T11:53:44.909Z</time>
      </trkpt>
      <trkpt lat="46.91991" lon="8.58562">
        <ele>812</ele>
        <time>2021-08-10T11:53:45.910Z</time>
      </trkpt>
      <trkpt lat="46.91991" lon="8.58562">
        <ele>813</ele>
        <time>2021-08-10T11:53:46.909Z</time>
      </trkpt>
      <trkpt lat="46.91988" lon="8.5856">
        <ele>814</ele>
        <time>2021-08-10T11:53:47.909Z</time>
      </trkpt>
      <trkpt lat="46.91987" lon="8.5856">
        <ele>814</ele>
        <time>2021-08-10T11:53:48.910Z</time>
      </trkpt>
      <trkpt lat="46.91988" lon="8.5856">
        <ele>814</ele>
        <time>2021-08-10T11:53:49.909Z</time>
      </trkpt>
      <trkpt lat="46.91987" lon="8.58562">
        <ele>815</ele>
        <time>2021-08-10T11:53:50.910Z</time>
      </trkpt>
      <trkpt lat="46.91987" lon="8.58563">
        <ele>815</ele>
        <time>2021-08-10T11:53:51.909Z</time>
      </trkpt>
      <trkpt lat="46.91986" lon="8.58563">
        <ele>816</ele>
        <time>2021-08-10T11:53:52.909Z</time>
      </trkpt>
      <trkpt lat="46.91986" lon="8.58564">
        <ele>816</ele>
        <time>2021-08-10T11:53:53.909Z</time>
      </trkpt>
      <trkpt lat="46.91986" lon="8.58565">
        <ele>816</ele>
        <time>2021-08-10T11:53:54.909Z</time>
      </trkpt>
      <trkpt lat="46.91986" lon="8.58567">
        <ele>817</ele>
        <time>2021-08-10T11:53:55.909Z</time>
      </trkpt>
      <trkpt lat="46.91986" lon="8.58566">
        <ele>817</ele>
        <time>2021-08-10T11:53:56.909Z</time>
      </trkpt>
      <trkpt lat="46.91986" lon="8.58565">
        <ele>817</ele>
        <time>2021-08-10T11:53:57.909Z</time>
      </trkpt>
      <trkpt lat="46.91986" lon="8.58565">
        <ele>818</ele>
        <time>2021-08-10T11:53:58.909Z</time>
      </trkpt>
      <trkpt lat="46.91985" lon="8.58565">
        <ele>818</ele>
        <time>2021-08-10T11:53:59.910Z</time>
      </trkpt>
      <trkpt lat="46.91985" lon="8.58564">
        <ele>818</ele>
        <time>2021-08-10T11:54:00.909Z</time>
      </trkpt>
      <trkpt lat="46.91985" lon="8.58565">
        <ele>818</ele>
        <time>2021-08-10T11:54:01.909Z</time>
      </trkpt>
      <trkpt lat="46.91985" lon="8.58565">
        <ele>819</ele>
        <time>2021-08-10T11:54:02.910Z</time>
      </trkpt>
      <trkpt lat="46.91986" lon="8.58565">
        <ele>819</ele>
        <time>2021-08-10T11:54:03.910Z</time>
      </trkpt>
      <trkpt lat="46.91986" lon="8.58565">
        <ele>819</ele>
        <time>2021-08-10T11:54:04.910Z</time>
      </trkpt>
      <trkpt lat="46.91987" lon="8.58564">
        <ele>819</ele>
        <time>2021-08-10T11:54:05.910Z</time>
      </trkpt>
      <trkpt lat="46.91987" lon="8.58563">
        <ele>820</ele>
        <time>2021-08-10T11:54:06.910Z</time>
      </trkpt>
      <trkpt lat="46.91989" lon="8.58561">
        <ele>822</ele>
        <time>2021-08-10T11:54:07.911Z</time>
      </trkpt>
      <trkpt lat="46.91989" lon="8.5856">
        <ele>822</ele>
        <time>2021-08-10T11:54:08.911Z</time>
      </trkpt>
      <trkpt lat="46.9199" lon="8.58558">
        <ele>823</ele>
        <time>2021-08-10T11:54:09.911Z</time>
      </trkpt>
      <trkpt lat="46.91992" lon="8.58556">
        <ele>823</ele>
        <time>2021-08-10T11:54:10.910Z</time>
      </trkpt>
      <trkpt lat="46.91992" lon="8.58557">
        <ele>823</ele>
        <time>2021-08-10T11:54:11.910Z</time>
      </trkpt>
      <trkpt lat="46.91992" lon="8.58558">
        <ele>823</ele>
        <time>2021-08-10T11:54:12.910Z</time>
      </trkpt>
      <trkpt lat="46.91992" lon="8.58559">
        <ele>824</ele>
        <time>2021-08-10T11:54:13.910Z</time>
      </trkpt>
      <trkpt lat="46.91991" lon="8.58558">
        <ele>824</ele>
        <time>2021-08-10T11:54:14.911Z</time>
      </trkpt>
      <trkpt lat="46.91989" lon="8.58558">
        <ele>824</ele>
        <time>2021-08-10T11:54:15.910Z</time>
      </trkpt>
      <trkpt lat="46.91989" lon="8.58557">
        <ele>824</ele>
        <time>2021-08-10T11:54:16.910Z</time>
      </trkpt>
      <trkpt lat="46.91989" lon="8.58557">
        <ele>824</ele>
        <time>2021-08-10T11:54:17.911Z</time>
      </trkpt>
      <trkpt lat="46.91989" lon="8.58557">
        <ele>824</ele>
        <time>2021-08-10T11:54:18.910Z</time>
      </trkpt>
      <trkpt lat="46.91989" lon="8.58558">
        <ele>823</ele>
        <time>2021-08-10T11:54:19.787Z</time>
      </trkpt>
      <trkpt lat="46.91994" lon="8.58553">
        <ele>818</ele>
        <time>2021-08-10T11:54:20.912Z</time>
      </trkpt>
      <trkpt lat="46.91995" lon="8.58552">
        <ele>819</ele>
        <time>2021-08-10T11:54:21.912Z</time>
      </trkpt>
      <trkpt lat="46.91996" lon="8.5855">
        <ele>819</ele>
        <time>2021-08-10T11:54:22.787Z</time>
      </trkpt>
      <trkpt lat="46.91996" lon="8.5855">
        <ele>819</ele>
        <time>2021-08-10T11:54:23.911Z</time>
      </trkpt>
      <trkpt lat="46.91997" lon="8.5855">
        <ele>820</ele>
        <time>2021-08-10T11:54:24.787Z</time>
      </trkpt>
      <trkpt lat="46.91998" lon="8.5855">
        <ele>820</ele>
        <time>2021-08-10T11:54:25.912Z</time>
      </trkpt>
      <trkpt lat="46.91998" lon="8.58552">
        <ele>821</ele>
        <time>2021-08-10T11:54:26.912Z</time>
      </trkpt>
      <trkpt lat="46.91998" lon="8.58552">
        <ele>821</ele>
        <time>2021-08-10T11:54:27.787Z</time>
      </trkpt>
      <trkpt lat="46.91994" lon="8.58553">
        <ele>825</ele>
        <time>2021-08-10T11:54:28.787Z</time>
      </trkpt>
      <trkpt lat="46.91993" lon="8.58552">
        <ele>826</ele>
        <time>2021-08-10T11:54:29.788Z</time>
      </trkpt>
      <trkpt lat="46.91992" lon="8.58553">
        <ele>827</ele>
        <time>2021-08-10T11:54:30.787Z</time>
      </trkpt>
      <trkpt lat="46.91991" lon="8.58553">
        <ele>828</ele>
        <time>2021-08-10T11:54:31.788Z</time>
      </trkpt>
      <trkpt lat="46.9199" lon="8.58552">
        <ele>828</ele>
        <time>2021-08-10T11:54:32.788Z</time>
      </trkpt>
      <trkpt lat="46.9199" lon="8.5855">
        <ele>829</ele>
        <time>2021-08-10T11:54:33.787Z</time>
      </trkpt>
      <trkpt lat="46.91989" lon="8.5855">
        <ele>830</ele>
        <time>2021-08-10T11:54:34.787Z</time>
      </trkpt>
      <trkpt lat="46.91989" lon="8.5855">
        <ele>831</ele>
        <time>2021-08-10T11:54:35.787Z</time>
      </trkpt>
      <trkpt lat="46.91988" lon="8.5855">
        <ele>832</ele>
        <time>2021-08-10T11:54:36.788Z</time>
      </trkpt>
      <trkpt lat="46.91988" lon="8.5855">
        <ele>833</ele>
        <time>2021-08-10T11:54:37.788Z</time>
      </trkpt>
      <trkpt lat="46.91988" lon="8.58549">
        <ele>833</ele>
        <time>2021-08-10T11:54:38.787Z</time>
      </trkpt>
      <trkpt lat="46.91987" lon="8.5855">
        <ele>834</ele>
        <time>2021-08-10T11:54:39.787Z</time>
      </trkpt>
      <trkpt lat="46.91986" lon="8.5855">
        <ele>835</ele>
        <time>2021-08-10T11:54:40.788Z</time>
      </trkpt>
      <trkpt lat="46.91985" lon="8.58549">
        <ele>836</ele>
        <time>2021-08-10T11:54:41.788Z</time>
      </trkpt>
      <trkpt lat="46.91984" lon="8.5855">
        <ele>837</ele>
        <time>2021-08-10T11:54:42.788Z</time>
      </trkpt>
      <trkpt lat="46.91984" lon="8.58549">
        <ele>837</ele>
        <time>2021-08-10T11:54:43.787Z</time>
      </trkpt>
      <trkpt lat="46.91983" lon="8.58549">
        <ele>838</ele>
        <time>2021-08-10T11:54:44.788Z</time>
      </trkpt>
      <trkpt lat="46.91982" lon="8.5855">
        <ele>838</ele>
        <time>2021-08-10T11:54:45.787Z</time>
      </trkpt>
      <trkpt lat="46.91982" lon="8.5855">
        <ele>839</ele>
        <time>2021-08-10T11:54:46.787Z</time>
      </trkpt>
      <trkpt lat="46.91982" lon="8.5855">
        <ele>839</ele>
        <time>2021-08-10T11:54:47.788Z</time>
      </trkpt>
      <trkpt lat="46.91982" lon="8.58551">
        <ele>840</ele>
        <time>2021-08-10T11:54:48.788Z</time>
      </trkpt>
      <trkpt lat="46.91981" lon="8.58553">
        <ele>840</ele>
        <time>2021-08-10T11:54:49.788Z</time>
      </trkpt>
      <trkpt lat="46.9198" lon="8.58554">
        <ele>841</ele>
        <time>2021-08-10T11:54:50.788Z</time>
      </trkpt>
      <trkpt lat="46.91979" lon="8.58555">
        <ele>841</ele>
        <time>2021-08-10T11:54:51.787Z</time>
      </trkpt>
      <trkpt lat="46.91978" lon="8.58554">
        <ele>842</ele>
        <time>2021-08-10T11:54:52.788Z</time>
      </trkpt>
      <trkpt lat="46.91977" lon="8.58553">
        <ele>842</ele>
        <time>2021-08-10T11:54:53.788Z</time>
      </trkpt>
      <trkpt lat="46.91976" lon="8.58551">
        <ele>843</ele>
        <time>2021-08-10T11:54:54.788Z</time>
      </trkpt>
      <trkpt lat="46.91976" lon="8.58551">
        <ele>844</ele>
        <time>2021-08-10T11:54:55.787Z</time>
      </trkpt>
      <trkpt lat="46.91976" lon="8.58549">
        <ele>844</ele>
        <time>2021-08-10T11:54:56.788Z</time>
      </trkpt>
      <trkpt lat="46.91976" lon="8.58548">
        <ele>845</ele>
        <time>2021-08-10T11:54:57.787Z</time>
      </trkpt>
      <trkpt lat="46.91976" lon="8.58548">
        <ele>846</ele>
        <time>2021-08-10T11:54:58.787Z</time>
      </trkpt>
      <trkpt lat="46.91976" lon="8.58548">
        <ele>847</ele>
        <time>2021-08-10T11:54:59.788Z</time>
      </trkpt>
      <trkpt lat="46.91977" lon="8.58548">
        <ele>848</ele>
        <time>2021-08-10T11:55:00.787Z</time>
      </trkpt>
      <trkpt lat="46.91978" lon="8.58548">
        <ele>849</ele>
        <time>2021-08-10T11:55:01.788Z</time>
      </trkpt>
      <trkpt lat="46.91978" lon="8.58548">
        <ele>850</ele>
        <time>2021-08-10T11:55:02.788Z</time>
      </trkpt>
      <trkpt lat="46.91978" lon="8.58548">
        <ele>850</ele>
        <time>2021-08-10T11:55:03.788Z</time>
      </trkpt>
      <trkpt lat="46.91978" lon="8.58549">
        <ele>851</ele>
        <time>2021-08-10T11:55:04.787Z</time>
      </trkpt>
      <trkpt lat="46.91978" lon="8.58549">
        <ele>851</ele>
        <time>2021-08-10T11:55:05.788Z</time>
      </trkpt>
      <trkpt lat="46.91979" lon="8.58549">
        <ele>852</ele>
        <time>2021-08-10T11:55:06.788Z</time>
      </trkpt>
      <trkpt lat="46.91979" lon="8.58548">
        <ele>852</ele>
        <time>2021-08-10T11:55:07.788Z</time>
      </trkpt>
      <trkpt lat="46.9198" lon="8.58547">
        <ele>853</ele>
        <time>2021-08-10T11:55:08.787Z</time>
      </trkpt>
      <trkpt lat="46.91981" lon="8.58545">
        <ele>854</ele>
        <time>2021-08-10T11:55:09.788Z</time>
      </trkpt>
      <trkpt lat="46.91981" lon="8.58544">
        <ele>854</ele>
        <time>2021-08-10T11:55:10.788Z</time>
      </trkpt>
      <trkpt lat="46.91982" lon="8.58544">
        <ele>855</ele>
        <time>2021-08-10T11:55:11.788Z</time>
      </trkpt>
      <trkpt lat="46.91982" lon="8.58544">
        <ele>855</ele>
        <time>2021-08-10T11:55:12.788Z</time>
      </trkpt>
      <trkpt lat="46.91982" lon="8.58544">
        <ele>855</ele>
        <time>2021-08-10T11:55:13.787Z</time>
      </trkpt>
      <trkpt lat="46.91983" lon="8.58544">
        <ele>856</ele>
        <time>2021-08-10T11:55:14.788Z</time>
      </trkpt>
      <trkpt lat="46.91983" lon="8.58544">
        <ele>856</ele>
        <time>2021-08-10T11:55:15.788Z</time>
      </trkpt>
      <trkpt lat="46.91984" lon="8.58544">
        <ele>856</ele>
        <time>2021-08-10T11:55:16.788Z</time>
      </trkpt>
      <trkpt lat="46.91984" lon="8.58544">
        <ele>857</ele>
        <time>2021-08-10T11:55:17.788Z</time>
      </trkpt>
      <trkpt lat="46.91985" lon="8.58543">
        <ele>857</ele>
        <time>2021-08-10T11:55:18.788Z</time>
      </trkpt>
      <trkpt lat="46.91985" lon="8.58543">
        <ele>857</ele>
        <time>2021-08-10T11:55:19.788Z</time>
      </trkpt>
      <trkpt lat="46.91986" lon="8.58542">
        <ele>858</ele>
        <time>2021-08-10T11:55:20.788Z</time>
      </trkpt>
      <trkpt lat="46.91986" lon="8.58541">
        <ele>858</ele>
        <time>2021-08-10T11:55:21.788Z</time>
      </trkpt>
      <trkpt lat="46.91986" lon="8.5854">
        <ele>859</ele>
        <time>2021-08-10T11:55:22.788Z</time>
      </trkpt>
      <trkpt lat="46.91987" lon="8.5854">
        <ele>860</ele>
        <time>2021-08-10T11:55:23.787Z</time>
      </trkpt>
      <trkpt lat="46.91986" lon="8.58541">
        <ele>860</ele>
        <time>2021-08-10T11:55:24.787Z</time>
      </trkpt>
      <trkpt lat="46.91985" lon="8.58541">
        <ele>861</ele>
        <time>2021-08-10T11:55:25.787Z</time>
      </trkpt>
      <trkpt lat="46.91984" lon="8.5854">
        <ele>861</ele>
        <time>2021-08-10T11:55:26.788Z</time>
      </trkpt>
      <trkpt lat="46.91983" lon="8.5854">
        <ele>861</ele>
        <time>2021-08-10T11:55:27.788Z</time>
      </trkpt>
      <trkpt lat="46.91981" lon="8.58541">
        <ele>862</ele>
        <time>2021-08-10T11:55:31.892Z</time>
      </trkpt>
      <trkpt lat="46.9198" lon="8.58542">
        <ele>862</ele>
        <time>2021-08-10T11:55:32.892Z</time>
      </trkpt>
      <trkpt lat="46.9198" lon="8.58543">
        <ele>862</ele>
        <time>2021-08-10T11:55:33.892Z</time>
      </trkpt>
      <trkpt lat="46.91979" lon="8.58544">
        <ele>862</ele>
        <time>2021-08-10T11:55:34.891Z</time>
      </trkpt>
      <trkpt lat="46.91979" lon="8.58544">
        <ele>862</ele>
        <time>2021-08-10T11:55:35.891Z</time>
      </trkpt>
      <trkpt lat="46.91978" lon="8.58545">
        <ele>862</ele>
        <time>2021-08-10T11:55:43.902Z</time>
      </trkpt>
      <trkpt lat="46.91977" lon="8.58544">
        <ele>863</ele>
        <time>2021-08-10T11:55:44.901Z</time>
      </trkpt>
      <trkpt lat="46.91977" lon="8.58544">
        <ele>863</ele>
        <time>2021-08-10T11:55:45.901Z</time>
      </trkpt>
      <trkpt lat="46.91977" lon="8.58544">
        <ele>863</ele>
        <time>2021-08-10T11:55:46.902Z</time>
      </trkpt>
      <trkpt lat="46.91978" lon="8.58543">
        <ele>864</ele>
        <time>2021-08-10T11:55:47.904Z</time>
      </trkpt>
      <trkpt lat="46.91978" lon="8.58542">
        <ele>864</ele>
        <time>2021-08-10T11:56:01.017Z</time>
      </trkpt>
      <trkpt lat="46.91978" lon="8.58542">
        <ele>864</ele>
        <time>2021-08-10T11:56:02.016Z</time>
      </trkpt>
      <trkpt lat="46.91979" lon="8.58542">
        <ele>865</ele>
        <time>2021-08-10T11:56:04.792Z</time>
      </trkpt>
      <trkpt lat="46.91979" lon="8.58542">
        <ele>865</ele>
        <time>2021-08-10T11:56:51.664Z</time>
      </trkpt>
      <trkpt lat="46.9198" lon="8.58541">
        <ele>866</ele>
        <time>2021-08-10T11:56:52.664Z</time>
      </trkpt>
      <trkpt lat="46.91981" lon="8.58541">
        <ele>866</ele>
        <time>2021-08-10T11:56:53.664Z</time>
      </trkpt>
      <trkpt lat="46.91983" lon="8.58538">
        <ele>865</ele>
        <time>2021-08-10T11:56:54.664Z</time>
      </trkpt>
      <trkpt lat="46.91984" lon="8.58536">
        <ele>864</ele>
        <time>2021-08-10T11:56:55.665Z</time>
      </trkpt>
      <trkpt lat="46.91986" lon="8.58534">
        <ele>864</ele>
        <time>2021-08-10T11:56:56.664Z</time>
      </trkpt>
      <trkpt lat="46.91988" lon="8.58532">
        <ele>863</ele>
        <time>2021-08-10T11:56:57.665Z</time>
      </trkpt>
      <trkpt lat="46.9199" lon="8.58531">
        <ele>863</ele>
        <time>2021-08-10T11:56:58.665Z</time>
      </trkpt>
      <trkpt lat="46.91991" lon="8.5853">
        <ele>863</ele>
        <time>2021-08-10T11:56:59.665Z</time>
      </trkpt>
      <trkpt lat="46.91992" lon="8.58529">
        <ele>863</ele>
        <time>2021-08-10T11:57:00.665Z</time>
      </trkpt>
      <trkpt lat="46.91992" lon="8.58528">
        <ele>863</ele>
        <time>2021-08-10T11:57:01.665Z</time>
      </trkpt>
      <trkpt lat="46.91993" lon="8.58527">
        <ele>863</ele>
        <time>2021-08-10T11:57:02.665Z</time>
      </trkpt>
      <trkpt lat="46.91993" lon="8.58526">
        <ele>864</ele>
        <time>2021-08-10T11:57:03.665Z</time>
      </trkpt>
      <trkpt lat="46.91994" lon="8.58525">
        <ele>864</ele>
        <time>2021-08-10T11:57:04.665Z</time>
      </trkpt>
      <trkpt lat="46.91994" lon="8.58525">
        <ele>864</ele>
        <time>2021-08-10T11:57:05.665Z</time>
      </trkpt>
      <trkpt lat="46.91994" lon="8.58524">
        <ele>864</ele>
        <time>2021-08-10T11:57:06.665Z</time>
      </trkpt>
      <trkpt lat="46.91994" lon="8.58524">
        <ele>865</ele>
        <time>2021-08-10T11:57:07.665Z</time>
      </trkpt>
      <trkpt lat="46.91995" lon="8.58523">
        <ele>865</ele>
        <time>2021-08-10T11:57:08.665Z</time>
      </trkpt>
      <trkpt lat="46.91995" lon="8.58523">
        <ele>865</ele>
        <time>2021-08-10T11:57:09.665Z</time>
      </trkpt>
      <trkpt lat="46.91995" lon="8.58523">
        <ele>866</ele>
        <time>2021-08-10T11:57:10.665Z</time>
      </trkpt>
      <trkpt lat="46.91995" lon="8.58523">
        <ele>866</ele>
        <time>2021-08-10T11:57:11.665Z</time>
      </trkpt>
      <trkpt lat="46.91995" lon="8.58524">
        <ele>866</ele>
        <time>2021-08-10T11:57:12.665Z</time>
      </trkpt>
      <trkpt lat="46.91994" lon="8.58524">
        <ele>867</ele>
        <time>2021-08-10T11:57:13.665Z</time>
      </trkpt>
      <trkpt lat="46.91995" lon="8.58523">
        <ele>867</ele>
        <time>2021-08-10T11:57:14.665Z</time>
      </trkpt>
      <trkpt lat="46.91996" lon="8.58529">
        <ele>869</ele>
        <time>2021-08-10T11:57:15.665Z</time>
      </trkpt>
      <trkpt lat="46.91996" lon="8.58529">
        <ele>869</ele>
        <time>2021-08-10T11:57:16.665Z</time>
      </trkpt>
      <trkpt lat="46.91996" lon="8.58529">
        <ele>869</ele>
        <time>2021-08-10T11:57:17.664Z</time>
      </trkpt>
      <trkpt lat="46.91997" lon="8.58529">
        <ele>870</ele>
        <time>2021-08-10T11:57:18.664Z</time>
      </trkpt>
      <trkpt lat="46.91997" lon="8.58529">
        <ele>871</ele>
        <time>2021-08-10T11:57:19.664Z</time>
      </trkpt>
      <trkpt lat="46.91997" lon="8.58528">
        <ele>871</ele>
        <time>2021-08-10T11:57:20.664Z</time>
      </trkpt>
      <trkpt lat="46.91997" lon="8.58528">
        <ele>871</ele>
        <time>2021-08-10T11:57:21.665Z</time>
      </trkpt>
      <trkpt lat="46.91997" lon="8.58529">
        <ele>872</ele>
        <time>2021-08-10T11:57:22.665Z</time>
      </trkpt>
      <trkpt lat="46.91996" lon="8.5853">
        <ele>872</ele>
        <time>2021-08-10T11:57:23.665Z</time>
      </trkpt>
      <trkpt lat="46.91997" lon="8.5853">
        <ele>872</ele>
        <time>2021-08-10T11:57:24.666Z</time>
      </trkpt>
      <trkpt lat="46.91997" lon="8.5853">
        <ele>872</ele>
        <time>2021-08-10T11:57:25.665Z</time>
      </trkpt>
      <trkpt lat="46.91996" lon="8.58528">
        <ele>873</ele>
        <time>2021-08-10T11:57:26.666Z</time>
      </trkpt>
      <trkpt lat="46.91996" lon="8.58528">
        <ele>874</ele>
        <time>2021-08-10T11:57:27.667Z</time>
      </trkpt>
      <trkpt lat="46.91995" lon="8.58528">
        <ele>874</ele>
        <time>2021-08-10T11:57:28.666Z</time>
      </trkpt>
      <trkpt lat="46.91995" lon="8.58528">
        <ele>874</ele>
        <time>2021-08-10T11:57:29.667Z</time>
      </trkpt>
      <trkpt lat="46.91995" lon="8.58527">
        <ele>875</ele>
        <time>2021-08-10T11:57:30.666Z</time>
      </trkpt>
      <trkpt lat="46.91995" lon="8.58526">
        <ele>875</ele>
        <time>2021-08-10T11:57:31.666Z</time>
      </trkpt>
      <trkpt lat="46.91994" lon="8.58525">
        <ele>876</ele>
        <time>2021-08-10T11:57:32.667Z</time>
      </trkpt>
      <trkpt lat="46.91994" lon="8.58524">
        <ele>876</ele>
        <time>2021-08-10T11:57:33.667Z</time>
      </trkpt>
      <trkpt lat="46.91993" lon="8.58523">
        <ele>877</ele>
        <time>2021-08-10T11:57:34.666Z</time>
      </trkpt>
      <trkpt lat="46.91992" lon="8.58522">
        <ele>877</ele>
        <time>2021-08-10T11:57:35.667Z</time>
      </trkpt>
      <trkpt lat="46.91992" lon="8.58521">
        <ele>878</ele>
        <time>2021-08-10T11:57:36.667Z</time>
      </trkpt>
      <trkpt lat="46.91991" lon="8.5852">
        <ele>878</ele>
        <time>2021-08-10T11:57:37.667Z</time>
      </trkpt>
      <trkpt lat="46.9199" lon="8.58519">
        <ele>879</ele>
        <time>2021-08-10T11:57:38.667Z</time>
      </trkpt>
      <trkpt lat="46.91989" lon="8.58519">
        <ele>879</ele>
        <time>2021-08-10T11:57:39.667Z</time>
      </trkpt>
      <trkpt lat="46.91989" lon="8.58519">
        <ele>880</ele>
        <time>2021-08-10T11:57:40.667Z</time>
      </trkpt>
      <trkpt lat="46.91989" lon="8.5852">
        <ele>881</ele>
        <time>2021-08-10T11:57:41.667Z</time>
      </trkpt>
      <trkpt lat="46.91989" lon="8.5852">
        <ele>881</ele>
        <time>2021-08-10T11:57:42.666Z</time>
      </trkpt>
      <trkpt lat="46.91989" lon="8.58519">
        <ele>881</ele>
        <time>2021-08-10T11:57:43.666Z</time>
      </trkpt>
      <trkpt lat="46.91989" lon="8.58518">
        <ele>882</ele>
        <time>2021-08-10T11:57:44.667Z</time>
      </trkpt>
      <trkpt lat="46.91988" lon="8.58518">
        <ele>882</ele>
        <time>2021-08-10T11:57:45.667Z</time>
      </trkpt>
      <trkpt lat="46.91987" lon="8.58517">
        <ele>882</ele>
        <time>2021-08-10T11:57:46.667Z</time>
      </trkpt>
      <trkpt lat="46.91986" lon="8.58516">
        <ele>883</ele>
        <time>2021-08-10T11:57:47.666Z</time>
      </trkpt>
      <trkpt lat="46.91985" lon="8.58515">
        <ele>883</ele>
        <time>2021-08-10T11:57:48.667Z</time>
      </trkpt>
      <trkpt lat="46.91985" lon="8.58515">
        <ele>883</ele>
        <time>2021-08-10T11:57:49.667Z</time>
      </trkpt>
      <trkpt lat="46.91984" lon="8.58513">
        <ele>884</ele>
        <time>2021-08-10T11:57:50.667Z</time>
      </trkpt>
      <trkpt lat="46.91983" lon="8.58512">
        <ele>884</ele>
        <time>2021-08-10T11:57:51.666Z</time>
      </trkpt>
      <trkpt lat="46.91983" lon="8.58512">
        <ele>884</ele>
        <time>2021-08-10T11:57:52.667Z</time>
      </trkpt>
      <trkpt lat="46.91983" lon="8.58511">
        <ele>884</ele>
        <time>2021-08-10T11:57:53.667Z</time>
      </trkpt>
      <trkpt lat="46.91982" lon="8.58509">
        <ele>884</ele>
        <time>2021-08-10T11:57:54.666Z</time>
      </trkpt>
      <trkpt lat="46.91981" lon="8.58508">
        <ele>884</ele>
        <time>2021-08-10T11:57:55.667Z</time>
      </trkpt>
      <trkpt lat="46.9198" lon="8.58506">
        <ele>884</ele>
        <time>2021-08-10T11:57:56.667Z</time>
      </trkpt>
      <trkpt lat="46.9198" lon="8.58506">
        <ele>885</ele>
        <time>2021-08-10T11:57:57.666Z</time>
      </trkpt>
      <trkpt lat="46.91978" lon="8.58505">
        <ele>885</ele>
        <time>2021-08-10T11:57:58.667Z</time>
      </trkpt>
      <trkpt lat="46.91977" lon="8.58505">
        <ele>885</ele>
        <time>2021-08-10T11:57:59.667Z</time>
      </trkpt>
      <trkpt lat="46.91976" lon="8.58505">
        <ele>885</ele>
        <time>2021-08-10T11:58:00.667Z</time>
      </trkpt>
      <trkpt lat="46.91975" lon="8.58504">
        <ele>885</ele>
        <time>2021-08-10T11:58:01.666Z</time>
      </trkpt>
      <trkpt lat="46.91974" lon="8.58504">
        <ele>886</ele>
        <time>2021-08-10T11:58:02.666Z</time>
      </trkpt>
      <trkpt lat="46.91973" lon="8.58504">
        <ele>886</ele>
        <time>2021-08-10T11:58:03.667Z</time>
      </trkpt>
      <trkpt lat="46.91973" lon="8.58505">
        <ele>887</ele>
        <time>2021-08-10T11:58:04.666Z</time>
      </trkpt>
      <trkpt lat="46.91972" lon="8.58507">
        <ele>887</ele>
        <time>2021-08-10T11:58:05.667Z</time>
      </trkpt>
      <trkpt lat="46.91972" lon="8.58508">
        <ele>887</ele>
        <time>2021-08-10T11:58:06.667Z</time>
      </trkpt>
      <trkpt lat="46.91971" lon="8.58508">
        <ele>887</ele>
        <time>2021-08-10T11:58:07.667Z</time>
      </trkpt>
      <trkpt lat="46.91971" lon="8.58509">
        <ele>887</ele>
        <time>2021-08-10T11:58:08.667Z</time>
      </trkpt>
      <trkpt lat="46.91971" lon="8.58509">
        <ele>887</ele>
        <time>2021-08-10T11:58:09.667Z</time>
      </trkpt>
      <trkpt lat="46.91971" lon="8.58509">
        <ele>887</ele>
        <time>2021-08-10T11:58:10.667Z</time>
      </trkpt>
      <trkpt lat="46.9197" lon="8.58508">
        <ele>888</ele>
        <time>2021-08-10T11:58:11.667Z</time>
      </trkpt>
      <trkpt lat="46.91969" lon="8.58507">
        <ele>888</ele>
        <time>2021-08-10T11:58:12.666Z</time>
      </trkpt>
      <trkpt lat="46.91969" lon="8.58507">
        <ele>888</ele>
        <time>2021-08-10T11:58:13.667Z</time>
      </trkpt>
      <trkpt lat="46.91968" lon="8.58506">
        <ele>888</ele>
        <time>2021-08-10T11:58:14.667Z</time>
      </trkpt>
      <trkpt lat="46.91967" lon="8.58506">
        <ele>888</ele>
        <time>2021-08-10T11:58:15.666Z</time>
      </trkpt>
      <trkpt lat="46.91966" lon="8.58507">
        <ele>888</ele>
        <time>2021-08-10T11:58:16.666Z</time>
      </trkpt>
      <trkpt lat="46.91966" lon="8.58507">
        <ele>888</ele>
        <time>2021-08-10T11:58:17.667Z</time>
      </trkpt>
      <trkpt lat="46.91965" lon="8.58507">
        <ele>888</ele>
        <time>2021-08-10T11:58:18.667Z</time>
      </trkpt>
      <trkpt lat="46.91965" lon="8.58508">
        <ele>888</ele>
        <time>2021-08-10T11:58:19.666Z</time>
      </trkpt>
      <trkpt lat="46.91964" lon="8.58508">
        <ele>888</ele>
        <time>2021-08-10T11:58:20.666Z</time>
      </trkpt>
      <trkpt lat="46.91964" lon="8.58508">
        <ele>888</ele>
        <time>2021-08-10T11:58:21.667Z</time>
      </trkpt>
      <trkpt lat="46.91963" lon="8.58508">
        <ele>888</ele>
        <time>2021-08-10T11:58:22.667Z</time>
      </trkpt>
      <trkpt lat="46.91962" lon="8.58508">
        <ele>888</ele>
        <time>2021-08-10T11:58:23.666Z</time>
      </trkpt>
      <trkpt lat="46.91962" lon="8.58508">
        <ele>888</ele>
        <time>2021-08-10T11:58:24.666Z</time>
      </trkpt>
      <trkpt lat="46.91961" lon="8.58508">
        <ele>889</ele>
        <time>2021-08-10T11:58:25.667Z</time>
      </trkpt>
      <trkpt lat="46.91961" lon="8.58507">
        <ele>889</ele>
        <time>2021-08-10T11:58:26.666Z</time>
      </trkpt>
      <trkpt lat="46.9196" lon="8.58507">
        <ele>889</ele>
        <time>2021-08-10T11:58:27.667Z</time>
      </trkpt>
      <trkpt lat="46.9196" lon="8.58508">
        <ele>889</ele>
        <time>2021-08-10T11:58:28.667Z</time>
      </trkpt>
      <trkpt lat="46.91959" lon="8.58508">
        <ele>888</ele>
        <time>2021-08-10T11:58:29.667Z</time>
      </trkpt>
      <trkpt lat="46.91958" lon="8.58508">
        <ele>887</ele>
        <time>2021-08-10T11:58:30.666Z</time>
      </trkpt>
      <trkpt lat="46.91957" lon="8.58508">
        <ele>887</ele>
        <time>2021-08-10T11:58:31.667Z</time>
      </trkpt>
      <trkpt lat="46.91957" lon="8.58508">
        <ele>886</ele>
        <time>2021-08-10T11:58:32.667Z</time>
      </trkpt>
      <trkpt lat="46.91956" lon="8.58508">
        <ele>885</ele>
        <time>2021-08-10T11:58:33.667Z</time>
      </trkpt>
      <trkpt lat="46.91956" lon="8.58508">
        <ele>885</ele>
        <time>2021-08-10T11:58:34.666Z</time>
      </trkpt>
      <trkpt lat="46.91955" lon="8.58507">
        <ele>884</ele>
        <time>2021-08-10T11:58:35.667Z</time>
      </trkpt>
      <trkpt lat="46.91954" lon="8.58506">
        <ele>882</ele>
        <time>2021-08-10T11:58:36.667Z</time>
      </trkpt>
      <trkpt lat="46.91954" lon="8.58505">
        <ele>882</ele>
        <time>2021-08-10T11:58:37.667Z</time>
      </trkpt>
      <trkpt lat="46.91953" lon="8.58504">
        <ele>881</ele>
        <time>2021-08-10T11:58:38.667Z</time>
      </trkpt>
      <trkpt lat="46.91953" lon="8.58503">
        <ele>880</ele>
        <time>2021-08-10T11:58:39.667Z</time>
      </trkpt>
      <trkpt lat="46.91952" lon="8.58502">
        <ele>879</ele>
        <time>2021-08-10T11:58:40.667Z</time>
      </trkpt>
      <trkpt lat="46.91952" lon="8.58502">
        <ele>878</ele>
        <time>2021-08-10T11:58:41.667Z</time>
      </trkpt>
      <trkpt lat="46.91951" lon="8.58503">
        <ele>878</ele>
        <time>2021-08-10T11:58:42.667Z</time>
      </trkpt>
      <trkpt lat="46.9195" lon="8.58503">
        <ele>877</ele>
        <time>2021-08-10T11:58:43.666Z</time>
      </trkpt>
      <trkpt lat="46.9195" lon="8.58503">
        <ele>877</ele>
        <time>2021-08-10T11:58:44.667Z</time>
      </trkpt>
      <trkpt lat="46.91949" lon="8.58503">
        <ele>876</ele>
        <time>2021-08-10T11:58:45.667Z</time>
      </trkpt>
      <trkpt lat="46.91948" lon="8.58504">
        <ele>876</ele>
        <time>2021-08-10T11:58:46.667Z</time>
      </trkpt>
      <trkpt lat="46.91948" lon="8.58504">
        <ele>875</ele>
        <time>2021-08-10T11:58:47.666Z</time>
      </trkpt>
      <trkpt lat="46.91947" lon="8.58504">
        <ele>874</ele>
        <time>2021-08-10T11:58:48.667Z</time>
      </trkpt>
      <trkpt lat="46.91947" lon="8.58504">
        <ele>874</ele>
        <time>2021-08-10T11:58:49.667Z</time>
      </trkpt>
      <trkpt lat="46.91946" lon="8.58504">
        <ele>873</ele>
        <time>2021-08-10T11:58:50.666Z</time>
      </trkpt>
      <trkpt lat="46.91945" lon="8.58505">
        <ele>873</ele>
        <time>2021-08-10T11:58:51.667Z</time>
      </trkpt>
      <trkpt lat="46.91944" lon="8.58505">
        <ele>873</ele>
        <time>2021-08-10T11:58:52.667Z</time>
      </trkpt>
      <trkpt lat="46.91944" lon="8.58505">
        <ele>874</ele>
        <time>2021-08-10T11:58:53.666Z</time>
      </trkpt>
      <trkpt lat="46.91943" lon="8.58504">
        <ele>874</ele>
        <time>2021-08-10T11:58:54.667Z</time>
      </trkpt>
      <trkpt lat="46.91942" lon="8.58504">
        <ele>875</ele>
        <time>2021-08-10T11:58:55.667Z</time>
      </trkpt>
      <trkpt lat="46.91941" lon="8.58504">
        <ele>875</ele>
        <time>2021-08-10T11:58:56.667Z</time>
      </trkpt>
      <trkpt lat="46.91941" lon="8.58504">
        <ele>875</ele>
        <time>2021-08-10T11:58:57.667Z</time>
      </trkpt>
      <trkpt lat="46.9194" lon="8.58504">
        <ele>874</ele>
        <time>2021-08-10T11:58:58.667Z</time>
      </trkpt>
      <trkpt lat="46.9194" lon="8.58505">
        <ele>874</ele>
        <time>2021-08-10T11:58:59.667Z</time>
      </trkpt>
      <trkpt lat="46.9194" lon="8.58505">
        <ele>874</ele>
        <time>2021-08-10T11:59:00.667Z</time>
      </trkpt>
      <trkpt lat="46.91939" lon="8.58505">
        <ele>874</ele>
        <time>2021-08-10T11:59:01.667Z</time>
      </trkpt>
      <trkpt lat="46.91938" lon="8.58506">
        <ele>874</ele>
        <time>2021-08-10T11:59:02.667Z</time>
      </trkpt>
      <trkpt lat="46.91938" lon="8.58505">
        <ele>874</ele>
        <time>2021-08-10T11:59:03.666Z</time>
      </trkpt>
      <trkpt lat="46.91937" lon="8.58505">
        <ele>874</ele>
        <time>2021-08-10T11:59:04.666Z</time>
      </trkpt>
      <trkpt lat="46.91936" lon="8.58505">
        <ele>874</ele>
        <time>2021-08-10T11:59:05.667Z</time>
      </trkpt>
      <trkpt lat="46.91936" lon="8.58505">
        <ele>874</ele>
        <time>2021-08-10T11:59:06.667Z</time>
      </trkpt>
      <trkpt lat="46.91936" lon="8.58505">
        <ele>874</ele>
        <time>2021-08-10T11:59:07.667Z</time>
      </trkpt>
      <trkpt lat="46.91936" lon="8.58505">
        <ele>874</ele>
        <time>2021-08-10T11:59:08.667Z</time>
      </trkpt>
      <trkpt lat="46.91935" lon="8.58504">
        <ele>874</ele>
        <time>2021-08-10T11:59:09.666Z</time>
      </trkpt>
      <trkpt lat="46.91936" lon="8.58504">
        <ele>874</ele>
        <time>2021-08-10T11:59:10.667Z</time>
      </trkpt>
      <trkpt lat="46.91936" lon="8.58504">
        <ele>875</ele>
        <time>2021-08-10T11:59:11.667Z</time>
      </trkpt>
      <trkpt lat="46.91935" lon="8.58505">
        <ele>875</ele>
        <time>2021-08-10T11:59:12.667Z</time>
      </trkpt>
      <trkpt lat="46.91935" lon="8.58505">
        <ele>874</ele>
        <time>2021-08-10T11:59:13.667Z</time>
      </trkpt>
      <trkpt lat="46.91934" lon="8.58505">
        <ele>874</ele>
        <time>2021-08-10T11:59:14.667Z</time>
      </trkpt>
      <trkpt lat="46.91934" lon="8.58506">
        <ele>874</ele>
        <time>2021-08-10T11:59:15.666Z</time>
      </trkpt>
      <trkpt lat="46.91933" lon="8.58506">
        <ele>873</ele>
        <time>2021-08-10T11:59:16.666Z</time>
      </trkpt>
      <trkpt lat="46.91933" lon="8.58506">
        <ele>873</ele>
        <time>2021-08-10T11:59:17.666Z</time>
      </trkpt>
      <trkpt lat="46.91932" lon="8.58507">
        <ele>873</ele>
        <time>2021-08-10T11:59:18.666Z</time>
      </trkpt>
      <trkpt lat="46.91931" lon="8.58507">
        <ele>873</ele>
        <time>2021-08-10T11:59:19.667Z</time>
      </trkpt>
      <trkpt lat="46.91931" lon="8.58508">
        <ele>873</ele>
        <time>2021-08-10T11:59:20.667Z</time>
      </trkpt>
      <trkpt lat="46.9193" lon="8.58508">
        <ele>874</ele>
        <time>2021-08-10T11:59:21.666Z</time>
      </trkpt>
      <trkpt lat="46.91929" lon="8.58509">
        <ele>874</ele>
        <time>2021-08-10T11:59:22.667Z</time>
      </trkpt>
      <trkpt lat="46.91929" lon="8.58509">
        <ele>874</ele>
        <time>2021-08-10T11:59:23.667Z</time>
      </trkpt>
      <trkpt lat="46.91928" lon="8.58509">
        <ele>875</ele>
        <time>2021-08-10T11:59:24.666Z</time>
      </trkpt>
      <trkpt lat="46.91928" lon="8.58509">
        <ele>875</ele>
        <time>2021-08-10T11:59:25.667Z</time>
      </trkpt>
      <trkpt lat="46.91928" lon="8.58509">
        <ele>875</ele>
        <time>2021-08-10T11:59:26.666Z</time>
      </trkpt>
      <trkpt lat="46.91926" lon="8.58512">
        <ele>876</ele>
        <time>2021-08-10T11:59:27.667Z</time>
      </trkpt>
      <trkpt lat="46.91925" lon="8.58513">
        <ele>877</ele>
        <time>2021-08-10T11:59:28.667Z</time>
      </trkpt>
      <trkpt lat="46.91923" lon="8.58514">
        <ele>877</ele>
        <time>2021-08-10T11:59:29.666Z</time>
      </trkpt>
      <trkpt lat="46.91922" lon="8.58514">
        <ele>878</ele>
        <time>2021-08-10T11:59:30.667Z</time>
      </trkpt>
      <trkpt lat="46.91922" lon="8.58513">
        <ele>878</ele>
        <time>2021-08-10T11:59:31.667Z</time>
      </trkpt>
      <trkpt lat="46.91922" lon="8.58513">
        <ele>878</ele>
        <time>2021-08-10T11:59:32.666Z</time>
      </trkpt>
      <trkpt lat="46.91921" lon="8.58514">
        <ele>878</ele>
        <time>2021-08-10T11:59:33.666Z</time>
      </trkpt>
      <trkpt lat="46.9192" lon="8.58514">
        <ele>877</ele>
        <time>2021-08-10T11:59:34.666Z</time>
      </trkpt>
      <trkpt lat="46.9192" lon="8.58515">
        <ele>877</ele>
        <time>2021-08-10T11:59:35.667Z</time>
      </trkpt>
      <trkpt lat="46.91919" lon="8.58515">
        <ele>877</ele>
        <time>2021-08-10T11:59:36.667Z</time>
      </trkpt>
      <trkpt lat="46.91918" lon="8.58515">
        <ele>877</ele>
        <time>2021-08-10T11:59:37.666Z</time>
      </trkpt>
      <trkpt lat="46.91918" lon="8.58515">
        <ele>876</ele>
        <time>2021-08-10T11:59:38.667Z</time>
      </trkpt>
      <trkpt lat="46.91917" lon="8.58516">
        <ele>876</ele>
        <time>2021-08-10T11:59:39.666Z</time>
      </trkpt>
      <trkpt lat="46.91917" lon="8.58516">
        <ele>875</ele>
        <time>2021-08-10T11:59:40.667Z</time>
      </trkpt>
      <trkpt lat="46.91916" lon="8.58517">
        <ele>875</ele>
        <time>2021-08-10T11:59:41.666Z</time>
      </trkpt>
      <trkpt lat="46.91916" lon="8.58517">
        <ele>875</ele>
        <time>2021-08-10T11:59:42.667Z</time>
      </trkpt>
      <trkpt lat="46.91915" lon="8.58517">
        <ele>875</ele>
        <time>2021-08-10T11:59:43.666Z</time>
      </trkpt>
      <trkpt lat="46.91914" lon="8.58517">
        <ele>876</ele>
        <time>2021-08-10T11:59:44.666Z</time>
      </trkpt>
      <trkpt lat="46.91913" lon="8.58517">
        <ele>876</ele>
        <time>2021-08-10T11:59:45.667Z</time>
      </trkpt>
      <trkpt lat="46.91913" lon="8.58517">
        <ele>876</ele>
        <time>2021-08-10T11:59:46.666Z</time>
      </trkpt>
      <trkpt lat="46.91912" lon="8.58518">
        <ele>876</ele>
        <time>2021-08-10T11:59:47.667Z</time>
      </trkpt>
      <trkpt lat="46.91912" lon="8.58518">
        <ele>876</ele>
        <time>2021-08-10T11:59:48.666Z</time>
      </trkpt>
      <trkpt lat="46.91911" lon="8.58518">
        <ele>876</ele>
        <time>2021-08-10T11:59:49.667Z</time>
      </trkpt>
      <trkpt lat="46.9191" lon="8.58518">
        <ele>876</ele>
        <time>2021-08-10T11:59:50.667Z</time>
      </trkpt>
      <trkpt lat="46.9191" lon="8.58519">
        <ele>876</ele>
        <time>2021-08-10T11:59:51.666Z</time>
      </trkpt>
      <trkpt lat="46.91909" lon="8.58519">
        <ele>876</ele>
        <time>2021-08-10T11:59:52.667Z</time>
      </trkpt>
      <trkpt lat="46.91908" lon="8.58519">
        <ele>876</ele>
        <time>2021-08-10T11:59:53.667Z</time>
      </trkpt>
      <trkpt lat="46.91907" lon="8.58519">
        <ele>876</ele>
        <time>2021-08-10T11:59:54.667Z</time>
      </trkpt>
      <trkpt lat="46.91906" lon="8.5852">
        <ele>876</ele>
        <time>2021-08-10T11:59:55.667Z</time>
      </trkpt>
      <trkpt lat="46.91906" lon="8.5852">
        <ele>877</ele>
        <time>2021-08-10T11:59:56.666Z</time>
      </trkpt>
      <trkpt lat="46.91905" lon="8.5852">
        <ele>877</ele>
        <time>2021-08-10T11:59:57.666Z</time>
      </trkpt>
      <trkpt lat="46.91904" lon="8.5852">
        <ele>877</ele>
        <time>2021-08-10T12:00:07.811Z</time>
      </trkpt>
      <trkpt lat="46.91904" lon="8.5852">
        <ele>878</ele>
        <time>2021-08-10T12:00:14.684Z</time>
      </trkpt>
      <trkpt lat="46.91903" lon="8.58521">
        <ele>878</ele>
        <time>2021-08-10T12:00:24.581Z</time>
      </trkpt>
      <trkpt lat="46.91903" lon="8.5852">
        <ele>878</ele>
        <time>2021-08-10T12:00:25.580Z</time>
      </trkpt>
      <trkpt lat="46.91902" lon="8.5852">
        <ele>878</ele>
        <time>2021-08-10T12:00:26.581Z</time>
      </trkpt>
      <trkpt lat="46.91901" lon="8.5852">
        <ele>878</ele>
        <time>2021-08-10T12:00:27.580Z</time>
      </trkpt>
      <trkpt lat="46.91901" lon="8.58521">
        <ele>878</ele>
        <time>2021-08-10T12:00:28.581Z</time>
      </trkpt>
      <trkpt lat="46.919" lon="8.5852">
        <ele>878</ele>
        <time>2021-08-10T12:00:30.659Z</time>
      </trkpt>
      <trkpt lat="46.91899" lon="8.5852">
        <ele>879</ele>
        <time>2021-08-10T12:00:31.659Z</time>
      </trkpt>
      <trkpt lat="46.91899" lon="8.58519">
        <ele>879</ele>
        <time>2021-08-10T12:00:32.660Z</time>
      </trkpt>
      <trkpt lat="46.91897" lon="8.58519">
        <ele>879</ele>
        <time>2021-08-10T12:00:33.659Z</time>
      </trkpt>
      <trkpt lat="46.91897" lon="8.58518">
        <ele>879</ele>
        <time>2021-08-10T12:00:34.659Z</time>
      </trkpt>
      <trkpt lat="46.91896" lon="8.58517">
        <ele>880</ele>
        <time>2021-08-10T12:00:35.660Z</time>
      </trkpt>
      <trkpt lat="46.91895" lon="8.58518">
        <ele>880</ele>
        <time>2021-08-10T12:00:36.660Z</time>
      </trkpt>
      <trkpt lat="46.91894" lon="8.58518">
        <ele>881</ele>
        <time>2021-08-10T12:00:37.660Z</time>
      </trkpt>
      <trkpt lat="46.91893" lon="8.58517">
        <ele>882</ele>
        <time>2021-08-10T12:00:38.660Z</time>
      </trkpt>
      <trkpt lat="46.91893" lon="8.58517">
        <ele>882</ele>
        <time>2021-08-10T12:00:39.660Z</time>
      </trkpt>
      <trkpt lat="46.91892" lon="8.58516">
        <ele>883</ele>
        <time>2021-08-10T12:00:40.660Z</time>
      </trkpt>
      <trkpt lat="46.91892" lon="8.58516">
        <ele>883</ele>
        <time>2021-08-10T12:00:41.660Z</time>
      </trkpt>
      <trkpt lat="46.91892" lon="8.58515">
        <ele>884</ele>
        <time>2021-08-10T12:00:42.660Z</time>
      </trkpt>
      <trkpt lat="46.91891" lon="8.58515">
        <ele>884</ele>
        <time>2021-08-10T12:00:43.660Z</time>
      </trkpt>
      <trkpt lat="46.9189" lon="8.58514">
        <ele>885</ele>
        <time>2021-08-10T12:00:44.660Z</time>
      </trkpt>
      <trkpt lat="46.91889" lon="8.58514">
        <ele>886</ele>
        <time>2021-08-10T12:00:45.660Z</time>
      </trkpt>
      <trkpt lat="46.91889" lon="8.58514">
        <ele>886</ele>
        <time>2021-08-10T12:00:46.660Z</time>
      </trkpt>
      <trkpt lat="46.91889" lon="8.58514">
        <ele>886</ele>
        <time>2021-08-10T12:00:47.660Z</time>
      </trkpt>
      <trkpt lat="46.91889" lon="8.58515">
        <ele>886</ele>
        <time>2021-08-10T12:00:48.660Z</time>
      </trkpt>
      <trkpt lat="46.91889" lon="8.58517">
        <ele>885</ele>
        <time>2021-08-10T12:00:49.660Z</time>
      </trkpt>
      <trkpt lat="46.91889" lon="8.58518">
        <ele>885</ele>
        <time>2021-08-10T12:00:50.661Z</time>
      </trkpt>
      <trkpt lat="46.91888" lon="8.58518">
        <ele>885</ele>
        <time>2021-08-10T12:00:51.660Z</time>
      </trkpt>
      <trkpt lat="46.91888" lon="8.58518">
        <ele>885</ele>
        <time>2021-08-10T12:00:54.622Z</time>
      </trkpt>
      <trkpt lat="46.91888" lon="8.58518">
        <ele>886</ele>
        <time>2021-08-10T12:00:55.622Z</time>
      </trkpt>
      <trkpt lat="46.91888" lon="8.58518">
        <ele>887</ele>
        <time>2021-08-10T12:00:56.621Z</time>
      </trkpt>
      <trkpt lat="46.91887" lon="8.58517">
        <ele>887</ele>
        <time>2021-08-10T12:00:57.621Z</time>
      </trkpt>
      <trkpt lat="46.91887" lon="8.58517">
        <ele>888</ele>
        <time>2021-08-10T12:00:58.622Z</time>
      </trkpt>
      <trkpt lat="46.91885" lon="8.58517">
        <ele>888</ele>
        <time>2021-08-10T12:00:59.622Z</time>
      </trkpt>
      <trkpt lat="46.91885" lon="8.58516">
        <ele>888</ele>
        <time>2021-08-10T12:01:00.622Z</time>
      </trkpt>
      <trkpt lat="46.91884" lon="8.58517">
        <ele>888</ele>
        <time>2021-08-10T12:01:01.622Z</time>
      </trkpt>
      <trkpt lat="46.91883" lon="8.58517">
        <ele>888</ele>
        <time>2021-08-10T12:01:02.622Z</time>
      </trkpt>
      <trkpt lat="46.91883" lon="8.58517">
        <ele>888</ele>
        <time>2021-08-10T12:01:03.622Z</time>
      </trkpt>
      <trkpt lat="46.91883" lon="8.58517">
        <ele>888</ele>
        <time>2021-08-10T12:01:04.622Z</time>
      </trkpt>
      <trkpt lat="46.91882" lon="8.58517">
        <ele>887</ele>
        <time>2021-08-10T12:01:05.621Z</time>
      </trkpt>
      <trkpt lat="46.91883" lon="8.58516">
        <ele>887</ele>
        <time>2021-08-10T12:01:06.622Z</time>
      </trkpt>
      <trkpt lat="46.91884" lon="8.58516">
        <ele>886</ele>
        <time>2021-08-10T12:01:07.622Z</time>
      </trkpt>
      <trkpt lat="46.91884" lon="8.58516">
        <ele>886</ele>
        <time>2021-08-10T12:01:08.623Z</time>
      </trkpt>
      <trkpt lat="46.91881" lon="8.58521">
        <ele>895</ele>
        <time>2021-08-10T12:01:09.623Z</time>
      </trkpt>
      <trkpt lat="46.91881" lon="8.58522">
        <ele>896</ele>
        <time>2021-08-10T12:01:10.624Z</time>
      </trkpt>
      <trkpt lat="46.91882" lon="8.58523">
        <ele>895</ele>
        <time>2021-08-10T12:01:11.623Z</time>
      </trkpt>
      <trkpt lat="46.91883" lon="8.58523">
        <ele>895</ele>
        <time>2021-08-10T12:01:12.624Z</time>
      </trkpt>
      <trkpt lat="46.91883" lon="8.58523">
        <ele>895</ele>
        <time>2021-08-10T12:01:13.624Z</time>
      </trkpt>
      <trkpt lat="46.91884" lon="8.58524">
        <ele>894</ele>
        <time>2021-08-10T12:01:14.624Z</time>
      </trkpt>
      <trkpt lat="46.91885" lon="8.58524">
        <ele>894</ele>
        <time>2021-08-10T12:01:15.623Z</time>
      </trkpt>
      <trkpt lat="46.91885" lon="8.58523">
        <ele>893</ele>
        <time>2021-08-10T12:01:16.624Z</time>
      </trkpt>
      <trkpt lat="46.91886" lon="8.58523">
        <ele>893</ele>
        <time>2021-08-10T12:01:17.623Z</time>
      </trkpt>
      <trkpt lat="46.91887" lon="8.58523">
        <ele>892</ele>
        <time>2021-08-10T12:01:18.623Z</time>
      </trkpt>
      <trkpt lat="46.91887" lon="8.58523">
        <ele>891</ele>
        <time>2021-08-10T12:01:19.624Z</time>
      </trkpt>
      <trkpt lat="46.91887" lon="8.58523">
        <ele>891</ele>
        <time>2021-08-10T12:01:20.624Z</time>
      </trkpt>
      <trkpt lat="46.91888" lon="8.58523">
        <ele>890</ele>
        <time>2021-08-10T12:01:21.623Z</time>
      </trkpt>
      <trkpt lat="46.91888" lon="8.58523">
        <ele>890</ele>
        <time>2021-08-10T12:01:22.624Z</time>
      </trkpt>
      <trkpt lat="46.91888" lon="8.58523">
        <ele>890</ele>
        <time>2021-08-10T12:01:23.623Z</time>
      </trkpt>
      <trkpt lat="46.91888" lon="8.58524">
        <ele>890</ele>
        <time>2021-08-10T12:01:24.624Z</time>
      </trkpt>
      <trkpt lat="46.91887" lon="8.58525">
        <ele>890</ele>
        <time>2021-08-10T12:01:25.624Z</time>
      </trkpt>
      <trkpt lat="46.91887" lon="8.58526">
        <ele>890</ele>
        <time>2021-08-10T12:01:26.624Z</time>
      </trkpt>
      <trkpt lat="46.91886" lon="8.58525">
        <ele>890</ele>
        <time>2021-08-10T12:01:27.624Z</time>
      </trkpt>
      <trkpt lat="46.91886" lon="8.58526">
        <ele>890</ele>
        <time>2021-08-10T12:01:28.624Z</time>
      </trkpt>
      <trkpt lat="46.91885" lon="8.58528">
        <ele>890</ele>
        <time>2021-08-10T12:01:29.624Z</time>
      </trkpt>
      <trkpt lat="46.91884" lon="8.58529">
        <ele>891</ele>
        <time>2021-08-10T12:01:30.624Z</time>
      </trkpt>
      <trkpt lat="46.91883" lon="8.58529">
        <ele>891</ele>
        <time>2021-08-10T12:01:31.624Z</time>
      </trkpt>
      <trkpt lat="46.91882" lon="8.58529">
        <ele>891</ele>
        <time>2021-08-10T12:01:32.623Z</time>
      </trkpt>
      <trkpt lat="46.91882" lon="8.5853">
        <ele>892</ele>
        <time>2021-08-10T12:01:33.624Z</time>
      </trkpt>
      <trkpt lat="46.91882" lon="8.5853">
        <ele>892</ele>
        <time>2021-08-10T12:01:34.624Z</time>
      </trkpt>
      <trkpt lat="46.91881" lon="8.5853">
        <ele>892</ele>
        <time>2021-08-10T12:01:35.624Z</time>
      </trkpt>
      <trkpt lat="46.91881" lon="8.5853">
        <ele>892</ele>
        <time>2021-08-10T12:01:36.624Z</time>
      </trkpt>
      <trkpt lat="46.91884" lon="8.58522">
        <ele>887</ele>
        <time>2021-08-10T12:01:37.623Z</time>
      </trkpt>
      <trkpt lat="46.91884" lon="8.58522">
        <ele>886</ele>
        <time>2021-08-10T12:01:38.623Z</time>
      </trkpt>
      <trkpt lat="46.91888" lon="8.58518">
        <ele>881</ele>
        <time>2021-08-10T12:01:39.624Z</time>
      </trkpt>
      <trkpt lat="46.9189" lon="8.58515">
        <ele>883</ele>
        <time>2021-08-10T12:01:40.623Z</time>
      </trkpt>
      <trkpt lat="46.9189" lon="8.58515">
        <ele>884</ele>
        <time>2021-08-10T12:01:41.623Z</time>
      </trkpt>
      <trkpt lat="46.9189" lon="8.58514">
        <ele>884</ele>
        <time>2021-08-10T12:01:42.623Z</time>
      </trkpt>
      <trkpt lat="46.9189" lon="8.58513">
        <ele>884</ele>
        <time>2021-08-10T12:01:43.624Z</time>
      </trkpt>
      <trkpt lat="46.9189" lon="8.58513">
        <ele>885</ele>
        <time>2021-08-10T12:01:44.623Z</time>
      </trkpt>
      <trkpt lat="46.9189" lon="8.58512">
        <ele>885</ele>
        <time>2021-08-10T12:01:45.624Z</time>
      </trkpt>
      <trkpt lat="46.9189" lon="8.58514">
        <ele>886</ele>
        <time>2021-08-10T12:01:46.624Z</time>
      </trkpt>
      <trkpt lat="46.91889" lon="8.58515">
        <ele>887</ele>
        <time>2021-08-10T12:01:47.625Z</time>
      </trkpt>
      <trkpt lat="46.91888" lon="8.58516">
        <ele>887</ele>
        <time>2021-08-10T12:01:48.625Z</time>
      </trkpt>
      <trkpt lat="46.91887" lon="8.58519">
        <ele>890</ele>
        <time>2021-08-10T12:01:49.625Z</time>
      </trkpt>
      <trkpt lat="46.91885" lon="8.5852">
        <ele>893</ele>
        <time>2021-08-10T12:01:50.626Z</time>
      </trkpt>
      <trkpt lat="46.91885" lon="8.5852">
        <ele>893</ele>
        <time>2021-08-10T12:01:51.626Z</time>
      </trkpt>
      <trkpt lat="46.91885" lon="8.5852">
        <ele>893</ele>
        <time>2021-08-10T12:01:52.625Z</time>
      </trkpt>
      <trkpt lat="46.91885" lon="8.58521">
        <ele>893</ele>
        <time>2021-08-10T12:01:53.625Z</time>
      </trkpt>
      <trkpt lat="46.91885" lon="8.5852">
        <ele>893</ele>
        <time>2021-08-10T12:01:54.626Z</time>
      </trkpt>
      <trkpt lat="46.91886" lon="8.58519">
        <ele>891</ele>
        <time>2021-08-10T12:01:55.627Z</time>
      </trkpt>
      <trkpt lat="46.91886" lon="8.58519">
        <ele>891</ele>
        <time>2021-08-10T12:01:56.627Z</time>
      </trkpt>
      <trkpt lat="46.91886" lon="8.58519">
        <ele>891</ele>
        <time>2021-08-10T12:01:57.627Z</time>
      </trkpt>
      <trkpt lat="46.91886" lon="8.58519">
        <ele>890</ele>
        <time>2021-08-10T12:01:58.626Z</time>
      </trkpt>
      <trkpt lat="46.91885" lon="8.58519">
        <ele>890</ele>
        <time>2021-08-10T12:01:59.626Z</time>
      </trkpt>
      <trkpt lat="46.91885" lon="8.5852">
        <ele>891</ele>
        <time>2021-08-10T12:02:00.626Z</time>
      </trkpt>
      <trkpt lat="46.91885" lon="8.5852">
        <ele>891</ele>
        <time>2021-08-10T12:02:01.627Z</time>
      </trkpt>
      <trkpt lat="46.91885" lon="8.58519">
        <ele>894</ele>
        <time>2021-08-10T12:02:02.628Z</time>
      </trkpt>
      <trkpt lat="46.91884" lon="8.58519">
        <ele>893</ele>
        <time>2021-08-10T12:02:03.627Z</time>
      </trkpt>
      <trkpt lat="46.91884" lon="8.58518">
        <ele>893</ele>
        <time>2021-08-10T12:02:04.628Z</time>
      </trkpt>
      <trkpt lat="46.91884" lon="8.58518">
        <ele>893</ele>
        <time>2021-08-10T12:02:05.628Z</time>
      </trkpt>
      <trkpt lat="46.91885" lon="8.58518">
        <ele>893</ele>
        <time>2021-08-10T12:02:06.627Z</time>
      </trkpt>
      <trkpt lat="46.91886" lon="8.5852">
        <ele>891</ele>
        <time>2021-08-10T12:02:07.628Z</time>
      </trkpt>
      <trkpt lat="46.91886" lon="8.58519">
        <ele>891</ele>
        <time>2021-08-10T12:02:08.629Z</time>
      </trkpt>
      <trkpt lat="46.91887" lon="8.58519">
        <ele>891</ele>
        <time>2021-08-10T12:02:09.629Z</time>
      </trkpt>
      <trkpt lat="46.91887" lon="8.58519">
        <ele>890</ele>
        <time>2021-08-10T12:02:10.629Z</time>
      </trkpt>
      <trkpt lat="46.91885" lon="8.5852">
        <ele>890</ele>
        <time>2021-08-10T12:02:11.629Z</time>
      </trkpt>
      <trkpt lat="46.91885" lon="8.5852">
        <ele>890</ele>
        <time>2021-08-10T12:02:12.630Z</time>
      </trkpt>
      <trkpt lat="46.91885" lon="8.5852">
        <ele>890</ele>
        <time>2021-08-10T12:02:13.629Z</time>
      </trkpt>
      <trkpt lat="46.91885" lon="8.5852">
        <ele>890</ele>
        <time>2021-08-10T12:02:14.630Z</time>
      </trkpt>
      <trkpt lat="46.91886" lon="8.5852">
        <ele>890</ele>
        <time>2021-08-10T12:02:15.629Z</time>
      </trkpt>
      <trkpt lat="46.91884" lon="8.58519">
        <ele>890</ele>
        <time>2021-08-10T12:02:16.630Z</time>
      </trkpt>
      <trkpt lat="46.91883" lon="8.58518">
        <ele>889</ele>
        <time>2021-08-10T12:02:17.630Z</time>
      </trkpt>
      <trkpt lat="46.91884" lon="8.58517">
        <ele>889</ele>
        <time>2021-08-10T12:02:18.629Z</time>
      </trkpt>
      <trkpt lat="46.91884" lon="8.58516">
        <ele>889</ele>
        <time>2021-08-10T12:02:19.629Z</time>
      </trkpt>
      <trkpt lat="46.91884" lon="8.58515">
        <ele>889</ele>
        <time>2021-08-10T12:02:20.629Z</time>
      </trkpt>
      <trkpt lat="46.91885" lon="8.58515">
        <ele>886</ele>
        <time>2021-08-10T12:02:21.630Z</time>
      </trkpt>
      <trkpt lat="46.91884" lon="8.58515">
        <ele>886</ele>
        <time>2021-08-10T12:02:23.633Z</time>
      </trkpt>
      <trkpt lat="46.91884" lon="8.58514">
        <ele>886</ele>
        <time>2021-08-10T12:02:24.633Z</time>
      </trkpt>
      <trkpt lat="46.91884" lon="8.58514">
        <ele>886</ele>
        <time>2021-08-10T12:02:25.633Z</time>
      </trkpt>
      <trkpt lat="46.91885" lon="8.58513">
        <ele>886</ele>
        <time>2021-08-10T12:02:26.632Z</time>
      </trkpt>
      <trkpt lat="46.91885" lon="8.58512">
        <ele>886</ele>
        <time>2021-08-10T12:02:27.633Z</time>
      </trkpt>
      <trkpt lat="46.91885" lon="8.58513">
        <ele>886</ele>
        <time>2021-08-10T12:02:28.633Z</time>
      </trkpt>
      <trkpt lat="46.91885" lon="8.58513">
        <ele>886</ele>
        <time>2021-08-10T12:02:29.632Z</time>
      </trkpt>
      <trkpt lat="46.91886" lon="8.58513">
        <ele>886</ele>
        <time>2021-08-10T12:02:30.633Z</time>
      </trkpt>
      <trkpt lat="46.91886" lon="8.58513">
        <ele>886</ele>
        <time>2021-08-10T12:02:31.633Z</time>
      </trkpt>
      <trkpt lat="46.91885" lon="8.58518">
        <ele>889</ele>
        <time>2021-08-10T12:02:32.632Z</time>
      </trkpt>
      <trkpt lat="46.91885" lon="8.58518">
        <ele>889</ele>
        <time>2021-08-10T12:02:33.632Z</time>
      </trkpt>
      <trkpt lat="46.91885" lon="8.58518">
        <ele>890</ele>
        <time>2021-08-10T12:02:34.632Z</time>
      </trkpt>
      <trkpt lat="46.91886" lon="8.58517">
        <ele>887</ele>
        <time>2021-08-10T12:02:35.633Z</time>
      </trkpt>
      <trkpt lat="46.91886" lon="8.58517">
        <ele>887</ele>
        <time>2021-08-10T12:02:36.633Z</time>
      </trkpt>
      <trkpt lat="46.91886" lon="8.58517">
        <ele>887</ele>
        <time>2021-08-10T12:02:37.633Z</time>
      </trkpt>
      <trkpt lat="46.91886" lon="8.58518">
        <ele>887</ele>
        <time>2021-08-10T12:02:38.632Z</time>
      </trkpt>
      <trkpt lat="46.91886" lon="8.58517">
        <ele>886</ele>
        <time>2021-08-10T12:02:39.632Z</time>
      </trkpt>
      <trkpt lat="46.91887" lon="8.58515">
        <ele>884</ele>
        <time>2021-08-10T12:02:40.633Z</time>
      </trkpt>
      <trkpt lat="46.91887" lon="8.58515">
        <ele>884</ele>
        <time>2021-08-10T12:02:41.633Z</time>
      </trkpt>
      <trkpt lat="46.91887" lon="8.58514">
        <ele>884</ele>
        <time>2021-08-10T12:02:42.632Z</time>
      </trkpt>
      <trkpt lat="46.91886" lon="8.58517">
        <ele>888</ele>
        <time>2021-08-10T12:02:43.633Z</time>
      </trkpt>
      <trkpt lat="46.91886" lon="8.58517">
        <ele>888</ele>
        <time>2021-08-10T12:02:44.634Z</time>
      </trkpt>
      <trkpt lat="46.91887" lon="8.58517">
        <ele>890</ele>
        <time>2021-08-10T12:02:45.635Z</time>
      </trkpt>
      <trkpt lat="46.91887" lon="8.58517">
        <ele>890</ele>
        <time>2021-08-10T12:02:46.635Z</time>
      </trkpt>
      <trkpt lat="46.91887" lon="8.58516">
        <ele>888</ele>
        <time>2021-08-10T12:02:47.635Z</time>
      </trkpt>
      <trkpt lat="46.91887" lon="8.58516">
        <ele>888</ele>
        <time>2021-08-10T12:02:48.635Z</time>
      </trkpt>
      <trkpt lat="46.91887" lon="8.58516">
        <ele>888</ele>
        <time>2021-08-10T12:02:49.634Z</time>
      </trkpt>
      <trkpt lat="46.91886" lon="8.58517">
        <ele>890</ele>
        <time>2021-08-10T12:02:50.635Z</time>
      </trkpt>
      <trkpt lat="46.91886" lon="8.58518">
        <ele>890</ele>
        <time>2021-08-10T12:02:51.635Z</time>
      </trkpt>
      <trkpt lat="46.91886" lon="8.58518">
        <ele>891</ele>
        <time>2021-08-10T12:02:52.634Z</time>
      </trkpt>
      <trkpt lat="46.91885" lon="8.58516">
        <ele>888</ele>
        <time>2021-08-10T12:02:53.635Z</time>
      </trkpt>
      <trkpt lat="46.91885" lon="8.58517">
        <ele>888</ele>
        <time>2021-08-10T12:02:54.635Z</time>
      </trkpt>
      <trkpt lat="46.91885" lon="8.58517">
        <ele>889</ele>
        <time>2021-08-10T12:02:55.635Z</time>
      </trkpt>
      <trkpt lat="46.91885" lon="8.58517">
        <ele>889</ele>
        <time>2021-08-10T12:02:56.634Z</time>
      </trkpt>
      <trkpt lat="46.91885" lon="8.58517">
        <ele>889</ele>
        <time>2021-08-10T12:02:57.634Z</time>
      </trkpt>
      <trkpt lat="46.91888" lon="8.58517">
        <ele>890</ele>
        <time>2021-08-10T12:03:01.635Z</time>
      </trkpt>
      <trkpt lat="46.91889" lon="8.58517">
        <ele>890</ele>
        <time>2021-08-10T12:03:02.635Z</time>
      </trkpt>
      <trkpt lat="46.91888" lon="8.58517">
        <ele>890</ele>
        <time>2021-08-10T12:03:03.635Z</time>
      </trkpt>
      <trkpt lat="46.91888" lon="8.58517">
        <ele>890</ele>
        <time>2021-08-10T12:03:04.635Z</time>
      </trkpt>
      <trkpt lat="46.91888" lon="8.58517">
        <ele>890</ele>
        <time>2021-08-10T12:03:05.634Z</time>
      </trkpt>
      <trkpt lat="46.91888" lon="8.58517">
        <ele>890</ele>
        <time>2021-08-10T12:03:06.635Z</time>
      </trkpt>
      <trkpt lat="46.91888" lon="8.58517">
        <ele>890</ele>
        <time>2021-08-10T12:03:07.635Z</time>
      </trkpt>
      <trkpt lat="46.91888" lon="8.58517">
        <ele>891</ele>
        <time>2021-08-10T12:03:08.634Z</time>
      </trkpt>
      <trkpt lat="46.91888" lon="8.58517">
        <ele>891</ele>
        <time>2021-08-10T12:03:09.634Z</time>
      </trkpt>
      <trkpt lat="46.91889" lon="8.58517">
        <ele>891</ele>
        <time>2021-08-10T12:03:10.635Z</time>
      </trkpt>
      <trkpt lat="46.9189" lon="8.58517">
        <ele>891</ele>
        <time>2021-08-10T12:03:11.635Z</time>
      </trkpt>
      <trkpt lat="46.91891" lon="8.58517">
        <ele>891</ele>
        <time>2021-08-10T12:03:12.635Z</time>
      </trkpt>
      <trkpt lat="46.91891" lon="8.58516">
        <ele>891</ele>
        <time>2021-08-10T12:03:13.634Z</time>
      </trkpt>
      <trkpt lat="46.91891" lon="8.58516">
        <ele>890</ele>
        <time>2021-08-10T12:03:14.635Z</time>
      </trkpt>
      <trkpt lat="46.91891" lon="8.58516">
        <ele>890</ele>
        <time>2021-08-10T12:03:15.634Z</time>
      </trkpt>
      <trkpt lat="46.9189" lon="8.58516">
        <ele>889</ele>
        <time>2021-08-10T12:03:16.637Z</time>
      </trkpt>
      <trkpt lat="46.9189" lon="8.58516">
        <ele>889</ele>
        <time>2021-08-10T12:03:17.637Z</time>
      </trkpt>
      <trkpt lat="46.91889" lon="8.58516">
        <ele>889</ele>
        <time>2021-08-10T12:03:18.636Z</time>
      </trkpt>
      <trkpt lat="46.91888" lon="8.58517">
        <ele>889</ele>
        <time>2021-08-10T12:03:19.637Z</time>
      </trkpt>
      <trkpt lat="46.91888" lon="8.58517">
        <ele>889</ele>
        <time>2021-08-10T12:03:20.636Z</time>
      </trkpt>
      <trkpt lat="46.91888" lon="8.58518">
        <ele>889</ele>
        <time>2021-08-10T12:03:21.637Z</time>
      </trkpt>
      <trkpt lat="46.91888" lon="8.58518">
        <ele>889</ele>
        <time>2021-08-10T12:03:22.637Z</time>
      </trkpt>
      <trkpt lat="46.91888" lon="8.5852">
        <ele>892</ele>
        <time>2021-08-10T12:03:23.638Z</time>
      </trkpt>
      <trkpt lat="46.91887" lon="8.58518">
        <ele>893</ele>
        <time>2021-08-10T12:03:24.638Z</time>
      </trkpt>
      <trkpt lat="46.91887" lon="8.58519">
        <ele>893</ele>
        <time>2021-08-10T12:03:25.638Z</time>
      </trkpt>
      <trkpt lat="46.91887" lon="8.58519">
        <ele>893</ele>
        <time>2021-08-10T12:03:26.637Z</time>
      </trkpt>
      <trkpt lat="46.91886" lon="8.58519">
        <ele>892</ele>
        <time>2021-08-10T12:03:27.638Z</time>
      </trkpt>
      <trkpt lat="46.91885" lon="8.5852">
        <ele>892</ele>
        <time>2021-08-10T12:03:28.638Z</time>
      </trkpt>
      <trkpt lat="46.91886" lon="8.5852">
        <ele>892</ele>
        <time>2021-08-10T12:03:29.637Z</time>
      </trkpt>
      <trkpt lat="46.91886" lon="8.5852">
        <ele>892</ele>
        <time>2021-08-10T12:03:30.638Z</time>
      </trkpt>
      <trkpt lat="46.91886" lon="8.5852">
        <ele>892</ele>
        <time>2021-08-10T12:03:31.637Z</time>
      </trkpt>
      <trkpt lat="46.91887" lon="8.58521">
        <ele>892</ele>
        <time>2021-08-10T12:03:32.637Z</time>
      </trkpt>
      <trkpt lat="46.91887" lon="8.5852">
        <ele>892</ele>
        <time>2021-08-10T12:03:33.637Z</time>
      </trkpt>
      <trkpt lat="46.91887" lon="8.58518">
        <ele>889</ele>
        <time>2021-08-10T12:03:34.639Z</time>
      </trkpt>
      <trkpt lat="46.91887" lon="8.58518">
        <ele>889</ele>
        <time>2021-08-10T12:03:35.640Z</time>
      </trkpt>
      <trkpt lat="46.91886" lon="8.58515">
        <ele>893</ele>
        <time>2021-08-10T12:03:36.640Z</time>
      </trkpt>
      <trkpt lat="46.91886" lon="8.58515">
        <ele>894</ele>
        <time>2021-08-10T12:03:37.639Z</time>
      </trkpt>
      <trkpt lat="46.91886" lon="8.58515">
        <ele>894</ele>
        <time>2021-08-10T12:03:38.640Z</time>
      </trkpt>
      <trkpt lat="46.91886" lon="8.58515">
        <ele>894</ele>
        <time>2021-08-10T12:03:39.639Z</time>
      </trkpt>
      <trkpt lat="46.91886" lon="8.58515">
        <ele>895</ele>
        <time>2021-08-10T12:03:40.639Z</time>
      </trkpt>
      <trkpt lat="46.91886" lon="8.58515">
        <ele>895</ele>
        <time>2021-08-10T12:03:41.639Z</time>
      </trkpt>
      <trkpt lat="46.91886" lon="8.58514">
        <ele>894</ele>
        <time>2021-08-10T12:03:42.640Z</time>
      </trkpt>
      <trkpt lat="46.91886" lon="8.58514">
        <ele>894</ele>
        <time>2021-08-10T12:03:43.639Z</time>
      </trkpt>
      <trkpt lat="46.91885" lon="8.58514">
        <ele>890</ele>
        <time>2021-08-10T12:03:44.641Z</time>
      </trkpt>
      <trkpt lat="46.91885" lon="8.58515">
        <ele>890</ele>
        <time>2021-08-10T12:03:45.641Z</time>
      </trkpt>
      <trkpt lat="46.91885" lon="8.58515">
        <ele>890</ele>
        <time>2021-08-10T12:03:46.640Z</time>
      </trkpt>
      <trkpt lat="46.91884" lon="8.58515">
        <ele>887</ele>
        <time>2021-08-10T12:03:47.640Z</time>
      </trkpt>
      <trkpt lat="46.91884" lon="8.58516">
        <ele>887</ele>
        <time>2021-08-10T12:03:48.640Z</time>
      </trkpt>
      <trkpt lat="46.91884" lon="8.58516">
        <ele>887</ele>
        <time>2021-08-10T12:03:49.640Z</time>
      </trkpt>
      <trkpt lat="46.91885" lon="8.58516">
        <ele>887</ele>
        <time>2021-08-10T12:03:50.640Z</time>
      </trkpt>
      <trkpt lat="46.91885" lon="8.58516">
        <ele>887</ele>
        <time>2021-08-10T12:03:51.640Z</time>
      </trkpt>
      <trkpt lat="46.91886" lon="8.58514">
        <ele>892</ele>
        <time>2021-08-10T12:03:52.640Z</time>
      </trkpt>
      <trkpt lat="46.91886" lon="8.58514">
        <ele>892</ele>
        <time>2021-08-10T12:03:53.640Z</time>
      </trkpt>
      <trkpt lat="46.91886" lon="8.58514">
        <ele>892</ele>
        <time>2021-08-10T12:03:54.641Z</time>
      </trkpt>
      <trkpt lat="46.91886" lon="8.58514">
        <ele>890</ele>
        <time>2021-08-10T12:03:55.642Z</time>
      </trkpt>
      <trkpt lat="46.91886" lon="8.58514">
        <ele>890</ele>
        <time>2021-08-10T12:03:56.642Z</time>
      </trkpt>
      <trkpt lat="46.91886" lon="8.58514">
        <ele>890</ele>
        <time>2021-08-10T12:03:57.641Z</time>
      </trkpt>
      <trkpt lat="46.91884" lon="8.58515">
        <ele>894</ele>
        <time>2021-08-10T12:03:58.642Z</time>
      </trkpt>
      <trkpt lat="46.91884" lon="8.58515">
        <ele>893</ele>
        <time>2021-08-10T12:03:59.641Z</time>
      </trkpt>
      <trkpt lat="46.91884" lon="8.58514">
        <ele>893</ele>
        <time>2021-08-10T12:04:00.642Z</time>
      </trkpt>
      <trkpt lat="46.91884" lon="8.58514">
        <ele>893</ele>
        <time>2021-08-10T12:04:01.643Z</time>
      </trkpt>
      <trkpt lat="46.91884" lon="8.58515">
        <ele>893</ele>
        <time>2021-08-10T12:04:02.644Z</time>
      </trkpt>
      <trkpt lat="46.91884" lon="8.58513">
        <ele>892</ele>
        <time>2021-08-10T12:04:03.645Z</time>
      </trkpt>
      <trkpt lat="46.91884" lon="8.58513">
        <ele>892</ele>
        <time>2021-08-10T12:04:04.644Z</time>
      </trkpt>
      <trkpt lat="46.91883" lon="8.58515">
        <ele>889</ele>
        <time>2021-08-10T12:04:05.645Z</time>
      </trkpt>
      <trkpt lat="46.91883" lon="8.58516">
        <ele>889</ele>
        <time>2021-08-10T12:04:06.644Z</time>
      </trkpt>
      <trkpt lat="46.91883" lon="8.58516">
        <ele>889</ele>
        <time>2021-08-10T12:04:07.644Z</time>
      </trkpt>
      <trkpt lat="46.91882" lon="8.58513">
        <ele>894</ele>
        <time>2021-08-10T12:04:08.644Z</time>
      </trkpt>
      <trkpt lat="46.91882" lon="8.58512">
        <ele>893</ele>
        <time>2021-08-10T12:04:09.644Z</time>
      </trkpt>
      <trkpt lat="46.91882" lon="8.58513">
        <ele>892</ele>
        <time>2021-08-10T12:04:10.645Z</time>
      </trkpt>
      <trkpt lat="46.91882" lon="8.58513">
        <ele>892</ele>
        <time>2021-08-10T12:04:11.645Z</time>
      </trkpt>
      <trkpt lat="46.91882" lon="8.58514">
        <ele>892</ele>
        <time>2021-08-10T12:04:12.645Z</time>
      </trkpt>
      <trkpt lat="46.91882" lon="8.58513">
        <ele>890</ele>
        <time>2021-08-10T12:04:13.647Z</time>
      </trkpt>
      <trkpt lat="46.91882" lon="8.58513">
        <ele>890</ele>
        <time>2021-08-10T12:04:14.646Z</time>
      </trkpt>
      <trkpt lat="46.91882" lon="8.58513">
        <ele>890</ele>
        <time>2021-08-10T12:04:15.647Z</time>
      </trkpt>
      <trkpt lat="46.91882" lon="8.58513">
        <ele>891</ele>
        <time>2021-08-10T12:04:16.646Z</time>
      </trkpt>
      <trkpt lat="46.91882" lon="8.58512">
        <ele>891</ele>
        <time>2021-08-10T12:04:17.647Z</time>
      </trkpt>
      <trkpt lat="46.91882" lon="8.58512">
        <ele>891</ele>
        <time>2021-08-10T12:04:18.646Z</time>
      </trkpt>
      <trkpt lat="46.91882" lon="8.58512">
        <ele>891</ele>
        <time>2021-08-10T12:04:19.646Z</time>
      </trkpt>
      <trkpt lat="46.91883" lon="8.58512">
        <ele>892</ele>
        <time>2021-08-10T12:04:20.646Z</time>
      </trkpt>
      <trkpt lat="46.91883" lon="8.58515">
        <ele>891</ele>
        <time>2021-08-10T12:04:21.646Z</time>
      </trkpt>
      <trkpt lat="46.91884" lon="8.58516">
        <ele>889</ele>
        <time>2021-08-10T12:04:22.647Z</time>
      </trkpt>
      <trkpt lat="46.91884" lon="8.58516">
        <ele>890</ele>
        <time>2021-08-10T12:04:23.647Z</time>
      </trkpt>
      <trkpt lat="46.91884" lon="8.58517">
        <ele>890</ele>
        <time>2021-08-10T12:04:24.646Z</time>
      </trkpt>
      <trkpt lat="46.91883" lon="8.58517">
        <ele>891</ele>
        <time>2021-08-10T12:04:25.647Z</time>
      </trkpt>
      <trkpt lat="46.91883" lon="8.58517">
        <ele>891</ele>
        <time>2021-08-10T12:04:26.648Z</time>
      </trkpt>
      <trkpt lat="46.91883" lon="8.58517">
        <ele>891</ele>
        <time>2021-08-10T12:04:27.648Z</time>
      </trkpt>
      <trkpt lat="46.91884" lon="8.58517">
        <ele>891</ele>
        <time>2021-08-10T12:04:28.647Z</time>
      </trkpt>
      <trkpt lat="46.91884" lon="8.58518">
        <ele>885</ele>
        <time>2021-08-10T12:04:29.647Z</time>
      </trkpt>
      <trkpt lat="46.91884" lon="8.58518">
        <ele>885</ele>
        <time>2021-08-10T12:04:30.647Z</time>
      </trkpt>
      <trkpt lat="46.91885" lon="8.58517">
        <ele>889</ele>
        <time>2021-08-10T12:04:31.647Z</time>
      </trkpt>
      <trkpt lat="46.91885" lon="8.58517">
        <ele>889</ele>
        <time>2021-08-10T12:04:32.648Z</time>
      </trkpt>
      <trkpt lat="46.91885" lon="8.58517">
        <ele>889</ele>
        <time>2021-08-10T12:04:33.648Z</time>
      </trkpt>
      <trkpt lat="46.91885" lon="8.58517">
        <ele>889</ele>
        <time>2021-08-10T12:04:34.648Z</time>
      </trkpt>
      <trkpt lat="46.91885" lon="8.58516">
        <ele>889</ele>
        <time>2021-08-10T12:04:35.648Z</time>
      </trkpt>
      <trkpt lat="46.91885" lon="8.58516">
        <ele>889</ele>
        <time>2021-08-10T12:04:36.647Z</time>
      </trkpt>
      <trkpt lat="46.91885" lon="8.58516">
        <ele>889</ele>
        <time>2021-08-10T12:04:37.649Z</time>
      </trkpt>
      <trkpt lat="46.91885" lon="8.58516">
        <ele>889</ele>
        <time>2021-08-10T12:04:38.648Z</time>
      </trkpt>
      <trkpt lat="46.91885" lon="8.58516">
        <ele>889</ele>
        <time>2021-08-10T12:04:39.648Z</time>
      </trkpt>
      <trkpt lat="46.91886" lon="8.58516">
        <ele>889</ele>
        <time>2021-08-10T12:04:40.648Z</time>
      </trkpt>
      <trkpt lat="46.91886" lon="8.58516">
        <ele>889</ele>
        <time>2021-08-10T12:04:41.649Z</time>
      </trkpt>
      <trkpt lat="46.91886" lon="8.58516">
        <ele>889</ele>
        <time>2021-08-10T12:04:42.648Z</time>
      </trkpt>
      <trkpt lat="46.91886" lon="8.58515">
        <ele>889</ele>
        <time>2021-08-10T12:04:43.648Z</time>
      </trkpt>
      <trkpt lat="46.91885" lon="8.58515">
        <ele>890</ele>
        <time>2021-08-10T12:04:44.649Z</time>
      </trkpt>
      <trkpt lat="46.91885" lon="8.58515">
        <ele>890</ele>
        <time>2021-08-10T12:04:45.648Z</time>
      </trkpt>
      <trkpt lat="46.91885" lon="8.58515">
        <ele>890</ele>
        <time>2021-08-10T12:04:46.648Z</time>
      </trkpt>
      <trkpt lat="46.91885" lon="8.58516">
        <ele>890</ele>
        <time>2021-08-10T12:04:47.648Z</time>
      </trkpt>
      <trkpt lat="46.91885" lon="8.58516">
        <ele>889</ele>
        <time>2021-08-10T12:04:48.649Z</time>
      </trkpt>
      <trkpt lat="46.91885" lon="8.58517">
        <ele>887</ele>
        <time>2021-08-10T12:04:49.650Z</time>
      </trkpt>
      <trkpt lat="46.91885" lon="8.58517">
        <ele>887</ele>
        <time>2021-08-10T12:04:50.649Z</time>
      </trkpt>
      <trkpt lat="46.91884" lon="8.58516">
        <ele>887</ele>
        <time>2021-08-10T12:04:51.651Z</time>
      </trkpt>
      <trkpt lat="46.91884" lon="8.58515">
        <ele>887</ele>
        <time>2021-08-10T12:04:52.650Z</time>
      </trkpt>
      <trkpt lat="46.91883" lon="8.58515">
        <ele>887</ele>
        <time>2021-08-10T12:04:53.651Z</time>
      </trkpt>
      <trkpt lat="46.91884" lon="8.58517">
        <ele>888</ele>
        <time>2021-08-10T12:04:54.651Z</time>
      </trkpt>
      <trkpt lat="46.91884" lon="8.58518">
        <ele>888</ele>
        <time>2021-08-10T12:04:55.650Z</time>
      </trkpt>
      <trkpt lat="46.91884" lon="8.58518">
        <ele>888</ele>
        <time>2021-08-10T12:04:56.650Z</time>
      </trkpt>
      <trkpt lat="46.91884" lon="8.58518">
        <ele>888</ele>
        <time>2021-08-10T12:04:57.651Z</time>
      </trkpt>
      <trkpt lat="46.91884" lon="8.58516">
        <ele>891</ele>
        <time>2021-08-10T12:04:58.652Z</time>
      </trkpt>
      <trkpt lat="46.91884" lon="8.58516">
        <ele>891</ele>
        <time>2021-08-10T12:04:59.651Z</time>
      </trkpt>
      <trkpt lat="46.91883" lon="8.58515">
        <ele>891</ele>
        <time>2021-08-10T12:05:00.652Z</time>
      </trkpt>
      <trkpt lat="46.91883" lon="8.58514">
        <ele>891</ele>
        <time>2021-08-10T12:05:01.652Z</time>
      </trkpt>
      <trkpt lat="46.91884" lon="8.58514">
        <ele>891</ele>
        <time>2021-08-10T12:05:02.652Z</time>
      </trkpt>
      <trkpt lat="46.91885" lon="8.58515">
        <ele>891</ele>
        <time>2021-08-10T12:05:03.652Z</time>
      </trkpt>
      <trkpt lat="46.91885" lon="8.58515">
        <ele>891</ele>
        <time>2021-08-10T12:05:04.653Z</time>
      </trkpt>
      <trkpt lat="46.91885" lon="8.58515">
        <ele>891</ele>
        <time>2021-08-10T12:05:05.652Z</time>
      </trkpt>
      <trkpt lat="46.91885" lon="8.58517">
        <ele>890</ele>
        <time>2021-08-10T12:05:06.653Z</time>
      </trkpt>
      <trkpt lat="46.91885" lon="8.58516">
        <ele>890</ele>
        <time>2021-08-10T12:05:07.653Z</time>
      </trkpt>
      <trkpt lat="46.91883" lon="8.58514">
        <ele>889</ele>
        <time>2021-08-10T12:05:08.652Z</time>
      </trkpt>
      <trkpt lat="46.91883" lon="8.58514">
        <ele>888</ele>
        <time>2021-08-10T12:05:09.653Z</time>
      </trkpt>
      <trkpt lat="46.91883" lon="8.58514">
        <ele>888</ele>
        <time>2021-08-10T12:05:10.652Z</time>
      </trkpt>
      <trkpt lat="46.91883" lon="8.58514">
        <ele>888</ele>
        <time>2021-08-10T12:05:11.653Z</time>
      </trkpt>
      <trkpt lat="46.91883" lon="8.58514">
        <ele>888</ele>
        <time>2021-08-10T12:05:12.653Z</time>
      </trkpt>
      <trkpt lat="46.91883" lon="8.58514">
        <ele>888</ele>
        <time>2021-08-10T12:05:13.652Z</time>
      </trkpt>
      <trkpt lat="46.91883" lon="8.58515">
        <ele>888</ele>
        <time>2021-08-10T12:05:14.652Z</time>
      </trkpt>
      <trkpt lat="46.91883" lon="8.58515">
        <ele>889</ele>
        <time>2021-08-10T12:05:15.652Z</time>
      </trkpt>
      <trkpt lat="46.91883" lon="8.58515">
        <ele>889</ele>
        <time>2021-08-10T12:05:16.653Z</time>
      </trkpt>
      <trkpt lat="46.91884" lon="8.58517">
        <ele>889</ele>
        <time>2021-08-10T12:05:17.654Z</time>
      </trkpt>
      <trkpt lat="46.91884" lon="8.58517">
        <ele>889</ele>
        <time>2021-08-10T12:05:18.654Z</time>
      </trkpt>
      <trkpt lat="46.91885" lon="8.58517">
        <ele>889</ele>
        <time>2021-08-10T12:05:19.653Z</time>
      </trkpt>
      <trkpt lat="46.91884" lon="8.58517">
        <ele>889</ele>
        <time>2021-08-10T12:05:20.654Z</time>
      </trkpt>
      <trkpt lat="46.91884" lon="8.58517">
        <ele>889</ele>
        <time>2021-08-10T12:05:21.653Z</time>
      </trkpt>
      <trkpt lat="46.91885" lon="8.58518">
        <ele>890</ele>
        <time>2021-08-10T12:05:22.654Z</time>
      </trkpt>
      <trkpt lat="46.91885" lon="8.58518">
        <ele>890</ele>
        <time>2021-08-10T12:05:23.654Z</time>
      </trkpt>
      <trkpt lat="46.91884" lon="8.58518">
        <ele>890</ele>
        <time>2021-08-10T12:05:24.654Z</time>
      </trkpt>
      <trkpt lat="46.91884" lon="8.58519">
        <ele>890</ele>
        <time>2021-08-10T12:05:25.654Z</time>
      </trkpt>
      <trkpt lat="46.91884" lon="8.58519">
        <ele>891</ele>
        <time>2021-08-10T12:05:26.655Z</time>
      </trkpt>
      <trkpt lat="46.91884" lon="8.58519">
        <ele>891</ele>
        <time>2021-08-10T12:05:27.654Z</time>
      </trkpt>
      <trkpt lat="46.91884" lon="8.58519">
        <ele>891</ele>
        <time>2021-08-10T12:05:28.655Z</time>
      </trkpt>
      <trkpt lat="46.91885" lon="8.58519">
        <ele>892</ele>
        <time>2021-08-10T12:05:29.655Z</time>
      </trkpt>
      <trkpt lat="46.91886" lon="8.58518">
        <ele>892</ele>
        <time>2021-08-10T12:05:30.656Z</time>
      </trkpt>
      <trkpt lat="46.91886" lon="8.58517">
        <ele>892</ele>
        <time>2021-08-10T12:05:33.692Z</time>
      </trkpt>
      <trkpt lat="46.91886" lon="8.58518">
        <ele>891</ele>
        <time>2021-08-10T12:05:34.694Z</time>
      </trkpt>
      <trkpt lat="46.91886" lon="8.58518">
        <ele>891</ele>
        <time>2021-08-10T12:05:35.694Z</time>
      </trkpt>
      <trkpt lat="46.91886" lon="8.58519">
        <ele>891</ele>
        <time>2021-08-10T12:05:36.694Z</time>
      </trkpt>
      <trkpt lat="46.91885" lon="8.58519">
        <ele>891</ele>
        <time>2021-08-10T12:05:40.711Z</time>
      </trkpt>
      <trkpt lat="46.91884" lon="8.58519">
        <ele>893</ele>
        <time>2021-08-10T12:05:41.712Z</time>
      </trkpt>
      <trkpt lat="46.91884" lon="8.58519">
        <ele>894</ele>
        <time>2021-08-10T12:05:42.711Z</time>
      </trkpt>
      <trkpt lat="46.91884" lon="8.58519">
        <ele>894</ele>
        <time>2021-08-10T12:05:48.800Z</time>
      </trkpt>
      <trkpt lat="46.91885" lon="8.58518">
        <ele>893</ele>
        <time>2021-08-10T12:05:49.801Z</time>
      </trkpt>
      <trkpt lat="46.91885" lon="8.58518">
        <ele>893</ele>
        <time>2021-08-10T12:05:59.736Z</time>
      </trkpt>
      <trkpt lat="46.91885" lon="8.58517">
        <ele>892</ele>
        <time>2021-08-10T12:06:00.735Z</time>
      </trkpt>
      <trkpt lat="46.91885" lon="8.58517">
        <ele>892</ele>
        <time>2021-08-10T12:06:13.564Z</time>
      </trkpt>
      <trkpt lat="46.91885" lon="8.58516">
        <ele>892</ele>
        <time>2021-08-10T12:06:14.563Z</time>
      </trkpt>
      <trkpt lat="46.91885" lon="8.58516">
        <ele>891</ele>
        <time>2021-08-10T12:06:15.564Z</time>
      </trkpt>
      <trkpt lat="46.91885" lon="8.58516">
        <ele>891</ele>
        <time>2021-08-10T12:06:16.563Z</time>
      </trkpt>
      <trkpt lat="46.91885" lon="8.58518">
        <ele>891</ele>
        <time>2021-08-10T12:06:17.563Z</time>
      </trkpt>
      <trkpt lat="46.91885" lon="8.58518">
        <ele>891</ele>
        <time>2021-08-10T12:06:18.563Z</time>
      </trkpt>
      <trkpt lat="46.91885" lon="8.58518">
        <ele>890</ele>
        <time>2021-08-10T12:06:19.563Z</time>
      </trkpt>
      <trkpt lat="46.91885" lon="8.58518">
        <ele>890</ele>
        <time>2021-08-10T12:06:25.673Z</time>
      </trkpt>
      <trkpt lat="46.91885" lon="8.58518">
        <ele>889</ele>
        <time>2021-08-10T12:06:26.673Z</time>
      </trkpt>
      <trkpt lat="46.91885" lon="8.58518">
        <ele>888</ele>
        <time>2021-08-10T12:06:36.440Z</time>
      </trkpt>
      <trkpt lat="46.91884" lon="8.58517">
        <ele>884</ele>
        <time>2021-08-10T12:06:37.441Z</time>
      </trkpt>
      <trkpt lat="46.91884" lon="8.58517">
        <ele>884</ele>
        <time>2021-08-10T12:06:38.441Z</time>
      </trkpt>
      <trkpt lat="46.91883" lon="8.58517">
        <ele>884</ele>
        <time>2021-08-10T12:06:39.440Z</time>
      </trkpt>
      <trkpt lat="46.91884" lon="8.58518">
        <ele>886</ele>
        <time>2021-08-10T12:06:40.441Z</time>
      </trkpt>
      <trkpt lat="46.91884" lon="8.58519">
        <ele>886</ele>
        <time>2021-08-10T12:06:41.441Z</time>
      </trkpt>
      <trkpt lat="46.91884" lon="8.58519">
        <ele>886</ele>
        <time>2021-08-10T12:06:42.440Z</time>
      </trkpt>
      <trkpt lat="46.91883" lon="8.5852">
        <ele>887</ele>
        <time>2021-08-10T12:06:43.440Z</time>
      </trkpt>
      <trkpt lat="46.91883" lon="8.5852">
        <ele>887</ele>
        <time>2021-08-10T12:06:44.440Z</time>
      </trkpt>
      <trkpt lat="46.91882" lon="8.5852">
        <ele>886</ele>
        <time>2021-08-10T12:06:49.587Z</time>
      </trkpt>
      <trkpt lat="46.91882" lon="8.5852">
        <ele>888</ele>
        <time>2021-08-10T12:06:50.588Z</time>
      </trkpt>
      <trkpt lat="46.91885" lon="8.58519">
        <ele>887</ele>
        <time>2021-08-10T12:06:51.588Z</time>
      </trkpt>
      <trkpt lat="46.91885" lon="8.58519">
        <ele>887</ele>
        <time>2021-08-10T12:06:52.588Z</time>
      </trkpt>
      <trkpt lat="46.91888" lon="8.58518">
        <ele>890</ele>
        <time>2021-08-10T12:06:53.590Z</time>
      </trkpt>
      <trkpt lat="46.91888" lon="8.58519">
        <ele>890</ele>
        <time>2021-08-10T12:06:54.590Z</time>
      </trkpt>
      <trkpt lat="46.91887" lon="8.58519">
        <ele>890</ele>
        <time>2021-08-10T12:06:55.589Z</time>
      </trkpt>
      <trkpt lat="46.91887" lon="8.58519">
        <ele>890</ele>
        <time>2021-08-10T12:06:56.590Z</time>
      </trkpt>
      <trkpt lat="46.91886" lon="8.5852">
        <ele>890</ele>
        <time>2021-08-10T12:06:57.590Z</time>
      </trkpt>
      <trkpt lat="46.91886" lon="8.58519">
        <ele>890</ele>
        <time>2021-08-10T12:06:58.590Z</time>
      </trkpt>
      <trkpt lat="46.91886" lon="8.58519">
        <ele>890</ele>
        <time>2021-08-10T12:06:59.590Z</time>
      </trkpt>
      <trkpt lat="46.91886" lon="8.58519">
        <ele>890</ele>
        <time>2021-08-10T12:07:00.590Z</time>
      </trkpt>
      <trkpt lat="46.91886" lon="8.58519">
        <ele>890</ele>
        <time>2021-08-10T12:07:01.591Z</time>
      </trkpt>
      <trkpt lat="46.91886" lon="8.58519">
        <ele>890</ele>
        <time>2021-08-10T12:07:02.590Z</time>
      </trkpt>
      <trkpt lat="46.91885" lon="8.5852">
        <ele>889</ele>
        <time>2021-08-10T12:07:03.590Z</time>
      </trkpt>
      <trkpt lat="46.91885" lon="8.58521">
        <ele>889</ele>
        <time>2021-08-10T12:07:04.591Z</time>
      </trkpt>
      <trkpt lat="46.91885" lon="8.58521">
        <ele>889</ele>
        <time>2021-08-10T12:07:05.590Z</time>
      </trkpt>
      <trkpt lat="46.91885" lon="8.58519">
        <ele>887</ele>
        <time>2021-08-10T12:07:06.591Z</time>
      </trkpt>
      <trkpt lat="46.91883" lon="8.58516">
        <ele>885</ele>
        <time>2021-08-10T12:07:07.590Z</time>
      </trkpt>
      <trkpt lat="46.91882" lon="8.58516">
        <ele>885</ele>
        <time>2021-08-10T12:07:08.591Z</time>
      </trkpt>
      <trkpt lat="46.91882" lon="8.58516">
        <ele>884</ele>
        <time>2021-08-10T12:07:09.590Z</time>
      </trkpt>
      <trkpt lat="46.91884" lon="8.58515">
        <ele>882</ele>
        <time>2021-08-10T12:07:10.591Z</time>
      </trkpt>
      <trkpt lat="46.91885" lon="8.58514">
        <ele>882</ele>
        <time>2021-08-10T12:07:11.592Z</time>
      </trkpt>
      <trkpt lat="46.91884" lon="8.58515">
        <ele>882</ele>
        <time>2021-08-10T12:07:12.591Z</time>
      </trkpt>
      <trkpt lat="46.91884" lon="8.58515">
        <ele>881</ele>
        <time>2021-08-10T12:07:13.591Z</time>
      </trkpt>
      <trkpt lat="46.91884" lon="8.58514">
        <ele>881</ele>
        <time>2021-08-10T12:07:14.592Z</time>
      </trkpt>
      <trkpt lat="46.91884" lon="8.58514">
        <ele>881</ele>
        <time>2021-08-10T12:07:15.592Z</time>
      </trkpt>
      <trkpt lat="46.91885" lon="8.58517">
        <ele>888</ele>
        <time>2021-08-10T12:07:16.593Z</time>
      </trkpt>
      <trkpt lat="46.91885" lon="8.58517">
        <ele>888</ele>
        <time>2021-08-10T12:07:17.593Z</time>
      </trkpt>
      <trkpt lat="46.91885" lon="8.58517">
        <ele>889</ele>
        <time>2021-08-10T12:07:18.592Z</time>
      </trkpt>
      <trkpt lat="46.91883" lon="8.5852">
        <ele>886</ele>
        <time>2021-08-10T12:07:19.594Z</time>
      </trkpt>
      <trkpt lat="46.91883" lon="8.58521">
        <ele>886</ele>
        <time>2021-08-10T12:07:20.594Z</time>
      </trkpt>
      <trkpt lat="46.91884" lon="8.5852">
        <ele>885</ele>
        <time>2021-08-10T12:07:21.593Z</time>
      </trkpt>
      <trkpt lat="46.91882" lon="8.58519">
        <ele>885</ele>
        <time>2021-08-10T12:07:22.594Z</time>
      </trkpt>
      <trkpt lat="46.91882" lon="8.58519">
        <ele>885</ele>
        <time>2021-08-10T12:07:23.594Z</time>
      </trkpt>
      <trkpt lat="46.91884" lon="8.58518">
        <ele>884</ele>
        <time>2021-08-10T12:07:24.593Z</time>
      </trkpt>
      <trkpt lat="46.91884" lon="8.58518">
        <ele>884</ele>
        <time>2021-08-10T12:07:25.594Z</time>
      </trkpt>
      <trkpt lat="46.91885" lon="8.58518">
        <ele>884</ele>
        <time>2021-08-10T12:07:26.593Z</time>
      </trkpt>
      <trkpt lat="46.91885" lon="8.58518">
        <ele>883</ele>
        <time>2021-08-10T12:07:27.593Z</time>
      </trkpt>
      <trkpt lat="46.91885" lon="8.58518">
        <ele>883</ele>
        <time>2021-08-10T12:07:29.696Z</time>
      </trkpt>
      <trkpt lat="46.91884" lon="8.58514">
        <ele>888</ele>
        <time>2021-08-10T12:07:30.696Z</time>
      </trkpt>
      <trkpt lat="46.91884" lon="8.58514">
        <ele>888</ele>
        <time>2021-08-10T12:07:31.695Z</time>
      </trkpt>
      <trkpt lat="46.91886" lon="8.58513">
        <ele>895</ele>
        <time>2021-08-10T12:07:32.697Z</time>
      </trkpt>
      <trkpt lat="46.91885" lon="8.58513">
        <ele>895</ele>
        <time>2021-08-10T12:07:33.696Z</time>
      </trkpt>
      <trkpt lat="46.91886" lon="8.58512">
        <ele>899</ele>
        <time>2021-08-10T12:07:34.697Z</time>
      </trkpt>
      <trkpt lat="46.91886" lon="8.58512">
        <ele>899</ele>
        <time>2021-08-10T12:07:35.696Z</time>
      </trkpt>
      <trkpt lat="46.91886" lon="8.58512">
        <ele>900</ele>
        <time>2021-08-10T12:07:36.696Z</time>
      </trkpt>
      <trkpt lat="46.91887" lon="8.58513">
        <ele>900</ele>
        <time>2021-08-10T12:07:37.696Z</time>
      </trkpt>
      <trkpt lat="46.91888" lon="8.58517">
        <ele>898</ele>
        <time>2021-08-10T12:07:38.696Z</time>
      </trkpt>
      <trkpt lat="46.91887" lon="8.58517">
        <ele>897</ele>
        <time>2021-08-10T12:07:39.697Z</time>
      </trkpt>
      <trkpt lat="46.91887" lon="8.58517">
        <ele>897</ele>
        <time>2021-08-10T12:07:40.697Z</time>
      </trkpt>
      <trkpt lat="46.91886" lon="8.58517">
        <ele>896</ele>
        <time>2021-08-10T12:07:41.697Z</time>
      </trkpt>
      <trkpt lat="46.91888" lon="8.58516">
        <ele>898</ele>
        <time>2021-08-10T12:07:42.698Z</time>
      </trkpt>
      <trkpt lat="46.91888" lon="8.58516">
        <ele>899</ele>
        <time>2021-08-10T12:07:43.697Z</time>
      </trkpt>
      <trkpt lat="46.91888" lon="8.58516">
        <ele>899</ele>
        <time>2021-08-10T12:07:44.697Z</time>
      </trkpt>
      <trkpt lat="46.91887" lon="8.58517">
        <ele>893</ele>
        <time>2021-08-10T12:07:45.698Z</time>
      </trkpt>
      <trkpt lat="46.91887" lon="8.58517">
        <ele>893</ele>
        <time>2021-08-10T12:07:46.699Z</time>
      </trkpt>
      <trkpt lat="46.91887" lon="8.5852">
        <ele>888</ele>
        <time>2021-08-10T12:07:47.700Z</time>
      </trkpt>
      <trkpt lat="46.91886" lon="8.5852">
        <ele>886</ele>
        <time>2021-08-10T12:07:48.700Z</time>
      </trkpt>
      <trkpt lat="46.91886" lon="8.58519">
        <ele>886</ele>
        <time>2021-08-10T12:07:49.701Z</time>
      </trkpt>
      <trkpt lat="46.91886" lon="8.58519">
        <ele>886</ele>
        <time>2021-08-10T12:07:50.700Z</time>
      </trkpt>
      <trkpt lat="46.91886" lon="8.58518">
        <ele>886</ele>
        <time>2021-08-10T12:07:51.701Z</time>
      </trkpt>
      <trkpt lat="46.91886" lon="8.58518">
        <ele>887</ele>
        <time>2021-08-10T12:07:52.700Z</time>
      </trkpt>
      <trkpt lat="46.91886" lon="8.58517">
        <ele>889</ele>
        <time>2021-08-10T12:07:53.702Z</time>
      </trkpt>
      <trkpt lat="46.91886" lon="8.58517">
        <ele>889</ele>
        <time>2021-08-10T12:07:54.701Z</time>
      </trkpt>
      <trkpt lat="46.91886" lon="8.58517">
        <ele>889</ele>
        <time>2021-08-10T12:07:55.701Z</time>
      </trkpt>
      <trkpt lat="46.91887" lon="8.58517">
        <ele>889</ele>
        <time>2021-08-10T12:07:57.848Z</time>
      </trkpt>
      <trkpt lat="46.91888" lon="8.58517">
        <ele>889</ele>
        <time>2021-08-10T12:07:58.849Z</time>
      </trkpt>
      <trkpt lat="46.91889" lon="8.58517">
        <ele>890</ele>
        <time>2021-08-10T12:07:59.848Z</time>
      </trkpt>
      <trkpt lat="46.91889" lon="8.58517">
        <ele>890</ele>
        <time>2021-08-10T12:08:00.848Z</time>
      </trkpt>
      <trkpt lat="46.91887" lon="8.58517">
        <ele>890</ele>
        <time>2021-08-10T12:08:01.851Z</time>
      </trkpt>
      <trkpt lat="46.91887" lon="8.58517">
        <ele>890</ele>
        <time>2021-08-10T12:08:02.850Z</time>
      </trkpt>
      <trkpt lat="46.91887" lon="8.58518">
        <ele>890</ele>
        <time>2021-08-10T12:08:03.850Z</time>
      </trkpt>
      <trkpt lat="46.91887" lon="8.58518">
        <ele>889</ele>
        <time>2021-08-10T12:08:04.850Z</time>
      </trkpt>
      <trkpt lat="46.91887" lon="8.58518">
        <ele>889</ele>
        <time>2021-08-10T12:08:05.850Z</time>
      </trkpt>
      <trkpt lat="46.91888" lon="8.58518">
        <ele>891</ele>
        <time>2021-08-10T12:08:06.851Z</time>
      </trkpt>
      <trkpt lat="46.91888" lon="8.58519">
        <ele>891</ele>
        <time>2021-08-10T12:08:07.851Z</time>
      </trkpt>
      <trkpt lat="46.91889" lon="8.58518">
        <ele>892</ele>
        <time>2021-08-10T12:08:08.851Z</time>
      </trkpt>
      <trkpt lat="46.91889" lon="8.58517">
        <ele>893</ele>
        <time>2021-08-10T12:08:09.851Z</time>
      </trkpt>
      <trkpt lat="46.91888" lon="8.58517">
        <ele>894</ele>
        <time>2021-08-10T12:08:10.850Z</time>
      </trkpt>
      <trkpt lat="46.91889" lon="8.58517">
        <ele>897</ele>
        <time>2021-08-10T12:08:11.851Z</time>
      </trkpt>
      <trkpt lat="46.91889" lon="8.58517">
        <ele>897</ele>
        <time>2021-08-10T12:08:12.850Z</time>
      </trkpt>
      <trkpt lat="46.91889" lon="8.58518">
        <ele>897</ele>
        <time>2021-08-10T12:08:13.850Z</time>
      </trkpt>
      <trkpt lat="46.91888" lon="8.58519">
        <ele>895</ele>
        <time>2021-08-10T12:08:14.851Z</time>
      </trkpt>
      <trkpt lat="46.91887" lon="8.58518">
        <ele>895</ele>
        <time>2021-08-10T12:08:15.851Z</time>
      </trkpt>
      <trkpt lat="46.91888" lon="8.58519">
        <ele>894</ele>
        <time>2021-08-10T12:08:16.851Z</time>
      </trkpt>
      <trkpt lat="46.91888" lon="8.5852">
        <ele>894</ele>
        <time>2021-08-10T12:08:42.951Z</time>
      </trkpt>
      <trkpt lat="46.91889" lon="8.5852">
        <ele>894</ele>
        <time>2021-08-10T12:08:43.950Z</time>
      </trkpt>
      <trkpt lat="46.91889" lon="8.5852">
        <ele>895</ele>
        <time>2021-08-10T12:08:44.950Z</time>
      </trkpt>
      <trkpt lat="46.9189" lon="8.58521">
        <ele>894</ele>
        <time>2021-08-10T12:08:45.951Z</time>
      </trkpt>
      <trkpt lat="46.91888" lon="8.58522">
        <ele>889</ele>
        <time>2021-08-10T12:08:46.953Z</time>
      </trkpt>
      <trkpt lat="46.91888" lon="8.58522">
        <ele>889</ele>
        <time>2021-08-10T12:08:47.952Z</time>
      </trkpt>
      <trkpt lat="46.91888" lon="8.58522">
        <ele>889</ele>
        <time>2021-08-10T12:08:48.952Z</time>
      </trkpt>
      <trkpt lat="46.91888" lon="8.58522">
        <ele>888</ele>
        <time>2021-08-10T12:08:49.952Z</time>
      </trkpt>
      <trkpt lat="46.91888" lon="8.58523">
        <ele>888</ele>
        <time>2021-08-10T12:08:50.952Z</time>
      </trkpt>
      <trkpt lat="46.91887" lon="8.58524">
        <ele>887</ele>
        <time>2021-08-10T12:08:51.952Z</time>
      </trkpt>
      <trkpt lat="46.91886" lon="8.58525">
        <ele>887</ele>
        <time>2021-08-10T12:08:52.952Z</time>
      </trkpt>
      <trkpt lat="46.91885" lon="8.58525">
        <ele>887</ele>
        <time>2021-08-10T12:08:53.953Z</time>
      </trkpt>
      <trkpt lat="46.91885" lon="8.58525">
        <ele>886</ele>
        <time>2021-08-10T12:08:54.952Z</time>
      </trkpt>
      <trkpt lat="46.91885" lon="8.58524">
        <ele>886</ele>
        <time>2021-08-10T12:08:55.952Z</time>
      </trkpt>
      <trkpt lat="46.91886" lon="8.58522">
        <ele>887</ele>
        <time>2021-08-10T12:08:56.952Z</time>
      </trkpt>
      <trkpt lat="46.91885" lon="8.58521">
        <ele>887</ele>
        <time>2021-08-10T12:08:57.952Z</time>
      </trkpt>
      <trkpt lat="46.91885" lon="8.5852">
        <ele>887</ele>
        <time>2021-08-10T12:08:58.953Z</time>
      </trkpt>
      <trkpt lat="46.91885" lon="8.58519">
        <ele>888</ele>
        <time>2021-08-10T12:08:59.952Z</time>
      </trkpt>
      <trkpt lat="46.91884" lon="8.58519">
        <ele>888</ele>
        <time>2021-08-10T12:09:00.952Z</time>
      </trkpt>
      <trkpt lat="46.91884" lon="8.58521">
        <ele>888</ele>
        <time>2021-08-10T12:09:01.952Z</time>
      </trkpt>
      <trkpt lat="46.91884" lon="8.58522">
        <ele>888</ele>
        <time>2021-08-10T12:09:02.952Z</time>
      </trkpt>
      <trkpt lat="46.91884" lon="8.58524">
        <ele>889</ele>
        <time>2021-08-10T12:09:03.952Z</time>
      </trkpt>
      <trkpt lat="46.91885" lon="8.58526">
        <ele>889</ele>
        <time>2021-08-10T12:09:04.952Z</time>
      </trkpt>
      <trkpt lat="46.91885" lon="8.58526">
        <ele>889</ele>
        <time>2021-08-10T12:09:05.952Z</time>
      </trkpt>
      <trkpt lat="46.91886" lon="8.58526">
        <ele>890</ele>
        <time>2021-08-10T12:09:06.952Z</time>
      </trkpt>
      <trkpt lat="46.91885" lon="8.58523">
        <ele>889</ele>
        <time>2021-08-10T12:09:07.952Z</time>
      </trkpt>
      <trkpt lat="46.91885" lon="8.58522">
        <ele>888</ele>
        <time>2021-08-10T12:09:08.952Z</time>
      </trkpt>
      <trkpt lat="46.91885" lon="8.58522">
        <ele>886</ele>
        <time>2021-08-10T12:09:09.954Z</time>
      </trkpt>
      <trkpt lat="46.91885" lon="8.58522">
        <ele>885</ele>
        <time>2021-08-10T12:09:10.954Z</time>
      </trkpt>
      <trkpt lat="46.91884" lon="8.58522">
        <ele>885</ele>
        <time>2021-08-10T12:09:11.953Z</time>
      </trkpt>
      <trkpt lat="46.91884" lon="8.58522">
        <ele>885</ele>
        <time>2021-08-10T12:09:12.954Z</time>
      </trkpt>
      <trkpt lat="46.91883" lon="8.58521">
        <ele>885</ele>
        <time>2021-08-10T12:09:13.953Z</time>
      </trkpt>
      <trkpt lat="46.91882" lon="8.5852">
        <ele>886</ele>
        <time>2021-08-10T12:09:14.953Z</time>
      </trkpt>
      <trkpt lat="46.91882" lon="8.58519">
        <ele>886</ele>
        <time>2021-08-10T12:09:15.954Z</time>
      </trkpt>
      <trkpt lat="46.91881" lon="8.58518">
        <ele>885</ele>
        <time>2021-08-10T12:09:16.954Z</time>
      </trkpt>
      <trkpt lat="46.9188" lon="8.58517">
        <ele>885</ele>
        <time>2021-08-10T12:09:17.953Z</time>
      </trkpt>
      <trkpt lat="46.9188" lon="8.58516">
        <ele>885</ele>
        <time>2021-08-10T12:09:18.953Z</time>
      </trkpt>
      <trkpt lat="46.91879" lon="8.58515">
        <ele>885</ele>
        <time>2021-08-10T12:09:19.954Z</time>
      </trkpt>
      <trkpt lat="46.91879" lon="8.58513">
        <ele>885</ele>
        <time>2021-08-10T12:09:20.954Z</time>
      </trkpt>
      <trkpt lat="46.91879" lon="8.58512">
        <ele>885</ele>
        <time>2021-08-10T12:09:21.954Z</time>
      </trkpt>
      <trkpt lat="46.91878" lon="8.58511">
        <ele>885</ele>
        <time>2021-08-10T12:09:22.953Z</time>
      </trkpt>
      <trkpt lat="46.91877" lon="8.58509">
        <ele>885</ele>
        <time>2021-08-10T12:09:23.954Z</time>
      </trkpt>
      <trkpt lat="46.91877" lon="8.58508">
        <ele>885</ele>
        <time>2021-08-10T12:09:24.954Z</time>
      </trkpt>
      <trkpt lat="46.91876" lon="8.58506">
        <ele>885</ele>
        <time>2021-08-10T12:09:25.953Z</time>
      </trkpt>
      <trkpt lat="46.91875" lon="8.58505">
        <ele>885</ele>
        <time>2021-08-10T12:09:26.954Z</time>
      </trkpt>
      <trkpt lat="46.91875" lon="8.58504">
        <ele>885</ele>
        <time>2021-08-10T12:09:27.954Z</time>
      </trkpt>
      <trkpt lat="46.91874" lon="8.58502">
        <ele>884</ele>
        <time>2021-08-10T12:09:28.954Z</time>
      </trkpt>
      <trkpt lat="46.91874" lon="8.58501">
        <ele>884</ele>
        <time>2021-08-10T12:09:29.953Z</time>
      </trkpt>
      <trkpt lat="46.91873" lon="8.585">
        <ele>884</ele>
        <time>2021-08-10T12:09:30.953Z</time>
      </trkpt>
      <trkpt lat="46.91873" lon="8.585">
        <ele>884</ele>
        <time>2021-08-10T12:09:31.954Z</time>
      </trkpt>
      <trkpt lat="46.91873" lon="8.58499">
        <ele>884</ele>
        <time>2021-08-10T12:09:32.953Z</time>
      </trkpt>
      <trkpt lat="46.91872" lon="8.58499">
        <ele>884</ele>
        <time>2021-08-10T12:09:33.954Z</time>
      </trkpt>
      <trkpt lat="46.91872" lon="8.58499">
        <ele>884</ele>
        <time>2021-08-10T12:09:34.954Z</time>
      </trkpt>
      <trkpt lat="46.91871" lon="8.58498">
        <ele>884</ele>
        <time>2021-08-10T12:09:35.953Z</time>
      </trkpt>
      <trkpt lat="46.91871" lon="8.58498">
        <ele>885</ele>
        <time>2021-08-10T12:09:36.954Z</time>
      </trkpt>
      <trkpt lat="46.91872" lon="8.58504">
        <ele>886</ele>
        <time>2021-08-10T12:09:37.955Z</time>
      </trkpt>
      <trkpt lat="46.91871" lon="8.58504">
        <ele>886</ele>
        <time>2021-08-10T12:09:38.955Z</time>
      </trkpt>
      <trkpt lat="46.91871" lon="8.58505">
        <ele>886</ele>
        <time>2021-08-10T12:09:39.954Z</time>
      </trkpt>
      <trkpt lat="46.91872" lon="8.58505">
        <ele>886</ele>
        <time>2021-08-10T12:09:40.954Z</time>
      </trkpt>
      <trkpt lat="46.91872" lon="8.58505">
        <ele>886</ele>
        <time>2021-08-10T12:09:41.954Z</time>
      </trkpt>
      <trkpt lat="46.91872" lon="8.58504">
        <ele>887</ele>
        <time>2021-08-10T12:09:42.954Z</time>
      </trkpt>
      <trkpt lat="46.91872" lon="8.58504">
        <ele>887</ele>
        <time>2021-08-10T12:09:43.955Z</time>
      </trkpt>
      <trkpt lat="46.91871" lon="8.58504">
        <ele>888</ele>
        <time>2021-08-10T12:09:44.954Z</time>
      </trkpt>
      <trkpt lat="46.91871" lon="8.58504">
        <ele>888</ele>
        <time>2021-08-10T12:09:45.954Z</time>
      </trkpt>
      <trkpt lat="46.9187" lon="8.58504">
        <ele>889</ele>
        <time>2021-08-10T12:09:46.954Z</time>
      </trkpt>
      <trkpt lat="46.9187" lon="8.58503">
        <ele>890</ele>
        <time>2021-08-10T12:09:47.954Z</time>
      </trkpt>
      <trkpt lat="46.91869" lon="8.58503">
        <ele>890</ele>
        <time>2021-08-10T12:09:48.954Z</time>
      </trkpt>
      <trkpt lat="46.91869" lon="8.58502">
        <ele>890</ele>
        <time>2021-08-10T12:09:49.954Z</time>
      </trkpt>
      <trkpt lat="46.91868" lon="8.58501">
        <ele>890</ele>
        <time>2021-08-10T12:09:50.954Z</time>
      </trkpt>
      <trkpt lat="46.91867" lon="8.585">
        <ele>891</ele>
        <time>2021-08-10T12:09:51.954Z</time>
      </trkpt>
      <trkpt lat="46.91866" lon="8.585">
        <ele>891</ele>
        <time>2021-08-10T12:09:52.954Z</time>
      </trkpt>
      <trkpt lat="46.91865" lon="8.585">
        <ele>891</ele>
        <time>2021-08-10T12:09:53.954Z</time>
      </trkpt>
      <trkpt lat="46.91864" lon="8.585">
        <ele>891</ele>
        <time>2021-08-10T12:09:54.954Z</time>
      </trkpt>
      <trkpt lat="46.91864" lon="8.58501">
        <ele>891</ele>
        <time>2021-08-10T12:09:55.954Z</time>
      </trkpt>
      <trkpt lat="46.91864" lon="8.58501">
        <ele>892</ele>
        <time>2021-08-10T12:09:56.954Z</time>
      </trkpt>
      <trkpt lat="46.91863" lon="8.58496">
        <ele>892</ele>
        <time>2021-08-10T12:09:57.955Z</time>
      </trkpt>
      <trkpt lat="46.91862" lon="8.58495">
        <ele>892</ele>
        <time>2021-08-10T12:09:58.956Z</time>
      </trkpt>
      <trkpt lat="46.91861" lon="8.58495">
        <ele>892</ele>
        <time>2021-08-10T12:09:59.956Z</time>
      </trkpt>
      <trkpt lat="46.9186" lon="8.58494">
        <ele>892</ele>
        <time>2021-08-10T12:10:00.955Z</time>
      </trkpt>
      <trkpt lat="46.9186" lon="8.58493">
        <ele>893</ele>
        <time>2021-08-10T12:10:01.956Z</time>
      </trkpt>
      <trkpt lat="46.9186" lon="8.58492">
        <ele>893</ele>
        <time>2021-08-10T12:10:02.956Z</time>
      </trkpt>
      <trkpt lat="46.9186" lon="8.58492">
        <ele>893</ele>
        <time>2021-08-10T12:10:03.956Z</time>
      </trkpt>
      <trkpt lat="46.9186" lon="8.58493">
        <ele>894</ele>
        <time>2021-08-10T12:10:04.956Z</time>
      </trkpt>
      <trkpt lat="46.9186" lon="8.58493">
        <ele>894</ele>
        <time>2021-08-10T12:10:05.956Z</time>
      </trkpt>
      <trkpt lat="46.9186" lon="8.58494">
        <ele>894</ele>
        <time>2021-08-10T12:10:06.955Z</time>
      </trkpt>
      <trkpt lat="46.9186" lon="8.58495">
        <ele>894</ele>
        <time>2021-08-10T12:10:07.956Z</time>
      </trkpt>
      <trkpt lat="46.91861" lon="8.58497">
        <ele>894</ele>
        <time>2021-08-10T12:10:08.956Z</time>
      </trkpt>
      <trkpt lat="46.91862" lon="8.58498">
        <ele>894</ele>
        <time>2021-08-10T12:10:09.957Z</time>
      </trkpt>
      <trkpt lat="46.91863" lon="8.58498">
        <ele>894</ele>
        <time>2021-08-10T12:10:10.956Z</time>
      </trkpt>
      <trkpt lat="46.91864" lon="8.58498">
        <ele>894</ele>
        <time>2021-08-10T12:10:11.957Z</time>
      </trkpt>
      <trkpt lat="46.91864" lon="8.58499">
        <ele>894</ele>
        <time>2021-08-10T12:10:12.956Z</time>
      </trkpt>
      <trkpt lat="46.91865" lon="8.58499">
        <ele>894</ele>
        <time>2021-08-10T12:10:13.957Z</time>
      </trkpt>
      <trkpt lat="46.91866" lon="8.58499">
        <ele>894</ele>
        <time>2021-08-10T12:10:14.956Z</time>
      </trkpt>
      <trkpt lat="46.91866" lon="8.58499">
        <ele>894</ele>
        <time>2021-08-10T12:10:15.957Z</time>
      </trkpt>
      <trkpt lat="46.91867" lon="8.58499">
        <ele>894</ele>
        <time>2021-08-10T12:10:16.957Z</time>
      </trkpt>
      <trkpt lat="46.91868" lon="8.58497">
        <ele>894</ele>
        <time>2021-08-10T12:10:17.957Z</time>
      </trkpt>
      <trkpt lat="46.91869" lon="8.58498">
        <ele>894</ele>
        <time>2021-08-10T12:10:25.102Z</time>
      </trkpt>
      <trkpt lat="46.91869" lon="8.58498">
        <ele>894</ele>
        <time>2021-08-10T12:10:26.102Z</time>
      </trkpt>
      <trkpt lat="46.91869" lon="8.58497">
        <ele>894</ele>
        <time>2021-08-10T12:10:27.103Z</time>
      </trkpt>
      <trkpt lat="46.91869" lon="8.58497">
        <ele>894</ele>
        <time>2021-08-10T12:10:28.102Z</time>
      </trkpt>
      <trkpt lat="46.9187" lon="8.58496">
        <ele>894</ele>
        <time>2021-08-10T12:10:29.102Z</time>
      </trkpt>
      <trkpt lat="46.91872" lon="8.58497">
        <ele>894</ele>
        <time>2021-08-10T12:10:30.102Z</time>
      </trkpt>
      <trkpt lat="46.91872" lon="8.58498">
        <ele>893</ele>
        <time>2021-08-10T12:10:31.103Z</time>
      </trkpt>
      <trkpt lat="46.91873" lon="8.58498">
        <ele>893</ele>
        <time>2021-08-10T12:10:32.102Z</time>
      </trkpt>
      <trkpt lat="46.91874" lon="8.58499">
        <ele>893</ele>
        <time>2021-08-10T12:10:33.102Z</time>
      </trkpt>
      <trkpt lat="46.91875" lon="8.58499">
        <ele>892</ele>
        <time>2021-08-10T12:10:34.102Z</time>
      </trkpt>
      <trkpt lat="46.91875" lon="8.58499">
        <ele>892</ele>
        <time>2021-08-10T12:10:35.103Z</time>
      </trkpt>
      <trkpt lat="46.91876" lon="8.58499">
        <ele>892</ele>
        <time>2021-08-10T12:10:36.102Z</time>
      </trkpt>
      <trkpt lat="46.91876" lon="8.58499">
        <ele>891</ele>
        <time>2021-08-10T12:10:37.103Z</time>
      </trkpt>
      <trkpt lat="46.91876" lon="8.58499">
        <ele>891</ele>
        <time>2021-08-10T12:10:38.102Z</time>
      </trkpt>
      <trkpt lat="46.91877" lon="8.58503">
        <ele>891</ele>
        <time>2021-08-10T12:10:39.103Z</time>
      </trkpt>
      <trkpt lat="46.91878" lon="8.58505">
        <ele>891</ele>
        <time>2021-08-10T12:10:40.102Z</time>
      </trkpt>
      <trkpt lat="46.91879" lon="8.58507">
        <ele>891</ele>
        <time>2021-08-10T12:10:41.103Z</time>
      </trkpt>
      <trkpt lat="46.9188" lon="8.58508">
        <ele>892</ele>
        <time>2021-08-10T12:10:42.102Z</time>
      </trkpt>
      <trkpt lat="46.91881" lon="8.58509">
        <ele>892</ele>
        <time>2021-08-10T12:10:43.103Z</time>
      </trkpt>
      <trkpt lat="46.9188" lon="8.5851">
        <ele>891</ele>
        <time>2021-08-10T12:10:44.102Z</time>
      </trkpt>
      <trkpt lat="46.9188" lon="8.58511">
        <ele>891</ele>
        <time>2021-08-10T12:10:45.102Z</time>
      </trkpt>
      <trkpt lat="46.9188" lon="8.58513">
        <ele>891</ele>
        <time>2021-08-10T12:10:46.103Z</time>
      </trkpt>
      <trkpt lat="46.91879" lon="8.58514">
        <ele>891</ele>
        <time>2021-08-10T12:10:56.223Z</time>
      </trkpt>
      <trkpt lat="46.91879" lon="8.58514">
        <ele>891</ele>
        <time>2021-08-10T12:10:57.224Z</time>
      </trkpt>
      <trkpt lat="46.91878" lon="8.58515">
        <ele>890</ele>
        <time>2021-08-10T12:10:58.224Z</time>
      </trkpt>
      <trkpt lat="46.91878" lon="8.58516">
        <ele>890</ele>
        <time>2021-08-10T12:10:59.223Z</time>
      </trkpt>
      <trkpt lat="46.91877" lon="8.58516">
        <ele>889</ele>
        <time>2021-08-10T12:11:00.223Z</time>
      </trkpt>
      <trkpt lat="46.91877" lon="8.58517">
        <ele>889</ele>
        <time>2021-08-10T12:11:01.223Z</time>
      </trkpt>
      <trkpt lat="46.91877" lon="8.58518">
        <ele>889</ele>
        <time>2021-08-10T12:11:02.223Z</time>
      </trkpt>
      <trkpt lat="46.91876" lon="8.58519">
        <ele>889</ele>
        <time>2021-08-10T12:11:03.224Z</time>
      </trkpt>
      <trkpt lat="46.91875" lon="8.58519">
        <ele>889</ele>
        <time>2021-08-10T12:11:04.224Z</time>
      </trkpt>
      <trkpt lat="46.91874" lon="8.58519">
        <ele>888</ele>
        <time>2021-08-10T12:11:05.224Z</time>
      </trkpt>
      <trkpt lat="46.91873" lon="8.5852">
        <ele>888</ele>
        <time>2021-08-10T12:11:06.223Z</time>
      </trkpt>
      <trkpt lat="46.91872" lon="8.5852">
        <ele>888</ele>
        <time>2021-08-10T12:11:07.224Z</time>
      </trkpt>
      <trkpt lat="46.91872" lon="8.58521">
        <ele>888</ele>
        <time>2021-08-10T12:11:08.223Z</time>
      </trkpt>
      <trkpt lat="46.91871" lon="8.58523">
        <ele>888</ele>
        <time>2021-08-10T12:11:09.224Z</time>
      </trkpt>
      <trkpt lat="46.9187" lon="8.58521">
        <ele>889</ele>
        <time>2021-08-10T12:11:10.224Z</time>
      </trkpt>
      <trkpt lat="46.91871" lon="8.5852">
        <ele>888</ele>
        <time>2021-08-10T12:11:11.224Z</time>
      </trkpt>
      <trkpt lat="46.91872" lon="8.58519">
        <ele>888</ele>
        <time>2021-08-10T12:11:12.224Z</time>
      </trkpt>
      <trkpt lat="46.91872" lon="8.58519">
        <ele>889</ele>
        <time>2021-08-10T12:11:13.224Z</time>
      </trkpt>
      <trkpt lat="46.91872" lon="8.58518">
        <ele>889</ele>
        <time>2021-08-10T12:11:19.349Z</time>
      </trkpt>
      <trkpt lat="46.91873" lon="8.58517">
        <ele>889</ele>
        <time>2021-08-10T12:11:20.349Z</time>
      </trkpt>
      <trkpt lat="46.91874" lon="8.58516">
        <ele>889</ele>
        <time>2021-08-10T12:11:21.348Z</time>
      </trkpt>
      <trkpt lat="46.91876" lon="8.58516">
        <ele>889</ele>
        <time>2021-08-10T12:11:22.348Z</time>
      </trkpt>
      <trkpt lat="46.91876" lon="8.58516">
        <ele>889</ele>
        <time>2021-08-10T12:11:23.349Z</time>
      </trkpt>
      <trkpt lat="46.91877" lon="8.58517">
        <ele>889</ele>
        <time>2021-08-10T12:11:24.349Z</time>
      </trkpt>
      <trkpt lat="46.91878" lon="8.58518">
        <ele>889</ele>
        <time>2021-08-10T12:11:25.349Z</time>
      </trkpt>
      <trkpt lat="46.91878" lon="8.58518">
        <ele>890</ele>
        <time>2021-08-10T12:11:26.349Z</time>
      </trkpt>
      <trkpt lat="46.91879" lon="8.58518">
        <ele>890</ele>
        <time>2021-08-10T12:11:27.349Z</time>
      </trkpt>
      <trkpt lat="46.91879" lon="8.58519">
        <ele>890</ele>
        <time>2021-08-10T12:11:28.349Z</time>
      </trkpt>
      <trkpt lat="46.91878" lon="8.5852">
        <ele>890</ele>
        <time>2021-08-10T12:11:29.349Z</time>
      </trkpt>
      <trkpt lat="46.91878" lon="8.5852">
        <ele>890</ele>
        <time>2021-08-10T12:11:30.349Z</time>
      </trkpt>
      <trkpt lat="46.9188" lon="8.58523">
        <ele>890</ele>
        <time>2021-08-10T12:11:31.351Z</time>
      </trkpt>
      <trkpt lat="46.9188" lon="8.58522">
        <ele>890</ele>
        <time>2021-08-10T12:11:32.350Z</time>
      </trkpt>
      <trkpt lat="46.9188" lon="8.5852">
        <ele>890</ele>
        <time>2021-08-10T12:11:33.351Z</time>
      </trkpt>
      <trkpt lat="46.9188" lon="8.5852">
        <ele>890</ele>
        <time>2021-08-10T12:11:34.351Z</time>
      </trkpt>
      <trkpt lat="46.91879" lon="8.5852">
        <ele>890</ele>
        <time>2021-08-10T12:11:35.350Z</time>
      </trkpt>
      <trkpt lat="46.91881" lon="8.5852">
        <ele>890</ele>
        <time>2021-08-10T12:11:36.352Z</time>
      </trkpt>
      <trkpt lat="46.91882" lon="8.58519">
        <ele>891</ele>
        <time>2021-08-10T12:11:37.351Z</time>
      </trkpt>
      <trkpt lat="46.91882" lon="8.58519">
        <ele>891</ele>
        <time>2021-08-10T12:11:38.351Z</time>
      </trkpt>
      <trkpt lat="46.91883" lon="8.58518">
        <ele>891</ele>
        <time>2021-08-10T12:11:39.351Z</time>
      </trkpt>
      <trkpt lat="46.91883" lon="8.58518">
        <ele>891</ele>
        <time>2021-08-10T12:11:40.352Z</time>
      </trkpt>
      <trkpt lat="46.91883" lon="8.58519">
        <ele>892</ele>
        <time>2021-08-10T12:11:41.353Z</time>
      </trkpt>
      <trkpt lat="46.91882" lon="8.58519">
        <ele>892</ele>
        <time>2021-08-10T12:11:42.353Z</time>
      </trkpt>
      <trkpt lat="46.91883" lon="8.58519">
        <ele>891</ele>
        <time>2021-08-10T12:11:43.353Z</time>
      </trkpt>
      <trkpt lat="46.91883" lon="8.58519">
        <ele>891</ele>
        <time>2021-08-10T12:11:44.352Z</time>
      </trkpt>
      <trkpt lat="46.91882" lon="8.58519">
        <ele>890</ele>
        <time>2021-08-10T12:11:45.353Z</time>
      </trkpt>
      <trkpt lat="46.91882" lon="8.5852">
        <ele>891</ele>
        <time>2021-08-10T12:11:46.353Z</time>
      </trkpt>
      <trkpt lat="46.91882" lon="8.5852">
        <ele>891</ele>
        <time>2021-08-10T12:11:47.352Z</time>
      </trkpt>
      <trkpt lat="46.91885" lon="8.58521">
        <ele>892</ele>
        <time>2021-08-10T12:11:48.354Z</time>
      </trkpt>
      <trkpt lat="46.91884" lon="8.58521">
        <ele>892</ele>
        <time>2021-08-10T12:11:49.354Z</time>
      </trkpt>
      <trkpt lat="46.91884" lon="8.58521">
        <ele>892</ele>
        <time>2021-08-10T12:11:50.353Z</time>
      </trkpt>
      <trkpt lat="46.91885" lon="8.58521">
        <ele>892</ele>
        <time>2021-08-10T12:11:51.353Z</time>
      </trkpt>
      <trkpt lat="46.91885" lon="8.58521">
        <ele>892</ele>
        <time>2021-08-10T12:11:52.353Z</time>
      </trkpt>
      <trkpt lat="46.91885" lon="8.58519">
        <ele>893</ele>
        <time>2021-08-10T12:11:53.354Z</time>
      </trkpt>
      <trkpt lat="46.91886" lon="8.58519">
        <ele>892</ele>
        <time>2021-08-10T12:11:54.353Z</time>
      </trkpt>
      <trkpt lat="46.91886" lon="8.58518">
        <ele>892</ele>
        <time>2021-08-10T12:11:55.353Z</time>
      </trkpt>
      <trkpt lat="46.91885" lon="8.5852">
        <ele>894</ele>
        <time>2021-08-10T12:11:56.354Z</time>
      </trkpt>
      <trkpt lat="46.91885" lon="8.58519">
        <ele>894</ele>
        <time>2021-08-10T12:11:57.353Z</time>
      </trkpt>
      <trkpt lat="46.91885" lon="8.58519">
        <ele>894</ele>
        <time>2021-08-10T12:11:58.353Z</time>
      </trkpt>
      <trkpt lat="46.91887" lon="8.58519">
        <ele>896</ele>
        <time>2021-08-10T12:11:59.354Z</time>
      </trkpt>
      <trkpt lat="46.91886" lon="8.58519">
        <ele>896</ele>
        <time>2021-08-10T12:12:00.355Z</time>
      </trkpt>
      <trkpt lat="46.91886" lon="8.58519">
        <ele>896</ele>
        <time>2021-08-10T12:12:01.354Z</time>
      </trkpt>
      <trkpt lat="46.91886" lon="8.58519">
        <ele>895</ele>
        <time>2021-08-10T12:12:02.354Z</time>
      </trkpt>
      <trkpt lat="46.91885" lon="8.58518">
        <ele>895</ele>
        <time>2021-08-10T12:12:03.355Z</time>
      </trkpt>
      <trkpt lat="46.91886" lon="8.58518">
        <ele>893</ele>
        <time>2021-08-10T12:12:04.354Z</time>
      </trkpt>
      <trkpt lat="46.91886" lon="8.58517">
        <ele>893</ele>
        <time>2021-08-10T12:12:05.355Z</time>
      </trkpt>
      <trkpt lat="46.91886" lon="8.58518">
        <ele>893</ele>
        <time>2021-08-10T12:12:06.354Z</time>
      </trkpt>
      <trkpt lat="46.91885" lon="8.58518">
        <ele>895</ele>
        <time>2021-08-10T12:12:07.355Z</time>
      </trkpt>
      <trkpt lat="46.91887" lon="8.58518">
        <ele>896</ele>
        <time>2021-08-10T12:12:08.355Z</time>
      </trkpt>
      <trkpt lat="46.91887" lon="8.58518">
        <ele>897</ele>
        <time>2021-08-10T12:12:09.354Z</time>
      </trkpt>
      <trkpt lat="46.91886" lon="8.58518">
        <ele>892</ele>
        <time>2021-08-10T12:12:10.355Z</time>
      </trkpt>
      <trkpt lat="46.91886" lon="8.58517">
        <ele>890</ele>
        <time>2021-08-10T12:12:11.355Z</time>
      </trkpt>
      <trkpt lat="46.91886" lon="8.58518">
        <ele>889</ele>
        <time>2021-08-10T12:12:12.355Z</time>
      </trkpt>
      <trkpt lat="46.91886" lon="8.58518">
        <ele>889</ele>
        <time>2021-08-10T12:12:13.354Z</time>
      </trkpt>
      <trkpt lat="46.91887" lon="8.58518">
        <ele>889</ele>
        <time>2021-08-10T12:12:14.355Z</time>
      </trkpt>
      <trkpt lat="46.91888" lon="8.58518">
        <ele>889</ele>
        <time>2021-08-10T12:12:15.355Z</time>
      </trkpt>
      <trkpt lat="46.91888" lon="8.58518">
        <ele>890</ele>
        <time>2021-08-10T12:12:16.354Z</time>
      </trkpt>
      <trkpt lat="46.91888" lon="8.58517">
        <ele>890</ele>
        <time>2021-08-10T12:12:17.355Z</time>
      </trkpt>
      <trkpt lat="46.91888" lon="8.58516">
        <ele>890</ele>
        <time>2021-08-10T12:12:18.354Z</time>
      </trkpt>
      <trkpt lat="46.91887" lon="8.58515">
        <ele>891</ele>
        <time>2021-08-10T12:12:19.354Z</time>
      </trkpt>
      <trkpt lat="46.91887" lon="8.58515">
        <ele>891</ele>
        <time>2021-08-10T12:12:20.355Z</time>
      </trkpt>
      <trkpt lat="46.91886" lon="8.58515">
        <ele>891</ele>
        <time>2021-08-10T12:12:21.355Z</time>
      </trkpt>
      <trkpt lat="46.91887" lon="8.58515">
        <ele>891</ele>
        <time>2021-08-10T12:12:22.355Z</time>
      </trkpt>
      <trkpt lat="46.91886" lon="8.58514">
        <ele>890</ele>
        <time>2021-08-10T12:12:23.355Z</time>
      </trkpt>
      <trkpt lat="46.91887" lon="8.58514">
        <ele>891</ele>
        <time>2021-08-10T12:12:24.355Z</time>
      </trkpt>
      <trkpt lat="46.91887" lon="8.58515">
        <ele>891</ele>
        <time>2021-08-10T12:12:25.355Z</time>
      </trkpt>
      <trkpt lat="46.91887" lon="8.58515">
        <ele>891</ele>
        <time>2021-08-10T12:12:26.355Z</time>
      </trkpt>
      <trkpt lat="46.91887" lon="8.58515">
        <ele>891</ele>
        <time>2021-08-10T12:12:27.354Z</time>
      </trkpt>
      <trkpt lat="46.91887" lon="8.58517">
        <ele>890</ele>
        <time>2021-08-10T12:12:28.355Z</time>
      </trkpt>
      <trkpt lat="46.91887" lon="8.58518">
        <ele>890</ele>
        <time>2021-08-10T12:12:29.354Z</time>
      </trkpt>
      <trkpt lat="46.91887" lon="8.58518">
        <ele>890</ele>
        <time>2021-08-10T12:12:30.354Z</time>
      </trkpt>
      <trkpt lat="46.91887" lon="8.58519">
        <ele>891</ele>
        <time>2021-08-10T12:12:31.354Z</time>
      </trkpt>
      <trkpt lat="46.91886" lon="8.58518">
        <ele>891</ele>
        <time>2021-08-10T12:12:32.354Z</time>
      </trkpt>
      <trkpt lat="46.91885" lon="8.58518">
        <ele>891</ele>
        <time>2021-08-10T12:12:33.355Z</time>
      </trkpt>
      <trkpt lat="46.91884" lon="8.58517">
        <ele>892</ele>
        <time>2021-08-10T12:12:34.355Z</time>
      </trkpt>
      <trkpt lat="46.91884" lon="8.58517">
        <ele>892</ele>
        <time>2021-08-10T12:12:35.354Z</time>
      </trkpt>
      <trkpt lat="46.91884" lon="8.58517">
        <ele>892</ele>
        <time>2021-08-10T12:12:36.355Z</time>
      </trkpt>
      <trkpt lat="46.91883" lon="8.58516">
        <ele>892</ele>
        <time>2021-08-10T12:12:37.354Z</time>
      </trkpt>
      <trkpt lat="46.91883" lon="8.58516">
        <ele>892</ele>
        <time>2021-08-10T12:12:38.355Z</time>
      </trkpt>
      <trkpt lat="46.91883" lon="8.58516">
        <ele>892</ele>
        <time>2021-08-10T12:12:39.354Z</time>
      </trkpt>
      <trkpt lat="46.91883" lon="8.58516">
        <ele>892</ele>
        <time>2021-08-10T12:12:40.354Z</time>
      </trkpt>
      <trkpt lat="46.91881" lon="8.58514">
        <ele>893</ele>
        <time>2021-08-10T12:12:41.355Z</time>
      </trkpt>
      <trkpt lat="46.91881" lon="8.58513">
        <ele>893</ele>
        <time>2021-08-10T12:12:42.355Z</time>
      </trkpt>
      <trkpt lat="46.91881" lon="8.58512">
        <ele>894</ele>
        <time>2021-08-10T12:12:43.355Z</time>
      </trkpt>
      <trkpt lat="46.9188" lon="8.58511">
        <ele>894</ele>
        <time>2021-08-10T12:12:44.355Z</time>
      </trkpt>
      <trkpt lat="46.91879" lon="8.58511">
        <ele>894</ele>
        <time>2021-08-10T12:12:45.356Z</time>
      </trkpt>
      <trkpt lat="46.91878" lon="8.58509">
        <ele>894</ele>
        <time>2021-08-10T12:12:46.356Z</time>
      </trkpt>
      <trkpt lat="46.91876" lon="8.58507">
        <ele>895</ele>
        <time>2021-08-10T12:12:47.356Z</time>
      </trkpt>
      <trkpt lat="46.91874" lon="8.58504">
        <ele>895</ele>
        <time>2021-08-10T12:12:48.356Z</time>
      </trkpt>
      <trkpt lat="46.91874" lon="8.58502">
        <ele>895</ele>
        <time>2021-08-10T12:12:49.356Z</time>
      </trkpt>
      <trkpt lat="46.91873" lon="8.58501">
        <ele>895</ele>
        <time>2021-08-10T12:12:50.355Z</time>
      </trkpt>
      <trkpt lat="46.91873" lon="8.58499">
        <ele>895</ele>
        <time>2021-08-10T12:12:51.355Z</time>
      </trkpt>
      <trkpt lat="46.91872" lon="8.58498">
        <ele>896</ele>
        <time>2021-08-10T12:12:52.355Z</time>
      </trkpt>
      <trkpt lat="46.91871" lon="8.58497">
        <ele>896</ele>
        <time>2021-08-10T12:12:53.356Z</time>
      </trkpt>
      <trkpt lat="46.91871" lon="8.58496">
        <ele>896</ele>
        <time>2021-08-10T12:12:54.356Z</time>
      </trkpt>
      <trkpt lat="46.9187" lon="8.58495">
        <ele>896</ele>
        <time>2021-08-10T12:12:55.355Z</time>
      </trkpt>
      <trkpt lat="46.91869" lon="8.58495">
        <ele>897</ele>
        <time>2021-08-10T12:12:56.355Z</time>
      </trkpt>
      <trkpt lat="46.91868" lon="8.58494">
        <ele>897</ele>
        <time>2021-08-10T12:12:57.356Z</time>
      </trkpt>
      <trkpt lat="46.91867" lon="8.58494">
        <ele>897</ele>
        <time>2021-08-10T12:12:58.356Z</time>
      </trkpt>
      <trkpt lat="46.91866" lon="8.58494">
        <ele>897</ele>
        <time>2021-08-10T12:12:59.356Z</time>
      </trkpt>
      <trkpt lat="46.91865" lon="8.58494">
        <ele>897</ele>
        <time>2021-08-10T12:13:00.356Z</time>
      </trkpt>
      <trkpt lat="46.91864" lon="8.58493">
        <ele>897</ele>
        <time>2021-08-10T12:13:01.356Z</time>
      </trkpt>
      <trkpt lat="46.91863" lon="8.58494">
        <ele>897</ele>
        <time>2021-08-10T12:13:02.355Z</time>
      </trkpt>
      <trkpt lat="46.91862" lon="8.58495">
        <ele>897</ele>
        <time>2021-08-10T12:13:03.356Z</time>
      </trkpt>
      <trkpt lat="46.91861" lon="8.58497">
        <ele>897</ele>
        <time>2021-08-10T12:13:04.356Z</time>
      </trkpt>
      <trkpt lat="46.9186" lon="8.58499">
        <ele>897</ele>
        <time>2021-08-10T12:13:05.356Z</time>
      </trkpt>
      <trkpt lat="46.91859" lon="8.585">
        <ele>897</ele>
        <time>2021-08-10T12:13:06.355Z</time>
      </trkpt>
      <trkpt lat="46.91859" lon="8.58502">
        <ele>896</ele>
        <time>2021-08-10T12:13:07.356Z</time>
      </trkpt>
      <trkpt lat="46.91858" lon="8.58504">
        <ele>896</ele>
        <time>2021-08-10T12:13:08.356Z</time>
      </trkpt>
      <trkpt lat="46.91858" lon="8.58505">
        <ele>896</ele>
        <time>2021-08-10T12:13:09.355Z</time>
      </trkpt>
      <trkpt lat="46.91857" lon="8.58506">
        <ele>897</ele>
        <time>2021-08-10T12:13:10.356Z</time>
      </trkpt>
      <trkpt lat="46.91857" lon="8.58507">
        <ele>897</ele>
        <time>2021-08-10T12:13:11.355Z</time>
      </trkpt>
      <trkpt lat="46.91856" lon="8.58508">
        <ele>898</ele>
        <time>2021-08-10T12:13:12.355Z</time>
      </trkpt>
      <trkpt lat="46.91856" lon="8.5851">
        <ele>898</ele>
        <time>2021-08-10T12:13:13.356Z</time>
      </trkpt>
      <trkpt lat="46.91855" lon="8.58511">
        <ele>899</ele>
        <time>2021-08-10T12:13:14.355Z</time>
      </trkpt>
      <trkpt lat="46.91855" lon="8.58513">
        <ele>900</ele>
        <time>2021-08-10T12:13:15.356Z</time>
      </trkpt>
      <trkpt lat="46.91855" lon="8.58515">
        <ele>900</ele>
        <time>2021-08-10T12:13:16.356Z</time>
      </trkpt>
      <trkpt lat="46.91856" lon="8.58517">
        <ele>900</ele>
        <time>2021-08-10T12:13:17.356Z</time>
      </trkpt>
      <trkpt lat="46.91856" lon="8.58519">
        <ele>899</ele>
        <time>2021-08-10T12:13:18.355Z</time>
      </trkpt>
      <trkpt lat="46.91856" lon="8.58523">
        <ele>899</ele>
        <time>2021-08-10T12:13:19.356Z</time>
      </trkpt>
      <trkpt lat="46.91856" lon="8.58525">
        <ele>899</ele>
        <time>2021-08-10T12:13:24.461Z</time>
      </trkpt>
      <trkpt lat="46.91858" lon="8.58527">
        <ele>899</ele>
        <time>2021-08-10T12:13:25.462Z</time>
      </trkpt>
      <trkpt lat="46.91858" lon="8.58528">
        <ele>899</ele>
        <time>2021-08-10T12:13:42.363Z</time>
      </trkpt>
      <trkpt lat="46.91859" lon="8.58529">
        <ele>898</ele>
        <time>2021-08-10T12:13:43.363Z</time>
      </trkpt>
      <trkpt lat="46.91859" lon="8.5853">
        <ele>898</ele>
        <time>2021-08-10T12:13:44.362Z</time>
      </trkpt>
      <trkpt lat="46.9186" lon="8.58531">
        <ele>898</ele>
        <time>2021-08-10T12:13:45.363Z</time>
      </trkpt>
      <trkpt lat="46.9186" lon="8.58532">
        <ele>898</ele>
        <time>2021-08-10T12:13:46.363Z</time>
      </trkpt>
      <trkpt lat="46.9186" lon="8.58533">
        <ele>898</ele>
        <time>2021-08-10T12:13:47.363Z</time>
      </trkpt>
      <trkpt lat="46.91861" lon="8.58533">
        <ele>898</ele>
        <time>2021-08-10T12:13:48.363Z</time>
      </trkpt>
      <trkpt lat="46.91862" lon="8.58534">
        <ele>898</ele>
        <time>2021-08-10T12:13:49.363Z</time>
      </trkpt>
      <trkpt lat="46.91862" lon="8.58534">
        <ele>898</ele>
        <time>2021-08-10T12:13:50.362Z</time>
      </trkpt>
      <trkpt lat="46.91862" lon="8.58535">
        <ele>898</ele>
        <time>2021-08-10T12:13:51.362Z</time>
      </trkpt>
      <trkpt lat="46.91862" lon="8.58536">
        <ele>898</ele>
        <time>2021-08-10T12:13:52.363Z</time>
      </trkpt>
      <trkpt lat="46.91862" lon="8.58537">
        <ele>898</ele>
        <time>2021-08-10T12:13:53.362Z</time>
      </trkpt>
      <trkpt lat="46.91861" lon="8.58537">
        <ele>897</ele>
        <time>2021-08-10T12:13:54.363Z</time>
      </trkpt>
      <trkpt lat="46.91861" lon="8.58537">
        <ele>897</ele>
        <time>2021-08-10T12:13:55.362Z</time>
      </trkpt>
      <trkpt lat="46.91861" lon="8.58536">
        <ele>896</ele>
        <time>2021-08-10T12:13:56.362Z</time>
      </trkpt>
      <trkpt lat="46.91862" lon="8.58535">
        <ele>896</ele>
        <time>2021-08-10T12:13:57.362Z</time>
      </trkpt>
      <trkpt lat="46.91863" lon="8.58535">
        <ele>895</ele>
        <time>2021-08-10T12:13:58.362Z</time>
      </trkpt>
      <trkpt lat="46.91864" lon="8.58533">
        <ele>895</ele>
        <time>2021-08-10T12:13:59.363Z</time>
      </trkpt>
      <trkpt lat="46.91866" lon="8.58533">
        <ele>894</ele>
        <time>2021-08-10T12:14:00.363Z</time>
      </trkpt>
      <trkpt lat="46.91866" lon="8.58532">
        <ele>894</ele>
        <time>2021-08-10T12:14:01.362Z</time>
      </trkpt>
      <trkpt lat="46.91867" lon="8.58531">
        <ele>894</ele>
        <time>2021-08-10T12:14:02.362Z</time>
      </trkpt>
      <trkpt lat="46.91867" lon="8.5853">
        <ele>893</ele>
        <time>2021-08-10T12:14:03.362Z</time>
      </trkpt>
      <trkpt lat="46.91867" lon="8.5853">
        <ele>893</ele>
        <time>2021-08-10T12:14:04.363Z</time>
      </trkpt>
      <trkpt lat="46.91867" lon="8.5853">
        <ele>892</ele>
        <time>2021-08-10T12:14:05.363Z</time>
      </trkpt>
      <trkpt lat="46.91868" lon="8.58528">
        <ele>889</ele>
        <time>2021-08-10T12:14:06.364Z</time>
      </trkpt>
      <trkpt lat="46.91868" lon="8.58528">
        <ele>889</ele>
        <time>2021-08-10T12:14:07.364Z</time>
      </trkpt>
      <trkpt lat="46.91866" lon="8.58528">
        <ele>886</ele>
        <time>2021-08-10T12:14:08.364Z</time>
      </trkpt>
      <trkpt lat="46.91865" lon="8.58528">
        <ele>886</ele>
        <time>2021-08-10T12:14:09.364Z</time>
      </trkpt>
      <trkpt lat="46.91864" lon="8.58529">
        <ele>885</ele>
        <time>2021-08-10T12:14:10.364Z</time>
      </trkpt>
      <trkpt lat="46.91864" lon="8.58529">
        <ele>884</ele>
        <time>2021-08-10T12:14:11.363Z</time>
      </trkpt>
      <trkpt lat="46.91864" lon="8.5853">
        <ele>884</ele>
        <time>2021-08-10T12:14:12.364Z</time>
      </trkpt>
      <trkpt lat="46.91864" lon="8.58531">
        <ele>884</ele>
        <time>2021-08-10T12:14:13.364Z</time>
      </trkpt>
      <trkpt lat="46.91865" lon="8.58531">
        <ele>884</ele>
        <time>2021-08-10T12:14:14.363Z</time>
      </trkpt>
      <trkpt lat="46.91865" lon="8.58531">
        <ele>884</ele>
        <time>2021-08-10T12:14:15.364Z</time>
      </trkpt>
      <trkpt lat="46.91865" lon="8.58531">
        <ele>883</ele>
        <time>2021-08-10T12:14:16.363Z</time>
      </trkpt>
      <trkpt lat="46.91864" lon="8.5853">
        <ele>883</ele>
        <time>2021-08-10T12:14:17.363Z</time>
      </trkpt>
      <trkpt lat="46.91864" lon="8.5853">
        <ele>883</ele>
        <time>2021-08-10T12:14:18.363Z</time>
      </trkpt>
      <trkpt lat="46.91863" lon="8.5853">
        <ele>882</ele>
        <time>2021-08-10T12:14:19.363Z</time>
      </trkpt>
      <trkpt lat="46.91863" lon="8.5853">
        <ele>882</ele>
        <time>2021-08-10T12:14:20.363Z</time>
      </trkpt>
      <trkpt lat="46.91862" lon="8.5853">
        <ele>882</ele>
        <time>2021-08-10T12:14:21.363Z</time>
      </trkpt>
      <trkpt lat="46.91862" lon="8.58529">
        <ele>882</ele>
        <time>2021-08-10T12:14:22.363Z</time>
      </trkpt>
      <trkpt lat="46.91862" lon="8.58529">
        <ele>882</ele>
        <time>2021-08-10T12:14:23.363Z</time>
      </trkpt>
      <trkpt lat="46.91861" lon="8.58528">
        <ele>882</ele>
        <time>2021-08-10T12:14:24.363Z</time>
      </trkpt>
      <trkpt lat="46.9186" lon="8.58528">
        <ele>883</ele>
        <time>2021-08-10T12:14:25.363Z</time>
      </trkpt>
      <trkpt lat="46.9186" lon="8.58528">
        <ele>883</ele>
        <time>2021-08-10T12:14:26.363Z</time>
      </trkpt>
      <trkpt lat="46.9186" lon="8.58526">
        <ele>883</ele>
        <time>2021-08-10T12:14:27.363Z</time>
      </trkpt>
      <trkpt lat="46.9186" lon="8.58526">
        <ele>883</ele>
        <time>2021-08-10T12:14:28.363Z</time>
      </trkpt>
      <trkpt lat="46.91859" lon="8.58525">
        <ele>884</ele>
        <time>2021-08-10T12:14:29.363Z</time>
      </trkpt>
      <trkpt lat="46.91859" lon="8.58524">
        <ele>884</ele>
        <time>2021-08-10T12:14:30.363Z</time>
      </trkpt>
      <trkpt lat="46.91858" lon="8.58523">
        <ele>884</ele>
        <time>2021-08-10T12:14:31.363Z</time>
      </trkpt>
      <trkpt lat="46.91858" lon="8.58522">
        <ele>884</ele>
        <time>2021-08-10T12:14:32.363Z</time>
      </trkpt>
      <trkpt lat="46.91857" lon="8.58521">
        <ele>885</ele>
        <time>2021-08-10T12:14:33.363Z</time>
      </trkpt>
      <trkpt lat="46.91857" lon="8.5852">
        <ele>885</ele>
        <time>2021-08-10T12:14:34.363Z</time>
      </trkpt>
      <trkpt lat="46.91857" lon="8.5852">
        <ele>885</ele>
        <time>2021-08-10T12:14:35.363Z</time>
      </trkpt>
      <trkpt lat="46.91856" lon="8.58519">
        <ele>886</ele>
        <time>2021-08-10T12:14:36.363Z</time>
      </trkpt>
      <trkpt lat="46.91856" lon="8.58518">
        <ele>886</ele>
        <time>2021-08-10T12:14:37.363Z</time>
      </trkpt>
      <trkpt lat="46.91857" lon="8.58518">
        <ele>886</ele>
        <time>2021-08-10T12:14:38.363Z</time>
      </trkpt>
      <trkpt lat="46.91857" lon="8.58516">
        <ele>886</ele>
        <time>2021-08-10T12:14:39.363Z</time>
      </trkpt>
      <trkpt lat="46.91857" lon="8.58515">
        <ele>886</ele>
        <time>2021-08-10T12:14:40.363Z</time>
      </trkpt>
      <trkpt lat="46.91859" lon="8.58516">
        <ele>887</ele>
        <time>2021-08-10T12:14:41.363Z</time>
      </trkpt>
      <trkpt lat="46.9186" lon="8.58515">
        <ele>887</ele>
        <time>2021-08-10T12:14:42.363Z</time>
      </trkpt>
      <trkpt lat="46.91862" lon="8.58515">
        <ele>887</ele>
        <time>2021-08-10T12:14:43.363Z</time>
      </trkpt>
      <trkpt lat="46.91863" lon="8.58513">
        <ele>887</ele>
        <time>2021-08-10T12:14:44.363Z</time>
      </trkpt>
      <trkpt lat="46.91864" lon="8.58512">
        <ele>887</ele>
        <time>2021-08-10T12:14:45.363Z</time>
      </trkpt>
      <trkpt lat="46.91865" lon="8.58511">
        <ele>887</ele>
        <time>2021-08-10T12:14:46.363Z</time>
      </trkpt>
      <trkpt lat="46.91865" lon="8.5851">
        <ele>886</ele>
        <time>2021-08-10T12:14:47.363Z</time>
      </trkpt>
      <trkpt lat="46.91866" lon="8.58509">
        <ele>886</ele>
        <time>2021-08-10T12:14:48.363Z</time>
      </trkpt>
      <trkpt lat="46.91866" lon="8.58507">
        <ele>886</ele>
        <time>2021-08-10T12:14:49.363Z</time>
      </trkpt>
      <trkpt lat="46.91867" lon="8.58506">
        <ele>886</ele>
        <time>2021-08-10T12:14:50.363Z</time>
      </trkpt>
      <trkpt lat="46.91868" lon="8.58505">
        <ele>886</ele>
        <time>2021-08-10T12:14:51.363Z</time>
      </trkpt>
      <trkpt lat="46.91868" lon="8.58505">
        <ele>886</ele>
        <time>2021-08-10T12:14:52.363Z</time>
      </trkpt>
      <trkpt lat="46.91868" lon="8.58507">
        <ele>886</ele>
        <time>2021-08-10T12:14:53.363Z</time>
      </trkpt>
      <trkpt lat="46.91868" lon="8.58507">
        <ele>886</ele>
        <time>2021-08-10T12:14:54.363Z</time>
      </trkpt>
      <trkpt lat="46.91869" lon="8.58508">
        <ele>886</ele>
        <time>2021-08-10T12:14:58.363Z</time>
      </trkpt>
      <trkpt lat="46.91868" lon="8.58506">
        <ele>886</ele>
        <time>2021-08-10T12:14:59.363Z</time>
      </trkpt>
      <trkpt lat="46.91867" lon="8.58506">
        <ele>886</ele>
        <time>2021-08-10T12:15:00.363Z</time>
      </trkpt>
      <trkpt lat="46.91866" lon="8.58506">
        <ele>887</ele>
        <time>2021-08-10T12:15:01.363Z</time>
      </trkpt>
      <trkpt lat="46.91866" lon="8.58505">
        <ele>887</ele>
        <time>2021-08-10T12:15:02.363Z</time>
      </trkpt>
      <trkpt lat="46.91865" lon="8.58504">
        <ele>887</ele>
        <time>2021-08-10T12:15:03.364Z</time>
      </trkpt>
      <trkpt lat="46.91865" lon="8.58504">
        <ele>887</ele>
        <time>2021-08-10T12:15:04.364Z</time>
      </trkpt>
      <trkpt lat="46.91865" lon="8.58504">
        <ele>887</ele>
        <time>2021-08-10T12:15:05.364Z</time>
      </trkpt>
      <trkpt lat="46.91864" lon="8.58503">
        <ele>888</ele>
        <time>2021-08-10T12:15:06.364Z</time>
      </trkpt>
      <trkpt lat="46.91864" lon="8.58502">
        <ele>888</ele>
        <time>2021-08-10T12:15:07.365Z</time>
      </trkpt>
      <trkpt lat="46.91864" lon="8.58502">
        <ele>888</ele>
        <time>2021-08-10T12:15:08.364Z</time>
      </trkpt>
      <trkpt lat="46.91864" lon="8.58503">
        <ele>889</ele>
        <time>2021-08-10T12:15:09.365Z</time>
      </trkpt>
      <trkpt lat="46.91864" lon="8.58503">
        <ele>889</ele>
        <time>2021-08-10T12:15:10.366Z</time>
      </trkpt>
      <trkpt lat="46.91864" lon="8.58503">
        <ele>890</ele>
        <time>2021-08-10T12:15:11.365Z</time>
      </trkpt>
      <trkpt lat="46.91865" lon="8.58504">
        <ele>890</ele>
        <time>2021-08-10T12:15:12.365Z</time>
      </trkpt>
      <trkpt lat="46.91865" lon="8.58505">
        <ele>891</ele>
        <time>2021-08-10T12:15:13.366Z</time>
      </trkpt>
      <trkpt lat="46.91865" lon="8.58505">
        <ele>891</ele>
        <time>2021-08-10T12:15:14.366Z</time>
      </trkpt>
      <trkpt lat="46.91865" lon="8.58505">
        <ele>891</ele>
        <time>2021-08-10T12:15:15.365Z</time>
      </trkpt>
      <trkpt lat="46.91864" lon="8.58505">
        <ele>892</ele>
        <time>2021-08-10T12:15:16.365Z</time>
      </trkpt>
      <trkpt lat="46.91864" lon="8.58504">
        <ele>892</ele>
        <time>2021-08-10T12:15:17.365Z</time>
      </trkpt>
      <trkpt lat="46.91864" lon="8.58503">
        <ele>892</ele>
        <time>2021-08-10T12:15:18.365Z</time>
      </trkpt>
      <trkpt lat="46.91865" lon="8.58503">
        <ele>892</ele>
        <time>2021-08-10T12:15:19.365Z</time>
      </trkpt>
      <trkpt lat="46.91866" lon="8.58503">
        <ele>892</ele>
        <time>2021-08-10T12:15:20.365Z</time>
      </trkpt>
      <trkpt lat="46.91866" lon="8.58503">
        <ele>892</ele>
        <time>2021-08-10T12:15:21.365Z</time>
      </trkpt>
      <trkpt lat="46.91866" lon="8.58504">
        <ele>892</ele>
        <time>2021-08-10T12:15:22.365Z</time>
      </trkpt>
      <trkpt lat="46.91866" lon="8.58504">
        <ele>892</ele>
        <time>2021-08-10T12:15:23.366Z</time>
      </trkpt>
      <trkpt lat="46.91866" lon="8.58506">
        <ele>892</ele>
        <time>2021-08-10T12:15:24.365Z</time>
      </trkpt>
      <trkpt lat="46.91867" lon="8.58507">
        <ele>893</ele>
        <time>2021-08-10T12:15:25.365Z</time>
      </trkpt>
      <trkpt lat="46.91866" lon="8.58507">
        <ele>893</ele>
        <time>2021-08-10T12:15:26.366Z</time>
      </trkpt>
      <trkpt lat="46.91865" lon="8.58507">
        <ele>893</ele>
        <time>2021-08-10T12:15:27.365Z</time>
      </trkpt>
      <trkpt lat="46.91864" lon="8.58508">
        <ele>893</ele>
        <time>2021-08-10T12:15:28.365Z</time>
      </trkpt>
      <trkpt lat="46.91864" lon="8.58509">
        <ele>893</ele>
        <time>2021-08-10T12:15:29.366Z</time>
      </trkpt>
      <trkpt lat="46.91866" lon="8.5851">
        <ele>893</ele>
        <time>2021-08-10T12:15:30.366Z</time>
      </trkpt>
      <trkpt lat="46.91867" lon="8.58511">
        <ele>894</ele>
        <time>2021-08-10T12:15:31.366Z</time>
      </trkpt>
      <trkpt lat="46.91868" lon="8.58511">
        <ele>894</ele>
        <time>2021-08-10T12:15:32.365Z</time>
      </trkpt>
      <trkpt lat="46.91869" lon="8.58512">
        <ele>894</ele>
        <time>2021-08-10T12:15:33.365Z</time>
      </trkpt>
      <trkpt lat="46.91869" lon="8.58512">
        <ele>895</ele>
        <time>2021-08-10T12:15:34.366Z</time>
      </trkpt>
      <trkpt lat="46.9187" lon="8.58512">
        <ele>895</ele>
        <time>2021-08-10T12:15:35.366Z</time>
      </trkpt>
      <trkpt lat="46.91871" lon="8.58512">
        <ele>895</ele>
        <time>2021-08-10T12:15:36.365Z</time>
      </trkpt>
      <trkpt lat="46.91872" lon="8.58514">
        <ele>896</ele>
        <time>2021-08-10T12:15:37.365Z</time>
      </trkpt>
      <trkpt lat="46.91873" lon="8.58516">
        <ele>896</ele>
        <time>2021-08-10T12:15:38.365Z</time>
      </trkpt>
      <trkpt lat="46.91874" lon="8.58518">
        <ele>896</ele>
        <time>2021-08-10T12:15:39.365Z</time>
      </trkpt>
      <trkpt lat="46.91874" lon="8.58518">
        <ele>896</ele>
        <time>2021-08-10T12:15:40.365Z</time>
      </trkpt>
      <trkpt lat="46.91874" lon="8.58519">
        <ele>896</ele>
        <time>2021-08-10T12:15:41.366Z</time>
      </trkpt>
      <trkpt lat="46.91874" lon="8.58519">
        <ele>896</ele>
        <time>2021-08-10T12:15:42.365Z</time>
      </trkpt>
      <trkpt lat="46.91873" lon="8.58519">
        <ele>896</ele>
        <time>2021-08-10T12:15:43.365Z</time>
      </trkpt>
      <trkpt lat="46.91873" lon="8.5852">
        <ele>895</ele>
        <time>2021-08-10T12:15:44.365Z</time>
      </trkpt>
      <trkpt lat="46.91873" lon="8.58522">
        <ele>895</ele>
        <time>2021-08-10T12:15:45.366Z</time>
      </trkpt>
      <trkpt lat="46.91873" lon="8.58523">
        <ele>895</ele>
        <time>2021-08-10T12:15:46.365Z</time>
      </trkpt>
      <trkpt lat="46.91872" lon="8.58523">
        <ele>895</ele>
        <time>2021-08-10T12:15:47.365Z</time>
      </trkpt>
      <trkpt lat="46.91873" lon="8.58524">
        <ele>895</ele>
        <time>2021-08-10T12:15:48.365Z</time>
      </trkpt>
      <trkpt lat="46.91874" lon="8.58525">
        <ele>895</ele>
        <time>2021-08-10T12:15:49.365Z</time>
      </trkpt>
      <trkpt lat="46.91876" lon="8.58526">
        <ele>894</ele>
        <time>2021-08-10T12:15:50.366Z</time>
      </trkpt>
      <trkpt lat="46.91876" lon="8.58524">
        <ele>894</ele>
        <time>2021-08-10T12:15:51.366Z</time>
      </trkpt>
      <trkpt lat="46.91876" lon="8.58523">
        <ele>894</ele>
        <time>2021-08-10T12:15:52.365Z</time>
      </trkpt>
      <trkpt lat="46.91876" lon="8.58522">
        <ele>894</ele>
        <time>2021-08-10T12:15:53.365Z</time>
      </trkpt>
      <trkpt lat="46.91875" lon="8.58521">
        <ele>894</ele>
        <time>2021-08-10T12:15:54.365Z</time>
      </trkpt>
      <trkpt lat="46.91875" lon="8.58521">
        <ele>894</ele>
        <time>2021-08-10T12:15:55.366Z</time>
      </trkpt>
      <trkpt lat="46.91875" lon="8.58519">
        <ele>894</ele>
        <time>2021-08-10T12:15:56.366Z</time>
      </trkpt>
      <trkpt lat="46.91875" lon="8.58517">
        <ele>894</ele>
        <time>2021-08-10T12:15:57.365Z</time>
      </trkpt>
      <trkpt lat="46.91876" lon="8.58515">
        <ele>894</ele>
        <time>2021-08-10T12:15:58.365Z</time>
      </trkpt>
      <trkpt lat="46.91877" lon="8.58514">
        <ele>894</ele>
        <time>2021-08-10T12:15:59.365Z</time>
      </trkpt>
      <trkpt lat="46.91876" lon="8.58512">
        <ele>894</ele>
        <time>2021-08-10T12:16:00.366Z</time>
      </trkpt>
      <trkpt lat="46.91876" lon="8.58511">
        <ele>895</ele>
        <time>2021-08-10T12:16:01.366Z</time>
      </trkpt>
      <trkpt lat="46.91875" lon="8.5851">
        <ele>895</ele>
        <time>2021-08-10T12:16:02.365Z</time>
      </trkpt>
      <trkpt lat="46.91871" lon="8.58509">
        <ele>896</ele>
        <time>2021-08-10T12:16:03.367Z</time>
      </trkpt>
      <trkpt lat="46.91869" lon="8.5851">
        <ele>895</ele>
        <time>2021-08-10T12:16:04.366Z</time>
      </trkpt>
      <trkpt lat="46.91868" lon="8.58511">
        <ele>895</ele>
        <time>2021-08-10T12:16:05.366Z</time>
      </trkpt>
      <trkpt lat="46.91867" lon="8.58511">
        <ele>895</ele>
        <time>2021-08-10T12:16:06.366Z</time>
      </trkpt>
      <trkpt lat="46.91866" lon="8.58512">
        <ele>894</ele>
        <time>2021-08-10T12:16:07.366Z</time>
      </trkpt>
      <trkpt lat="46.91866" lon="8.58512">
        <ele>894</ele>
        <time>2021-08-10T12:16:08.367Z</time>
      </trkpt>
      <trkpt lat="46.91866" lon="8.58512">
        <ele>893</ele>
        <time>2021-08-10T12:16:09.366Z</time>
      </trkpt>
      <trkpt lat="46.91866" lon="8.5851">
        <ele>892</ele>
        <time>2021-08-10T12:16:10.367Z</time>
      </trkpt>
      <trkpt lat="46.91865" lon="8.58509">
        <ele>892</ele>
        <time>2021-08-10T12:16:11.367Z</time>
      </trkpt>
      <trkpt lat="46.91864" lon="8.58508">
        <ele>891</ele>
        <time>2021-08-10T12:16:12.367Z</time>
      </trkpt>
      <trkpt lat="46.91864" lon="8.58508">
        <ele>891</ele>
        <time>2021-08-10T12:16:13.367Z</time>
      </trkpt>
      <trkpt lat="46.91864" lon="8.58507">
        <ele>891</ele>
        <time>2021-08-10T12:16:14.366Z</time>
      </trkpt>
      <trkpt lat="46.91865" lon="8.58507">
        <ele>891</ele>
        <time>2021-08-10T12:16:15.366Z</time>
      </trkpt>
      <trkpt lat="46.91864" lon="8.58508">
        <ele>891</ele>
        <time>2021-08-10T12:16:16.367Z</time>
      </trkpt>
      <trkpt lat="46.91865" lon="8.58508">
        <ele>891</ele>
        <time>2021-08-10T12:16:17.367Z</time>
      </trkpt>
      <trkpt lat="46.91865" lon="8.58508">
        <ele>891</ele>
        <time>2021-08-10T12:16:18.367Z</time>
      </trkpt>
      <trkpt lat="46.91865" lon="8.58509">
        <ele>891</ele>
        <time>2021-08-10T12:16:19.366Z</time>
      </trkpt>
      <trkpt lat="46.91865" lon="8.58507">
        <ele>891</ele>
        <time>2021-08-10T12:16:20.367Z</time>
      </trkpt>
      <trkpt lat="46.91865" lon="8.58505">
        <ele>891</ele>
        <time>2021-08-10T12:16:21.367Z</time>
      </trkpt>
      <trkpt lat="46.91866" lon="8.58503">
        <ele>891</ele>
        <time>2021-08-10T12:16:22.366Z</time>
      </trkpt>
      <trkpt lat="46.91866" lon="8.58503">
        <ele>891</ele>
        <time>2021-08-10T12:16:23.366Z</time>
      </trkpt>
      <trkpt lat="46.91866" lon="8.58505">
        <ele>892</ele>
        <time>2021-08-10T12:16:24.367Z</time>
      </trkpt>
      <trkpt lat="46.91866" lon="8.58505">
        <ele>892</ele>
        <time>2021-08-10T12:16:25.367Z</time>
      </trkpt>
      <trkpt lat="46.91866" lon="8.58505">
        <ele>892</ele>
        <time>2021-08-10T12:16:26.367Z</time>
      </trkpt>
      <trkpt lat="46.91866" lon="8.58504">
        <ele>892</ele>
        <time>2021-08-10T12:16:27.367Z</time>
      </trkpt>
      <trkpt lat="46.91865" lon="8.58504">
        <ele>892</ele>
        <time>2021-08-10T12:16:28.367Z</time>
      </trkpt>
      <trkpt lat="46.91864" lon="8.58502">
        <ele>893</ele>
        <time>2021-08-10T12:16:29.366Z</time>
      </trkpt>
      <trkpt lat="46.91863" lon="8.58501">
        <ele>893</ele>
        <time>2021-08-10T12:16:30.367Z</time>
      </trkpt>
      <trkpt lat="46.91862" lon="8.585">
        <ele>893</ele>
        <time>2021-08-10T12:16:31.367Z</time>
      </trkpt>
      <trkpt lat="46.91861" lon="8.58498">
        <ele>894</ele>
        <time>2021-08-10T12:16:32.367Z</time>
      </trkpt>
      <trkpt lat="46.91861" lon="8.58497">
        <ele>894</ele>
        <time>2021-08-10T12:16:33.367Z</time>
      </trkpt>
      <trkpt lat="46.9186" lon="8.58496">
        <ele>894</ele>
        <time>2021-08-10T12:16:34.367Z</time>
      </trkpt>
      <trkpt lat="46.9186" lon="8.58495">
        <ele>895</ele>
        <time>2021-08-10T12:16:35.366Z</time>
      </trkpt>
      <trkpt lat="46.91859" lon="8.58494">
        <ele>895</ele>
        <time>2021-08-10T12:16:36.367Z</time>
      </trkpt>
      <trkpt lat="46.91858" lon="8.58494">
        <ele>895</ele>
        <time>2021-08-10T12:16:37.366Z</time>
      </trkpt>
      <trkpt lat="46.91858" lon="8.58493">
        <ele>895</ele>
        <time>2021-08-10T12:16:38.366Z</time>
      </trkpt>
      <trkpt lat="46.91857" lon="8.58492">
        <ele>895</ele>
        <time>2021-08-10T12:16:39.367Z</time>
      </trkpt>
      <trkpt lat="46.91857" lon="8.5849">
        <ele>895</ele>
        <time>2021-08-10T12:16:40.367Z</time>
      </trkpt>
      <trkpt lat="46.91857" lon="8.58488">
        <ele>895</ele>
        <time>2021-08-10T12:16:41.367Z</time>
      </trkpt>
      <trkpt lat="46.91856" lon="8.58486">
        <ele>895</ele>
        <time>2021-08-10T12:16:42.367Z</time>
      </trkpt>
      <trkpt lat="46.91856" lon="8.58485">
        <ele>895</ele>
        <time>2021-08-10T12:16:43.366Z</time>
      </trkpt>
      <trkpt lat="46.91855" lon="8.58484">
        <ele>895</ele>
        <time>2021-08-10T12:16:44.367Z</time>
      </trkpt>
      <trkpt lat="46.91854" lon="8.58482">
        <ele>896</ele>
        <time>2021-08-10T12:16:45.367Z</time>
      </trkpt>
      <trkpt lat="46.91853" lon="8.58481">
        <ele>896</ele>
        <time>2021-08-10T12:16:46.367Z</time>
      </trkpt>
      <trkpt lat="46.91851" lon="8.5848">
        <ele>896</ele>
        <time>2021-08-10T12:16:47.367Z</time>
      </trkpt>
      <trkpt lat="46.91849" lon="8.58479">
        <ele>896</ele>
        <time>2021-08-10T12:16:48.367Z</time>
      </trkpt>
      <trkpt lat="46.91848" lon="8.58477">
        <ele>896</ele>
        <time>2021-08-10T12:16:49.367Z</time>
      </trkpt>
      <trkpt lat="46.91847" lon="8.58476">
        <ele>896</ele>
        <time>2021-08-10T12:16:50.366Z</time>
      </trkpt>
      <trkpt lat="46.91846" lon="8.58475">
        <ele>896</ele>
        <time>2021-08-10T12:16:51.366Z</time>
      </trkpt>
      <trkpt lat="46.91846" lon="8.58474">
        <ele>896</ele>
        <time>2021-08-10T12:16:52.367Z</time>
      </trkpt>
      <trkpt lat="46.91845" lon="8.58472">
        <ele>896</ele>
        <time>2021-08-10T12:16:53.367Z</time>
      </trkpt>
      <trkpt lat="46.91845" lon="8.58471">
        <ele>896</ele>
        <time>2021-08-10T12:16:54.366Z</time>
      </trkpt>
      <trkpt lat="46.91844" lon="8.58469">
        <ele>896</ele>
        <time>2021-08-10T12:16:55.366Z</time>
      </trkpt>
      <trkpt lat="46.91842" lon="8.58467">
        <ele>896</ele>
        <time>2021-08-10T12:16:56.367Z</time>
      </trkpt>
      <trkpt lat="46.91841" lon="8.58466">
        <ele>896</ele>
        <time>2021-08-10T12:16:57.366Z</time>
      </trkpt>
      <trkpt lat="46.91841" lon="8.58465">
        <ele>896</ele>
        <time>2021-08-10T12:16:58.367Z</time>
      </trkpt>
      <trkpt lat="46.91839" lon="8.58463">
        <ele>896</ele>
        <time>2021-08-10T12:16:59.366Z</time>
      </trkpt>
      <trkpt lat="46.91838" lon="8.58461">
        <ele>896</ele>
        <time>2021-08-10T12:17:00.367Z</time>
      </trkpt>
      <trkpt lat="46.91837" lon="8.5846">
        <ele>896</ele>
        <time>2021-08-10T12:17:01.367Z</time>
      </trkpt>
      <trkpt lat="46.91836" lon="8.58459">
        <ele>896</ele>
        <time>2021-08-10T12:17:02.366Z</time>
      </trkpt>
      <trkpt lat="46.91835" lon="8.58458">
        <ele>895</ele>
        <time>2021-08-10T12:17:03.366Z</time>
      </trkpt>
      <trkpt lat="46.91834" lon="8.58457">
        <ele>895</ele>
        <time>2021-08-10T12:17:04.367Z</time>
      </trkpt>
      <trkpt lat="46.91834" lon="8.58456">
        <ele>894</ele>
        <time>2021-08-10T12:17:05.366Z</time>
      </trkpt>
      <trkpt lat="46.91833" lon="8.58455">
        <ele>894</ele>
        <time>2021-08-10T12:17:06.366Z</time>
      </trkpt>
      <trkpt lat="46.91832" lon="8.58454">
        <ele>893</ele>
        <time>2021-08-10T12:17:07.366Z</time>
      </trkpt>
      <trkpt lat="46.91831" lon="8.58452">
        <ele>893</ele>
        <time>2021-08-10T12:17:08.366Z</time>
      </trkpt>
      <trkpt lat="46.9183" lon="8.58452">
        <ele>893</ele>
        <time>2021-08-10T12:17:09.366Z</time>
      </trkpt>
      <trkpt lat="46.9183" lon="8.58454">
        <ele>893</ele>
        <time>2021-08-10T12:17:10.366Z</time>
      </trkpt>
      <trkpt lat="46.91829" lon="8.58452">
        <ele>893</ele>
        <time>2021-08-10T12:17:11.366Z</time>
      </trkpt>
      <trkpt lat="46.91828" lon="8.58452">
        <ele>893</ele>
        <time>2021-08-10T12:17:12.366Z</time>
      </trkpt>
      <trkpt lat="46.91827" lon="8.58451">
        <ele>893</ele>
        <time>2021-08-10T12:17:13.366Z</time>
      </trkpt>
      <trkpt lat="46.91826" lon="8.58451">
        <ele>893</ele>
        <time>2021-08-10T12:17:14.366Z</time>
      </trkpt>
      <trkpt lat="46.91825" lon="8.5845">
        <ele>893</ele>
        <time>2021-08-10T12:17:15.366Z</time>
      </trkpt>
      <trkpt lat="46.91824" lon="8.58448">
        <ele>894</ele>
        <time>2021-08-10T12:17:16.367Z</time>
      </trkpt>
      <trkpt lat="46.91823" lon="8.58448">
        <ele>894</ele>
        <time>2021-08-10T12:17:17.366Z</time>
      </trkpt>
      <trkpt lat="46.91822" lon="8.58446">
        <ele>894</ele>
        <time>2021-08-10T12:17:18.366Z</time>
      </trkpt>
      <trkpt lat="46.91821" lon="8.58446">
        <ele>894</ele>
        <time>2021-08-10T12:17:19.367Z</time>
      </trkpt>
      <trkpt lat="46.91821" lon="8.58445">
        <ele>894</ele>
        <time>2021-08-10T12:17:20.366Z</time>
      </trkpt>
      <trkpt lat="46.9182" lon="8.58444">
        <ele>894</ele>
        <time>2021-08-10T12:17:21.367Z</time>
      </trkpt>
      <trkpt lat="46.91819" lon="8.58443">
        <ele>894</ele>
        <time>2021-08-10T12:17:22.367Z</time>
      </trkpt>
      <trkpt lat="46.91818" lon="8.58442">
        <ele>894</ele>
        <time>2021-08-10T12:17:23.366Z</time>
      </trkpt>
      <trkpt lat="46.91817" lon="8.58441">
        <ele>894</ele>
        <time>2021-08-10T12:17:24.367Z</time>
      </trkpt>
      <trkpt lat="46.91816" lon="8.5844">
        <ele>894</ele>
        <time>2021-08-10T12:17:25.366Z</time>
      </trkpt>
      <trkpt lat="46.91815" lon="8.58439">
        <ele>893</ele>
        <time>2021-08-10T12:17:26.366Z</time>
      </trkpt>
      <trkpt lat="46.91814" lon="8.58438">
        <ele>893</ele>
        <time>2021-08-10T12:17:27.366Z</time>
      </trkpt>
      <trkpt lat="46.91813" lon="8.58436">
        <ele>893</ele>
        <time>2021-08-10T12:17:28.366Z</time>
      </trkpt>
      <trkpt lat="46.91812" lon="8.58436">
        <ele>893</ele>
        <time>2021-08-10T12:17:29.366Z</time>
      </trkpt>
      <trkpt lat="46.91811" lon="8.58435">
        <ele>892</ele>
        <time>2021-08-10T12:17:30.367Z</time>
      </trkpt>
      <trkpt lat="46.9181" lon="8.58434">
        <ele>892</ele>
        <time>2021-08-10T12:17:31.366Z</time>
      </trkpt>
      <trkpt lat="46.91809" lon="8.58433">
        <ele>892</ele>
        <time>2021-08-10T12:17:32.367Z</time>
      </trkpt>
      <trkpt lat="46.91808" lon="8.58432">
        <ele>892</ele>
        <time>2021-08-10T12:17:33.367Z</time>
      </trkpt>
      <trkpt lat="46.91807" lon="8.58432">
        <ele>892</ele>
        <time>2021-08-10T12:17:34.366Z</time>
      </trkpt>
      <trkpt lat="46.91806" lon="8.58431">
        <ele>892</ele>
        <time>2021-08-10T12:17:35.366Z</time>
      </trkpt>
      <trkpt lat="46.91805" lon="8.5843">
        <ele>892</ele>
        <time>2021-08-10T12:17:36.366Z</time>
      </trkpt>
      <trkpt lat="46.91805" lon="8.5843">
        <ele>892</ele>
        <time>2021-08-10T12:17:37.367Z</time>
      </trkpt>
      <trkpt lat="46.91804" lon="8.58429">
        <ele>892</ele>
        <time>2021-08-10T12:17:38.367Z</time>
      </trkpt>
      <trkpt lat="46.91803" lon="8.58428">
        <ele>892</ele>
        <time>2021-08-10T12:17:39.366Z</time>
      </trkpt>
      <trkpt lat="46.91802" lon="8.58427">
        <ele>892</ele>
        <time>2021-08-10T12:17:40.367Z</time>
      </trkpt>
      <trkpt lat="46.91801" lon="8.58426">
        <ele>892</ele>
        <time>2021-08-10T12:17:41.367Z</time>
      </trkpt>
      <trkpt lat="46.91801" lon="8.58425">
        <ele>892</ele>
        <time>2021-08-10T12:17:42.367Z</time>
      </trkpt>
      <trkpt lat="46.918" lon="8.58424">
        <ele>892</ele>
        <time>2021-08-10T12:17:43.366Z</time>
      </trkpt>
      <trkpt lat="46.91799" lon="8.58423">
        <ele>892</ele>
        <time>2021-08-10T12:17:44.367Z</time>
      </trkpt>
      <trkpt lat="46.91798" lon="8.58422">
        <ele>892</ele>
        <time>2021-08-10T12:17:45.367Z</time>
      </trkpt>
      <trkpt lat="46.91798" lon="8.58421">
        <ele>892</ele>
        <time>2021-08-10T12:17:46.367Z</time>
      </trkpt>
      <trkpt lat="46.91797" lon="8.5842">
        <ele>892</ele>
        <time>2021-08-10T12:17:47.367Z</time>
      </trkpt>
      <trkpt lat="46.91796" lon="8.58419">
        <ele>892</ele>
        <time>2021-08-10T12:17:48.367Z</time>
      </trkpt>
      <trkpt lat="46.91795" lon="8.58418">
        <ele>892</ele>
        <time>2021-08-10T12:17:49.367Z</time>
      </trkpt>
      <trkpt lat="46.91794" lon="8.58417">
        <ele>892</ele>
        <time>2021-08-10T12:17:50.366Z</time>
      </trkpt>
      <trkpt lat="46.91793" lon="8.58416">
        <ele>893</ele>
        <time>2021-08-10T12:17:51.366Z</time>
      </trkpt>
      <trkpt lat="46.91792" lon="8.58415">
        <ele>893</ele>
        <time>2021-08-10T12:17:52.367Z</time>
      </trkpt>
      <trkpt lat="46.91791" lon="8.58414">
        <ele>893</ele>
        <time>2021-08-10T12:17:53.367Z</time>
      </trkpt>
      <trkpt lat="46.91791" lon="8.58413">
        <ele>893</ele>
        <time>2021-08-10T12:17:54.366Z</time>
      </trkpt>
      <trkpt lat="46.9179" lon="8.58412">
        <ele>893</ele>
        <time>2021-08-10T12:17:55.366Z</time>
      </trkpt>
      <trkpt lat="46.91789" lon="8.58411">
        <ele>893</ele>
        <time>2021-08-10T12:17:56.367Z</time>
      </trkpt>
      <trkpt lat="46.91788" lon="8.58409">
        <ele>893</ele>
        <time>2021-08-10T12:17:57.366Z</time>
      </trkpt>
      <trkpt lat="46.91787" lon="8.58409">
        <ele>893</ele>
        <time>2021-08-10T12:17:58.366Z</time>
      </trkpt>
      <trkpt lat="46.91787" lon="8.58408">
        <ele>892</ele>
        <time>2021-08-10T12:17:59.367Z</time>
      </trkpt>
      <trkpt lat="46.91786" lon="8.58407">
        <ele>892</ele>
        <time>2021-08-10T12:18:00.367Z</time>
      </trkpt>
      <trkpt lat="46.91785" lon="8.58406">
        <ele>892</ele>
        <time>2021-08-10T12:18:01.367Z</time>
      </trkpt>
      <trkpt lat="46.91785" lon="8.58405">
        <ele>891</ele>
        <time>2021-08-10T12:18:02.367Z</time>
      </trkpt>
      <trkpt lat="46.91784" lon="8.58404">
        <ele>891</ele>
        <time>2021-08-10T12:18:03.366Z</time>
      </trkpt>
      <trkpt lat="46.91783" lon="8.58403">
        <ele>891</ele>
        <time>2021-08-10T12:18:04.367Z</time>
      </trkpt>
      <trkpt lat="46.91783" lon="8.58402">
        <ele>890</ele>
        <time>2021-08-10T12:18:05.366Z</time>
      </trkpt>
      <trkpt lat="46.91782" lon="8.584">
        <ele>890</ele>
        <time>2021-08-10T12:18:06.366Z</time>
      </trkpt>
      <trkpt lat="46.91781" lon="8.58399">
        <ele>889</ele>
        <time>2021-08-10T12:18:07.367Z</time>
      </trkpt>
      <trkpt lat="46.9178" lon="8.58398">
        <ele>889</ele>
        <time>2021-08-10T12:18:08.367Z</time>
      </trkpt>
      <trkpt lat="46.91779" lon="8.58396">
        <ele>888</ele>
        <time>2021-08-10T12:18:09.366Z</time>
      </trkpt>
      <trkpt lat="46.91778" lon="8.58395">
        <ele>888</ele>
        <time>2021-08-10T12:18:10.367Z</time>
      </trkpt>
      <trkpt lat="46.91778" lon="8.58394">
        <ele>888</ele>
        <time>2021-08-10T12:18:11.366Z</time>
      </trkpt>
      <trkpt lat="46.91777" lon="8.58392">
        <ele>887</ele>
        <time>2021-08-10T12:18:12.367Z</time>
      </trkpt>
      <trkpt lat="46.91776" lon="8.5839">
        <ele>887</ele>
        <time>2021-08-10T12:18:13.366Z</time>
      </trkpt>
      <trkpt lat="46.91776" lon="8.58388">
        <ele>886</ele>
        <time>2021-08-10T12:18:14.366Z</time>
      </trkpt>
      <trkpt lat="46.91775" lon="8.58387">
        <ele>886</ele>
        <time>2021-08-10T12:18:15.367Z</time>
      </trkpt>
      <trkpt lat="46.91775" lon="8.58385">
        <ele>886</ele>
        <time>2021-08-10T12:18:16.367Z</time>
      </trkpt>
      <trkpt lat="46.91773" lon="8.58382">
        <ele>886</ele>
        <time>2021-08-10T12:18:17.367Z</time>
      </trkpt>
      <trkpt lat="46.91773" lon="8.58381">
        <ele>886</ele>
        <time>2021-08-10T12:18:18.367Z</time>
      </trkpt>
      <trkpt lat="46.91772" lon="8.58381">
        <ele>887</ele>
        <time>2021-08-10T12:18:19.367Z</time>
      </trkpt>
      <trkpt lat="46.91772" lon="8.58381">
        <ele>887</ele>
        <time>2021-08-10T12:18:20.367Z</time>
      </trkpt>
      <trkpt lat="46.91772" lon="8.58381">
        <ele>887</ele>
        <time>2021-08-10T12:18:21.366Z</time>
      </trkpt>
      <trkpt lat="46.91772" lon="8.58388">
        <ele>887</ele>
        <time>2021-08-10T12:18:22.367Z</time>
      </trkpt>
      <trkpt lat="46.91773" lon="8.5839">
        <ele>887</ele>
        <time>2021-08-10T12:18:23.367Z</time>
      </trkpt>
      <trkpt lat="46.91773" lon="8.58392">
        <ele>887</ele>
        <time>2021-08-10T12:18:24.367Z</time>
      </trkpt>
      <trkpt lat="46.91773" lon="8.58393">
        <ele>887</ele>
        <time>2021-08-10T12:18:25.367Z</time>
      </trkpt>
      <trkpt lat="46.91773" lon="8.58395">
        <ele>887</ele>
        <time>2021-08-10T12:18:26.367Z</time>
      </trkpt>
      <trkpt lat="46.91773" lon="8.58397">
        <ele>888</ele>
        <time>2021-08-10T12:18:28.464Z</time>
      </trkpt>
      <trkpt lat="46.9177" lon="8.58401">
        <ele>885</ele>
        <time>2021-08-10T12:18:29.466Z</time>
      </trkpt>
      <trkpt lat="46.91771" lon="8.584">
        <ele>886</ele>
        <time>2021-08-10T12:18:30.465Z</time>
      </trkpt>
      <trkpt lat="46.91771" lon="8.58399">
        <ele>886</ele>
        <time>2021-08-10T12:18:31.466Z</time>
      </trkpt>
      <trkpt lat="46.91771" lon="8.58398">
        <ele>887</ele>
        <time>2021-08-10T12:18:32.465Z</time>
      </trkpt>
      <trkpt lat="46.9177" lon="8.58395">
        <ele>892</ele>
        <time>2021-08-10T12:18:33.466Z</time>
      </trkpt>
      <trkpt lat="46.9177" lon="8.58394">
        <ele>892</ele>
        <time>2021-08-10T12:18:34.465Z</time>
      </trkpt>
      <trkpt lat="46.9177" lon="8.58392">
        <ele>892</ele>
        <time>2021-08-10T12:18:35.465Z</time>
      </trkpt>
      <trkpt lat="46.9177" lon="8.58391">
        <ele>891</ele>
        <time>2021-08-10T12:18:36.466Z</time>
      </trkpt>
      <trkpt lat="46.9177" lon="8.58389">
        <ele>891</ele>
        <time>2021-08-10T12:18:38.483Z</time>
      </trkpt>
      <trkpt lat="46.91769" lon="8.58388">
        <ele>891</ele>
        <time>2021-08-10T12:18:39.484Z</time>
      </trkpt>
      <trkpt lat="46.91769" lon="8.58387">
        <ele>890</ele>
        <time>2021-08-10T12:18:40.484Z</time>
      </trkpt>
      <trkpt lat="46.91769" lon="8.58388">
        <ele>890</ele>
        <time>2021-08-10T12:18:41.484Z</time>
      </trkpt>
      <trkpt lat="46.91768" lon="8.58388">
        <ele>889</ele>
        <time>2021-08-10T12:18:42.484Z</time>
      </trkpt>
      <trkpt lat="46.91768" lon="8.58386">
        <ele>889</ele>
        <time>2021-08-10T12:18:43.484Z</time>
      </trkpt>
      <trkpt lat="46.91767" lon="8.58385">
        <ele>889</ele>
        <time>2021-08-10T12:18:44.484Z</time>
      </trkpt>
      <trkpt lat="46.91767" lon="8.58384">
        <ele>889</ele>
        <time>2021-08-10T12:18:45.483Z</time>
      </trkpt>
      <trkpt lat="46.91766" lon="8.58383">
        <ele>889</ele>
        <time>2021-08-10T12:18:46.484Z</time>
      </trkpt>
      <trkpt lat="46.91766" lon="8.58382">
        <ele>889</ele>
        <time>2021-08-10T12:18:47.483Z</time>
      </trkpt>
      <trkpt lat="46.91765" lon="8.58381">
        <ele>888</ele>
        <time>2021-08-10T12:18:48.484Z</time>
      </trkpt>
      <trkpt lat="46.91765" lon="8.58379">
        <ele>888</ele>
        <time>2021-08-10T12:18:49.484Z</time>
      </trkpt>
      <trkpt lat="46.91764" lon="8.58377">
        <ele>888</ele>
        <time>2021-08-10T12:18:50.484Z</time>
      </trkpt>
      <trkpt lat="46.91764" lon="8.58376">
        <ele>888</ele>
        <time>2021-08-10T12:18:51.483Z</time>
      </trkpt>
      <trkpt lat="46.91763" lon="8.58374">
        <ele>888</ele>
        <time>2021-08-10T12:18:52.484Z</time>
      </trkpt>
      <trkpt lat="46.91762" lon="8.58372">
        <ele>888</ele>
        <time>2021-08-10T12:18:53.484Z</time>
      </trkpt>
      <trkpt lat="46.91761" lon="8.5837">
        <ele>889</ele>
        <time>2021-08-10T12:18:54.484Z</time>
      </trkpt>
      <trkpt lat="46.9176" lon="8.58368">
        <ele>888</ele>
        <time>2021-08-10T12:18:55.484Z</time>
      </trkpt>
      <trkpt lat="46.9176" lon="8.58367">
        <ele>888</ele>
        <time>2021-08-10T12:18:56.483Z</time>
      </trkpt>
      <trkpt lat="46.91759" lon="8.58367">
        <ele>888</ele>
        <time>2021-08-10T12:18:57.483Z</time>
      </trkpt>
      <trkpt lat="46.91758" lon="8.58365">
        <ele>888</ele>
        <time>2021-08-10T12:18:58.484Z</time>
      </trkpt>
      <trkpt lat="46.91757" lon="8.58363">
        <ele>889</ele>
        <time>2021-08-10T12:18:59.484Z</time>
      </trkpt>
      <trkpt lat="46.91756" lon="8.58361">
        <ele>890</ele>
        <time>2021-08-10T12:19:00.484Z</time>
      </trkpt>
      <trkpt lat="46.91756" lon="8.5836">
        <ele>890</ele>
        <time>2021-08-10T12:19:01.484Z</time>
      </trkpt>
      <trkpt lat="46.91755" lon="8.58358">
        <ele>890</ele>
        <time>2021-08-10T12:19:02.483Z</time>
      </trkpt>
      <trkpt lat="46.91753" lon="8.58357">
        <ele>891</ele>
        <time>2021-08-10T12:19:03.484Z</time>
      </trkpt>
      <trkpt lat="46.91753" lon="8.58356">
        <ele>891</ele>
        <time>2021-08-10T12:19:04.483Z</time>
      </trkpt>
      <trkpt lat="46.91752" lon="8.58354">
        <ele>891</ele>
        <time>2021-08-10T12:19:05.484Z</time>
      </trkpt>
      <trkpt lat="46.91752" lon="8.58353">
        <ele>891</ele>
        <time>2021-08-10T12:19:06.484Z</time>
      </trkpt>
      <trkpt lat="46.91751" lon="8.58352">
        <ele>891</ele>
        <time>2021-08-10T12:19:07.483Z</time>
      </trkpt>
      <trkpt lat="46.9175" lon="8.58351">
        <ele>891</ele>
        <time>2021-08-10T12:19:08.484Z</time>
      </trkpt>
      <trkpt lat="46.91749" lon="8.58349">
        <ele>890</ele>
        <time>2021-08-10T12:19:09.484Z</time>
      </trkpt>
      <trkpt lat="46.91748" lon="8.58348">
        <ele>890</ele>
        <time>2021-08-10T12:19:10.484Z</time>
      </trkpt>
      <trkpt lat="46.91747" lon="8.58347">
        <ele>890</ele>
        <time>2021-08-10T12:19:11.484Z</time>
      </trkpt>
      <trkpt lat="46.91746" lon="8.58346">
        <ele>890</ele>
        <time>2021-08-10T12:19:12.483Z</time>
      </trkpt>
      <trkpt lat="46.91745" lon="8.58345">
        <ele>890</ele>
        <time>2021-08-10T12:19:13.484Z</time>
      </trkpt>
      <trkpt lat="46.91744" lon="8.58343">
        <ele>890</ele>
        <time>2021-08-10T12:19:14.484Z</time>
      </trkpt>
      <trkpt lat="46.91744" lon="8.58341">
        <ele>890</ele>
        <time>2021-08-10T12:19:15.483Z</time>
      </trkpt>
      <trkpt lat="46.91743" lon="8.5834">
        <ele>891</ele>
        <time>2021-08-10T12:19:16.484Z</time>
      </trkpt>
      <trkpt lat="46.91742" lon="8.58338">
        <ele>891</ele>
        <time>2021-08-10T12:19:17.483Z</time>
      </trkpt>
      <trkpt lat="46.91741" lon="8.58337">
        <ele>891</ele>
        <time>2021-08-10T12:19:18.484Z</time>
      </trkpt>
      <trkpt lat="46.9174" lon="8.58336">
        <ele>892</ele>
        <time>2021-08-10T12:19:19.484Z</time>
      </trkpt>
      <trkpt lat="46.91739" lon="8.58335">
        <ele>892</ele>
        <time>2021-08-10T12:19:20.483Z</time>
      </trkpt>
      <trkpt lat="46.91739" lon="8.58334">
        <ele>892</ele>
        <time>2021-08-10T12:19:21.484Z</time>
      </trkpt>
      <trkpt lat="46.91738" lon="8.58333">
        <ele>892</ele>
        <time>2021-08-10T12:19:22.484Z</time>
      </trkpt>
      <trkpt lat="46.91737" lon="8.58332">
        <ele>893</ele>
        <time>2021-08-10T12:19:23.484Z</time>
      </trkpt>
      <trkpt lat="46.91736" lon="8.58331">
        <ele>893</ele>
        <time>2021-08-10T12:19:24.484Z</time>
      </trkpt>
      <trkpt lat="46.91736" lon="8.5833">
        <ele>893</ele>
        <time>2021-08-10T12:19:25.484Z</time>
      </trkpt>
      <trkpt lat="46.91734" lon="8.5833">
        <ele>893</ele>
        <time>2021-08-10T12:19:26.484Z</time>
      </trkpt>
      <trkpt lat="46.91734" lon="8.58329">
        <ele>893</ele>
        <time>2021-08-10T12:19:27.483Z</time>
      </trkpt>
      <trkpt lat="46.91732" lon="8.58326">
        <ele>893</ele>
        <time>2021-08-10T12:19:28.484Z</time>
      </trkpt>
      <trkpt lat="46.91731" lon="8.58324">
        <ele>893</ele>
        <time>2021-08-10T12:19:29.484Z</time>
      </trkpt>
      <trkpt lat="46.91731" lon="8.58325">
        <ele>893</ele>
        <time>2021-08-10T12:19:30.484Z</time>
      </trkpt>
      <trkpt lat="46.91731" lon="8.58324">
        <ele>894</ele>
        <time>2021-08-10T12:19:31.484Z</time>
      </trkpt>
      <trkpt lat="46.9173" lon="8.58323">
        <ele>894</ele>
        <time>2021-08-10T12:19:32.483Z</time>
      </trkpt>
      <trkpt lat="46.91729" lon="8.58323">
        <ele>894</ele>
        <time>2021-08-10T12:19:33.484Z</time>
      </trkpt>
      <trkpt lat="46.91728" lon="8.58321">
        <ele>895</ele>
        <time>2021-08-10T12:19:34.484Z</time>
      </trkpt>
      <trkpt lat="46.91728" lon="8.5832">
        <ele>895</ele>
        <time>2021-08-10T12:19:35.484Z</time>
      </trkpt>
      <trkpt lat="46.91727" lon="8.58318">
        <ele>895</ele>
        <time>2021-08-10T12:19:36.483Z</time>
      </trkpt>
      <trkpt lat="46.91726" lon="8.58316">
        <ele>896</ele>
        <time>2021-08-10T12:19:37.483Z</time>
      </trkpt>
      <trkpt lat="46.91725" lon="8.58315">
        <ele>896</ele>
        <time>2021-08-10T12:19:38.483Z</time>
      </trkpt>
      <trkpt lat="46.91725" lon="8.58315">
        <ele>896</ele>
        <time>2021-08-10T12:19:39.484Z</time>
      </trkpt>
      <trkpt lat="46.91724" lon="8.58314">
        <ele>896</ele>
        <time>2021-08-10T12:19:40.483Z</time>
      </trkpt>
      <trkpt lat="46.91723" lon="8.58313">
        <ele>896</ele>
        <time>2021-08-10T12:19:41.483Z</time>
      </trkpt>
      <trkpt lat="46.91723" lon="8.58312">
        <ele>896</ele>
        <time>2021-08-10T12:19:42.483Z</time>
      </trkpt>
      <trkpt lat="46.91723" lon="8.58311">
        <ele>896</ele>
        <time>2021-08-10T12:19:43.483Z</time>
      </trkpt>
      <trkpt lat="46.91722" lon="8.5831">
        <ele>896</ele>
        <time>2021-08-10T12:19:44.483Z</time>
      </trkpt>
      <trkpt lat="46.91721" lon="8.5831">
        <ele>896</ele>
        <time>2021-08-10T12:19:45.483Z</time>
      </trkpt>
      <trkpt lat="46.91721" lon="8.58309">
        <ele>896</ele>
        <time>2021-08-10T12:19:46.483Z</time>
      </trkpt>
      <trkpt lat="46.9172" lon="8.58308">
        <ele>896</ele>
        <time>2021-08-10T12:19:47.483Z</time>
      </trkpt>
      <trkpt lat="46.9172" lon="8.58308">
        <ele>896</ele>
        <time>2021-08-10T12:19:48.483Z</time>
      </trkpt>
      <trkpt lat="46.91719" lon="8.58307">
        <ele>896</ele>
        <time>2021-08-10T12:19:49.483Z</time>
      </trkpt>
      <trkpt lat="46.91719" lon="8.58306">
        <ele>896</ele>
        <time>2021-08-10T12:19:50.483Z</time>
      </trkpt>
      <trkpt lat="46.91718" lon="8.58305">
        <ele>896</ele>
        <time>2021-08-10T12:19:51.483Z</time>
      </trkpt>
      <trkpt lat="46.91718" lon="8.58304">
        <ele>897</ele>
        <time>2021-08-10T12:19:52.483Z</time>
      </trkpt>
      <trkpt lat="46.91717" lon="8.58303">
        <ele>897</ele>
        <time>2021-08-10T12:19:53.483Z</time>
      </trkpt>
      <trkpt lat="46.91717" lon="8.58301">
        <ele>897</ele>
        <time>2021-08-10T12:19:54.483Z</time>
      </trkpt>
      <trkpt lat="46.91716" lon="8.583">
        <ele>897</ele>
        <time>2021-08-10T12:19:55.483Z</time>
      </trkpt>
      <trkpt lat="46.91715" lon="8.58299">
        <ele>897</ele>
        <time>2021-08-10T12:19:56.483Z</time>
      </trkpt>
      <trkpt lat="46.91715" lon="8.58298">
        <ele>897</ele>
        <time>2021-08-10T12:19:57.484Z</time>
      </trkpt>
      <trkpt lat="46.91714" lon="8.58296">
        <ele>897</ele>
        <time>2021-08-10T12:19:58.483Z</time>
      </trkpt>
      <trkpt lat="46.91714" lon="8.58295">
        <ele>897</ele>
        <time>2021-08-10T12:19:59.484Z</time>
      </trkpt>
      <trkpt lat="46.91714" lon="8.58294">
        <ele>897</ele>
        <time>2021-08-10T12:20:00.484Z</time>
      </trkpt>
      <trkpt lat="46.91714" lon="8.58293">
        <ele>897</ele>
        <time>2021-08-10T12:20:01.484Z</time>
      </trkpt>
      <trkpt lat="46.91714" lon="8.58292">
        <ele>897</ele>
        <time>2021-08-10T12:20:02.484Z</time>
      </trkpt>
      <trkpt lat="46.91714" lon="8.58291">
        <ele>897</ele>
        <time>2021-08-10T12:20:03.484Z</time>
      </trkpt>
      <trkpt lat="46.91713" lon="8.58289">
        <ele>898</ele>
        <time>2021-08-10T12:20:04.484Z</time>
      </trkpt>
      <trkpt lat="46.91713" lon="8.58287">
        <ele>898</ele>
        <time>2021-08-10T12:20:05.484Z</time>
      </trkpt>
      <trkpt lat="46.91712" lon="8.58285">
        <ele>898</ele>
        <time>2021-08-10T12:20:06.483Z</time>
      </trkpt>
      <trkpt lat="46.91712" lon="8.58283">
        <ele>899</ele>
        <time>2021-08-10T12:20:07.483Z</time>
      </trkpt>
      <trkpt lat="46.91711" lon="8.58282">
        <ele>899</ele>
        <time>2021-08-10T12:20:08.484Z</time>
      </trkpt>
      <trkpt lat="46.91711" lon="8.58281">
        <ele>900</ele>
        <time>2021-08-10T12:20:09.484Z</time>
      </trkpt>
      <trkpt lat="46.91711" lon="8.5828">
        <ele>900</ele>
        <time>2021-08-10T12:20:10.484Z</time>
      </trkpt>
      <trkpt lat="46.9171" lon="8.58278">
        <ele>900</ele>
        <time>2021-08-10T12:20:11.483Z</time>
      </trkpt>
      <trkpt lat="46.91709" lon="8.58277">
        <ele>900</ele>
        <time>2021-08-10T12:20:12.484Z</time>
      </trkpt>
      <trkpt lat="46.91708" lon="8.58275">
        <ele>900</ele>
        <time>2021-08-10T12:20:13.483Z</time>
      </trkpt>
      <trkpt lat="46.91708" lon="8.58273">
        <ele>900</ele>
        <time>2021-08-10T12:20:14.483Z</time>
      </trkpt>
      <trkpt lat="46.91707" lon="8.58272">
        <ele>900</ele>
        <time>2021-08-10T12:20:15.484Z</time>
      </trkpt>
      <trkpt lat="46.91707" lon="8.5827">
        <ele>900</ele>
        <time>2021-08-10T12:20:16.484Z</time>
      </trkpt>
      <trkpt lat="46.91706" lon="8.58269">
        <ele>900</ele>
        <time>2021-08-10T12:20:17.484Z</time>
      </trkpt>
      <trkpt lat="46.91705" lon="8.58267">
        <ele>901</ele>
        <time>2021-08-10T12:20:18.483Z</time>
      </trkpt>
      <trkpt lat="46.91705" lon="8.58266">
        <ele>901</ele>
        <time>2021-08-10T12:20:19.484Z</time>
      </trkpt>
      <trkpt lat="46.91704" lon="8.58265">
        <ele>901</ele>
        <time>2021-08-10T12:20:20.483Z</time>
      </trkpt>
      <trkpt lat="46.91704" lon="8.58264">
        <ele>901</ele>
        <time>2021-08-10T12:20:21.484Z</time>
      </trkpt>
      <trkpt lat="46.91703" lon="8.58263">
        <ele>901</ele>
        <time>2021-08-10T12:20:22.484Z</time>
      </trkpt>
      <trkpt lat="46.91703" lon="8.58262">
        <ele>901</ele>
        <time>2021-08-10T12:20:23.483Z</time>
      </trkpt>
      <trkpt lat="46.91703" lon="8.58261">
        <ele>901</ele>
        <time>2021-08-10T12:20:24.483Z</time>
      </trkpt>
      <trkpt lat="46.91702" lon="8.58259">
        <ele>901</ele>
        <time>2021-08-10T12:20:25.484Z</time>
      </trkpt>
      <trkpt lat="46.91702" lon="8.58258">
        <ele>901</ele>
        <time>2021-08-10T12:20:26.483Z</time>
      </trkpt>
      <trkpt lat="46.91701" lon="8.58257">
        <ele>901</ele>
        <time>2021-08-10T12:20:27.484Z</time>
      </trkpt>
      <trkpt lat="46.91701" lon="8.58257">
        <ele>901</ele>
        <time>2021-08-10T12:20:28.484Z</time>
      </trkpt>
      <trkpt lat="46.917" lon="8.58256">
        <ele>902</ele>
        <time>2021-08-10T12:20:29.483Z</time>
      </trkpt>
      <trkpt lat="46.917" lon="8.58256">
        <ele>903</ele>
        <time>2021-08-10T12:20:30.483Z</time>
      </trkpt>
      <trkpt lat="46.91699" lon="8.58255">
        <ele>903</ele>
        <time>2021-08-10T12:20:31.483Z</time>
      </trkpt>
      <trkpt lat="46.91698" lon="8.58254">
        <ele>903</ele>
        <time>2021-08-10T12:20:32.484Z</time>
      </trkpt>
      <trkpt lat="46.91698" lon="8.58253">
        <ele>904</ele>
        <time>2021-08-10T12:20:33.484Z</time>
      </trkpt>
      <trkpt lat="46.91698" lon="8.58251">
        <ele>904</ele>
        <time>2021-08-10T12:20:34.484Z</time>
      </trkpt>
      <trkpt lat="46.91697" lon="8.5825">
        <ele>904</ele>
        <time>2021-08-10T12:20:35.483Z</time>
      </trkpt>
      <trkpt lat="46.91696" lon="8.58249">
        <ele>904</ele>
        <time>2021-08-10T12:20:36.483Z</time>
      </trkpt>
      <trkpt lat="46.91696" lon="8.58249">
        <ele>905</ele>
        <time>2021-08-10T12:20:37.483Z</time>
      </trkpt>
      <trkpt lat="46.91695" lon="8.58248">
        <ele>905</ele>
        <time>2021-08-10T12:20:38.483Z</time>
      </trkpt>
      <trkpt lat="46.91695" lon="8.58247">
        <ele>905</ele>
        <time>2021-08-10T12:20:39.484Z</time>
      </trkpt>
      <trkpt lat="46.91694" lon="8.58246">
        <ele>905</ele>
        <time>2021-08-10T12:20:40.484Z</time>
      </trkpt>
      <trkpt lat="46.91694" lon="8.58246">
        <ele>905</ele>
        <time>2021-08-10T12:20:41.484Z</time>
      </trkpt>
      <trkpt lat="46.91693" lon="8.58246">
        <ele>905</ele>
        <time>2021-08-10T12:20:42.483Z</time>
      </trkpt>
      <trkpt lat="46.91693" lon="8.58246">
        <ele>905</ele>
        <time>2021-08-10T12:20:43.484Z</time>
      </trkpt>
      <trkpt lat="46.91692" lon="8.58245">
        <ele>904</ele>
        <time>2021-08-10T12:20:44.483Z</time>
      </trkpt>
      <trkpt lat="46.91691" lon="8.58245">
        <ele>904</ele>
        <time>2021-08-10T12:20:45.483Z</time>
      </trkpt>
      <trkpt lat="46.9169" lon="8.58244">
        <ele>903</ele>
        <time>2021-08-10T12:20:46.483Z</time>
      </trkpt>
      <trkpt lat="46.91689" lon="8.58244">
        <ele>903</ele>
        <time>2021-08-10T12:20:47.483Z</time>
      </trkpt>
      <trkpt lat="46.91689" lon="8.58243">
        <ele>903</ele>
        <time>2021-08-10T12:20:48.484Z</time>
      </trkpt>
      <trkpt lat="46.91688" lon="8.58243">
        <ele>902</ele>
        <time>2021-08-10T12:20:49.483Z</time>
      </trkpt>
      <trkpt lat="46.91687" lon="8.58243">
        <ele>901</ele>
        <time>2021-08-10T12:20:50.484Z</time>
      </trkpt>
      <trkpt lat="46.91686" lon="8.58241">
        <ele>901</ele>
        <time>2021-08-10T12:20:51.484Z</time>
      </trkpt>
      <trkpt lat="46.91685" lon="8.58239">
        <ele>901</ele>
        <time>2021-08-10T12:20:52.484Z</time>
      </trkpt>
      <trkpt lat="46.91684" lon="8.58237">
        <ele>900</ele>
        <time>2021-08-10T12:20:53.484Z</time>
      </trkpt>
      <trkpt lat="46.91683" lon="8.58236">
        <ele>900</ele>
        <time>2021-08-10T12:20:54.484Z</time>
      </trkpt>
      <trkpt lat="46.91682" lon="8.58234">
        <ele>900</ele>
        <time>2021-08-10T12:20:55.484Z</time>
      </trkpt>
      <trkpt lat="46.91681" lon="8.58232">
        <ele>900</ele>
        <time>2021-08-10T12:20:56.483Z</time>
      </trkpt>
      <trkpt lat="46.91681" lon="8.58232">
        <ele>900</ele>
        <time>2021-08-10T12:20:57.484Z</time>
      </trkpt>
      <trkpt lat="46.9168" lon="8.58231">
        <ele>900</ele>
        <time>2021-08-10T12:20:58.483Z</time>
      </trkpt>
      <trkpt lat="46.9168" lon="8.5823">
        <ele>899</ele>
        <time>2021-08-10T12:20:59.484Z</time>
      </trkpt>
      <trkpt lat="46.9168" lon="8.58229">
        <ele>899</ele>
        <time>2021-08-10T12:21:00.484Z</time>
      </trkpt>
      <trkpt lat="46.91679" lon="8.58227">
        <ele>899</ele>
        <time>2021-08-10T12:21:01.484Z</time>
      </trkpt>
      <trkpt lat="46.91679" lon="8.58226">
        <ele>898</ele>
        <time>2021-08-10T12:21:02.484Z</time>
      </trkpt>
      <trkpt lat="46.91678" lon="8.58225">
        <ele>898</ele>
        <time>2021-08-10T12:21:03.483Z</time>
      </trkpt>
      <trkpt lat="46.91678" lon="8.58224">
        <ele>898</ele>
        <time>2021-08-10T12:21:04.484Z</time>
      </trkpt>
      <trkpt lat="46.91678" lon="8.58223">
        <ele>898</ele>
        <time>2021-08-10T12:21:05.484Z</time>
      </trkpt>
      <trkpt lat="46.91677" lon="8.58222">
        <ele>897</ele>
        <time>2021-08-10T12:21:06.483Z</time>
      </trkpt>
      <trkpt lat="46.91677" lon="8.58222">
        <ele>897</ele>
        <time>2021-08-10T12:21:07.484Z</time>
      </trkpt>
      <trkpt lat="46.91677" lon="8.58222">
        <ele>897</ele>
        <time>2021-08-10T12:21:08.484Z</time>
      </trkpt>
      <trkpt lat="46.91676" lon="8.58219">
        <ele>897</ele>
        <time>2021-08-10T12:21:09.484Z</time>
      </trkpt>
      <trkpt lat="46.91675" lon="8.58218">
        <ele>897</ele>
        <time>2021-08-10T12:21:10.484Z</time>
      </trkpt>
      <trkpt lat="46.91674" lon="8.58217">
        <ele>898</ele>
        <time>2021-08-10T12:21:11.484Z</time>
      </trkpt>
      <trkpt lat="46.91674" lon="8.58215">
        <ele>898</ele>
        <time>2021-08-10T12:21:12.484Z</time>
      </trkpt>
      <trkpt lat="46.91673" lon="8.58213">
        <ele>898</ele>
        <time>2021-08-10T12:21:13.483Z</time>
      </trkpt>
      <trkpt lat="46.91672" lon="8.58211">
        <ele>899</ele>
        <time>2021-08-10T12:21:14.484Z</time>
      </trkpt>
      <trkpt lat="46.91672" lon="8.58209">
        <ele>899</ele>
        <time>2021-08-10T12:21:15.484Z</time>
      </trkpt>
      <trkpt lat="46.91671" lon="8.58207">
        <ele>900</ele>
        <time>2021-08-10T12:21:16.484Z</time>
      </trkpt>
      <trkpt lat="46.9167" lon="8.58205">
        <ele>900</ele>
        <time>2021-08-10T12:21:17.483Z</time>
      </trkpt>
      <trkpt lat="46.9167" lon="8.58204">
        <ele>900</ele>
        <time>2021-08-10T12:21:18.484Z</time>
      </trkpt>
      <trkpt lat="46.9167" lon="8.58203">
        <ele>900</ele>
        <time>2021-08-10T12:21:19.483Z</time>
      </trkpt>
      <trkpt lat="46.91669" lon="8.58202">
        <ele>900</ele>
        <time>2021-08-10T12:21:20.483Z</time>
      </trkpt>
      <trkpt lat="46.91669" lon="8.58202">
        <ele>900</ele>
        <time>2021-08-10T12:21:21.484Z</time>
      </trkpt>
      <trkpt lat="46.91669" lon="8.58202">
        <ele>900</ele>
        <time>2021-08-10T12:21:22.483Z</time>
      </trkpt>
      <trkpt lat="46.91668" lon="8.58202">
        <ele>899</ele>
        <time>2021-08-10T12:21:23.484Z</time>
      </trkpt>
      <trkpt lat="46.91667" lon="8.58201">
        <ele>899</ele>
        <time>2021-08-10T12:21:24.484Z</time>
      </trkpt>
      <trkpt lat="46.91667" lon="8.582">
        <ele>899</ele>
        <time>2021-08-10T12:21:25.483Z</time>
      </trkpt>
      <trkpt lat="46.91667" lon="8.58199">
        <ele>899</ele>
        <time>2021-08-10T12:21:26.484Z</time>
      </trkpt>
      <trkpt lat="46.91666" lon="8.58198">
        <ele>899</ele>
        <time>2021-08-10T12:21:27.484Z</time>
      </trkpt>
      <trkpt lat="46.91666" lon="8.58197">
        <ele>899</ele>
        <time>2021-08-10T12:21:28.483Z</time>
      </trkpt>
      <trkpt lat="46.91665" lon="8.58196">
        <ele>899</ele>
        <time>2021-08-10T12:21:29.484Z</time>
      </trkpt>
      <trkpt lat="46.91664" lon="8.58194">
        <ele>900</ele>
        <time>2021-08-10T12:21:30.484Z</time>
      </trkpt>
      <trkpt lat="46.91663" lon="8.58193">
        <ele>900</ele>
        <time>2021-08-10T12:21:31.484Z</time>
      </trkpt>
      <trkpt lat="46.91663" lon="8.58192">
        <ele>901</ele>
        <time>2021-08-10T12:21:32.484Z</time>
      </trkpt>
      <trkpt lat="46.91663" lon="8.58192">
        <ele>901</ele>
        <time>2021-08-10T12:21:33.483Z</time>
      </trkpt>
      <trkpt lat="46.91663" lon="8.58191">
        <ele>902</ele>
        <time>2021-08-10T12:21:34.483Z</time>
      </trkpt>
      <trkpt lat="46.91662" lon="8.5819">
        <ele>902</ele>
        <time>2021-08-10T12:21:35.483Z</time>
      </trkpt>
      <trkpt lat="46.91662" lon="8.58188">
        <ele>903</ele>
        <time>2021-08-10T12:21:36.483Z</time>
      </trkpt>
      <trkpt lat="46.91661" lon="8.58187">
        <ele>903</ele>
        <time>2021-08-10T12:21:37.484Z</time>
      </trkpt>
      <trkpt lat="46.91661" lon="8.58186">
        <ele>904</ele>
        <time>2021-08-10T12:21:38.483Z</time>
      </trkpt>
      <trkpt lat="46.9166" lon="8.58184">
        <ele>905</ele>
        <time>2021-08-10T12:21:39.483Z</time>
      </trkpt>
      <trkpt lat="46.91659" lon="8.58182">
        <ele>906</ele>
        <time>2021-08-10T12:21:40.483Z</time>
      </trkpt>
      <trkpt lat="46.91658" lon="8.5818">
        <ele>907</ele>
        <time>2021-08-10T12:21:41.483Z</time>
      </trkpt>
      <trkpt lat="46.91657" lon="8.58179">
        <ele>907</ele>
        <time>2021-08-10T12:21:42.484Z</time>
      </trkpt>
      <trkpt lat="46.91656" lon="8.58177">
        <ele>908</ele>
        <time>2021-08-10T12:21:43.483Z</time>
      </trkpt>
      <trkpt lat="46.91656" lon="8.58175">
        <ele>908</ele>
        <time>2021-08-10T12:21:44.483Z</time>
      </trkpt>
      <trkpt lat="46.91655" lon="8.58172">
        <ele>908</ele>
        <time>2021-08-10T12:21:45.483Z</time>
      </trkpt>
      <trkpt lat="46.91653" lon="8.5817">
        <ele>908</ele>
        <time>2021-08-10T12:21:46.484Z</time>
      </trkpt>
      <trkpt lat="46.91653" lon="8.58169">
        <ele>909</ele>
        <time>2021-08-10T12:21:47.483Z</time>
      </trkpt>
      <trkpt lat="46.91652" lon="8.58167">
        <ele>910</ele>
        <time>2021-08-10T12:21:48.483Z</time>
      </trkpt>
      <trkpt lat="46.91651" lon="8.58166">
        <ele>910</ele>
        <time>2021-08-10T12:21:49.483Z</time>
      </trkpt>
      <trkpt lat="46.9165" lon="8.58165">
        <ele>910</ele>
        <time>2021-08-10T12:21:50.483Z</time>
      </trkpt>
      <trkpt lat="46.9165" lon="8.58163">
        <ele>911</ele>
        <time>2021-08-10T12:21:51.483Z</time>
      </trkpt>
      <trkpt lat="46.91649" lon="8.58162">
        <ele>911</ele>
        <time>2021-08-10T12:21:52.483Z</time>
      </trkpt>
      <trkpt lat="46.91649" lon="8.58161">
        <ele>911</ele>
        <time>2021-08-10T12:21:53.484Z</time>
      </trkpt>
      <trkpt lat="46.91649" lon="8.5816">
        <ele>911</ele>
        <time>2021-08-10T12:21:54.483Z</time>
      </trkpt>
      <trkpt lat="46.91649" lon="8.5816">
        <ele>911</ele>
        <time>2021-08-10T12:21:55.483Z</time>
      </trkpt>
      <trkpt lat="46.91649" lon="8.58159">
        <ele>911</ele>
        <time>2021-08-10T12:21:56.483Z</time>
      </trkpt>
      <trkpt lat="46.91648" lon="8.58158">
        <ele>911</ele>
        <time>2021-08-10T12:21:57.483Z</time>
      </trkpt>
      <trkpt lat="46.91648" lon="8.58156">
        <ele>911</ele>
        <time>2021-08-10T12:21:58.483Z</time>
      </trkpt>
      <trkpt lat="46.91648" lon="8.58155">
        <ele>911</ele>
        <time>2021-08-10T12:21:59.483Z</time>
      </trkpt>
      <trkpt lat="46.91647" lon="8.58155">
        <ele>911</ele>
        <time>2021-08-10T12:22:00.483Z</time>
      </trkpt>
      <trkpt lat="46.91647" lon="8.58155">
        <ele>911</ele>
        <time>2021-08-10T12:22:01.483Z</time>
      </trkpt>
      <trkpt lat="46.91647" lon="8.58154">
        <ele>911</ele>
        <time>2021-08-10T12:22:02.484Z</time>
      </trkpt>
      <trkpt lat="46.91647" lon="8.58154">
        <ele>910</ele>
        <time>2021-08-10T12:22:03.483Z</time>
      </trkpt>
      <trkpt lat="46.91646" lon="8.58153">
        <ele>910</ele>
        <time>2021-08-10T12:22:04.483Z</time>
      </trkpt>
      <trkpt lat="46.91645" lon="8.58152">
        <ele>910</ele>
        <time>2021-08-10T12:22:05.483Z</time>
      </trkpt>
      <trkpt lat="46.91645" lon="8.58151">
        <ele>910</ele>
        <time>2021-08-10T12:22:06.484Z</time>
      </trkpt>
      <trkpt lat="46.91644" lon="8.5815">
        <ele>910</ele>
        <time>2021-08-10T12:22:07.483Z</time>
      </trkpt>
      <trkpt lat="46.91644" lon="8.58148">
        <ele>910</ele>
        <time>2021-08-10T12:22:08.484Z</time>
      </trkpt>
      <trkpt lat="46.91644" lon="8.58146">
        <ele>910</ele>
        <time>2021-08-10T12:22:09.484Z</time>
      </trkpt>
      <trkpt lat="46.91643" lon="8.58143">
        <ele>910</ele>
        <time>2021-08-10T12:22:10.483Z</time>
      </trkpt>
      <trkpt lat="46.91642" lon="8.58142">
        <ele>909</ele>
        <time>2021-08-10T12:22:11.483Z</time>
      </trkpt>
      <trkpt lat="46.9164" lon="8.5814">
        <ele>909</ele>
        <time>2021-08-10T12:22:12.483Z</time>
      </trkpt>
      <trkpt lat="46.91638" lon="8.58138">
        <ele>909</ele>
        <time>2021-08-10T12:22:13.484Z</time>
      </trkpt>
      <trkpt lat="46.91638" lon="8.58135">
        <ele>909</ele>
        <time>2021-08-10T12:22:14.484Z</time>
      </trkpt>
      <trkpt lat="46.91638" lon="8.58135">
        <ele>908</ele>
        <time>2021-08-10T12:22:15.484Z</time>
      </trkpt>
      <trkpt lat="46.91638" lon="8.58134">
        <ele>908</ele>
        <time>2021-08-10T12:22:16.484Z</time>
      </trkpt>
      <trkpt lat="46.91638" lon="8.58133">
        <ele>908</ele>
        <time>2021-08-10T12:22:17.483Z</time>
      </trkpt>
      <trkpt lat="46.91638" lon="8.58131">
        <ele>908</ele>
        <time>2021-08-10T12:22:18.483Z</time>
      </trkpt>
      <trkpt lat="46.91638" lon="8.58129">
        <ele>908</ele>
        <time>2021-08-10T12:22:19.484Z</time>
      </trkpt>
      <trkpt lat="46.91637" lon="8.58127">
        <ele>908</ele>
        <time>2021-08-10T12:22:20.484Z</time>
      </trkpt>
      <trkpt lat="46.91637" lon="8.58125">
        <ele>908</ele>
        <time>2021-08-10T12:22:21.484Z</time>
      </trkpt>
      <trkpt lat="46.91636" lon="8.58123">
        <ele>908</ele>
        <time>2021-08-10T12:22:22.484Z</time>
      </trkpt>
      <trkpt lat="46.91636" lon="8.58121">
        <ele>908</ele>
        <time>2021-08-10T12:22:23.484Z</time>
      </trkpt>
      <trkpt lat="46.91636" lon="8.5812">
        <ele>909</ele>
        <time>2021-08-10T12:22:24.484Z</time>
      </trkpt>
      <trkpt lat="46.91635" lon="8.58118">
        <ele>909</ele>
        <time>2021-08-10T12:22:25.483Z</time>
      </trkpt>
      <trkpt lat="46.91635" lon="8.58117">
        <ele>909</ele>
        <time>2021-08-10T12:22:26.484Z</time>
      </trkpt>
      <trkpt lat="46.91636" lon="8.58115">
        <ele>909</ele>
        <time>2021-08-10T12:22:27.484Z</time>
      </trkpt>
      <trkpt lat="46.91636" lon="8.58114">
        <ele>909</ele>
        <time>2021-08-10T12:22:28.484Z</time>
      </trkpt>
      <trkpt lat="46.91637" lon="8.58114">
        <ele>909</ele>
        <time>2021-08-10T12:22:29.484Z</time>
      </trkpt>
      <trkpt lat="46.91637" lon="8.58113">
        <ele>909</ele>
        <time>2021-08-10T12:22:30.483Z</time>
      </trkpt>
      <trkpt lat="46.91637" lon="8.58113">
        <ele>909</ele>
        <time>2021-08-10T12:22:31.484Z</time>
      </trkpt>
      <trkpt lat="46.91636" lon="8.58111">
        <ele>909</ele>
        <time>2021-08-10T12:22:32.484Z</time>
      </trkpt>
      <trkpt lat="46.91635" lon="8.58109">
        <ele>910</ele>
        <time>2021-08-10T12:22:33.483Z</time>
      </trkpt>
      <trkpt lat="46.91634" lon="8.58107">
        <ele>910</ele>
        <time>2021-08-10T12:22:34.484Z</time>
      </trkpt>
      <trkpt lat="46.91634" lon="8.58106">
        <ele>910</ele>
        <time>2021-08-10T12:22:35.483Z</time>
      </trkpt>
      <trkpt lat="46.91633" lon="8.58105">
        <ele>910</ele>
        <time>2021-08-10T12:22:36.484Z</time>
      </trkpt>
      <trkpt lat="46.91633" lon="8.58104">
        <ele>911</ele>
        <time>2021-08-10T12:22:37.484Z</time>
      </trkpt>
      <trkpt lat="46.91632" lon="8.58102">
        <ele>911</ele>
        <time>2021-08-10T12:22:38.484Z</time>
      </trkpt>
      <trkpt lat="46.91632" lon="8.58101">
        <ele>911</ele>
        <time>2021-08-10T12:22:39.484Z</time>
      </trkpt>
      <trkpt lat="46.91631" lon="8.581">
        <ele>912</ele>
        <time>2021-08-10T12:22:40.483Z</time>
      </trkpt>
      <trkpt lat="46.91631" lon="8.58098">
        <ele>913</ele>
        <time>2021-08-10T12:22:41.484Z</time>
      </trkpt>
      <trkpt lat="46.9163" lon="8.58097">
        <ele>913</ele>
        <time>2021-08-10T12:22:42.484Z</time>
      </trkpt>
      <trkpt lat="46.9163" lon="8.58097">
        <ele>913</ele>
        <time>2021-08-10T12:22:43.484Z</time>
      </trkpt>
      <trkpt lat="46.91629" lon="8.58097">
        <ele>913</ele>
        <time>2021-08-10T12:22:44.484Z</time>
      </trkpt>
      <trkpt lat="46.91628" lon="8.58096">
        <ele>913</ele>
        <time>2021-08-10T12:22:45.484Z</time>
      </trkpt>
      <trkpt lat="46.91628" lon="8.58095">
        <ele>913</ele>
        <time>2021-08-10T12:22:46.483Z</time>
      </trkpt>
      <trkpt lat="46.91627" lon="8.58094">
        <ele>913</ele>
        <time>2021-08-10T12:22:47.483Z</time>
      </trkpt>
      <trkpt lat="46.91627" lon="8.58093">
        <ele>912</ele>
        <time>2021-08-10T12:22:48.484Z</time>
      </trkpt>
      <trkpt lat="46.91626" lon="8.58093">
        <ele>912</ele>
        <time>2021-08-10T12:22:49.484Z</time>
      </trkpt>
      <trkpt lat="46.91626" lon="8.58092">
        <ele>912</ele>
        <time>2021-08-10T12:22:50.484Z</time>
      </trkpt>
      <trkpt lat="46.91625" lon="8.58092">
        <ele>912</ele>
        <time>2021-08-10T12:22:51.484Z</time>
      </trkpt>
      <trkpt lat="46.91624" lon="8.58091">
        <ele>912</ele>
        <time>2021-08-10T12:22:52.483Z</time>
      </trkpt>
      <trkpt lat="46.91623" lon="8.5809">
        <ele>911</ele>
        <time>2021-08-10T12:22:53.484Z</time>
      </trkpt>
      <trkpt lat="46.91622" lon="8.58089">
        <ele>911</ele>
        <time>2021-08-10T12:22:54.483Z</time>
      </trkpt>
      <trkpt lat="46.91621" lon="8.58088">
        <ele>911</ele>
        <time>2021-08-10T12:22:55.484Z</time>
      </trkpt>
      <trkpt lat="46.9162" lon="8.58086">
        <ele>911</ele>
        <time>2021-08-10T12:22:56.484Z</time>
      </trkpt>
      <trkpt lat="46.91619" lon="8.58085">
        <ele>910</ele>
        <time>2021-08-10T12:22:57.483Z</time>
      </trkpt>
      <trkpt lat="46.91618" lon="8.58084">
        <ele>910</ele>
        <time>2021-08-10T12:22:58.483Z</time>
      </trkpt>
      <trkpt lat="46.91618" lon="8.58084">
        <ele>910</ele>
        <time>2021-08-10T12:22:59.483Z</time>
      </trkpt>
      <trkpt lat="46.91618" lon="8.58083">
        <ele>910</ele>
        <time>2021-08-10T12:23:00.484Z</time>
      </trkpt>
      <trkpt lat="46.91617" lon="8.58083">
        <ele>910</ele>
        <time>2021-08-10T12:23:01.484Z</time>
      </trkpt>
      <trkpt lat="46.91616" lon="8.58082">
        <ele>910</ele>
        <time>2021-08-10T12:23:02.483Z</time>
      </trkpt>
      <trkpt lat="46.91616" lon="8.58082">
        <ele>910</ele>
        <time>2021-08-10T12:23:03.484Z</time>
      </trkpt>
      <trkpt lat="46.91616" lon="8.58081">
        <ele>910</ele>
        <time>2021-08-10T12:23:04.484Z</time>
      </trkpt>
      <trkpt lat="46.91615" lon="8.5808">
        <ele>910</ele>
        <time>2021-08-10T12:23:05.484Z</time>
      </trkpt>
      <trkpt lat="46.91614" lon="8.58079">
        <ele>909</ele>
        <time>2021-08-10T12:23:06.483Z</time>
      </trkpt>
      <trkpt lat="46.91613" lon="8.58079">
        <ele>909</ele>
        <time>2021-08-10T12:23:07.483Z</time>
      </trkpt>
      <trkpt lat="46.91613" lon="8.58079">
        <ele>909</ele>
        <time>2021-08-10T12:23:08.484Z</time>
      </trkpt>
      <trkpt lat="46.91612" lon="8.58078">
        <ele>909</ele>
        <time>2021-08-10T12:23:09.484Z</time>
      </trkpt>
      <trkpt lat="46.91612" lon="8.58078">
        <ele>909</ele>
        <time>2021-08-10T12:23:10.483Z</time>
      </trkpt>
      <trkpt lat="46.91611" lon="8.58078">
        <ele>909</ele>
        <time>2021-08-10T12:23:11.484Z</time>
      </trkpt>
      <trkpt lat="46.9161" lon="8.58077">
        <ele>908</ele>
        <time>2021-08-10T12:23:12.484Z</time>
      </trkpt>
      <trkpt lat="46.91609" lon="8.58077">
        <ele>908</ele>
        <time>2021-08-10T12:23:13.483Z</time>
      </trkpt>
      <trkpt lat="46.91608" lon="8.58076">
        <ele>908</ele>
        <time>2021-08-10T12:23:14.484Z</time>
      </trkpt>
      <trkpt lat="46.91608" lon="8.58076">
        <ele>908</ele>
        <time>2021-08-10T12:23:15.484Z</time>
      </trkpt>
      <trkpt lat="46.91608" lon="8.58075">
        <ele>908</ele>
        <time>2021-08-10T12:23:16.483Z</time>
      </trkpt>
      <trkpt lat="46.91607" lon="8.58074">
        <ele>908</ele>
        <time>2021-08-10T12:23:17.484Z</time>
      </trkpt>
      <trkpt lat="46.91607" lon="8.58072">
        <ele>908</ele>
        <time>2021-08-10T12:23:18.484Z</time>
      </trkpt>
      <trkpt lat="46.91606" lon="8.58072">
        <ele>907</ele>
        <time>2021-08-10T12:23:19.484Z</time>
      </trkpt>
      <trkpt lat="46.91605" lon="8.58071">
        <ele>907</ele>
        <time>2021-08-10T12:23:20.483Z</time>
      </trkpt>
      <trkpt lat="46.91604" lon="8.58069">
        <ele>906</ele>
        <time>2021-08-10T12:23:21.484Z</time>
      </trkpt>
      <trkpt lat="46.91603" lon="8.58068">
        <ele>905</ele>
        <time>2021-08-10T12:23:22.484Z</time>
      </trkpt>
      <trkpt lat="46.91603" lon="8.58066">
        <ele>905</ele>
        <time>2021-08-10T12:23:23.484Z</time>
      </trkpt>
      <trkpt lat="46.91602" lon="8.58065">
        <ele>904</ele>
        <time>2021-08-10T12:23:24.484Z</time>
      </trkpt>
      <trkpt lat="46.91602" lon="8.58063">
        <ele>904</ele>
        <time>2021-08-10T12:23:25.484Z</time>
      </trkpt>
      <trkpt lat="46.91601" lon="8.58062">
        <ele>904</ele>
        <time>2021-08-10T12:23:26.484Z</time>
      </trkpt>
      <trkpt lat="46.916" lon="8.58061">
        <ele>904</ele>
        <time>2021-08-10T12:23:27.483Z</time>
      </trkpt>
      <trkpt lat="46.916" lon="8.58059">
        <ele>904</ele>
        <time>2021-08-10T12:23:28.484Z</time>
      </trkpt>
      <trkpt lat="46.916" lon="8.58057">
        <ele>903</ele>
        <time>2021-08-10T12:23:29.484Z</time>
      </trkpt>
      <trkpt lat="46.91599" lon="8.58057">
        <ele>903</ele>
        <time>2021-08-10T12:23:30.484Z</time>
      </trkpt>
      <trkpt lat="46.91599" lon="8.58057">
        <ele>903</ele>
        <time>2021-08-10T12:23:31.483Z</time>
      </trkpt>
      <trkpt lat="46.91599" lon="8.58056">
        <ele>902</ele>
        <time>2021-08-10T12:23:32.484Z</time>
      </trkpt>
      <trkpt lat="46.91599" lon="8.58055">
        <ele>902</ele>
        <time>2021-08-10T12:23:33.484Z</time>
      </trkpt>
      <trkpt lat="46.91598" lon="8.58053">
        <ele>902</ele>
        <time>2021-08-10T12:23:34.483Z</time>
      </trkpt>
      <trkpt lat="46.91597" lon="8.58052">
        <ele>903</ele>
        <time>2021-08-10T12:23:35.484Z</time>
      </trkpt>
      <trkpt lat="46.91596" lon="8.5805">
        <ele>903</ele>
        <time>2021-08-10T12:23:36.484Z</time>
      </trkpt>
      <trkpt lat="46.91595" lon="8.5805">
        <ele>903</ele>
        <time>2021-08-10T12:23:37.483Z</time>
      </trkpt>
      <trkpt lat="46.91595" lon="8.58048">
        <ele>903</ele>
        <time>2021-08-10T12:23:38.483Z</time>
      </trkpt>
      <trkpt lat="46.91594" lon="8.58048">
        <ele>902</ele>
        <time>2021-08-10T12:23:39.484Z</time>
      </trkpt>
      <trkpt lat="46.91594" lon="8.58047">
        <ele>901</ele>
        <time>2021-08-10T12:23:40.483Z</time>
      </trkpt>
      <trkpt lat="46.91594" lon="8.58045">
        <ele>901</ele>
        <time>2021-08-10T12:23:41.484Z</time>
      </trkpt>
      <trkpt lat="46.91593" lon="8.58045">
        <ele>900</ele>
        <time>2021-08-10T12:23:42.484Z</time>
      </trkpt>
      <trkpt lat="46.91593" lon="8.58044">
        <ele>899</ele>
        <time>2021-08-10T12:23:43.484Z</time>
      </trkpt>
      <trkpt lat="46.91592" lon="8.58042">
        <ele>898</ele>
        <time>2021-08-10T12:23:44.484Z</time>
      </trkpt>
      <trkpt lat="46.91591" lon="8.58041">
        <ele>898</ele>
        <time>2021-08-10T12:23:45.483Z</time>
      </trkpt>
      <trkpt lat="46.91591" lon="8.5804">
        <ele>897</ele>
        <time>2021-08-10T12:23:46.483Z</time>
      </trkpt>
      <trkpt lat="46.9159" lon="8.58039">
        <ele>896</ele>
        <time>2021-08-10T12:23:47.484Z</time>
      </trkpt>
      <trkpt lat="46.9159" lon="8.58039">
        <ele>896</ele>
        <time>2021-08-10T12:23:48.484Z</time>
      </trkpt>
      <trkpt lat="46.91589" lon="8.58038">
        <ele>895</ele>
        <time>2021-08-10T12:23:49.483Z</time>
      </trkpt>
      <trkpt lat="46.91589" lon="8.58037">
        <ele>894</ele>
        <time>2021-08-10T12:23:50.484Z</time>
      </trkpt>
      <trkpt lat="46.91588" lon="8.58037">
        <ele>894</ele>
        <time>2021-08-10T12:23:51.484Z</time>
      </trkpt>
      <trkpt lat="46.91588" lon="8.58037">
        <ele>893</ele>
        <time>2021-08-10T12:23:52.484Z</time>
      </trkpt>
      <trkpt lat="46.91586" lon="8.58042">
        <ele>895</ele>
        <time>2021-08-10T12:23:53.484Z</time>
      </trkpt>
      <trkpt lat="46.91586" lon="8.58042">
        <ele>895</ele>
        <time>2021-08-10T12:23:54.484Z</time>
      </trkpt>
      <trkpt lat="46.91579" lon="8.58059">
        <ele>894</ele>
        <time>2021-08-10T12:23:55.483Z</time>
      </trkpt>
      <trkpt lat="46.91579" lon="8.5806">
        <ele>894</ele>
        <time>2021-08-10T12:23:56.483Z</time>
      </trkpt>
      <trkpt lat="46.91579" lon="8.5806">
        <ele>894</ele>
        <time>2021-08-10T12:23:57.483Z</time>
      </trkpt>
      <trkpt lat="46.91577" lon="8.58064">
        <ele>887</ele>
        <time>2021-08-10T12:23:58.484Z</time>
      </trkpt>
      <trkpt lat="46.91577" lon="8.58063">
        <ele>887</ele>
        <time>2021-08-10T12:23:59.483Z</time>
      </trkpt>
      <trkpt lat="46.91577" lon="8.58061">
        <ele>887</ele>
        <time>2021-08-10T12:24:00.483Z</time>
      </trkpt>
      <trkpt lat="46.91577" lon="8.58059">
        <ele>888</ele>
        <time>2021-08-10T12:24:01.483Z</time>
      </trkpt>
      <trkpt lat="46.91577" lon="8.58057">
        <ele>888</ele>
        <time>2021-08-10T12:24:02.484Z</time>
      </trkpt>
      <trkpt lat="46.91577" lon="8.58055">
        <ele>889</ele>
        <time>2021-08-10T12:24:03.484Z</time>
      </trkpt>
      <trkpt lat="46.91577" lon="8.58054">
        <ele>890</ele>
        <time>2021-08-10T12:24:04.483Z</time>
      </trkpt>
      <trkpt lat="46.91576" lon="8.58052">
        <ele>891</ele>
        <time>2021-08-10T12:24:05.484Z</time>
      </trkpt>
      <trkpt lat="46.91576" lon="8.5805">
        <ele>892</ele>
        <time>2021-08-10T12:24:06.483Z</time>
      </trkpt>
      <trkpt lat="46.91575" lon="8.58048">
        <ele>893</ele>
        <time>2021-08-10T12:24:07.484Z</time>
      </trkpt>
      <trkpt lat="46.91575" lon="8.58047">
        <ele>894</ele>
        <time>2021-08-10T12:24:08.484Z</time>
      </trkpt>
      <trkpt lat="46.91574" lon="8.58045">
        <ele>895</ele>
        <time>2021-08-10T12:24:09.484Z</time>
      </trkpt>
      <trkpt lat="46.91574" lon="8.58044">
        <ele>895</ele>
        <time>2021-08-10T12:24:10.484Z</time>
      </trkpt>
      <trkpt lat="46.91573" lon="8.58042">
        <ele>896</ele>
        <time>2021-08-10T12:24:11.483Z</time>
      </trkpt>
      <trkpt lat="46.91573" lon="8.5804">
        <ele>897</ele>
        <time>2021-08-10T12:24:12.483Z</time>
      </trkpt>
      <trkpt lat="46.91572" lon="8.58037">
        <ele>897</ele>
        <time>2021-08-10T12:24:13.484Z</time>
      </trkpt>
      <trkpt lat="46.91573" lon="8.58035">
        <ele>898</ele>
        <time>2021-08-10T12:24:14.483Z</time>
      </trkpt>
      <trkpt lat="46.91574" lon="8.58033">
        <ele>898</ele>
        <time>2021-08-10T12:24:15.484Z</time>
      </trkpt>
      <trkpt lat="46.91574" lon="8.5803">
        <ele>898</ele>
        <time>2021-08-10T12:24:16.484Z</time>
      </trkpt>
      <trkpt lat="46.91575" lon="8.5803">
        <ele>898</ele>
        <time>2021-08-10T12:24:17.483Z</time>
      </trkpt>
      <trkpt lat="46.91576" lon="8.58029">
        <ele>898</ele>
        <time>2021-08-10T12:24:18.483Z</time>
      </trkpt>
      <trkpt lat="46.91577" lon="8.58024">
        <ele>895</ele>
        <time>2021-08-10T12:24:19.483Z</time>
      </trkpt>
      <trkpt lat="46.91577" lon="8.58023">
        <ele>895</ele>
        <time>2021-08-10T12:24:20.483Z</time>
      </trkpt>
      <trkpt lat="46.91576" lon="8.58022">
        <ele>896</ele>
        <time>2021-08-10T12:24:21.483Z</time>
      </trkpt>
      <trkpt lat="46.91575" lon="8.5802">
        <ele>896</ele>
        <time>2021-08-10T12:24:22.484Z</time>
      </trkpt>
      <trkpt lat="46.91574" lon="8.58018">
        <ele>897</ele>
        <time>2021-08-10T12:24:23.483Z</time>
      </trkpt>
      <trkpt lat="46.91573" lon="8.58017">
        <ele>898</ele>
        <time>2021-08-10T12:24:24.484Z</time>
      </trkpt>
      <trkpt lat="46.91572" lon="8.58014">
        <ele>898</ele>
        <time>2021-08-10T12:24:25.484Z</time>
      </trkpt>
      <trkpt lat="46.91571" lon="8.58012">
        <ele>899</ele>
        <time>2021-08-10T12:24:26.484Z</time>
      </trkpt>
      <trkpt lat="46.91571" lon="8.5801">
        <ele>900</ele>
        <time>2021-08-10T12:24:27.484Z</time>
      </trkpt>
      <trkpt lat="46.9157" lon="8.58008">
        <ele>900</ele>
        <time>2021-08-10T12:24:28.484Z</time>
      </trkpt>
      <trkpt lat="46.91569" lon="8.58006">
        <ele>901</ele>
        <time>2021-08-10T12:24:29.484Z</time>
      </trkpt>
      <trkpt lat="46.91568" lon="8.58004">
        <ele>901</ele>
        <time>2021-08-10T12:24:30.483Z</time>
      </trkpt>
      <trkpt lat="46.91568" lon="8.58002">
        <ele>901</ele>
        <time>2021-08-10T12:24:31.484Z</time>
      </trkpt>
      <trkpt lat="46.91567" lon="8.58001">
        <ele>902</ele>
        <time>2021-08-10T12:24:32.483Z</time>
      </trkpt>
      <trkpt lat="46.91567" lon="8.58">
        <ele>902</ele>
        <time>2021-08-10T12:24:33.484Z</time>
      </trkpt>
      <trkpt lat="46.91566" lon="8.57998">
        <ele>902</ele>
        <time>2021-08-10T12:24:34.483Z</time>
      </trkpt>
      <trkpt lat="46.91566" lon="8.57997">
        <ele>902</ele>
        <time>2021-08-10T12:24:35.483Z</time>
      </trkpt>
      <trkpt lat="46.91565" lon="8.57995">
        <ele>903</ele>
        <time>2021-08-10T12:24:36.484Z</time>
      </trkpt>
      <trkpt lat="46.91564" lon="8.57993">
        <ele>903</ele>
        <time>2021-08-10T12:24:37.483Z</time>
      </trkpt>
      <trkpt lat="46.91564" lon="8.5799">
        <ele>903</ele>
        <time>2021-08-10T12:24:38.483Z</time>
      </trkpt>
      <trkpt lat="46.91563" lon="8.57989">
        <ele>903</ele>
        <time>2021-08-10T12:24:39.483Z</time>
      </trkpt>
      <trkpt lat="46.91562" lon="8.57987">
        <ele>902</ele>
        <time>2021-08-10T12:24:40.483Z</time>
      </trkpt>
      <trkpt lat="46.91562" lon="8.57986">
        <ele>902</ele>
        <time>2021-08-10T12:24:41.484Z</time>
      </trkpt>
      <trkpt lat="46.91561" lon="8.57984">
        <ele>902</ele>
        <time>2021-08-10T12:24:42.483Z</time>
      </trkpt>
      <trkpt lat="46.91561" lon="8.57982">
        <ele>902</ele>
        <time>2021-08-10T12:24:43.483Z</time>
      </trkpt>
      <trkpt lat="46.9156" lon="8.57981">
        <ele>902</ele>
        <time>2021-08-10T12:24:44.484Z</time>
      </trkpt>
      <trkpt lat="46.91559" lon="8.5798">
        <ele>902</ele>
        <time>2021-08-10T12:24:45.484Z</time>
      </trkpt>
      <trkpt lat="46.91559" lon="8.57978">
        <ele>903</ele>
        <time>2021-08-10T12:24:46.483Z</time>
      </trkpt>
      <trkpt lat="46.91557" lon="8.57975">
        <ele>903</ele>
        <time>2021-08-10T12:24:47.484Z</time>
      </trkpt>
      <trkpt lat="46.91555" lon="8.57974">
        <ele>903</ele>
        <time>2021-08-10T12:24:48.483Z</time>
      </trkpt>
      <trkpt lat="46.91554" lon="8.57972">
        <ele>903</ele>
        <time>2021-08-10T12:24:49.484Z</time>
      </trkpt>
      <trkpt lat="46.91554" lon="8.57971">
        <ele>903</ele>
        <time>2021-08-10T12:24:50.484Z</time>
      </trkpt>
      <trkpt lat="46.91553" lon="8.5797">
        <ele>903</ele>
        <time>2021-08-10T12:24:51.484Z</time>
      </trkpt>
      <trkpt lat="46.91552" lon="8.57968">
        <ele>903</ele>
        <time>2021-08-10T12:24:52.483Z</time>
      </trkpt>
      <trkpt lat="46.91551" lon="8.57965">
        <ele>903</ele>
        <time>2021-08-10T12:24:53.484Z</time>
      </trkpt>
      <trkpt lat="46.91551" lon="8.57964">
        <ele>903</ele>
        <time>2021-08-10T12:24:54.484Z</time>
      </trkpt>
      <trkpt lat="46.9155" lon="8.57962">
        <ele>902</ele>
        <time>2021-08-10T12:24:55.484Z</time>
      </trkpt>
      <trkpt lat="46.91549" lon="8.57961">
        <ele>902</ele>
        <time>2021-08-10T12:24:56.484Z</time>
      </trkpt>
      <trkpt lat="46.91548" lon="8.57959">
        <ele>902</ele>
        <time>2021-08-10T12:24:57.484Z</time>
      </trkpt>
      <trkpt lat="46.91547" lon="8.57956">
        <ele>902</ele>
        <time>2021-08-10T12:24:58.484Z</time>
      </trkpt>
      <trkpt lat="46.91546" lon="8.57955">
        <ele>903</ele>
        <time>2021-08-10T12:24:59.483Z</time>
      </trkpt>
      <trkpt lat="46.91545" lon="8.57954">
        <ele>903</ele>
        <time>2021-08-10T12:25:00.483Z</time>
      </trkpt>
      <trkpt lat="46.91545" lon="8.57953">
        <ele>903</ele>
        <time>2021-08-10T12:25:01.484Z</time>
      </trkpt>
      <trkpt lat="46.91545" lon="8.57952">
        <ele>903</ele>
        <time>2021-08-10T12:25:02.484Z</time>
      </trkpt>
      <trkpt lat="46.91545" lon="8.57951">
        <ele>903</ele>
        <time>2021-08-10T12:25:03.483Z</time>
      </trkpt>
      <trkpt lat="46.91545" lon="8.5795">
        <ele>902</ele>
        <time>2021-08-10T12:25:04.483Z</time>
      </trkpt>
      <trkpt lat="46.91545" lon="8.5795">
        <ele>901</ele>
        <time>2021-08-10T12:25:05.484Z</time>
      </trkpt>
      <trkpt lat="46.91545" lon="8.5795">
        <ele>901</ele>
        <time>2021-08-10T12:25:06.484Z</time>
      </trkpt>
      <trkpt lat="46.91545" lon="8.57949">
        <ele>900</ele>
        <time>2021-08-10T12:25:07.484Z</time>
      </trkpt>
      <trkpt lat="46.91545" lon="8.57949">
        <ele>899</ele>
        <time>2021-08-10T12:25:08.483Z</time>
      </trkpt>
      <trkpt lat="46.91545" lon="8.57948">
        <ele>898</ele>
        <time>2021-08-10T12:25:09.483Z</time>
      </trkpt>
      <trkpt lat="46.91545" lon="8.57947">
        <ele>898</ele>
        <time>2021-08-10T12:25:10.484Z</time>
      </trkpt>
      <trkpt lat="46.91545" lon="8.57945">
        <ele>897</ele>
        <time>2021-08-10T12:25:11.484Z</time>
      </trkpt>
      <trkpt lat="46.91544" lon="8.57944">
        <ele>897</ele>
        <time>2021-08-10T12:25:12.484Z</time>
      </trkpt>
      <trkpt lat="46.91544" lon="8.57943">
        <ele>896</ele>
        <time>2021-08-10T12:25:13.483Z</time>
      </trkpt>
      <trkpt lat="46.91543" lon="8.57941">
        <ele>896</ele>
        <time>2021-08-10T12:25:14.483Z</time>
      </trkpt>
      <trkpt lat="46.91543" lon="8.5794">
        <ele>896</ele>
        <time>2021-08-10T12:25:15.484Z</time>
      </trkpt>
      <trkpt lat="46.91542" lon="8.57939">
        <ele>896</ele>
        <time>2021-08-10T12:25:16.483Z</time>
      </trkpt>
      <trkpt lat="46.91541" lon="8.57937">
        <ele>896</ele>
        <time>2021-08-10T12:25:17.484Z</time>
      </trkpt>
      <trkpt lat="46.91541" lon="8.57936">
        <ele>896</ele>
        <time>2021-08-10T12:25:18.483Z</time>
      </trkpt>
      <trkpt lat="46.9154" lon="8.57935">
        <ele>896</ele>
        <time>2021-08-10T12:25:19.484Z</time>
      </trkpt>
      <trkpt lat="46.9154" lon="8.57933">
        <ele>896</ele>
        <time>2021-08-10T12:25:20.484Z</time>
      </trkpt>
      <trkpt lat="46.91539" lon="8.57932">
        <ele>896</ele>
        <time>2021-08-10T12:25:21.483Z</time>
      </trkpt>
      <trkpt lat="46.91539" lon="8.5793">
        <ele>896</ele>
        <time>2021-08-10T12:25:22.484Z</time>
      </trkpt>
      <trkpt lat="46.91538" lon="8.57929">
        <ele>896</ele>
        <time>2021-08-10T12:25:23.483Z</time>
      </trkpt>
      <trkpt lat="46.91538" lon="8.57926">
        <ele>896</ele>
        <time>2021-08-10T12:25:24.483Z</time>
      </trkpt>
      <trkpt lat="46.91537" lon="8.57924">
        <ele>897</ele>
        <time>2021-08-10T12:25:25.483Z</time>
      </trkpt>
      <trkpt lat="46.91536" lon="8.57923">
        <ele>897</ele>
        <time>2021-08-10T12:25:26.484Z</time>
      </trkpt>
      <trkpt lat="46.91536" lon="8.57921">
        <ele>897</ele>
        <time>2021-08-10T12:25:27.484Z</time>
      </trkpt>
      <trkpt lat="46.91536" lon="8.57919">
        <ele>896</ele>
        <time>2021-08-10T12:25:28.484Z</time>
      </trkpt>
      <trkpt lat="46.91536" lon="8.57917">
        <ele>896</ele>
        <time>2021-08-10T12:25:29.484Z</time>
      </trkpt>
      <trkpt lat="46.91536" lon="8.57916">
        <ele>896</ele>
        <time>2021-08-10T12:25:30.483Z</time>
      </trkpt>
      <trkpt lat="46.91536" lon="8.57915">
        <ele>896</ele>
        <time>2021-08-10T12:25:31.483Z</time>
      </trkpt>
      <trkpt lat="46.91536" lon="8.57914">
        <ele>897</ele>
        <time>2021-08-10T12:25:32.484Z</time>
      </trkpt>
      <trkpt lat="46.91536" lon="8.57913">
        <ele>897</ele>
        <time>2021-08-10T12:25:33.483Z</time>
      </trkpt>
      <trkpt lat="46.91535" lon="8.57912">
        <ele>897</ele>
        <time>2021-08-10T12:25:34.484Z</time>
      </trkpt>
      <trkpt lat="46.91534" lon="8.5791">
        <ele>898</ele>
        <time>2021-08-10T12:25:35.484Z</time>
      </trkpt>
      <trkpt lat="46.91534" lon="8.57907">
        <ele>899</ele>
        <time>2021-08-10T12:25:36.484Z</time>
      </trkpt>
      <trkpt lat="46.91533" lon="8.57906">
        <ele>899</ele>
        <time>2021-08-10T12:25:37.484Z</time>
      </trkpt>
      <trkpt lat="46.91532" lon="8.57903">
        <ele>900</ele>
        <time>2021-08-10T12:25:38.484Z</time>
      </trkpt>
      <trkpt lat="46.91532" lon="8.57902">
        <ele>900</ele>
        <time>2021-08-10T12:25:39.484Z</time>
      </trkpt>
      <trkpt lat="46.91532" lon="8.57901">
        <ele>900</ele>
        <time>2021-08-10T12:25:40.484Z</time>
      </trkpt>
      <trkpt lat="46.91532" lon="8.579">
        <ele>901</ele>
        <time>2021-08-10T12:25:41.483Z</time>
      </trkpt>
      <trkpt lat="46.91532" lon="8.57898">
        <ele>901</ele>
        <time>2021-08-10T12:25:42.484Z</time>
      </trkpt>
      <trkpt lat="46.91532" lon="8.57896">
        <ele>902</ele>
        <time>2021-08-10T12:25:43.484Z</time>
      </trkpt>
      <trkpt lat="46.91531" lon="8.57895">
        <ele>902</ele>
        <time>2021-08-10T12:25:44.483Z</time>
      </trkpt>
      <trkpt lat="46.91531" lon="8.57893">
        <ele>903</ele>
        <time>2021-08-10T12:25:45.484Z</time>
      </trkpt>
      <trkpt lat="46.91531" lon="8.57891">
        <ele>903</ele>
        <time>2021-08-10T12:25:46.484Z</time>
      </trkpt>
      <trkpt lat="46.9153" lon="8.57889">
        <ele>903</ele>
        <time>2021-08-10T12:25:47.483Z</time>
      </trkpt>
      <trkpt lat="46.9153" lon="8.57887">
        <ele>903</ele>
        <time>2021-08-10T12:25:48.483Z</time>
      </trkpt>
      <trkpt lat="46.91529" lon="8.57885">
        <ele>903</ele>
        <time>2021-08-10T12:25:49.483Z</time>
      </trkpt>
      <trkpt lat="46.91529" lon="8.57883">
        <ele>903</ele>
        <time>2021-08-10T12:25:50.484Z</time>
      </trkpt>
      <trkpt lat="46.91529" lon="8.57881">
        <ele>903</ele>
        <time>2021-08-10T12:25:51.484Z</time>
      </trkpt>
      <trkpt lat="46.91529" lon="8.5788">
        <ele>903</ele>
        <time>2021-08-10T12:25:52.484Z</time>
      </trkpt>
      <trkpt lat="46.91528" lon="8.57879">
        <ele>902</ele>
        <time>2021-08-10T12:25:53.483Z</time>
      </trkpt>
      <trkpt lat="46.91528" lon="8.57879">
        <ele>902</ele>
        <time>2021-08-10T12:25:54.483Z</time>
      </trkpt>
      <trkpt lat="46.91528" lon="8.57878">
        <ele>902</ele>
        <time>2021-08-10T12:25:55.484Z</time>
      </trkpt>
      <trkpt lat="46.91527" lon="8.57876">
        <ele>902</ele>
        <time>2021-08-10T12:25:56.484Z</time>
      </trkpt>
      <trkpt lat="46.91526" lon="8.57875">
        <ele>902</ele>
        <time>2021-08-10T12:25:57.484Z</time>
      </trkpt>
      <trkpt lat="46.91525" lon="8.57874">
        <ele>902</ele>
        <time>2021-08-10T12:25:58.484Z</time>
      </trkpt>
      <trkpt lat="46.91526" lon="8.57872">
        <ele>901</ele>
        <time>2021-08-10T12:25:59.484Z</time>
      </trkpt>
      <trkpt lat="46.91525" lon="8.57871">
        <ele>901</ele>
        <time>2021-08-10T12:26:00.484Z</time>
      </trkpt>
      <trkpt lat="46.91524" lon="8.57869">
        <ele>900</ele>
        <time>2021-08-10T12:26:01.483Z</time>
      </trkpt>
      <trkpt lat="46.91524" lon="8.57867">
        <ele>900</ele>
        <time>2021-08-10T12:26:02.484Z</time>
      </trkpt>
      <trkpt lat="46.91523" lon="8.57866">
        <ele>900</ele>
        <time>2021-08-10T12:26:03.484Z</time>
      </trkpt>
      <trkpt lat="46.91523" lon="8.57864">
        <ele>899</ele>
        <time>2021-08-10T12:26:04.484Z</time>
      </trkpt>
      <trkpt lat="46.91522" lon="8.57863">
        <ele>899</ele>
        <time>2021-08-10T12:26:05.484Z</time>
      </trkpt>
      <trkpt lat="46.91522" lon="8.57863">
        <ele>898</ele>
        <time>2021-08-10T12:26:06.484Z</time>
      </trkpt>
      <trkpt lat="46.91521" lon="8.57862">
        <ele>898</ele>
        <time>2021-08-10T12:26:07.483Z</time>
      </trkpt>
      <trkpt lat="46.91521" lon="8.57861">
        <ele>897</ele>
        <time>2021-08-10T12:26:08.484Z</time>
      </trkpt>
      <trkpt lat="46.9152" lon="8.5786">
        <ele>897</ele>
        <time>2021-08-10T12:26:09.484Z</time>
      </trkpt>
      <trkpt lat="46.9152" lon="8.5786">
        <ele>897</ele>
        <time>2021-08-10T12:26:10.484Z</time>
      </trkpt>
      <trkpt lat="46.91519" lon="8.57859">
        <ele>896</ele>
        <time>2021-08-10T12:26:11.484Z</time>
      </trkpt>
      <trkpt lat="46.91518" lon="8.5786">
        <ele>896</ele>
        <time>2021-08-10T12:26:12.484Z</time>
      </trkpt>
      <trkpt lat="46.91518" lon="8.5786">
        <ele>896</ele>
        <time>2021-08-10T12:26:13.483Z</time>
      </trkpt>
      <trkpt lat="46.91518" lon="8.57859">
        <ele>895</ele>
        <time>2021-08-10T12:26:14.483Z</time>
      </trkpt>
      <trkpt lat="46.91517" lon="8.57857">
        <ele>895</ele>
        <time>2021-08-10T12:26:15.484Z</time>
      </trkpt>
      <trkpt lat="46.91517" lon="8.57855">
        <ele>894</ele>
        <time>2021-08-10T12:26:16.484Z</time>
      </trkpt>
      <trkpt lat="46.91514" lon="8.57854">
        <ele>892</ele>
        <time>2021-08-10T12:26:18.484Z</time>
      </trkpt>
      <trkpt lat="46.91514" lon="8.57854">
        <ele>892</ele>
        <time>2021-08-10T12:26:19.484Z</time>
      </trkpt>
      <trkpt lat="46.91514" lon="8.57853">
        <ele>891</ele>
        <time>2021-08-10T12:26:20.484Z</time>
      </trkpt>
      <trkpt lat="46.91514" lon="8.57853">
        <ele>891</ele>
        <time>2021-08-10T12:26:21.484Z</time>
      </trkpt>
      <trkpt lat="46.91514" lon="8.57853">
        <ele>891</ele>
        <time>2021-08-10T12:26:22.484Z</time>
      </trkpt>
      <trkpt lat="46.91514" lon="8.57852">
        <ele>890</ele>
        <time>2021-08-10T12:26:23.484Z</time>
      </trkpt>
      <trkpt lat="46.91514" lon="8.57852">
        <ele>890</ele>
        <time>2021-08-10T12:26:24.484Z</time>
      </trkpt>
      <trkpt lat="46.91514" lon="8.57851">
        <ele>889</ele>
        <time>2021-08-10T12:26:25.484Z</time>
      </trkpt>
      <trkpt lat="46.91513" lon="8.5785">
        <ele>889</ele>
        <time>2021-08-10T12:26:26.484Z</time>
      </trkpt>
      <trkpt lat="46.91513" lon="8.5785">
        <ele>888</ele>
        <time>2021-08-10T12:26:27.484Z</time>
      </trkpt>
      <trkpt lat="46.91512" lon="8.57849">
        <ele>888</ele>
        <time>2021-08-10T12:26:28.484Z</time>
      </trkpt>
      <trkpt lat="46.91512" lon="8.57848">
        <ele>887</ele>
        <time>2021-08-10T12:26:29.484Z</time>
      </trkpt>
      <trkpt lat="46.91511" lon="8.57846">
        <ele>887</ele>
        <time>2021-08-10T12:26:30.484Z</time>
      </trkpt>
      <trkpt lat="46.9151" lon="8.57845">
        <ele>887</ele>
        <time>2021-08-10T12:26:31.484Z</time>
      </trkpt>
      <trkpt lat="46.9151" lon="8.57843">
        <ele>887</ele>
        <time>2021-08-10T12:26:32.484Z</time>
      </trkpt>
      <trkpt lat="46.91509" lon="8.57841">
        <ele>887</ele>
        <time>2021-08-10T12:26:33.484Z</time>
      </trkpt>
      <trkpt lat="46.91509" lon="8.5784">
        <ele>886</ele>
        <time>2021-08-10T12:26:34.484Z</time>
      </trkpt>
      <trkpt lat="46.91509" lon="8.5784">
        <ele>887</ele>
        <time>2021-08-10T12:26:35.484Z</time>
      </trkpt>
      <trkpt lat="46.91508" lon="8.57838">
        <ele>887</ele>
        <time>2021-08-10T12:26:36.484Z</time>
      </trkpt>
      <trkpt lat="46.91507" lon="8.57838">
        <ele>886</ele>
        <time>2021-08-10T12:26:37.484Z</time>
      </trkpt>
      <trkpt lat="46.91507" lon="8.57837">
        <ele>886</ele>
        <time>2021-08-10T12:26:38.484Z</time>
      </trkpt>
      <trkpt lat="46.91506" lon="8.57836">
        <ele>887</ele>
        <time>2021-08-10T12:26:39.484Z</time>
      </trkpt>
      <trkpt lat="46.91505" lon="8.57834">
        <ele>887</ele>
        <time>2021-08-10T12:26:40.484Z</time>
      </trkpt>
      <trkpt lat="46.91504" lon="8.57832">
        <ele>887</ele>
        <time>2021-08-10T12:26:41.484Z</time>
      </trkpt>
      <trkpt lat="46.91504" lon="8.5783">
        <ele>888</ele>
        <time>2021-08-10T12:26:42.484Z</time>
      </trkpt>
      <trkpt lat="46.91503" lon="8.57828">
        <ele>888</ele>
        <time>2021-08-10T12:26:43.484Z</time>
      </trkpt>
      <trkpt lat="46.91503" lon="8.57826">
        <ele>889</ele>
        <time>2021-08-10T12:26:44.484Z</time>
      </trkpt>
      <trkpt lat="46.91503" lon="8.57824">
        <ele>889</ele>
        <time>2021-08-10T12:26:45.484Z</time>
      </trkpt>
      <trkpt lat="46.91502" lon="8.57823">
        <ele>889</ele>
        <time>2021-08-10T12:26:46.484Z</time>
      </trkpt>
      <trkpt lat="46.91502" lon="8.57821">
        <ele>889</ele>
        <time>2021-08-10T12:26:47.484Z</time>
      </trkpt>
      <trkpt lat="46.91501" lon="8.57819">
        <ele>889</ele>
        <time>2021-08-10T12:26:48.485Z</time>
      </trkpt>
      <trkpt lat="46.915" lon="8.57817">
        <ele>889</ele>
        <time>2021-08-10T12:26:49.484Z</time>
      </trkpt>
      <trkpt lat="46.915" lon="8.57815">
        <ele>889</ele>
        <time>2021-08-10T12:26:50.484Z</time>
      </trkpt>
      <trkpt lat="46.915" lon="8.57814">
        <ele>889</ele>
        <time>2021-08-10T12:26:51.484Z</time>
      </trkpt>
      <trkpt lat="46.91499" lon="8.57813">
        <ele>889</ele>
        <time>2021-08-10T12:26:52.485Z</time>
      </trkpt>
      <trkpt lat="46.91499" lon="8.57813">
        <ele>889</ele>
        <time>2021-08-10T12:26:53.485Z</time>
      </trkpt>
      <trkpt lat="46.91499" lon="8.57813">
        <ele>889</ele>
        <time>2021-08-10T12:26:54.484Z</time>
      </trkpt>
      <trkpt lat="46.91499" lon="8.57814">
        <ele>889</ele>
        <time>2021-08-10T12:26:55.485Z</time>
      </trkpt>
      <trkpt lat="46.91497" lon="8.57811">
        <ele>888</ele>
        <time>2021-08-10T12:26:56.486Z</time>
      </trkpt>
      <trkpt lat="46.91497" lon="8.57809">
        <ele>888</ele>
        <time>2021-08-10T12:26:57.485Z</time>
      </trkpt>
      <trkpt lat="46.91496" lon="8.57808">
        <ele>888</ele>
        <time>2021-08-10T12:26:58.485Z</time>
      </trkpt>
      <trkpt lat="46.91496" lon="8.57807">
        <ele>888</ele>
        <time>2021-08-10T12:26:59.486Z</time>
      </trkpt>
      <trkpt lat="46.91493" lon="8.57803">
        <ele>886</ele>
        <time>2021-08-10T12:27:00.486Z</time>
      </trkpt>
      <trkpt lat="46.91492" lon="8.57801">
        <ele>886</ele>
        <time>2021-08-10T12:27:01.485Z</time>
      </trkpt>
      <trkpt lat="46.91492" lon="8.578">
        <ele>886</ele>
        <time>2021-08-10T12:27:02.485Z</time>
      </trkpt>
      <trkpt lat="46.91491" lon="8.57798">
        <ele>886</ele>
        <time>2021-08-10T12:27:03.485Z</time>
      </trkpt>
      <trkpt lat="46.9149" lon="8.57797">
        <ele>885</ele>
        <time>2021-08-10T12:27:04.486Z</time>
      </trkpt>
      <trkpt lat="46.91488" lon="8.57796">
        <ele>885</ele>
        <time>2021-08-10T12:27:05.485Z</time>
      </trkpt>
      <trkpt lat="46.91486" lon="8.57796">
        <ele>885</ele>
        <time>2021-08-10T12:27:06.486Z</time>
      </trkpt>
      <trkpt lat="46.91484" lon="8.57795">
        <ele>885</ele>
        <time>2021-08-10T12:27:07.486Z</time>
      </trkpt>
      <trkpt lat="46.91483" lon="8.57795">
        <ele>885</ele>
        <time>2021-08-10T12:27:08.485Z</time>
      </trkpt>
      <trkpt lat="46.91482" lon="8.57793">
        <ele>885</ele>
        <time>2021-08-10T12:27:09.486Z</time>
      </trkpt>
      <trkpt lat="46.91481" lon="8.57792">
        <ele>885</ele>
        <time>2021-08-10T12:27:10.486Z</time>
      </trkpt>
      <trkpt lat="46.91481" lon="8.57791">
        <ele>885</ele>
        <time>2021-08-10T12:27:11.486Z</time>
      </trkpt>
      <trkpt lat="46.9148" lon="8.57789">
        <ele>886</ele>
        <time>2021-08-10T12:27:12.486Z</time>
      </trkpt>
      <trkpt lat="46.91479" lon="8.57787">
        <ele>886</ele>
        <time>2021-08-10T12:27:13.486Z</time>
      </trkpt>
      <trkpt lat="46.91479" lon="8.57786">
        <ele>886</ele>
        <time>2021-08-10T12:27:14.485Z</time>
      </trkpt>
      <trkpt lat="46.91478" lon="8.57785">
        <ele>885</ele>
        <time>2021-08-10T12:27:15.486Z</time>
      </trkpt>
      <trkpt lat="46.91477" lon="8.57784">
        <ele>885</ele>
        <time>2021-08-10T12:27:16.485Z</time>
      </trkpt>
      <trkpt lat="46.91476" lon="8.57782">
        <ele>885</ele>
        <time>2021-08-10T12:27:17.485Z</time>
      </trkpt>
      <trkpt lat="46.91475" lon="8.5778">
        <ele>885</ele>
        <time>2021-08-10T12:27:18.486Z</time>
      </trkpt>
      <trkpt lat="46.91474" lon="8.57779">
        <ele>885</ele>
        <time>2021-08-10T12:27:19.486Z</time>
      </trkpt>
      <trkpt lat="46.91473" lon="8.57777">
        <ele>885</ele>
        <time>2021-08-10T12:27:20.486Z</time>
      </trkpt>
      <trkpt lat="46.91472" lon="8.57776">
        <ele>885</ele>
        <time>2021-08-10T12:27:21.485Z</time>
      </trkpt>
      <trkpt lat="46.91471" lon="8.57775">
        <ele>885</ele>
        <time>2021-08-10T12:27:22.486Z</time>
      </trkpt>
      <trkpt lat="46.9147" lon="8.57773">
        <ele>885</ele>
        <time>2021-08-10T12:27:23.486Z</time>
      </trkpt>
      <trkpt lat="46.9147" lon="8.5777">
        <ele>885</ele>
        <time>2021-08-10T12:27:24.486Z</time>
      </trkpt>
      <trkpt lat="46.9147" lon="8.57767">
        <ele>885</ele>
        <time>2021-08-10T12:27:25.486Z</time>
      </trkpt>
      <trkpt lat="46.91469" lon="8.57763">
        <ele>885</ele>
        <time>2021-08-10T12:27:26.486Z</time>
      </trkpt>
      <trkpt lat="46.91469" lon="8.57761">
        <ele>884</ele>
        <time>2021-08-10T12:27:27.486Z</time>
      </trkpt>
      <trkpt lat="46.91469" lon="8.5776">
        <ele>884</ele>
        <time>2021-08-10T12:27:28.486Z</time>
      </trkpt>
      <trkpt lat="46.9147" lon="8.57758">
        <ele>884</ele>
        <time>2021-08-10T12:27:29.485Z</time>
      </trkpt>
      <trkpt lat="46.9147" lon="8.57756">
        <ele>884</ele>
        <time>2021-08-10T12:27:30.486Z</time>
      </trkpt>
      <trkpt lat="46.9147" lon="8.57754">
        <ele>883</ele>
        <time>2021-08-10T12:27:31.486Z</time>
      </trkpt>
      <trkpt lat="46.9147" lon="8.57753">
        <ele>883</ele>
        <time>2021-08-10T12:27:32.485Z</time>
      </trkpt>
      <trkpt lat="46.9147" lon="8.57751">
        <ele>882</ele>
        <time>2021-08-10T12:27:33.486Z</time>
      </trkpt>
      <trkpt lat="46.9147" lon="8.57751">
        <ele>882</ele>
        <time>2021-08-10T12:27:34.485Z</time>
      </trkpt>
      <trkpt lat="46.9147" lon="8.5775">
        <ele>881</ele>
        <time>2021-08-10T12:27:35.485Z</time>
      </trkpt>
      <trkpt lat="46.9147" lon="8.57748">
        <ele>881</ele>
        <time>2021-08-10T12:27:36.486Z</time>
      </trkpt>
      <trkpt lat="46.91469" lon="8.57746">
        <ele>881</ele>
        <time>2021-08-10T12:27:37.486Z</time>
      </trkpt>
      <trkpt lat="46.91468" lon="8.57745">
        <ele>880</ele>
        <time>2021-08-10T12:27:38.485Z</time>
      </trkpt>
      <trkpt lat="46.91468" lon="8.57743">
        <ele>880</ele>
        <time>2021-08-10T12:27:39.486Z</time>
      </trkpt>
      <trkpt lat="46.91467" lon="8.57741">
        <ele>880</ele>
        <time>2021-08-10T12:27:40.485Z</time>
      </trkpt>
      <trkpt lat="46.91467" lon="8.5774">
        <ele>880</ele>
        <time>2021-08-10T12:27:41.486Z</time>
      </trkpt>
      <trkpt lat="46.91466" lon="8.57738">
        <ele>880</ele>
        <time>2021-08-10T12:27:42.486Z</time>
      </trkpt>
      <trkpt lat="46.91465" lon="8.57737">
        <ele>880</ele>
        <time>2021-08-10T12:27:43.486Z</time>
      </trkpt>
      <trkpt lat="46.91464" lon="8.57736">
        <ele>880</ele>
        <time>2021-08-10T12:27:44.486Z</time>
      </trkpt>
      <trkpt lat="46.91463" lon="8.57736">
        <ele>880</ele>
        <time>2021-08-10T12:27:45.485Z</time>
      </trkpt>
      <trkpt lat="46.91462" lon="8.57736">
        <ele>879</ele>
        <time>2021-08-10T12:27:46.485Z</time>
      </trkpt>
      <trkpt lat="46.91462" lon="8.57737">
        <ele>879</ele>
        <time>2021-08-10T12:27:47.486Z</time>
      </trkpt>
      <trkpt lat="46.91461" lon="8.57739">
        <ele>879</ele>
        <time>2021-08-10T12:27:48.486Z</time>
      </trkpt>
      <trkpt lat="46.91461" lon="8.5774">
        <ele>879</ele>
        <time>2021-08-10T12:27:49.486Z</time>
      </trkpt>
      <trkpt lat="46.91461" lon="8.57741">
        <ele>879</ele>
        <time>2021-08-10T12:27:50.485Z</time>
      </trkpt>
      <trkpt lat="46.91461" lon="8.57742">
        <ele>879</ele>
        <time>2021-08-10T12:27:51.486Z</time>
      </trkpt>
      <trkpt lat="46.91461" lon="8.57743">
        <ele>879</ele>
        <time>2021-08-10T12:27:52.486Z</time>
      </trkpt>
      <trkpt lat="46.9146" lon="8.57744">
        <ele>878</ele>
        <time>2021-08-10T12:27:53.485Z</time>
      </trkpt>
      <trkpt lat="46.9146" lon="8.57746">
        <ele>878</ele>
        <time>2021-08-10T12:27:54.486Z</time>
      </trkpt>
      <trkpt lat="46.9146" lon="8.57746">
        <ele>878</ele>
        <time>2021-08-10T12:27:55.486Z</time>
      </trkpt>
      <trkpt lat="46.9146" lon="8.57748">
        <ele>878</ele>
        <time>2021-08-10T12:27:56.486Z</time>
      </trkpt>
      <trkpt lat="46.91459" lon="8.57749">
        <ele>878</ele>
        <time>2021-08-10T12:27:57.486Z</time>
      </trkpt>
      <trkpt lat="46.91458" lon="8.57749">
        <ele>878</ele>
        <time>2021-08-10T12:27:58.485Z</time>
      </trkpt>
      <trkpt lat="46.91457" lon="8.57748">
        <ele>878</ele>
        <time>2021-08-10T12:27:59.486Z</time>
      </trkpt>
      <trkpt lat="46.91456" lon="8.57747">
        <ele>878</ele>
        <time>2021-08-10T12:28:00.485Z</time>
      </trkpt>
      <trkpt lat="46.91455" lon="8.57747">
        <ele>878</ele>
        <time>2021-08-10T12:28:01.486Z</time>
      </trkpt>
      <trkpt lat="46.91454" lon="8.57745">
        <ele>878</ele>
        <time>2021-08-10T12:28:02.485Z</time>
      </trkpt>
      <trkpt lat="46.91453" lon="8.57744">
        <ele>878</ele>
        <time>2021-08-10T12:28:03.486Z</time>
      </trkpt>
      <trkpt lat="46.91452" lon="8.57742">
        <ele>878</ele>
        <time>2021-08-10T12:28:04.485Z</time>
      </trkpt>
      <trkpt lat="46.91452" lon="8.57741">
        <ele>878</ele>
        <time>2021-08-10T12:28:05.486Z</time>
      </trkpt>
      <trkpt lat="46.91451" lon="8.5774">
        <ele>878</ele>
        <time>2021-08-10T12:28:06.486Z</time>
      </trkpt>
      <trkpt lat="46.91452" lon="8.57737">
        <ele>877</ele>
        <time>2021-08-10T12:28:07.486Z</time>
      </trkpt>
      <trkpt lat="46.91452" lon="8.57737">
        <ele>876</ele>
        <time>2021-08-10T12:28:08.486Z</time>
      </trkpt>
      <trkpt lat="46.91452" lon="8.57736">
        <ele>876</ele>
        <time>2021-08-10T12:28:09.486Z</time>
      </trkpt>
      <trkpt lat="46.91452" lon="8.57735">
        <ele>875</ele>
        <time>2021-08-10T12:28:10.487Z</time>
      </trkpt>
      <trkpt lat="46.91451" lon="8.57734">
        <ele>875</ele>
        <time>2021-08-10T12:28:11.486Z</time>
      </trkpt>
      <trkpt lat="46.91451" lon="8.57733">
        <ele>875</ele>
        <time>2021-08-10T12:28:12.487Z</time>
      </trkpt>
      <trkpt lat="46.9145" lon="8.57732">
        <ele>874</ele>
        <time>2021-08-10T12:28:13.486Z</time>
      </trkpt>
      <trkpt lat="46.9145" lon="8.57732">
        <ele>874</ele>
        <time>2021-08-10T12:28:14.487Z</time>
      </trkpt>
      <trkpt lat="46.91449" lon="8.57731">
        <ele>874</ele>
        <time>2021-08-10T12:28:15.487Z</time>
      </trkpt>
      <trkpt lat="46.91449" lon="8.57731">
        <ele>874</ele>
        <time>2021-08-10T12:28:16.486Z</time>
      </trkpt>
      <trkpt lat="46.91449" lon="8.57729">
        <ele>873</ele>
        <time>2021-08-10T12:28:17.487Z</time>
      </trkpt>
      <trkpt lat="46.91449" lon="8.57728">
        <ele>873</ele>
        <time>2021-08-10T12:28:18.486Z</time>
      </trkpt>
      <trkpt lat="46.91449" lon="8.57727">
        <ele>873</ele>
        <time>2021-08-10T12:28:19.487Z</time>
      </trkpt>
      <trkpt lat="46.91448" lon="8.57725">
        <ele>873</ele>
        <time>2021-08-10T12:28:20.487Z</time>
      </trkpt>
      <trkpt lat="46.91448" lon="8.57724">
        <ele>873</ele>
        <time>2021-08-10T12:28:21.486Z</time>
      </trkpt>
      <trkpt lat="46.91446" lon="8.57723">
        <ele>872</ele>
        <time>2021-08-10T12:28:22.487Z</time>
      </trkpt>
      <trkpt lat="46.91445" lon="8.57722">
        <ele>872</ele>
        <time>2021-08-10T12:28:23.487Z</time>
      </trkpt>
      <trkpt lat="46.91445" lon="8.57722">
        <ele>872</ele>
        <time>2021-08-10T12:28:24.487Z</time>
      </trkpt>
      <trkpt lat="46.91445" lon="8.57721">
        <ele>872</ele>
        <time>2021-08-10T12:28:25.486Z</time>
      </trkpt>
      <trkpt lat="46.91445" lon="8.57721">
        <ele>872</ele>
        <time>2021-08-10T12:28:26.487Z</time>
      </trkpt>
      <trkpt lat="46.91444" lon="8.57721">
        <ele>872</ele>
        <time>2021-08-10T12:28:27.487Z</time>
      </trkpt>
      <trkpt lat="46.91444" lon="8.57721">
        <ele>872</ele>
        <time>2021-08-10T12:28:28.486Z</time>
      </trkpt>
      <trkpt lat="46.91443" lon="8.5772">
        <ele>872</ele>
        <time>2021-08-10T12:28:29.486Z</time>
      </trkpt>
      <trkpt lat="46.91442" lon="8.5772">
        <ele>872</ele>
        <time>2021-08-10T12:28:30.486Z</time>
      </trkpt>
      <trkpt lat="46.91442" lon="8.5772">
        <ele>872</ele>
        <time>2021-08-10T12:28:31.487Z</time>
      </trkpt>
      <trkpt lat="46.91441" lon="8.57719">
        <ele>871</ele>
        <time>2021-08-10T12:28:32.486Z</time>
      </trkpt>
      <trkpt lat="46.91442" lon="8.57718">
        <ele>870</ele>
        <time>2021-08-10T12:28:33.487Z</time>
      </trkpt>
      <trkpt lat="46.91441" lon="8.57717">
        <ele>870</ele>
        <time>2021-08-10T12:28:34.486Z</time>
      </trkpt>
      <trkpt lat="46.91441" lon="8.57715">
        <ele>869</ele>
        <time>2021-08-10T12:28:35.487Z</time>
      </trkpt>
      <trkpt lat="46.9144" lon="8.57712">
        <ele>869</ele>
        <time>2021-08-10T12:28:36.487Z</time>
      </trkpt>
      <trkpt lat="46.91439" lon="8.5771">
        <ele>869</ele>
        <time>2021-08-10T12:28:37.486Z</time>
      </trkpt>
      <trkpt lat="46.91438" lon="8.5771">
        <ele>868</ele>
        <time>2021-08-10T12:28:38.486Z</time>
      </trkpt>
      <trkpt lat="46.91438" lon="8.57709">
        <ele>868</ele>
        <time>2021-08-10T12:28:39.486Z</time>
      </trkpt>
      <trkpt lat="46.91438" lon="8.57708">
        <ele>868</ele>
        <time>2021-08-10T12:28:40.487Z</time>
      </trkpt>
      <trkpt lat="46.91438" lon="8.57708">
        <ele>867</ele>
        <time>2021-08-10T12:28:41.487Z</time>
      </trkpt>
      <trkpt lat="46.91438" lon="8.57708">
        <ele>867</ele>
        <time>2021-08-10T12:28:42.486Z</time>
      </trkpt>
      <trkpt lat="46.91438" lon="8.57707">
        <ele>867</ele>
        <time>2021-08-10T12:28:43.487Z</time>
      </trkpt>
      <trkpt lat="46.91438" lon="8.57706">
        <ele>866</ele>
        <time>2021-08-10T12:28:44.486Z</time>
      </trkpt>
      <trkpt lat="46.91438" lon="8.57704">
        <ele>865</ele>
        <time>2021-08-10T12:28:45.486Z</time>
      </trkpt>
      <trkpt lat="46.91438" lon="8.57703">
        <ele>864</ele>
        <time>2021-08-10T12:28:46.486Z</time>
      </trkpt>
      <trkpt lat="46.91438" lon="8.57703">
        <ele>863</ele>
        <time>2021-08-10T12:28:47.487Z</time>
      </trkpt>
      <trkpt lat="46.91437" lon="8.57703">
        <ele>863</ele>
        <time>2021-08-10T12:28:48.487Z</time>
      </trkpt>
      <trkpt lat="46.91437" lon="8.57702">
        <ele>862</ele>
        <time>2021-08-10T12:28:49.487Z</time>
      </trkpt>
      <trkpt lat="46.91436" lon="8.57701">
        <ele>861</ele>
        <time>2021-08-10T12:28:50.486Z</time>
      </trkpt>
      <trkpt lat="46.91436" lon="8.577">
        <ele>860</ele>
        <time>2021-08-10T12:28:51.487Z</time>
      </trkpt>
      <trkpt lat="46.91435" lon="8.57698">
        <ele>859</ele>
        <time>2021-08-10T12:28:52.487Z</time>
      </trkpt>
      <trkpt lat="46.91435" lon="8.57697">
        <ele>859</ele>
        <time>2021-08-10T12:28:53.487Z</time>
      </trkpt>
      <trkpt lat="46.91435" lon="8.57696">
        <ele>858</ele>
        <time>2021-08-10T12:28:54.487Z</time>
      </trkpt>
      <trkpt lat="46.91435" lon="8.57695">
        <ele>858</ele>
        <time>2021-08-10T12:28:55.486Z</time>
      </trkpt>
      <trkpt lat="46.91435" lon="8.57695">
        <ele>858</ele>
        <time>2021-08-10T12:28:56.486Z</time>
      </trkpt>
      <trkpt lat="46.91435" lon="8.57694">
        <ele>857</ele>
        <time>2021-08-10T12:28:57.487Z</time>
      </trkpt>
      <trkpt lat="46.91435" lon="8.57693">
        <ele>857</ele>
        <time>2021-08-10T12:28:58.487Z</time>
      </trkpt>
      <trkpt lat="46.91435" lon="8.57692">
        <ele>857</ele>
        <time>2021-08-10T12:28:59.486Z</time>
      </trkpt>
      <trkpt lat="46.91436" lon="8.57691">
        <ele>857</ele>
        <time>2021-08-10T12:29:00.486Z</time>
      </trkpt>
      <trkpt lat="46.91435" lon="8.5769">
        <ele>857</ele>
        <time>2021-08-10T12:29:01.487Z</time>
      </trkpt>
      <trkpt lat="46.91435" lon="8.57689">
        <ele>856</ele>
        <time>2021-08-10T12:29:02.487Z</time>
      </trkpt>
      <trkpt lat="46.91434" lon="8.57688">
        <ele>856</ele>
        <time>2021-08-10T12:29:03.487Z</time>
      </trkpt>
      <trkpt lat="46.91432" lon="8.57687">
        <ele>856</ele>
        <time>2021-08-10T12:29:04.486Z</time>
      </trkpt>
      <trkpt lat="46.91432" lon="8.57687">
        <ele>855</ele>
        <time>2021-08-10T12:29:05.487Z</time>
      </trkpt>
      <trkpt lat="46.91431" lon="8.57686">
        <ele>855</ele>
        <time>2021-08-10T12:29:17.513Z</time>
      </trkpt>
      <trkpt lat="46.9143" lon="8.57686">
        <ele>854</ele>
        <time>2021-08-10T12:29:18.514Z</time>
      </trkpt>
      <trkpt lat="46.9143" lon="8.57685">
        <ele>854</ele>
        <time>2021-08-10T12:29:19.514Z</time>
      </trkpt>
      <trkpt lat="46.9143" lon="8.57685">
        <ele>853</ele>
        <time>2021-08-10T12:29:20.514Z</time>
      </trkpt>
      <trkpt lat="46.9143" lon="8.57685">
        <ele>853</ele>
        <time>2021-08-10T12:29:21.514Z</time>
      </trkpt>
      <trkpt lat="46.9143" lon="8.57684">
        <ele>853</ele>
        <time>2021-08-10T12:29:22.514Z</time>
      </trkpt>
      <trkpt lat="46.91429" lon="8.57683">
        <ele>852</ele>
        <time>2021-08-10T12:29:24.446Z</time>
      </trkpt>
      <trkpt lat="46.91428" lon="8.57682">
        <ele>851</ele>
        <time>2021-08-10T12:29:25.445Z</time>
      </trkpt>
      <trkpt lat="46.91428" lon="8.57682">
        <ele>851</ele>
        <time>2021-08-10T12:29:57.242Z</time>
      </trkpt>
      <trkpt lat="46.91428" lon="8.57682">
        <ele>851</ele>
        <time>2021-08-10T12:29:58.242Z</time>
      </trkpt>
      <trkpt lat="46.91427" lon="8.57682">
        <ele>850</ele>
        <time>2021-08-10T12:29:59.243Z</time>
      </trkpt>
      <trkpt lat="46.91426" lon="8.57683">
        <ele>850</ele>
        <time>2021-08-10T12:30:00.243Z</time>
      </trkpt>
      <trkpt lat="46.91426" lon="8.57682">
        <ele>850</ele>
        <time>2021-08-10T12:30:09.268Z</time>
      </trkpt>
      <trkpt lat="46.91426" lon="8.57681">
        <ele>849</ele>
        <time>2021-08-10T12:30:10.268Z</time>
      </trkpt>
      <trkpt lat="46.91425" lon="8.57681">
        <ele>849</ele>
        <time>2021-08-10T12:30:11.268Z</time>
      </trkpt>
      <trkpt lat="46.91425" lon="8.57681">
        <ele>849</ele>
        <time>2021-08-10T12:30:12.268Z</time>
      </trkpt>
      <trkpt lat="46.91425" lon="8.5768">
        <ele>849</ele>
        <time>2021-08-10T12:30:13.268Z</time>
      </trkpt>
      <trkpt lat="46.91424" lon="8.57679">
        <ele>848</ele>
        <time>2021-08-10T12:30:14.270Z</time>
      </trkpt>
      <trkpt lat="46.91424" lon="8.57678">
        <ele>848</ele>
        <time>2021-08-10T12:30:15.270Z</time>
      </trkpt>
      <trkpt lat="46.91423" lon="8.57678">
        <ele>848</ele>
        <time>2021-08-10T12:30:16.269Z</time>
      </trkpt>
      <trkpt lat="46.91423" lon="8.57678">
        <ele>848</ele>
        <time>2021-08-10T12:30:17.269Z</time>
      </trkpt>
      <trkpt lat="46.91422" lon="8.57676">
        <ele>849</ele>
        <time>2021-08-10T12:30:18.269Z</time>
      </trkpt>
      <trkpt lat="46.91421" lon="8.57675">
        <ele>849</ele>
        <time>2021-08-10T12:30:19.270Z</time>
      </trkpt>
      <trkpt lat="46.9142" lon="8.57673">
        <ele>849</ele>
        <time>2021-08-10T12:30:25.373Z</time>
      </trkpt>
      <trkpt lat="46.91419" lon="8.57671">
        <ele>850</ele>
        <time>2021-08-10T12:30:26.372Z</time>
      </trkpt>
      <trkpt lat="46.91418" lon="8.57669">
        <ele>850</ele>
        <time>2021-08-10T12:30:27.373Z</time>
      </trkpt>
      <trkpt lat="46.91417" lon="8.57667">
        <ele>850</ele>
        <time>2021-08-10T12:30:28.373Z</time>
      </trkpt>
      <trkpt lat="46.91418" lon="8.57666">
        <ele>851</ele>
        <time>2021-08-10T12:30:29.373Z</time>
      </trkpt>
      <trkpt lat="46.91419" lon="8.57665">
        <ele>851</ele>
        <time>2021-08-10T12:30:30.372Z</time>
      </trkpt>
      <trkpt lat="46.91419" lon="8.57664">
        <ele>851</ele>
        <time>2021-08-10T12:30:31.373Z</time>
      </trkpt>
      <trkpt lat="46.91419" lon="8.57662">
        <ele>852</ele>
        <time>2021-08-10T12:30:32.373Z</time>
      </trkpt>
      <trkpt lat="46.91419" lon="8.5766">
        <ele>852</ele>
        <time>2021-08-10T12:30:33.372Z</time>
      </trkpt>
      <trkpt lat="46.91418" lon="8.57659">
        <ele>852</ele>
        <time>2021-08-10T12:30:34.373Z</time>
      </trkpt>
      <trkpt lat="46.91417" lon="8.57659">
        <ele>852</ele>
        <time>2021-08-10T12:30:35.372Z</time>
      </trkpt>
      <trkpt lat="46.91416" lon="8.57659">
        <ele>852</ele>
        <time>2021-08-10T12:30:36.372Z</time>
      </trkpt>
      <trkpt lat="46.91416" lon="8.57658">
        <ele>851</ele>
        <time>2021-08-10T12:30:37.372Z</time>
      </trkpt>
      <trkpt lat="46.91416" lon="8.57658">
        <ele>852</ele>
        <time>2021-08-10T12:30:38.372Z</time>
      </trkpt>
      <trkpt lat="46.91415" lon="8.57658">
        <ele>852</ele>
        <time>2021-08-10T12:30:39.373Z</time>
      </trkpt>
      <trkpt lat="46.91415" lon="8.57657">
        <ele>852</ele>
        <time>2021-08-10T12:30:40.372Z</time>
      </trkpt>
      <trkpt lat="46.91415" lon="8.57656">
        <ele>852</ele>
        <time>2021-08-10T12:30:41.372Z</time>
      </trkpt>
      <trkpt lat="46.91414" lon="8.57656">
        <ele>852</ele>
        <time>2021-08-10T12:30:42.372Z</time>
      </trkpt>
      <trkpt lat="46.91414" lon="8.57655">
        <ele>852</ele>
        <time>2021-08-10T12:30:43.372Z</time>
      </trkpt>
      <trkpt lat="46.91414" lon="8.57654">
        <ele>852</ele>
        <time>2021-08-10T12:30:44.372Z</time>
      </trkpt>
      <trkpt lat="46.91414" lon="8.57653">
        <ele>852</ele>
        <time>2021-08-10T12:30:45.372Z</time>
      </trkpt>
      <trkpt lat="46.91415" lon="8.57653">
        <ele>852</ele>
        <time>2021-08-10T12:30:46.372Z</time>
      </trkpt>
      <trkpt lat="46.91415" lon="8.57653">
        <ele>851</ele>
        <time>2021-08-10T12:30:47.372Z</time>
      </trkpt>
      <trkpt lat="46.91415" lon="8.57652">
        <ele>851</ele>
        <time>2021-08-10T12:30:48.372Z</time>
      </trkpt>
      <trkpt lat="46.91414" lon="8.57651">
        <ele>851</ele>
        <time>2021-08-10T12:30:49.372Z</time>
      </trkpt>
      <trkpt lat="46.91413" lon="8.5765">
        <ele>851</ele>
        <time>2021-08-10T12:30:50.372Z</time>
      </trkpt>
      <trkpt lat="46.91412" lon="8.57648">
        <ele>851</ele>
        <time>2021-08-10T12:30:51.372Z</time>
      </trkpt>
      <trkpt lat="46.91411" lon="8.57647">
        <ele>851</ele>
        <time>2021-08-10T12:30:52.372Z</time>
      </trkpt>
      <trkpt lat="46.91411" lon="8.57647">
        <ele>851</ele>
        <time>2021-08-10T12:30:53.372Z</time>
      </trkpt>
      <trkpt lat="46.91411" lon="8.57646">
        <ele>851</ele>
        <time>2021-08-10T12:30:54.372Z</time>
      </trkpt>
      <trkpt lat="46.91411" lon="8.57646">
        <ele>851</ele>
        <time>2021-08-10T12:30:55.372Z</time>
      </trkpt>
      <trkpt lat="46.9141" lon="8.57645">
        <ele>851</ele>
        <time>2021-08-10T12:30:56.372Z</time>
      </trkpt>
      <trkpt lat="46.91409" lon="8.57639">
        <ele>850</ele>
        <time>2021-08-10T12:30:57.374Z</time>
      </trkpt>
      <trkpt lat="46.91409" lon="8.57638">
        <ele>850</ele>
        <time>2021-08-10T12:30:58.374Z</time>
      </trkpt>
      <trkpt lat="46.91408" lon="8.57636">
        <ele>849</ele>
        <time>2021-08-10T12:30:59.373Z</time>
      </trkpt>
      <trkpt lat="46.91408" lon="8.57635">
        <ele>849</ele>
        <time>2021-08-10T12:31:00.373Z</time>
      </trkpt>
      <trkpt lat="46.91408" lon="8.57633">
        <ele>849</ele>
        <time>2021-08-10T12:31:01.373Z</time>
      </trkpt>
      <trkpt lat="46.91408" lon="8.57633">
        <ele>848</ele>
        <time>2021-08-10T12:31:02.373Z</time>
      </trkpt>
      <trkpt lat="46.91408" lon="8.57632">
        <ele>848</ele>
        <time>2021-08-10T12:31:03.374Z</time>
      </trkpt>
      <trkpt lat="46.91408" lon="8.57631">
        <ele>848</ele>
        <time>2021-08-10T12:31:04.374Z</time>
      </trkpt>
      <trkpt lat="46.91408" lon="8.5763">
        <ele>847</ele>
        <time>2021-08-10T12:31:05.374Z</time>
      </trkpt>
      <trkpt lat="46.91408" lon="8.57628">
        <ele>847</ele>
        <time>2021-08-10T12:31:06.373Z</time>
      </trkpt>
      <trkpt lat="46.91408" lon="8.57626">
        <ele>847</ele>
        <time>2021-08-10T12:31:07.373Z</time>
      </trkpt>
      <trkpt lat="46.91408" lon="8.57626">
        <ele>847</ele>
        <time>2021-08-10T12:31:08.373Z</time>
      </trkpt>
      <trkpt lat="46.91407" lon="8.57626">
        <ele>847</ele>
        <time>2021-08-10T12:31:09.373Z</time>
      </trkpt>
      <trkpt lat="46.91407" lon="8.57626">
        <ele>847</ele>
        <time>2021-08-10T12:31:10.373Z</time>
      </trkpt>
      <trkpt lat="46.91406" lon="8.57625">
        <ele>847</ele>
        <time>2021-08-10T12:31:11.373Z</time>
      </trkpt>
      <trkpt lat="46.91406" lon="8.57624">
        <ele>847</ele>
        <time>2021-08-10T12:31:12.373Z</time>
      </trkpt>
      <trkpt lat="46.91406" lon="8.57623">
        <ele>847</ele>
        <time>2021-08-10T12:31:13.373Z</time>
      </trkpt>
      <trkpt lat="46.91406" lon="8.57623">
        <ele>847</ele>
        <time>2021-08-10T12:31:14.374Z</time>
      </trkpt>
      <trkpt lat="46.91406" lon="8.57623">
        <ele>847</ele>
        <time>2021-08-10T12:31:15.374Z</time>
      </trkpt>
      <trkpt lat="46.91406" lon="8.57622">
        <ele>847</ele>
        <time>2021-08-10T12:31:16.374Z</time>
      </trkpt>
      <trkpt lat="46.91404" lon="8.5762">
        <ele>847</ele>
        <time>2021-08-10T12:31:17.374Z</time>
      </trkpt>
      <trkpt lat="46.91404" lon="8.5762">
        <ele>846</ele>
        <time>2021-08-10T12:31:18.374Z</time>
      </trkpt>
      <trkpt lat="46.91403" lon="8.57619">
        <ele>846</ele>
        <time>2021-08-10T12:31:19.374Z</time>
      </trkpt>
      <trkpt lat="46.91405" lon="8.57618">
        <ele>846</ele>
        <time>2021-08-10T12:31:20.375Z</time>
      </trkpt>
      <trkpt lat="46.91405" lon="8.57617">
        <ele>846</ele>
        <time>2021-08-10T12:31:21.375Z</time>
      </trkpt>
      <trkpt lat="46.91405" lon="8.57616">
        <ele>846</ele>
        <time>2021-08-10T12:31:22.375Z</time>
      </trkpt>
      <trkpt lat="46.91405" lon="8.57616">
        <ele>845</ele>
        <time>2021-08-10T12:31:23.375Z</time>
      </trkpt>
      <trkpt lat="46.91404" lon="8.57607">
        <ele>844</ele>
        <time>2021-08-10T12:31:24.376Z</time>
      </trkpt>
      <trkpt lat="46.91404" lon="8.57607">
        <ele>844</ele>
        <time>2021-08-10T12:31:25.375Z</time>
      </trkpt>
      <trkpt lat="46.91403" lon="8.57606">
        <ele>845</ele>
        <time>2021-08-10T12:31:26.375Z</time>
      </trkpt>
      <trkpt lat="46.91403" lon="8.57605">
        <ele>845</ele>
        <time>2021-08-10T12:31:27.375Z</time>
      </trkpt>
      <trkpt lat="46.91402" lon="8.57603">
        <ele>845</ele>
        <time>2021-08-10T12:31:28.375Z</time>
      </trkpt>
      <trkpt lat="46.91402" lon="8.57602">
        <ele>845</ele>
        <time>2021-08-10T12:31:29.375Z</time>
      </trkpt>
      <trkpt lat="46.91401" lon="8.57602">
        <ele>846</ele>
        <time>2021-08-10T12:31:30.376Z</time>
      </trkpt>
      <trkpt lat="46.91401" lon="8.57601">
        <ele>846</ele>
        <time>2021-08-10T12:31:31.376Z</time>
      </trkpt>
      <trkpt lat="46.91401" lon="8.576">
        <ele>846</ele>
        <time>2021-08-10T12:31:32.376Z</time>
      </trkpt>
      <trkpt lat="46.91401" lon="8.57599">
        <ele>846</ele>
        <time>2021-08-10T12:31:33.376Z</time>
      </trkpt>
      <trkpt lat="46.91401" lon="8.57598">
        <ele>846</ele>
        <time>2021-08-10T12:31:34.376Z</time>
      </trkpt>
      <trkpt lat="46.91401" lon="8.57597">
        <ele>846</ele>
        <time>2021-08-10T12:31:35.376Z</time>
      </trkpt>
      <trkpt lat="46.91401" lon="8.57596">
        <ele>846</ele>
        <time>2021-08-10T12:31:36.375Z</time>
      </trkpt>
      <trkpt lat="46.914" lon="8.57595">
        <ele>847</ele>
        <time>2021-08-10T12:31:37.376Z</time>
      </trkpt>
      <trkpt lat="46.914" lon="8.57594">
        <ele>847</ele>
        <time>2021-08-10T12:31:38.376Z</time>
      </trkpt>
      <trkpt lat="46.914" lon="8.57594">
        <ele>847</ele>
        <time>2021-08-10T12:31:39.376Z</time>
      </trkpt>
      <trkpt lat="46.914" lon="8.57594">
        <ele>848</ele>
        <time>2021-08-10T12:31:40.377Z</time>
      </trkpt>
      <trkpt lat="46.91399" lon="8.57593">
        <ele>848</ele>
        <time>2021-08-10T12:31:41.377Z</time>
      </trkpt>
      <trkpt lat="46.91399" lon="8.57592">
        <ele>848</ele>
        <time>2021-08-10T12:31:42.376Z</time>
      </trkpt>
      <trkpt lat="46.91398" lon="8.57591">
        <ele>848</ele>
        <time>2021-08-10T12:31:43.377Z</time>
      </trkpt>
      <trkpt lat="46.91398" lon="8.5759">
        <ele>848</ele>
        <time>2021-08-10T12:31:44.377Z</time>
      </trkpt>
      <trkpt lat="46.91398" lon="8.57589">
        <ele>847</ele>
        <time>2021-08-10T12:31:45.376Z</time>
      </trkpt>
      <trkpt lat="46.91397" lon="8.57588">
        <ele>847</ele>
        <time>2021-08-10T12:31:46.377Z</time>
      </trkpt>
      <trkpt lat="46.91396" lon="8.57588">
        <ele>847</ele>
        <time>2021-08-10T12:31:47.377Z</time>
      </trkpt>
      <trkpt lat="46.91395" lon="8.57587">
        <ele>847</ele>
        <time>2021-08-10T12:31:50.482Z</time>
      </trkpt>
      <trkpt lat="46.91395" lon="8.57587">
        <ele>847</ele>
        <time>2021-08-10T12:31:51.482Z</time>
      </trkpt>
      <trkpt lat="46.91395" lon="8.57587">
        <ele>847</ele>
        <time>2021-08-10T12:31:52.482Z</time>
      </trkpt>
      <trkpt lat="46.91395" lon="8.57587">
        <ele>847</ele>
        <time>2021-08-10T12:31:53.483Z</time>
      </trkpt>
      <trkpt lat="46.91394" lon="8.57586">
        <ele>847</ele>
        <time>2021-08-10T12:31:54.482Z</time>
      </trkpt>
      <trkpt lat="46.91394" lon="8.57586">
        <ele>847</ele>
        <time>2021-08-10T12:31:55.482Z</time>
      </trkpt>
      <trkpt lat="46.91394" lon="8.57584">
        <ele>847</ele>
        <time>2021-08-10T12:31:56.482Z</time>
      </trkpt>
      <trkpt lat="46.91394" lon="8.57584">
        <ele>847</ele>
        <time>2021-08-10T12:31:57.483Z</time>
      </trkpt>
      <trkpt lat="46.91393" lon="8.57584">
        <ele>847</ele>
        <time>2021-08-10T12:31:58.482Z</time>
      </trkpt>
      <trkpt lat="46.91393" lon="8.57583">
        <ele>848</ele>
        <time>2021-08-10T12:31:59.482Z</time>
      </trkpt>
      <trkpt lat="46.91392" lon="8.57582">
        <ele>848</ele>
        <time>2021-08-10T12:32:00.482Z</time>
      </trkpt>
      <trkpt lat="46.91392" lon="8.57582">
        <ele>848</ele>
        <time>2021-08-10T12:32:01.483Z</time>
      </trkpt>
      <trkpt lat="46.9139" lon="8.5758">
        <ele>848</ele>
        <time>2021-08-10T12:32:02.482Z</time>
      </trkpt>
      <trkpt lat="46.91388" lon="8.57578">
        <ele>848</ele>
        <time>2021-08-10T12:32:03.483Z</time>
      </trkpt>
      <trkpt lat="46.91387" lon="8.57577">
        <ele>849</ele>
        <time>2021-08-10T12:32:04.482Z</time>
      </trkpt>
      <trkpt lat="46.91386" lon="8.57576">
        <ele>849</ele>
        <time>2021-08-10T12:32:05.483Z</time>
      </trkpt>
      <trkpt lat="46.91386" lon="8.57575">
        <ele>849</ele>
        <time>2021-08-10T12:32:06.483Z</time>
      </trkpt>
      <trkpt lat="46.91385" lon="8.57573">
        <ele>850</ele>
        <time>2021-08-10T12:32:07.483Z</time>
      </trkpt>
      <trkpt lat="46.91385" lon="8.57573">
        <ele>851</ele>
        <time>2021-08-10T12:32:08.484Z</time>
      </trkpt>
      <trkpt lat="46.91385" lon="8.57572">
        <ele>851</ele>
        <time>2021-08-10T12:32:09.483Z</time>
      </trkpt>
      <trkpt lat="46.91385" lon="8.57571">
        <ele>851</ele>
        <time>2021-08-10T12:32:10.484Z</time>
      </trkpt>
      <trkpt lat="46.91384" lon="8.57571">
        <ele>852</ele>
        <time>2021-08-10T12:32:11.484Z</time>
      </trkpt>
      <trkpt lat="46.91386" lon="8.57571">
        <ele>852</ele>
        <time>2021-08-10T12:32:12.484Z</time>
      </trkpt>
      <trkpt lat="46.91386" lon="8.5757">
        <ele>852</ele>
        <time>2021-08-10T12:32:13.483Z</time>
      </trkpt>
      <trkpt lat="46.91387" lon="8.57569">
        <ele>852</ele>
        <time>2021-08-10T12:32:14.484Z</time>
      </trkpt>
      <trkpt lat="46.91387" lon="8.57569">
        <ele>853</ele>
        <time>2021-08-10T12:32:15.484Z</time>
      </trkpt>
      <trkpt lat="46.91387" lon="8.57567">
        <ele>853</ele>
        <time>2021-08-10T12:32:16.484Z</time>
      </trkpt>
      <trkpt lat="46.91386" lon="8.57568">
        <ele>853</ele>
        <time>2021-08-10T12:32:17.484Z</time>
      </trkpt>
      <trkpt lat="46.91384" lon="8.57567">
        <ele>853</ele>
        <time>2021-08-10T12:32:18.484Z</time>
      </trkpt>
      <trkpt lat="46.91383" lon="8.57567">
        <ele>853</ele>
        <time>2021-08-10T12:32:19.484Z</time>
      </trkpt>
      <trkpt lat="46.91383" lon="8.57566">
        <ele>853</ele>
        <time>2021-08-10T12:32:20.484Z</time>
      </trkpt>
      <trkpt lat="46.91384" lon="8.57567">
        <ele>853</ele>
        <time>2021-08-10T12:32:21.484Z</time>
      </trkpt>
      <trkpt lat="46.91384" lon="8.57568">
        <ele>853</ele>
        <time>2021-08-10T12:32:22.484Z</time>
      </trkpt>
      <trkpt lat="46.91385" lon="8.57568">
        <ele>853</ele>
        <time>2021-08-10T12:32:23.483Z</time>
      </trkpt>
      <trkpt lat="46.91386" lon="8.57567">
        <ele>853</ele>
        <time>2021-08-10T12:32:24.483Z</time>
      </trkpt>
      <trkpt lat="46.91386" lon="8.57567">
        <ele>853</ele>
        <time>2021-08-10T12:32:25.483Z</time>
      </trkpt>
      <trkpt lat="46.91385" lon="8.57567">
        <ele>853</ele>
        <time>2021-08-10T12:32:26.483Z</time>
      </trkpt>
      <trkpt lat="46.91385" lon="8.57566">
        <ele>852</ele>
        <time>2021-08-10T12:32:27.484Z</time>
      </trkpt>
      <trkpt lat="46.91384" lon="8.57564">
        <ele>852</ele>
        <time>2021-08-10T12:32:28.483Z</time>
      </trkpt>
      <trkpt lat="46.91383" lon="8.57563">
        <ele>851</ele>
        <time>2021-08-10T12:32:29.483Z</time>
      </trkpt>
      <trkpt lat="46.91382" lon="8.57562">
        <ele>851</ele>
        <time>2021-08-10T12:32:30.483Z</time>
      </trkpt>
      <trkpt lat="46.91381" lon="8.57561">
        <ele>850</ele>
        <time>2021-08-10T12:32:31.483Z</time>
      </trkpt>
      <trkpt lat="46.91379" lon="8.57562">
        <ele>849</ele>
        <time>2021-08-10T12:32:32.483Z</time>
      </trkpt>
      <trkpt lat="46.91379" lon="8.57562">
        <ele>849</ele>
        <time>2021-08-10T12:32:33.484Z</time>
      </trkpt>
      <trkpt lat="46.91379" lon="8.57562">
        <ele>848</ele>
        <time>2021-08-10T12:32:34.483Z</time>
      </trkpt>
      <trkpt lat="46.91379" lon="8.57561">
        <ele>848</ele>
        <time>2021-08-10T12:32:35.484Z</time>
      </trkpt>
      <trkpt lat="46.91378" lon="8.57561">
        <ele>848</ele>
        <time>2021-08-10T12:32:36.483Z</time>
      </trkpt>
      <trkpt lat="46.91378" lon="8.57562">
        <ele>847</ele>
        <time>2021-08-10T12:32:37.484Z</time>
      </trkpt>
      <trkpt lat="46.91377" lon="8.57562">
        <ele>847</ele>
        <time>2021-08-10T12:32:38.484Z</time>
      </trkpt>
      <trkpt lat="46.91377" lon="8.57562">
        <ele>846</ele>
        <time>2021-08-10T12:32:39.483Z</time>
      </trkpt>
      <trkpt lat="46.91377" lon="8.57562">
        <ele>846</ele>
        <time>2021-08-10T12:32:40.483Z</time>
      </trkpt>
      <trkpt lat="46.91375" lon="8.57561">
        <ele>845</ele>
        <time>2021-08-10T12:32:41.484Z</time>
      </trkpt>
      <trkpt lat="46.91374" lon="8.57561">
        <ele>844</ele>
        <time>2021-08-10T12:32:42.484Z</time>
      </trkpt>
      <trkpt lat="46.91374" lon="8.5756">
        <ele>844</ele>
        <time>2021-08-10T12:32:43.483Z</time>
      </trkpt>
      <trkpt lat="46.91374" lon="8.57559">
        <ele>844</ele>
        <time>2021-08-10T12:32:44.484Z</time>
      </trkpt>
      <trkpt lat="46.91373" lon="8.57558">
        <ele>844</ele>
        <time>2021-08-10T12:32:45.484Z</time>
      </trkpt>
      <trkpt lat="46.91373" lon="8.57556">
        <ele>843</ele>
        <time>2021-08-10T12:32:46.483Z</time>
      </trkpt>
      <trkpt lat="46.91373" lon="8.57554">
        <ele>843</ele>
        <time>2021-08-10T12:32:47.483Z</time>
      </trkpt>
      <trkpt lat="46.91372" lon="8.57551">
        <ele>842</ele>
        <time>2021-08-10T12:32:48.484Z</time>
      </trkpt>
      <trkpt lat="46.91372" lon="8.57549">
        <ele>842</ele>
        <time>2021-08-10T12:32:49.483Z</time>
      </trkpt>
      <trkpt lat="46.91372" lon="8.57548">
        <ele>842</ele>
        <time>2021-08-10T12:32:50.483Z</time>
      </trkpt>
      <trkpt lat="46.91372" lon="8.57547">
        <ele>842</ele>
        <time>2021-08-10T12:32:51.483Z</time>
      </trkpt>
      <trkpt lat="46.91373" lon="8.57546">
        <ele>842</ele>
        <time>2021-08-10T12:32:52.484Z</time>
      </trkpt>
      <trkpt lat="46.91372" lon="8.57545">
        <ele>842</ele>
        <time>2021-08-10T12:32:53.483Z</time>
      </trkpt>
      <trkpt lat="46.91372" lon="8.57544">
        <ele>842</ele>
        <time>2021-08-10T12:32:54.483Z</time>
      </trkpt>
      <trkpt lat="46.91371" lon="8.57543">
        <ele>841</ele>
        <time>2021-08-10T12:32:55.483Z</time>
      </trkpt>
      <trkpt lat="46.9137" lon="8.57541">
        <ele>841</ele>
        <time>2021-08-10T12:32:56.483Z</time>
      </trkpt>
      <trkpt lat="46.91369" lon="8.5754">
        <ele>840</ele>
        <time>2021-08-10T12:32:57.484Z</time>
      </trkpt>
      <trkpt lat="46.91369" lon="8.5754">
        <ele>840</ele>
        <time>2021-08-10T12:32:58.483Z</time>
      </trkpt>
      <trkpt lat="46.91369" lon="8.57539">
        <ele>840</ele>
        <time>2021-08-10T12:32:59.484Z</time>
      </trkpt>
      <trkpt lat="46.91368" lon="8.57538">
        <ele>840</ele>
        <time>2021-08-10T12:33:00.484Z</time>
      </trkpt>
      <trkpt lat="46.91368" lon="8.57537">
        <ele>840</ele>
        <time>2021-08-10T12:33:01.484Z</time>
      </trkpt>
      <trkpt lat="46.91368" lon="8.57537">
        <ele>840</ele>
        <time>2021-08-10T12:33:02.483Z</time>
      </trkpt>
      <trkpt lat="46.91368" lon="8.57537">
        <ele>839</ele>
        <time>2021-08-10T12:33:03.483Z</time>
      </trkpt>
      <trkpt lat="46.91368" lon="8.57536">
        <ele>839</ele>
        <time>2021-08-10T12:33:04.485Z</time>
      </trkpt>
      <trkpt lat="46.91368" lon="8.57536">
        <ele>839</ele>
        <time>2021-08-10T12:33:05.484Z</time>
      </trkpt>
      <trkpt lat="46.91368" lon="8.57537">
        <ele>839</ele>
        <time>2021-08-10T12:33:06.484Z</time>
      </trkpt>
      <trkpt lat="46.91368" lon="8.57536">
        <ele>839</ele>
        <time>2021-08-10T12:33:07.485Z</time>
      </trkpt>
      <trkpt lat="46.91368" lon="8.57536">
        <ele>839</ele>
        <time>2021-08-10T12:33:08.485Z</time>
      </trkpt>
      <trkpt lat="46.91368" lon="8.57536">
        <ele>839</ele>
        <time>2021-08-10T12:33:09.485Z</time>
      </trkpt>
      <trkpt lat="46.91371" lon="8.57536">
        <ele>837</ele>
        <time>2021-08-10T12:33:10.485Z</time>
      </trkpt>
      <trkpt lat="46.91371" lon="8.57536">
        <ele>837</ele>
        <time>2021-08-10T12:33:11.485Z</time>
      </trkpt>
      <trkpt lat="46.9137" lon="8.57535">
        <ele>836</ele>
        <time>2021-08-10T12:33:12.484Z</time>
      </trkpt>
      <trkpt lat="46.91369" lon="8.57534">
        <ele>835</ele>
        <time>2021-08-10T12:33:13.484Z</time>
      </trkpt>
      <trkpt lat="46.91369" lon="8.57534">
        <ele>834</ele>
        <time>2021-08-10T12:33:14.484Z</time>
      </trkpt>
      <trkpt lat="46.91369" lon="8.57533">
        <ele>834</ele>
        <time>2021-08-10T12:33:15.484Z</time>
      </trkpt>
      <trkpt lat="46.91368" lon="8.57532">
        <ele>833</ele>
        <time>2021-08-10T12:33:16.485Z</time>
      </trkpt>
      <trkpt lat="46.91368" lon="8.57532">
        <ele>833</ele>
        <time>2021-08-10T12:33:17.485Z</time>
      </trkpt>
      <trkpt lat="46.91368" lon="8.57531">
        <ele>832</ele>
        <time>2021-08-10T12:33:18.484Z</time>
      </trkpt>
      <trkpt lat="46.91368" lon="8.57531">
        <ele>832</ele>
        <time>2021-08-10T12:33:19.484Z</time>
      </trkpt>
      <trkpt lat="46.91367" lon="8.57531">
        <ele>831</ele>
        <time>2021-08-10T12:33:20.484Z</time>
      </trkpt>
      <trkpt lat="46.91367" lon="8.5753">
        <ele>831</ele>
        <time>2021-08-10T12:33:21.484Z</time>
      </trkpt>
      <trkpt lat="46.91366" lon="8.57529">
        <ele>831</ele>
        <time>2021-08-10T12:33:22.484Z</time>
      </trkpt>
      <trkpt lat="46.91366" lon="8.57529">
        <ele>831</ele>
        <time>2021-08-10T12:33:23.484Z</time>
      </trkpt>
      <trkpt lat="46.91365" lon="8.57529">
        <ele>831</ele>
        <time>2021-08-10T12:33:24.484Z</time>
      </trkpt>
      <trkpt lat="46.91365" lon="8.57528">
        <ele>831</ele>
        <time>2021-08-10T12:33:25.484Z</time>
      </trkpt>
      <trkpt lat="46.91365" lon="8.57528">
        <ele>830</ele>
        <time>2021-08-10T12:33:26.485Z</time>
      </trkpt>
      <trkpt lat="46.91364" lon="8.57527">
        <ele>830</ele>
        <time>2021-08-10T12:33:27.484Z</time>
      </trkpt>
      <trkpt lat="46.91364" lon="8.57526">
        <ele>829</ele>
        <time>2021-08-10T12:33:28.484Z</time>
      </trkpt>
      <trkpt lat="46.91363" lon="8.57525">
        <ele>829</ele>
        <time>2021-08-10T12:33:29.485Z</time>
      </trkpt>
      <trkpt lat="46.91362" lon="8.57525">
        <ele>828</ele>
        <time>2021-08-10T12:33:30.484Z</time>
      </trkpt>
      <trkpt lat="46.91362" lon="8.57525">
        <ele>828</ele>
        <time>2021-08-10T12:33:31.484Z</time>
      </trkpt>
      <trkpt lat="46.91361" lon="8.57524">
        <ele>827</ele>
        <time>2021-08-10T12:33:32.484Z</time>
      </trkpt>
      <trkpt lat="46.91361" lon="8.57523">
        <ele>827</ele>
        <time>2021-08-10T12:33:33.485Z</time>
      </trkpt>
      <trkpt lat="46.91361" lon="8.57522">
        <ele>826</ele>
        <time>2021-08-10T12:33:34.484Z</time>
      </trkpt>
      <trkpt lat="46.91361" lon="8.57523">
        <ele>826</ele>
        <time>2021-08-10T12:33:35.484Z</time>
      </trkpt>
      <trkpt lat="46.91361" lon="8.57523">
        <ele>825</ele>
        <time>2021-08-10T12:33:36.484Z</time>
      </trkpt>
      <trkpt lat="46.91362" lon="8.57521">
        <ele>825</ele>
        <time>2021-08-10T12:33:37.485Z</time>
      </trkpt>
      <trkpt lat="46.91361" lon="8.57519">
        <ele>825</ele>
        <time>2021-08-10T12:33:38.484Z</time>
      </trkpt>
      <trkpt lat="46.91361" lon="8.57516">
        <ele>825</ele>
        <time>2021-08-10T12:33:39.484Z</time>
      </trkpt>
      <trkpt lat="46.9136" lon="8.57514">
        <ele>825</ele>
        <time>2021-08-10T12:33:40.484Z</time>
      </trkpt>
      <trkpt lat="46.91359" lon="8.57512">
        <ele>825</ele>
        <time>2021-08-10T12:33:41.485Z</time>
      </trkpt>
      <trkpt lat="46.91359" lon="8.57511">
        <ele>825</ele>
        <time>2021-08-10T12:33:42.485Z</time>
      </trkpt>
      <trkpt lat="46.91359" lon="8.5751">
        <ele>825</ele>
        <time>2021-08-10T12:33:43.484Z</time>
      </trkpt>
      <trkpt lat="46.91359" lon="8.5751">
        <ele>825</ele>
        <time>2021-08-10T12:33:44.484Z</time>
      </trkpt>
      <trkpt lat="46.91359" lon="8.57509">
        <ele>825</ele>
        <time>2021-08-10T12:33:46.606Z</time>
      </trkpt>
      <trkpt lat="46.91359" lon="8.57508">
        <ele>824</ele>
        <time>2021-08-10T12:33:47.606Z</time>
      </trkpt>
      <trkpt lat="46.91358" lon="8.57507">
        <ele>824</ele>
        <time>2021-08-10T12:33:48.605Z</time>
      </trkpt>
      <trkpt lat="46.91358" lon="8.57507">
        <ele>824</ele>
        <time>2021-08-10T12:33:49.605Z</time>
      </trkpt>
      <trkpt lat="46.91357" lon="8.57506">
        <ele>824</ele>
        <time>2021-08-10T12:33:50.605Z</time>
      </trkpt>
      <trkpt lat="46.91357" lon="8.57505">
        <ele>824</ele>
        <time>2021-08-10T12:33:51.605Z</time>
      </trkpt>
      <trkpt lat="46.91357" lon="8.57504">
        <ele>824</ele>
        <time>2021-08-10T12:33:52.605Z</time>
      </trkpt>
      <trkpt lat="46.91357" lon="8.57503">
        <ele>824</ele>
        <time>2021-08-10T12:33:53.605Z</time>
      </trkpt>
      <trkpt lat="46.91356" lon="8.57502">
        <ele>823</ele>
        <time>2021-08-10T12:33:54.606Z</time>
      </trkpt>
      <trkpt lat="46.91356" lon="8.57501">
        <ele>823</ele>
        <time>2021-08-10T12:33:55.605Z</time>
      </trkpt>
      <trkpt lat="46.91356" lon="8.57501">
        <ele>823</ele>
        <time>2021-08-10T12:33:56.605Z</time>
      </trkpt>
      <trkpt lat="46.91357" lon="8.575">
        <ele>822</ele>
        <time>2021-08-10T12:33:58.731Z</time>
      </trkpt>
      <trkpt lat="46.91358" lon="8.57497">
        <ele>822</ele>
        <time>2021-08-10T12:33:59.731Z</time>
      </trkpt>
      <trkpt lat="46.91357" lon="8.57494">
        <ele>821</ele>
        <time>2021-08-10T12:34:00.731Z</time>
      </trkpt>
      <trkpt lat="46.91357" lon="8.57493">
        <ele>820</ele>
        <time>2021-08-10T12:34:01.731Z</time>
      </trkpt>
      <trkpt lat="46.91356" lon="8.57492">
        <ele>820</ele>
        <time>2021-08-10T12:34:02.731Z</time>
      </trkpt>
      <trkpt lat="46.91356" lon="8.57491">
        <ele>819</ele>
        <time>2021-08-10T12:34:03.731Z</time>
      </trkpt>
      <trkpt lat="46.91356" lon="8.57491">
        <ele>819</ele>
        <time>2021-08-10T12:34:04.731Z</time>
      </trkpt>
      <trkpt lat="46.91356" lon="8.57491">
        <ele>819</ele>
        <time>2021-08-10T12:34:05.731Z</time>
      </trkpt>
      <trkpt lat="46.91356" lon="8.57492">
        <ele>818</ele>
        <time>2021-08-10T12:34:06.731Z</time>
      </trkpt>
      <trkpt lat="46.91357" lon="8.57492">
        <ele>818</ele>
        <time>2021-08-10T12:34:07.731Z</time>
      </trkpt>
      <trkpt lat="46.91357" lon="8.57492">
        <ele>818</ele>
        <time>2021-08-10T12:34:08.731Z</time>
      </trkpt>
      <trkpt lat="46.91351" lon="8.57485">
        <ele>815</ele>
        <time>2021-08-10T12:34:09.733Z</time>
      </trkpt>
      <trkpt lat="46.91349" lon="8.57483">
        <ele>815</ele>
        <time>2021-08-10T12:34:10.734Z</time>
      </trkpt>
      <trkpt lat="46.91347" lon="8.57482">
        <ele>814</ele>
        <time>2021-08-10T12:34:11.733Z</time>
      </trkpt>
      <trkpt lat="46.91344" lon="8.57482">
        <ele>812</ele>
        <time>2021-08-10T12:34:12.734Z</time>
      </trkpt>
      <trkpt lat="46.91343" lon="8.57483">
        <ele>812</ele>
        <time>2021-08-10T12:34:13.733Z</time>
      </trkpt>
      <trkpt lat="46.91343" lon="8.57483">
        <ele>811</ele>
        <time>2021-08-10T12:34:14.734Z</time>
      </trkpt>
      <trkpt lat="46.91342" lon="8.57483">
        <ele>810</ele>
        <time>2021-08-10T12:34:15.733Z</time>
      </trkpt>
      <trkpt lat="46.91342" lon="8.57483">
        <ele>809</ele>
        <time>2021-08-10T12:34:16.733Z</time>
      </trkpt>
      <trkpt lat="46.91342" lon="8.57483">
        <ele>809</ele>
        <time>2021-08-10T12:34:17.733Z</time>
      </trkpt>
      <trkpt lat="46.91341" lon="8.57482">
        <ele>808</ele>
        <time>2021-08-10T12:34:18.733Z</time>
      </trkpt>
      <trkpt lat="46.91341" lon="8.57481">
        <ele>807</ele>
        <time>2021-08-10T12:34:19.733Z</time>
      </trkpt>
      <trkpt lat="46.9134" lon="8.5748">
        <ele>807</ele>
        <time>2021-08-10T12:34:20.733Z</time>
      </trkpt>
      <trkpt lat="46.91339" lon="8.57479">
        <ele>806</ele>
        <time>2021-08-10T12:34:21.734Z</time>
      </trkpt>
      <trkpt lat="46.91339" lon="8.57479">
        <ele>806</ele>
        <time>2021-08-10T12:34:22.733Z</time>
      </trkpt>
      <trkpt lat="46.91339" lon="8.57479">
        <ele>806</ele>
        <time>2021-08-10T12:34:23.733Z</time>
      </trkpt>
      <trkpt lat="46.91338" lon="8.57478">
        <ele>806</ele>
        <time>2021-08-10T12:34:24.734Z</time>
      </trkpt>
      <trkpt lat="46.91338" lon="8.57478">
        <ele>806</ele>
        <time>2021-08-10T12:34:25.733Z</time>
      </trkpt>
      <trkpt lat="46.91338" lon="8.57477">
        <ele>806</ele>
        <time>2021-08-10T12:34:26.733Z</time>
      </trkpt>
      <trkpt lat="46.91338" lon="8.57477">
        <ele>806</ele>
        <time>2021-08-10T12:34:27.733Z</time>
      </trkpt>
      <trkpt lat="46.91338" lon="8.57477">
        <ele>806</ele>
        <time>2021-08-10T12:34:28.733Z</time>
      </trkpt>
      <trkpt lat="46.91338" lon="8.57478">
        <ele>806</ele>
        <time>2021-08-10T12:34:29.733Z</time>
      </trkpt>
      <trkpt lat="46.91337" lon="8.57477">
        <ele>806</ele>
        <time>2021-08-10T12:34:30.733Z</time>
      </trkpt>
      <trkpt lat="46.91336" lon="8.57477">
        <ele>806</ele>
        <time>2021-08-10T12:34:31.733Z</time>
      </trkpt>
      <trkpt lat="46.91335" lon="8.57476">
        <ele>806</ele>
        <time>2021-08-10T12:34:32.733Z</time>
      </trkpt>
      <trkpt lat="46.91335" lon="8.57474">
        <ele>805</ele>
        <time>2021-08-10T12:34:33.733Z</time>
      </trkpt>
      <trkpt lat="46.91335" lon="8.57473">
        <ele>805</ele>
        <time>2021-08-10T12:34:34.734Z</time>
      </trkpt>
      <trkpt lat="46.91335" lon="8.57472">
        <ele>804</ele>
        <time>2021-08-10T12:34:35.733Z</time>
      </trkpt>
      <trkpt lat="46.91335" lon="8.57471">
        <ele>804</ele>
        <time>2021-08-10T12:34:36.733Z</time>
      </trkpt>
      <trkpt lat="46.91335" lon="8.5747">
        <ele>803</ele>
        <time>2021-08-10T12:34:38.754Z</time>
      </trkpt>
      <trkpt lat="46.91335" lon="8.5747">
        <ele>803</ele>
        <time>2021-08-10T12:34:39.754Z</time>
      </trkpt>
      <trkpt lat="46.91335" lon="8.5747">
        <ele>803</ele>
        <time>2021-08-10T12:34:40.754Z</time>
      </trkpt>
      <trkpt lat="46.91335" lon="8.57469">
        <ele>803</ele>
        <time>2021-08-10T12:34:41.754Z</time>
      </trkpt>
      <trkpt lat="46.91336" lon="8.57469">
        <ele>802</ele>
        <time>2021-08-10T12:34:42.754Z</time>
      </trkpt>
      <trkpt lat="46.91336" lon="8.57469">
        <ele>802</ele>
        <time>2021-08-10T12:34:43.754Z</time>
      </trkpt>
      <trkpt lat="46.91336" lon="8.57469">
        <ele>802</ele>
        <time>2021-08-10T12:34:44.754Z</time>
      </trkpt>
      <trkpt lat="46.91336" lon="8.57468">
        <ele>802</ele>
        <time>2021-08-10T12:34:45.756Z</time>
      </trkpt>
      <trkpt lat="46.91336" lon="8.57468">
        <ele>794</ele>
        <time>2021-08-10T12:34:46.756Z</time>
      </trkpt>
      <trkpt lat="46.91336" lon="8.57468">
        <ele>795</ele>
        <time>2021-08-10T12:34:47.756Z</time>
      </trkpt>
      <trkpt lat="46.91336" lon="8.57468">
        <ele>795</ele>
        <time>2021-08-10T12:34:48.755Z</time>
      </trkpt>
      <trkpt lat="46.91336" lon="8.5747">
        <ele>799</ele>
        <time>2021-08-10T12:34:49.755Z</time>
      </trkpt>
      <trkpt lat="46.91336" lon="8.5747">
        <ele>799</ele>
        <time>2021-08-10T12:34:50.756Z</time>
      </trkpt>
      <trkpt lat="46.91335" lon="8.57471">
        <ele>801</ele>
        <time>2021-08-10T12:34:51.757Z</time>
      </trkpt>
      <trkpt lat="46.91335" lon="8.57471">
        <ele>802</ele>
        <time>2021-08-10T12:34:52.757Z</time>
      </trkpt>
      <trkpt lat="46.91335" lon="8.5747">
        <ele>803</ele>
        <time>2021-08-10T12:34:53.756Z</time>
      </trkpt>
      <trkpt lat="46.9133" lon="8.57467">
        <ele>806</ele>
        <time>2021-08-10T12:34:54.757Z</time>
      </trkpt>
      <trkpt lat="46.91329" lon="8.57465">
        <ele>806</ele>
        <time>2021-08-10T12:34:55.756Z</time>
      </trkpt>
      <trkpt lat="46.91328" lon="8.57463">
        <ele>806</ele>
        <time>2021-08-10T12:34:56.756Z</time>
      </trkpt>
      <trkpt lat="46.91326" lon="8.57462">
        <ele>807</ele>
        <time>2021-08-10T12:35:05.889Z</time>
      </trkpt>
      <trkpt lat="46.91326" lon="8.57461">
        <ele>807</ele>
        <time>2021-08-10T12:35:06.889Z</time>
      </trkpt>
      <trkpt lat="46.91327" lon="8.5746">
        <ele>807</ele>
        <time>2021-08-10T12:35:07.890Z</time>
      </trkpt>
      <trkpt lat="46.91326" lon="8.57459">
        <ele>806</ele>
        <time>2021-08-10T12:35:14.030Z</time>
      </trkpt>
      <trkpt lat="46.91326" lon="8.57458">
        <ele>806</ele>
        <time>2021-08-10T12:35:15.030Z</time>
      </trkpt>
      <trkpt lat="46.91325" lon="8.57456">
        <ele>806</ele>
        <time>2021-08-10T12:35:23.898Z</time>
      </trkpt>
      <trkpt lat="46.91324" lon="8.57454">
        <ele>805</ele>
        <time>2021-08-10T12:35:24.898Z</time>
      </trkpt>
      <trkpt lat="46.91324" lon="8.57453">
        <ele>805</ele>
        <time>2021-08-10T12:35:25.898Z</time>
      </trkpt>
      <trkpt lat="46.91324" lon="8.57453">
        <ele>805</ele>
        <time>2021-08-10T12:35:39.985Z</time>
      </trkpt>
      <trkpt lat="46.91324" lon="8.57453">
        <ele>805</ele>
        <time>2021-08-10T12:35:51.858Z</time>
      </trkpt>
      <trkpt lat="46.91324" lon="8.57452">
        <ele>804</ele>
        <time>2021-08-10T12:35:52.858Z</time>
      </trkpt>
      <trkpt lat="46.91325" lon="8.57451">
        <ele>804</ele>
        <time>2021-08-10T12:35:53.858Z</time>
      </trkpt>
      <trkpt lat="46.91325" lon="8.57451">
        <ele>804</ele>
        <time>2021-08-10T12:35:54.857Z</time>
      </trkpt>
      <trkpt lat="46.91325" lon="8.5745">
        <ele>804</ele>
        <time>2021-08-10T12:35:55.857Z</time>
      </trkpt>
      <trkpt lat="46.91324" lon="8.5745">
        <ele>804</ele>
        <time>2021-08-10T12:35:56.858Z</time>
      </trkpt>
      <trkpt lat="46.91324" lon="8.5745">
        <ele>804</ele>
        <time>2021-08-10T12:36:11.002Z</time>
      </trkpt>
      <trkpt lat="46.91324" lon="8.57449">
        <ele>804</ele>
        <time>2021-08-10T12:36:12.003Z</time>
      </trkpt>
      <trkpt lat="46.91324" lon="8.57447">
        <ele>804</ele>
        <time>2021-08-10T12:36:13.717Z</time>
      </trkpt>
      <trkpt lat="46.91324" lon="8.57445">
        <ele>804</ele>
        <time>2021-08-10T12:36:14.716Z</time>
      </trkpt>
      <trkpt lat="46.91324" lon="8.57444">
        <ele>804</ele>
        <time>2021-08-10T12:36:15.716Z</time>
      </trkpt>
      <trkpt lat="46.91324" lon="8.57444">
        <ele>804</ele>
        <time>2021-08-10T12:36:18.742Z</time>
      </trkpt>
      <trkpt lat="46.91324" lon="8.57443">
        <ele>804</ele>
        <time>2021-08-10T12:36:19.742Z</time>
      </trkpt>
      <trkpt lat="46.91324" lon="8.57441">
        <ele>804</ele>
        <time>2021-08-10T12:36:20.741Z</time>
      </trkpt>
      <trkpt lat="46.91323" lon="8.57439">
        <ele>804</ele>
        <time>2021-08-10T12:36:21.742Z</time>
      </trkpt>
      <trkpt lat="46.91321" lon="8.57436">
        <ele>803</ele>
        <time>2021-08-10T12:36:22.741Z</time>
      </trkpt>
      <trkpt lat="46.91319" lon="8.57432">
        <ele>802</ele>
        <time>2021-08-10T12:36:25.867Z</time>
      </trkpt>
      <trkpt lat="46.91318" lon="8.57431">
        <ele>802</ele>
        <time>2021-08-10T12:36:26.867Z</time>
      </trkpt>
      <trkpt lat="46.91318" lon="8.5743">
        <ele>802</ele>
        <time>2021-08-10T12:36:27.866Z</time>
      </trkpt>
      <trkpt lat="46.91318" lon="8.57429">
        <ele>802</ele>
        <time>2021-08-10T12:36:28.867Z</time>
      </trkpt>
      <trkpt lat="46.91318" lon="8.57428">
        <ele>801</ele>
        <time>2021-08-10T12:36:29.866Z</time>
      </trkpt>
      <trkpt lat="46.91318" lon="8.57427">
        <ele>801</ele>
        <time>2021-08-10T12:36:30.866Z</time>
      </trkpt>
      <trkpt lat="46.91317" lon="8.57426">
        <ele>800</ele>
        <time>2021-08-10T12:36:31.867Z</time>
      </trkpt>
      <trkpt lat="46.91317" lon="8.57425">
        <ele>799</ele>
        <time>2021-08-10T12:36:32.867Z</time>
      </trkpt>
      <trkpt lat="46.91317" lon="8.57424">
        <ele>798</ele>
        <time>2021-08-10T12:36:33.867Z</time>
      </trkpt>
      <trkpt lat="46.91317" lon="8.57423">
        <ele>798</ele>
        <time>2021-08-10T12:36:34.866Z</time>
      </trkpt>
      <trkpt lat="46.91316" lon="8.57422">
        <ele>797</ele>
        <time>2021-08-10T12:36:35.866Z</time>
      </trkpt>
      <trkpt lat="46.91316" lon="8.57422">
        <ele>796</ele>
        <time>2021-08-10T12:36:36.867Z</time>
      </trkpt>
      <trkpt lat="46.91316" lon="8.57421">
        <ele>795</ele>
        <time>2021-08-10T12:36:37.867Z</time>
      </trkpt>
      <trkpt lat="46.91316" lon="8.57421">
        <ele>795</ele>
        <time>2021-08-10T12:36:41.981Z</time>
      </trkpt>
      <trkpt lat="46.91316" lon="8.5742">
        <ele>795</ele>
        <time>2021-08-10T12:36:42.981Z</time>
      </trkpt>
      <trkpt lat="46.91317" lon="8.5742">
        <ele>795</ele>
        <time>2021-08-10T12:36:43.981Z</time>
      </trkpt>
      <trkpt lat="46.91317" lon="8.57419">
        <ele>794</ele>
        <time>2021-08-10T12:37:01.143Z</time>
      </trkpt>
      <trkpt lat="46.91318" lon="8.57417">
        <ele>794</ele>
        <time>2021-08-10T12:37:02.143Z</time>
      </trkpt>
      <trkpt lat="46.91317" lon="8.57416">
        <ele>794</ele>
        <time>2021-08-10T12:37:09.002Z</time>
      </trkpt>
      <trkpt lat="46.91316" lon="8.57409">
        <ele>794</ele>
        <time>2021-08-10T12:37:10.002Z</time>
      </trkpt>
      <trkpt lat="46.91316" lon="8.57408">
        <ele>794</ele>
        <time>2021-08-10T12:37:11.002Z</time>
      </trkpt>
      <trkpt lat="46.91315" lon="8.57407">
        <ele>794</ele>
        <time>2021-08-10T12:37:22.113Z</time>
      </trkpt>
      <trkpt lat="46.91315" lon="8.57406">
        <ele>794</ele>
        <time>2021-08-10T12:37:23.114Z</time>
      </trkpt>
      <trkpt lat="46.91314" lon="8.57405">
        <ele>795</ele>
        <time>2021-08-10T12:37:24.113Z</time>
      </trkpt>
      <trkpt lat="46.91313" lon="8.57403">
        <ele>795</ele>
        <time>2021-08-10T12:37:25.114Z</time>
      </trkpt>
      <trkpt lat="46.91313" lon="8.57402">
        <ele>795</ele>
        <time>2021-08-10T12:37:39.230Z</time>
      </trkpt>
      <trkpt lat="46.91312" lon="8.57401">
        <ele>795</ele>
        <time>2021-08-10T12:37:40.230Z</time>
      </trkpt>
      <trkpt lat="46.91311" lon="8.574">
        <ele>795</ele>
        <time>2021-08-10T12:37:41.230Z</time>
      </trkpt>
      <trkpt lat="46.91311" lon="8.57399">
        <ele>795</ele>
        <time>2021-08-10T12:37:42.229Z</time>
      </trkpt>
      <trkpt lat="46.91311" lon="8.57398">
        <ele>795</ele>
        <time>2021-08-10T12:37:43.229Z</time>
      </trkpt>
      <trkpt lat="46.91312" lon="8.57397">
        <ele>795</ele>
        <time>2021-08-10T12:37:44.229Z</time>
      </trkpt>
      <trkpt lat="46.91311" lon="8.57395">
        <ele>795</ele>
        <time>2021-08-10T12:37:45.229Z</time>
      </trkpt>
      <trkpt lat="46.9131" lon="8.57394">
        <ele>794</ele>
        <time>2021-08-10T12:37:46.230Z</time>
      </trkpt>
      <trkpt lat="46.9131" lon="8.57393">
        <ele>794</ele>
        <time>2021-08-10T12:37:57.378Z</time>
      </trkpt>
      <trkpt lat="46.9131" lon="8.57392">
        <ele>794</ele>
        <time>2021-08-10T12:38:07.274Z</time>
      </trkpt>
      <trkpt lat="46.91309" lon="8.5739">
        <ele>794</ele>
        <time>2021-08-10T12:38:12.124Z</time>
      </trkpt>
      <trkpt lat="46.91308" lon="8.57389">
        <ele>794</ele>
        <time>2021-08-10T12:38:13.124Z</time>
      </trkpt>
      <trkpt lat="46.91307" lon="8.57388">
        <ele>794</ele>
        <time>2021-08-10T12:38:14.125Z</time>
      </trkpt>
      <trkpt lat="46.91307" lon="8.57387">
        <ele>794</ele>
        <time>2021-08-10T12:38:15.124Z</time>
      </trkpt>
      <trkpt lat="46.91306" lon="8.57386">
        <ele>794</ele>
        <time>2021-08-10T12:38:16.124Z</time>
      </trkpt>
      <trkpt lat="46.91305" lon="8.57384">
        <ele>794</ele>
        <time>2021-08-10T12:38:17.124Z</time>
      </trkpt>
      <trkpt lat="46.91305" lon="8.57382">
        <ele>794</ele>
        <time>2021-08-10T12:38:18.125Z</time>
      </trkpt>
      <trkpt lat="46.91305" lon="8.5738">
        <ele>793</ele>
        <time>2021-08-10T12:38:19.124Z</time>
      </trkpt>
      <trkpt lat="46.91304" lon="8.57377">
        <ele>793</ele>
        <time>2021-08-10T12:38:20.125Z</time>
      </trkpt>
      <trkpt lat="46.91302" lon="8.57375">
        <ele>793</ele>
        <time>2021-08-10T12:38:21.125Z</time>
      </trkpt>
      <trkpt lat="46.91301" lon="8.57373">
        <ele>792</ele>
        <time>2021-08-10T12:38:22.125Z</time>
      </trkpt>
      <trkpt lat="46.913" lon="8.57371">
        <ele>791</ele>
        <time>2021-08-10T12:38:23.125Z</time>
      </trkpt>
      <trkpt lat="46.913" lon="8.57368">
        <ele>791</ele>
        <time>2021-08-10T12:38:24.125Z</time>
      </trkpt>
      <trkpt lat="46.913" lon="8.57367">
        <ele>790</ele>
        <time>2021-08-10T12:38:25.125Z</time>
      </trkpt>
      <trkpt lat="46.913" lon="8.57366">
        <ele>790</ele>
        <time>2021-08-10T12:38:26.125Z</time>
      </trkpt>
      <trkpt lat="46.91299" lon="8.57365">
        <ele>790</ele>
        <time>2021-08-10T12:38:27.125Z</time>
      </trkpt>
      <trkpt lat="46.91298" lon="8.57364">
        <ele>790</ele>
        <time>2021-08-10T12:38:28.124Z</time>
      </trkpt>
      <trkpt lat="46.91297" lon="8.57363">
        <ele>790</ele>
        <time>2021-08-10T12:38:29.125Z</time>
      </trkpt>
      <trkpt lat="46.91297" lon="8.57361">
        <ele>790</ele>
        <time>2021-08-10T12:38:30.125Z</time>
      </trkpt>
      <trkpt lat="46.91296" lon="8.5736">
        <ele>789</ele>
        <time>2021-08-10T12:38:31.124Z</time>
      </trkpt>
      <trkpt lat="46.91295" lon="8.5736">
        <ele>789</ele>
        <time>2021-08-10T12:38:32.125Z</time>
      </trkpt>
      <trkpt lat="46.91295" lon="8.5736">
        <ele>789</ele>
        <time>2021-08-10T12:38:33.125Z</time>
      </trkpt>
      <trkpt lat="46.91294" lon="8.57358">
        <ele>789</ele>
        <time>2021-08-10T12:38:34.125Z</time>
      </trkpt>
      <trkpt lat="46.91294" lon="8.57354">
        <ele>789</ele>
        <time>2021-08-10T12:38:35.125Z</time>
      </trkpt>
      <trkpt lat="46.91294" lon="8.57353">
        <ele>789</ele>
        <time>2021-08-10T12:38:36.126Z</time>
      </trkpt>
      <trkpt lat="46.91293" lon="8.57351">
        <ele>789</ele>
        <time>2021-08-10T12:38:37.125Z</time>
      </trkpt>
      <trkpt lat="46.91292" lon="8.57349">
        <ele>789</ele>
        <time>2021-08-10T12:38:38.125Z</time>
      </trkpt>
      <trkpt lat="46.9129" lon="8.57346">
        <ele>790</ele>
        <time>2021-08-10T12:38:39.125Z</time>
      </trkpt>
      <trkpt lat="46.91289" lon="8.57343">
        <ele>790</ele>
        <time>2021-08-10T12:38:40.125Z</time>
      </trkpt>
      <trkpt lat="46.91288" lon="8.57341">
        <ele>791</ele>
        <time>2021-08-10T12:38:41.125Z</time>
      </trkpt>
      <trkpt lat="46.91287" lon="8.57339">
        <ele>791</ele>
        <time>2021-08-10T12:38:42.125Z</time>
      </trkpt>
      <trkpt lat="46.91287" lon="8.57338">
        <ele>791</ele>
        <time>2021-08-10T12:38:43.126Z</time>
      </trkpt>
      <trkpt lat="46.91287" lon="8.57337">
        <ele>791</ele>
        <time>2021-08-10T12:38:44.125Z</time>
      </trkpt>
      <trkpt lat="46.91287" lon="8.57336">
        <ele>791</ele>
        <time>2021-08-10T12:38:45.125Z</time>
      </trkpt>
      <trkpt lat="46.91286" lon="8.57335">
        <ele>791</ele>
        <time>2021-08-10T12:38:46.125Z</time>
      </trkpt>
      <trkpt lat="46.91285" lon="8.57333">
        <ele>791</ele>
        <time>2021-08-10T12:38:47.125Z</time>
      </trkpt>
      <trkpt lat="46.91285" lon="8.57332">
        <ele>790</ele>
        <time>2021-08-10T12:38:48.125Z</time>
      </trkpt>
      <trkpt lat="46.91284" lon="8.57331">
        <ele>790</ele>
        <time>2021-08-10T12:38:49.125Z</time>
      </trkpt>
      <trkpt lat="46.91284" lon="8.5733">
        <ele>789</ele>
        <time>2021-08-10T12:38:50.125Z</time>
      </trkpt>
      <trkpt lat="46.91284" lon="8.57329">
        <ele>789</ele>
        <time>2021-08-10T12:38:51.125Z</time>
      </trkpt>
      <trkpt lat="46.91283" lon="8.57328">
        <ele>789</ele>
        <time>2021-08-10T12:38:52.125Z</time>
      </trkpt>
      <trkpt lat="46.91283" lon="8.57327">
        <ele>788</ele>
        <time>2021-08-10T12:38:53.126Z</time>
      </trkpt>
      <trkpt lat="46.91283" lon="8.57326">
        <ele>788</ele>
        <time>2021-08-10T12:38:54.126Z</time>
      </trkpt>
      <trkpt lat="46.91283" lon="8.57325">
        <ele>788</ele>
        <time>2021-08-10T12:38:55.126Z</time>
      </trkpt>
      <trkpt lat="46.91283" lon="8.57324">
        <ele>788</ele>
        <time>2021-08-10T12:38:56.126Z</time>
      </trkpt>
      <trkpt lat="46.91283" lon="8.57322">
        <ele>787</ele>
        <time>2021-08-10T12:38:57.125Z</time>
      </trkpt>
      <trkpt lat="46.91282" lon="8.5732">
        <ele>787</ele>
        <time>2021-08-10T12:38:58.125Z</time>
      </trkpt>
      <trkpt lat="46.91282" lon="8.57318">
        <ele>787</ele>
        <time>2021-08-10T12:38:59.125Z</time>
      </trkpt>
      <trkpt lat="46.91282" lon="8.57317">
        <ele>786</ele>
        <time>2021-08-10T12:39:00.125Z</time>
      </trkpt>
      <trkpt lat="46.91281" lon="8.57315">
        <ele>786</ele>
        <time>2021-08-10T12:39:01.126Z</time>
      </trkpt>
      <trkpt lat="46.91281" lon="8.57314">
        <ele>785</ele>
        <time>2021-08-10T12:39:02.125Z</time>
      </trkpt>
      <trkpt lat="46.9128" lon="8.57313">
        <ele>785</ele>
        <time>2021-08-10T12:39:03.126Z</time>
      </trkpt>
      <trkpt lat="46.91279" lon="8.57311">
        <ele>785</ele>
        <time>2021-08-10T12:39:04.126Z</time>
      </trkpt>
      <trkpt lat="46.91279" lon="8.57308">
        <ele>785</ele>
        <time>2021-08-10T12:39:05.125Z</time>
      </trkpt>
      <trkpt lat="46.91278" lon="8.57307">
        <ele>785</ele>
        <time>2021-08-10T12:39:06.126Z</time>
      </trkpt>
      <trkpt lat="46.91277" lon="8.57305">
        <ele>785</ele>
        <time>2021-08-10T12:39:07.126Z</time>
      </trkpt>
      <trkpt lat="46.91277" lon="8.57305">
        <ele>785</ele>
        <time>2021-08-10T12:39:08.126Z</time>
      </trkpt>
      <trkpt lat="46.91277" lon="8.57303">
        <ele>785</ele>
        <time>2021-08-10T12:39:09.125Z</time>
      </trkpt>
      <trkpt lat="46.91277" lon="8.57301">
        <ele>785</ele>
        <time>2021-08-10T12:39:10.125Z</time>
      </trkpt>
      <trkpt lat="46.91277" lon="8.573">
        <ele>785</ele>
        <time>2021-08-10T12:39:11.126Z</time>
      </trkpt>
      <trkpt lat="46.91276" lon="8.57299">
        <ele>785</ele>
        <time>2021-08-10T12:39:12.126Z</time>
      </trkpt>
      <trkpt lat="46.91276" lon="8.57298">
        <ele>786</ele>
        <time>2021-08-10T12:39:13.126Z</time>
      </trkpt>
      <trkpt lat="46.91276" lon="8.57298">
        <ele>786</ele>
        <time>2021-08-10T12:39:14.126Z</time>
      </trkpt>
      <trkpt lat="46.91276" lon="8.57298">
        <ele>786</ele>
        <time>2021-08-10T12:39:15.126Z</time>
      </trkpt>
      <trkpt lat="46.91275" lon="8.57294">
        <ele>787</ele>
        <time>2021-08-10T12:39:16.127Z</time>
      </trkpt>
      <trkpt lat="46.91273" lon="8.57288">
        <ele>786</ele>
        <time>2021-08-10T12:39:17.127Z</time>
      </trkpt>
      <trkpt lat="46.91273" lon="8.57288">
        <ele>785</ele>
        <time>2021-08-10T12:39:18.128Z</time>
      </trkpt>
      <trkpt lat="46.91272" lon="8.57287">
        <ele>785</ele>
        <time>2021-08-10T12:39:19.127Z</time>
      </trkpt>
      <trkpt lat="46.91272" lon="8.57286">
        <ele>785</ele>
        <time>2021-08-10T12:39:20.128Z</time>
      </trkpt>
      <trkpt lat="46.91272" lon="8.57284">
        <ele>785</ele>
        <time>2021-08-10T12:39:21.128Z</time>
      </trkpt>
      <trkpt lat="46.91271" lon="8.57283">
        <ele>785</ele>
        <time>2021-08-10T12:39:22.128Z</time>
      </trkpt>
      <trkpt lat="46.9127" lon="8.57281">
        <ele>786</ele>
        <time>2021-08-10T12:39:23.128Z</time>
      </trkpt>
      <trkpt lat="46.91269" lon="8.5728">
        <ele>786</ele>
        <time>2021-08-10T12:39:24.128Z</time>
      </trkpt>
      <trkpt lat="46.91269" lon="8.57278">
        <ele>787</ele>
        <time>2021-08-10T12:39:25.127Z</time>
      </trkpt>
      <trkpt lat="46.91268" lon="8.57277">
        <ele>787</ele>
        <time>2021-08-10T12:39:26.128Z</time>
      </trkpt>
      <trkpt lat="46.91268" lon="8.57276">
        <ele>787</ele>
        <time>2021-08-10T12:39:27.128Z</time>
      </trkpt>
      <trkpt lat="46.91268" lon="8.57275">
        <ele>788</ele>
        <time>2021-08-10T12:39:28.128Z</time>
      </trkpt>
      <trkpt lat="46.91268" lon="8.57273">
        <ele>788</ele>
        <time>2021-08-10T12:39:29.128Z</time>
      </trkpt>
      <trkpt lat="46.91268" lon="8.57272">
        <ele>789</ele>
        <time>2021-08-10T12:39:30.128Z</time>
      </trkpt>
      <trkpt lat="46.91268" lon="8.5727">
        <ele>789</ele>
        <time>2021-08-10T12:39:31.127Z</time>
      </trkpt>
      <trkpt lat="46.91267" lon="8.57269">
        <ele>789</ele>
        <time>2021-08-10T12:39:32.127Z</time>
      </trkpt>
      <trkpt lat="46.91267" lon="8.57268">
        <ele>789</ele>
        <time>2021-08-10T12:39:33.127Z</time>
      </trkpt>
      <trkpt lat="46.91266" lon="8.57267">
        <ele>790</ele>
        <time>2021-08-10T12:39:34.127Z</time>
      </trkpt>
      <trkpt lat="46.91266" lon="8.57266">
        <ele>790</ele>
        <time>2021-08-10T12:39:35.128Z</time>
      </trkpt>
      <trkpt lat="46.91265" lon="8.57264">
        <ele>790</ele>
        <time>2021-08-10T12:39:36.127Z</time>
      </trkpt>
      <trkpt lat="46.91265" lon="8.57263">
        <ele>789</ele>
        <time>2021-08-10T12:39:37.128Z</time>
      </trkpt>
      <trkpt lat="46.91265" lon="8.57261">
        <ele>789</ele>
        <time>2021-08-10T12:39:38.128Z</time>
      </trkpt>
      <trkpt lat="46.91265" lon="8.5726">
        <ele>789</ele>
        <time>2021-08-10T12:39:39.128Z</time>
      </trkpt>
      <trkpt lat="46.91265" lon="8.57259">
        <ele>790</ele>
        <time>2021-08-10T12:39:40.128Z</time>
      </trkpt>
      <trkpt lat="46.91264" lon="8.57258">
        <ele>789</ele>
        <time>2021-08-10T12:39:41.128Z</time>
      </trkpt>
      <trkpt lat="46.91264" lon="8.57258">
        <ele>789</ele>
        <time>2021-08-10T12:39:42.127Z</time>
      </trkpt>
      <trkpt lat="46.91263" lon="8.57257">
        <ele>789</ele>
        <time>2021-08-10T12:39:43.128Z</time>
      </trkpt>
      <trkpt lat="46.91263" lon="8.57256">
        <ele>789</ele>
        <time>2021-08-10T12:39:44.127Z</time>
      </trkpt>
      <trkpt lat="46.91263" lon="8.57255">
        <ele>788</ele>
        <time>2021-08-10T12:39:45.128Z</time>
      </trkpt>
      <trkpt lat="46.91263" lon="8.57253">
        <ele>788</ele>
        <time>2021-08-10T12:39:46.127Z</time>
      </trkpt>
      <trkpt lat="46.91263" lon="8.57251">
        <ele>787</ele>
        <time>2021-08-10T12:39:47.127Z</time>
      </trkpt>
      <trkpt lat="46.91263" lon="8.57249">
        <ele>786</ele>
        <time>2021-08-10T12:39:48.128Z</time>
      </trkpt>
      <trkpt lat="46.91263" lon="8.57248">
        <ele>786</ele>
        <time>2021-08-10T12:39:49.128Z</time>
      </trkpt>
      <trkpt lat="46.91264" lon="8.57246">
        <ele>785</ele>
        <time>2021-08-10T12:39:50.127Z</time>
      </trkpt>
      <trkpt lat="46.91265" lon="8.57243">
        <ele>785</ele>
        <time>2021-08-10T12:39:51.127Z</time>
      </trkpt>
      <trkpt lat="46.91265" lon="8.57242">
        <ele>785</ele>
        <time>2021-08-10T12:39:52.127Z</time>
      </trkpt>
      <trkpt lat="46.91265" lon="8.57242">
        <ele>784</ele>
        <time>2021-08-10T12:39:53.127Z</time>
      </trkpt>
      <trkpt lat="46.91266" lon="8.57241">
        <ele>784</ele>
        <time>2021-08-10T12:39:54.127Z</time>
      </trkpt>
      <trkpt lat="46.91266" lon="8.5724">
        <ele>784</ele>
        <time>2021-08-10T12:39:55.128Z</time>
      </trkpt>
      <trkpt lat="46.91267" lon="8.5724">
        <ele>784</ele>
        <time>2021-08-10T12:39:56.127Z</time>
      </trkpt>
      <trkpt lat="46.91267" lon="8.57239">
        <ele>784</ele>
        <time>2021-08-10T12:39:57.127Z</time>
      </trkpt>
      <trkpt lat="46.91267" lon="8.57237">
        <ele>784</ele>
        <time>2021-08-10T12:39:58.127Z</time>
      </trkpt>
      <trkpt lat="46.91267" lon="8.57236">
        <ele>784</ele>
        <time>2021-08-10T12:39:59.128Z</time>
      </trkpt>
      <trkpt lat="46.91267" lon="8.57234">
        <ele>784</ele>
        <time>2021-08-10T12:40:00.128Z</time>
      </trkpt>
      <trkpt lat="46.91267" lon="8.57233">
        <ele>784</ele>
        <time>2021-08-10T12:40:01.128Z</time>
      </trkpt>
      <trkpt lat="46.91267" lon="8.57232">
        <ele>784</ele>
        <time>2021-08-10T12:40:02.128Z</time>
      </trkpt>
      <trkpt lat="46.91267" lon="8.57231">
        <ele>785</ele>
        <time>2021-08-10T12:40:03.128Z</time>
      </trkpt>
      <trkpt lat="46.91266" lon="8.5723">
        <ele>785</ele>
        <time>2021-08-10T12:40:04.128Z</time>
      </trkpt>
      <trkpt lat="46.91264" lon="8.57228">
        <ele>785</ele>
        <time>2021-08-10T12:40:05.128Z</time>
      </trkpt>
      <trkpt lat="46.91263" lon="8.57227">
        <ele>785</ele>
        <time>2021-08-10T12:40:06.128Z</time>
      </trkpt>
      <trkpt lat="46.91261" lon="8.57227">
        <ele>785</ele>
        <time>2021-08-10T12:40:07.128Z</time>
      </trkpt>
      <trkpt lat="46.9126" lon="8.57227">
        <ele>785</ele>
        <time>2021-08-10T12:40:08.128Z</time>
      </trkpt>
      <trkpt lat="46.9126" lon="8.57225">
        <ele>785</ele>
        <time>2021-08-10T12:40:09.128Z</time>
      </trkpt>
      <trkpt lat="46.9126" lon="8.57222">
        <ele>785</ele>
        <time>2021-08-10T12:40:10.127Z</time>
      </trkpt>
      <trkpt lat="46.9126" lon="8.57219">
        <ele>785</ele>
        <time>2021-08-10T12:40:11.128Z</time>
      </trkpt>
      <trkpt lat="46.9126" lon="8.57217">
        <ele>785</ele>
        <time>2021-08-10T12:40:12.128Z</time>
      </trkpt>
      <trkpt lat="46.9126" lon="8.57215">
        <ele>785</ele>
        <time>2021-08-10T12:40:13.128Z</time>
      </trkpt>
      <trkpt lat="46.9126" lon="8.57213">
        <ele>785</ele>
        <time>2021-08-10T12:40:14.127Z</time>
      </trkpt>
      <trkpt lat="46.91259" lon="8.57212">
        <ele>785</ele>
        <time>2021-08-10T12:40:15.128Z</time>
      </trkpt>
      <trkpt lat="46.91259" lon="8.57209">
        <ele>785</ele>
        <time>2021-08-10T12:40:16.128Z</time>
      </trkpt>
      <trkpt lat="46.91259" lon="8.57206">
        <ele>785</ele>
        <time>2021-08-10T12:40:17.127Z</time>
      </trkpt>
      <trkpt lat="46.91258" lon="8.57204">
        <ele>786</ele>
        <time>2021-08-10T12:40:18.128Z</time>
      </trkpt>
      <trkpt lat="46.91259" lon="8.57202">
        <ele>786</ele>
        <time>2021-08-10T12:40:19.128Z</time>
      </trkpt>
      <trkpt lat="46.91259" lon="8.572">
        <ele>786</ele>
        <time>2021-08-10T12:40:20.128Z</time>
      </trkpt>
      <trkpt lat="46.91259" lon="8.57199">
        <ele>786</ele>
        <time>2021-08-10T12:40:21.127Z</time>
      </trkpt>
      <trkpt lat="46.91259" lon="8.57198">
        <ele>787</ele>
        <time>2021-08-10T12:40:22.127Z</time>
      </trkpt>
      <trkpt lat="46.91259" lon="8.57195">
        <ele>787</ele>
        <time>2021-08-10T12:40:23.128Z</time>
      </trkpt>
      <trkpt lat="46.91258" lon="8.57193">
        <ele>787</ele>
        <time>2021-08-10T12:40:24.127Z</time>
      </trkpt>
      <trkpt lat="46.91257" lon="8.57191">
        <ele>787</ele>
        <time>2021-08-10T12:40:25.128Z</time>
      </trkpt>
      <trkpt lat="46.91256" lon="8.57188">
        <ele>788</ele>
        <time>2021-08-10T12:40:26.128Z</time>
      </trkpt>
      <trkpt lat="46.91256" lon="8.57185">
        <ele>788</ele>
        <time>2021-08-10T12:40:27.128Z</time>
      </trkpt>
      <trkpt lat="46.91256" lon="8.57183">
        <ele>788</ele>
        <time>2021-08-10T12:40:28.128Z</time>
      </trkpt>
      <trkpt lat="46.91256" lon="8.57181">
        <ele>789</ele>
        <time>2021-08-10T12:40:29.127Z</time>
      </trkpt>
      <trkpt lat="46.91255" lon="8.5718">
        <ele>789</ele>
        <time>2021-08-10T12:40:30.127Z</time>
      </trkpt>
      <trkpt lat="46.91254" lon="8.57179">
        <ele>789</ele>
        <time>2021-08-10T12:40:31.128Z</time>
      </trkpt>
      <trkpt lat="46.91254" lon="8.57177">
        <ele>790</ele>
        <time>2021-08-10T12:40:32.128Z</time>
      </trkpt>
      <trkpt lat="46.91252" lon="8.57175">
        <ele>790</ele>
        <time>2021-08-10T12:40:33.128Z</time>
      </trkpt>
      <trkpt lat="46.91252" lon="8.57173">
        <ele>791</ele>
        <time>2021-08-10T12:40:34.127Z</time>
      </trkpt>
      <trkpt lat="46.91251" lon="8.57172">
        <ele>791</ele>
        <time>2021-08-10T12:40:35.127Z</time>
      </trkpt>
      <trkpt lat="46.91251" lon="8.57171">
        <ele>792</ele>
        <time>2021-08-10T12:40:36.127Z</time>
      </trkpt>
      <trkpt lat="46.9125" lon="8.57169">
        <ele>792</ele>
        <time>2021-08-10T12:40:37.128Z</time>
      </trkpt>
      <trkpt lat="46.91249" lon="8.57168">
        <ele>793</ele>
        <time>2021-08-10T12:40:38.128Z</time>
      </trkpt>
      <trkpt lat="46.91248" lon="8.57166">
        <ele>793</ele>
        <time>2021-08-10T12:40:39.128Z</time>
      </trkpt>
      <trkpt lat="46.91247" lon="8.57165">
        <ele>794</ele>
        <time>2021-08-10T12:40:40.128Z</time>
      </trkpt>
      <trkpt lat="46.91247" lon="8.57163">
        <ele>794</ele>
        <time>2021-08-10T12:40:41.127Z</time>
      </trkpt>
      <trkpt lat="46.91248" lon="8.57162">
        <ele>794</ele>
        <time>2021-08-10T12:40:42.127Z</time>
      </trkpt>
      <trkpt lat="46.91248" lon="8.5716">
        <ele>794</ele>
        <time>2021-08-10T12:40:43.127Z</time>
      </trkpt>
      <trkpt lat="46.91248" lon="8.57159">
        <ele>795</ele>
        <time>2021-08-10T12:40:44.127Z</time>
      </trkpt>
      <trkpt lat="46.91248" lon="8.57158">
        <ele>795</ele>
        <time>2021-08-10T12:40:45.128Z</time>
      </trkpt>
      <trkpt lat="46.91248" lon="8.57157">
        <ele>795</ele>
        <time>2021-08-10T12:40:46.128Z</time>
      </trkpt>
      <trkpt lat="46.91248" lon="8.57157">
        <ele>795</ele>
        <time>2021-08-10T12:40:47.128Z</time>
      </trkpt>
      <trkpt lat="46.91248" lon="8.57156">
        <ele>795</ele>
        <time>2021-08-10T12:40:48.127Z</time>
      </trkpt>
      <trkpt lat="46.91248" lon="8.57155">
        <ele>795</ele>
        <time>2021-08-10T12:40:49.128Z</time>
      </trkpt>
      <trkpt lat="46.91248" lon="8.57154">
        <ele>795</ele>
        <time>2021-08-10T12:40:50.128Z</time>
      </trkpt>
      <trkpt lat="46.91248" lon="8.57153">
        <ele>795</ele>
        <time>2021-08-10T12:40:51.128Z</time>
      </trkpt>
      <trkpt lat="46.91248" lon="8.57151">
        <ele>794</ele>
        <time>2021-08-10T12:40:52.127Z</time>
      </trkpt>
      <trkpt lat="46.91248" lon="8.57149">
        <ele>794</ele>
        <time>2021-08-10T12:40:53.128Z</time>
      </trkpt>
      <trkpt lat="46.91247" lon="8.57148">
        <ele>794</ele>
        <time>2021-08-10T12:40:54.128Z</time>
      </trkpt>
      <trkpt lat="46.91247" lon="8.57146">
        <ele>794</ele>
        <time>2021-08-10T12:40:55.128Z</time>
      </trkpt>
      <trkpt lat="46.91246" lon="8.57144">
        <ele>794</ele>
        <time>2021-08-10T12:40:56.128Z</time>
      </trkpt>
      <trkpt lat="46.91246" lon="8.57142">
        <ele>794</ele>
        <time>2021-08-10T12:40:57.127Z</time>
      </trkpt>
      <trkpt lat="46.91245" lon="8.57141">
        <ele>794</ele>
        <time>2021-08-10T12:40:58.128Z</time>
      </trkpt>
      <trkpt lat="46.91244" lon="8.5714">
        <ele>794</ele>
        <time>2021-08-10T12:40:59.128Z</time>
      </trkpt>
      <trkpt lat="46.91244" lon="8.57139">
        <ele>793</ele>
        <time>2021-08-10T12:41:00.128Z</time>
      </trkpt>
      <trkpt lat="46.91243" lon="8.57137">
        <ele>793</ele>
        <time>2021-08-10T12:41:01.127Z</time>
      </trkpt>
      <trkpt lat="46.91243" lon="8.57135">
        <ele>793</ele>
        <time>2021-08-10T12:41:02.128Z</time>
      </trkpt>
      <trkpt lat="46.91242" lon="8.57134">
        <ele>793</ele>
        <time>2021-08-10T12:41:03.128Z</time>
      </trkpt>
      <trkpt lat="46.91242" lon="8.57132">
        <ele>792</ele>
        <time>2021-08-10T12:41:04.128Z</time>
      </trkpt>
      <trkpt lat="46.91242" lon="8.5713">
        <ele>792</ele>
        <time>2021-08-10T12:41:05.127Z</time>
      </trkpt>
      <trkpt lat="46.91242" lon="8.57129">
        <ele>792</ele>
        <time>2021-08-10T12:41:06.128Z</time>
      </trkpt>
      <trkpt lat="46.91241" lon="8.57127">
        <ele>792</ele>
        <time>2021-08-10T12:41:07.128Z</time>
      </trkpt>
      <trkpt lat="46.9124" lon="8.57124">
        <ele>791</ele>
        <time>2021-08-10T12:41:08.128Z</time>
      </trkpt>
      <trkpt lat="46.9124" lon="8.57122">
        <ele>791</ele>
        <time>2021-08-10T12:41:09.128Z</time>
      </trkpt>
      <trkpt lat="46.91239" lon="8.57121">
        <ele>791</ele>
        <time>2021-08-10T12:41:10.128Z</time>
      </trkpt>
      <trkpt lat="46.91238" lon="8.57118">
        <ele>791</ele>
        <time>2021-08-10T12:41:11.127Z</time>
      </trkpt>
      <trkpt lat="46.91237" lon="8.57116">
        <ele>790</ele>
        <time>2021-08-10T12:41:12.128Z</time>
      </trkpt>
      <trkpt lat="46.91237" lon="8.57115">
        <ele>790</ele>
        <time>2021-08-10T12:41:13.128Z</time>
      </trkpt>
      <trkpt lat="46.91236" lon="8.57114">
        <ele>790</ele>
        <time>2021-08-10T12:41:14.128Z</time>
      </trkpt>
      <trkpt lat="46.91236" lon="8.57113">
        <ele>789</ele>
        <time>2021-08-10T12:41:15.128Z</time>
      </trkpt>
      <trkpt lat="46.91235" lon="8.57113">
        <ele>789</ele>
        <time>2021-08-10T12:41:19.092Z</time>
      </trkpt>
      <trkpt lat="46.91235" lon="8.57112">
        <ele>789</ele>
        <time>2021-08-10T12:41:20.093Z</time>
      </trkpt>
      <trkpt lat="46.91235" lon="8.57111">
        <ele>788</ele>
        <time>2021-08-10T12:41:34.994Z</time>
      </trkpt>
      <trkpt lat="46.91234" lon="8.57109">
        <ele>788</ele>
        <time>2021-08-10T12:41:35.993Z</time>
      </trkpt>
      <trkpt lat="46.91234" lon="8.57106">
        <ele>788</ele>
        <time>2021-08-10T12:41:36.994Z</time>
      </trkpt>
      <trkpt lat="46.91235" lon="8.57105">
        <ele>787</ele>
        <time>2021-08-10T12:41:37.994Z</time>
      </trkpt>
      <trkpt lat="46.91236" lon="8.57103">
        <ele>786</ele>
        <time>2021-08-10T12:41:38.993Z</time>
      </trkpt>
      <trkpt lat="46.91236" lon="8.571">
        <ele>785</ele>
        <time>2021-08-10T12:41:41.111Z</time>
      </trkpt>
      <trkpt lat="46.91236" lon="8.57097">
        <ele>784</ele>
        <time>2021-08-10T12:41:42.111Z</time>
      </trkpt>
      <trkpt lat="46.91235" lon="8.57095">
        <ele>784</ele>
        <time>2021-08-10T12:41:43.110Z</time>
      </trkpt>
      <trkpt lat="46.91235" lon="8.57093">
        <ele>783</ele>
        <time>2021-08-10T12:41:44.111Z</time>
      </trkpt>
      <trkpt lat="46.91234" lon="8.57091">
        <ele>782</ele>
        <time>2021-08-10T12:41:45.111Z</time>
      </trkpt>
      <trkpt lat="46.91234" lon="8.57089">
        <ele>781</ele>
        <time>2021-08-10T12:41:46.111Z</time>
      </trkpt>
      <trkpt lat="46.91235" lon="8.57087">
        <ele>781</ele>
        <time>2021-08-10T12:41:47.110Z</time>
      </trkpt>
      <trkpt lat="46.91235" lon="8.57086">
        <ele>781</ele>
        <time>2021-08-10T12:41:48.111Z</time>
      </trkpt>
      <trkpt lat="46.91235" lon="8.57085">
        <ele>781</ele>
        <time>2021-08-10T12:41:49.111Z</time>
      </trkpt>
      <trkpt lat="46.91235" lon="8.57084">
        <ele>780</ele>
        <time>2021-08-10T12:41:50.111Z</time>
      </trkpt>
      <trkpt lat="46.91235" lon="8.57082">
        <ele>780</ele>
        <time>2021-08-10T12:41:51.111Z</time>
      </trkpt>
      <trkpt lat="46.91235" lon="8.57081">
        <ele>780</ele>
        <time>2021-08-10T12:41:52.110Z</time>
      </trkpt>
      <trkpt lat="46.91235" lon="8.5708">
        <ele>779</ele>
        <time>2021-08-10T12:41:53.111Z</time>
      </trkpt>
      <trkpt lat="46.91235" lon="8.57079">
        <ele>779</ele>
        <time>2021-08-10T12:41:54.110Z</time>
      </trkpt>
      <trkpt lat="46.91234" lon="8.57077">
        <ele>778</ele>
        <time>2021-08-10T12:41:55.111Z</time>
      </trkpt>
      <trkpt lat="46.91234" lon="8.57075">
        <ele>778</ele>
        <time>2021-08-10T12:41:56.111Z</time>
      </trkpt>
      <trkpt lat="46.91234" lon="8.57073">
        <ele>778</ele>
        <time>2021-08-10T12:41:57.110Z</time>
      </trkpt>
      <trkpt lat="46.91234" lon="8.57071">
        <ele>777</ele>
        <time>2021-08-10T12:41:58.110Z</time>
      </trkpt>
      <trkpt lat="46.91234" lon="8.57071">
        <ele>777</ele>
        <time>2021-08-10T12:41:59.110Z</time>
      </trkpt>
      <trkpt lat="46.91233" lon="8.57071">
        <ele>777</ele>
        <time>2021-08-10T12:42:00.110Z</time>
      </trkpt>
      <trkpt lat="46.91233" lon="8.5707">
        <ele>777</ele>
        <time>2021-08-10T12:42:01.111Z</time>
      </trkpt>
      <trkpt lat="46.91232" lon="8.57069">
        <ele>777</ele>
        <time>2021-08-10T12:42:02.110Z</time>
      </trkpt>
      <trkpt lat="46.91232" lon="8.57068">
        <ele>777</ele>
        <time>2021-08-10T12:42:03.110Z</time>
      </trkpt>
      <trkpt lat="46.91231" lon="8.57067">
        <ele>777</ele>
        <time>2021-08-10T12:42:04.110Z</time>
      </trkpt>
      <trkpt lat="46.91231" lon="8.57065">
        <ele>777</ele>
        <time>2021-08-10T12:42:05.111Z</time>
      </trkpt>
      <trkpt lat="46.91231" lon="8.57063">
        <ele>776</ele>
        <time>2021-08-10T12:42:10.230Z</time>
      </trkpt>
      <trkpt lat="46.91231" lon="8.57063">
        <ele>776</ele>
        <time>2021-08-10T12:42:11.231Z</time>
      </trkpt>
      <trkpt lat="46.91231" lon="8.57061">
        <ele>776</ele>
        <time>2021-08-10T12:42:12.231Z</time>
      </trkpt>
      <trkpt lat="46.9123" lon="8.57058">
        <ele>776</ele>
        <time>2021-08-10T12:42:13.231Z</time>
      </trkpt>
      <trkpt lat="46.91229" lon="8.57056">
        <ele>776</ele>
        <time>2021-08-10T12:42:14.231Z</time>
      </trkpt>
      <trkpt lat="46.91229" lon="8.57054">
        <ele>776</ele>
        <time>2021-08-10T12:42:15.231Z</time>
      </trkpt>
      <trkpt lat="46.91228" lon="8.57052">
        <ele>777</ele>
        <time>2021-08-10T12:42:16.231Z</time>
      </trkpt>
      <trkpt lat="46.91227" lon="8.57049">
        <ele>776</ele>
        <time>2021-08-10T12:42:17.231Z</time>
      </trkpt>
      <trkpt lat="46.91227" lon="8.57047">
        <ele>776</ele>
        <time>2021-08-10T12:42:18.231Z</time>
      </trkpt>
      <trkpt lat="46.91226" lon="8.57044">
        <ele>776</ele>
        <time>2021-08-10T12:42:19.231Z</time>
      </trkpt>
      <trkpt lat="46.91226" lon="8.5704">
        <ele>776</ele>
        <time>2021-08-10T12:42:20.231Z</time>
      </trkpt>
      <trkpt lat="46.91225" lon="8.57037">
        <ele>777</ele>
        <time>2021-08-10T12:42:21.231Z</time>
      </trkpt>
      <trkpt lat="46.91225" lon="8.57035">
        <ele>777</ele>
        <time>2021-08-10T12:42:22.231Z</time>
      </trkpt>
      <trkpt lat="46.91224" lon="8.57033">
        <ele>777</ele>
        <time>2021-08-10T12:42:23.231Z</time>
      </trkpt>
      <trkpt lat="46.91224" lon="8.57032">
        <ele>777</ele>
        <time>2021-08-10T12:42:24.231Z</time>
      </trkpt>
      <trkpt lat="46.91224" lon="8.5703">
        <ele>777</ele>
        <time>2021-08-10T12:42:25.231Z</time>
      </trkpt>
      <trkpt lat="46.91224" lon="8.57028">
        <ele>777</ele>
        <time>2021-08-10T12:42:26.230Z</time>
      </trkpt>
      <trkpt lat="46.91224" lon="8.57026">
        <ele>777</ele>
        <time>2021-08-10T12:42:27.231Z</time>
      </trkpt>
      <trkpt lat="46.91223" lon="8.57025">
        <ele>776</ele>
        <time>2021-08-10T12:42:28.230Z</time>
      </trkpt>
      <trkpt lat="46.91223" lon="8.57024">
        <ele>776</ele>
        <time>2021-08-10T12:42:29.231Z</time>
      </trkpt>
      <trkpt lat="46.91223" lon="8.57022">
        <ele>776</ele>
        <time>2021-08-10T12:42:30.230Z</time>
      </trkpt>
      <trkpt lat="46.91223" lon="8.57021">
        <ele>776</ele>
        <time>2021-08-10T12:42:31.231Z</time>
      </trkpt>
      <trkpt lat="46.91222" lon="8.57021">
        <ele>776</ele>
        <time>2021-08-10T12:42:32.230Z</time>
      </trkpt>
      <trkpt lat="46.91221" lon="8.57018">
        <ele>776</ele>
        <time>2021-08-10T12:42:33.231Z</time>
      </trkpt>
      <trkpt lat="46.91221" lon="8.57017">
        <ele>776</ele>
        <time>2021-08-10T12:42:34.231Z</time>
      </trkpt>
      <trkpt lat="46.91221" lon="8.57016">
        <ele>776</ele>
        <time>2021-08-10T12:42:35.230Z</time>
      </trkpt>
      <trkpt lat="46.9122" lon="8.57015">
        <ele>775</ele>
        <time>2021-08-10T12:42:36.230Z</time>
      </trkpt>
      <trkpt lat="46.9122" lon="8.57014">
        <ele>775</ele>
        <time>2021-08-10T12:42:37.231Z</time>
      </trkpt>
      <trkpt lat="46.9122" lon="8.57012">
        <ele>775</ele>
        <time>2021-08-10T12:42:38.230Z</time>
      </trkpt>
      <trkpt lat="46.91219" lon="8.5701">
        <ele>774</ele>
        <time>2021-08-10T12:42:39.230Z</time>
      </trkpt>
      <trkpt lat="46.91218" lon="8.57009">
        <ele>774</ele>
        <time>2021-08-10T12:42:40.231Z</time>
      </trkpt>
      <trkpt lat="46.91218" lon="8.57007">
        <ele>774</ele>
        <time>2021-08-10T12:42:41.231Z</time>
      </trkpt>
      <trkpt lat="46.91218" lon="8.57006">
        <ele>774</ele>
        <time>2021-08-10T12:42:42.230Z</time>
      </trkpt>
      <trkpt lat="46.91217" lon="8.57005">
        <ele>773</ele>
        <time>2021-08-10T12:42:43.230Z</time>
      </trkpt>
      <trkpt lat="46.91217" lon="8.57004">
        <ele>773</ele>
        <time>2021-08-10T12:42:44.231Z</time>
      </trkpt>
      <trkpt lat="46.91217" lon="8.57002">
        <ele>773</ele>
        <time>2021-08-10T12:42:45.231Z</time>
      </trkpt>
      <trkpt lat="46.91217" lon="8.56999">
        <ele>773</ele>
        <time>2021-08-10T12:42:46.231Z</time>
      </trkpt>
      <trkpt lat="46.91216" lon="8.56996">
        <ele>773</ele>
        <time>2021-08-10T12:42:47.231Z</time>
      </trkpt>
      <trkpt lat="46.91216" lon="8.56994">
        <ele>773</ele>
        <time>2021-08-10T12:42:48.231Z</time>
      </trkpt>
      <trkpt lat="46.91215" lon="8.56992">
        <ele>773</ele>
        <time>2021-08-10T12:42:49.231Z</time>
      </trkpt>
      <trkpt lat="46.91215" lon="8.56991">
        <ele>773</ele>
        <time>2021-08-10T12:42:50.230Z</time>
      </trkpt>
      <trkpt lat="46.91215" lon="8.5699">
        <ele>773</ele>
        <time>2021-08-10T12:42:51.230Z</time>
      </trkpt>
      <trkpt lat="46.91214" lon="8.56988">
        <ele>773</ele>
        <time>2021-08-10T12:42:52.231Z</time>
      </trkpt>
      <trkpt lat="46.91214" lon="8.56987">
        <ele>773</ele>
        <time>2021-08-10T12:42:53.230Z</time>
      </trkpt>
      <trkpt lat="46.91213" lon="8.56985">
        <ele>773</ele>
        <time>2021-08-10T12:42:54.230Z</time>
      </trkpt>
      <trkpt lat="46.91213" lon="8.56983">
        <ele>773</ele>
        <time>2021-08-10T12:42:55.231Z</time>
      </trkpt>
      <trkpt lat="46.91212" lon="8.56982">
        <ele>773</ele>
        <time>2021-08-10T12:42:56.231Z</time>
      </trkpt>
      <trkpt lat="46.91212" lon="8.56978">
        <ele>773</ele>
        <time>2021-08-10T12:42:57.230Z</time>
      </trkpt>
      <trkpt lat="46.91211" lon="8.56976">
        <ele>773</ele>
        <time>2021-08-10T12:42:58.231Z</time>
      </trkpt>
      <trkpt lat="46.91211" lon="8.56974">
        <ele>773</ele>
        <time>2021-08-10T12:42:59.231Z</time>
      </trkpt>
      <trkpt lat="46.9121" lon="8.56973">
        <ele>773</ele>
        <time>2021-08-10T12:43:00.230Z</time>
      </trkpt>
      <trkpt lat="46.9121" lon="8.56972">
        <ele>773</ele>
        <time>2021-08-10T12:43:01.231Z</time>
      </trkpt>
      <trkpt lat="46.91209" lon="8.5697">
        <ele>773</ele>
        <time>2021-08-10T12:43:02.231Z</time>
      </trkpt>
      <trkpt lat="46.91209" lon="8.56969">
        <ele>773</ele>
        <time>2021-08-10T12:43:03.231Z</time>
      </trkpt>
      <trkpt lat="46.91208" lon="8.56967">
        <ele>774</ele>
        <time>2021-08-10T12:43:04.231Z</time>
      </trkpt>
      <trkpt lat="46.91208" lon="8.56966">
        <ele>774</ele>
        <time>2021-08-10T12:43:05.230Z</time>
      </trkpt>
      <trkpt lat="46.91207" lon="8.56965">
        <ele>774</ele>
        <time>2021-08-10T12:43:06.230Z</time>
      </trkpt>
      <trkpt lat="46.91207" lon="8.56963">
        <ele>774</ele>
        <time>2021-08-10T12:43:07.231Z</time>
      </trkpt>
      <trkpt lat="46.91206" lon="8.56962">
        <ele>775</ele>
        <time>2021-08-10T12:43:08.230Z</time>
      </trkpt>
      <trkpt lat="46.91205" lon="8.56961">
        <ele>775</ele>
        <time>2021-08-10T12:43:09.230Z</time>
      </trkpt>
      <trkpt lat="46.91204" lon="8.56959">
        <ele>775</ele>
        <time>2021-08-10T12:43:10.231Z</time>
      </trkpt>
      <trkpt lat="46.91202" lon="8.56957">
        <ele>775</ele>
        <time>2021-08-10T12:43:11.231Z</time>
      </trkpt>
      <trkpt lat="46.91202" lon="8.56954">
        <ele>775</ele>
        <time>2021-08-10T12:43:12.230Z</time>
      </trkpt>
      <trkpt lat="46.912" lon="8.56951">
        <ele>775</ele>
        <time>2021-08-10T12:43:13.231Z</time>
      </trkpt>
      <trkpt lat="46.91199" lon="8.56948">
        <ele>775</ele>
        <time>2021-08-10T12:43:14.231Z</time>
      </trkpt>
      <trkpt lat="46.91197" lon="8.56946">
        <ele>775</ele>
        <time>2021-08-10T12:43:15.230Z</time>
      </trkpt>
      <trkpt lat="46.91197" lon="8.56945">
        <ele>775</ele>
        <time>2021-08-10T12:43:19.353Z</time>
      </trkpt>
      <trkpt lat="46.91196" lon="8.56944">
        <ele>775</ele>
        <time>2021-08-10T12:43:20.354Z</time>
      </trkpt>
      <trkpt lat="46.91195" lon="8.56943">
        <ele>774</ele>
        <time>2021-08-10T12:43:21.354Z</time>
      </trkpt>
      <trkpt lat="46.91194" lon="8.56942">
        <ele>774</ele>
        <time>2021-08-10T12:43:22.354Z</time>
      </trkpt>
      <trkpt lat="46.91194" lon="8.56941">
        <ele>774</ele>
        <time>2021-08-10T12:43:23.354Z</time>
      </trkpt>
      <trkpt lat="46.91193" lon="8.5694">
        <ele>773</ele>
        <time>2021-08-10T12:43:24.354Z</time>
      </trkpt>
      <trkpt lat="46.91193" lon="8.5694">
        <ele>773</ele>
        <time>2021-08-10T12:43:25.354Z</time>
      </trkpt>
      <trkpt lat="46.91192" lon="8.56938">
        <ele>773</ele>
        <time>2021-08-10T12:43:26.354Z</time>
      </trkpt>
      <trkpt lat="46.91191" lon="8.56937">
        <ele>773</ele>
        <time>2021-08-10T12:43:27.354Z</time>
      </trkpt>
      <trkpt lat="46.91191" lon="8.56936">
        <ele>772</ele>
        <time>2021-08-10T12:43:28.353Z</time>
      </trkpt>
      <trkpt lat="46.9119" lon="8.56935">
        <ele>772</ele>
        <time>2021-08-10T12:43:29.354Z</time>
      </trkpt>
      <trkpt lat="46.9119" lon="8.56935">
        <ele>772</ele>
        <time>2021-08-10T12:43:30.354Z</time>
      </trkpt>
      <trkpt lat="46.9119" lon="8.56934">
        <ele>772</ele>
        <time>2021-08-10T12:43:31.354Z</time>
      </trkpt>
      <trkpt lat="46.9119" lon="8.56933">
        <ele>772</ele>
        <time>2021-08-10T12:43:32.354Z</time>
      </trkpt>
      <trkpt lat="46.9119" lon="8.56932">
        <ele>771</ele>
        <time>2021-08-10T12:43:33.353Z</time>
      </trkpt>
      <trkpt lat="46.9119" lon="8.56932">
        <ele>771</ele>
        <time>2021-08-10T12:43:34.354Z</time>
      </trkpt>
      <trkpt lat="46.9119" lon="8.56932">
        <ele>771</ele>
        <time>2021-08-10T12:43:35.354Z</time>
      </trkpt>
      <trkpt lat="46.91188" lon="8.56929">
        <ele>766</ele>
        <time>2021-08-10T12:43:36.355Z</time>
      </trkpt>
      <trkpt lat="46.91187" lon="8.56929">
        <ele>766</ele>
        <time>2021-08-10T12:43:37.355Z</time>
      </trkpt>
      <trkpt lat="46.91188" lon="8.56929">
        <ele>767</ele>
        <time>2021-08-10T12:43:38.355Z</time>
      </trkpt>
      <trkpt lat="46.91188" lon="8.56928">
        <ele>767</ele>
        <time>2021-08-10T12:43:39.355Z</time>
      </trkpt>
      <trkpt lat="46.91188" lon="8.56928">
        <ele>767</ele>
        <time>2021-08-10T12:43:40.354Z</time>
      </trkpt>
      <trkpt lat="46.91188" lon="8.56925">
        <ele>768</ele>
        <time>2021-08-10T12:43:41.355Z</time>
      </trkpt>
      <trkpt lat="46.91188" lon="8.56924">
        <ele>768</ele>
        <time>2021-08-10T12:43:42.355Z</time>
      </trkpt>
      <trkpt lat="46.91188" lon="8.56923">
        <ele>768</ele>
        <time>2021-08-10T12:43:43.355Z</time>
      </trkpt>
      <trkpt lat="46.91188" lon="8.56922">
        <ele>768</ele>
        <time>2021-08-10T12:43:44.355Z</time>
      </trkpt>
      <trkpt lat="46.91187" lon="8.56923">
        <ele>770</ele>
        <time>2021-08-10T12:43:45.355Z</time>
      </trkpt>
      <trkpt lat="46.91187" lon="8.56921">
        <ele>770</ele>
        <time>2021-08-10T12:43:46.355Z</time>
      </trkpt>
      <trkpt lat="46.91187" lon="8.5692">
        <ele>770</ele>
        <time>2021-08-10T12:43:51.359Z</time>
      </trkpt>
      <trkpt lat="46.91187" lon="8.56919">
        <ele>770</ele>
        <time>2021-08-10T12:43:52.358Z</time>
      </trkpt>
      <trkpt lat="46.91187" lon="8.56918">
        <ele>769</ele>
        <time>2021-08-10T12:43:53.358Z</time>
      </trkpt>
      <trkpt lat="46.91187" lon="8.56918">
        <ele>769</ele>
        <time>2021-08-10T12:43:54.359Z</time>
      </trkpt>
      <trkpt lat="46.91187" lon="8.56917">
        <ele>767</ele>
        <time>2021-08-10T12:43:55.358Z</time>
      </trkpt>
      <trkpt lat="46.91187" lon="8.56917">
        <ele>767</ele>
        <time>2021-08-10T12:43:56.359Z</time>
      </trkpt>
      <trkpt lat="46.91187" lon="8.56916">
        <ele>767</ele>
        <time>2021-08-10T12:43:57.358Z</time>
      </trkpt>
      <trkpt lat="46.91187" lon="8.56915">
        <ele>767</ele>
        <time>2021-08-10T12:43:58.359Z</time>
      </trkpt>
      <trkpt lat="46.91187" lon="8.56915">
        <ele>767</ele>
        <time>2021-08-10T12:43:59.359Z</time>
      </trkpt>
      <trkpt lat="46.91187" lon="8.56914">
        <ele>766</ele>
        <time>2021-08-10T12:44:00.358Z</time>
      </trkpt>
      <trkpt lat="46.91188" lon="8.56913">
        <ele>766</ele>
        <time>2021-08-10T12:44:01.359Z</time>
      </trkpt>
      <trkpt lat="46.91189" lon="8.56912">
        <ele>766</ele>
        <time>2021-08-10T12:44:02.359Z</time>
      </trkpt>
      <trkpt lat="46.91189" lon="8.5691">
        <ele>766</ele>
        <time>2021-08-10T12:44:03.358Z</time>
      </trkpt>
      <trkpt lat="46.9119" lon="8.56909">
        <ele>766</ele>
        <time>2021-08-10T12:44:04.358Z</time>
      </trkpt>
      <trkpt lat="46.9119" lon="8.56907">
        <ele>766</ele>
        <time>2021-08-10T12:44:05.358Z</time>
      </trkpt>
      <trkpt lat="46.9119" lon="8.56906">
        <ele>767</ele>
        <time>2021-08-10T12:44:06.359Z</time>
      </trkpt>
      <trkpt lat="46.91189" lon="8.56904">
        <ele>767</ele>
        <time>2021-08-10T12:44:07.359Z</time>
      </trkpt>
      <trkpt lat="46.9119" lon="8.56903">
        <ele>767</ele>
        <time>2021-08-10T12:44:08.359Z</time>
      </trkpt>
      <trkpt lat="46.9119" lon="8.56902">
        <ele>767</ele>
        <time>2021-08-10T12:44:09.359Z</time>
      </trkpt>
      <trkpt lat="46.9119" lon="8.56901">
        <ele>767</ele>
        <time>2021-08-10T12:44:10.359Z</time>
      </trkpt>
      <trkpt lat="46.91191" lon="8.569">
        <ele>767</ele>
        <time>2021-08-10T12:44:11.358Z</time>
      </trkpt>
      <trkpt lat="46.91191" lon="8.569">
        <ele>767</ele>
        <time>2021-08-10T12:44:12.358Z</time>
      </trkpt>
      <trkpt lat="46.91191" lon="8.56899">
        <ele>767</ele>
        <time>2021-08-10T12:44:13.359Z</time>
      </trkpt>
      <trkpt lat="46.91191" lon="8.56898">
        <ele>767</ele>
        <time>2021-08-10T12:44:14.359Z</time>
      </trkpt>
      <trkpt lat="46.91191" lon="8.56896">
        <ele>768</ele>
        <time>2021-08-10T12:44:15.359Z</time>
      </trkpt>
      <trkpt lat="46.91192" lon="8.56896">
        <ele>768</ele>
        <time>2021-08-10T12:44:16.359Z</time>
      </trkpt>
      <trkpt lat="46.91192" lon="8.56895">
        <ele>768</ele>
        <time>2021-08-10T12:44:17.359Z</time>
      </trkpt>
      <trkpt lat="46.91193" lon="8.56894">
        <ele>768</ele>
        <time>2021-08-10T12:44:18.358Z</time>
      </trkpt>
      <trkpt lat="46.91193" lon="8.56893">
        <ele>769</ele>
        <time>2021-08-10T12:44:19.358Z</time>
      </trkpt>
      <trkpt lat="46.91193" lon="8.56891">
        <ele>769</ele>
        <time>2021-08-10T12:44:20.359Z</time>
      </trkpt>
      <trkpt lat="46.91194" lon="8.5689">
        <ele>768</ele>
        <time>2021-08-10T12:44:21.359Z</time>
      </trkpt>
      <trkpt lat="46.91194" lon="8.56888">
        <ele>768</ele>
        <time>2021-08-10T12:44:22.359Z</time>
      </trkpt>
      <trkpt lat="46.91194" lon="8.56888">
        <ele>768</ele>
        <time>2021-08-10T12:44:23.358Z</time>
      </trkpt>
      <trkpt lat="46.91195" lon="8.56887">
        <ele>768</ele>
        <time>2021-08-10T12:44:24.359Z</time>
      </trkpt>
      <trkpt lat="46.91196" lon="8.56887">
        <ele>768</ele>
        <time>2021-08-10T12:44:25.359Z</time>
      </trkpt>
      <trkpt lat="46.91196" lon="8.56887">
        <ele>768</ele>
        <time>2021-08-10T12:44:26.358Z</time>
      </trkpt>
      <trkpt lat="46.91197" lon="8.56887">
        <ele>768</ele>
        <time>2021-08-10T12:44:27.358Z</time>
      </trkpt>
      <trkpt lat="46.91199" lon="8.56887">
        <ele>768</ele>
        <time>2021-08-10T12:44:28.359Z</time>
      </trkpt>
      <trkpt lat="46.91199" lon="8.56886">
        <ele>769</ele>
        <time>2021-08-10T12:44:29.359Z</time>
      </trkpt>
      <trkpt lat="46.912" lon="8.56885">
        <ele>769</ele>
        <time>2021-08-10T12:44:30.358Z</time>
      </trkpt>
      <trkpt lat="46.91201" lon="8.56883">
        <ele>769</ele>
        <time>2021-08-10T12:44:31.359Z</time>
      </trkpt>
      <trkpt lat="46.91201" lon="8.56881">
        <ele>770</ele>
        <time>2021-08-10T12:44:32.359Z</time>
      </trkpt>
      <trkpt lat="46.91201" lon="8.5688">
        <ele>770</ele>
        <time>2021-08-10T12:44:33.359Z</time>
      </trkpt>
      <trkpt lat="46.91201" lon="8.56878">
        <ele>770</ele>
        <time>2021-08-10T12:44:34.358Z</time>
      </trkpt>
      <trkpt lat="46.91201" lon="8.56877">
        <ele>771</ele>
        <time>2021-08-10T12:44:35.359Z</time>
      </trkpt>
      <trkpt lat="46.912" lon="8.56876">
        <ele>772</ele>
        <time>2021-08-10T12:44:36.358Z</time>
      </trkpt>
      <trkpt lat="46.91199" lon="8.56875">
        <ele>772</ele>
        <time>2021-08-10T12:44:37.359Z</time>
      </trkpt>
      <trkpt lat="46.91199" lon="8.56873">
        <ele>772</ele>
        <time>2021-08-10T12:44:38.359Z</time>
      </trkpt>
      <trkpt lat="46.91198" lon="8.56872">
        <ele>773</ele>
        <time>2021-08-10T12:44:39.358Z</time>
      </trkpt>
      <trkpt lat="46.91198" lon="8.56871">
        <ele>773</ele>
        <time>2021-08-10T12:44:40.359Z</time>
      </trkpt>
      <trkpt lat="46.91198" lon="8.56869">
        <ele>774</ele>
        <time>2021-08-10T12:44:41.359Z</time>
      </trkpt>
      <trkpt lat="46.91199" lon="8.56868">
        <ele>774</ele>
        <time>2021-08-10T12:44:42.359Z</time>
      </trkpt>
      <trkpt lat="46.91199" lon="8.56866">
        <ele>775</ele>
        <time>2021-08-10T12:44:43.358Z</time>
      </trkpt>
      <trkpt lat="46.91198" lon="8.56864">
        <ele>775</ele>
        <time>2021-08-10T12:44:44.359Z</time>
      </trkpt>
      <trkpt lat="46.91197" lon="8.56862">
        <ele>775</ele>
        <time>2021-08-10T12:44:45.359Z</time>
      </trkpt>
      <trkpt lat="46.91197" lon="8.56861">
        <ele>776</ele>
        <time>2021-08-10T12:44:46.359Z</time>
      </trkpt>
      <trkpt lat="46.91196" lon="8.56859">
        <ele>776</ele>
        <time>2021-08-10T12:44:47.359Z</time>
      </trkpt>
      <trkpt lat="46.91196" lon="8.56857">
        <ele>776</ele>
        <time>2021-08-10T12:44:48.359Z</time>
      </trkpt>
      <trkpt lat="46.91195" lon="8.56856">
        <ele>776</ele>
        <time>2021-08-10T12:44:49.359Z</time>
      </trkpt>
      <trkpt lat="46.91195" lon="8.56854">
        <ele>777</ele>
        <time>2021-08-10T12:44:50.359Z</time>
      </trkpt>
      <trkpt lat="46.91195" lon="8.56853">
        <ele>777</ele>
        <time>2021-08-10T12:44:51.358Z</time>
      </trkpt>
      <trkpt lat="46.91195" lon="8.56851">
        <ele>777</ele>
        <time>2021-08-10T12:44:52.359Z</time>
      </trkpt>
      <trkpt lat="46.91195" lon="8.5685">
        <ele>777</ele>
        <time>2021-08-10T12:44:53.359Z</time>
      </trkpt>
      <trkpt lat="46.91195" lon="8.56848">
        <ele>777</ele>
        <time>2021-08-10T12:44:54.359Z</time>
      </trkpt>
      <trkpt lat="46.91195" lon="8.56847">
        <ele>778</ele>
        <time>2021-08-10T12:44:55.359Z</time>
      </trkpt>
      <trkpt lat="46.91195" lon="8.56846">
        <ele>778</ele>
        <time>2021-08-10T12:44:56.359Z</time>
      </trkpt>
      <trkpt lat="46.91195" lon="8.56845">
        <ele>778</ele>
        <time>2021-08-10T12:44:57.358Z</time>
      </trkpt>
      <trkpt lat="46.91196" lon="8.56843">
        <ele>778</ele>
        <time>2021-08-10T12:44:58.358Z</time>
      </trkpt>
      <trkpt lat="46.91197" lon="8.56842">
        <ele>778</ele>
        <time>2021-08-10T12:44:59.358Z</time>
      </trkpt>
      <trkpt lat="46.91198" lon="8.56841">
        <ele>778</ele>
        <time>2021-08-10T12:45:00.359Z</time>
      </trkpt>
      <trkpt lat="46.91198" lon="8.56839">
        <ele>778</ele>
        <time>2021-08-10T12:45:01.358Z</time>
      </trkpt>
      <trkpt lat="46.91197" lon="8.56838">
        <ele>778</ele>
        <time>2021-08-10T12:45:02.359Z</time>
      </trkpt>
      <trkpt lat="46.91197" lon="8.56836">
        <ele>778</ele>
        <time>2021-08-10T12:45:03.359Z</time>
      </trkpt>
      <trkpt lat="46.91196" lon="8.56834">
        <ele>778</ele>
        <time>2021-08-10T12:45:04.359Z</time>
      </trkpt>
      <trkpt lat="46.91195" lon="8.56833">
        <ele>778</ele>
        <time>2021-08-10T12:45:05.359Z</time>
      </trkpt>
      <trkpt lat="46.91194" lon="8.56831">
        <ele>778</ele>
        <time>2021-08-10T12:45:06.359Z</time>
      </trkpt>
      <trkpt lat="46.91194" lon="8.5683">
        <ele>778</ele>
        <time>2021-08-10T12:45:07.358Z</time>
      </trkpt>
      <trkpt lat="46.91193" lon="8.56828">
        <ele>777</ele>
        <time>2021-08-10T12:45:08.359Z</time>
      </trkpt>
      <trkpt lat="46.91192" lon="8.56827">
        <ele>777</ele>
        <time>2021-08-10T12:45:09.359Z</time>
      </trkpt>
      <trkpt lat="46.91192" lon="8.56826">
        <ele>778</ele>
        <time>2021-08-10T12:45:10.359Z</time>
      </trkpt>
      <trkpt lat="46.91191" lon="8.56825">
        <ele>778</ele>
        <time>2021-08-10T12:45:11.358Z</time>
      </trkpt>
      <trkpt lat="46.91191" lon="8.56824">
        <ele>778</ele>
        <time>2021-08-10T12:45:12.358Z</time>
      </trkpt>
      <trkpt lat="46.91191" lon="8.56823">
        <ele>778</ele>
        <time>2021-08-10T12:45:13.359Z</time>
      </trkpt>
      <trkpt lat="46.9119" lon="8.56821">
        <ele>779</ele>
        <time>2021-08-10T12:45:14.359Z</time>
      </trkpt>
      <trkpt lat="46.9119" lon="8.5682">
        <ele>779</ele>
        <time>2021-08-10T12:45:15.359Z</time>
      </trkpt>
      <trkpt lat="46.91191" lon="8.56819">
        <ele>779</ele>
        <time>2021-08-10T12:45:16.359Z</time>
      </trkpt>
      <trkpt lat="46.91191" lon="8.56817">
        <ele>780</ele>
        <time>2021-08-10T12:45:17.359Z</time>
      </trkpt>
      <trkpt lat="46.91191" lon="8.56815">
        <ele>780</ele>
        <time>2021-08-10T12:45:18.359Z</time>
      </trkpt>
      <trkpt lat="46.91191" lon="8.56814">
        <ele>780</ele>
        <time>2021-08-10T12:45:19.359Z</time>
      </trkpt>
      <trkpt lat="46.9119" lon="8.56813">
        <ele>781</ele>
        <time>2021-08-10T12:45:20.359Z</time>
      </trkpt>
      <trkpt lat="46.9119" lon="8.56811">
        <ele>781</ele>
        <time>2021-08-10T12:45:21.358Z</time>
      </trkpt>
      <trkpt lat="46.91191" lon="8.5681">
        <ele>782</ele>
        <time>2021-08-10T12:45:22.359Z</time>
      </trkpt>
      <trkpt lat="46.91192" lon="8.56809">
        <ele>782</ele>
        <time>2021-08-10T12:45:23.359Z</time>
      </trkpt>
      <trkpt lat="46.91192" lon="8.56808">
        <ele>783</ele>
        <time>2021-08-10T12:45:24.359Z</time>
      </trkpt>
      <trkpt lat="46.91192" lon="8.56806">
        <ele>783</ele>
        <time>2021-08-10T12:45:25.359Z</time>
      </trkpt>
      <trkpt lat="46.91192" lon="8.56806">
        <ele>783</ele>
        <time>2021-08-10T12:45:26.359Z</time>
      </trkpt>
      <trkpt lat="46.91192" lon="8.56805">
        <ele>783</ele>
        <time>2021-08-10T12:45:27.358Z</time>
      </trkpt>
      <trkpt lat="46.91193" lon="8.56804">
        <ele>783</ele>
        <time>2021-08-10T12:45:28.359Z</time>
      </trkpt>
      <trkpt lat="46.91193" lon="8.56803">
        <ele>783</ele>
        <time>2021-08-10T12:45:29.358Z</time>
      </trkpt>
      <trkpt lat="46.91192" lon="8.56802">
        <ele>784</ele>
        <time>2021-08-10T12:45:30.359Z</time>
      </trkpt>
      <trkpt lat="46.91192" lon="8.56801">
        <ele>784</ele>
        <time>2021-08-10T12:45:31.359Z</time>
      </trkpt>
      <trkpt lat="46.91192" lon="8.56801">
        <ele>784</ele>
        <time>2021-08-10T12:45:32.359Z</time>
      </trkpt>
      <trkpt lat="46.91192" lon="8.568">
        <ele>784</ele>
        <time>2021-08-10T12:45:33.358Z</time>
      </trkpt>
      <trkpt lat="46.91192" lon="8.56798">
        <ele>784</ele>
        <time>2021-08-10T12:45:40.378Z</time>
      </trkpt>
      <trkpt lat="46.91191" lon="8.56796">
        <ele>784</ele>
        <time>2021-08-10T12:45:41.378Z</time>
      </trkpt>
      <trkpt lat="46.91191" lon="8.56795">
        <ele>784</ele>
        <time>2021-08-10T12:45:42.378Z</time>
      </trkpt>
      <trkpt lat="46.9119" lon="8.56794">
        <ele>783</ele>
        <time>2021-08-10T12:45:43.377Z</time>
      </trkpt>
      <trkpt lat="46.91189" lon="8.56793">
        <ele>783</ele>
        <time>2021-08-10T12:45:44.377Z</time>
      </trkpt>
      <trkpt lat="46.91189" lon="8.56792">
        <ele>783</ele>
        <time>2021-08-10T12:45:45.378Z</time>
      </trkpt>
      <trkpt lat="46.91188" lon="8.56791">
        <ele>782</ele>
        <time>2021-08-10T12:45:46.377Z</time>
      </trkpt>
      <trkpt lat="46.91188" lon="8.5679">
        <ele>782</ele>
        <time>2021-08-10T12:45:54.494Z</time>
      </trkpt>
      <trkpt lat="46.91187" lon="8.56787">
        <ele>782</ele>
        <time>2021-08-10T12:45:55.494Z</time>
      </trkpt>
      <trkpt lat="46.91187" lon="8.56786">
        <ele>782</ele>
        <time>2021-08-10T12:45:56.494Z</time>
      </trkpt>
      <trkpt lat="46.91187" lon="8.56784">
        <ele>783</ele>
        <time>2021-08-10T12:45:57.493Z</time>
      </trkpt>
      <trkpt lat="46.91187" lon="8.56783">
        <ele>783</ele>
        <time>2021-08-10T12:45:58.494Z</time>
      </trkpt>
      <trkpt lat="46.91187" lon="8.56782">
        <ele>783</ele>
        <time>2021-08-10T12:45:59.494Z</time>
      </trkpt>
      <trkpt lat="46.91186" lon="8.5678">
        <ele>783</ele>
        <time>2021-08-10T12:46:00.494Z</time>
      </trkpt>
      <trkpt lat="46.91186" lon="8.56779">
        <ele>782</ele>
        <time>2021-08-10T12:46:01.494Z</time>
      </trkpt>
      <trkpt lat="46.91186" lon="8.56778">
        <ele>782</ele>
        <time>2021-08-10T12:46:02.494Z</time>
      </trkpt>
      <trkpt lat="46.91186" lon="8.56776">
        <ele>782</ele>
        <time>2021-08-10T12:46:03.494Z</time>
      </trkpt>
      <trkpt lat="46.91185" lon="8.56774">
        <ele>782</ele>
        <time>2021-08-10T12:46:04.494Z</time>
      </trkpt>
      <trkpt lat="46.91184" lon="8.56773">
        <ele>782</ele>
        <time>2021-08-10T12:46:05.493Z</time>
      </trkpt>
      <trkpt lat="46.91183" lon="8.56772">
        <ele>782</ele>
        <time>2021-08-10T12:46:06.493Z</time>
      </trkpt>
      <trkpt lat="46.91183" lon="8.56771">
        <ele>782</ele>
        <time>2021-08-10T12:46:07.493Z</time>
      </trkpt>
      <trkpt lat="46.91183" lon="8.56769">
        <ele>783</ele>
        <time>2021-08-10T12:46:08.493Z</time>
      </trkpt>
      <trkpt lat="46.91183" lon="8.56768">
        <ele>783</ele>
        <time>2021-08-10T12:46:09.494Z</time>
      </trkpt>
      <trkpt lat="46.91182" lon="8.56767">
        <ele>783</ele>
        <time>2021-08-10T12:46:10.493Z</time>
      </trkpt>
      <trkpt lat="46.91181" lon="8.56766">
        <ele>783</ele>
        <time>2021-08-10T12:46:11.494Z</time>
      </trkpt>
      <trkpt lat="46.91179" lon="8.56764">
        <ele>783</ele>
        <time>2021-08-10T12:46:12.493Z</time>
      </trkpt>
      <trkpt lat="46.91178" lon="8.56763">
        <ele>783</ele>
        <time>2021-08-10T12:46:13.494Z</time>
      </trkpt>
      <trkpt lat="46.91177" lon="8.56761">
        <ele>783</ele>
        <time>2021-08-10T12:46:14.494Z</time>
      </trkpt>
      <trkpt lat="46.91176" lon="8.56761">
        <ele>783</ele>
        <time>2021-08-10T12:46:15.494Z</time>
      </trkpt>
      <trkpt lat="46.91175" lon="8.5676">
        <ele>783</ele>
        <time>2021-08-10T12:46:16.494Z</time>
      </trkpt>
      <trkpt lat="46.91174" lon="8.56759">
        <ele>783</ele>
        <time>2021-08-10T12:46:17.494Z</time>
      </trkpt>
      <trkpt lat="46.91173" lon="8.56758">
        <ele>783</ele>
        <time>2021-08-10T12:46:18.494Z</time>
      </trkpt>
      <trkpt lat="46.91172" lon="8.56757">
        <ele>784</ele>
        <time>2021-08-10T12:46:19.494Z</time>
      </trkpt>
      <trkpt lat="46.91171" lon="8.56756">
        <ele>784</ele>
        <time>2021-08-10T12:46:20.493Z</time>
      </trkpt>
      <trkpt lat="46.9117" lon="8.56754">
        <ele>783</ele>
        <time>2021-08-10T12:46:21.494Z</time>
      </trkpt>
      <trkpt lat="46.91169" lon="8.56752">
        <ele>783</ele>
        <time>2021-08-10T12:46:22.494Z</time>
      </trkpt>
      <trkpt lat="46.91168" lon="8.5675">
        <ele>783</ele>
        <time>2021-08-10T12:46:23.494Z</time>
      </trkpt>
      <trkpt lat="46.91167" lon="8.56748">
        <ele>783</ele>
        <time>2021-08-10T12:46:24.493Z</time>
      </trkpt>
      <trkpt lat="46.91166" lon="8.56746">
        <ele>783</ele>
        <time>2021-08-10T12:46:25.494Z</time>
      </trkpt>
      <trkpt lat="46.91164" lon="8.56745">
        <ele>783</ele>
        <time>2021-08-10T12:46:26.494Z</time>
      </trkpt>
      <trkpt lat="46.91164" lon="8.56745">
        <ele>782</ele>
        <time>2021-08-10T12:46:27.494Z</time>
      </trkpt>
      <trkpt lat="46.91163" lon="8.56744">
        <ele>782</ele>
        <time>2021-08-10T12:46:29.583Z</time>
      </trkpt>
      <trkpt lat="46.91162" lon="8.56743">
        <ele>782</ele>
        <time>2021-08-10T12:46:30.584Z</time>
      </trkpt>
      <trkpt lat="46.9116" lon="8.56742">
        <ele>782</ele>
        <time>2021-08-10T12:46:31.584Z</time>
      </trkpt>
      <trkpt lat="46.9116" lon="8.56741">
        <ele>782</ele>
        <time>2021-08-10T12:46:32.584Z</time>
      </trkpt>
      <trkpt lat="46.91159" lon="8.5674">
        <ele>783</ele>
        <time>2021-08-10T12:46:33.584Z</time>
      </trkpt>
      <trkpt lat="46.91158" lon="8.56738">
        <ele>783</ele>
        <time>2021-08-10T12:46:34.584Z</time>
      </trkpt>
      <trkpt lat="46.91157" lon="8.56736">
        <ele>783</ele>
        <time>2021-08-10T12:46:35.583Z</time>
      </trkpt>
      <trkpt lat="46.91157" lon="8.56735">
        <ele>783</ele>
        <time>2021-08-10T12:46:36.583Z</time>
      </trkpt>
      <trkpt lat="46.91157" lon="8.56734">
        <ele>783</ele>
        <time>2021-08-10T12:46:37.583Z</time>
      </trkpt>
      <trkpt lat="46.91157" lon="8.56732">
        <ele>784</ele>
        <time>2021-08-10T12:46:38.584Z</time>
      </trkpt>
      <trkpt lat="46.91157" lon="8.56731">
        <ele>785</ele>
        <time>2021-08-10T12:46:39.583Z</time>
      </trkpt>
      <trkpt lat="46.91156" lon="8.56729">
        <ele>785</ele>
        <time>2021-08-10T12:46:40.583Z</time>
      </trkpt>
      <trkpt lat="46.91156" lon="8.56728">
        <ele>786</ele>
        <time>2021-08-10T12:46:41.583Z</time>
      </trkpt>
      <trkpt lat="46.91156" lon="8.56726">
        <ele>786</ele>
        <time>2021-08-10T12:46:42.583Z</time>
      </trkpt>
      <trkpt lat="46.91156" lon="8.56725">
        <ele>786</ele>
        <time>2021-08-10T12:46:43.584Z</time>
      </trkpt>
      <trkpt lat="46.91156" lon="8.56724">
        <ele>787</ele>
        <time>2021-08-10T12:46:44.584Z</time>
      </trkpt>
      <trkpt lat="46.91155" lon="8.56723">
        <ele>787</ele>
        <time>2021-08-10T12:46:45.584Z</time>
      </trkpt>
      <trkpt lat="46.91155" lon="8.56722">
        <ele>787</ele>
        <time>2021-08-10T12:46:46.583Z</time>
      </trkpt>
      <trkpt lat="46.91154" lon="8.5672">
        <ele>787</ele>
        <time>2021-08-10T12:46:47.584Z</time>
      </trkpt>
      <trkpt lat="46.91153" lon="8.56719">
        <ele>787</ele>
        <time>2021-08-10T12:46:48.583Z</time>
      </trkpt>
      <trkpt lat="46.91152" lon="8.56718">
        <ele>787</ele>
        <time>2021-08-10T12:46:49.584Z</time>
      </trkpt>
      <trkpt lat="46.91152" lon="8.56716">
        <ele>788</ele>
        <time>2021-08-10T12:46:50.584Z</time>
      </trkpt>
      <trkpt lat="46.91151" lon="8.56715">
        <ele>788</ele>
        <time>2021-08-10T12:46:51.584Z</time>
      </trkpt>
      <trkpt lat="46.91151" lon="8.56714">
        <ele>787</ele>
        <time>2021-08-10T12:46:52.583Z</time>
      </trkpt>
      <trkpt lat="46.9115" lon="8.56713">
        <ele>787</ele>
        <time>2021-08-10T12:46:53.584Z</time>
      </trkpt>
      <trkpt lat="46.9115" lon="8.56712">
        <ele>788</ele>
        <time>2021-08-10T12:46:54.583Z</time>
      </trkpt>
      <trkpt lat="46.9115" lon="8.5671">
        <ele>788</ele>
        <time>2021-08-10T12:46:55.583Z</time>
      </trkpt>
      <trkpt lat="46.91149" lon="8.56709">
        <ele>788</ele>
        <time>2021-08-10T12:46:56.583Z</time>
      </trkpt>
      <trkpt lat="46.91149" lon="8.56708">
        <ele>787</ele>
        <time>2021-08-10T12:46:57.584Z</time>
      </trkpt>
      <trkpt lat="46.91149" lon="8.56707">
        <ele>787</ele>
        <time>2021-08-10T12:46:58.584Z</time>
      </trkpt>
      <trkpt lat="46.91148" lon="8.56705">
        <ele>788</ele>
        <time>2021-08-10T12:46:59.584Z</time>
      </trkpt>
      <trkpt lat="46.91148" lon="8.56703">
        <ele>788</ele>
        <time>2021-08-10T12:47:00.584Z</time>
      </trkpt>
      <trkpt lat="46.91147" lon="8.56702">
        <ele>788</ele>
        <time>2021-08-10T12:47:01.584Z</time>
      </trkpt>
      <trkpt lat="46.91147" lon="8.567">
        <ele>789</ele>
        <time>2021-08-10T12:47:02.584Z</time>
      </trkpt>
      <trkpt lat="46.91146" lon="8.56698">
        <ele>789</ele>
        <time>2021-08-10T12:47:03.584Z</time>
      </trkpt>
      <trkpt lat="46.91146" lon="8.56697">
        <ele>790</ele>
        <time>2021-08-10T12:47:04.584Z</time>
      </trkpt>
      <trkpt lat="46.91145" lon="8.56695">
        <ele>790</ele>
        <time>2021-08-10T12:47:05.584Z</time>
      </trkpt>
      <trkpt lat="46.91144" lon="8.56693">
        <ele>790</ele>
        <time>2021-08-10T12:47:06.584Z</time>
      </trkpt>
      <trkpt lat="46.91143" lon="8.56691">
        <ele>790</ele>
        <time>2021-08-10T12:47:07.584Z</time>
      </trkpt>
      <trkpt lat="46.91142" lon="8.56689">
        <ele>790</ele>
        <time>2021-08-10T12:47:08.584Z</time>
      </trkpt>
      <trkpt lat="46.91141" lon="8.56688">
        <ele>790</ele>
        <time>2021-08-10T12:47:09.583Z</time>
      </trkpt>
      <trkpt lat="46.91141" lon="8.56686">
        <ele>789</ele>
        <time>2021-08-10T12:47:11.710Z</time>
      </trkpt>
      <trkpt lat="46.9114" lon="8.56684">
        <ele>789</ele>
        <time>2021-08-10T12:47:12.709Z</time>
      </trkpt>
      <trkpt lat="46.91139" lon="8.56683">
        <ele>789</ele>
        <time>2021-08-10T12:47:13.710Z</time>
      </trkpt>
      <trkpt lat="46.91139" lon="8.56682">
        <ele>788</ele>
        <time>2021-08-10T12:47:14.710Z</time>
      </trkpt>
      <trkpt lat="46.91138" lon="8.56681">
        <ele>788</ele>
        <time>2021-08-10T12:47:15.709Z</time>
      </trkpt>
      <trkpt lat="46.91138" lon="8.56681">
        <ele>787</ele>
        <time>2021-08-10T12:47:16.710Z</time>
      </trkpt>
      <trkpt lat="46.91137" lon="8.5668">
        <ele>787</ele>
        <time>2021-08-10T12:47:17.710Z</time>
      </trkpt>
      <trkpt lat="46.91136" lon="8.56679">
        <ele>787</ele>
        <time>2021-08-10T12:47:18.710Z</time>
      </trkpt>
      <trkpt lat="46.91135" lon="8.56678">
        <ele>786</ele>
        <time>2021-08-10T12:47:19.710Z</time>
      </trkpt>
      <trkpt lat="46.91135" lon="8.56677">
        <ele>786</ele>
        <time>2021-08-10T12:47:20.710Z</time>
      </trkpt>
      <trkpt lat="46.91134" lon="8.56676">
        <ele>786</ele>
        <time>2021-08-10T12:47:21.709Z</time>
      </trkpt>
      <trkpt lat="46.91134" lon="8.56675">
        <ele>786</ele>
        <time>2021-08-10T12:47:22.710Z</time>
      </trkpt>
      <trkpt lat="46.91134" lon="8.56674">
        <ele>786</ele>
        <time>2021-08-10T12:47:23.710Z</time>
      </trkpt>
      <trkpt lat="46.91134" lon="8.56673">
        <ele>785</ele>
        <time>2021-08-10T12:47:24.710Z</time>
      </trkpt>
      <trkpt lat="46.91133" lon="8.56672">
        <ele>785</ele>
        <time>2021-08-10T12:47:25.710Z</time>
      </trkpt>
      <trkpt lat="46.91133" lon="8.56671">
        <ele>785</ele>
        <time>2021-08-10T12:47:26.710Z</time>
      </trkpt>
      <trkpt lat="46.91132" lon="8.5667">
        <ele>785</ele>
        <time>2021-08-10T12:47:30.874Z</time>
      </trkpt>
      <trkpt lat="46.91131" lon="8.56668">
        <ele>785</ele>
        <time>2021-08-10T12:47:31.873Z</time>
      </trkpt>
      <trkpt lat="46.91131" lon="8.56667">
        <ele>784</ele>
        <time>2021-08-10T12:47:32.874Z</time>
      </trkpt>
      <trkpt lat="46.91131" lon="8.56665">
        <ele>784</ele>
        <time>2021-08-10T12:47:33.874Z</time>
      </trkpt>
      <trkpt lat="46.91131" lon="8.56663">
        <ele>784</ele>
        <time>2021-08-10T12:47:34.874Z</time>
      </trkpt>
      <trkpt lat="46.91131" lon="8.56662">
        <ele>784</ele>
        <time>2021-08-10T12:47:35.874Z</time>
      </trkpt>
      <trkpt lat="46.9113" lon="8.56661">
        <ele>783</ele>
        <time>2021-08-10T12:47:36.873Z</time>
      </trkpt>
      <trkpt lat="46.9113" lon="8.56659">
        <ele>783</ele>
        <time>2021-08-10T12:47:37.874Z</time>
      </trkpt>
      <trkpt lat="46.91129" lon="8.56657">
        <ele>782</ele>
        <time>2021-08-10T12:47:38.874Z</time>
      </trkpt>
      <trkpt lat="46.91129" lon="8.56655">
        <ele>782</ele>
        <time>2021-08-10T12:47:39.874Z</time>
      </trkpt>
      <trkpt lat="46.91128" lon="8.56657">
        <ele>782</ele>
        <time>2021-08-10T12:47:40.874Z</time>
      </trkpt>
      <trkpt lat="46.91128" lon="8.56659">
        <ele>781</ele>
        <time>2021-08-10T12:47:41.874Z</time>
      </trkpt>
      <trkpt lat="46.91128" lon="8.56661">
        <ele>781</ele>
        <time>2021-08-10T12:47:42.874Z</time>
      </trkpt>
      <trkpt lat="46.91128" lon="8.56659">
        <ele>779</ele>
        <time>2021-08-10T12:47:43.874Z</time>
      </trkpt>
      <trkpt lat="46.91128" lon="8.56658">
        <ele>779</ele>
        <time>2021-08-10T12:47:44.874Z</time>
      </trkpt>
      <trkpt lat="46.91128" lon="8.56657">
        <ele>779</ele>
        <time>2021-08-10T12:47:45.873Z</time>
      </trkpt>
      <trkpt lat="46.91127" lon="8.56655">
        <ele>778</ele>
        <time>2021-08-10T12:47:46.873Z</time>
      </trkpt>
      <trkpt lat="46.91127" lon="8.56654">
        <ele>778</ele>
        <time>2021-08-10T12:47:47.873Z</time>
      </trkpt>
      <trkpt lat="46.91127" lon="8.56652">
        <ele>778</ele>
        <time>2021-08-10T12:47:48.874Z</time>
      </trkpt>
      <trkpt lat="46.91127" lon="8.56651">
        <ele>778</ele>
        <time>2021-08-10T12:47:49.874Z</time>
      </trkpt>
      <trkpt lat="46.91126" lon="8.5665">
        <ele>778</ele>
        <time>2021-08-10T12:47:50.873Z</time>
      </trkpt>
      <trkpt lat="46.91127" lon="8.56648">
        <ele>778</ele>
        <time>2021-08-10T12:47:55.980Z</time>
      </trkpt>
      <trkpt lat="46.91126" lon="8.56647">
        <ele>778</ele>
        <time>2021-08-10T12:47:56.979Z</time>
      </trkpt>
      <trkpt lat="46.91125" lon="8.56645">
        <ele>778</ele>
        <time>2021-08-10T12:47:57.980Z</time>
      </trkpt>
      <trkpt lat="46.91124" lon="8.56643">
        <ele>778</ele>
        <time>2021-08-10T12:47:58.980Z</time>
      </trkpt>
      <trkpt lat="46.91124" lon="8.56641">
        <ele>779</ele>
        <time>2021-08-10T12:47:59.979Z</time>
      </trkpt>
      <trkpt lat="46.91123" lon="8.5664">
        <ele>779</ele>
        <time>2021-08-10T12:48:00.979Z</time>
      </trkpt>
      <trkpt lat="46.91123" lon="8.56638">
        <ele>779</ele>
        <time>2021-08-10T12:48:01.980Z</time>
      </trkpt>
      <trkpt lat="46.91123" lon="8.56637">
        <ele>779</ele>
        <time>2021-08-10T12:48:02.979Z</time>
      </trkpt>
      <trkpt lat="46.91123" lon="8.56637">
        <ele>778</ele>
        <time>2021-08-10T12:48:03.980Z</time>
      </trkpt>
      <trkpt lat="46.91123" lon="8.56636">
        <ele>778</ele>
        <time>2021-08-10T12:48:04.980Z</time>
      </trkpt>
      <trkpt lat="46.91123" lon="8.56635">
        <ele>778</ele>
        <time>2021-08-10T12:48:05.980Z</time>
      </trkpt>
      <trkpt lat="46.91123" lon="8.56633">
        <ele>777</ele>
        <time>2021-08-10T12:48:06.979Z</time>
      </trkpt>
      <trkpt lat="46.91123" lon="8.56632">
        <ele>777</ele>
        <time>2021-08-10T12:48:07.979Z</time>
      </trkpt>
      <trkpt lat="46.91123" lon="8.5663">
        <ele>777</ele>
        <time>2021-08-10T12:48:08.979Z</time>
      </trkpt>
      <trkpt lat="46.91124" lon="8.56629">
        <ele>776</ele>
        <time>2021-08-10T12:48:09.979Z</time>
      </trkpt>
      <trkpt lat="46.91123" lon="8.56627">
        <ele>776</ele>
        <time>2021-08-10T12:48:10.979Z</time>
      </trkpt>
      <trkpt lat="46.91123" lon="8.56625">
        <ele>775</ele>
        <time>2021-08-10T12:48:11.980Z</time>
      </trkpt>
      <trkpt lat="46.91123" lon="8.56624">
        <ele>775</ele>
        <time>2021-08-10T12:48:12.979Z</time>
      </trkpt>
      <trkpt lat="46.91123" lon="8.56623">
        <ele>775</ele>
        <time>2021-08-10T12:48:13.980Z</time>
      </trkpt>
      <trkpt lat="46.91123" lon="8.56621">
        <ele>775</ele>
        <time>2021-08-10T12:48:14.979Z</time>
      </trkpt>
      <trkpt lat="46.91122" lon="8.56619">
        <ele>774</ele>
        <time>2021-08-10T12:48:15.980Z</time>
      </trkpt>
      <trkpt lat="46.91122" lon="8.56617">
        <ele>773</ele>
        <time>2021-08-10T12:48:16.980Z</time>
      </trkpt>
      <trkpt lat="46.91121" lon="8.56615">
        <ele>773</ele>
        <time>2021-08-10T12:48:17.979Z</time>
      </trkpt>
      <trkpt lat="46.91121" lon="8.56613">
        <ele>772</ele>
        <time>2021-08-10T12:48:18.980Z</time>
      </trkpt>
      <trkpt lat="46.91121" lon="8.56612">
        <ele>771</ele>
        <time>2021-08-10T12:48:19.980Z</time>
      </trkpt>
      <trkpt lat="46.91121" lon="8.56611">
        <ele>770</ele>
        <time>2021-08-10T12:48:20.980Z</time>
      </trkpt>
      <trkpt lat="46.91121" lon="8.5661">
        <ele>769</ele>
        <time>2021-08-10T12:48:21.980Z</time>
      </trkpt>
      <trkpt lat="46.91121" lon="8.56609">
        <ele>768</ele>
        <time>2021-08-10T12:48:22.980Z</time>
      </trkpt>
      <trkpt lat="46.91121" lon="8.56609">
        <ele>767</ele>
        <time>2021-08-10T12:48:23.979Z</time>
      </trkpt>
      <trkpt lat="46.91122" lon="8.56608">
        <ele>766</ele>
        <time>2021-08-10T12:48:24.979Z</time>
      </trkpt>
      <trkpt lat="46.91122" lon="8.56607">
        <ele>765</ele>
        <time>2021-08-10T12:48:27.104Z</time>
      </trkpt>
      <trkpt lat="46.91121" lon="8.56606">
        <ele>765</ele>
        <time>2021-08-10T12:48:28.831Z</time>
      </trkpt>
      <trkpt lat="46.91121" lon="8.56605">
        <ele>765</ele>
        <time>2021-08-10T12:48:29.832Z</time>
      </trkpt>
      <trkpt lat="46.91121" lon="8.56604">
        <ele>765</ele>
        <time>2021-08-10T12:48:30.832Z</time>
      </trkpt>
      <trkpt lat="46.91121" lon="8.56604">
        <ele>766</ele>
        <time>2021-08-10T12:48:31.832Z</time>
      </trkpt>
      <trkpt lat="46.91121" lon="8.56603">
        <ele>766</ele>
        <time>2021-08-10T12:48:32.831Z</time>
      </trkpt>
      <trkpt lat="46.9112" lon="8.56602">
        <ele>766</ele>
        <time>2021-08-10T12:48:33.831Z</time>
      </trkpt>
      <trkpt lat="46.91119" lon="8.566">
        <ele>767</ele>
        <time>2021-08-10T12:48:34.832Z</time>
      </trkpt>
      <trkpt lat="46.91119" lon="8.56597">
        <ele>767</ele>
        <time>2021-08-10T12:48:35.832Z</time>
      </trkpt>
      <trkpt lat="46.91118" lon="8.56596">
        <ele>768</ele>
        <time>2021-08-10T12:48:36.831Z</time>
      </trkpt>
      <trkpt lat="46.91117" lon="8.56595">
        <ele>768</ele>
        <time>2021-08-10T12:48:37.832Z</time>
      </trkpt>
      <trkpt lat="46.91117" lon="8.56593">
        <ele>768</ele>
        <time>2021-08-10T12:48:38.832Z</time>
      </trkpt>
      <trkpt lat="46.91117" lon="8.56591">
        <ele>769</ele>
        <time>2021-08-10T12:48:39.832Z</time>
      </trkpt>
      <trkpt lat="46.91117" lon="8.5659">
        <ele>769</ele>
        <time>2021-08-10T12:48:40.832Z</time>
      </trkpt>
      <trkpt lat="46.91116" lon="8.56589">
        <ele>770</ele>
        <time>2021-08-10T12:48:41.831Z</time>
      </trkpt>
      <trkpt lat="46.91116" lon="8.56587">
        <ele>771</ele>
        <time>2021-08-10T12:48:42.832Z</time>
      </trkpt>
      <trkpt lat="46.91116" lon="8.56586">
        <ele>771</ele>
        <time>2021-08-10T12:48:43.832Z</time>
      </trkpt>
      <trkpt lat="46.91116" lon="8.56583">
        <ele>771</ele>
        <time>2021-08-10T12:48:44.831Z</time>
      </trkpt>
      <trkpt lat="46.91116" lon="8.56581">
        <ele>772</ele>
        <time>2021-08-10T12:48:45.831Z</time>
      </trkpt>
      <trkpt lat="46.91115" lon="8.56579">
        <ele>772</ele>
        <time>2021-08-10T12:48:46.831Z</time>
      </trkpt>
      <trkpt lat="46.91114" lon="8.56577">
        <ele>772</ele>
        <time>2021-08-10T12:48:47.831Z</time>
      </trkpt>
      <trkpt lat="46.91113" lon="8.56575">
        <ele>772</ele>
        <time>2021-08-10T12:48:48.832Z</time>
      </trkpt>
      <trkpt lat="46.91113" lon="8.56574">
        <ele>773</ele>
        <time>2021-08-10T12:48:49.831Z</time>
      </trkpt>
      <trkpt lat="46.91113" lon="8.56572">
        <ele>773</ele>
        <time>2021-08-10T12:48:50.832Z</time>
      </trkpt>
      <trkpt lat="46.91113" lon="8.56571">
        <ele>773</ele>
        <time>2021-08-10T12:48:51.832Z</time>
      </trkpt>
      <trkpt lat="46.91114" lon="8.56569">
        <ele>774</ele>
        <time>2021-08-10T12:48:52.832Z</time>
      </trkpt>
      <trkpt lat="46.91114" lon="8.56569">
        <ele>774</ele>
        <time>2021-08-10T12:48:53.831Z</time>
      </trkpt>
      <trkpt lat="46.91114" lon="8.56568">
        <ele>774</ele>
        <time>2021-08-10T12:48:54.832Z</time>
      </trkpt>
      <trkpt lat="46.91114" lon="8.56567">
        <ele>775</ele>
        <time>2021-08-10T12:48:55.831Z</time>
      </trkpt>
      <trkpt lat="46.91113" lon="8.56566">
        <ele>775</ele>
        <time>2021-08-10T12:48:56.832Z</time>
      </trkpt>
      <trkpt lat="46.91113" lon="8.56565">
        <ele>775</ele>
        <time>2021-08-10T12:48:57.831Z</time>
      </trkpt>
      <trkpt lat="46.91112" lon="8.56563">
        <ele>775</ele>
        <time>2021-08-10T12:48:58.832Z</time>
      </trkpt>
      <trkpt lat="46.91112" lon="8.56562">
        <ele>775</ele>
        <time>2021-08-10T12:48:59.832Z</time>
      </trkpt>
      <trkpt lat="46.91112" lon="8.56561">
        <ele>774</ele>
        <time>2021-08-10T12:49:00.831Z</time>
      </trkpt>
      <trkpt lat="46.91111" lon="8.56559">
        <ele>774</ele>
        <time>2021-08-10T12:49:01.832Z</time>
      </trkpt>
      <trkpt lat="46.91111" lon="8.56558">
        <ele>774</ele>
        <time>2021-08-10T12:49:02.832Z</time>
      </trkpt>
      <trkpt lat="46.9111" lon="8.56556">
        <ele>774</ele>
        <time>2021-08-10T12:49:03.831Z</time>
      </trkpt>
      <trkpt lat="46.91109" lon="8.56555">
        <ele>774</ele>
        <time>2021-08-10T12:49:04.832Z</time>
      </trkpt>
      <trkpt lat="46.91108" lon="8.56554">
        <ele>774</ele>
        <time>2021-08-10T12:49:05.831Z</time>
      </trkpt>
      <trkpt lat="46.91107" lon="8.56552">
        <ele>774</ele>
        <time>2021-08-10T12:49:06.831Z</time>
      </trkpt>
      <trkpt lat="46.91107" lon="8.56551">
        <ele>774</ele>
        <time>2021-08-10T12:49:07.832Z</time>
      </trkpt>
      <trkpt lat="46.91106" lon="8.5655">
        <ele>774</ele>
        <time>2021-08-10T12:49:08.832Z</time>
      </trkpt>
      <trkpt lat="46.91106" lon="8.56548">
        <ele>774</ele>
        <time>2021-08-10T12:49:09.831Z</time>
      </trkpt>
      <trkpt lat="46.91106" lon="8.56547">
        <ele>774</ele>
        <time>2021-08-10T12:49:10.832Z</time>
      </trkpt>
      <trkpt lat="46.91105" lon="8.56546">
        <ele>773</ele>
        <time>2021-08-10T12:49:11.831Z</time>
      </trkpt>
      <trkpt lat="46.91105" lon="8.56546">
        <ele>773</ele>
        <time>2021-08-10T12:49:19.854Z</time>
      </trkpt>
      <trkpt lat="46.91104" lon="8.56545">
        <ele>772</ele>
        <time>2021-08-10T12:49:20.853Z</time>
      </trkpt>
      <trkpt lat="46.91104" lon="8.56543">
        <ele>772</ele>
        <time>2021-08-10T12:49:21.854Z</time>
      </trkpt>
      <trkpt lat="46.91103" lon="8.56541">
        <ele>771</ele>
        <time>2021-08-10T12:49:22.854Z</time>
      </trkpt>
      <trkpt lat="46.91101" lon="8.56539">
        <ele>770</ele>
        <time>2021-08-10T12:49:23.854Z</time>
      </trkpt>
      <trkpt lat="46.911" lon="8.56537">
        <ele>770</ele>
        <time>2021-08-10T12:49:24.853Z</time>
      </trkpt>
      <trkpt lat="46.91099" lon="8.56536">
        <ele>769</ele>
        <time>2021-08-10T12:49:25.854Z</time>
      </trkpt>
      <trkpt lat="46.91099" lon="8.56535">
        <ele>769</ele>
        <time>2021-08-10T12:49:26.853Z</time>
      </trkpt>
      <trkpt lat="46.91099" lon="8.56535">
        <ele>768</ele>
        <time>2021-08-10T12:49:27.854Z</time>
      </trkpt>
      <trkpt lat="46.91099" lon="8.56533">
        <ele>767</ele>
        <time>2021-08-10T12:49:28.854Z</time>
      </trkpt>
      <trkpt lat="46.91099" lon="8.56532">
        <ele>766</ele>
        <time>2021-08-10T12:49:29.853Z</time>
      </trkpt>
      <trkpt lat="46.91099" lon="8.56531">
        <ele>766</ele>
        <time>2021-08-10T12:49:30.853Z</time>
      </trkpt>
      <trkpt lat="46.91099" lon="8.5653">
        <ele>765</ele>
        <time>2021-08-10T12:49:31.853Z</time>
      </trkpt>
      <trkpt lat="46.91099" lon="8.56529">
        <ele>765</ele>
        <time>2021-08-10T12:49:32.854Z</time>
      </trkpt>
      <trkpt lat="46.91098" lon="8.56528">
        <ele>765</ele>
        <time>2021-08-10T12:49:33.853Z</time>
      </trkpt>
      <trkpt lat="46.91098" lon="8.56526">
        <ele>765</ele>
        <time>2021-08-10T12:49:34.853Z</time>
      </trkpt>
      <trkpt lat="46.91098" lon="8.56525">
        <ele>765</ele>
        <time>2021-08-10T12:49:35.854Z</time>
      </trkpt>
      <trkpt lat="46.91097" lon="8.56524">
        <ele>765</ele>
        <time>2021-08-10T12:49:36.854Z</time>
      </trkpt>
      <trkpt lat="46.91097" lon="8.56522">
        <ele>765</ele>
        <time>2021-08-10T12:49:37.853Z</time>
      </trkpt>
      <trkpt lat="46.91097" lon="8.5652">
        <ele>764</ele>
        <time>2021-08-10T12:49:38.854Z</time>
      </trkpt>
      <trkpt lat="46.91097" lon="8.56518">
        <ele>764</ele>
        <time>2021-08-10T12:49:39.853Z</time>
      </trkpt>
      <trkpt lat="46.91096" lon="8.56517">
        <ele>764</ele>
        <time>2021-08-10T12:49:40.854Z</time>
      </trkpt>
      <trkpt lat="46.91095" lon="8.56516">
        <ele>764</ele>
        <time>2021-08-10T12:49:41.853Z</time>
      </trkpt>
      <trkpt lat="46.91094" lon="8.56514">
        <ele>764</ele>
        <time>2021-08-10T12:49:42.853Z</time>
      </trkpt>
      <trkpt lat="46.91093" lon="8.56514">
        <ele>764</ele>
        <time>2021-08-10T12:49:43.854Z</time>
      </trkpt>
      <trkpt lat="46.91094" lon="8.56513">
        <ele>763</ele>
        <time>2021-08-10T12:49:44.854Z</time>
      </trkpt>
      <trkpt lat="46.91094" lon="8.56513">
        <ele>764</ele>
        <time>2021-08-10T12:49:57.845Z</time>
      </trkpt>
      <trkpt lat="46.91094" lon="8.56511">
        <ele>763</ele>
        <time>2021-08-10T12:49:58.845Z</time>
      </trkpt>
      <trkpt lat="46.91094" lon="8.5651">
        <ele>763</ele>
        <time>2021-08-10T12:49:59.845Z</time>
      </trkpt>
      <trkpt lat="46.91094" lon="8.56508">
        <ele>763</ele>
        <time>2021-08-10T12:50:00.845Z</time>
      </trkpt>
      <trkpt lat="46.91094" lon="8.56507">
        <ele>763</ele>
        <time>2021-08-10T12:50:01.845Z</time>
      </trkpt>
      <trkpt lat="46.91093" lon="8.56506">
        <ele>763</ele>
        <time>2021-08-10T12:50:02.845Z</time>
      </trkpt>
      <trkpt lat="46.91093" lon="8.56505">
        <ele>763</ele>
        <time>2021-08-10T12:50:03.845Z</time>
      </trkpt>
      <trkpt lat="46.91093" lon="8.56504">
        <ele>763</ele>
        <time>2021-08-10T12:50:04.845Z</time>
      </trkpt>
      <trkpt lat="46.91093" lon="8.56502">
        <ele>763</ele>
        <time>2021-08-10T12:50:05.845Z</time>
      </trkpt>
      <trkpt lat="46.91092" lon="8.56501">
        <ele>763</ele>
        <time>2021-08-10T12:50:06.845Z</time>
      </trkpt>
      <trkpt lat="46.91092" lon="8.56499">
        <ele>763</ele>
        <time>2021-08-10T12:50:07.845Z</time>
      </trkpt>
      <trkpt lat="46.91092" lon="8.56498">
        <ele>763</ele>
        <time>2021-08-10T12:50:08.846Z</time>
      </trkpt>
      <trkpt lat="46.91091" lon="8.56496">
        <ele>764</ele>
        <time>2021-08-10T12:50:09.846Z</time>
      </trkpt>
      <trkpt lat="46.91091" lon="8.56495">
        <ele>764</ele>
        <time>2021-08-10T12:50:10.846Z</time>
      </trkpt>
      <trkpt lat="46.91091" lon="8.56493">
        <ele>765</ele>
        <time>2021-08-10T12:50:11.846Z</time>
      </trkpt>
      <trkpt lat="46.9109" lon="8.56492">
        <ele>765</ele>
        <time>2021-08-10T12:50:12.846Z</time>
      </trkpt>
      <trkpt lat="46.9109" lon="8.5649">
        <ele>766</ele>
        <time>2021-08-10T12:50:13.846Z</time>
      </trkpt>
      <trkpt lat="46.9109" lon="8.56489">
        <ele>766</ele>
        <time>2021-08-10T12:50:14.846Z</time>
      </trkpt>
      <trkpt lat="46.9109" lon="8.56488">
        <ele>767</ele>
        <time>2021-08-10T12:50:15.846Z</time>
      </trkpt>
      <trkpt lat="46.9109" lon="8.56487">
        <ele>768</ele>
        <time>2021-08-10T12:50:16.846Z</time>
      </trkpt>
      <trkpt lat="46.9109" lon="8.56485">
        <ele>768</ele>
        <time>2021-08-10T12:50:17.846Z</time>
      </trkpt>
      <trkpt lat="46.91089" lon="8.56484">
        <ele>769</ele>
        <time>2021-08-10T12:50:18.846Z</time>
      </trkpt>
      <trkpt lat="46.91088" lon="8.56483">
        <ele>769</ele>
        <time>2021-08-10T12:50:19.846Z</time>
      </trkpt>
      <trkpt lat="46.91087" lon="8.56481">
        <ele>770</ele>
        <time>2021-08-10T12:50:20.845Z</time>
      </trkpt>
      <trkpt lat="46.91086" lon="8.5648">
        <ele>770</ele>
        <time>2021-08-10T12:50:21.846Z</time>
      </trkpt>
      <trkpt lat="46.91086" lon="8.56479">
        <ele>770</ele>
        <time>2021-08-10T12:50:22.846Z</time>
      </trkpt>
      <trkpt lat="46.91086" lon="8.56477">
        <ele>771</ele>
        <time>2021-08-10T12:50:23.846Z</time>
      </trkpt>
      <trkpt lat="46.91086" lon="8.56476">
        <ele>771</ele>
        <time>2021-08-10T12:50:24.846Z</time>
      </trkpt>
      <trkpt lat="46.91086" lon="8.56475">
        <ele>771</ele>
        <time>2021-08-10T12:50:25.845Z</time>
      </trkpt>
      <trkpt lat="46.91086" lon="8.56473">
        <ele>772</ele>
        <time>2021-08-10T12:50:26.846Z</time>
      </trkpt>
      <trkpt lat="46.91086" lon="8.56472">
        <ele>773</ele>
        <time>2021-08-10T12:50:27.846Z</time>
      </trkpt>
      <trkpt lat="46.91085" lon="8.5647">
        <ele>773</ele>
        <time>2021-08-10T12:50:28.846Z</time>
      </trkpt>
      <trkpt lat="46.91085" lon="8.56468">
        <ele>773</ele>
        <time>2021-08-10T12:50:29.846Z</time>
      </trkpt>
      <trkpt lat="46.91085" lon="8.56467">
        <ele>773</ele>
        <time>2021-08-10T12:50:30.846Z</time>
      </trkpt>
      <trkpt lat="46.91085" lon="8.56466">
        <ele>773</ele>
        <time>2021-08-10T12:50:31.846Z</time>
      </trkpt>
      <trkpt lat="46.91084" lon="8.56465">
        <ele>773</ele>
        <time>2021-08-10T12:50:32.846Z</time>
      </trkpt>
      <trkpt lat="46.91084" lon="8.56464">
        <ele>772</ele>
        <time>2021-08-10T12:50:33.846Z</time>
      </trkpt>
      <trkpt lat="46.91084" lon="8.56463">
        <ele>772</ele>
        <time>2021-08-10T12:50:34.845Z</time>
      </trkpt>
      <trkpt lat="46.91084" lon="8.56462">
        <ele>772</ele>
        <time>2021-08-10T12:50:35.846Z</time>
      </trkpt>
      <trkpt lat="46.91084" lon="8.5646">
        <ele>772</ele>
        <time>2021-08-10T12:50:36.846Z</time>
      </trkpt>
      <trkpt lat="46.91083" lon="8.56458">
        <ele>773</ele>
        <time>2021-08-10T12:50:37.845Z</time>
      </trkpt>
      <trkpt lat="46.91082" lon="8.56456">
        <ele>773</ele>
        <time>2021-08-10T12:50:38.846Z</time>
      </trkpt>
      <trkpt lat="46.91082" lon="8.56454">
        <ele>773</ele>
        <time>2021-08-10T12:50:39.846Z</time>
      </trkpt>
      <trkpt lat="46.91081" lon="8.56453">
        <ele>773</ele>
        <time>2021-08-10T12:50:40.845Z</time>
      </trkpt>
      <trkpt lat="46.91081" lon="8.56451">
        <ele>774</ele>
        <time>2021-08-10T12:50:41.846Z</time>
      </trkpt>
      <trkpt lat="46.9108" lon="8.5645">
        <ele>774</ele>
        <time>2021-08-10T12:50:42.845Z</time>
      </trkpt>
      <trkpt lat="46.91079" lon="8.56448">
        <ele>774</ele>
        <time>2021-08-10T12:50:43.846Z</time>
      </trkpt>
      <trkpt lat="46.91079" lon="8.56446">
        <ele>774</ele>
        <time>2021-08-10T12:50:44.846Z</time>
      </trkpt>
      <trkpt lat="46.91079" lon="8.56444">
        <ele>775</ele>
        <time>2021-08-10T12:50:45.846Z</time>
      </trkpt>
      <trkpt lat="46.91078" lon="8.56443">
        <ele>774</ele>
        <time>2021-08-10T12:50:46.846Z</time>
      </trkpt>
      <trkpt lat="46.91078" lon="8.56441">
        <ele>774</ele>
        <time>2021-08-10T12:50:47.846Z</time>
      </trkpt>
      <trkpt lat="46.91078" lon="8.5644">
        <ele>774</ele>
        <time>2021-08-10T12:50:48.845Z</time>
      </trkpt>
      <trkpt lat="46.91078" lon="8.56438">
        <ele>774</ele>
        <time>2021-08-10T12:50:49.846Z</time>
      </trkpt>
      <trkpt lat="46.91077" lon="8.56437">
        <ele>774</ele>
        <time>2021-08-10T12:50:50.845Z</time>
      </trkpt>
      <trkpt lat="46.91077" lon="8.56436">
        <ele>774</ele>
        <time>2021-08-10T12:50:51.845Z</time>
      </trkpt>
      <trkpt lat="46.91077" lon="8.56433">
        <ele>774</ele>
        <time>2021-08-10T12:50:52.846Z</time>
      </trkpt>
      <trkpt lat="46.91078" lon="8.56432">
        <ele>774</ele>
        <time>2021-08-10T12:50:53.846Z</time>
      </trkpt>
      <trkpt lat="46.91077" lon="8.5643">
        <ele>774</ele>
        <time>2021-08-10T12:50:54.846Z</time>
      </trkpt>
      <trkpt lat="46.91077" lon="8.56428">
        <ele>774</ele>
        <time>2021-08-10T12:50:55.845Z</time>
      </trkpt>
      <trkpt lat="46.91077" lon="8.56427">
        <ele>774</ele>
        <time>2021-08-10T12:50:56.846Z</time>
      </trkpt>
      <trkpt lat="46.91077" lon="8.56425">
        <ele>773</ele>
        <time>2021-08-10T12:50:57.846Z</time>
      </trkpt>
      <trkpt lat="46.91077" lon="8.56425">
        <ele>773</ele>
        <time>2021-08-10T12:50:58.846Z</time>
      </trkpt>
      <trkpt lat="46.91078" lon="8.56423">
        <ele>773</ele>
        <time>2021-08-10T12:50:59.846Z</time>
      </trkpt>
      <trkpt lat="46.91079" lon="8.56422">
        <ele>774</ele>
        <time>2021-08-10T12:51:00.846Z</time>
      </trkpt>
      <trkpt lat="46.91079" lon="8.5642">
        <ele>774</ele>
        <time>2021-08-10T12:51:01.846Z</time>
      </trkpt>
      <trkpt lat="46.9108" lon="8.56418">
        <ele>774</ele>
        <time>2021-08-10T12:51:02.845Z</time>
      </trkpt>
      <trkpt lat="46.9108" lon="8.56416">
        <ele>774</ele>
        <time>2021-08-10T12:51:03.845Z</time>
      </trkpt>
      <trkpt lat="46.91081" lon="8.56414">
        <ele>774</ele>
        <time>2021-08-10T12:51:04.845Z</time>
      </trkpt>
      <trkpt lat="46.91082" lon="8.56413">
        <ele>774</ele>
        <time>2021-08-10T12:51:06.959Z</time>
      </trkpt>
      <trkpt lat="46.91081" lon="8.56411">
        <ele>775</ele>
        <time>2021-08-10T12:51:07.959Z</time>
      </trkpt>
      <trkpt lat="46.91081" lon="8.5641">
        <ele>775</ele>
        <time>2021-08-10T12:51:08.958Z</time>
      </trkpt>
      <trkpt lat="46.91081" lon="8.56408">
        <ele>774</ele>
        <time>2021-08-10T12:51:09.958Z</time>
      </trkpt>
      <trkpt lat="46.9108" lon="8.56407">
        <ele>774</ele>
        <time>2021-08-10T12:51:10.959Z</time>
      </trkpt>
      <trkpt lat="46.9108" lon="8.56405">
        <ele>774</ele>
        <time>2021-08-10T12:51:11.959Z</time>
      </trkpt>
      <trkpt lat="46.9108" lon="8.56404">
        <ele>773</ele>
        <time>2021-08-10T12:51:12.958Z</time>
      </trkpt>
      <trkpt lat="46.9108" lon="8.56403">
        <ele>773</ele>
        <time>2021-08-10T12:51:13.958Z</time>
      </trkpt>
      <trkpt lat="46.9108" lon="8.56401">
        <ele>773</ele>
        <time>2021-08-10T12:51:14.959Z</time>
      </trkpt>
      <trkpt lat="46.9108" lon="8.56399">
        <ele>772</ele>
        <time>2021-08-10T12:51:15.958Z</time>
      </trkpt>
      <trkpt lat="46.9108" lon="8.56397">
        <ele>772</ele>
        <time>2021-08-10T12:51:16.959Z</time>
      </trkpt>
      <trkpt lat="46.9108" lon="8.56396">
        <ele>772</ele>
        <time>2021-08-10T12:51:17.959Z</time>
      </trkpt>
      <trkpt lat="46.9108" lon="8.56394">
        <ele>772</ele>
        <time>2021-08-10T12:51:18.959Z</time>
      </trkpt>
      <trkpt lat="46.91081" lon="8.56392">
        <ele>772</ele>
        <time>2021-08-10T12:51:19.959Z</time>
      </trkpt>
      <trkpt lat="46.91081" lon="8.56391">
        <ele>772</ele>
        <time>2021-08-10T12:51:20.958Z</time>
      </trkpt>
      <trkpt lat="46.91082" lon="8.56389">
        <ele>773</ele>
        <time>2021-08-10T12:51:21.959Z</time>
      </trkpt>
      <trkpt lat="46.91083" lon="8.56386">
        <ele>773</ele>
        <time>2021-08-10T12:51:22.959Z</time>
      </trkpt>
      <trkpt lat="46.91083" lon="8.56384">
        <ele>773</ele>
        <time>2021-08-10T12:51:23.958Z</time>
      </trkpt>
      <trkpt lat="46.91083" lon="8.56382">
        <ele>773</ele>
        <time>2021-08-10T12:51:24.958Z</time>
      </trkpt>
      <trkpt lat="46.91083" lon="8.56381">
        <ele>774</ele>
        <time>2021-08-10T12:51:25.958Z</time>
      </trkpt>
      <trkpt lat="46.91082" lon="8.56379">
        <ele>774</ele>
        <time>2021-08-10T12:51:26.958Z</time>
      </trkpt>
      <trkpt lat="46.91082" lon="8.56378">
        <ele>774</ele>
        <time>2021-08-10T12:51:27.958Z</time>
      </trkpt>
      <trkpt lat="46.91081" lon="8.56377">
        <ele>774</ele>
        <time>2021-08-10T12:51:28.959Z</time>
      </trkpt>
      <trkpt lat="46.91082" lon="8.56376">
        <ele>774</ele>
        <time>2021-08-10T12:51:29.959Z</time>
      </trkpt>
      <trkpt lat="46.91082" lon="8.56375">
        <ele>773</ele>
        <time>2021-08-10T12:51:30.959Z</time>
      </trkpt>
      <trkpt lat="46.91082" lon="8.56373">
        <ele>773</ele>
        <time>2021-08-10T12:51:31.959Z</time>
      </trkpt>
      <trkpt lat="46.91082" lon="8.56371">
        <ele>772</ele>
        <time>2021-08-10T12:51:32.959Z</time>
      </trkpt>
      <trkpt lat="46.91081" lon="8.56369">
        <ele>771</ele>
        <time>2021-08-10T12:51:33.958Z</time>
      </trkpt>
      <trkpt lat="46.9108" lon="8.56367">
        <ele>771</ele>
        <time>2021-08-10T12:51:34.958Z</time>
      </trkpt>
      <trkpt lat="46.9108" lon="8.56366">
        <ele>771</ele>
        <time>2021-08-10T12:51:35.958Z</time>
      </trkpt>
      <trkpt lat="46.9108" lon="8.56364">
        <ele>770</ele>
        <time>2021-08-10T12:51:36.959Z</time>
      </trkpt>
      <trkpt lat="46.9108" lon="8.56363">
        <ele>770</ele>
        <time>2021-08-10T12:51:37.959Z</time>
      </trkpt>
      <trkpt lat="46.9108" lon="8.56361">
        <ele>770</ele>
        <time>2021-08-10T12:51:38.959Z</time>
      </trkpt>
      <trkpt lat="46.9108" lon="8.56359">
        <ele>770</ele>
        <time>2021-08-10T12:51:39.958Z</time>
      </trkpt>
      <trkpt lat="46.9108" lon="8.56357">
        <ele>770</ele>
        <time>2021-08-10T12:51:40.958Z</time>
      </trkpt>
      <trkpt lat="46.9108" lon="8.56355">
        <ele>770</ele>
        <time>2021-08-10T12:51:41.959Z</time>
      </trkpt>
      <trkpt lat="46.91079" lon="8.56354">
        <ele>770</ele>
        <time>2021-08-10T12:51:42.958Z</time>
      </trkpt>
      <trkpt lat="46.91079" lon="8.56352">
        <ele>770</ele>
        <time>2021-08-10T12:51:43.959Z</time>
      </trkpt>
      <trkpt lat="46.9108" lon="8.56351">
        <ele>770</ele>
        <time>2021-08-10T12:51:44.959Z</time>
      </trkpt>
      <trkpt lat="46.9108" lon="8.5635">
        <ele>771</ele>
        <time>2021-08-10T12:51:45.959Z</time>
      </trkpt>
      <trkpt lat="46.91079" lon="8.56348">
        <ele>771</ele>
        <time>2021-08-10T12:51:46.958Z</time>
      </trkpt>
      <trkpt lat="46.91078" lon="8.56347">
        <ele>771</ele>
        <time>2021-08-10T12:51:47.959Z</time>
      </trkpt>
      <trkpt lat="46.91078" lon="8.56345">
        <ele>770</ele>
        <time>2021-08-10T12:51:48.958Z</time>
      </trkpt>
      <trkpt lat="46.91077" lon="8.56342">
        <ele>770</ele>
        <time>2021-08-10T12:51:49.959Z</time>
      </trkpt>
      <trkpt lat="46.91077" lon="8.5634">
        <ele>770</ele>
        <time>2021-08-10T12:51:50.958Z</time>
      </trkpt>
      <trkpt lat="46.91077" lon="8.56338">
        <ele>770</ele>
        <time>2021-08-10T12:51:51.958Z</time>
      </trkpt>
      <trkpt lat="46.91077" lon="8.56338">
        <ele>770</ele>
        <time>2021-08-10T12:51:52.959Z</time>
      </trkpt>
      <trkpt lat="46.91078" lon="8.56337">
        <ele>771</ele>
        <time>2021-08-10T12:51:53.959Z</time>
      </trkpt>
      <trkpt lat="46.91079" lon="8.56336">
        <ele>771</ele>
        <time>2021-08-10T12:51:54.959Z</time>
      </trkpt>
      <trkpt lat="46.91079" lon="8.56335">
        <ele>772</ele>
        <time>2021-08-10T12:51:55.958Z</time>
      </trkpt>
      <trkpt lat="46.9108" lon="8.56334">
        <ele>772</ele>
        <time>2021-08-10T12:51:56.958Z</time>
      </trkpt>
      <trkpt lat="46.9108" lon="8.56333">
        <ele>772</ele>
        <time>2021-08-10T12:51:57.959Z</time>
      </trkpt>
      <trkpt lat="46.9108" lon="8.56331">
        <ele>772</ele>
        <time>2021-08-10T12:51:58.958Z</time>
      </trkpt>
      <trkpt lat="46.91081" lon="8.56329">
        <ele>773</ele>
        <time>2021-08-10T12:51:59.958Z</time>
      </trkpt>
      <trkpt lat="46.9108" lon="8.56327">
        <ele>773</ele>
        <time>2021-08-10T12:52:00.958Z</time>
      </trkpt>
      <trkpt lat="46.9108" lon="8.56326">
        <ele>774</ele>
        <time>2021-08-10T12:52:01.959Z</time>
      </trkpt>
      <trkpt lat="46.9108" lon="8.56324">
        <ele>775</ele>
        <time>2021-08-10T12:52:02.958Z</time>
      </trkpt>
      <trkpt lat="46.9108" lon="8.56323">
        <ele>776</ele>
        <time>2021-08-10T12:52:03.958Z</time>
      </trkpt>
      <trkpt lat="46.9108" lon="8.56321">
        <ele>776</ele>
        <time>2021-08-10T12:52:04.959Z</time>
      </trkpt>
      <trkpt lat="46.91081" lon="8.56319">
        <ele>777</ele>
        <time>2021-08-10T12:52:05.958Z</time>
      </trkpt>
      <trkpt lat="46.91081" lon="8.56318">
        <ele>777</ele>
        <time>2021-08-10T12:52:06.959Z</time>
      </trkpt>
      <trkpt lat="46.91081" lon="8.56316">
        <ele>777</ele>
        <time>2021-08-10T12:52:07.959Z</time>
      </trkpt>
      <trkpt lat="46.91081" lon="8.56315">
        <ele>778</ele>
        <time>2021-08-10T12:52:08.958Z</time>
      </trkpt>
      <trkpt lat="46.9108" lon="8.56312">
        <ele>778</ele>
        <time>2021-08-10T12:52:09.959Z</time>
      </trkpt>
      <trkpt lat="46.9108" lon="8.56311">
        <ele>778</ele>
        <time>2021-08-10T12:52:10.959Z</time>
      </trkpt>
      <trkpt lat="46.9108" lon="8.56309">
        <ele>777</ele>
        <time>2021-08-10T12:52:12.977Z</time>
      </trkpt>
      <trkpt lat="46.9108" lon="8.56308">
        <ele>777</ele>
        <time>2021-08-10T12:52:13.978Z</time>
      </trkpt>
      <trkpt lat="46.9108" lon="8.56306">
        <ele>777</ele>
        <time>2021-08-10T12:52:14.978Z</time>
      </trkpt>
      <trkpt lat="46.9108" lon="8.56305">
        <ele>777</ele>
        <time>2021-08-10T12:52:15.977Z</time>
      </trkpt>
      <trkpt lat="46.91081" lon="8.56304">
        <ele>777</ele>
        <time>2021-08-10T12:52:16.977Z</time>
      </trkpt>
      <trkpt lat="46.91081" lon="8.56301">
        <ele>778</ele>
        <time>2021-08-10T12:52:17.977Z</time>
      </trkpt>
      <trkpt lat="46.91081" lon="8.56298">
        <ele>778</ele>
        <time>2021-08-10T12:52:18.977Z</time>
      </trkpt>
      <trkpt lat="46.91081" lon="8.56295">
        <ele>779</ele>
        <time>2021-08-10T12:52:19.977Z</time>
      </trkpt>
      <trkpt lat="46.91081" lon="8.56291">
        <ele>779</ele>
        <time>2021-08-10T12:52:20.977Z</time>
      </trkpt>
      <trkpt lat="46.91081" lon="8.56289">
        <ele>779</ele>
        <time>2021-08-10T12:52:21.977Z</time>
      </trkpt>
      <trkpt lat="46.91081" lon="8.56287">
        <ele>780</ele>
        <time>2021-08-10T12:52:22.977Z</time>
      </trkpt>
      <trkpt lat="46.91081" lon="8.56286">
        <ele>780</ele>
        <time>2021-08-10T12:52:23.977Z</time>
      </trkpt>
      <trkpt lat="46.91081" lon="8.56284">
        <ele>781</ele>
        <time>2021-08-10T12:52:24.977Z</time>
      </trkpt>
      <trkpt lat="46.9108" lon="8.56283">
        <ele>781</ele>
        <time>2021-08-10T12:52:25.978Z</time>
      </trkpt>
      <trkpt lat="46.9108" lon="8.56282">
        <ele>781</ele>
        <time>2021-08-10T12:52:26.977Z</time>
      </trkpt>
      <trkpt lat="46.91079" lon="8.56282">
        <ele>781</ele>
        <time>2021-08-10T12:52:30.105Z</time>
      </trkpt>
      <trkpt lat="46.91079" lon="8.56281">
        <ele>780</ele>
        <time>2021-08-10T12:52:31.104Z</time>
      </trkpt>
      <trkpt lat="46.91079" lon="8.56281">
        <ele>780</ele>
        <time>2021-08-10T12:52:32.104Z</time>
      </trkpt>
      <trkpt lat="46.91078" lon="8.5628">
        <ele>780</ele>
        <time>2021-08-10T12:52:33.104Z</time>
      </trkpt>
      <trkpt lat="46.91078" lon="8.56279">
        <ele>780</ele>
        <time>2021-08-10T12:52:34.104Z</time>
      </trkpt>
      <trkpt lat="46.91078" lon="8.56278">
        <ele>779</ele>
        <time>2021-08-10T12:52:35.105Z</time>
      </trkpt>
      <trkpt lat="46.91077" lon="8.56276">
        <ele>779</ele>
        <time>2021-08-10T12:52:36.105Z</time>
      </trkpt>
      <trkpt lat="46.91077" lon="8.56275">
        <ele>779</ele>
        <time>2021-08-10T12:52:37.105Z</time>
      </trkpt>
      <trkpt lat="46.91076" lon="8.56274">
        <ele>779</ele>
        <time>2021-08-10T12:52:38.105Z</time>
      </trkpt>
      <trkpt lat="46.91076" lon="8.56272">
        <ele>779</ele>
        <time>2021-08-10T12:52:39.105Z</time>
      </trkpt>
      <trkpt lat="46.91076" lon="8.56271">
        <ele>779</ele>
        <time>2021-08-10T12:52:40.104Z</time>
      </trkpt>
      <trkpt lat="46.91076" lon="8.5627">
        <ele>780</ele>
        <time>2021-08-10T12:52:41.104Z</time>
      </trkpt>
      <trkpt lat="46.91075" lon="8.56268">
        <ele>780</ele>
        <time>2021-08-10T12:52:42.105Z</time>
      </trkpt>
      <trkpt lat="46.91075" lon="8.56266">
        <ele>780</ele>
        <time>2021-08-10T12:52:43.105Z</time>
      </trkpt>
      <trkpt lat="46.91075" lon="8.56265">
        <ele>781</ele>
        <time>2021-08-10T12:52:44.105Z</time>
      </trkpt>
      <trkpt lat="46.91075" lon="8.56263">
        <ele>781</ele>
        <time>2021-08-10T12:52:46.229Z</time>
      </trkpt>
      <trkpt lat="46.91075" lon="8.56262">
        <ele>782</ele>
        <time>2021-08-10T12:52:47.229Z</time>
      </trkpt>
      <trkpt lat="46.91075" lon="8.56261">
        <ele>783</ele>
        <time>2021-08-10T12:52:48.228Z</time>
      </trkpt>
      <trkpt lat="46.91075" lon="8.5626">
        <ele>783</ele>
        <time>2021-08-10T12:52:49.228Z</time>
      </trkpt>
      <trkpt lat="46.91074" lon="8.56258">
        <ele>784</ele>
        <time>2021-08-10T12:52:50.228Z</time>
      </trkpt>
      <trkpt lat="46.91073" lon="8.56256">
        <ele>784</ele>
        <time>2021-08-10T12:52:51.229Z</time>
      </trkpt>
      <trkpt lat="46.91072" lon="8.56254">
        <ele>785</ele>
        <time>2021-08-10T12:52:52.229Z</time>
      </trkpt>
      <trkpt lat="46.91071" lon="8.56252">
        <ele>785</ele>
        <time>2021-08-10T12:52:53.228Z</time>
      </trkpt>
      <trkpt lat="46.9107" lon="8.56249">
        <ele>785</ele>
        <time>2021-08-10T12:52:54.229Z</time>
      </trkpt>
      <trkpt lat="46.9107" lon="8.56248">
        <ele>786</ele>
        <time>2021-08-10T12:52:55.229Z</time>
      </trkpt>
      <trkpt lat="46.91069" lon="8.56246">
        <ele>786</ele>
        <time>2021-08-10T12:52:56.229Z</time>
      </trkpt>
      <trkpt lat="46.91069" lon="8.56245">
        <ele>787</ele>
        <time>2021-08-10T12:52:57.229Z</time>
      </trkpt>
      <trkpt lat="46.9107" lon="8.56244">
        <ele>787</ele>
        <time>2021-08-10T12:52:58.228Z</time>
      </trkpt>
      <trkpt lat="46.9107" lon="8.56243">
        <ele>787</ele>
        <time>2021-08-10T12:52:59.229Z</time>
      </trkpt>
      <trkpt lat="46.9107" lon="8.56241">
        <ele>787</ele>
        <time>2021-08-10T12:53:00.229Z</time>
      </trkpt>
      <trkpt lat="46.91069" lon="8.56239">
        <ele>787</ele>
        <time>2021-08-10T12:53:01.229Z</time>
      </trkpt>
      <trkpt lat="46.91069" lon="8.56238">
        <ele>788</ele>
        <time>2021-08-10T12:53:02.228Z</time>
      </trkpt>
      <trkpt lat="46.91069" lon="8.56236">
        <ele>788</ele>
        <time>2021-08-10T12:53:03.228Z</time>
      </trkpt>
      <trkpt lat="46.91069" lon="8.56235">
        <ele>788</ele>
        <time>2021-08-10T12:53:06.204Z</time>
      </trkpt>
      <trkpt lat="46.91069" lon="8.56234">
        <ele>789</ele>
        <time>2021-08-10T12:53:07.203Z</time>
      </trkpt>
      <trkpt lat="46.91069" lon="8.56233">
        <ele>790</ele>
        <time>2021-08-10T12:53:08.203Z</time>
      </trkpt>
      <trkpt lat="46.91069" lon="8.56231">
        <ele>790</ele>
        <time>2021-08-10T12:53:09.204Z</time>
      </trkpt>
      <trkpt lat="46.91068" lon="8.5623">
        <ele>791</ele>
        <time>2021-08-10T12:53:10.204Z</time>
      </trkpt>
      <trkpt lat="46.91069" lon="8.56228">
        <ele>791</ele>
        <time>2021-08-10T12:53:11.204Z</time>
      </trkpt>
      <trkpt lat="46.91068" lon="8.56226">
        <ele>792</ele>
        <time>2021-08-10T12:53:12.204Z</time>
      </trkpt>
      <trkpt lat="46.91068" lon="8.56224">
        <ele>792</ele>
        <time>2021-08-10T12:53:13.203Z</time>
      </trkpt>
      <trkpt lat="46.91067" lon="8.56223">
        <ele>792</ele>
        <time>2021-08-10T12:53:14.204Z</time>
      </trkpt>
      <trkpt lat="46.91066" lon="8.56223">
        <ele>792</ele>
        <time>2021-08-10T12:53:15.203Z</time>
      </trkpt>
      <trkpt lat="46.91064" lon="8.56223">
        <ele>793</ele>
        <time>2021-08-10T12:53:16.204Z</time>
      </trkpt>
      <trkpt lat="46.91063" lon="8.56223">
        <ele>793</ele>
        <time>2021-08-10T12:53:17.204Z</time>
      </trkpt>
      <trkpt lat="46.91063" lon="8.56223">
        <ele>793</ele>
        <time>2021-08-10T12:53:18.203Z</time>
      </trkpt>
      <trkpt lat="46.91062" lon="8.56224">
        <ele>793</ele>
        <time>2021-08-10T12:53:19.204Z</time>
      </trkpt>
      <trkpt lat="46.91062" lon="8.56224">
        <ele>793</ele>
        <time>2021-08-10T12:53:20.204Z</time>
      </trkpt>
      <trkpt lat="46.91062" lon="8.56225">
        <ele>793</ele>
        <time>2021-08-10T12:53:21.204Z</time>
      </trkpt>
      <trkpt lat="46.91063" lon="8.56225">
        <ele>793</ele>
        <time>2021-08-10T12:53:22.203Z</time>
      </trkpt>
      <trkpt lat="46.91064" lon="8.56226">
        <ele>793</ele>
        <time>2021-08-10T12:53:23.204Z</time>
      </trkpt>
      <trkpt lat="46.91064" lon="8.56227">
        <ele>793</ele>
        <time>2021-08-10T12:53:24.204Z</time>
      </trkpt>
      <trkpt lat="46.91064" lon="8.56227">
        <ele>793</ele>
        <time>2021-08-10T12:53:25.204Z</time>
      </trkpt>
      <trkpt lat="46.91064" lon="8.56227">
        <ele>792</ele>
        <time>2021-08-10T12:53:26.204Z</time>
      </trkpt>
      <trkpt lat="46.91064" lon="8.56227">
        <ele>791</ele>
        <time>2021-08-10T12:53:27.203Z</time>
      </trkpt>
      <trkpt lat="46.91062" lon="8.56223">
        <ele>782</ele>
        <time>2021-08-10T12:53:28.204Z</time>
      </trkpt>
      <trkpt lat="46.91062" lon="8.56222">
        <ele>781</ele>
        <time>2021-08-10T12:53:29.204Z</time>
      </trkpt>
      <trkpt lat="46.91062" lon="8.56223">
        <ele>781</ele>
        <time>2021-08-10T12:53:30.203Z</time>
      </trkpt>
      <trkpt lat="46.91062" lon="8.56223">
        <ele>780</ele>
        <time>2021-08-10T12:53:31.204Z</time>
      </trkpt>
      <trkpt lat="46.91062" lon="8.56223">
        <ele>779</ele>
        <time>2021-08-10T12:53:32.204Z</time>
      </trkpt>
      <trkpt lat="46.91062" lon="8.56224">
        <ele>776</ele>
        <time>2021-08-10T12:53:33.204Z</time>
      </trkpt>
      <trkpt lat="46.91059" lon="8.56223">
        <ele>768</ele>
        <time>2021-08-10T12:53:34.204Z</time>
      </trkpt>
      <trkpt lat="46.91058" lon="8.56222">
        <ele>768</ele>
        <time>2021-08-10T12:53:35.204Z</time>
      </trkpt>
      <trkpt lat="46.91058" lon="8.56222">
        <ele>767</ele>
        <time>2021-08-10T12:53:36.203Z</time>
      </trkpt>
      <trkpt lat="46.91057" lon="8.56223">
        <ele>768</ele>
        <time>2021-08-10T12:53:37.204Z</time>
      </trkpt>
      <trkpt lat="46.91057" lon="8.56222">
        <ele>769</ele>
        <time>2021-08-10T12:53:38.204Z</time>
      </trkpt>
      <trkpt lat="46.91056" lon="8.56221">
        <ele>769</ele>
        <time>2021-08-10T12:53:39.204Z</time>
      </trkpt>
      <trkpt lat="46.91055" lon="8.5622">
        <ele>769</ele>
        <time>2021-08-10T12:53:40.204Z</time>
      </trkpt>
      <trkpt lat="46.91055" lon="8.5622">
        <ele>769</ele>
        <time>2021-08-10T12:53:41.204Z</time>
      </trkpt>
      <trkpt lat="46.91055" lon="8.56222">
        <ele>769</ele>
        <time>2021-08-10T12:53:48.370Z</time>
      </trkpt>
      <trkpt lat="46.91055" lon="8.56223">
        <ele>770</ele>
        <time>2021-08-10T12:53:52.245Z</time>
      </trkpt>
      <trkpt lat="46.91055" lon="8.56222">
        <ele>771</ele>
        <time>2021-08-10T12:53:53.245Z</time>
      </trkpt>
      <trkpt lat="46.91055" lon="8.56222">
        <ele>772</ele>
        <time>2021-08-10T12:53:54.245Z</time>
      </trkpt>
      <trkpt lat="46.91056" lon="8.56222">
        <ele>773</ele>
        <time>2021-08-10T12:53:55.245Z</time>
      </trkpt>
      <trkpt lat="46.91057" lon="8.56222">
        <ele>774</ele>
        <time>2021-08-10T12:53:56.245Z</time>
      </trkpt>
      <trkpt lat="46.91058" lon="8.56222">
        <ele>775</ele>
        <time>2021-08-10T12:53:57.245Z</time>
      </trkpt>
      <trkpt lat="46.91059" lon="8.56222">
        <ele>777</ele>
        <time>2021-08-10T12:53:58.245Z</time>
      </trkpt>
      <trkpt lat="46.9106" lon="8.56223">
        <ele>778</ele>
        <time>2021-08-10T12:54:00.347Z</time>
      </trkpt>
      <trkpt lat="46.91061" lon="8.56225">
        <ele>781</ele>
        <time>2021-08-10T12:54:01.348Z</time>
      </trkpt>
      <trkpt lat="46.91062" lon="8.56227">
        <ele>781</ele>
        <time>2021-08-10T12:54:02.347Z</time>
      </trkpt>
      <trkpt lat="46.91062" lon="8.56229">
        <ele>782</ele>
        <time>2021-08-10T12:54:03.347Z</time>
      </trkpt>
      <trkpt lat="46.91063" lon="8.56231">
        <ele>782</ele>
        <time>2021-08-10T12:54:04.347Z</time>
      </trkpt>
      <trkpt lat="46.91064" lon="8.56233">
        <ele>782</ele>
        <time>2021-08-10T12:54:05.347Z</time>
      </trkpt>
      <trkpt lat="46.91065" lon="8.56234">
        <ele>782</ele>
        <time>2021-08-10T12:54:06.347Z</time>
      </trkpt>
      <trkpt lat="46.91065" lon="8.56236">
        <ele>781</ele>
        <time>2021-08-10T12:54:07.347Z</time>
      </trkpt>
      <trkpt lat="46.91065" lon="8.56238">
        <ele>781</ele>
        <time>2021-08-10T12:54:08.347Z</time>
      </trkpt>
      <trkpt lat="46.91066" lon="8.56239">
        <ele>781</ele>
        <time>2021-08-10T12:54:09.347Z</time>
      </trkpt>
      <trkpt lat="46.91067" lon="8.56241">
        <ele>781</ele>
        <time>2021-08-10T12:54:10.347Z</time>
      </trkpt>
      <trkpt lat="46.91067" lon="8.56243">
        <ele>780</ele>
        <time>2021-08-10T12:54:11.347Z</time>
      </trkpt>
      <trkpt lat="46.91066" lon="8.56245">
        <ele>780</ele>
        <time>2021-08-10T12:54:12.348Z</time>
      </trkpt>
      <trkpt lat="46.91066" lon="8.56247">
        <ele>779</ele>
        <time>2021-08-10T12:54:13.347Z</time>
      </trkpt>
      <trkpt lat="46.91067" lon="8.56249">
        <ele>779</ele>
        <time>2021-08-10T12:54:14.348Z</time>
      </trkpt>
      <trkpt lat="46.91067" lon="8.56251">
        <ele>778</ele>
        <time>2021-08-10T12:54:15.348Z</time>
      </trkpt>
      <trkpt lat="46.91067" lon="8.56252">
        <ele>778</ele>
        <time>2021-08-10T12:54:16.347Z</time>
      </trkpt>
      <trkpt lat="46.91067" lon="8.56254">
        <ele>778</ele>
        <time>2021-08-10T12:54:17.348Z</time>
      </trkpt>
      <trkpt lat="46.91067" lon="8.56255">
        <ele>777</ele>
        <time>2021-08-10T12:54:18.347Z</time>
      </trkpt>
      <trkpt lat="46.91066" lon="8.56256">
        <ele>777</ele>
        <time>2021-08-10T12:54:20.472Z</time>
      </trkpt>
      <trkpt lat="46.91066" lon="8.56258">
        <ele>776</ele>
        <time>2021-08-10T12:54:21.473Z</time>
      </trkpt>
      <trkpt lat="46.91065" lon="8.56259">
        <ele>776</ele>
        <time>2021-08-10T12:54:22.472Z</time>
      </trkpt>
      <trkpt lat="46.91065" lon="8.5626">
        <ele>776</ele>
        <time>2021-08-10T12:54:24.467Z</time>
      </trkpt>
      <trkpt lat="46.91064" lon="8.56261">
        <ele>776</ele>
        <time>2021-08-10T12:54:25.467Z</time>
      </trkpt>
      <trkpt lat="46.91063" lon="8.56262">
        <ele>776</ele>
        <time>2021-08-10T12:54:26.468Z</time>
      </trkpt>
      <trkpt lat="46.91062" lon="8.56263">
        <ele>776</ele>
        <time>2021-08-10T12:54:28.577Z</time>
      </trkpt>
      <trkpt lat="46.91062" lon="8.56262">
        <ele>776</ele>
        <time>2021-08-10T12:54:29.577Z</time>
      </trkpt>
      <trkpt lat="46.91062" lon="8.56263">
        <ele>776</ele>
        <time>2021-08-10T12:54:30.577Z</time>
      </trkpt>
      <trkpt lat="46.91063" lon="8.56263">
        <ele>776</ele>
        <time>2021-08-10T12:54:31.577Z</time>
      </trkpt>
      <trkpt lat="46.91064" lon="8.56263">
        <ele>776</ele>
        <time>2021-08-10T12:54:32.577Z</time>
      </trkpt>
      <trkpt lat="46.91066" lon="8.56263">
        <ele>777</ele>
        <time>2021-08-10T12:54:33.577Z</time>
      </trkpt>
      <trkpt lat="46.91066" lon="8.56263">
        <ele>777</ele>
        <time>2021-08-10T12:54:34.577Z</time>
      </trkpt>
      <trkpt lat="46.91064" lon="8.56263">
        <ele>778</ele>
        <time>2021-08-10T12:54:35.577Z</time>
      </trkpt>
      <trkpt lat="46.91063" lon="8.56263">
        <ele>778</ele>
        <time>2021-08-10T12:54:36.577Z</time>
      </trkpt>
      <trkpt lat="46.91063" lon="8.56264">
        <ele>779</ele>
        <time>2021-08-10T12:54:37.577Z</time>
      </trkpt>
      <trkpt lat="46.91063" lon="8.56264">
        <ele>779</ele>
        <time>2021-08-10T12:54:38.577Z</time>
      </trkpt>
      <trkpt lat="46.91064" lon="8.56265">
        <ele>779</ele>
        <time>2021-08-10T12:54:39.577Z</time>
      </trkpt>
      <trkpt lat="46.91065" lon="8.56265">
        <ele>779</ele>
        <time>2021-08-10T12:54:40.578Z</time>
      </trkpt>
      <trkpt lat="46.91066" lon="8.56266">
        <ele>779</ele>
        <time>2021-08-10T12:54:41.578Z</time>
      </trkpt>
      <trkpt lat="46.91066" lon="8.56266">
        <ele>780</ele>
        <time>2021-08-10T12:54:42.577Z</time>
      </trkpt>
      <trkpt lat="46.91068" lon="8.56266">
        <ele>780</ele>
        <time>2021-08-10T12:54:43.578Z</time>
      </trkpt>
      <trkpt lat="46.91069" lon="8.56266">
        <ele>780</ele>
        <time>2021-08-10T12:54:44.577Z</time>
      </trkpt>
      <trkpt lat="46.9107" lon="8.56264">
        <ele>781</ele>
        <time>2021-08-10T12:54:45.577Z</time>
      </trkpt>
      <trkpt lat="46.91071" lon="8.56263">
        <ele>781</ele>
        <time>2021-08-10T12:54:46.577Z</time>
      </trkpt>
      <trkpt lat="46.91071" lon="8.5626">
        <ele>781</ele>
        <time>2021-08-10T12:54:47.578Z</time>
      </trkpt>
      <trkpt lat="46.91071" lon="8.56259">
        <ele>781</ele>
        <time>2021-08-10T12:54:48.578Z</time>
      </trkpt>
      <trkpt lat="46.91071" lon="8.56259">
        <ele>781</ele>
        <time>2021-08-10T12:54:49.578Z</time>
      </trkpt>
      <trkpt lat="46.91071" lon="8.56259">
        <ele>782</ele>
        <time>2021-08-10T12:54:50.577Z</time>
      </trkpt>
      <trkpt lat="46.91072" lon="8.5626">
        <ele>782</ele>
        <time>2021-08-10T12:54:51.577Z</time>
      </trkpt>
      <trkpt lat="46.91072" lon="8.5626">
        <ele>782</ele>
        <time>2021-08-10T12:54:52.577Z</time>
      </trkpt>
      <trkpt lat="46.91072" lon="8.5626">
        <ele>782</ele>
        <time>2021-08-10T12:54:53.577Z</time>
      </trkpt>
      <trkpt lat="46.91072" lon="8.56261">
        <ele>782</ele>
        <time>2021-08-10T12:54:54.578Z</time>
      </trkpt>
      <trkpt lat="46.91072" lon="8.56262">
        <ele>781</ele>
        <time>2021-08-10T12:54:55.578Z</time>
      </trkpt>
      <trkpt lat="46.91071" lon="8.56263">
        <ele>781</ele>
        <time>2021-08-10T12:54:56.577Z</time>
      </trkpt>
      <trkpt lat="46.9107" lon="8.56264">
        <ele>781</ele>
        <time>2021-08-10T12:54:57.578Z</time>
      </trkpt>
      <trkpt lat="46.91069" lon="8.56264">
        <ele>781</ele>
        <time>2021-08-10T12:55:05.596Z</time>
      </trkpt>
      <trkpt lat="46.91068" lon="8.56264">
        <ele>781</ele>
        <time>2021-08-10T12:55:06.596Z</time>
      </trkpt>
      <trkpt lat="46.91066" lon="8.56264">
        <ele>781</ele>
        <time>2021-08-10T12:55:07.596Z</time>
      </trkpt>
      <trkpt lat="46.91066" lon="8.56265">
        <ele>780</ele>
        <time>2021-08-10T12:55:08.596Z</time>
      </trkpt>
      <trkpt lat="46.91065" lon="8.56265">
        <ele>780</ele>
        <time>2021-08-10T12:55:09.596Z</time>
      </trkpt>
      <trkpt lat="46.91064" lon="8.56265">
        <ele>779</ele>
        <time>2021-08-10T12:55:10.597Z</time>
      </trkpt>
      <trkpt lat="46.91063" lon="8.56266">
        <ele>779</ele>
        <time>2021-08-10T12:55:11.596Z</time>
      </trkpt>
      <trkpt lat="46.91062" lon="8.56266">
        <ele>778</ele>
        <time>2021-08-10T12:55:12.597Z</time>
      </trkpt>
      <trkpt lat="46.9106" lon="8.56266">
        <ele>777</ele>
        <time>2021-08-10T12:55:13.597Z</time>
      </trkpt>
      <trkpt lat="46.91058" lon="8.56266">
        <ele>777</ele>
        <time>2021-08-10T12:55:14.596Z</time>
      </trkpt>
      <trkpt lat="46.91057" lon="8.56266">
        <ele>776</ele>
        <time>2021-08-10T12:55:15.597Z</time>
      </trkpt>
      <trkpt lat="46.91056" lon="8.56265">
        <ele>776</ele>
        <time>2021-08-10T12:55:16.596Z</time>
      </trkpt>
      <trkpt lat="46.91055" lon="8.56264">
        <ele>776</ele>
        <time>2021-08-10T12:55:17.596Z</time>
      </trkpt>
      <trkpt lat="46.91054" lon="8.56263">
        <ele>775</ele>
        <time>2021-08-10T12:55:18.596Z</time>
      </trkpt>
      <trkpt lat="46.91053" lon="8.56262">
        <ele>775</ele>
        <time>2021-08-10T12:55:19.597Z</time>
      </trkpt>
      <trkpt lat="46.91053" lon="8.5626">
        <ele>776</ele>
        <time>2021-08-10T12:55:20.597Z</time>
      </trkpt>
      <trkpt lat="46.91052" lon="8.56258">
        <ele>776</ele>
        <time>2021-08-10T12:55:21.597Z</time>
      </trkpt>
      <trkpt lat="46.91051" lon="8.56257">
        <ele>777</ele>
        <time>2021-08-10T12:55:22.597Z</time>
      </trkpt>
      <trkpt lat="46.91051" lon="8.56255">
        <ele>777</ele>
        <time>2021-08-10T12:55:23.596Z</time>
      </trkpt>
      <trkpt lat="46.9105" lon="8.56254">
        <ele>778</ele>
        <time>2021-08-10T12:55:24.597Z</time>
      </trkpt>
      <trkpt lat="46.9105" lon="8.56253">
        <ele>779</ele>
        <time>2021-08-10T12:55:25.597Z</time>
      </trkpt>
      <trkpt lat="46.9105" lon="8.56253">
        <ele>779</ele>
        <time>2021-08-10T12:55:26.597Z</time>
      </trkpt>
      <trkpt lat="46.91058" lon="8.56225">
        <ele>782</ele>
        <time>2021-08-10T12:56:37.858Z</time>
      </trkpt>
      <trkpt lat="46.9105" lon="8.5624">
        <ele>784</ele>
        <time>2021-08-10T12:56:38.858Z</time>
      </trkpt>
      <trkpt lat="46.91044" lon="8.56246">
        <ele>785</ele>
        <time>2021-08-10T12:56:39.858Z</time>
      </trkpt>
      <trkpt lat="46.91042" lon="8.56249">
        <ele>787</ele>
        <time>2021-08-10T12:56:40.857Z</time>
      </trkpt>
      <trkpt lat="46.91044" lon="8.56246">
        <ele>788</ele>
        <time>2021-08-10T12:56:41.858Z</time>
      </trkpt>
      <trkpt lat="46.91042" lon="8.56248">
        <ele>789</ele>
        <time>2021-08-10T12:56:42.858Z</time>
      </trkpt>
      <trkpt lat="46.91042" lon="8.56247">
        <ele>790</ele>
        <time>2021-08-10T12:56:43.857Z</time>
      </trkpt>
      <trkpt lat="46.91043" lon="8.56247">
        <ele>791</ele>
        <time>2021-08-10T12:56:44.858Z</time>
      </trkpt>
      <trkpt lat="46.91042" lon="8.56247">
        <ele>792</ele>
        <time>2021-08-10T12:56:45.858Z</time>
      </trkpt>
      <trkpt lat="46.91041" lon="8.56248">
        <ele>793</ele>
        <time>2021-08-10T12:56:46.858Z</time>
      </trkpt>
      <trkpt lat="46.91041" lon="8.56249">
        <ele>793</ele>
        <time>2021-08-10T12:56:47.858Z</time>
      </trkpt>
      <trkpt lat="46.91042" lon="8.56248">
        <ele>793</ele>
        <time>2021-08-10T12:56:48.857Z</time>
      </trkpt>
      <trkpt lat="46.91043" lon="8.56247">
        <ele>794</ele>
        <time>2021-08-10T12:56:49.857Z</time>
      </trkpt>
      <trkpt lat="46.90967" lon="8.56362">
        <ele>794</ele>
        <time>2021-08-10T12:59:44.972Z</time>
      </trkpt>
      <trkpt lat="46.9098" lon="8.5635">
        <ele>794</ele>
        <time>2021-08-10T12:59:45.971Z</time>
      </trkpt>
      <trkpt lat="46.90961" lon="8.56345">
        <ele>795</ele>
        <time>2021-08-10T12:59:46.972Z</time>
      </trkpt>
      <trkpt lat="46.90957" lon="8.56342">
        <ele>795</ele>
        <time>2021-08-10T12:59:47.972Z</time>
      </trkpt>
      <trkpt lat="46.9095" lon="8.5635">
        <ele>795</ele>
        <time>2021-08-10T12:59:48.972Z</time>
      </trkpt>
      <trkpt lat="46.90933" lon="8.56335">
        <ele>796</ele>
        <time>2021-08-10T12:59:49.972Z</time>
      </trkpt>
      <trkpt lat="46.90941" lon="8.56309">
        <ele>796</ele>
        <time>2021-08-10T12:59:51.972Z</time>
      </trkpt>
      <trkpt lat="46.90965" lon="8.56303">
        <ele>796</ele>
        <time>2021-08-10T12:59:52.972Z</time>
      </trkpt>
      <trkpt lat="46.90974" lon="8.56313">
        <ele>797</ele>
        <time>2021-08-10T12:59:53.972Z</time>
      </trkpt>
      <trkpt lat="46.90984" lon="8.56309">
        <ele>797</ele>
        <time>2021-08-10T12:59:54.972Z</time>
      </trkpt>
      <trkpt lat="46.9099" lon="8.56305">
        <ele>798</ele>
        <time>2021-08-10T12:59:55.972Z</time>
      </trkpt>
      <trkpt lat="46.90999" lon="8.56299">
        <ele>798</ele>
        <time>2021-08-10T12:59:56.971Z</time>
      </trkpt>
      <trkpt lat="46.91007" lon="8.56289">
        <ele>798</ele>
        <time>2021-08-10T12:59:57.972Z</time>
      </trkpt>
      <trkpt lat="46.91013" lon="8.56284">
        <ele>799</ele>
        <time>2021-08-10T12:59:58.971Z</time>
      </trkpt>
      <trkpt lat="46.91016" lon="8.56281">
        <ele>799</ele>
        <time>2021-08-10T12:59:59.972Z</time>
      </trkpt>
      <trkpt lat="46.91018" lon="8.56278">
        <ele>799</ele>
        <time>2021-08-10T13:00:00.972Z</time>
      </trkpt>
      <trkpt lat="46.91021" lon="8.56277">
        <ele>800</ele>
        <time>2021-08-10T13:00:01.971Z</time>
      </trkpt>
      <trkpt lat="46.91019" lon="8.56273">
        <ele>800</ele>
        <time>2021-08-10T13:00:02.972Z</time>
      </trkpt>
      <trkpt lat="46.91016" lon="8.56271">
        <ele>800</ele>
        <time>2021-08-10T13:00:03.972Z</time>
      </trkpt>
      <trkpt lat="46.91017" lon="8.56271">
        <ele>800</ele>
        <time>2021-08-10T13:00:04.972Z</time>
      </trkpt>
      <trkpt lat="46.91019" lon="8.56271">
        <ele>801</ele>
        <time>2021-08-10T13:00:05.972Z</time>
      </trkpt>
      <trkpt lat="46.91026" lon="8.56267">
        <ele>801</ele>
        <time>2021-08-10T13:00:07.972Z</time>
      </trkpt>
      <trkpt lat="46.91028" lon="8.56266">
        <ele>800</ele>
        <time>2021-08-10T13:00:08.972Z</time>
      </trkpt>
      <trkpt lat="46.91034" lon="8.56263">
        <ele>799</ele>
        <time>2021-08-10T13:00:09.972Z</time>
      </trkpt>
      <trkpt lat="46.91035" lon="8.56263">
        <ele>798</ele>
        <time>2021-08-10T13:00:10.971Z</time>
      </trkpt>
      <trkpt lat="46.91036" lon="8.56263">
        <ele>796</ele>
        <time>2021-08-10T13:00:11.972Z</time>
      </trkpt>
      <trkpt lat="46.91037" lon="8.56262">
        <ele>792</ele>
        <time>2021-08-10T13:00:12.974Z</time>
      </trkpt>
      <trkpt lat="46.91038" lon="8.56262">
        <ele>792</ele>
        <time>2021-08-10T13:00:13.973Z</time>
      </trkpt>
      <trkpt lat="46.91041" lon="8.56261">
        <ele>789</ele>
        <time>2021-08-10T13:00:14.974Z</time>
      </trkpt>
      <trkpt lat="46.91042" lon="8.5626">
        <ele>788</ele>
        <time>2021-08-10T13:00:15.974Z</time>
      </trkpt>
      <trkpt lat="46.91044" lon="8.56259">
        <ele>788</ele>
        <time>2021-08-10T13:00:16.973Z</time>
      </trkpt>
      <trkpt lat="46.91045" lon="8.5626">
        <ele>788</ele>
        <time>2021-08-10T13:00:17.973Z</time>
      </trkpt>
      <trkpt lat="46.91046" lon="8.56259">
        <ele>788</ele>
        <time>2021-08-10T13:00:18.973Z</time>
      </trkpt>
      <trkpt lat="46.91047" lon="8.5626">
        <ele>787</ele>
        <time>2021-08-10T13:00:19.973Z</time>
      </trkpt>
      <trkpt lat="46.91047" lon="8.5626">
        <ele>787</ele>
        <time>2021-08-10T13:00:20.974Z</time>
      </trkpt>
      <trkpt lat="46.91046" lon="8.56259">
        <ele>787</ele>
        <time>2021-08-10T13:00:21.974Z</time>
      </trkpt>
      <trkpt lat="46.91047" lon="8.56258">
        <ele>787</ele>
        <time>2021-08-10T13:00:22.974Z</time>
      </trkpt>
      <trkpt lat="46.91048" lon="8.56258">
        <ele>786</ele>
        <time>2021-08-10T13:00:23.973Z</time>
      </trkpt>
      <trkpt lat="46.91048" lon="8.56259">
        <ele>786</ele>
        <time>2021-08-10T13:00:24.974Z</time>
      </trkpt>
      <trkpt lat="46.91049" lon="8.56259">
        <ele>786</ele>
        <time>2021-08-10T13:00:25.973Z</time>
      </trkpt>
      <trkpt lat="46.9105" lon="8.56259">
        <ele>786</ele>
        <time>2021-08-10T13:00:26.974Z</time>
      </trkpt>
      <trkpt lat="46.9105" lon="8.56259">
        <ele>786</ele>
        <time>2021-08-10T13:00:27.973Z</time>
      </trkpt>
      <trkpt lat="46.9105" lon="8.56258">
        <ele>785</ele>
        <time>2021-08-10T13:00:28.974Z</time>
      </trkpt>
      <trkpt lat="46.91052" lon="8.56258">
        <ele>785</ele>
        <time>2021-08-10T13:00:29.974Z</time>
      </trkpt>
      <trkpt lat="46.91052" lon="8.56257">
        <ele>785</ele>
        <time>2021-08-10T13:00:30.974Z</time>
      </trkpt>
      <trkpt lat="46.91053" lon="8.56255">
        <ele>785</ele>
        <time>2021-08-10T13:00:32.995Z</time>
      </trkpt>
      <trkpt lat="46.91053" lon="8.56254">
        <ele>785</ele>
        <time>2021-08-10T13:00:33.996Z</time>
      </trkpt>
      <trkpt lat="46.91053" lon="8.56254">
        <ele>785</ele>
        <time>2021-08-10T13:00:36.845Z</time>
      </trkpt>
      <trkpt lat="46.91053" lon="8.56253">
        <ele>785</ele>
        <time>2021-08-10T13:00:37.845Z</time>
      </trkpt>
      <trkpt lat="46.91053" lon="8.56253">
        <ele>784</ele>
        <time>2021-08-10T13:00:38.845Z</time>
      </trkpt>
      <trkpt lat="46.91053" lon="8.56253">
        <ele>784</ele>
        <time>2021-08-10T13:00:53.605Z</time>
      </trkpt>
      <trkpt lat="46.91054" lon="8.56253">
        <ele>784</ele>
        <time>2021-08-10T13:00:54.606Z</time>
      </trkpt>
      <trkpt lat="46.91054" lon="8.56253">
        <ele>784</ele>
        <time>2021-08-10T13:00:55.605Z</time>
      </trkpt>
      <trkpt lat="46.91054" lon="8.56253">
        <ele>783</ele>
        <time>2021-08-10T13:00:56.605Z</time>
      </trkpt>
      <trkpt lat="46.91054" lon="8.56254">
        <ele>783</ele>
        <time>2021-08-10T13:00:57.605Z</time>
      </trkpt>
      <trkpt lat="46.91055" lon="8.56253">
        <ele>783</ele>
        <time>2021-08-10T13:00:58.606Z</time>
      </trkpt>
      <trkpt lat="46.91055" lon="8.56253">
        <ele>783</ele>
        <time>2021-08-10T13:00:59.605Z</time>
      </trkpt>
      <trkpt lat="46.91054" lon="8.56252">
        <ele>783</ele>
        <time>2021-08-10T13:01:00.606Z</time>
      </trkpt>
      <trkpt lat="46.91054" lon="8.56252">
        <ele>783</ele>
        <time>2021-08-10T13:01:01.605Z</time>
      </trkpt>
      <trkpt lat="46.91055" lon="8.56251">
        <ele>783</ele>
        <time>2021-08-10T13:01:05.627Z</time>
      </trkpt>
      <trkpt lat="46.91055" lon="8.56251">
        <ele>783</ele>
        <time>2021-08-10T13:01:06.627Z</time>
      </trkpt>
      <trkpt lat="46.91056" lon="8.5625">
        <ele>783</ele>
        <time>2021-08-10T13:01:07.627Z</time>
      </trkpt>
      <trkpt lat="46.91057" lon="8.5625">
        <ele>783</ele>
        <time>2021-08-10T13:01:08.627Z</time>
      </trkpt>
      <trkpt lat="46.91056" lon="8.5625">
        <ele>783</ele>
        <time>2021-08-10T13:01:09.627Z</time>
      </trkpt>
      <trkpt lat="46.91056" lon="8.56249">
        <ele>783</ele>
        <time>2021-08-10T13:01:10.628Z</time>
      </trkpt>
      <trkpt lat="46.91053" lon="8.56247">
        <ele>784</ele>
        <time>2021-08-10T13:01:11.628Z</time>
      </trkpt>
      <trkpt lat="46.91051" lon="8.56247">
        <ele>784</ele>
        <time>2021-08-10T13:01:12.628Z</time>
      </trkpt>
      <trkpt lat="46.91051" lon="8.56247">
        <ele>784</ele>
        <time>2021-08-10T13:01:13.628Z</time>
      </trkpt>
      <trkpt lat="46.91051" lon="8.56246">
        <ele>784</ele>
        <time>2021-08-10T13:01:14.627Z</time>
      </trkpt>
      <trkpt lat="46.9105" lon="8.56246">
        <ele>784</ele>
        <time>2021-08-10T13:01:15.628Z</time>
      </trkpt>
      <trkpt lat="46.91049" lon="8.56248">
        <ele>785</ele>
        <time>2021-08-10T13:01:16.628Z</time>
      </trkpt>
      <trkpt lat="46.91049" lon="8.56248">
        <ele>786</ele>
        <time>2021-08-10T13:01:17.628Z</time>
      </trkpt>
      <trkpt lat="46.91049" lon="8.56248">
        <ele>786</ele>
        <time>2021-08-10T13:01:18.627Z</time>
      </trkpt>
      <trkpt lat="46.9105" lon="8.56247">
        <ele>786</ele>
        <time>2021-08-10T13:01:19.628Z</time>
      </trkpt>
      <trkpt lat="46.9105" lon="8.56247">
        <ele>786</ele>
        <time>2021-08-10T13:01:20.627Z</time>
      </trkpt>
      <trkpt lat="46.91049" lon="8.56248">
        <ele>784</ele>
        <time>2021-08-10T13:01:21.629Z</time>
      </trkpt>
      <trkpt lat="46.91046" lon="8.56249">
        <ele>781</ele>
        <time>2021-08-10T13:01:22.629Z</time>
      </trkpt>
      <trkpt lat="46.91045" lon="8.56248">
        <ele>780</ele>
        <time>2021-08-10T13:01:23.629Z</time>
      </trkpt>
      <trkpt lat="46.91045" lon="8.56247">
        <ele>779</ele>
        <time>2021-08-10T13:01:24.628Z</time>
      </trkpt>
      <trkpt lat="46.91045" lon="8.56246">
        <ele>779</ele>
        <time>2021-08-10T13:01:25.629Z</time>
      </trkpt>
      <trkpt lat="46.91044" lon="8.56246">
        <ele>778</ele>
        <time>2021-08-10T13:01:26.628Z</time>
      </trkpt>
      <trkpt lat="46.91043" lon="8.56245">
        <ele>777</ele>
        <time>2021-08-10T13:01:27.628Z</time>
      </trkpt>
      <trkpt lat="46.91042" lon="8.56245">
        <ele>776</ele>
        <time>2021-08-10T13:01:28.628Z</time>
      </trkpt>
      <trkpt lat="46.91041" lon="8.56246">
        <ele>775</ele>
        <time>2021-08-10T13:01:29.628Z</time>
      </trkpt>
      <trkpt lat="46.9104" lon="8.56246">
        <ele>774</ele>
        <time>2021-08-10T13:01:30.628Z</time>
      </trkpt>
      <trkpt lat="46.91039" lon="8.56246">
        <ele>773</ele>
        <time>2021-08-10T13:01:31.628Z</time>
      </trkpt>
      <trkpt lat="46.91038" lon="8.56246">
        <ele>772</ele>
        <time>2021-08-10T13:01:36.727Z</time>
      </trkpt>
      <trkpt lat="46.91037" lon="8.56247">
        <ele>772</ele>
        <time>2021-08-10T13:01:37.727Z</time>
      </trkpt>
      <trkpt lat="46.91036" lon="8.56247">
        <ele>771</ele>
        <time>2021-08-10T13:01:38.728Z</time>
      </trkpt>
      <trkpt lat="46.91035" lon="8.56248">
        <ele>770</ele>
        <time>2021-08-10T13:01:39.727Z</time>
      </trkpt>
      <trkpt lat="46.91035" lon="8.56248">
        <ele>769</ele>
        <time>2021-08-10T13:01:40.728Z</time>
      </trkpt>
      <trkpt lat="46.91034" lon="8.56249">
        <ele>768</ele>
        <time>2021-08-10T13:01:41.727Z</time>
      </trkpt>
      <trkpt lat="46.91034" lon="8.5625">
        <ele>767</ele>
        <time>2021-08-10T13:01:42.727Z</time>
      </trkpt>
      <trkpt lat="46.91033" lon="8.56251">
        <ele>766</ele>
        <time>2021-08-10T13:01:44.830Z</time>
      </trkpt>
      <trkpt lat="46.91032" lon="8.56252">
        <ele>766</ele>
        <time>2021-08-10T13:01:45.830Z</time>
      </trkpt>
      <trkpt lat="46.91031" lon="8.56253">
        <ele>766</ele>
        <time>2021-08-10T13:01:49.685Z</time>
      </trkpt>
      <trkpt lat="46.91029" lon="8.56254">
        <ele>766</ele>
        <time>2021-08-10T13:01:50.685Z</time>
      </trkpt>
      <trkpt lat="46.91028" lon="8.56255">
        <ele>766</ele>
        <time>2021-08-10T13:01:51.685Z</time>
      </trkpt>
      <trkpt lat="46.91027" lon="8.56257">
        <ele>766</ele>
        <time>2021-08-10T13:01:52.685Z</time>
      </trkpt>
      <trkpt lat="46.91026" lon="8.56258">
        <ele>766</ele>
        <time>2021-08-10T13:01:53.684Z</time>
      </trkpt>
      <trkpt lat="46.91025" lon="8.56258">
        <ele>766</ele>
        <time>2021-08-10T13:01:54.684Z</time>
      </trkpt>
      <trkpt lat="46.91024" lon="8.56259">
        <ele>766</ele>
        <time>2021-08-10T13:01:55.685Z</time>
      </trkpt>
      <trkpt lat="46.91023" lon="8.56259">
        <ele>765</ele>
        <time>2021-08-10T13:01:56.684Z</time>
      </trkpt>
      <trkpt lat="46.91022" lon="8.56259">
        <ele>764</ele>
        <time>2021-08-10T13:01:57.685Z</time>
      </trkpt>
      <trkpt lat="46.9102" lon="8.5626">
        <ele>764</ele>
        <time>2021-08-10T13:01:58.685Z</time>
      </trkpt>
      <trkpt lat="46.91019" lon="8.56261">
        <ele>763</ele>
        <time>2021-08-10T13:01:59.685Z</time>
      </trkpt>
      <trkpt lat="46.91018" lon="8.56261">
        <ele>762</ele>
        <time>2021-08-10T13:02:00.685Z</time>
      </trkpt>
      <trkpt lat="46.91017" lon="8.56262">
        <ele>762</ele>
        <time>2021-08-10T13:02:01.685Z</time>
      </trkpt>
      <trkpt lat="46.91015" lon="8.56262">
        <ele>761</ele>
        <time>2021-08-10T13:02:02.685Z</time>
      </trkpt>
      <trkpt lat="46.91015" lon="8.56263">
        <ele>760</ele>
        <time>2021-08-10T13:02:03.685Z</time>
      </trkpt>
      <trkpt lat="46.91014" lon="8.56263">
        <ele>759</ele>
        <time>2021-08-10T13:02:04.685Z</time>
      </trkpt>
      <trkpt lat="46.91013" lon="8.56264">
        <ele>758</ele>
        <time>2021-08-10T13:02:05.684Z</time>
      </trkpt>
      <trkpt lat="46.91012" lon="8.56264">
        <ele>758</ele>
        <time>2021-08-10T13:02:06.684Z</time>
      </trkpt>
      <trkpt lat="46.9101" lon="8.56265">
        <ele>758</ele>
        <time>2021-08-10T13:02:07.685Z</time>
      </trkpt>
      <trkpt lat="46.91008" lon="8.56266">
        <ele>758</ele>
        <time>2021-08-10T13:02:08.685Z</time>
      </trkpt>
      <trkpt lat="46.91007" lon="8.56265">
        <ele>759</ele>
        <time>2021-08-10T13:02:09.685Z</time>
      </trkpt>
      <trkpt lat="46.91006" lon="8.56266">
        <ele>759</ele>
        <time>2021-08-10T13:02:10.685Z</time>
      </trkpt>
      <trkpt lat="46.91005" lon="8.56266">
        <ele>760</ele>
        <time>2021-08-10T13:02:11.685Z</time>
      </trkpt>
      <trkpt lat="46.91004" lon="8.56267">
        <ele>760</ele>
        <time>2021-08-10T13:02:12.684Z</time>
      </trkpt>
      <trkpt lat="46.91003" lon="8.56268">
        <ele>761</ele>
        <time>2021-08-10T13:02:13.685Z</time>
      </trkpt>
      <trkpt lat="46.91001" lon="8.56268">
        <ele>762</ele>
        <time>2021-08-10T13:02:14.685Z</time>
      </trkpt>
      <trkpt lat="46.91" lon="8.56269">
        <ele>762</ele>
        <time>2021-08-10T13:02:15.685Z</time>
      </trkpt>
      <trkpt lat="46.90999" lon="8.56269">
        <ele>763</ele>
        <time>2021-08-10T13:02:16.685Z</time>
      </trkpt>
      <trkpt lat="46.90998" lon="8.56269">
        <ele>763</ele>
        <time>2021-08-10T13:02:17.685Z</time>
      </trkpt>
      <trkpt lat="46.90997" lon="8.5627">
        <ele>764</ele>
        <time>2021-08-10T13:02:18.685Z</time>
      </trkpt>
      <trkpt lat="46.90996" lon="8.5627">
        <ele>764</ele>
        <time>2021-08-10T13:02:19.685Z</time>
      </trkpt>
      <trkpt lat="46.90996" lon="8.5627">
        <ele>765</ele>
        <time>2021-08-10T13:02:20.684Z</time>
      </trkpt>
      <trkpt lat="46.90995" lon="8.5627">
        <ele>765</ele>
        <time>2021-08-10T13:02:21.685Z</time>
      </trkpt>
      <trkpt lat="46.90995" lon="8.56269">
        <ele>766</ele>
        <time>2021-08-10T13:02:22.685Z</time>
      </trkpt>
      <trkpt lat="46.90994" lon="8.56269">
        <ele>766</ele>
        <time>2021-08-10T13:02:23.685Z</time>
      </trkpt>
      <trkpt lat="46.90994" lon="8.56268">
        <ele>767</ele>
        <time>2021-08-10T13:02:24.685Z</time>
      </trkpt>
      <trkpt lat="46.90993" lon="8.56266">
        <ele>767</ele>
        <time>2021-08-10T13:02:25.685Z</time>
      </trkpt>
      <trkpt lat="46.90992" lon="8.56264">
        <ele>768</ele>
        <time>2021-08-10T13:02:26.685Z</time>
      </trkpt>
      <trkpt lat="46.90992" lon="8.56262">
        <ele>769</ele>
        <time>2021-08-10T13:02:27.684Z</time>
      </trkpt>
      <trkpt lat="46.90991" lon="8.56261">
        <ele>769</ele>
        <time>2021-08-10T13:02:28.685Z</time>
      </trkpt>
      <trkpt lat="46.9099" lon="8.56261">
        <ele>770</ele>
        <time>2021-08-10T13:02:29.685Z</time>
      </trkpt>
      <trkpt lat="46.90989" lon="8.56262">
        <ele>770</ele>
        <time>2021-08-10T13:02:30.685Z</time>
      </trkpt>
      <trkpt lat="46.90989" lon="8.56262">
        <ele>769</ele>
        <time>2021-08-10T13:02:31.684Z</time>
      </trkpt>
      <trkpt lat="46.90989" lon="8.56261">
        <ele>769</ele>
        <time>2021-08-10T13:02:32.685Z</time>
      </trkpt>
      <trkpt lat="46.90988" lon="8.5626">
        <ele>769</ele>
        <time>2021-08-10T13:02:33.685Z</time>
      </trkpt>
      <trkpt lat="46.90987" lon="8.56257">
        <ele>768</ele>
        <time>2021-08-10T13:02:34.684Z</time>
      </trkpt>
      <trkpt lat="46.90986" lon="8.56255">
        <ele>768</ele>
        <time>2021-08-10T13:02:35.685Z</time>
      </trkpt>
      <trkpt lat="46.90986" lon="8.56253">
        <ele>767</ele>
        <time>2021-08-10T13:02:36.685Z</time>
      </trkpt>
      <trkpt lat="46.90985" lon="8.56252">
        <ele>767</ele>
        <time>2021-08-10T13:02:37.685Z</time>
      </trkpt>
      <trkpt lat="46.90985" lon="8.56251">
        <ele>767</ele>
        <time>2021-08-10T13:02:38.684Z</time>
      </trkpt>
      <trkpt lat="46.90984" lon="8.5625">
        <ele>767</ele>
        <time>2021-08-10T13:02:39.684Z</time>
      </trkpt>
      <trkpt lat="46.90983" lon="8.56249">
        <ele>767</ele>
        <time>2021-08-10T13:02:40.685Z</time>
      </trkpt>
      <trkpt lat="46.90982" lon="8.56248">
        <ele>767</ele>
        <time>2021-08-10T13:02:41.685Z</time>
      </trkpt>
      <trkpt lat="46.90981" lon="8.56247">
        <ele>768</ele>
        <time>2021-08-10T13:02:42.684Z</time>
      </trkpt>
      <trkpt lat="46.90981" lon="8.56246">
        <ele>768</ele>
        <time>2021-08-10T13:02:43.685Z</time>
      </trkpt>
      <trkpt lat="46.90981" lon="8.56247">
        <ele>769</ele>
        <time>2021-08-10T13:02:44.685Z</time>
      </trkpt>
      <trkpt lat="46.90981" lon="8.56248">
        <ele>769</ele>
        <time>2021-08-10T13:02:45.684Z</time>
      </trkpt>
      <trkpt lat="46.9098" lon="8.56249">
        <ele>768</ele>
        <time>2021-08-10T13:02:46.684Z</time>
      </trkpt>
      <trkpt lat="46.90979" lon="8.56249">
        <ele>768</ele>
        <time>2021-08-10T13:02:47.685Z</time>
      </trkpt>
      <trkpt lat="46.90978" lon="8.56247">
        <ele>769</ele>
        <time>2021-08-10T13:02:48.684Z</time>
      </trkpt>
      <trkpt lat="46.90977" lon="8.56247">
        <ele>770</ele>
        <time>2021-08-10T13:02:49.684Z</time>
      </trkpt>
      <trkpt lat="46.90977" lon="8.56247">
        <ele>771</ele>
        <time>2021-08-10T13:02:50.684Z</time>
      </trkpt>
      <trkpt lat="46.90977" lon="8.56247">
        <ele>772</ele>
        <time>2021-08-10T13:02:51.684Z</time>
      </trkpt>
      <trkpt lat="46.90976" lon="8.56247">
        <ele>772</ele>
        <time>2021-08-10T13:02:52.685Z</time>
      </trkpt>
      <trkpt lat="46.90976" lon="8.56247">
        <ele>773</ele>
        <time>2021-08-10T13:02:53.684Z</time>
      </trkpt>
      <trkpt lat="46.90975" lon="8.56248">
        <ele>774</ele>
        <time>2021-08-10T13:02:54.685Z</time>
      </trkpt>
      <trkpt lat="46.90974" lon="8.56248">
        <ele>774</ele>
        <time>2021-08-10T13:02:55.685Z</time>
      </trkpt>
      <trkpt lat="46.90974" lon="8.56248">
        <ele>774</ele>
        <time>2021-08-10T13:02:56.684Z</time>
      </trkpt>
      <trkpt lat="46.90973" lon="8.56247">
        <ele>774</ele>
        <time>2021-08-10T13:02:57.685Z</time>
      </trkpt>
      <trkpt lat="46.90972" lon="8.56247">
        <ele>774</ele>
        <time>2021-08-10T13:02:58.684Z</time>
      </trkpt>
      <trkpt lat="46.90971" lon="8.56246">
        <ele>775</ele>
        <time>2021-08-10T13:02:59.685Z</time>
      </trkpt>
      <trkpt lat="46.9097" lon="8.56245">
        <ele>775</ele>
        <time>2021-08-10T13:03:00.684Z</time>
      </trkpt>
      <trkpt lat="46.90969" lon="8.56245">
        <ele>775</ele>
        <time>2021-08-10T13:03:01.685Z</time>
      </trkpt>
      <trkpt lat="46.90968" lon="8.56244">
        <ele>775</ele>
        <time>2021-08-10T13:03:02.685Z</time>
      </trkpt>
      <trkpt lat="46.90967" lon="8.56245">
        <ele>775</ele>
        <time>2021-08-10T13:03:03.685Z</time>
      </trkpt>
      <trkpt lat="46.90967" lon="8.56245">
        <ele>776</ele>
        <time>2021-08-10T13:03:04.684Z</time>
      </trkpt>
      <trkpt lat="46.90966" lon="8.56245">
        <ele>776</ele>
        <time>2021-08-10T13:03:05.684Z</time>
      </trkpt>
      <trkpt lat="46.90965" lon="8.56244">
        <ele>776</ele>
        <time>2021-08-10T13:03:12.745Z</time>
      </trkpt>
      <trkpt lat="46.90965" lon="8.56244">
        <ele>776</ele>
        <time>2021-08-10T13:03:13.745Z</time>
      </trkpt>
      <trkpt lat="46.90964" lon="8.56243">
        <ele>776</ele>
        <time>2021-08-10T13:03:14.745Z</time>
      </trkpt>
      <trkpt lat="46.90963" lon="8.56242">
        <ele>776</ele>
        <time>2021-08-10T13:03:15.744Z</time>
      </trkpt>
      <trkpt lat="46.90962" lon="8.56242">
        <ele>776</ele>
        <time>2021-08-10T13:03:16.745Z</time>
      </trkpt>
      <trkpt lat="46.90961" lon="8.56242">
        <ele>776</ele>
        <time>2021-08-10T13:03:17.745Z</time>
      </trkpt>
      <trkpt lat="46.90961" lon="8.56243">
        <ele>775</ele>
        <time>2021-08-10T13:03:18.745Z</time>
      </trkpt>
      <trkpt lat="46.9096" lon="8.56243">
        <ele>775</ele>
        <time>2021-08-10T13:03:19.744Z</time>
      </trkpt>
      <trkpt lat="46.90959" lon="8.56244">
        <ele>775</ele>
        <time>2021-08-10T13:03:20.745Z</time>
      </trkpt>
      <trkpt lat="46.90959" lon="8.56244">
        <ele>775</ele>
        <time>2021-08-10T13:03:21.745Z</time>
      </trkpt>
      <trkpt lat="46.90958" lon="8.56243">
        <ele>775</ele>
        <time>2021-08-10T13:03:22.745Z</time>
      </trkpt>
      <trkpt lat="46.90957" lon="8.56243">
        <ele>775</ele>
        <time>2021-08-10T13:03:23.745Z</time>
      </trkpt>
      <trkpt lat="46.90956" lon="8.56242">
        <ele>775</ele>
        <time>2021-08-10T13:03:24.745Z</time>
      </trkpt>
      <trkpt lat="46.90955" lon="8.56243">
        <ele>775</ele>
        <time>2021-08-10T13:03:25.745Z</time>
      </trkpt>
      <trkpt lat="46.90954" lon="8.56243">
        <ele>775</ele>
        <time>2021-08-10T13:03:26.744Z</time>
      </trkpt>
      <trkpt lat="46.90953" lon="8.56244">
        <ele>776</ele>
        <time>2021-08-10T13:03:27.745Z</time>
      </trkpt>
      <trkpt lat="46.90952" lon="8.56245">
        <ele>776</ele>
        <time>2021-08-10T13:03:28.745Z</time>
      </trkpt>
      <trkpt lat="46.90952" lon="8.56245">
        <ele>777</ele>
        <time>2021-08-10T13:03:29.745Z</time>
      </trkpt>
      <trkpt lat="46.90951" lon="8.56245">
        <ele>777</ele>
        <time>2021-08-10T13:03:30.745Z</time>
      </trkpt>
      <trkpt lat="46.90951" lon="8.56244">
        <ele>777</ele>
        <time>2021-08-10T13:03:31.745Z</time>
      </trkpt>
      <trkpt lat="46.9095" lon="8.56243">
        <ele>777</ele>
        <time>2021-08-10T13:03:32.745Z</time>
      </trkpt>
      <trkpt lat="46.9095" lon="8.56243">
        <ele>778</ele>
        <time>2021-08-10T13:03:33.744Z</time>
      </trkpt>
      <trkpt lat="46.90949" lon="8.56243">
        <ele>778</ele>
        <time>2021-08-10T13:03:34.745Z</time>
      </trkpt>
      <trkpt lat="46.90949" lon="8.56243">
        <ele>778</ele>
        <time>2021-08-10T13:03:35.744Z</time>
      </trkpt>
      <trkpt lat="46.90949" lon="8.56242">
        <ele>778</ele>
        <time>2021-08-10T13:03:36.745Z</time>
      </trkpt>
      <trkpt lat="46.90948" lon="8.56242">
        <ele>778</ele>
        <time>2021-08-10T13:03:37.745Z</time>
      </trkpt>
      <trkpt lat="46.90947" lon="8.56242">
        <ele>778</ele>
        <time>2021-08-10T13:03:38.744Z</time>
      </trkpt>
      <trkpt lat="46.90947" lon="8.56242">
        <ele>777</ele>
        <time>2021-08-10T13:03:39.744Z</time>
      </trkpt>
      <trkpt lat="46.90947" lon="8.56242">
        <ele>777</ele>
        <time>2021-08-10T13:03:40.745Z</time>
      </trkpt>
      <trkpt lat="46.90947" lon="8.56241">
        <ele>776</ele>
        <time>2021-08-10T13:03:41.745Z</time>
      </trkpt>
      <trkpt lat="46.90946" lon="8.5624">
        <ele>776</ele>
        <time>2021-08-10T13:03:42.744Z</time>
      </trkpt>
      <trkpt lat="46.90946" lon="8.5624">
        <ele>776</ele>
        <time>2021-08-10T13:03:43.744Z</time>
      </trkpt>
      <trkpt lat="46.90945" lon="8.56239">
        <ele>775</ele>
        <time>2021-08-10T13:03:44.745Z</time>
      </trkpt>
      <trkpt lat="46.90944" lon="8.56239">
        <ele>775</ele>
        <time>2021-08-10T13:03:45.744Z</time>
      </trkpt>
      <trkpt lat="46.90944" lon="8.56238">
        <ele>775</ele>
        <time>2021-08-10T13:03:46.744Z</time>
      </trkpt>
      <trkpt lat="46.90943" lon="8.56238">
        <ele>775</ele>
        <time>2021-08-10T13:03:47.745Z</time>
      </trkpt>
      <trkpt lat="46.90944" lon="8.56239">
        <ele>775</ele>
        <time>2021-08-10T13:03:48.745Z</time>
      </trkpt>
      <trkpt lat="46.90944" lon="8.5624">
        <ele>774</ele>
        <time>2021-08-10T13:03:49.745Z</time>
      </trkpt>
      <trkpt lat="46.90944" lon="8.5624">
        <ele>774</ele>
        <time>2021-08-10T13:03:50.745Z</time>
      </trkpt>
      <trkpt lat="46.90944" lon="8.56239">
        <ele>774</ele>
        <time>2021-08-10T13:03:51.745Z</time>
      </trkpt>
      <trkpt lat="46.90943" lon="8.56239">
        <ele>774</ele>
        <time>2021-08-10T13:03:52.745Z</time>
      </trkpt>
      <trkpt lat="46.90942" lon="8.56237">
        <ele>774</ele>
        <time>2021-08-10T13:03:53.745Z</time>
      </trkpt>
      <trkpt lat="46.90942" lon="8.56235">
        <ele>774</ele>
        <time>2021-08-10T13:03:55.814Z</time>
      </trkpt>
      <trkpt lat="46.9094" lon="8.56234">
        <ele>774</ele>
        <time>2021-08-10T13:03:56.814Z</time>
      </trkpt>
      <trkpt lat="46.90939" lon="8.56234">
        <ele>774</ele>
        <time>2021-08-10T13:03:57.813Z</time>
      </trkpt>
      <trkpt lat="46.90938" lon="8.56235">
        <ele>773</ele>
        <time>2021-08-10T13:03:58.814Z</time>
      </trkpt>
      <trkpt lat="46.90937" lon="8.56235">
        <ele>774</ele>
        <time>2021-08-10T13:03:59.813Z</time>
      </trkpt>
      <trkpt lat="46.90936" lon="8.56234">
        <ele>774</ele>
        <time>2021-08-10T13:04:00.814Z</time>
      </trkpt>
      <trkpt lat="46.90936" lon="8.56233">
        <ele>774</ele>
        <time>2021-08-10T13:04:01.814Z</time>
      </trkpt>
      <trkpt lat="46.90936" lon="8.56232">
        <ele>774</ele>
        <time>2021-08-10T13:04:02.814Z</time>
      </trkpt>
      <trkpt lat="46.90936" lon="8.5623">
        <ele>773</ele>
        <time>2021-08-10T13:04:03.814Z</time>
      </trkpt>
      <trkpt lat="46.90936" lon="8.56229">
        <ele>773</ele>
        <time>2021-08-10T13:04:04.814Z</time>
      </trkpt>
      <trkpt lat="46.90936" lon="8.56228">
        <ele>773</ele>
        <time>2021-08-10T13:04:05.814Z</time>
      </trkpt>
      <trkpt lat="46.90935" lon="8.56225">
        <ele>773</ele>
        <time>2021-08-10T13:04:06.814Z</time>
      </trkpt>
      <trkpt lat="46.90934" lon="8.56223">
        <ele>773</ele>
        <time>2021-08-10T13:04:07.813Z</time>
      </trkpt>
      <trkpt lat="46.90934" lon="8.56222">
        <ele>773</ele>
        <time>2021-08-10T13:04:08.814Z</time>
      </trkpt>
      <trkpt lat="46.90933" lon="8.5622">
        <ele>773</ele>
        <time>2021-08-10T13:04:09.814Z</time>
      </trkpt>
      <trkpt lat="46.90932" lon="8.56219">
        <ele>773</ele>
        <time>2021-08-10T13:04:10.813Z</time>
      </trkpt>
      <trkpt lat="46.90931" lon="8.56218">
        <ele>774</ele>
        <time>2021-08-10T13:04:11.814Z</time>
      </trkpt>
      <trkpt lat="46.9093" lon="8.56218">
        <ele>775</ele>
        <time>2021-08-10T13:04:12.814Z</time>
      </trkpt>
      <trkpt lat="46.9093" lon="8.56218">
        <ele>776</ele>
        <time>2021-08-10T13:04:13.814Z</time>
      </trkpt>
      <trkpt lat="46.90929" lon="8.56219">
        <ele>777</ele>
        <time>2021-08-10T13:04:14.814Z</time>
      </trkpt>
      <trkpt lat="46.90929" lon="8.56218">
        <ele>777</ele>
        <time>2021-08-10T13:04:15.814Z</time>
      </trkpt>
      <trkpt lat="46.90928" lon="8.56218">
        <ele>777</ele>
        <time>2021-08-10T13:04:16.814Z</time>
      </trkpt>
      <trkpt lat="46.90929" lon="8.56218">
        <ele>777</ele>
        <time>2021-08-10T13:04:17.814Z</time>
      </trkpt>
      <trkpt lat="46.90929" lon="8.56218">
        <ele>777</ele>
        <time>2021-08-10T13:04:18.814Z</time>
      </trkpt>
      <trkpt lat="46.90928" lon="8.56218">
        <ele>777</ele>
        <time>2021-08-10T13:04:19.814Z</time>
      </trkpt>
      <trkpt lat="46.90928" lon="8.56217">
        <ele>778</ele>
        <time>2021-08-10T13:04:20.815Z</time>
      </trkpt>
      <trkpt lat="46.90927" lon="8.56217">
        <ele>779</ele>
        <time>2021-08-10T13:04:21.814Z</time>
      </trkpt>
      <trkpt lat="46.90927" lon="8.56216">
        <ele>779</ele>
        <time>2021-08-10T13:04:22.815Z</time>
      </trkpt>
      <trkpt lat="46.90926" lon="8.56215">
        <ele>779</ele>
        <time>2021-08-10T13:04:23.815Z</time>
      </trkpt>
      <trkpt lat="46.90926" lon="8.56213">
        <ele>780</ele>
        <time>2021-08-10T13:04:24.815Z</time>
      </trkpt>
      <trkpt lat="46.90925" lon="8.56212">
        <ele>780</ele>
        <time>2021-08-10T13:04:25.815Z</time>
      </trkpt>
      <trkpt lat="46.90925" lon="8.56211">
        <ele>781</ele>
        <time>2021-08-10T13:04:26.815Z</time>
      </trkpt>
      <trkpt lat="46.90925" lon="8.5621">
        <ele>782</ele>
        <time>2021-08-10T13:04:27.815Z</time>
      </trkpt>
      <trkpt lat="46.90925" lon="8.5621">
        <ele>782</ele>
        <time>2021-08-10T13:04:31.998Z</time>
      </trkpt>
      <trkpt lat="46.90925" lon="8.5621">
        <ele>782</ele>
        <time>2021-08-10T13:04:32.998Z</time>
      </trkpt>
      <trkpt lat="46.90925" lon="8.56209">
        <ele>783</ele>
        <time>2021-08-10T13:04:33.998Z</time>
      </trkpt>
      <trkpt lat="46.90925" lon="8.56208">
        <ele>783</ele>
        <time>2021-08-10T13:04:34.998Z</time>
      </trkpt>
      <trkpt lat="46.90925" lon="8.56208">
        <ele>783</ele>
        <time>2021-08-10T13:04:35.998Z</time>
      </trkpt>
      <trkpt lat="46.90924" lon="8.56207">
        <ele>783</ele>
        <time>2021-08-10T13:04:36.998Z</time>
      </trkpt>
      <trkpt lat="46.90924" lon="8.56207">
        <ele>783</ele>
        <time>2021-08-10T13:04:37.998Z</time>
      </trkpt>
      <trkpt lat="46.90923" lon="8.56206">
        <ele>784</ele>
        <time>2021-08-10T13:04:38.998Z</time>
      </trkpt>
      <trkpt lat="46.90923" lon="8.56205">
        <ele>785</ele>
        <time>2021-08-10T13:04:39.997Z</time>
      </trkpt>
      <trkpt lat="46.90922" lon="8.56205">
        <ele>785</ele>
        <time>2021-08-10T13:04:40.998Z</time>
      </trkpt>
      <trkpt lat="46.90922" lon="8.56205">
        <ele>786</ele>
        <time>2021-08-10T13:04:41.997Z</time>
      </trkpt>
      <trkpt lat="46.90922" lon="8.56204">
        <ele>786</ele>
        <time>2021-08-10T13:04:42.998Z</time>
      </trkpt>
      <trkpt lat="46.90921" lon="8.56204">
        <ele>786</ele>
        <time>2021-08-10T13:04:43.997Z</time>
      </trkpt>
      <trkpt lat="46.9092" lon="8.56204">
        <ele>786</ele>
        <time>2021-08-10T13:04:44.997Z</time>
      </trkpt>
      <trkpt lat="46.9092" lon="8.56204">
        <ele>786</ele>
        <time>2021-08-10T13:04:45.998Z</time>
      </trkpt>
      <trkpt lat="46.9092" lon="8.56204">
        <ele>785</ele>
        <time>2021-08-10T13:04:46.998Z</time>
      </trkpt>
      <trkpt lat="46.90919" lon="8.56204">
        <ele>785</ele>
        <time>2021-08-10T13:04:47.998Z</time>
      </trkpt>
      <trkpt lat="46.90919" lon="8.56203">
        <ele>786</ele>
        <time>2021-08-10T13:04:48.998Z</time>
      </trkpt>
      <trkpt lat="46.90919" lon="8.56202">
        <ele>786</ele>
        <time>2021-08-10T13:04:49.997Z</time>
      </trkpt>
      <trkpt lat="46.90919" lon="8.56201">
        <ele>787</ele>
        <time>2021-08-10T13:04:50.997Z</time>
      </trkpt>
      <trkpt lat="46.90919" lon="8.562">
        <ele>788</ele>
        <time>2021-08-10T13:04:51.997Z</time>
      </trkpt>
      <trkpt lat="46.90918" lon="8.56199">
        <ele>788</ele>
        <time>2021-08-10T13:04:52.997Z</time>
      </trkpt>
      <trkpt lat="46.90918" lon="8.56198">
        <ele>789</ele>
        <time>2021-08-10T13:04:53.997Z</time>
      </trkpt>
      <trkpt lat="46.90918" lon="8.56197">
        <ele>789</ele>
        <time>2021-08-10T13:04:54.998Z</time>
      </trkpt>
      <trkpt lat="46.90917" lon="8.56197">
        <ele>789</ele>
        <time>2021-08-10T13:04:55.998Z</time>
      </trkpt>
      <trkpt lat="46.90917" lon="8.56196">
        <ele>790</ele>
        <time>2021-08-10T13:04:56.998Z</time>
      </trkpt>
      <trkpt lat="46.90916" lon="8.56195">
        <ele>790</ele>
        <time>2021-08-10T13:04:57.998Z</time>
      </trkpt>
      <trkpt lat="46.90915" lon="8.56194">
        <ele>791</ele>
        <time>2021-08-10T13:04:58.998Z</time>
      </trkpt>
      <trkpt lat="46.90915" lon="8.56194">
        <ele>791</ele>
        <time>2021-08-10T13:04:59.998Z</time>
      </trkpt>
      <trkpt lat="46.90914" lon="8.56193">
        <ele>791</ele>
        <time>2021-08-10T13:05:00.998Z</time>
      </trkpt>
      <trkpt lat="46.90914" lon="8.56193">
        <ele>791</ele>
        <time>2021-08-10T13:05:01.997Z</time>
      </trkpt>
      <trkpt lat="46.90914" lon="8.56193">
        <ele>792</ele>
        <time>2021-08-10T13:05:02.998Z</time>
      </trkpt>
      <trkpt lat="46.90913" lon="8.56192">
        <ele>792</ele>
        <time>2021-08-10T13:05:10.120Z</time>
      </trkpt>
      <trkpt lat="46.90913" lon="8.56192">
        <ele>794</ele>
        <time>2021-08-10T13:05:11.120Z</time>
      </trkpt>
      <trkpt lat="46.90912" lon="8.56191">
        <ele>795</ele>
        <time>2021-08-10T13:05:12.120Z</time>
      </trkpt>
      <trkpt lat="46.90912" lon="8.5619">
        <ele>795</ele>
        <time>2021-08-10T13:05:13.120Z</time>
      </trkpt>
      <trkpt lat="46.90911" lon="8.56189">
        <ele>796</ele>
        <time>2021-08-10T13:05:14.120Z</time>
      </trkpt>
      <trkpt lat="46.9091" lon="8.56188">
        <ele>797</ele>
        <time>2021-08-10T13:05:15.119Z</time>
      </trkpt>
      <trkpt lat="46.9091" lon="8.56187">
        <ele>797</ele>
        <time>2021-08-10T13:05:16.120Z</time>
      </trkpt>
      <trkpt lat="46.90909" lon="8.56187">
        <ele>798</ele>
        <time>2021-08-10T13:05:17.120Z</time>
      </trkpt>
      <trkpt lat="46.90909" lon="8.56188">
        <ele>798</ele>
        <time>2021-08-10T13:05:18.119Z</time>
      </trkpt>
      <trkpt lat="46.90909" lon="8.56188">
        <ele>798</ele>
        <time>2021-08-10T13:05:19.120Z</time>
      </trkpt>
      <trkpt lat="46.90908" lon="8.56187">
        <ele>798</ele>
        <time>2021-08-10T13:05:20.119Z</time>
      </trkpt>
      <trkpt lat="46.90908" lon="8.56186">
        <ele>798</ele>
        <time>2021-08-10T13:05:21.119Z</time>
      </trkpt>
      <trkpt lat="46.90906" lon="8.56186">
        <ele>798</ele>
        <time>2021-08-10T13:05:22.120Z</time>
      </trkpt>
      <trkpt lat="46.90905" lon="8.56184">
        <ele>798</ele>
        <time>2021-08-10T13:05:23.120Z</time>
      </trkpt>
      <trkpt lat="46.90904" lon="8.56184">
        <ele>798</ele>
        <time>2021-08-10T13:05:24.120Z</time>
      </trkpt>
      <trkpt lat="46.90904" lon="8.56183">
        <ele>798</ele>
        <time>2021-08-10T13:05:25.119Z</time>
      </trkpt>
      <trkpt lat="46.90903" lon="8.56182">
        <ele>799</ele>
        <time>2021-08-10T13:05:26.119Z</time>
      </trkpt>
      <trkpt lat="46.90903" lon="8.56181">
        <ele>799</ele>
        <time>2021-08-10T13:05:27.120Z</time>
      </trkpt>
      <trkpt lat="46.90902" lon="8.56181">
        <ele>799</ele>
        <time>2021-08-10T13:05:28.119Z</time>
      </trkpt>
      <trkpt lat="46.90902" lon="8.5618">
        <ele>799</ele>
        <time>2021-08-10T13:05:29.120Z</time>
      </trkpt>
      <trkpt lat="46.90902" lon="8.5618">
        <ele>799</ele>
        <time>2021-08-10T13:05:30.119Z</time>
      </trkpt>
      <trkpt lat="46.90901" lon="8.5618">
        <ele>800</ele>
        <time>2021-08-10T13:05:31.120Z</time>
      </trkpt>
      <trkpt lat="46.90901" lon="8.56179">
        <ele>800</ele>
        <time>2021-08-10T13:05:32.120Z</time>
      </trkpt>
      <trkpt lat="46.909" lon="8.56178">
        <ele>800</ele>
        <time>2021-08-10T13:05:33.119Z</time>
      </trkpt>
      <trkpt lat="46.90899" lon="8.56177">
        <ele>800</ele>
        <time>2021-08-10T13:05:34.120Z</time>
      </trkpt>
      <trkpt lat="46.90899" lon="8.56177">
        <ele>800</ele>
        <time>2021-08-10T13:05:35.120Z</time>
      </trkpt>
      <trkpt lat="46.90898" lon="8.56176">
        <ele>800</ele>
        <time>2021-08-10T13:05:36.120Z</time>
      </trkpt>
      <trkpt lat="46.90898" lon="8.56176">
        <ele>800</ele>
        <time>2021-08-10T13:05:37.120Z</time>
      </trkpt>
      <trkpt lat="46.90897" lon="8.56175">
        <ele>800</ele>
        <time>2021-08-10T13:05:38.120Z</time>
      </trkpt>
      <trkpt lat="46.90897" lon="8.56175">
        <ele>800</ele>
        <time>2021-08-10T13:05:39.120Z</time>
      </trkpt>
      <trkpt lat="46.90896" lon="8.56174">
        <ele>800</ele>
        <time>2021-08-10T13:05:40.120Z</time>
      </trkpt>
      <trkpt lat="46.90896" lon="8.56174">
        <ele>800</ele>
        <time>2021-08-10T13:05:41.119Z</time>
      </trkpt>
      <trkpt lat="46.90895" lon="8.56173">
        <ele>799</ele>
        <time>2021-08-10T13:05:42.120Z</time>
      </trkpt>
      <trkpt lat="46.90895" lon="8.56173">
        <ele>799</ele>
        <time>2021-08-10T13:05:43.119Z</time>
      </trkpt>
      <trkpt lat="46.90894" lon="8.56172">
        <ele>799</ele>
        <time>2021-08-10T13:05:44.120Z</time>
      </trkpt>
      <trkpt lat="46.90893" lon="8.56172">
        <ele>799</ele>
        <time>2021-08-10T13:05:45.120Z</time>
      </trkpt>
      <trkpt lat="46.90893" lon="8.56171">
        <ele>799</ele>
        <time>2021-08-10T13:05:46.119Z</time>
      </trkpt>
      <trkpt lat="46.90892" lon="8.5617">
        <ele>800</ele>
        <time>2021-08-10T13:05:47.120Z</time>
      </trkpt>
      <trkpt lat="46.90891" lon="8.5617">
        <ele>800</ele>
        <time>2021-08-10T13:05:48.120Z</time>
      </trkpt>
      <trkpt lat="46.9089" lon="8.56169">
        <ele>801</ele>
        <time>2021-08-10T13:05:49.119Z</time>
      </trkpt>
      <trkpt lat="46.90889" lon="8.56168">
        <ele>801</ele>
        <time>2021-08-10T13:05:50.120Z</time>
      </trkpt>
      <trkpt lat="46.90888" lon="8.56167">
        <ele>801</ele>
        <time>2021-08-10T13:05:51.120Z</time>
      </trkpt>
      <trkpt lat="46.90887" lon="8.56166">
        <ele>801</ele>
        <time>2021-08-10T13:05:52.119Z</time>
      </trkpt>
      <trkpt lat="46.90886" lon="8.56165">
        <ele>802</ele>
        <time>2021-08-10T13:05:53.119Z</time>
      </trkpt>
      <trkpt lat="46.90886" lon="8.56165">
        <ele>802</ele>
        <time>2021-08-10T13:05:54.119Z</time>
      </trkpt>
      <trkpt lat="46.90885" lon="8.56164">
        <ele>802</ele>
        <time>2021-08-10T13:05:55.120Z</time>
      </trkpt>
      <trkpt lat="46.90883" lon="8.56163">
        <ele>802</ele>
        <time>2021-08-10T13:05:56.120Z</time>
      </trkpt>
      <trkpt lat="46.90882" lon="8.56162">
        <ele>803</ele>
        <time>2021-08-10T13:05:57.119Z</time>
      </trkpt>
      <trkpt lat="46.90882" lon="8.56161">
        <ele>803</ele>
        <time>2021-08-10T13:05:58.120Z</time>
      </trkpt>
      <trkpt lat="46.90881" lon="8.56161">
        <ele>804</ele>
        <time>2021-08-10T13:05:59.119Z</time>
      </trkpt>
      <trkpt lat="46.90881" lon="8.56161">
        <ele>805</ele>
        <time>2021-08-10T13:06:00.120Z</time>
      </trkpt>
      <trkpt lat="46.9088" lon="8.56161">
        <ele>805</ele>
        <time>2021-08-10T13:06:01.119Z</time>
      </trkpt>
      <trkpt lat="46.9088" lon="8.56162">
        <ele>805</ele>
        <time>2021-08-10T13:06:02.120Z</time>
      </trkpt>
      <trkpt lat="46.90879" lon="8.56162">
        <ele>804</ele>
        <time>2021-08-10T13:06:03.119Z</time>
      </trkpt>
      <trkpt lat="46.90878" lon="8.56162">
        <ele>804</ele>
        <time>2021-08-10T13:06:04.120Z</time>
      </trkpt>
      <trkpt lat="46.90877" lon="8.56162">
        <ele>803</ele>
        <time>2021-08-10T13:06:05.119Z</time>
      </trkpt>
      <trkpt lat="46.90876" lon="8.56162">
        <ele>803</ele>
        <time>2021-08-10T13:06:06.120Z</time>
      </trkpt>
      <trkpt lat="46.90876" lon="8.56161">
        <ele>802</ele>
        <time>2021-08-10T13:06:07.119Z</time>
      </trkpt>
      <trkpt lat="46.90875" lon="8.56161">
        <ele>803</ele>
        <time>2021-08-10T13:06:08.119Z</time>
      </trkpt>
      <trkpt lat="46.90874" lon="8.5616">
        <ele>803</ele>
        <time>2021-08-10T13:06:09.120Z</time>
      </trkpt>
      <trkpt lat="46.90873" lon="8.5616">
        <ele>804</ele>
        <time>2021-08-10T13:06:10.119Z</time>
      </trkpt>
      <trkpt lat="46.90872" lon="8.56159">
        <ele>804</ele>
        <time>2021-08-10T13:06:11.120Z</time>
      </trkpt>
      <trkpt lat="46.90872" lon="8.56159">
        <ele>804</ele>
        <time>2021-08-10T13:06:12.119Z</time>
      </trkpt>
      <trkpt lat="46.90871" lon="8.56159">
        <ele>804</ele>
        <time>2021-08-10T13:06:13.119Z</time>
      </trkpt>
      <trkpt lat="46.9087" lon="8.56159">
        <ele>803</ele>
        <time>2021-08-10T13:06:14.119Z</time>
      </trkpt>
      <trkpt lat="46.9087" lon="8.56159">
        <ele>803</ele>
        <time>2021-08-10T13:06:15.119Z</time>
      </trkpt>
      <trkpt lat="46.90869" lon="8.56158">
        <ele>804</ele>
        <time>2021-08-10T13:06:16.120Z</time>
      </trkpt>
      <trkpt lat="46.90869" lon="8.56158">
        <ele>804</ele>
        <time>2021-08-10T13:06:17.120Z</time>
      </trkpt>
      <trkpt lat="46.90868" lon="8.56158">
        <ele>805</ele>
        <time>2021-08-10T13:06:18.120Z</time>
      </trkpt>
      <trkpt lat="46.90867" lon="8.56158">
        <ele>805</ele>
        <time>2021-08-10T13:06:19.120Z</time>
      </trkpt>
      <trkpt lat="46.90866" lon="8.56158">
        <ele>806</ele>
        <time>2021-08-10T13:06:20.119Z</time>
      </trkpt>
      <trkpt lat="46.90865" lon="8.56158">
        <ele>806</ele>
        <time>2021-08-10T13:06:21.120Z</time>
      </trkpt>
      <trkpt lat="46.90864" lon="8.56158">
        <ele>807</ele>
        <time>2021-08-10T13:06:22.120Z</time>
      </trkpt>
      <trkpt lat="46.90864" lon="8.56158">
        <ele>807</ele>
        <time>2021-08-10T13:06:23.120Z</time>
      </trkpt>
      <trkpt lat="46.90864" lon="8.56158">
        <ele>808</ele>
        <time>2021-08-10T13:06:24.120Z</time>
      </trkpt>
      <trkpt lat="46.90863" lon="8.56157">
        <ele>808</ele>
        <time>2021-08-10T13:06:25.120Z</time>
      </trkpt>
      <trkpt lat="46.90863" lon="8.56157">
        <ele>808</ele>
        <time>2021-08-10T13:06:26.120Z</time>
      </trkpt>
      <trkpt lat="46.90862" lon="8.56157">
        <ele>808</ele>
        <time>2021-08-10T13:06:27.119Z</time>
      </trkpt>
      <trkpt lat="46.90862" lon="8.56157">
        <ele>808</ele>
        <time>2021-08-10T13:06:28.120Z</time>
      </trkpt>
      <trkpt lat="46.90861" lon="8.56157">
        <ele>808</ele>
        <time>2021-08-10T13:06:29.120Z</time>
      </trkpt>
      <trkpt lat="46.9086" lon="8.56157">
        <ele>808</ele>
        <time>2021-08-10T13:06:30.120Z</time>
      </trkpt>
      <trkpt lat="46.90859" lon="8.56157">
        <ele>807</ele>
        <time>2021-08-10T13:06:31.120Z</time>
      </trkpt>
      <trkpt lat="46.90858" lon="8.56156">
        <ele>806</ele>
        <time>2021-08-10T13:06:32.120Z</time>
      </trkpt>
      <trkpt lat="46.90857" lon="8.56155">
        <ele>805</ele>
        <time>2021-08-10T13:06:33.120Z</time>
      </trkpt>
      <trkpt lat="46.90856" lon="8.56155">
        <ele>804</ele>
        <time>2021-08-10T13:06:34.119Z</time>
      </trkpt>
      <trkpt lat="46.90855" lon="8.56155">
        <ele>804</ele>
        <time>2021-08-10T13:06:35.120Z</time>
      </trkpt>
      <trkpt lat="46.90854" lon="8.56155">
        <ele>803</ele>
        <time>2021-08-10T13:06:36.119Z</time>
      </trkpt>
      <trkpt lat="46.90854" lon="8.56156">
        <ele>803</ele>
        <time>2021-08-10T13:06:37.120Z</time>
      </trkpt>
      <trkpt lat="46.90853" lon="8.56156">
        <ele>802</ele>
        <time>2021-08-10T13:06:38.120Z</time>
      </trkpt>
      <trkpt lat="46.90853" lon="8.56155">
        <ele>801</ele>
        <time>2021-08-10T13:06:39.120Z</time>
      </trkpt>
      <trkpt lat="46.90852" lon="8.56155">
        <ele>801</ele>
        <time>2021-08-10T13:06:40.119Z</time>
      </trkpt>
      <trkpt lat="46.90851" lon="8.56154">
        <ele>801</ele>
        <time>2021-08-10T13:06:41.120Z</time>
      </trkpt>
      <trkpt lat="46.90851" lon="8.56153">
        <ele>801</ele>
        <time>2021-08-10T13:06:42.120Z</time>
      </trkpt>
      <trkpt lat="46.90851" lon="8.56153">
        <ele>802</ele>
        <time>2021-08-10T13:06:43.120Z</time>
      </trkpt>
      <trkpt lat="46.9085" lon="8.56153">
        <ele>802</ele>
        <time>2021-08-10T13:06:44.119Z</time>
      </trkpt>
      <trkpt lat="46.90849" lon="8.56153">
        <ele>802</ele>
        <time>2021-08-10T13:06:45.119Z</time>
      </trkpt>
      <trkpt lat="46.90848" lon="8.56152">
        <ele>802</ele>
        <time>2021-08-10T13:06:46.119Z</time>
      </trkpt>
      <trkpt lat="46.90847" lon="8.56152">
        <ele>803</ele>
        <time>2021-08-10T13:06:47.120Z</time>
      </trkpt>
      <trkpt lat="46.90847" lon="8.56151">
        <ele>803</ele>
        <time>2021-08-10T13:06:48.119Z</time>
      </trkpt>
      <trkpt lat="46.90846" lon="8.56151">
        <ele>803</ele>
        <time>2021-08-10T13:06:49.120Z</time>
      </trkpt>
      <trkpt lat="46.90846" lon="8.5615">
        <ele>803</ele>
        <time>2021-08-10T13:06:50.120Z</time>
      </trkpt>
      <trkpt lat="46.90845" lon="8.5615">
        <ele>803</ele>
        <time>2021-08-10T13:06:51.120Z</time>
      </trkpt>
      <trkpt lat="46.90844" lon="8.5615">
        <ele>804</ele>
        <time>2021-08-10T13:06:52.120Z</time>
      </trkpt>
      <trkpt lat="46.90843" lon="8.5615">
        <ele>804</ele>
        <time>2021-08-10T13:06:53.120Z</time>
      </trkpt>
      <trkpt lat="46.90843" lon="8.56149">
        <ele>804</ele>
        <time>2021-08-10T13:06:54.120Z</time>
      </trkpt>
      <trkpt lat="46.90842" lon="8.56149">
        <ele>804</ele>
        <time>2021-08-10T13:06:55.120Z</time>
      </trkpt>
      <trkpt lat="46.90841" lon="8.56149">
        <ele>805</ele>
        <time>2021-08-10T13:06:56.120Z</time>
      </trkpt>
      <trkpt lat="46.90841" lon="8.56149">
        <ele>806</ele>
        <time>2021-08-10T13:06:57.120Z</time>
      </trkpt>
      <trkpt lat="46.9084" lon="8.56149">
        <ele>806</ele>
        <time>2021-08-10T13:06:58.119Z</time>
      </trkpt>
      <trkpt lat="46.9084" lon="8.5615">
        <ele>807</ele>
        <time>2021-08-10T13:06:59.120Z</time>
      </trkpt>
      <trkpt lat="46.9084" lon="8.56151">
        <ele>808</ele>
        <time>2021-08-10T13:07:00.120Z</time>
      </trkpt>
      <trkpt lat="46.9084" lon="8.56152">
        <ele>808</ele>
        <time>2021-08-10T13:07:01.120Z</time>
      </trkpt>
      <trkpt lat="46.90839" lon="8.56152">
        <ele>809</ele>
        <time>2021-08-10T13:07:02.119Z</time>
      </trkpt>
      <trkpt lat="46.90838" lon="8.56152">
        <ele>809</ele>
        <time>2021-08-10T13:07:03.119Z</time>
      </trkpt>
      <trkpt lat="46.90838" lon="8.56152">
        <ele>810</ele>
        <time>2021-08-10T13:07:04.119Z</time>
      </trkpt>
      <trkpt lat="46.90837" lon="8.56151">
        <ele>810</ele>
        <time>2021-08-10T13:07:05.120Z</time>
      </trkpt>
      <trkpt lat="46.90836" lon="8.56151">
        <ele>811</ele>
        <time>2021-08-10T13:07:06.120Z</time>
      </trkpt>
      <trkpt lat="46.90836" lon="8.5615">
        <ele>811</ele>
        <time>2021-08-10T13:07:07.120Z</time>
      </trkpt>
      <trkpt lat="46.90835" lon="8.56149">
        <ele>812</ele>
        <time>2021-08-10T13:07:08.119Z</time>
      </trkpt>
      <trkpt lat="46.90834" lon="8.56148">
        <ele>812</ele>
        <time>2021-08-10T13:07:09.120Z</time>
      </trkpt>
      <trkpt lat="46.90833" lon="8.56147">
        <ele>812</ele>
        <time>2021-08-10T13:07:10.120Z</time>
      </trkpt>
      <trkpt lat="46.90833" lon="8.56147">
        <ele>813</ele>
        <time>2021-08-10T13:07:11.119Z</time>
      </trkpt>
      <trkpt lat="46.90832" lon="8.56147">
        <ele>813</ele>
        <time>2021-08-10T13:07:12.120Z</time>
      </trkpt>
      <trkpt lat="46.90831" lon="8.56146">
        <ele>813</ele>
        <time>2021-08-10T13:07:13.119Z</time>
      </trkpt>
      <trkpt lat="46.9083" lon="8.56146">
        <ele>813</ele>
        <time>2021-08-10T13:07:14.119Z</time>
      </trkpt>
      <trkpt lat="46.9083" lon="8.56145">
        <ele>814</ele>
        <time>2021-08-10T13:07:15.120Z</time>
      </trkpt>
      <trkpt lat="46.90829" lon="8.56144">
        <ele>815</ele>
        <time>2021-08-10T13:07:16.120Z</time>
      </trkpt>
      <trkpt lat="46.90829" lon="8.56143">
        <ele>815</ele>
        <time>2021-08-10T13:07:17.119Z</time>
      </trkpt>
      <trkpt lat="46.90828" lon="8.56142">
        <ele>815</ele>
        <time>2021-08-10T13:07:18.120Z</time>
      </trkpt>
      <trkpt lat="46.90828" lon="8.5614">
        <ele>816</ele>
        <time>2021-08-10T13:07:19.119Z</time>
      </trkpt>
      <trkpt lat="46.90827" lon="8.5614">
        <ele>816</ele>
        <time>2021-08-10T13:07:20.120Z</time>
      </trkpt>
      <trkpt lat="46.90826" lon="8.56139">
        <ele>816</ele>
        <time>2021-08-10T13:07:21.120Z</time>
      </trkpt>
      <trkpt lat="46.90825" lon="8.56139">
        <ele>816</ele>
        <time>2021-08-10T13:07:22.120Z</time>
      </trkpt>
      <trkpt lat="46.90825" lon="8.56139">
        <ele>817</ele>
        <time>2021-08-10T13:07:23.120Z</time>
      </trkpt>
      <trkpt lat="46.90824" lon="8.56138">
        <ele>817</ele>
        <time>2021-08-10T13:07:24.120Z</time>
      </trkpt>
      <trkpt lat="46.90823" lon="8.56136">
        <ele>817</ele>
        <time>2021-08-10T13:07:25.120Z</time>
      </trkpt>
      <trkpt lat="46.90823" lon="8.56136">
        <ele>817</ele>
        <time>2021-08-10T13:07:26.120Z</time>
      </trkpt>
      <trkpt lat="46.90822" lon="8.56136">
        <ele>818</ele>
        <time>2021-08-10T13:07:27.120Z</time>
      </trkpt>
      <trkpt lat="46.90821" lon="8.56135">
        <ele>818</ele>
        <time>2021-08-10T13:07:28.119Z</time>
      </trkpt>
      <trkpt lat="46.90821" lon="8.56135">
        <ele>818</ele>
        <time>2021-08-10T13:07:29.120Z</time>
      </trkpt>
      <trkpt lat="46.9082" lon="8.56135">
        <ele>819</ele>
        <time>2021-08-10T13:07:30.120Z</time>
      </trkpt>
      <trkpt lat="46.9082" lon="8.56134">
        <ele>819</ele>
        <time>2021-08-10T13:07:31.120Z</time>
      </trkpt>
      <trkpt lat="46.90819" lon="8.56132">
        <ele>819</ele>
        <time>2021-08-10T13:07:32.120Z</time>
      </trkpt>
      <trkpt lat="46.90818" lon="8.5613">
        <ele>819</ele>
        <time>2021-08-10T13:07:33.119Z</time>
      </trkpt>
      <trkpt lat="46.90817" lon="8.56129">
        <ele>819</ele>
        <time>2021-08-10T13:07:34.120Z</time>
      </trkpt>
      <trkpt lat="46.90816" lon="8.56128">
        <ele>819</ele>
        <time>2021-08-10T13:07:35.119Z</time>
      </trkpt>
      <trkpt lat="46.90816" lon="8.56128">
        <ele>819</ele>
        <time>2021-08-10T13:07:36.120Z</time>
      </trkpt>
      <trkpt lat="46.90815" lon="8.56128">
        <ele>820</ele>
        <time>2021-08-10T13:07:37.120Z</time>
      </trkpt>
      <trkpt lat="46.90816" lon="8.56129">
        <ele>820</ele>
        <time>2021-08-10T13:07:38.120Z</time>
      </trkpt>
      <trkpt lat="46.90816" lon="8.56129">
        <ele>820</ele>
        <time>2021-08-10T13:07:39.120Z</time>
      </trkpt>
      <trkpt lat="46.90816" lon="8.56128">
        <ele>821</ele>
        <time>2021-08-10T13:07:40.119Z</time>
      </trkpt>
      <trkpt lat="46.90815" lon="8.56128">
        <ele>821</ele>
        <time>2021-08-10T13:07:41.120Z</time>
      </trkpt>
      <trkpt lat="46.90815" lon="8.56128">
        <ele>821</ele>
        <time>2021-08-10T13:07:42.120Z</time>
      </trkpt>
      <trkpt lat="46.90814" lon="8.56128">
        <ele>822</ele>
        <time>2021-08-10T13:07:43.119Z</time>
      </trkpt>
      <trkpt lat="46.90814" lon="8.56128">
        <ele>822</ele>
        <time>2021-08-10T13:07:44.120Z</time>
      </trkpt>
      <trkpt lat="46.90813" lon="8.56127">
        <ele>822</ele>
        <time>2021-08-10T13:07:45.120Z</time>
      </trkpt>
      <trkpt lat="46.90813" lon="8.56127">
        <ele>823</ele>
        <time>2021-08-10T13:07:46.119Z</time>
      </trkpt>
      <trkpt lat="46.90812" lon="8.56127">
        <ele>823</ele>
        <time>2021-08-10T13:07:47.119Z</time>
      </trkpt>
      <trkpt lat="46.90812" lon="8.56127">
        <ele>824</ele>
        <time>2021-08-10T13:07:48.119Z</time>
      </trkpt>
      <trkpt lat="46.90811" lon="8.56127">
        <ele>824</ele>
        <time>2021-08-10T13:07:49.120Z</time>
      </trkpt>
      <trkpt lat="46.9081" lon="8.56126">
        <ele>824</ele>
        <time>2021-08-10T13:07:50.119Z</time>
      </trkpt>
      <trkpt lat="46.9081" lon="8.56126">
        <ele>824</ele>
        <time>2021-08-10T13:07:51.120Z</time>
      </trkpt>
      <trkpt lat="46.90809" lon="8.56126">
        <ele>824</ele>
        <time>2021-08-10T13:07:52.119Z</time>
      </trkpt>
      <trkpt lat="46.90808" lon="8.56125">
        <ele>824</ele>
        <time>2021-08-10T13:07:53.119Z</time>
      </trkpt>
      <trkpt lat="46.90807" lon="8.56124">
        <ele>824</ele>
        <time>2021-08-10T13:07:54.119Z</time>
      </trkpt>
      <trkpt lat="46.90806" lon="8.56123">
        <ele>823</ele>
        <time>2021-08-10T13:07:55.120Z</time>
      </trkpt>
      <trkpt lat="46.90806" lon="8.56123">
        <ele>823</ele>
        <time>2021-08-10T13:07:56.120Z</time>
      </trkpt>
      <trkpt lat="46.90805" lon="8.56123">
        <ele>822</ele>
        <time>2021-08-10T13:07:57.120Z</time>
      </trkpt>
      <trkpt lat="46.90804" lon="8.56123">
        <ele>822</ele>
        <time>2021-08-10T13:07:58.119Z</time>
      </trkpt>
      <trkpt lat="46.90804" lon="8.56123">
        <ele>822</ele>
        <time>2021-08-10T13:07:59.120Z</time>
      </trkpt>
      <trkpt lat="46.90803" lon="8.56122">
        <ele>821</ele>
        <time>2021-08-10T13:08:56.245Z</time>
      </trkpt>
      <trkpt lat="46.90802" lon="8.56121">
        <ele>821</ele>
        <time>2021-08-10T13:08:57.245Z</time>
      </trkpt>
      <trkpt lat="46.90802" lon="8.5612">
        <ele>821</ele>
        <time>2021-08-10T13:08:58.245Z</time>
      </trkpt>
      <trkpt lat="46.90801" lon="8.5612">
        <ele>821</ele>
        <time>2021-08-10T13:08:59.245Z</time>
      </trkpt>
      <trkpt lat="46.90801" lon="8.5612">
        <ele>820</ele>
        <time>2021-08-10T13:09:11.346Z</time>
      </trkpt>
      <trkpt lat="46.908" lon="8.56119">
        <ele>820</ele>
        <time>2021-08-10T13:09:12.346Z</time>
      </trkpt>
      <trkpt lat="46.90799" lon="8.56119">
        <ele>820</ele>
        <time>2021-08-10T13:09:13.346Z</time>
      </trkpt>
      <trkpt lat="46.90798" lon="8.56119">
        <ele>819</ele>
        <time>2021-08-10T13:09:14.346Z</time>
      </trkpt>
      <trkpt lat="46.90797" lon="8.56119">
        <ele>819</ele>
        <time>2021-08-10T13:09:19.342Z</time>
      </trkpt>
      <trkpt lat="46.90795" lon="8.56118">
        <ele>819</ele>
        <time>2021-08-10T13:09:20.342Z</time>
      </trkpt>
      <trkpt lat="46.90794" lon="8.56117">
        <ele>819</ele>
        <time>2021-08-10T13:09:21.343Z</time>
      </trkpt>
      <trkpt lat="46.90793" lon="8.56116">
        <ele>819</ele>
        <time>2021-08-10T13:09:22.343Z</time>
      </trkpt>
      <trkpt lat="46.90793" lon="8.56116">
        <ele>819</ele>
        <time>2021-08-10T13:09:23.342Z</time>
      </trkpt>
      <trkpt lat="46.90793" lon="8.56115">
        <ele>819</ele>
        <time>2021-08-10T13:09:24.343Z</time>
      </trkpt>
      <trkpt lat="46.90793" lon="8.56114">
        <ele>819</ele>
        <time>2021-08-10T13:09:25.342Z</time>
      </trkpt>
      <trkpt lat="46.90792" lon="8.56114">
        <ele>820</ele>
        <time>2021-08-10T13:09:26.342Z</time>
      </trkpt>
      <trkpt lat="46.90792" lon="8.56113">
        <ele>820</ele>
        <time>2021-08-10T13:09:27.342Z</time>
      </trkpt>
      <trkpt lat="46.90791" lon="8.56114">
        <ele>821</ele>
        <time>2021-08-10T13:09:28.342Z</time>
      </trkpt>
      <trkpt lat="46.9079" lon="8.56114">
        <ele>822</ele>
        <time>2021-08-10T13:09:29.343Z</time>
      </trkpt>
      <trkpt lat="46.90789" lon="8.56114">
        <ele>822</ele>
        <time>2021-08-10T13:09:30.343Z</time>
      </trkpt>
      <trkpt lat="46.90788" lon="8.56113">
        <ele>822</ele>
        <time>2021-08-10T13:09:31.342Z</time>
      </trkpt>
      <trkpt lat="46.90788" lon="8.56113">
        <ele>823</ele>
        <time>2021-08-10T13:09:32.342Z</time>
      </trkpt>
      <trkpt lat="46.90787" lon="8.56112">
        <ele>823</ele>
        <time>2021-08-10T13:09:33.342Z</time>
      </trkpt>
      <trkpt lat="46.90786" lon="8.56112">
        <ele>823</ele>
        <time>2021-08-10T13:09:34.342Z</time>
      </trkpt>
      <trkpt lat="46.90785" lon="8.56112">
        <ele>823</ele>
        <time>2021-08-10T13:09:35.342Z</time>
      </trkpt>
      <trkpt lat="46.90784" lon="8.56111">
        <ele>823</ele>
        <time>2021-08-10T13:09:36.342Z</time>
      </trkpt>
      <trkpt lat="46.90783" lon="8.56111">
        <ele>823</ele>
        <time>2021-08-10T13:09:37.342Z</time>
      </trkpt>
      <trkpt lat="46.90782" lon="8.56109">
        <ele>823</ele>
        <time>2021-08-10T13:09:38.342Z</time>
      </trkpt>
      <trkpt lat="46.90781" lon="8.56109">
        <ele>823</ele>
        <time>2021-08-10T13:09:39.342Z</time>
      </trkpt>
      <trkpt lat="46.9078" lon="8.56108">
        <ele>824</ele>
        <time>2021-08-10T13:09:40.342Z</time>
      </trkpt>
      <trkpt lat="46.90779" lon="8.56107">
        <ele>824</ele>
        <time>2021-08-10T13:09:41.342Z</time>
      </trkpt>
      <trkpt lat="46.90778" lon="8.56106">
        <ele>824</ele>
        <time>2021-08-10T13:09:42.342Z</time>
      </trkpt>
      <trkpt lat="46.90777" lon="8.56106">
        <ele>824</ele>
        <time>2021-08-10T13:09:43.342Z</time>
      </trkpt>
      <trkpt lat="46.90775" lon="8.56105">
        <ele>824</ele>
        <time>2021-08-10T13:09:44.342Z</time>
      </trkpt>
      <trkpt lat="46.90775" lon="8.56104">
        <ele>824</ele>
        <time>2021-08-10T13:09:45.342Z</time>
      </trkpt>
      <trkpt lat="46.90774" lon="8.56103">
        <ele>824</ele>
        <time>2021-08-10T13:09:46.343Z</time>
      </trkpt>
      <trkpt lat="46.90773" lon="8.56103">
        <ele>825</ele>
        <time>2021-08-10T13:09:47.342Z</time>
      </trkpt>
      <trkpt lat="46.90772" lon="8.56102">
        <ele>825</ele>
        <time>2021-08-10T13:09:48.342Z</time>
      </trkpt>
      <trkpt lat="46.90771" lon="8.56102">
        <ele>826</ele>
        <time>2021-08-10T13:09:49.342Z</time>
      </trkpt>
      <trkpt lat="46.9077" lon="8.56101">
        <ele>826</ele>
        <time>2021-08-10T13:09:50.342Z</time>
      </trkpt>
      <trkpt lat="46.90768" lon="8.561">
        <ele>827</ele>
        <time>2021-08-10T13:09:51.342Z</time>
      </trkpt>
      <trkpt lat="46.90767" lon="8.56099">
        <ele>827</ele>
        <time>2021-08-10T13:09:52.343Z</time>
      </trkpt>
      <trkpt lat="46.90766" lon="8.56099">
        <ele>827</ele>
        <time>2021-08-10T13:09:53.343Z</time>
      </trkpt>
      <trkpt lat="46.90765" lon="8.56099">
        <ele>828</ele>
        <time>2021-08-10T13:09:54.342Z</time>
      </trkpt>
      <trkpt lat="46.90764" lon="8.56099">
        <ele>828</ele>
        <time>2021-08-10T13:09:55.342Z</time>
      </trkpt>
      <trkpt lat="46.90763" lon="8.561">
        <ele>828</ele>
        <time>2021-08-10T13:09:56.342Z</time>
      </trkpt>
      <trkpt lat="46.90762" lon="8.561">
        <ele>828</ele>
        <time>2021-08-10T13:09:57.343Z</time>
      </trkpt>
      <trkpt lat="46.90761" lon="8.56099">
        <ele>829</ele>
        <time>2021-08-10T13:09:58.342Z</time>
      </trkpt>
      <trkpt lat="46.90761" lon="8.56099">
        <ele>829</ele>
        <time>2021-08-10T13:09:59.342Z</time>
      </trkpt>
      <trkpt lat="46.90761" lon="8.56099">
        <ele>829</ele>
        <time>2021-08-10T13:10:00.342Z</time>
      </trkpt>
      <trkpt lat="46.90761" lon="8.56099">
        <ele>829</ele>
        <time>2021-08-10T13:10:01.343Z</time>
      </trkpt>
      <trkpt lat="46.9076" lon="8.56099">
        <ele>828</ele>
        <time>2021-08-10T13:10:02.343Z</time>
      </trkpt>
      <trkpt lat="46.90759" lon="8.56098">
        <ele>828</ele>
        <time>2021-08-10T13:10:03.342Z</time>
      </trkpt>
      <trkpt lat="46.90758" lon="8.56097">
        <ele>828</ele>
        <time>2021-08-10T13:10:04.343Z</time>
      </trkpt>
      <trkpt lat="46.90757" lon="8.56097">
        <ele>828</ele>
        <time>2021-08-10T13:10:05.343Z</time>
      </trkpt>
      <trkpt lat="46.90756" lon="8.56098">
        <ele>827</ele>
        <time>2021-08-10T13:10:06.343Z</time>
      </trkpt>
      <trkpt lat="46.90755" lon="8.56098">
        <ele>827</ele>
        <time>2021-08-10T13:10:07.343Z</time>
      </trkpt>
      <trkpt lat="46.90754" lon="8.56097">
        <ele>827</ele>
        <time>2021-08-10T13:10:08.343Z</time>
      </trkpt>
      <trkpt lat="46.90753" lon="8.56096">
        <ele>827</ele>
        <time>2021-08-10T13:10:09.343Z</time>
      </trkpt>
      <trkpt lat="46.90752" lon="8.56096">
        <ele>827</ele>
        <time>2021-08-10T13:10:10.343Z</time>
      </trkpt>
      <trkpt lat="46.90751" lon="8.56096">
        <ele>827</ele>
        <time>2021-08-10T13:10:11.343Z</time>
      </trkpt>
      <trkpt lat="46.9075" lon="8.56095">
        <ele>827</ele>
        <time>2021-08-10T13:10:12.343Z</time>
      </trkpt>
      <trkpt lat="46.90749" lon="8.56095">
        <ele>827</ele>
        <time>2021-08-10T13:10:13.343Z</time>
      </trkpt>
      <trkpt lat="46.90748" lon="8.56095">
        <ele>827</ele>
        <time>2021-08-10T13:10:14.342Z</time>
      </trkpt>
      <trkpt lat="46.90747" lon="8.56096">
        <ele>827</ele>
        <time>2021-08-10T13:10:15.342Z</time>
      </trkpt>
      <trkpt lat="46.90746" lon="8.56097">
        <ele>828</ele>
        <time>2021-08-10T13:10:16.342Z</time>
      </trkpt>
      <trkpt lat="46.90745" lon="8.56098">
        <ele>828</ele>
        <time>2021-08-10T13:10:17.342Z</time>
      </trkpt>
      <trkpt lat="46.90744" lon="8.56098">
        <ele>828</ele>
        <time>2021-08-10T13:10:18.343Z</time>
      </trkpt>
      <trkpt lat="46.90743" lon="8.56098">
        <ele>828</ele>
        <time>2021-08-10T13:10:19.342Z</time>
      </trkpt>
      <trkpt lat="46.90742" lon="8.56097">
        <ele>829</ele>
        <time>2021-08-10T13:10:20.342Z</time>
      </trkpt>
      <trkpt lat="46.90741" lon="8.56097">
        <ele>829</ele>
        <time>2021-08-10T13:10:21.343Z</time>
      </trkpt>
      <trkpt lat="46.9074" lon="8.56096">
        <ele>829</ele>
        <time>2021-08-10T13:10:22.342Z</time>
      </trkpt>
      <trkpt lat="46.90739" lon="8.56095">
        <ele>830</ele>
        <time>2021-08-10T13:10:23.342Z</time>
      </trkpt>
      <trkpt lat="46.90739" lon="8.56095">
        <ele>830</ele>
        <time>2021-08-10T13:10:24.343Z</time>
      </trkpt>
      <trkpt lat="46.90739" lon="8.56095">
        <ele>830</ele>
        <time>2021-08-10T13:10:25.342Z</time>
      </trkpt>
      <trkpt lat="46.90739" lon="8.56095">
        <ele>831</ele>
        <time>2021-08-10T13:10:26.343Z</time>
      </trkpt>
      <trkpt lat="46.9074" lon="8.56096">
        <ele>831</ele>
        <time>2021-08-10T13:10:27.343Z</time>
      </trkpt>
      <trkpt lat="46.9074" lon="8.56096">
        <ele>832</ele>
        <time>2021-08-10T13:10:28.343Z</time>
      </trkpt>
      <trkpt lat="46.90739" lon="8.56096">
        <ele>832</ele>
        <time>2021-08-10T13:10:29.343Z</time>
      </trkpt>
      <trkpt lat="46.90739" lon="8.56096">
        <ele>833</ele>
        <time>2021-08-10T13:10:30.343Z</time>
      </trkpt>
      <trkpt lat="46.90738" lon="8.56096">
        <ele>833</ele>
        <time>2021-08-10T13:10:31.343Z</time>
      </trkpt>
      <trkpt lat="46.90737" lon="8.56095">
        <ele>833</ele>
        <time>2021-08-10T13:10:32.343Z</time>
      </trkpt>
      <trkpt lat="46.90736" lon="8.56095">
        <ele>834</ele>
        <time>2021-08-10T13:10:33.343Z</time>
      </trkpt>
      <trkpt lat="46.90735" lon="8.56094">
        <ele>834</ele>
        <time>2021-08-10T13:10:34.343Z</time>
      </trkpt>
      <trkpt lat="46.90735" lon="8.56094">
        <ele>834</ele>
        <time>2021-08-10T13:10:35.343Z</time>
      </trkpt>
      <trkpt lat="46.90734" lon="8.56094">
        <ele>835</ele>
        <time>2021-08-10T13:10:36.342Z</time>
      </trkpt>
      <trkpt lat="46.90733" lon="8.56095">
        <ele>835</ele>
        <time>2021-08-10T13:10:37.343Z</time>
      </trkpt>
      <trkpt lat="46.90732" lon="8.56094">
        <ele>835</ele>
        <time>2021-08-10T13:10:38.343Z</time>
      </trkpt>
      <trkpt lat="46.90731" lon="8.56094">
        <ele>835</ele>
        <time>2021-08-10T13:10:39.343Z</time>
      </trkpt>
      <trkpt lat="46.9073" lon="8.56093">
        <ele>835</ele>
        <time>2021-08-10T13:10:40.343Z</time>
      </trkpt>
      <trkpt lat="46.9073" lon="8.56093">
        <ele>835</ele>
        <time>2021-08-10T13:10:41.343Z</time>
      </trkpt>
      <trkpt lat="46.90729" lon="8.56092">
        <ele>835</ele>
        <time>2021-08-10T13:10:42.342Z</time>
      </trkpt>
      <trkpt lat="46.90728" lon="8.56091">
        <ele>835</ele>
        <time>2021-08-10T13:10:43.343Z</time>
      </trkpt>
      <trkpt lat="46.90727" lon="8.5609">
        <ele>835</ele>
        <time>2021-08-10T13:10:44.343Z</time>
      </trkpt>
      <trkpt lat="46.90726" lon="8.56088">
        <ele>835</ele>
        <time>2021-08-10T13:10:45.343Z</time>
      </trkpt>
      <trkpt lat="46.90725" lon="8.56088">
        <ele>836</ele>
        <time>2021-08-10T13:10:46.343Z</time>
      </trkpt>
      <trkpt lat="46.90725" lon="8.56087">
        <ele>836</ele>
        <time>2021-08-10T13:10:47.343Z</time>
      </trkpt>
      <trkpt lat="46.90726" lon="8.56087">
        <ele>836</ele>
        <time>2021-08-10T13:10:48.343Z</time>
      </trkpt>
      <trkpt lat="46.90725" lon="8.56086">
        <ele>837</ele>
        <time>2021-08-10T13:10:49.343Z</time>
      </trkpt>
      <trkpt lat="46.90724" lon="8.56085">
        <ele>837</ele>
        <time>2021-08-10T13:10:50.343Z</time>
      </trkpt>
      <trkpt lat="46.90724" lon="8.56084">
        <ele>837</ele>
        <time>2021-08-10T13:10:51.342Z</time>
      </trkpt>
      <trkpt lat="46.90723" lon="8.56083">
        <ele>837</ele>
        <time>2021-08-10T13:10:52.343Z</time>
      </trkpt>
      <trkpt lat="46.90722" lon="8.56083">
        <ele>838</ele>
        <time>2021-08-10T13:10:53.342Z</time>
      </trkpt>
      <trkpt lat="46.90721" lon="8.56082">
        <ele>838</ele>
        <time>2021-08-10T13:10:54.342Z</time>
      </trkpt>
      <trkpt lat="46.9072" lon="8.56082">
        <ele>838</ele>
        <time>2021-08-10T13:10:55.343Z</time>
      </trkpt>
      <trkpt lat="46.9072" lon="8.56081">
        <ele>839</ele>
        <time>2021-08-10T13:10:56.343Z</time>
      </trkpt>
      <trkpt lat="46.90719" lon="8.56081">
        <ele>839</ele>
        <time>2021-08-10T13:10:57.342Z</time>
      </trkpt>
      <trkpt lat="46.90718" lon="8.5608">
        <ele>838</ele>
        <time>2021-08-10T13:10:58.343Z</time>
      </trkpt>
      <trkpt lat="46.90717" lon="8.56079">
        <ele>838</ele>
        <time>2021-08-10T13:10:59.343Z</time>
      </trkpt>
      <trkpt lat="46.90717" lon="8.56078">
        <ele>837</ele>
        <time>2021-08-10T13:11:00.342Z</time>
      </trkpt>
      <trkpt lat="46.90716" lon="8.56078">
        <ele>837</ele>
        <time>2021-08-10T13:11:01.343Z</time>
      </trkpt>
      <trkpt lat="46.90715" lon="8.56078">
        <ele>837</ele>
        <time>2021-08-10T13:11:02.343Z</time>
      </trkpt>
      <trkpt lat="46.90715" lon="8.56077">
        <ele>836</ele>
        <time>2021-08-10T13:11:03.343Z</time>
      </trkpt>
      <trkpt lat="46.90715" lon="8.56076">
        <ele>835</ele>
        <time>2021-08-10T13:11:04.343Z</time>
      </trkpt>
      <trkpt lat="46.90714" lon="8.56076">
        <ele>835</ele>
        <time>2021-08-10T13:11:05.343Z</time>
      </trkpt>
      <trkpt lat="46.90713" lon="8.56076">
        <ele>834</ele>
        <time>2021-08-10T13:11:06.343Z</time>
      </trkpt>
      <trkpt lat="46.90713" lon="8.56076">
        <ele>834</ele>
        <time>2021-08-10T13:11:07.342Z</time>
      </trkpt>
      <trkpt lat="46.90712" lon="8.56076">
        <ele>833</ele>
        <time>2021-08-10T13:11:08.343Z</time>
      </trkpt>
      <trkpt lat="46.90711" lon="8.56076">
        <ele>833</ele>
        <time>2021-08-10T13:11:09.343Z</time>
      </trkpt>
      <trkpt lat="46.9071" lon="8.56075">
        <ele>833</ele>
        <time>2021-08-10T13:11:10.343Z</time>
      </trkpt>
      <trkpt lat="46.90709" lon="8.56074">
        <ele>833</ele>
        <time>2021-08-10T13:11:11.343Z</time>
      </trkpt>
      <trkpt lat="46.90709" lon="8.56073">
        <ele>833</ele>
        <time>2021-08-10T13:11:12.343Z</time>
      </trkpt>
      <trkpt lat="46.90709" lon="8.56072">
        <ele>832</ele>
        <time>2021-08-10T13:11:13.343Z</time>
      </trkpt>
      <trkpt lat="46.90707" lon="8.56071">
        <ele>832</ele>
        <time>2021-08-10T13:11:14.343Z</time>
      </trkpt>
      <trkpt lat="46.90706" lon="8.5607">
        <ele>832</ele>
        <time>2021-08-10T13:11:15.343Z</time>
      </trkpt>
      <trkpt lat="46.90705" lon="8.56069">
        <ele>832</ele>
        <time>2021-08-10T13:11:16.343Z</time>
      </trkpt>
      <trkpt lat="46.90704" lon="8.56069">
        <ele>831</ele>
        <time>2021-08-10T13:11:17.343Z</time>
      </trkpt>
      <trkpt lat="46.90703" lon="8.56068">
        <ele>831</ele>
        <time>2021-08-10T13:11:18.343Z</time>
      </trkpt>
      <trkpt lat="46.90702" lon="8.56068">
        <ele>831</ele>
        <time>2021-08-10T13:11:19.342Z</time>
      </trkpt>
      <trkpt lat="46.90701" lon="8.56067">
        <ele>832</ele>
        <time>2021-08-10T13:11:20.343Z</time>
      </trkpt>
      <trkpt lat="46.907" lon="8.56066">
        <ele>832</ele>
        <time>2021-08-10T13:11:21.343Z</time>
      </trkpt>
      <trkpt lat="46.90698" lon="8.56066">
        <ele>832</ele>
        <time>2021-08-10T13:11:22.343Z</time>
      </trkpt>
      <trkpt lat="46.90698" lon="8.56066">
        <ele>833</ele>
        <time>2021-08-10T13:11:23.343Z</time>
      </trkpt>
      <trkpt lat="46.90697" lon="8.56065">
        <ele>833</ele>
        <time>2021-08-10T13:11:24.343Z</time>
      </trkpt>
      <trkpt lat="46.90696" lon="8.56064">
        <ele>834</ele>
        <time>2021-08-10T13:11:25.342Z</time>
      </trkpt>
      <trkpt lat="46.90696" lon="8.56064">
        <ele>834</ele>
        <time>2021-08-10T13:11:26.343Z</time>
      </trkpt>
      <trkpt lat="46.90695" lon="8.56063">
        <ele>834</ele>
        <time>2021-08-10T13:11:27.342Z</time>
      </trkpt>
      <trkpt lat="46.90695" lon="8.56062">
        <ele>834</ele>
        <time>2021-08-10T13:11:28.343Z</time>
      </trkpt>
      <trkpt lat="46.90695" lon="8.56061">
        <ele>834</ele>
        <time>2021-08-10T13:11:29.342Z</time>
      </trkpt>
      <trkpt lat="46.90695" lon="8.5606">
        <ele>834</ele>
        <time>2021-08-10T13:11:30.343Z</time>
      </trkpt>
      <trkpt lat="46.90694" lon="8.56059">
        <ele>834</ele>
        <time>2021-08-10T13:11:31.342Z</time>
      </trkpt>
      <trkpt lat="46.90693" lon="8.56058">
        <ele>834</ele>
        <time>2021-08-10T13:11:32.343Z</time>
      </trkpt>
      <trkpt lat="46.90693" lon="8.56057">
        <ele>834</ele>
        <time>2021-08-10T13:11:33.343Z</time>
      </trkpt>
      <trkpt lat="46.90692" lon="8.56056">
        <ele>834</ele>
        <time>2021-08-10T13:11:34.343Z</time>
      </trkpt>
      <trkpt lat="46.90692" lon="8.56055">
        <ele>835</ele>
        <time>2021-08-10T13:11:35.343Z</time>
      </trkpt>
      <trkpt lat="46.90692" lon="8.56054">
        <ele>835</ele>
        <time>2021-08-10T13:11:36.343Z</time>
      </trkpt>
      <trkpt lat="46.90692" lon="8.56054">
        <ele>835</ele>
        <time>2021-08-10T13:11:37.342Z</time>
      </trkpt>
      <trkpt lat="46.90691" lon="8.56053">
        <ele>836</ele>
        <time>2021-08-10T13:11:38.342Z</time>
      </trkpt>
      <trkpt lat="46.9069" lon="8.56052">
        <ele>836</ele>
        <time>2021-08-10T13:11:39.342Z</time>
      </trkpt>
      <trkpt lat="46.90689" lon="8.56051">
        <ele>836</ele>
        <time>2021-08-10T13:11:40.343Z</time>
      </trkpt>
      <trkpt lat="46.90689" lon="8.5605">
        <ele>837</ele>
        <time>2021-08-10T13:11:41.342Z</time>
      </trkpt>
      <trkpt lat="46.90688" lon="8.56049">
        <ele>837</ele>
        <time>2021-08-10T13:11:42.343Z</time>
      </trkpt>
      <trkpt lat="46.90688" lon="8.56048">
        <ele>838</ele>
        <time>2021-08-10T13:11:43.343Z</time>
      </trkpt>
      <trkpt lat="46.90687" lon="8.56047">
        <ele>838</ele>
        <time>2021-08-10T13:11:44.342Z</time>
      </trkpt>
      <trkpt lat="46.90686" lon="8.56046">
        <ele>839</ele>
        <time>2021-08-10T13:11:45.343Z</time>
      </trkpt>
      <trkpt lat="46.90686" lon="8.56046">
        <ele>839</ele>
        <time>2021-08-10T13:11:46.342Z</time>
      </trkpt>
      <trkpt lat="46.90685" lon="8.56045">
        <ele>840</ele>
        <time>2021-08-10T13:11:47.343Z</time>
      </trkpt>
      <trkpt lat="46.90685" lon="8.56044">
        <ele>840</ele>
        <time>2021-08-10T13:11:48.343Z</time>
      </trkpt>
      <trkpt lat="46.90685" lon="8.56043">
        <ele>840</ele>
        <time>2021-08-10T13:11:49.343Z</time>
      </trkpt>
      <trkpt lat="46.90684" lon="8.56043">
        <ele>839</ele>
        <time>2021-08-10T13:11:50.343Z</time>
      </trkpt>
      <trkpt lat="46.90684" lon="8.56041">
        <ele>839</ele>
        <time>2021-08-10T13:11:51.342Z</time>
      </trkpt>
      <trkpt lat="46.90684" lon="8.5604">
        <ele>838</ele>
        <time>2021-08-10T13:11:52.343Z</time>
      </trkpt>
      <trkpt lat="46.90684" lon="8.56039">
        <ele>838</ele>
        <time>2021-08-10T13:11:53.343Z</time>
      </trkpt>
      <trkpt lat="46.90683" lon="8.56037">
        <ele>838</ele>
        <time>2021-08-10T13:11:54.343Z</time>
      </trkpt>
      <trkpt lat="46.90683" lon="8.56036">
        <ele>837</ele>
        <time>2021-08-10T13:11:55.343Z</time>
      </trkpt>
      <trkpt lat="46.90681" lon="8.56035">
        <ele>837</ele>
        <time>2021-08-10T13:11:56.342Z</time>
      </trkpt>
      <trkpt lat="46.9068" lon="8.56035">
        <ele>837</ele>
        <time>2021-08-10T13:11:57.342Z</time>
      </trkpt>
      <trkpt lat="46.90679" lon="8.56035">
        <ele>837</ele>
        <time>2021-08-10T13:11:58.342Z</time>
      </trkpt>
      <trkpt lat="46.90678" lon="8.56034">
        <ele>837</ele>
        <time>2021-08-10T13:11:59.343Z</time>
      </trkpt>
      <trkpt lat="46.90677" lon="8.56033">
        <ele>837</ele>
        <time>2021-08-10T13:12:00.342Z</time>
      </trkpt>
      <trkpt lat="46.90677" lon="8.56032">
        <ele>837</ele>
        <time>2021-08-10T13:12:01.343Z</time>
      </trkpt>
      <trkpt lat="46.90676" lon="8.56031">
        <ele>837</ele>
        <time>2021-08-10T13:12:02.343Z</time>
      </trkpt>
      <trkpt lat="46.90675" lon="8.5603">
        <ele>838</ele>
        <time>2021-08-10T13:12:03.343Z</time>
      </trkpt>
      <trkpt lat="46.90675" lon="8.56029">
        <ele>838</ele>
        <time>2021-08-10T13:12:04.343Z</time>
      </trkpt>
      <trkpt lat="46.90674" lon="8.56028">
        <ele>838</ele>
        <time>2021-08-10T13:12:05.342Z</time>
      </trkpt>
      <trkpt lat="46.90673" lon="8.56027">
        <ele>838</ele>
        <time>2021-08-10T13:12:06.342Z</time>
      </trkpt>
      <trkpt lat="46.90673" lon="8.56025">
        <ele>839</ele>
        <time>2021-08-10T13:12:07.343Z</time>
      </trkpt>
      <trkpt lat="46.90672" lon="8.56024">
        <ele>839</ele>
        <time>2021-08-10T13:12:08.343Z</time>
      </trkpt>
      <trkpt lat="46.90671" lon="8.56024">
        <ele>838</ele>
        <time>2021-08-10T13:12:09.342Z</time>
      </trkpt>
      <trkpt lat="46.9067" lon="8.56023">
        <ele>838</ele>
        <time>2021-08-10T13:12:10.343Z</time>
      </trkpt>
      <trkpt lat="46.9067" lon="8.56021">
        <ele>838</ele>
        <time>2021-08-10T13:12:11.343Z</time>
      </trkpt>
      <trkpt lat="46.90671" lon="8.56019">
        <ele>838</ele>
        <time>2021-08-10T13:12:12.342Z</time>
      </trkpt>
      <trkpt lat="46.90671" lon="8.56017">
        <ele>837</ele>
        <time>2021-08-10T13:12:13.343Z</time>
      </trkpt>
      <trkpt lat="46.90672" lon="8.56016">
        <ele>837</ele>
        <time>2021-08-10T13:12:14.343Z</time>
      </trkpt>
      <trkpt lat="46.90672" lon="8.56015">
        <ele>837</ele>
        <time>2021-08-10T13:12:15.343Z</time>
      </trkpt>
      <trkpt lat="46.9067" lon="8.56014">
        <ele>837</ele>
        <time>2021-08-10T13:12:16.343Z</time>
      </trkpt>
      <trkpt lat="46.9067" lon="8.56013">
        <ele>838</ele>
        <time>2021-08-10T13:12:17.342Z</time>
      </trkpt>
      <trkpt lat="46.90669" lon="8.56012">
        <ele>838</ele>
        <time>2021-08-10T13:12:18.343Z</time>
      </trkpt>
      <trkpt lat="46.90667" lon="8.56011">
        <ele>838</ele>
        <time>2021-08-10T13:12:19.343Z</time>
      </trkpt>
      <trkpt lat="46.90666" lon="8.56011">
        <ele>838</ele>
        <time>2021-08-10T13:12:20.343Z</time>
      </trkpt>
      <trkpt lat="46.90666" lon="8.5601">
        <ele>838</ele>
        <time>2021-08-10T13:12:21.343Z</time>
      </trkpt>
      <trkpt lat="46.90665" lon="8.56009">
        <ele>838</ele>
        <time>2021-08-10T13:12:22.343Z</time>
      </trkpt>
      <trkpt lat="46.90665" lon="8.56008">
        <ele>837</ele>
        <time>2021-08-10T13:12:23.342Z</time>
      </trkpt>
      <trkpt lat="46.90665" lon="8.56007">
        <ele>837</ele>
        <time>2021-08-10T13:12:24.343Z</time>
      </trkpt>
      <trkpt lat="46.90665" lon="8.56006">
        <ele>837</ele>
        <time>2021-08-10T13:12:25.343Z</time>
      </trkpt>
      <trkpt lat="46.90664" lon="8.56004">
        <ele>837</ele>
        <time>2021-08-10T13:12:26.343Z</time>
      </trkpt>
      <trkpt lat="46.90664" lon="8.56003">
        <ele>837</ele>
        <time>2021-08-10T13:12:27.342Z</time>
      </trkpt>
      <trkpt lat="46.90663" lon="8.56002">
        <ele>837</ele>
        <time>2021-08-10T13:12:28.342Z</time>
      </trkpt>
      <trkpt lat="46.90663" lon="8.56001">
        <ele>837</ele>
        <time>2021-08-10T13:12:29.343Z</time>
      </trkpt>
      <trkpt lat="46.90662" lon="8.56001">
        <ele>837</ele>
        <time>2021-08-10T13:12:30.343Z</time>
      </trkpt>
      <trkpt lat="46.90661" lon="8.56001">
        <ele>837</ele>
        <time>2021-08-10T13:12:31.343Z</time>
      </trkpt>
      <trkpt lat="46.90661" lon="8.56001">
        <ele>837</ele>
        <time>2021-08-10T13:12:32.343Z</time>
      </trkpt>
      <trkpt lat="46.9066" lon="8.56002">
        <ele>837</ele>
        <time>2021-08-10T13:12:33.343Z</time>
      </trkpt>
      <trkpt lat="46.90659" lon="8.56002">
        <ele>838</ele>
        <time>2021-08-10T13:12:34.343Z</time>
      </trkpt>
      <trkpt lat="46.90658" lon="8.56002">
        <ele>838</ele>
        <time>2021-08-10T13:12:35.343Z</time>
      </trkpt>
      <trkpt lat="46.90657" lon="8.56002">
        <ele>838</ele>
        <time>2021-08-10T13:12:36.343Z</time>
      </trkpt>
      <trkpt lat="46.90656" lon="8.56001">
        <ele>838</ele>
        <time>2021-08-10T13:12:37.343Z</time>
      </trkpt>
      <trkpt lat="46.90656" lon="8.56">
        <ele>838</ele>
        <time>2021-08-10T13:12:38.342Z</time>
      </trkpt>
      <trkpt lat="46.90656" lon="8.55999">
        <ele>838</ele>
        <time>2021-08-10T13:12:39.342Z</time>
      </trkpt>
      <trkpt lat="46.90655" lon="8.55999">
        <ele>838</ele>
        <time>2021-08-10T13:12:40.343Z</time>
      </trkpt>
      <trkpt lat="46.90656" lon="8.55997">
        <ele>838</ele>
        <time>2021-08-10T13:12:41.343Z</time>
      </trkpt>
      <trkpt lat="46.90656" lon="8.55996">
        <ele>838</ele>
        <time>2021-08-10T13:12:42.343Z</time>
      </trkpt>
      <trkpt lat="46.90655" lon="8.55994">
        <ele>838</ele>
        <time>2021-08-10T13:12:43.343Z</time>
      </trkpt>
      <trkpt lat="46.90655" lon="8.55993">
        <ele>837</ele>
        <time>2021-08-10T13:12:44.343Z</time>
      </trkpt>
      <trkpt lat="46.90654" lon="8.55992">
        <ele>837</ele>
        <time>2021-08-10T13:12:45.343Z</time>
      </trkpt>
      <trkpt lat="46.90654" lon="8.55991">
        <ele>837</ele>
        <time>2021-08-10T13:12:46.342Z</time>
      </trkpt>
      <trkpt lat="46.90653" lon="8.55991">
        <ele>837</ele>
        <time>2021-08-10T13:12:47.343Z</time>
      </trkpt>
      <trkpt lat="46.90653" lon="8.55991">
        <ele>837</ele>
        <time>2021-08-10T13:12:48.342Z</time>
      </trkpt>
      <trkpt lat="46.90652" lon="8.5599">
        <ele>837</ele>
        <time>2021-08-10T13:12:49.342Z</time>
      </trkpt>
      <trkpt lat="46.9065" lon="8.5599">
        <ele>837</ele>
        <time>2021-08-10T13:12:50.342Z</time>
      </trkpt>
      <trkpt lat="46.90648" lon="8.55991">
        <ele>837</ele>
        <time>2021-08-10T13:12:51.343Z</time>
      </trkpt>
      <trkpt lat="46.90647" lon="8.55992">
        <ele>837</ele>
        <time>2021-08-10T13:12:52.343Z</time>
      </trkpt>
      <trkpt lat="46.90645" lon="8.5599">
        <ele>837</ele>
        <time>2021-08-10T13:12:53.343Z</time>
      </trkpt>
      <trkpt lat="46.90644" lon="8.55989">
        <ele>837</ele>
        <time>2021-08-10T13:12:54.343Z</time>
      </trkpt>
      <trkpt lat="46.90643" lon="8.55988">
        <ele>837</ele>
        <time>2021-08-10T13:12:55.343Z</time>
      </trkpt>
      <trkpt lat="46.90642" lon="8.55987">
        <ele>837</ele>
        <time>2021-08-10T13:12:56.343Z</time>
      </trkpt>
      <trkpt lat="46.90641" lon="8.55986">
        <ele>837</ele>
        <time>2021-08-10T13:12:57.343Z</time>
      </trkpt>
      <trkpt lat="46.9064" lon="8.55986">
        <ele>837</ele>
        <time>2021-08-10T13:12:58.343Z</time>
      </trkpt>
      <trkpt lat="46.90638" lon="8.55986">
        <ele>837</ele>
        <time>2021-08-10T13:12:59.342Z</time>
      </trkpt>
      <trkpt lat="46.90637" lon="8.55985">
        <ele>837</ele>
        <time>2021-08-10T13:13:00.342Z</time>
      </trkpt>
      <trkpt lat="46.90637" lon="8.55985">
        <ele>837</ele>
        <time>2021-08-10T13:13:01.343Z</time>
      </trkpt>
      <trkpt lat="46.90636" lon="8.55984">
        <ele>837</ele>
        <time>2021-08-10T13:13:02.343Z</time>
      </trkpt>
      <trkpt lat="46.90636" lon="8.55983">
        <ele>837</ele>
        <time>2021-08-10T13:13:03.343Z</time>
      </trkpt>
      <trkpt lat="46.90636" lon="8.5598">
        <ele>837</ele>
        <time>2021-08-10T13:13:04.343Z</time>
      </trkpt>
      <trkpt lat="46.90637" lon="8.55978">
        <ele>836</ele>
        <time>2021-08-10T13:13:05.342Z</time>
      </trkpt>
      <trkpt lat="46.90636" lon="8.55977">
        <ele>836</ele>
        <time>2021-08-10T13:13:06.342Z</time>
      </trkpt>
      <trkpt lat="46.90635" lon="8.55978">
        <ele>835</ele>
        <time>2021-08-10T13:13:07.342Z</time>
      </trkpt>
      <trkpt lat="46.90634" lon="8.55978">
        <ele>835</ele>
        <time>2021-08-10T13:13:08.343Z</time>
      </trkpt>
      <trkpt lat="46.90634" lon="8.55979">
        <ele>835</ele>
        <time>2021-08-10T13:13:09.343Z</time>
      </trkpt>
      <trkpt lat="46.90633" lon="8.5598">
        <ele>836</ele>
        <time>2021-08-10T13:13:10.342Z</time>
      </trkpt>
      <trkpt lat="46.90634" lon="8.5598">
        <ele>836</ele>
        <time>2021-08-10T13:13:11.343Z</time>
      </trkpt>
      <trkpt lat="46.90635" lon="8.5598">
        <ele>836</ele>
        <time>2021-08-10T13:13:12.342Z</time>
      </trkpt>
      <trkpt lat="46.90637" lon="8.55981">
        <ele>836</ele>
        <time>2021-08-10T13:13:13.342Z</time>
      </trkpt>
      <trkpt lat="46.90638" lon="8.55981">
        <ele>836</ele>
        <time>2021-08-10T13:13:14.342Z</time>
      </trkpt>
      <trkpt lat="46.90639" lon="8.55982">
        <ele>835</ele>
        <time>2021-08-10T13:13:15.343Z</time>
      </trkpt>
      <trkpt lat="46.90639" lon="8.55982">
        <ele>835</ele>
        <time>2021-08-10T13:13:16.343Z</time>
      </trkpt>
      <trkpt lat="46.90639" lon="8.55982">
        <ele>835</ele>
        <time>2021-08-10T13:13:17.343Z</time>
      </trkpt>
      <trkpt lat="46.90637" lon="8.55984">
        <ele>835</ele>
        <time>2021-08-10T13:13:18.343Z</time>
      </trkpt>
      <trkpt lat="46.90636" lon="8.55985">
        <ele>835</ele>
        <time>2021-08-10T13:13:19.343Z</time>
      </trkpt>
      <trkpt lat="46.90636" lon="8.55985">
        <ele>836</ele>
        <time>2021-08-10T13:13:20.343Z</time>
      </trkpt>
      <trkpt lat="46.90636" lon="8.55984">
        <ele>836</ele>
        <time>2021-08-10T13:13:21.343Z</time>
      </trkpt>
      <trkpt lat="46.90636" lon="8.55982">
        <ele>837</ele>
        <time>2021-08-10T13:13:22.342Z</time>
      </trkpt>
      <trkpt lat="46.90636" lon="8.55981">
        <ele>837</ele>
        <time>2021-08-10T13:13:23.343Z</time>
      </trkpt>
      <trkpt lat="46.90635" lon="8.5598">
        <ele>837</ele>
        <time>2021-08-10T13:13:24.343Z</time>
      </trkpt>
      <trkpt lat="46.90634" lon="8.55977">
        <ele>838</ele>
        <time>2021-08-10T13:13:25.343Z</time>
      </trkpt>
      <trkpt lat="46.90634" lon="8.55976">
        <ele>838</ele>
        <time>2021-08-10T13:13:26.343Z</time>
      </trkpt>
      <trkpt lat="46.90634" lon="8.55974">
        <ele>838</ele>
        <time>2021-08-10T13:13:27.343Z</time>
      </trkpt>
      <trkpt lat="46.90633" lon="8.55973">
        <ele>838</ele>
        <time>2021-08-10T13:13:28.343Z</time>
      </trkpt>
      <trkpt lat="46.90633" lon="8.55972">
        <ele>838</ele>
        <time>2021-08-10T13:13:29.342Z</time>
      </trkpt>
      <trkpt lat="46.90633" lon="8.55971">
        <ele>839</ele>
        <time>2021-08-10T13:13:30.343Z</time>
      </trkpt>
      <trkpt lat="46.90633" lon="8.55971">
        <ele>839</ele>
        <time>2021-08-10T13:13:31.342Z</time>
      </trkpt>
      <trkpt lat="46.90633" lon="8.55971">
        <ele>839</ele>
        <time>2021-08-10T13:13:32.342Z</time>
      </trkpt>
      <trkpt lat="46.90632" lon="8.55971">
        <ele>839</ele>
        <time>2021-08-10T13:13:33.343Z</time>
      </trkpt>
      <trkpt lat="46.90632" lon="8.55972">
        <ele>840</ele>
        <time>2021-08-10T13:13:34.342Z</time>
      </trkpt>
      <trkpt lat="46.90632" lon="8.55972">
        <ele>840</ele>
        <time>2021-08-10T13:13:35.342Z</time>
      </trkpt>
      <trkpt lat="46.90632" lon="8.55971">
        <ele>840</ele>
        <time>2021-08-10T13:13:36.343Z</time>
      </trkpt>
      <trkpt lat="46.90632" lon="8.5597">
        <ele>841</ele>
        <time>2021-08-10T13:13:37.342Z</time>
      </trkpt>
      <trkpt lat="46.90633" lon="8.5597">
        <ele>841</ele>
        <time>2021-08-10T13:13:38.342Z</time>
      </trkpt>
      <trkpt lat="46.90633" lon="8.5597">
        <ele>841</ele>
        <time>2021-08-10T13:13:39.343Z</time>
      </trkpt>
      <trkpt lat="46.90633" lon="8.5597">
        <ele>841</ele>
        <time>2021-08-10T13:13:40.342Z</time>
      </trkpt>
      <trkpt lat="46.90633" lon="8.55971">
        <ele>841</ele>
        <time>2021-08-10T13:13:41.343Z</time>
      </trkpt>
      <trkpt lat="46.90633" lon="8.55971">
        <ele>841</ele>
        <time>2021-08-10T13:13:42.343Z</time>
      </trkpt>
      <trkpt lat="46.90632" lon="8.55971">
        <ele>842</ele>
        <time>2021-08-10T13:13:43.344Z</time>
      </trkpt>
      <trkpt lat="46.90632" lon="8.55972">
        <ele>842</ele>
        <time>2021-08-10T13:13:44.344Z</time>
      </trkpt>
      <trkpt lat="46.90632" lon="8.55972">
        <ele>843</ele>
        <time>2021-08-10T13:13:45.343Z</time>
      </trkpt>
      <trkpt lat="46.90631" lon="8.55973">
        <ele>843</ele>
        <time>2021-08-10T13:13:46.344Z</time>
      </trkpt>
      <trkpt lat="46.90631" lon="8.55972">
        <ele>843</ele>
        <time>2021-08-10T13:13:47.344Z</time>
      </trkpt>
      <trkpt lat="46.90631" lon="8.55971">
        <ele>844</ele>
        <time>2021-08-10T13:13:48.344Z</time>
      </trkpt>
      <trkpt lat="46.90631" lon="8.55971">
        <ele>844</ele>
        <time>2021-08-10T13:13:49.344Z</time>
      </trkpt>
      <trkpt lat="46.90631" lon="8.55972">
        <ele>844</ele>
        <time>2021-08-10T13:13:50.344Z</time>
      </trkpt>
      <trkpt lat="46.90631" lon="8.55972">
        <ele>844</ele>
        <time>2021-08-10T13:13:51.344Z</time>
      </trkpt>
      <trkpt lat="46.9063" lon="8.55972">
        <ele>845</ele>
        <time>2021-08-10T13:13:52.344Z</time>
      </trkpt>
      <trkpt lat="46.9063" lon="8.55972">
        <ele>845</ele>
        <time>2021-08-10T13:13:53.344Z</time>
      </trkpt>
      <trkpt lat="46.9063" lon="8.55972">
        <ele>845</ele>
        <time>2021-08-10T13:13:54.344Z</time>
      </trkpt>
      <trkpt lat="46.90629" lon="8.55973">
        <ele>845</ele>
        <time>2021-08-10T13:13:55.344Z</time>
      </trkpt>
      <trkpt lat="46.9063" lon="8.55974">
        <ele>845</ele>
        <time>2021-08-10T13:13:56.344Z</time>
      </trkpt>
      <trkpt lat="46.9063" lon="8.55982">
        <ele>846</ele>
        <time>2021-08-10T13:13:57.345Z</time>
      </trkpt>
      <trkpt lat="46.9063" lon="8.55982">
        <ele>846</ele>
        <time>2021-08-10T13:13:58.344Z</time>
      </trkpt>
      <trkpt lat="46.9063" lon="8.55982">
        <ele>845</ele>
        <time>2021-08-10T13:13:59.344Z</time>
      </trkpt>
      <trkpt lat="46.90629" lon="8.55984">
        <ele>845</ele>
        <time>2021-08-10T13:14:00.345Z</time>
      </trkpt>
      <trkpt lat="46.90629" lon="8.55986">
        <ele>845</ele>
        <time>2021-08-10T13:14:01.344Z</time>
      </trkpt>
      <trkpt lat="46.90629" lon="8.55988">
        <ele>844</ele>
        <time>2021-08-10T13:14:02.345Z</time>
      </trkpt>
      <trkpt lat="46.90628" lon="8.5599">
        <ele>844</ele>
        <time>2021-08-10T13:14:03.345Z</time>
      </trkpt>
      <trkpt lat="46.90628" lon="8.55992">
        <ele>843</ele>
        <time>2021-08-10T13:14:04.345Z</time>
      </trkpt>
      <trkpt lat="46.90628" lon="8.55993">
        <ele>843</ele>
        <time>2021-08-10T13:14:05.345Z</time>
      </trkpt>
      <trkpt lat="46.90627" lon="8.55993">
        <ele>842</ele>
        <time>2021-08-10T13:14:06.345Z</time>
      </trkpt>
      <trkpt lat="46.90627" lon="8.55993">
        <ele>842</ele>
        <time>2021-08-10T13:14:07.345Z</time>
      </trkpt>
      <trkpt lat="46.90627" lon="8.55994">
        <ele>842</ele>
        <time>2021-08-10T13:14:08.345Z</time>
      </trkpt>
      <trkpt lat="46.90626" lon="8.55995">
        <ele>842</ele>
        <time>2021-08-10T13:14:09.345Z</time>
      </trkpt>
      <trkpt lat="46.90631" lon="8.55996">
        <ele>842</ele>
        <time>2021-08-10T13:14:10.347Z</time>
      </trkpt>
      <trkpt lat="46.90631" lon="8.55995">
        <ele>842</ele>
        <time>2021-08-10T13:14:11.347Z</time>
      </trkpt>
      <trkpt lat="46.90632" lon="8.55993">
        <ele>843</ele>
        <time>2021-08-10T13:14:12.346Z</time>
      </trkpt>
      <trkpt lat="46.90632" lon="8.5599">
        <ele>843</ele>
        <time>2021-08-10T13:14:13.347Z</time>
      </trkpt>
      <trkpt lat="46.90632" lon="8.55988">
        <ele>843</ele>
        <time>2021-08-10T13:14:14.347Z</time>
      </trkpt>
      <trkpt lat="46.90633" lon="8.55987">
        <ele>843</ele>
        <time>2021-08-10T13:14:15.346Z</time>
      </trkpt>
      <trkpt lat="46.90634" lon="8.55987">
        <ele>843</ele>
        <time>2021-08-10T13:14:16.347Z</time>
      </trkpt>
      <trkpt lat="46.90633" lon="8.55987">
        <ele>842</ele>
        <time>2021-08-10T13:14:17.347Z</time>
      </trkpt>
      <trkpt lat="46.90632" lon="8.55989">
        <ele>842</ele>
        <time>2021-08-10T13:14:31.477Z</time>
      </trkpt>
      <trkpt lat="46.90631" lon="8.5599">
        <ele>842</ele>
        <time>2021-08-10T13:14:32.477Z</time>
      </trkpt>
      <trkpt lat="46.9063" lon="8.55991">
        <ele>841</ele>
        <time>2021-08-10T13:14:46.347Z</time>
      </trkpt>
      <trkpt lat="46.9063" lon="8.55992">
        <ele>841</ele>
        <time>2021-08-10T13:14:50.244Z</time>
      </trkpt>
      <trkpt lat="46.90629" lon="8.55994">
        <ele>840</ele>
        <time>2021-08-10T13:14:51.245Z</time>
      </trkpt>
      <trkpt lat="46.90629" lon="8.55995">
        <ele>839</ele>
        <time>2021-08-10T13:14:52.245Z</time>
      </trkpt>
      <trkpt lat="46.9063" lon="8.55996">
        <ele>839</ele>
        <time>2021-08-10T13:14:53.245Z</time>
      </trkpt>
      <trkpt lat="46.9063" lon="8.55997">
        <ele>838</ele>
        <time>2021-08-10T13:14:54.245Z</time>
      </trkpt>
      <trkpt lat="46.90629" lon="8.55998">
        <ele>838</ele>
        <time>2021-08-10T13:14:55.245Z</time>
      </trkpt>
      <trkpt lat="46.90629" lon="8.56">
        <ele>837</ele>
        <time>2021-08-10T13:15:04.357Z</time>
      </trkpt>
      <trkpt lat="46.90628" lon="8.56001">
        <ele>837</ele>
        <time>2021-08-10T13:15:05.356Z</time>
      </trkpt>
      <trkpt lat="46.90621" lon="8.5601">
        <ele>835</ele>
        <time>2021-08-10T13:15:09.458Z</time>
      </trkpt>
      <trkpt lat="46.90621" lon="8.56008">
        <ele>835</ele>
        <time>2021-08-10T13:15:10.459Z</time>
      </trkpt>
      <trkpt lat="46.90621" lon="8.56006">
        <ele>835</ele>
        <time>2021-08-10T13:15:11.458Z</time>
      </trkpt>
      <trkpt lat="46.90621" lon="8.56004">
        <ele>834</ele>
        <time>2021-08-10T13:15:12.458Z</time>
      </trkpt>
      <trkpt lat="46.9062" lon="8.56003">
        <ele>835</ele>
        <time>2021-08-10T13:15:13.458Z</time>
      </trkpt>
      <trkpt lat="46.90621" lon="8.56001">
        <ele>835</ele>
        <time>2021-08-10T13:15:14.459Z</time>
      </trkpt>
      <trkpt lat="46.90621" lon="8.56001">
        <ele>835</ele>
        <time>2021-08-10T13:15:15.459Z</time>
      </trkpt>
      <trkpt lat="46.90622" lon="8.56001">
        <ele>835</ele>
        <time>2021-08-10T13:15:17.589Z</time>
      </trkpt>
      <trkpt lat="46.90622" lon="8.56002">
        <ele>835</ele>
        <time>2021-08-10T13:15:18.588Z</time>
      </trkpt>
      <trkpt lat="46.90622" lon="8.56003">
        <ele>835</ele>
        <time>2021-08-10T13:15:19.588Z</time>
      </trkpt>
      <trkpt lat="46.90622" lon="8.56004">
        <ele>835</ele>
        <time>2021-08-10T13:15:20.588Z</time>
      </trkpt>
      <trkpt lat="46.90622" lon="8.56005">
        <ele>835</ele>
        <time>2021-08-10T13:15:21.589Z</time>
      </trkpt>
      <trkpt lat="46.90621" lon="8.56006">
        <ele>834</ele>
        <time>2021-08-10T13:15:22.588Z</time>
      </trkpt>
      <trkpt lat="46.90621" lon="8.56005">
        <ele>834</ele>
        <time>2021-08-10T13:15:23.588Z</time>
      </trkpt>
      <trkpt lat="46.9062" lon="8.56">
        <ele>834</ele>
        <time>2021-08-10T13:15:24.588Z</time>
      </trkpt>
      <trkpt lat="46.90619" lon="8.55995">
        <ele>833</ele>
        <time>2021-08-10T13:15:25.588Z</time>
      </trkpt>
      <trkpt lat="46.90618" lon="8.55993">
        <ele>833</ele>
        <time>2021-08-10T13:15:26.588Z</time>
      </trkpt>
      <trkpt lat="46.90619" lon="8.55992">
        <ele>833</ele>
        <time>2021-08-10T13:15:27.589Z</time>
      </trkpt>
      <trkpt lat="46.90618" lon="8.55991">
        <ele>833</ele>
        <time>2021-08-10T13:15:28.588Z</time>
      </trkpt>
      <trkpt lat="46.90619" lon="8.5599">
        <ele>833</ele>
        <time>2021-08-10T13:15:29.588Z</time>
      </trkpt>
      <trkpt lat="46.9062" lon="8.5599">
        <ele>833</ele>
        <time>2021-08-10T13:15:30.588Z</time>
      </trkpt>
      <trkpt lat="46.90621" lon="8.5599">
        <ele>833</ele>
        <time>2021-08-10T13:15:31.589Z</time>
      </trkpt>
      <trkpt lat="46.90621" lon="8.55989">
        <ele>833</ele>
        <time>2021-08-10T13:15:32.588Z</time>
      </trkpt>
      <trkpt lat="46.90622" lon="8.55988">
        <ele>833</ele>
        <time>2021-08-10T13:15:33.589Z</time>
      </trkpt>
      <trkpt lat="46.90623" lon="8.55987">
        <ele>833</ele>
        <time>2021-08-10T13:15:34.589Z</time>
      </trkpt>
      <trkpt lat="46.90624" lon="8.55985">
        <ele>833</ele>
        <time>2021-08-10T13:15:35.588Z</time>
      </trkpt>
      <trkpt lat="46.90625" lon="8.55984">
        <ele>834</ele>
        <time>2021-08-10T13:15:36.588Z</time>
      </trkpt>
      <trkpt lat="46.90627" lon="8.55982">
        <ele>834</ele>
        <time>2021-08-10T13:15:37.588Z</time>
      </trkpt>
      <trkpt lat="46.90628" lon="8.55981">
        <ele>834</ele>
        <time>2021-08-10T13:15:38.588Z</time>
      </trkpt>
      <trkpt lat="46.90629" lon="8.55981">
        <ele>834</ele>
        <time>2021-08-10T13:15:39.588Z</time>
      </trkpt>
      <trkpt lat="46.90629" lon="8.5598">
        <ele>834</ele>
        <time>2021-08-10T13:15:40.588Z</time>
      </trkpt>
      <trkpt lat="46.90628" lon="8.55979">
        <ele>835</ele>
        <time>2021-08-10T13:15:41.588Z</time>
      </trkpt>
      <trkpt lat="46.90627" lon="8.55979">
        <ele>835</ele>
        <time>2021-08-10T13:15:42.588Z</time>
      </trkpt>
      <trkpt lat="46.90626" lon="8.55979">
        <ele>835</ele>
        <time>2021-08-10T13:15:43.588Z</time>
      </trkpt>
      <trkpt lat="46.90625" lon="8.5598">
        <ele>835</ele>
        <time>2021-08-10T13:15:44.588Z</time>
      </trkpt>
      <trkpt lat="46.90625" lon="8.5598">
        <ele>836</ele>
        <time>2021-08-10T13:15:45.589Z</time>
      </trkpt>
      <trkpt lat="46.90625" lon="8.5598">
        <ele>836</ele>
        <time>2021-08-10T13:15:46.588Z</time>
      </trkpt>
      <trkpt lat="46.90626" lon="8.55979">
        <ele>837</ele>
        <time>2021-08-10T13:15:47.588Z</time>
      </trkpt>
      <trkpt lat="46.90626" lon="8.55978">
        <ele>837</ele>
        <time>2021-08-10T13:15:48.590Z</time>
      </trkpt>
      <trkpt lat="46.90627" lon="8.55978">
        <ele>837</ele>
        <time>2021-08-10T13:15:49.590Z</time>
      </trkpt>
      <trkpt lat="46.90627" lon="8.55977">
        <ele>838</ele>
        <time>2021-08-10T13:15:50.589Z</time>
      </trkpt>
      <trkpt lat="46.90627" lon="8.55977">
        <ele>838</ele>
        <time>2021-08-10T13:15:51.590Z</time>
      </trkpt>
      <trkpt lat="46.90628" lon="8.55976">
        <ele>838</ele>
        <time>2021-08-10T13:15:52.590Z</time>
      </trkpt>
      <trkpt lat="46.90634" lon="8.55973">
        <ele>840</ele>
        <time>2021-08-10T13:15:53.590Z</time>
      </trkpt>
      <trkpt lat="46.90636" lon="8.55972">
        <ele>841</ele>
        <time>2021-08-10T13:15:54.590Z</time>
      </trkpt>
      <trkpt lat="46.90637" lon="8.55971">
        <ele>841</ele>
        <time>2021-08-10T13:15:55.590Z</time>
      </trkpt>
      <trkpt lat="46.90638" lon="8.5597">
        <ele>841</ele>
        <time>2021-08-10T13:15:56.590Z</time>
      </trkpt>
      <trkpt lat="46.90638" lon="8.55969">
        <ele>842</ele>
        <time>2021-08-10T13:15:57.589Z</time>
      </trkpt>
      <trkpt lat="46.90638" lon="8.55968">
        <ele>842</ele>
        <time>2021-08-10T13:15:58.589Z</time>
      </trkpt>
      <trkpt lat="46.90638" lon="8.55968">
        <ele>842</ele>
        <time>2021-08-10T13:15:59.590Z</time>
      </trkpt>
      <trkpt lat="46.90638" lon="8.55967">
        <ele>843</ele>
        <time>2021-08-10T13:16:00.589Z</time>
      </trkpt>
      <trkpt lat="46.90638" lon="8.55966">
        <ele>843</ele>
        <time>2021-08-10T13:16:01.590Z</time>
      </trkpt>
      <trkpt lat="46.90637" lon="8.55965">
        <ele>844</ele>
        <time>2021-08-10T13:16:02.590Z</time>
      </trkpt>
      <trkpt lat="46.90637" lon="8.55965">
        <ele>845</ele>
        <time>2021-08-10T13:16:03.590Z</time>
      </trkpt>
      <trkpt lat="46.90637" lon="8.55964">
        <ele>846</ele>
        <time>2021-08-10T13:16:04.590Z</time>
      </trkpt>
      <trkpt lat="46.90638" lon="8.55964">
        <ele>847</ele>
        <time>2021-08-10T13:16:05.590Z</time>
      </trkpt>
      <trkpt lat="46.90638" lon="8.55963">
        <ele>848</ele>
        <time>2021-08-10T13:16:06.590Z</time>
      </trkpt>
      <trkpt lat="46.90638" lon="8.55963">
        <ele>849</ele>
        <time>2021-08-10T13:16:07.589Z</time>
      </trkpt>
      <trkpt lat="46.90638" lon="8.55963">
        <ele>850</ele>
        <time>2021-08-10T13:16:08.589Z</time>
      </trkpt>
      <trkpt lat="46.90638" lon="8.55962">
        <ele>851</ele>
        <time>2021-08-10T13:16:09.592Z</time>
      </trkpt>
      <trkpt lat="46.90638" lon="8.55961">
        <ele>852</ele>
        <time>2021-08-10T13:16:10.592Z</time>
      </trkpt>
      <trkpt lat="46.90637" lon="8.5596">
        <ele>852</ele>
        <time>2021-08-10T13:16:11.591Z</time>
      </trkpt>
      <trkpt lat="46.90636" lon="8.5596">
        <ele>852</ele>
        <time>2021-08-10T13:16:12.592Z</time>
      </trkpt>
      <trkpt lat="46.90636" lon="8.55959">
        <ele>853</ele>
        <time>2021-08-10T13:16:13.592Z</time>
      </trkpt>
      <trkpt lat="46.90636" lon="8.55959">
        <ele>852</ele>
        <time>2021-08-10T13:16:14.591Z</time>
      </trkpt>
      <trkpt lat="46.90635" lon="8.55959">
        <ele>852</ele>
        <time>2021-08-10T13:16:15.591Z</time>
      </trkpt>
      <trkpt lat="46.90635" lon="8.55959">
        <ele>851</ele>
        <time>2021-08-10T13:16:16.591Z</time>
      </trkpt>
      <trkpt lat="46.90634" lon="8.55958">
        <ele>851</ele>
        <time>2021-08-10T13:16:17.591Z</time>
      </trkpt>
      <trkpt lat="46.90634" lon="8.55958">
        <ele>850</ele>
        <time>2021-08-10T13:16:18.592Z</time>
      </trkpt>
      <trkpt lat="46.90634" lon="8.55957">
        <ele>850</ele>
        <time>2021-08-10T13:16:19.592Z</time>
      </trkpt>
      <trkpt lat="46.90633" lon="8.55957">
        <ele>850</ele>
        <time>2021-08-10T13:16:20.591Z</time>
      </trkpt>
      <trkpt lat="46.90632" lon="8.55956">
        <ele>850</ele>
        <time>2021-08-10T13:16:21.592Z</time>
      </trkpt>
      <trkpt lat="46.90631" lon="8.55957">
        <ele>850</ele>
        <time>2021-08-10T13:16:22.591Z</time>
      </trkpt>
      <trkpt lat="46.9063" lon="8.55957">
        <ele>850</ele>
        <time>2021-08-10T13:16:23.592Z</time>
      </trkpt>
      <trkpt lat="46.90628" lon="8.55957">
        <ele>850</ele>
        <time>2021-08-10T13:16:24.592Z</time>
      </trkpt>
      <trkpt lat="46.90627" lon="8.55956">
        <ele>850</ele>
        <time>2021-08-10T13:16:25.592Z</time>
      </trkpt>
      <trkpt lat="46.90626" lon="8.55956">
        <ele>850</ele>
        <time>2021-08-10T13:16:26.592Z</time>
      </trkpt>
      <trkpt lat="46.90626" lon="8.55955">
        <ele>850</ele>
        <time>2021-08-10T13:16:27.592Z</time>
      </trkpt>
      <trkpt lat="46.90625" lon="8.55955">
        <ele>851</ele>
        <time>2021-08-10T13:16:28.592Z</time>
      </trkpt>
      <trkpt lat="46.90624" lon="8.55954">
        <ele>851</ele>
        <time>2021-08-10T13:16:29.592Z</time>
      </trkpt>
      <trkpt lat="46.90623" lon="8.55954">
        <ele>852</ele>
        <time>2021-08-10T13:16:30.591Z</time>
      </trkpt>
      <trkpt lat="46.90622" lon="8.55954">
        <ele>852</ele>
        <time>2021-08-10T13:16:31.592Z</time>
      </trkpt>
      <trkpt lat="46.90621" lon="8.55953">
        <ele>853</ele>
        <time>2021-08-10T13:16:32.592Z</time>
      </trkpt>
      <trkpt lat="46.90619" lon="8.55953">
        <ele>853</ele>
        <time>2021-08-10T13:16:33.592Z</time>
      </trkpt>
      <trkpt lat="46.90618" lon="8.55953">
        <ele>854</ele>
        <time>2021-08-10T13:16:34.592Z</time>
      </trkpt>
      <trkpt lat="46.90618" lon="8.55953">
        <ele>854</ele>
        <time>2021-08-10T13:16:35.592Z</time>
      </trkpt>
      <trkpt lat="46.90616" lon="8.55953">
        <ele>855</ele>
        <time>2021-08-10T13:16:36.592Z</time>
      </trkpt>
      <trkpt lat="46.90615" lon="8.55952">
        <ele>855</ele>
        <time>2021-08-10T13:16:37.592Z</time>
      </trkpt>
      <trkpt lat="46.90613" lon="8.55952">
        <ele>856</ele>
        <time>2021-08-10T13:16:38.592Z</time>
      </trkpt>
      <trkpt lat="46.90612" lon="8.55952">
        <ele>856</ele>
        <time>2021-08-10T13:16:39.591Z</time>
      </trkpt>
      <trkpt lat="46.90611" lon="8.55951">
        <ele>857</ele>
        <time>2021-08-10T13:16:40.592Z</time>
      </trkpt>
      <trkpt lat="46.90609" lon="8.55953">
        <ele>857</ele>
        <time>2021-08-10T13:16:41.592Z</time>
      </trkpt>
      <trkpt lat="46.90609" lon="8.55952">
        <ele>858</ele>
        <time>2021-08-10T13:16:42.592Z</time>
      </trkpt>
      <trkpt lat="46.90608" lon="8.55952">
        <ele>858</ele>
        <time>2021-08-10T13:16:43.592Z</time>
      </trkpt>
      <trkpt lat="46.90607" lon="8.55952">
        <ele>858</ele>
        <time>2021-08-10T13:16:44.592Z</time>
      </trkpt>
      <trkpt lat="46.90606" lon="8.55951">
        <ele>859</ele>
        <time>2021-08-10T13:16:45.592Z</time>
      </trkpt>
      <trkpt lat="46.90606" lon="8.55951">
        <ele>859</ele>
        <time>2021-08-10T13:16:46.592Z</time>
      </trkpt>
      <trkpt lat="46.90605" lon="8.5595">
        <ele>859</ele>
        <time>2021-08-10T13:16:47.591Z</time>
      </trkpt>
      <trkpt lat="46.90605" lon="8.55949">
        <ele>860</ele>
        <time>2021-08-10T13:16:48.592Z</time>
      </trkpt>
      <trkpt lat="46.90605" lon="8.55949">
        <ele>860</ele>
        <time>2021-08-10T13:16:49.591Z</time>
      </trkpt>
      <trkpt lat="46.90605" lon="8.55948">
        <ele>860</ele>
        <time>2021-08-10T13:16:50.591Z</time>
      </trkpt>
      <trkpt lat="46.90604" lon="8.55947">
        <ele>861</ele>
        <time>2021-08-10T13:16:51.592Z</time>
      </trkpt>
      <trkpt lat="46.90604" lon="8.55946">
        <ele>861</ele>
        <time>2021-08-10T13:16:52.592Z</time>
      </trkpt>
      <trkpt lat="46.90603" lon="8.55946">
        <ele>861</ele>
        <time>2021-08-10T13:16:53.591Z</time>
      </trkpt>
      <trkpt lat="46.90602" lon="8.55947">
        <ele>862</ele>
        <time>2021-08-10T13:16:54.592Z</time>
      </trkpt>
      <trkpt lat="46.906" lon="8.55949">
        <ele>862</ele>
        <time>2021-08-10T13:16:55.592Z</time>
      </trkpt>
      <trkpt lat="46.90599" lon="8.5595">
        <ele>863</ele>
        <time>2021-08-10T13:16:56.592Z</time>
      </trkpt>
      <trkpt lat="46.90598" lon="8.5595">
        <ele>863</ele>
        <time>2021-08-10T13:16:57.592Z</time>
      </trkpt>
      <trkpt lat="46.90597" lon="8.55949">
        <ele>864</ele>
        <time>2021-08-10T13:16:58.592Z</time>
      </trkpt>
      <trkpt lat="46.90596" lon="8.5595">
        <ele>864</ele>
        <time>2021-08-10T13:16:59.592Z</time>
      </trkpt>
      <trkpt lat="46.90595" lon="8.5595">
        <ele>865</ele>
        <time>2021-08-10T13:17:00.592Z</time>
      </trkpt>
      <trkpt lat="46.90594" lon="8.5595">
        <ele>866</ele>
        <time>2021-08-10T13:17:01.592Z</time>
      </trkpt>
      <trkpt lat="46.90593" lon="8.5595">
        <ele>866</ele>
        <time>2021-08-10T13:17:02.592Z</time>
      </trkpt>
      <trkpt lat="46.90592" lon="8.55949">
        <ele>867</ele>
        <time>2021-08-10T13:17:03.592Z</time>
      </trkpt>
      <trkpt lat="46.90591" lon="8.55949">
        <ele>867</ele>
        <time>2021-08-10T13:17:04.591Z</time>
      </trkpt>
      <trkpt lat="46.90591" lon="8.55949">
        <ele>868</ele>
        <time>2021-08-10T13:17:05.591Z</time>
      </trkpt>
      <trkpt lat="46.90591" lon="8.55949">
        <ele>868</ele>
        <time>2021-08-10T13:17:06.592Z</time>
      </trkpt>
      <trkpt lat="46.9059" lon="8.55949">
        <ele>869</ele>
        <time>2021-08-10T13:17:07.592Z</time>
      </trkpt>
      <trkpt lat="46.9059" lon="8.55947">
        <ele>869</ele>
        <time>2021-08-10T13:17:08.592Z</time>
      </trkpt>
      <trkpt lat="46.9059" lon="8.55946">
        <ele>870</ele>
        <time>2021-08-10T13:17:09.592Z</time>
      </trkpt>
      <trkpt lat="46.9059" lon="8.55945">
        <ele>870</ele>
        <time>2021-08-10T13:17:10.592Z</time>
      </trkpt>
      <trkpt lat="46.90589" lon="8.55944">
        <ele>870</ele>
        <time>2021-08-10T13:17:11.592Z</time>
      </trkpt>
      <trkpt lat="46.90588" lon="8.55943">
        <ele>870</ele>
        <time>2021-08-10T13:17:12.592Z</time>
      </trkpt>
      <trkpt lat="46.90587" lon="8.55944">
        <ele>871</ele>
        <time>2021-08-10T13:17:13.592Z</time>
      </trkpt>
      <trkpt lat="46.90586" lon="8.55943">
        <ele>871</ele>
        <time>2021-08-10T13:17:14.591Z</time>
      </trkpt>
      <trkpt lat="46.90586" lon="8.55943">
        <ele>871</ele>
        <time>2021-08-10T13:17:15.592Z</time>
      </trkpt>
      <trkpt lat="46.90586" lon="8.55941">
        <ele>871</ele>
        <time>2021-08-10T13:17:16.591Z</time>
      </trkpt>
      <trkpt lat="46.90585" lon="8.55941">
        <ele>872</ele>
        <time>2021-08-10T13:17:17.591Z</time>
      </trkpt>
      <trkpt lat="46.90585" lon="8.55941">
        <ele>872</ele>
        <time>2021-08-10T13:17:18.592Z</time>
      </trkpt>
      <trkpt lat="46.90584" lon="8.55941">
        <ele>872</ele>
        <time>2021-08-10T13:17:19.592Z</time>
      </trkpt>
      <trkpt lat="46.90583" lon="8.5594">
        <ele>873</ele>
        <time>2021-08-10T13:17:20.591Z</time>
      </trkpt>
      <trkpt lat="46.90582" lon="8.55939">
        <ele>873</ele>
        <time>2021-08-10T13:17:21.591Z</time>
      </trkpt>
      <trkpt lat="46.90581" lon="8.55938">
        <ele>873</ele>
        <time>2021-08-10T13:17:22.592Z</time>
      </trkpt>
      <trkpt lat="46.9058" lon="8.55938">
        <ele>873</ele>
        <time>2021-08-10T13:17:23.591Z</time>
      </trkpt>
      <trkpt lat="46.90579" lon="8.55939">
        <ele>874</ele>
        <time>2021-08-10T13:17:24.592Z</time>
      </trkpt>
      <trkpt lat="46.90578" lon="8.5594">
        <ele>874</ele>
        <time>2021-08-10T13:17:25.592Z</time>
      </trkpt>
      <trkpt lat="46.90578" lon="8.55941">
        <ele>875</ele>
        <time>2021-08-10T13:17:26.592Z</time>
      </trkpt>
      <trkpt lat="46.90578" lon="8.5594">
        <ele>875</ele>
        <time>2021-08-10T13:17:27.592Z</time>
      </trkpt>
      <trkpt lat="46.90577" lon="8.55939">
        <ele>875</ele>
        <time>2021-08-10T13:17:28.592Z</time>
      </trkpt>
      <trkpt lat="46.90576" lon="8.55939">
        <ele>875</ele>
        <time>2021-08-10T13:17:29.592Z</time>
      </trkpt>
      <trkpt lat="46.90576" lon="8.55939">
        <ele>875</ele>
        <time>2021-08-10T13:17:30.591Z</time>
      </trkpt>
      <trkpt lat="46.90575" lon="8.55939">
        <ele>875</ele>
        <time>2021-08-10T13:17:31.591Z</time>
      </trkpt>
      <trkpt lat="46.90574" lon="8.55939">
        <ele>875</ele>
        <time>2021-08-10T13:17:32.592Z</time>
      </trkpt>
      <trkpt lat="46.90574" lon="8.55938">
        <ele>875</ele>
        <time>2021-08-10T13:17:33.592Z</time>
      </trkpt>
      <trkpt lat="46.90573" lon="8.55937">
        <ele>875</ele>
        <time>2021-08-10T13:17:34.592Z</time>
      </trkpt>
      <trkpt lat="46.90573" lon="8.55938">
        <ele>875</ele>
        <time>2021-08-10T13:17:35.591Z</time>
      </trkpt>
      <trkpt lat="46.90572" lon="8.55937">
        <ele>875</ele>
        <time>2021-08-10T13:17:36.592Z</time>
      </trkpt>
      <trkpt lat="46.90571" lon="8.55937">
        <ele>875</ele>
        <time>2021-08-10T13:17:37.592Z</time>
      </trkpt>
      <trkpt lat="46.90571" lon="8.55937">
        <ele>875</ele>
        <time>2021-08-10T13:17:38.591Z</time>
      </trkpt>
      <trkpt lat="46.9057" lon="8.55936">
        <ele>875</ele>
        <time>2021-08-10T13:17:39.592Z</time>
      </trkpt>
      <trkpt lat="46.90569" lon="8.55936">
        <ele>874</ele>
        <time>2021-08-10T13:17:40.591Z</time>
      </trkpt>
      <trkpt lat="46.90569" lon="8.55936">
        <ele>874</ele>
        <time>2021-08-10T13:17:41.592Z</time>
      </trkpt>
      <trkpt lat="46.90568" lon="8.55935">
        <ele>874</ele>
        <time>2021-08-10T13:17:42.592Z</time>
      </trkpt>
      <trkpt lat="46.90567" lon="8.55935">
        <ele>874</ele>
        <time>2021-08-10T13:17:43.592Z</time>
      </trkpt>
      <trkpt lat="46.90566" lon="8.55934">
        <ele>874</ele>
        <time>2021-08-10T13:17:44.592Z</time>
      </trkpt>
      <trkpt lat="46.90567" lon="8.55933">
        <ele>874</ele>
        <time>2021-08-10T13:17:45.592Z</time>
      </trkpt>
      <trkpt lat="46.90567" lon="8.55932">
        <ele>874</ele>
        <time>2021-08-10T13:17:46.592Z</time>
      </trkpt>
      <trkpt lat="46.90567" lon="8.55931">
        <ele>874</ele>
        <time>2021-08-10T13:17:47.591Z</time>
      </trkpt>
      <trkpt lat="46.90566" lon="8.55931">
        <ele>874</ele>
        <time>2021-08-10T13:17:48.592Z</time>
      </trkpt>
      <trkpt lat="46.90566" lon="8.55931">
        <ele>874</ele>
        <time>2021-08-10T13:17:49.591Z</time>
      </trkpt>
      <trkpt lat="46.90565" lon="8.55932">
        <ele>874</ele>
        <time>2021-08-10T13:17:50.592Z</time>
      </trkpt>
      <trkpt lat="46.90564" lon="8.55932">
        <ele>874</ele>
        <time>2021-08-10T13:17:51.592Z</time>
      </trkpt>
      <trkpt lat="46.90564" lon="8.55933">
        <ele>874</ele>
        <time>2021-08-10T13:17:52.592Z</time>
      </trkpt>
      <trkpt lat="46.90563" lon="8.55933">
        <ele>875</ele>
        <time>2021-08-10T13:17:53.592Z</time>
      </trkpt>
      <trkpt lat="46.90563" lon="8.55933">
        <ele>875</ele>
        <time>2021-08-10T13:17:54.591Z</time>
      </trkpt>
      <trkpt lat="46.90562" lon="8.55932">
        <ele>875</ele>
        <time>2021-08-10T13:17:55.592Z</time>
      </trkpt>
      <trkpt lat="46.90562" lon="8.55932">
        <ele>875</ele>
        <time>2021-08-10T13:17:56.592Z</time>
      </trkpt>
      <trkpt lat="46.90561" lon="8.55932">
        <ele>876</ele>
        <time>2021-08-10T13:17:57.592Z</time>
      </trkpt>
      <trkpt lat="46.90561" lon="8.55932">
        <ele>876</ele>
        <time>2021-08-10T13:17:58.592Z</time>
      </trkpt>
      <trkpt lat="46.9056" lon="8.55932">
        <ele>876</ele>
        <time>2021-08-10T13:17:59.592Z</time>
      </trkpt>
      <trkpt lat="46.9056" lon="8.55933">
        <ele>876</ele>
        <time>2021-08-10T13:18:00.591Z</time>
      </trkpt>
      <trkpt lat="46.90559" lon="8.55933">
        <ele>876</ele>
        <time>2021-08-10T13:18:01.592Z</time>
      </trkpt>
      <trkpt lat="46.90559" lon="8.55932">
        <ele>876</ele>
        <time>2021-08-10T13:18:02.591Z</time>
      </trkpt>
      <trkpt lat="46.90558" lon="8.55931">
        <ele>876</ele>
        <time>2021-08-10T13:18:03.592Z</time>
      </trkpt>
      <trkpt lat="46.90558" lon="8.5593">
        <ele>876</ele>
        <time>2021-08-10T13:18:04.592Z</time>
      </trkpt>
      <trkpt lat="46.90557" lon="8.5593">
        <ele>876</ele>
        <time>2021-08-10T13:18:05.592Z</time>
      </trkpt>
      <trkpt lat="46.90557" lon="8.55929">
        <ele>876</ele>
        <time>2021-08-10T13:18:06.592Z</time>
      </trkpt>
      <trkpt lat="46.90557" lon="8.55928">
        <ele>876</ele>
        <time>2021-08-10T13:18:07.591Z</time>
      </trkpt>
      <trkpt lat="46.90556" lon="8.55927">
        <ele>876</ele>
        <time>2021-08-10T13:18:08.592Z</time>
      </trkpt>
      <trkpt lat="46.90556" lon="8.55926">
        <ele>876</ele>
        <time>2021-08-10T13:18:09.592Z</time>
      </trkpt>
      <trkpt lat="46.90555" lon="8.55925">
        <ele>876</ele>
        <time>2021-08-10T13:18:10.591Z</time>
      </trkpt>
      <trkpt lat="46.90555" lon="8.55924">
        <ele>876</ele>
        <time>2021-08-10T13:18:11.592Z</time>
      </trkpt>
      <trkpt lat="46.90554" lon="8.55924">
        <ele>876</ele>
        <time>2021-08-10T13:18:12.592Z</time>
      </trkpt>
      <trkpt lat="46.90553" lon="8.55923">
        <ele>875</ele>
        <time>2021-08-10T13:18:13.592Z</time>
      </trkpt>
      <trkpt lat="46.90552" lon="8.55923">
        <ele>875</ele>
        <time>2021-08-10T13:18:14.591Z</time>
      </trkpt>
      <trkpt lat="46.90551" lon="8.55923">
        <ele>875</ele>
        <time>2021-08-10T13:18:15.592Z</time>
      </trkpt>
      <trkpt lat="46.9055" lon="8.55923">
        <ele>875</ele>
        <time>2021-08-10T13:18:16.592Z</time>
      </trkpt>
      <trkpt lat="46.90549" lon="8.55925">
        <ele>875</ele>
        <time>2021-08-10T13:18:17.592Z</time>
      </trkpt>
      <trkpt lat="46.90548" lon="8.55925">
        <ele>874</ele>
        <time>2021-08-10T13:18:18.591Z</time>
      </trkpt>
      <trkpt lat="46.90547" lon="8.55925">
        <ele>874</ele>
        <time>2021-08-10T13:18:19.592Z</time>
      </trkpt>
      <trkpt lat="46.90547" lon="8.55924">
        <ele>874</ele>
        <time>2021-08-10T13:18:20.592Z</time>
      </trkpt>
      <trkpt lat="46.90546" lon="8.55924">
        <ele>874</ele>
        <time>2021-08-10T13:18:21.591Z</time>
      </trkpt>
      <trkpt lat="46.90545" lon="8.55923">
        <ele>874</ele>
        <time>2021-08-10T13:18:22.592Z</time>
      </trkpt>
      <trkpt lat="46.90545" lon="8.55922">
        <ele>874</ele>
        <time>2021-08-10T13:18:23.592Z</time>
      </trkpt>
      <trkpt lat="46.90544" lon="8.55922">
        <ele>874</ele>
        <time>2021-08-10T13:18:24.591Z</time>
      </trkpt>
      <trkpt lat="46.90544" lon="8.55921">
        <ele>874</ele>
        <time>2021-08-10T13:18:25.591Z</time>
      </trkpt>
      <trkpt lat="46.90543" lon="8.5592">
        <ele>874</ele>
        <time>2021-08-10T13:18:26.591Z</time>
      </trkpt>
      <trkpt lat="46.90543" lon="8.55919">
        <ele>874</ele>
        <time>2021-08-10T13:18:27.592Z</time>
      </trkpt>
      <trkpt lat="46.90543" lon="8.55918">
        <ele>874</ele>
        <time>2021-08-10T13:18:28.591Z</time>
      </trkpt>
      <trkpt lat="46.90542" lon="8.55916">
        <ele>875</ele>
        <time>2021-08-10T13:18:29.592Z</time>
      </trkpt>
      <trkpt lat="46.90543" lon="8.55914">
        <ele>875</ele>
        <time>2021-08-10T13:18:30.592Z</time>
      </trkpt>
      <trkpt lat="46.90543" lon="8.55912">
        <ele>875</ele>
        <time>2021-08-10T13:18:31.592Z</time>
      </trkpt>
      <trkpt lat="46.90544" lon="8.55908">
        <ele>875</ele>
        <time>2021-08-10T13:18:32.592Z</time>
      </trkpt>
      <trkpt lat="46.90544" lon="8.55906">
        <ele>876</ele>
        <time>2021-08-10T13:18:33.592Z</time>
      </trkpt>
      <trkpt lat="46.90543" lon="8.55905">
        <ele>876</ele>
        <time>2021-08-10T13:18:34.592Z</time>
      </trkpt>
      <trkpt lat="46.90543" lon="8.55904">
        <ele>876</ele>
        <time>2021-08-10T13:18:35.592Z</time>
      </trkpt>
      <trkpt lat="46.90542" lon="8.55903">
        <ele>876</ele>
        <time>2021-08-10T13:18:36.592Z</time>
      </trkpt>
      <trkpt lat="46.90541" lon="8.55903">
        <ele>877</ele>
        <time>2021-08-10T13:18:37.592Z</time>
      </trkpt>
      <trkpt lat="46.90541" lon="8.55903">
        <ele>877</ele>
        <time>2021-08-10T13:18:38.591Z</time>
      </trkpt>
      <trkpt lat="46.9054" lon="8.55902">
        <ele>878</ele>
        <time>2021-08-10T13:18:39.591Z</time>
      </trkpt>
      <trkpt lat="46.90539" lon="8.55902">
        <ele>878</ele>
        <time>2021-08-10T13:18:40.591Z</time>
      </trkpt>
      <trkpt lat="46.90539" lon="8.55901">
        <ele>878</ele>
        <time>2021-08-10T13:18:41.592Z</time>
      </trkpt>
      <trkpt lat="46.90539" lon="8.55899">
        <ele>879</ele>
        <time>2021-08-10T13:18:42.592Z</time>
      </trkpt>
      <trkpt lat="46.90539" lon="8.55897">
        <ele>879</ele>
        <time>2021-08-10T13:18:43.592Z</time>
      </trkpt>
      <trkpt lat="46.90538" lon="8.55896">
        <ele>879</ele>
        <time>2021-08-10T13:18:44.591Z</time>
      </trkpt>
      <trkpt lat="46.90538" lon="8.55895">
        <ele>880</ele>
        <time>2021-08-10T13:18:45.592Z</time>
      </trkpt>
      <trkpt lat="46.90537" lon="8.55894">
        <ele>880</ele>
        <time>2021-08-10T13:18:46.592Z</time>
      </trkpt>
      <trkpt lat="46.90537" lon="8.55893">
        <ele>880</ele>
        <time>2021-08-10T13:18:47.592Z</time>
      </trkpt>
      <trkpt lat="46.90536" lon="8.55893">
        <ele>880</ele>
        <time>2021-08-10T13:18:48.592Z</time>
      </trkpt>
      <trkpt lat="46.90535" lon="8.55893">
        <ele>880</ele>
        <time>2021-08-10T13:18:49.592Z</time>
      </trkpt>
      <trkpt lat="46.90534" lon="8.55893">
        <ele>881</ele>
        <time>2021-08-10T13:18:50.592Z</time>
      </trkpt>
      <trkpt lat="46.90533" lon="8.55892">
        <ele>881</ele>
        <time>2021-08-10T13:18:51.592Z</time>
      </trkpt>
      <trkpt lat="46.90531" lon="8.55893">
        <ele>881</ele>
        <time>2021-08-10T13:18:52.592Z</time>
      </trkpt>
      <trkpt lat="46.9053" lon="8.55894">
        <ele>881</ele>
        <time>2021-08-10T13:18:53.591Z</time>
      </trkpt>
      <trkpt lat="46.90529" lon="8.55895">
        <ele>881</ele>
        <time>2021-08-10T13:18:54.592Z</time>
      </trkpt>
      <trkpt lat="46.90529" lon="8.55895">
        <ele>882</ele>
        <time>2021-08-10T13:18:55.592Z</time>
      </trkpt>
      <trkpt lat="46.90528" lon="8.55895">
        <ele>882</ele>
        <time>2021-08-10T13:18:56.592Z</time>
      </trkpt>
      <trkpt lat="46.90528" lon="8.55894">
        <ele>882</ele>
        <time>2021-08-10T13:18:57.591Z</time>
      </trkpt>
      <trkpt lat="46.90525" lon="8.55897">
        <ele>882</ele>
        <time>2021-08-10T13:18:58.591Z</time>
      </trkpt>
      <trkpt lat="46.90525" lon="8.55897">
        <ele>883</ele>
        <time>2021-08-10T13:18:59.592Z</time>
      </trkpt>
      <trkpt lat="46.90525" lon="8.55896">
        <ele>883</ele>
        <time>2021-08-10T13:19:00.592Z</time>
      </trkpt>
      <trkpt lat="46.90525" lon="8.55895">
        <ele>883</ele>
        <time>2021-08-10T13:19:01.591Z</time>
      </trkpt>
      <trkpt lat="46.90524" lon="8.55895">
        <ele>884</ele>
        <time>2021-08-10T13:19:02.592Z</time>
      </trkpt>
      <trkpt lat="46.90523" lon="8.55894">
        <ele>884</ele>
        <time>2021-08-10T13:19:03.592Z</time>
      </trkpt>
      <trkpt lat="46.90521" lon="8.55894">
        <ele>884</ele>
        <time>2021-08-10T13:19:04.591Z</time>
      </trkpt>
      <trkpt lat="46.9052" lon="8.55895">
        <ele>884</ele>
        <time>2021-08-10T13:19:05.592Z</time>
      </trkpt>
      <trkpt lat="46.90519" lon="8.55894">
        <ele>885</ele>
        <time>2021-08-10T13:19:06.591Z</time>
      </trkpt>
      <trkpt lat="46.90518" lon="8.55894">
        <ele>885</ele>
        <time>2021-08-10T13:19:07.592Z</time>
      </trkpt>
      <trkpt lat="46.90517" lon="8.55894">
        <ele>885</ele>
        <time>2021-08-10T13:19:08.592Z</time>
      </trkpt>
      <trkpt lat="46.90517" lon="8.55893">
        <ele>885</ele>
        <time>2021-08-10T13:19:09.591Z</time>
      </trkpt>
      <trkpt lat="46.90516" lon="8.55892">
        <ele>885</ele>
        <time>2021-08-10T13:19:10.592Z</time>
      </trkpt>
      <trkpt lat="46.90515" lon="8.55891">
        <ele>885</ele>
        <time>2021-08-10T13:19:11.592Z</time>
      </trkpt>
      <trkpt lat="46.90514" lon="8.55891">
        <ele>885</ele>
        <time>2021-08-10T13:19:12.592Z</time>
      </trkpt>
      <trkpt lat="46.90513" lon="8.55892">
        <ele>885</ele>
        <time>2021-08-10T13:19:13.592Z</time>
      </trkpt>
      <trkpt lat="46.90513" lon="8.55893">
        <ele>885</ele>
        <time>2021-08-10T13:19:14.592Z</time>
      </trkpt>
      <trkpt lat="46.90512" lon="8.55893">
        <ele>885</ele>
        <time>2021-08-10T13:19:15.592Z</time>
      </trkpt>
      <trkpt lat="46.90511" lon="8.55893">
        <ele>885</ele>
        <time>2021-08-10T13:19:16.592Z</time>
      </trkpt>
      <trkpt lat="46.90511" lon="8.55891">
        <ele>885</ele>
        <time>2021-08-10T13:19:17.592Z</time>
      </trkpt>
      <trkpt lat="46.9051" lon="8.55891">
        <ele>885</ele>
        <time>2021-08-10T13:19:20.729Z</time>
      </trkpt>
      <trkpt lat="46.9051" lon="8.5589">
        <ele>885</ele>
        <time>2021-08-10T13:19:21.728Z</time>
      </trkpt>
      <trkpt lat="46.90509" lon="8.5589">
        <ele>885</ele>
        <time>2021-08-10T13:19:22.729Z</time>
      </trkpt>
      <trkpt lat="46.90508" lon="8.55891">
        <ele>885</ele>
        <time>2021-08-10T13:19:23.728Z</time>
      </trkpt>
      <trkpt lat="46.90508" lon="8.55891">
        <ele>886</ele>
        <time>2021-08-10T13:19:24.728Z</time>
      </trkpt>
      <trkpt lat="46.90507" lon="8.55892">
        <ele>886</ele>
        <time>2021-08-10T13:19:25.728Z</time>
      </trkpt>
      <trkpt lat="46.90506" lon="8.55893">
        <ele>886</ele>
        <time>2021-08-10T13:19:26.729Z</time>
      </trkpt>
      <trkpt lat="46.90505" lon="8.55893">
        <ele>886</ele>
        <time>2021-08-10T13:19:27.728Z</time>
      </trkpt>
      <trkpt lat="46.90504" lon="8.55894">
        <ele>886</ele>
        <time>2021-08-10T13:19:28.728Z</time>
      </trkpt>
      <trkpt lat="46.90504" lon="8.55893">
        <ele>886</ele>
        <time>2021-08-10T13:19:29.729Z</time>
      </trkpt>
      <trkpt lat="46.90504" lon="8.55891">
        <ele>886</ele>
        <time>2021-08-10T13:19:30.729Z</time>
      </trkpt>
      <trkpt lat="46.90504" lon="8.5589">
        <ele>886</ele>
        <time>2021-08-10T13:19:31.728Z</time>
      </trkpt>
      <trkpt lat="46.90504" lon="8.5589">
        <ele>886</ele>
        <time>2021-08-10T13:19:32.728Z</time>
      </trkpt>
      <trkpt lat="46.90502" lon="8.55893">
        <ele>886</ele>
        <time>2021-08-10T13:19:33.728Z</time>
      </trkpt>
      <trkpt lat="46.905" lon="8.55895">
        <ele>886</ele>
        <time>2021-08-10T13:19:34.729Z</time>
      </trkpt>
      <trkpt lat="46.90499" lon="8.55896">
        <ele>886</ele>
        <time>2021-08-10T13:19:35.728Z</time>
      </trkpt>
      <trkpt lat="46.90498" lon="8.55896">
        <ele>886</ele>
        <time>2021-08-10T13:19:36.728Z</time>
      </trkpt>
      <trkpt lat="46.90497" lon="8.55894">
        <ele>886</ele>
        <time>2021-08-10T13:19:37.728Z</time>
      </trkpt>
      <trkpt lat="46.90497" lon="8.55893">
        <ele>886</ele>
        <time>2021-08-10T13:19:38.728Z</time>
      </trkpt>
      <trkpt lat="46.90497" lon="8.55893">
        <ele>885</ele>
        <time>2021-08-10T13:19:39.728Z</time>
      </trkpt>
      <trkpt lat="46.90496" lon="8.55893">
        <ele>885</ele>
        <time>2021-08-10T13:19:40.728Z</time>
      </trkpt>
      <trkpt lat="46.90496" lon="8.55893">
        <ele>884</ele>
        <time>2021-08-10T13:19:41.728Z</time>
      </trkpt>
      <trkpt lat="46.90495" lon="8.55894">
        <ele>884</ele>
        <time>2021-08-10T13:19:42.728Z</time>
      </trkpt>
      <trkpt lat="46.90494" lon="8.55893">
        <ele>884</ele>
        <time>2021-08-10T13:19:43.728Z</time>
      </trkpt>
      <trkpt lat="46.90493" lon="8.55892">
        <ele>884</ele>
        <time>2021-08-10T13:19:44.728Z</time>
      </trkpt>
      <trkpt lat="46.90492" lon="8.55893">
        <ele>884</ele>
        <time>2021-08-10T13:19:45.728Z</time>
      </trkpt>
      <trkpt lat="46.90491" lon="8.55894">
        <ele>884</ele>
        <time>2021-08-10T13:19:46.728Z</time>
      </trkpt>
      <trkpt lat="46.9049" lon="8.55894">
        <ele>884</ele>
        <time>2021-08-10T13:19:47.728Z</time>
      </trkpt>
      <trkpt lat="46.9049" lon="8.55894">
        <ele>884</ele>
        <time>2021-08-10T13:19:48.728Z</time>
      </trkpt>
      <trkpt lat="46.90489" lon="8.55893">
        <ele>884</ele>
        <time>2021-08-10T13:19:49.728Z</time>
      </trkpt>
      <trkpt lat="46.90489" lon="8.55892">
        <ele>885</ele>
        <time>2021-08-10T13:19:50.729Z</time>
      </trkpt>
      <trkpt lat="46.90488" lon="8.55891">
        <ele>885</ele>
        <time>2021-08-10T13:19:54.866Z</time>
      </trkpt>
      <trkpt lat="46.90488" lon="8.55891">
        <ele>886</ele>
        <time>2021-08-10T13:19:55.866Z</time>
      </trkpt>
      <trkpt lat="46.90487" lon="8.5589">
        <ele>887</ele>
        <time>2021-08-10T13:19:56.866Z</time>
      </trkpt>
      <trkpt lat="46.90486" lon="8.55891">
        <ele>887</ele>
        <time>2021-08-10T13:19:57.867Z</time>
      </trkpt>
      <trkpt lat="46.90486" lon="8.55892">
        <ele>888</ele>
        <time>2021-08-10T13:19:58.866Z</time>
      </trkpt>
      <trkpt lat="46.90486" lon="8.55893">
        <ele>888</ele>
        <time>2021-08-10T13:19:59.867Z</time>
      </trkpt>
      <trkpt lat="46.90485" lon="8.55894">
        <ele>888</ele>
        <time>2021-08-10T13:20:00.866Z</time>
      </trkpt>
      <trkpt lat="46.90484" lon="8.55895">
        <ele>888</ele>
        <time>2021-08-10T13:20:01.866Z</time>
      </trkpt>
      <trkpt lat="46.90482" lon="8.55895">
        <ele>888</ele>
        <time>2021-08-10T13:20:02.867Z</time>
      </trkpt>
      <trkpt lat="46.90482" lon="8.55895">
        <ele>888</ele>
        <time>2021-08-10T13:20:03.866Z</time>
      </trkpt>
      <trkpt lat="46.90481" lon="8.55895">
        <ele>887</ele>
        <time>2021-08-10T13:20:04.867Z</time>
      </trkpt>
      <trkpt lat="46.9048" lon="8.55895">
        <ele>887</ele>
        <time>2021-08-10T13:20:05.866Z</time>
      </trkpt>
      <trkpt lat="46.9048" lon="8.55895">
        <ele>887</ele>
        <time>2021-08-10T13:20:06.867Z</time>
      </trkpt>
      <trkpt lat="46.90479" lon="8.55895">
        <ele>887</ele>
        <time>2021-08-10T13:20:07.867Z</time>
      </trkpt>
      <trkpt lat="46.90478" lon="8.55894">
        <ele>887</ele>
        <time>2021-08-10T13:20:08.866Z</time>
      </trkpt>
      <trkpt lat="46.90477" lon="8.55894">
        <ele>888</ele>
        <time>2021-08-10T13:20:09.867Z</time>
      </trkpt>
      <trkpt lat="46.90477" lon="8.55894">
        <ele>888</ele>
        <time>2021-08-10T13:20:10.866Z</time>
      </trkpt>
      <trkpt lat="46.90477" lon="8.55895">
        <ele>888</ele>
        <time>2021-08-10T13:20:11.866Z</time>
      </trkpt>
      <trkpt lat="46.90476" lon="8.55895">
        <ele>888</ele>
        <time>2021-08-10T13:20:12.867Z</time>
      </trkpt>
      <trkpt lat="46.90475" lon="8.55896">
        <ele>888</ele>
        <time>2021-08-10T13:20:13.867Z</time>
      </trkpt>
      <trkpt lat="46.90474" lon="8.55895">
        <ele>888</ele>
        <time>2021-08-10T13:20:14.866Z</time>
      </trkpt>
      <trkpt lat="46.90473" lon="8.55896">
        <ele>888</ele>
        <time>2021-08-10T13:20:15.867Z</time>
      </trkpt>
      <trkpt lat="46.90472" lon="8.55896">
        <ele>888</ele>
        <time>2021-08-10T13:20:16.867Z</time>
      </trkpt>
      <trkpt lat="46.90472" lon="8.55896">
        <ele>888</ele>
        <time>2021-08-10T13:20:17.867Z</time>
      </trkpt>
      <trkpt lat="46.90471" lon="8.55896">
        <ele>887</ele>
        <time>2021-08-10T13:20:18.867Z</time>
      </trkpt>
      <trkpt lat="46.90471" lon="8.55896">
        <ele>887</ele>
        <time>2021-08-10T13:20:19.866Z</time>
      </trkpt>
      <trkpt lat="46.9047" lon="8.55895">
        <ele>887</ele>
        <time>2021-08-10T13:20:20.867Z</time>
      </trkpt>
      <trkpt lat="46.90469" lon="8.55895">
        <ele>887</ele>
        <time>2021-08-10T13:20:21.867Z</time>
      </trkpt>
      <trkpt lat="46.90469" lon="8.55895">
        <ele>886</ele>
        <time>2021-08-10T13:20:22.867Z</time>
      </trkpt>
      <trkpt lat="46.90468" lon="8.55895">
        <ele>886</ele>
        <time>2021-08-10T13:20:23.867Z</time>
      </trkpt>
      <trkpt lat="46.90467" lon="8.55895">
        <ele>886</ele>
        <time>2021-08-10T13:20:24.867Z</time>
      </trkpt>
      <trkpt lat="46.90467" lon="8.55897">
        <ele>885</ele>
        <time>2021-08-10T13:20:25.867Z</time>
      </trkpt>
      <trkpt lat="46.90466" lon="8.55897">
        <ele>885</ele>
        <time>2021-08-10T13:20:26.867Z</time>
      </trkpt>
      <trkpt lat="46.90465" lon="8.55897">
        <ele>885</ele>
        <time>2021-08-10T13:20:27.866Z</time>
      </trkpt>
      <trkpt lat="46.90464" lon="8.55898">
        <ele>884</ele>
        <time>2021-08-10T13:20:28.866Z</time>
      </trkpt>
      <trkpt lat="46.90464" lon="8.55898">
        <ele>884</ele>
        <time>2021-08-10T13:20:29.867Z</time>
      </trkpt>
      <trkpt lat="46.90463" lon="8.55898">
        <ele>884</ele>
        <time>2021-08-10T13:20:30.867Z</time>
      </trkpt>
      <trkpt lat="46.90462" lon="8.55897">
        <ele>884</ele>
        <time>2021-08-10T13:20:31.867Z</time>
      </trkpt>
      <trkpt lat="46.90461" lon="8.55897">
        <ele>884</ele>
        <time>2021-08-10T13:20:32.867Z</time>
      </trkpt>
      <trkpt lat="46.90461" lon="8.55897">
        <ele>884</ele>
        <time>2021-08-10T13:20:33.867Z</time>
      </trkpt>
      <trkpt lat="46.9046" lon="8.55897">
        <ele>884</ele>
        <time>2021-08-10T13:20:34.867Z</time>
      </trkpt>
      <trkpt lat="46.90459" lon="8.55898">
        <ele>884</ele>
        <time>2021-08-10T13:20:35.867Z</time>
      </trkpt>
      <trkpt lat="46.90459" lon="8.55898">
        <ele>884</ele>
        <time>2021-08-10T13:20:36.866Z</time>
      </trkpt>
      <trkpt lat="46.90458" lon="8.55898">
        <ele>884</ele>
        <time>2021-08-10T13:20:37.866Z</time>
      </trkpt>
      <trkpt lat="46.90457" lon="8.55898">
        <ele>884</ele>
        <time>2021-08-10T13:20:38.867Z</time>
      </trkpt>
      <trkpt lat="46.90457" lon="8.55898">
        <ele>884</ele>
        <time>2021-08-10T13:20:39.866Z</time>
      </trkpt>
      <trkpt lat="46.90456" lon="8.55898">
        <ele>884</ele>
        <time>2021-08-10T13:20:40.866Z</time>
      </trkpt>
      <trkpt lat="46.90456" lon="8.55898">
        <ele>885</ele>
        <time>2021-08-10T13:20:41.866Z</time>
      </trkpt>
      <trkpt lat="46.90455" lon="8.55898">
        <ele>885</ele>
        <time>2021-08-10T13:20:42.867Z</time>
      </trkpt>
      <trkpt lat="46.90454" lon="8.55898">
        <ele>885</ele>
        <time>2021-08-10T13:20:43.867Z</time>
      </trkpt>
      <trkpt lat="46.90453" lon="8.55898">
        <ele>886</ele>
        <time>2021-08-10T13:20:44.867Z</time>
      </trkpt>
      <trkpt lat="46.90453" lon="8.55897">
        <ele>886</ele>
        <time>2021-08-10T13:20:45.867Z</time>
      </trkpt>
      <trkpt lat="46.90452" lon="8.55897">
        <ele>886</ele>
        <time>2021-08-10T13:20:46.867Z</time>
      </trkpt>
      <trkpt lat="46.90451" lon="8.55898">
        <ele>886</ele>
        <time>2021-08-10T13:20:47.866Z</time>
      </trkpt>
      <trkpt lat="46.90451" lon="8.55898">
        <ele>886</ele>
        <time>2021-08-10T13:20:49.942Z</time>
      </trkpt>
      <trkpt lat="46.9045" lon="8.55898">
        <ele>886</ele>
        <time>2021-08-10T13:20:50.942Z</time>
      </trkpt>
      <trkpt lat="46.9045" lon="8.55898">
        <ele>886</ele>
        <time>2021-08-10T13:20:51.941Z</time>
      </trkpt>
      <trkpt lat="46.9045" lon="8.55899">
        <ele>886</ele>
        <time>2021-08-10T13:20:52.942Z</time>
      </trkpt>
      <trkpt lat="46.9045" lon="8.55899">
        <ele>886</ele>
        <time>2021-08-10T13:20:53.941Z</time>
      </trkpt>
      <trkpt lat="46.90448" lon="8.55898">
        <ele>886</ele>
        <time>2021-08-10T13:20:54.942Z</time>
      </trkpt>
      <trkpt lat="46.90447" lon="8.55898">
        <ele>887</ele>
        <time>2021-08-10T13:20:55.942Z</time>
      </trkpt>
      <trkpt lat="46.90446" lon="8.55897">
        <ele>887</ele>
        <time>2021-08-10T13:20:56.941Z</time>
      </trkpt>
      <trkpt lat="46.90445" lon="8.55897">
        <ele>888</ele>
        <time>2021-08-10T13:20:57.942Z</time>
      </trkpt>
      <trkpt lat="46.90445" lon="8.55897">
        <ele>888</ele>
        <time>2021-08-10T13:20:58.941Z</time>
      </trkpt>
      <trkpt lat="46.90444" lon="8.55897">
        <ele>889</ele>
        <time>2021-08-10T13:20:59.941Z</time>
      </trkpt>
      <trkpt lat="46.90444" lon="8.55897">
        <ele>889</ele>
        <time>2021-08-10T13:21:07.001Z</time>
      </trkpt>
      <trkpt lat="46.90444" lon="8.55897">
        <ele>889</ele>
        <time>2021-08-10T13:21:08.000Z</time>
      </trkpt>
      <trkpt lat="46.90443" lon="8.55896">
        <ele>890</ele>
        <time>2021-08-10T13:21:09.002Z</time>
      </trkpt>
      <trkpt lat="46.90442" lon="8.55896">
        <ele>890</ele>
        <time>2021-08-10T13:21:10.002Z</time>
      </trkpt>
      <trkpt lat="46.90441" lon="8.55895">
        <ele>891</ele>
        <time>2021-08-10T13:21:11.002Z</time>
      </trkpt>
      <trkpt lat="46.9044" lon="8.55895">
        <ele>891</ele>
        <time>2021-08-10T13:21:12.002Z</time>
      </trkpt>
      <trkpt lat="46.90439" lon="8.55895">
        <ele>891</ele>
        <time>2021-08-10T13:21:13.002Z</time>
      </trkpt>
      <trkpt lat="46.90438" lon="8.55895">
        <ele>891</ele>
        <time>2021-08-10T13:21:14.002Z</time>
      </trkpt>
      <trkpt lat="46.90437" lon="8.55895">
        <ele>891</ele>
        <time>2021-08-10T13:21:15.002Z</time>
      </trkpt>
      <trkpt lat="46.90436" lon="8.55895">
        <ele>891</ele>
        <time>2021-08-10T13:21:16.001Z</time>
      </trkpt>
      <trkpt lat="46.90436" lon="8.55895">
        <ele>891</ele>
        <time>2021-08-10T13:21:17.002Z</time>
      </trkpt>
      <trkpt lat="46.90435" lon="8.55895">
        <ele>891</ele>
        <time>2021-08-10T13:21:18.001Z</time>
      </trkpt>
      <trkpt lat="46.90435" lon="8.55895">
        <ele>891</ele>
        <time>2021-08-10T13:21:19.002Z</time>
      </trkpt>
      <trkpt lat="46.90434" lon="8.55895">
        <ele>891</ele>
        <time>2021-08-10T13:21:23.089Z</time>
      </trkpt>
      <trkpt lat="46.90433" lon="8.55894">
        <ele>891</ele>
        <time>2021-08-10T13:21:24.090Z</time>
      </trkpt>
      <trkpt lat="46.90433" lon="8.55894">
        <ele>891</ele>
        <time>2021-08-10T13:21:25.089Z</time>
      </trkpt>
      <trkpt lat="46.90432" lon="8.55894">
        <ele>891</ele>
        <time>2021-08-10T13:21:26.089Z</time>
      </trkpt>
      <trkpt lat="46.90432" lon="8.55894">
        <ele>891</ele>
        <time>2021-08-10T13:21:27.090Z</time>
      </trkpt>
      <trkpt lat="46.90431" lon="8.55894">
        <ele>891</ele>
        <time>2021-08-10T13:21:28.089Z</time>
      </trkpt>
      <trkpt lat="46.9043" lon="8.55894">
        <ele>891</ele>
        <time>2021-08-10T13:21:29.090Z</time>
      </trkpt>
      <trkpt lat="46.9043" lon="8.55894">
        <ele>891</ele>
        <time>2021-08-10T13:21:30.090Z</time>
      </trkpt>
      <trkpt lat="46.90429" lon="8.55893">
        <ele>891</ele>
        <time>2021-08-10T13:21:31.090Z</time>
      </trkpt>
      <trkpt lat="46.90428" lon="8.55893">
        <ele>891</ele>
        <time>2021-08-10T13:21:32.089Z</time>
      </trkpt>
      <trkpt lat="46.90427" lon="8.55892">
        <ele>891</ele>
        <time>2021-08-10T13:21:33.090Z</time>
      </trkpt>
      <trkpt lat="46.90426" lon="8.55892">
        <ele>892</ele>
        <time>2021-08-10T13:21:34.090Z</time>
      </trkpt>
      <trkpt lat="46.90425" lon="8.55892">
        <ele>892</ele>
        <time>2021-08-10T13:21:35.090Z</time>
      </trkpt>
      <trkpt lat="46.90424" lon="8.55891">
        <ele>892</ele>
        <time>2021-08-10T13:21:36.090Z</time>
      </trkpt>
      <trkpt lat="46.90423" lon="8.55891">
        <ele>892</ele>
        <time>2021-08-10T13:21:37.090Z</time>
      </trkpt>
      <trkpt lat="46.90422" lon="8.55891">
        <ele>893</ele>
        <time>2021-08-10T13:21:38.090Z</time>
      </trkpt>
      <trkpt lat="46.90422" lon="8.55891">
        <ele>893</ele>
        <time>2021-08-10T13:21:39.089Z</time>
      </trkpt>
      <trkpt lat="46.90421" lon="8.55891">
        <ele>893</ele>
        <time>2021-08-10T13:21:40.089Z</time>
      </trkpt>
      <trkpt lat="46.9042" lon="8.55892">
        <ele>894</ele>
        <time>2021-08-10T13:21:41.090Z</time>
      </trkpt>
      <trkpt lat="46.9042" lon="8.55892">
        <ele>894</ele>
        <time>2021-08-10T13:21:42.089Z</time>
      </trkpt>
      <trkpt lat="46.90419" lon="8.55893">
        <ele>894</ele>
        <time>2021-08-10T13:21:43.090Z</time>
      </trkpt>
      <trkpt lat="46.90419" lon="8.55893">
        <ele>895</ele>
        <time>2021-08-10T13:21:44.090Z</time>
      </trkpt>
      <trkpt lat="46.90418" lon="8.55894">
        <ele>895</ele>
        <time>2021-08-10T13:21:45.090Z</time>
      </trkpt>
      <trkpt lat="46.90418" lon="8.55894">
        <ele>894</ele>
        <time>2021-08-10T13:21:46.090Z</time>
      </trkpt>
      <trkpt lat="46.90418" lon="8.55894">
        <ele>894</ele>
        <time>2021-08-10T13:21:47.090Z</time>
      </trkpt>
      <trkpt lat="46.90417" lon="8.55894">
        <ele>894</ele>
        <time>2021-08-10T13:21:48.090Z</time>
      </trkpt>
      <trkpt lat="46.90416" lon="8.55894">
        <ele>894</ele>
        <time>2021-08-10T13:21:49.089Z</time>
      </trkpt>
      <trkpt lat="46.90415" lon="8.55894">
        <ele>895</ele>
        <time>2021-08-10T13:21:50.090Z</time>
      </trkpt>
      <trkpt lat="46.90415" lon="8.55894">
        <ele>895</ele>
        <time>2021-08-10T13:21:51.089Z</time>
      </trkpt>
      <trkpt lat="46.90413" lon="8.55894">
        <ele>895</ele>
        <time>2021-08-10T13:21:52.089Z</time>
      </trkpt>
      <trkpt lat="46.90412" lon="8.55895">
        <ele>895</ele>
        <time>2021-08-10T13:21:53.090Z</time>
      </trkpt>
      <trkpt lat="46.9041" lon="8.55895">
        <ele>896</ele>
        <time>2021-08-10T13:21:54.090Z</time>
      </trkpt>
      <trkpt lat="46.9041" lon="8.55894">
        <ele>896</ele>
        <time>2021-08-10T13:21:55.090Z</time>
      </trkpt>
      <trkpt lat="46.90409" lon="8.55894">
        <ele>896</ele>
        <time>2021-08-10T13:21:56.090Z</time>
      </trkpt>
      <trkpt lat="46.90409" lon="8.55894">
        <ele>896</ele>
        <time>2021-08-10T13:21:57.090Z</time>
      </trkpt>
      <trkpt lat="46.90408" lon="8.55894">
        <ele>897</ele>
        <time>2021-08-10T13:21:58.089Z</time>
      </trkpt>
      <trkpt lat="46.90407" lon="8.55894">
        <ele>897</ele>
        <time>2021-08-10T13:21:59.089Z</time>
      </trkpt>
      <trkpt lat="46.90406" lon="8.55894">
        <ele>897</ele>
        <time>2021-08-10T13:22:00.089Z</time>
      </trkpt>
      <trkpt lat="46.90406" lon="8.55894">
        <ele>897</ele>
        <time>2021-08-10T13:22:01.089Z</time>
      </trkpt>
      <trkpt lat="46.90406" lon="8.55894">
        <ele>898</ele>
        <time>2021-08-10T13:22:02.089Z</time>
      </trkpt>
      <trkpt lat="46.90406" lon="8.55895">
        <ele>898</ele>
        <time>2021-08-10T13:22:03.089Z</time>
      </trkpt>
      <trkpt lat="46.90406" lon="8.55895">
        <ele>898</ele>
        <time>2021-08-10T13:22:04.089Z</time>
      </trkpt>
      <trkpt lat="46.90405" lon="8.55895">
        <ele>898</ele>
        <time>2021-08-10T13:22:05.089Z</time>
      </trkpt>
      <trkpt lat="46.90405" lon="8.55895">
        <ele>897</ele>
        <time>2021-08-10T13:22:08.227Z</time>
      </trkpt>
      <trkpt lat="46.90404" lon="8.55894">
        <ele>897</ele>
        <time>2021-08-10T13:22:09.228Z</time>
      </trkpt>
      <trkpt lat="46.90403" lon="8.55895">
        <ele>897</ele>
        <time>2021-08-10T13:22:10.228Z</time>
      </trkpt>
      <trkpt lat="46.90403" lon="8.55895">
        <ele>898</ele>
        <time>2021-08-10T13:22:11.228Z</time>
      </trkpt>
      <trkpt lat="46.90402" lon="8.55895">
        <ele>898</ele>
        <time>2021-08-10T13:22:12.228Z</time>
      </trkpt>
      <trkpt lat="46.90402" lon="8.55895">
        <ele>898</ele>
        <time>2021-08-10T13:22:13.228Z</time>
      </trkpt>
      <trkpt lat="46.90401" lon="8.55895">
        <ele>898</ele>
        <time>2021-08-10T13:22:14.228Z</time>
      </trkpt>
      <trkpt lat="46.904" lon="8.55895">
        <ele>898</ele>
        <time>2021-08-10T13:22:15.228Z</time>
      </trkpt>
      <trkpt lat="46.90399" lon="8.55895">
        <ele>897</ele>
        <time>2021-08-10T13:22:16.228Z</time>
      </trkpt>
      <trkpt lat="46.90398" lon="8.55895">
        <ele>897</ele>
        <time>2021-08-10T13:22:17.228Z</time>
      </trkpt>
      <trkpt lat="46.90398" lon="8.55895">
        <ele>897</ele>
        <time>2021-08-10T13:22:18.227Z</time>
      </trkpt>
      <trkpt lat="46.90397" lon="8.55894">
        <ele>897</ele>
        <time>2021-08-10T13:22:19.228Z</time>
      </trkpt>
      <trkpt lat="46.90397" lon="8.55894">
        <ele>897</ele>
        <time>2021-08-10T13:22:20.228Z</time>
      </trkpt>
      <trkpt lat="46.90396" lon="8.55894">
        <ele>897</ele>
        <time>2021-08-10T13:22:21.228Z</time>
      </trkpt>
      <trkpt lat="46.90395" lon="8.55894">
        <ele>897</ele>
        <time>2021-08-10T13:22:22.228Z</time>
      </trkpt>
      <trkpt lat="46.90395" lon="8.55894">
        <ele>896</ele>
        <time>2021-08-10T13:22:23.228Z</time>
      </trkpt>
      <trkpt lat="46.90394" lon="8.55895">
        <ele>896</ele>
        <time>2021-08-10T13:22:24.228Z</time>
      </trkpt>
      <trkpt lat="46.90393" lon="8.55895">
        <ele>896</ele>
        <time>2021-08-10T13:22:25.228Z</time>
      </trkpt>
      <trkpt lat="46.90393" lon="8.55895">
        <ele>896</ele>
        <time>2021-08-10T13:22:26.228Z</time>
      </trkpt>
      <trkpt lat="46.90392" lon="8.55894">
        <ele>896</ele>
        <time>2021-08-10T13:22:27.228Z</time>
      </trkpt>
      <trkpt lat="46.90391" lon="8.55894">
        <ele>895</ele>
        <time>2021-08-10T13:22:28.228Z</time>
      </trkpt>
      <trkpt lat="46.90391" lon="8.55894">
        <ele>895</ele>
        <time>2021-08-10T13:22:29.227Z</time>
      </trkpt>
      <trkpt lat="46.9039" lon="8.55894">
        <ele>896</ele>
        <time>2021-08-10T13:22:30.228Z</time>
      </trkpt>
      <trkpt lat="46.9039" lon="8.55894">
        <ele>896</ele>
        <time>2021-08-10T13:22:31.227Z</time>
      </trkpt>
      <trkpt lat="46.90389" lon="8.55894">
        <ele>896</ele>
        <time>2021-08-10T13:22:32.228Z</time>
      </trkpt>
      <trkpt lat="46.90389" lon="8.55893">
        <ele>896</ele>
        <time>2021-08-10T13:22:33.228Z</time>
      </trkpt>
      <trkpt lat="46.90389" lon="8.55893">
        <ele>897</ele>
        <time>2021-08-10T13:22:34.227Z</time>
      </trkpt>
      <trkpt lat="46.90389" lon="8.55893">
        <ele>898</ele>
        <time>2021-08-10T13:22:35.227Z</time>
      </trkpt>
      <trkpt lat="46.90388" lon="8.55893">
        <ele>899</ele>
        <time>2021-08-10T13:22:36.228Z</time>
      </trkpt>
      <trkpt lat="46.90387" lon="8.55893">
        <ele>899</ele>
        <time>2021-08-10T13:22:37.228Z</time>
      </trkpt>
      <trkpt lat="46.90387" lon="8.55893">
        <ele>900</ele>
        <time>2021-08-10T13:22:38.227Z</time>
      </trkpt>
      <trkpt lat="46.90386" lon="8.55893">
        <ele>900</ele>
        <time>2021-08-10T13:22:39.228Z</time>
      </trkpt>
      <trkpt lat="46.90385" lon="8.55893">
        <ele>900</ele>
        <time>2021-08-10T13:22:40.228Z</time>
      </trkpt>
      <trkpt lat="46.90385" lon="8.55893">
        <ele>901</ele>
        <time>2021-08-10T13:22:41.227Z</time>
      </trkpt>
      <trkpt lat="46.90385" lon="8.55893">
        <ele>901</ele>
        <time>2021-08-10T13:22:42.228Z</time>
      </trkpt>
      <trkpt lat="46.90384" lon="8.55893">
        <ele>902</ele>
        <time>2021-08-10T13:22:43.228Z</time>
      </trkpt>
      <trkpt lat="46.90383" lon="8.55893">
        <ele>902</ele>
        <time>2021-08-10T13:22:44.228Z</time>
      </trkpt>
      <trkpt lat="46.90381" lon="8.55893">
        <ele>903</ele>
        <time>2021-08-10T13:22:45.228Z</time>
      </trkpt>
      <trkpt lat="46.9038" lon="8.55893">
        <ele>903</ele>
        <time>2021-08-10T13:22:46.228Z</time>
      </trkpt>
      <trkpt lat="46.9038" lon="8.55893">
        <ele>903</ele>
        <time>2021-08-10T13:22:47.228Z</time>
      </trkpt>
      <trkpt lat="46.9038" lon="8.55892">
        <ele>904</ele>
        <time>2021-08-10T13:22:48.228Z</time>
      </trkpt>
      <trkpt lat="46.90379" lon="8.55892">
        <ele>904</ele>
        <time>2021-08-10T13:22:49.228Z</time>
      </trkpt>
      <trkpt lat="46.90379" lon="8.55892">
        <ele>904</ele>
        <time>2021-08-10T13:22:50.227Z</time>
      </trkpt>
      <trkpt lat="46.90378" lon="8.55892">
        <ele>905</ele>
        <time>2021-08-10T13:22:51.228Z</time>
      </trkpt>
      <trkpt lat="46.90377" lon="8.55892">
        <ele>905</ele>
        <time>2021-08-10T13:22:52.228Z</time>
      </trkpt>
      <trkpt lat="46.90376" lon="8.55891">
        <ele>905</ele>
        <time>2021-08-10T13:22:53.228Z</time>
      </trkpt>
      <trkpt lat="46.90376" lon="8.5589">
        <ele>905</ele>
        <time>2021-08-10T13:22:54.227Z</time>
      </trkpt>
      <trkpt lat="46.90375" lon="8.5589">
        <ele>905</ele>
        <time>2021-08-10T13:22:55.228Z</time>
      </trkpt>
      <trkpt lat="46.90375" lon="8.5589">
        <ele>905</ele>
        <time>2021-08-10T13:22:56.228Z</time>
      </trkpt>
      <trkpt lat="46.90374" lon="8.5589">
        <ele>905</ele>
        <time>2021-08-10T13:22:57.228Z</time>
      </trkpt>
      <trkpt lat="46.90374" lon="8.55889">
        <ele>905</ele>
        <time>2021-08-10T13:22:58.227Z</time>
      </trkpt>
      <trkpt lat="46.90373" lon="8.55889">
        <ele>905</ele>
        <time>2021-08-10T13:23:01.330Z</time>
      </trkpt>
      <trkpt lat="46.90373" lon="8.55889">
        <ele>905</ele>
        <time>2021-08-10T13:23:02.329Z</time>
      </trkpt>
      <trkpt lat="46.90372" lon="8.55889">
        <ele>905</ele>
        <time>2021-08-10T13:23:03.330Z</time>
      </trkpt>
      <trkpt lat="46.90372" lon="8.55888">
        <ele>906</ele>
        <time>2021-08-10T13:23:04.330Z</time>
      </trkpt>
      <trkpt lat="46.90371" lon="8.55887">
        <ele>906</ele>
        <time>2021-08-10T13:23:05.329Z</time>
      </trkpt>
      <trkpt lat="46.90369" lon="8.55886">
        <ele>906</ele>
        <time>2021-08-10T13:23:06.330Z</time>
      </trkpt>
      <trkpt lat="46.90368" lon="8.55885">
        <ele>907</ele>
        <time>2021-08-10T13:23:07.329Z</time>
      </trkpt>
      <trkpt lat="46.90367" lon="8.55884">
        <ele>907</ele>
        <time>2021-08-10T13:23:08.330Z</time>
      </trkpt>
      <trkpt lat="46.90367" lon="8.55883">
        <ele>907</ele>
        <time>2021-08-10T13:23:09.329Z</time>
      </trkpt>
      <trkpt lat="46.90367" lon="8.55882">
        <ele>908</ele>
        <time>2021-08-10T13:23:10.330Z</time>
      </trkpt>
      <trkpt lat="46.90366" lon="8.55882">
        <ele>908</ele>
        <time>2021-08-10T13:23:11.329Z</time>
      </trkpt>
      <trkpt lat="46.90365" lon="8.55882">
        <ele>908</ele>
        <time>2021-08-10T13:23:12.330Z</time>
      </trkpt>
      <trkpt lat="46.90364" lon="8.55882">
        <ele>908</ele>
        <time>2021-08-10T13:23:13.330Z</time>
      </trkpt>
      <trkpt lat="46.90364" lon="8.55881">
        <ele>908</ele>
        <time>2021-08-10T13:23:14.329Z</time>
      </trkpt>
      <trkpt lat="46.90363" lon="8.55881">
        <ele>908</ele>
        <time>2021-08-10T13:23:18.345Z</time>
      </trkpt>
      <trkpt lat="46.90362" lon="8.5588">
        <ele>908</ele>
        <time>2021-08-10T13:23:19.345Z</time>
      </trkpt>
      <trkpt lat="46.90362" lon="8.5588">
        <ele>908</ele>
        <time>2021-08-10T13:23:20.345Z</time>
      </trkpt>
      <trkpt lat="46.90361" lon="8.55879">
        <ele>908</ele>
        <time>2021-08-10T13:23:21.344Z</time>
      </trkpt>
      <trkpt lat="46.90361" lon="8.55879">
        <ele>908</ele>
        <time>2021-08-10T13:23:22.344Z</time>
      </trkpt>
      <trkpt lat="46.90361" lon="8.55879">
        <ele>908</ele>
        <time>2021-08-10T13:23:23.345Z</time>
      </trkpt>
      <trkpt lat="46.90361" lon="8.55879">
        <ele>909</ele>
        <time>2021-08-10T13:23:27.367Z</time>
      </trkpt>
      <trkpt lat="46.9036" lon="8.55878">
        <ele>909</ele>
        <time>2021-08-10T13:23:28.368Z</time>
      </trkpt>
      <trkpt lat="46.90359" lon="8.55878">
        <ele>910</ele>
        <time>2021-08-10T13:23:29.367Z</time>
      </trkpt>
      <trkpt lat="46.90358" lon="8.55878">
        <ele>910</ele>
        <time>2021-08-10T13:23:30.368Z</time>
      </trkpt>
      <trkpt lat="46.90357" lon="8.55878">
        <ele>910</ele>
        <time>2021-08-10T13:23:31.368Z</time>
      </trkpt>
      <trkpt lat="46.90357" lon="8.55878">
        <ele>910</ele>
        <time>2021-08-10T13:23:32.367Z</time>
      </trkpt>
      <trkpt lat="46.90357" lon="8.55878">
        <ele>910</ele>
        <time>2021-08-10T13:23:33.368Z</time>
      </trkpt>
      <trkpt lat="46.90356" lon="8.55878">
        <ele>911</ele>
        <time>2021-08-10T13:23:34.368Z</time>
      </trkpt>
      <trkpt lat="46.90356" lon="8.55878">
        <ele>911</ele>
        <time>2021-08-10T13:23:35.367Z</time>
      </trkpt>
      <trkpt lat="46.90355" lon="8.55878">
        <ele>912</ele>
        <time>2021-08-10T13:23:36.367Z</time>
      </trkpt>
      <trkpt lat="46.90355" lon="8.55878">
        <ele>912</ele>
        <time>2021-08-10T13:23:37.368Z</time>
      </trkpt>
      <trkpt lat="46.90354" lon="8.55878">
        <ele>913</ele>
        <time>2021-08-10T13:23:38.368Z</time>
      </trkpt>
      <trkpt lat="46.90353" lon="8.55878">
        <ele>913</ele>
        <time>2021-08-10T13:23:39.368Z</time>
      </trkpt>
      <trkpt lat="46.90353" lon="8.55877">
        <ele>913</ele>
        <time>2021-08-10T13:23:40.368Z</time>
      </trkpt>
      <trkpt lat="46.90352" lon="8.55877">
        <ele>913</ele>
        <time>2021-08-10T13:23:41.367Z</time>
      </trkpt>
      <trkpt lat="46.90351" lon="8.55876">
        <ele>913</ele>
        <time>2021-08-10T13:23:42.368Z</time>
      </trkpt>
      <trkpt lat="46.9035" lon="8.55876">
        <ele>913</ele>
        <time>2021-08-10T13:23:43.367Z</time>
      </trkpt>
      <trkpt lat="46.9035" lon="8.55877">
        <ele>913</ele>
        <time>2021-08-10T13:23:44.368Z</time>
      </trkpt>
      <trkpt lat="46.90349" lon="8.55876">
        <ele>913</ele>
        <time>2021-08-10T13:23:45.368Z</time>
      </trkpt>
      <trkpt lat="46.90349" lon="8.55875">
        <ele>913</ele>
        <time>2021-08-10T13:23:46.367Z</time>
      </trkpt>
      <trkpt lat="46.90349" lon="8.55875">
        <ele>913</ele>
        <time>2021-08-10T13:23:47.367Z</time>
      </trkpt>
      <trkpt lat="46.90348" lon="8.55874">
        <ele>913</ele>
        <time>2021-08-10T13:23:50.459Z</time>
      </trkpt>
      <trkpt lat="46.90349" lon="8.55874">
        <ele>913</ele>
        <time>2021-08-10T13:23:51.459Z</time>
      </trkpt>
      <trkpt lat="46.90347" lon="8.55873">
        <ele>915</ele>
        <time>2021-08-10T13:23:52.460Z</time>
      </trkpt>
      <trkpt lat="46.90347" lon="8.55872">
        <ele>915</ele>
        <time>2021-08-10T13:23:53.459Z</time>
      </trkpt>
      <trkpt lat="46.90346" lon="8.55872">
        <ele>915</ele>
        <time>2021-08-10T13:23:54.460Z</time>
      </trkpt>
      <trkpt lat="46.90345" lon="8.55871">
        <ele>916</ele>
        <time>2021-08-10T13:23:55.460Z</time>
      </trkpt>
      <trkpt lat="46.90343" lon="8.55871">
        <ele>916</ele>
        <time>2021-08-10T13:23:56.460Z</time>
      </trkpt>
      <trkpt lat="46.90342" lon="8.55871">
        <ele>916</ele>
        <time>2021-08-10T13:23:57.460Z</time>
      </trkpt>
      <trkpt lat="46.9034" lon="8.55871">
        <ele>916</ele>
        <time>2021-08-10T13:23:58.460Z</time>
      </trkpt>
      <trkpt lat="46.90339" lon="8.55872">
        <ele>916</ele>
        <time>2021-08-10T13:23:59.459Z</time>
      </trkpt>
      <trkpt lat="46.90338" lon="8.55873">
        <ele>916</ele>
        <time>2021-08-10T13:24:00.460Z</time>
      </trkpt>
      <trkpt lat="46.90337" lon="8.55873">
        <ele>916</ele>
        <time>2021-08-10T13:24:01.459Z</time>
      </trkpt>
      <trkpt lat="46.90336" lon="8.55874">
        <ele>916</ele>
        <time>2021-08-10T13:24:02.460Z</time>
      </trkpt>
      <trkpt lat="46.90337" lon="8.55874">
        <ele>916</ele>
        <time>2021-08-10T13:24:03.460Z</time>
      </trkpt>
      <trkpt lat="46.90337" lon="8.55874">
        <ele>915</ele>
        <time>2021-08-10T13:24:04.460Z</time>
      </trkpt>
      <trkpt lat="46.90336" lon="8.55874">
        <ele>915</ele>
        <time>2021-08-10T13:24:05.460Z</time>
      </trkpt>
      <trkpt lat="46.90335" lon="8.55873">
        <ele>915</ele>
        <time>2021-08-10T13:24:06.459Z</time>
      </trkpt>
      <trkpt lat="46.90334" lon="8.55873">
        <ele>915</ele>
        <time>2021-08-10T13:24:07.460Z</time>
      </trkpt>
      <trkpt lat="46.90333" lon="8.55873">
        <ele>915</ele>
        <time>2021-08-10T13:24:08.460Z</time>
      </trkpt>
      <trkpt lat="46.90333" lon="8.55874">
        <ele>915</ele>
        <time>2021-08-10T13:24:09.460Z</time>
      </trkpt>
      <trkpt lat="46.90332" lon="8.55874">
        <ele>915</ele>
        <time>2021-08-10T13:24:10.460Z</time>
      </trkpt>
      <trkpt lat="46.90331" lon="8.55874">
        <ele>915</ele>
        <time>2021-08-10T13:24:11.460Z</time>
      </trkpt>
      <trkpt lat="46.90331" lon="8.55874">
        <ele>915</ele>
        <time>2021-08-10T13:24:12.459Z</time>
      </trkpt>
      <trkpt lat="46.9033" lon="8.55874">
        <ele>914</ele>
        <time>2021-08-10T13:24:13.460Z</time>
      </trkpt>
      <trkpt lat="46.9033" lon="8.55874">
        <ele>914</ele>
        <time>2021-08-10T13:24:14.460Z</time>
      </trkpt>
      <trkpt lat="46.90329" lon="8.55874">
        <ele>914</ele>
        <time>2021-08-10T13:24:15.459Z</time>
      </trkpt>
      <trkpt lat="46.90328" lon="8.55874">
        <ele>914</ele>
        <time>2021-08-10T13:24:16.460Z</time>
      </trkpt>
      <trkpt lat="46.90327" lon="8.55874">
        <ele>914</ele>
        <time>2021-08-10T13:24:20.492Z</time>
      </trkpt>
      <trkpt lat="46.90326" lon="8.55873">
        <ele>914</ele>
        <time>2021-08-10T13:24:21.492Z</time>
      </trkpt>
      <trkpt lat="46.90325" lon="8.55872">
        <ele>914</ele>
        <time>2021-08-10T13:24:22.491Z</time>
      </trkpt>
      <trkpt lat="46.90325" lon="8.55872">
        <ele>913</ele>
        <time>2021-08-10T13:24:23.492Z</time>
      </trkpt>
      <trkpt lat="46.90324" lon="8.55871">
        <ele>913</ele>
        <time>2021-08-10T13:24:24.491Z</time>
      </trkpt>
      <trkpt lat="46.90324" lon="8.55871">
        <ele>913</ele>
        <time>2021-08-10T13:24:25.491Z</time>
      </trkpt>
      <trkpt lat="46.90324" lon="8.5587">
        <ele>913</ele>
        <time>2021-08-10T13:24:26.492Z</time>
      </trkpt>
      <trkpt lat="46.90324" lon="8.55869">
        <ele>913</ele>
        <time>2021-08-10T13:24:27.491Z</time>
      </trkpt>
      <trkpt lat="46.90323" lon="8.55868">
        <ele>913</ele>
        <time>2021-08-10T13:24:28.492Z</time>
      </trkpt>
      <trkpt lat="46.90323" lon="8.55867">
        <ele>913</ele>
        <time>2021-08-10T13:24:29.492Z</time>
      </trkpt>
      <trkpt lat="46.90322" lon="8.55866">
        <ele>913</ele>
        <time>2021-08-10T13:24:30.491Z</time>
      </trkpt>
      <trkpt lat="46.90322" lon="8.55866">
        <ele>913</ele>
        <time>2021-08-10T13:24:31.492Z</time>
      </trkpt>
      <trkpt lat="46.90321" lon="8.55865">
        <ele>913</ele>
        <time>2021-08-10T13:24:32.492Z</time>
      </trkpt>
      <trkpt lat="46.90321" lon="8.55864">
        <ele>913</ele>
        <time>2021-08-10T13:24:33.491Z</time>
      </trkpt>
      <trkpt lat="46.90322" lon="8.55863">
        <ele>913</ele>
        <time>2021-08-10T13:24:34.492Z</time>
      </trkpt>
      <trkpt lat="46.90322" lon="8.55862">
        <ele>913</ele>
        <time>2021-08-10T13:24:35.492Z</time>
      </trkpt>
      <trkpt lat="46.90322" lon="8.55861">
        <ele>913</ele>
        <time>2021-08-10T13:24:36.491Z</time>
      </trkpt>
      <trkpt lat="46.90322" lon="8.5586">
        <ele>913</ele>
        <time>2021-08-10T13:24:41.605Z</time>
      </trkpt>
      <trkpt lat="46.90322" lon="8.55859">
        <ele>913</ele>
        <time>2021-08-10T13:24:43.475Z</time>
      </trkpt>
      <trkpt lat="46.90322" lon="8.55858">
        <ele>912</ele>
        <time>2021-08-10T13:24:44.474Z</time>
      </trkpt>
      <trkpt lat="46.90322" lon="8.55858">
        <ele>912</ele>
        <time>2021-08-10T13:24:45.474Z</time>
      </trkpt>
      <trkpt lat="46.90323" lon="8.55858">
        <ele>912</ele>
        <time>2021-08-10T13:24:46.474Z</time>
      </trkpt>
      <trkpt lat="46.90324" lon="8.55858">
        <ele>912</ele>
        <time>2021-08-10T13:24:47.474Z</time>
      </trkpt>
      <trkpt lat="46.90324" lon="8.55858">
        <ele>912</ele>
        <time>2021-08-10T13:24:48.475Z</time>
      </trkpt>
      <trkpt lat="46.90325" lon="8.55861">
        <ele>912</ele>
        <time>2021-08-10T13:24:49.474Z</time>
      </trkpt>
      <trkpt lat="46.90325" lon="8.55862">
        <ele>912</ele>
        <time>2021-08-10T13:24:53.609Z</time>
      </trkpt>
      <trkpt lat="46.90324" lon="8.55863">
        <ele>912</ele>
        <time>2021-08-10T13:24:54.610Z</time>
      </trkpt>
      <trkpt lat="46.90324" lon="8.55862">
        <ele>910</ele>
        <time>2021-08-10T13:24:55.610Z</time>
      </trkpt>
      <trkpt lat="46.90323" lon="8.55863">
        <ele>910</ele>
        <time>2021-08-10T13:24:56.611Z</time>
      </trkpt>
      <trkpt lat="46.90323" lon="8.55864">
        <ele>909</ele>
        <time>2021-08-10T13:24:57.611Z</time>
      </trkpt>
      <trkpt lat="46.90323" lon="8.55865">
        <ele>909</ele>
        <time>2021-08-10T13:24:58.611Z</time>
      </trkpt>
      <trkpt lat="46.90322" lon="8.55866">
        <ele>909</ele>
        <time>2021-08-10T13:24:59.611Z</time>
      </trkpt>
      <trkpt lat="46.90322" lon="8.55867">
        <ele>909</ele>
        <time>2021-08-10T13:25:00.610Z</time>
      </trkpt>
      <trkpt lat="46.90322" lon="8.55868">
        <ele>909</ele>
        <time>2021-08-10T13:25:01.611Z</time>
      </trkpt>
      <trkpt lat="46.90322" lon="8.55869">
        <ele>909</ele>
        <time>2021-08-10T13:25:02.611Z</time>
      </trkpt>
      <trkpt lat="46.90323" lon="8.5587">
        <ele>908</ele>
        <time>2021-08-10T13:25:03.610Z</time>
      </trkpt>
      <trkpt lat="46.90324" lon="8.55871">
        <ele>908</ele>
        <time>2021-08-10T13:25:04.611Z</time>
      </trkpt>
      <trkpt lat="46.90324" lon="8.55872">
        <ele>909</ele>
        <time>2021-08-10T13:25:06.724Z</time>
      </trkpt>
      <trkpt lat="46.90324" lon="8.55872">
        <ele>909</ele>
        <time>2021-08-10T13:25:07.724Z</time>
      </trkpt>
      <trkpt lat="46.90323" lon="8.55871">
        <ele>910</ele>
        <time>2021-08-10T13:25:08.723Z</time>
      </trkpt>
      <trkpt lat="46.90323" lon="8.55871">
        <ele>910</ele>
        <time>2021-08-10T13:25:09.723Z</time>
      </trkpt>
      <trkpt lat="46.90322" lon="8.5587">
        <ele>910</ele>
        <time>2021-08-10T13:25:10.723Z</time>
      </trkpt>
      <trkpt lat="46.90321" lon="8.5587">
        <ele>911</ele>
        <time>2021-08-10T13:25:11.723Z</time>
      </trkpt>
      <trkpt lat="46.9032" lon="8.5587">
        <ele>911</ele>
        <time>2021-08-10T13:25:12.723Z</time>
      </trkpt>
      <trkpt lat="46.90319" lon="8.55867">
        <ele>910</ele>
        <time>2021-08-10T13:25:13.724Z</time>
      </trkpt>
      <trkpt lat="46.90318" lon="8.55866">
        <ele>909</ele>
        <time>2021-08-10T13:25:14.725Z</time>
      </trkpt>
      <trkpt lat="46.90318" lon="8.55866">
        <ele>909</ele>
        <time>2021-08-10T13:25:15.725Z</time>
      </trkpt>
      <trkpt lat="46.90319" lon="8.55865">
        <ele>915</ele>
        <time>2021-08-10T13:25:16.724Z</time>
      </trkpt>
      <trkpt lat="46.9032" lon="8.55864">
        <ele>916</ele>
        <time>2021-08-10T13:25:17.725Z</time>
      </trkpt>
      <trkpt lat="46.9032" lon="8.55865">
        <ele>917</ele>
        <time>2021-08-10T13:25:18.724Z</time>
      </trkpt>
      <trkpt lat="46.9032" lon="8.55865">
        <ele>917</ele>
        <time>2021-08-10T13:25:19.725Z</time>
      </trkpt>
      <trkpt lat="46.9032" lon="8.55865">
        <ele>917</ele>
        <time>2021-08-10T13:25:20.725Z</time>
      </trkpt>
      <trkpt lat="46.90319" lon="8.55865">
        <ele>918</ele>
        <time>2021-08-10T13:25:21.725Z</time>
      </trkpt>
      <trkpt lat="46.90318" lon="8.55865">
        <ele>918</ele>
        <time>2021-08-10T13:25:22.724Z</time>
      </trkpt>
      <trkpt lat="46.90318" lon="8.55865">
        <ele>918</ele>
        <time>2021-08-10T13:25:23.724Z</time>
      </trkpt>
      <trkpt lat="46.90319" lon="8.55864">
        <ele>919</ele>
        <time>2021-08-10T13:25:24.725Z</time>
      </trkpt>
      <trkpt lat="46.9032" lon="8.55864">
        <ele>919</ele>
        <time>2021-08-10T13:25:25.725Z</time>
      </trkpt>
      <trkpt lat="46.9032" lon="8.55865">
        <ele>920</ele>
        <time>2021-08-10T13:25:26.725Z</time>
      </trkpt>
      <trkpt lat="46.90319" lon="8.55865">
        <ele>920</ele>
        <time>2021-08-10T13:25:27.725Z</time>
      </trkpt>
      <trkpt lat="46.90316" lon="8.55864">
        <ele>920</ele>
        <time>2021-08-10T13:25:28.726Z</time>
      </trkpt>
      <trkpt lat="46.90316" lon="8.55863">
        <ele>920</ele>
        <time>2021-08-10T13:25:29.727Z</time>
      </trkpt>
      <trkpt lat="46.90317" lon="8.55863">
        <ele>920</ele>
        <time>2021-08-10T13:25:30.726Z</time>
      </trkpt>
      <trkpt lat="46.90317" lon="8.55862">
        <ele>920</ele>
        <time>2021-08-10T13:25:31.726Z</time>
      </trkpt>
      <trkpt lat="46.90317" lon="8.55862">
        <ele>920</ele>
        <time>2021-08-10T13:25:32.727Z</time>
      </trkpt>
      <trkpt lat="46.90317" lon="8.55861">
        <ele>920</ele>
        <time>2021-08-10T13:25:33.726Z</time>
      </trkpt>
      <trkpt lat="46.90317" lon="8.55861">
        <ele>920</ele>
        <time>2021-08-10T13:25:34.727Z</time>
      </trkpt>
      <trkpt lat="46.90317" lon="8.5586">
        <ele>920</ele>
        <time>2021-08-10T13:25:39.767Z</time>
      </trkpt>
      <trkpt lat="46.90316" lon="8.55861">
        <ele>921</ele>
        <time>2021-08-10T13:25:40.766Z</time>
      </trkpt>
      <trkpt lat="46.90315" lon="8.55861">
        <ele>921</ele>
        <time>2021-08-10T13:25:41.766Z</time>
      </trkpt>
      <trkpt lat="46.90314" lon="8.55863">
        <ele>921</ele>
        <time>2021-08-10T13:25:42.766Z</time>
      </trkpt>
      <trkpt lat="46.90313" lon="8.55864">
        <ele>921</ele>
        <time>2021-08-10T13:25:45.857Z</time>
      </trkpt>
      <trkpt lat="46.90313" lon="8.55861">
        <ele>922</ele>
        <time>2021-08-10T13:25:46.857Z</time>
      </trkpt>
      <trkpt lat="46.90313" lon="8.55858">
        <ele>922</ele>
        <time>2021-08-10T13:25:47.858Z</time>
      </trkpt>
      <trkpt lat="46.90313" lon="8.55859">
        <ele>922</ele>
        <time>2021-08-10T13:25:48.858Z</time>
      </trkpt>
      <trkpt lat="46.90313" lon="8.5586">
        <ele>922</ele>
        <time>2021-08-10T13:25:49.858Z</time>
      </trkpt>
      <trkpt lat="46.90311" lon="8.55861">
        <ele>923</ele>
        <time>2021-08-10T13:25:50.858Z</time>
      </trkpt>
      <trkpt lat="46.90309" lon="8.55864">
        <ele>923</ele>
        <time>2021-08-10T13:25:51.858Z</time>
      </trkpt>
      <trkpt lat="46.90308" lon="8.55866">
        <ele>924</ele>
        <time>2021-08-10T13:25:52.858Z</time>
      </trkpt>
      <trkpt lat="46.90307" lon="8.55868">
        <ele>927</ele>
        <time>2021-08-10T13:25:53.857Z</time>
      </trkpt>
      <trkpt lat="46.90307" lon="8.55867">
        <ele>928</ele>
        <time>2021-08-10T13:25:54.858Z</time>
      </trkpt>
      <trkpt lat="46.90307" lon="8.55867">
        <ele>928</ele>
        <time>2021-08-10T13:25:55.857Z</time>
      </trkpt>
      <trkpt lat="46.90307" lon="8.55869">
        <ele>930</ele>
        <time>2021-08-10T13:25:57.966Z</time>
      </trkpt>
      <trkpt lat="46.90306" lon="8.55871">
        <ele>930</ele>
        <time>2021-08-10T13:25:58.966Z</time>
      </trkpt>
      <trkpt lat="46.90305" lon="8.55872">
        <ele>931</ele>
        <time>2021-08-10T13:25:59.965Z</time>
      </trkpt>
      <trkpt lat="46.90306" lon="8.55875">
        <ele>931</ele>
        <time>2021-08-10T13:26:00.966Z</time>
      </trkpt>
      <trkpt lat="46.90305" lon="8.55879">
        <ele>932</ele>
        <time>2021-08-10T13:26:01.965Z</time>
      </trkpt>
      <trkpt lat="46.90305" lon="8.55878">
        <ele>932</ele>
        <time>2021-08-10T13:26:02.965Z</time>
      </trkpt>
      <trkpt lat="46.90305" lon="8.55877">
        <ele>933</ele>
        <time>2021-08-10T13:26:03.966Z</time>
      </trkpt>
      <trkpt lat="46.90304" lon="8.55876">
        <ele>933</ele>
        <time>2021-08-10T13:26:04.965Z</time>
      </trkpt>
      <trkpt lat="46.90304" lon="8.55876">
        <ele>933</ele>
        <time>2021-08-10T13:26:05.965Z</time>
      </trkpt>
      <trkpt lat="46.90304" lon="8.55877">
        <ele>934</ele>
        <time>2021-08-10T13:26:06.965Z</time>
      </trkpt>
      <trkpt lat="46.90304" lon="8.55877">
        <ele>934</ele>
        <time>2021-08-10T13:26:07.965Z</time>
      </trkpt>
      <trkpt lat="46.90304" lon="8.55877">
        <ele>934</ele>
        <time>2021-08-10T13:26:08.965Z</time>
      </trkpt>
      <trkpt lat="46.90308" lon="8.55873">
        <ele>935</ele>
        <time>2021-08-10T13:26:09.965Z</time>
      </trkpt>
      <trkpt lat="46.90308" lon="8.55872">
        <ele>935</ele>
        <time>2021-08-10T13:26:10.965Z</time>
      </trkpt>
      <trkpt lat="46.90308" lon="8.55872">
        <ele>935</ele>
        <time>2021-08-10T13:26:11.966Z</time>
      </trkpt>
      <trkpt lat="46.90307" lon="8.55871">
        <ele>936</ele>
        <time>2021-08-10T13:26:12.965Z</time>
      </trkpt>
      <trkpt lat="46.90306" lon="8.55871">
        <ele>936</ele>
        <time>2021-08-10T13:26:13.966Z</time>
      </trkpt>
      <trkpt lat="46.90306" lon="8.5587">
        <ele>936</ele>
        <time>2021-08-10T13:26:14.965Z</time>
      </trkpt>
      <trkpt lat="46.90306" lon="8.5587">
        <ele>937</ele>
        <time>2021-08-10T13:26:26.113Z</time>
      </trkpt>
      <trkpt lat="46.90306" lon="8.55871">
        <ele>937</ele>
        <time>2021-08-10T13:26:27.113Z</time>
      </trkpt>
      <trkpt lat="46.90306" lon="8.55871">
        <ele>937</ele>
        <time>2021-08-10T13:26:28.112Z</time>
      </trkpt>
      <trkpt lat="46.90306" lon="8.5587">
        <ele>937</ele>
        <time>2021-08-10T13:26:29.112Z</time>
      </trkpt>
      <trkpt lat="46.90306" lon="8.55869">
        <ele>937</ele>
        <time>2021-08-10T13:26:30.113Z</time>
      </trkpt>
      <trkpt lat="46.90305" lon="8.55869">
        <ele>937</ele>
        <time>2021-08-10T13:26:31.112Z</time>
      </trkpt>
      <trkpt lat="46.90306" lon="8.55868">
        <ele>936</ele>
        <time>2021-08-10T13:26:32.112Z</time>
      </trkpt>
      <trkpt lat="46.90307" lon="8.55867">
        <ele>936</ele>
        <time>2021-08-10T13:26:50.253Z</time>
      </trkpt>
      <trkpt lat="46.90308" lon="8.55867">
        <ele>935</ele>
        <time>2021-08-10T13:26:51.254Z</time>
      </trkpt>
      <trkpt lat="46.9031" lon="8.55866">
        <ele>934</ele>
        <time>2021-08-10T13:26:52.253Z</time>
      </trkpt>
      <trkpt lat="46.9031" lon="8.55866">
        <ele>934</ele>
        <time>2021-08-10T13:26:53.253Z</time>
      </trkpt>
      <trkpt lat="46.90309" lon="8.55867">
        <ele>933</ele>
        <time>2021-08-10T13:26:54.253Z</time>
      </trkpt>
      <trkpt lat="46.9031" lon="8.55867">
        <ele>933</ele>
        <time>2021-08-10T13:26:55.254Z</time>
      </trkpt>
      <trkpt lat="46.90312" lon="8.55867">
        <ele>933</ele>
        <time>2021-08-10T13:26:56.255Z</time>
      </trkpt>
      <trkpt lat="46.90312" lon="8.55866">
        <ele>932</ele>
        <time>2021-08-10T13:26:57.254Z</time>
      </trkpt>
      <trkpt lat="46.90312" lon="8.55866">
        <ele>932</ele>
        <time>2021-08-10T13:26:58.254Z</time>
      </trkpt>
      <trkpt lat="46.90311" lon="8.55867">
        <ele>932</ele>
        <time>2021-08-10T13:26:59.255Z</time>
      </trkpt>
      <trkpt lat="46.9031" lon="8.55867">
        <ele>932</ele>
        <time>2021-08-10T13:27:00.254Z</time>
      </trkpt>
      <trkpt lat="46.9031" lon="8.55867">
        <ele>932</ele>
        <time>2021-08-10T13:27:01.255Z</time>
      </trkpt>
      <trkpt lat="46.9031" lon="8.55866">
        <ele>931</ele>
        <time>2021-08-10T13:27:02.255Z</time>
      </trkpt>
      <trkpt lat="46.9031" lon="8.55865">
        <ele>931</ele>
        <time>2021-08-10T13:27:03.255Z</time>
      </trkpt>
      <trkpt lat="46.90309" lon="8.55866">
        <ele>930</ele>
        <time>2021-08-10T13:27:04.255Z</time>
      </trkpt>
      <trkpt lat="46.90309" lon="8.55865">
        <ele>929</ele>
        <time>2021-08-10T13:27:05.254Z</time>
      </trkpt>
      <trkpt lat="46.9031" lon="8.55864">
        <ele>928</ele>
        <time>2021-08-10T13:27:06.255Z</time>
      </trkpt>
      <trkpt lat="46.90309" lon="8.55864">
        <ele>928</ele>
        <time>2021-08-10T13:27:07.254Z</time>
      </trkpt>
      <trkpt lat="46.90309" lon="8.55865">
        <ele>928</ele>
        <time>2021-08-10T13:27:08.254Z</time>
      </trkpt>
      <trkpt lat="46.90308" lon="8.55866">
        <ele>928</ele>
        <time>2021-08-10T13:27:09.255Z</time>
      </trkpt>
      <trkpt lat="46.90307" lon="8.55866">
        <ele>928</ele>
        <time>2021-08-10T13:27:10.255Z</time>
      </trkpt>
      <trkpt lat="46.90306" lon="8.55867">
        <ele>928</ele>
        <time>2021-08-10T13:27:11.254Z</time>
      </trkpt>
      <trkpt lat="46.90305" lon="8.55868">
        <ele>929</ele>
        <time>2021-08-10T13:27:12.254Z</time>
      </trkpt>
      <trkpt lat="46.90304" lon="8.5587">
        <ele>929</ele>
        <time>2021-08-10T13:27:13.255Z</time>
      </trkpt>
      <trkpt lat="46.90303" lon="8.5587">
        <ele>929</ele>
        <time>2021-08-10T13:27:14.255Z</time>
      </trkpt>
      <trkpt lat="46.90303" lon="8.5587">
        <ele>929</ele>
        <time>2021-08-10T13:27:15.254Z</time>
      </trkpt>
      <trkpt lat="46.90302" lon="8.5587">
        <ele>929</ele>
        <time>2021-08-10T13:27:16.255Z</time>
      </trkpt>
      <trkpt lat="46.90302" lon="8.55871">
        <ele>929</ele>
        <time>2021-08-10T13:27:17.254Z</time>
      </trkpt>
      <trkpt lat="46.90302" lon="8.55871">
        <ele>929</ele>
        <time>2021-08-10T13:27:18.254Z</time>
      </trkpt>
      <trkpt lat="46.90301" lon="8.55872">
        <ele>930</ele>
        <time>2021-08-10T13:27:19.255Z</time>
      </trkpt>
      <trkpt lat="46.90301" lon="8.55872">
        <ele>930</ele>
        <time>2021-08-10T13:27:20.255Z</time>
      </trkpt>
      <trkpt lat="46.90301" lon="8.55873">
        <ele>930</ele>
        <time>2021-08-10T13:27:21.255Z</time>
      </trkpt>
      <trkpt lat="46.903" lon="8.55873">
        <ele>931</ele>
        <time>2021-08-10T13:27:22.254Z</time>
      </trkpt>
      <trkpt lat="46.903" lon="8.55873">
        <ele>932</ele>
        <time>2021-08-10T13:27:23.255Z</time>
      </trkpt>
      <trkpt lat="46.903" lon="8.55875">
        <ele>933</ele>
        <time>2021-08-10T13:27:24.257Z</time>
      </trkpt>
      <trkpt lat="46.90301" lon="8.55875">
        <ele>934</ele>
        <time>2021-08-10T13:27:25.257Z</time>
      </trkpt>
      <trkpt lat="46.90301" lon="8.55876">
        <ele>934</ele>
        <time>2021-08-10T13:27:26.257Z</time>
      </trkpt>
      <trkpt lat="46.90302" lon="8.55876">
        <ele>934</ele>
        <time>2021-08-10T13:27:27.256Z</time>
      </trkpt>
      <trkpt lat="46.90303" lon="8.55875">
        <ele>934</ele>
        <time>2021-08-10T13:27:28.257Z</time>
      </trkpt>
      <trkpt lat="46.90304" lon="8.55874">
        <ele>934</ele>
        <time>2021-08-10T13:27:29.257Z</time>
      </trkpt>
      <trkpt lat="46.90306" lon="8.55875">
        <ele>933</ele>
        <time>2021-08-10T13:27:30.257Z</time>
      </trkpt>
      <trkpt lat="46.90306" lon="8.55876">
        <ele>933</ele>
        <time>2021-08-10T13:27:31.257Z</time>
      </trkpt>
      <trkpt lat="46.90306" lon="8.55877">
        <ele>933</ele>
        <time>2021-08-10T13:27:33.363Z</time>
      </trkpt>
      <trkpt lat="46.90306" lon="8.55879">
        <ele>933</ele>
        <time>2021-08-10T13:27:34.362Z</time>
      </trkpt>
      <trkpt lat="46.90305" lon="8.55881">
        <ele>933</ele>
        <time>2021-08-10T13:27:36.094Z</time>
      </trkpt>
      <trkpt lat="46.90306" lon="8.55882">
        <ele>933</ele>
        <time>2021-08-10T13:27:37.093Z</time>
      </trkpt>
      <trkpt lat="46.90306" lon="8.55882">
        <ele>934</ele>
        <time>2021-08-10T13:27:38.094Z</time>
      </trkpt>
      <trkpt lat="46.90306" lon="8.55882">
        <ele>934</ele>
        <time>2021-08-10T13:27:44.115Z</time>
      </trkpt>
      <trkpt lat="46.90306" lon="8.55879">
        <ele>934</ele>
        <time>2021-08-10T13:27:45.116Z</time>
      </trkpt>
      <trkpt lat="46.90306" lon="8.55878">
        <ele>934</ele>
        <time>2021-08-10T13:27:49.000Z</time>
      </trkpt>
      <trkpt lat="46.90305" lon="8.55877">
        <ele>934</ele>
        <time>2021-08-10T13:27:50.000Z</time>
      </trkpt>
      <trkpt lat="46.90304" lon="8.55877">
        <ele>934</ele>
        <time>2021-08-10T13:27:51.001Z</time>
      </trkpt>
      <trkpt lat="46.90304" lon="8.5588">
        <ele>933</ele>
        <time>2021-08-10T13:27:52.001Z</time>
      </trkpt>
      <trkpt lat="46.90304" lon="8.55881">
        <ele>933</ele>
        <time>2021-08-10T13:27:53.000Z</time>
      </trkpt>
      <trkpt lat="46.90303" lon="8.55882">
        <ele>933</ele>
        <time>2021-08-10T13:27:54.000Z</time>
      </trkpt>
      <trkpt lat="46.90304" lon="8.55882">
        <ele>932</ele>
        <time>2021-08-10T13:27:55.000Z</time>
      </trkpt>
      <trkpt lat="46.90304" lon="8.55882">
        <ele>932</ele>
        <time>2021-08-10T13:27:56.000Z</time>
      </trkpt>
      <trkpt lat="46.90304" lon="8.55882">
        <ele>932</ele>
        <time>2021-08-10T13:27:57.001Z</time>
      </trkpt>
      <trkpt lat="46.90305" lon="8.55882">
        <ele>932</ele>
        <time>2021-08-10T13:27:58.001Z</time>
      </trkpt>
      <trkpt lat="46.90305" lon="8.55881">
        <ele>931</ele>
        <time>2021-08-10T13:27:59.000Z</time>
      </trkpt>
      <trkpt lat="46.90304" lon="8.55882">
        <ele>932</ele>
        <time>2021-08-10T13:28:00.000Z</time>
      </trkpt>
      <trkpt lat="46.90304" lon="8.55883">
        <ele>932</ele>
        <time>2021-08-10T13:28:01.001Z</time>
      </trkpt>
      <trkpt lat="46.90305" lon="8.55883">
        <ele>933</ele>
        <time>2021-08-10T13:28:02.001Z</time>
      </trkpt>
      <trkpt lat="46.90305" lon="8.55883">
        <ele>933</ele>
        <time>2021-08-10T13:28:03.001Z</time>
      </trkpt>
      <trkpt lat="46.90307" lon="8.55882">
        <ele>934</ele>
        <time>2021-08-10T13:28:04.001Z</time>
      </trkpt>
      <trkpt lat="46.90307" lon="8.55882">
        <ele>934</ele>
        <time>2021-08-10T13:28:05.001Z</time>
      </trkpt>
      <trkpt lat="46.90307" lon="8.55882">
        <ele>935</ele>
        <time>2021-08-10T13:28:06.001Z</time>
      </trkpt>
      <trkpt lat="46.90308" lon="8.55882">
        <ele>936</ele>
        <time>2021-08-10T13:28:07.001Z</time>
      </trkpt>
      <trkpt lat="46.90308" lon="8.55881">
        <ele>936</ele>
        <time>2021-08-10T13:28:08.000Z</time>
      </trkpt>
      <trkpt lat="46.90309" lon="8.55882">
        <ele>937</ele>
        <time>2021-08-10T13:28:09.000Z</time>
      </trkpt>
      <trkpt lat="46.90309" lon="8.55883">
        <ele>937</ele>
        <time>2021-08-10T13:28:10.000Z</time>
      </trkpt>
      <trkpt lat="46.90308" lon="8.55885">
        <ele>937</ele>
        <time>2021-08-10T13:28:11.001Z</time>
      </trkpt>
      <trkpt lat="46.90308" lon="8.55886">
        <ele>938</ele>
        <time>2021-08-10T13:28:12.000Z</time>
      </trkpt>
      <trkpt lat="46.90308" lon="8.55886">
        <ele>938</ele>
        <time>2021-08-10T13:28:13.000Z</time>
      </trkpt>
      <trkpt lat="46.90308" lon="8.55887">
        <ele>938</ele>
        <time>2021-08-10T13:28:14.001Z</time>
      </trkpt>
      <trkpt lat="46.90308" lon="8.55887">
        <ele>938</ele>
        <time>2021-08-10T13:28:15.000Z</time>
      </trkpt>
      <trkpt lat="46.90308" lon="8.55892">
        <ele>937</ele>
        <time>2021-08-10T13:28:16.001Z</time>
      </trkpt>
      <trkpt lat="46.90308" lon="8.55892">
        <ele>936</ele>
        <time>2021-08-10T13:28:17.000Z</time>
      </trkpt>
      <trkpt lat="46.90309" lon="8.55892">
        <ele>936</ele>
        <time>2021-08-10T13:28:18.001Z</time>
      </trkpt>
      <trkpt lat="46.90309" lon="8.55893">
        <ele>936</ele>
        <time>2021-08-10T13:28:21.123Z</time>
      </trkpt>
      <trkpt lat="46.90309" lon="8.55893">
        <ele>937</ele>
        <time>2021-08-10T13:28:22.122Z</time>
      </trkpt>
      <trkpt lat="46.90309" lon="8.55893">
        <ele>937</ele>
        <time>2021-08-10T13:28:23.123Z</time>
      </trkpt>
      <trkpt lat="46.9031" lon="8.55893">
        <ele>938</ele>
        <time>2021-08-10T13:28:24.124Z</time>
      </trkpt>
      <trkpt lat="46.9031" lon="8.55892">
        <ele>938</ele>
        <time>2021-08-10T13:28:25.124Z</time>
      </trkpt>
      <trkpt lat="46.9031" lon="8.55891">
        <ele>939</ele>
        <time>2021-08-10T13:28:26.124Z</time>
      </trkpt>
      <trkpt lat="46.9031" lon="8.55891">
        <ele>940</ele>
        <time>2021-08-10T13:28:27.124Z</time>
      </trkpt>
      <trkpt lat="46.90309" lon="8.5589">
        <ele>940</ele>
        <time>2021-08-10T13:28:28.123Z</time>
      </trkpt>
      <trkpt lat="46.90309" lon="8.5589">
        <ele>940</ele>
        <time>2021-08-10T13:28:29.124Z</time>
      </trkpt>
      <trkpt lat="46.90308" lon="8.5589">
        <ele>941</ele>
        <time>2021-08-10T13:28:30.123Z</time>
      </trkpt>
      <trkpt lat="46.90306" lon="8.5589">
        <ele>941</ele>
        <time>2021-08-10T13:28:31.123Z</time>
      </trkpt>
      <trkpt lat="46.90305" lon="8.5589">
        <ele>941</ele>
        <time>2021-08-10T13:28:32.124Z</time>
      </trkpt>
      <trkpt lat="46.90304" lon="8.5589">
        <ele>941</ele>
        <time>2021-08-10T13:28:33.124Z</time>
      </trkpt>
      <trkpt lat="46.90304" lon="8.55891">
        <ele>941</ele>
        <time>2021-08-10T13:28:34.124Z</time>
      </trkpt>
      <trkpt lat="46.90303" lon="8.55892">
        <ele>940</ele>
        <time>2021-08-10T13:28:35.123Z</time>
      </trkpt>
      <trkpt lat="46.90303" lon="8.55892">
        <ele>940</ele>
        <time>2021-08-10T13:28:36.123Z</time>
      </trkpt>
      <trkpt lat="46.90306" lon="8.55894">
        <ele>942</ele>
        <time>2021-08-10T13:28:37.123Z</time>
      </trkpt>
      <trkpt lat="46.90307" lon="8.55894">
        <ele>942</ele>
        <time>2021-08-10T13:28:38.124Z</time>
      </trkpt>
      <trkpt lat="46.90307" lon="8.55894">
        <ele>942</ele>
        <time>2021-08-10T13:28:39.124Z</time>
      </trkpt>
      <trkpt lat="46.90307" lon="8.55894">
        <ele>942</ele>
        <time>2021-08-10T13:28:40.123Z</time>
      </trkpt>
      <trkpt lat="46.90304" lon="8.55895">
        <ele>942</ele>
        <time>2021-08-10T13:28:41.124Z</time>
      </trkpt>
      <trkpt lat="46.90303" lon="8.55894">
        <ele>942</ele>
        <time>2021-08-10T13:28:42.123Z</time>
      </trkpt>
      <trkpt lat="46.90302" lon="8.55894">
        <ele>942</ele>
        <time>2021-08-10T13:28:43.124Z</time>
      </trkpt>
      <trkpt lat="46.90301" lon="8.55894">
        <ele>942</ele>
        <time>2021-08-10T13:28:44.124Z</time>
      </trkpt>
      <trkpt lat="46.90301" lon="8.55894">
        <ele>942</ele>
        <time>2021-08-10T13:28:45.124Z</time>
      </trkpt>
      <trkpt lat="46.903" lon="8.55894">
        <ele>942</ele>
        <time>2021-08-10T13:28:46.124Z</time>
      </trkpt>
      <trkpt lat="46.90299" lon="8.55893">
        <ele>942</ele>
        <time>2021-08-10T13:28:47.124Z</time>
      </trkpt>
      <trkpt lat="46.90299" lon="8.55893">
        <ele>943</ele>
        <time>2021-08-10T13:28:48.124Z</time>
      </trkpt>
      <trkpt lat="46.90298" lon="8.55892">
        <ele>944</ele>
        <time>2021-08-10T13:28:49.124Z</time>
      </trkpt>
      <trkpt lat="46.90297" lon="8.55893">
        <ele>944</ele>
        <time>2021-08-10T13:28:50.123Z</time>
      </trkpt>
      <trkpt lat="46.90297" lon="8.55894">
        <ele>945</ele>
        <time>2021-08-10T13:28:51.124Z</time>
      </trkpt>
      <trkpt lat="46.90297" lon="8.55896">
        <ele>945</ele>
        <time>2021-08-10T13:28:52.124Z</time>
      </trkpt>
      <trkpt lat="46.90297" lon="8.55898">
        <ele>946</ele>
        <time>2021-08-10T13:28:53.124Z</time>
      </trkpt>
      <trkpt lat="46.90298" lon="8.55899">
        <ele>946</ele>
        <time>2021-08-10T13:28:54.123Z</time>
      </trkpt>
      <trkpt lat="46.90299" lon="8.559">
        <ele>946</ele>
        <time>2021-08-10T13:28:55.124Z</time>
      </trkpt>
      <trkpt lat="46.90299" lon="8.55901">
        <ele>947</ele>
        <time>2021-08-10T13:28:56.124Z</time>
      </trkpt>
      <trkpt lat="46.90299" lon="8.55901">
        <ele>947</ele>
        <time>2021-08-10T13:28:57.124Z</time>
      </trkpt>
      <trkpt lat="46.903" lon="8.55902">
        <ele>947</ele>
        <time>2021-08-10T13:28:58.124Z</time>
      </trkpt>
      <trkpt lat="46.90301" lon="8.55902">
        <ele>947</ele>
        <time>2021-08-10T13:28:59.123Z</time>
      </trkpt>
      <trkpt lat="46.90301" lon="8.55903">
        <ele>947</ele>
        <time>2021-08-10T13:29:00.123Z</time>
      </trkpt>
      <trkpt lat="46.90302" lon="8.55903">
        <ele>948</ele>
        <time>2021-08-10T13:29:01.123Z</time>
      </trkpt>
      <trkpt lat="46.90302" lon="8.55904">
        <ele>948</ele>
        <time>2021-08-10T13:29:02.124Z</time>
      </trkpt>
      <trkpt lat="46.90303" lon="8.55904">
        <ele>948</ele>
        <time>2021-08-10T13:29:03.124Z</time>
      </trkpt>
      <trkpt lat="46.90303" lon="8.55905">
        <ele>948</ele>
        <time>2021-08-10T13:29:04.123Z</time>
      </trkpt>
      <trkpt lat="46.90303" lon="8.55906">
        <ele>948</ele>
        <time>2021-08-10T13:29:05.124Z</time>
      </trkpt>
      <trkpt lat="46.90303" lon="8.55907">
        <ele>948</ele>
        <time>2021-08-10T13:29:06.123Z</time>
      </trkpt>
      <trkpt lat="46.90304" lon="8.55906">
        <ele>948</ele>
        <time>2021-08-10T13:29:07.124Z</time>
      </trkpt>
      <trkpt lat="46.90304" lon="8.55906">
        <ele>948</ele>
        <time>2021-08-10T13:29:08.123Z</time>
      </trkpt>
      <trkpt lat="46.90303" lon="8.55906">
        <ele>948</ele>
        <time>2021-08-10T13:29:09.124Z</time>
      </trkpt>
      <trkpt lat="46.90301" lon="8.55903">
        <ele>948</ele>
        <time>2021-08-10T13:29:10.123Z</time>
      </trkpt>
      <trkpt lat="46.90299" lon="8.55901">
        <ele>948</ele>
        <time>2021-08-10T13:29:11.123Z</time>
      </trkpt>
      <trkpt lat="46.90298" lon="8.559">
        <ele>949</ele>
        <time>2021-08-10T13:29:12.123Z</time>
      </trkpt>
      <trkpt lat="46.90297" lon="8.55899">
        <ele>949</ele>
        <time>2021-08-10T13:29:18.235Z</time>
      </trkpt>
      <trkpt lat="46.90295" lon="8.55899">
        <ele>951</ele>
        <time>2021-08-10T13:29:19.236Z</time>
      </trkpt>
      <trkpt lat="46.90294" lon="8.55899">
        <ele>952</ele>
        <time>2021-08-10T13:29:22.978Z</time>
      </trkpt>
      <trkpt lat="46.90294" lon="8.55899">
        <ele>953</ele>
        <time>2021-08-10T13:29:23.978Z</time>
      </trkpt>
      <trkpt lat="46.90294" lon="8.55899">
        <ele>955</ele>
        <time>2021-08-10T13:29:24.978Z</time>
      </trkpt>
      <trkpt lat="46.90294" lon="8.55899">
        <ele>956</ele>
        <time>2021-08-10T13:29:25.978Z</time>
      </trkpt>
      <trkpt lat="46.90294" lon="8.55899">
        <ele>957</ele>
        <time>2021-08-10T13:29:26.978Z</time>
      </trkpt>
      <trkpt lat="46.90293" lon="8.55899">
        <ele>959</ele>
        <time>2021-08-10T13:29:27.979Z</time>
      </trkpt>
      <trkpt lat="46.90293" lon="8.55898">
        <ele>960</ele>
        <time>2021-08-10T13:29:28.979Z</time>
      </trkpt>
      <trkpt lat="46.90292" lon="8.55898">
        <ele>961</ele>
        <time>2021-08-10T13:29:29.978Z</time>
      </trkpt>
      <trkpt lat="46.90291" lon="8.55897">
        <ele>962</ele>
        <time>2021-08-10T13:29:30.979Z</time>
      </trkpt>
      <trkpt lat="46.9029" lon="8.55897">
        <ele>964</ele>
        <time>2021-08-10T13:29:31.979Z</time>
      </trkpt>
      <trkpt lat="46.90289" lon="8.55895">
        <ele>965</ele>
        <time>2021-08-10T13:29:32.979Z</time>
      </trkpt>
      <trkpt lat="46.90288" lon="8.55895">
        <ele>966</ele>
        <time>2021-08-10T13:29:33.978Z</time>
      </trkpt>
      <trkpt lat="46.90289" lon="8.55893">
        <ele>967</ele>
        <time>2021-08-10T13:29:34.979Z</time>
      </trkpt>
      <trkpt lat="46.9029" lon="8.55892">
        <ele>968</ele>
        <time>2021-08-10T13:29:38.106Z</time>
      </trkpt>
      <trkpt lat="46.9029" lon="8.55891">
        <ele>969</ele>
        <time>2021-08-10T13:29:39.106Z</time>
      </trkpt>
      <trkpt lat="46.9029" lon="8.5589">
        <ele>970</ele>
        <time>2021-08-10T13:29:40.106Z</time>
      </trkpt>
      <trkpt lat="46.9029" lon="8.55889">
        <ele>971</ele>
        <time>2021-08-10T13:29:41.105Z</time>
      </trkpt>
      <trkpt lat="46.9029" lon="8.55888">
        <ele>973</ele>
        <time>2021-08-10T13:29:42.105Z</time>
      </trkpt>
      <trkpt lat="46.90289" lon="8.55887">
        <ele>974</ele>
        <time>2021-08-10T13:29:43.106Z</time>
      </trkpt>
      <trkpt lat="46.90288" lon="8.55887">
        <ele>975</ele>
        <time>2021-08-10T13:29:44.106Z</time>
      </trkpt>
      <trkpt lat="46.90288" lon="8.55887">
        <ele>977</ele>
        <time>2021-08-10T13:29:45.106Z</time>
      </trkpt>
      <trkpt lat="46.90287" lon="8.55887">
        <ele>979</ele>
        <time>2021-08-10T13:29:46.106Z</time>
      </trkpt>
      <trkpt lat="46.90287" lon="8.55887">
        <ele>980</ele>
        <time>2021-08-10T13:29:47.105Z</time>
      </trkpt>
      <trkpt lat="46.90285" lon="8.55887">
        <ele>982</ele>
        <time>2021-08-10T13:29:48.106Z</time>
      </trkpt>
      <trkpt lat="46.90284" lon="8.55887">
        <ele>983</ele>
        <time>2021-08-10T13:29:49.106Z</time>
      </trkpt>
      <trkpt lat="46.90284" lon="8.55886">
        <ele>985</ele>
        <time>2021-08-10T13:29:50.106Z</time>
      </trkpt>
      <trkpt lat="46.90283" lon="8.55886">
        <ele>986</ele>
        <time>2021-08-10T13:29:57.211Z</time>
      </trkpt>
      <trkpt lat="46.90283" lon="8.55886">
        <ele>987</ele>
        <time>2021-08-10T13:29:58.211Z</time>
      </trkpt>
      <trkpt lat="46.90283" lon="8.55885">
        <ele>987</ele>
        <time>2021-08-10T13:29:59.211Z</time>
      </trkpt>
      <trkpt lat="46.90282" lon="8.55884">
        <ele>988</ele>
        <time>2021-08-10T13:30:00.211Z</time>
      </trkpt>
      <trkpt lat="46.90282" lon="8.55883">
        <ele>989</ele>
        <time>2021-08-10T13:30:01.211Z</time>
      </trkpt>
      <trkpt lat="46.90282" lon="8.55882">
        <ele>990</ele>
        <time>2021-08-10T13:30:06.379Z</time>
      </trkpt>
      <trkpt lat="46.90281" lon="8.55881">
        <ele>991</ele>
        <time>2021-08-10T13:30:07.378Z</time>
      </trkpt>
      <trkpt lat="46.90281" lon="8.5588">
        <ele>992</ele>
        <time>2021-08-10T13:30:08.379Z</time>
      </trkpt>
      <trkpt lat="46.90281" lon="8.55879">
        <ele>993</ele>
        <time>2021-08-10T13:30:09.379Z</time>
      </trkpt>
      <trkpt lat="46.90281" lon="8.5588">
        <ele>993</ele>
        <time>2021-08-10T13:30:14.498Z</time>
      </trkpt>
      <trkpt lat="46.90281" lon="8.5588">
        <ele>994</ele>
        <time>2021-08-10T13:30:15.498Z</time>
      </trkpt>
      <trkpt lat="46.90281" lon="8.5588">
        <ele>995</ele>
        <time>2021-08-10T13:30:16.497Z</time>
      </trkpt>
      <trkpt lat="46.90281" lon="8.55879">
        <ele>995</ele>
        <time>2021-08-10T13:30:17.497Z</time>
      </trkpt>
      <trkpt lat="46.9028" lon="8.55878">
        <ele>995</ele>
        <time>2021-08-10T13:30:18.498Z</time>
      </trkpt>
      <trkpt lat="46.9028" lon="8.55878">
        <ele>995</ele>
        <time>2021-08-10T13:30:19.497Z</time>
      </trkpt>
      <trkpt lat="46.90279" lon="8.55877">
        <ele>995</ele>
        <time>2021-08-10T13:30:20.497Z</time>
      </trkpt>
      <trkpt lat="46.90279" lon="8.55877">
        <ele>995</ele>
        <time>2021-08-10T13:30:21.498Z</time>
      </trkpt>
      <trkpt lat="46.90278" lon="8.55876">
        <ele>996</ele>
        <time>2021-08-10T13:30:22.497Z</time>
      </trkpt>
      <trkpt lat="46.90277" lon="8.55876">
        <ele>996</ele>
        <time>2021-08-10T13:30:23.498Z</time>
      </trkpt>
      <trkpt lat="46.90277" lon="8.55876">
        <ele>996</ele>
        <time>2021-08-10T13:30:24.498Z</time>
      </trkpt>
      <trkpt lat="46.90277" lon="8.55876">
        <ele>996</ele>
        <time>2021-08-10T13:30:25.497Z</time>
      </trkpt>
      <trkpt lat="46.90276" lon="8.55876">
        <ele>995</ele>
        <time>2021-08-10T13:30:30.622Z</time>
      </trkpt>
      <trkpt lat="46.90276" lon="8.55877">
        <ele>995</ele>
        <time>2021-08-10T13:30:31.622Z</time>
      </trkpt>
      <trkpt lat="46.90275" lon="8.55878">
        <ele>994</ele>
        <time>2021-08-10T13:30:37.472Z</time>
      </trkpt>
      <trkpt lat="46.90275" lon="8.55879">
        <ele>994</ele>
        <time>2021-08-10T13:30:38.473Z</time>
      </trkpt>
      <trkpt lat="46.90275" lon="8.55879">
        <ele>993</ele>
        <time>2021-08-10T13:30:39.472Z</time>
      </trkpt>
      <trkpt lat="46.90274" lon="8.55879">
        <ele>993</ele>
        <time>2021-08-10T13:30:40.473Z</time>
      </trkpt>
      <trkpt lat="46.90274" lon="8.55879">
        <ele>992</ele>
        <time>2021-08-10T13:30:41.472Z</time>
      </trkpt>
      <trkpt lat="46.90274" lon="8.55879">
        <ele>992</ele>
        <time>2021-08-10T13:30:49.603Z</time>
      </trkpt>
      <trkpt lat="46.90274" lon="8.55878">
        <ele>992</ele>
        <time>2021-08-10T13:31:05.369Z</time>
      </trkpt>
      <trkpt lat="46.90275" lon="8.55879">
        <ele>993</ele>
        <time>2021-08-10T13:31:06.368Z</time>
      </trkpt>
      <trkpt lat="46.90278" lon="8.55881">
        <ele>992</ele>
        <time>2021-08-10T13:31:07.369Z</time>
      </trkpt>
      <trkpt lat="46.90278" lon="8.55882">
        <ele>992</ele>
        <time>2021-08-10T13:31:08.368Z</time>
      </trkpt>
      <trkpt lat="46.90279" lon="8.55882">
        <ele>991</ele>
        <time>2021-08-10T13:31:21.479Z</time>
      </trkpt>
      <trkpt lat="46.90279" lon="8.55883">
        <ele>991</ele>
        <time>2021-08-10T13:31:22.479Z</time>
      </trkpt>
      <trkpt lat="46.90279" lon="8.55884">
        <ele>990</ele>
        <time>2021-08-10T13:31:25.360Z</time>
      </trkpt>
      <trkpt lat="46.90279" lon="8.55885">
        <ele>990</ele>
        <time>2021-08-10T13:31:29.116Z</time>
      </trkpt>
      <trkpt lat="46.9028" lon="8.55885">
        <ele>989</ele>
        <time>2021-08-10T13:31:30.115Z</time>
      </trkpt>
      <trkpt lat="46.9028" lon="8.55885">
        <ele>989</ele>
        <time>2021-08-10T13:31:31.115Z</time>
      </trkpt>
      <trkpt lat="46.9028" lon="8.55884">
        <ele>988</ele>
        <time>2021-08-10T13:31:36.232Z</time>
      </trkpt>
      <trkpt lat="46.90281" lon="8.55885">
        <ele>988</ele>
        <time>2021-08-10T13:31:37.231Z</time>
      </trkpt>
      <trkpt lat="46.90282" lon="8.55885">
        <ele>988</ele>
        <time>2021-08-10T13:31:39.963Z</time>
      </trkpt>
      <trkpt lat="46.90283" lon="8.55885">
        <ele>987</ele>
        <time>2021-08-10T13:31:40.963Z</time>
      </trkpt>
      <trkpt lat="46.90282" lon="8.55884">
        <ele>987</ele>
        <time>2021-08-10T13:31:41.964Z</time>
      </trkpt>
      <trkpt lat="46.90282" lon="8.55883">
        <ele>987</ele>
        <time>2021-08-10T13:31:42.963Z</time>
      </trkpt>
      <trkpt lat="46.90282" lon="8.55882">
        <ele>986</ele>
        <time>2021-08-10T13:31:43.963Z</time>
      </trkpt>
      <trkpt lat="46.90281" lon="8.55882">
        <ele>986</ele>
        <time>2021-08-10T13:31:44.964Z</time>
      </trkpt>
      <trkpt lat="46.9028" lon="8.55881">
        <ele>985</ele>
        <time>2021-08-10T13:31:45.963Z</time>
      </trkpt>
      <trkpt lat="46.9028" lon="8.55881">
        <ele>985</ele>
        <time>2021-08-10T13:31:46.964Z</time>
      </trkpt>
      <trkpt lat="46.9028" lon="8.55882">
        <ele>985</ele>
        <time>2021-08-10T13:31:47.963Z</time>
      </trkpt>
      <trkpt lat="46.9028" lon="8.55883">
        <ele>985</ele>
        <time>2021-08-10T13:31:48.963Z</time>
      </trkpt>
      <trkpt lat="46.90281" lon="8.55884">
        <ele>985</ele>
        <time>2021-08-10T13:31:49.963Z</time>
      </trkpt>
      <trkpt lat="46.90281" lon="8.55886">
        <ele>984</ele>
        <time>2021-08-10T13:31:50.964Z</time>
      </trkpt>
      <trkpt lat="46.90281" lon="8.55887">
        <ele>983</ele>
        <time>2021-08-10T13:31:51.964Z</time>
      </trkpt>
      <trkpt lat="46.90282" lon="8.55888">
        <ele>983</ele>
        <time>2021-08-10T13:31:52.963Z</time>
      </trkpt>
      <trkpt lat="46.90282" lon="8.55889">
        <ele>982</ele>
        <time>2021-08-10T13:31:53.964Z</time>
      </trkpt>
      <trkpt lat="46.90282" lon="8.55891">
        <ele>981</ele>
        <time>2021-08-10T13:31:54.963Z</time>
      </trkpt>
      <trkpt lat="46.90282" lon="8.55893">
        <ele>981</ele>
        <time>2021-08-10T13:31:55.963Z</time>
      </trkpt>
      <trkpt lat="46.90283" lon="8.55894">
        <ele>980</ele>
        <time>2021-08-10T13:31:56.964Z</time>
      </trkpt>
      <trkpt lat="46.90283" lon="8.55896">
        <ele>979</ele>
        <time>2021-08-10T13:31:57.963Z</time>
      </trkpt>
      <trkpt lat="46.90284" lon="8.55897">
        <ele>979</ele>
        <time>2021-08-10T13:31:58.964Z</time>
      </trkpt>
      <trkpt lat="46.90284" lon="8.55898">
        <ele>978</ele>
        <time>2021-08-10T13:31:59.963Z</time>
      </trkpt>
      <trkpt lat="46.90284" lon="8.55899">
        <ele>977</ele>
        <time>2021-08-10T13:32:00.964Z</time>
      </trkpt>
      <trkpt lat="46.90283" lon="8.55898">
        <ele>976</ele>
        <time>2021-08-10T13:32:01.963Z</time>
      </trkpt>
      <trkpt lat="46.90281" lon="8.55896">
        <ele>975</ele>
        <time>2021-08-10T13:32:02.963Z</time>
      </trkpt>
      <trkpt lat="46.9028" lon="8.55893">
        <ele>975</ele>
        <time>2021-08-10T13:32:03.964Z</time>
      </trkpt>
      <trkpt lat="46.90279" lon="8.55892">
        <ele>974</ele>
        <time>2021-08-10T13:32:04.964Z</time>
      </trkpt>
      <trkpt lat="46.90278" lon="8.55891">
        <ele>973</ele>
        <time>2021-08-10T13:32:05.964Z</time>
      </trkpt>
      <trkpt lat="46.90278" lon="8.55891">
        <ele>972</ele>
        <time>2021-08-10T13:32:06.964Z</time>
      </trkpt>
      <trkpt lat="46.90277" lon="8.55891">
        <ele>972</ele>
        <time>2021-08-10T13:32:07.964Z</time>
      </trkpt>
      <trkpt lat="46.90277" lon="8.55891">
        <ele>971</ele>
        <time>2021-08-10T13:32:08.964Z</time>
      </trkpt>
      <trkpt lat="46.90276" lon="8.55891">
        <ele>970</ele>
        <time>2021-08-10T13:32:09.963Z</time>
      </trkpt>
      <trkpt lat="46.90274" lon="8.55891">
        <ele>970</ele>
        <time>2021-08-10T13:32:10.963Z</time>
      </trkpt>
      <trkpt lat="46.90273" lon="8.55892">
        <ele>970</ele>
        <time>2021-08-10T13:32:11.963Z</time>
      </trkpt>
      <trkpt lat="46.90273" lon="8.55892">
        <ele>969</ele>
        <time>2021-08-10T13:32:12.963Z</time>
      </trkpt>
      <trkpt lat="46.90272" lon="8.55893">
        <ele>969</ele>
        <time>2021-08-10T13:32:13.963Z</time>
      </trkpt>
      <trkpt lat="46.90271" lon="8.55894">
        <ele>968</ele>
        <time>2021-08-10T13:32:14.963Z</time>
      </trkpt>
      <trkpt lat="46.9027" lon="8.55895">
        <ele>967</ele>
        <time>2021-08-10T13:32:15.964Z</time>
      </trkpt>
      <trkpt lat="46.90269" lon="8.55896">
        <ele>966</ele>
        <time>2021-08-10T13:32:16.964Z</time>
      </trkpt>
      <trkpt lat="46.90269" lon="8.55897">
        <ele>966</ele>
        <time>2021-08-10T13:32:17.963Z</time>
      </trkpt>
      <trkpt lat="46.90268" lon="8.55897">
        <ele>964</ele>
        <time>2021-08-10T13:32:18.965Z</time>
      </trkpt>
      <trkpt lat="46.90268" lon="8.55897">
        <ele>964</ele>
        <time>2021-08-10T13:32:19.840Z</time>
      </trkpt>
      <trkpt lat="46.90269" lon="8.55902">
        <ele>963</ele>
        <time>2021-08-10T13:32:20.964Z</time>
      </trkpt>
      <trkpt lat="46.90269" lon="8.55904">
        <ele>962</ele>
        <time>2021-08-10T13:32:21.840Z</time>
      </trkpt>
      <trkpt lat="46.9027" lon="8.55904">
        <ele>962</ele>
        <time>2021-08-10T13:32:22.840Z</time>
      </trkpt>
      <trkpt lat="46.9027" lon="8.55905">
        <ele>962</ele>
        <time>2021-08-10T13:32:23.964Z</time>
      </trkpt>
      <trkpt lat="46.9027" lon="8.55906">
        <ele>962</ele>
        <time>2021-08-10T13:32:24.840Z</time>
      </trkpt>
      <trkpt lat="46.90271" lon="8.55906">
        <ele>962</ele>
        <time>2021-08-10T13:32:25.840Z</time>
      </trkpt>
      <trkpt lat="46.90271" lon="8.55906">
        <ele>963</ele>
        <time>2021-08-10T13:32:26.964Z</time>
      </trkpt>
      <trkpt lat="46.90271" lon="8.55907">
        <ele>963</ele>
        <time>2021-08-10T13:32:27.840Z</time>
      </trkpt>
      <trkpt lat="46.90271" lon="8.55909">
        <ele>963</ele>
        <time>2021-08-10T13:32:28.840Z</time>
      </trkpt>
      <trkpt lat="46.9027" lon="8.55909">
        <ele>963</ele>
        <time>2021-08-10T13:32:29.840Z</time>
      </trkpt>
      <trkpt lat="46.90267" lon="8.55913">
        <ele>964</ele>
        <time>2021-08-10T13:32:33.964Z</time>
      </trkpt>
      <trkpt lat="46.90267" lon="8.55913">
        <ele>964</ele>
        <time>2021-08-10T13:32:34.840Z</time>
      </trkpt>
      <trkpt lat="46.90267" lon="8.55913">
        <ele>964</ele>
        <time>2021-08-10T13:32:35.840Z</time>
      </trkpt>
      <trkpt lat="46.90266" lon="8.55913">
        <ele>964</ele>
        <time>2021-08-10T13:32:36.840Z</time>
      </trkpt>
      <trkpt lat="46.90265" lon="8.55913">
        <ele>964</ele>
        <time>2021-08-10T13:32:42.983Z</time>
      </trkpt>
      <trkpt lat="46.90264" lon="8.55914">
        <ele>964</ele>
        <time>2021-08-10T13:32:43.983Z</time>
      </trkpt>
      <trkpt lat="46.90263" lon="8.55914">
        <ele>964</ele>
        <time>2021-08-10T13:32:44.983Z</time>
      </trkpt>
      <trkpt lat="46.90263" lon="8.55914">
        <ele>963</ele>
        <time>2021-08-10T13:32:45.983Z</time>
      </trkpt>
      <trkpt lat="46.90262" lon="8.55914">
        <ele>963</ele>
        <time>2021-08-10T13:32:46.983Z</time>
      </trkpt>
      <trkpt lat="46.90262" lon="8.55918">
        <ele>962</ele>
        <time>2021-08-10T13:32:48.108Z</time>
      </trkpt>
      <trkpt lat="46.90262" lon="8.55918">
        <ele>962</ele>
        <time>2021-08-10T13:32:48.983Z</time>
      </trkpt>
      <trkpt lat="46.90263" lon="8.55922">
        <ele>962</ele>
        <time>2021-08-10T13:32:49.983Z</time>
      </trkpt>
      <trkpt lat="46.90264" lon="8.55925">
        <ele>962</ele>
        <time>2021-08-10T13:32:50.983Z</time>
      </trkpt>
      <trkpt lat="46.90265" lon="8.55927">
        <ele>961</ele>
        <time>2021-08-10T13:32:51.983Z</time>
      </trkpt>
      <trkpt lat="46.90265" lon="8.55929">
        <ele>961</ele>
        <time>2021-08-10T13:32:52.983Z</time>
      </trkpt>
      <trkpt lat="46.90266" lon="8.55931">
        <ele>962</ele>
        <time>2021-08-10T13:32:53.983Z</time>
      </trkpt>
      <trkpt lat="46.90266" lon="8.55933">
        <ele>962</ele>
        <time>2021-08-10T13:32:54.983Z</time>
      </trkpt>
      <trkpt lat="46.90267" lon="8.55934">
        <ele>962</ele>
        <time>2021-08-10T13:32:55.983Z</time>
      </trkpt>
      <trkpt lat="46.90267" lon="8.55936">
        <ele>962</ele>
        <time>2021-08-10T13:32:57.108Z</time>
      </trkpt>
      <trkpt lat="46.90268" lon="8.55937">
        <ele>963</ele>
        <time>2021-08-10T13:32:58.107Z</time>
      </trkpt>
      <trkpt lat="46.90268" lon="8.55937">
        <ele>963</ele>
        <time>2021-08-10T13:32:58.983Z</time>
      </trkpt>
      <trkpt lat="46.90268" lon="8.55938">
        <ele>963</ele>
        <time>2021-08-10T13:32:59.983Z</time>
      </trkpt>
      <trkpt lat="46.90269" lon="8.55939">
        <ele>963</ele>
        <time>2021-08-10T13:33:00.983Z</time>
      </trkpt>
      <trkpt lat="46.9027" lon="8.55939">
        <ele>964</ele>
        <time>2021-08-10T13:33:01.983Z</time>
      </trkpt>
      <trkpt lat="46.9027" lon="8.5594">
        <ele>965</ele>
        <time>2021-08-10T13:33:02.983Z</time>
      </trkpt>
      <trkpt lat="46.9027" lon="8.55941">
        <ele>965</ele>
        <time>2021-08-10T13:33:03.983Z</time>
      </trkpt>
      <trkpt lat="46.90271" lon="8.55942">
        <ele>966</ele>
        <time>2021-08-10T13:33:04.983Z</time>
      </trkpt>
      <trkpt lat="46.90271" lon="8.55943">
        <ele>967</ele>
        <time>2021-08-10T13:33:05.983Z</time>
      </trkpt>
      <trkpt lat="46.90269" lon="8.55942">
        <ele>968</ele>
        <time>2021-08-10T13:33:07.108Z</time>
      </trkpt>
      <trkpt lat="46.90269" lon="8.55942">
        <ele>968</ele>
        <time>2021-08-10T13:33:07.983Z</time>
      </trkpt>
      <trkpt lat="46.90266" lon="8.55941">
        <ele>970</ele>
        <time>2021-08-10T13:33:09.108Z</time>
      </trkpt>
      <trkpt lat="46.90266" lon="8.55941">
        <ele>970</ele>
        <time>2021-08-10T13:33:09.983Z</time>
      </trkpt>
      <trkpt lat="46.90265" lon="8.5594">
        <ele>970</ele>
        <time>2021-08-10T13:33:10.983Z</time>
      </trkpt>
      <trkpt lat="46.90264" lon="8.55938">
        <ele>971</ele>
        <time>2021-08-10T13:33:11.983Z</time>
      </trkpt>
      <trkpt lat="46.90263" lon="8.55937">
        <ele>971</ele>
        <time>2021-08-10T13:33:12.983Z</time>
      </trkpt>
      <trkpt lat="46.90263" lon="8.55936">
        <ele>972</ele>
        <time>2021-08-10T13:33:14.107Z</time>
      </trkpt>
      <trkpt lat="46.90263" lon="8.55936">
        <ele>972</ele>
        <time>2021-08-10T13:33:14.983Z</time>
      </trkpt>
      <trkpt lat="46.90261" lon="8.55936">
        <ele>973</ele>
        <time>2021-08-10T13:33:16.108Z</time>
      </trkpt>
      <trkpt lat="46.90261" lon="8.55936">
        <ele>973</ele>
        <time>2021-08-10T13:33:16.983Z</time>
      </trkpt>
      <trkpt lat="46.90261" lon="8.55935">
        <ele>973</ele>
        <time>2021-08-10T13:33:17.983Z</time>
      </trkpt>
      <trkpt lat="46.9026" lon="8.55935">
        <ele>973</ele>
        <time>2021-08-10T13:33:19.108Z</time>
      </trkpt>
      <trkpt lat="46.9026" lon="8.55935">
        <ele>973</ele>
        <time>2021-08-10T13:33:19.983Z</time>
      </trkpt>
      <trkpt lat="46.9026" lon="8.55935">
        <ele>973</ele>
        <time>2021-08-10T13:33:20.983Z</time>
      </trkpt>
      <trkpt lat="46.90259" lon="8.55935">
        <ele>974</ele>
        <time>2021-08-10T13:33:22.107Z</time>
      </trkpt>
      <trkpt lat="46.90259" lon="8.55935">
        <ele>974</ele>
        <time>2021-08-10T13:33:22.983Z</time>
      </trkpt>
      <trkpt lat="46.90259" lon="8.55934">
        <ele>974</ele>
        <time>2021-08-10T13:33:23.983Z</time>
      </trkpt>
      <trkpt lat="46.90258" lon="8.55934">
        <ele>974</ele>
        <time>2021-08-10T13:33:24.983Z</time>
      </trkpt>
      <trkpt lat="46.90258" lon="8.55934">
        <ele>974</ele>
        <time>2021-08-10T13:33:25.983Z</time>
      </trkpt>
      <trkpt lat="46.90257" lon="8.55934">
        <ele>974</ele>
        <time>2021-08-10T13:33:26.983Z</time>
      </trkpt>
      <trkpt lat="46.90257" lon="8.55933">
        <ele>974</ele>
        <time>2021-08-10T13:33:27.983Z</time>
      </trkpt>
      <trkpt lat="46.90255" lon="8.55932">
        <ele>974</ele>
        <time>2021-08-10T13:33:28.983Z</time>
      </trkpt>
      <trkpt lat="46.90254" lon="8.55932">
        <ele>974</ele>
        <time>2021-08-10T13:33:29.983Z</time>
      </trkpt>
      <trkpt lat="46.90254" lon="8.55932">
        <ele>974</ele>
        <time>2021-08-10T13:33:30.983Z</time>
      </trkpt>
      <trkpt lat="46.90254" lon="8.55932">
        <ele>974</ele>
        <time>2021-08-10T13:33:31.983Z</time>
      </trkpt>
      <trkpt lat="46.90253" lon="8.55931">
        <ele>974</ele>
        <time>2021-08-10T13:33:33.108Z</time>
      </trkpt>
      <trkpt lat="46.90252" lon="8.55931">
        <ele>973</ele>
        <time>2021-08-10T13:33:34.107Z</time>
      </trkpt>
      <trkpt lat="46.90252" lon="8.55931">
        <ele>973</ele>
        <time>2021-08-10T13:33:36.104Z</time>
      </trkpt>
      <trkpt lat="46.90251" lon="8.55931">
        <ele>973</ele>
        <time>2021-08-10T13:33:37.104Z</time>
      </trkpt>
      <trkpt lat="46.9025" lon="8.55931">
        <ele>973</ele>
        <time>2021-08-10T13:33:38.104Z</time>
      </trkpt>
      <trkpt lat="46.90249" lon="8.5593">
        <ele>974</ele>
        <time>2021-08-10T13:33:39.228Z</time>
      </trkpt>
      <trkpt lat="46.90249" lon="8.5593">
        <ele>974</ele>
        <time>2021-08-10T13:33:40.104Z</time>
      </trkpt>
      <trkpt lat="46.90248" lon="8.5593">
        <ele>975</ele>
        <time>2021-08-10T13:33:41.104Z</time>
      </trkpt>
      <trkpt lat="46.90247" lon="8.5593">
        <ele>975</ele>
        <time>2021-08-10T13:33:42.104Z</time>
      </trkpt>
      <trkpt lat="46.90246" lon="8.5593">
        <ele>976</ele>
        <time>2021-08-10T13:33:43.104Z</time>
      </trkpt>
      <trkpt lat="46.90245" lon="8.55931">
        <ele>977</ele>
        <time>2021-08-10T13:33:44.104Z</time>
      </trkpt>
      <trkpt lat="46.90244" lon="8.55931">
        <ele>977</ele>
        <time>2021-08-10T13:33:45.104Z</time>
      </trkpt>
      <trkpt lat="46.90242" lon="8.55931">
        <ele>978</ele>
        <time>2021-08-10T13:33:46.228Z</time>
      </trkpt>
      <trkpt lat="46.90241" lon="8.55932">
        <ele>979</ele>
        <time>2021-08-10T13:33:47.229Z</time>
      </trkpt>
      <trkpt lat="46.90241" lon="8.55932">
        <ele>979</ele>
        <time>2021-08-10T13:33:48.104Z</time>
      </trkpt>
      <trkpt lat="46.90239" lon="8.55932">
        <ele>979</ele>
        <time>2021-08-10T13:33:49.104Z</time>
      </trkpt>
      <trkpt lat="46.90238" lon="8.55932">
        <ele>980</ele>
        <time>2021-08-10T13:33:50.228Z</time>
      </trkpt>
      <trkpt lat="46.90238" lon="8.55932">
        <ele>980</ele>
        <time>2021-08-10T13:33:51.104Z</time>
      </trkpt>
      <trkpt lat="46.90237" lon="8.55932">
        <ele>981</ele>
        <time>2021-08-10T13:33:52.104Z</time>
      </trkpt>
      <trkpt lat="46.90236" lon="8.55932">
        <ele>981</ele>
        <time>2021-08-10T13:33:53.104Z</time>
      </trkpt>
      <trkpt lat="46.90235" lon="8.55933">
        <ele>982</ele>
        <time>2021-08-10T13:33:54.229Z</time>
      </trkpt>
      <trkpt lat="46.90235" lon="8.55933">
        <ele>982</ele>
        <time>2021-08-10T13:33:55.104Z</time>
      </trkpt>
      <trkpt lat="46.90235" lon="8.55933">
        <ele>982</ele>
        <time>2021-08-10T13:33:56.104Z</time>
      </trkpt>
      <trkpt lat="46.90234" lon="8.55933">
        <ele>982</ele>
        <time>2021-08-10T13:33:57.228Z</time>
      </trkpt>
      <trkpt lat="46.90233" lon="8.55934">
        <ele>982</ele>
        <time>2021-08-10T13:33:58.229Z</time>
      </trkpt>
      <trkpt lat="46.90232" lon="8.55934">
        <ele>982</ele>
        <time>2021-08-10T13:33:59.229Z</time>
      </trkpt>
      <trkpt lat="46.90232" lon="8.55935">
        <ele>982</ele>
        <time>2021-08-10T13:34:00.229Z</time>
      </trkpt>
      <trkpt lat="46.90231" lon="8.55936">
        <ele>982</ele>
        <time>2021-08-10T13:34:01.229Z</time>
      </trkpt>
      <trkpt lat="46.9023" lon="8.55935">
        <ele>982</ele>
        <time>2021-08-10T13:34:02.228Z</time>
      </trkpt>
      <trkpt lat="46.9023" lon="8.55935">
        <ele>982</ele>
        <time>2021-08-10T13:34:03.104Z</time>
      </trkpt>
      <trkpt lat="46.90229" lon="8.55936">
        <ele>982</ele>
        <time>2021-08-10T13:34:04.104Z</time>
      </trkpt>
      <trkpt lat="46.90228" lon="8.55936">
        <ele>982</ele>
        <time>2021-08-10T13:34:05.104Z</time>
      </trkpt>
      <trkpt lat="46.90227" lon="8.55936">
        <ele>983</ele>
        <time>2021-08-10T13:34:06.104Z</time>
      </trkpt>
      <trkpt lat="46.90226" lon="8.55935">
        <ele>983</ele>
        <time>2021-08-10T13:34:07.229Z</time>
      </trkpt>
      <trkpt lat="46.90226" lon="8.55935">
        <ele>983</ele>
        <time>2021-08-10T13:34:08.104Z</time>
      </trkpt>
      <trkpt lat="46.90226" lon="8.55935">
        <ele>984</ele>
        <time>2021-08-10T13:34:09.104Z</time>
      </trkpt>
      <trkpt lat="46.90225" lon="8.55934">
        <ele>984</ele>
        <time>2021-08-10T13:34:10.104Z</time>
      </trkpt>
      <trkpt lat="46.90224" lon="8.55934">
        <ele>983</ele>
        <time>2021-08-10T13:34:11.228Z</time>
      </trkpt>
      <trkpt lat="46.90224" lon="8.55934">
        <ele>983</ele>
        <time>2021-08-10T13:34:12.104Z</time>
      </trkpt>
      <trkpt lat="46.90224" lon="8.55933">
        <ele>982</ele>
        <time>2021-08-10T13:34:13.104Z</time>
      </trkpt>
      <trkpt lat="46.90223" lon="8.55932">
        <ele>981</ele>
        <time>2021-08-10T13:34:14.104Z</time>
      </trkpt>
      <trkpt lat="46.90223" lon="8.55932">
        <ele>981</ele>
        <time>2021-08-10T13:34:15.104Z</time>
      </trkpt>
      <trkpt lat="46.90222" lon="8.55931">
        <ele>981</ele>
        <time>2021-08-10T13:34:16.104Z</time>
      </trkpt>
      <trkpt lat="46.90222" lon="8.55931">
        <ele>981</ele>
        <time>2021-08-10T13:34:17.104Z</time>
      </trkpt>
      <trkpt lat="46.90222" lon="8.5593">
        <ele>981</ele>
        <time>2021-08-10T13:34:18.104Z</time>
      </trkpt>
      <trkpt lat="46.90222" lon="8.55933">
        <ele>980</ele>
        <time>2021-08-10T13:34:19.104Z</time>
      </trkpt>
      <trkpt lat="46.90221" lon="8.55933">
        <ele>980</ele>
        <time>2021-08-10T13:34:20.104Z</time>
      </trkpt>
      <trkpt lat="46.90219" lon="8.55935">
        <ele>980</ele>
        <time>2021-08-10T13:34:21.104Z</time>
      </trkpt>
      <trkpt lat="46.90219" lon="8.55936">
        <ele>980</ele>
        <time>2021-08-10T13:34:22.104Z</time>
      </trkpt>
      <trkpt lat="46.90216" lon="8.55931">
        <ele>976</ele>
        <time>2021-08-10T13:34:23.104Z</time>
      </trkpt>
      <trkpt lat="46.90215" lon="8.55931">
        <ele>976</ele>
        <time>2021-08-10T13:34:24.104Z</time>
      </trkpt>
      <trkpt lat="46.90215" lon="8.55931">
        <ele>975</ele>
        <time>2021-08-10T13:34:25.105Z</time>
      </trkpt>
      <trkpt lat="46.90215" lon="8.55931">
        <ele>974</ele>
        <time>2021-08-10T13:34:26.105Z</time>
      </trkpt>
      <trkpt lat="46.90214" lon="8.5593">
        <ele>974</ele>
        <time>2021-08-10T13:34:27.104Z</time>
      </trkpt>
      <trkpt lat="46.90213" lon="8.55932">
        <ele>972</ele>
        <time>2021-08-10T13:34:28.106Z</time>
      </trkpt>
      <trkpt lat="46.90213" lon="8.55932">
        <ele>971</ele>
        <time>2021-08-10T13:34:29.106Z</time>
      </trkpt>
      <trkpt lat="46.90213" lon="8.55932">
        <ele>970</ele>
        <time>2021-08-10T13:34:30.105Z</time>
      </trkpt>
      <trkpt lat="46.90212" lon="8.55935">
        <ele>968</ele>
        <time>2021-08-10T13:34:31.107Z</time>
      </trkpt>
      <trkpt lat="46.90212" lon="8.55935">
        <ele>969</ele>
        <time>2021-08-10T13:34:32.106Z</time>
      </trkpt>
      <trkpt lat="46.90211" lon="8.55928">
        <ele>969</ele>
        <time>2021-08-10T13:34:33.108Z</time>
      </trkpt>
      <trkpt lat="46.9021" lon="8.55926">
        <ele>970</ele>
        <time>2021-08-10T13:34:34.108Z</time>
      </trkpt>
      <trkpt lat="46.90211" lon="8.55925">
        <ele>970</ele>
        <time>2021-08-10T13:34:35.107Z</time>
      </trkpt>
      <trkpt lat="46.90211" lon="8.55924">
        <ele>971</ele>
        <time>2021-08-10T13:34:36.108Z</time>
      </trkpt>
      <trkpt lat="46.90211" lon="8.55923">
        <ele>971</ele>
        <time>2021-08-10T13:34:37.107Z</time>
      </trkpt>
      <trkpt lat="46.90212" lon="8.55921">
        <ele>972</ele>
        <time>2021-08-10T13:34:38.107Z</time>
      </trkpt>
      <trkpt lat="46.90212" lon="8.55924">
        <ele>977</ele>
        <time>2021-08-10T13:34:39.107Z</time>
      </trkpt>
      <trkpt lat="46.90211" lon="8.55924">
        <ele>994</ele>
        <time>2021-08-10T13:34:40.108Z</time>
      </trkpt>
      <trkpt lat="46.90212" lon="8.55925">
        <ele>995</ele>
        <time>2021-08-10T13:34:41.108Z</time>
      </trkpt>
      <trkpt lat="46.90212" lon="8.55925">
        <ele>997</ele>
        <time>2021-08-10T13:34:42.107Z</time>
      </trkpt>
      <trkpt lat="46.90211" lon="8.55925">
        <ele>1001</ele>
        <time>2021-08-10T13:34:43.107Z</time>
      </trkpt>
      <trkpt lat="46.90209" lon="8.55923">
        <ele>1001</ele>
        <time>2021-08-10T13:34:44.107Z</time>
      </trkpt>
      <trkpt lat="46.90208" lon="8.55922">
        <ele>1001</ele>
        <time>2021-08-10T13:34:45.107Z</time>
      </trkpt>
      <trkpt lat="46.90207" lon="8.5592">
        <ele>1000</ele>
        <time>2021-08-10T13:34:46.108Z</time>
      </trkpt>
      <trkpt lat="46.90206" lon="8.5592">
        <ele>999</ele>
        <time>2021-08-10T13:34:47.107Z</time>
      </trkpt>
      <trkpt lat="46.90206" lon="8.5592">
        <ele>998</ele>
        <time>2021-08-10T13:34:48.107Z</time>
      </trkpt>
      <trkpt lat="46.90205" lon="8.55921">
        <ele>998</ele>
        <time>2021-08-10T13:34:49.108Z</time>
      </trkpt>
      <trkpt lat="46.90205" lon="8.55921">
        <ele>997</ele>
        <time>2021-08-10T13:34:50.108Z</time>
      </trkpt>
      <trkpt lat="46.90204" lon="8.55921">
        <ele>996</ele>
        <time>2021-08-10T13:34:51.108Z</time>
      </trkpt>
      <trkpt lat="46.90203" lon="8.5592">
        <ele>995</ele>
        <time>2021-08-10T13:34:52.107Z</time>
      </trkpt>
      <trkpt lat="46.90203" lon="8.5592">
        <ele>994</ele>
        <time>2021-08-10T13:34:53.108Z</time>
      </trkpt>
      <trkpt lat="46.90201" lon="8.55919">
        <ele>993</ele>
        <time>2021-08-10T13:34:54.107Z</time>
      </trkpt>
      <trkpt lat="46.902" lon="8.55919">
        <ele>992</ele>
        <time>2021-08-10T13:34:55.108Z</time>
      </trkpt>
      <trkpt lat="46.902" lon="8.55919">
        <ele>991</ele>
        <time>2021-08-10T13:34:56.108Z</time>
      </trkpt>
      <trkpt lat="46.902" lon="8.55919">
        <ele>990</ele>
        <time>2021-08-10T13:34:57.108Z</time>
      </trkpt>
      <trkpt lat="46.90199" lon="8.5592">
        <ele>989</ele>
        <time>2021-08-10T13:34:58.108Z</time>
      </trkpt>
      <trkpt lat="46.90198" lon="8.55921">
        <ele>988</ele>
        <time>2021-08-10T13:34:59.108Z</time>
      </trkpt>
      <trkpt lat="46.90197" lon="8.55922">
        <ele>987</ele>
        <time>2021-08-10T13:35:00.108Z</time>
      </trkpt>
      <trkpt lat="46.90197" lon="8.55923">
        <ele>987</ele>
        <time>2021-08-10T13:35:01.107Z</time>
      </trkpt>
      <trkpt lat="46.90197" lon="8.55923">
        <ele>986</ele>
        <time>2021-08-10T13:35:02.108Z</time>
      </trkpt>
      <trkpt lat="46.90198" lon="8.55924">
        <ele>985</ele>
        <time>2021-08-10T13:35:03.108Z</time>
      </trkpt>
      <trkpt lat="46.90198" lon="8.55925">
        <ele>984</ele>
        <time>2021-08-10T13:35:04.108Z</time>
      </trkpt>
      <trkpt lat="46.90198" lon="8.55928">
        <ele>981</ele>
        <time>2021-08-10T13:35:05.108Z</time>
      </trkpt>
      <trkpt lat="46.90197" lon="8.55928">
        <ele>981</ele>
        <time>2021-08-10T13:35:06.107Z</time>
      </trkpt>
      <trkpt lat="46.90197" lon="8.55928">
        <ele>981</ele>
        <time>2021-08-10T13:35:07.107Z</time>
      </trkpt>
      <trkpt lat="46.90196" lon="8.55929">
        <ele>980</ele>
        <time>2021-08-10T13:35:08.108Z</time>
      </trkpt>
      <trkpt lat="46.90196" lon="8.55929">
        <ele>980</ele>
        <time>2021-08-10T13:35:09.108Z</time>
      </trkpt>
      <trkpt lat="46.90195" lon="8.55929">
        <ele>980</ele>
        <time>2021-08-10T13:35:10.107Z</time>
      </trkpt>
      <trkpt lat="46.90195" lon="8.5593">
        <ele>980</ele>
        <time>2021-08-10T13:35:11.108Z</time>
      </trkpt>
      <trkpt lat="46.90194" lon="8.5593">
        <ele>980</ele>
        <time>2021-08-10T13:35:12.108Z</time>
      </trkpt>
      <trkpt lat="46.90194" lon="8.55931">
        <ele>980</ele>
        <time>2021-08-10T13:35:13.107Z</time>
      </trkpt>
      <trkpt lat="46.90193" lon="8.55931">
        <ele>980</ele>
        <time>2021-08-10T13:35:14.107Z</time>
      </trkpt>
      <trkpt lat="46.90193" lon="8.55932">
        <ele>980</ele>
        <time>2021-08-10T13:35:15.107Z</time>
      </trkpt>
      <trkpt lat="46.90192" lon="8.55932">
        <ele>981</ele>
        <time>2021-08-10T13:35:16.108Z</time>
      </trkpt>
      <trkpt lat="46.90192" lon="8.55933">
        <ele>982</ele>
        <time>2021-08-10T13:35:17.108Z</time>
      </trkpt>
      <trkpt lat="46.90191" lon="8.55935">
        <ele>982</ele>
        <time>2021-08-10T13:35:18.108Z</time>
      </trkpt>
      <trkpt lat="46.9019" lon="8.55936">
        <ele>983</ele>
        <time>2021-08-10T13:35:19.107Z</time>
      </trkpt>
      <trkpt lat="46.90188" lon="8.55936">
        <ele>983</ele>
        <time>2021-08-10T13:35:20.107Z</time>
      </trkpt>
      <trkpt lat="46.90187" lon="8.55936">
        <ele>983</ele>
        <time>2021-08-10T13:35:21.108Z</time>
      </trkpt>
      <trkpt lat="46.90185" lon="8.55936">
        <ele>984</ele>
        <time>2021-08-10T13:35:22.108Z</time>
      </trkpt>
      <trkpt lat="46.90183" lon="8.55936">
        <ele>984</ele>
        <time>2021-08-10T13:35:23.108Z</time>
      </trkpt>
      <trkpt lat="46.90183" lon="8.55935">
        <ele>984</ele>
        <time>2021-08-10T13:35:24.107Z</time>
      </trkpt>
      <trkpt lat="46.90182" lon="8.55934">
        <ele>985</ele>
        <time>2021-08-10T13:35:25.108Z</time>
      </trkpt>
      <trkpt lat="46.90181" lon="8.55934">
        <ele>985</ele>
        <time>2021-08-10T13:35:26.107Z</time>
      </trkpt>
      <trkpt lat="46.90181" lon="8.55935">
        <ele>985</ele>
        <time>2021-08-10T13:35:27.108Z</time>
      </trkpt>
      <trkpt lat="46.90181" lon="8.55936">
        <ele>986</ele>
        <time>2021-08-10T13:35:28.107Z</time>
      </trkpt>
      <trkpt lat="46.9018" lon="8.55937">
        <ele>986</ele>
        <time>2021-08-10T13:35:29.107Z</time>
      </trkpt>
      <trkpt lat="46.9018" lon="8.55937">
        <ele>986</ele>
        <time>2021-08-10T13:35:30.108Z</time>
      </trkpt>
      <trkpt lat="46.9018" lon="8.55938">
        <ele>985</ele>
        <time>2021-08-10T13:35:31.108Z</time>
      </trkpt>
      <trkpt lat="46.90179" lon="8.55938">
        <ele>985</ele>
        <time>2021-08-10T13:35:32.108Z</time>
      </trkpt>
      <trkpt lat="46.90179" lon="8.55939">
        <ele>985</ele>
        <time>2021-08-10T13:35:33.107Z</time>
      </trkpt>
      <trkpt lat="46.90178" lon="8.55939">
        <ele>985</ele>
        <time>2021-08-10T13:35:34.107Z</time>
      </trkpt>
      <trkpt lat="46.90177" lon="8.55939">
        <ele>984</ele>
        <time>2021-08-10T13:35:35.107Z</time>
      </trkpt>
      <trkpt lat="46.90177" lon="8.55939">
        <ele>984</ele>
        <time>2021-08-10T13:35:36.108Z</time>
      </trkpt>
      <trkpt lat="46.90176" lon="8.55939">
        <ele>984</ele>
        <time>2021-08-10T13:35:37.108Z</time>
      </trkpt>
      <trkpt lat="46.90175" lon="8.55939">
        <ele>984</ele>
        <time>2021-08-10T13:35:38.108Z</time>
      </trkpt>
      <trkpt lat="46.90174" lon="8.55939">
        <ele>984</ele>
        <time>2021-08-10T13:35:39.108Z</time>
      </trkpt>
      <trkpt lat="46.90174" lon="8.55938">
        <ele>984</ele>
        <time>2021-08-10T13:35:40.108Z</time>
      </trkpt>
      <trkpt lat="46.90173" lon="8.55937">
        <ele>984</ele>
        <time>2021-08-10T13:35:41.107Z</time>
      </trkpt>
      <trkpt lat="46.90173" lon="8.55936">
        <ele>984</ele>
        <time>2021-08-10T13:35:42.107Z</time>
      </trkpt>
      <trkpt lat="46.90172" lon="8.55934">
        <ele>984</ele>
        <time>2021-08-10T13:35:43.107Z</time>
      </trkpt>
      <trkpt lat="46.90171" lon="8.55932">
        <ele>984</ele>
        <time>2021-08-10T13:35:44.108Z</time>
      </trkpt>
      <trkpt lat="46.9017" lon="8.5593">
        <ele>984</ele>
        <time>2021-08-10T13:35:45.107Z</time>
      </trkpt>
      <trkpt lat="46.90168" lon="8.55928">
        <ele>984</ele>
        <time>2021-08-10T13:35:48.191Z</time>
      </trkpt>
      <trkpt lat="46.90167" lon="8.55926">
        <ele>984</ele>
        <time>2021-08-10T13:35:49.192Z</time>
      </trkpt>
      <trkpt lat="46.90166" lon="8.55923">
        <ele>984</ele>
        <time>2021-08-10T13:35:50.192Z</time>
      </trkpt>
      <trkpt lat="46.90166" lon="8.5592">
        <ele>985</ele>
        <time>2021-08-10T13:35:51.191Z</time>
      </trkpt>
      <trkpt lat="46.90165" lon="8.55918">
        <ele>985</ele>
        <time>2021-08-10T13:35:52.192Z</time>
      </trkpt>
      <trkpt lat="46.90164" lon="8.55915">
        <ele>985</ele>
        <time>2021-08-10T13:35:53.192Z</time>
      </trkpt>
      <trkpt lat="46.90163" lon="8.55911">
        <ele>985</ele>
        <time>2021-08-10T13:35:54.192Z</time>
      </trkpt>
      <trkpt lat="46.90162" lon="8.55909">
        <ele>985</ele>
        <time>2021-08-10T13:35:55.191Z</time>
      </trkpt>
      <trkpt lat="46.90161" lon="8.55909">
        <ele>985</ele>
        <time>2021-08-10T13:35:56.192Z</time>
      </trkpt>
      <trkpt lat="46.9016" lon="8.55907">
        <ele>985</ele>
        <time>2021-08-10T13:35:57.192Z</time>
      </trkpt>
      <trkpt lat="46.9016" lon="8.55907">
        <ele>984</ele>
        <time>2021-08-10T13:35:58.192Z</time>
      </trkpt>
      <trkpt lat="46.90159" lon="8.55906">
        <ele>985</ele>
        <time>2021-08-10T13:35:59.192Z</time>
      </trkpt>
      <trkpt lat="46.90159" lon="8.55905">
        <ele>985</ele>
        <time>2021-08-10T13:36:00.192Z</time>
      </trkpt>
      <trkpt lat="46.9016" lon="8.55903">
        <ele>985</ele>
        <time>2021-08-10T13:36:01.191Z</time>
      </trkpt>
      <trkpt lat="46.90161" lon="8.55907">
        <ele>986</ele>
        <time>2021-08-10T13:36:02.191Z</time>
      </trkpt>
      <trkpt lat="46.90161" lon="8.55907">
        <ele>987</ele>
        <time>2021-08-10T13:36:03.191Z</time>
      </trkpt>
      <trkpt lat="46.90161" lon="8.55907">
        <ele>988</ele>
        <time>2021-08-10T13:36:04.192Z</time>
      </trkpt>
      <trkpt lat="46.90162" lon="8.55907">
        <ele>989</ele>
        <time>2021-08-10T13:36:05.192Z</time>
      </trkpt>
      <trkpt lat="46.90164" lon="8.55908">
        <ele>990</ele>
        <time>2021-08-10T13:36:06.191Z</time>
      </trkpt>
      <trkpt lat="46.90165" lon="8.55908">
        <ele>991</ele>
        <time>2021-08-10T13:36:07.191Z</time>
      </trkpt>
      <trkpt lat="46.90165" lon="8.55907">
        <ele>992</ele>
        <time>2021-08-10T13:36:08.192Z</time>
      </trkpt>
      <trkpt lat="46.90166" lon="8.55907">
        <ele>993</ele>
        <time>2021-08-10T13:36:09.192Z</time>
      </trkpt>
      <trkpt lat="46.90166" lon="8.55906">
        <ele>994</ele>
        <time>2021-08-10T13:36:10.191Z</time>
      </trkpt>
      <trkpt lat="46.90167" lon="8.55905">
        <ele>995</ele>
        <time>2021-08-10T13:36:11.192Z</time>
      </trkpt>
      <trkpt lat="46.90168" lon="8.55904">
        <ele>996</ele>
        <time>2021-08-10T13:36:12.191Z</time>
      </trkpt>
      <trkpt lat="46.90168" lon="8.55903">
        <ele>996</ele>
        <time>2021-08-10T13:36:13.192Z</time>
      </trkpt>
      <trkpt lat="46.90168" lon="8.55903">
        <ele>997</ele>
        <time>2021-08-10T13:36:14.192Z</time>
      </trkpt>
      <trkpt lat="46.90168" lon="8.55903">
        <ele>997</ele>
        <time>2021-08-10T13:36:15.192Z</time>
      </trkpt>
      <trkpt lat="46.90167" lon="8.55902">
        <ele>997</ele>
        <time>2021-08-10T13:36:16.192Z</time>
      </trkpt>
      <trkpt lat="46.90167" lon="8.55901">
        <ele>996</ele>
        <time>2021-08-10T13:36:17.191Z</time>
      </trkpt>
      <trkpt lat="46.90167" lon="8.559">
        <ele>996</ele>
        <time>2021-08-10T13:36:18.191Z</time>
      </trkpt>
      <trkpt lat="46.90167" lon="8.55899">
        <ele>996</ele>
        <time>2021-08-10T13:36:19.191Z</time>
      </trkpt>
      <trkpt lat="46.90167" lon="8.55898">
        <ele>995</ele>
        <time>2021-08-10T13:36:20.191Z</time>
      </trkpt>
      <trkpt lat="46.90167" lon="8.55897">
        <ele>994</ele>
        <time>2021-08-10T13:36:21.192Z</time>
      </trkpt>
      <trkpt lat="46.90166" lon="8.55896">
        <ele>994</ele>
        <time>2021-08-10T13:36:22.191Z</time>
      </trkpt>
      <trkpt lat="46.90166" lon="8.55895">
        <ele>993</ele>
        <time>2021-08-10T13:36:23.192Z</time>
      </trkpt>
      <trkpt lat="46.90165" lon="8.55895">
        <ele>992</ele>
        <time>2021-08-10T13:36:24.192Z</time>
      </trkpt>
      <trkpt lat="46.90164" lon="8.55894">
        <ele>991</ele>
        <time>2021-08-10T13:36:25.192Z</time>
      </trkpt>
      <trkpt lat="46.90164" lon="8.55893">
        <ele>991</ele>
        <time>2021-08-10T13:36:26.191Z</time>
      </trkpt>
      <trkpt lat="46.90163" lon="8.55893">
        <ele>991</ele>
        <time>2021-08-10T13:36:27.192Z</time>
      </trkpt>
      <trkpt lat="46.90163" lon="8.55892">
        <ele>991</ele>
        <time>2021-08-10T13:36:28.191Z</time>
      </trkpt>
      <trkpt lat="46.90162" lon="8.55892">
        <ele>991</ele>
        <time>2021-08-10T13:36:29.191Z</time>
      </trkpt>
      <trkpt lat="46.90162" lon="8.55892">
        <ele>991</ele>
        <time>2021-08-10T13:36:30.192Z</time>
      </trkpt>
      <trkpt lat="46.90161" lon="8.55892">
        <ele>991</ele>
        <time>2021-08-10T13:36:31.192Z</time>
      </trkpt>
      <trkpt lat="46.9016" lon="8.55892">
        <ele>990</ele>
        <time>2021-08-10T13:36:32.191Z</time>
      </trkpt>
      <trkpt lat="46.90159" lon="8.55892">
        <ele>990</ele>
        <time>2021-08-10T13:36:33.191Z</time>
      </trkpt>
      <trkpt lat="46.90158" lon="8.55892">
        <ele>989</ele>
        <time>2021-08-10T13:36:34.192Z</time>
      </trkpt>
      <trkpt lat="46.90157" lon="8.55892">
        <ele>989</ele>
        <time>2021-08-10T13:36:35.191Z</time>
      </trkpt>
      <trkpt lat="46.90156" lon="8.55891">
        <ele>989</ele>
        <time>2021-08-10T13:36:36.192Z</time>
      </trkpt>
      <trkpt lat="46.90154" lon="8.55891">
        <ele>988</ele>
        <time>2021-08-10T13:36:37.191Z</time>
      </trkpt>
      <trkpt lat="46.90153" lon="8.5589">
        <ele>988</ele>
        <time>2021-08-10T13:36:38.191Z</time>
      </trkpt>
      <trkpt lat="46.90153" lon="8.5589">
        <ele>988</ele>
        <time>2021-08-10T13:36:39.191Z</time>
      </trkpt>
      <trkpt lat="46.90152" lon="8.5589">
        <ele>988</ele>
        <time>2021-08-10T13:36:40.191Z</time>
      </trkpt>
      <trkpt lat="46.90151" lon="8.5589">
        <ele>988</ele>
        <time>2021-08-10T13:36:41.191Z</time>
      </trkpt>
      <trkpt lat="46.90151" lon="8.5589">
        <ele>987</ele>
        <time>2021-08-10T13:36:42.191Z</time>
      </trkpt>
      <trkpt lat="46.9015" lon="8.55889">
        <ele>987</ele>
        <time>2021-08-10T13:36:43.191Z</time>
      </trkpt>
      <trkpt lat="46.90149" lon="8.55889">
        <ele>986</ele>
        <time>2021-08-10T13:36:44.191Z</time>
      </trkpt>
      <trkpt lat="46.90148" lon="8.55889">
        <ele>986</ele>
        <time>2021-08-10T13:36:45.192Z</time>
      </trkpt>
      <trkpt lat="46.90147" lon="8.55888">
        <ele>985</ele>
        <time>2021-08-10T13:36:46.191Z</time>
      </trkpt>
      <trkpt lat="46.90147" lon="8.55886">
        <ele>985</ele>
        <time>2021-08-10T13:36:47.191Z</time>
      </trkpt>
      <trkpt lat="46.90147" lon="8.55884">
        <ele>985</ele>
        <time>2021-08-10T13:36:48.191Z</time>
      </trkpt>
      <trkpt lat="46.90146" lon="8.55883">
        <ele>985</ele>
        <time>2021-08-10T13:36:49.191Z</time>
      </trkpt>
      <trkpt lat="46.90144" lon="8.55882">
        <ele>985</ele>
        <time>2021-08-10T13:36:50.191Z</time>
      </trkpt>
      <trkpt lat="46.90143" lon="8.55881">
        <ele>985</ele>
        <time>2021-08-10T13:36:51.191Z</time>
      </trkpt>
      <trkpt lat="46.90143" lon="8.5588">
        <ele>985</ele>
        <time>2021-08-10T13:36:52.191Z</time>
      </trkpt>
      <trkpt lat="46.90143" lon="8.55878">
        <ele>985</ele>
        <time>2021-08-10T13:36:53.191Z</time>
      </trkpt>
      <trkpt lat="46.90143" lon="8.55877">
        <ele>985</ele>
        <time>2021-08-10T13:36:54.191Z</time>
      </trkpt>
      <trkpt lat="46.90143" lon="8.55876">
        <ele>985</ele>
        <time>2021-08-10T13:36:55.192Z</time>
      </trkpt>
      <trkpt lat="46.90142" lon="8.55874">
        <ele>984</ele>
        <time>2021-08-10T13:36:56.191Z</time>
      </trkpt>
      <trkpt lat="46.90142" lon="8.55873">
        <ele>984</ele>
        <time>2021-08-10T13:36:57.191Z</time>
      </trkpt>
      <trkpt lat="46.90142" lon="8.55872">
        <ele>984</ele>
        <time>2021-08-10T13:36:58.191Z</time>
      </trkpt>
      <trkpt lat="46.90142" lon="8.5587">
        <ele>984</ele>
        <time>2021-08-10T13:36:59.192Z</time>
      </trkpt>
      <trkpt lat="46.90142" lon="8.55869">
        <ele>984</ele>
        <time>2021-08-10T13:37:00.191Z</time>
      </trkpt>
      <trkpt lat="46.90141" lon="8.55867">
        <ele>984</ele>
        <time>2021-08-10T13:37:01.191Z</time>
      </trkpt>
      <trkpt lat="46.90141" lon="8.55866">
        <ele>984</ele>
        <time>2021-08-10T13:37:02.191Z</time>
      </trkpt>
      <trkpt lat="46.9014" lon="8.55865">
        <ele>984</ele>
        <time>2021-08-10T13:37:03.191Z</time>
      </trkpt>
      <trkpt lat="46.9014" lon="8.55864">
        <ele>984</ele>
        <time>2021-08-10T13:37:04.191Z</time>
      </trkpt>
      <trkpt lat="46.9014" lon="8.55862">
        <ele>984</ele>
        <time>2021-08-10T13:37:05.191Z</time>
      </trkpt>
      <trkpt lat="46.90139" lon="8.55861">
        <ele>984</ele>
        <time>2021-08-10T13:37:06.192Z</time>
      </trkpt>
      <trkpt lat="46.90138" lon="8.5586">
        <ele>984</ele>
        <time>2021-08-10T13:37:07.192Z</time>
      </trkpt>
      <trkpt lat="46.90137" lon="8.5586">
        <ele>984</ele>
        <time>2021-08-10T13:37:08.191Z</time>
      </trkpt>
      <trkpt lat="46.90137" lon="8.55859">
        <ele>984</ele>
        <time>2021-08-10T13:37:09.192Z</time>
      </trkpt>
      <trkpt lat="46.90136" lon="8.55857">
        <ele>984</ele>
        <time>2021-08-10T13:37:10.192Z</time>
      </trkpt>
      <trkpt lat="46.90136" lon="8.55854">
        <ele>984</ele>
        <time>2021-08-10T13:37:11.192Z</time>
      </trkpt>
      <trkpt lat="46.90136" lon="8.55851">
        <ele>985</ele>
        <time>2021-08-10T13:37:12.192Z</time>
      </trkpt>
      <trkpt lat="46.90135" lon="8.5585">
        <ele>985</ele>
        <time>2021-08-10T13:37:13.192Z</time>
      </trkpt>
      <trkpt lat="46.90134" lon="8.55848">
        <ele>985</ele>
        <time>2021-08-10T13:37:14.191Z</time>
      </trkpt>
      <trkpt lat="46.90133" lon="8.55848">
        <ele>985</ele>
        <time>2021-08-10T13:37:15.191Z</time>
      </trkpt>
      <trkpt lat="46.90133" lon="8.55848">
        <ele>986</ele>
        <time>2021-08-10T13:37:16.192Z</time>
      </trkpt>
      <trkpt lat="46.90132" lon="8.55848">
        <ele>986</ele>
        <time>2021-08-10T13:37:17.192Z</time>
      </trkpt>
      <trkpt lat="46.90131" lon="8.55848">
        <ele>986</ele>
        <time>2021-08-10T13:37:18.192Z</time>
      </trkpt>
      <trkpt lat="46.9013" lon="8.55847">
        <ele>986</ele>
        <time>2021-08-10T13:37:19.191Z</time>
      </trkpt>
      <trkpt lat="46.90128" lon="8.55846">
        <ele>986</ele>
        <time>2021-08-10T13:37:20.191Z</time>
      </trkpt>
      <trkpt lat="46.90127" lon="8.55845">
        <ele>987</ele>
        <time>2021-08-10T13:37:21.192Z</time>
      </trkpt>
      <trkpt lat="46.90126" lon="8.55843">
        <ele>987</ele>
        <time>2021-08-10T13:37:22.192Z</time>
      </trkpt>
      <trkpt lat="46.90127" lon="8.55841">
        <ele>987</ele>
        <time>2021-08-10T13:37:23.192Z</time>
      </trkpt>
      <trkpt lat="46.90126" lon="8.55841">
        <ele>988</ele>
        <time>2021-08-10T13:37:24.191Z</time>
      </trkpt>
      <trkpt lat="46.90126" lon="8.55841">
        <ele>988</ele>
        <time>2021-08-10T13:37:25.192Z</time>
      </trkpt>
      <trkpt lat="46.90125" lon="8.55841">
        <ele>988</ele>
        <time>2021-08-10T13:37:26.192Z</time>
      </trkpt>
      <trkpt lat="46.90124" lon="8.5584">
        <ele>988</ele>
        <time>2021-08-10T13:37:27.192Z</time>
      </trkpt>
      <trkpt lat="46.90123" lon="8.55839">
        <ele>988</ele>
        <time>2021-08-10T13:37:28.192Z</time>
      </trkpt>
      <trkpt lat="46.90124" lon="8.55836">
        <ele>988</ele>
        <time>2021-08-10T13:37:29.192Z</time>
      </trkpt>
      <trkpt lat="46.90125" lon="8.55833">
        <ele>988</ele>
        <time>2021-08-10T13:37:30.192Z</time>
      </trkpt>
      <trkpt lat="46.90125" lon="8.55832">
        <ele>989</ele>
        <time>2021-08-10T13:37:31.191Z</time>
      </trkpt>
      <trkpt lat="46.90125" lon="8.5583">
        <ele>989</ele>
        <time>2021-08-10T13:37:32.191Z</time>
      </trkpt>
      <trkpt lat="46.90124" lon="8.55829">
        <ele>989</ele>
        <time>2021-08-10T13:37:33.192Z</time>
      </trkpt>
      <trkpt lat="46.90122" lon="8.5583">
        <ele>989</ele>
        <time>2021-08-10T13:37:34.191Z</time>
      </trkpt>
      <trkpt lat="46.90122" lon="8.5583">
        <ele>990</ele>
        <time>2021-08-10T13:37:35.191Z</time>
      </trkpt>
      <trkpt lat="46.90121" lon="8.55829">
        <ele>990</ele>
        <time>2021-08-10T13:37:36.192Z</time>
      </trkpt>
      <trkpt lat="46.90121" lon="8.55829">
        <ele>990</ele>
        <time>2021-08-10T13:37:37.192Z</time>
      </trkpt>
      <trkpt lat="46.9012" lon="8.55829">
        <ele>990</ele>
        <time>2021-08-10T13:37:38.192Z</time>
      </trkpt>
      <trkpt lat="46.90119" lon="8.55828">
        <ele>989</ele>
        <time>2021-08-10T13:37:39.192Z</time>
      </trkpt>
      <trkpt lat="46.90118" lon="8.55827">
        <ele>989</ele>
        <time>2021-08-10T13:37:40.191Z</time>
      </trkpt>
      <trkpt lat="46.90117" lon="8.55827">
        <ele>989</ele>
        <time>2021-08-10T13:37:41.192Z</time>
      </trkpt>
      <trkpt lat="46.90117" lon="8.55826">
        <ele>989</ele>
        <time>2021-08-10T13:37:42.191Z</time>
      </trkpt>
      <trkpt lat="46.90117" lon="8.55825">
        <ele>989</ele>
        <time>2021-08-10T13:37:43.192Z</time>
      </trkpt>
      <trkpt lat="46.90117" lon="8.55824">
        <ele>989</ele>
        <time>2021-08-10T13:37:44.191Z</time>
      </trkpt>
      <trkpt lat="46.90116" lon="8.55822">
        <ele>989</ele>
        <time>2021-08-10T13:37:45.191Z</time>
      </trkpt>
      <trkpt lat="46.90116" lon="8.55821">
        <ele>988</ele>
        <time>2021-08-10T13:37:46.192Z</time>
      </trkpt>
      <trkpt lat="46.90115" lon="8.5582">
        <ele>988</ele>
        <time>2021-08-10T13:37:47.192Z</time>
      </trkpt>
      <trkpt lat="46.90115" lon="8.55819">
        <ele>988</ele>
        <time>2021-08-10T13:37:48.192Z</time>
      </trkpt>
      <trkpt lat="46.90114" lon="8.55817">
        <ele>988</ele>
        <time>2021-08-10T13:37:49.191Z</time>
      </trkpt>
      <trkpt lat="46.90114" lon="8.55816">
        <ele>988</ele>
        <time>2021-08-10T13:37:50.192Z</time>
      </trkpt>
      <trkpt lat="46.90114" lon="8.55814">
        <ele>987</ele>
        <time>2021-08-10T13:37:51.192Z</time>
      </trkpt>
      <trkpt lat="46.90113" lon="8.55814">
        <ele>987</ele>
        <time>2021-08-10T13:37:52.192Z</time>
      </trkpt>
      <trkpt lat="46.90112" lon="8.55814">
        <ele>987</ele>
        <time>2021-08-10T13:37:53.191Z</time>
      </trkpt>
      <trkpt lat="46.90111" lon="8.55813">
        <ele>987</ele>
        <time>2021-08-10T13:37:54.191Z</time>
      </trkpt>
      <trkpt lat="46.9011" lon="8.55812">
        <ele>986</ele>
        <time>2021-08-10T13:37:55.191Z</time>
      </trkpt>
      <trkpt lat="46.9011" lon="8.55811">
        <ele>986</ele>
        <time>2021-08-10T13:37:56.192Z</time>
      </trkpt>
      <trkpt lat="46.90109" lon="8.5581">
        <ele>985</ele>
        <time>2021-08-10T13:37:57.192Z</time>
      </trkpt>
      <trkpt lat="46.90109" lon="8.55809">
        <ele>985</ele>
        <time>2021-08-10T13:37:58.192Z</time>
      </trkpt>
      <trkpt lat="46.90108" lon="8.55808">
        <ele>984</ele>
        <time>2021-08-10T13:37:59.191Z</time>
      </trkpt>
      <trkpt lat="46.90108" lon="8.55807">
        <ele>984</ele>
        <time>2021-08-10T13:38:00.191Z</time>
      </trkpt>
      <trkpt lat="46.90108" lon="8.55806">
        <ele>984</ele>
        <time>2021-08-10T13:38:01.191Z</time>
      </trkpt>
      <trkpt lat="46.90107" lon="8.55805">
        <ele>984</ele>
        <time>2021-08-10T13:38:02.191Z</time>
      </trkpt>
      <trkpt lat="46.90106" lon="8.55804">
        <ele>984</ele>
        <time>2021-08-10T13:38:03.192Z</time>
      </trkpt>
      <trkpt lat="46.90105" lon="8.55804">
        <ele>985</ele>
        <time>2021-08-10T13:38:04.191Z</time>
      </trkpt>
      <trkpt lat="46.90104" lon="8.55803">
        <ele>986</ele>
        <time>2021-08-10T13:38:05.192Z</time>
      </trkpt>
      <trkpt lat="46.90103" lon="8.55803">
        <ele>987</ele>
        <time>2021-08-10T13:38:06.191Z</time>
      </trkpt>
      <trkpt lat="46.90102" lon="8.55802">
        <ele>988</ele>
        <time>2021-08-10T13:38:07.192Z</time>
      </trkpt>
      <trkpt lat="46.90101" lon="8.55802">
        <ele>988</ele>
        <time>2021-08-10T13:38:08.191Z</time>
      </trkpt>
      <trkpt lat="46.90099" lon="8.55801">
        <ele>989</ele>
        <time>2021-08-10T13:38:09.191Z</time>
      </trkpt>
      <trkpt lat="46.90099" lon="8.55801">
        <ele>990</ele>
        <time>2021-08-10T13:38:10.191Z</time>
      </trkpt>
      <trkpt lat="46.90097" lon="8.55801">
        <ele>991</ele>
        <time>2021-08-10T13:38:11.192Z</time>
      </trkpt>
      <trkpt lat="46.90096" lon="8.55801">
        <ele>992</ele>
        <time>2021-08-10T13:38:12.191Z</time>
      </trkpt>
      <trkpt lat="46.90095" lon="8.55801">
        <ele>993</ele>
        <time>2021-08-10T13:38:13.192Z</time>
      </trkpt>
      <trkpt lat="46.90094" lon="8.558">
        <ele>994</ele>
        <time>2021-08-10T13:38:14.191Z</time>
      </trkpt>
      <trkpt lat="46.90092" lon="8.55799">
        <ele>995</ele>
        <time>2021-08-10T13:38:15.191Z</time>
      </trkpt>
      <trkpt lat="46.90091" lon="8.55798">
        <ele>997</ele>
        <time>2021-08-10T13:38:16.192Z</time>
      </trkpt>
      <trkpt lat="46.90089" lon="8.55797">
        <ele>997</ele>
        <time>2021-08-10T13:38:17.192Z</time>
      </trkpt>
      <trkpt lat="46.90089" lon="8.55798">
        <ele>998</ele>
        <time>2021-08-10T13:38:18.192Z</time>
      </trkpt>
      <trkpt lat="46.90088" lon="8.55798">
        <ele>998</ele>
        <time>2021-08-10T13:38:19.192Z</time>
      </trkpt>
      <trkpt lat="46.90087" lon="8.55798">
        <ele>998</ele>
        <time>2021-08-10T13:38:20.191Z</time>
      </trkpt>
      <trkpt lat="46.90086" lon="8.55797">
        <ele>997</ele>
        <time>2021-08-10T13:38:21.191Z</time>
      </trkpt>
      <trkpt lat="46.90085" lon="8.55797">
        <ele>997</ele>
        <time>2021-08-10T13:38:22.192Z</time>
      </trkpt>
      <trkpt lat="46.90084" lon="8.55797">
        <ele>997</ele>
        <time>2021-08-10T13:38:23.192Z</time>
      </trkpt>
      <trkpt lat="46.90083" lon="8.55796">
        <ele>997</ele>
        <time>2021-08-10T13:38:24.191Z</time>
      </trkpt>
      <trkpt lat="46.90083" lon="8.55796">
        <ele>996</ele>
        <time>2021-08-10T13:38:25.191Z</time>
      </trkpt>
      <trkpt lat="46.90082" lon="8.55795">
        <ele>996</ele>
        <time>2021-08-10T13:38:26.192Z</time>
      </trkpt>
      <trkpt lat="46.90081" lon="8.55795">
        <ele>996</ele>
        <time>2021-08-10T13:38:27.192Z</time>
      </trkpt>
      <trkpt lat="46.90081" lon="8.55795">
        <ele>995</ele>
        <time>2021-08-10T13:38:28.192Z</time>
      </trkpt>
      <trkpt lat="46.9008" lon="8.55794">
        <ele>995</ele>
        <time>2021-08-10T13:38:29.192Z</time>
      </trkpt>
      <trkpt lat="46.90079" lon="8.55793">
        <ele>995</ele>
        <time>2021-08-10T13:38:30.192Z</time>
      </trkpt>
      <trkpt lat="46.90077" lon="8.55791">
        <ele>996</ele>
        <time>2021-08-10T13:38:31.192Z</time>
      </trkpt>
      <trkpt lat="46.90077" lon="8.5579">
        <ele>997</ele>
        <time>2021-08-10T13:38:32.192Z</time>
      </trkpt>
      <trkpt lat="46.90076" lon="8.55789">
        <ele>998</ele>
        <time>2021-08-10T13:38:33.191Z</time>
      </trkpt>
      <trkpt lat="46.90074" lon="8.55787">
        <ele>998</ele>
        <time>2021-08-10T13:38:34.191Z</time>
      </trkpt>
      <trkpt lat="46.90073" lon="8.55785">
        <ele>998</ele>
        <time>2021-08-10T13:38:35.191Z</time>
      </trkpt>
      <trkpt lat="46.90072" lon="8.55785">
        <ele>998</ele>
        <time>2021-08-10T13:38:36.192Z</time>
      </trkpt>
      <trkpt lat="46.90071" lon="8.55784">
        <ele>998</ele>
        <time>2021-08-10T13:38:37.192Z</time>
      </trkpt>
      <trkpt lat="46.90071" lon="8.55783">
        <ele>998</ele>
        <time>2021-08-10T13:38:38.191Z</time>
      </trkpt>
      <trkpt lat="46.9007" lon="8.55782">
        <ele>998</ele>
        <time>2021-08-10T13:38:39.192Z</time>
      </trkpt>
      <trkpt lat="46.9007" lon="8.55781">
        <ele>998</ele>
        <time>2021-08-10T13:38:40.192Z</time>
      </trkpt>
      <trkpt lat="46.90069" lon="8.5578">
        <ele>998</ele>
        <time>2021-08-10T13:38:43.072Z</time>
      </trkpt>
      <trkpt lat="46.90068" lon="8.55779">
        <ele>998</ele>
        <time>2021-08-10T13:38:44.072Z</time>
      </trkpt>
      <trkpt lat="46.90068" lon="8.55778">
        <ele>998</ele>
        <time>2021-08-10T13:38:45.072Z</time>
      </trkpt>
      <trkpt lat="46.90067" lon="8.55777">
        <ele>997</ele>
        <time>2021-08-10T13:38:46.072Z</time>
      </trkpt>
      <trkpt lat="46.90067" lon="8.55776">
        <ele>997</ele>
        <time>2021-08-10T13:38:47.072Z</time>
      </trkpt>
      <trkpt lat="46.90066" lon="8.55776">
        <ele>997</ele>
        <time>2021-08-10T13:38:48.071Z</time>
      </trkpt>
      <trkpt lat="46.90066" lon="8.55775">
        <ele>997</ele>
        <time>2021-08-10T13:38:49.071Z</time>
      </trkpt>
      <trkpt lat="46.90065" lon="8.55775">
        <ele>997</ele>
        <time>2021-08-10T13:38:50.072Z</time>
      </trkpt>
      <trkpt lat="46.90064" lon="8.55774">
        <ele>997</ele>
        <time>2021-08-10T13:38:51.072Z</time>
      </trkpt>
      <trkpt lat="46.90064" lon="8.55774">
        <ele>997</ele>
        <time>2021-08-10T13:38:52.072Z</time>
      </trkpt>
      <trkpt lat="46.90064" lon="8.55773">
        <ele>997</ele>
        <time>2021-08-10T13:38:53.072Z</time>
      </trkpt>
      <trkpt lat="46.90063" lon="8.55772">
        <ele>997</ele>
        <time>2021-08-10T13:38:54.072Z</time>
      </trkpt>
      <trkpt lat="46.90062" lon="8.55772">
        <ele>997</ele>
        <time>2021-08-10T13:38:55.072Z</time>
      </trkpt>
      <trkpt lat="46.90062" lon="8.55771">
        <ele>997</ele>
        <time>2021-08-10T13:38:56.072Z</time>
      </trkpt>
      <trkpt lat="46.90061" lon="8.5577">
        <ele>997</ele>
        <time>2021-08-10T13:38:57.072Z</time>
      </trkpt>
      <trkpt lat="46.90061" lon="8.55769">
        <ele>997</ele>
        <time>2021-08-10T13:38:58.072Z</time>
      </trkpt>
      <trkpt lat="46.9006" lon="8.55768">
        <ele>997</ele>
        <time>2021-08-10T13:38:59.072Z</time>
      </trkpt>
      <trkpt lat="46.9006" lon="8.55767">
        <ele>997</ele>
        <time>2021-08-10T13:39:00.072Z</time>
      </trkpt>
      <trkpt lat="46.90059" lon="8.55766">
        <ele>997</ele>
        <time>2021-08-10T13:39:01.072Z</time>
      </trkpt>
      <trkpt lat="46.90059" lon="8.55766">
        <ele>996</ele>
        <time>2021-08-10T13:39:02.071Z</time>
      </trkpt>
      <trkpt lat="46.90058" lon="8.55765">
        <ele>996</ele>
        <time>2021-08-10T13:39:03.072Z</time>
      </trkpt>
      <trkpt lat="46.90057" lon="8.55764">
        <ele>996</ele>
        <time>2021-08-10T13:39:04.072Z</time>
      </trkpt>
      <trkpt lat="46.90056" lon="8.55764">
        <ele>996</ele>
        <time>2021-08-10T13:39:05.071Z</time>
      </trkpt>
      <trkpt lat="46.90055" lon="8.55764">
        <ele>996</ele>
        <time>2021-08-10T13:39:06.071Z</time>
      </trkpt>
      <trkpt lat="46.90054" lon="8.55763">
        <ele>995</ele>
        <time>2021-08-10T13:39:07.072Z</time>
      </trkpt>
      <trkpt lat="46.90054" lon="8.55762">
        <ele>995</ele>
        <time>2021-08-10T13:39:08.071Z</time>
      </trkpt>
      <trkpt lat="46.90053" lon="8.55761">
        <ele>995</ele>
        <time>2021-08-10T13:39:09.072Z</time>
      </trkpt>
      <trkpt lat="46.90053" lon="8.5576">
        <ele>994</ele>
        <time>2021-08-10T13:39:10.071Z</time>
      </trkpt>
      <trkpt lat="46.90052" lon="8.55759">
        <ele>995</ele>
        <time>2021-08-10T13:39:11.072Z</time>
      </trkpt>
      <trkpt lat="46.90051" lon="8.55758">
        <ele>995</ele>
        <time>2021-08-10T13:39:12.071Z</time>
      </trkpt>
      <trkpt lat="46.90052" lon="8.55758">
        <ele>995</ele>
        <time>2021-08-10T13:39:13.072Z</time>
      </trkpt>
      <trkpt lat="46.90051" lon="8.55757">
        <ele>994</ele>
        <time>2021-08-10T13:39:14.072Z</time>
      </trkpt>
      <trkpt lat="46.9005" lon="8.55756">
        <ele>994</ele>
        <time>2021-08-10T13:39:15.071Z</time>
      </trkpt>
      <trkpt lat="46.90049" lon="8.55755">
        <ele>993</ele>
        <time>2021-08-10T13:39:16.072Z</time>
      </trkpt>
      <trkpt lat="46.90049" lon="8.55755">
        <ele>993</ele>
        <time>2021-08-10T13:39:17.072Z</time>
      </trkpt>
      <trkpt lat="46.90048" lon="8.55754">
        <ele>993</ele>
        <time>2021-08-10T13:39:18.072Z</time>
      </trkpt>
      <trkpt lat="46.90046" lon="8.55753">
        <ele>993</ele>
        <time>2021-08-10T13:39:19.071Z</time>
      </trkpt>
      <trkpt lat="46.90045" lon="8.55753">
        <ele>993</ele>
        <time>2021-08-10T13:39:20.072Z</time>
      </trkpt>
      <trkpt lat="46.90044" lon="8.55752">
        <ele>994</ele>
        <time>2021-08-10T13:39:21.072Z</time>
      </trkpt>
      <trkpt lat="46.90043" lon="8.55751">
        <ele>994</ele>
        <time>2021-08-10T13:39:22.072Z</time>
      </trkpt>
      <trkpt lat="46.90042" lon="8.55751">
        <ele>995</ele>
        <time>2021-08-10T13:39:23.072Z</time>
      </trkpt>
      <trkpt lat="46.90041" lon="8.5575">
        <ele>996</ele>
        <time>2021-08-10T13:39:24.071Z</time>
      </trkpt>
      <trkpt lat="46.9004" lon="8.5575">
        <ele>997</ele>
        <time>2021-08-10T13:39:25.072Z</time>
      </trkpt>
      <trkpt lat="46.90039" lon="8.5575">
        <ele>998</ele>
        <time>2021-08-10T13:39:26.072Z</time>
      </trkpt>
      <trkpt lat="46.90038" lon="8.5575">
        <ele>998</ele>
        <time>2021-08-10T13:39:27.072Z</time>
      </trkpt>
      <trkpt lat="46.90038" lon="8.55749">
        <ele>999</ele>
        <time>2021-08-10T13:39:28.071Z</time>
      </trkpt>
      <trkpt lat="46.90036" lon="8.55749">
        <ele>1000</ele>
        <time>2021-08-10T13:39:29.072Z</time>
      </trkpt>
      <trkpt lat="46.90035" lon="8.55749">
        <ele>1000</ele>
        <time>2021-08-10T13:39:30.072Z</time>
      </trkpt>
      <trkpt lat="46.90034" lon="8.55748">
        <ele>1000</ele>
        <time>2021-08-10T13:39:31.072Z</time>
      </trkpt>
      <trkpt lat="46.90034" lon="8.55748">
        <ele>1000</ele>
        <time>2021-08-10T13:39:32.072Z</time>
      </trkpt>
      <trkpt lat="46.90033" lon="8.55747">
        <ele>1000</ele>
        <time>2021-08-10T13:39:33.072Z</time>
      </trkpt>
      <trkpt lat="46.90032" lon="8.55747">
        <ele>1000</ele>
        <time>2021-08-10T13:39:34.071Z</time>
      </trkpt>
      <trkpt lat="46.90031" lon="8.55747">
        <ele>1000</ele>
        <time>2021-08-10T13:39:35.072Z</time>
      </trkpt>
      <trkpt lat="46.9003" lon="8.55747">
        <ele>1000</ele>
        <time>2021-08-10T13:39:36.072Z</time>
      </trkpt>
      <trkpt lat="46.90029" lon="8.55747">
        <ele>1000</ele>
        <time>2021-08-10T13:39:37.071Z</time>
      </trkpt>
      <trkpt lat="46.90028" lon="8.55746">
        <ele>1000</ele>
        <time>2021-08-10T13:39:38.072Z</time>
      </trkpt>
      <trkpt lat="46.90027" lon="8.55746">
        <ele>1000</ele>
        <time>2021-08-10T13:39:39.072Z</time>
      </trkpt>
      <trkpt lat="46.90027" lon="8.55745">
        <ele>1001</ele>
        <time>2021-08-10T13:39:40.071Z</time>
      </trkpt>
      <trkpt lat="46.90026" lon="8.55745">
        <ele>1001</ele>
        <time>2021-08-10T13:39:41.071Z</time>
      </trkpt>
      <trkpt lat="46.90025" lon="8.55744">
        <ele>1002</ele>
        <time>2021-08-10T13:39:42.071Z</time>
      </trkpt>
      <trkpt lat="46.90024" lon="8.55744">
        <ele>1002</ele>
        <time>2021-08-10T13:39:43.071Z</time>
      </trkpt>
      <trkpt lat="46.90022" lon="8.55745">
        <ele>1002</ele>
        <time>2021-08-10T13:39:44.072Z</time>
      </trkpt>
      <trkpt lat="46.90021" lon="8.55746">
        <ele>1003</ele>
        <time>2021-08-10T13:39:45.071Z</time>
      </trkpt>
      <trkpt lat="46.9002" lon="8.55746">
        <ele>1003</ele>
        <time>2021-08-10T13:39:46.072Z</time>
      </trkpt>
      <trkpt lat="46.90018" lon="8.55746">
        <ele>1004</ele>
        <time>2021-08-10T13:39:47.072Z</time>
      </trkpt>
      <trkpt lat="46.90017" lon="8.55745">
        <ele>1005</ele>
        <time>2021-08-10T13:39:48.072Z</time>
      </trkpt>
      <trkpt lat="46.90016" lon="8.55743">
        <ele>1005</ele>
        <time>2021-08-10T13:39:49.072Z</time>
      </trkpt>
      <trkpt lat="46.90016" lon="8.55742">
        <ele>1006</ele>
        <time>2021-08-10T13:39:50.072Z</time>
      </trkpt>
      <trkpt lat="46.90015" lon="8.55741">
        <ele>1007</ele>
        <time>2021-08-10T13:39:51.072Z</time>
      </trkpt>
      <trkpt lat="46.90015" lon="8.5574">
        <ele>1008</ele>
        <time>2021-08-10T13:39:52.071Z</time>
      </trkpt>
      <trkpt lat="46.90014" lon="8.55739">
        <ele>1009</ele>
        <time>2021-08-10T13:39:53.072Z</time>
      </trkpt>
      <trkpt lat="46.90014" lon="8.55738">
        <ele>1010</ele>
        <time>2021-08-10T13:39:54.071Z</time>
      </trkpt>
      <trkpt lat="46.90013" lon="8.55736">
        <ele>1010</ele>
        <time>2021-08-10T13:39:55.072Z</time>
      </trkpt>
      <trkpt lat="46.90013" lon="8.55736">
        <ele>1011</ele>
        <time>2021-08-10T13:39:56.072Z</time>
      </trkpt>
      <trkpt lat="46.90012" lon="8.55736">
        <ele>1011</ele>
        <time>2021-08-10T13:39:57.071Z</time>
      </trkpt>
      <trkpt lat="46.90011" lon="8.55736">
        <ele>1011</ele>
        <time>2021-08-10T13:39:58.072Z</time>
      </trkpt>
      <trkpt lat="46.9001" lon="8.55736">
        <ele>1011</ele>
        <time>2021-08-10T13:39:59.072Z</time>
      </trkpt>
      <trkpt lat="46.90009" lon="8.55737">
        <ele>1011</ele>
        <time>2021-08-10T13:40:00.071Z</time>
      </trkpt>
      <trkpt lat="46.90008" lon="8.55737">
        <ele>1011</ele>
        <time>2021-08-10T13:40:01.072Z</time>
      </trkpt>
      <trkpt lat="46.90008" lon="8.55737">
        <ele>1011</ele>
        <time>2021-08-10T13:40:02.072Z</time>
      </trkpt>
      <trkpt lat="46.90005" lon="8.55738">
        <ele>1011</ele>
        <time>2021-08-10T13:40:03.072Z</time>
      </trkpt>
      <trkpt lat="46.90004" lon="8.55738">
        <ele>1011</ele>
        <time>2021-08-10T13:40:04.072Z</time>
      </trkpt>
      <trkpt lat="46.90002" lon="8.55739">
        <ele>1012</ele>
        <time>2021-08-10T13:40:05.071Z</time>
      </trkpt>
      <trkpt lat="46.90001" lon="8.55739">
        <ele>1012</ele>
        <time>2021-08-10T13:40:06.071Z</time>
      </trkpt>
      <trkpt lat="46.9" lon="8.55739">
        <ele>1012</ele>
        <time>2021-08-10T13:40:07.072Z</time>
      </trkpt>
      <trkpt lat="46.89999" lon="8.55737">
        <ele>1013</ele>
        <time>2021-08-10T13:40:08.071Z</time>
      </trkpt>
      <trkpt lat="46.89998" lon="8.55737">
        <ele>1013</ele>
        <time>2021-08-10T13:40:09.072Z</time>
      </trkpt>
      <trkpt lat="46.89997" lon="8.55737">
        <ele>1013</ele>
        <time>2021-08-10T13:40:10.071Z</time>
      </trkpt>
      <trkpt lat="46.89996" lon="8.55737">
        <ele>1014</ele>
        <time>2021-08-10T13:40:11.071Z</time>
      </trkpt>
      <trkpt lat="46.89994" lon="8.55737">
        <ele>1014</ele>
        <time>2021-08-10T13:40:12.072Z</time>
      </trkpt>
      <trkpt lat="46.89992" lon="8.55737">
        <ele>1014</ele>
        <time>2021-08-10T13:40:13.072Z</time>
      </trkpt>
      <trkpt lat="46.89991" lon="8.55738">
        <ele>1014</ele>
        <time>2021-08-10T13:40:14.071Z</time>
      </trkpt>
      <trkpt lat="46.8999" lon="8.55737">
        <ele>1015</ele>
        <time>2021-08-10T13:40:15.072Z</time>
      </trkpt>
      <trkpt lat="46.89989" lon="8.55736">
        <ele>1015</ele>
        <time>2021-08-10T13:40:16.072Z</time>
      </trkpt>
      <trkpt lat="46.89988" lon="8.55735">
        <ele>1015</ele>
        <time>2021-08-10T13:40:17.071Z</time>
      </trkpt>
      <trkpt lat="46.89988" lon="8.55733">
        <ele>1015</ele>
        <time>2021-08-10T13:40:18.071Z</time>
      </trkpt>
      <trkpt lat="46.89987" lon="8.55732">
        <ele>1016</ele>
        <time>2021-08-10T13:40:19.071Z</time>
      </trkpt>
      <trkpt lat="46.89986" lon="8.55731">
        <ele>1016</ele>
        <time>2021-08-10T13:40:20.071Z</time>
      </trkpt>
      <trkpt lat="46.89986" lon="8.5573">
        <ele>1016</ele>
        <time>2021-08-10T13:40:21.072Z</time>
      </trkpt>
      <trkpt lat="46.89986" lon="8.55728">
        <ele>1017</ele>
        <time>2021-08-10T13:40:22.071Z</time>
      </trkpt>
      <trkpt lat="46.89985" lon="8.55727">
        <ele>1017</ele>
        <time>2021-08-10T13:40:23.071Z</time>
      </trkpt>
      <trkpt lat="46.89985" lon="8.55727">
        <ele>1017</ele>
        <time>2021-08-10T13:40:24.071Z</time>
      </trkpt>
      <trkpt lat="46.89985" lon="8.55727">
        <ele>1017</ele>
        <time>2021-08-10T13:40:25.071Z</time>
      </trkpt>
      <trkpt lat="46.89985" lon="8.55726">
        <ele>1017</ele>
        <time>2021-08-10T13:40:26.071Z</time>
      </trkpt>
      <trkpt lat="46.89986" lon="8.55726">
        <ele>1017</ele>
        <time>2021-08-10T13:40:27.072Z</time>
      </trkpt>
      <trkpt lat="46.89985" lon="8.55726">
        <ele>1017</ele>
        <time>2021-08-10T13:40:28.072Z</time>
      </trkpt>
      <trkpt lat="46.89985" lon="8.55725">
        <ele>1017</ele>
        <time>2021-08-10T13:40:29.071Z</time>
      </trkpt>
      <trkpt lat="46.89984" lon="8.55725">
        <ele>1017</ele>
        <time>2021-08-10T13:40:30.071Z</time>
      </trkpt>
      <trkpt lat="46.89983" lon="8.55726">
        <ele>1017</ele>
        <time>2021-08-10T13:40:31.072Z</time>
      </trkpt>
      <trkpt lat="46.89983" lon="8.55726">
        <ele>1017</ele>
        <time>2021-08-10T13:40:32.071Z</time>
      </trkpt>
      <trkpt lat="46.89981" lon="8.55726">
        <ele>1017</ele>
        <time>2021-08-10T13:40:33.072Z</time>
      </trkpt>
      <trkpt lat="46.8998" lon="8.55727">
        <ele>1017</ele>
        <time>2021-08-10T13:40:34.071Z</time>
      </trkpt>
      <trkpt lat="46.89979" lon="8.55727">
        <ele>1017</ele>
        <time>2021-08-10T13:40:35.072Z</time>
      </trkpt>
      <trkpt lat="46.89978" lon="8.55727">
        <ele>1017</ele>
        <time>2021-08-10T13:40:36.071Z</time>
      </trkpt>
      <trkpt lat="46.89977" lon="8.55727">
        <ele>1017</ele>
        <time>2021-08-10T13:40:37.071Z</time>
      </trkpt>
      <trkpt lat="46.89977" lon="8.55727">
        <ele>1017</ele>
        <time>2021-08-10T13:40:38.072Z</time>
      </trkpt>
      <trkpt lat="46.89976" lon="8.55727">
        <ele>1017</ele>
        <time>2021-08-10T13:40:39.071Z</time>
      </trkpt>
      <trkpt lat="46.89975" lon="8.55727">
        <ele>1017</ele>
        <time>2021-08-10T13:40:40.071Z</time>
      </trkpt>
      <trkpt lat="46.89974" lon="8.55728">
        <ele>1017</ele>
        <time>2021-08-10T13:40:41.072Z</time>
      </trkpt>
      <trkpt lat="46.89973" lon="8.55728">
        <ele>1017</ele>
        <time>2021-08-10T13:40:42.072Z</time>
      </trkpt>
      <trkpt lat="46.89973" lon="8.55726">
        <ele>1017</ele>
        <time>2021-08-10T13:40:43.072Z</time>
      </trkpt>
      <trkpt lat="46.89973" lon="8.55725">
        <ele>1017</ele>
        <time>2021-08-10T13:40:44.072Z</time>
      </trkpt>
      <trkpt lat="46.89972" lon="8.55724">
        <ele>1017</ele>
        <time>2021-08-10T13:40:45.072Z</time>
      </trkpt>
      <trkpt lat="46.89972" lon="8.55723">
        <ele>1017</ele>
        <time>2021-08-10T13:40:46.072Z</time>
      </trkpt>
      <trkpt lat="46.89972" lon="8.55722">
        <ele>1017</ele>
        <time>2021-08-10T13:40:47.072Z</time>
      </trkpt>
      <trkpt lat="46.89972" lon="8.55721">
        <ele>1017</ele>
        <time>2021-08-10T13:40:48.072Z</time>
      </trkpt>
      <trkpt lat="46.89972" lon="8.5572">
        <ele>1018</ele>
        <time>2021-08-10T13:40:49.072Z</time>
      </trkpt>
      <trkpt lat="46.89972" lon="8.55721">
        <ele>1018</ele>
        <time>2021-08-10T13:40:50.071Z</time>
      </trkpt>
      <trkpt lat="46.89971" lon="8.55722">
        <ele>1018</ele>
        <time>2021-08-10T13:40:51.071Z</time>
      </trkpt>
      <trkpt lat="46.8997" lon="8.55723">
        <ele>1018</ele>
        <time>2021-08-10T13:40:52.071Z</time>
      </trkpt>
      <trkpt lat="46.89969" lon="8.55724">
        <ele>1018</ele>
        <time>2021-08-10T13:40:53.071Z</time>
      </trkpt>
      <trkpt lat="46.89968" lon="8.55724">
        <ele>1018</ele>
        <time>2021-08-10T13:40:54.071Z</time>
      </trkpt>
      <trkpt lat="46.89967" lon="8.55725">
        <ele>1018</ele>
        <time>2021-08-10T13:40:55.071Z</time>
      </trkpt>
      <trkpt lat="46.89967" lon="8.55723">
        <ele>1018</ele>
        <time>2021-08-10T13:40:56.071Z</time>
      </trkpt>
      <trkpt lat="46.89967" lon="8.55722">
        <ele>1018</ele>
        <time>2021-08-10T13:40:57.071Z</time>
      </trkpt>
      <trkpt lat="46.89967" lon="8.55721">
        <ele>1018</ele>
        <time>2021-08-10T13:40:58.071Z</time>
      </trkpt>
      <trkpt lat="46.89966" lon="8.5572">
        <ele>1018</ele>
        <time>2021-08-10T13:40:59.071Z</time>
      </trkpt>
      <trkpt lat="46.89966" lon="8.55719">
        <ele>1018</ele>
        <time>2021-08-10T13:41:00.071Z</time>
      </trkpt>
      <trkpt lat="46.89966" lon="8.55719">
        <ele>1018</ele>
        <time>2021-08-10T13:41:01.071Z</time>
      </trkpt>
      <trkpt lat="46.89965" lon="8.55719">
        <ele>1018</ele>
        <time>2021-08-10T13:41:02.072Z</time>
      </trkpt>
      <trkpt lat="46.89966" lon="8.55717">
        <ele>1018</ele>
        <time>2021-08-10T13:41:03.071Z</time>
      </trkpt>
      <trkpt lat="46.89965" lon="8.55716">
        <ele>1017</ele>
        <time>2021-08-10T13:41:04.071Z</time>
      </trkpt>
      <trkpt lat="46.89964" lon="8.55716">
        <ele>1017</ele>
        <time>2021-08-10T13:41:05.071Z</time>
      </trkpt>
      <trkpt lat="46.89963" lon="8.55715">
        <ele>1017</ele>
        <time>2021-08-10T13:41:06.072Z</time>
      </trkpt>
      <trkpt lat="46.89962" lon="8.55715">
        <ele>1016</ele>
        <time>2021-08-10T13:41:07.071Z</time>
      </trkpt>
      <trkpt lat="46.8996" lon="8.55715">
        <ele>1016</ele>
        <time>2021-08-10T13:41:08.072Z</time>
      </trkpt>
      <trkpt lat="46.89959" lon="8.55717">
        <ele>1016</ele>
        <time>2021-08-10T13:41:09.071Z</time>
      </trkpt>
      <trkpt lat="46.89957" lon="8.55718">
        <ele>1016</ele>
        <time>2021-08-10T13:41:10.072Z</time>
      </trkpt>
      <trkpt lat="46.89956" lon="8.55718">
        <ele>1016</ele>
        <time>2021-08-10T13:41:11.071Z</time>
      </trkpt>
      <trkpt lat="46.89956" lon="8.55719">
        <ele>1016</ele>
        <time>2021-08-10T13:41:12.072Z</time>
      </trkpt>
      <trkpt lat="46.89955" lon="8.5572">
        <ele>1016</ele>
        <time>2021-08-10T13:41:13.072Z</time>
      </trkpt>
      <trkpt lat="46.89954" lon="8.5572">
        <ele>1017</ele>
        <time>2021-08-10T13:41:14.072Z</time>
      </trkpt>
      <trkpt lat="46.89953" lon="8.5572">
        <ele>1017</ele>
        <time>2021-08-10T13:41:15.072Z</time>
      </trkpt>
      <trkpt lat="46.89952" lon="8.5572">
        <ele>1016</ele>
        <time>2021-08-10T13:41:16.071Z</time>
      </trkpt>
      <trkpt lat="46.89951" lon="8.55719">
        <ele>1016</ele>
        <time>2021-08-10T13:41:17.072Z</time>
      </trkpt>
      <trkpt lat="46.8995" lon="8.55719">
        <ele>1016</ele>
        <time>2021-08-10T13:41:18.071Z</time>
      </trkpt>
      <trkpt lat="46.8995" lon="8.55718">
        <ele>1016</ele>
        <time>2021-08-10T13:41:19.072Z</time>
      </trkpt>
      <trkpt lat="46.89949" lon="8.55718">
        <ele>1016</ele>
        <time>2021-08-10T13:41:20.071Z</time>
      </trkpt>
      <trkpt lat="46.89948" lon="8.55718">
        <ele>1016</ele>
        <time>2021-08-10T13:41:21.072Z</time>
      </trkpt>
      <trkpt lat="46.89946" lon="8.55718">
        <ele>1017</ele>
        <time>2021-08-10T13:41:22.072Z</time>
      </trkpt>
      <trkpt lat="46.89945" lon="8.55718">
        <ele>1017</ele>
        <time>2021-08-10T13:41:23.071Z</time>
      </trkpt>
      <trkpt lat="46.89944" lon="8.55718">
        <ele>1017</ele>
        <time>2021-08-10T13:41:24.072Z</time>
      </trkpt>
      <trkpt lat="46.89943" lon="8.55718">
        <ele>1017</ele>
        <time>2021-08-10T13:41:25.071Z</time>
      </trkpt>
      <trkpt lat="46.89941" lon="8.55718">
        <ele>1017</ele>
        <time>2021-08-10T13:41:26.071Z</time>
      </trkpt>
      <trkpt lat="46.8994" lon="8.55718">
        <ele>1017</ele>
        <time>2021-08-10T13:41:27.071Z</time>
      </trkpt>
      <trkpt lat="46.89939" lon="8.55718">
        <ele>1017</ele>
        <time>2021-08-10T13:41:28.071Z</time>
      </trkpt>
      <trkpt lat="46.89938" lon="8.55717">
        <ele>1017</ele>
        <time>2021-08-10T13:41:29.072Z</time>
      </trkpt>
      <trkpt lat="46.89936" lon="8.55715">
        <ele>1017</ele>
        <time>2021-08-10T13:41:30.071Z</time>
      </trkpt>
      <trkpt lat="46.89934" lon="8.55714">
        <ele>1018</ele>
        <time>2021-08-10T13:41:31.071Z</time>
      </trkpt>
      <trkpt lat="46.89933" lon="8.55714">
        <ele>1018</ele>
        <time>2021-08-10T13:41:32.071Z</time>
      </trkpt>
      <trkpt lat="46.89932" lon="8.55714">
        <ele>1019</ele>
        <time>2021-08-10T13:41:33.071Z</time>
      </trkpt>
      <trkpt lat="46.89931" lon="8.55714">
        <ele>1019</ele>
        <time>2021-08-10T13:41:34.072Z</time>
      </trkpt>
      <trkpt lat="46.8993" lon="8.55715">
        <ele>1020</ele>
        <time>2021-08-10T13:41:35.072Z</time>
      </trkpt>
      <trkpt lat="46.89928" lon="8.55715">
        <ele>1019</ele>
        <time>2021-08-10T13:41:36.072Z</time>
      </trkpt>
      <trkpt lat="46.89928" lon="8.55715">
        <ele>1019</ele>
        <time>2021-08-10T13:41:37.072Z</time>
      </trkpt>
      <trkpt lat="46.89927" lon="8.55715">
        <ele>1019</ele>
        <time>2021-08-10T13:41:38.072Z</time>
      </trkpt>
      <trkpt lat="46.89926" lon="8.55714">
        <ele>1018</ele>
        <time>2021-08-10T13:41:39.071Z</time>
      </trkpt>
      <trkpt lat="46.89925" lon="8.55713">
        <ele>1019</ele>
        <time>2021-08-10T13:41:40.072Z</time>
      </trkpt>
      <trkpt lat="46.89924" lon="8.55713">
        <ele>1019</ele>
        <time>2021-08-10T13:41:41.072Z</time>
      </trkpt>
      <trkpt lat="46.89923" lon="8.55713">
        <ele>1019</ele>
        <time>2021-08-10T13:41:42.072Z</time>
      </trkpt>
      <trkpt lat="46.89922" lon="8.55712">
        <ele>1020</ele>
        <time>2021-08-10T13:41:43.072Z</time>
      </trkpt>
      <trkpt lat="46.89921" lon="8.55712">
        <ele>1020</ele>
        <time>2021-08-10T13:41:44.072Z</time>
      </trkpt>
      <trkpt lat="46.8992" lon="8.55712">
        <ele>1021</ele>
        <time>2021-08-10T13:41:45.072Z</time>
      </trkpt>
      <trkpt lat="46.89919" lon="8.55711">
        <ele>1021</ele>
        <time>2021-08-10T13:41:46.072Z</time>
      </trkpt>
      <trkpt lat="46.89919" lon="8.5571">
        <ele>1022</ele>
        <time>2021-08-10T13:41:47.072Z</time>
      </trkpt>
      <trkpt lat="46.89918" lon="8.55709">
        <ele>1022</ele>
        <time>2021-08-10T13:41:48.072Z</time>
      </trkpt>
      <trkpt lat="46.89917" lon="8.55709">
        <ele>1022</ele>
        <time>2021-08-10T13:41:49.072Z</time>
      </trkpt>
      <trkpt lat="46.89917" lon="8.55708">
        <ele>1022</ele>
        <time>2021-08-10T13:41:50.072Z</time>
      </trkpt>
      <trkpt lat="46.89916" lon="8.55708">
        <ele>1022</ele>
        <time>2021-08-10T13:41:51.071Z</time>
      </trkpt>
      <trkpt lat="46.89915" lon="8.55707">
        <ele>1023</ele>
        <time>2021-08-10T13:41:52.071Z</time>
      </trkpt>
      <trkpt lat="46.89914" lon="8.55707">
        <ele>1023</ele>
        <time>2021-08-10T13:41:53.072Z</time>
      </trkpt>
      <trkpt lat="46.89913" lon="8.55706">
        <ele>1022</ele>
        <time>2021-08-10T13:41:54.071Z</time>
      </trkpt>
      <trkpt lat="46.89912" lon="8.55705">
        <ele>1022</ele>
        <time>2021-08-10T13:41:55.072Z</time>
      </trkpt>
      <trkpt lat="46.89911" lon="8.55705">
        <ele>1022</ele>
        <time>2021-08-10T13:41:56.071Z</time>
      </trkpt>
      <trkpt lat="46.8991" lon="8.55705">
        <ele>1022</ele>
        <time>2021-08-10T13:41:57.072Z</time>
      </trkpt>
      <trkpt lat="46.8991" lon="8.55705">
        <ele>1021</ele>
        <time>2021-08-10T13:41:58.071Z</time>
      </trkpt>
      <trkpt lat="46.89909" lon="8.55704">
        <ele>1021</ele>
        <time>2021-08-10T13:41:59.071Z</time>
      </trkpt>
      <trkpt lat="46.89908" lon="8.55703">
        <ele>1021</ele>
        <time>2021-08-10T13:42:00.072Z</time>
      </trkpt>
      <trkpt lat="46.89907" lon="8.55703">
        <ele>1020</ele>
        <time>2021-08-10T13:42:01.071Z</time>
      </trkpt>
      <trkpt lat="46.89906" lon="8.55702">
        <ele>1020</ele>
        <time>2021-08-10T13:42:02.071Z</time>
      </trkpt>
      <trkpt lat="46.89905" lon="8.55701">
        <ele>1019</ele>
        <time>2021-08-10T13:42:03.072Z</time>
      </trkpt>
      <trkpt lat="46.89903" lon="8.55701">
        <ele>1019</ele>
        <time>2021-08-10T13:42:04.071Z</time>
      </trkpt>
      <trkpt lat="46.89902" lon="8.55701">
        <ele>1019</ele>
        <time>2021-08-10T13:42:05.071Z</time>
      </trkpt>
      <trkpt lat="46.89901" lon="8.557">
        <ele>1019</ele>
        <time>2021-08-10T13:42:06.071Z</time>
      </trkpt>
      <trkpt lat="46.899" lon="8.55699">
        <ele>1019</ele>
        <time>2021-08-10T13:42:07.071Z</time>
      </trkpt>
      <trkpt lat="46.89899" lon="8.55699">
        <ele>1020</ele>
        <time>2021-08-10T13:42:08.072Z</time>
      </trkpt>
      <trkpt lat="46.89899" lon="8.55698">
        <ele>1020</ele>
        <time>2021-08-10T13:42:09.072Z</time>
      </trkpt>
      <trkpt lat="46.89897" lon="8.55697">
        <ele>1021</ele>
        <time>2021-08-10T13:42:10.072Z</time>
      </trkpt>
      <trkpt lat="46.89896" lon="8.55697">
        <ele>1021</ele>
        <time>2021-08-10T13:42:11.071Z</time>
      </trkpt>
      <trkpt lat="46.89895" lon="8.55697">
        <ele>1021</ele>
        <time>2021-08-10T13:42:12.072Z</time>
      </trkpt>
      <trkpt lat="46.89894" lon="8.55698">
        <ele>1021</ele>
        <time>2021-08-10T13:42:13.072Z</time>
      </trkpt>
      <trkpt lat="46.89893" lon="8.55699">
        <ele>1021</ele>
        <time>2021-08-10T13:42:14.072Z</time>
      </trkpt>
      <trkpt lat="46.89893" lon="8.55699">
        <ele>1021</ele>
        <time>2021-08-10T13:42:15.071Z</time>
      </trkpt>
      <trkpt lat="46.89892" lon="8.55699">
        <ele>1022</ele>
        <time>2021-08-10T13:42:16.072Z</time>
      </trkpt>
      <trkpt lat="46.89892" lon="8.55698">
        <ele>1022</ele>
        <time>2021-08-10T13:42:17.072Z</time>
      </trkpt>
      <trkpt lat="46.89891" lon="8.55697">
        <ele>1022</ele>
        <time>2021-08-10T13:42:18.071Z</time>
      </trkpt>
      <trkpt lat="46.8989" lon="8.55696">
        <ele>1023</ele>
        <time>2021-08-10T13:42:19.071Z</time>
      </trkpt>
      <trkpt lat="46.8989" lon="8.55696">
        <ele>1023</ele>
        <time>2021-08-10T13:42:20.072Z</time>
      </trkpt>
      <trkpt lat="46.89888" lon="8.55696">
        <ele>1024</ele>
        <time>2021-08-10T13:42:21.072Z</time>
      </trkpt>
      <trkpt lat="46.89887" lon="8.55695">
        <ele>1024</ele>
        <time>2021-08-10T13:42:22.071Z</time>
      </trkpt>
      <trkpt lat="46.89887" lon="8.55694">
        <ele>1024</ele>
        <time>2021-08-10T13:42:23.072Z</time>
      </trkpt>
      <trkpt lat="46.89886" lon="8.55694">
        <ele>1024</ele>
        <time>2021-08-10T13:42:24.071Z</time>
      </trkpt>
      <trkpt lat="46.89885" lon="8.55694">
        <ele>1024</ele>
        <time>2021-08-10T13:42:25.072Z</time>
      </trkpt>
      <trkpt lat="46.89884" lon="8.55694">
        <ele>1024</ele>
        <time>2021-08-10T13:42:26.071Z</time>
      </trkpt>
      <trkpt lat="46.89884" lon="8.55693">
        <ele>1024</ele>
        <time>2021-08-10T13:42:27.072Z</time>
      </trkpt>
      <trkpt lat="46.89884" lon="8.55693">
        <ele>1024</ele>
        <time>2021-08-10T13:42:28.072Z</time>
      </trkpt>
      <trkpt lat="46.89883" lon="8.55693">
        <ele>1024</ele>
        <time>2021-08-10T13:42:29.072Z</time>
      </trkpt>
      <trkpt lat="46.89882" lon="8.55693">
        <ele>1023</ele>
        <time>2021-08-10T13:42:30.072Z</time>
      </trkpt>
      <trkpt lat="46.89882" lon="8.55693">
        <ele>1022</ele>
        <time>2021-08-10T13:42:31.071Z</time>
      </trkpt>
      <trkpt lat="46.89881" lon="8.55694">
        <ele>1022</ele>
        <time>2021-08-10T13:42:32.071Z</time>
      </trkpt>
      <trkpt lat="46.8988" lon="8.55694">
        <ele>1022</ele>
        <time>2021-08-10T13:42:33.072Z</time>
      </trkpt>
      <trkpt lat="46.89879" lon="8.55696">
        <ele>1021</ele>
        <time>2021-08-10T13:42:34.072Z</time>
      </trkpt>
      <trkpt lat="46.89878" lon="8.55697">
        <ele>1021</ele>
        <time>2021-08-10T13:42:35.071Z</time>
      </trkpt>
      <trkpt lat="46.89877" lon="8.55697">
        <ele>1021</ele>
        <time>2021-08-10T13:42:36.071Z</time>
      </trkpt>
      <trkpt lat="46.89875" lon="8.55697">
        <ele>1021</ele>
        <time>2021-08-10T13:42:37.072Z</time>
      </trkpt>
      <trkpt lat="46.89874" lon="8.55697">
        <ele>1021</ele>
        <time>2021-08-10T13:42:38.072Z</time>
      </trkpt>
      <trkpt lat="46.89873" lon="8.55696">
        <ele>1021</ele>
        <time>2021-08-10T13:42:39.072Z</time>
      </trkpt>
      <trkpt lat="46.89872" lon="8.55696">
        <ele>1022</ele>
        <time>2021-08-10T13:42:40.071Z</time>
      </trkpt>
      <trkpt lat="46.89871" lon="8.55696">
        <ele>1022</ele>
        <time>2021-08-10T13:42:41.072Z</time>
      </trkpt>
      <trkpt lat="46.89872" lon="8.55695">
        <ele>1022</ele>
        <time>2021-08-10T13:42:42.072Z</time>
      </trkpt>
      <trkpt lat="46.89872" lon="8.55695">
        <ele>1023</ele>
        <time>2021-08-10T13:42:43.072Z</time>
      </trkpt>
      <trkpt lat="46.89871" lon="8.55694">
        <ele>1023</ele>
        <time>2021-08-10T13:42:44.072Z</time>
      </trkpt>
      <trkpt lat="46.89868" lon="8.55696">
        <ele>1023</ele>
        <time>2021-08-10T13:42:45.071Z</time>
      </trkpt>
      <trkpt lat="46.89867" lon="8.55695">
        <ele>1024</ele>
        <time>2021-08-10T13:42:46.072Z</time>
      </trkpt>
      <trkpt lat="46.89866" lon="8.55695">
        <ele>1024</ele>
        <time>2021-08-10T13:42:47.072Z</time>
      </trkpt>
      <trkpt lat="46.89864" lon="8.55695">
        <ele>1024</ele>
        <time>2021-08-10T13:42:49.104Z</time>
      </trkpt>
      <trkpt lat="46.89863" lon="8.55695">
        <ele>1024</ele>
        <time>2021-08-10T13:42:50.943Z</time>
      </trkpt>
      <trkpt lat="46.89861" lon="8.55694">
        <ele>1024</ele>
        <time>2021-08-10T13:42:51.943Z</time>
      </trkpt>
      <trkpt lat="46.89861" lon="8.55693">
        <ele>1024</ele>
        <time>2021-08-10T13:42:53.856Z</time>
      </trkpt>
      <trkpt lat="46.89859" lon="8.55693">
        <ele>1025</ele>
        <time>2021-08-10T13:42:54.856Z</time>
      </trkpt>
      <trkpt lat="46.89858" lon="8.55693">
        <ele>1025</ele>
        <time>2021-08-10T13:42:55.855Z</time>
      </trkpt>
      <trkpt lat="46.89857" lon="8.55692">
        <ele>1025</ele>
        <time>2021-08-10T13:42:56.855Z</time>
      </trkpt>
      <trkpt lat="46.89857" lon="8.55691">
        <ele>1025</ele>
        <time>2021-08-10T13:42:57.855Z</time>
      </trkpt>
      <trkpt lat="46.89856" lon="8.55692">
        <ele>1026</ele>
        <time>2021-08-10T13:42:58.856Z</time>
      </trkpt>
      <trkpt lat="46.89855" lon="8.55692">
        <ele>1026</ele>
        <time>2021-08-10T13:42:59.855Z</time>
      </trkpt>
      <trkpt lat="46.89854" lon="8.55693">
        <ele>1026</ele>
        <time>2021-08-10T13:43:00.855Z</time>
      </trkpt>
      <trkpt lat="46.89852" lon="8.55693">
        <ele>1026</ele>
        <time>2021-08-10T13:43:01.856Z</time>
      </trkpt>
      <trkpt lat="46.89851" lon="8.55693">
        <ele>1026</ele>
        <time>2021-08-10T13:43:02.855Z</time>
      </trkpt>
      <trkpt lat="46.89851" lon="8.55693">
        <ele>1026</ele>
        <time>2021-08-10T13:43:03.856Z</time>
      </trkpt>
      <trkpt lat="46.8985" lon="8.55693">
        <ele>1027</ele>
        <time>2021-08-10T13:43:04.855Z</time>
      </trkpt>
      <trkpt lat="46.89849" lon="8.55692">
        <ele>1027</ele>
        <time>2021-08-10T13:43:05.856Z</time>
      </trkpt>
      <trkpt lat="46.8985" lon="8.55689">
        <ele>1027</ele>
        <time>2021-08-10T13:43:06.856Z</time>
      </trkpt>
      <trkpt lat="46.89851" lon="8.55686">
        <ele>1027</ele>
        <time>2021-08-10T13:43:07.856Z</time>
      </trkpt>
      <trkpt lat="46.89851" lon="8.55684">
        <ele>1028</ele>
        <time>2021-08-10T13:43:08.855Z</time>
      </trkpt>
      <trkpt lat="46.89852" lon="8.55682">
        <ele>1028</ele>
        <time>2021-08-10T13:43:09.856Z</time>
      </trkpt>
      <trkpt lat="46.89853" lon="8.55679">
        <ele>1028</ele>
        <time>2021-08-10T13:43:10.856Z</time>
      </trkpt>
      <trkpt lat="46.89855" lon="8.55677">
        <ele>1028</ele>
        <time>2021-08-10T13:43:11.856Z</time>
      </trkpt>
      <trkpt lat="46.89854" lon="8.55677">
        <ele>1028</ele>
        <time>2021-08-10T13:43:12.855Z</time>
      </trkpt>
      <trkpt lat="46.89852" lon="8.55678">
        <ele>1029</ele>
        <time>2021-08-10T13:43:13.856Z</time>
      </trkpt>
      <trkpt lat="46.89849" lon="8.55679">
        <ele>1029</ele>
        <time>2021-08-10T13:43:14.856Z</time>
      </trkpt>
      <trkpt lat="46.89849" lon="8.55679">
        <ele>1030</ele>
        <time>2021-08-10T13:43:15.856Z</time>
      </trkpt>
      <trkpt lat="46.89849" lon="8.55678">
        <ele>1030</ele>
        <time>2021-08-10T13:43:16.856Z</time>
      </trkpt>
      <trkpt lat="46.89849" lon="8.55677">
        <ele>1031</ele>
        <time>2021-08-10T13:43:17.855Z</time>
      </trkpt>
      <trkpt lat="46.89849" lon="8.55677">
        <ele>1031</ele>
        <time>2021-08-10T13:43:18.855Z</time>
      </trkpt>
      <trkpt lat="46.89848" lon="8.55677">
        <ele>1031</ele>
        <time>2021-08-10T13:43:19.855Z</time>
      </trkpt>
      <trkpt lat="46.89847" lon="8.55678">
        <ele>1032</ele>
        <time>2021-08-10T13:43:20.855Z</time>
      </trkpt>
      <trkpt lat="46.89846" lon="8.55678">
        <ele>1032</ele>
        <time>2021-08-10T13:43:21.855Z</time>
      </trkpt>
      <trkpt lat="46.89846" lon="8.55678">
        <ele>1033</ele>
        <time>2021-08-10T13:43:22.855Z</time>
      </trkpt>
      <trkpt lat="46.89846" lon="8.55678">
        <ele>1033</ele>
        <time>2021-08-10T13:43:23.856Z</time>
      </trkpt>
      <trkpt lat="46.89846" lon="8.55678">
        <ele>1033</ele>
        <time>2021-08-10T13:43:24.855Z</time>
      </trkpt>
      <trkpt lat="46.89846" lon="8.55678">
        <ele>1033</ele>
        <time>2021-08-10T13:43:25.856Z</time>
      </trkpt>
      <trkpt lat="46.89847" lon="8.55677">
        <ele>1034</ele>
        <time>2021-08-10T13:43:26.855Z</time>
      </trkpt>
      <trkpt lat="46.89847" lon="8.55675">
        <ele>1034</ele>
        <time>2021-08-10T13:43:27.855Z</time>
      </trkpt>
      <trkpt lat="46.89847" lon="8.55674">
        <ele>1034</ele>
        <time>2021-08-10T13:43:28.855Z</time>
      </trkpt>
      <trkpt lat="46.89846" lon="8.55674">
        <ele>1034</ele>
        <time>2021-08-10T13:43:29.855Z</time>
      </trkpt>
      <trkpt lat="46.89845" lon="8.55674">
        <ele>1034</ele>
        <time>2021-08-10T13:43:30.855Z</time>
      </trkpt>
      <trkpt lat="46.89843" lon="8.55675">
        <ele>1035</ele>
        <time>2021-08-10T13:43:31.856Z</time>
      </trkpt>
      <trkpt lat="46.89842" lon="8.55675">
        <ele>1035</ele>
        <time>2021-08-10T13:43:32.856Z</time>
      </trkpt>
      <trkpt lat="46.89841" lon="8.55676">
        <ele>1035</ele>
        <time>2021-08-10T13:43:33.855Z</time>
      </trkpt>
      <trkpt lat="46.89839" lon="8.55679">
        <ele>1035</ele>
        <time>2021-08-10T13:43:34.856Z</time>
      </trkpt>
      <trkpt lat="46.89837" lon="8.5568">
        <ele>1034</ele>
        <time>2021-08-10T13:43:35.856Z</time>
      </trkpt>
      <trkpt lat="46.89837" lon="8.55681">
        <ele>1034</ele>
        <time>2021-08-10T13:43:36.856Z</time>
      </trkpt>
      <trkpt lat="46.89836" lon="8.55681">
        <ele>1034</ele>
        <time>2021-08-10T13:43:37.855Z</time>
      </trkpt>
      <trkpt lat="46.89836" lon="8.55681">
        <ele>1034</ele>
        <time>2021-08-10T13:43:38.855Z</time>
      </trkpt>
      <trkpt lat="46.89835" lon="8.55681">
        <ele>1034</ele>
        <time>2021-08-10T13:43:39.856Z</time>
      </trkpt>
      <trkpt lat="46.89834" lon="8.55681">
        <ele>1034</ele>
        <time>2021-08-10T13:43:40.855Z</time>
      </trkpt>
      <trkpt lat="46.89833" lon="8.55681">
        <ele>1034</ele>
        <time>2021-08-10T13:43:41.856Z</time>
      </trkpt>
      <trkpt lat="46.89833" lon="8.5568">
        <ele>1034</ele>
        <time>2021-08-10T13:43:42.855Z</time>
      </trkpt>
      <trkpt lat="46.89832" lon="8.5568">
        <ele>1034</ele>
        <time>2021-08-10T13:43:43.855Z</time>
      </trkpt>
      <trkpt lat="46.89831" lon="8.55681">
        <ele>1033</ele>
        <time>2021-08-10T13:43:44.856Z</time>
      </trkpt>
      <trkpt lat="46.89828" lon="8.55683">
        <ele>1033</ele>
        <time>2021-08-10T13:43:45.856Z</time>
      </trkpt>
      <trkpt lat="46.89824" lon="8.55685">
        <ele>1033</ele>
        <time>2021-08-10T13:43:46.855Z</time>
      </trkpt>
      <trkpt lat="46.89821" lon="8.55686">
        <ele>1033</ele>
        <time>2021-08-10T13:43:47.856Z</time>
      </trkpt>
      <trkpt lat="46.89821" lon="8.55686">
        <ele>1033</ele>
        <time>2021-08-10T13:43:48.855Z</time>
      </trkpt>
      <trkpt lat="46.8982" lon="8.55686">
        <ele>1034</ele>
        <time>2021-08-10T13:43:49.855Z</time>
      </trkpt>
      <trkpt lat="46.89819" lon="8.55686">
        <ele>1034</ele>
        <time>2021-08-10T13:43:50.856Z</time>
      </trkpt>
      <trkpt lat="46.89818" lon="8.55687">
        <ele>1034</ele>
        <time>2021-08-10T13:43:51.855Z</time>
      </trkpt>
      <trkpt lat="46.89818" lon="8.55687">
        <ele>1034</ele>
        <time>2021-08-10T13:43:52.856Z</time>
      </trkpt>
      <trkpt lat="46.89818" lon="8.55687">
        <ele>1034</ele>
        <time>2021-08-10T13:43:53.856Z</time>
      </trkpt>
      <trkpt lat="46.89818" lon="8.55689">
        <ele>1034</ele>
        <time>2021-08-10T13:43:54.857Z</time>
      </trkpt>
      <trkpt lat="46.8982" lon="8.55688">
        <ele>1034</ele>
        <time>2021-08-10T13:43:55.856Z</time>
      </trkpt>
      <trkpt lat="46.89821" lon="8.55688">
        <ele>1034</ele>
        <time>2021-08-10T13:43:56.856Z</time>
      </trkpt>
      <trkpt lat="46.8982" lon="8.55689">
        <ele>1034</ele>
        <time>2021-08-10T13:43:57.856Z</time>
      </trkpt>
      <trkpt lat="46.89818" lon="8.5569">
        <ele>1034</ele>
        <time>2021-08-10T13:43:58.858Z</time>
      </trkpt>
      <trkpt lat="46.89817" lon="8.55691">
        <ele>1034</ele>
        <time>2021-08-10T13:43:59.857Z</time>
      </trkpt>
      <trkpt lat="46.89815" lon="8.55692">
        <ele>1034</ele>
        <time>2021-08-10T13:44:00.857Z</time>
      </trkpt>
      <trkpt lat="46.89814" lon="8.55693">
        <ele>1034</ele>
        <time>2021-08-10T13:44:01.858Z</time>
      </trkpt>
      <trkpt lat="46.89814" lon="8.55694">
        <ele>1034</ele>
        <time>2021-08-10T13:44:02.858Z</time>
      </trkpt>
      <trkpt lat="46.89813" lon="8.55694">
        <ele>1034</ele>
        <time>2021-08-10T13:44:03.857Z</time>
      </trkpt>
      <trkpt lat="46.89812" lon="8.55696">
        <ele>1034</ele>
        <time>2021-08-10T13:44:04.858Z</time>
      </trkpt>
      <trkpt lat="46.89811" lon="8.55697">
        <ele>1034</ele>
        <time>2021-08-10T13:44:05.858Z</time>
      </trkpt>
      <trkpt lat="46.8981" lon="8.55699">
        <ele>1034</ele>
        <time>2021-08-10T13:44:06.858Z</time>
      </trkpt>
      <trkpt lat="46.89808" lon="8.55702">
        <ele>1034</ele>
        <time>2021-08-10T13:44:07.858Z</time>
      </trkpt>
      <trkpt lat="46.89807" lon="8.55703">
        <ele>1034</ele>
        <time>2021-08-10T13:44:08.857Z</time>
      </trkpt>
      <trkpt lat="46.89805" lon="8.55704">
        <ele>1034</ele>
        <time>2021-08-10T13:44:09.858Z</time>
      </trkpt>
      <trkpt lat="46.89803" lon="8.55704">
        <ele>1034</ele>
        <time>2021-08-10T13:44:10.858Z</time>
      </trkpt>
      <trkpt lat="46.89801" lon="8.55705">
        <ele>1034</ele>
        <time>2021-08-10T13:44:11.858Z</time>
      </trkpt>
      <trkpt lat="46.898" lon="8.55706">
        <ele>1035</ele>
        <time>2021-08-10T13:44:12.858Z</time>
      </trkpt>
      <trkpt lat="46.898" lon="8.55707">
        <ele>1035</ele>
        <time>2021-08-10T13:44:13.858Z</time>
      </trkpt>
      <trkpt lat="46.898" lon="8.55705">
        <ele>1036</ele>
        <time>2021-08-10T13:44:14.857Z</time>
      </trkpt>
      <trkpt lat="46.89801" lon="8.55704">
        <ele>1036</ele>
        <time>2021-08-10T13:44:15.858Z</time>
      </trkpt>
      <trkpt lat="46.89801" lon="8.55704">
        <ele>1036</ele>
        <time>2021-08-10T13:44:16.857Z</time>
      </trkpt>
      <trkpt lat="46.89807" lon="8.55698">
        <ele>1034</ele>
        <time>2021-08-10T13:44:17.857Z</time>
      </trkpt>
      <trkpt lat="46.89808" lon="8.55698">
        <ele>1034</ele>
        <time>2021-08-10T13:44:18.858Z</time>
      </trkpt>
      <trkpt lat="46.89812" lon="8.55699">
        <ele>1034</ele>
        <time>2021-08-10T13:44:19.857Z</time>
      </trkpt>
      <trkpt lat="46.8982" lon="8.55693">
        <ele>1036</ele>
        <time>2021-08-10T13:44:20.858Z</time>
      </trkpt>
      <trkpt lat="46.89819" lon="8.55693">
        <ele>1036</ele>
        <time>2021-08-10T13:44:21.857Z</time>
      </trkpt>
      <trkpt lat="46.89817" lon="8.55694">
        <ele>1035</ele>
        <time>2021-08-10T13:44:22.858Z</time>
      </trkpt>
      <trkpt lat="46.89817" lon="8.55692">
        <ele>1035</ele>
        <time>2021-08-10T13:44:23.858Z</time>
      </trkpt>
      <trkpt lat="46.89816" lon="8.55692">
        <ele>1035</ele>
        <time>2021-08-10T13:44:24.857Z</time>
      </trkpt>
      <trkpt lat="46.89817" lon="8.5569">
        <ele>1035</ele>
        <time>2021-08-10T13:44:25.858Z</time>
      </trkpt>
      <trkpt lat="46.89817" lon="8.5569">
        <ele>1035</ele>
        <time>2021-08-10T13:44:26.858Z</time>
      </trkpt>
      <trkpt lat="46.89818" lon="8.55689">
        <ele>1036</ele>
        <time>2021-08-10T13:44:27.858Z</time>
      </trkpt>
      <trkpt lat="46.89817" lon="8.5569">
        <ele>1036</ele>
        <time>2021-08-10T13:44:28.858Z</time>
      </trkpt>
      <trkpt lat="46.89817" lon="8.5569">
        <ele>1036</ele>
        <time>2021-08-10T13:44:29.858Z</time>
      </trkpt>
      <trkpt lat="46.89817" lon="8.5569">
        <ele>1036</ele>
        <time>2021-08-10T13:44:30.858Z</time>
      </trkpt>
      <trkpt lat="46.89815" lon="8.55691">
        <ele>1036</ele>
        <time>2021-08-10T13:44:31.858Z</time>
      </trkpt>
      <trkpt lat="46.89815" lon="8.55691">
        <ele>1036</ele>
        <time>2021-08-10T13:44:32.858Z</time>
      </trkpt>
      <trkpt lat="46.89815" lon="8.55691">
        <ele>1035</ele>
        <time>2021-08-10T13:44:33.859Z</time>
      </trkpt>
      <trkpt lat="46.89815" lon="8.55692">
        <ele>1035</ele>
        <time>2021-08-10T13:44:34.858Z</time>
      </trkpt>
      <trkpt lat="46.89815" lon="8.55693">
        <ele>1035</ele>
        <time>2021-08-10T13:44:35.859Z</time>
      </trkpt>
      <trkpt lat="46.89814" lon="8.55694">
        <ele>1034</ele>
        <time>2021-08-10T13:44:36.859Z</time>
      </trkpt>
      <trkpt lat="46.89811" lon="8.55693">
        <ele>1033</ele>
        <time>2021-08-10T13:44:37.860Z</time>
      </trkpt>
      <trkpt lat="46.89811" lon="8.55692">
        <ele>1034</ele>
        <time>2021-08-10T13:44:38.859Z</time>
      </trkpt>
      <trkpt lat="46.89811" lon="8.5569">
        <ele>1034</ele>
        <time>2021-08-10T13:44:39.860Z</time>
      </trkpt>
      <trkpt lat="46.8981" lon="8.55689">
        <ele>1034</ele>
        <time>2021-08-10T13:44:40.860Z</time>
      </trkpt>
      <trkpt lat="46.89809" lon="8.55689">
        <ele>1034</ele>
        <time>2021-08-10T13:44:41.859Z</time>
      </trkpt>
      <trkpt lat="46.89807" lon="8.5569">
        <ele>1034</ele>
        <time>2021-08-10T13:44:42.860Z</time>
      </trkpt>
      <trkpt lat="46.89806" lon="8.55691">
        <ele>1034</ele>
        <time>2021-08-10T13:44:43.860Z</time>
      </trkpt>
      <trkpt lat="46.89805" lon="8.55693">
        <ele>1034</ele>
        <time>2021-08-10T13:44:44.860Z</time>
      </trkpt>
      <trkpt lat="46.89806" lon="8.55693">
        <ele>1034</ele>
        <time>2021-08-10T13:44:45.860Z</time>
      </trkpt>
      <trkpt lat="46.89806" lon="8.55694">
        <ele>1033</ele>
        <time>2021-08-10T13:44:46.860Z</time>
      </trkpt>
      <trkpt lat="46.89807" lon="8.55694">
        <ele>1033</ele>
        <time>2021-08-10T13:44:47.860Z</time>
      </trkpt>
      <trkpt lat="46.89808" lon="8.55694">
        <ele>1032</ele>
        <time>2021-08-10T13:44:48.860Z</time>
      </trkpt>
      <trkpt lat="46.89813" lon="8.55691">
        <ele>1027</ele>
        <time>2021-08-10T13:44:49.860Z</time>
      </trkpt>
      <trkpt lat="46.89813" lon="8.55691">
        <ele>1028</ele>
        <time>2021-08-10T13:44:50.859Z</time>
      </trkpt>
      <trkpt lat="46.89813" lon="8.55691">
        <ele>1028</ele>
        <time>2021-08-10T13:44:51.860Z</time>
      </trkpt>
      <trkpt lat="46.89814" lon="8.5569">
        <ele>1031</ele>
        <time>2021-08-10T13:44:52.861Z</time>
      </trkpt>
      <trkpt lat="46.89816" lon="8.55689">
        <ele>1032</ele>
        <time>2021-08-10T13:44:53.860Z</time>
      </trkpt>
      <trkpt lat="46.89816" lon="8.55689">
        <ele>1033</ele>
        <time>2021-08-10T13:44:54.860Z</time>
      </trkpt>
      <trkpt lat="46.89817" lon="8.55689">
        <ele>1033</ele>
        <time>2021-08-10T13:44:55.860Z</time>
      </trkpt>
      <trkpt lat="46.89817" lon="8.55689">
        <ele>1033</ele>
        <time>2021-08-10T13:44:56.860Z</time>
      </trkpt>
      <trkpt lat="46.89817" lon="8.55689">
        <ele>1034</ele>
        <time>2021-08-10T13:44:57.861Z</time>
      </trkpt>
      <trkpt lat="46.89816" lon="8.55689">
        <ele>1035</ele>
        <time>2021-08-10T13:44:58.861Z</time>
      </trkpt>
      <trkpt lat="46.89815" lon="8.55689">
        <ele>1035</ele>
        <time>2021-08-10T13:44:59.860Z</time>
      </trkpt>
      <trkpt lat="46.89815" lon="8.55689">
        <ele>1036</ele>
        <time>2021-08-10T13:45:00.861Z</time>
      </trkpt>
      <trkpt lat="46.89814" lon="8.55689">
        <ele>1036</ele>
        <time>2021-08-10T13:45:01.860Z</time>
      </trkpt>
      <trkpt lat="46.89813" lon="8.5569">
        <ele>1037</ele>
        <time>2021-08-10T13:45:02.860Z</time>
      </trkpt>
      <trkpt lat="46.89813" lon="8.5569">
        <ele>1037</ele>
        <time>2021-08-10T13:45:03.861Z</time>
      </trkpt>
      <trkpt lat="46.89813" lon="8.5569">
        <ele>1037</ele>
        <time>2021-08-10T13:45:04.860Z</time>
      </trkpt>
      <trkpt lat="46.89813" lon="8.5569">
        <ele>1037</ele>
        <time>2021-08-10T13:45:05.860Z</time>
      </trkpt>
      <trkpt lat="46.89813" lon="8.5569">
        <ele>1036</ele>
        <time>2021-08-10T13:45:06.860Z</time>
      </trkpt>
      <trkpt lat="46.89814" lon="8.5569">
        <ele>1036</ele>
        <time>2021-08-10T13:45:07.860Z</time>
      </trkpt>
      <trkpt lat="46.89811" lon="8.55689">
        <ele>1051</ele>
        <time>2021-08-10T13:45:08.863Z</time>
      </trkpt>
      <trkpt lat="46.89812" lon="8.55688">
        <ele>1051</ele>
        <time>2021-08-10T13:45:09.862Z</time>
      </trkpt>
      <trkpt lat="46.89812" lon="8.55684">
        <ele>1048</ele>
        <time>2021-08-10T13:45:10.862Z</time>
      </trkpt>
      <trkpt lat="46.89811" lon="8.55685">
        <ele>1047</ele>
        <time>2021-08-10T13:45:11.862Z</time>
      </trkpt>
      <trkpt lat="46.89811" lon="8.55684">
        <ele>1047</ele>
        <time>2021-08-10T13:45:12.862Z</time>
      </trkpt>
      <trkpt lat="46.89811" lon="8.55682">
        <ele>1047</ele>
        <time>2021-08-10T13:45:13.863Z</time>
      </trkpt>
      <trkpt lat="46.8981" lon="8.55681">
        <ele>1047</ele>
        <time>2021-08-10T13:45:14.862Z</time>
      </trkpt>
      <trkpt lat="46.8981" lon="8.5568">
        <ele>1046</ele>
        <time>2021-08-10T13:45:15.863Z</time>
      </trkpt>
      <trkpt lat="46.89809" lon="8.5568">
        <ele>1046</ele>
        <time>2021-08-10T13:45:16.863Z</time>
      </trkpt>
      <trkpt lat="46.89809" lon="8.5568">
        <ele>1046</ele>
        <time>2021-08-10T13:45:17.863Z</time>
      </trkpt>
      <trkpt lat="46.89809" lon="8.55679">
        <ele>1045</ele>
        <time>2021-08-10T13:45:18.863Z</time>
      </trkpt>
      <trkpt lat="46.89809" lon="8.55679">
        <ele>1043</ele>
        <time>2021-08-10T13:45:19.863Z</time>
      </trkpt>
      <trkpt lat="46.89809" lon="8.55678">
        <ele>1042</ele>
        <time>2021-08-10T13:45:20.863Z</time>
      </trkpt>
      <trkpt lat="46.89809" lon="8.55678">
        <ele>1042</ele>
        <time>2021-08-10T13:45:21.864Z</time>
      </trkpt>
      <trkpt lat="46.89809" lon="8.55677">
        <ele>1041</ele>
        <time>2021-08-10T13:45:22.864Z</time>
      </trkpt>
      <trkpt lat="46.89809" lon="8.55677">
        <ele>1040</ele>
        <time>2021-08-10T13:45:23.864Z</time>
      </trkpt>
      <trkpt lat="46.89809" lon="8.55676">
        <ele>1039</ele>
        <time>2021-08-10T13:45:24.865Z</time>
      </trkpt>
      <trkpt lat="46.89809" lon="8.55676">
        <ele>1038</ele>
        <time>2021-08-10T13:45:25.865Z</time>
      </trkpt>
      <trkpt lat="46.89808" lon="8.55676">
        <ele>1037</ele>
        <time>2021-08-10T13:45:26.865Z</time>
      </trkpt>
      <trkpt lat="46.89807" lon="8.55677">
        <ele>1037</ele>
        <time>2021-08-10T13:45:27.865Z</time>
      </trkpt>
      <trkpt lat="46.89806" lon="8.55678">
        <ele>1037</ele>
        <time>2021-08-10T13:45:28.865Z</time>
      </trkpt>
      <trkpt lat="46.89805" lon="8.55678">
        <ele>1037</ele>
        <time>2021-08-10T13:45:29.865Z</time>
      </trkpt>
      <trkpt lat="46.89804" lon="8.55678">
        <ele>1037</ele>
        <time>2021-08-10T13:45:30.865Z</time>
      </trkpt>
      <trkpt lat="46.89804" lon="8.55678">
        <ele>1037</ele>
        <time>2021-08-10T13:45:31.865Z</time>
      </trkpt>
      <trkpt lat="46.89803" lon="8.55678">
        <ele>1037</ele>
        <time>2021-08-10T13:45:32.865Z</time>
      </trkpt>
      <trkpt lat="46.89803" lon="8.55677">
        <ele>1037</ele>
        <time>2021-08-10T13:45:33.865Z</time>
      </trkpt>
      <trkpt lat="46.89803" lon="8.55677">
        <ele>1037</ele>
        <time>2021-08-10T13:45:34.866Z</time>
      </trkpt>
      <trkpt lat="46.89802" lon="8.55677">
        <ele>1037</ele>
        <time>2021-08-10T13:45:35.865Z</time>
      </trkpt>
      <trkpt lat="46.89802" lon="8.55677">
        <ele>1038</ele>
        <time>2021-08-10T13:45:36.866Z</time>
      </trkpt>
      <trkpt lat="46.89801" lon="8.55677">
        <ele>1038</ele>
        <time>2021-08-10T13:45:37.865Z</time>
      </trkpt>
      <trkpt lat="46.89801" lon="8.55677">
        <ele>1039</ele>
        <time>2021-08-10T13:45:38.866Z</time>
      </trkpt>
      <trkpt lat="46.89801" lon="8.55677">
        <ele>1040</ele>
        <time>2021-08-10T13:45:39.866Z</time>
      </trkpt>
      <trkpt lat="46.898" lon="8.55677">
        <ele>1040</ele>
        <time>2021-08-10T13:45:40.866Z</time>
      </trkpt>
      <trkpt lat="46.89799" lon="8.55677">
        <ele>1041</ele>
        <time>2021-08-10T13:45:41.865Z</time>
      </trkpt>
      <trkpt lat="46.89799" lon="8.55677">
        <ele>1041</ele>
        <time>2021-08-10T13:45:42.865Z</time>
      </trkpt>
      <trkpt lat="46.89798" lon="8.55676">
        <ele>1042</ele>
        <time>2021-08-10T13:45:43.865Z</time>
      </trkpt>
      <trkpt lat="46.89798" lon="8.55676">
        <ele>1042</ele>
        <time>2021-08-10T13:45:44.866Z</time>
      </trkpt>
      <trkpt lat="46.89793" lon="8.55677">
        <ele>1045</ele>
        <time>2021-08-10T13:45:45.866Z</time>
      </trkpt>
      <trkpt lat="46.89792" lon="8.55677">
        <ele>1045</ele>
        <time>2021-08-10T13:45:46.867Z</time>
      </trkpt>
      <trkpt lat="46.89791" lon="8.55677">
        <ele>1046</ele>
        <time>2021-08-10T13:45:47.867Z</time>
      </trkpt>
      <trkpt lat="46.89791" lon="8.55675">
        <ele>1047</ele>
        <time>2021-08-10T13:45:48.866Z</time>
      </trkpt>
      <trkpt lat="46.89791" lon="8.55674">
        <ele>1047</ele>
        <time>2021-08-10T13:45:49.866Z</time>
      </trkpt>
      <trkpt lat="46.8979" lon="8.55673">
        <ele>1048</ele>
        <time>2021-08-10T13:45:50.866Z</time>
      </trkpt>
      <trkpt lat="46.8979" lon="8.55672">
        <ele>1048</ele>
        <time>2021-08-10T13:45:53.002Z</time>
      </trkpt>
      <trkpt lat="46.8979" lon="8.55672">
        <ele>1049</ele>
        <time>2021-08-10T13:45:54.003Z</time>
      </trkpt>
      <trkpt lat="46.8979" lon="8.55671">
        <ele>1049</ele>
        <time>2021-08-10T13:45:55.002Z</time>
      </trkpt>
      <trkpt lat="46.8979" lon="8.5567">
        <ele>1050</ele>
        <time>2021-08-10T13:45:56.003Z</time>
      </trkpt>
      <trkpt lat="46.89789" lon="8.55669">
        <ele>1050</ele>
        <time>2021-08-10T13:45:57.002Z</time>
      </trkpt>
      <trkpt lat="46.89788" lon="8.55668">
        <ele>1051</ele>
        <time>2021-08-10T13:45:58.002Z</time>
      </trkpt>
      <trkpt lat="46.89788" lon="8.55668">
        <ele>1052</ele>
        <time>2021-08-10T13:45:59.002Z</time>
      </trkpt>
      <trkpt lat="46.89787" lon="8.55667">
        <ele>1052</ele>
        <time>2021-08-10T13:46:00.002Z</time>
      </trkpt>
      <trkpt lat="46.89787" lon="8.55667">
        <ele>1053</ele>
        <time>2021-08-10T13:46:01.003Z</time>
      </trkpt>
      <trkpt lat="46.89786" lon="8.55668">
        <ele>1053</ele>
        <time>2021-08-10T13:46:02.003Z</time>
      </trkpt>
      <trkpt lat="46.89784" lon="8.55669">
        <ele>1053</ele>
        <time>2021-08-10T13:46:03.002Z</time>
      </trkpt>
      <trkpt lat="46.89785" lon="8.55668">
        <ele>1053</ele>
        <time>2021-08-10T13:46:04.002Z</time>
      </trkpt>
      <trkpt lat="46.89785" lon="8.55666">
        <ele>1053</ele>
        <time>2021-08-10T13:46:05.002Z</time>
      </trkpt>
      <trkpt lat="46.89785" lon="8.55666">
        <ele>1053</ele>
        <time>2021-08-10T13:46:06.003Z</time>
      </trkpt>
      <trkpt lat="46.89784" lon="8.55666">
        <ele>1053</ele>
        <time>2021-08-10T13:46:07.003Z</time>
      </trkpt>
      <trkpt lat="46.89782" lon="8.55666">
        <ele>1052</ele>
        <time>2021-08-10T13:46:08.002Z</time>
      </trkpt>
      <trkpt lat="46.89781" lon="8.55667">
        <ele>1052</ele>
        <time>2021-08-10T13:46:09.003Z</time>
      </trkpt>
      <trkpt lat="46.8978" lon="8.55666">
        <ele>1052</ele>
        <time>2021-08-10T13:46:10.002Z</time>
      </trkpt>
      <trkpt lat="46.89779" lon="8.55666">
        <ele>1053</ele>
        <time>2021-08-10T13:46:11.003Z</time>
      </trkpt>
      <trkpt lat="46.89779" lon="8.55665">
        <ele>1053</ele>
        <time>2021-08-10T13:46:12.003Z</time>
      </trkpt>
      <trkpt lat="46.89779" lon="8.55665">
        <ele>1053</ele>
        <time>2021-08-10T13:46:13.003Z</time>
      </trkpt>
      <trkpt lat="46.89779" lon="8.55664">
        <ele>1053</ele>
        <time>2021-08-10T13:46:14.003Z</time>
      </trkpt>
      <trkpt lat="46.89779" lon="8.55664">
        <ele>1054</ele>
        <time>2021-08-10T13:46:15.002Z</time>
      </trkpt>
      <trkpt lat="46.89778" lon="8.55665">
        <ele>1054</ele>
        <time>2021-08-10T13:46:16.003Z</time>
      </trkpt>
      <trkpt lat="46.89777" lon="8.55666">
        <ele>1054</ele>
        <time>2021-08-10T13:46:17.003Z</time>
      </trkpt>
      <trkpt lat="46.89777" lon="8.55666">
        <ele>1054</ele>
        <time>2021-08-10T13:46:18.003Z</time>
      </trkpt>
      <trkpt lat="46.89777" lon="8.55667">
        <ele>1054</ele>
        <time>2021-08-10T13:46:19.002Z</time>
      </trkpt>
      <trkpt lat="46.89776" lon="8.55668">
        <ele>1054</ele>
        <time>2021-08-10T13:46:20.003Z</time>
      </trkpt>
      <trkpt lat="46.89775" lon="8.55668">
        <ele>1054</ele>
        <time>2021-08-10T13:46:21.003Z</time>
      </trkpt>
      <trkpt lat="46.89775" lon="8.55668">
        <ele>1054</ele>
        <time>2021-08-10T13:46:22.003Z</time>
      </trkpt>
      <trkpt lat="46.89774" lon="8.55668">
        <ele>1054</ele>
        <time>2021-08-10T13:46:23.003Z</time>
      </trkpt>
      <trkpt lat="46.89773" lon="8.55668">
        <ele>1054</ele>
        <time>2021-08-10T13:46:24.003Z</time>
      </trkpt>
      <trkpt lat="46.89772" lon="8.55668">
        <ele>1054</ele>
        <time>2021-08-10T13:46:25.003Z</time>
      </trkpt>
      <trkpt lat="46.89771" lon="8.55668">
        <ele>1055</ele>
        <time>2021-08-10T13:46:26.003Z</time>
      </trkpt>
      <trkpt lat="46.8977" lon="8.55668">
        <ele>1055</ele>
        <time>2021-08-10T13:46:27.002Z</time>
      </trkpt>
      <trkpt lat="46.89769" lon="8.55668">
        <ele>1055</ele>
        <time>2021-08-10T13:46:28.003Z</time>
      </trkpt>
      <trkpt lat="46.89769" lon="8.55668">
        <ele>1054</ele>
        <time>2021-08-10T13:46:29.003Z</time>
      </trkpt>
      <trkpt lat="46.89767" lon="8.55669">
        <ele>1053</ele>
        <time>2021-08-10T13:46:30.002Z</time>
      </trkpt>
      <trkpt lat="46.89765" lon="8.5567">
        <ele>1052</ele>
        <time>2021-08-10T13:46:31.003Z</time>
      </trkpt>
      <trkpt lat="46.89764" lon="8.55671">
        <ele>1052</ele>
        <time>2021-08-10T13:46:32.002Z</time>
      </trkpt>
      <trkpt lat="46.89762" lon="8.55672">
        <ele>1051</ele>
        <time>2021-08-10T13:46:33.003Z</time>
      </trkpt>
      <trkpt lat="46.8976" lon="8.55673">
        <ele>1051</ele>
        <time>2021-08-10T13:46:34.002Z</time>
      </trkpt>
      <trkpt lat="46.89759" lon="8.55674">
        <ele>1050</ele>
        <time>2021-08-10T13:46:35.003Z</time>
      </trkpt>
      <trkpt lat="46.89758" lon="8.55675">
        <ele>1050</ele>
        <time>2021-08-10T13:46:36.003Z</time>
      </trkpt>
      <trkpt lat="46.89756" lon="8.55676">
        <ele>1049</ele>
        <time>2021-08-10T13:46:37.003Z</time>
      </trkpt>
      <trkpt lat="46.89755" lon="8.55677">
        <ele>1049</ele>
        <time>2021-08-10T13:46:38.003Z</time>
      </trkpt>
      <trkpt lat="46.89754" lon="8.55677">
        <ele>1048</ele>
        <time>2021-08-10T13:46:39.003Z</time>
      </trkpt>
      <trkpt lat="46.89754" lon="8.55678">
        <ele>1048</ele>
        <time>2021-08-10T13:46:40.003Z</time>
      </trkpt>
      <trkpt lat="46.89753" lon="8.55678">
        <ele>1048</ele>
        <time>2021-08-10T13:46:42.073Z</time>
      </trkpt>
      <trkpt lat="46.89752" lon="8.55678">
        <ele>1048</ele>
        <time>2021-08-10T13:46:50.838Z</time>
      </trkpt>
      <trkpt lat="46.89751" lon="8.55678">
        <ele>1048</ele>
        <time>2021-08-10T13:46:51.838Z</time>
      </trkpt>
      <trkpt lat="46.8975" lon="8.55677">
        <ele>1048</ele>
        <time>2021-08-10T13:46:52.837Z</time>
      </trkpt>
      <trkpt lat="46.89749" lon="8.55677">
        <ele>1048</ele>
        <time>2021-08-10T13:46:59.880Z</time>
      </trkpt>
      <trkpt lat="46.89749" lon="8.55677">
        <ele>1048</ele>
        <time>2021-08-10T13:47:00.879Z</time>
      </trkpt>
      <trkpt lat="46.89748" lon="8.55677">
        <ele>1048</ele>
        <time>2021-08-10T13:47:01.880Z</time>
      </trkpt>
      <trkpt lat="46.89746" lon="8.55677">
        <ele>1048</ele>
        <time>2021-08-10T13:47:02.880Z</time>
      </trkpt>
      <trkpt lat="46.89745" lon="8.55678">
        <ele>1048</ele>
        <time>2021-08-10T13:47:03.879Z</time>
      </trkpt>
      <trkpt lat="46.89744" lon="8.55679">
        <ele>1048</ele>
        <time>2021-08-10T13:47:04.880Z</time>
      </trkpt>
      <trkpt lat="46.89744" lon="8.55679">
        <ele>1048</ele>
        <time>2021-08-10T13:47:05.880Z</time>
      </trkpt>
      <trkpt lat="46.89743" lon="8.55679">
        <ele>1049</ele>
        <time>2021-08-10T13:47:06.880Z</time>
      </trkpt>
      <trkpt lat="46.89743" lon="8.5568">
        <ele>1049</ele>
        <time>2021-08-10T13:47:07.879Z</time>
      </trkpt>
      <trkpt lat="46.89742" lon="8.5568">
        <ele>1049</ele>
        <time>2021-08-10T13:47:08.879Z</time>
      </trkpt>
      <trkpt lat="46.8974" lon="8.5568">
        <ele>1050</ele>
        <time>2021-08-10T13:47:09.880Z</time>
      </trkpt>
      <trkpt lat="46.89739" lon="8.5568">
        <ele>1050</ele>
        <time>2021-08-10T13:47:10.880Z</time>
      </trkpt>
      <trkpt lat="46.89738" lon="8.55679">
        <ele>1051</ele>
        <time>2021-08-10T13:47:11.880Z</time>
      </trkpt>
      <trkpt lat="46.89737" lon="8.5568">
        <ele>1051</ele>
        <time>2021-08-10T13:47:12.880Z</time>
      </trkpt>
      <trkpt lat="46.89735" lon="8.5568">
        <ele>1052</ele>
        <time>2021-08-10T13:47:13.880Z</time>
      </trkpt>
      <trkpt lat="46.89734" lon="8.5568">
        <ele>1052</ele>
        <time>2021-08-10T13:47:14.880Z</time>
      </trkpt>
      <trkpt lat="46.89733" lon="8.5568">
        <ele>1053</ele>
        <time>2021-08-10T13:47:15.880Z</time>
      </trkpt>
      <trkpt lat="46.89732" lon="8.5568">
        <ele>1054</ele>
        <time>2021-08-10T13:47:16.879Z</time>
      </trkpt>
      <trkpt lat="46.8973" lon="8.55679">
        <ele>1054</ele>
        <time>2021-08-10T13:47:17.880Z</time>
      </trkpt>
      <trkpt lat="46.89728" lon="8.5568">
        <ele>1054</ele>
        <time>2021-08-10T13:47:18.880Z</time>
      </trkpt>
      <trkpt lat="46.89727" lon="8.5568">
        <ele>1055</ele>
        <time>2021-08-10T13:47:19.880Z</time>
      </trkpt>
      <trkpt lat="46.89725" lon="8.55679">
        <ele>1055</ele>
        <time>2021-08-10T13:47:20.879Z</time>
      </trkpt>
      <trkpt lat="46.89725" lon="8.55679">
        <ele>1056</ele>
        <time>2021-08-10T13:47:22.968Z</time>
      </trkpt>
      <trkpt lat="46.89724" lon="8.55679">
        <ele>1056</ele>
        <time>2021-08-10T13:47:23.969Z</time>
      </trkpt>
      <trkpt lat="46.89723" lon="8.55678">
        <ele>1056</ele>
        <time>2021-08-10T13:47:24.968Z</time>
      </trkpt>
      <trkpt lat="46.89722" lon="8.55678">
        <ele>1057</ele>
        <time>2021-08-10T13:47:25.969Z</time>
      </trkpt>
      <trkpt lat="46.89721" lon="8.55679">
        <ele>1057</ele>
        <time>2021-08-10T13:47:26.969Z</time>
      </trkpt>
      <trkpt lat="46.8972" lon="8.55679">
        <ele>1057</ele>
        <time>2021-08-10T13:47:27.968Z</time>
      </trkpt>
      <trkpt lat="46.89719" lon="8.55679">
        <ele>1058</ele>
        <time>2021-08-10T13:47:28.968Z</time>
      </trkpt>
      <trkpt lat="46.89719" lon="8.5568">
        <ele>1058</ele>
        <time>2021-08-10T13:47:29.969Z</time>
      </trkpt>
      <trkpt lat="46.89718" lon="8.5568">
        <ele>1058</ele>
        <time>2021-08-10T13:47:30.969Z</time>
      </trkpt>
      <trkpt lat="46.89717" lon="8.55681">
        <ele>1059</ele>
        <time>2021-08-10T13:47:31.969Z</time>
      </trkpt>
      <trkpt lat="46.89717" lon="8.55682">
        <ele>1059</ele>
        <time>2021-08-10T13:47:32.969Z</time>
      </trkpt>
      <trkpt lat="46.89716" lon="8.55683">
        <ele>1059</ele>
        <time>2021-08-10T13:47:33.969Z</time>
      </trkpt>
      <trkpt lat="46.89715" lon="8.55683">
        <ele>1058</ele>
        <time>2021-08-10T13:47:34.968Z</time>
      </trkpt>
      <trkpt lat="46.89715" lon="8.55684">
        <ele>1058</ele>
        <time>2021-08-10T13:47:35.969Z</time>
      </trkpt>
      <trkpt lat="46.89713" lon="8.55684">
        <ele>1057</ele>
        <time>2021-08-10T13:47:36.969Z</time>
      </trkpt>
      <trkpt lat="46.89712" lon="8.55685">
        <ele>1057</ele>
        <time>2021-08-10T13:47:37.969Z</time>
      </trkpt>
      <trkpt lat="46.8971" lon="8.55686">
        <ele>1057</ele>
        <time>2021-08-10T13:47:38.969Z</time>
      </trkpt>
      <trkpt lat="46.8971" lon="8.55687">
        <ele>1057</ele>
        <time>2021-08-10T13:47:39.969Z</time>
      </trkpt>
      <trkpt lat="46.89709" lon="8.55688">
        <ele>1056</ele>
        <time>2021-08-10T13:47:40.969Z</time>
      </trkpt>
      <trkpt lat="46.89708" lon="8.55688">
        <ele>1056</ele>
        <time>2021-08-10T13:47:41.969Z</time>
      </trkpt>
      <trkpt lat="46.89707" lon="8.55688">
        <ele>1056</ele>
        <time>2021-08-10T13:47:42.968Z</time>
      </trkpt>
      <trkpt lat="46.89707" lon="8.55688">
        <ele>1056</ele>
        <time>2021-08-10T13:47:43.969Z</time>
      </trkpt>
      <trkpt lat="46.89707" lon="8.55688">
        <ele>1056</ele>
        <time>2021-08-10T13:47:44.969Z</time>
      </trkpt>
      <trkpt lat="46.89706" lon="8.55689">
        <ele>1056</ele>
        <time>2021-08-10T13:47:45.968Z</time>
      </trkpt>
      <trkpt lat="46.89706" lon="8.55689">
        <ele>1057</ele>
        <time>2021-08-10T13:47:46.969Z</time>
      </trkpt>
      <trkpt lat="46.89705" lon="8.55689">
        <ele>1057</ele>
        <time>2021-08-10T13:47:47.968Z</time>
      </trkpt>
      <trkpt lat="46.89704" lon="8.55689">
        <ele>1057</ele>
        <time>2021-08-10T13:47:48.969Z</time>
      </trkpt>
      <trkpt lat="46.89703" lon="8.5569">
        <ele>1058</ele>
        <time>2021-08-10T13:47:49.969Z</time>
      </trkpt>
      <trkpt lat="46.89702" lon="8.5569">
        <ele>1058</ele>
        <time>2021-08-10T13:47:50.968Z</time>
      </trkpt>
      <trkpt lat="46.89701" lon="8.5569">
        <ele>1058</ele>
        <time>2021-08-10T13:47:51.969Z</time>
      </trkpt>
      <trkpt lat="46.897" lon="8.5569">
        <ele>1058</ele>
        <time>2021-08-10T13:47:52.969Z</time>
      </trkpt>
      <trkpt lat="46.89699" lon="8.55691">
        <ele>1058</ele>
        <time>2021-08-10T13:47:53.969Z</time>
      </trkpt>
      <trkpt lat="46.89698" lon="8.55691">
        <ele>1059</ele>
        <time>2021-08-10T13:47:54.969Z</time>
      </trkpt>
      <trkpt lat="46.89697" lon="8.55691">
        <ele>1059</ele>
        <time>2021-08-10T13:47:55.969Z</time>
      </trkpt>
      <trkpt lat="46.89696" lon="8.55692">
        <ele>1058</ele>
        <time>2021-08-10T13:47:56.969Z</time>
      </trkpt>
      <trkpt lat="46.89695" lon="8.55692">
        <ele>1058</ele>
        <time>2021-08-10T13:47:57.969Z</time>
      </trkpt>
      <trkpt lat="46.89695" lon="8.55692">
        <ele>1058</ele>
        <time>2021-08-10T13:47:58.969Z</time>
      </trkpt>
      <trkpt lat="46.89694" lon="8.55693">
        <ele>1058</ele>
        <time>2021-08-10T13:47:59.969Z</time>
      </trkpt>
      <trkpt lat="46.89694" lon="8.55692">
        <ele>1058</ele>
        <time>2021-08-10T13:48:00.968Z</time>
      </trkpt>
      <trkpt lat="46.89693" lon="8.55692">
        <ele>1058</ele>
        <time>2021-08-10T13:48:01.968Z</time>
      </trkpt>
      <trkpt lat="46.89692" lon="8.55692">
        <ele>1058</ele>
        <time>2021-08-10T13:48:02.968Z</time>
      </trkpt>
      <trkpt lat="46.89691" lon="8.55692">
        <ele>1059</ele>
        <time>2021-08-10T13:48:03.969Z</time>
      </trkpt>
      <trkpt lat="46.89691" lon="8.55692">
        <ele>1060</ele>
        <time>2021-08-10T13:48:04.969Z</time>
      </trkpt>
      <trkpt lat="46.8969" lon="8.55691">
        <ele>1060</ele>
        <time>2021-08-10T13:48:05.969Z</time>
      </trkpt>
      <trkpt lat="46.89689" lon="8.55691">
        <ele>1061</ele>
        <time>2021-08-10T13:48:06.969Z</time>
      </trkpt>
      <trkpt lat="46.89689" lon="8.5569">
        <ele>1061</ele>
        <time>2021-08-10T13:48:07.968Z</time>
      </trkpt>
      <trkpt lat="46.89688" lon="8.5569">
        <ele>1061</ele>
        <time>2021-08-10T13:48:08.969Z</time>
      </trkpt>
      <trkpt lat="46.89687" lon="8.5569">
        <ele>1062</ele>
        <time>2021-08-10T13:48:09.969Z</time>
      </trkpt>
      <trkpt lat="46.89686" lon="8.55691">
        <ele>1062</ele>
        <time>2021-08-10T13:48:10.969Z</time>
      </trkpt>
      <trkpt lat="46.89685" lon="8.55692">
        <ele>1062</ele>
        <time>2021-08-10T13:48:11.969Z</time>
      </trkpt>
      <trkpt lat="46.89684" lon="8.55693">
        <ele>1062</ele>
        <time>2021-08-10T13:48:12.968Z</time>
      </trkpt>
      <trkpt lat="46.89683" lon="8.55693">
        <ele>1062</ele>
        <time>2021-08-10T13:48:13.968Z</time>
      </trkpt>
      <trkpt lat="46.89682" lon="8.55692">
        <ele>1062</ele>
        <time>2021-08-10T13:48:14.969Z</time>
      </trkpt>
      <trkpt lat="46.89681" lon="8.55693">
        <ele>1062</ele>
        <time>2021-08-10T13:48:15.968Z</time>
      </trkpt>
      <trkpt lat="46.8968" lon="8.55693">
        <ele>1062</ele>
        <time>2021-08-10T13:48:16.969Z</time>
      </trkpt>
      <trkpt lat="46.89678" lon="8.55694">
        <ele>1062</ele>
        <time>2021-08-10T13:48:17.969Z</time>
      </trkpt>
      <trkpt lat="46.89677" lon="8.55694">
        <ele>1063</ele>
        <time>2021-08-10T13:48:18.969Z</time>
      </trkpt>
      <trkpt lat="46.89676" lon="8.55694">
        <ele>1063</ele>
        <time>2021-08-10T13:48:19.969Z</time>
      </trkpt>
      <trkpt lat="46.89674" lon="8.55694">
        <ele>1064</ele>
        <time>2021-08-10T13:48:20.969Z</time>
      </trkpt>
      <trkpt lat="46.89673" lon="8.55694">
        <ele>1064</ele>
        <time>2021-08-10T13:48:21.968Z</time>
      </trkpt>
      <trkpt lat="46.89672" lon="8.55695">
        <ele>1065</ele>
        <time>2021-08-10T13:48:22.969Z</time>
      </trkpt>
      <trkpt lat="46.89671" lon="8.55695">
        <ele>1065</ele>
        <time>2021-08-10T13:48:23.969Z</time>
      </trkpt>
      <trkpt lat="46.8967" lon="8.55695">
        <ele>1065</ele>
        <time>2021-08-10T13:48:24.968Z</time>
      </trkpt>
      <trkpt lat="46.89669" lon="8.55695">
        <ele>1065</ele>
        <time>2021-08-10T13:48:25.969Z</time>
      </trkpt>
      <trkpt lat="46.89668" lon="8.55696">
        <ele>1065</ele>
        <time>2021-08-10T13:48:26.969Z</time>
      </trkpt>
      <trkpt lat="46.89666" lon="8.55696">
        <ele>1065</ele>
        <time>2021-08-10T13:48:27.969Z</time>
      </trkpt>
      <trkpt lat="46.89666" lon="8.55697">
        <ele>1065</ele>
        <time>2021-08-10T13:48:28.969Z</time>
      </trkpt>
      <trkpt lat="46.89665" lon="8.55697">
        <ele>1064</ele>
        <time>2021-08-10T13:48:29.969Z</time>
      </trkpt>
      <trkpt lat="46.89664" lon="8.55697">
        <ele>1064</ele>
        <time>2021-08-10T13:48:30.968Z</time>
      </trkpt>
      <trkpt lat="46.89662" lon="8.55698">
        <ele>1064</ele>
        <time>2021-08-10T13:48:31.969Z</time>
      </trkpt>
      <trkpt lat="46.89662" lon="8.55699">
        <ele>1064</ele>
        <time>2021-08-10T13:48:32.969Z</time>
      </trkpt>
      <trkpt lat="46.89661" lon="8.55699">
        <ele>1064</ele>
        <time>2021-08-10T13:48:33.969Z</time>
      </trkpt>
      <trkpt lat="46.89661" lon="8.557">
        <ele>1063</ele>
        <time>2021-08-10T13:48:34.969Z</time>
      </trkpt>
      <trkpt lat="46.8966" lon="8.557">
        <ele>1063</ele>
        <time>2021-08-10T13:48:35.969Z</time>
      </trkpt>
      <trkpt lat="46.89659" lon="8.55701">
        <ele>1063</ele>
        <time>2021-08-10T13:48:36.968Z</time>
      </trkpt>
      <trkpt lat="46.89659" lon="8.55701">
        <ele>1063</ele>
        <time>2021-08-10T13:48:37.969Z</time>
      </trkpt>
      <trkpt lat="46.89658" lon="8.55701">
        <ele>1063</ele>
        <time>2021-08-10T13:48:38.969Z</time>
      </trkpt>
      <trkpt lat="46.89657" lon="8.55701">
        <ele>1063</ele>
        <time>2021-08-10T13:48:39.969Z</time>
      </trkpt>
      <trkpt lat="46.89656" lon="8.55701">
        <ele>1063</ele>
        <time>2021-08-10T13:48:40.968Z</time>
      </trkpt>
      <trkpt lat="46.89655" lon="8.55701">
        <ele>1063</ele>
        <time>2021-08-10T13:48:41.969Z</time>
      </trkpt>
      <trkpt lat="46.89654" lon="8.55702">
        <ele>1063</ele>
        <time>2021-08-10T13:48:42.969Z</time>
      </trkpt>
      <trkpt lat="46.89654" lon="8.55702">
        <ele>1063</ele>
        <time>2021-08-10T13:48:43.968Z</time>
      </trkpt>
      <trkpt lat="46.89654" lon="8.55702">
        <ele>1063</ele>
        <time>2021-08-10T13:48:44.968Z</time>
      </trkpt>
      <trkpt lat="46.89653" lon="8.55703">
        <ele>1063</ele>
        <time>2021-08-10T13:48:45.969Z</time>
      </trkpt>
      <trkpt lat="46.89653" lon="8.55703">
        <ele>1063</ele>
        <time>2021-08-10T13:48:46.969Z</time>
      </trkpt>
      <trkpt lat="46.89653" lon="8.55703">
        <ele>1063</ele>
        <time>2021-08-10T13:48:47.968Z</time>
      </trkpt>
      <trkpt lat="46.89651" lon="8.55703">
        <ele>1063</ele>
        <time>2021-08-10T13:48:48.969Z</time>
      </trkpt>
      <trkpt lat="46.8965" lon="8.55703">
        <ele>1063</ele>
        <time>2021-08-10T13:48:49.969Z</time>
      </trkpt>
      <trkpt lat="46.89648" lon="8.55702">
        <ele>1063</ele>
        <time>2021-08-10T13:48:50.968Z</time>
      </trkpt>
      <trkpt lat="46.89647" lon="8.55702">
        <ele>1063</ele>
        <time>2021-08-10T13:48:51.969Z</time>
      </trkpt>
      <trkpt lat="46.89647" lon="8.55701">
        <ele>1063</ele>
        <time>2021-08-10T13:48:52.969Z</time>
      </trkpt>
      <trkpt lat="46.89647" lon="8.557">
        <ele>1063</ele>
        <time>2021-08-10T13:48:53.969Z</time>
      </trkpt>
      <trkpt lat="46.89646" lon="8.557">
        <ele>1063</ele>
        <time>2021-08-10T13:48:58.004Z</time>
      </trkpt>
      <trkpt lat="46.89646" lon="8.557">
        <ele>1063</ele>
        <time>2021-08-10T13:48:59.004Z</time>
      </trkpt>
      <trkpt lat="46.89645" lon="8.55699">
        <ele>1064</ele>
        <time>2021-08-10T13:49:00.004Z</time>
      </trkpt>
      <trkpt lat="46.89645" lon="8.55699">
        <ele>1065</ele>
        <time>2021-08-10T13:49:01.004Z</time>
      </trkpt>
      <trkpt lat="46.89644" lon="8.55699">
        <ele>1065</ele>
        <time>2021-08-10T13:49:02.004Z</time>
      </trkpt>
      <trkpt lat="46.89643" lon="8.55699">
        <ele>1065</ele>
        <time>2021-08-10T13:49:03.004Z</time>
      </trkpt>
      <trkpt lat="46.89642" lon="8.557">
        <ele>1065</ele>
        <time>2021-08-10T13:49:04.004Z</time>
      </trkpt>
      <trkpt lat="46.89641" lon="8.557">
        <ele>1065</ele>
        <time>2021-08-10T13:49:05.004Z</time>
      </trkpt>
      <trkpt lat="46.8964" lon="8.557">
        <ele>1065</ele>
        <time>2021-08-10T13:49:06.003Z</time>
      </trkpt>
      <trkpt lat="46.89639" lon="8.557">
        <ele>1065</ele>
        <time>2021-08-10T13:49:07.003Z</time>
      </trkpt>
      <trkpt lat="46.89638" lon="8.557">
        <ele>1066</ele>
        <time>2021-08-10T13:49:08.004Z</time>
      </trkpt>
      <trkpt lat="46.89637" lon="8.557">
        <ele>1066</ele>
        <time>2021-08-10T13:49:09.004Z</time>
      </trkpt>
      <trkpt lat="46.89636" lon="8.55699">
        <ele>1066</ele>
        <time>2021-08-10T13:49:10.003Z</time>
      </trkpt>
      <trkpt lat="46.89635" lon="8.557">
        <ele>1066</ele>
        <time>2021-08-10T13:49:11.004Z</time>
      </trkpt>
      <trkpt lat="46.89634" lon="8.55701">
        <ele>1067</ele>
        <time>2021-08-10T13:49:12.003Z</time>
      </trkpt>
      <trkpt lat="46.89634" lon="8.55701">
        <ele>1067</ele>
        <time>2021-08-10T13:49:13.003Z</time>
      </trkpt>
      <trkpt lat="46.89633" lon="8.55702">
        <ele>1067</ele>
        <time>2021-08-10T13:49:14.003Z</time>
      </trkpt>
      <trkpt lat="46.89633" lon="8.55702">
        <ele>1067</ele>
        <time>2021-08-10T13:49:15.003Z</time>
      </trkpt>
      <trkpt lat="46.89632" lon="8.55703">
        <ele>1068</ele>
        <time>2021-08-10T13:49:16.003Z</time>
      </trkpt>
      <trkpt lat="46.89632" lon="8.55703">
        <ele>1068</ele>
        <time>2021-08-10T13:49:17.003Z</time>
      </trkpt>
      <trkpt lat="46.89631" lon="8.55703">
        <ele>1068</ele>
        <time>2021-08-10T13:49:18.003Z</time>
      </trkpt>
      <trkpt lat="46.89631" lon="8.55703">
        <ele>1069</ele>
        <time>2021-08-10T13:49:19.004Z</time>
      </trkpt>
      <trkpt lat="46.8963" lon="8.55703">
        <ele>1069</ele>
        <time>2021-08-10T13:49:20.003Z</time>
      </trkpt>
      <trkpt lat="46.8963" lon="8.55704">
        <ele>1069</ele>
        <time>2021-08-10T13:49:21.003Z</time>
      </trkpt>
      <trkpt lat="46.89629" lon="8.55704">
        <ele>1069</ele>
        <time>2021-08-10T13:49:22.003Z</time>
      </trkpt>
      <trkpt lat="46.89628" lon="8.55704">
        <ele>1069</ele>
        <time>2021-08-10T13:49:23.003Z</time>
      </trkpt>
      <trkpt lat="46.89627" lon="8.55705">
        <ele>1069</ele>
        <time>2021-08-10T13:49:24.003Z</time>
      </trkpt>
      <trkpt lat="46.89627" lon="8.55706">
        <ele>1069</ele>
        <time>2021-08-10T13:49:25.003Z</time>
      </trkpt>
      <trkpt lat="46.89626" lon="8.55707">
        <ele>1069</ele>
        <time>2021-08-10T13:49:26.003Z</time>
      </trkpt>
      <trkpt lat="46.89626" lon="8.55708">
        <ele>1069</ele>
        <time>2021-08-10T13:49:27.003Z</time>
      </trkpt>
      <trkpt lat="46.89625" lon="8.5571">
        <ele>1069</ele>
        <time>2021-08-10T13:49:28.003Z</time>
      </trkpt>
      <trkpt lat="46.89623" lon="8.55711">
        <ele>1070</ele>
        <time>2021-08-10T13:49:29.003Z</time>
      </trkpt>
      <trkpt lat="46.89623" lon="8.55712">
        <ele>1070</ele>
        <time>2021-08-10T13:49:30.003Z</time>
      </trkpt>
      <trkpt lat="46.89623" lon="8.55713">
        <ele>1070</ele>
        <time>2021-08-10T13:49:31.003Z</time>
      </trkpt>
      <trkpt lat="46.89622" lon="8.55714">
        <ele>1070</ele>
        <time>2021-08-10T13:49:32.003Z</time>
      </trkpt>
      <trkpt lat="46.89622" lon="8.55715">
        <ele>1070</ele>
        <time>2021-08-10T13:49:33.003Z</time>
      </trkpt>
      <trkpt lat="46.89622" lon="8.55716">
        <ele>1069</ele>
        <time>2021-08-10T13:49:34.003Z</time>
      </trkpt>
      <trkpt lat="46.89621" lon="8.55717">
        <ele>1070</ele>
        <time>2021-08-10T13:49:35.003Z</time>
      </trkpt>
      <trkpt lat="46.89621" lon="8.55718">
        <ele>1070</ele>
        <time>2021-08-10T13:49:36.003Z</time>
      </trkpt>
      <trkpt lat="46.8962" lon="8.55718">
        <ele>1070</ele>
        <time>2021-08-10T13:49:37.003Z</time>
      </trkpt>
      <trkpt lat="46.89619" lon="8.55719">
        <ele>1069</ele>
        <time>2021-08-10T13:49:38.003Z</time>
      </trkpt>
      <trkpt lat="46.89618" lon="8.5572">
        <ele>1069</ele>
        <time>2021-08-10T13:49:39.003Z</time>
      </trkpt>
      <trkpt lat="46.89617" lon="8.5572">
        <ele>1069</ele>
        <time>2021-08-10T13:49:40.003Z</time>
      </trkpt>
      <trkpt lat="46.89616" lon="8.5572">
        <ele>1069</ele>
        <time>2021-08-10T13:49:41.004Z</time>
      </trkpt>
      <trkpt lat="46.89614" lon="8.5572">
        <ele>1069</ele>
        <time>2021-08-10T13:49:42.003Z</time>
      </trkpt>
      <trkpt lat="46.89612" lon="8.55721">
        <ele>1069</ele>
        <time>2021-08-10T13:49:43.003Z</time>
      </trkpt>
      <trkpt lat="46.89611" lon="8.55721">
        <ele>1069</ele>
        <time>2021-08-10T13:49:44.003Z</time>
      </trkpt>
      <trkpt lat="46.8961" lon="8.55722">
        <ele>1069</ele>
        <time>2021-08-10T13:49:45.003Z</time>
      </trkpt>
      <trkpt lat="46.89609" lon="8.55722">
        <ele>1068</ele>
        <time>2021-08-10T13:49:46.004Z</time>
      </trkpt>
      <trkpt lat="46.89609" lon="8.55722">
        <ele>1068</ele>
        <time>2021-08-10T13:49:47.003Z</time>
      </trkpt>
      <trkpt lat="46.89607" lon="8.55722">
        <ele>1068</ele>
        <time>2021-08-10T13:49:48.004Z</time>
      </trkpt>
      <trkpt lat="46.89604" lon="8.55722">
        <ele>1068</ele>
        <time>2021-08-10T13:49:49.004Z</time>
      </trkpt>
      <trkpt lat="46.89602" lon="8.55722">
        <ele>1068</ele>
        <time>2021-08-10T13:49:50.004Z</time>
      </trkpt>
      <trkpt lat="46.89602" lon="8.55723">
        <ele>1068</ele>
        <time>2021-08-10T13:49:51.003Z</time>
      </trkpt>
      <trkpt lat="46.89601" lon="8.55723">
        <ele>1068</ele>
        <time>2021-08-10T13:49:52.004Z</time>
      </trkpt>
      <trkpt lat="46.896" lon="8.55723">
        <ele>1068</ele>
        <time>2021-08-10T13:49:53.004Z</time>
      </trkpt>
      <trkpt lat="46.89598" lon="8.55724">
        <ele>1067</ele>
        <time>2021-08-10T13:49:54.004Z</time>
      </trkpt>
      <trkpt lat="46.89597" lon="8.55724">
        <ele>1067</ele>
        <time>2021-08-10T13:49:55.004Z</time>
      </trkpt>
      <trkpt lat="46.89596" lon="8.55724">
        <ele>1067</ele>
        <time>2021-08-10T13:49:56.004Z</time>
      </trkpt>
      <trkpt lat="46.89595" lon="8.55725">
        <ele>1067</ele>
        <time>2021-08-10T13:49:57.004Z</time>
      </trkpt>
      <trkpt lat="46.89595" lon="8.55725">
        <ele>1067</ele>
        <time>2021-08-10T13:49:59.082Z</time>
      </trkpt>
      <trkpt lat="46.89595" lon="8.55726">
        <ele>1067</ele>
        <time>2021-08-10T13:50:00.081Z</time>
      </trkpt>
      <trkpt lat="46.89594" lon="8.55726">
        <ele>1067</ele>
        <time>2021-08-10T13:50:01.082Z</time>
      </trkpt>
      <trkpt lat="46.89593" lon="8.55726">
        <ele>1067</ele>
        <time>2021-08-10T13:50:02.082Z</time>
      </trkpt>
      <trkpt lat="46.89592" lon="8.55727">
        <ele>1067</ele>
        <time>2021-08-10T13:50:03.082Z</time>
      </trkpt>
      <trkpt lat="46.89591" lon="8.55727">
        <ele>1067</ele>
        <time>2021-08-10T13:50:04.082Z</time>
      </trkpt>
      <trkpt lat="46.89589" lon="8.55727">
        <ele>1067</ele>
        <time>2021-08-10T13:50:05.082Z</time>
      </trkpt>
      <trkpt lat="46.89588" lon="8.55726">
        <ele>1067</ele>
        <time>2021-08-10T13:50:06.082Z</time>
      </trkpt>
      <trkpt lat="46.89587" lon="8.55726">
        <ele>1067</ele>
        <time>2021-08-10T13:50:07.082Z</time>
      </trkpt>
      <trkpt lat="46.89586" lon="8.55726">
        <ele>1066</ele>
        <time>2021-08-10T13:50:08.082Z</time>
      </trkpt>
      <trkpt lat="46.89585" lon="8.55726">
        <ele>1066</ele>
        <time>2021-08-10T13:50:09.082Z</time>
      </trkpt>
      <trkpt lat="46.89585" lon="8.55727">
        <ele>1066</ele>
        <time>2021-08-10T13:50:10.082Z</time>
      </trkpt>
      <trkpt lat="46.89584" lon="8.55728">
        <ele>1066</ele>
        <time>2021-08-10T13:50:11.081Z</time>
      </trkpt>
      <trkpt lat="46.89583" lon="8.55729">
        <ele>1066</ele>
        <time>2021-08-10T13:50:12.082Z</time>
      </trkpt>
      <trkpt lat="46.89582" lon="8.55729">
        <ele>1066</ele>
        <time>2021-08-10T13:50:13.082Z</time>
      </trkpt>
      <trkpt lat="46.89581" lon="8.5573">
        <ele>1066</ele>
        <time>2021-08-10T13:50:14.082Z</time>
      </trkpt>
      <trkpt lat="46.89581" lon="8.5573">
        <ele>1067</ele>
        <time>2021-08-10T13:50:15.082Z</time>
      </trkpt>
      <trkpt lat="46.89581" lon="8.5573">
        <ele>1067</ele>
        <time>2021-08-10T13:50:16.082Z</time>
      </trkpt>
      <trkpt lat="46.89575" lon="8.5573">
        <ele>1068</ele>
        <time>2021-08-10T13:50:17.081Z</time>
      </trkpt>
      <trkpt lat="46.89573" lon="8.55731">
        <ele>1068</ele>
        <time>2021-08-10T13:50:18.082Z</time>
      </trkpt>
      <trkpt lat="46.89571" lon="8.55732">
        <ele>1069</ele>
        <time>2021-08-10T13:50:19.081Z</time>
      </trkpt>
      <trkpt lat="46.8957" lon="8.55733">
        <ele>1069</ele>
        <time>2021-08-10T13:50:20.082Z</time>
      </trkpt>
      <trkpt lat="46.89569" lon="8.55733">
        <ele>1069</ele>
        <time>2021-08-10T13:50:21.081Z</time>
      </trkpt>
      <trkpt lat="46.89568" lon="8.55733">
        <ele>1069</ele>
        <time>2021-08-10T13:50:22.082Z</time>
      </trkpt>
      <trkpt lat="46.89567" lon="8.55734">
        <ele>1070</ele>
        <time>2021-08-10T13:50:23.082Z</time>
      </trkpt>
      <trkpt lat="46.89565" lon="8.55734">
        <ele>1070</ele>
        <time>2021-08-10T13:50:24.082Z</time>
      </trkpt>
      <trkpt lat="46.89561" lon="8.55733">
        <ele>1070</ele>
        <time>2021-08-10T13:50:25.081Z</time>
      </trkpt>
      <trkpt lat="46.89559" lon="8.55733">
        <ele>1070</ele>
        <time>2021-08-10T13:50:26.082Z</time>
      </trkpt>
      <trkpt lat="46.89559" lon="8.55733">
        <ele>1070</ele>
        <time>2021-08-10T13:50:27.081Z</time>
      </trkpt>
      <trkpt lat="46.89559" lon="8.55733">
        <ele>1070</ele>
        <time>2021-08-10T13:50:28.082Z</time>
      </trkpt>
      <trkpt lat="46.8956" lon="8.55734">
        <ele>1071</ele>
        <time>2021-08-10T13:50:29.082Z</time>
      </trkpt>
      <trkpt lat="46.8956" lon="8.55735">
        <ele>1071</ele>
        <time>2021-08-10T13:50:30.081Z</time>
      </trkpt>
      <trkpt lat="46.8956" lon="8.55735">
        <ele>1071</ele>
        <time>2021-08-10T13:50:31.082Z</time>
      </trkpt>
      <trkpt lat="46.89559" lon="8.55735">
        <ele>1071</ele>
        <time>2021-08-10T13:50:32.082Z</time>
      </trkpt>
      <trkpt lat="46.89558" lon="8.55736">
        <ele>1071</ele>
        <time>2021-08-10T13:50:33.082Z</time>
      </trkpt>
      <trkpt lat="46.89557" lon="8.55737">
        <ele>1071</ele>
        <time>2021-08-10T13:50:34.081Z</time>
      </trkpt>
      <trkpt lat="46.89557" lon="8.55739">
        <ele>1071</ele>
        <time>2021-08-10T13:50:35.081Z</time>
      </trkpt>
      <trkpt lat="46.89556" lon="8.5574">
        <ele>1071</ele>
        <time>2021-08-10T13:50:36.081Z</time>
      </trkpt>
      <trkpt lat="46.89555" lon="8.55741">
        <ele>1071</ele>
        <time>2021-08-10T13:50:37.082Z</time>
      </trkpt>
      <trkpt lat="46.89553" lon="8.55742">
        <ele>1071</ele>
        <time>2021-08-10T13:50:38.082Z</time>
      </trkpt>
      <trkpt lat="46.89551" lon="8.55744">
        <ele>1071</ele>
        <time>2021-08-10T13:50:39.082Z</time>
      </trkpt>
      <trkpt lat="46.8955" lon="8.55744">
        <ele>1071</ele>
        <time>2021-08-10T13:50:40.082Z</time>
      </trkpt>
      <trkpt lat="46.89549" lon="8.55745">
        <ele>1071</ele>
        <time>2021-08-10T13:50:41.081Z</time>
      </trkpt>
      <trkpt lat="46.89549" lon="8.55746">
        <ele>1071</ele>
        <time>2021-08-10T13:50:42.082Z</time>
      </trkpt>
      <trkpt lat="46.89549" lon="8.55747">
        <ele>1071</ele>
        <time>2021-08-10T13:50:43.081Z</time>
      </trkpt>
      <trkpt lat="46.89548" lon="8.55748">
        <ele>1072</ele>
        <time>2021-08-10T13:50:44.081Z</time>
      </trkpt>
      <trkpt lat="46.89547" lon="8.55748">
        <ele>1072</ele>
        <time>2021-08-10T13:50:45.082Z</time>
      </trkpt>
      <trkpt lat="46.89547" lon="8.55749">
        <ele>1072</ele>
        <time>2021-08-10T13:50:46.081Z</time>
      </trkpt>
      <trkpt lat="46.89546" lon="8.5575">
        <ele>1073</ele>
        <time>2021-08-10T13:50:47.081Z</time>
      </trkpt>
      <trkpt lat="46.89545" lon="8.55751">
        <ele>1073</ele>
        <time>2021-08-10T13:50:48.082Z</time>
      </trkpt>
      <trkpt lat="46.89545" lon="8.55752">
        <ele>1073</ele>
        <time>2021-08-10T13:50:49.081Z</time>
      </trkpt>
      <trkpt lat="46.89544" lon="8.55752">
        <ele>1074</ele>
        <time>2021-08-10T13:50:50.082Z</time>
      </trkpt>
      <trkpt lat="46.89543" lon="8.55752">
        <ele>1075</ele>
        <time>2021-08-10T13:50:51.081Z</time>
      </trkpt>
      <trkpt lat="46.89542" lon="8.55753">
        <ele>1075</ele>
        <time>2021-08-10T13:50:52.081Z</time>
      </trkpt>
      <trkpt lat="46.89542" lon="8.55755">
        <ele>1076</ele>
        <time>2021-08-10T13:50:53.082Z</time>
      </trkpt>
      <trkpt lat="46.89541" lon="8.55755">
        <ele>1077</ele>
        <time>2021-08-10T13:50:54.081Z</time>
      </trkpt>
      <trkpt lat="46.89541" lon="8.55756">
        <ele>1078</ele>
        <time>2021-08-10T13:50:55.082Z</time>
      </trkpt>
      <trkpt lat="46.8954" lon="8.55757">
        <ele>1078</ele>
        <time>2021-08-10T13:50:56.082Z</time>
      </trkpt>
      <trkpt lat="46.89539" lon="8.55757">
        <ele>1078</ele>
        <time>2021-08-10T13:50:57.081Z</time>
      </trkpt>
      <trkpt lat="46.89538" lon="8.55757">
        <ele>1079</ele>
        <time>2021-08-10T13:50:58.082Z</time>
      </trkpt>
      <trkpt lat="46.89536" lon="8.55758">
        <ele>1079</ele>
        <time>2021-08-10T13:50:59.082Z</time>
      </trkpt>
      <trkpt lat="46.89535" lon="8.55759">
        <ele>1080</ele>
        <time>2021-08-10T13:51:00.081Z</time>
      </trkpt>
      <trkpt lat="46.89534" lon="8.5576">
        <ele>1080</ele>
        <time>2021-08-10T13:51:01.082Z</time>
      </trkpt>
      <trkpt lat="46.89532" lon="8.55761">
        <ele>1080</ele>
        <time>2021-08-10T13:51:02.082Z</time>
      </trkpt>
      <trkpt lat="46.89531" lon="8.55761">
        <ele>1080</ele>
        <time>2021-08-10T13:51:03.081Z</time>
      </trkpt>
      <trkpt lat="46.8953" lon="8.55762">
        <ele>1080</ele>
        <time>2021-08-10T13:51:04.081Z</time>
      </trkpt>
      <trkpt lat="46.89529" lon="8.55762">
        <ele>1080</ele>
        <time>2021-08-10T13:51:05.082Z</time>
      </trkpt>
      <trkpt lat="46.89528" lon="8.55762">
        <ele>1080</ele>
        <time>2021-08-10T13:51:06.082Z</time>
      </trkpt>
      <trkpt lat="46.89527" lon="8.55762">
        <ele>1081</ele>
        <time>2021-08-10T13:51:07.082Z</time>
      </trkpt>
      <trkpt lat="46.89526" lon="8.55763">
        <ele>1081</ele>
        <time>2021-08-10T13:51:08.081Z</time>
      </trkpt>
      <trkpt lat="46.89526" lon="8.55764">
        <ele>1081</ele>
        <time>2021-08-10T13:51:09.082Z</time>
      </trkpt>
      <trkpt lat="46.89525" lon="8.55765">
        <ele>1082</ele>
        <time>2021-08-10T13:51:10.081Z</time>
      </trkpt>
      <trkpt lat="46.89523" lon="8.55767">
        <ele>1082</ele>
        <time>2021-08-10T13:51:11.082Z</time>
      </trkpt>
      <trkpt lat="46.89523" lon="8.55767">
        <ele>1083</ele>
        <time>2021-08-10T13:51:12.082Z</time>
      </trkpt>
      <trkpt lat="46.89522" lon="8.55767">
        <ele>1083</ele>
        <time>2021-08-10T13:51:13.082Z</time>
      </trkpt>
      <trkpt lat="46.8952" lon="8.55768">
        <ele>1083</ele>
        <time>2021-08-10T13:51:14.082Z</time>
      </trkpt>
      <trkpt lat="46.89518" lon="8.55769">
        <ele>1083</ele>
        <time>2021-08-10T13:51:15.082Z</time>
      </trkpt>
      <trkpt lat="46.89516" lon="8.5577">
        <ele>1083</ele>
        <time>2021-08-10T13:51:16.081Z</time>
      </trkpt>
      <trkpt lat="46.89515" lon="8.5577">
        <ele>1083</ele>
        <time>2021-08-10T13:51:17.082Z</time>
      </trkpt>
      <trkpt lat="46.89514" lon="8.55771">
        <ele>1083</ele>
        <time>2021-08-10T13:51:18.082Z</time>
      </trkpt>
      <trkpt lat="46.89512" lon="8.55771">
        <ele>1083</ele>
        <time>2021-08-10T13:51:19.082Z</time>
      </trkpt>
      <trkpt lat="46.8951" lon="8.55772">
        <ele>1083</ele>
        <time>2021-08-10T13:51:20.082Z</time>
      </trkpt>
      <trkpt lat="46.89508" lon="8.55773">
        <ele>1083</ele>
        <time>2021-08-10T13:51:21.082Z</time>
      </trkpt>
      <trkpt lat="46.89508" lon="8.55774">
        <ele>1084</ele>
        <time>2021-08-10T13:51:22.082Z</time>
      </trkpt>
      <trkpt lat="46.89508" lon="8.55774">
        <ele>1084</ele>
        <time>2021-08-10T13:51:23.082Z</time>
      </trkpt>
      <trkpt lat="46.89508" lon="8.55774">
        <ele>1084</ele>
        <time>2021-08-10T13:51:24.082Z</time>
      </trkpt>
      <trkpt lat="46.89507" lon="8.55774">
        <ele>1084</ele>
        <time>2021-08-10T13:51:25.082Z</time>
      </trkpt>
      <trkpt lat="46.89507" lon="8.55775">
        <ele>1084</ele>
        <time>2021-08-10T13:51:26.082Z</time>
      </trkpt>
      <trkpt lat="46.89506" lon="8.55775">
        <ele>1084</ele>
        <time>2021-08-10T13:51:27.082Z</time>
      </trkpt>
      <trkpt lat="46.89506" lon="8.55776">
        <ele>1083</ele>
        <time>2021-08-10T13:51:28.082Z</time>
      </trkpt>
      <trkpt lat="46.89505" lon="8.55776">
        <ele>1083</ele>
        <time>2021-08-10T13:51:29.082Z</time>
      </trkpt>
      <trkpt lat="46.89504" lon="8.55777">
        <ele>1083</ele>
        <time>2021-08-10T13:51:30.082Z</time>
      </trkpt>
      <trkpt lat="46.89504" lon="8.55777">
        <ele>1083</ele>
        <time>2021-08-10T13:51:31.082Z</time>
      </trkpt>
      <trkpt lat="46.89503" lon="8.55777">
        <ele>1084</ele>
        <time>2021-08-10T13:51:32.081Z</time>
      </trkpt>
      <trkpt lat="46.89502" lon="8.55776">
        <ele>1084</ele>
        <time>2021-08-10T13:51:33.081Z</time>
      </trkpt>
      <trkpt lat="46.89501" lon="8.55776">
        <ele>1085</ele>
        <time>2021-08-10T13:51:34.082Z</time>
      </trkpt>
      <trkpt lat="46.895" lon="8.55776">
        <ele>1085</ele>
        <time>2021-08-10T13:51:35.082Z</time>
      </trkpt>
      <trkpt lat="46.895" lon="8.55776">
        <ele>1086</ele>
        <time>2021-08-10T13:51:36.082Z</time>
      </trkpt>
      <trkpt lat="46.89499" lon="8.55776">
        <ele>1086</ele>
        <time>2021-08-10T13:51:37.082Z</time>
      </trkpt>
      <trkpt lat="46.89498" lon="8.55775">
        <ele>1086</ele>
        <time>2021-08-10T13:51:38.082Z</time>
      </trkpt>
      <trkpt lat="46.89497" lon="8.55775">
        <ele>1087</ele>
        <time>2021-08-10T13:51:39.082Z</time>
      </trkpt>
      <trkpt lat="46.89496" lon="8.55774">
        <ele>1088</ele>
        <time>2021-08-10T13:51:40.082Z</time>
      </trkpt>
      <trkpt lat="46.89496" lon="8.55774">
        <ele>1088</ele>
        <time>2021-08-10T13:51:41.081Z</time>
      </trkpt>
      <trkpt lat="46.89495" lon="8.55773">
        <ele>1089</ele>
        <time>2021-08-10T13:51:42.081Z</time>
      </trkpt>
      <trkpt lat="46.89494" lon="8.55772">
        <ele>1090</ele>
        <time>2021-08-10T13:51:43.082Z</time>
      </trkpt>
      <trkpt lat="46.89494" lon="8.55771">
        <ele>1090</ele>
        <time>2021-08-10T13:51:44.082Z</time>
      </trkpt>
      <trkpt lat="46.89492" lon="8.5577">
        <ele>1091</ele>
        <time>2021-08-10T13:51:45.082Z</time>
      </trkpt>
      <trkpt lat="46.89491" lon="8.5577">
        <ele>1091</ele>
        <time>2021-08-10T13:51:46.082Z</time>
      </trkpt>
      <trkpt lat="46.8949" lon="8.55769">
        <ele>1092</ele>
        <time>2021-08-10T13:51:47.081Z</time>
      </trkpt>
      <trkpt lat="46.89489" lon="8.55768">
        <ele>1093</ele>
        <time>2021-08-10T13:51:48.082Z</time>
      </trkpt>
      <trkpt lat="46.89488" lon="8.55767">
        <ele>1093</ele>
        <time>2021-08-10T13:51:49.082Z</time>
      </trkpt>
      <trkpt lat="46.89486" lon="8.55767">
        <ele>1094</ele>
        <time>2021-08-10T13:51:50.082Z</time>
      </trkpt>
      <trkpt lat="46.89485" lon="8.55767">
        <ele>1094</ele>
        <time>2021-08-10T13:51:51.082Z</time>
      </trkpt>
      <trkpt lat="46.89484" lon="8.55767">
        <ele>1095</ele>
        <time>2021-08-10T13:51:52.082Z</time>
      </trkpt>
      <trkpt lat="46.89483" lon="8.55767">
        <ele>1095</ele>
        <time>2021-08-10T13:51:53.082Z</time>
      </trkpt>
      <trkpt lat="46.89482" lon="8.55767">
        <ele>1096</ele>
        <time>2021-08-10T13:51:57.247Z</time>
      </trkpt>
      <trkpt lat="46.89481" lon="8.55766">
        <ele>1096</ele>
        <time>2021-08-10T13:51:58.247Z</time>
      </trkpt>
      <trkpt lat="46.8948" lon="8.55766">
        <ele>1096</ele>
        <time>2021-08-10T13:51:59.246Z</time>
      </trkpt>
      <trkpt lat="46.89479" lon="8.55766">
        <ele>1097</ele>
        <time>2021-08-10T13:52:00.247Z</time>
      </trkpt>
      <trkpt lat="46.89478" lon="8.55766">
        <ele>1097</ele>
        <time>2021-08-10T13:52:01.246Z</time>
      </trkpt>
      <trkpt lat="46.89477" lon="8.55766">
        <ele>1097</ele>
        <time>2021-08-10T13:52:02.246Z</time>
      </trkpt>
      <trkpt lat="46.89475" lon="8.55765">
        <ele>1098</ele>
        <time>2021-08-10T13:52:03.246Z</time>
      </trkpt>
      <trkpt lat="46.89474" lon="8.55765">
        <ele>1098</ele>
        <time>2021-08-10T13:52:04.246Z</time>
      </trkpt>
      <trkpt lat="46.89473" lon="8.55765">
        <ele>1098</ele>
        <time>2021-08-10T13:52:05.246Z</time>
      </trkpt>
      <trkpt lat="46.89472" lon="8.55765">
        <ele>1098</ele>
        <time>2021-08-10T13:52:06.247Z</time>
      </trkpt>
      <trkpt lat="46.89471" lon="8.55765">
        <ele>1098</ele>
        <time>2021-08-10T13:52:07.247Z</time>
      </trkpt>
      <trkpt lat="46.8947" lon="8.55765">
        <ele>1098</ele>
        <time>2021-08-10T13:52:08.246Z</time>
      </trkpt>
      <trkpt lat="46.89469" lon="8.55766">
        <ele>1097</ele>
        <time>2021-08-10T13:52:09.246Z</time>
      </trkpt>
      <trkpt lat="46.89468" lon="8.55766">
        <ele>1097</ele>
        <time>2021-08-10T13:52:10.247Z</time>
      </trkpt>
      <trkpt lat="46.89467" lon="8.55767">
        <ele>1097</ele>
        <time>2021-08-10T13:52:11.247Z</time>
      </trkpt>
      <trkpt lat="46.89466" lon="8.55767">
        <ele>1096</ele>
        <time>2021-08-10T13:52:12.247Z</time>
      </trkpt>
      <trkpt lat="46.89465" lon="8.55767">
        <ele>1096</ele>
        <time>2021-08-10T13:52:13.247Z</time>
      </trkpt>
      <trkpt lat="46.89464" lon="8.55768">
        <ele>1096</ele>
        <time>2021-08-10T13:52:14.247Z</time>
      </trkpt>
      <trkpt lat="46.89463" lon="8.55768">
        <ele>1096</ele>
        <time>2021-08-10T13:52:15.246Z</time>
      </trkpt>
      <trkpt lat="46.89461" lon="8.55767">
        <ele>1096</ele>
        <time>2021-08-10T13:52:16.246Z</time>
      </trkpt>
      <trkpt lat="46.8946" lon="8.55768">
        <ele>1096</ele>
        <time>2021-08-10T13:52:17.247Z</time>
      </trkpt>
      <trkpt lat="46.89459" lon="8.55768">
        <ele>1096</ele>
        <time>2021-08-10T13:52:18.247Z</time>
      </trkpt>
      <trkpt lat="46.89458" lon="8.55768">
        <ele>1096</ele>
        <time>2021-08-10T13:52:19.247Z</time>
      </trkpt>
      <trkpt lat="46.89457" lon="8.55768">
        <ele>1096</ele>
        <time>2021-08-10T13:52:20.247Z</time>
      </trkpt>
      <trkpt lat="46.89456" lon="8.55767">
        <ele>1096</ele>
        <time>2021-08-10T13:52:21.246Z</time>
      </trkpt>
      <trkpt lat="46.89455" lon="8.55767">
        <ele>1096</ele>
        <time>2021-08-10T13:52:22.246Z</time>
      </trkpt>
      <trkpt lat="46.89454" lon="8.55766">
        <ele>1096</ele>
        <time>2021-08-10T13:52:23.247Z</time>
      </trkpt>
      <trkpt lat="46.89452" lon="8.55766">
        <ele>1097</ele>
        <time>2021-08-10T13:52:24.247Z</time>
      </trkpt>
      <trkpt lat="46.89451" lon="8.55766">
        <ele>1097</ele>
        <time>2021-08-10T13:52:25.247Z</time>
      </trkpt>
      <trkpt lat="46.89449" lon="8.55766">
        <ele>1097</ele>
        <time>2021-08-10T13:52:26.246Z</time>
      </trkpt>
      <trkpt lat="46.89448" lon="8.55766">
        <ele>1097</ele>
        <time>2021-08-10T13:52:27.247Z</time>
      </trkpt>
      <trkpt lat="46.89448" lon="8.55766">
        <ele>1097</ele>
        <time>2021-08-10T13:52:28.246Z</time>
      </trkpt>
      <trkpt lat="46.89447" lon="8.55766">
        <ele>1097</ele>
        <time>2021-08-10T13:52:29.246Z</time>
      </trkpt>
      <trkpt lat="46.89446" lon="8.55766">
        <ele>1097</ele>
        <time>2021-08-10T13:52:30.246Z</time>
      </trkpt>
      <trkpt lat="46.89445" lon="8.55766">
        <ele>1097</ele>
        <time>2021-08-10T13:52:31.247Z</time>
      </trkpt>
      <trkpt lat="46.89444" lon="8.55766">
        <ele>1097</ele>
        <time>2021-08-10T13:52:32.247Z</time>
      </trkpt>
      <trkpt lat="46.89443" lon="8.55766">
        <ele>1096</ele>
        <time>2021-08-10T13:52:34.348Z</time>
      </trkpt>
      <trkpt lat="46.89442" lon="8.55765">
        <ele>1096</ele>
        <time>2021-08-10T13:52:35.348Z</time>
      </trkpt>
      <trkpt lat="46.8944" lon="8.55763">
        <ele>1097</ele>
        <time>2021-08-10T13:52:36.348Z</time>
      </trkpt>
      <trkpt lat="46.89438" lon="8.55762">
        <ele>1097</ele>
        <time>2021-08-10T13:52:37.347Z</time>
      </trkpt>
      <trkpt lat="46.89437" lon="8.55762">
        <ele>1097</ele>
        <time>2021-08-10T13:52:38.348Z</time>
      </trkpt>
      <trkpt lat="46.89436" lon="8.55761">
        <ele>1097</ele>
        <time>2021-08-10T13:52:39.348Z</time>
      </trkpt>
      <trkpt lat="46.89434" lon="8.55759">
        <ele>1097</ele>
        <time>2021-08-10T13:52:40.347Z</time>
      </trkpt>
      <trkpt lat="46.89433" lon="8.55758">
        <ele>1097</ele>
        <time>2021-08-10T13:52:41.348Z</time>
      </trkpt>
      <trkpt lat="46.89431" lon="8.55758">
        <ele>1096</ele>
        <time>2021-08-10T13:52:42.348Z</time>
      </trkpt>
      <trkpt lat="46.8943" lon="8.55757">
        <ele>1096</ele>
        <time>2021-08-10T13:52:43.348Z</time>
      </trkpt>
      <trkpt lat="46.89429" lon="8.55756">
        <ele>1095</ele>
        <time>2021-08-10T13:52:44.347Z</time>
      </trkpt>
      <trkpt lat="46.89428" lon="8.55755">
        <ele>1095</ele>
        <time>2021-08-10T13:52:45.348Z</time>
      </trkpt>
      <trkpt lat="46.89426" lon="8.55754">
        <ele>1095</ele>
        <time>2021-08-10T13:52:46.348Z</time>
      </trkpt>
      <trkpt lat="46.89425" lon="8.55753">
        <ele>1095</ele>
        <time>2021-08-10T13:52:47.347Z</time>
      </trkpt>
      <trkpt lat="46.89424" lon="8.55754">
        <ele>1095</ele>
        <time>2021-08-10T13:52:49.366Z</time>
      </trkpt>
      <trkpt lat="46.89423" lon="8.55753">
        <ele>1095</ele>
        <time>2021-08-10T13:52:50.365Z</time>
      </trkpt>
      <trkpt lat="46.89422" lon="8.55753">
        <ele>1095</ele>
        <time>2021-08-10T13:52:51.366Z</time>
      </trkpt>
      <trkpt lat="46.89421" lon="8.55753">
        <ele>1095</ele>
        <time>2021-08-10T13:52:52.365Z</time>
      </trkpt>
      <trkpt lat="46.8942" lon="8.55753">
        <ele>1095</ele>
        <time>2021-08-10T13:52:53.366Z</time>
      </trkpt>
      <trkpt lat="46.89418" lon="8.55752">
        <ele>1096</ele>
        <time>2021-08-10T13:52:54.366Z</time>
      </trkpt>
      <trkpt lat="46.89418" lon="8.55751">
        <ele>1096</ele>
        <time>2021-08-10T13:52:55.366Z</time>
      </trkpt>
      <trkpt lat="46.89416" lon="8.5575">
        <ele>1096</ele>
        <time>2021-08-10T13:52:59.479Z</time>
      </trkpt>
      <trkpt lat="46.89415" lon="8.55749">
        <ele>1097</ele>
        <time>2021-08-10T13:53:00.478Z</time>
      </trkpt>
      <trkpt lat="46.89413" lon="8.55749">
        <ele>1097</ele>
        <time>2021-08-10T13:53:01.479Z</time>
      </trkpt>
      <trkpt lat="46.89411" lon="8.55748">
        <ele>1097</ele>
        <time>2021-08-10T13:53:02.479Z</time>
      </trkpt>
      <trkpt lat="46.8941" lon="8.55746">
        <ele>1097</ele>
        <time>2021-08-10T13:53:03.479Z</time>
      </trkpt>
      <trkpt lat="46.89408" lon="8.55745">
        <ele>1097</ele>
        <time>2021-08-10T13:53:04.479Z</time>
      </trkpt>
      <trkpt lat="46.89407" lon="8.55744">
        <ele>1097</ele>
        <time>2021-08-10T13:53:05.479Z</time>
      </trkpt>
      <trkpt lat="46.89406" lon="8.55744">
        <ele>1097</ele>
        <time>2021-08-10T13:53:06.479Z</time>
      </trkpt>
      <trkpt lat="46.89404" lon="8.55742">
        <ele>1097</ele>
        <time>2021-08-10T13:53:07.479Z</time>
      </trkpt>
      <trkpt lat="46.89403" lon="8.55741">
        <ele>1097</ele>
        <time>2021-08-10T13:53:08.478Z</time>
      </trkpt>
      <trkpt lat="46.89401" lon="8.55742">
        <ele>1097</ele>
        <time>2021-08-10T13:53:09.479Z</time>
      </trkpt>
      <trkpt lat="46.89401" lon="8.55745">
        <ele>1097</ele>
        <time>2021-08-10T13:53:10.479Z</time>
      </trkpt>
      <trkpt lat="46.894" lon="8.55745">
        <ele>1097</ele>
        <time>2021-08-10T13:53:11.479Z</time>
      </trkpt>
      <trkpt lat="46.89399" lon="8.55747">
        <ele>1097</ele>
        <time>2021-08-10T13:53:12.478Z</time>
      </trkpt>
      <trkpt lat="46.89399" lon="8.55747">
        <ele>1096</ele>
        <time>2021-08-10T13:53:13.479Z</time>
      </trkpt>
      <trkpt lat="46.89398" lon="8.55748">
        <ele>1096</ele>
        <time>2021-08-10T13:53:14.479Z</time>
      </trkpt>
      <trkpt lat="46.89397" lon="8.55748">
        <ele>1095</ele>
        <time>2021-08-10T13:53:15.479Z</time>
      </trkpt>
      <trkpt lat="46.89396" lon="8.55748">
        <ele>1095</ele>
        <time>2021-08-10T13:53:16.479Z</time>
      </trkpt>
      <trkpt lat="46.89395" lon="8.55748">
        <ele>1095</ele>
        <time>2021-08-10T13:53:17.479Z</time>
      </trkpt>
      <trkpt lat="46.89394" lon="8.55748">
        <ele>1095</ele>
        <time>2021-08-10T13:53:18.479Z</time>
      </trkpt>
      <trkpt lat="46.89393" lon="8.55748">
        <ele>1095</ele>
        <time>2021-08-10T13:53:19.478Z</time>
      </trkpt>
      <trkpt lat="46.89392" lon="8.55749">
        <ele>1095</ele>
        <time>2021-08-10T13:53:20.479Z</time>
      </trkpt>
      <trkpt lat="46.89392" lon="8.5575">
        <ele>1094</ele>
        <time>2021-08-10T13:53:21.479Z</time>
      </trkpt>
      <trkpt lat="46.89391" lon="8.5575">
        <ele>1094</ele>
        <time>2021-08-10T13:53:22.478Z</time>
      </trkpt>
      <trkpt lat="46.89391" lon="8.5575">
        <ele>1093</ele>
        <time>2021-08-10T13:53:23.479Z</time>
      </trkpt>
      <trkpt lat="46.8939" lon="8.5575">
        <ele>1093</ele>
        <time>2021-08-10T13:53:28.466Z</time>
      </trkpt>
      <trkpt lat="46.8939" lon="8.5575">
        <ele>1092</ele>
        <time>2021-08-10T13:53:29.467Z</time>
      </trkpt>
      <trkpt lat="46.89389" lon="8.5575">
        <ele>1092</ele>
        <time>2021-08-10T13:53:30.467Z</time>
      </trkpt>
      <trkpt lat="46.89389" lon="8.55751">
        <ele>1091</ele>
        <time>2021-08-10T13:53:31.467Z</time>
      </trkpt>
      <trkpt lat="46.89389" lon="8.55752">
        <ele>1091</ele>
        <time>2021-08-10T13:53:32.467Z</time>
      </trkpt>
      <trkpt lat="46.89388" lon="8.55753">
        <ele>1090</ele>
        <time>2021-08-10T13:53:33.466Z</time>
      </trkpt>
      <trkpt lat="46.89387" lon="8.55753">
        <ele>1089</ele>
        <time>2021-08-10T13:53:34.467Z</time>
      </trkpt>
      <trkpt lat="46.89386" lon="8.55754">
        <ele>1089</ele>
        <time>2021-08-10T13:53:35.466Z</time>
      </trkpt>
      <trkpt lat="46.89385" lon="8.55753">
        <ele>1088</ele>
        <time>2021-08-10T13:53:36.467Z</time>
      </trkpt>
      <trkpt lat="46.89384" lon="8.55752">
        <ele>1087</ele>
        <time>2021-08-10T13:53:37.466Z</time>
      </trkpt>
      <trkpt lat="46.89383" lon="8.55752">
        <ele>1087</ele>
        <time>2021-08-10T13:53:38.467Z</time>
      </trkpt>
      <trkpt lat="46.89381" lon="8.55752">
        <ele>1087</ele>
        <time>2021-08-10T13:53:39.466Z</time>
      </trkpt>
      <trkpt lat="46.89379" lon="8.55751">
        <ele>1087</ele>
        <time>2021-08-10T13:53:40.467Z</time>
      </trkpt>
      <trkpt lat="46.89378" lon="8.5575">
        <ele>1087</ele>
        <time>2021-08-10T13:53:41.467Z</time>
      </trkpt>
      <trkpt lat="46.89377" lon="8.5575">
        <ele>1087</ele>
        <time>2021-08-10T13:53:42.467Z</time>
      </trkpt>
      <trkpt lat="46.89377" lon="8.55751">
        <ele>1086</ele>
        <time>2021-08-10T13:53:43.467Z</time>
      </trkpt>
      <trkpt lat="46.89376" lon="8.55751">
        <ele>1086</ele>
        <time>2021-08-10T13:53:44.466Z</time>
      </trkpt>
      <trkpt lat="46.89375" lon="8.55752">
        <ele>1085</ele>
        <time>2021-08-10T13:53:45.466Z</time>
      </trkpt>
      <trkpt lat="46.89374" lon="8.55752">
        <ele>1086</ele>
        <time>2021-08-10T13:53:46.466Z</time>
      </trkpt>
      <trkpt lat="46.89373" lon="8.55752">
        <ele>1086</ele>
        <time>2021-08-10T13:53:47.467Z</time>
      </trkpt>
      <trkpt lat="46.89372" lon="8.55753">
        <ele>1086</ele>
        <time>2021-08-10T13:53:48.467Z</time>
      </trkpt>
      <trkpt lat="46.89371" lon="8.55753">
        <ele>1087</ele>
        <time>2021-08-10T13:53:49.467Z</time>
      </trkpt>
      <trkpt lat="46.89371" lon="8.55753">
        <ele>1087</ele>
        <time>2021-08-10T13:53:50.467Z</time>
      </trkpt>
      <trkpt lat="46.8937" lon="8.55753">
        <ele>1088</ele>
        <time>2021-08-10T13:53:51.466Z</time>
      </trkpt>
      <trkpt lat="46.89369" lon="8.55753">
        <ele>1088</ele>
        <time>2021-08-10T13:53:52.466Z</time>
      </trkpt>
      <trkpt lat="46.89368" lon="8.55752">
        <ele>1088</ele>
        <time>2021-08-10T13:53:53.467Z</time>
      </trkpt>
      <trkpt lat="46.89367" lon="8.55751">
        <ele>1089</ele>
        <time>2021-08-10T13:53:54.467Z</time>
      </trkpt>
      <trkpt lat="46.89365" lon="8.55751">
        <ele>1089</ele>
        <time>2021-08-10T13:53:55.467Z</time>
      </trkpt>
      <trkpt lat="46.89364" lon="8.55751">
        <ele>1089</ele>
        <time>2021-08-10T13:53:56.467Z</time>
      </trkpt>
      <trkpt lat="46.89364" lon="8.55751">
        <ele>1089</ele>
        <time>2021-08-10T13:53:57.467Z</time>
      </trkpt>
      <trkpt lat="46.89363" lon="8.55751">
        <ele>1089</ele>
        <time>2021-08-10T13:53:58.467Z</time>
      </trkpt>
      <trkpt lat="46.89362" lon="8.5575">
        <ele>1089</ele>
        <time>2021-08-10T13:53:59.467Z</time>
      </trkpt>
      <trkpt lat="46.89361" lon="8.5575">
        <ele>1089</ele>
        <time>2021-08-10T13:54:00.467Z</time>
      </trkpt>
      <trkpt lat="46.8936" lon="8.5575">
        <ele>1090</ele>
        <time>2021-08-10T13:54:01.467Z</time>
      </trkpt>
      <trkpt lat="46.89358" lon="8.55749">
        <ele>1090</ele>
        <time>2021-08-10T13:54:02.467Z</time>
      </trkpt>
      <trkpt lat="46.89357" lon="8.55749">
        <ele>1091</ele>
        <time>2021-08-10T13:54:03.467Z</time>
      </trkpt>
      <trkpt lat="46.89357" lon="8.55748">
        <ele>1092</ele>
        <time>2021-08-10T13:54:04.467Z</time>
      </trkpt>
      <trkpt lat="46.89356" lon="8.55748">
        <ele>1092</ele>
        <time>2021-08-10T13:54:05.466Z</time>
      </trkpt>
      <trkpt lat="46.89355" lon="8.55747">
        <ele>1093</ele>
        <time>2021-08-10T13:54:06.466Z</time>
      </trkpt>
      <trkpt lat="46.89354" lon="8.55746">
        <ele>1093</ele>
        <time>2021-08-10T13:54:07.467Z</time>
      </trkpt>
      <trkpt lat="46.89353" lon="8.55746">
        <ele>1093</ele>
        <time>2021-08-10T13:54:08.467Z</time>
      </trkpt>
      <trkpt lat="46.89352" lon="8.55745">
        <ele>1094</ele>
        <time>2021-08-10T13:54:09.466Z</time>
      </trkpt>
      <trkpt lat="46.89351" lon="8.55745">
        <ele>1094</ele>
        <time>2021-08-10T13:54:10.466Z</time>
      </trkpt>
      <trkpt lat="46.89351" lon="8.55745">
        <ele>1094</ele>
        <time>2021-08-10T13:54:11.466Z</time>
      </trkpt>
      <trkpt lat="46.8935" lon="8.55745">
        <ele>1094</ele>
        <time>2021-08-10T13:54:12.466Z</time>
      </trkpt>
      <trkpt lat="46.89349" lon="8.55744">
        <ele>1094</ele>
        <time>2021-08-10T13:54:13.467Z</time>
      </trkpt>
      <trkpt lat="46.89347" lon="8.55744">
        <ele>1094</ele>
        <time>2021-08-10T13:54:14.466Z</time>
      </trkpt>
      <trkpt lat="46.89346" lon="8.55743">
        <ele>1094</ele>
        <time>2021-08-10T13:54:15.466Z</time>
      </trkpt>
      <trkpt lat="46.89346" lon="8.55743">
        <ele>1094</ele>
        <time>2021-08-10T13:54:16.466Z</time>
      </trkpt>
      <trkpt lat="46.89345" lon="8.55743">
        <ele>1094</ele>
        <time>2021-08-10T13:54:17.466Z</time>
      </trkpt>
      <trkpt lat="46.89344" lon="8.55742">
        <ele>1093</ele>
        <time>2021-08-10T13:54:18.466Z</time>
      </trkpt>
      <trkpt lat="46.89343" lon="8.55742">
        <ele>1093</ele>
        <time>2021-08-10T13:54:19.467Z</time>
      </trkpt>
      <trkpt lat="46.89342" lon="8.55741">
        <ele>1093</ele>
        <time>2021-08-10T13:54:20.467Z</time>
      </trkpt>
      <trkpt lat="46.89341" lon="8.55741">
        <ele>1092</ele>
        <time>2021-08-10T13:54:21.466Z</time>
      </trkpt>
      <trkpt lat="46.8934" lon="8.55741">
        <ele>1092</ele>
        <time>2021-08-10T13:54:22.467Z</time>
      </trkpt>
      <trkpt lat="46.89339" lon="8.5574">
        <ele>1091</ele>
        <time>2021-08-10T13:54:23.466Z</time>
      </trkpt>
      <trkpt lat="46.89338" lon="8.5574">
        <ele>1091</ele>
        <time>2021-08-10T13:54:24.467Z</time>
      </trkpt>
      <trkpt lat="46.89337" lon="8.5574">
        <ele>1091</ele>
        <time>2021-08-10T13:54:25.466Z</time>
      </trkpt>
      <trkpt lat="46.89336" lon="8.55739">
        <ele>1091</ele>
        <time>2021-08-10T13:54:26.466Z</time>
      </trkpt>
      <trkpt lat="46.89335" lon="8.55739">
        <ele>1091</ele>
        <time>2021-08-10T13:54:27.466Z</time>
      </trkpt>
      <trkpt lat="46.89334" lon="8.55738">
        <ele>1091</ele>
        <time>2021-08-10T13:54:28.466Z</time>
      </trkpt>
      <trkpt lat="46.89333" lon="8.55737">
        <ele>1091</ele>
        <time>2021-08-10T13:54:29.466Z</time>
      </trkpt>
      <trkpt lat="46.89331" lon="8.55736">
        <ele>1091</ele>
        <time>2021-08-10T13:54:30.466Z</time>
      </trkpt>
      <trkpt lat="46.8933" lon="8.55736">
        <ele>1091</ele>
        <time>2021-08-10T13:54:31.466Z</time>
      </trkpt>
      <trkpt lat="46.89329" lon="8.55735">
        <ele>1092</ele>
        <time>2021-08-10T13:54:32.466Z</time>
      </trkpt>
      <trkpt lat="46.89329" lon="8.55735">
        <ele>1092</ele>
        <time>2021-08-10T13:54:33.466Z</time>
      </trkpt>
      <trkpt lat="46.89327" lon="8.55735">
        <ele>1093</ele>
        <time>2021-08-10T13:54:34.467Z</time>
      </trkpt>
      <trkpt lat="46.89326" lon="8.55734">
        <ele>1093</ele>
        <time>2021-08-10T13:54:35.466Z</time>
      </trkpt>
      <trkpt lat="46.89325" lon="8.55733">
        <ele>1094</ele>
        <time>2021-08-10T13:54:36.467Z</time>
      </trkpt>
      <trkpt lat="46.89324" lon="8.55733">
        <ele>1094</ele>
        <time>2021-08-10T13:54:37.467Z</time>
      </trkpt>
      <trkpt lat="46.89323" lon="8.55733">
        <ele>1095</ele>
        <time>2021-08-10T13:54:38.466Z</time>
      </trkpt>
      <trkpt lat="46.89323" lon="8.55733">
        <ele>1095</ele>
        <time>2021-08-10T13:54:39.467Z</time>
      </trkpt>
      <trkpt lat="46.89322" lon="8.55733">
        <ele>1095</ele>
        <time>2021-08-10T13:54:40.467Z</time>
      </trkpt>
      <trkpt lat="46.89321" lon="8.55734">
        <ele>1095</ele>
        <time>2021-08-10T13:54:41.467Z</time>
      </trkpt>
      <trkpt lat="46.8932" lon="8.55734">
        <ele>1095</ele>
        <time>2021-08-10T13:54:42.467Z</time>
      </trkpt>
      <trkpt lat="46.89318" lon="8.55734">
        <ele>1094</ele>
        <time>2021-08-10T13:54:43.467Z</time>
      </trkpt>
      <trkpt lat="46.89317" lon="8.55732">
        <ele>1094</ele>
        <time>2021-08-10T13:54:44.466Z</time>
      </trkpt>
      <trkpt lat="46.89315" lon="8.55731">
        <ele>1094</ele>
        <time>2021-08-10T13:54:45.467Z</time>
      </trkpt>
      <trkpt lat="46.89315" lon="8.55731">
        <ele>1094</ele>
        <time>2021-08-10T13:54:46.467Z</time>
      </trkpt>
      <trkpt lat="46.89314" lon="8.55731">
        <ele>1094</ele>
        <time>2021-08-10T13:54:47.467Z</time>
      </trkpt>
      <trkpt lat="46.89314" lon="8.55731">
        <ele>1094</ele>
        <time>2021-08-10T13:54:48.466Z</time>
      </trkpt>
      <trkpt lat="46.89313" lon="8.55731">
        <ele>1095</ele>
        <time>2021-08-10T13:54:49.467Z</time>
      </trkpt>
      <trkpt lat="46.89311" lon="8.5573">
        <ele>1095</ele>
        <time>2021-08-10T13:54:50.467Z</time>
      </trkpt>
      <trkpt lat="46.8931" lon="8.55729">
        <ele>1095</ele>
        <time>2021-08-10T13:54:51.466Z</time>
      </trkpt>
      <trkpt lat="46.89309" lon="8.55729">
        <ele>1096</ele>
        <time>2021-08-10T13:54:52.467Z</time>
      </trkpt>
      <trkpt lat="46.89309" lon="8.55729">
        <ele>1097</ele>
        <time>2021-08-10T13:54:53.467Z</time>
      </trkpt>
      <trkpt lat="46.89307" lon="8.55728">
        <ele>1097</ele>
        <time>2021-08-10T13:54:54.466Z</time>
      </trkpt>
      <trkpt lat="46.89306" lon="8.55728">
        <ele>1098</ele>
        <time>2021-08-10T13:54:55.467Z</time>
      </trkpt>
      <trkpt lat="46.89305" lon="8.55728">
        <ele>1099</ele>
        <time>2021-08-10T13:54:56.467Z</time>
      </trkpt>
      <trkpt lat="46.89304" lon="8.55727">
        <ele>1100</ele>
        <time>2021-08-10T13:54:57.467Z</time>
      </trkpt>
      <trkpt lat="46.89303" lon="8.55726">
        <ele>1101</ele>
        <time>2021-08-10T13:54:58.467Z</time>
      </trkpt>
      <trkpt lat="46.89302" lon="8.55725">
        <ele>1101</ele>
        <time>2021-08-10T13:54:59.466Z</time>
      </trkpt>
      <trkpt lat="46.89301" lon="8.55725">
        <ele>1102</ele>
        <time>2021-08-10T13:55:00.467Z</time>
      </trkpt>
      <trkpt lat="46.893" lon="8.55725">
        <ele>1103</ele>
        <time>2021-08-10T13:55:01.467Z</time>
      </trkpt>
      <trkpt lat="46.89299" lon="8.55724">
        <ele>1103</ele>
        <time>2021-08-10T13:55:02.467Z</time>
      </trkpt>
      <trkpt lat="46.89298" lon="8.55723">
        <ele>1103</ele>
        <time>2021-08-10T13:55:03.466Z</time>
      </trkpt>
      <trkpt lat="46.89297" lon="8.55723">
        <ele>1103</ele>
        <time>2021-08-10T13:55:04.466Z</time>
      </trkpt>
      <trkpt lat="46.89296" lon="8.55723">
        <ele>1103</ele>
        <time>2021-08-10T13:55:05.467Z</time>
      </trkpt>
      <trkpt lat="46.89296" lon="8.55722">
        <ele>1103</ele>
        <time>2021-08-10T13:55:06.467Z</time>
      </trkpt>
      <trkpt lat="46.89295" lon="8.55721">
        <ele>1103</ele>
        <time>2021-08-10T13:55:07.467Z</time>
      </trkpt>
      <trkpt lat="46.89294" lon="8.55721">
        <ele>1102</ele>
        <time>2021-08-10T13:55:08.466Z</time>
      </trkpt>
      <trkpt lat="46.89294" lon="8.5572">
        <ele>1102</ele>
        <time>2021-08-10T13:55:09.467Z</time>
      </trkpt>
      <trkpt lat="46.89293" lon="8.55719">
        <ele>1101</ele>
        <time>2021-08-10T13:55:10.467Z</time>
      </trkpt>
      <trkpt lat="46.89292" lon="8.55719">
        <ele>1101</ele>
        <time>2021-08-10T13:55:11.466Z</time>
      </trkpt>
      <trkpt lat="46.89291" lon="8.55719">
        <ele>1101</ele>
        <time>2021-08-10T13:55:12.467Z</time>
      </trkpt>
      <trkpt lat="46.8929" lon="8.5572">
        <ele>1101</ele>
        <time>2021-08-10T13:55:13.467Z</time>
      </trkpt>
      <trkpt lat="46.8929" lon="8.55719">
        <ele>1101</ele>
        <time>2021-08-10T13:55:14.467Z</time>
      </trkpt>
      <trkpt lat="46.89289" lon="8.5572">
        <ele>1101</ele>
        <time>2021-08-10T13:55:15.467Z</time>
      </trkpt>
      <trkpt lat="46.89289" lon="8.5572">
        <ele>1100</ele>
        <time>2021-08-10T13:55:19.489Z</time>
      </trkpt>
      <trkpt lat="46.89288" lon="8.5572">
        <ele>1100</ele>
        <time>2021-08-10T13:55:20.489Z</time>
      </trkpt>
      <trkpt lat="46.89288" lon="8.55721">
        <ele>1099</ele>
        <time>2021-08-10T13:55:21.488Z</time>
      </trkpt>
      <trkpt lat="46.89287" lon="8.55721">
        <ele>1099</ele>
        <time>2021-08-10T13:55:22.489Z</time>
      </trkpt>
      <trkpt lat="46.89287" lon="8.55721">
        <ele>1098</ele>
        <time>2021-08-10T13:55:23.489Z</time>
      </trkpt>
      <trkpt lat="46.89286" lon="8.5572">
        <ele>1098</ele>
        <time>2021-08-10T13:55:28.426Z</time>
      </trkpt>
      <trkpt lat="46.89286" lon="8.55719">
        <ele>1098</ele>
        <time>2021-08-10T13:55:29.425Z</time>
      </trkpt>
      <trkpt lat="46.89285" lon="8.55719">
        <ele>1099</ele>
        <time>2021-08-10T13:55:30.426Z</time>
      </trkpt>
      <trkpt lat="46.89284" lon="8.55718">
        <ele>1099</ele>
        <time>2021-08-10T13:55:31.425Z</time>
      </trkpt>
      <trkpt lat="46.89283" lon="8.55717">
        <ele>1099</ele>
        <time>2021-08-10T13:55:32.426Z</time>
      </trkpt>
      <trkpt lat="46.89282" lon="8.55717">
        <ele>1099</ele>
        <time>2021-08-10T13:55:33.426Z</time>
      </trkpt>
      <trkpt lat="46.89281" lon="8.55717">
        <ele>1099</ele>
        <time>2021-08-10T13:55:34.425Z</time>
      </trkpt>
      <trkpt lat="46.8928" lon="8.55717">
        <ele>1100</ele>
        <time>2021-08-10T13:55:35.425Z</time>
      </trkpt>
      <trkpt lat="46.89279" lon="8.55716">
        <ele>1100</ele>
        <time>2021-08-10T13:55:36.425Z</time>
      </trkpt>
      <trkpt lat="46.89278" lon="8.55716">
        <ele>1100</ele>
        <time>2021-08-10T13:55:37.426Z</time>
      </trkpt>
      <trkpt lat="46.89277" lon="8.55715">
        <ele>1100</ele>
        <time>2021-08-10T13:55:38.426Z</time>
      </trkpt>
      <trkpt lat="46.89275" lon="8.55713">
        <ele>1100</ele>
        <time>2021-08-10T13:55:39.425Z</time>
      </trkpt>
      <trkpt lat="46.89274" lon="8.55713">
        <ele>1100</ele>
        <time>2021-08-10T13:55:40.426Z</time>
      </trkpt>
      <trkpt lat="46.89273" lon="8.55712">
        <ele>1100</ele>
        <time>2021-08-10T13:55:41.425Z</time>
      </trkpt>
      <trkpt lat="46.89272" lon="8.55711">
        <ele>1100</ele>
        <time>2021-08-10T13:55:42.426Z</time>
      </trkpt>
      <trkpt lat="46.89272" lon="8.55711">
        <ele>1100</ele>
        <time>2021-08-10T13:55:43.426Z</time>
      </trkpt>
      <trkpt lat="46.89271" lon="8.5571">
        <ele>1099</ele>
        <time>2021-08-10T13:55:44.426Z</time>
      </trkpt>
      <trkpt lat="46.8927" lon="8.55709">
        <ele>1099</ele>
        <time>2021-08-10T13:55:45.426Z</time>
      </trkpt>
      <trkpt lat="46.89269" lon="8.55709">
        <ele>1099</ele>
        <time>2021-08-10T13:55:46.425Z</time>
      </trkpt>
      <trkpt lat="46.89268" lon="8.55708">
        <ele>1098</ele>
        <time>2021-08-10T13:55:47.426Z</time>
      </trkpt>
      <trkpt lat="46.89267" lon="8.55707">
        <ele>1098</ele>
        <time>2021-08-10T13:55:48.426Z</time>
      </trkpt>
      <trkpt lat="46.89266" lon="8.55707">
        <ele>1098</ele>
        <time>2021-08-10T13:55:49.426Z</time>
      </trkpt>
      <trkpt lat="46.89265" lon="8.55706">
        <ele>1098</ele>
        <time>2021-08-10T13:55:50.426Z</time>
      </trkpt>
      <trkpt lat="46.89264" lon="8.55705">
        <ele>1099</ele>
        <time>2021-08-10T13:55:51.426Z</time>
      </trkpt>
      <trkpt lat="46.89264" lon="8.55705">
        <ele>1099</ele>
        <time>2021-08-10T13:55:52.426Z</time>
      </trkpt>
      <trkpt lat="46.89263" lon="8.55705">
        <ele>1099</ele>
        <time>2021-08-10T13:55:53.426Z</time>
      </trkpt>
      <trkpt lat="46.89262" lon="8.55705">
        <ele>1099</ele>
        <time>2021-08-10T13:55:54.426Z</time>
      </trkpt>
      <trkpt lat="46.89261" lon="8.55704">
        <ele>1099</ele>
        <time>2021-08-10T13:55:55.426Z</time>
      </trkpt>
      <trkpt lat="46.8926" lon="8.55703">
        <ele>1099</ele>
        <time>2021-08-10T13:55:56.425Z</time>
      </trkpt>
      <trkpt lat="46.89259" lon="8.55703">
        <ele>1099</ele>
        <time>2021-08-10T13:55:57.426Z</time>
      </trkpt>
      <trkpt lat="46.89258" lon="8.55703">
        <ele>1099</ele>
        <time>2021-08-10T13:55:58.426Z</time>
      </trkpt>
      <trkpt lat="46.89257" lon="8.55702">
        <ele>1098</ele>
        <time>2021-08-10T13:55:59.426Z</time>
      </trkpt>
      <trkpt lat="46.89256" lon="8.55701">
        <ele>1097</ele>
        <time>2021-08-10T13:56:00.426Z</time>
      </trkpt>
      <trkpt lat="46.89256" lon="8.55701">
        <ele>1096</ele>
        <time>2021-08-10T13:56:01.426Z</time>
      </trkpt>
      <trkpt lat="46.89255" lon="8.55701">
        <ele>1096</ele>
        <time>2021-08-10T13:56:02.426Z</time>
      </trkpt>
      <trkpt lat="46.89255" lon="8.557">
        <ele>1095</ele>
        <time>2021-08-10T13:56:03.426Z</time>
      </trkpt>
      <trkpt lat="46.89254" lon="8.557">
        <ele>1095</ele>
        <time>2021-08-10T13:56:04.425Z</time>
      </trkpt>
      <trkpt lat="46.89254" lon="8.557">
        <ele>1096</ele>
        <time>2021-08-10T13:56:05.426Z</time>
      </trkpt>
      <trkpt lat="46.89253" lon="8.557">
        <ele>1096</ele>
        <time>2021-08-10T13:56:06.426Z</time>
      </trkpt>
      <trkpt lat="46.89253" lon="8.55699">
        <ele>1096</ele>
        <time>2021-08-10T13:56:07.425Z</time>
      </trkpt>
      <trkpt lat="46.89252" lon="8.55699">
        <ele>1097</ele>
        <time>2021-08-10T13:56:08.426Z</time>
      </trkpt>
      <trkpt lat="46.8925" lon="8.55698">
        <ele>1098</ele>
        <time>2021-08-10T13:56:09.426Z</time>
      </trkpt>
      <trkpt lat="46.89249" lon="8.55698">
        <ele>1098</ele>
        <time>2021-08-10T13:56:10.425Z</time>
      </trkpt>
      <trkpt lat="46.89249" lon="8.55697">
        <ele>1099</ele>
        <time>2021-08-10T13:56:11.425Z</time>
      </trkpt>
      <trkpt lat="46.89248" lon="8.55696">
        <ele>1100</ele>
        <time>2021-08-10T13:56:12.425Z</time>
      </trkpt>
      <trkpt lat="46.89248" lon="8.55695">
        <ele>1100</ele>
        <time>2021-08-10T13:56:13.425Z</time>
      </trkpt>
      <trkpt lat="46.89247" lon="8.55695">
        <ele>1100</ele>
        <time>2021-08-10T13:56:14.425Z</time>
      </trkpt>
      <trkpt lat="46.89246" lon="8.55694">
        <ele>1100</ele>
        <time>2021-08-10T13:56:15.425Z</time>
      </trkpt>
      <trkpt lat="46.89245" lon="8.55693">
        <ele>1100</ele>
        <time>2021-08-10T13:56:16.426Z</time>
      </trkpt>
      <trkpt lat="46.89244" lon="8.55692">
        <ele>1101</ele>
        <time>2021-08-10T13:56:17.425Z</time>
      </trkpt>
      <trkpt lat="46.89242" lon="8.55691">
        <ele>1101</ele>
        <time>2021-08-10T13:56:18.425Z</time>
      </trkpt>
      <trkpt lat="46.89242" lon="8.5569">
        <ele>1102</ele>
        <time>2021-08-10T13:56:19.425Z</time>
      </trkpt>
      <trkpt lat="46.89241" lon="8.55689">
        <ele>1103</ele>
        <time>2021-08-10T13:56:20.425Z</time>
      </trkpt>
      <trkpt lat="46.8924" lon="8.55688">
        <ele>1103</ele>
        <time>2021-08-10T13:56:21.426Z</time>
      </trkpt>
      <trkpt lat="46.89239" lon="8.55687">
        <ele>1104</ele>
        <time>2021-08-10T13:56:22.425Z</time>
      </trkpt>
      <trkpt lat="46.89238" lon="8.55686">
        <ele>1104</ele>
        <time>2021-08-10T13:56:23.425Z</time>
      </trkpt>
      <trkpt lat="46.89237" lon="8.55686">
        <ele>1104</ele>
        <time>2021-08-10T13:56:24.425Z</time>
      </trkpt>
      <trkpt lat="46.89237" lon="8.55684">
        <ele>1104</ele>
        <time>2021-08-10T13:56:25.426Z</time>
      </trkpt>
      <trkpt lat="46.89236" lon="8.55683">
        <ele>1105</ele>
        <time>2021-08-10T13:56:26.425Z</time>
      </trkpt>
      <trkpt lat="46.89235" lon="8.55683">
        <ele>1105</ele>
        <time>2021-08-10T13:56:27.426Z</time>
      </trkpt>
      <trkpt lat="46.89234" lon="8.55682">
        <ele>1106</ele>
        <time>2021-08-10T13:56:28.426Z</time>
      </trkpt>
      <trkpt lat="46.89233" lon="8.55681">
        <ele>1107</ele>
        <time>2021-08-10T13:56:29.426Z</time>
      </trkpt>
      <trkpt lat="46.89232" lon="8.5568">
        <ele>1107</ele>
        <time>2021-08-10T13:56:30.425Z</time>
      </trkpt>
      <trkpt lat="46.89231" lon="8.55679">
        <ele>1107</ele>
        <time>2021-08-10T13:56:31.426Z</time>
      </trkpt>
      <trkpt lat="46.89231" lon="8.55678">
        <ele>1108</ele>
        <time>2021-08-10T13:56:32.425Z</time>
      </trkpt>
      <trkpt lat="46.8923" lon="8.55678">
        <ele>1108</ele>
        <time>2021-08-10T13:56:33.425Z</time>
      </trkpt>
      <trkpt lat="46.89229" lon="8.55677">
        <ele>1108</ele>
        <time>2021-08-10T13:56:34.425Z</time>
      </trkpt>
      <trkpt lat="46.89228" lon="8.55676">
        <ele>1109</ele>
        <time>2021-08-10T13:56:35.426Z</time>
      </trkpt>
      <trkpt lat="46.89226" lon="8.55675">
        <ele>1109</ele>
        <time>2021-08-10T13:56:36.426Z</time>
      </trkpt>
      <trkpt lat="46.89225" lon="8.55673">
        <ele>1110</ele>
        <time>2021-08-10T13:56:40.521Z</time>
      </trkpt>
      <trkpt lat="46.89224" lon="8.55673">
        <ele>1111</ele>
        <time>2021-08-10T13:56:41.520Z</time>
      </trkpt>
      <trkpt lat="46.89223" lon="8.55671">
        <ele>1111</ele>
        <time>2021-08-10T13:56:42.521Z</time>
      </trkpt>
      <trkpt lat="46.89222" lon="8.55671">
        <ele>1112</ele>
        <time>2021-08-10T13:56:43.521Z</time>
      </trkpt>
      <trkpt lat="46.89221" lon="8.55671">
        <ele>1113</ele>
        <time>2021-08-10T13:56:44.520Z</time>
      </trkpt>
      <trkpt lat="46.89221" lon="8.5567">
        <ele>1113</ele>
        <time>2021-08-10T13:56:45.521Z</time>
      </trkpt>
      <trkpt lat="46.8922" lon="8.55669">
        <ele>1113</ele>
        <time>2021-08-10T13:56:46.521Z</time>
      </trkpt>
      <trkpt lat="46.89219" lon="8.55668">
        <ele>1113</ele>
        <time>2021-08-10T13:56:49.611Z</time>
      </trkpt>
      <trkpt lat="46.89218" lon="8.55666">
        <ele>1113</ele>
        <time>2021-08-10T13:56:50.610Z</time>
      </trkpt>
      <trkpt lat="46.89218" lon="8.55666">
        <ele>1113</ele>
        <time>2021-08-10T13:56:51.611Z</time>
      </trkpt>
      <trkpt lat="46.89217" lon="8.55665">
        <ele>1113</ele>
        <time>2021-08-10T13:56:52.611Z</time>
      </trkpt>
      <trkpt lat="46.89216" lon="8.55664">
        <ele>1113</ele>
        <time>2021-08-10T13:56:53.611Z</time>
      </trkpt>
      <trkpt lat="46.89215" lon="8.55663">
        <ele>1112</ele>
        <time>2021-08-10T13:56:56.634Z</time>
      </trkpt>
      <trkpt lat="46.89214" lon="8.55663">
        <ele>1112</ele>
        <time>2021-08-10T13:56:57.635Z</time>
      </trkpt>
      <trkpt lat="46.89213" lon="8.55662">
        <ele>1112</ele>
        <time>2021-08-10T13:56:58.634Z</time>
      </trkpt>
      <trkpt lat="46.89213" lon="8.55662">
        <ele>1112</ele>
        <time>2021-08-10T13:56:59.635Z</time>
      </trkpt>
      <trkpt lat="46.89212" lon="8.5566">
        <ele>1112</ele>
        <time>2021-08-10T13:57:00.635Z</time>
      </trkpt>
      <trkpt lat="46.8921" lon="8.5566">
        <ele>1112</ele>
        <time>2021-08-10T13:57:01.635Z</time>
      </trkpt>
      <trkpt lat="46.8921" lon="8.55659">
        <ele>1112</ele>
        <time>2021-08-10T13:57:02.635Z</time>
      </trkpt>
      <trkpt lat="46.89209" lon="8.55659">
        <ele>1111</ele>
        <time>2021-08-10T13:57:03.635Z</time>
      </trkpt>
      <trkpt lat="46.89208" lon="8.55658">
        <ele>1111</ele>
        <time>2021-08-10T13:57:04.634Z</time>
      </trkpt>
      <trkpt lat="46.89207" lon="8.55657">
        <ele>1111</ele>
        <time>2021-08-10T13:57:05.635Z</time>
      </trkpt>
      <trkpt lat="46.89206" lon="8.55656">
        <ele>1111</ele>
        <time>2021-08-10T13:57:06.635Z</time>
      </trkpt>
      <trkpt lat="46.89206" lon="8.55655">
        <ele>1112</ele>
        <time>2021-08-10T13:57:07.634Z</time>
      </trkpt>
      <trkpt lat="46.89204" lon="8.55655">
        <ele>1112</ele>
        <time>2021-08-10T13:57:08.635Z</time>
      </trkpt>
      <trkpt lat="46.89203" lon="8.55654">
        <ele>1111</ele>
        <time>2021-08-10T13:57:09.635Z</time>
      </trkpt>
      <trkpt lat="46.89202" lon="8.55652">
        <ele>1111</ele>
        <time>2021-08-10T13:57:10.634Z</time>
      </trkpt>
      <trkpt lat="46.89201" lon="8.5565">
        <ele>1111</ele>
        <time>2021-08-10T13:57:11.635Z</time>
      </trkpt>
      <trkpt lat="46.892" lon="8.5565">
        <ele>1111</ele>
        <time>2021-08-10T13:57:12.635Z</time>
      </trkpt>
      <trkpt lat="46.89199" lon="8.55649">
        <ele>1111</ele>
        <time>2021-08-10T13:57:13.635Z</time>
      </trkpt>
      <trkpt lat="46.89199" lon="8.55649">
        <ele>1111</ele>
        <time>2021-08-10T13:57:14.634Z</time>
      </trkpt>
      <trkpt lat="46.89198" lon="8.55648">
        <ele>1111</ele>
        <time>2021-08-10T13:57:15.635Z</time>
      </trkpt>
      <trkpt lat="46.89197" lon="8.55647">
        <ele>1111</ele>
        <time>2021-08-10T13:57:16.635Z</time>
      </trkpt>
      <trkpt lat="46.89196" lon="8.55647">
        <ele>1111</ele>
        <time>2021-08-10T13:57:17.635Z</time>
      </trkpt>
      <trkpt lat="46.89196" lon="8.55647">
        <ele>1112</ele>
        <time>2021-08-10T13:57:18.634Z</time>
      </trkpt>
      <trkpt lat="46.89194" lon="8.55647">
        <ele>1112</ele>
        <time>2021-08-10T13:57:19.635Z</time>
      </trkpt>
      <trkpt lat="46.89193" lon="8.55645">
        <ele>1112</ele>
        <time>2021-08-10T13:57:20.635Z</time>
      </trkpt>
      <trkpt lat="46.89192" lon="8.55644">
        <ele>1113</ele>
        <time>2021-08-10T13:57:21.634Z</time>
      </trkpt>
      <trkpt lat="46.89191" lon="8.55643">
        <ele>1113</ele>
        <time>2021-08-10T13:57:22.635Z</time>
      </trkpt>
      <trkpt lat="46.8919" lon="8.55643">
        <ele>1114</ele>
        <time>2021-08-10T13:57:23.635Z</time>
      </trkpt>
      <trkpt lat="46.89189" lon="8.55643">
        <ele>1114</ele>
        <time>2021-08-10T13:57:24.634Z</time>
      </trkpt>
      <trkpt lat="46.89188" lon="8.55642">
        <ele>1114</ele>
        <time>2021-08-10T13:57:25.635Z</time>
      </trkpt>
      <trkpt lat="46.89186" lon="8.55642">
        <ele>1114</ele>
        <time>2021-08-10T13:57:26.634Z</time>
      </trkpt>
      <trkpt lat="46.89185" lon="8.55641">
        <ele>1113</ele>
        <time>2021-08-10T13:57:27.635Z</time>
      </trkpt>
      <trkpt lat="46.89184" lon="8.55641">
        <ele>1113</ele>
        <time>2021-08-10T13:57:28.635Z</time>
      </trkpt>
      <trkpt lat="46.89184" lon="8.5564">
        <ele>1113</ele>
        <time>2021-08-10T13:57:29.634Z</time>
      </trkpt>
      <trkpt lat="46.89183" lon="8.5564">
        <ele>1113</ele>
        <time>2021-08-10T13:57:30.634Z</time>
      </trkpt>
      <trkpt lat="46.89182" lon="8.55639">
        <ele>1113</ele>
        <time>2021-08-10T13:57:31.634Z</time>
      </trkpt>
      <trkpt lat="46.89182" lon="8.55638">
        <ele>1113</ele>
        <time>2021-08-10T13:57:32.634Z</time>
      </trkpt>
      <trkpt lat="46.89181" lon="8.55638">
        <ele>1114</ele>
        <time>2021-08-10T13:57:33.634Z</time>
      </trkpt>
      <trkpt lat="46.8918" lon="8.55637">
        <ele>1114</ele>
        <time>2021-08-10T13:57:34.634Z</time>
      </trkpt>
      <trkpt lat="46.89178" lon="8.55636">
        <ele>1114</ele>
        <time>2021-08-10T13:57:35.635Z</time>
      </trkpt>
      <trkpt lat="46.89177" lon="8.55635">
        <ele>1114</ele>
        <time>2021-08-10T13:57:36.634Z</time>
      </trkpt>
      <trkpt lat="46.89177" lon="8.55634">
        <ele>1114</ele>
        <time>2021-08-10T13:57:37.635Z</time>
      </trkpt>
      <trkpt lat="46.89176" lon="8.55634">
        <ele>1114</ele>
        <time>2021-08-10T13:57:38.635Z</time>
      </trkpt>
      <trkpt lat="46.89175" lon="8.55634">
        <ele>1114</ele>
        <time>2021-08-10T13:57:39.635Z</time>
      </trkpt>
      <trkpt lat="46.89174" lon="8.55633">
        <ele>1114</ele>
        <time>2021-08-10T13:57:40.635Z</time>
      </trkpt>
      <trkpt lat="46.89173" lon="8.55633">
        <ele>1114</ele>
        <time>2021-08-10T13:57:41.634Z</time>
      </trkpt>
      <trkpt lat="46.89172" lon="8.55633">
        <ele>1114</ele>
        <time>2021-08-10T13:57:43.727Z</time>
      </trkpt>
      <trkpt lat="46.8917" lon="8.55631">
        <ele>1115</ele>
        <time>2021-08-10T13:57:44.728Z</time>
      </trkpt>
      <trkpt lat="46.8917" lon="8.5563">
        <ele>1115</ele>
        <time>2021-08-10T13:57:45.728Z</time>
      </trkpt>
      <trkpt lat="46.89168" lon="8.55629">
        <ele>1116</ele>
        <time>2021-08-10T13:57:46.728Z</time>
      </trkpt>
      <trkpt lat="46.89167" lon="8.55629">
        <ele>1116</ele>
        <time>2021-08-10T13:57:47.728Z</time>
      </trkpt>
      <trkpt lat="46.89166" lon="8.55628">
        <ele>1117</ele>
        <time>2021-08-10T13:57:48.728Z</time>
      </trkpt>
      <trkpt lat="46.89165" lon="8.55627">
        <ele>1117</ele>
        <time>2021-08-10T13:57:49.727Z</time>
      </trkpt>
      <trkpt lat="46.89164" lon="8.55628">
        <ele>1118</ele>
        <time>2021-08-10T13:57:50.728Z</time>
      </trkpt>
      <trkpt lat="46.89163" lon="8.55627">
        <ele>1119</ele>
        <time>2021-08-10T13:57:52.728Z</time>
      </trkpt>
      <trkpt lat="46.89162" lon="8.55627">
        <ele>1119</ele>
        <time>2021-08-10T13:57:53.729Z</time>
      </trkpt>
      <trkpt lat="46.89162" lon="8.55627">
        <ele>1120</ele>
        <time>2021-08-10T13:57:54.729Z</time>
      </trkpt>
      <trkpt lat="46.89161" lon="8.55626">
        <ele>1120</ele>
        <time>2021-08-10T13:57:55.729Z</time>
      </trkpt>
      <trkpt lat="46.8916" lon="8.55626">
        <ele>1120</ele>
        <time>2021-08-10T13:57:56.729Z</time>
      </trkpt>
      <trkpt lat="46.8916" lon="8.55626">
        <ele>1120</ele>
        <time>2021-08-10T13:57:57.728Z</time>
      </trkpt>
      <trkpt lat="46.89159" lon="8.55626">
        <ele>1119</ele>
        <time>2021-08-10T13:57:58.728Z</time>
      </trkpt>
      <trkpt lat="46.89158" lon="8.55626">
        <ele>1119</ele>
        <time>2021-08-10T13:57:59.729Z</time>
      </trkpt>
      <trkpt lat="46.89157" lon="8.55626">
        <ele>1119</ele>
        <time>2021-08-10T13:58:00.729Z</time>
      </trkpt>
      <trkpt lat="46.89157" lon="8.55625">
        <ele>1119</ele>
        <time>2021-08-10T13:58:01.728Z</time>
      </trkpt>
      <trkpt lat="46.89156" lon="8.55625">
        <ele>1118</ele>
        <time>2021-08-10T13:58:02.729Z</time>
      </trkpt>
      <trkpt lat="46.89155" lon="8.55625">
        <ele>1117</ele>
        <time>2021-08-10T13:58:03.728Z</time>
      </trkpt>
      <trkpt lat="46.89155" lon="8.55625">
        <ele>1117</ele>
        <time>2021-08-10T13:58:04.729Z</time>
      </trkpt>
      <trkpt lat="46.89157" lon="8.55626">
        <ele>1113</ele>
        <time>2021-08-10T13:58:05.730Z</time>
      </trkpt>
      <trkpt lat="46.89157" lon="8.55624">
        <ele>1113</ele>
        <time>2021-08-10T13:58:06.729Z</time>
      </trkpt>
      <trkpt lat="46.89155" lon="8.55624">
        <ele>1112</ele>
        <time>2021-08-10T13:58:07.729Z</time>
      </trkpt>
      <trkpt lat="46.89155" lon="8.55622">
        <ele>1112</ele>
        <time>2021-08-10T13:58:08.729Z</time>
      </trkpt>
      <trkpt lat="46.89153" lon="8.55621">
        <ele>1112</ele>
        <time>2021-08-10T13:58:09.730Z</time>
      </trkpt>
      <trkpt lat="46.89152" lon="8.55621">
        <ele>1112</ele>
        <time>2021-08-10T13:58:10.730Z</time>
      </trkpt>
      <trkpt lat="46.89151" lon="8.5562">
        <ele>1112</ele>
        <time>2021-08-10T13:58:11.729Z</time>
      </trkpt>
      <trkpt lat="46.8915" lon="8.5562">
        <ele>1112</ele>
        <time>2021-08-10T13:58:12.730Z</time>
      </trkpt>
      <trkpt lat="46.8915" lon="8.55619">
        <ele>1112</ele>
        <time>2021-08-10T13:58:13.729Z</time>
      </trkpt>
      <trkpt lat="46.89149" lon="8.55618">
        <ele>1112</ele>
        <time>2021-08-10T13:58:14.729Z</time>
      </trkpt>
      <trkpt lat="46.89148" lon="8.55617">
        <ele>1112</ele>
        <time>2021-08-10T13:58:15.730Z</time>
      </trkpt>
      <trkpt lat="46.89147" lon="8.55617">
        <ele>1112</ele>
        <time>2021-08-10T13:58:16.730Z</time>
      </trkpt>
      <trkpt lat="46.89147" lon="8.55617">
        <ele>1112</ele>
        <time>2021-08-10T13:58:17.730Z</time>
      </trkpt>
      <trkpt lat="46.89145" lon="8.55616">
        <ele>1112</ele>
        <time>2021-08-10T13:58:18.730Z</time>
      </trkpt>
      <trkpt lat="46.89144" lon="8.55615">
        <ele>1113</ele>
        <time>2021-08-10T13:58:19.730Z</time>
      </trkpt>
      <trkpt lat="46.89144" lon="8.55615">
        <ele>1113</ele>
        <time>2021-08-10T13:58:22.818Z</time>
      </trkpt>
      <trkpt lat="46.89143" lon="8.55615">
        <ele>1114</ele>
        <time>2021-08-10T13:58:23.817Z</time>
      </trkpt>
      <trkpt lat="46.89142" lon="8.55615">
        <ele>1114</ele>
        <time>2021-08-10T13:58:39.634Z</time>
      </trkpt>
      <trkpt lat="46.89141" lon="8.55613">
        <ele>1115</ele>
        <time>2021-08-10T13:58:40.633Z</time>
      </trkpt>
      <trkpt lat="46.8914" lon="8.55612">
        <ele>1114</ele>
        <time>2021-08-10T13:58:41.633Z</time>
      </trkpt>
      <trkpt lat="46.8914" lon="8.55611">
        <ele>1114</ele>
        <time>2021-08-10T13:58:42.634Z</time>
      </trkpt>
      <trkpt lat="46.89138" lon="8.5561">
        <ele>1114</ele>
        <time>2021-08-10T13:58:43.634Z</time>
      </trkpt>
      <trkpt lat="46.89138" lon="8.55609">
        <ele>1114</ele>
        <time>2021-08-10T13:58:46.728Z</time>
      </trkpt>
      <trkpt lat="46.89137" lon="8.55609">
        <ele>1115</ele>
        <time>2021-08-10T13:58:47.728Z</time>
      </trkpt>
      <trkpt lat="46.89135" lon="8.55608">
        <ele>1115</ele>
        <time>2021-08-10T13:59:29.584Z</time>
      </trkpt>
      <trkpt lat="46.89134" lon="8.55607">
        <ele>1116</ele>
        <time>2021-08-10T13:59:30.585Z</time>
      </trkpt>
      <trkpt lat="46.89133" lon="8.55606">
        <ele>1116</ele>
        <time>2021-08-10T13:59:31.585Z</time>
      </trkpt>
      <trkpt lat="46.89132" lon="8.55605">
        <ele>1117</ele>
        <time>2021-08-10T13:59:32.585Z</time>
      </trkpt>
      <trkpt lat="46.89131" lon="8.55604">
        <ele>1117</ele>
        <time>2021-08-10T13:59:33.584Z</time>
      </trkpt>
      <trkpt lat="46.8913" lon="8.55603">
        <ele>1118</ele>
        <time>2021-08-10T13:59:34.584Z</time>
      </trkpt>
      <trkpt lat="46.89129" lon="8.55602">
        <ele>1118</ele>
        <time>2021-08-10T13:59:35.585Z</time>
      </trkpt>
      <trkpt lat="46.89128" lon="8.55602">
        <ele>1119</ele>
        <time>2021-08-10T13:59:36.585Z</time>
      </trkpt>
      <trkpt lat="46.89127" lon="8.55601">
        <ele>1120</ele>
        <time>2021-08-10T13:59:37.585Z</time>
      </trkpt>
      <trkpt lat="46.89126" lon="8.55601">
        <ele>1120</ele>
        <time>2021-08-10T13:59:45.620Z</time>
      </trkpt>
      <trkpt lat="46.89125" lon="8.556">
        <ele>1121</ele>
        <time>2021-08-10T13:59:46.619Z</time>
      </trkpt>
      <trkpt lat="46.89124" lon="8.556">
        <ele>1120</ele>
        <time>2021-08-10T13:59:47.620Z</time>
      </trkpt>
      <trkpt lat="46.89122" lon="8.55599">
        <ele>1120</ele>
        <time>2021-08-10T13:59:48.620Z</time>
      </trkpt>
      <trkpt lat="46.89122" lon="8.55599">
        <ele>1120</ele>
        <time>2021-08-10T13:59:52.585Z</time>
      </trkpt>
      <trkpt lat="46.89121" lon="8.55598">
        <ele>1119</ele>
        <time>2021-08-10T13:59:53.586Z</time>
      </trkpt>
      <trkpt lat="46.8912" lon="8.55598">
        <ele>1119</ele>
        <time>2021-08-10T14:00:01.376Z</time>
      </trkpt>
      <trkpt lat="46.89119" lon="8.55597">
        <ele>1118</ele>
        <time>2021-08-10T14:00:02.376Z</time>
      </trkpt>
      <trkpt lat="46.89118" lon="8.55596">
        <ele>1117</ele>
        <time>2021-08-10T14:00:03.376Z</time>
      </trkpt>
      <trkpt lat="46.89117" lon="8.55595">
        <ele>1116</ele>
        <time>2021-08-10T14:00:05.354Z</time>
      </trkpt>
      <trkpt lat="46.89116" lon="8.55595">
        <ele>1116</ele>
        <time>2021-08-10T14:00:06.354Z</time>
      </trkpt>
      <trkpt lat="46.89115" lon="8.55595">
        <ele>1116</ele>
        <time>2021-08-10T14:00:07.353Z</time>
      </trkpt>
      <trkpt lat="46.89114" lon="8.55595">
        <ele>1116</ele>
        <time>2021-08-10T14:00:08.353Z</time>
      </trkpt>
      <trkpt lat="46.89113" lon="8.55595">
        <ele>1116</ele>
        <time>2021-08-10T14:00:09.353Z</time>
      </trkpt>
      <trkpt lat="46.89112" lon="8.55594">
        <ele>1117</ele>
        <time>2021-08-10T14:00:10.354Z</time>
      </trkpt>
      <trkpt lat="46.89111" lon="8.55593">
        <ele>1117</ele>
        <time>2021-08-10T14:00:11.354Z</time>
      </trkpt>
      <trkpt lat="46.8911" lon="8.55593">
        <ele>1117</ele>
        <time>2021-08-10T14:00:12.354Z</time>
      </trkpt>
      <trkpt lat="46.8911" lon="8.55592">
        <ele>1117</ele>
        <time>2021-08-10T14:00:13.353Z</time>
      </trkpt>
      <trkpt lat="46.89109" lon="8.55592">
        <ele>1117</ele>
        <time>2021-08-10T14:00:14.353Z</time>
      </trkpt>
      <trkpt lat="46.89108" lon="8.55591">
        <ele>1117</ele>
        <time>2021-08-10T14:00:15.353Z</time>
      </trkpt>
      <trkpt lat="46.89108" lon="8.55591">
        <ele>1117</ele>
        <time>2021-08-10T14:00:16.354Z</time>
      </trkpt>
      <trkpt lat="46.89107" lon="8.55591">
        <ele>1118</ele>
        <time>2021-08-10T14:00:17.354Z</time>
      </trkpt>
      <trkpt lat="46.89106" lon="8.5559">
        <ele>1118</ele>
        <time>2021-08-10T14:00:18.354Z</time>
      </trkpt>
      <trkpt lat="46.89105" lon="8.5559">
        <ele>1118</ele>
        <time>2021-08-10T14:00:19.354Z</time>
      </trkpt>
      <trkpt lat="46.89105" lon="8.55589">
        <ele>1118</ele>
        <time>2021-08-10T14:00:20.354Z</time>
      </trkpt>
      <trkpt lat="46.89104" lon="8.55589">
        <ele>1118</ele>
        <time>2021-08-10T14:00:21.353Z</time>
      </trkpt>
      <trkpt lat="46.89104" lon="8.55588">
        <ele>1118</ele>
        <time>2021-08-10T14:00:22.354Z</time>
      </trkpt>
      <trkpt lat="46.89104" lon="8.55588">
        <ele>1117</ele>
        <time>2021-08-10T14:00:23.354Z</time>
      </trkpt>
      <trkpt lat="46.89102" lon="8.55587">
        <ele>1117</ele>
        <time>2021-08-10T14:00:24.353Z</time>
      </trkpt>
      <trkpt lat="46.89101" lon="8.55587">
        <ele>1116</ele>
        <time>2021-08-10T14:00:25.353Z</time>
      </trkpt>
      <trkpt lat="46.891" lon="8.55586">
        <ele>1116</ele>
        <time>2021-08-10T14:00:26.354Z</time>
      </trkpt>
      <trkpt lat="46.891" lon="8.55586">
        <ele>1116</ele>
        <time>2021-08-10T14:00:27.353Z</time>
      </trkpt>
      <trkpt lat="46.89099" lon="8.55585">
        <ele>1116</ele>
        <time>2021-08-10T14:00:28.354Z</time>
      </trkpt>
      <trkpt lat="46.89098" lon="8.55585">
        <ele>1117</ele>
        <time>2021-08-10T14:00:29.353Z</time>
      </trkpt>
      <trkpt lat="46.89096" lon="8.55584">
        <ele>1117</ele>
        <time>2021-08-10T14:00:30.354Z</time>
      </trkpt>
      <trkpt lat="46.89096" lon="8.55584">
        <ele>1117</ele>
        <time>2021-08-10T14:00:31.353Z</time>
      </trkpt>
      <trkpt lat="46.89095" lon="8.55583">
        <ele>1117</ele>
        <time>2021-08-10T14:00:32.354Z</time>
      </trkpt>
      <trkpt lat="46.89094" lon="8.55583">
        <ele>1117</ele>
        <time>2021-08-10T14:00:33.354Z</time>
      </trkpt>
      <trkpt lat="46.89093" lon="8.55583">
        <ele>1117</ele>
        <time>2021-08-10T14:00:34.354Z</time>
      </trkpt>
      <trkpt lat="46.89093" lon="8.55583">
        <ele>1117</ele>
        <time>2021-08-10T14:00:35.353Z</time>
      </trkpt>
      <trkpt lat="46.89092" lon="8.55583">
        <ele>1118</ele>
        <time>2021-08-10T14:00:36.354Z</time>
      </trkpt>
      <trkpt lat="46.89091" lon="8.55583">
        <ele>1118</ele>
        <time>2021-08-10T14:00:37.353Z</time>
      </trkpt>
      <trkpt lat="46.89091" lon="8.55584">
        <ele>1119</ele>
        <time>2021-08-10T14:00:41.474Z</time>
      </trkpt>
      <trkpt lat="46.89089" lon="8.55585">
        <ele>1120</ele>
        <time>2021-08-10T14:00:42.474Z</time>
      </trkpt>
      <trkpt lat="46.89089" lon="8.55586">
        <ele>1120</ele>
        <time>2021-08-10T14:00:43.475Z</time>
      </trkpt>
      <trkpt lat="46.89088" lon="8.55585">
        <ele>1121</ele>
        <time>2021-08-10T14:00:44.475Z</time>
      </trkpt>
      <trkpt lat="46.89088" lon="8.55585">
        <ele>1121</ele>
        <time>2021-08-10T14:00:45.475Z</time>
      </trkpt>
      <trkpt lat="46.89087" lon="8.55584">
        <ele>1122</ele>
        <time>2021-08-10T14:00:46.475Z</time>
      </trkpt>
      <trkpt lat="46.89085" lon="8.55583">
        <ele>1122</ele>
        <time>2021-08-10T14:00:47.475Z</time>
      </trkpt>
      <trkpt lat="46.89084" lon="8.55582">
        <ele>1122</ele>
        <time>2021-08-10T14:00:48.474Z</time>
      </trkpt>
      <trkpt lat="46.89084" lon="8.55581">
        <ele>1122</ele>
        <time>2021-08-10T14:00:49.475Z</time>
      </trkpt>
      <trkpt lat="46.89083" lon="8.55581">
        <ele>1122</ele>
        <time>2021-08-10T14:00:50.475Z</time>
      </trkpt>
      <trkpt lat="46.89083" lon="8.55581">
        <ele>1122</ele>
        <time>2021-08-10T14:00:51.475Z</time>
      </trkpt>
      <trkpt lat="46.89082" lon="8.5558">
        <ele>1121</ele>
        <time>2021-08-10T14:00:52.475Z</time>
      </trkpt>
      <trkpt lat="46.89082" lon="8.5558">
        <ele>1121</ele>
        <time>2021-08-10T14:00:53.475Z</time>
      </trkpt>
      <trkpt lat="46.89081" lon="8.5558">
        <ele>1120</ele>
        <time>2021-08-10T14:00:54.474Z</time>
      </trkpt>
      <trkpt lat="46.8908" lon="8.55579">
        <ele>1120</ele>
        <time>2021-08-10T14:00:55.475Z</time>
      </trkpt>
      <trkpt lat="46.89079" lon="8.55579">
        <ele>1119</ele>
        <time>2021-08-10T14:00:56.475Z</time>
      </trkpt>
      <trkpt lat="46.89078" lon="8.55579">
        <ele>1119</ele>
        <time>2021-08-10T14:00:57.474Z</time>
      </trkpt>
      <trkpt lat="46.89077" lon="8.55578">
        <ele>1120</ele>
        <time>2021-08-10T14:00:58.474Z</time>
      </trkpt>
      <trkpt lat="46.89076" lon="8.55577">
        <ele>1120</ele>
        <time>2021-08-10T14:00:59.474Z</time>
      </trkpt>
      <trkpt lat="46.89075" lon="8.55577">
        <ele>1120</ele>
        <time>2021-08-10T14:01:00.474Z</time>
      </trkpt>
      <trkpt lat="46.89074" lon="8.55577">
        <ele>1120</ele>
        <time>2021-08-10T14:01:01.475Z</time>
      </trkpt>
      <trkpt lat="46.89074" lon="8.55577">
        <ele>1121</ele>
        <time>2021-08-10T14:01:02.475Z</time>
      </trkpt>
      <trkpt lat="46.89074" lon="8.55577">
        <ele>1121</ele>
        <time>2021-08-10T14:01:03.474Z</time>
      </trkpt>
      <trkpt lat="46.89073" lon="8.55577">
        <ele>1121</ele>
        <time>2021-08-10T14:01:04.475Z</time>
      </trkpt>
      <trkpt lat="46.89072" lon="8.55576">
        <ele>1121</ele>
        <time>2021-08-10T14:01:05.475Z</time>
      </trkpt>
      <trkpt lat="46.89071" lon="8.55576">
        <ele>1122</ele>
        <time>2021-08-10T14:01:06.475Z</time>
      </trkpt>
      <trkpt lat="46.8907" lon="8.55576">
        <ele>1122</ele>
        <time>2021-08-10T14:01:07.475Z</time>
      </trkpt>
      <trkpt lat="46.89069" lon="8.55577">
        <ele>1123</ele>
        <time>2021-08-10T14:01:08.475Z</time>
      </trkpt>
      <trkpt lat="46.89068" lon="8.55576">
        <ele>1124</ele>
        <time>2021-08-10T14:01:09.474Z</time>
      </trkpt>
      <trkpt lat="46.89068" lon="8.55576">
        <ele>1124</ele>
        <time>2021-08-10T14:01:10.475Z</time>
      </trkpt>
      <trkpt lat="46.89067" lon="8.55575">
        <ele>1125</ele>
        <time>2021-08-10T14:01:11.475Z</time>
      </trkpt>
      <trkpt lat="46.89066" lon="8.55574">
        <ele>1125</ele>
        <time>2021-08-10T14:01:12.475Z</time>
      </trkpt>
      <trkpt lat="46.89065" lon="8.55574">
        <ele>1125</ele>
        <time>2021-08-10T14:01:13.475Z</time>
      </trkpt>
      <trkpt lat="46.89063" lon="8.55573">
        <ele>1126</ele>
        <time>2021-08-10T14:01:14.475Z</time>
      </trkpt>
      <trkpt lat="46.89062" lon="8.55572">
        <ele>1126</ele>
        <time>2021-08-10T14:01:15.475Z</time>
      </trkpt>
      <trkpt lat="46.89061" lon="8.5557">
        <ele>1126</ele>
        <time>2021-08-10T14:01:16.475Z</time>
      </trkpt>
      <trkpt lat="46.89061" lon="8.55569">
        <ele>1126</ele>
        <time>2021-08-10T14:01:17.475Z</time>
      </trkpt>
      <trkpt lat="46.8906" lon="8.55568">
        <ele>1126</ele>
        <time>2021-08-10T14:01:18.475Z</time>
      </trkpt>
      <trkpt lat="46.89059" lon="8.55568">
        <ele>1126</ele>
        <time>2021-08-10T14:01:19.474Z</time>
      </trkpt>
      <trkpt lat="46.89058" lon="8.55568">
        <ele>1127</ele>
        <time>2021-08-10T14:01:20.474Z</time>
      </trkpt>
      <trkpt lat="46.89058" lon="8.55568">
        <ele>1127</ele>
        <time>2021-08-10T14:01:21.475Z</time>
      </trkpt>
      <trkpt lat="46.89057" lon="8.55567">
        <ele>1128</ele>
        <time>2021-08-10T14:01:22.475Z</time>
      </trkpt>
      <trkpt lat="46.89056" lon="8.55567">
        <ele>1128</ele>
        <time>2021-08-10T14:01:23.474Z</time>
      </trkpt>
      <trkpt lat="46.89055" lon="8.55565">
        <ele>1128</ele>
        <time>2021-08-10T14:01:24.475Z</time>
      </trkpt>
      <trkpt lat="46.89054" lon="8.55565">
        <ele>1128</ele>
        <time>2021-08-10T14:01:25.475Z</time>
      </trkpt>
      <trkpt lat="46.89054" lon="8.55565">
        <ele>1128</ele>
        <time>2021-08-10T14:01:26.475Z</time>
      </trkpt>
      <trkpt lat="46.89053" lon="8.55565">
        <ele>1128</ele>
        <time>2021-08-10T14:01:27.475Z</time>
      </trkpt>
      <trkpt lat="46.89052" lon="8.55565">
        <ele>1129</ele>
        <time>2021-08-10T14:01:28.475Z</time>
      </trkpt>
      <trkpt lat="46.89051" lon="8.55564">
        <ele>1129</ele>
        <time>2021-08-10T14:01:29.475Z</time>
      </trkpt>
      <trkpt lat="46.8905" lon="8.55564">
        <ele>1129</ele>
        <time>2021-08-10T14:01:30.475Z</time>
      </trkpt>
      <trkpt lat="46.89049" lon="8.55564">
        <ele>1129</ele>
        <time>2021-08-10T14:01:31.474Z</time>
      </trkpt>
      <trkpt lat="46.89049" lon="8.55563">
        <ele>1129</ele>
        <time>2021-08-10T14:01:32.474Z</time>
      </trkpt>
      <trkpt lat="46.89048" lon="8.55562">
        <ele>1130</ele>
        <time>2021-08-10T14:01:33.475Z</time>
      </trkpt>
      <trkpt lat="46.89047" lon="8.55561">
        <ele>1130</ele>
        <time>2021-08-10T14:01:34.475Z</time>
      </trkpt>
      <trkpt lat="46.89046" lon="8.55561">
        <ele>1130</ele>
        <time>2021-08-10T14:01:35.474Z</time>
      </trkpt>
      <trkpt lat="46.89046" lon="8.5556">
        <ele>1131</ele>
        <time>2021-08-10T14:01:36.475Z</time>
      </trkpt>
      <trkpt lat="46.89045" lon="8.5556">
        <ele>1131</ele>
        <time>2021-08-10T14:01:37.474Z</time>
      </trkpt>
      <trkpt lat="46.89044" lon="8.5556">
        <ele>1131</ele>
        <time>2021-08-10T14:01:38.475Z</time>
      </trkpt>
      <trkpt lat="46.89043" lon="8.5556">
        <ele>1131</ele>
        <time>2021-08-10T14:01:39.474Z</time>
      </trkpt>
      <trkpt lat="46.89042" lon="8.5556">
        <ele>1131</ele>
        <time>2021-08-10T14:01:40.474Z</time>
      </trkpt>
      <trkpt lat="46.89041" lon="8.5556">
        <ele>1132</ele>
        <time>2021-08-10T14:01:41.475Z</time>
      </trkpt>
      <trkpt lat="46.89041" lon="8.5556">
        <ele>1132</ele>
        <time>2021-08-10T14:01:42.475Z</time>
      </trkpt>
      <trkpt lat="46.8904" lon="8.5556">
        <ele>1133</ele>
        <time>2021-08-10T14:01:43.475Z</time>
      </trkpt>
      <trkpt lat="46.89039" lon="8.55561">
        <ele>1133</ele>
        <time>2021-08-10T14:01:44.474Z</time>
      </trkpt>
      <trkpt lat="46.89039" lon="8.55563">
        <ele>1134</ele>
        <time>2021-08-10T14:01:45.475Z</time>
      </trkpt>
      <trkpt lat="46.89039" lon="8.55564">
        <ele>1134</ele>
        <time>2021-08-10T14:01:46.475Z</time>
      </trkpt>
      <trkpt lat="46.89039" lon="8.55565">
        <ele>1134</ele>
        <time>2021-08-10T14:01:47.474Z</time>
      </trkpt>
      <trkpt lat="46.89039" lon="8.55566">
        <ele>1135</ele>
        <time>2021-08-10T14:01:48.475Z</time>
      </trkpt>
      <trkpt lat="46.89038" lon="8.55565">
        <ele>1135</ele>
        <time>2021-08-10T14:01:49.474Z</time>
      </trkpt>
      <trkpt lat="46.89038" lon="8.55565">
        <ele>1135</ele>
        <time>2021-08-10T14:01:50.475Z</time>
      </trkpt>
      <trkpt lat="46.89042" lon="8.55573">
        <ele>1131</ele>
        <time>2021-08-10T14:01:51.476Z</time>
      </trkpt>
      <trkpt lat="46.89042" lon="8.55573">
        <ele>1131</ele>
        <time>2021-08-10T14:01:52.476Z</time>
      </trkpt>
      <trkpt lat="46.89042" lon="8.55573">
        <ele>1132</ele>
        <time>2021-08-10T14:01:53.475Z</time>
      </trkpt>
      <trkpt lat="46.89042" lon="8.55573">
        <ele>1132</ele>
        <time>2021-08-10T14:01:54.475Z</time>
      </trkpt>
      <trkpt lat="46.89041" lon="8.55571">
        <ele>1131</ele>
        <time>2021-08-10T14:01:55.477Z</time>
      </trkpt>
      <trkpt lat="46.89041" lon="8.5557">
        <ele>1131</ele>
        <time>2021-08-10T14:01:56.476Z</time>
      </trkpt>
      <trkpt lat="46.89041" lon="8.55569">
        <ele>1131</ele>
        <time>2021-08-10T14:01:57.477Z</time>
      </trkpt>
      <trkpt lat="46.89041" lon="8.55568">
        <ele>1131</ele>
        <time>2021-08-10T14:01:58.477Z</time>
      </trkpt>
      <trkpt lat="46.89041" lon="8.55566">
        <ele>1131</ele>
        <time>2021-08-10T14:01:59.476Z</time>
      </trkpt>
      <trkpt lat="46.89041" lon="8.55565">
        <ele>1130</ele>
        <time>2021-08-10T14:02:05.583Z</time>
      </trkpt>
      <trkpt lat="46.89041" lon="8.55565">
        <ele>1130</ele>
        <time>2021-08-10T14:02:06.584Z</time>
      </trkpt>
      <trkpt lat="46.8904" lon="8.55564">
        <ele>1140</ele>
        <time>2021-08-10T14:02:07.584Z</time>
      </trkpt>
      <trkpt lat="46.8904" lon="8.55563">
        <ele>1141</ele>
        <time>2021-08-10T14:02:08.584Z</time>
      </trkpt>
      <trkpt lat="46.89039" lon="8.55562">
        <ele>1142</ele>
        <time>2021-08-10T14:02:09.584Z</time>
      </trkpt>
      <trkpt lat="46.89038" lon="8.55561">
        <ele>1143</ele>
        <time>2021-08-10T14:02:10.583Z</time>
      </trkpt>
      <trkpt lat="46.89036" lon="8.5556">
        <ele>1143</ele>
        <time>2021-08-10T14:02:11.584Z</time>
      </trkpt>
      <trkpt lat="46.89035" lon="8.55559">
        <ele>1143</ele>
        <time>2021-08-10T14:02:12.584Z</time>
      </trkpt>
      <trkpt lat="46.89034" lon="8.55559">
        <ele>1142</ele>
        <time>2021-08-10T14:02:13.583Z</time>
      </trkpt>
      <trkpt lat="46.89034" lon="8.55558">
        <ele>1142</ele>
        <time>2021-08-10T14:02:14.584Z</time>
      </trkpt>
      <trkpt lat="46.89033" lon="8.55558">
        <ele>1142</ele>
        <time>2021-08-10T14:02:15.584Z</time>
      </trkpt>
      <trkpt lat="46.89032" lon="8.55557">
        <ele>1142</ele>
        <time>2021-08-10T14:02:16.583Z</time>
      </trkpt>
      <trkpt lat="46.89031" lon="8.55556">
        <ele>1142</ele>
        <time>2021-08-10T14:02:17.584Z</time>
      </trkpt>
      <trkpt lat="46.89031" lon="8.55554">
        <ele>1142</ele>
        <time>2021-08-10T14:02:18.584Z</time>
      </trkpt>
      <trkpt lat="46.8903" lon="8.55552">
        <ele>1142</ele>
        <time>2021-08-10T14:02:19.584Z</time>
      </trkpt>
      <trkpt lat="46.89029" lon="8.55552">
        <ele>1142</ele>
        <time>2021-08-10T14:02:20.584Z</time>
      </trkpt>
      <trkpt lat="46.89028" lon="8.55551">
        <ele>1141</ele>
        <time>2021-08-10T14:02:21.584Z</time>
      </trkpt>
      <trkpt lat="46.89027" lon="8.55551">
        <ele>1141</ele>
        <time>2021-08-10T14:02:22.583Z</time>
      </trkpt>
      <trkpt lat="46.89026" lon="8.55551">
        <ele>1141</ele>
        <time>2021-08-10T14:02:23.584Z</time>
      </trkpt>
      <trkpt lat="46.89025" lon="8.5555">
        <ele>1140</ele>
        <time>2021-08-10T14:02:24.584Z</time>
      </trkpt>
      <trkpt lat="46.89025" lon="8.5555">
        <ele>1140</ele>
        <time>2021-08-10T14:02:25.584Z</time>
      </trkpt>
      <trkpt lat="46.89024" lon="8.55549">
        <ele>1139</ele>
        <time>2021-08-10T14:02:26.584Z</time>
      </trkpt>
      <trkpt lat="46.89023" lon="8.55548">
        <ele>1139</ele>
        <time>2021-08-10T14:02:27.584Z</time>
      </trkpt>
      <trkpt lat="46.89022" lon="8.55548">
        <ele>1138</ele>
        <time>2021-08-10T14:02:28.584Z</time>
      </trkpt>
      <trkpt lat="46.8902" lon="8.55547">
        <ele>1137</ele>
        <time>2021-08-10T14:02:29.584Z</time>
      </trkpt>
      <trkpt lat="46.89019" lon="8.55547">
        <ele>1136</ele>
        <time>2021-08-10T14:02:30.584Z</time>
      </trkpt>
      <trkpt lat="46.89018" lon="8.55546">
        <ele>1136</ele>
        <time>2021-08-10T14:02:31.583Z</time>
      </trkpt>
      <trkpt lat="46.89018" lon="8.55546">
        <ele>1135</ele>
        <time>2021-08-10T14:02:32.583Z</time>
      </trkpt>
      <trkpt lat="46.89017" lon="8.55545">
        <ele>1135</ele>
        <time>2021-08-10T14:02:33.584Z</time>
      </trkpt>
      <trkpt lat="46.89016" lon="8.55545">
        <ele>1135</ele>
        <time>2021-08-10T14:02:34.584Z</time>
      </trkpt>
      <trkpt lat="46.89015" lon="8.55545">
        <ele>1135</ele>
        <time>2021-08-10T14:02:35.584Z</time>
      </trkpt>
      <trkpt lat="46.89014" lon="8.55545">
        <ele>1135</ele>
        <time>2021-08-10T14:02:36.584Z</time>
      </trkpt>
      <trkpt lat="46.89014" lon="8.55544">
        <ele>1135</ele>
        <time>2021-08-10T14:02:37.584Z</time>
      </trkpt>
      <trkpt lat="46.89013" lon="8.55544">
        <ele>1134</ele>
        <time>2021-08-10T14:02:38.584Z</time>
      </trkpt>
      <trkpt lat="46.89012" lon="8.55543">
        <ele>1134</ele>
        <time>2021-08-10T14:02:39.583Z</time>
      </trkpt>
      <trkpt lat="46.89011" lon="8.55542">
        <ele>1134</ele>
        <time>2021-08-10T14:02:40.584Z</time>
      </trkpt>
      <trkpt lat="46.8901" lon="8.55542">
        <ele>1134</ele>
        <time>2021-08-10T14:02:41.584Z</time>
      </trkpt>
      <trkpt lat="46.89009" lon="8.55542">
        <ele>1134</ele>
        <time>2021-08-10T14:02:42.584Z</time>
      </trkpt>
      <trkpt lat="46.89008" lon="8.55542">
        <ele>1134</ele>
        <time>2021-08-10T14:02:43.584Z</time>
      </trkpt>
      <trkpt lat="46.89007" lon="8.55542">
        <ele>1134</ele>
        <time>2021-08-10T14:02:44.584Z</time>
      </trkpt>
      <trkpt lat="46.89006" lon="8.55541">
        <ele>1134</ele>
        <time>2021-08-10T14:02:45.583Z</time>
      </trkpt>
      <trkpt lat="46.89005" lon="8.55541">
        <ele>1134</ele>
        <time>2021-08-10T14:02:46.583Z</time>
      </trkpt>
      <trkpt lat="46.89005" lon="8.55541">
        <ele>1133</ele>
        <time>2021-08-10T14:02:47.584Z</time>
      </trkpt>
      <trkpt lat="46.89004" lon="8.5554">
        <ele>1133</ele>
        <time>2021-08-10T14:02:48.584Z</time>
      </trkpt>
      <trkpt lat="46.89003" lon="8.5554">
        <ele>1133</ele>
        <time>2021-08-10T14:02:49.584Z</time>
      </trkpt>
      <trkpt lat="46.89" lon="8.55537">
        <ele>1134</ele>
        <time>2021-08-10T14:02:50.583Z</time>
      </trkpt>
      <trkpt lat="46.88999" lon="8.55537">
        <ele>1134</ele>
        <time>2021-08-10T14:02:51.584Z</time>
      </trkpt>
      <trkpt lat="46.88999" lon="8.55537">
        <ele>1134</ele>
        <time>2021-08-10T14:02:52.583Z</time>
      </trkpt>
      <trkpt lat="46.88999" lon="8.55537">
        <ele>1134</ele>
        <time>2021-08-10T14:02:53.584Z</time>
      </trkpt>
      <trkpt lat="46.88998" lon="8.55537">
        <ele>1134</ele>
        <time>2021-08-10T14:02:56.701Z</time>
      </trkpt>
      <trkpt lat="46.88998" lon="8.55538">
        <ele>1134</ele>
        <time>2021-08-10T14:02:57.701Z</time>
      </trkpt>
      <trkpt lat="46.88998" lon="8.5554">
        <ele>1135</ele>
        <time>2021-08-10T14:02:58.704Z</time>
      </trkpt>
      <trkpt lat="46.88998" lon="8.55541">
        <ele>1136</ele>
        <time>2021-08-10T14:02:59.704Z</time>
      </trkpt>
      <trkpt lat="46.88999" lon="8.55541">
        <ele>1136</ele>
        <time>2021-08-10T14:03:00.704Z</time>
      </trkpt>
      <trkpt lat="46.88999" lon="8.55534">
        <ele>1136</ele>
        <time>2021-08-10T14:03:02.711Z</time>
      </trkpt>
      <trkpt lat="46.88998" lon="8.55534">
        <ele>1136</ele>
        <time>2021-08-10T14:03:03.711Z</time>
      </trkpt>
      <trkpt lat="46.88997" lon="8.55533">
        <ele>1135</ele>
        <time>2021-08-10T14:03:04.710Z</time>
      </trkpt>
      <trkpt lat="46.88996" lon="8.55533">
        <ele>1134</ele>
        <time>2021-08-10T14:03:05.710Z</time>
      </trkpt>
      <trkpt lat="46.88995" lon="8.55533">
        <ele>1134</ele>
        <time>2021-08-10T14:03:06.711Z</time>
      </trkpt>
      <trkpt lat="46.88994" lon="8.55533">
        <ele>1133</ele>
        <time>2021-08-10T14:03:07.711Z</time>
      </trkpt>
      <trkpt lat="46.88993" lon="8.55532">
        <ele>1133</ele>
        <time>2021-08-10T14:03:08.710Z</time>
      </trkpt>
      <trkpt lat="46.88992" lon="8.55532">
        <ele>1132</ele>
        <time>2021-08-10T14:03:09.711Z</time>
      </trkpt>
      <trkpt lat="46.88992" lon="8.55532">
        <ele>1133</ele>
        <time>2021-08-10T14:03:12.735Z</time>
      </trkpt>
      <trkpt lat="46.88992" lon="8.55532">
        <ele>1133</ele>
        <time>2021-08-10T14:03:13.736Z</time>
      </trkpt>
      <trkpt lat="46.88991" lon="8.55532">
        <ele>1133</ele>
        <time>2021-08-10T14:03:26.627Z</time>
      </trkpt>
      <trkpt lat="46.8899" lon="8.55532">
        <ele>1134</ele>
        <time>2021-08-10T14:03:27.627Z</time>
      </trkpt>
      <trkpt lat="46.88989" lon="8.55531">
        <ele>1135</ele>
        <time>2021-08-10T14:03:28.628Z</time>
      </trkpt>
      <trkpt lat="46.88988" lon="8.5553">
        <ele>1136</ele>
        <time>2021-08-10T14:03:29.627Z</time>
      </trkpt>
      <trkpt lat="46.88988" lon="8.5553">
        <ele>1137</ele>
        <time>2021-08-10T14:03:30.628Z</time>
      </trkpt>
      <trkpt lat="46.88988" lon="8.55529">
        <ele>1138</ele>
        <time>2021-08-10T14:03:31.628Z</time>
      </trkpt>
      <trkpt lat="46.88987" lon="8.55529">
        <ele>1139</ele>
        <time>2021-08-10T14:03:32.627Z</time>
      </trkpt>
      <trkpt lat="46.88987" lon="8.5553">
        <ele>1139</ele>
        <time>2021-08-10T14:03:33.627Z</time>
      </trkpt>
      <trkpt lat="46.88986" lon="8.55531">
        <ele>1139</ele>
        <time>2021-08-10T14:03:34.627Z</time>
      </trkpt>
      <trkpt lat="46.88985" lon="8.55531">
        <ele>1140</ele>
        <time>2021-08-10T14:03:35.627Z</time>
      </trkpt>
      <trkpt lat="46.88985" lon="8.55531">
        <ele>1140</ele>
        <time>2021-08-10T14:03:36.628Z</time>
      </trkpt>
      <trkpt lat="46.88984" lon="8.55531">
        <ele>1140</ele>
        <time>2021-08-10T14:03:37.628Z</time>
      </trkpt>
      <trkpt lat="46.88983" lon="8.5553">
        <ele>1140</ele>
        <time>2021-08-10T14:03:38.628Z</time>
      </trkpt>
      <trkpt lat="46.88982" lon="8.55529">
        <ele>1140</ele>
        <time>2021-08-10T14:03:39.627Z</time>
      </trkpt>
      <trkpt lat="46.88981" lon="8.55528">
        <ele>1140</ele>
        <time>2021-08-10T14:03:40.627Z</time>
      </trkpt>
      <trkpt lat="46.88981" lon="8.55527">
        <ele>1141</ele>
        <time>2021-08-10T14:03:41.628Z</time>
      </trkpt>
      <trkpt lat="46.8898" lon="8.55526">
        <ele>1141</ele>
        <time>2021-08-10T14:03:42.628Z</time>
      </trkpt>
      <trkpt lat="46.8898" lon="8.55526">
        <ele>1141</ele>
        <time>2021-08-10T14:03:43.628Z</time>
      </trkpt>
      <trkpt lat="46.88979" lon="8.55526">
        <ele>1141</ele>
        <time>2021-08-10T14:03:44.627Z</time>
      </trkpt>
      <trkpt lat="46.88978" lon="8.55526">
        <ele>1142</ele>
        <time>2021-08-10T14:03:45.627Z</time>
      </trkpt>
      <trkpt lat="46.88977" lon="8.55526">
        <ele>1142</ele>
        <time>2021-08-10T14:03:46.627Z</time>
      </trkpt>
      <trkpt lat="46.88976" lon="8.55526">
        <ele>1143</ele>
        <time>2021-08-10T14:03:47.628Z</time>
      </trkpt>
      <trkpt lat="46.88975" lon="8.55526">
        <ele>1143</ele>
        <time>2021-08-10T14:03:48.627Z</time>
      </trkpt>
      <trkpt lat="46.88974" lon="8.55525">
        <ele>1144</ele>
        <time>2021-08-10T14:03:49.628Z</time>
      </trkpt>
      <trkpt lat="46.88974" lon="8.55524">
        <ele>1144</ele>
        <time>2021-08-10T14:03:50.627Z</time>
      </trkpt>
      <trkpt lat="46.88974" lon="8.55523">
        <ele>1144</ele>
        <time>2021-08-10T14:03:51.628Z</time>
      </trkpt>
      <trkpt lat="46.88973" lon="8.55523">
        <ele>1145</ele>
        <time>2021-08-10T14:03:52.627Z</time>
      </trkpt>
      <trkpt lat="46.88974" lon="8.55523">
        <ele>1145</ele>
        <time>2021-08-10T14:03:53.627Z</time>
      </trkpt>
      <trkpt lat="46.88972" lon="8.55529">
        <ele>1147</ele>
        <time>2021-08-10T14:03:54.627Z</time>
      </trkpt>
      <trkpt lat="46.88972" lon="8.5553">
        <ele>1148</ele>
        <time>2021-08-10T14:03:55.627Z</time>
      </trkpt>
      <trkpt lat="46.88973" lon="8.55529">
        <ele>1149</ele>
        <time>2021-08-10T14:03:56.629Z</time>
      </trkpt>
      <trkpt lat="46.88973" lon="8.55529">
        <ele>1149</ele>
        <time>2021-08-10T14:03:57.628Z</time>
      </trkpt>
      <trkpt lat="46.88974" lon="8.55529">
        <ele>1149</ele>
        <time>2021-08-10T14:03:58.628Z</time>
      </trkpt>
      <trkpt lat="46.88977" lon="8.55528">
        <ele>1148</ele>
        <time>2021-08-10T14:04:02.631Z</time>
      </trkpt>
      <trkpt lat="46.88978" lon="8.55528">
        <ele>1148</ele>
        <time>2021-08-10T14:04:03.630Z</time>
      </trkpt>
      <trkpt lat="46.8898" lon="8.55536">
        <ele>1167</ele>
        <time>2021-08-10T14:04:04.630Z</time>
      </trkpt>
      <trkpt lat="46.88978" lon="8.55536">
        <ele>1167</ele>
        <time>2021-08-10T14:04:05.631Z</time>
      </trkpt>
      <trkpt lat="46.88977" lon="8.55534">
        <ele>1167</ele>
        <time>2021-08-10T14:04:06.631Z</time>
      </trkpt>
      <trkpt lat="46.88976" lon="8.55531">
        <ele>1167</ele>
        <time>2021-08-10T14:04:07.630Z</time>
      </trkpt>
      <trkpt lat="46.88975" lon="8.55529">
        <ele>1167</ele>
        <time>2021-08-10T14:04:08.630Z</time>
      </trkpt>
      <trkpt lat="46.88974" lon="8.55528">
        <ele>1166</ele>
        <time>2021-08-10T14:04:09.631Z</time>
      </trkpt>
      <trkpt lat="46.88973" lon="8.55527">
        <ele>1165</ele>
        <time>2021-08-10T14:04:10.630Z</time>
      </trkpt>
      <trkpt lat="46.88972" lon="8.55527">
        <ele>1164</ele>
        <time>2021-08-10T14:04:11.630Z</time>
      </trkpt>
      <trkpt lat="46.88971" lon="8.55526">
        <ele>1163</ele>
        <time>2021-08-10T14:04:12.631Z</time>
      </trkpt>
      <trkpt lat="46.8897" lon="8.55525">
        <ele>1163</ele>
        <time>2021-08-10T14:04:13.630Z</time>
      </trkpt>
      <trkpt lat="46.88969" lon="8.55525">
        <ele>1163</ele>
        <time>2021-08-10T14:04:14.630Z</time>
      </trkpt>
      <trkpt lat="46.88967" lon="8.55524">
        <ele>1162</ele>
        <time>2021-08-10T14:04:15.630Z</time>
      </trkpt>
      <trkpt lat="46.88967" lon="8.55523">
        <ele>1162</ele>
        <time>2021-08-10T14:04:16.631Z</time>
      </trkpt>
      <trkpt lat="46.88966" lon="8.55523">
        <ele>1162</ele>
        <time>2021-08-10T14:04:17.630Z</time>
      </trkpt>
      <trkpt lat="46.88965" lon="8.55522">
        <ele>1161</ele>
        <time>2021-08-10T14:04:18.630Z</time>
      </trkpt>
      <trkpt lat="46.88964" lon="8.55521">
        <ele>1161</ele>
        <time>2021-08-10T14:04:19.630Z</time>
      </trkpt>
      <trkpt lat="46.88963" lon="8.5552">
        <ele>1160</ele>
        <time>2021-08-10T14:04:20.631Z</time>
      </trkpt>
      <trkpt lat="46.88962" lon="8.55519">
        <ele>1160</ele>
        <time>2021-08-10T14:04:21.631Z</time>
      </trkpt>
      <trkpt lat="46.88961" lon="8.55518">
        <ele>1159</ele>
        <time>2021-08-10T14:04:22.631Z</time>
      </trkpt>
      <trkpt lat="46.8896" lon="8.55517">
        <ele>1159</ele>
        <time>2021-08-10T14:04:23.630Z</time>
      </trkpt>
      <trkpt lat="46.88959" lon="8.55516">
        <ele>1159</ele>
        <time>2021-08-10T14:04:24.630Z</time>
      </trkpt>
      <trkpt lat="46.88959" lon="8.55516">
        <ele>1158</ele>
        <time>2021-08-10T14:04:25.630Z</time>
      </trkpt>
      <trkpt lat="46.88959" lon="8.55515">
        <ele>1157</ele>
        <time>2021-08-10T14:04:26.630Z</time>
      </trkpt>
      <trkpt lat="46.88959" lon="8.55514">
        <ele>1157</ele>
        <time>2021-08-10T14:04:27.630Z</time>
      </trkpt>
      <trkpt lat="46.88959" lon="8.55512">
        <ele>1156</ele>
        <time>2021-08-10T14:04:28.630Z</time>
      </trkpt>
      <trkpt lat="46.8896" lon="8.55511">
        <ele>1156</ele>
        <time>2021-08-10T14:04:29.630Z</time>
      </trkpt>
      <trkpt lat="46.8896" lon="8.5551">
        <ele>1155</ele>
        <time>2021-08-10T14:04:30.631Z</time>
      </trkpt>
      <trkpt lat="46.88959" lon="8.5551">
        <ele>1154</ele>
        <time>2021-08-10T14:04:31.630Z</time>
      </trkpt>
      <trkpt lat="46.88959" lon="8.55511">
        <ele>1154</ele>
        <time>2021-08-10T14:04:32.630Z</time>
      </trkpt>
      <trkpt lat="46.88958" lon="8.55513">
        <ele>1152</ele>
        <time>2021-08-10T14:04:33.630Z</time>
      </trkpt>
      <trkpt lat="46.88958" lon="8.55514">
        <ele>1152</ele>
        <time>2021-08-10T14:04:34.630Z</time>
      </trkpt>
      <trkpt lat="46.88958" lon="8.55514">
        <ele>1152</ele>
        <time>2021-08-10T14:04:35.631Z</time>
      </trkpt>
      <trkpt lat="46.88958" lon="8.55514">
        <ele>1151</ele>
        <time>2021-08-10T14:04:36.631Z</time>
      </trkpt>
      <trkpt lat="46.88956" lon="8.55514">
        <ele>1150</ele>
        <time>2021-08-10T14:04:37.632Z</time>
      </trkpt>
      <trkpt lat="46.88956" lon="8.55514">
        <ele>1150</ele>
        <time>2021-08-10T14:04:38.631Z</time>
      </trkpt>
      <trkpt lat="46.88956" lon="8.55517">
        <ele>1148</ele>
        <time>2021-08-10T14:04:39.632Z</time>
      </trkpt>
      <trkpt lat="46.88957" lon="8.55517">
        <ele>1149</ele>
        <time>2021-08-10T14:04:40.631Z</time>
      </trkpt>
      <trkpt lat="46.88959" lon="8.55518">
        <ele>1153</ele>
        <time>2021-08-10T14:04:41.632Z</time>
      </trkpt>
      <trkpt lat="46.88959" lon="8.55519">
        <ele>1155</ele>
        <time>2021-08-10T14:04:42.633Z</time>
      </trkpt>
      <trkpt lat="46.88959" lon="8.55518">
        <ele>1155</ele>
        <time>2021-08-10T14:04:43.632Z</time>
      </trkpt>
      <trkpt lat="46.8896" lon="8.5552">
        <ele>1160</ele>
        <time>2021-08-10T14:04:44.633Z</time>
      </trkpt>
      <trkpt lat="46.8896" lon="8.55519">
        <ele>1160</ele>
        <time>2021-08-10T14:04:45.633Z</time>
      </trkpt>
      <trkpt lat="46.8896" lon="8.55518">
        <ele>1160</ele>
        <time>2021-08-10T14:04:46.632Z</time>
      </trkpt>
      <trkpt lat="46.8896" lon="8.55517">
        <ele>1160</ele>
        <time>2021-08-10T14:04:47.632Z</time>
      </trkpt>
      <trkpt lat="46.8896" lon="8.55517">
        <ele>1160</ele>
        <time>2021-08-10T14:04:48.633Z</time>
      </trkpt>
      <trkpt lat="46.88959" lon="8.55517">
        <ele>1159</ele>
        <time>2021-08-10T14:04:49.632Z</time>
      </trkpt>
      <trkpt lat="46.88958" lon="8.55517">
        <ele>1159</ele>
        <time>2021-08-10T14:04:50.632Z</time>
      </trkpt>
      <trkpt lat="46.88956" lon="8.55518">
        <ele>1158</ele>
        <time>2021-08-10T14:04:51.632Z</time>
      </trkpt>
      <trkpt lat="46.88954" lon="8.55518">
        <ele>1158</ele>
        <time>2021-08-10T14:04:52.632Z</time>
      </trkpt>
      <trkpt lat="46.88953" lon="8.55518">
        <ele>1157</ele>
        <time>2021-08-10T14:04:53.632Z</time>
      </trkpt>
      <trkpt lat="46.88953" lon="8.55517">
        <ele>1157</ele>
        <time>2021-08-10T14:04:54.632Z</time>
      </trkpt>
      <trkpt lat="46.88952" lon="8.55517">
        <ele>1158</ele>
        <time>2021-08-10T14:04:55.632Z</time>
      </trkpt>
      <trkpt lat="46.88952" lon="8.55517">
        <ele>1158</ele>
        <time>2021-08-10T14:04:56.633Z</time>
      </trkpt>
      <trkpt lat="46.88951" lon="8.55517">
        <ele>1158</ele>
        <time>2021-08-10T14:04:57.632Z</time>
      </trkpt>
      <trkpt lat="46.8895" lon="8.55516">
        <ele>1158</ele>
        <time>2021-08-10T14:04:58.633Z</time>
      </trkpt>
      <trkpt lat="46.88949" lon="8.55516">
        <ele>1158</ele>
        <time>2021-08-10T14:04:59.632Z</time>
      </trkpt>
      <trkpt lat="46.88948" lon="8.55516">
        <ele>1158</ele>
        <time>2021-08-10T14:05:00.633Z</time>
      </trkpt>
      <trkpt lat="46.88947" lon="8.55516">
        <ele>1158</ele>
        <time>2021-08-10T14:05:01.632Z</time>
      </trkpt>
      <trkpt lat="46.88947" lon="8.55516">
        <ele>1158</ele>
        <time>2021-08-10T14:05:02.633Z</time>
      </trkpt>
      <trkpt lat="46.88947" lon="8.55516">
        <ele>1159</ele>
        <time>2021-08-10T14:05:03.633Z</time>
      </trkpt>
      <trkpt lat="46.88945" lon="8.55517">
        <ele>1158</ele>
        <time>2021-08-10T14:05:04.632Z</time>
      </trkpt>
      <trkpt lat="46.88946" lon="8.55517">
        <ele>1158</ele>
        <time>2021-08-10T14:05:05.632Z</time>
      </trkpt>
      <trkpt lat="46.88946" lon="8.55517">
        <ele>1159</ele>
        <time>2021-08-10T14:05:07.732Z</time>
      </trkpt>
      <trkpt lat="46.88944" lon="8.55516">
        <ele>1159</ele>
        <time>2021-08-10T14:05:08.733Z</time>
      </trkpt>
      <trkpt lat="46.88944" lon="8.55516">
        <ele>1159</ele>
        <time>2021-08-10T14:05:09.733Z</time>
      </trkpt>
      <trkpt lat="46.88944" lon="8.55515">
        <ele>1159</ele>
        <time>2021-08-10T14:05:10.733Z</time>
      </trkpt>
      <trkpt lat="46.88943" lon="8.55515">
        <ele>1159</ele>
        <time>2021-08-10T14:05:11.733Z</time>
      </trkpt>
      <trkpt lat="46.88941" lon="8.55515">
        <ele>1160</ele>
        <time>2021-08-10T14:05:12.733Z</time>
      </trkpt>
      <trkpt lat="46.88941" lon="8.55515">
        <ele>1160</ele>
        <time>2021-08-10T14:05:13.733Z</time>
      </trkpt>
      <trkpt lat="46.8894" lon="8.55515">
        <ele>1161</ele>
        <time>2021-08-10T14:05:14.733Z</time>
      </trkpt>
      <trkpt lat="46.8894" lon="8.55516">
        <ele>1161</ele>
        <time>2021-08-10T14:05:15.733Z</time>
      </trkpt>
      <trkpt lat="46.8894" lon="8.55517">
        <ele>1162</ele>
        <time>2021-08-10T14:05:16.733Z</time>
      </trkpt>
      <trkpt lat="46.88939" lon="8.55517">
        <ele>1163</ele>
        <time>2021-08-10T14:05:17.734Z</time>
      </trkpt>
      <trkpt lat="46.88939" lon="8.55517">
        <ele>1164</ele>
        <time>2021-08-10T14:05:18.733Z</time>
      </trkpt>
      <trkpt lat="46.88937" lon="8.55518">
        <ele>1164</ele>
        <time>2021-08-10T14:05:19.733Z</time>
      </trkpt>
      <trkpt lat="46.88937" lon="8.55518">
        <ele>1165</ele>
        <time>2021-08-10T14:05:20.734Z</time>
      </trkpt>
      <trkpt lat="46.88936" lon="8.55519">
        <ele>1165</ele>
        <time>2021-08-10T14:05:21.734Z</time>
      </trkpt>
      <trkpt lat="46.88936" lon="8.5552">
        <ele>1165</ele>
        <time>2021-08-10T14:05:22.734Z</time>
      </trkpt>
      <trkpt lat="46.88935" lon="8.55521">
        <ele>1165</ele>
        <time>2021-08-10T14:05:23.734Z</time>
      </trkpt>
      <trkpt lat="46.88934" lon="8.55521">
        <ele>1165</ele>
        <time>2021-08-10T14:05:24.733Z</time>
      </trkpt>
      <trkpt lat="46.88933" lon="8.55522">
        <ele>1165</ele>
        <time>2021-08-10T14:05:25.734Z</time>
      </trkpt>
      <trkpt lat="46.88932" lon="8.55522">
        <ele>1165</ele>
        <time>2021-08-10T14:05:29.841Z</time>
      </trkpt>
      <trkpt lat="46.88931" lon="8.55522">
        <ele>1165</ele>
        <time>2021-08-10T14:05:30.841Z</time>
      </trkpt>
      <trkpt lat="46.8893" lon="8.55523">
        <ele>1165</ele>
        <time>2021-08-10T14:05:31.841Z</time>
      </trkpt>
      <trkpt lat="46.88928" lon="8.55523">
        <ele>1165</ele>
        <time>2021-08-10T14:05:38.646Z</time>
      </trkpt>
      <trkpt lat="46.88927" lon="8.55523">
        <ele>1165</ele>
        <time>2021-08-10T14:05:39.647Z</time>
      </trkpt>
      <trkpt lat="46.88926" lon="8.55523">
        <ele>1166</ele>
        <time>2021-08-10T14:05:40.647Z</time>
      </trkpt>
      <trkpt lat="46.88925" lon="8.55522">
        <ele>1166</ele>
        <time>2021-08-10T14:05:41.647Z</time>
      </trkpt>
      <trkpt lat="46.88924" lon="8.55522">
        <ele>1166</ele>
        <time>2021-08-10T14:05:42.646Z</time>
      </trkpt>
      <trkpt lat="46.88923" lon="8.55521">
        <ele>1166</ele>
        <time>2021-08-10T14:05:43.647Z</time>
      </trkpt>
      <trkpt lat="46.88922" lon="8.55521">
        <ele>1166</ele>
        <time>2021-08-10T14:05:44.647Z</time>
      </trkpt>
      <trkpt lat="46.8892" lon="8.55522">
        <ele>1166</ele>
        <time>2021-08-10T14:05:45.646Z</time>
      </trkpt>
      <trkpt lat="46.88918" lon="8.55522">
        <ele>1166</ele>
        <time>2021-08-10T14:05:46.646Z</time>
      </trkpt>
      <trkpt lat="46.88917" lon="8.55523">
        <ele>1165</ele>
        <time>2021-08-10T14:05:47.647Z</time>
      </trkpt>
      <trkpt lat="46.88916" lon="8.55522">
        <ele>1165</ele>
        <time>2021-08-10T14:05:48.647Z</time>
      </trkpt>
      <trkpt lat="46.88915" lon="8.55522">
        <ele>1165</ele>
        <time>2021-08-10T14:05:49.646Z</time>
      </trkpt>
      <trkpt lat="46.88914" lon="8.55522">
        <ele>1165</ele>
        <time>2021-08-10T14:05:50.647Z</time>
      </trkpt>
      <trkpt lat="46.88913" lon="8.55522">
        <ele>1166</ele>
        <time>2021-08-10T14:05:51.647Z</time>
      </trkpt>
      <trkpt lat="46.88911" lon="8.55522">
        <ele>1166</ele>
        <time>2021-08-10T14:05:52.647Z</time>
      </trkpt>
      <trkpt lat="46.88911" lon="8.55522">
        <ele>1167</ele>
        <time>2021-08-10T14:05:53.646Z</time>
      </trkpt>
      <trkpt lat="46.8891" lon="8.55522">
        <ele>1167</ele>
        <time>2021-08-10T14:05:54.646Z</time>
      </trkpt>
      <trkpt lat="46.8891" lon="8.55521">
        <ele>1167</ele>
        <time>2021-08-10T14:05:55.647Z</time>
      </trkpt>
      <trkpt lat="46.88909" lon="8.55521">
        <ele>1167</ele>
        <time>2021-08-10T14:05:56.646Z</time>
      </trkpt>
      <trkpt lat="46.88908" lon="8.55522">
        <ele>1167</ele>
        <time>2021-08-10T14:05:57.647Z</time>
      </trkpt>
      <trkpt lat="46.88907" lon="8.55522">
        <ele>1167</ele>
        <time>2021-08-10T14:05:58.646Z</time>
      </trkpt>
      <trkpt lat="46.88905" lon="8.55522">
        <ele>1167</ele>
        <time>2021-08-10T14:05:59.646Z</time>
      </trkpt>
      <trkpt lat="46.88904" lon="8.55522">
        <ele>1167</ele>
        <time>2021-08-10T14:06:00.646Z</time>
      </trkpt>
      <trkpt lat="46.88903" lon="8.55522">
        <ele>1167</ele>
        <time>2021-08-10T14:06:01.646Z</time>
      </trkpt>
      <trkpt lat="46.88902" lon="8.55521">
        <ele>1167</ele>
        <time>2021-08-10T14:06:02.646Z</time>
      </trkpt>
      <trkpt lat="46.88901" lon="8.55521">
        <ele>1167</ele>
        <time>2021-08-10T14:06:03.647Z</time>
      </trkpt>
      <trkpt lat="46.889" lon="8.5552">
        <ele>1167</ele>
        <time>2021-08-10T14:06:04.646Z</time>
      </trkpt>
      <trkpt lat="46.88899" lon="8.5552">
        <ele>1167</ele>
        <time>2021-08-10T14:06:05.646Z</time>
      </trkpt>
      <trkpt lat="46.88898" lon="8.55519">
        <ele>1168</ele>
        <time>2021-08-10T14:06:06.646Z</time>
      </trkpt>
      <trkpt lat="46.88896" lon="8.55518">
        <ele>1168</ele>
        <time>2021-08-10T14:06:07.646Z</time>
      </trkpt>
      <trkpt lat="46.88895" lon="8.55518">
        <ele>1168</ele>
        <time>2021-08-10T14:06:08.646Z</time>
      </trkpt>
      <trkpt lat="46.88895" lon="8.55517">
        <ele>1168</ele>
        <time>2021-08-10T14:06:09.646Z</time>
      </trkpt>
      <trkpt lat="46.88894" lon="8.55517">
        <ele>1168</ele>
        <time>2021-08-10T14:06:10.646Z</time>
      </trkpt>
      <trkpt lat="46.88894" lon="8.55517">
        <ele>1168</ele>
        <time>2021-08-10T14:06:11.646Z</time>
      </trkpt>
      <trkpt lat="46.88892" lon="8.55517">
        <ele>1168</ele>
        <time>2021-08-10T14:06:12.646Z</time>
      </trkpt>
      <trkpt lat="46.8889" lon="8.55516">
        <ele>1169</ele>
        <time>2021-08-10T14:06:13.646Z</time>
      </trkpt>
      <trkpt lat="46.88889" lon="8.55516">
        <ele>1169</ele>
        <time>2021-08-10T14:06:14.646Z</time>
      </trkpt>
      <trkpt lat="46.88888" lon="8.55516">
        <ele>1169</ele>
        <time>2021-08-10T14:06:15.646Z</time>
      </trkpt>
      <trkpt lat="46.88887" lon="8.55515">
        <ele>1169</ele>
        <time>2021-08-10T14:06:16.646Z</time>
      </trkpt>
      <trkpt lat="46.88885" lon="8.55516">
        <ele>1169</ele>
        <time>2021-08-10T14:06:17.647Z</time>
      </trkpt>
      <trkpt lat="46.88885" lon="8.55516">
        <ele>1170</ele>
        <time>2021-08-10T14:06:18.647Z</time>
      </trkpt>
      <trkpt lat="46.88884" lon="8.55516">
        <ele>1171</ele>
        <time>2021-08-10T14:06:19.647Z</time>
      </trkpt>
      <trkpt lat="46.88883" lon="8.55516">
        <ele>1171</ele>
        <time>2021-08-10T14:06:20.647Z</time>
      </trkpt>
      <trkpt lat="46.88881" lon="8.55516">
        <ele>1172</ele>
        <time>2021-08-10T14:06:21.647Z</time>
      </trkpt>
      <trkpt lat="46.88879" lon="8.55516">
        <ele>1173</ele>
        <time>2021-08-10T14:06:22.647Z</time>
      </trkpt>
      <trkpt lat="46.88878" lon="8.55516">
        <ele>1174</ele>
        <time>2021-08-10T14:06:23.647Z</time>
      </trkpt>
      <trkpt lat="46.88877" lon="8.55516">
        <ele>1174</ele>
        <time>2021-08-10T14:06:24.647Z</time>
      </trkpt>
      <trkpt lat="46.88877" lon="8.55516">
        <ele>1175</ele>
        <time>2021-08-10T14:06:25.646Z</time>
      </trkpt>
      <trkpt lat="46.88876" lon="8.55516">
        <ele>1175</ele>
        <time>2021-08-10T14:06:26.647Z</time>
      </trkpt>
      <trkpt lat="46.88875" lon="8.55516">
        <ele>1175</ele>
        <time>2021-08-10T14:06:27.647Z</time>
      </trkpt>
      <trkpt lat="46.88874" lon="8.55516">
        <ele>1176</ele>
        <time>2021-08-10T14:06:28.647Z</time>
      </trkpt>
      <trkpt lat="46.88873" lon="8.55516">
        <ele>1176</ele>
        <time>2021-08-10T14:06:29.647Z</time>
      </trkpt>
      <trkpt lat="46.88873" lon="8.55516">
        <ele>1177</ele>
        <time>2021-08-10T14:06:30.647Z</time>
      </trkpt>
      <trkpt lat="46.88872" lon="8.55515">
        <ele>1177</ele>
        <time>2021-08-10T14:06:31.647Z</time>
      </trkpt>
      <trkpt lat="46.88871" lon="8.55515">
        <ele>1177</ele>
        <time>2021-08-10T14:06:32.646Z</time>
      </trkpt>
      <trkpt lat="46.8887" lon="8.55514">
        <ele>1177</ele>
        <time>2021-08-10T14:06:33.647Z</time>
      </trkpt>
      <trkpt lat="46.88869" lon="8.55514">
        <ele>1177</ele>
        <time>2021-08-10T14:06:34.647Z</time>
      </trkpt>
      <trkpt lat="46.88869" lon="8.55515">
        <ele>1177</ele>
        <time>2021-08-10T14:06:35.647Z</time>
      </trkpt>
      <trkpt lat="46.88869" lon="8.55515">
        <ele>1178</ele>
        <time>2021-08-10T14:06:36.647Z</time>
      </trkpt>
      <trkpt lat="46.88868" lon="8.55514">
        <ele>1178</ele>
        <time>2021-08-10T14:06:38.714Z</time>
      </trkpt>
      <trkpt lat="46.88867" lon="8.55514">
        <ele>1179</ele>
        <time>2021-08-10T14:06:39.713Z</time>
      </trkpt>
      <trkpt lat="46.88867" lon="8.55514">
        <ele>1179</ele>
        <time>2021-08-10T14:06:40.714Z</time>
      </trkpt>
      <trkpt lat="46.88867" lon="8.55513">
        <ele>1179</ele>
        <time>2021-08-10T14:06:41.714Z</time>
      </trkpt>
      <trkpt lat="46.88866" lon="8.55512">
        <ele>1180</ele>
        <time>2021-08-10T14:06:42.713Z</time>
      </trkpt>
      <trkpt lat="46.88865" lon="8.55512">
        <ele>1181</ele>
        <time>2021-08-10T14:06:43.713Z</time>
      </trkpt>
      <trkpt lat="46.88864" lon="8.55512">
        <ele>1181</ele>
        <time>2021-08-10T14:06:44.714Z</time>
      </trkpt>
      <trkpt lat="46.88863" lon="8.55512">
        <ele>1181</ele>
        <time>2021-08-10T14:06:45.714Z</time>
      </trkpt>
      <trkpt lat="46.88862" lon="8.55512">
        <ele>1181</ele>
        <time>2021-08-10T14:06:46.714Z</time>
      </trkpt>
      <trkpt lat="46.88861" lon="8.55512">
        <ele>1180</ele>
        <time>2021-08-10T14:06:47.714Z</time>
      </trkpt>
      <trkpt lat="46.8886" lon="8.55513">
        <ele>1179</ele>
        <time>2021-08-10T14:06:48.714Z</time>
      </trkpt>
      <trkpt lat="46.88859" lon="8.55513">
        <ele>1178</ele>
        <time>2021-08-10T14:06:49.713Z</time>
      </trkpt>
      <trkpt lat="46.88857" lon="8.55513">
        <ele>1178</ele>
        <time>2021-08-10T14:06:50.713Z</time>
      </trkpt>
      <trkpt lat="46.88856" lon="8.55512">
        <ele>1177</ele>
        <time>2021-08-10T14:06:51.714Z</time>
      </trkpt>
      <trkpt lat="46.88855" lon="8.55512">
        <ele>1176</ele>
        <time>2021-08-10T14:06:52.714Z</time>
      </trkpt>
      <trkpt lat="46.88853" lon="8.55511">
        <ele>1175</ele>
        <time>2021-08-10T14:06:53.714Z</time>
      </trkpt>
      <trkpt lat="46.88852" lon="8.5551">
        <ele>1175</ele>
        <time>2021-08-10T14:06:54.714Z</time>
      </trkpt>
      <trkpt lat="46.88852" lon="8.5551">
        <ele>1174</ele>
        <time>2021-08-10T14:06:55.713Z</time>
      </trkpt>
      <trkpt lat="46.88851" lon="8.55509">
        <ele>1173</ele>
        <time>2021-08-10T14:06:56.714Z</time>
      </trkpt>
      <trkpt lat="46.8885" lon="8.55509">
        <ele>1173</ele>
        <time>2021-08-10T14:06:57.714Z</time>
      </trkpt>
      <trkpt lat="46.8885" lon="8.55509">
        <ele>1173</ele>
        <time>2021-08-10T14:06:58.714Z</time>
      </trkpt>
      <trkpt lat="46.88849" lon="8.5551">
        <ele>1173</ele>
        <time>2021-08-10T14:06:59.714Z</time>
      </trkpt>
      <trkpt lat="46.88848" lon="8.5551">
        <ele>1172</ele>
        <time>2021-08-10T14:07:00.713Z</time>
      </trkpt>
      <trkpt lat="46.88846" lon="8.55511">
        <ele>1172</ele>
        <time>2021-08-10T14:07:01.713Z</time>
      </trkpt>
      <trkpt lat="46.88844" lon="8.55511">
        <ele>1172</ele>
        <time>2021-08-10T14:07:02.713Z</time>
      </trkpt>
      <trkpt lat="46.88843" lon="8.55512">
        <ele>1172</ele>
        <time>2021-08-10T14:07:03.713Z</time>
      </trkpt>
      <trkpt lat="46.88843" lon="8.55512">
        <ele>1173</ele>
        <time>2021-08-10T14:07:04.714Z</time>
      </trkpt>
      <trkpt lat="46.88842" lon="8.55512">
        <ele>1173</ele>
        <time>2021-08-10T14:07:08.855Z</time>
      </trkpt>
      <trkpt lat="46.88841" lon="8.55512">
        <ele>1173</ele>
        <time>2021-08-10T14:07:09.856Z</time>
      </trkpt>
      <trkpt lat="46.8884" lon="8.55513">
        <ele>1172</ele>
        <time>2021-08-10T14:07:10.855Z</time>
      </trkpt>
      <trkpt lat="46.88839" lon="8.55513">
        <ele>1172</ele>
        <time>2021-08-10T14:07:11.856Z</time>
      </trkpt>
      <trkpt lat="46.88838" lon="8.55513">
        <ele>1172</ele>
        <time>2021-08-10T14:07:27.002Z</time>
      </trkpt>
      <trkpt lat="46.88837" lon="8.55513">
        <ele>1173</ele>
        <time>2021-08-10T14:07:28.002Z</time>
      </trkpt>
      <trkpt lat="46.88836" lon="8.55513">
        <ele>1173</ele>
        <time>2021-08-10T14:07:32.866Z</time>
      </trkpt>
      <trkpt lat="46.88835" lon="8.55513">
        <ele>1174</ele>
        <time>2021-08-10T14:07:33.866Z</time>
      </trkpt>
      <trkpt lat="46.88833" lon="8.55513">
        <ele>1174</ele>
        <time>2021-08-10T14:07:34.866Z</time>
      </trkpt>
      <trkpt lat="46.88831" lon="8.55514">
        <ele>1175</ele>
        <time>2021-08-10T14:07:35.866Z</time>
      </trkpt>
      <trkpt lat="46.8883" lon="8.55514">
        <ele>1175</ele>
        <time>2021-08-10T14:07:36.866Z</time>
      </trkpt>
      <trkpt lat="46.8883" lon="8.55514">
        <ele>1175</ele>
        <time>2021-08-10T14:07:37.866Z</time>
      </trkpt>
      <trkpt lat="46.88829" lon="8.55515">
        <ele>1176</ele>
        <time>2021-08-10T14:07:38.866Z</time>
      </trkpt>
      <trkpt lat="46.88828" lon="8.55515">
        <ele>1176</ele>
        <time>2021-08-10T14:07:39.866Z</time>
      </trkpt>
      <trkpt lat="46.88827" lon="8.55515">
        <ele>1175</ele>
        <time>2021-08-10T14:07:40.866Z</time>
      </trkpt>
      <trkpt lat="46.88826" lon="8.55516">
        <ele>1175</ele>
        <time>2021-08-10T14:07:41.866Z</time>
      </trkpt>
      <trkpt lat="46.88826" lon="8.55517">
        <ele>1175</ele>
        <time>2021-08-10T14:07:42.866Z</time>
      </trkpt>
      <trkpt lat="46.88825" lon="8.55518">
        <ele>1174</ele>
        <time>2021-08-10T14:07:43.866Z</time>
      </trkpt>
      <trkpt lat="46.88825" lon="8.55518">
        <ele>1174</ele>
        <time>2021-08-10T14:07:44.866Z</time>
      </trkpt>
      <trkpt lat="46.88824" lon="8.55519">
        <ele>1174</ele>
        <time>2021-08-10T14:07:45.866Z</time>
      </trkpt>
      <trkpt lat="46.88823" lon="8.55519">
        <ele>1173</ele>
        <time>2021-08-10T14:07:46.867Z</time>
      </trkpt>
      <trkpt lat="46.88823" lon="8.55519">
        <ele>1173</ele>
        <time>2021-08-10T14:07:47.866Z</time>
      </trkpt>
      <trkpt lat="46.88822" lon="8.55518">
        <ele>1172</ele>
        <time>2021-08-10T14:07:48.866Z</time>
      </trkpt>
      <trkpt lat="46.88822" lon="8.55519">
        <ele>1171</ele>
        <time>2021-08-10T14:07:52.969Z</time>
      </trkpt>
      <trkpt lat="46.88821" lon="8.55519">
        <ele>1171</ele>
        <time>2021-08-10T14:07:53.968Z</time>
      </trkpt>
      <trkpt lat="46.8882" lon="8.5552">
        <ele>1170</ele>
        <time>2021-08-10T14:07:54.969Z</time>
      </trkpt>
      <trkpt lat="46.8882" lon="8.55521">
        <ele>1170</ele>
        <time>2021-08-10T14:07:55.969Z</time>
      </trkpt>
      <trkpt lat="46.8882" lon="8.55522">
        <ele>1169</ele>
        <time>2021-08-10T14:07:56.969Z</time>
      </trkpt>
      <trkpt lat="46.88819" lon="8.55523">
        <ele>1169</ele>
        <time>2021-08-10T14:07:57.969Z</time>
      </trkpt>
      <trkpt lat="46.88818" lon="8.55524">
        <ele>1169</ele>
        <time>2021-08-10T14:07:58.969Z</time>
      </trkpt>
      <trkpt lat="46.88816" lon="8.55525">
        <ele>1169</ele>
        <time>2021-08-10T14:07:59.969Z</time>
      </trkpt>
      <trkpt lat="46.88815" lon="8.55526">
        <ele>1169</ele>
        <time>2021-08-10T14:08:00.969Z</time>
      </trkpt>
      <trkpt lat="46.88813" lon="8.55526">
        <ele>1169</ele>
        <time>2021-08-10T14:08:01.969Z</time>
      </trkpt>
      <trkpt lat="46.88812" lon="8.55526">
        <ele>1169</ele>
        <time>2021-08-10T14:08:02.969Z</time>
      </trkpt>
      <trkpt lat="46.8881" lon="8.55526">
        <ele>1169</ele>
        <time>2021-08-10T14:08:03.968Z</time>
      </trkpt>
      <trkpt lat="46.88809" lon="8.55527">
        <ele>1169</ele>
        <time>2021-08-10T14:08:04.968Z</time>
      </trkpt>
      <trkpt lat="46.88809" lon="8.55528">
        <ele>1169</ele>
        <time>2021-08-10T14:08:05.969Z</time>
      </trkpt>
      <trkpt lat="46.88808" lon="8.55528">
        <ele>1169</ele>
        <time>2021-08-10T14:08:06.969Z</time>
      </trkpt>
      <trkpt lat="46.88807" lon="8.55529">
        <ele>1170</ele>
        <time>2021-08-10T14:08:07.969Z</time>
      </trkpt>
      <trkpt lat="46.88806" lon="8.55529">
        <ele>1170</ele>
        <time>2021-08-10T14:08:08.968Z</time>
      </trkpt>
      <trkpt lat="46.88804" lon="8.5553">
        <ele>1171</ele>
        <time>2021-08-10T14:08:09.969Z</time>
      </trkpt>
      <trkpt lat="46.88803" lon="8.5553">
        <ele>1171</ele>
        <time>2021-08-10T14:08:10.968Z</time>
      </trkpt>
      <trkpt lat="46.88802" lon="8.55531">
        <ele>1171</ele>
        <time>2021-08-10T14:08:11.968Z</time>
      </trkpt>
      <trkpt lat="46.88801" lon="8.55532">
        <ele>1171</ele>
        <time>2021-08-10T14:08:12.968Z</time>
      </trkpt>
      <trkpt lat="46.888" lon="8.55532">
        <ele>1172</ele>
        <time>2021-08-10T14:08:13.969Z</time>
      </trkpt>
      <trkpt lat="46.88799" lon="8.55532">
        <ele>1172</ele>
        <time>2021-08-10T14:08:14.969Z</time>
      </trkpt>
      <trkpt lat="46.88798" lon="8.55532">
        <ele>1172</ele>
        <time>2021-08-10T14:08:15.969Z</time>
      </trkpt>
      <trkpt lat="46.88797" lon="8.55532">
        <ele>1172</ele>
        <time>2021-08-10T14:08:16.969Z</time>
      </trkpt>
      <trkpt lat="46.88796" lon="8.55532">
        <ele>1172</ele>
        <time>2021-08-10T14:08:17.969Z</time>
      </trkpt>
      <trkpt lat="46.88795" lon="8.55532">
        <ele>1172</ele>
        <time>2021-08-10T14:08:18.969Z</time>
      </trkpt>
      <trkpt lat="46.88794" lon="8.55533">
        <ele>1173</ele>
        <time>2021-08-10T14:08:19.968Z</time>
      </trkpt>
      <trkpt lat="46.88794" lon="8.55533">
        <ele>1174</ele>
        <time>2021-08-10T14:08:20.969Z</time>
      </trkpt>
      <trkpt lat="46.88794" lon="8.55534">
        <ele>1174</ele>
        <time>2021-08-10T14:08:21.969Z</time>
      </trkpt>
      <trkpt lat="46.88793" lon="8.55534">
        <ele>1175</ele>
        <time>2021-08-10T14:08:22.969Z</time>
      </trkpt>
      <trkpt lat="46.88792" lon="8.55534">
        <ele>1175</ele>
        <time>2021-08-10T14:08:23.969Z</time>
      </trkpt>
      <trkpt lat="46.88791" lon="8.55534">
        <ele>1176</ele>
        <time>2021-08-10T14:08:24.968Z</time>
      </trkpt>
      <trkpt lat="46.8879" lon="8.55535">
        <ele>1176</ele>
        <time>2021-08-10T14:08:25.969Z</time>
      </trkpt>
      <trkpt lat="46.8879" lon="8.55535">
        <ele>1177</ele>
        <time>2021-08-10T14:08:26.969Z</time>
      </trkpt>
      <trkpt lat="46.88789" lon="8.55535">
        <ele>1178</ele>
        <time>2021-08-10T14:08:29.001Z</time>
      </trkpt>
      <trkpt lat="46.88789" lon="8.55536">
        <ele>1178</ele>
        <time>2021-08-10T14:08:30.002Z</time>
      </trkpt>
      <trkpt lat="46.88788" lon="8.55535">
        <ele>1179</ele>
        <time>2021-08-10T14:08:31.001Z</time>
      </trkpt>
      <trkpt lat="46.88788" lon="8.55536">
        <ele>1180</ele>
        <time>2021-08-10T14:08:32.001Z</time>
      </trkpt>
      <trkpt lat="46.88787" lon="8.55538">
        <ele>1181</ele>
        <time>2021-08-10T14:08:33.002Z</time>
      </trkpt>
      <trkpt lat="46.88787" lon="8.55539">
        <ele>1181</ele>
        <time>2021-08-10T14:08:34.002Z</time>
      </trkpt>
      <trkpt lat="46.88787" lon="8.55539">
        <ele>1182</ele>
        <time>2021-08-10T14:08:35.002Z</time>
      </trkpt>
      <trkpt lat="46.88786" lon="8.5554">
        <ele>1183</ele>
        <time>2021-08-10T14:08:36.002Z</time>
      </trkpt>
      <trkpt lat="46.88785" lon="8.5554">
        <ele>1184</ele>
        <time>2021-08-10T14:08:37.001Z</time>
      </trkpt>
      <trkpt lat="46.88784" lon="8.55541">
        <ele>1185</ele>
        <time>2021-08-10T14:08:38.002Z</time>
      </trkpt>
      <trkpt lat="46.88782" lon="8.55543">
        <ele>1186</ele>
        <time>2021-08-10T14:08:39.002Z</time>
      </trkpt>
      <trkpt lat="46.88781" lon="8.55544">
        <ele>1186</ele>
        <time>2021-08-10T14:08:41.107Z</time>
      </trkpt>
      <trkpt lat="46.88781" lon="8.55544">
        <ele>1187</ele>
        <time>2021-08-10T14:08:42.107Z</time>
      </trkpt>
      <trkpt lat="46.88779" lon="8.55545">
        <ele>1187</ele>
        <time>2021-08-10T14:08:43.107Z</time>
      </trkpt>
      <trkpt lat="46.88778" lon="8.55545">
        <ele>1187</ele>
        <time>2021-08-10T14:08:44.106Z</time>
      </trkpt>
      <trkpt lat="46.88777" lon="8.55545">
        <ele>1187</ele>
        <time>2021-08-10T14:08:45.106Z</time>
      </trkpt>
      <trkpt lat="46.88777" lon="8.55545">
        <ele>1187</ele>
        <time>2021-08-10T14:08:46.106Z</time>
      </trkpt>
      <trkpt lat="46.88777" lon="8.55544">
        <ele>1187</ele>
        <time>2021-08-10T14:08:47.107Z</time>
      </trkpt>
      <trkpt lat="46.88776" lon="8.55544">
        <ele>1187</ele>
        <time>2021-08-10T14:08:48.107Z</time>
      </trkpt>
      <trkpt lat="46.88775" lon="8.55544">
        <ele>1187</ele>
        <time>2021-08-10T14:08:49.107Z</time>
      </trkpt>
      <trkpt lat="46.88774" lon="8.55545">
        <ele>1187</ele>
        <time>2021-08-10T14:08:50.107Z</time>
      </trkpt>
      <trkpt lat="46.88774" lon="8.55545">
        <ele>1187</ele>
        <time>2021-08-10T14:08:51.107Z</time>
      </trkpt>
      <trkpt lat="46.88773" lon="8.55545">
        <ele>1186</ele>
        <time>2021-08-10T14:08:52.106Z</time>
      </trkpt>
      <trkpt lat="46.88772" lon="8.55545">
        <ele>1186</ele>
        <time>2021-08-10T14:08:53.107Z</time>
      </trkpt>
      <trkpt lat="46.88771" lon="8.55546">
        <ele>1185</ele>
        <time>2021-08-10T14:08:54.106Z</time>
      </trkpt>
      <trkpt lat="46.8877" lon="8.55546">
        <ele>1184</ele>
        <time>2021-08-10T14:08:55.107Z</time>
      </trkpt>
      <trkpt lat="46.88769" lon="8.55546">
        <ele>1184</ele>
        <time>2021-08-10T14:08:56.107Z</time>
      </trkpt>
      <trkpt lat="46.88768" lon="8.55546">
        <ele>1183</ele>
        <time>2021-08-10T14:08:57.107Z</time>
      </trkpt>
      <trkpt lat="46.88767" lon="8.55545">
        <ele>1183</ele>
        <time>2021-08-10T14:08:58.106Z</time>
      </trkpt>
      <trkpt lat="46.88766" lon="8.55544">
        <ele>1183</ele>
        <time>2021-08-10T14:08:59.106Z</time>
      </trkpt>
      <trkpt lat="46.88764" lon="8.55544">
        <ele>1183</ele>
        <time>2021-08-10T14:09:00.107Z</time>
      </trkpt>
      <trkpt lat="46.88763" lon="8.55543">
        <ele>1183</ele>
        <time>2021-08-10T14:09:01.107Z</time>
      </trkpt>
      <trkpt lat="46.88762" lon="8.55543">
        <ele>1182</ele>
        <time>2021-08-10T14:09:02.107Z</time>
      </trkpt>
      <trkpt lat="46.88762" lon="8.55543">
        <ele>1182</ele>
        <time>2021-08-10T14:09:03.106Z</time>
      </trkpt>
      <trkpt lat="46.88761" lon="8.55543">
        <ele>1182</ele>
        <time>2021-08-10T14:09:04.107Z</time>
      </trkpt>
      <trkpt lat="46.8876" lon="8.55543">
        <ele>1182</ele>
        <time>2021-08-10T14:09:05.107Z</time>
      </trkpt>
      <trkpt lat="46.8876" lon="8.55542">
        <ele>1183</ele>
        <time>2021-08-10T14:09:06.106Z</time>
      </trkpt>
      <trkpt lat="46.88759" lon="8.55542">
        <ele>1183</ele>
        <time>2021-08-10T14:09:07.107Z</time>
      </trkpt>
      <trkpt lat="46.88758" lon="8.55542">
        <ele>1183</ele>
        <time>2021-08-10T14:09:08.107Z</time>
      </trkpt>
      <trkpt lat="46.88758" lon="8.55542">
        <ele>1184</ele>
        <time>2021-08-10T14:09:09.106Z</time>
      </trkpt>
      <trkpt lat="46.88757" lon="8.55541">
        <ele>1184</ele>
        <time>2021-08-10T14:09:10.107Z</time>
      </trkpt>
      <trkpt lat="46.88757" lon="8.55541">
        <ele>1184</ele>
        <time>2021-08-10T14:09:11.106Z</time>
      </trkpt>
      <trkpt lat="46.88756" lon="8.5554">
        <ele>1185</ele>
        <time>2021-08-10T14:09:12.106Z</time>
      </trkpt>
      <trkpt lat="46.88756" lon="8.55539">
        <ele>1185</ele>
        <time>2021-08-10T14:09:13.107Z</time>
      </trkpt>
      <trkpt lat="46.88755" lon="8.55538">
        <ele>1185</ele>
        <time>2021-08-10T14:09:14.107Z</time>
      </trkpt>
      <trkpt lat="46.88755" lon="8.55537">
        <ele>1186</ele>
        <time>2021-08-10T14:09:15.106Z</time>
      </trkpt>
      <trkpt lat="46.88752" lon="8.55535">
        <ele>1186</ele>
        <time>2021-08-10T14:09:16.107Z</time>
      </trkpt>
      <trkpt lat="46.8875" lon="8.55535">
        <ele>1186</ele>
        <time>2021-08-10T14:09:17.106Z</time>
      </trkpt>
      <trkpt lat="46.88749" lon="8.55534">
        <ele>1186</ele>
        <time>2021-08-10T14:09:18.106Z</time>
      </trkpt>
      <trkpt lat="46.88747" lon="8.55534">
        <ele>1187</ele>
        <time>2021-08-10T14:09:19.106Z</time>
      </trkpt>
      <trkpt lat="46.88746" lon="8.55534">
        <ele>1187</ele>
        <time>2021-08-10T14:09:20.106Z</time>
      </trkpt>
      <trkpt lat="46.88745" lon="8.55533">
        <ele>1187</ele>
        <time>2021-08-10T14:09:21.107Z</time>
      </trkpt>
      <trkpt lat="46.88744" lon="8.55532">
        <ele>1187</ele>
        <time>2021-08-10T14:09:22.107Z</time>
      </trkpt>
      <trkpt lat="46.88742" lon="8.55532">
        <ele>1188</ele>
        <time>2021-08-10T14:09:23.107Z</time>
      </trkpt>
      <trkpt lat="46.88741" lon="8.55533">
        <ele>1188</ele>
        <time>2021-08-10T14:09:24.107Z</time>
      </trkpt>
      <trkpt lat="46.88739" lon="8.55534">
        <ele>1188</ele>
        <time>2021-08-10T14:09:25.107Z</time>
      </trkpt>
      <trkpt lat="46.88738" lon="8.55534">
        <ele>1188</ele>
        <time>2021-08-10T14:09:26.107Z</time>
      </trkpt>
      <trkpt lat="46.88737" lon="8.55534">
        <ele>1188</ele>
        <time>2021-08-10T14:09:32.211Z</time>
      </trkpt>
      <trkpt lat="46.88735" lon="8.55533">
        <ele>1189</ele>
        <time>2021-08-10T14:09:33.211Z</time>
      </trkpt>
      <trkpt lat="46.88734" lon="8.55532">
        <ele>1188</ele>
        <time>2021-08-10T14:09:34.212Z</time>
      </trkpt>
      <trkpt lat="46.88732" lon="8.55532">
        <ele>1189</ele>
        <time>2021-08-10T14:09:35.212Z</time>
      </trkpt>
      <trkpt lat="46.8873" lon="8.55532">
        <ele>1189</ele>
        <time>2021-08-10T14:09:36.212Z</time>
      </trkpt>
      <trkpt lat="46.88728" lon="8.55531">
        <ele>1189</ele>
        <time>2021-08-10T14:09:37.212Z</time>
      </trkpt>
      <trkpt lat="46.88727" lon="8.55531">
        <ele>1189</ele>
        <time>2021-08-10T14:09:38.212Z</time>
      </trkpt>
      <trkpt lat="46.88726" lon="8.5553">
        <ele>1189</ele>
        <time>2021-08-10T14:09:39.211Z</time>
      </trkpt>
      <trkpt lat="46.88725" lon="8.55528">
        <ele>1190</ele>
        <time>2021-08-10T14:09:40.212Z</time>
      </trkpt>
      <trkpt lat="46.88724" lon="8.55527">
        <ele>1190</ele>
        <time>2021-08-10T14:09:41.212Z</time>
      </trkpt>
      <trkpt lat="46.88724" lon="8.55526">
        <ele>1191</ele>
        <time>2021-08-10T14:09:42.212Z</time>
      </trkpt>
      <trkpt lat="46.88724" lon="8.55525">
        <ele>1191</ele>
        <time>2021-08-10T14:09:43.211Z</time>
      </trkpt>
      <trkpt lat="46.88723" lon="8.55524">
        <ele>1192</ele>
        <time>2021-08-10T14:09:44.212Z</time>
      </trkpt>
      <trkpt lat="46.88722" lon="8.55524">
        <ele>1192</ele>
        <time>2021-08-10T14:09:45.212Z</time>
      </trkpt>
      <trkpt lat="46.88722" lon="8.55524">
        <ele>1192</ele>
        <time>2021-08-10T14:09:46.211Z</time>
      </trkpt>
      <trkpt lat="46.88721" lon="8.55523">
        <ele>1192</ele>
        <time>2021-08-10T14:09:47.212Z</time>
      </trkpt>
      <trkpt lat="46.88721" lon="8.55523">
        <ele>1193</ele>
        <time>2021-08-10T14:09:48.212Z</time>
      </trkpt>
      <trkpt lat="46.8872" lon="8.55523">
        <ele>1193</ele>
        <time>2021-08-10T14:09:49.212Z</time>
      </trkpt>
      <trkpt lat="46.88719" lon="8.55522">
        <ele>1193</ele>
        <time>2021-08-10T14:09:50.212Z</time>
      </trkpt>
      <trkpt lat="46.88718" lon="8.55522">
        <ele>1193</ele>
        <time>2021-08-10T14:09:51.212Z</time>
      </trkpt>
      <trkpt lat="46.88718" lon="8.55522">
        <ele>1193</ele>
        <time>2021-08-10T14:09:52.212Z</time>
      </trkpt>
      <trkpt lat="46.88717" lon="8.55521">
        <ele>1193</ele>
        <time>2021-08-10T14:09:53.212Z</time>
      </trkpt>
      <trkpt lat="46.88718" lon="8.55521">
        <ele>1192</ele>
        <time>2021-08-10T14:09:54.211Z</time>
      </trkpt>
      <trkpt lat="46.88719" lon="8.55521">
        <ele>1191</ele>
        <time>2021-08-10T14:09:55.211Z</time>
      </trkpt>
      <trkpt lat="46.88719" lon="8.55521">
        <ele>1191</ele>
        <time>2021-08-10T14:09:56.211Z</time>
      </trkpt>
      <trkpt lat="46.8872" lon="8.55521">
        <ele>1189</ele>
        <time>2021-08-10T14:09:57.213Z</time>
      </trkpt>
      <trkpt lat="46.88721" lon="8.55521">
        <ele>1189</ele>
        <time>2021-08-10T14:09:58.213Z</time>
      </trkpt>
      <trkpt lat="46.88726" lon="8.55522">
        <ele>1185</ele>
        <time>2021-08-10T14:09:59.213Z</time>
      </trkpt>
      <trkpt lat="46.88728" lon="8.55523">
        <ele>1185</ele>
        <time>2021-08-10T14:10:00.212Z</time>
      </trkpt>
      <trkpt lat="46.88729" lon="8.55523">
        <ele>1185</ele>
        <time>2021-08-10T14:10:01.212Z</time>
      </trkpt>
      <trkpt lat="46.88731" lon="8.55523">
        <ele>1184</ele>
        <time>2021-08-10T14:10:07.230Z</time>
      </trkpt>
      <trkpt lat="46.88731" lon="8.55522">
        <ele>1184</ele>
        <time>2021-08-10T14:10:08.230Z</time>
      </trkpt>
      <trkpt lat="46.8873" lon="8.55522">
        <ele>1184</ele>
        <time>2021-08-10T14:10:09.230Z</time>
      </trkpt>
      <trkpt lat="46.8873" lon="8.55521">
        <ele>1184</ele>
        <time>2021-08-10T14:10:10.230Z</time>
      </trkpt>
      <trkpt lat="46.88729" lon="8.5552">
        <ele>1184</ele>
        <time>2021-08-10T14:10:11.230Z</time>
      </trkpt>
      <trkpt lat="46.88728" lon="8.55519">
        <ele>1184</ele>
        <time>2021-08-10T14:10:12.230Z</time>
      </trkpt>
      <trkpt lat="46.88728" lon="8.55519">
        <ele>1184</ele>
        <time>2021-08-10T14:10:13.231Z</time>
      </trkpt>
      <trkpt lat="46.88727" lon="8.55519">
        <ele>1184</ele>
        <time>2021-08-10T14:10:14.230Z</time>
      </trkpt>
      <trkpt lat="46.88727" lon="8.55519">
        <ele>1184</ele>
        <time>2021-08-10T14:10:15.231Z</time>
      </trkpt>
      <trkpt lat="46.88726" lon="8.55519">
        <ele>1184</ele>
        <time>2021-08-10T14:10:16.231Z</time>
      </trkpt>
      <trkpt lat="46.88725" lon="8.55519">
        <ele>1184</ele>
        <time>2021-08-10T14:10:17.231Z</time>
      </trkpt>
      <trkpt lat="46.88724" lon="8.55518">
        <ele>1184</ele>
        <time>2021-08-10T14:10:18.230Z</time>
      </trkpt>
      <trkpt lat="46.88724" lon="8.55518">
        <ele>1184</ele>
        <time>2021-08-10T14:10:19.231Z</time>
      </trkpt>
      <trkpt lat="46.88724" lon="8.55518">
        <ele>1184</ele>
        <time>2021-08-10T14:10:20.230Z</time>
      </trkpt>
      <trkpt lat="46.88724" lon="8.55517">
        <ele>1184</ele>
        <time>2021-08-10T14:10:21.231Z</time>
      </trkpt>
      <trkpt lat="46.88723" lon="8.55517">
        <ele>1185</ele>
        <time>2021-08-10T14:10:22.230Z</time>
      </trkpt>
      <trkpt lat="46.88723" lon="8.55516">
        <ele>1185</ele>
        <time>2021-08-10T14:10:23.231Z</time>
      </trkpt>
      <trkpt lat="46.88721" lon="8.55514">
        <ele>1185</ele>
        <time>2021-08-10T14:10:29.374Z</time>
      </trkpt>
      <trkpt lat="46.88721" lon="8.55513">
        <ele>1186</ele>
        <time>2021-08-10T14:10:38.268Z</time>
      </trkpt>
      <trkpt lat="46.8872" lon="8.55512">
        <ele>1186</ele>
        <time>2021-08-10T14:10:39.268Z</time>
      </trkpt>
      <trkpt lat="46.8872" lon="8.55511">
        <ele>1187</ele>
        <time>2021-08-10T14:10:40.267Z</time>
      </trkpt>
      <trkpt lat="46.8872" lon="8.55509">
        <ele>1187</ele>
        <time>2021-08-10T14:10:41.268Z</time>
      </trkpt>
      <trkpt lat="46.88719" lon="8.55508">
        <ele>1188</ele>
        <time>2021-08-10T14:10:42.268Z</time>
      </trkpt>
      <trkpt lat="46.88718" lon="8.55508">
        <ele>1188</ele>
        <time>2021-08-10T14:10:43.268Z</time>
      </trkpt>
      <trkpt lat="46.88718" lon="8.55508">
        <ele>1189</ele>
        <time>2021-08-10T14:10:44.268Z</time>
      </trkpt>
      <trkpt lat="46.88717" lon="8.55507">
        <ele>1189</ele>
        <time>2021-08-10T14:10:45.268Z</time>
      </trkpt>
      <trkpt lat="46.88716" lon="8.55506">
        <ele>1190</ele>
        <time>2021-08-10T14:10:46.268Z</time>
      </trkpt>
      <trkpt lat="46.88716" lon="8.55505">
        <ele>1190</ele>
        <time>2021-08-10T14:10:47.268Z</time>
      </trkpt>
      <trkpt lat="46.88714" lon="8.55503">
        <ele>1191</ele>
        <time>2021-08-10T14:10:48.268Z</time>
      </trkpt>
      <trkpt lat="46.88713" lon="8.55502">
        <ele>1191</ele>
        <time>2021-08-10T14:10:49.267Z</time>
      </trkpt>
      <trkpt lat="46.88711" lon="8.55501">
        <ele>1192</ele>
        <time>2021-08-10T14:10:50.268Z</time>
      </trkpt>
      <trkpt lat="46.88711" lon="8.555">
        <ele>1192</ele>
        <time>2021-08-10T14:10:51.267Z</time>
      </trkpt>
      <trkpt lat="46.8871" lon="8.55499">
        <ele>1192</ele>
        <time>2021-08-10T14:10:52.267Z</time>
      </trkpt>
      <trkpt lat="46.8871" lon="8.55498">
        <ele>1192</ele>
        <time>2021-08-10T14:10:53.268Z</time>
      </trkpt>
      <trkpt lat="46.88709" lon="8.55497">
        <ele>1192</ele>
        <time>2021-08-10T14:10:54.267Z</time>
      </trkpt>
      <trkpt lat="46.88709" lon="8.55496">
        <ele>1191</ele>
        <time>2021-08-10T14:10:55.268Z</time>
      </trkpt>
      <trkpt lat="46.88707" lon="8.55496">
        <ele>1191</ele>
        <time>2021-08-10T14:10:56.268Z</time>
      </trkpt>
      <trkpt lat="46.88707" lon="8.55495">
        <ele>1191</ele>
        <time>2021-08-10T14:10:57.267Z</time>
      </trkpt>
      <trkpt lat="46.88706" lon="8.55494">
        <ele>1191</ele>
        <time>2021-08-10T14:10:58.267Z</time>
      </trkpt>
      <trkpt lat="46.88706" lon="8.55493">
        <ele>1190</ele>
        <time>2021-08-10T14:10:59.268Z</time>
      </trkpt>
      <trkpt lat="46.88706" lon="8.55493">
        <ele>1190</ele>
        <time>2021-08-10T14:11:00.268Z</time>
      </trkpt>
      <trkpt lat="46.88705" lon="8.55492">
        <ele>1190</ele>
        <time>2021-08-10T14:11:01.267Z</time>
      </trkpt>
      <trkpt lat="46.88704" lon="8.55491">
        <ele>1190</ele>
        <time>2021-08-10T14:11:02.267Z</time>
      </trkpt>
      <trkpt lat="46.88704" lon="8.55491">
        <ele>1190</ele>
        <time>2021-08-10T14:11:03.268Z</time>
      </trkpt>
      <trkpt lat="46.88703" lon="8.5549">
        <ele>1190</ele>
        <time>2021-08-10T14:11:04.267Z</time>
      </trkpt>
      <trkpt lat="46.88702" lon="8.5549">
        <ele>1190</ele>
        <time>2021-08-10T14:11:05.268Z</time>
      </trkpt>
      <trkpt lat="46.88701" lon="8.5549">
        <ele>1190</ele>
        <time>2021-08-10T14:11:06.268Z</time>
      </trkpt>
      <trkpt lat="46.88701" lon="8.5549">
        <ele>1191</ele>
        <time>2021-08-10T14:11:07.267Z</time>
      </trkpt>
      <trkpt lat="46.887" lon="8.5549">
        <ele>1191</ele>
        <time>2021-08-10T14:11:08.268Z</time>
      </trkpt>
      <trkpt lat="46.88699" lon="8.5549">
        <ele>1192</ele>
        <time>2021-08-10T14:11:09.268Z</time>
      </trkpt>
      <trkpt lat="46.88699" lon="8.55489">
        <ele>1193</ele>
        <time>2021-08-10T14:11:10.267Z</time>
      </trkpt>
      <trkpt lat="46.88698" lon="8.55489">
        <ele>1193</ele>
        <time>2021-08-10T14:11:11.267Z</time>
      </trkpt>
      <trkpt lat="46.88698" lon="8.55488">
        <ele>1194</ele>
        <time>2021-08-10T14:11:12.267Z</time>
      </trkpt>
      <trkpt lat="46.88697" lon="8.55486">
        <ele>1194</ele>
        <time>2021-08-10T14:11:13.267Z</time>
      </trkpt>
      <trkpt lat="46.88697" lon="8.55485">
        <ele>1194</ele>
        <time>2021-08-10T14:11:14.267Z</time>
      </trkpt>
      <trkpt lat="46.88696" lon="8.55484">
        <ele>1194</ele>
        <time>2021-08-10T14:11:15.267Z</time>
      </trkpt>
      <trkpt lat="46.88695" lon="8.55484">
        <ele>1195</ele>
        <time>2021-08-10T14:11:16.267Z</time>
      </trkpt>
      <trkpt lat="46.88695" lon="8.55483">
        <ele>1196</ele>
        <time>2021-08-10T14:11:17.268Z</time>
      </trkpt>
      <trkpt lat="46.88695" lon="8.55482">
        <ele>1196</ele>
        <time>2021-08-10T14:11:18.267Z</time>
      </trkpt>
      <trkpt lat="46.88695" lon="8.55481">
        <ele>1197</ele>
        <time>2021-08-10T14:11:19.267Z</time>
      </trkpt>
      <trkpt lat="46.88694" lon="8.5548">
        <ele>1197</ele>
        <time>2021-08-10T14:11:20.268Z</time>
      </trkpt>
      <trkpt lat="46.88694" lon="8.5548">
        <ele>1198</ele>
        <time>2021-08-10T14:11:21.267Z</time>
      </trkpt>
      <trkpt lat="46.88694" lon="8.55478">
        <ele>1198</ele>
        <time>2021-08-10T14:11:22.267Z</time>
      </trkpt>
      <trkpt lat="46.88694" lon="8.55477">
        <ele>1199</ele>
        <time>2021-08-10T14:11:23.267Z</time>
      </trkpt>
      <trkpt lat="46.88693" lon="8.55477">
        <ele>1199</ele>
        <time>2021-08-10T14:11:24.267Z</time>
      </trkpt>
      <trkpt lat="46.88692" lon="8.55476">
        <ele>1200</ele>
        <time>2021-08-10T14:11:25.267Z</time>
      </trkpt>
      <trkpt lat="46.88693" lon="8.55474">
        <ele>1200</ele>
        <time>2021-08-10T14:11:26.267Z</time>
      </trkpt>
      <trkpt lat="46.88692" lon="8.55473">
        <ele>1201</ele>
        <time>2021-08-10T14:11:27.267Z</time>
      </trkpt>
      <trkpt lat="46.88691" lon="8.55473">
        <ele>1201</ele>
        <time>2021-08-10T14:11:28.267Z</time>
      </trkpt>
      <trkpt lat="46.88691" lon="8.55473">
        <ele>1202</ele>
        <time>2021-08-10T14:11:29.267Z</time>
      </trkpt>
      <trkpt lat="46.8869" lon="8.55473">
        <ele>1202</ele>
        <time>2021-08-10T14:11:30.267Z</time>
      </trkpt>
      <trkpt lat="46.88689" lon="8.55472">
        <ele>1203</ele>
        <time>2021-08-10T14:11:31.267Z</time>
      </trkpt>
      <trkpt lat="46.88688" lon="8.55472">
        <ele>1203</ele>
        <time>2021-08-10T14:11:32.267Z</time>
      </trkpt>
      <trkpt lat="46.88688" lon="8.55472">
        <ele>1204</ele>
        <time>2021-08-10T14:11:33.267Z</time>
      </trkpt>
      <trkpt lat="46.88687" lon="8.55471">
        <ele>1204</ele>
        <time>2021-08-10T14:11:34.267Z</time>
      </trkpt>
      <trkpt lat="46.88686" lon="8.55471">
        <ele>1205</ele>
        <time>2021-08-10T14:11:35.267Z</time>
      </trkpt>
      <trkpt lat="46.88685" lon="8.55471">
        <ele>1205</ele>
        <time>2021-08-10T14:11:36.267Z</time>
      </trkpt>
      <trkpt lat="46.88684" lon="8.5547">
        <ele>1206</ele>
        <time>2021-08-10T14:11:40.352Z</time>
      </trkpt>
      <trkpt lat="46.88683" lon="8.55469">
        <ele>1207</ele>
        <time>2021-08-10T14:11:41.352Z</time>
      </trkpt>
      <trkpt lat="46.88682" lon="8.55468">
        <ele>1207</ele>
        <time>2021-08-10T14:11:42.352Z</time>
      </trkpt>
      <trkpt lat="46.88682" lon="8.55467">
        <ele>1208</ele>
        <time>2021-08-10T14:11:43.352Z</time>
      </trkpt>
      <trkpt lat="46.88683" lon="8.55465">
        <ele>1208</ele>
        <time>2021-08-10T14:11:44.351Z</time>
      </trkpt>
      <trkpt lat="46.88683" lon="8.55464">
        <ele>1209</ele>
        <time>2021-08-10T14:11:45.352Z</time>
      </trkpt>
      <trkpt lat="46.88682" lon="8.55464">
        <ele>1209</ele>
        <time>2021-08-10T14:11:46.352Z</time>
      </trkpt>
      <trkpt lat="46.88681" lon="8.55463">
        <ele>1209</ele>
        <time>2021-08-10T14:11:47.352Z</time>
      </trkpt>
      <trkpt lat="46.88681" lon="8.55462">
        <ele>1210</ele>
        <time>2021-08-10T14:11:48.352Z</time>
      </trkpt>
      <trkpt lat="46.8868" lon="8.55462">
        <ele>1210</ele>
        <time>2021-08-10T14:11:49.351Z</time>
      </trkpt>
      <trkpt lat="46.8868" lon="8.5546">
        <ele>1209</ele>
        <time>2021-08-10T14:11:50.351Z</time>
      </trkpt>
      <trkpt lat="46.8868" lon="8.55459">
        <ele>1209</ele>
        <time>2021-08-10T14:11:51.352Z</time>
      </trkpt>
      <trkpt lat="46.8868" lon="8.55457">
        <ele>1209</ele>
        <time>2021-08-10T14:11:52.352Z</time>
      </trkpt>
      <trkpt lat="46.8868" lon="8.55456">
        <ele>1209</ele>
        <time>2021-08-10T14:11:53.351Z</time>
      </trkpt>
      <trkpt lat="46.88679" lon="8.55455">
        <ele>1209</ele>
        <time>2021-08-10T14:11:54.351Z</time>
      </trkpt>
      <trkpt lat="46.88679" lon="8.55454">
        <ele>1208</ele>
        <time>2021-08-10T14:11:55.352Z</time>
      </trkpt>
      <trkpt lat="46.88677" lon="8.55454">
        <ele>1208</ele>
        <time>2021-08-10T14:11:56.352Z</time>
      </trkpt>
      <trkpt lat="46.88677" lon="8.55453">
        <ele>1207</ele>
        <time>2021-08-10T14:11:57.352Z</time>
      </trkpt>
      <trkpt lat="46.88676" lon="8.55452">
        <ele>1206</ele>
        <time>2021-08-10T14:11:58.352Z</time>
      </trkpt>
      <trkpt lat="46.88676" lon="8.55451">
        <ele>1206</ele>
        <time>2021-08-10T14:11:59.352Z</time>
      </trkpt>
      <trkpt lat="46.88675" lon="8.55451">
        <ele>1205</ele>
        <time>2021-08-10T14:12:03.474Z</time>
      </trkpt>
      <trkpt lat="46.88675" lon="8.5545">
        <ele>1204</ele>
        <time>2021-08-10T14:12:04.474Z</time>
      </trkpt>
      <trkpt lat="46.88674" lon="8.55448">
        <ele>1204</ele>
        <time>2021-08-10T14:12:06.355Z</time>
      </trkpt>
      <trkpt lat="46.88673" lon="8.55447">
        <ele>1203</ele>
        <time>2021-08-10T14:12:08.065Z</time>
      </trkpt>
      <trkpt lat="46.88673" lon="8.55446">
        <ele>1202</ele>
        <time>2021-08-10T14:12:09.065Z</time>
      </trkpt>
      <trkpt lat="46.88672" lon="8.55445">
        <ele>1202</ele>
        <time>2021-08-10T14:12:10.066Z</time>
      </trkpt>
      <trkpt lat="46.88671" lon="8.55444">
        <ele>1201</ele>
        <time>2021-08-10T14:12:11.066Z</time>
      </trkpt>
      <trkpt lat="46.88671" lon="8.55443">
        <ele>1201</ele>
        <time>2021-08-10T14:12:12.066Z</time>
      </trkpt>
      <trkpt lat="46.88671" lon="8.55443">
        <ele>1200</ele>
        <time>2021-08-10T14:12:13.066Z</time>
      </trkpt>
      <trkpt lat="46.8867" lon="8.55442">
        <ele>1200</ele>
        <time>2021-08-10T14:12:14.066Z</time>
      </trkpt>
      <trkpt lat="46.8867" lon="8.55441">
        <ele>1200</ele>
        <time>2021-08-10T14:12:15.066Z</time>
      </trkpt>
      <trkpt lat="46.8867" lon="8.5544">
        <ele>1199</ele>
        <time>2021-08-10T14:12:16.065Z</time>
      </trkpt>
      <trkpt lat="46.88669" lon="8.55438">
        <ele>1199</ele>
        <time>2021-08-10T14:12:21.082Z</time>
      </trkpt>
      <trkpt lat="46.88669" lon="8.55437">
        <ele>1200</ele>
        <time>2021-08-10T14:12:35.853Z</time>
      </trkpt>
      <trkpt lat="46.88668" lon="8.55436">
        <ele>1200</ele>
        <time>2021-08-10T14:12:36.852Z</time>
      </trkpt>
      <trkpt lat="46.88668" lon="8.55435">
        <ele>1200</ele>
        <time>2021-08-10T14:12:37.853Z</time>
      </trkpt>
      <trkpt lat="46.88668" lon="8.55434">
        <ele>1200</ele>
        <time>2021-08-10T14:12:38.853Z</time>
      </trkpt>
      <trkpt lat="46.88668" lon="8.55433">
        <ele>1199</ele>
        <time>2021-08-10T14:12:39.853Z</time>
      </trkpt>
      <trkpt lat="46.88667" lon="8.55432">
        <ele>1199</ele>
        <time>2021-08-10T14:12:40.853Z</time>
      </trkpt>
      <trkpt lat="46.88666" lon="8.55431">
        <ele>1199</ele>
        <time>2021-08-10T14:12:41.852Z</time>
      </trkpt>
      <trkpt lat="46.88666" lon="8.5543">
        <ele>1199</ele>
        <time>2021-08-10T14:12:42.853Z</time>
      </trkpt>
      <trkpt lat="46.88666" lon="8.55429">
        <ele>1199</ele>
        <time>2021-08-10T14:12:49.000Z</time>
      </trkpt>
      <trkpt lat="46.88666" lon="8.55429">
        <ele>1199</ele>
        <time>2021-08-10T14:12:50.000Z</time>
      </trkpt>
      <trkpt lat="46.88666" lon="8.55428">
        <ele>1200</ele>
        <time>2021-08-10T14:12:51.000Z</time>
      </trkpt>
      <trkpt lat="46.88666" lon="8.55427">
        <ele>1200</ele>
        <time>2021-08-10T14:12:51.999Z</time>
      </trkpt>
      <trkpt lat="46.88667" lon="8.55426">
        <ele>1201</ele>
        <time>2021-08-10T14:12:52.999Z</time>
      </trkpt>
      <trkpt lat="46.88667" lon="8.55424">
        <ele>1201</ele>
        <time>2021-08-10T14:12:54.000Z</time>
      </trkpt>
      <trkpt lat="46.88667" lon="8.55423">
        <ele>1202</ele>
        <time>2021-08-10T14:12:54.999Z</time>
      </trkpt>
      <trkpt lat="46.88668" lon="8.55422">
        <ele>1202</ele>
        <time>2021-08-10T14:12:56.000Z</time>
      </trkpt>
      <trkpt lat="46.88667" lon="8.55422">
        <ele>1203</ele>
        <time>2021-08-10T14:12:57.000Z</time>
      </trkpt>
      <trkpt lat="46.88667" lon="8.55421">
        <ele>1203</ele>
        <time>2021-08-10T14:12:58.000Z</time>
      </trkpt>
      <trkpt lat="46.88666" lon="8.55421">
        <ele>1203</ele>
        <time>2021-08-10T14:12:59.000Z</time>
      </trkpt>
      <trkpt lat="46.88665" lon="8.5542">
        <ele>1203</ele>
        <time>2021-08-10T14:12:59.999Z</time>
      </trkpt>
      <trkpt lat="46.88664" lon="8.55419">
        <ele>1203</ele>
        <time>2021-08-10T14:13:01.000Z</time>
      </trkpt>
      <trkpt lat="46.88663" lon="8.55419">
        <ele>1203</ele>
        <time>2021-08-10T14:13:02.000Z</time>
      </trkpt>
      <trkpt lat="46.88662" lon="8.55418">
        <ele>1202</ele>
        <time>2021-08-10T14:13:03.000Z</time>
      </trkpt>
      <trkpt lat="46.88661" lon="8.55417">
        <ele>1202</ele>
        <time>2021-08-10T14:13:04.000Z</time>
      </trkpt>
      <trkpt lat="46.88661" lon="8.55416">
        <ele>1202</ele>
        <time>2021-08-10T14:13:05.000Z</time>
      </trkpt>
      <trkpt lat="46.8866" lon="8.55415">
        <ele>1202</ele>
        <time>2021-08-10T14:13:06.000Z</time>
      </trkpt>
      <trkpt lat="46.88659" lon="8.55414">
        <ele>1202</ele>
        <time>2021-08-10T14:13:07.000Z</time>
      </trkpt>
      <trkpt lat="46.88659" lon="8.55413">
        <ele>1202</ele>
        <time>2021-08-10T14:13:08.000Z</time>
      </trkpt>
      <trkpt lat="46.88658" lon="8.55412">
        <ele>1201</ele>
        <time>2021-08-10T14:13:09.000Z</time>
      </trkpt>
      <trkpt lat="46.88658" lon="8.55412">
        <ele>1201</ele>
        <time>2021-08-10T14:13:09.999Z</time>
      </trkpt>
      <trkpt lat="46.88657" lon="8.55411">
        <ele>1201</ele>
        <time>2021-08-10T14:13:10.999Z</time>
      </trkpt>
      <trkpt lat="46.88656" lon="8.55411">
        <ele>1201</ele>
        <time>2021-08-10T14:13:11.999Z</time>
      </trkpt>
      <trkpt lat="46.88656" lon="8.5541">
        <ele>1201</ele>
        <time>2021-08-10T14:13:12.999Z</time>
      </trkpt>
      <trkpt lat="46.88655" lon="8.55409">
        <ele>1200</ele>
        <time>2021-08-10T14:13:14.000Z</time>
      </trkpt>
      <trkpt lat="46.88654" lon="8.55408">
        <ele>1200</ele>
        <time>2021-08-10T14:13:15.000Z</time>
      </trkpt>
      <trkpt lat="46.88654" lon="8.55406">
        <ele>1200</ele>
        <time>2021-08-10T14:13:16.000Z</time>
      </trkpt>
      <trkpt lat="46.88653" lon="8.55405">
        <ele>1200</ele>
        <time>2021-08-10T14:13:17.000Z</time>
      </trkpt>
      <trkpt lat="46.88653" lon="8.55404">
        <ele>1201</ele>
        <time>2021-08-10T14:13:18.000Z</time>
      </trkpt>
      <trkpt lat="46.88652" lon="8.55403">
        <ele>1201</ele>
        <time>2021-08-10T14:13:18.999Z</time>
      </trkpt>
      <trkpt lat="46.88652" lon="8.55402">
        <ele>1202</ele>
        <time>2021-08-10T14:13:19.999Z</time>
      </trkpt>
      <trkpt lat="46.88651" lon="8.55401">
        <ele>1203</ele>
        <time>2021-08-10T14:13:21.000Z</time>
      </trkpt>
      <trkpt lat="46.8865" lon="8.55401">
        <ele>1203</ele>
        <time>2021-08-10T14:13:22.000Z</time>
      </trkpt>
      <trkpt lat="46.8865" lon="8.554">
        <ele>1204</ele>
        <time>2021-08-10T14:13:23.000Z</time>
      </trkpt>
      <trkpt lat="46.88649" lon="8.55399">
        <ele>1205</ele>
        <time>2021-08-10T14:13:24.000Z</time>
      </trkpt>
      <trkpt lat="46.88648" lon="8.55399">
        <ele>1206</ele>
        <time>2021-08-10T14:13:25.000Z</time>
      </trkpt>
      <trkpt lat="46.88648" lon="8.55398">
        <ele>1207</ele>
        <time>2021-08-10T14:13:25.999Z</time>
      </trkpt>
      <trkpt lat="46.88648" lon="8.55398">
        <ele>1208</ele>
        <time>2021-08-10T14:13:27.000Z</time>
      </trkpt>
      <trkpt lat="46.88648" lon="8.55397">
        <ele>1208</ele>
        <time>2021-08-10T14:13:27.999Z</time>
      </trkpt>
      <trkpt lat="46.88647" lon="8.55396">
        <ele>1209</ele>
        <time>2021-08-10T14:13:29.000Z</time>
      </trkpt>
      <trkpt lat="46.88646" lon="8.55396">
        <ele>1209</ele>
        <time>2021-08-10T14:13:30.000Z</time>
      </trkpt>
      <trkpt lat="46.88645" lon="8.55396">
        <ele>1210</ele>
        <time>2021-08-10T14:13:30.999Z</time>
      </trkpt>
      <trkpt lat="46.88644" lon="8.55396">
        <ele>1210</ele>
        <time>2021-08-10T14:13:32.000Z</time>
      </trkpt>
      <trkpt lat="46.88644" lon="8.55394">
        <ele>1211</ele>
        <time>2021-08-10T14:13:33.000Z</time>
      </trkpt>
      <trkpt lat="46.88643" lon="8.55393">
        <ele>1211</ele>
        <time>2021-08-10T14:13:34.000Z</time>
      </trkpt>
      <trkpt lat="46.88643" lon="8.55393">
        <ele>1211</ele>
        <time>2021-08-10T14:13:35.000Z</time>
      </trkpt>
      <trkpt lat="46.88642" lon="8.55392">
        <ele>1212</ele>
        <time>2021-08-10T14:13:36.000Z</time>
      </trkpt>
      <trkpt lat="46.88641" lon="8.55392">
        <ele>1212</ele>
        <time>2021-08-10T14:13:36.999Z</time>
      </trkpt>
      <trkpt lat="46.88641" lon="8.55391">
        <ele>1212</ele>
        <time>2021-08-10T14:13:38.000Z</time>
      </trkpt>
      <trkpt lat="46.88641" lon="8.5539">
        <ele>1212</ele>
        <time>2021-08-10T14:13:39.000Z</time>
      </trkpt>
      <trkpt lat="46.8864" lon="8.55389">
        <ele>1212</ele>
        <time>2021-08-10T14:13:39.999Z</time>
      </trkpt>
      <trkpt lat="46.8864" lon="8.55388">
        <ele>1212</ele>
        <time>2021-08-10T14:13:41.000Z</time>
      </trkpt>
      <trkpt lat="46.8864" lon="8.55387">
        <ele>1211</ele>
        <time>2021-08-10T14:13:42.000Z</time>
      </trkpt>
      <trkpt lat="46.88639" lon="8.55386">
        <ele>1211</ele>
        <time>2021-08-10T14:13:43.000Z</time>
      </trkpt>
      <trkpt lat="46.88638" lon="8.55385">
        <ele>1211</ele>
        <time>2021-08-10T14:13:44.000Z</time>
      </trkpt>
      <trkpt lat="46.88638" lon="8.55384">
        <ele>1210</ele>
        <time>2021-08-10T14:13:44.999Z</time>
      </trkpt>
      <trkpt lat="46.88638" lon="8.55382">
        <ele>1210</ele>
        <time>2021-08-10T14:13:46.000Z</time>
      </trkpt>
      <trkpt lat="46.88637" lon="8.55381">
        <ele>1209</ele>
        <time>2021-08-10T14:13:46.999Z</time>
      </trkpt>
      <trkpt lat="46.88637" lon="8.55379">
        <ele>1209</ele>
        <time>2021-08-10T14:13:47.999Z</time>
      </trkpt>
      <trkpt lat="46.88636" lon="8.55379">
        <ele>1209</ele>
        <time>2021-08-10T14:13:49.000Z</time>
      </trkpt>
      <trkpt lat="46.88636" lon="8.55378">
        <ele>1208</ele>
        <time>2021-08-10T14:13:49.999Z</time>
      </trkpt>
      <trkpt lat="46.88635" lon="8.55377">
        <ele>1208</ele>
        <time>2021-08-10T14:13:51.000Z</time>
      </trkpt>
      <trkpt lat="46.88635" lon="8.55376">
        <ele>1208</ele>
        <time>2021-08-10T14:13:52.000Z</time>
      </trkpt>
      <trkpt lat="46.88634" lon="8.55374">
        <ele>1208</ele>
        <time>2021-08-10T14:13:52.999Z</time>
      </trkpt>
      <trkpt lat="46.88633" lon="8.55373">
        <ele>1208</ele>
        <time>2021-08-10T14:13:53.999Z</time>
      </trkpt>
      <trkpt lat="46.88632" lon="8.55373">
        <ele>1207</ele>
        <time>2021-08-10T14:13:54.999Z</time>
      </trkpt>
      <trkpt lat="46.88631" lon="8.55372">
        <ele>1207</ele>
        <time>2021-08-10T14:13:56.000Z</time>
      </trkpt>
      <trkpt lat="46.88631" lon="8.55372">
        <ele>1207</ele>
        <time>2021-08-10T14:13:57.000Z</time>
      </trkpt>
      <trkpt lat="46.88631" lon="8.55371">
        <ele>1207</ele>
        <time>2021-08-10T14:14:01.151Z</time>
      </trkpt>
      <trkpt lat="46.88631" lon="8.55371">
        <ele>1207</ele>
        <time>2021-08-10T14:14:02.152Z</time>
      </trkpt>
      <trkpt lat="46.8863" lon="8.55371">
        <ele>1208</ele>
        <time>2021-08-10T14:14:03.152Z</time>
      </trkpt>
      <trkpt lat="46.88629" lon="8.5537">
        <ele>1208</ele>
        <time>2021-08-10T14:14:04.152Z</time>
      </trkpt>
      <trkpt lat="46.88629" lon="8.5537">
        <ele>1208</ele>
        <time>2021-08-10T14:14:05.152Z</time>
      </trkpt>
      <trkpt lat="46.88629" lon="8.55368">
        <ele>1207</ele>
        <time>2021-08-10T14:14:09.233Z</time>
      </trkpt>
      <trkpt lat="46.88629" lon="8.55367">
        <ele>1207</ele>
        <time>2021-08-10T14:14:10.233Z</time>
      </trkpt>
      <trkpt lat="46.88629" lon="8.55366">
        <ele>1207</ele>
        <time>2021-08-10T14:14:14.000Z</time>
      </trkpt>
      <trkpt lat="46.88628" lon="8.55365">
        <ele>1208</ele>
        <time>2021-08-10T14:14:14.999Z</time>
      </trkpt>
      <trkpt lat="46.88628" lon="8.55363">
        <ele>1208</ele>
        <time>2021-08-10T14:14:16.000Z</time>
      </trkpt>
      <trkpt lat="46.88628" lon="8.55363">
        <ele>1208</ele>
        <time>2021-08-10T14:14:16.999Z</time>
      </trkpt>
      <trkpt lat="46.88627" lon="8.55362">
        <ele>1209</ele>
        <time>2021-08-10T14:14:18.000Z</time>
      </trkpt>
      <trkpt lat="46.88626" lon="8.55361">
        <ele>1209</ele>
        <time>2021-08-10T14:14:18.999Z</time>
      </trkpt>
      <trkpt lat="46.88626" lon="8.55361">
        <ele>1210</ele>
        <time>2021-08-10T14:14:19.999Z</time>
      </trkpt>
      <trkpt lat="46.88626" lon="8.5536">
        <ele>1210</ele>
        <time>2021-08-10T14:14:20.999Z</time>
      </trkpt>
      <trkpt lat="46.88625" lon="8.55359">
        <ele>1210</ele>
        <time>2021-08-10T14:14:22.000Z</time>
      </trkpt>
      <trkpt lat="46.88625" lon="8.55359">
        <ele>1210</ele>
        <time>2021-08-10T14:14:23.000Z</time>
      </trkpt>
      <trkpt lat="46.88624" lon="8.55358">
        <ele>1210</ele>
        <time>2021-08-10T14:14:23.999Z</time>
      </trkpt>
      <trkpt lat="46.88623" lon="8.55358">
        <ele>1210</ele>
        <time>2021-08-10T14:14:25.000Z</time>
      </trkpt>
      <trkpt lat="46.88623" lon="8.55358">
        <ele>1211</ele>
        <time>2021-08-10T14:14:26.000Z</time>
      </trkpt>
      <trkpt lat="46.88622" lon="8.55357">
        <ele>1211</ele>
        <time>2021-08-10T14:14:27.000Z</time>
      </trkpt>
      <trkpt lat="46.88621" lon="8.55357">
        <ele>1211</ele>
        <time>2021-08-10T14:14:27.999Z</time>
      </trkpt>
      <trkpt lat="46.88621" lon="8.55356">
        <ele>1211</ele>
        <time>2021-08-10T14:14:29.000Z</time>
      </trkpt>
      <trkpt lat="46.8862" lon="8.55356">
        <ele>1212</ele>
        <time>2021-08-10T14:14:30.000Z</time>
      </trkpt>
      <trkpt lat="46.8862" lon="8.55355">
        <ele>1212</ele>
        <time>2021-08-10T14:14:30.999Z</time>
      </trkpt>
      <trkpt lat="46.8862" lon="8.55354">
        <ele>1212</ele>
        <time>2021-08-10T14:14:32.000Z</time>
      </trkpt>
      <trkpt lat="46.8862" lon="8.55352">
        <ele>1212</ele>
        <time>2021-08-10T14:14:32.999Z</time>
      </trkpt>
      <trkpt lat="46.88619" lon="8.55351">
        <ele>1213</ele>
        <time>2021-08-10T14:14:34.000Z</time>
      </trkpt>
      <trkpt lat="46.88619" lon="8.5535">
        <ele>1213</ele>
        <time>2021-08-10T14:14:46.107Z</time>
      </trkpt>
      <trkpt lat="46.88619" lon="8.55349">
        <ele>1214</ele>
        <time>2021-08-10T14:14:47.107Z</time>
      </trkpt>
      <trkpt lat="46.88618" lon="8.55348">
        <ele>1215</ele>
        <time>2021-08-10T14:14:48.107Z</time>
      </trkpt>
      <trkpt lat="46.88618" lon="8.55347">
        <ele>1216</ele>
        <time>2021-08-10T14:14:50.214Z</time>
      </trkpt>
      <trkpt lat="46.88618" lon="8.55346">
        <ele>1217</ele>
        <time>2021-08-10T14:14:51.213Z</time>
      </trkpt>
      <trkpt lat="46.88617" lon="8.55345">
        <ele>1217</ele>
        <time>2021-08-10T14:14:52.214Z</time>
      </trkpt>
      <trkpt lat="46.88617" lon="8.55344">
        <ele>1218</ele>
        <time>2021-08-10T14:14:53.213Z</time>
      </trkpt>
      <trkpt lat="46.88617" lon="8.55343">
        <ele>1218</ele>
        <time>2021-08-10T14:14:54.213Z</time>
      </trkpt>
      <trkpt lat="46.88617" lon="8.55342">
        <ele>1219</ele>
        <time>2021-08-10T14:14:58.224Z</time>
      </trkpt>
      <trkpt lat="46.88617" lon="8.55342">
        <ele>1219</ele>
        <time>2021-08-10T14:14:59.223Z</time>
      </trkpt>
      <trkpt lat="46.88617" lon="8.55341">
        <ele>1220</ele>
        <time>2021-08-10T14:15:00.224Z</time>
      </trkpt>
      <trkpt lat="46.88616" lon="8.55341">
        <ele>1220</ele>
        <time>2021-08-10T14:15:03.326Z</time>
      </trkpt>
      <trkpt lat="46.88615" lon="8.55341">
        <ele>1220</ele>
        <time>2021-08-10T14:15:04.326Z</time>
      </trkpt>
      <trkpt lat="46.88614" lon="8.5534">
        <ele>1220</ele>
        <time>2021-08-10T14:15:05.325Z</time>
      </trkpt>
      <trkpt lat="46.88614" lon="8.55339">
        <ele>1220</ele>
        <time>2021-08-10T14:15:06.326Z</time>
      </trkpt>
      <trkpt lat="46.88614" lon="8.55338">
        <ele>1220</ele>
        <time>2021-08-10T14:15:07.325Z</time>
      </trkpt>
      <trkpt lat="46.88613" lon="8.55336">
        <ele>1220</ele>
        <time>2021-08-10T14:15:08.325Z</time>
      </trkpt>
      <trkpt lat="46.88613" lon="8.55335">
        <ele>1220</ele>
        <time>2021-08-10T14:15:09.326Z</time>
      </trkpt>
      <trkpt lat="46.88612" lon="8.55334">
        <ele>1220</ele>
        <time>2021-08-10T14:15:10.326Z</time>
      </trkpt>
      <trkpt lat="46.88612" lon="8.55333">
        <ele>1221</ele>
        <time>2021-08-10T14:15:11.326Z</time>
      </trkpt>
      <trkpt lat="46.88611" lon="8.55331">
        <ele>1221</ele>
        <time>2021-08-10T14:15:12.326Z</time>
      </trkpt>
      <trkpt lat="46.8861" lon="8.5533">
        <ele>1221</ele>
        <time>2021-08-10T14:15:13.326Z</time>
      </trkpt>
      <trkpt lat="46.88609" lon="8.5533">
        <ele>1221</ele>
        <time>2021-08-10T14:15:14.325Z</time>
      </trkpt>
      <trkpt lat="46.88608" lon="8.55329">
        <ele>1222</ele>
        <time>2021-08-10T14:15:15.326Z</time>
      </trkpt>
      <trkpt lat="46.88607" lon="8.5533">
        <ele>1223</ele>
        <time>2021-08-10T14:15:16.325Z</time>
      </trkpt>
      <trkpt lat="46.88607" lon="8.5533">
        <ele>1223</ele>
        <time>2021-08-10T14:15:17.326Z</time>
      </trkpt>
      <trkpt lat="46.88606" lon="8.5533">
        <ele>1223</ele>
        <time>2021-08-10T14:15:18.326Z</time>
      </trkpt>
      <trkpt lat="46.88607" lon="8.55331">
        <ele>1224</ele>
        <time>2021-08-10T14:15:19.325Z</time>
      </trkpt>
      <trkpt lat="46.88605" lon="8.55332">
        <ele>1220</ele>
        <time>2021-08-10T14:15:20.325Z</time>
      </trkpt>
      <trkpt lat="46.88606" lon="8.55329">
        <ele>1217</ele>
        <time>2021-08-10T14:15:21.326Z</time>
      </trkpt>
      <trkpt lat="46.88601" lon="8.5533">
        <ele>1223</ele>
        <time>2021-08-10T14:15:22.326Z</time>
      </trkpt>
      <trkpt lat="46.886" lon="8.55335">
        <ele>1220</ele>
        <time>2021-08-10T14:15:23.327Z</time>
      </trkpt>
      <trkpt lat="46.886" lon="8.55334">
        <ele>1220</ele>
        <time>2021-08-10T14:15:24.327Z</time>
      </trkpt>
      <trkpt lat="46.886" lon="8.55329">
        <ele>1220</ele>
        <time>2021-08-10T14:15:25.327Z</time>
      </trkpt>
      <trkpt lat="46.886" lon="8.55328">
        <ele>1220</ele>
        <time>2021-08-10T14:15:26.327Z</time>
      </trkpt>
      <trkpt lat="46.88599" lon="8.55328">
        <ele>1220</ele>
        <time>2021-08-10T14:15:27.328Z</time>
      </trkpt>
      <trkpt lat="46.88596" lon="8.55333">
        <ele>1211</ele>
        <time>2021-08-10T14:15:28.329Z</time>
      </trkpt>
      <trkpt lat="46.88599" lon="8.55335">
        <ele>1213</ele>
        <time>2021-08-10T14:15:29.329Z</time>
      </trkpt>
      <trkpt lat="46.88599" lon="8.55334">
        <ele>1213</ele>
        <time>2021-08-10T14:15:30.328Z</time>
      </trkpt>
      <trkpt lat="46.88596" lon="8.5534">
        <ele>1218</ele>
        <time>2021-08-10T14:15:31.330Z</time>
      </trkpt>
      <trkpt lat="46.88596" lon="8.5534">
        <ele>1218</ele>
        <time>2021-08-10T14:15:32.329Z</time>
      </trkpt>
      <trkpt lat="46.88596" lon="8.55338">
        <ele>1215</ele>
        <time>2021-08-10T14:15:33.329Z</time>
      </trkpt>
      <trkpt lat="46.88596" lon="8.55338">
        <ele>1215</ele>
        <time>2021-08-10T14:15:34.329Z</time>
      </trkpt>
      <trkpt lat="46.88595" lon="8.55339">
        <ele>1214</ele>
        <time>2021-08-10T14:15:35.329Z</time>
      </trkpt>
      <trkpt lat="46.88595" lon="8.55339">
        <ele>1214</ele>
        <time>2021-08-10T14:15:36.329Z</time>
      </trkpt>
      <trkpt lat="46.88597" lon="8.55332">
        <ele>1220</ele>
        <time>2021-08-10T14:15:37.329Z</time>
      </trkpt>
      <trkpt lat="46.88597" lon="8.55331">
        <ele>1221</ele>
        <time>2021-08-10T14:15:38.330Z</time>
      </trkpt>
      <trkpt lat="46.88597" lon="8.55331">
        <ele>1221</ele>
        <time>2021-08-10T14:15:39.330Z</time>
      </trkpt>
      <trkpt lat="46.88597" lon="8.55331">
        <ele>1221</ele>
        <time>2021-08-10T14:15:40.330Z</time>
      </trkpt>
      <trkpt lat="46.88597" lon="8.5533">
        <ele>1221</ele>
        <time>2021-08-10T14:15:41.329Z</time>
      </trkpt>
      <trkpt lat="46.88597" lon="8.55329">
        <ele>1221</ele>
        <time>2021-08-10T14:15:42.329Z</time>
      </trkpt>
      <trkpt lat="46.88597" lon="8.55327">
        <ele>1221</ele>
        <time>2021-08-10T14:15:43.329Z</time>
      </trkpt>
      <trkpt lat="46.88597" lon="8.55326">
        <ele>1221</ele>
        <time>2021-08-10T14:15:44.329Z</time>
      </trkpt>
      <trkpt lat="46.88597" lon="8.55325">
        <ele>1222</ele>
        <time>2021-08-10T14:15:45.330Z</time>
      </trkpt>
      <trkpt lat="46.88598" lon="8.55325">
        <ele>1222</ele>
        <time>2021-08-10T14:15:46.329Z</time>
      </trkpt>
      <trkpt lat="46.88597" lon="8.55324">
        <ele>1223</ele>
        <time>2021-08-10T14:15:47.329Z</time>
      </trkpt>
      <trkpt lat="46.88597" lon="8.55322">
        <ele>1223</ele>
        <time>2021-08-10T14:15:48.329Z</time>
      </trkpt>
      <trkpt lat="46.88596" lon="8.55321">
        <ele>1224</ele>
        <time>2021-08-10T14:15:49.329Z</time>
      </trkpt>
      <trkpt lat="46.88596" lon="8.5532">
        <ele>1224</ele>
        <time>2021-08-10T14:15:50.329Z</time>
      </trkpt>
      <trkpt lat="46.88596" lon="8.55319">
        <ele>1225</ele>
        <time>2021-08-10T14:15:51.329Z</time>
      </trkpt>
      <trkpt lat="46.88596" lon="8.55319">
        <ele>1225</ele>
        <time>2021-08-10T14:15:52.329Z</time>
      </trkpt>
      <trkpt lat="46.88596" lon="8.55319">
        <ele>1226</ele>
        <time>2021-08-10T14:15:53.329Z</time>
      </trkpt>
      <trkpt lat="46.88595" lon="8.55319">
        <ele>1226</ele>
        <time>2021-08-10T14:15:54.329Z</time>
      </trkpt>
      <trkpt lat="46.88595" lon="8.5532">
        <ele>1226</ele>
        <time>2021-08-10T14:15:55.329Z</time>
      </trkpt>
      <trkpt lat="46.88594" lon="8.55321">
        <ele>1226</ele>
        <time>2021-08-10T14:15:56.330Z</time>
      </trkpt>
      <trkpt lat="46.88594" lon="8.55321">
        <ele>1226</ele>
        <time>2021-08-10T14:15:57.329Z</time>
      </trkpt>
      <trkpt lat="46.88594" lon="8.55321">
        <ele>1226</ele>
        <time>2021-08-10T14:15:58.330Z</time>
      </trkpt>
      <trkpt lat="46.88594" lon="8.55321">
        <ele>1227</ele>
        <time>2021-08-10T14:15:59.329Z</time>
      </trkpt>
      <trkpt lat="46.8859" lon="8.55324">
        <ele>1227</ele>
        <time>2021-08-10T14:16:00.330Z</time>
      </trkpt>
      <trkpt lat="46.88589" lon="8.55324">
        <ele>1227</ele>
        <time>2021-08-10T14:16:01.329Z</time>
      </trkpt>
      <trkpt lat="46.88589" lon="8.55324">
        <ele>1228</ele>
        <time>2021-08-10T14:16:02.330Z</time>
      </trkpt>
      <trkpt lat="46.88588" lon="8.55324">
        <ele>1228</ele>
        <time>2021-08-10T14:16:03.330Z</time>
      </trkpt>
      <trkpt lat="46.88588" lon="8.55324">
        <ele>1228</ele>
        <time>2021-08-10T14:16:04.330Z</time>
      </trkpt>
      <trkpt lat="46.88588" lon="8.55324">
        <ele>1228</ele>
        <time>2021-08-10T14:16:05.330Z</time>
      </trkpt>
      <trkpt lat="46.88587" lon="8.55323">
        <ele>1228</ele>
        <time>2021-08-10T14:16:06.330Z</time>
      </trkpt>
      <trkpt lat="46.88587" lon="8.55323">
        <ele>1229</ele>
        <time>2021-08-10T14:16:07.329Z</time>
      </trkpt>
      <trkpt lat="46.88587" lon="8.55323">
        <ele>1229</ele>
        <time>2021-08-10T14:16:08.329Z</time>
      </trkpt>
      <trkpt lat="46.88586" lon="8.55323">
        <ele>1231</ele>
        <time>2021-08-10T14:16:09.332Z</time>
      </trkpt>
      <trkpt lat="46.88585" lon="8.55324">
        <ele>1231</ele>
        <time>2021-08-10T14:16:10.332Z</time>
      </trkpt>
      <trkpt lat="46.88585" lon="8.55324">
        <ele>1231</ele>
        <time>2021-08-10T14:16:11.331Z</time>
      </trkpt>
      <trkpt lat="46.88584" lon="8.55324">
        <ele>1231</ele>
        <time>2021-08-10T14:16:12.332Z</time>
      </trkpt>
      <trkpt lat="46.88583" lon="8.55325">
        <ele>1230</ele>
        <time>2021-08-10T14:16:13.332Z</time>
      </trkpt>
      <trkpt lat="46.88583" lon="8.55325">
        <ele>1230</ele>
        <time>2021-08-10T14:16:14.331Z</time>
      </trkpt>
      <trkpt lat="46.88583" lon="8.55324">
        <ele>1230</ele>
        <time>2021-08-10T14:16:15.332Z</time>
      </trkpt>
      <trkpt lat="46.88582" lon="8.55321">
        <ele>1224</ele>
        <time>2021-08-10T14:16:16.332Z</time>
      </trkpt>
      <trkpt lat="46.88582" lon="8.55321">
        <ele>1224</ele>
        <time>2021-08-10T14:16:17.332Z</time>
      </trkpt>
      <trkpt lat="46.88582" lon="8.5532">
        <ele>1224</ele>
        <time>2021-08-10T14:16:18.332Z</time>
      </trkpt>
      <trkpt lat="46.88586" lon="8.55323">
        <ele>1227</ele>
        <time>2021-08-10T14:16:19.334Z</time>
      </trkpt>
      <trkpt lat="46.88586" lon="8.55323">
        <ele>1227</ele>
        <time>2021-08-10T14:16:20.334Z</time>
      </trkpt>
      <trkpt lat="46.88585" lon="8.55323">
        <ele>1228</ele>
        <time>2021-08-10T14:16:21.333Z</time>
      </trkpt>
      <trkpt lat="46.88584" lon="8.55323">
        <ele>1228</ele>
        <time>2021-08-10T14:16:22.334Z</time>
      </trkpt>
      <trkpt lat="46.88584" lon="8.55322">
        <ele>1229</ele>
        <time>2021-08-10T14:16:23.333Z</time>
      </trkpt>
      <trkpt lat="46.88583" lon="8.55323">
        <ele>1229</ele>
        <time>2021-08-10T14:16:24.334Z</time>
      </trkpt>
      <trkpt lat="46.88582" lon="8.55323">
        <ele>1229</ele>
        <time>2021-08-10T14:16:25.334Z</time>
      </trkpt>
      <trkpt lat="46.88581" lon="8.55324">
        <ele>1229</ele>
        <time>2021-08-10T14:16:26.334Z</time>
      </trkpt>
      <trkpt lat="46.88581" lon="8.55324">
        <ele>1229</ele>
        <time>2021-08-10T14:16:27.334Z</time>
      </trkpt>
      <trkpt lat="46.88581" lon="8.55323">
        <ele>1230</ele>
        <time>2021-08-10T14:16:28.334Z</time>
      </trkpt>
      <trkpt lat="46.88581" lon="8.55322">
        <ele>1230</ele>
        <time>2021-08-10T14:16:29.333Z</time>
      </trkpt>
      <trkpt lat="46.8858" lon="8.55321">
        <ele>1230</ele>
        <time>2021-08-10T14:16:30.334Z</time>
      </trkpt>
      <trkpt lat="46.88579" lon="8.55321">
        <ele>1230</ele>
        <time>2021-08-10T14:16:31.334Z</time>
      </trkpt>
      <trkpt lat="46.88578" lon="8.55321">
        <ele>1230</ele>
        <time>2021-08-10T14:16:32.334Z</time>
      </trkpt>
      <trkpt lat="46.88577" lon="8.55322">
        <ele>1230</ele>
        <time>2021-08-10T14:16:33.334Z</time>
      </trkpt>
      <trkpt lat="46.88577" lon="8.55322">
        <ele>1230</ele>
        <time>2021-08-10T14:16:34.334Z</time>
      </trkpt>
      <trkpt lat="46.88576" lon="8.55322">
        <ele>1230</ele>
        <time>2021-08-10T14:16:35.334Z</time>
      </trkpt>
      <trkpt lat="46.88576" lon="8.55321">
        <ele>1230</ele>
        <time>2021-08-10T14:16:36.333Z</time>
      </trkpt>
      <trkpt lat="46.88576" lon="8.55321">
        <ele>1230</ele>
        <time>2021-08-10T14:16:37.334Z</time>
      </trkpt>
      <trkpt lat="46.88576" lon="8.5532">
        <ele>1230</ele>
        <time>2021-08-10T14:16:38.333Z</time>
      </trkpt>
      <trkpt lat="46.88575" lon="8.5532">
        <ele>1231</ele>
        <time>2021-08-10T14:16:39.334Z</time>
      </trkpt>
      <trkpt lat="46.88574" lon="8.5532">
        <ele>1231</ele>
        <time>2021-08-10T14:16:40.333Z</time>
      </trkpt>
      <trkpt lat="46.88574" lon="8.5532">
        <ele>1232</ele>
        <time>2021-08-10T14:16:41.334Z</time>
      </trkpt>
      <trkpt lat="46.88573" lon="8.55319">
        <ele>1232</ele>
        <time>2021-08-10T14:16:42.334Z</time>
      </trkpt>
      <trkpt lat="46.88573" lon="8.55319">
        <ele>1232</ele>
        <time>2021-08-10T14:16:43.333Z</time>
      </trkpt>
      <trkpt lat="46.88572" lon="8.55319">
        <ele>1232</ele>
        <time>2021-08-10T14:16:44.333Z</time>
      </trkpt>
      <trkpt lat="46.88572" lon="8.55318">
        <ele>1232</ele>
        <time>2021-08-10T14:16:45.333Z</time>
      </trkpt>
      <trkpt lat="46.88572" lon="8.55318">
        <ele>1233</ele>
        <time>2021-08-10T14:16:46.333Z</time>
      </trkpt>
      <trkpt lat="46.88571" lon="8.55318">
        <ele>1233</ele>
        <time>2021-08-10T14:16:47.334Z</time>
      </trkpt>
      <trkpt lat="46.88571" lon="8.55318">
        <ele>1234</ele>
        <time>2021-08-10T14:16:48.334Z</time>
      </trkpt>
      <trkpt lat="46.8857" lon="8.55318">
        <ele>1234</ele>
        <time>2021-08-10T14:16:49.333Z</time>
      </trkpt>
      <trkpt lat="46.88569" lon="8.55318">
        <ele>1234</ele>
        <time>2021-08-10T14:16:50.333Z</time>
      </trkpt>
      <trkpt lat="46.88569" lon="8.55317">
        <ele>1234</ele>
        <time>2021-08-10T14:16:51.333Z</time>
      </trkpt>
      <trkpt lat="46.88571" lon="8.55316">
        <ele>1235</ele>
        <time>2021-08-10T14:16:52.334Z</time>
      </trkpt>
      <trkpt lat="46.88571" lon="8.55317">
        <ele>1235</ele>
        <time>2021-08-10T14:16:53.334Z</time>
      </trkpt>
      <trkpt lat="46.88571" lon="8.55317">
        <ele>1235</ele>
        <time>2021-08-10T14:16:54.334Z</time>
      </trkpt>
      <trkpt lat="46.88571" lon="8.55316">
        <ele>1235</ele>
        <time>2021-08-10T14:16:55.334Z</time>
      </trkpt>
      <trkpt lat="46.88572" lon="8.55316">
        <ele>1235</ele>
        <time>2021-08-10T14:16:56.334Z</time>
      </trkpt>
      <trkpt lat="46.88572" lon="8.55316">
        <ele>1235</ele>
        <time>2021-08-10T14:16:57.334Z</time>
      </trkpt>
      <trkpt lat="46.88573" lon="8.55316">
        <ele>1235</ele>
        <time>2021-08-10T14:16:58.334Z</time>
      </trkpt>
      <trkpt lat="46.88573" lon="8.55316">
        <ele>1236</ele>
        <time>2021-08-10T14:16:59.334Z</time>
      </trkpt>
      <trkpt lat="46.88573" lon="8.55315">
        <ele>1236</ele>
        <time>2021-08-10T14:17:00.334Z</time>
      </trkpt>
      <trkpt lat="46.88572" lon="8.55315">
        <ele>1237</ele>
        <time>2021-08-10T14:17:01.334Z</time>
      </trkpt>
      <trkpt lat="46.88574" lon="8.55315">
        <ele>1238</ele>
        <time>2021-08-10T14:17:02.334Z</time>
      </trkpt>
      <trkpt lat="46.88578" lon="8.55316">
        <ele>1237</ele>
        <time>2021-08-10T14:17:03.335Z</time>
      </trkpt>
      <trkpt lat="46.88577" lon="8.55316">
        <ele>1237</ele>
        <time>2021-08-10T14:17:06.339Z</time>
      </trkpt>
      <trkpt lat="46.88577" lon="8.55316">
        <ele>1237</ele>
        <time>2021-08-10T14:17:07.338Z</time>
      </trkpt>
      <trkpt lat="46.88578" lon="8.55316">
        <ele>1236</ele>
        <time>2021-08-10T14:17:08.339Z</time>
      </trkpt>
      <trkpt lat="46.88578" lon="8.55315">
        <ele>1236</ele>
        <time>2021-08-10T14:17:09.338Z</time>
      </trkpt>
      <trkpt lat="46.88578" lon="8.55314">
        <ele>1236</ele>
        <time>2021-08-10T14:17:10.339Z</time>
      </trkpt>
      <trkpt lat="46.88577" lon="8.55313">
        <ele>1236</ele>
        <time>2021-08-10T14:17:11.339Z</time>
      </trkpt>
      <trkpt lat="46.88577" lon="8.55312">
        <ele>1236</ele>
        <time>2021-08-10T14:17:12.339Z</time>
      </trkpt>
      <trkpt lat="46.88577" lon="8.55312">
        <ele>1236</ele>
        <time>2021-08-10T14:17:13.339Z</time>
      </trkpt>
      <trkpt lat="46.88577" lon="8.55311">
        <ele>1236</ele>
        <time>2021-08-10T14:17:14.339Z</time>
      </trkpt>
      <trkpt lat="46.88578" lon="8.5531">
        <ele>1236</ele>
        <time>2021-08-10T14:17:15.339Z</time>
      </trkpt>
      <trkpt lat="46.88578" lon="8.55309">
        <ele>1236</ele>
        <time>2021-08-10T14:17:16.339Z</time>
      </trkpt>
      <trkpt lat="46.88577" lon="8.55309">
        <ele>1236</ele>
        <time>2021-08-10T14:17:17.339Z</time>
      </trkpt>
      <trkpt lat="46.88577" lon="8.55308">
        <ele>1235</ele>
        <time>2021-08-10T14:17:18.339Z</time>
      </trkpt>
      <trkpt lat="46.88576" lon="8.55308">
        <ele>1235</ele>
        <time>2021-08-10T14:17:19.339Z</time>
      </trkpt>
      <trkpt lat="46.88576" lon="8.55307">
        <ele>1235</ele>
        <time>2021-08-10T14:17:20.339Z</time>
      </trkpt>
      <trkpt lat="46.88574" lon="8.55306">
        <ele>1235</ele>
        <time>2021-08-10T14:17:21.339Z</time>
      </trkpt>
      <trkpt lat="46.88573" lon="8.55306">
        <ele>1234</ele>
        <time>2021-08-10T14:17:22.339Z</time>
      </trkpt>
      <trkpt lat="46.88572" lon="8.55306">
        <ele>1234</ele>
        <time>2021-08-10T14:17:23.338Z</time>
      </trkpt>
      <trkpt lat="46.88571" lon="8.55306">
        <ele>1234</ele>
        <time>2021-08-10T14:17:24.338Z</time>
      </trkpt>
      <trkpt lat="46.8857" lon="8.55306">
        <ele>1234</ele>
        <time>2021-08-10T14:17:25.339Z</time>
      </trkpt>
      <trkpt lat="46.8857" lon="8.55305">
        <ele>1234</ele>
        <time>2021-08-10T14:17:26.339Z</time>
      </trkpt>
      <trkpt lat="46.88569" lon="8.55305">
        <ele>1233</ele>
        <time>2021-08-10T14:17:27.339Z</time>
      </trkpt>
      <trkpt lat="46.8857" lon="8.55304">
        <ele>1233</ele>
        <time>2021-08-10T14:17:28.339Z</time>
      </trkpt>
      <trkpt lat="46.88569" lon="8.55303">
        <ele>1233</ele>
        <time>2021-08-10T14:17:29.339Z</time>
      </trkpt>
      <trkpt lat="46.88568" lon="8.55302">
        <ele>1233</ele>
        <time>2021-08-10T14:17:30.338Z</time>
      </trkpt>
      <trkpt lat="46.88568" lon="8.55301">
        <ele>1233</ele>
        <time>2021-08-10T14:17:31.339Z</time>
      </trkpt>
      <trkpt lat="46.88567" lon="8.55301">
        <ele>1234</ele>
        <time>2021-08-10T14:17:32.339Z</time>
      </trkpt>
      <trkpt lat="46.88567" lon="8.55301">
        <ele>1234</ele>
        <time>2021-08-10T14:17:33.338Z</time>
      </trkpt>
      <trkpt lat="46.88566" lon="8.55301">
        <ele>1234</ele>
        <time>2021-08-10T14:17:34.339Z</time>
      </trkpt>
      <trkpt lat="46.88566" lon="8.553">
        <ele>1235</ele>
        <time>2021-08-10T14:17:35.338Z</time>
      </trkpt>
      <trkpt lat="46.88567" lon="8.55299">
        <ele>1235</ele>
        <time>2021-08-10T14:17:36.338Z</time>
      </trkpt>
      <trkpt lat="46.88568" lon="8.55298">
        <ele>1235</ele>
        <time>2021-08-10T14:17:37.339Z</time>
      </trkpt>
      <trkpt lat="46.88567" lon="8.55298">
        <ele>1236</ele>
        <time>2021-08-10T14:17:38.339Z</time>
      </trkpt>
      <trkpt lat="46.88566" lon="8.55298">
        <ele>1236</ele>
        <time>2021-08-10T14:17:39.338Z</time>
      </trkpt>
      <trkpt lat="46.88565" lon="8.55298">
        <ele>1237</ele>
        <time>2021-08-10T14:17:40.339Z</time>
      </trkpt>
      <trkpt lat="46.88564" lon="8.55298">
        <ele>1237</ele>
        <time>2021-08-10T14:17:41.339Z</time>
      </trkpt>
      <trkpt lat="46.88564" lon="8.55298">
        <ele>1237</ele>
        <time>2021-08-10T14:17:42.339Z</time>
      </trkpt>
      <trkpt lat="46.88564" lon="8.55298">
        <ele>1238</ele>
        <time>2021-08-10T14:17:43.339Z</time>
      </trkpt>
      <trkpt lat="46.88563" lon="8.55298">
        <ele>1238</ele>
        <time>2021-08-10T14:17:44.339Z</time>
      </trkpt>
      <trkpt lat="46.88563" lon="8.55298">
        <ele>1238</ele>
        <time>2021-08-10T14:17:45.338Z</time>
      </trkpt>
      <trkpt lat="46.88563" lon="8.55297">
        <ele>1238</ele>
        <time>2021-08-10T14:17:46.339Z</time>
      </trkpt>
      <trkpt lat="46.88563" lon="8.55296">
        <ele>1239</ele>
        <time>2021-08-10T14:17:47.339Z</time>
      </trkpt>
      <trkpt lat="46.88563" lon="8.55295">
        <ele>1239</ele>
        <time>2021-08-10T14:17:48.338Z</time>
      </trkpt>
      <trkpt lat="46.88563" lon="8.55296">
        <ele>1239</ele>
        <time>2021-08-10T14:17:49.339Z</time>
      </trkpt>
      <trkpt lat="46.88564" lon="8.55296">
        <ele>1239</ele>
        <time>2021-08-10T14:17:50.339Z</time>
      </trkpt>
      <trkpt lat="46.88565" lon="8.55296">
        <ele>1239</ele>
        <time>2021-08-10T14:17:51.338Z</time>
      </trkpt>
      <trkpt lat="46.88566" lon="8.55296">
        <ele>1240</ele>
        <time>2021-08-10T14:17:52.339Z</time>
      </trkpt>
      <trkpt lat="46.88566" lon="8.55296">
        <ele>1240</ele>
        <time>2021-08-10T14:17:53.338Z</time>
      </trkpt>
      <trkpt lat="46.88567" lon="8.55296">
        <ele>1241</ele>
        <time>2021-08-10T14:17:54.339Z</time>
      </trkpt>
      <trkpt lat="46.88568" lon="8.55296">
        <ele>1241</ele>
        <time>2021-08-10T14:17:55.339Z</time>
      </trkpt>
      <trkpt lat="46.88568" lon="8.55296">
        <ele>1242</ele>
        <time>2021-08-10T14:17:56.339Z</time>
      </trkpt>
      <trkpt lat="46.88569" lon="8.55295">
        <ele>1242</ele>
        <time>2021-08-10T14:17:57.338Z</time>
      </trkpt>
      <trkpt lat="46.88569" lon="8.55293">
        <ele>1243</ele>
        <time>2021-08-10T14:17:58.339Z</time>
      </trkpt>
      <trkpt lat="46.8857" lon="8.55292">
        <ele>1243</ele>
        <time>2021-08-10T14:17:59.339Z</time>
      </trkpt>
      <trkpt lat="46.88571" lon="8.55291">
        <ele>1244</ele>
        <time>2021-08-10T14:18:00.338Z</time>
      </trkpt>
      <trkpt lat="46.88572" lon="8.55291">
        <ele>1244</ele>
        <time>2021-08-10T14:18:01.338Z</time>
      </trkpt>
      <trkpt lat="46.88573" lon="8.5529">
        <ele>1245</ele>
        <time>2021-08-10T14:18:02.338Z</time>
      </trkpt>
      <trkpt lat="46.88574" lon="8.55289">
        <ele>1245</ele>
        <time>2021-08-10T14:18:05.447Z</time>
      </trkpt>
      <trkpt lat="46.88575" lon="8.55287">
        <ele>1246</ele>
        <time>2021-08-10T14:18:06.447Z</time>
      </trkpt>
      <trkpt lat="46.88576" lon="8.55286">
        <ele>1246</ele>
        <time>2021-08-10T14:18:07.448Z</time>
      </trkpt>
      <trkpt lat="46.88576" lon="8.55286">
        <ele>1246</ele>
        <time>2021-08-10T14:18:09.575Z</time>
      </trkpt>
      <trkpt lat="46.88576" lon="8.55285">
        <ele>1247</ele>
        <time>2021-08-10T14:18:10.575Z</time>
      </trkpt>
      <trkpt lat="46.88577" lon="8.55285">
        <ele>1247</ele>
        <time>2021-08-10T14:18:11.575Z</time>
      </trkpt>
      <trkpt lat="46.88577" lon="8.55284">
        <ele>1248</ele>
        <time>2021-08-10T14:18:12.576Z</time>
      </trkpt>
      <trkpt lat="46.88576" lon="8.55283">
        <ele>1248</ele>
        <time>2021-08-10T14:18:13.576Z</time>
      </trkpt>
      <trkpt lat="46.88575" lon="8.55283">
        <ele>1248</ele>
        <time>2021-08-10T14:18:14.575Z</time>
      </trkpt>
      <trkpt lat="46.88574" lon="8.55283">
        <ele>1248</ele>
        <time>2021-08-10T14:18:15.575Z</time>
      </trkpt>
      <trkpt lat="46.88574" lon="8.55285">
        <ele>1248</ele>
        <time>2021-08-10T14:18:16.576Z</time>
      </trkpt>
      <trkpt lat="46.88573" lon="8.55285">
        <ele>1248</ele>
        <time>2021-08-10T14:18:17.576Z</time>
      </trkpt>
      <trkpt lat="46.88572" lon="8.55284">
        <ele>1248</ele>
        <time>2021-08-10T14:18:18.576Z</time>
      </trkpt>
      <trkpt lat="46.88571" lon="8.55284">
        <ele>1248</ele>
        <time>2021-08-10T14:18:19.576Z</time>
      </trkpt>
      <trkpt lat="46.88571" lon="8.55284">
        <ele>1249</ele>
        <time>2021-08-10T14:18:20.576Z</time>
      </trkpt>
      <trkpt lat="46.8857" lon="8.55283">
        <ele>1249</ele>
        <time>2021-08-10T14:18:23.732Z</time>
      </trkpt>
      <trkpt lat="46.8857" lon="8.55283">
        <ele>1250</ele>
        <time>2021-08-10T14:18:24.732Z</time>
      </trkpt>
      <trkpt lat="46.8857" lon="8.55284">
        <ele>1251</ele>
        <time>2021-08-10T14:18:25.731Z</time>
      </trkpt>
      <trkpt lat="46.88569" lon="8.55284">
        <ele>1251</ele>
        <time>2021-08-10T14:18:52.775Z</time>
      </trkpt>
      <trkpt lat="46.88569" lon="8.55283">
        <ele>1252</ele>
        <time>2021-08-10T14:18:58.628Z</time>
      </trkpt>
      <trkpt lat="46.88568" lon="8.55284">
        <ele>1252</ele>
        <time>2021-08-10T14:18:59.628Z</time>
      </trkpt>
      <trkpt lat="46.88568" lon="8.55283">
        <ele>1253</ele>
        <time>2021-08-10T14:19:00.628Z</time>
      </trkpt>
      <trkpt lat="46.88567" lon="8.55283">
        <ele>1253</ele>
        <time>2021-08-10T14:19:01.628Z</time>
      </trkpt>
      <trkpt lat="46.88567" lon="8.55283">
        <ele>1253</ele>
        <time>2021-08-10T14:19:02.628Z</time>
      </trkpt>
      <trkpt lat="46.88566" lon="8.55283">
        <ele>1254</ele>
        <time>2021-08-10T14:19:03.628Z</time>
      </trkpt>
      <trkpt lat="46.88566" lon="8.55283">
        <ele>1254</ele>
        <time>2021-08-10T14:19:04.628Z</time>
      </trkpt>
      <trkpt lat="46.88565" lon="8.55283">
        <ele>1254</ele>
        <time>2021-08-10T14:19:05.629Z</time>
      </trkpt>
      <trkpt lat="46.88564" lon="8.55282">
        <ele>1255</ele>
        <time>2021-08-10T14:19:08.695Z</time>
      </trkpt>
      <trkpt lat="46.88562" lon="8.55281">
        <ele>1255</ele>
        <time>2021-08-10T14:19:09.694Z</time>
      </trkpt>
      <trkpt lat="46.88561" lon="8.55281">
        <ele>1255</ele>
        <time>2021-08-10T14:19:10.695Z</time>
      </trkpt>
      <trkpt lat="46.8856" lon="8.5528">
        <ele>1255</ele>
        <time>2021-08-10T14:19:11.694Z</time>
      </trkpt>
      <trkpt lat="46.8856" lon="8.55279">
        <ele>1255</ele>
        <time>2021-08-10T14:19:12.694Z</time>
      </trkpt>
      <trkpt lat="46.8856" lon="8.55275">
        <ele>1255</ele>
        <time>2021-08-10T14:19:16.696Z</time>
      </trkpt>
      <trkpt lat="46.88559" lon="8.55274">
        <ele>1254</ele>
        <time>2021-08-10T14:19:17.695Z</time>
      </trkpt>
      <trkpt lat="46.88559" lon="8.55274">
        <ele>1254</ele>
        <time>2021-08-10T14:19:18.695Z</time>
      </trkpt>
      <trkpt lat="46.88558" lon="8.55274">
        <ele>1255</ele>
        <time>2021-08-10T14:19:19.695Z</time>
      </trkpt>
      <trkpt lat="46.88557" lon="8.55275">
        <ele>1255</ele>
        <time>2021-08-10T14:19:20.695Z</time>
      </trkpt>
      <trkpt lat="46.88557" lon="8.55275">
        <ele>1255</ele>
        <time>2021-08-10T14:19:21.695Z</time>
      </trkpt>
      <trkpt lat="46.88557" lon="8.55275">
        <ele>1255</ele>
        <time>2021-08-10T14:19:22.695Z</time>
      </trkpt>
      <trkpt lat="46.88557" lon="8.55276">
        <ele>1256</ele>
        <time>2021-08-10T14:19:23.695Z</time>
      </trkpt>
      <trkpt lat="46.88556" lon="8.55276">
        <ele>1256</ele>
        <time>2021-08-10T14:19:24.695Z</time>
      </trkpt>
      <trkpt lat="46.88557" lon="8.55275">
        <ele>1257</ele>
        <time>2021-08-10T14:19:25.697Z</time>
      </trkpt>
      <trkpt lat="46.88557" lon="8.55274">
        <ele>1257</ele>
        <time>2021-08-10T14:19:26.697Z</time>
      </trkpt>
      <trkpt lat="46.88556" lon="8.55273">
        <ele>1257</ele>
        <time>2021-08-10T14:19:44.715Z</time>
      </trkpt>
      <trkpt lat="46.88555" lon="8.55271">
        <ele>1257</ele>
        <time>2021-08-10T14:19:45.716Z</time>
      </trkpt>
      <trkpt lat="46.88555" lon="8.5527">
        <ele>1256</ele>
        <time>2021-08-10T14:20:01.630Z</time>
      </trkpt>
      <trkpt lat="46.88555" lon="8.55269">
        <ele>1256</ele>
        <time>2021-08-10T14:20:07.483Z</time>
      </trkpt>
      <trkpt lat="46.88554" lon="8.55267">
        <ele>1256</ele>
        <time>2021-08-10T14:20:08.483Z</time>
      </trkpt>
      <trkpt lat="46.88553" lon="8.55266">
        <ele>1256</ele>
        <time>2021-08-10T14:20:09.483Z</time>
      </trkpt>
      <trkpt lat="46.88552" lon="8.55266">
        <ele>1257</ele>
        <time>2021-08-10T14:20:10.483Z</time>
      </trkpt>
      <trkpt lat="46.88551" lon="8.55265">
        <ele>1257</ele>
        <time>2021-08-10T14:20:11.482Z</time>
      </trkpt>
      <trkpt lat="46.88551" lon="8.55264">
        <ele>1257</ele>
        <time>2021-08-10T14:20:12.483Z</time>
      </trkpt>
      <trkpt lat="46.88551" lon="8.55263">
        <ele>1258</ele>
        <time>2021-08-10T14:20:19.632Z</time>
      </trkpt>
      <trkpt lat="46.88551" lon="8.55264">
        <ele>1259</ele>
        <time>2021-08-10T14:20:20.632Z</time>
      </trkpt>
      <trkpt lat="46.88551" lon="8.55264">
        <ele>1259</ele>
        <time>2021-08-10T14:20:21.633Z</time>
      </trkpt>
      <trkpt lat="46.88551" lon="8.55265">
        <ele>1260</ele>
        <time>2021-08-10T14:20:35.638Z</time>
      </trkpt>
      <trkpt lat="46.8855" lon="8.55265">
        <ele>1260</ele>
        <time>2021-08-10T14:20:51.522Z</time>
      </trkpt>
      <trkpt lat="46.88549" lon="8.55266">
        <ele>1261</ele>
        <time>2021-08-10T14:20:52.521Z</time>
      </trkpt>
      <trkpt lat="46.88549" lon="8.55266">
        <ele>1261</ele>
        <time>2021-08-10T14:20:53.522Z</time>
      </trkpt>
      <trkpt lat="46.88549" lon="8.55266">
        <ele>1262</ele>
        <time>2021-08-10T14:20:54.522Z</time>
      </trkpt>
      <trkpt lat="46.88548" lon="8.55266">
        <ele>1262</ele>
        <time>2021-08-10T14:20:55.521Z</time>
      </trkpt>
      <trkpt lat="46.88548" lon="8.55266">
        <ele>1262</ele>
        <time>2021-08-10T14:21:07.609Z</time>
      </trkpt>
      <trkpt lat="46.88548" lon="8.55265">
        <ele>1262</ele>
        <time>2021-08-10T14:21:11.482Z</time>
      </trkpt>
      <trkpt lat="46.88549" lon="8.55265">
        <ele>1262</ele>
        <time>2021-08-10T14:21:12.482Z</time>
      </trkpt>
      <trkpt lat="46.88549" lon="8.55263">
        <ele>1263</ele>
        <time>2021-08-10T14:21:13.481Z</time>
      </trkpt>
      <trkpt lat="46.88551" lon="8.55262">
        <ele>1263</ele>
        <time>2021-08-10T14:21:14.482Z</time>
      </trkpt>
      <trkpt lat="46.88552" lon="8.5526">
        <ele>1263</ele>
        <time>2021-08-10T14:21:15.481Z</time>
      </trkpt>
      <trkpt lat="46.88553" lon="8.5526">
        <ele>1263</ele>
        <time>2021-08-10T14:21:16.482Z</time>
      </trkpt>
      <trkpt lat="46.88554" lon="8.5526">
        <ele>1263</ele>
        <time>2021-08-10T14:21:33.582Z</time>
      </trkpt>
      <trkpt lat="46.88555" lon="8.55261">
        <ele>1262</ele>
        <time>2021-08-10T14:21:34.583Z</time>
      </trkpt>
      <trkpt lat="46.88555" lon="8.5526">
        <ele>1262</ele>
        <time>2021-08-10T14:21:35.582Z</time>
      </trkpt>
      <trkpt lat="46.88555" lon="8.5526">
        <ele>1262</ele>
        <time>2021-08-10T14:21:36.582Z</time>
      </trkpt>
      <trkpt lat="46.88555" lon="8.55259">
        <ele>1262</ele>
        <time>2021-08-10T14:21:37.583Z</time>
      </trkpt>
      <trkpt lat="46.88555" lon="8.55258">
        <ele>1262</ele>
        <time>2021-08-10T14:21:47.610Z</time>
      </trkpt>
      <trkpt lat="46.88555" lon="8.55258">
        <ele>1262</ele>
        <time>2021-08-10T14:21:48.610Z</time>
      </trkpt>
      <trkpt lat="46.88554" lon="8.55257">
        <ele>1262</ele>
        <time>2021-08-10T14:21:49.610Z</time>
      </trkpt>
      <trkpt lat="46.88554" lon="8.55256">
        <ele>1262</ele>
        <time>2021-08-10T14:21:50.610Z</time>
      </trkpt>
      <trkpt lat="46.88554" lon="8.55255">
        <ele>1262</ele>
        <time>2021-08-10T14:21:53.737Z</time>
      </trkpt>
      <trkpt lat="46.88554" lon="8.55255">
        <ele>1262</ele>
        <time>2021-08-10T14:21:54.737Z</time>
      </trkpt>
      <trkpt lat="46.88554" lon="8.55255">
        <ele>1262</ele>
        <time>2021-08-10T14:21:55.737Z</time>
      </trkpt>
      <trkpt lat="46.88554" lon="8.55254">
        <ele>1262</ele>
        <time>2021-08-10T14:21:56.737Z</time>
      </trkpt>
      <trkpt lat="46.88554" lon="8.55254">
        <ele>1262</ele>
        <time>2021-08-10T14:22:11.748Z</time>
      </trkpt>
      <trkpt lat="46.88554" lon="8.55253">
        <ele>1262</ele>
        <time>2021-08-10T14:22:21.604Z</time>
      </trkpt>
      <trkpt lat="46.88554" lon="8.55252">
        <ele>1262</ele>
        <time>2021-08-10T14:22:23.447Z</time>
      </trkpt>
      <trkpt lat="46.88555" lon="8.55251">
        <ele>1262</ele>
        <time>2021-08-10T14:22:24.446Z</time>
      </trkpt>
      <trkpt lat="46.88555" lon="8.5525">
        <ele>1262</ele>
        <time>2021-08-10T14:22:25.446Z</time>
      </trkpt>
      <trkpt lat="46.88555" lon="8.5525">
        <ele>1262</ele>
        <time>2021-08-10T14:22:26.447Z</time>
      </trkpt>
      <trkpt lat="46.88555" lon="8.5525">
        <ele>1262</ele>
        <time>2021-08-10T14:22:36.482Z</time>
      </trkpt>
      <trkpt lat="46.88554" lon="8.5525">
        <ele>1262</ele>
        <time>2021-08-10T14:22:37.483Z</time>
      </trkpt>
      <trkpt lat="46.88554" lon="8.55249">
        <ele>1262</ele>
        <time>2021-08-10T14:22:38.482Z</time>
      </trkpt>
      <trkpt lat="46.88552" lon="8.55249">
        <ele>1261</ele>
        <time>2021-08-10T14:22:39.483Z</time>
      </trkpt>
      <trkpt lat="46.88551" lon="8.55249">
        <ele>1261</ele>
        <time>2021-08-10T14:22:45.481Z</time>
      </trkpt>
      <trkpt lat="46.8855" lon="8.55249">
        <ele>1261</ele>
        <time>2021-08-10T14:22:47.347Z</time>
      </trkpt>
      <trkpt lat="46.88549" lon="8.55249">
        <ele>1261</ele>
        <time>2021-08-10T14:22:48.348Z</time>
      </trkpt>
      <trkpt lat="46.88548" lon="8.5525">
        <ele>1261</ele>
        <time>2021-08-10T14:22:49.348Z</time>
      </trkpt>
      <trkpt lat="46.88547" lon="8.5525">
        <ele>1261</ele>
        <time>2021-08-10T14:22:50.347Z</time>
      </trkpt>
      <trkpt lat="46.88547" lon="8.5525">
        <ele>1261</ele>
        <time>2021-08-10T14:22:51.347Z</time>
      </trkpt>
      <trkpt lat="46.88546" lon="8.5525">
        <ele>1261</ele>
        <time>2021-08-10T14:23:57.397Z</time>
      </trkpt>
      <trkpt lat="46.88546" lon="8.55251">
        <ele>1261</ele>
        <time>2021-08-10T14:23:58.397Z</time>
      </trkpt>
      <trkpt lat="46.88545" lon="8.55252">
        <ele>1260</ele>
        <time>2021-08-10T14:23:59.397Z</time>
      </trkpt>
      <trkpt lat="46.88544" lon="8.55253">
        <ele>1260</ele>
        <time>2021-08-10T14:24:19.514Z</time>
      </trkpt>
      <trkpt lat="46.88543" lon="8.55253">
        <ele>1259</ele>
        <time>2021-08-10T14:24:20.513Z</time>
      </trkpt>
      <trkpt lat="46.88543" lon="8.55254">
        <ele>1259</ele>
        <time>2021-08-10T14:24:21.514Z</time>
      </trkpt>
      <trkpt lat="46.88542" lon="8.55254">
        <ele>1259</ele>
        <time>2021-08-10T14:24:22.514Z</time>
      </trkpt>
      <trkpt lat="46.88541" lon="8.55253">
        <ele>1258</ele>
        <time>2021-08-10T14:24:29.618Z</time>
      </trkpt>
      <trkpt lat="46.8854" lon="8.55252">
        <ele>1258</ele>
        <time>2021-08-10T14:25:16.536Z</time>
      </trkpt>
      <trkpt lat="46.88539" lon="8.55251">
        <ele>1258</ele>
        <time>2021-08-10T14:25:17.536Z</time>
      </trkpt>
      <trkpt lat="46.88539" lon="8.55251">
        <ele>1257</ele>
        <time>2021-08-10T14:25:18.536Z</time>
      </trkpt>
      <trkpt lat="46.88538" lon="8.5525">
        <ele>1257</ele>
        <time>2021-08-10T14:25:54.616Z</time>
      </trkpt>
      <trkpt lat="46.88538" lon="8.55248">
        <ele>1257</ele>
        <time>2021-08-10T14:25:57.454Z</time>
      </trkpt>
      <trkpt lat="46.88537" lon="8.55247">
        <ele>1257</ele>
        <time>2021-08-10T14:26:15.217Z</time>
      </trkpt>
      <trkpt lat="46.88537" lon="8.55246">
        <ele>1257</ele>
        <time>2021-08-10T14:26:16.217Z</time>
      </trkpt>
      <trkpt lat="46.88536" lon="8.55247">
        <ele>1256</ele>
        <time>2021-08-10T14:26:33.004Z</time>
      </trkpt>
      <trkpt lat="46.88535" lon="8.55247">
        <ele>1256</ele>
        <time>2021-08-10T14:26:34.005Z</time>
      </trkpt>
      <trkpt lat="46.88534" lon="8.55247">
        <ele>1256</ele>
        <time>2021-08-10T14:26:35.005Z</time>
      </trkpt>
      <trkpt lat="46.88533" lon="8.55247">
        <ele>1256</ele>
        <time>2021-08-10T14:28:11.113Z</time>
      </trkpt>
      <trkpt lat="46.88533" lon="8.55247">
        <ele>1257</ele>
        <time>2021-08-10T14:28:12.113Z</time>
      </trkpt>
      <trkpt lat="46.88531" lon="8.55246">
        <ele>1257</ele>
        <time>2021-08-10T14:28:13.113Z</time>
      </trkpt>
      <trkpt lat="46.88531" lon="8.55244">
        <ele>1257</ele>
        <time>2021-08-10T14:29:16.237Z</time>
      </trkpt>
      <trkpt lat="46.8853" lon="8.55242">
        <ele>1257</ele>
        <time>2021-08-10T14:29:17.237Z</time>
      </trkpt>
      <trkpt lat="46.8853" lon="8.55241">
        <ele>1258</ele>
        <time>2021-08-10T14:29:18.237Z</time>
      </trkpt>
      <trkpt lat="46.88529" lon="8.5524">
        <ele>1258</ele>
        <time>2021-08-10T14:29:19.237Z</time>
      </trkpt>
      <trkpt lat="46.88529" lon="8.55238">
        <ele>1258</ele>
        <time>2021-08-10T14:29:20.236Z</time>
      </trkpt>
      <trkpt lat="46.88529" lon="8.5524">
        <ele>1258</ele>
        <time>2021-08-10T14:30:43.368Z</time>
      </trkpt>
      <trkpt lat="46.88529" lon="8.55243">
        <ele>1259</ele>
        <time>2021-08-10T14:30:44.368Z</time>
      </trkpt>
      <trkpt lat="46.88529" lon="8.55244">
        <ele>1259</ele>
        <time>2021-08-10T14:30:45.368Z</time>
      </trkpt>
      <trkpt lat="46.88529" lon="8.55244">
        <ele>1259</ele>
        <time>2021-08-10T14:30:46.368Z</time>
      </trkpt>
      <trkpt lat="46.88529" lon="8.55244">
        <ele>1260</ele>
        <time>2021-08-10T14:30:47.367Z</time>
      </trkpt>
      <trkpt lat="46.88528" lon="8.55243">
        <ele>1260</ele>
        <time>2021-08-10T14:30:48.368Z</time>
      </trkpt>
      <trkpt lat="46.88528" lon="8.55243">
        <ele>1261</ele>
        <time>2021-08-10T14:30:49.367Z</time>
      </trkpt>
      <trkpt lat="46.88527" lon="8.55243">
        <ele>1262</ele>
        <time>2021-08-10T14:30:50.367Z</time>
      </trkpt>
      <trkpt lat="46.88527" lon="8.55243">
        <ele>1263</ele>
        <time>2021-08-10T14:30:51.367Z</time>
      </trkpt>
      <trkpt lat="46.88526" lon="8.55241">
        <ele>1264</ele>
        <time>2021-08-10T14:30:52.368Z</time>
      </trkpt>
      <trkpt lat="46.88526" lon="8.5524">
        <ele>1265</ele>
        <time>2021-08-10T14:30:53.367Z</time>
      </trkpt>
      <trkpt lat="46.88526" lon="8.55238">
        <ele>1265</ele>
        <time>2021-08-10T14:30:54.367Z</time>
      </trkpt>
      <trkpt lat="46.88527" lon="8.55237">
        <ele>1266</ele>
        <time>2021-08-10T14:30:55.367Z</time>
      </trkpt>
      <trkpt lat="46.88527" lon="8.55235">
        <ele>1267</ele>
        <time>2021-08-10T14:30:57.487Z</time>
      </trkpt>
      <trkpt lat="46.88527" lon="8.55234">
        <ele>1267</ele>
        <time>2021-08-10T14:30:58.487Z</time>
      </trkpt>
      <trkpt lat="46.88527" lon="8.55233">
        <ele>1268</ele>
        <time>2021-08-10T14:30:59.486Z</time>
      </trkpt>
      <trkpt lat="46.88527" lon="8.55232">
        <ele>1269</ele>
        <time>2021-08-10T14:31:00.487Z</time>
      </trkpt>
      <trkpt lat="46.88528" lon="8.55232">
        <ele>1269</ele>
        <time>2021-08-10T14:31:01.486Z</time>
      </trkpt>
      <trkpt lat="46.88529" lon="8.55231">
        <ele>1269</ele>
        <time>2021-08-10T14:31:03.614Z</time>
      </trkpt>
      <trkpt lat="46.88528" lon="8.5523">
        <ele>1270</ele>
        <time>2021-08-10T14:31:04.614Z</time>
      </trkpt>
      <trkpt lat="46.88528" lon="8.55229">
        <ele>1270</ele>
        <time>2021-08-10T14:31:05.614Z</time>
      </trkpt>
      <trkpt lat="46.88528" lon="8.55227">
        <ele>1270</ele>
        <time>2021-08-10T14:31:06.614Z</time>
      </trkpt>
      <trkpt lat="46.88528" lon="8.55226">
        <ele>1270</ele>
        <time>2021-08-10T14:31:07.613Z</time>
      </trkpt>
      <trkpt lat="46.88527" lon="8.55224">
        <ele>1271</ele>
        <time>2021-08-10T14:31:08.613Z</time>
      </trkpt>
      <trkpt lat="46.88527" lon="8.55223">
        <ele>1271</ele>
        <time>2021-08-10T14:31:09.613Z</time>
      </trkpt>
      <trkpt lat="46.88526" lon="8.55222">
        <ele>1271</ele>
        <time>2021-08-10T14:31:54.716Z</time>
      </trkpt>
      <trkpt lat="46.88526" lon="8.55222">
        <ele>1271</ele>
        <time>2021-08-10T14:32:14.620Z</time>
      </trkpt>
      <trkpt lat="46.88526" lon="8.5522">
        <ele>1272</ele>
        <time>2021-08-10T14:32:15.620Z</time>
      </trkpt>
      <trkpt lat="46.88526" lon="8.55219">
        <ele>1272</ele>
        <time>2021-08-10T14:32:21.468Z</time>
      </trkpt>
      <trkpt lat="46.88526" lon="8.55218">
        <ele>1272</ele>
        <time>2021-08-10T14:32:22.468Z</time>
      </trkpt>
      <trkpt lat="46.88525" lon="8.55217">
        <ele>1272</ele>
        <time>2021-08-10T14:32:23.468Z</time>
      </trkpt>
      <trkpt lat="46.88524" lon="8.55217">
        <ele>1272</ele>
        <time>2021-08-10T14:32:24.467Z</time>
      </trkpt>
      <trkpt lat="46.88524" lon="8.55218">
        <ele>1273</ele>
        <time>2021-08-10T14:32:25.468Z</time>
      </trkpt>
      <trkpt lat="46.88522" lon="8.55218">
        <ele>1273</ele>
        <time>2021-08-10T14:32:26.467Z</time>
      </trkpt>
      <trkpt lat="46.8852" lon="8.55219">
        <ele>1273</ele>
        <time>2021-08-10T14:32:27.468Z</time>
      </trkpt>
      <trkpt lat="46.88519" lon="8.55219">
        <ele>1274</ele>
        <time>2021-08-10T14:32:28.468Z</time>
      </trkpt>
      <trkpt lat="46.88518" lon="8.55218">
        <ele>1274</ele>
        <time>2021-08-10T14:33:02.586Z</time>
      </trkpt>
      <trkpt lat="46.88517" lon="8.55217">
        <ele>1274</ele>
        <time>2021-08-10T14:33:03.586Z</time>
      </trkpt>
      <trkpt lat="46.88516" lon="8.55218">
        <ele>1275</ele>
        <time>2021-08-10T14:34:03.475Z</time>
      </trkpt>
      <trkpt lat="46.88516" lon="8.55218">
        <ele>1275</ele>
        <time>2021-08-10T14:34:04.476Z</time>
      </trkpt>
      <trkpt lat="46.88516" lon="8.55217">
        <ele>1275</ele>
        <time>2021-08-10T14:34:05.476Z</time>
      </trkpt>
      <trkpt lat="46.88515" lon="8.55216">
        <ele>1275</ele>
        <time>2021-08-10T14:34:06.475Z</time>
      </trkpt>
      <trkpt lat="46.88515" lon="8.55216">
        <ele>1275</ele>
        <time>2021-08-10T14:34:07.476Z</time>
      </trkpt>
      <trkpt lat="46.88515" lon="8.55215">
        <ele>1276</ele>
        <time>2021-08-10T14:34:08.476Z</time>
      </trkpt>
      <trkpt lat="46.88515" lon="8.55214">
        <ele>1276</ele>
        <time>2021-08-10T14:34:09.476Z</time>
      </trkpt>
      <trkpt lat="46.88515" lon="8.55213">
        <ele>1276</ele>
        <time>2021-08-10T14:34:10.475Z</time>
      </trkpt>
      <trkpt lat="46.88514" lon="8.55213">
        <ele>1276</ele>
        <time>2021-08-10T14:34:19.614Z</time>
      </trkpt>
      <trkpt lat="46.88513" lon="8.55212">
        <ele>1277</ele>
        <time>2021-08-10T14:34:20.614Z</time>
      </trkpt>
      <trkpt lat="46.88511" lon="8.55212">
        <ele>1277</ele>
        <time>2021-08-10T14:34:21.615Z</time>
      </trkpt>
      <trkpt lat="46.8851" lon="8.55211">
        <ele>1277</ele>
        <time>2021-08-10T14:34:35.751Z</time>
      </trkpt>
      <trkpt lat="46.8851" lon="8.5521">
        <ele>1276</ele>
        <time>2021-08-10T14:34:36.751Z</time>
      </trkpt>
      <trkpt lat="46.8851" lon="8.55209">
        <ele>1276</ele>
        <time>2021-08-10T14:34:37.750Z</time>
      </trkpt>
      <trkpt lat="46.88509" lon="8.55209">
        <ele>1276</ele>
        <time>2021-08-10T14:34:38.750Z</time>
      </trkpt>
      <trkpt lat="46.88509" lon="8.55209">
        <ele>1276</ele>
        <time>2021-08-10T14:36:13.839Z</time>
      </trkpt>
      <trkpt lat="46.88508" lon="8.55209">
        <ele>1277</ele>
        <time>2021-08-10T14:36:14.838Z</time>
      </trkpt>
      <trkpt lat="46.88508" lon="8.55209">
        <ele>1277</ele>
        <time>2021-08-10T14:36:15.839Z</time>
      </trkpt>
      <trkpt lat="46.88508" lon="8.55209">
        <ele>1277</ele>
        <time>2021-08-10T14:36:16.839Z</time>
      </trkpt>
      <trkpt lat="46.88508" lon="8.55209">
        <ele>1277</ele>
        <time>2021-08-10T14:36:23.985Z</time>
      </trkpt>
      <trkpt lat="46.88508" lon="8.5521">
        <ele>1277</ele>
        <time>2021-08-10T14:36:24.984Z</time>
      </trkpt>
      <trkpt lat="46.88509" lon="8.5521">
        <ele>1277</ele>
        <time>2021-08-10T14:36:36.849Z</time>
      </trkpt>
      <trkpt lat="46.88509" lon="8.55211">
        <ele>1278</ele>
        <time>2021-08-10T14:36:37.850Z</time>
      </trkpt>
      <trkpt lat="46.88509" lon="8.55211">
        <ele>1278</ele>
        <time>2021-08-10T14:36:38.850Z</time>
      </trkpt>
      <trkpt lat="46.88509" lon="8.55212">
        <ele>1278</ele>
        <time>2021-08-10T14:36:39.850Z</time>
      </trkpt>
      <trkpt lat="46.8851" lon="8.55212">
        <ele>1278</ele>
        <time>2021-08-10T14:36:42.968Z</time>
      </trkpt>
      <trkpt lat="46.8851" lon="8.55211">
        <ele>1278</ele>
        <time>2021-08-10T14:36:55.871Z</time>
      </trkpt>
      <trkpt lat="46.88511" lon="8.55209">
        <ele>1279</ele>
        <time>2021-08-10T14:36:56.871Z</time>
      </trkpt>
      <trkpt lat="46.88511" lon="8.55209">
        <ele>1280</ele>
        <time>2021-08-10T14:36:57.870Z</time>
      </trkpt>
      <trkpt lat="46.88512" lon="8.55208">
        <ele>1280</ele>
        <time>2021-08-10T14:37:03.976Z</time>
      </trkpt>
      <trkpt lat="46.88512" lon="8.55206">
        <ele>1280</ele>
        <time>2021-08-10T14:37:04.976Z</time>
      </trkpt>
      <trkpt lat="46.88513" lon="8.55204">
        <ele>1280</ele>
        <time>2021-08-10T14:37:05.975Z</time>
      </trkpt>
      <trkpt lat="46.88512" lon="8.55204">
        <ele>1280</ele>
        <time>2021-08-10T14:37:20.729Z</time>
      </trkpt>
      <trkpt lat="46.88511" lon="8.55203">
        <ele>1280</ele>
        <time>2021-08-10T14:37:21.729Z</time>
      </trkpt>
      <trkpt lat="46.8851" lon="8.55203">
        <ele>1281</ele>
        <time>2021-08-10T14:37:22.729Z</time>
      </trkpt>
      <trkpt lat="46.88509" lon="8.55201">
        <ele>1281</ele>
        <time>2021-08-10T14:37:23.729Z</time>
      </trkpt>
      <trkpt lat="46.88509" lon="8.55201">
        <ele>1281</ele>
        <time>2021-08-10T14:37:31.848Z</time>
      </trkpt>
      <trkpt lat="46.88509" lon="8.552">
        <ele>1281</ele>
        <time>2021-08-10T14:37:32.848Z</time>
      </trkpt>
      <trkpt lat="46.88508" lon="8.55199">
        <ele>1281</ele>
        <time>2021-08-10T14:37:33.849Z</time>
      </trkpt>
      <trkpt lat="46.88507" lon="8.55199">
        <ele>1281</ele>
        <time>2021-08-10T14:37:34.848Z</time>
      </trkpt>
      <trkpt lat="46.88507" lon="8.55199">
        <ele>1281</ele>
        <time>2021-08-10T14:37:35.848Z</time>
      </trkpt>
      <trkpt lat="46.88507" lon="8.55199">
        <ele>1281</ele>
        <time>2021-08-10T14:37:36.849Z</time>
      </trkpt>
      <trkpt lat="46.88502" lon="8.55197">
        <ele>1281</ele>
        <time>2021-08-10T14:37:37.850Z</time>
      </trkpt>
      <trkpt lat="46.88502" lon="8.55197">
        <ele>1281</ele>
        <time>2021-08-10T14:37:38.850Z</time>
      </trkpt>
      <trkpt lat="46.885" lon="8.55197">
        <ele>1281</ele>
        <time>2021-08-10T14:37:45.839Z</time>
      </trkpt>
      <trkpt lat="46.885" lon="8.55196">
        <ele>1281</ele>
        <time>2021-08-10T14:37:46.838Z</time>
      </trkpt>
      <trkpt lat="46.88499" lon="8.55195">
        <ele>1282</ele>
        <time>2021-08-10T14:38:15.588Z</time>
      </trkpt>
      <trkpt lat="46.88499" lon="8.55193">
        <ele>1282</ele>
        <time>2021-08-10T14:38:16.587Z</time>
      </trkpt>
      <trkpt lat="46.885" lon="8.55192">
        <ele>1282</ele>
        <time>2021-08-10T14:38:17.587Z</time>
      </trkpt>
      <trkpt lat="46.885" lon="8.5519">
        <ele>1282</ele>
        <time>2021-08-10T14:38:21.739Z</time>
      </trkpt>
      <trkpt lat="46.885" lon="8.55189">
        <ele>1282</ele>
        <time>2021-08-10T14:38:22.739Z</time>
      </trkpt>
      <trkpt lat="46.88499" lon="8.55188">
        <ele>1282</ele>
        <time>2021-08-10T14:38:23.738Z</time>
      </trkpt>
      <trkpt lat="46.88499" lon="8.55187">
        <ele>1282</ele>
        <time>2021-08-10T14:38:49.838Z</time>
      </trkpt>
      <trkpt lat="46.88498" lon="8.55187">
        <ele>1283</ele>
        <time>2021-08-10T14:38:50.838Z</time>
      </trkpt>
      <trkpt lat="46.88499" lon="8.55187">
        <ele>1283</ele>
        <time>2021-08-10T14:38:51.838Z</time>
      </trkpt>
      <trkpt lat="46.885" lon="8.55186">
        <ele>1283</ele>
        <time>2021-08-10T14:40:05.720Z</time>
      </trkpt>
      <trkpt lat="46.885" lon="8.55186">
        <ele>1284</ele>
        <time>2021-08-10T14:40:06.720Z</time>
      </trkpt>
      <trkpt lat="46.885" lon="8.55187">
        <ele>1284</ele>
        <time>2021-08-10T14:40:07.719Z</time>
      </trkpt>
      <trkpt lat="46.885" lon="8.55187">
        <ele>1284</ele>
        <time>2021-08-10T14:40:08.720Z</time>
      </trkpt>
      <trkpt lat="46.88501" lon="8.55188">
        <ele>1284</ele>
        <time>2021-08-10T14:40:09.719Z</time>
      </trkpt>
      <trkpt lat="46.88501" lon="8.55187">
        <ele>1284</ele>
        <time>2021-08-10T14:40:11.857Z</time>
      </trkpt>
      <trkpt lat="46.88502" lon="8.55187">
        <ele>1284</ele>
        <time>2021-08-10T14:40:12.858Z</time>
      </trkpt>
      <trkpt lat="46.88501" lon="8.55188">
        <ele>1284</ele>
        <time>2021-08-10T14:40:21.750Z</time>
      </trkpt>
      <trkpt lat="46.88499" lon="8.5519">
        <ele>1280</ele>
        <time>2021-08-10T14:40:22.752Z</time>
      </trkpt>
      <trkpt lat="46.88499" lon="8.5519">
        <ele>1280</ele>
        <time>2021-08-10T14:40:23.751Z</time>
      </trkpt>
      <trkpt lat="46.88499" lon="8.5519">
        <ele>1280</ele>
        <time>2021-08-10T14:40:24.751Z</time>
      </trkpt>
      <trkpt lat="46.88495" lon="8.55198">
        <ele>1278</ele>
        <time>2021-08-10T14:40:25.751Z</time>
      </trkpt>
      <trkpt lat="46.88495" lon="8.55198">
        <ele>1278</ele>
        <time>2021-08-10T14:40:26.751Z</time>
      </trkpt>
      <trkpt lat="46.88495" lon="8.55198">
        <ele>1278</ele>
        <time>2021-08-10T14:40:27.752Z</time>
      </trkpt>
      <trkpt lat="46.88493" lon="8.55199">
        <ele>1278</ele>
        <time>2021-08-10T14:40:28.752Z</time>
      </trkpt>
      <trkpt lat="46.88493" lon="8.55199">
        <ele>1278</ele>
        <time>2021-08-10T14:40:29.751Z</time>
      </trkpt>
      <trkpt lat="46.88493" lon="8.55199">
        <ele>1278</ele>
        <time>2021-08-10T14:40:30.752Z</time>
      </trkpt>
      <trkpt lat="46.88494" lon="8.55199">
        <ele>1278</ele>
        <time>2021-08-10T14:41:20.827Z</time>
      </trkpt>
      <trkpt lat="46.88493" lon="8.55199">
        <ele>1278</ele>
        <time>2021-08-10T14:41:21.827Z</time>
      </trkpt>
      <trkpt lat="46.88492" lon="8.55199">
        <ele>1278</ele>
        <time>2021-08-10T14:41:22.828Z</time>
      </trkpt>
      <trkpt lat="46.88491" lon="8.55199">
        <ele>1278</ele>
        <time>2021-08-10T14:41:25.708Z</time>
      </trkpt>
      <trkpt lat="46.8849" lon="8.55199">
        <ele>1278</ele>
        <time>2021-08-10T14:41:26.709Z</time>
      </trkpt>
      <trkpt lat="46.8849" lon="8.55198">
        <ele>1277</ele>
        <time>2021-08-10T14:41:27.708Z</time>
      </trkpt>
      <trkpt lat="46.8849" lon="8.55198">
        <ele>1277</ele>
        <time>2021-08-10T14:41:31.720Z</time>
      </trkpt>
      <trkpt lat="46.88489" lon="8.55198">
        <ele>1277</ele>
        <time>2021-08-10T14:41:32.720Z</time>
      </trkpt>
      <trkpt lat="46.88488" lon="8.55198">
        <ele>1277</ele>
        <time>2021-08-10T14:41:33.721Z</time>
      </trkpt>
      <trkpt lat="46.88488" lon="8.55199">
        <ele>1276</ele>
        <time>2021-08-10T14:41:59.863Z</time>
      </trkpt>
      <trkpt lat="46.88488" lon="8.55199">
        <ele>1276</ele>
        <time>2021-08-10T14:42:00.863Z</time>
      </trkpt>
      <trkpt lat="46.88489" lon="8.55198">
        <ele>1276</ele>
        <time>2021-08-10T14:42:01.863Z</time>
      </trkpt>
      <trkpt lat="46.8849" lon="8.55197">
        <ele>1276</ele>
        <time>2021-08-10T14:42:02.863Z</time>
      </trkpt>
      <trkpt lat="46.88492" lon="8.55194">
        <ele>1276</ele>
        <time>2021-08-10T14:42:03.864Z</time>
      </trkpt>
      <trkpt lat="46.88492" lon="8.55194">
        <ele>1276</ele>
        <time>2021-08-10T14:42:04.864Z</time>
      </trkpt>
      <trkpt lat="46.88493" lon="8.55194">
        <ele>1276</ele>
        <time>2021-08-10T14:42:15.989Z</time>
      </trkpt>
      <trkpt lat="46.88493" lon="8.55194">
        <ele>1276</ele>
        <time>2021-08-10T14:42:16.989Z</time>
      </trkpt>
      <trkpt lat="46.88493" lon="8.55193">
        <ele>1277</ele>
        <time>2021-08-10T14:42:17.989Z</time>
      </trkpt>
      <trkpt lat="46.88493" lon="8.55193">
        <ele>1277</ele>
        <time>2021-08-10T14:43:09.102Z</time>
      </trkpt>
      <trkpt lat="46.88492" lon="8.55193">
        <ele>1278</ele>
        <time>2021-08-10T14:43:10.103Z</time>
      </trkpt>
      <trkpt lat="46.88491" lon="8.55192">
        <ele>1278</ele>
        <time>2021-08-10T14:43:39.959Z</time>
      </trkpt>
      <trkpt lat="46.88491" lon="8.55192">
        <ele>1279</ele>
        <time>2021-08-10T14:43:40.960Z</time>
      </trkpt>
      <trkpt lat="46.8849" lon="8.55191">
        <ele>1280</ele>
        <time>2021-08-10T14:43:41.959Z</time>
      </trkpt>
      <trkpt lat="46.8849" lon="8.55191">
        <ele>1280</ele>
        <time>2021-08-10T14:43:42.959Z</time>
      </trkpt>
      <trkpt lat="46.8849" lon="8.5519">
        <ele>1281</ele>
        <time>2021-08-10T14:43:43.959Z</time>
      </trkpt>
      <trkpt lat="46.88489" lon="8.5519">
        <ele>1281</ele>
        <time>2021-08-10T14:43:44.960Z</time>
      </trkpt>
      <trkpt lat="46.88489" lon="8.5519">
        <ele>1282</ele>
        <time>2021-08-10T14:43:45.960Z</time>
      </trkpt>
      <trkpt lat="46.88489" lon="8.55189">
        <ele>1282</ele>
        <time>2021-08-10T14:43:46.960Z</time>
      </trkpt>
      <trkpt lat="46.88488" lon="8.55189">
        <ele>1283</ele>
        <time>2021-08-10T14:43:47.960Z</time>
      </trkpt>
      <trkpt lat="46.88488" lon="8.55188">
        <ele>1283</ele>
        <time>2021-08-10T14:43:56.081Z</time>
      </trkpt>
      <trkpt lat="46.88488" lon="8.55187">
        <ele>1284</ele>
        <time>2021-08-10T14:43:57.081Z</time>
      </trkpt>
      <trkpt lat="46.88488" lon="8.55187">
        <ele>1284</ele>
        <time>2021-08-10T14:44:05.837Z</time>
      </trkpt>
      <trkpt lat="46.88489" lon="8.55186">
        <ele>1284</ele>
        <time>2021-08-10T14:44:06.837Z</time>
      </trkpt>
      <trkpt lat="46.88489" lon="8.55186">
        <ele>1285</ele>
        <time>2021-08-10T14:44:07.836Z</time>
      </trkpt>
      <trkpt lat="46.8849" lon="8.55186">
        <ele>1285</ele>
        <time>2021-08-10T14:44:13.706Z</time>
      </trkpt>
      <trkpt lat="46.8849" lon="8.55185">
        <ele>1285</ele>
        <time>2021-08-10T14:44:14.706Z</time>
      </trkpt>
      <trkpt lat="46.8849" lon="8.55184">
        <ele>1286</ele>
        <time>2021-08-10T14:44:15.706Z</time>
      </trkpt>
      <trkpt lat="46.88489" lon="8.55183">
        <ele>1286</ele>
        <time>2021-08-10T14:44:26.866Z</time>
      </trkpt>
      <trkpt lat="46.88488" lon="8.55182">
        <ele>1286</ele>
        <time>2021-08-10T14:44:27.867Z</time>
      </trkpt>
      <trkpt lat="46.88488" lon="8.55181">
        <ele>1286</ele>
        <time>2021-08-10T14:44:28.867Z</time>
      </trkpt>
      <trkpt lat="46.88487" lon="8.55181">
        <ele>1286</ele>
        <time>2021-08-10T14:44:29.867Z</time>
      </trkpt>
      <trkpt lat="46.88486" lon="8.55181">
        <ele>1286</ele>
        <time>2021-08-10T14:44:34.990Z</time>
      </trkpt>
      <trkpt lat="46.88486" lon="8.55181">
        <ele>1286</ele>
        <time>2021-08-10T14:44:35.989Z</time>
      </trkpt>
      <trkpt lat="46.88485" lon="8.55181">
        <ele>1286</ele>
        <time>2021-08-10T14:44:36.989Z</time>
      </trkpt>
      <trkpt lat="46.88485" lon="8.55181">
        <ele>1287</ele>
        <time>2021-08-10T14:44:47.080Z</time>
      </trkpt>
      <trkpt lat="46.88483" lon="8.55181">
        <ele>1287</ele>
        <time>2021-08-10T14:44:48.080Z</time>
      </trkpt>
      <trkpt lat="46.88482" lon="8.55182">
        <ele>1287</ele>
        <time>2021-08-10T14:44:49.080Z</time>
      </trkpt>
      <trkpt lat="46.88481" lon="8.55182">
        <ele>1287</ele>
        <time>2021-08-10T14:44:50.080Z</time>
      </trkpt>
      <trkpt lat="46.88481" lon="8.55181">
        <ele>1287</ele>
        <time>2021-08-10T14:45:22.111Z</time>
      </trkpt>
      <trkpt lat="46.8848" lon="8.5518">
        <ele>1287</ele>
        <time>2021-08-10T14:45:23.110Z</time>
      </trkpt>
      <trkpt lat="46.8848" lon="8.55178">
        <ele>1287</ele>
        <time>2021-08-10T14:45:24.110Z</time>
      </trkpt>
      <trkpt lat="46.8848" lon="8.55176">
        <ele>1287</ele>
        <time>2021-08-10T14:45:33.210Z</time>
      </trkpt>
      <trkpt lat="46.8848" lon="8.55175">
        <ele>1288</ele>
        <time>2021-08-10T14:45:34.210Z</time>
      </trkpt>
      <trkpt lat="46.8848" lon="8.55174">
        <ele>1288</ele>
        <time>2021-08-10T14:45:35.210Z</time>
      </trkpt>
      <trkpt lat="46.88479" lon="8.55174">
        <ele>1288</ele>
        <time>2021-08-10T14:45:36.209Z</time>
      </trkpt>
      <trkpt lat="46.88478" lon="8.55173">
        <ele>1288</ele>
        <time>2021-08-10T14:45:37.209Z</time>
      </trkpt>
      <trkpt lat="46.88477" lon="8.55173">
        <ele>1288</ele>
        <time>2021-08-10T14:45:38.210Z</time>
      </trkpt>
      <trkpt lat="46.88476" lon="8.55173">
        <ele>1288</ele>
        <time>2021-08-10T14:45:39.209Z</time>
      </trkpt>
      <trkpt lat="46.88476" lon="8.55172">
        <ele>1288</ele>
        <time>2021-08-10T14:45:53.382Z</time>
      </trkpt>
      <trkpt lat="46.88475" lon="8.55172">
        <ele>1288</ele>
        <time>2021-08-10T14:45:54.381Z</time>
      </trkpt>
      <trkpt lat="46.88474" lon="8.55172">
        <ele>1288</ele>
        <time>2021-08-10T14:45:55.381Z</time>
      </trkpt>
      <trkpt lat="46.88473" lon="8.55171">
        <ele>1288</ele>
        <time>2021-08-10T14:45:56.381Z</time>
      </trkpt>
      <trkpt lat="46.88472" lon="8.55171">
        <ele>1288</ele>
        <time>2021-08-10T14:45:57.382Z</time>
      </trkpt>
      <trkpt lat="46.88472" lon="8.55171">
        <ele>1288</ele>
        <time>2021-08-10T14:45:58.381Z</time>
      </trkpt>
      <trkpt lat="46.88472" lon="8.5517">
        <ele>1288</ele>
        <time>2021-08-10T14:46:34.459Z</time>
      </trkpt>
      <trkpt lat="46.88471" lon="8.55169">
        <ele>1288</ele>
        <time>2021-08-10T14:46:35.459Z</time>
      </trkpt>
      <trkpt lat="46.88471" lon="8.55167">
        <ele>1288</ele>
        <time>2021-08-10T14:46:36.460Z</time>
      </trkpt>
      <trkpt lat="46.8847" lon="8.55168">
        <ele>1288</ele>
        <time>2021-08-10T14:46:55.637Z</time>
      </trkpt>
      <trkpt lat="46.88469" lon="8.55168">
        <ele>1288</ele>
        <time>2021-08-10T14:46:56.638Z</time>
      </trkpt>
      <trkpt lat="46.88469" lon="8.55169">
        <ele>1287</ele>
        <time>2021-08-10T14:46:57.637Z</time>
      </trkpt>
      <trkpt lat="46.88469" lon="8.55169">
        <ele>1287</ele>
        <time>2021-08-10T14:46:58.637Z</time>
      </trkpt>
      <trkpt lat="46.88468" lon="8.5517">
        <ele>1287</ele>
        <time>2021-08-10T14:46:59.638Z</time>
      </trkpt>
      <trkpt lat="46.88468" lon="8.5517">
        <ele>1287</ele>
        <time>2021-08-10T14:47:07.721Z</time>
      </trkpt>
      <trkpt lat="46.88468" lon="8.55171">
        <ele>1287</ele>
        <time>2021-08-10T14:47:24.616Z</time>
      </trkpt>
      <trkpt lat="46.88468" lon="8.55171">
        <ele>1287</ele>
        <time>2021-08-10T14:48:17.466Z</time>
      </trkpt>
      <trkpt lat="46.88467" lon="8.55171">
        <ele>1287</ele>
        <time>2021-08-10T14:48:18.466Z</time>
      </trkpt>
      <trkpt lat="46.88467" lon="8.5517">
        <ele>1287</ele>
        <time>2021-08-10T14:48:43.344Z</time>
      </trkpt>
      <trkpt lat="46.88467" lon="8.5517">
        <ele>1287</ele>
        <time>2021-08-10T14:48:44.344Z</time>
      </trkpt>
      <trkpt lat="46.88466" lon="8.55169">
        <ele>1287</ele>
        <time>2021-08-10T14:48:45.344Z</time>
      </trkpt>
      <trkpt lat="46.88466" lon="8.55168">
        <ele>1287</ele>
        <time>2021-08-10T14:48:46.343Z</time>
      </trkpt>
      <trkpt lat="46.88465" lon="8.55168">
        <ele>1287</ele>
        <time>2021-08-10T14:48:54.447Z</time>
      </trkpt>
      <trkpt lat="46.88465" lon="8.55168">
        <ele>1287</ele>
        <time>2021-08-10T14:48:55.448Z</time>
      </trkpt>
      <trkpt lat="46.88465" lon="8.55168">
        <ele>1288</ele>
        <time>2021-08-10T14:48:56.447Z</time>
      </trkpt>
      <trkpt lat="46.88464" lon="8.55168">
        <ele>1288</ele>
        <time>2021-08-10T14:48:57.447Z</time>
      </trkpt>
      <trkpt lat="46.88464" lon="8.55168">
        <ele>1288</ele>
        <time>2021-08-10T14:48:58.447Z</time>
      </trkpt>
      <trkpt lat="46.88463" lon="8.55169">
        <ele>1288</ele>
        <time>2021-08-10T14:48:59.447Z</time>
      </trkpt>
      <trkpt lat="46.88462" lon="8.5517">
        <ele>1289</ele>
        <time>2021-08-10T14:49:00.447Z</time>
      </trkpt>
      <trkpt lat="46.88462" lon="8.55171">
        <ele>1289</ele>
        <time>2021-08-10T14:49:01.448Z</time>
      </trkpt>
      <trkpt lat="46.88461" lon="8.55172">
        <ele>1289</ele>
        <time>2021-08-10T14:49:02.448Z</time>
      </trkpt>
      <trkpt lat="46.88461" lon="8.55173">
        <ele>1289</ele>
        <time>2021-08-10T14:49:28.493Z</time>
      </trkpt>
      <trkpt lat="46.88461" lon="8.55174">
        <ele>1289</ele>
        <time>2021-08-10T14:49:35.361Z</time>
      </trkpt>
      <trkpt lat="46.8846" lon="8.55175">
        <ele>1289</ele>
        <time>2021-08-10T14:49:36.361Z</time>
      </trkpt>
      <trkpt lat="46.8846" lon="8.55176">
        <ele>1289</ele>
        <time>2021-08-10T14:49:37.362Z</time>
      </trkpt>
      <trkpt lat="46.8846" lon="8.55176">
        <ele>1288</ele>
        <time>2021-08-10T14:49:40.349Z</time>
      </trkpt>
      <trkpt lat="46.8846" lon="8.55177">
        <ele>1288</ele>
        <time>2021-08-10T14:49:41.350Z</time>
      </trkpt>
      <trkpt lat="46.88459" lon="8.55177">
        <ele>1288</ele>
        <time>2021-08-10T14:49:42.349Z</time>
      </trkpt>
      <trkpt lat="46.88459" lon="8.55178">
        <ele>1288</ele>
        <time>2021-08-10T14:49:43.350Z</time>
      </trkpt>
      <trkpt lat="46.88458" lon="8.55178">
        <ele>1288</ele>
        <time>2021-08-10T14:49:44.349Z</time>
      </trkpt>
      <trkpt lat="46.88457" lon="8.55178">
        <ele>1288</ele>
        <time>2021-08-10T14:49:45.349Z</time>
      </trkpt>
      <trkpt lat="46.88456" lon="8.55178">
        <ele>1288</ele>
        <time>2021-08-10T14:50:07.504Z</time>
      </trkpt>
      <trkpt lat="46.88455" lon="8.55179">
        <ele>1288</ele>
        <time>2021-08-10T14:50:08.504Z</time>
      </trkpt>
      <trkpt lat="46.88455" lon="8.5518">
        <ele>1288</ele>
        <time>2021-08-10T14:50:22.344Z</time>
      </trkpt>
      <trkpt lat="46.88454" lon="8.55181">
        <ele>1288</ele>
        <time>2021-08-10T14:50:38.134Z</time>
      </trkpt>
      <trkpt lat="46.88453" lon="8.55181">
        <ele>1289</ele>
        <time>2021-08-10T14:50:39.134Z</time>
      </trkpt>
      <trkpt lat="46.88453" lon="8.55181">
        <ele>1289</ele>
        <time>2021-08-10T14:50:40.134Z</time>
      </trkpt>
      <trkpt lat="46.88453" lon="8.5518">
        <ele>1289</ele>
        <time>2021-08-10T14:50:53.192Z</time>
      </trkpt>
      <trkpt lat="46.88452" lon="8.5518">
        <ele>1289</ele>
        <time>2021-08-10T14:50:54.191Z</time>
      </trkpt>
      <trkpt lat="46.88452" lon="8.5518">
        <ele>1290</ele>
        <time>2021-08-10T14:51:01.943Z</time>
      </trkpt>
      <trkpt lat="46.88451" lon="8.5518">
        <ele>1290</ele>
        <time>2021-08-10T14:51:02.943Z</time>
      </trkpt>
      <trkpt lat="46.88451" lon="8.55181">
        <ele>1291</ele>
        <time>2021-08-10T14:51:03.943Z</time>
      </trkpt>
      <trkpt lat="46.88451" lon="8.55181">
        <ele>1291</ele>
        <time>2021-08-10T14:51:04.943Z</time>
      </trkpt>
      <trkpt lat="46.88451" lon="8.55182">
        <ele>1292</ele>
        <time>2021-08-10T14:51:05.943Z</time>
      </trkpt>
      <trkpt lat="46.88451" lon="8.55182">
        <ele>1293</ele>
        <time>2021-08-10T14:51:41.080Z</time>
      </trkpt>
      <trkpt lat="46.8845" lon="8.55182">
        <ele>1293</ele>
        <time>2021-08-10T14:51:42.080Z</time>
      </trkpt>
      <trkpt lat="46.8845" lon="8.55181">
        <ele>1294</ele>
        <time>2021-08-10T14:51:56.841Z</time>
      </trkpt>
      <trkpt lat="46.8845" lon="8.55181">
        <ele>1295</ele>
        <time>2021-08-10T14:51:57.840Z</time>
      </trkpt>
      <trkpt lat="46.88449" lon="8.55181">
        <ele>1296</ele>
        <time>2021-08-10T14:52:05.944Z</time>
      </trkpt>
      <trkpt lat="46.88448" lon="8.55181">
        <ele>1296</ele>
        <time>2021-08-10T14:52:06.944Z</time>
      </trkpt>
      <trkpt lat="46.88447" lon="8.5518">
        <ele>1296</ele>
        <time>2021-08-10T14:52:07.944Z</time>
      </trkpt>
      <trkpt lat="46.88448" lon="8.55179">
        <ele>1297</ele>
        <time>2021-08-10T14:52:17.728Z</time>
      </trkpt>
      <trkpt lat="46.88448" lon="8.55178">
        <ele>1297</ele>
        <time>2021-08-10T14:52:58.571Z</time>
      </trkpt>
      <trkpt lat="46.88447" lon="8.55176">
        <ele>1297</ele>
        <time>2021-08-10T14:53:07.382Z</time>
      </trkpt>
      <trkpt lat="46.88446" lon="8.55177">
        <ele>1297</ele>
        <time>2021-08-10T14:53:08.382Z</time>
      </trkpt>
      <trkpt lat="46.88445" lon="8.55177">
        <ele>1297</ele>
        <time>2021-08-10T14:53:09.382Z</time>
      </trkpt>
      <trkpt lat="46.88444" lon="8.55177">
        <ele>1298</ele>
        <time>2021-08-10T14:53:30.449Z</time>
      </trkpt>
      <trkpt lat="46.88444" lon="8.55177">
        <ele>1298</ele>
        <time>2021-08-10T14:53:31.450Z</time>
      </trkpt>
      <trkpt lat="46.88444" lon="8.55177">
        <ele>1298</ele>
        <time>2021-08-10T14:53:32.450Z</time>
      </trkpt>
      <trkpt lat="46.88445" lon="8.55177">
        <ele>1299</ele>
        <time>2021-08-10T14:53:53.571Z</time>
      </trkpt>
      <trkpt lat="46.88445" lon="8.55177">
        <ele>1299</ele>
        <time>2021-08-10T14:53:54.571Z</time>
      </trkpt>
      <trkpt lat="46.88445" lon="8.55177">
        <ele>1300</ele>
        <time>2021-08-10T14:54:06.352Z</time>
      </trkpt>
      <trkpt lat="46.88446" lon="8.55177">
        <ele>1300</ele>
        <time>2021-08-10T14:54:15.079Z</time>
      </trkpt>
      <trkpt lat="46.88446" lon="8.55176">
        <ele>1300</ele>
        <time>2021-08-10T14:54:16.079Z</time>
      </trkpt>
      <trkpt lat="46.88447" lon="8.55176">
        <ele>1301</ele>
        <time>2021-08-10T14:54:17.080Z</time>
      </trkpt>
      <trkpt lat="46.88448" lon="8.55175">
        <ele>1301</ele>
        <time>2021-08-10T14:54:18.080Z</time>
      </trkpt>
      <trkpt lat="46.88448" lon="8.55174">
        <ele>1301</ele>
        <time>2021-08-10T14:54:19.080Z</time>
      </trkpt>
      <trkpt lat="46.88448" lon="8.55173">
        <ele>1301</ele>
        <time>2021-08-10T14:54:26.207Z</time>
      </trkpt>
      <trkpt lat="46.88448" lon="8.55172">
        <ele>1301</ele>
        <time>2021-08-10T14:54:27.208Z</time>
      </trkpt>
      <trkpt lat="46.88448" lon="8.55172">
        <ele>1301</ele>
        <time>2021-08-10T14:54:28.208Z</time>
      </trkpt>
      <trkpt lat="46.88447" lon="8.55173">
        <ele>1301</ele>
        <time>2021-08-10T14:54:30.336Z</time>
      </trkpt>
      <trkpt lat="46.88446" lon="8.55173">
        <ele>1302</ele>
        <time>2021-08-10T14:54:31.336Z</time>
      </trkpt>
      <trkpt lat="46.88446" lon="8.55173">
        <ele>1302</ele>
        <time>2021-08-10T14:54:32.335Z</time>
      </trkpt>
      <trkpt lat="46.88445" lon="8.55173">
        <ele>1302</ele>
        <time>2021-08-10T14:54:33.335Z</time>
      </trkpt>
      <trkpt lat="46.88445" lon="8.55172">
        <ele>1302</ele>
        <time>2021-08-10T14:54:38.479Z</time>
      </trkpt>
      <trkpt lat="46.88444" lon="8.55172">
        <ele>1302</ele>
        <time>2021-08-10T14:54:39.479Z</time>
      </trkpt>
      <trkpt lat="46.88444" lon="8.55172">
        <ele>1302</ele>
        <time>2021-08-10T14:54:40.479Z</time>
      </trkpt>
      <trkpt lat="46.88443" lon="8.55172">
        <ele>1302</ele>
        <time>2021-08-10T14:54:41.479Z</time>
      </trkpt>
      <trkpt lat="46.88443" lon="8.55172">
        <ele>1302</ele>
        <time>2021-08-10T14:54:42.479Z</time>
      </trkpt>
      <trkpt lat="46.88442" lon="8.55171">
        <ele>1303</ele>
        <time>2021-08-10T14:54:50.584Z</time>
      </trkpt>
      <trkpt lat="46.88441" lon="8.5517">
        <ele>1303</ele>
        <time>2021-08-10T14:54:51.583Z</time>
      </trkpt>
      <trkpt lat="46.88439" lon="8.55169">
        <ele>1303</ele>
        <time>2021-08-10T14:55:02.369Z</time>
      </trkpt>
      <trkpt lat="46.88438" lon="8.55168">
        <ele>1303</ele>
        <time>2021-08-10T14:55:03.369Z</time>
      </trkpt>
      <trkpt lat="46.88436" lon="8.55168">
        <ele>1304</ele>
        <time>2021-08-10T14:55:05.192Z</time>
      </trkpt>
      <trkpt lat="46.88435" lon="8.55168">
        <ele>1304</ele>
        <time>2021-08-10T14:55:13.938Z</time>
      </trkpt>
      <trkpt lat="46.88435" lon="8.55169">
        <ele>1305</ele>
        <time>2021-08-10T14:55:14.938Z</time>
      </trkpt>
      <trkpt lat="46.88434" lon="8.55169">
        <ele>1305</ele>
        <time>2021-08-10T14:55:17.793Z</time>
      </trkpt>
      <trkpt lat="46.88432" lon="8.55169">
        <ele>1306</ele>
        <time>2021-08-10T14:55:34.561Z</time>
      </trkpt>
      <trkpt lat="46.88431" lon="8.5517">
        <ele>1306</ele>
        <time>2021-08-10T14:55:35.561Z</time>
      </trkpt>
      <trkpt lat="46.88429" lon="8.5517">
        <ele>1307</ele>
        <time>2021-08-10T14:55:39.331Z</time>
      </trkpt>
      <trkpt lat="46.88428" lon="8.5517">
        <ele>1307</ele>
        <time>2021-08-10T14:55:40.332Z</time>
      </trkpt>
      <trkpt lat="46.88428" lon="8.5517">
        <ele>1307</ele>
        <time>2021-08-10T14:55:41.331Z</time>
      </trkpt>
      <trkpt lat="46.88428" lon="8.5517">
        <ele>1308</ele>
        <time>2021-08-10T14:55:42.331Z</time>
      </trkpt>
      <trkpt lat="46.88427" lon="8.5517">
        <ele>1309</ele>
        <time>2021-08-10T14:55:43.332Z</time>
      </trkpt>
      <trkpt lat="46.88426" lon="8.5517">
        <ele>1310</ele>
        <time>2021-08-10T14:55:58.475Z</time>
      </trkpt>
      <trkpt lat="46.88424" lon="8.55169">
        <ele>1310</ele>
        <time>2021-08-10T14:55:59.474Z</time>
      </trkpt>
      <trkpt lat="46.88424" lon="8.55168">
        <ele>1311</ele>
        <time>2021-08-10T14:56:00.474Z</time>
      </trkpt>
      <trkpt lat="46.88423" lon="8.55166">
        <ele>1311</ele>
        <time>2021-08-10T14:56:01.475Z</time>
      </trkpt>
      <trkpt lat="46.88423" lon="8.55165">
        <ele>1311</ele>
        <time>2021-08-10T14:56:02.474Z</time>
      </trkpt>
      <trkpt lat="46.88423" lon="8.55164">
        <ele>1312</ele>
        <time>2021-08-10T14:56:03.474Z</time>
      </trkpt>
      <trkpt lat="46.88423" lon="8.55164">
        <ele>1312</ele>
        <time>2021-08-10T14:56:04.475Z</time>
      </trkpt>
      <trkpt lat="46.88422" lon="8.55164">
        <ele>1312</ele>
        <time>2021-08-10T14:56:05.475Z</time>
      </trkpt>
      <trkpt lat="46.88422" lon="8.55163">
        <ele>1313</ele>
        <time>2021-08-10T14:56:06.475Z</time>
      </trkpt>
      <trkpt lat="46.88421" lon="8.55163">
        <ele>1313</ele>
        <time>2021-08-10T14:56:07.475Z</time>
      </trkpt>
      <trkpt lat="46.8842" lon="8.55163">
        <ele>1314</ele>
        <time>2021-08-10T14:56:08.475Z</time>
      </trkpt>
      <trkpt lat="46.8842" lon="8.55162">
        <ele>1314</ele>
        <time>2021-08-10T14:56:09.475Z</time>
      </trkpt>
      <trkpt lat="46.8842" lon="8.55161">
        <ele>1315</ele>
        <time>2021-08-10T14:56:10.475Z</time>
      </trkpt>
      <trkpt lat="46.8842" lon="8.55159">
        <ele>1315</ele>
        <time>2021-08-10T14:56:11.474Z</time>
      </trkpt>
      <trkpt lat="46.8842" lon="8.55157">
        <ele>1316</ele>
        <time>2021-08-10T14:56:12.474Z</time>
      </trkpt>
      <trkpt lat="46.8842" lon="8.55156">
        <ele>1316</ele>
        <time>2021-08-10T14:56:13.475Z</time>
      </trkpt>
      <trkpt lat="46.8842" lon="8.55155">
        <ele>1316</ele>
        <time>2021-08-10T14:56:14.474Z</time>
      </trkpt>
      <trkpt lat="46.8842" lon="8.55154">
        <ele>1316</ele>
        <time>2021-08-10T14:56:15.475Z</time>
      </trkpt>
      <trkpt lat="46.88421" lon="8.55154">
        <ele>1317</ele>
        <time>2021-08-10T14:56:16.474Z</time>
      </trkpt>
      <trkpt lat="46.88423" lon="8.55153">
        <ele>1317</ele>
        <time>2021-08-10T14:56:17.474Z</time>
      </trkpt>
      <trkpt lat="46.88424" lon="8.55153">
        <ele>1317</ele>
        <time>2021-08-10T14:56:18.475Z</time>
      </trkpt>
      <trkpt lat="46.88424" lon="8.55151">
        <ele>1318</ele>
        <time>2021-08-10T14:56:27.557Z</time>
      </trkpt>
      <trkpt lat="46.88425" lon="8.5515">
        <ele>1318</ele>
        <time>2021-08-10T14:56:28.558Z</time>
      </trkpt>
      <trkpt lat="46.88426" lon="8.5515">
        <ele>1319</ele>
        <time>2021-08-10T14:56:34.317Z</time>
      </trkpt>
      <trkpt lat="46.88426" lon="8.55149">
        <ele>1320</ele>
        <time>2021-08-10T14:56:35.317Z</time>
      </trkpt>
      <trkpt lat="46.88427" lon="8.55149">
        <ele>1320</ele>
        <time>2021-08-10T14:56:36.316Z</time>
      </trkpt>
      <trkpt lat="46.88429" lon="8.55148">
        <ele>1321</ele>
        <time>2021-08-10T14:56:37.316Z</time>
      </trkpt>
      <trkpt lat="46.8843" lon="8.55146">
        <ele>1322</ele>
        <time>2021-08-10T14:56:38.317Z</time>
      </trkpt>
      <trkpt lat="46.88429" lon="8.55145">
        <ele>1322</ele>
        <time>2021-08-10T14:56:47.309Z</time>
      </trkpt>
      <trkpt lat="46.88429" lon="8.55144">
        <ele>1322</ele>
        <time>2021-08-10T14:56:48.309Z</time>
      </trkpt>
      <trkpt lat="46.88428" lon="8.55143">
        <ele>1322</ele>
        <time>2021-08-10T14:56:49.310Z</time>
      </trkpt>
      <trkpt lat="46.88429" lon="8.55142">
        <ele>1322</ele>
        <time>2021-08-10T14:56:50.310Z</time>
      </trkpt>
      <trkpt lat="46.88429" lon="8.55142">
        <ele>1322</ele>
        <time>2021-08-10T14:56:51.310Z</time>
      </trkpt>
      <trkpt lat="46.88429" lon="8.55142">
        <ele>1322</ele>
        <time>2021-08-10T14:56:52.310Z</time>
      </trkpt>
      <trkpt lat="46.8843" lon="8.55142">
        <ele>1321</ele>
        <time>2021-08-10T14:56:53.310Z</time>
      </trkpt>
      <trkpt lat="46.8843" lon="8.55141">
        <ele>1320</ele>
        <time>2021-08-10T14:56:54.311Z</time>
      </trkpt>
      <trkpt lat="46.8843" lon="8.55141">
        <ele>1320</ele>
        <time>2021-08-10T14:56:55.310Z</time>
      </trkpt>
      <trkpt lat="46.88431" lon="8.55141">
        <ele>1320</ele>
        <time>2021-08-10T14:56:56.310Z</time>
      </trkpt>
      <trkpt lat="46.88432" lon="8.5514">
        <ele>1319</ele>
        <time>2021-08-10T14:56:57.311Z</time>
      </trkpt>
      <trkpt lat="46.88432" lon="8.5514">
        <ele>1319</ele>
        <time>2021-08-10T14:56:58.310Z</time>
      </trkpt>
      <trkpt lat="46.88432" lon="8.55139">
        <ele>1319</ele>
        <time>2021-08-10T14:56:59.310Z</time>
      </trkpt>
      <trkpt lat="46.88433" lon="8.55139">
        <ele>1319</ele>
        <time>2021-08-10T14:57:00.310Z</time>
      </trkpt>
      <trkpt lat="46.88433" lon="8.55138">
        <ele>1318</ele>
        <time>2021-08-10T14:57:01.311Z</time>
      </trkpt>
      <trkpt lat="46.88434" lon="8.55137">
        <ele>1318</ele>
        <time>2021-08-10T14:57:02.310Z</time>
      </trkpt>
      <trkpt lat="46.88434" lon="8.55137">
        <ele>1317</ele>
        <time>2021-08-10T14:57:03.310Z</time>
      </trkpt>
      <trkpt lat="46.88435" lon="8.55136">
        <ele>1317</ele>
        <time>2021-08-10T14:57:04.310Z</time>
      </trkpt>
      <trkpt lat="46.88435" lon="8.55135">
        <ele>1316</ele>
        <time>2021-08-10T14:57:05.310Z</time>
      </trkpt>
      <trkpt lat="46.88435" lon="8.55134">
        <ele>1316</ele>
        <time>2021-08-10T14:57:06.310Z</time>
      </trkpt>
      <trkpt lat="46.88435" lon="8.55134">
        <ele>1315</ele>
        <time>2021-08-10T14:57:07.310Z</time>
      </trkpt>
      <trkpt lat="46.88434" lon="8.55133">
        <ele>1315</ele>
        <time>2021-08-10T14:57:08.311Z</time>
      </trkpt>
      <trkpt lat="46.88433" lon="8.55133">
        <ele>1315</ele>
        <time>2021-08-10T14:57:09.311Z</time>
      </trkpt>
      <trkpt lat="46.88432" lon="8.55133">
        <ele>1315</ele>
        <time>2021-08-10T14:57:15.456Z</time>
      </trkpt>
      <trkpt lat="46.8843" lon="8.55134">
        <ele>1315</ele>
        <time>2021-08-10T14:57:16.455Z</time>
      </trkpt>
      <trkpt lat="46.8843" lon="8.55134">
        <ele>1315</ele>
        <time>2021-08-10T14:57:17.456Z</time>
      </trkpt>
      <trkpt lat="46.88428" lon="8.55135">
        <ele>1315</ele>
        <time>2021-08-10T14:57:18.455Z</time>
      </trkpt>
      <trkpt lat="46.88427" lon="8.55135">
        <ele>1315</ele>
        <time>2021-08-10T14:57:19.456Z</time>
      </trkpt>
      <trkpt lat="46.88426" lon="8.55136">
        <ele>1315</ele>
        <time>2021-08-10T14:57:20.455Z</time>
      </trkpt>
      <trkpt lat="46.88425" lon="8.55137">
        <ele>1314</ele>
        <time>2021-08-10T14:57:21.456Z</time>
      </trkpt>
      <trkpt lat="46.88424" lon="8.55137">
        <ele>1314</ele>
        <time>2021-08-10T14:57:22.456Z</time>
      </trkpt>
      <trkpt lat="46.88423" lon="8.55138">
        <ele>1314</ele>
        <time>2021-08-10T14:57:23.456Z</time>
      </trkpt>
      <trkpt lat="46.88423" lon="8.55139">
        <ele>1313</ele>
        <time>2021-08-10T14:57:24.456Z</time>
      </trkpt>
      <trkpt lat="46.88422" lon="8.5514">
        <ele>1313</ele>
        <time>2021-08-10T14:57:25.456Z</time>
      </trkpt>
      <trkpt lat="46.8842" lon="8.5514">
        <ele>1313</ele>
        <time>2021-08-10T14:57:26.456Z</time>
      </trkpt>
      <trkpt lat="46.88418" lon="8.55139">
        <ele>1313</ele>
        <time>2021-08-10T14:57:27.455Z</time>
      </trkpt>
      <trkpt lat="46.88417" lon="8.55139">
        <ele>1312</ele>
        <time>2021-08-10T14:57:28.456Z</time>
      </trkpt>
      <trkpt lat="46.88416" lon="8.5514">
        <ele>1312</ele>
        <time>2021-08-10T14:57:29.456Z</time>
      </trkpt>
      <trkpt lat="46.88415" lon="8.5514">
        <ele>1312</ele>
        <time>2021-08-10T14:57:30.455Z</time>
      </trkpt>
      <trkpt lat="46.88414" lon="8.5514">
        <ele>1312</ele>
        <time>2021-08-10T14:57:31.456Z</time>
      </trkpt>
      <trkpt lat="46.88413" lon="8.55142">
        <ele>1312</ele>
        <time>2021-08-10T14:57:32.456Z</time>
      </trkpt>
      <trkpt lat="46.88412" lon="8.55143">
        <ele>1311</ele>
        <time>2021-08-10T14:57:33.455Z</time>
      </trkpt>
      <trkpt lat="46.88412" lon="8.55143">
        <ele>1311</ele>
        <time>2021-08-10T14:57:34.456Z</time>
      </trkpt>
      <trkpt lat="46.88412" lon="8.55143">
        <ele>1311</ele>
        <time>2021-08-10T14:57:39.598Z</time>
      </trkpt>
      <trkpt lat="46.88412" lon="8.55144">
        <ele>1311</ele>
        <time>2021-08-10T14:57:40.598Z</time>
      </trkpt>
      <trkpt lat="46.88412" lon="8.55144">
        <ele>1311</ele>
        <time>2021-08-10T14:57:41.598Z</time>
      </trkpt>
      <trkpt lat="46.88411" lon="8.55144">
        <ele>1311</ele>
        <time>2021-08-10T14:57:42.598Z</time>
      </trkpt>
      <trkpt lat="46.88411" lon="8.55145">
        <ele>1311</ele>
        <time>2021-08-10T14:57:43.598Z</time>
      </trkpt>
      <trkpt lat="46.88411" lon="8.55146">
        <ele>1311</ele>
        <time>2021-08-10T14:57:44.597Z</time>
      </trkpt>
      <trkpt lat="46.8841" lon="8.55146">
        <ele>1311</ele>
        <time>2021-08-10T14:57:45.597Z</time>
      </trkpt>
      <trkpt lat="46.8841" lon="8.55147">
        <ele>1312</ele>
        <time>2021-08-10T14:57:46.598Z</time>
      </trkpt>
      <trkpt lat="46.8841" lon="8.55147">
        <ele>1313</ele>
        <time>2021-08-10T14:57:47.598Z</time>
      </trkpt>
      <trkpt lat="46.88409" lon="8.55147">
        <ele>1314</ele>
        <time>2021-08-10T14:57:48.597Z</time>
      </trkpt>
      <trkpt lat="46.88408" lon="8.55146">
        <ele>1314</ele>
        <time>2021-08-10T14:57:49.597Z</time>
      </trkpt>
      <trkpt lat="46.88407" lon="8.55145">
        <ele>1315</ele>
        <time>2021-08-10T14:57:51.702Z</time>
      </trkpt>
      <trkpt lat="46.88407" lon="8.55144">
        <ele>1315</ele>
        <time>2021-08-10T14:57:52.702Z</time>
      </trkpt>
      <trkpt lat="46.88407" lon="8.55143">
        <ele>1316</ele>
        <time>2021-08-10T14:57:53.702Z</time>
      </trkpt>
      <trkpt lat="46.88406" lon="8.55142">
        <ele>1316</ele>
        <time>2021-08-10T14:57:54.702Z</time>
      </trkpt>
      <trkpt lat="46.88407" lon="8.55141">
        <ele>1317</ele>
        <time>2021-08-10T14:57:55.702Z</time>
      </trkpt>
      <trkpt lat="46.88407" lon="8.5514">
        <ele>1317</ele>
        <time>2021-08-10T14:57:56.702Z</time>
      </trkpt>
      <trkpt lat="46.88408" lon="8.55139">
        <ele>1317</ele>
        <time>2021-08-10T14:57:57.701Z</time>
      </trkpt>
      <trkpt lat="46.88408" lon="8.55138">
        <ele>1317</ele>
        <time>2021-08-10T14:57:58.702Z</time>
      </trkpt>
      <trkpt lat="46.88409" lon="8.55138">
        <ele>1317</ele>
        <time>2021-08-10T14:57:59.701Z</time>
      </trkpt>
      <trkpt lat="46.8841" lon="8.55137">
        <ele>1317</ele>
        <time>2021-08-10T14:58:10.806Z</time>
      </trkpt>
      <trkpt lat="46.88411" lon="8.55136">
        <ele>1317</ele>
        <time>2021-08-10T14:58:11.806Z</time>
      </trkpt>
      <trkpt lat="46.88412" lon="8.55135">
        <ele>1317</ele>
        <time>2021-08-10T14:58:12.806Z</time>
      </trkpt>
      <trkpt lat="46.88413" lon="8.55134">
        <ele>1317</ele>
        <time>2021-08-10T14:58:13.806Z</time>
      </trkpt>
      <trkpt lat="46.88414" lon="8.55133">
        <ele>1316</ele>
        <time>2021-08-10T14:58:14.806Z</time>
      </trkpt>
      <trkpt lat="46.88414" lon="8.55132">
        <ele>1316</ele>
        <time>2021-08-10T14:58:15.805Z</time>
      </trkpt>
      <trkpt lat="46.88415" lon="8.55131">
        <ele>1316</ele>
        <time>2021-08-10T14:58:16.806Z</time>
      </trkpt>
      <trkpt lat="46.88415" lon="8.55131">
        <ele>1316</ele>
        <time>2021-08-10T14:58:17.806Z</time>
      </trkpt>
      <trkpt lat="46.88415" lon="8.5513">
        <ele>1316</ele>
        <time>2021-08-10T14:58:18.805Z</time>
      </trkpt>
      <trkpt lat="46.88414" lon="8.55129">
        <ele>1316</ele>
        <time>2021-08-10T14:58:19.805Z</time>
      </trkpt>
      <trkpt lat="46.88414" lon="8.55128">
        <ele>1316</ele>
        <time>2021-08-10T14:58:20.806Z</time>
      </trkpt>
      <trkpt lat="46.88414" lon="8.55127">
        <ele>1317</ele>
        <time>2021-08-10T14:58:21.806Z</time>
      </trkpt>
      <trkpt lat="46.88414" lon="8.55125">
        <ele>1317</ele>
        <time>2021-08-10T14:58:22.806Z</time>
      </trkpt>
      <trkpt lat="46.88415" lon="8.55124">
        <ele>1317</ele>
        <time>2021-08-10T14:58:23.805Z</time>
      </trkpt>
      <trkpt lat="46.88416" lon="8.55122">
        <ele>1318</ele>
        <time>2021-08-10T14:58:24.806Z</time>
      </trkpt>
      <trkpt lat="46.88416" lon="8.55121">
        <ele>1318</ele>
        <time>2021-08-10T14:58:30.841Z</time>
      </trkpt>
      <trkpt lat="46.88416" lon="8.5512">
        <ele>1318</ele>
        <time>2021-08-10T14:58:31.841Z</time>
      </trkpt>
      <trkpt lat="46.88416" lon="8.55118">
        <ele>1319</ele>
        <time>2021-08-10T14:58:32.841Z</time>
      </trkpt>
      <trkpt lat="46.88415" lon="8.55117">
        <ele>1319</ele>
        <time>2021-08-10T14:58:33.840Z</time>
      </trkpt>
      <trkpt lat="46.88415" lon="8.55117">
        <ele>1319</ele>
        <time>2021-08-10T14:58:34.840Z</time>
      </trkpt>
      <trkpt lat="46.88415" lon="8.55116">
        <ele>1319</ele>
        <time>2021-08-10T14:58:35.840Z</time>
      </trkpt>
      <trkpt lat="46.88415" lon="8.55115">
        <ele>1320</ele>
        <time>2021-08-10T14:58:36.841Z</time>
      </trkpt>
      <trkpt lat="46.88415" lon="8.55114">
        <ele>1320</ele>
        <time>2021-08-10T14:58:37.841Z</time>
      </trkpt>
      <trkpt lat="46.88414" lon="8.55113">
        <ele>1320</ele>
        <time>2021-08-10T14:58:38.840Z</time>
      </trkpt>
      <trkpt lat="46.88413" lon="8.55112">
        <ele>1321</ele>
        <time>2021-08-10T14:58:39.841Z</time>
      </trkpt>
      <trkpt lat="46.88412" lon="8.55111">
        <ele>1321</ele>
        <time>2021-08-10T14:58:40.840Z</time>
      </trkpt>
      <trkpt lat="46.88412" lon="8.5511">
        <ele>1321</ele>
        <time>2021-08-10T14:58:41.840Z</time>
      </trkpt>
      <trkpt lat="46.88412" lon="8.55108">
        <ele>1321</ele>
        <time>2021-08-10T14:58:42.840Z</time>
      </trkpt>
      <trkpt lat="46.88412" lon="8.55108">
        <ele>1321</ele>
        <time>2021-08-10T14:58:43.841Z</time>
      </trkpt>
      <trkpt lat="46.88411" lon="8.55107">
        <ele>1321</ele>
        <time>2021-08-10T14:58:44.841Z</time>
      </trkpt>
      <trkpt lat="46.88411" lon="8.55108">
        <ele>1320</ele>
        <time>2021-08-10T14:58:45.841Z</time>
      </trkpt>
      <trkpt lat="46.8841" lon="8.55109">
        <ele>1320</ele>
        <time>2021-08-10T14:58:46.841Z</time>
      </trkpt>
      <trkpt lat="46.8841" lon="8.5511">
        <ele>1320</ele>
        <time>2021-08-10T14:58:47.841Z</time>
      </trkpt>
      <trkpt lat="46.88409" lon="8.55111">
        <ele>1320</ele>
        <time>2021-08-10T14:58:48.841Z</time>
      </trkpt>
      <trkpt lat="46.88409" lon="8.55111">
        <ele>1320</ele>
        <time>2021-08-10T14:58:49.840Z</time>
      </trkpt>
      <trkpt lat="46.88409" lon="8.55112">
        <ele>1320</ele>
        <time>2021-08-10T14:58:50.841Z</time>
      </trkpt>
      <trkpt lat="46.88408" lon="8.55113">
        <ele>1321</ele>
        <time>2021-08-10T14:58:51.841Z</time>
      </trkpt>
      <trkpt lat="46.88407" lon="8.55112">
        <ele>1321</ele>
        <time>2021-08-10T14:58:56.693Z</time>
      </trkpt>
      <trkpt lat="46.88406" lon="8.55112">
        <ele>1321</ele>
        <time>2021-08-10T14:58:57.692Z</time>
      </trkpt>
      <trkpt lat="46.88406" lon="8.55113">
        <ele>1321</ele>
        <time>2021-08-10T14:58:58.693Z</time>
      </trkpt>
      <trkpt lat="46.88406" lon="8.55113">
        <ele>1321</ele>
        <time>2021-08-10T14:58:59.693Z</time>
      </trkpt>
      <trkpt lat="46.88406" lon="8.55113">
        <ele>1322</ele>
        <time>2021-08-10T14:59:00.693Z</time>
      </trkpt>
      <trkpt lat="46.88405" lon="8.55114">
        <ele>1322</ele>
        <time>2021-08-10T14:59:01.692Z</time>
      </trkpt>
      <trkpt lat="46.88405" lon="8.55115">
        <ele>1322</ele>
        <time>2021-08-10T14:59:02.693Z</time>
      </trkpt>
      <trkpt lat="46.88405" lon="8.55115">
        <ele>1322</ele>
        <time>2021-08-10T14:59:03.692Z</time>
      </trkpt>
      <trkpt lat="46.88405" lon="8.55115">
        <ele>1322</ele>
        <time>2021-08-10T14:59:04.693Z</time>
      </trkpt>
      <trkpt lat="46.88405" lon="8.55114">
        <ele>1323</ele>
        <time>2021-08-10T14:59:05.693Z</time>
      </trkpt>
      <trkpt lat="46.88404" lon="8.55114">
        <ele>1323</ele>
        <time>2021-08-10T14:59:06.693Z</time>
      </trkpt>
      <trkpt lat="46.88404" lon="8.55113">
        <ele>1323</ele>
        <time>2021-08-10T14:59:07.693Z</time>
      </trkpt>
      <trkpt lat="46.88403" lon="8.55113">
        <ele>1323</ele>
        <time>2021-08-10T14:59:08.693Z</time>
      </trkpt>
      <trkpt lat="46.88401" lon="8.55114">
        <ele>1323</ele>
        <time>2021-08-10T14:59:09.693Z</time>
      </trkpt>
      <trkpt lat="46.884" lon="8.55114">
        <ele>1323</ele>
        <time>2021-08-10T14:59:10.693Z</time>
      </trkpt>
      <trkpt lat="46.884" lon="8.55115">
        <ele>1323</ele>
        <time>2021-08-10T14:59:11.693Z</time>
      </trkpt>
      <trkpt lat="46.88399" lon="8.55115">
        <ele>1323</ele>
        <time>2021-08-10T14:59:14.821Z</time>
      </trkpt>
      <trkpt lat="46.88397" lon="8.55116">
        <ele>1323</ele>
        <time>2021-08-10T14:59:15.821Z</time>
      </trkpt>
      <trkpt lat="46.88396" lon="8.55126">
        <ele>1324</ele>
        <time>2021-08-10T14:59:23.965Z</time>
      </trkpt>
      <trkpt lat="46.88395" lon="8.55126">
        <ele>1324</ele>
        <time>2021-08-10T14:59:24.966Z</time>
      </trkpt>
      <trkpt lat="46.88394" lon="8.55127">
        <ele>1324</ele>
        <time>2021-08-10T14:59:25.965Z</time>
      </trkpt>
      <trkpt lat="46.88393" lon="8.55127">
        <ele>1325</ele>
        <time>2021-08-10T14:59:31.089Z</time>
      </trkpt>
      <trkpt lat="46.88392" lon="8.55126">
        <ele>1325</ele>
        <time>2021-08-10T14:59:32.089Z</time>
      </trkpt>
      <trkpt lat="46.88393" lon="8.55126">
        <ele>1326</ele>
        <time>2021-08-10T14:59:33.089Z</time>
      </trkpt>
      <trkpt lat="46.88393" lon="8.55125">
        <ele>1326</ele>
        <time>2021-08-10T14:59:34.088Z</time>
      </trkpt>
      <trkpt lat="46.88393" lon="8.55125">
        <ele>1326</ele>
        <time>2021-08-10T14:59:35.089Z</time>
      </trkpt>
      <trkpt lat="46.88392" lon="8.55124">
        <ele>1327</ele>
        <time>2021-08-10T14:59:47.195Z</time>
      </trkpt>
      <trkpt lat="46.88392" lon="8.55123">
        <ele>1327</ele>
        <time>2021-08-10T14:59:48.195Z</time>
      </trkpt>
      <trkpt lat="46.88392" lon="8.55123">
        <ele>1327</ele>
        <time>2021-08-10T14:59:50.914Z</time>
      </trkpt>
      <trkpt lat="46.88391" lon="8.55123">
        <ele>1327</ele>
        <time>2021-08-10T14:59:51.914Z</time>
      </trkpt>
      <trkpt lat="46.88393" lon="8.55124">
        <ele>1327</ele>
        <time>2021-08-10T14:59:53.696Z</time>
      </trkpt>
      <trkpt lat="46.88395" lon="8.55129">
        <ele>1327</ele>
        <time>2021-08-10T14:59:55.532Z</time>
      </trkpt>
      <trkpt lat="46.88395" lon="8.55129">
        <ele>1327</ele>
        <time>2021-08-10T14:59:56.533Z</time>
      </trkpt>
      <trkpt lat="46.88395" lon="8.55129">
        <ele>1328</ele>
        <time>2021-08-10T15:00:03.300Z</time>
      </trkpt>
      <trkpt lat="46.88394" lon="8.55129">
        <ele>1328</ele>
        <time>2021-08-10T15:00:04.301Z</time>
      </trkpt>
      <trkpt lat="46.88394" lon="8.55129">
        <ele>1329</ele>
        <time>2021-08-10T15:00:06.057Z</time>
      </trkpt>
      <trkpt lat="46.88394" lon="8.5513">
        <ele>1329</ele>
        <time>2021-08-10T15:00:07.056Z</time>
      </trkpt>
      <trkpt lat="46.88394" lon="8.55131">
        <ele>1330</ele>
        <time>2021-08-10T15:00:08.056Z</time>
      </trkpt>
      <trkpt lat="46.88394" lon="8.55131">
        <ele>1330</ele>
        <time>2021-08-10T15:00:20.051Z</time>
      </trkpt>
      <trkpt lat="46.88394" lon="8.55131">
        <ele>1331</ele>
        <time>2021-08-10T15:00:28.966Z</time>
      </trkpt>
      <trkpt lat="46.88393" lon="8.55131">
        <ele>1331</ele>
        <time>2021-08-10T15:00:29.966Z</time>
      </trkpt>
      <trkpt lat="46.88391" lon="8.55134">
        <ele>1335</ele>
        <time>2021-08-10T15:00:37.804Z</time>
      </trkpt>
      <trkpt lat="46.88391" lon="8.55133">
        <ele>1335</ele>
        <time>2021-08-10T15:00:38.803Z</time>
      </trkpt>
      <trkpt lat="46.8839" lon="8.55134">
        <ele>1335</ele>
        <time>2021-08-10T15:00:39.804Z</time>
      </trkpt>
      <trkpt lat="46.8839" lon="8.55134">
        <ele>1335</ele>
        <time>2021-08-10T15:00:50.924Z</time>
      </trkpt>
      <trkpt lat="46.8839" lon="8.55134">
        <ele>1336</ele>
        <time>2021-08-10T15:00:51.925Z</time>
      </trkpt>
      <trkpt lat="46.88387" lon="8.55136">
        <ele>1336</ele>
        <time>2021-08-10T15:00:52.924Z</time>
      </trkpt>
      <trkpt lat="46.88386" lon="8.55137">
        <ele>1336</ele>
        <time>2021-08-10T15:00:53.925Z</time>
      </trkpt>
      <trkpt lat="46.88386" lon="8.55138">
        <ele>1336</ele>
        <time>2021-08-10T15:00:54.924Z</time>
      </trkpt>
      <trkpt lat="46.88385" lon="8.55138">
        <ele>1336</ele>
        <time>2021-08-10T15:01:02.926Z</time>
      </trkpt>
      <trkpt lat="46.88385" lon="8.55139">
        <ele>1336</ele>
        <time>2021-08-10T15:01:03.925Z</time>
      </trkpt>
      <trkpt lat="46.88384" lon="8.55139">
        <ele>1336</ele>
        <time>2021-08-10T15:01:04.926Z</time>
      </trkpt>
      <trkpt lat="46.88384" lon="8.55139">
        <ele>1336</ele>
        <time>2021-08-10T15:01:08.691Z</time>
      </trkpt>
      <trkpt lat="46.88383" lon="8.5514">
        <ele>1336</ele>
        <time>2021-08-10T15:01:09.691Z</time>
      </trkpt>
      <trkpt lat="46.88383" lon="8.5514">
        <ele>1336</ele>
        <time>2021-08-10T15:01:18.554Z</time>
      </trkpt>
      <trkpt lat="46.88377" lon="8.55145">
        <ele>1328</ele>
        <time>2021-08-10T15:01:38.302Z</time>
      </trkpt>
      <trkpt lat="46.88377" lon="8.55145">
        <ele>1328</ele>
        <time>2021-08-10T15:01:43.088Z</time>
      </trkpt>
      <trkpt lat="46.88377" lon="8.55145">
        <ele>1327</ele>
        <time>2021-08-10T15:01:44.087Z</time>
      </trkpt>
      <trkpt lat="46.88376" lon="8.55146">
        <ele>1327</ele>
        <time>2021-08-10T15:01:45.087Z</time>
      </trkpt>
      <trkpt lat="46.88376" lon="8.55146">
        <ele>1328</ele>
        <time>2021-08-10T15:01:46.087Z</time>
      </trkpt>
      <trkpt lat="46.88377" lon="8.55145">
        <ele>1328</ele>
        <time>2021-08-10T15:01:47.088Z</time>
      </trkpt>
      <trkpt lat="46.88384" lon="8.55137">
        <ele>1324</ele>
        <time>2021-08-10T15:01:48.087Z</time>
      </trkpt>
      <trkpt lat="46.88384" lon="8.55138">
        <ele>1323</ele>
        <time>2021-08-10T15:01:49.087Z</time>
      </trkpt>
      <trkpt lat="46.88384" lon="8.55138">
        <ele>1323</ele>
        <time>2021-08-10T15:01:50.087Z</time>
      </trkpt>
      <trkpt lat="46.88384" lon="8.55138">
        <ele>1323</ele>
        <time>2021-08-10T15:01:51.089Z</time>
      </trkpt>
      <trkpt lat="46.88384" lon="8.55138">
        <ele>1324</ele>
        <time>2021-08-10T15:01:52.088Z</time>
      </trkpt>
      <trkpt lat="46.88379" lon="8.55143">
        <ele>1345</ele>
        <time>2021-08-10T15:01:53.088Z</time>
      </trkpt>
      <trkpt lat="46.88377" lon="8.55144">
        <ele>1346</ele>
        <time>2021-08-10T15:01:54.088Z</time>
      </trkpt>
      <trkpt lat="46.88374" lon="8.55145">
        <ele>1341</ele>
        <time>2021-08-10T15:01:55.089Z</time>
      </trkpt>
      <trkpt lat="46.88375" lon="8.55144">
        <ele>1340</ele>
        <time>2021-08-10T15:01:56.089Z</time>
      </trkpt>
      <trkpt lat="46.88375" lon="8.55143">
        <ele>1340</ele>
        <time>2021-08-10T15:01:57.088Z</time>
      </trkpt>
      <trkpt lat="46.88375" lon="8.55143">
        <ele>1340</ele>
        <time>2021-08-10T15:01:58.088Z</time>
      </trkpt>
      <trkpt lat="46.88375" lon="8.55142">
        <ele>1340</ele>
        <time>2021-08-10T15:01:59.088Z</time>
      </trkpt>
      <trkpt lat="46.88373" lon="8.55141">
        <ele>1340</ele>
        <time>2021-08-10T15:02:06.179Z</time>
      </trkpt>
      <trkpt lat="46.88372" lon="8.55141">
        <ele>1339</ele>
        <time>2021-08-10T15:02:07.179Z</time>
      </trkpt>
      <trkpt lat="46.88372" lon="8.55141">
        <ele>1339</ele>
        <time>2021-08-10T15:02:08.178Z</time>
      </trkpt>
      <trkpt lat="46.88372" lon="8.55141">
        <ele>1339</ele>
        <time>2021-08-10T15:02:09.179Z</time>
      </trkpt>
      <trkpt lat="46.88371" lon="8.55141">
        <ele>1339</ele>
        <time>2021-08-10T15:02:10.179Z</time>
      </trkpt>
      <trkpt lat="46.88371" lon="8.55141">
        <ele>1339</ele>
        <time>2021-08-10T15:02:11.179Z</time>
      </trkpt>
      <trkpt lat="46.88371" lon="8.5514">
        <ele>1333</ele>
        <time>2021-08-10T15:02:12.180Z</time>
      </trkpt>
      <trkpt lat="46.88371" lon="8.55139">
        <ele>1332</ele>
        <time>2021-08-10T15:02:13.179Z</time>
      </trkpt>
      <trkpt lat="46.8837" lon="8.55139">
        <ele>1332</ele>
        <time>2021-08-10T15:02:14.179Z</time>
      </trkpt>
      <trkpt lat="46.8837" lon="8.55138">
        <ele>1331</ele>
        <time>2021-08-10T15:02:15.180Z</time>
      </trkpt>
      <trkpt lat="46.88369" lon="8.55138">
        <ele>1331</ele>
        <time>2021-08-10T15:02:16.179Z</time>
      </trkpt>
      <trkpt lat="46.88369" lon="8.55138">
        <ele>1330</ele>
        <time>2021-08-10T15:02:17.180Z</time>
      </trkpt>
      <trkpt lat="46.88368" lon="8.55137">
        <ele>1329</ele>
        <time>2021-08-10T15:02:18.180Z</time>
      </trkpt>
      <trkpt lat="46.88368" lon="8.55136">
        <ele>1328</ele>
        <time>2021-08-10T15:02:29.342Z</time>
      </trkpt>
      <trkpt lat="46.88369" lon="8.55136">
        <ele>1328</ele>
        <time>2021-08-10T15:02:30.341Z</time>
      </trkpt>
      <trkpt lat="46.88369" lon="8.55136">
        <ele>1328</ele>
        <time>2021-08-10T15:02:31.342Z</time>
      </trkpt>
      <trkpt lat="46.88369" lon="8.55135">
        <ele>1328</ele>
        <time>2021-08-10T15:02:32.341Z</time>
      </trkpt>
      <trkpt lat="46.88369" lon="8.55134">
        <ele>1328</ele>
        <time>2021-08-10T15:02:33.341Z</time>
      </trkpt>
      <trkpt lat="46.8837" lon="8.55132">
        <ele>1329</ele>
        <time>2021-08-10T15:02:34.342Z</time>
      </trkpt>
      <trkpt lat="46.8837" lon="8.5513">
        <ele>1329</ele>
        <time>2021-08-10T15:02:35.341Z</time>
      </trkpt>
      <trkpt lat="46.8837" lon="8.55128">
        <ele>1329</ele>
        <time>2021-08-10T15:02:36.341Z</time>
      </trkpt>
      <trkpt lat="46.88371" lon="8.55127">
        <ele>1329</ele>
        <time>2021-08-10T15:02:37.342Z</time>
      </trkpt>
      <trkpt lat="46.88373" lon="8.55126">
        <ele>1329</ele>
        <time>2021-08-10T15:02:38.342Z</time>
      </trkpt>
      <trkpt lat="46.88373" lon="8.55125">
        <ele>1329</ele>
        <time>2021-08-10T15:02:39.341Z</time>
      </trkpt>
      <trkpt lat="46.88373" lon="8.55124">
        <ele>1329</ele>
        <time>2021-08-10T15:02:40.342Z</time>
      </trkpt>
      <trkpt lat="46.88373" lon="8.55123">
        <ele>1329</ele>
        <time>2021-08-10T15:02:41.341Z</time>
      </trkpt>
      <trkpt lat="46.88374" lon="8.55123">
        <ele>1330</ele>
        <time>2021-08-10T15:02:42.341Z</time>
      </trkpt>
      <trkpt lat="46.88374" lon="8.55122">
        <ele>1330</ele>
        <time>2021-08-10T15:02:43.342Z</time>
      </trkpt>
      <trkpt lat="46.88374" lon="8.55121">
        <ele>1330</ele>
        <time>2021-08-10T15:02:44.341Z</time>
      </trkpt>
      <trkpt lat="46.88374" lon="8.5512">
        <ele>1330</ele>
        <time>2021-08-10T15:02:45.341Z</time>
      </trkpt>
      <trkpt lat="46.88374" lon="8.55119">
        <ele>1329</ele>
        <time>2021-08-10T15:02:46.341Z</time>
      </trkpt>
      <trkpt lat="46.88374" lon="8.55118">
        <ele>1329</ele>
        <time>2021-08-10T15:02:47.341Z</time>
      </trkpt>
      <trkpt lat="46.88374" lon="8.55118">
        <ele>1329</ele>
        <time>2021-08-10T15:02:48.341Z</time>
      </trkpt>
      <trkpt lat="46.88375" lon="8.55117">
        <ele>1328</ele>
        <time>2021-08-10T15:02:49.341Z</time>
      </trkpt>
      <trkpt lat="46.88375" lon="8.55116">
        <ele>1328</ele>
        <time>2021-08-10T15:02:50.341Z</time>
      </trkpt>
      <trkpt lat="46.88376" lon="8.55114">
        <ele>1328</ele>
        <time>2021-08-10T15:02:51.341Z</time>
      </trkpt>
      <trkpt lat="46.88376" lon="8.55113">
        <ele>1328</ele>
        <time>2021-08-10T15:02:52.342Z</time>
      </trkpt>
      <trkpt lat="46.88376" lon="8.55113">
        <ele>1328</ele>
        <time>2021-08-10T15:02:53.341Z</time>
      </trkpt>
      <trkpt lat="46.88375" lon="8.55112">
        <ele>1328</ele>
        <time>2021-08-10T15:02:54.341Z</time>
      </trkpt>
      <trkpt lat="46.88374" lon="8.55112">
        <ele>1328</ele>
        <time>2021-08-10T15:02:55.341Z</time>
      </trkpt>
      <trkpt lat="46.88374" lon="8.55111">
        <ele>1328</ele>
        <time>2021-08-10T15:02:56.341Z</time>
      </trkpt>
      <trkpt lat="46.88374" lon="8.5511">
        <ele>1328</ele>
        <time>2021-08-10T15:02:57.342Z</time>
      </trkpt>
      <trkpt lat="46.88375" lon="8.55109">
        <ele>1328</ele>
        <time>2021-08-10T15:02:58.342Z</time>
      </trkpt>
      <trkpt lat="46.88375" lon="8.55108">
        <ele>1329</ele>
        <time>2021-08-10T15:02:59.342Z</time>
      </trkpt>
      <trkpt lat="46.88375" lon="8.55107">
        <ele>1330</ele>
        <time>2021-08-10T15:03:00.342Z</time>
      </trkpt>
      <trkpt lat="46.88375" lon="8.55107">
        <ele>1331</ele>
        <time>2021-08-10T15:03:01.341Z</time>
      </trkpt>
      <trkpt lat="46.88375" lon="8.55107">
        <ele>1332</ele>
        <time>2021-08-10T15:03:02.341Z</time>
      </trkpt>
      <trkpt lat="46.88374" lon="8.55107">
        <ele>1333</ele>
        <time>2021-08-10T15:03:03.341Z</time>
      </trkpt>
      <trkpt lat="46.88373" lon="8.55107">
        <ele>1333</ele>
        <time>2021-08-10T15:03:04.342Z</time>
      </trkpt>
      <trkpt lat="46.88373" lon="8.55106">
        <ele>1334</ele>
        <time>2021-08-10T15:03:05.341Z</time>
      </trkpt>
      <trkpt lat="46.88372" lon="8.55107">
        <ele>1334</ele>
        <time>2021-08-10T15:03:06.342Z</time>
      </trkpt>
      <trkpt lat="46.88372" lon="8.55106">
        <ele>1335</ele>
        <time>2021-08-10T15:03:07.341Z</time>
      </trkpt>
      <trkpt lat="46.88371" lon="8.55106">
        <ele>1335</ele>
        <time>2021-08-10T15:03:08.341Z</time>
      </trkpt>
      <trkpt lat="46.88371" lon="8.55106">
        <ele>1336</ele>
        <time>2021-08-10T15:03:09.342Z</time>
      </trkpt>
      <trkpt lat="46.8837" lon="8.55106">
        <ele>1336</ele>
        <time>2021-08-10T15:03:10.342Z</time>
      </trkpt>
      <trkpt lat="46.88369" lon="8.55106">
        <ele>1336</ele>
        <time>2021-08-10T15:03:11.341Z</time>
      </trkpt>
      <trkpt lat="46.88368" lon="8.55106">
        <ele>1336</ele>
        <time>2021-08-10T15:03:12.342Z</time>
      </trkpt>
      <trkpt lat="46.88367" lon="8.55106">
        <ele>1336</ele>
        <time>2021-08-10T15:03:13.341Z</time>
      </trkpt>
      <trkpt lat="46.88367" lon="8.55105">
        <ele>1337</ele>
        <time>2021-08-10T15:03:14.341Z</time>
      </trkpt>
      <trkpt lat="46.88367" lon="8.55104">
        <ele>1337</ele>
        <time>2021-08-10T15:03:15.342Z</time>
      </trkpt>
      <trkpt lat="46.88367" lon="8.55104">
        <ele>1337</ele>
        <time>2021-08-10T15:03:16.342Z</time>
      </trkpt>
      <trkpt lat="46.88367" lon="8.55104">
        <ele>1338</ele>
        <time>2021-08-10T15:03:17.341Z</time>
      </trkpt>
      <trkpt lat="46.88366" lon="8.55104">
        <ele>1338</ele>
        <time>2021-08-10T15:03:18.342Z</time>
      </trkpt>
      <trkpt lat="46.88366" lon="8.55103">
        <ele>1339</ele>
        <time>2021-08-10T15:03:19.342Z</time>
      </trkpt>
      <trkpt lat="46.88365" lon="8.55103">
        <ele>1339</ele>
        <time>2021-08-10T15:03:20.341Z</time>
      </trkpt>
      <trkpt lat="46.88365" lon="8.55102">
        <ele>1339</ele>
        <time>2021-08-10T15:03:21.341Z</time>
      </trkpt>
      <trkpt lat="46.88364" lon="8.55102">
        <ele>1340</ele>
        <time>2021-08-10T15:03:22.342Z</time>
      </trkpt>
      <trkpt lat="46.88364" lon="8.55102">
        <ele>1340</ele>
        <time>2021-08-10T15:03:23.341Z</time>
      </trkpt>
      <trkpt lat="46.88365" lon="8.55101">
        <ele>1340</ele>
        <time>2021-08-10T15:03:24.342Z</time>
      </trkpt>
      <trkpt lat="46.88366" lon="8.551">
        <ele>1341</ele>
        <time>2021-08-10T15:03:25.342Z</time>
      </trkpt>
      <trkpt lat="46.88367" lon="8.55099">
        <ele>1341</ele>
        <time>2021-08-10T15:03:26.341Z</time>
      </trkpt>
      <trkpt lat="46.88367" lon="8.55099">
        <ele>1341</ele>
        <time>2021-08-10T15:03:27.342Z</time>
      </trkpt>
      <trkpt lat="46.88367" lon="8.55099">
        <ele>1340</ele>
        <time>2021-08-10T15:03:28.342Z</time>
      </trkpt>
      <trkpt lat="46.88367" lon="8.55098">
        <ele>1340</ele>
        <time>2021-08-10T15:03:29.341Z</time>
      </trkpt>
      <trkpt lat="46.88367" lon="8.55098">
        <ele>1339</ele>
        <time>2021-08-10T15:03:30.341Z</time>
      </trkpt>
      <trkpt lat="46.88367" lon="8.55098">
        <ele>1339</ele>
        <time>2021-08-10T15:03:31.341Z</time>
      </trkpt>
      <trkpt lat="46.88368" lon="8.55098">
        <ele>1339</ele>
        <time>2021-08-10T15:03:32.341Z</time>
      </trkpt>
      <trkpt lat="46.88369" lon="8.55098">
        <ele>1339</ele>
        <time>2021-08-10T15:03:33.341Z</time>
      </trkpt>
      <trkpt lat="46.8837" lon="8.55099">
        <ele>1339</ele>
        <time>2021-08-10T15:03:40.430Z</time>
      </trkpt>
      <trkpt lat="46.88371" lon="8.55099">
        <ele>1340</ele>
        <time>2021-08-10T15:03:41.430Z</time>
      </trkpt>
      <trkpt lat="46.88371" lon="8.55099">
        <ele>1340</ele>
        <time>2021-08-10T15:03:47.305Z</time>
      </trkpt>
      <trkpt lat="46.88372" lon="8.55099">
        <ele>1341</ele>
        <time>2021-08-10T15:03:48.306Z</time>
      </trkpt>
      <trkpt lat="46.88372" lon="8.55098">
        <ele>1341</ele>
        <time>2021-08-10T15:03:51.200Z</time>
      </trkpt>
      <trkpt lat="46.88372" lon="8.55097">
        <ele>1341</ele>
        <time>2021-08-10T15:03:52.199Z</time>
      </trkpt>
      <trkpt lat="46.88373" lon="8.55096">
        <ele>1342</ele>
        <time>2021-08-10T15:03:53.199Z</time>
      </trkpt>
      <trkpt lat="46.88373" lon="8.55095">
        <ele>1342</ele>
        <time>2021-08-10T15:03:54.200Z</time>
      </trkpt>
      <trkpt lat="46.88373" lon="8.55095">
        <ele>1342</ele>
        <time>2021-08-10T15:03:58.304Z</time>
      </trkpt>
      <trkpt lat="46.88373" lon="8.55094">
        <ele>1342</ele>
        <time>2021-08-10T15:03:59.305Z</time>
      </trkpt>
      <trkpt lat="46.88373" lon="8.55093">
        <ele>1343</ele>
        <time>2021-08-10T15:04:01.182Z</time>
      </trkpt>
      <trkpt lat="46.88374" lon="8.55093">
        <ele>1343</ele>
        <time>2021-08-10T15:04:02.181Z</time>
      </trkpt>
      <trkpt lat="46.88374" lon="8.55093">
        <ele>1343</ele>
        <time>2021-08-10T15:04:03.181Z</time>
      </trkpt>
      <trkpt lat="46.88375" lon="8.55092">
        <ele>1343</ele>
        <time>2021-08-10T15:04:04.181Z</time>
      </trkpt>
      <trkpt lat="46.88375" lon="8.55092">
        <ele>1343</ele>
        <time>2021-08-10T15:04:05.182Z</time>
      </trkpt>
      <trkpt lat="46.88377" lon="8.5509">
        <ele>1344</ele>
        <time>2021-08-10T15:04:06.182Z</time>
      </trkpt>
      <trkpt lat="46.88377" lon="8.5509">
        <ele>1344</ele>
        <time>2021-08-10T15:04:07.182Z</time>
      </trkpt>
      <trkpt lat="46.88378" lon="8.55089">
        <ele>1344</ele>
        <time>2021-08-10T15:04:08.182Z</time>
      </trkpt>
      <trkpt lat="46.88378" lon="8.55089">
        <ele>1344</ele>
        <time>2021-08-10T15:04:09.182Z</time>
      </trkpt>
      <trkpt lat="46.88379" lon="8.55088">
        <ele>1344</ele>
        <time>2021-08-10T15:04:10.182Z</time>
      </trkpt>
      <trkpt lat="46.88379" lon="8.55087">
        <ele>1343</ele>
        <time>2021-08-10T15:04:11.182Z</time>
      </trkpt>
      <trkpt lat="46.88379" lon="8.55087">
        <ele>1342</ele>
        <time>2021-08-10T15:04:12.181Z</time>
      </trkpt>
      <trkpt lat="46.88379" lon="8.55086">
        <ele>1342</ele>
        <time>2021-08-10T15:04:13.181Z</time>
      </trkpt>
      <trkpt lat="46.88378" lon="8.55085">
        <ele>1341</ele>
        <time>2021-08-10T15:04:14.181Z</time>
      </trkpt>
      <trkpt lat="46.88377" lon="8.55084">
        <ele>1341</ele>
        <time>2021-08-10T15:04:15.181Z</time>
      </trkpt>
      <trkpt lat="46.88375" lon="8.55084">
        <ele>1340</ele>
        <time>2021-08-10T15:04:16.181Z</time>
      </trkpt>
      <trkpt lat="46.88374" lon="8.55083">
        <ele>1340</ele>
        <time>2021-08-10T15:04:17.181Z</time>
      </trkpt>
      <trkpt lat="46.88373" lon="8.55082">
        <ele>1340</ele>
        <time>2021-08-10T15:04:18.182Z</time>
      </trkpt>
      <trkpt lat="46.88373" lon="8.55082">
        <ele>1340</ele>
        <time>2021-08-10T15:04:19.182Z</time>
      </trkpt>
      <trkpt lat="46.88372" lon="8.55082">
        <ele>1340</ele>
        <time>2021-08-10T15:04:20.182Z</time>
      </trkpt>
      <trkpt lat="46.88371" lon="8.55081">
        <ele>1340</ele>
        <time>2021-08-10T15:04:21.182Z</time>
      </trkpt>
      <trkpt lat="46.88371" lon="8.55081">
        <ele>1341</ele>
        <time>2021-08-10T15:04:22.181Z</time>
      </trkpt>
      <trkpt lat="46.88371" lon="8.55081">
        <ele>1341</ele>
        <time>2021-08-10T15:04:23.181Z</time>
      </trkpt>
      <trkpt lat="46.8837" lon="8.5508">
        <ele>1341</ele>
        <time>2021-08-10T15:04:24.181Z</time>
      </trkpt>
      <trkpt lat="46.8837" lon="8.55079">
        <ele>1342</ele>
        <time>2021-08-10T15:04:25.181Z</time>
      </trkpt>
      <trkpt lat="46.88369" lon="8.55078">
        <ele>1342</ele>
        <time>2021-08-10T15:04:26.182Z</time>
      </trkpt>
      <trkpt lat="46.8837" lon="8.55078">
        <ele>1342</ele>
        <time>2021-08-10T15:04:27.181Z</time>
      </trkpt>
      <trkpt lat="46.8837" lon="8.55078">
        <ele>1342</ele>
        <time>2021-08-10T15:04:28.181Z</time>
      </trkpt>
      <trkpt lat="46.88371" lon="8.55079">
        <ele>1342</ele>
        <time>2021-08-10T15:04:29.181Z</time>
      </trkpt>
      <trkpt lat="46.88372" lon="8.55079">
        <ele>1342</ele>
        <time>2021-08-10T15:04:30.181Z</time>
      </trkpt>
      <trkpt lat="46.88373" lon="8.55079">
        <ele>1342</ele>
        <time>2021-08-10T15:04:31.181Z</time>
      </trkpt>
      <trkpt lat="46.88373" lon="8.5508">
        <ele>1342</ele>
        <time>2021-08-10T15:04:32.181Z</time>
      </trkpt>
      <trkpt lat="46.88374" lon="8.5508">
        <ele>1342</ele>
        <time>2021-08-10T15:04:33.181Z</time>
      </trkpt>
      <trkpt lat="46.88375" lon="8.55079">
        <ele>1342</ele>
        <time>2021-08-10T15:04:34.181Z</time>
      </trkpt>
      <trkpt lat="46.88376" lon="8.55079">
        <ele>1342</ele>
        <time>2021-08-10T15:04:35.181Z</time>
      </trkpt>
      <trkpt lat="46.88376" lon="8.55078">
        <ele>1341</ele>
        <time>2021-08-10T15:04:36.181Z</time>
      </trkpt>
      <trkpt lat="46.88375" lon="8.55076">
        <ele>1341</ele>
        <time>2021-08-10T15:04:37.181Z</time>
      </trkpt>
      <trkpt lat="46.88375" lon="8.55075">
        <ele>1341</ele>
        <time>2021-08-10T15:04:38.181Z</time>
      </trkpt>
      <trkpt lat="46.88374" lon="8.55073">
        <ele>1342</ele>
        <time>2021-08-10T15:04:39.181Z</time>
      </trkpt>
      <trkpt lat="46.88374" lon="8.55072">
        <ele>1342</ele>
        <time>2021-08-10T15:04:40.181Z</time>
      </trkpt>
      <trkpt lat="46.88373" lon="8.55072">
        <ele>1342</ele>
        <time>2021-08-10T15:04:41.181Z</time>
      </trkpt>
      <trkpt lat="46.88372" lon="8.55072">
        <ele>1342</ele>
        <time>2021-08-10T15:04:42.182Z</time>
      </trkpt>
      <trkpt lat="46.88371" lon="8.55071">
        <ele>1343</ele>
        <time>2021-08-10T15:04:45.201Z</time>
      </trkpt>
      <trkpt lat="46.8837" lon="8.55071">
        <ele>1343</ele>
        <time>2021-08-10T15:04:46.200Z</time>
      </trkpt>
      <trkpt lat="46.88369" lon="8.5507">
        <ele>1343</ele>
        <time>2021-08-10T15:04:47.200Z</time>
      </trkpt>
      <trkpt lat="46.88368" lon="8.55069">
        <ele>1344</ele>
        <time>2021-08-10T15:04:48.200Z</time>
      </trkpt>
      <trkpt lat="46.88367" lon="8.55068">
        <ele>1345</ele>
        <time>2021-08-10T15:04:49.200Z</time>
      </trkpt>
      <trkpt lat="46.88367" lon="8.55067">
        <ele>1346</ele>
        <time>2021-08-10T15:04:50.200Z</time>
      </trkpt>
      <trkpt lat="46.88367" lon="8.55067">
        <ele>1348</ele>
        <time>2021-08-10T15:04:51.200Z</time>
      </trkpt>
      <trkpt lat="46.88367" lon="8.55067">
        <ele>1348</ele>
        <time>2021-08-10T15:04:52.201Z</time>
      </trkpt>
      <trkpt lat="46.88367" lon="8.55067">
        <ele>1349</ele>
        <time>2021-08-10T15:04:54.314Z</time>
      </trkpt>
      <trkpt lat="46.88368" lon="8.55067">
        <ele>1350</ele>
        <time>2021-08-10T15:04:55.314Z</time>
      </trkpt>
      <trkpt lat="46.88368" lon="8.55068">
        <ele>1350</ele>
        <time>2021-08-10T15:04:56.315Z</time>
      </trkpt>
      <trkpt lat="46.88368" lon="8.55067">
        <ele>1350</ele>
        <time>2021-08-10T15:04:58.409Z</time>
      </trkpt>
      <trkpt lat="46.88368" lon="8.55067">
        <ele>1350</ele>
        <time>2021-08-10T15:04:59.408Z</time>
      </trkpt>
      <trkpt lat="46.88368" lon="8.55066">
        <ele>1349</ele>
        <time>2021-08-10T15:05:00.409Z</time>
      </trkpt>
      <trkpt lat="46.88368" lon="8.55064">
        <ele>1349</ele>
        <time>2021-08-10T15:05:01.409Z</time>
      </trkpt>
      <trkpt lat="46.88367" lon="8.55063">
        <ele>1349</ele>
        <time>2021-08-10T15:05:02.409Z</time>
      </trkpt>
      <trkpt lat="46.88367" lon="8.55062">
        <ele>1350</ele>
        <time>2021-08-10T15:05:03.409Z</time>
      </trkpt>
      <trkpt lat="46.88367" lon="8.55061">
        <ele>1350</ele>
        <time>2021-08-10T15:05:04.409Z</time>
      </trkpt>
      <trkpt lat="46.88366" lon="8.55061">
        <ele>1351</ele>
        <time>2021-08-10T15:05:05.409Z</time>
      </trkpt>
      <trkpt lat="46.88366" lon="8.55061">
        <ele>1351</ele>
        <time>2021-08-10T15:05:06.409Z</time>
      </trkpt>
      <trkpt lat="46.88365" lon="8.55061">
        <ele>1351</ele>
        <time>2021-08-10T15:05:07.408Z</time>
      </trkpt>
      <trkpt lat="46.88364" lon="8.55061">
        <ele>1351</ele>
        <time>2021-08-10T15:05:08.409Z</time>
      </trkpt>
      <trkpt lat="46.88364" lon="8.5506">
        <ele>1351</ele>
        <time>2021-08-10T15:05:09.408Z</time>
      </trkpt>
      <trkpt lat="46.88363" lon="8.55058">
        <ele>1352</ele>
        <time>2021-08-10T15:05:10.409Z</time>
      </trkpt>
      <trkpt lat="46.88363" lon="8.55056">
        <ele>1352</ele>
        <time>2021-08-10T15:05:11.408Z</time>
      </trkpt>
      <trkpt lat="46.88363" lon="8.55055">
        <ele>1353</ele>
        <time>2021-08-10T15:05:12.409Z</time>
      </trkpt>
      <trkpt lat="46.88363" lon="8.55054">
        <ele>1353</ele>
        <time>2021-08-10T15:05:13.408Z</time>
      </trkpt>
      <trkpt lat="46.88363" lon="8.55053">
        <ele>1354</ele>
        <time>2021-08-10T15:05:14.408Z</time>
      </trkpt>
      <trkpt lat="46.88362" lon="8.55052">
        <ele>1354</ele>
        <time>2021-08-10T15:05:15.409Z</time>
      </trkpt>
      <trkpt lat="46.88363" lon="8.55052">
        <ele>1354</ele>
        <time>2021-08-10T15:05:16.409Z</time>
      </trkpt>
      <trkpt lat="46.88362" lon="8.55051">
        <ele>1354</ele>
        <time>2021-08-10T15:05:17.409Z</time>
      </trkpt>
      <trkpt lat="46.88362" lon="8.55051">
        <ele>1354</ele>
        <time>2021-08-10T15:05:18.408Z</time>
      </trkpt>
      <trkpt lat="46.88363" lon="8.55051">
        <ele>1354</ele>
        <time>2021-08-10T15:05:19.408Z</time>
      </trkpt>
      <trkpt lat="46.88363" lon="8.55051">
        <ele>1354</ele>
        <time>2021-08-10T15:05:20.408Z</time>
      </trkpt>
      <trkpt lat="46.88362" lon="8.5505">
        <ele>1354</ele>
        <time>2021-08-10T15:05:21.409Z</time>
      </trkpt>
      <trkpt lat="46.88362" lon="8.55049">
        <ele>1354</ele>
        <time>2021-08-10T15:05:22.409Z</time>
      </trkpt>
      <trkpt lat="46.88362" lon="8.55048">
        <ele>1354</ele>
        <time>2021-08-10T15:05:23.409Z</time>
      </trkpt>
      <trkpt lat="46.88361" lon="8.55049">
        <ele>1354</ele>
        <time>2021-08-10T15:05:24.408Z</time>
      </trkpt>
      <trkpt lat="46.88361" lon="8.5505">
        <ele>1353</ele>
        <time>2021-08-10T15:05:25.409Z</time>
      </trkpt>
      <trkpt lat="46.8836" lon="8.5505">
        <ele>1353</ele>
        <time>2021-08-10T15:05:26.408Z</time>
      </trkpt>
      <trkpt lat="46.88361" lon="8.55051">
        <ele>1352</ele>
        <time>2021-08-10T15:05:27.408Z</time>
      </trkpt>
      <trkpt lat="46.88361" lon="8.55052">
        <ele>1352</ele>
        <time>2021-08-10T15:05:28.408Z</time>
      </trkpt>
      <trkpt lat="46.88361" lon="8.55049">
        <ele>1353</ele>
        <time>2021-08-10T15:05:29.409Z</time>
      </trkpt>
      <trkpt lat="46.88361" lon="8.5505">
        <ele>1353</ele>
        <time>2021-08-10T15:05:30.409Z</time>
      </trkpt>
      <trkpt lat="46.88361" lon="8.55046">
        <ele>1356</ele>
        <time>2021-08-10T15:05:31.409Z</time>
      </trkpt>
      <trkpt lat="46.88362" lon="8.55046">
        <ele>1356</ele>
        <time>2021-08-10T15:05:32.409Z</time>
      </trkpt>
      <trkpt lat="46.88362" lon="8.55046">
        <ele>1356</ele>
        <time>2021-08-10T15:05:33.408Z</time>
      </trkpt>
      <trkpt lat="46.88362" lon="8.55046">
        <ele>1356</ele>
        <time>2021-08-10T15:05:34.408Z</time>
      </trkpt>
      <trkpt lat="46.88362" lon="8.5505">
        <ele>1349</ele>
        <time>2021-08-10T15:05:35.408Z</time>
      </trkpt>
      <trkpt lat="46.88362" lon="8.5505">
        <ele>1349</ele>
        <time>2021-08-10T15:05:36.408Z</time>
      </trkpt>
      <trkpt lat="46.88362" lon="8.55046">
        <ele>1347</ele>
        <time>2021-08-10T15:05:37.409Z</time>
      </trkpt>
      <trkpt lat="46.88362" lon="8.55045">
        <ele>1347</ele>
        <time>2021-08-10T15:05:38.409Z</time>
      </trkpt>
      <trkpt lat="46.88362" lon="8.55044">
        <ele>1346</ele>
        <time>2021-08-10T15:05:39.408Z</time>
      </trkpt>
      <trkpt lat="46.88362" lon="8.55043">
        <ele>1346</ele>
        <time>2021-08-10T15:05:40.409Z</time>
      </trkpt>
      <trkpt lat="46.88362" lon="8.55042">
        <ele>1346</ele>
        <time>2021-08-10T15:05:41.409Z</time>
      </trkpt>
      <trkpt lat="46.88361" lon="8.55041">
        <ele>1346</ele>
        <time>2021-08-10T15:05:42.409Z</time>
      </trkpt>
      <trkpt lat="46.88361" lon="8.55039">
        <ele>1347</ele>
        <time>2021-08-10T15:05:43.408Z</time>
      </trkpt>
      <trkpt lat="46.88361" lon="8.55038">
        <ele>1347</ele>
        <time>2021-08-10T15:05:44.409Z</time>
      </trkpt>
      <trkpt lat="46.88361" lon="8.55038">
        <ele>1348</ele>
        <time>2021-08-10T15:05:45.409Z</time>
      </trkpt>
      <trkpt lat="46.88362" lon="8.55037">
        <ele>1349</ele>
        <time>2021-08-10T15:05:46.409Z</time>
      </trkpt>
      <trkpt lat="46.88362" lon="8.55036">
        <ele>1349</ele>
        <time>2021-08-10T15:05:47.408Z</time>
      </trkpt>
      <trkpt lat="46.88362" lon="8.55035">
        <ele>1350</ele>
        <time>2021-08-10T15:05:48.409Z</time>
      </trkpt>
      <trkpt lat="46.88361" lon="8.55034">
        <ele>1350</ele>
        <time>2021-08-10T15:05:49.409Z</time>
      </trkpt>
      <trkpt lat="46.88362" lon="8.55033">
        <ele>1350</ele>
        <time>2021-08-10T15:05:50.409Z</time>
      </trkpt>
      <trkpt lat="46.88362" lon="8.55032">
        <ele>1350</ele>
        <time>2021-08-10T15:05:51.408Z</time>
      </trkpt>
      <trkpt lat="46.88362" lon="8.55031">
        <ele>1350</ele>
        <time>2021-08-10T15:05:55.461Z</time>
      </trkpt>
      <trkpt lat="46.88362" lon="8.55031">
        <ele>1350</ele>
        <time>2021-08-10T15:05:56.460Z</time>
      </trkpt>
      <trkpt lat="46.88362" lon="8.5503">
        <ele>1350</ele>
        <time>2021-08-10T15:05:57.461Z</time>
      </trkpt>
      <trkpt lat="46.88362" lon="8.55029">
        <ele>1350</ele>
        <time>2021-08-10T15:05:58.461Z</time>
      </trkpt>
      <trkpt lat="46.88362" lon="8.55028">
        <ele>1350</ele>
        <time>2021-08-10T15:05:59.460Z</time>
      </trkpt>
      <trkpt lat="46.88362" lon="8.55027">
        <ele>1350</ele>
        <time>2021-08-10T15:06:00.461Z</time>
      </trkpt>
      <trkpt lat="46.88362" lon="8.55027">
        <ele>1350</ele>
        <time>2021-08-10T15:06:01.461Z</time>
      </trkpt>
      <trkpt lat="46.88362" lon="8.55026">
        <ele>1350</ele>
        <time>2021-08-10T15:06:03.565Z</time>
      </trkpt>
      <trkpt lat="46.88363" lon="8.55024">
        <ele>1350</ele>
        <time>2021-08-10T15:06:04.564Z</time>
      </trkpt>
      <trkpt lat="46.88363" lon="8.55023">
        <ele>1349</ele>
        <time>2021-08-10T15:06:05.565Z</time>
      </trkpt>
      <trkpt lat="46.88363" lon="8.55023">
        <ele>1349</ele>
        <time>2021-08-10T15:06:06.565Z</time>
      </trkpt>
      <trkpt lat="46.88363" lon="8.55022">
        <ele>1349</ele>
        <time>2021-08-10T15:06:07.564Z</time>
      </trkpt>
      <trkpt lat="46.88363" lon="8.55021">
        <ele>1349</ele>
        <time>2021-08-10T15:06:08.564Z</time>
      </trkpt>
      <trkpt lat="46.88363" lon="8.55021">
        <ele>1348</ele>
        <time>2021-08-10T15:06:09.565Z</time>
      </trkpt>
      <trkpt lat="46.88363" lon="8.5502">
        <ele>1348</ele>
        <time>2021-08-10T15:06:10.565Z</time>
      </trkpt>
      <trkpt lat="46.88363" lon="8.55018">
        <ele>1348</ele>
        <time>2021-08-10T15:06:11.565Z</time>
      </trkpt>
      <trkpt lat="46.88362" lon="8.55017">
        <ele>1348</ele>
        <time>2021-08-10T15:06:12.564Z</time>
      </trkpt>
      <trkpt lat="46.88362" lon="8.55016">
        <ele>1349</ele>
        <time>2021-08-10T15:06:13.565Z</time>
      </trkpt>
      <trkpt lat="46.88362" lon="8.55015">
        <ele>1349</ele>
        <time>2021-08-10T15:06:14.565Z</time>
      </trkpt>
      <trkpt lat="46.88362" lon="8.55014">
        <ele>1350</ele>
        <time>2021-08-10T15:06:15.565Z</time>
      </trkpt>
      <trkpt lat="46.88362" lon="8.55013">
        <ele>1350</ele>
        <time>2021-08-10T15:06:16.565Z</time>
      </trkpt>
      <trkpt lat="46.88362" lon="8.55011">
        <ele>1351</ele>
        <time>2021-08-10T15:06:17.565Z</time>
      </trkpt>
      <trkpt lat="46.88361" lon="8.5501">
        <ele>1352</ele>
        <time>2021-08-10T15:06:18.565Z</time>
      </trkpt>
      <trkpt lat="46.88361" lon="8.55009">
        <ele>1352</ele>
        <time>2021-08-10T15:06:19.564Z</time>
      </trkpt>
      <trkpt lat="46.88361" lon="8.55008">
        <ele>1353</ele>
        <time>2021-08-10T15:06:20.565Z</time>
      </trkpt>
      <trkpt lat="46.88361" lon="8.55006">
        <ele>1353</ele>
        <time>2021-08-10T15:06:21.565Z</time>
      </trkpt>
      <trkpt lat="46.88361" lon="8.55006">
        <ele>1354</ele>
        <time>2021-08-10T15:06:22.564Z</time>
      </trkpt>
      <trkpt lat="46.88361" lon="8.55005">
        <ele>1354</ele>
        <time>2021-08-10T15:06:23.564Z</time>
      </trkpt>
      <trkpt lat="46.88361" lon="8.55004">
        <ele>1354</ele>
        <time>2021-08-10T15:06:24.565Z</time>
      </trkpt>
      <trkpt lat="46.88361" lon="8.55003">
        <ele>1355</ele>
        <time>2021-08-10T15:06:25.564Z</time>
      </trkpt>
      <trkpt lat="46.88361" lon="8.55002">
        <ele>1355</ele>
        <time>2021-08-10T15:06:26.564Z</time>
      </trkpt>
      <trkpt lat="46.8836" lon="8.55001">
        <ele>1355</ele>
        <time>2021-08-10T15:06:27.564Z</time>
      </trkpt>
      <trkpt lat="46.8836" lon="8.55">
        <ele>1355</ele>
        <time>2021-08-10T15:06:28.565Z</time>
      </trkpt>
      <trkpt lat="46.8836" lon="8.54999">
        <ele>1356</ele>
        <time>2021-08-10T15:06:29.565Z</time>
      </trkpt>
      <trkpt lat="46.8836" lon="8.54998">
        <ele>1356</ele>
        <time>2021-08-10T15:06:30.565Z</time>
      </trkpt>
      <trkpt lat="46.88361" lon="8.54998">
        <ele>1356</ele>
        <time>2021-08-10T15:06:31.565Z</time>
      </trkpt>
      <trkpt lat="46.88361" lon="8.54997">
        <ele>1356</ele>
        <time>2021-08-10T15:06:32.565Z</time>
      </trkpt>
      <trkpt lat="46.88362" lon="8.54996">
        <ele>1356</ele>
        <time>2021-08-10T15:06:33.565Z</time>
      </trkpt>
      <trkpt lat="46.88362" lon="8.54996">
        <ele>1356</ele>
        <time>2021-08-10T15:06:34.565Z</time>
      </trkpt>
      <trkpt lat="46.88363" lon="8.54995">
        <ele>1356</ele>
        <time>2021-08-10T15:06:35.565Z</time>
      </trkpt>
      <trkpt lat="46.88363" lon="8.54993">
        <ele>1356</ele>
        <time>2021-08-10T15:06:36.565Z</time>
      </trkpt>
      <trkpt lat="46.88363" lon="8.54992">
        <ele>1357</ele>
        <time>2021-08-10T15:06:37.565Z</time>
      </trkpt>
      <trkpt lat="46.88362" lon="8.5499">
        <ele>1357</ele>
        <time>2021-08-10T15:06:38.565Z</time>
      </trkpt>
      <trkpt lat="46.88362" lon="8.54989">
        <ele>1358</ele>
        <time>2021-08-10T15:06:39.564Z</time>
      </trkpt>
      <trkpt lat="46.88361" lon="8.54988">
        <ele>1359</ele>
        <time>2021-08-10T15:06:40.565Z</time>
      </trkpt>
      <trkpt lat="46.88361" lon="8.54988">
        <ele>1359</ele>
        <time>2021-08-10T15:06:41.565Z</time>
      </trkpt>
      <trkpt lat="46.8836" lon="8.54988">
        <ele>1360</ele>
        <time>2021-08-10T15:06:42.564Z</time>
      </trkpt>
      <trkpt lat="46.8836" lon="8.54988">
        <ele>1361</ele>
        <time>2021-08-10T15:06:43.565Z</time>
      </trkpt>
      <trkpt lat="46.88359" lon="8.54988">
        <ele>1361</ele>
        <time>2021-08-10T15:06:44.564Z</time>
      </trkpt>
      <trkpt lat="46.88358" lon="8.54987">
        <ele>1362</ele>
        <time>2021-08-10T15:06:45.565Z</time>
      </trkpt>
      <trkpt lat="46.88358" lon="8.54987">
        <ele>1361</ele>
        <time>2021-08-10T15:06:46.564Z</time>
      </trkpt>
      <trkpt lat="46.88357" lon="8.54987">
        <ele>1361</ele>
        <time>2021-08-10T15:06:47.565Z</time>
      </trkpt>
      <trkpt lat="46.88356" lon="8.54987">
        <ele>1361</ele>
        <time>2021-08-10T15:06:48.565Z</time>
      </trkpt>
      <trkpt lat="46.88356" lon="8.54987">
        <ele>1361</ele>
        <time>2021-08-10T15:06:49.564Z</time>
      </trkpt>
      <trkpt lat="46.88355" lon="8.54987">
        <ele>1362</ele>
        <time>2021-08-10T15:06:50.565Z</time>
      </trkpt>
      <trkpt lat="46.88355" lon="8.54986">
        <ele>1363</ele>
        <time>2021-08-10T15:06:51.565Z</time>
      </trkpt>
      <trkpt lat="46.88354" lon="8.54986">
        <ele>1363</ele>
        <time>2021-08-10T15:06:52.565Z</time>
      </trkpt>
      <trkpt lat="46.88354" lon="8.54986">
        <ele>1364</ele>
        <time>2021-08-10T15:06:53.565Z</time>
      </trkpt>
      <trkpt lat="46.88353" lon="8.54985">
        <ele>1365</ele>
        <time>2021-08-10T15:06:54.564Z</time>
      </trkpt>
      <trkpt lat="46.88353" lon="8.54985">
        <ele>1366</ele>
        <time>2021-08-10T15:06:55.564Z</time>
      </trkpt>
      <trkpt lat="46.88352" lon="8.54984">
        <ele>1367</ele>
        <time>2021-08-10T15:06:56.564Z</time>
      </trkpt>
      <trkpt lat="46.88352" lon="8.54984">
        <ele>1367</ele>
        <time>2021-08-10T15:06:57.564Z</time>
      </trkpt>
      <trkpt lat="46.88352" lon="8.54983">
        <ele>1367</ele>
        <time>2021-08-10T15:06:58.565Z</time>
      </trkpt>
      <trkpt lat="46.88351" lon="8.54983">
        <ele>1367</ele>
        <time>2021-08-10T15:06:59.565Z</time>
      </trkpt>
      <trkpt lat="46.88351" lon="8.54982">
        <ele>1366</ele>
        <time>2021-08-10T15:07:00.565Z</time>
      </trkpt>
      <trkpt lat="46.8835" lon="8.54982">
        <ele>1366</ele>
        <time>2021-08-10T15:07:01.564Z</time>
      </trkpt>
      <trkpt lat="46.8835" lon="8.54981">
        <ele>1367</ele>
        <time>2021-08-10T15:07:02.564Z</time>
      </trkpt>
      <trkpt lat="46.88349" lon="8.54981">
        <ele>1367</ele>
        <time>2021-08-10T15:07:03.565Z</time>
      </trkpt>
      <trkpt lat="46.88348" lon="8.54981">
        <ele>1367</ele>
        <time>2021-08-10T15:07:04.564Z</time>
      </trkpt>
      <trkpt lat="46.88348" lon="8.54981">
        <ele>1367</ele>
        <time>2021-08-10T15:07:05.565Z</time>
      </trkpt>
      <trkpt lat="46.88347" lon="8.5498">
        <ele>1368</ele>
        <time>2021-08-10T15:07:06.565Z</time>
      </trkpt>
      <trkpt lat="46.88346" lon="8.5498">
        <ele>1368</ele>
        <time>2021-08-10T15:07:07.565Z</time>
      </trkpt>
      <trkpt lat="46.88345" lon="8.5498">
        <ele>1368</ele>
        <time>2021-08-10T15:07:08.565Z</time>
      </trkpt>
      <trkpt lat="46.88344" lon="8.5498">
        <ele>1368</ele>
        <time>2021-08-10T15:07:09.565Z</time>
      </trkpt>
      <trkpt lat="46.88344" lon="8.5498">
        <ele>1369</ele>
        <time>2021-08-10T15:07:10.564Z</time>
      </trkpt>
      <trkpt lat="46.88344" lon="8.5498">
        <ele>1369</ele>
        <time>2021-08-10T15:07:11.564Z</time>
      </trkpt>
      <trkpt lat="46.88344" lon="8.54979">
        <ele>1369</ele>
        <time>2021-08-10T15:07:12.565Z</time>
      </trkpt>
      <trkpt lat="46.88344" lon="8.54978">
        <ele>1369</ele>
        <time>2021-08-10T15:07:13.565Z</time>
      </trkpt>
      <trkpt lat="46.88344" lon="8.54977">
        <ele>1369</ele>
        <time>2021-08-10T15:07:14.564Z</time>
      </trkpt>
      <trkpt lat="46.88345" lon="8.54976">
        <ele>1369</ele>
        <time>2021-08-10T15:07:15.565Z</time>
      </trkpt>
      <trkpt lat="46.88345" lon="8.54976">
        <ele>1368</ele>
        <time>2021-08-10T15:07:16.565Z</time>
      </trkpt>
      <trkpt lat="46.88346" lon="8.54976">
        <ele>1368</ele>
        <time>2021-08-10T15:07:17.564Z</time>
      </trkpt>
      <trkpt lat="46.88347" lon="8.54975">
        <ele>1368</ele>
        <time>2021-08-10T15:07:18.565Z</time>
      </trkpt>
      <trkpt lat="46.88348" lon="8.54976">
        <ele>1368</ele>
        <time>2021-08-10T15:07:19.565Z</time>
      </trkpt>
      <trkpt lat="46.88349" lon="8.54976">
        <ele>1368</ele>
        <time>2021-08-10T15:07:20.565Z</time>
      </trkpt>
      <trkpt lat="46.88349" lon="8.54975">
        <ele>1368</ele>
        <time>2021-08-10T15:07:21.565Z</time>
      </trkpt>
      <trkpt lat="46.8835" lon="8.54975">
        <ele>1367</ele>
        <time>2021-08-10T15:07:22.564Z</time>
      </trkpt>
      <trkpt lat="46.8835" lon="8.54974">
        <ele>1367</ele>
        <time>2021-08-10T15:07:23.565Z</time>
      </trkpt>
      <trkpt lat="46.8835" lon="8.54973">
        <ele>1367</ele>
        <time>2021-08-10T15:07:24.565Z</time>
      </trkpt>
      <trkpt lat="46.8835" lon="8.54973">
        <ele>1367</ele>
        <time>2021-08-10T15:07:25.564Z</time>
      </trkpt>
      <trkpt lat="46.88349" lon="8.54972">
        <ele>1366</ele>
        <time>2021-08-10T15:07:26.564Z</time>
      </trkpt>
      <trkpt lat="46.88348" lon="8.5497">
        <ele>1366</ele>
        <time>2021-08-10T15:07:27.564Z</time>
      </trkpt>
      <trkpt lat="46.88348" lon="8.54969">
        <ele>1366</ele>
        <time>2021-08-10T15:07:28.565Z</time>
      </trkpt>
      <trkpt lat="46.88348" lon="8.54968">
        <ele>1366</ele>
        <time>2021-08-10T15:07:29.564Z</time>
      </trkpt>
      <trkpt lat="46.88347" lon="8.54968">
        <ele>1366</ele>
        <time>2021-08-10T15:07:30.565Z</time>
      </trkpt>
      <trkpt lat="46.88346" lon="8.54968">
        <ele>1366</ele>
        <time>2021-08-10T15:07:31.565Z</time>
      </trkpt>
      <trkpt lat="46.88346" lon="8.54969">
        <ele>1365</ele>
        <time>2021-08-10T15:07:32.565Z</time>
      </trkpt>
      <trkpt lat="46.88345" lon="8.54971">
        <ele>1365</ele>
        <time>2021-08-10T15:07:33.564Z</time>
      </trkpt>
      <trkpt lat="46.88344" lon="8.54971">
        <ele>1365</ele>
        <time>2021-08-10T15:07:34.564Z</time>
      </trkpt>
      <trkpt lat="46.88342" lon="8.54972">
        <ele>1364</ele>
        <time>2021-08-10T15:07:35.564Z</time>
      </trkpt>
      <trkpt lat="46.88341" lon="8.54972">
        <ele>1364</ele>
        <time>2021-08-10T15:07:36.564Z</time>
      </trkpt>
      <trkpt lat="46.88341" lon="8.54972">
        <ele>1363</ele>
        <time>2021-08-10T15:07:37.564Z</time>
      </trkpt>
      <trkpt lat="46.8834" lon="8.54971">
        <ele>1362</ele>
        <time>2021-08-10T15:07:38.564Z</time>
      </trkpt>
      <trkpt lat="46.88338" lon="8.54971">
        <ele>1362</ele>
        <time>2021-08-10T15:07:39.564Z</time>
      </trkpt>
      <trkpt lat="46.88338" lon="8.5497">
        <ele>1361</ele>
        <time>2021-08-10T15:07:40.565Z</time>
      </trkpt>
      <trkpt lat="46.88337" lon="8.54969">
        <ele>1361</ele>
        <time>2021-08-10T15:07:41.564Z</time>
      </trkpt>
      <trkpt lat="46.88337" lon="8.54968">
        <ele>1361</ele>
        <time>2021-08-10T15:07:42.565Z</time>
      </trkpt>
      <trkpt lat="46.88336" lon="8.54967">
        <ele>1360</ele>
        <time>2021-08-10T15:07:43.565Z</time>
      </trkpt>
      <trkpt lat="46.88336" lon="8.54966">
        <ele>1360</ele>
        <time>2021-08-10T15:07:44.565Z</time>
      </trkpt>
      <trkpt lat="46.88337" lon="8.54964">
        <ele>1359</ele>
        <time>2021-08-10T15:07:45.564Z</time>
      </trkpt>
      <trkpt lat="46.88338" lon="8.54963">
        <ele>1359</ele>
        <time>2021-08-10T15:07:46.564Z</time>
      </trkpt>
      <trkpt lat="46.88338" lon="8.54961">
        <ele>1358</ele>
        <time>2021-08-10T15:07:47.564Z</time>
      </trkpt>
      <trkpt lat="46.88338" lon="8.5496">
        <ele>1358</ele>
        <time>2021-08-10T15:07:48.564Z</time>
      </trkpt>
      <trkpt lat="46.88339" lon="8.54959">
        <ele>1357</ele>
        <time>2021-08-10T15:07:49.564Z</time>
      </trkpt>
      <trkpt lat="46.88339" lon="8.54958">
        <ele>1357</ele>
        <time>2021-08-10T15:07:50.564Z</time>
      </trkpt>
      <trkpt lat="46.8834" lon="8.54958">
        <ele>1357</ele>
        <time>2021-08-10T15:07:51.565Z</time>
      </trkpt>
      <trkpt lat="46.88341" lon="8.54957">
        <ele>1357</ele>
        <time>2021-08-10T15:07:52.565Z</time>
      </trkpt>
      <trkpt lat="46.88341" lon="8.54957">
        <ele>1357</ele>
        <time>2021-08-10T15:07:53.564Z</time>
      </trkpt>
      <trkpt lat="46.88341" lon="8.54956">
        <ele>1357</ele>
        <time>2021-08-10T15:07:54.564Z</time>
      </trkpt>
      <trkpt lat="46.88341" lon="8.54956">
        <ele>1357</ele>
        <time>2021-08-10T15:07:55.564Z</time>
      </trkpt>
      <trkpt lat="46.8834" lon="8.54955">
        <ele>1357</ele>
        <time>2021-08-10T15:07:56.564Z</time>
      </trkpt>
      <trkpt lat="46.88339" lon="8.54954">
        <ele>1357</ele>
        <time>2021-08-10T15:07:57.564Z</time>
      </trkpt>
      <trkpt lat="46.88338" lon="8.54952">
        <ele>1358</ele>
        <time>2021-08-10T15:07:58.565Z</time>
      </trkpt>
      <trkpt lat="46.88337" lon="8.54951">
        <ele>1358</ele>
        <time>2021-08-10T15:07:59.565Z</time>
      </trkpt>
      <trkpt lat="46.88337" lon="8.54951">
        <ele>1358</ele>
        <time>2021-08-10T15:08:00.565Z</time>
      </trkpt>
      <trkpt lat="46.88337" lon="8.54951">
        <ele>1359</ele>
        <time>2021-08-10T15:08:01.564Z</time>
      </trkpt>
      <trkpt lat="46.88337" lon="8.54951">
        <ele>1359</ele>
        <time>2021-08-10T15:08:02.564Z</time>
      </trkpt>
      <trkpt lat="46.88337" lon="8.54951">
        <ele>1364</ele>
        <time>2021-08-10T15:08:03.566Z</time>
      </trkpt>
      <trkpt lat="46.88337" lon="8.54949">
        <ele>1366</ele>
        <time>2021-08-10T15:08:04.565Z</time>
      </trkpt>
      <trkpt lat="46.88337" lon="8.54949">
        <ele>1366</ele>
        <time>2021-08-10T15:08:05.566Z</time>
      </trkpt>
      <trkpt lat="46.88338" lon="8.54949">
        <ele>1366</ele>
        <time>2021-08-10T15:08:06.565Z</time>
      </trkpt>
      <trkpt lat="46.88338" lon="8.54948">
        <ele>1367</ele>
        <time>2021-08-10T15:08:07.566Z</time>
      </trkpt>
      <trkpt lat="46.88338" lon="8.54948">
        <ele>1367</ele>
        <time>2021-08-10T15:08:08.566Z</time>
      </trkpt>
      <trkpt lat="46.88338" lon="8.54947">
        <ele>1368</ele>
        <time>2021-08-10T15:08:09.566Z</time>
      </trkpt>
      <trkpt lat="46.88338" lon="8.54946">
        <ele>1368</ele>
        <time>2021-08-10T15:08:10.566Z</time>
      </trkpt>
      <trkpt lat="46.88337" lon="8.54945">
        <ele>1369</ele>
        <time>2021-08-10T15:08:11.566Z</time>
      </trkpt>
      <trkpt lat="46.88337" lon="8.54945">
        <ele>1369</ele>
        <time>2021-08-10T15:08:12.566Z</time>
      </trkpt>
      <trkpt lat="46.88336" lon="8.54944">
        <ele>1370</ele>
        <time>2021-08-10T15:08:13.565Z</time>
      </trkpt>
      <trkpt lat="46.88336" lon="8.54944">
        <ele>1370</ele>
        <time>2021-08-10T15:08:14.566Z</time>
      </trkpt>
      <trkpt lat="46.88335" lon="8.54943">
        <ele>1371</ele>
        <time>2021-08-10T15:08:19.713Z</time>
      </trkpt>
      <trkpt lat="46.88335" lon="8.54943">
        <ele>1371</ele>
        <time>2021-08-10T15:08:20.713Z</time>
      </trkpt>
      <trkpt lat="46.88335" lon="8.54942">
        <ele>1371</ele>
        <time>2021-08-10T15:08:21.713Z</time>
      </trkpt>
      <trkpt lat="46.88335" lon="8.54941">
        <ele>1371</ele>
        <time>2021-08-10T15:08:22.713Z</time>
      </trkpt>
      <trkpt lat="46.88335" lon="8.54941">
        <ele>1371</ele>
        <time>2021-08-10T15:08:23.713Z</time>
      </trkpt>
      <trkpt lat="46.88335" lon="8.5494">
        <ele>1372</ele>
        <time>2021-08-10T15:08:24.713Z</time>
      </trkpt>
      <trkpt lat="46.88335" lon="8.54939">
        <ele>1373</ele>
        <time>2021-08-10T15:08:34.841Z</time>
      </trkpt>
      <trkpt lat="46.88335" lon="8.54939">
        <ele>1374</ele>
        <time>2021-08-10T15:08:35.840Z</time>
      </trkpt>
      <trkpt lat="46.88334" lon="8.54938">
        <ele>1375</ele>
        <time>2021-08-10T15:08:36.841Z</time>
      </trkpt>
      <trkpt lat="46.88334" lon="8.54938">
        <ele>1376</ele>
        <time>2021-08-10T15:08:37.841Z</time>
      </trkpt>
      <trkpt lat="46.88334" lon="8.54937">
        <ele>1376</ele>
        <time>2021-08-10T15:08:52.938Z</time>
      </trkpt>
      <trkpt lat="46.88334" lon="8.54936">
        <ele>1376</ele>
        <time>2021-08-10T15:08:53.938Z</time>
      </trkpt>
      <trkpt lat="46.88334" lon="8.54935">
        <ele>1377</ele>
        <time>2021-08-10T15:08:54.938Z</time>
      </trkpt>
      <trkpt lat="46.88334" lon="8.54935">
        <ele>1377</ele>
        <time>2021-08-10T15:08:55.938Z</time>
      </trkpt>
      <trkpt lat="46.88334" lon="8.54934">
        <ele>1377</ele>
        <time>2021-08-10T15:08:56.937Z</time>
      </trkpt>
      <trkpt lat="46.88333" lon="8.54933">
        <ele>1377</ele>
        <time>2021-08-10T15:08:57.937Z</time>
      </trkpt>
      <trkpt lat="46.88333" lon="8.54931">
        <ele>1377</ele>
        <time>2021-08-10T15:08:58.938Z</time>
      </trkpt>
      <trkpt lat="46.88333" lon="8.5493">
        <ele>1378</ele>
        <time>2021-08-10T15:08:59.938Z</time>
      </trkpt>
      <trkpt lat="46.88332" lon="8.5493">
        <ele>1378</ele>
        <time>2021-08-10T15:09:00.937Z</time>
      </trkpt>
      <trkpt lat="46.88332" lon="8.54929">
        <ele>1378</ele>
        <time>2021-08-10T15:09:01.938Z</time>
      </trkpt>
      <trkpt lat="46.88331" lon="8.54929">
        <ele>1378</ele>
        <time>2021-08-10T15:09:02.938Z</time>
      </trkpt>
      <trkpt lat="46.88332" lon="8.54929">
        <ele>1378</ele>
        <time>2021-08-10T15:09:03.938Z</time>
      </trkpt>
      <trkpt lat="46.88332" lon="8.54929">
        <ele>1378</ele>
        <time>2021-08-10T15:09:04.938Z</time>
      </trkpt>
      <trkpt lat="46.88332" lon="8.54927">
        <ele>1378</ele>
        <time>2021-08-10T15:09:05.937Z</time>
      </trkpt>
      <trkpt lat="46.8833" lon="8.54926">
        <ele>1378</ele>
        <time>2021-08-10T15:09:06.937Z</time>
      </trkpt>
      <trkpt lat="46.88329" lon="8.54924">
        <ele>1378</ele>
        <time>2021-08-10T15:09:07.938Z</time>
      </trkpt>
      <trkpt lat="46.88327" lon="8.54923">
        <ele>1379</ele>
        <time>2021-08-10T15:09:08.938Z</time>
      </trkpt>
      <trkpt lat="46.88326" lon="8.54922">
        <ele>1379</ele>
        <time>2021-08-10T15:09:09.937Z</time>
      </trkpt>
      <trkpt lat="46.88326" lon="8.54923">
        <ele>1380</ele>
        <time>2021-08-10T15:09:10.938Z</time>
      </trkpt>
      <trkpt lat="46.88326" lon="8.54923">
        <ele>1380</ele>
        <time>2021-08-10T15:09:11.937Z</time>
      </trkpt>
      <trkpt lat="46.88326" lon="8.54923">
        <ele>1381</ele>
        <time>2021-08-10T15:09:12.938Z</time>
      </trkpt>
      <trkpt lat="46.88325" lon="8.54923">
        <ele>1381</ele>
        <time>2021-08-10T15:09:13.937Z</time>
      </trkpt>
      <trkpt lat="46.88325" lon="8.54922">
        <ele>1381</ele>
        <time>2021-08-10T15:09:14.938Z</time>
      </trkpt>
      <trkpt lat="46.88325" lon="8.54922">
        <ele>1381</ele>
        <time>2021-08-10T15:09:15.938Z</time>
      </trkpt>
      <trkpt lat="46.88325" lon="8.54922">
        <ele>1381</ele>
        <time>2021-08-10T15:09:16.938Z</time>
      </trkpt>
      <trkpt lat="46.88324" lon="8.5492">
        <ele>1382</ele>
        <time>2021-08-10T15:09:17.938Z</time>
      </trkpt>
      <trkpt lat="46.88323" lon="8.5492">
        <ele>1382</ele>
        <time>2021-08-10T15:09:18.937Z</time>
      </trkpt>
      <trkpt lat="46.88323" lon="8.5492">
        <ele>1383</ele>
        <time>2021-08-10T15:09:19.938Z</time>
      </trkpt>
      <trkpt lat="46.88323" lon="8.5492">
        <ele>1383</ele>
        <time>2021-08-10T15:09:20.938Z</time>
      </trkpt>
      <trkpt lat="46.88322" lon="8.54919">
        <ele>1385</ele>
        <time>2021-08-10T15:09:21.937Z</time>
      </trkpt>
      <trkpt lat="46.88322" lon="8.54918">
        <ele>1386</ele>
        <time>2021-08-10T15:09:22.938Z</time>
      </trkpt>
      <trkpt lat="46.88321" lon="8.54917">
        <ele>1387</ele>
        <time>2021-08-10T15:09:23.938Z</time>
      </trkpt>
      <trkpt lat="46.8832" lon="8.54917">
        <ele>1387</ele>
        <time>2021-08-10T15:09:24.938Z</time>
      </trkpt>
      <trkpt lat="46.8832" lon="8.54916">
        <ele>1388</ele>
        <time>2021-08-10T15:09:25.938Z</time>
      </trkpt>
      <trkpt lat="46.8832" lon="8.54916">
        <ele>1389</ele>
        <time>2021-08-10T15:09:26.938Z</time>
      </trkpt>
      <trkpt lat="46.88319" lon="8.54915">
        <ele>1389</ele>
        <time>2021-08-10T15:09:27.937Z</time>
      </trkpt>
      <trkpt lat="46.8832" lon="8.54914">
        <ele>1389</ele>
        <time>2021-08-10T15:09:28.938Z</time>
      </trkpt>
      <trkpt lat="46.8832" lon="8.54914">
        <ele>1390</ele>
        <time>2021-08-10T15:09:29.937Z</time>
      </trkpt>
      <trkpt lat="46.88321" lon="8.54914">
        <ele>1390</ele>
        <time>2021-08-10T15:09:30.938Z</time>
      </trkpt>
      <trkpt lat="46.88321" lon="8.54913">
        <ele>1391</ele>
        <time>2021-08-10T15:09:31.938Z</time>
      </trkpt>
      <trkpt lat="46.88321" lon="8.54913">
        <ele>1391</ele>
        <time>2021-08-10T15:09:32.938Z</time>
      </trkpt>
      <trkpt lat="46.88321" lon="8.54912">
        <ele>1392</ele>
        <time>2021-08-10T15:09:33.938Z</time>
      </trkpt>
      <trkpt lat="46.88321" lon="8.54911">
        <ele>1392</ele>
        <time>2021-08-10T15:09:34.937Z</time>
      </trkpt>
      <trkpt lat="46.88321" lon="8.54909">
        <ele>1392</ele>
        <time>2021-08-10T15:09:35.938Z</time>
      </trkpt>
      <trkpt lat="46.8832" lon="8.54908">
        <ele>1393</ele>
        <time>2021-08-10T15:09:36.938Z</time>
      </trkpt>
      <trkpt lat="46.8832" lon="8.54906">
        <ele>1393</ele>
        <time>2021-08-10T15:09:37.937Z</time>
      </trkpt>
      <trkpt lat="46.8832" lon="8.54905">
        <ele>1393</ele>
        <time>2021-08-10T15:09:38.937Z</time>
      </trkpt>
      <trkpt lat="46.88319" lon="8.54903">
        <ele>1393</ele>
        <time>2021-08-10T15:09:39.938Z</time>
      </trkpt>
      <trkpt lat="46.88319" lon="8.54902">
        <ele>1394</ele>
        <time>2021-08-10T15:09:40.937Z</time>
      </trkpt>
      <trkpt lat="46.88318" lon="8.54901">
        <ele>1394</ele>
        <time>2021-08-10T15:09:41.938Z</time>
      </trkpt>
      <trkpt lat="46.88318" lon="8.549">
        <ele>1395</ele>
        <time>2021-08-10T15:09:42.938Z</time>
      </trkpt>
      <trkpt lat="46.88317" lon="8.54899">
        <ele>1395</ele>
        <time>2021-08-10T15:09:43.938Z</time>
      </trkpt>
      <trkpt lat="46.88316" lon="8.54899">
        <ele>1395</ele>
        <time>2021-08-10T15:09:44.938Z</time>
      </trkpt>
      <trkpt lat="46.88315" lon="8.54898">
        <ele>1395</ele>
        <time>2021-08-10T15:09:45.938Z</time>
      </trkpt>
      <trkpt lat="46.88314" lon="8.54897">
        <ele>1395</ele>
        <time>2021-08-10T15:09:46.938Z</time>
      </trkpt>
      <trkpt lat="46.88314" lon="8.54896">
        <ele>1395</ele>
        <time>2021-08-10T15:09:47.937Z</time>
      </trkpt>
      <trkpt lat="46.88314" lon="8.54896">
        <ele>1395</ele>
        <time>2021-08-10T15:09:48.938Z</time>
      </trkpt>
      <trkpt lat="46.88314" lon="8.54895">
        <ele>1395</ele>
        <time>2021-08-10T15:09:49.938Z</time>
      </trkpt>
      <trkpt lat="46.88313" lon="8.54894">
        <ele>1396</ele>
        <time>2021-08-10T15:09:50.938Z</time>
      </trkpt>
      <trkpt lat="46.88313" lon="8.54893">
        <ele>1396</ele>
        <time>2021-08-10T15:09:51.938Z</time>
      </trkpt>
      <trkpt lat="46.88313" lon="8.54893">
        <ele>1396</ele>
        <time>2021-08-10T15:09:52.938Z</time>
      </trkpt>
      <trkpt lat="46.88313" lon="8.54892">
        <ele>1395</ele>
        <time>2021-08-10T15:09:53.938Z</time>
      </trkpt>
      <trkpt lat="46.88313" lon="8.54891">
        <ele>1395</ele>
        <time>2021-08-10T15:09:54.938Z</time>
      </trkpt>
      <trkpt lat="46.88313" lon="8.5489">
        <ele>1394</ele>
        <time>2021-08-10T15:09:55.938Z</time>
      </trkpt>
      <trkpt lat="46.88313" lon="8.54889">
        <ele>1393</ele>
        <time>2021-08-10T15:09:56.937Z</time>
      </trkpt>
      <trkpt lat="46.88313" lon="8.54889">
        <ele>1392</ele>
        <time>2021-08-10T15:09:57.937Z</time>
      </trkpt>
      <trkpt lat="46.88313" lon="8.54887">
        <ele>1392</ele>
        <time>2021-08-10T15:09:58.938Z</time>
      </trkpt>
      <trkpt lat="46.88313" lon="8.54887">
        <ele>1392</ele>
        <time>2021-08-10T15:09:59.937Z</time>
      </trkpt>
      <trkpt lat="46.88314" lon="8.54886">
        <ele>1391</ele>
        <time>2021-08-10T15:10:00.938Z</time>
      </trkpt>
      <trkpt lat="46.88314" lon="8.54885">
        <ele>1391</ele>
        <time>2021-08-10T15:10:01.938Z</time>
      </trkpt>
      <trkpt lat="46.88315" lon="8.54885">
        <ele>1390</ele>
        <time>2021-08-10T15:10:02.937Z</time>
      </trkpt>
      <trkpt lat="46.88316" lon="8.54884">
        <ele>1390</ele>
        <time>2021-08-10T15:10:03.937Z</time>
      </trkpt>
      <trkpt lat="46.88316" lon="8.54883">
        <ele>1389</ele>
        <time>2021-08-10T15:10:04.937Z</time>
      </trkpt>
      <trkpt lat="46.88316" lon="8.54883">
        <ele>1389</ele>
        <time>2021-08-10T15:10:05.938Z</time>
      </trkpt>
      <trkpt lat="46.88318" lon="8.54882">
        <ele>1388</ele>
        <time>2021-08-10T15:10:06.937Z</time>
      </trkpt>
      <trkpt lat="46.88318" lon="8.54882">
        <ele>1388</ele>
        <time>2021-08-10T15:10:07.938Z</time>
      </trkpt>
      <trkpt lat="46.88319" lon="8.54881">
        <ele>1387</ele>
        <time>2021-08-10T15:10:08.938Z</time>
      </trkpt>
      <trkpt lat="46.8832" lon="8.5488">
        <ele>1387</ele>
        <time>2021-08-10T15:10:09.938Z</time>
      </trkpt>
      <trkpt lat="46.88321" lon="8.54879">
        <ele>1386</ele>
        <time>2021-08-10T15:10:10.938Z</time>
      </trkpt>
      <trkpt lat="46.88322" lon="8.54878">
        <ele>1386</ele>
        <time>2021-08-10T15:10:11.938Z</time>
      </trkpt>
      <trkpt lat="46.88322" lon="8.54877">
        <ele>1386</ele>
        <time>2021-08-10T15:10:12.937Z</time>
      </trkpt>
      <trkpt lat="46.88322" lon="8.54876">
        <ele>1386</ele>
        <time>2021-08-10T15:10:13.937Z</time>
      </trkpt>
      <trkpt lat="46.88323" lon="8.54875">
        <ele>1385</ele>
        <time>2021-08-10T15:10:14.938Z</time>
      </trkpt>
      <trkpt lat="46.88323" lon="8.54874">
        <ele>1385</ele>
        <time>2021-08-10T15:10:15.937Z</time>
      </trkpt>
      <trkpt lat="46.88323" lon="8.54873">
        <ele>1385</ele>
        <time>2021-08-10T15:10:16.938Z</time>
      </trkpt>
      <trkpt lat="46.88322" lon="8.54872">
        <ele>1385</ele>
        <time>2021-08-10T15:10:17.937Z</time>
      </trkpt>
      <trkpt lat="46.88321" lon="8.5487">
        <ele>1385</ele>
        <time>2021-08-10T15:10:18.937Z</time>
      </trkpt>
      <trkpt lat="46.88321" lon="8.54869">
        <ele>1385</ele>
        <time>2021-08-10T15:10:19.937Z</time>
      </trkpt>
      <trkpt lat="46.8832" lon="8.54866">
        <ele>1384</ele>
        <time>2021-08-10T15:10:20.937Z</time>
      </trkpt>
      <trkpt lat="46.88319" lon="8.54864">
        <ele>1384</ele>
        <time>2021-08-10T15:10:21.938Z</time>
      </trkpt>
      <trkpt lat="46.88318" lon="8.54863">
        <ele>1384</ele>
        <time>2021-08-10T15:10:22.937Z</time>
      </trkpt>
      <trkpt lat="46.88317" lon="8.54862">
        <ele>1384</ele>
        <time>2021-08-10T15:10:23.937Z</time>
      </trkpt>
      <trkpt lat="46.88317" lon="8.54862">
        <ele>1385</ele>
        <time>2021-08-10T15:10:24.937Z</time>
      </trkpt>
      <trkpt lat="46.88316" lon="8.54861">
        <ele>1385</ele>
        <time>2021-08-10T15:10:25.938Z</time>
      </trkpt>
      <trkpt lat="46.88316" lon="8.54861">
        <ele>1386</ele>
        <time>2021-08-10T15:10:26.937Z</time>
      </trkpt>
      <trkpt lat="46.88315" lon="8.54861">
        <ele>1387</ele>
        <time>2021-08-10T15:10:27.937Z</time>
      </trkpt>
      <trkpt lat="46.88314" lon="8.54861">
        <ele>1388</ele>
        <time>2021-08-10T15:10:28.938Z</time>
      </trkpt>
      <trkpt lat="46.88314" lon="8.5486">
        <ele>1388</ele>
        <time>2021-08-10T15:10:29.938Z</time>
      </trkpt>
      <trkpt lat="46.88313" lon="8.5486">
        <ele>1389</ele>
        <time>2021-08-10T15:10:30.937Z</time>
      </trkpt>
      <trkpt lat="46.88313" lon="8.5486">
        <ele>1389</ele>
        <time>2021-08-10T15:10:31.938Z</time>
      </trkpt>
      <trkpt lat="46.88312" lon="8.5486">
        <ele>1389</ele>
        <time>2021-08-10T15:10:32.937Z</time>
      </trkpt>
      <trkpt lat="46.88311" lon="8.54859">
        <ele>1389</ele>
        <time>2021-08-10T15:10:33.938Z</time>
      </trkpt>
      <trkpt lat="46.8831" lon="8.54858">
        <ele>1389</ele>
        <time>2021-08-10T15:10:34.937Z</time>
      </trkpt>
      <trkpt lat="46.8831" lon="8.54859">
        <ele>1390</ele>
        <time>2021-08-10T15:10:35.938Z</time>
      </trkpt>
      <trkpt lat="46.8831" lon="8.54859">
        <ele>1391</ele>
        <time>2021-08-10T15:10:36.938Z</time>
      </trkpt>
      <trkpt lat="46.88309" lon="8.5486">
        <ele>1392</ele>
        <time>2021-08-10T15:10:37.937Z</time>
      </trkpt>
      <trkpt lat="46.88308" lon="8.5486">
        <ele>1393</ele>
        <time>2021-08-10T15:10:38.938Z</time>
      </trkpt>
      <trkpt lat="46.88308" lon="8.5486">
        <ele>1393</ele>
        <time>2021-08-10T15:10:39.938Z</time>
      </trkpt>
      <trkpt lat="46.88307" lon="8.5486">
        <ele>1394</ele>
        <time>2021-08-10T15:10:40.938Z</time>
      </trkpt>
      <trkpt lat="46.88306" lon="8.5486">
        <ele>1394</ele>
        <time>2021-08-10T15:10:41.938Z</time>
      </trkpt>
      <trkpt lat="46.88305" lon="8.5486">
        <ele>1395</ele>
        <time>2021-08-10T15:10:42.938Z</time>
      </trkpt>
      <trkpt lat="46.88305" lon="8.54859">
        <ele>1395</ele>
        <time>2021-08-10T15:10:43.938Z</time>
      </trkpt>
      <trkpt lat="46.88304" lon="8.54859">
        <ele>1395</ele>
        <time>2021-08-10T15:10:44.938Z</time>
      </trkpt>
      <trkpt lat="46.88304" lon="8.54858">
        <ele>1395</ele>
        <time>2021-08-10T15:10:45.938Z</time>
      </trkpt>
      <trkpt lat="46.88303" lon="8.54858">
        <ele>1395</ele>
        <time>2021-08-10T15:10:46.938Z</time>
      </trkpt>
      <trkpt lat="46.88303" lon="8.54857">
        <ele>1394</ele>
        <time>2021-08-10T15:10:47.937Z</time>
      </trkpt>
      <trkpt lat="46.88302" lon="8.54857">
        <ele>1394</ele>
        <time>2021-08-10T15:10:48.937Z</time>
      </trkpt>
      <trkpt lat="46.88302" lon="8.54856">
        <ele>1394</ele>
        <time>2021-08-10T15:10:49.938Z</time>
      </trkpt>
      <trkpt lat="46.88301" lon="8.54855">
        <ele>1394</ele>
        <time>2021-08-10T15:10:50.938Z</time>
      </trkpt>
      <trkpt lat="46.88301" lon="8.54855">
        <ele>1394</ele>
        <time>2021-08-10T15:10:51.938Z</time>
      </trkpt>
      <trkpt lat="46.88301" lon="8.54854">
        <ele>1394</ele>
        <time>2021-08-10T15:10:52.937Z</time>
      </trkpt>
      <trkpt lat="46.88302" lon="8.54855">
        <ele>1395</ele>
        <time>2021-08-10T15:10:53.938Z</time>
      </trkpt>
      <trkpt lat="46.88301" lon="8.54855">
        <ele>1395</ele>
        <time>2021-08-10T15:10:54.938Z</time>
      </trkpt>
      <trkpt lat="46.88301" lon="8.54856">
        <ele>1396</ele>
        <time>2021-08-10T15:10:55.938Z</time>
      </trkpt>
      <trkpt lat="46.88301" lon="8.54856">
        <ele>1397</ele>
        <time>2021-08-10T15:10:56.938Z</time>
      </trkpt>
      <trkpt lat="46.883" lon="8.54856">
        <ele>1397</ele>
        <time>2021-08-10T15:10:57.937Z</time>
      </trkpt>
      <trkpt lat="46.883" lon="8.54856">
        <ele>1398</ele>
        <time>2021-08-10T15:10:58.938Z</time>
      </trkpt>
      <trkpt lat="46.883" lon="8.54855">
        <ele>1399</ele>
        <time>2021-08-10T15:10:59.938Z</time>
      </trkpt>
      <trkpt lat="46.883" lon="8.54854">
        <ele>1399</ele>
        <time>2021-08-10T15:11:00.938Z</time>
      </trkpt>
      <trkpt lat="46.88299" lon="8.54854">
        <ele>1400</ele>
        <time>2021-08-10T15:11:01.938Z</time>
      </trkpt>
      <trkpt lat="46.88298" lon="8.54853">
        <ele>1400</ele>
        <time>2021-08-10T15:11:02.937Z</time>
      </trkpt>
      <trkpt lat="46.88297" lon="8.54853">
        <ele>1400</ele>
        <time>2021-08-10T15:11:03.938Z</time>
      </trkpt>
      <trkpt lat="46.88297" lon="8.54853">
        <ele>1401</ele>
        <time>2021-08-10T15:11:04.937Z</time>
      </trkpt>
      <trkpt lat="46.88297" lon="8.54852">
        <ele>1401</ele>
        <time>2021-08-10T15:11:05.937Z</time>
      </trkpt>
      <trkpt lat="46.88296" lon="8.54852">
        <ele>1401</ele>
        <time>2021-08-10T15:11:06.938Z</time>
      </trkpt>
      <trkpt lat="46.88296" lon="8.54851">
        <ele>1400</ele>
        <time>2021-08-10T15:11:07.938Z</time>
      </trkpt>
      <trkpt lat="46.88296" lon="8.5485">
        <ele>1400</ele>
        <time>2021-08-10T15:11:08.938Z</time>
      </trkpt>
      <trkpt lat="46.88295" lon="8.5485">
        <ele>1399</ele>
        <time>2021-08-10T15:11:09.938Z</time>
      </trkpt>
      <trkpt lat="46.88295" lon="8.5485">
        <ele>1399</ele>
        <time>2021-08-10T15:11:10.938Z</time>
      </trkpt>
      <trkpt lat="46.88294" lon="8.5485">
        <ele>1399</ele>
        <time>2021-08-10T15:11:11.937Z</time>
      </trkpt>
      <trkpt lat="46.88294" lon="8.54849">
        <ele>1399</ele>
        <time>2021-08-10T15:11:12.938Z</time>
      </trkpt>
      <trkpt lat="46.88294" lon="8.54849">
        <ele>1399</ele>
        <time>2021-08-10T15:11:13.938Z</time>
      </trkpt>
      <trkpt lat="46.88295" lon="8.5485">
        <ele>1399</ele>
        <time>2021-08-10T15:11:14.940Z</time>
      </trkpt>
      <trkpt lat="46.88295" lon="8.5485">
        <ele>1399</ele>
        <time>2021-08-10T15:11:15.940Z</time>
      </trkpt>
      <trkpt lat="46.88295" lon="8.5485">
        <ele>1399</ele>
        <time>2021-08-10T15:11:16.940Z</time>
      </trkpt>
      <trkpt lat="46.88295" lon="8.54849">
        <ele>1398</ele>
        <time>2021-08-10T15:11:17.940Z</time>
      </trkpt>
      <trkpt lat="46.88294" lon="8.54849">
        <ele>1398</ele>
        <time>2021-08-10T15:11:18.940Z</time>
      </trkpt>
      <trkpt lat="46.88293" lon="8.54848">
        <ele>1398</ele>
        <time>2021-08-10T15:11:19.939Z</time>
      </trkpt>
      <trkpt lat="46.88293" lon="8.54848">
        <ele>1398</ele>
        <time>2021-08-10T15:11:20.939Z</time>
      </trkpt>
      <trkpt lat="46.88292" lon="8.54848">
        <ele>1398</ele>
        <time>2021-08-10T15:11:21.940Z</time>
      </trkpt>
      <trkpt lat="46.88291" lon="8.54847">
        <ele>1398</ele>
        <time>2021-08-10T15:11:22.939Z</time>
      </trkpt>
      <trkpt lat="46.88291" lon="8.54846">
        <ele>1399</ele>
        <time>2021-08-10T15:11:23.940Z</time>
      </trkpt>
      <trkpt lat="46.88291" lon="8.54846">
        <ele>1399</ele>
        <time>2021-08-10T15:11:24.939Z</time>
      </trkpt>
      <trkpt lat="46.88291" lon="8.54845">
        <ele>1399</ele>
        <time>2021-08-10T15:11:25.939Z</time>
      </trkpt>
      <trkpt lat="46.8829" lon="8.54844">
        <ele>1400</ele>
        <time>2021-08-10T15:11:26.940Z</time>
      </trkpt>
      <trkpt lat="46.8829" lon="8.54843">
        <ele>1400</ele>
        <time>2021-08-10T15:11:27.940Z</time>
      </trkpt>
      <trkpt lat="46.88289" lon="8.54842">
        <ele>1400</ele>
        <time>2021-08-10T15:11:28.940Z</time>
      </trkpt>
      <trkpt lat="46.88289" lon="8.54841">
        <ele>1400</ele>
        <time>2021-08-10T15:11:29.939Z</time>
      </trkpt>
      <trkpt lat="46.88289" lon="8.5484">
        <ele>1401</ele>
        <time>2021-08-10T15:11:30.939Z</time>
      </trkpt>
      <trkpt lat="46.88289" lon="8.5484">
        <ele>1401</ele>
        <time>2021-08-10T15:11:31.939Z</time>
      </trkpt>
      <trkpt lat="46.8829" lon="8.54841">
        <ele>1401</ele>
        <time>2021-08-10T15:11:32.940Z</time>
      </trkpt>
      <trkpt lat="46.88289" lon="8.54841">
        <ele>1402</ele>
        <time>2021-08-10T15:11:33.940Z</time>
      </trkpt>
      <trkpt lat="46.88289" lon="8.54841">
        <ele>1402</ele>
        <time>2021-08-10T15:11:34.939Z</time>
      </trkpt>
      <trkpt lat="46.88288" lon="8.54842">
        <ele>1403</ele>
        <time>2021-08-10T15:11:35.940Z</time>
      </trkpt>
      <trkpt lat="46.88288" lon="8.54841">
        <ele>1403</ele>
        <time>2021-08-10T15:11:36.940Z</time>
      </trkpt>
      <trkpt lat="46.88288" lon="8.54842">
        <ele>1403</ele>
        <time>2021-08-10T15:11:37.940Z</time>
      </trkpt>
      <trkpt lat="46.88288" lon="8.54842">
        <ele>1403</ele>
        <time>2021-08-10T15:11:38.939Z</time>
      </trkpt>
      <trkpt lat="46.88287" lon="8.54842">
        <ele>1404</ele>
        <time>2021-08-10T15:11:39.940Z</time>
      </trkpt>
      <trkpt lat="46.88287" lon="8.54842">
        <ele>1404</ele>
        <time>2021-08-10T15:11:40.940Z</time>
      </trkpt>
      <trkpt lat="46.88286" lon="8.54841">
        <ele>1404</ele>
        <time>2021-08-10T15:11:41.939Z</time>
      </trkpt>
      <trkpt lat="46.88286" lon="8.54841">
        <ele>1404</ele>
        <time>2021-08-10T15:11:42.940Z</time>
      </trkpt>
      <trkpt lat="46.88286" lon="8.54841">
        <ele>1404</ele>
        <time>2021-08-10T15:11:43.939Z</time>
      </trkpt>
      <trkpt lat="46.88286" lon="8.5484">
        <ele>1404</ele>
        <time>2021-08-10T15:11:44.939Z</time>
      </trkpt>
      <trkpt lat="46.88285" lon="8.54838">
        <ele>1404</ele>
        <time>2021-08-10T15:11:45.939Z</time>
      </trkpt>
      <trkpt lat="46.88285" lon="8.54838">
        <ele>1404</ele>
        <time>2021-08-10T15:11:46.939Z</time>
      </trkpt>
      <trkpt lat="46.88285" lon="8.54837">
        <ele>1404</ele>
        <time>2021-08-10T15:11:47.939Z</time>
      </trkpt>
      <trkpt lat="46.88285" lon="8.54836">
        <ele>1404</ele>
        <time>2021-08-10T15:11:48.940Z</time>
      </trkpt>
      <trkpt lat="46.88284" lon="8.54835">
        <ele>1404</ele>
        <time>2021-08-10T15:11:49.939Z</time>
      </trkpt>
      <trkpt lat="46.88284" lon="8.54833">
        <ele>1405</ele>
        <time>2021-08-10T15:11:50.939Z</time>
      </trkpt>
      <trkpt lat="46.88282" lon="8.54832">
        <ele>1405</ele>
        <time>2021-08-10T15:11:51.940Z</time>
      </trkpt>
      <trkpt lat="46.88281" lon="8.54831">
        <ele>1405</ele>
        <time>2021-08-10T15:11:52.940Z</time>
      </trkpt>
      <trkpt lat="46.8828" lon="8.54831">
        <ele>1405</ele>
        <time>2021-08-10T15:11:53.940Z</time>
      </trkpt>
      <trkpt lat="46.88279" lon="8.54829">
        <ele>1405</ele>
        <time>2021-08-10T15:11:54.940Z</time>
      </trkpt>
      <trkpt lat="46.88279" lon="8.54829">
        <ele>1405</ele>
        <time>2021-08-10T15:11:55.940Z</time>
      </trkpt>
      <trkpt lat="46.88278" lon="8.54828">
        <ele>1404</ele>
        <time>2021-08-10T15:11:56.939Z</time>
      </trkpt>
      <trkpt lat="46.88279" lon="8.54827">
        <ele>1404</ele>
        <time>2021-08-10T15:11:57.939Z</time>
      </trkpt>
      <trkpt lat="46.88278" lon="8.54826">
        <ele>1404</ele>
        <time>2021-08-10T15:11:58.939Z</time>
      </trkpt>
      <trkpt lat="46.88277" lon="8.54826">
        <ele>1404</ele>
        <time>2021-08-10T15:11:59.940Z</time>
      </trkpt>
      <trkpt lat="46.88276" lon="8.54825">
        <ele>1404</ele>
        <time>2021-08-10T15:12:00.940Z</time>
      </trkpt>
      <trkpt lat="46.88276" lon="8.54825">
        <ele>1404</ele>
        <time>2021-08-10T15:12:01.940Z</time>
      </trkpt>
      <trkpt lat="46.88276" lon="8.54824">
        <ele>1404</ele>
        <time>2021-08-10T15:12:02.939Z</time>
      </trkpt>
      <trkpt lat="46.88277" lon="8.54824">
        <ele>1404</ele>
        <time>2021-08-10T15:12:03.939Z</time>
      </trkpt>
      <trkpt lat="46.88277" lon="8.54825">
        <ele>1404</ele>
        <time>2021-08-10T15:12:04.939Z</time>
      </trkpt>
      <trkpt lat="46.88276" lon="8.54824">
        <ele>1404</ele>
        <time>2021-08-10T15:12:05.940Z</time>
      </trkpt>
      <trkpt lat="46.88275" lon="8.54823">
        <ele>1404</ele>
        <time>2021-08-10T15:12:06.940Z</time>
      </trkpt>
      <trkpt lat="46.88275" lon="8.54822">
        <ele>1405</ele>
        <time>2021-08-10T15:12:07.939Z</time>
      </trkpt>
      <trkpt lat="46.88274" lon="8.54821">
        <ele>1405</ele>
        <time>2021-08-10T15:12:08.939Z</time>
      </trkpt>
      <trkpt lat="46.88274" lon="8.5482">
        <ele>1405</ele>
        <time>2021-08-10T15:12:09.939Z</time>
      </trkpt>
      <trkpt lat="46.88274" lon="8.54819">
        <ele>1406</ele>
        <time>2021-08-10T15:12:10.939Z</time>
      </trkpt>
      <trkpt lat="46.88274" lon="8.54818">
        <ele>1406</ele>
        <time>2021-08-10T15:12:11.940Z</time>
      </trkpt>
      <trkpt lat="46.88274" lon="8.54817">
        <ele>1406</ele>
        <time>2021-08-10T15:12:12.939Z</time>
      </trkpt>
      <trkpt lat="46.88274" lon="8.54817">
        <ele>1406</ele>
        <time>2021-08-10T15:12:13.939Z</time>
      </trkpt>
      <trkpt lat="46.88274" lon="8.54816">
        <ele>1406</ele>
        <time>2021-08-10T15:12:14.940Z</time>
      </trkpt>
      <trkpt lat="46.88274" lon="8.54815">
        <ele>1406</ele>
        <time>2021-08-10T15:12:15.939Z</time>
      </trkpt>
      <trkpt lat="46.88274" lon="8.54814">
        <ele>1405</ele>
        <time>2021-08-10T15:12:16.940Z</time>
      </trkpt>
      <trkpt lat="46.88273" lon="8.54813">
        <ele>1405</ele>
        <time>2021-08-10T15:12:17.940Z</time>
      </trkpt>
      <trkpt lat="46.88273" lon="8.54812">
        <ele>1405</ele>
        <time>2021-08-10T15:12:18.940Z</time>
      </trkpt>
      <trkpt lat="46.88272" lon="8.54811">
        <ele>1405</ele>
        <time>2021-08-10T15:12:19.940Z</time>
      </trkpt>
      <trkpt lat="46.88271" lon="8.5481">
        <ele>1405</ele>
        <time>2021-08-10T15:12:20.940Z</time>
      </trkpt>
      <trkpt lat="46.88271" lon="8.54809">
        <ele>1405</ele>
        <time>2021-08-10T15:12:21.940Z</time>
      </trkpt>
      <trkpt lat="46.88271" lon="8.5481">
        <ele>1405</ele>
        <time>2021-08-10T15:12:22.939Z</time>
      </trkpt>
      <trkpt lat="46.88271" lon="8.5481">
        <ele>1405</ele>
        <time>2021-08-10T15:12:23.940Z</time>
      </trkpt>
      <trkpt lat="46.88271" lon="8.54811">
        <ele>1405</ele>
        <time>2021-08-10T15:12:24.940Z</time>
      </trkpt>
      <trkpt lat="46.88271" lon="8.54812">
        <ele>1405</ele>
        <time>2021-08-10T15:12:25.939Z</time>
      </trkpt>
      <trkpt lat="46.88271" lon="8.54812">
        <ele>1405</ele>
        <time>2021-08-10T15:12:26.939Z</time>
      </trkpt>
      <trkpt lat="46.88271" lon="8.54813">
        <ele>1405</ele>
        <time>2021-08-10T15:12:27.939Z</time>
      </trkpt>
      <trkpt lat="46.88271" lon="8.54812">
        <ele>1406</ele>
        <time>2021-08-10T15:12:28.940Z</time>
      </trkpt>
      <trkpt lat="46.8827" lon="8.54812">
        <ele>1406</ele>
        <time>2021-08-10T15:12:29.941Z</time>
      </trkpt>
      <trkpt lat="46.8827" lon="8.54812">
        <ele>1406</ele>
        <time>2021-08-10T15:12:30.940Z</time>
      </trkpt>
      <trkpt lat="46.88271" lon="8.54813">
        <ele>1406</ele>
        <time>2021-08-10T15:12:31.941Z</time>
      </trkpt>
      <trkpt lat="46.88271" lon="8.54813">
        <ele>1406</ele>
        <time>2021-08-10T15:12:32.942Z</time>
      </trkpt>
      <trkpt lat="46.8827" lon="8.54815">
        <ele>1406</ele>
        <time>2021-08-10T15:12:33.942Z</time>
      </trkpt>
      <trkpt lat="46.8827" lon="8.54816">
        <ele>1406</ele>
        <time>2021-08-10T15:12:34.942Z</time>
      </trkpt>
      <trkpt lat="46.8827" lon="8.54816">
        <ele>1406</ele>
        <time>2021-08-10T15:12:35.941Z</time>
      </trkpt>
      <trkpt lat="46.8827" lon="8.54815">
        <ele>1406</ele>
        <time>2021-08-10T15:12:36.942Z</time>
      </trkpt>
      <trkpt lat="46.88269" lon="8.54816">
        <ele>1406</ele>
        <time>2021-08-10T15:12:37.941Z</time>
      </trkpt>
      <trkpt lat="46.88269" lon="8.54816">
        <ele>1406</ele>
        <time>2021-08-10T15:12:38.942Z</time>
      </trkpt>
      <trkpt lat="46.88268" lon="8.54816">
        <ele>1406</ele>
        <time>2021-08-10T15:12:39.942Z</time>
      </trkpt>
      <trkpt lat="46.88268" lon="8.54815">
        <ele>1406</ele>
        <time>2021-08-10T15:12:40.941Z</time>
      </trkpt>
      <trkpt lat="46.88269" lon="8.54816">
        <ele>1407</ele>
        <time>2021-08-10T15:12:41.942Z</time>
      </trkpt>
      <trkpt lat="46.88268" lon="8.54816">
        <ele>1407</ele>
        <time>2021-08-10T15:12:42.941Z</time>
      </trkpt>
      <trkpt lat="46.88268" lon="8.54817">
        <ele>1410</ele>
        <time>2021-08-10T15:12:43.941Z</time>
      </trkpt>
      <trkpt lat="46.88269" lon="8.54818">
        <ele>1410</ele>
        <time>2021-08-10T15:12:44.942Z</time>
      </trkpt>
      <trkpt lat="46.88269" lon="8.54818">
        <ele>1410</ele>
        <time>2021-08-10T15:12:45.942Z</time>
      </trkpt>
      <trkpt lat="46.8827" lon="8.5482">
        <ele>1410</ele>
        <time>2021-08-10T15:12:46.942Z</time>
      </trkpt>
      <trkpt lat="46.88272" lon="8.54822">
        <ele>1410</ele>
        <time>2021-08-10T15:12:47.943Z</time>
      </trkpt>
      <trkpt lat="46.88272" lon="8.54822">
        <ele>1410</ele>
        <time>2021-08-10T15:12:48.943Z</time>
      </trkpt>
      <trkpt lat="46.88273" lon="8.54821">
        <ele>1412</ele>
        <time>2021-08-10T15:12:49.943Z</time>
      </trkpt>
      <trkpt lat="46.88273" lon="8.5482">
        <ele>1412</ele>
        <time>2021-08-10T15:12:50.944Z</time>
      </trkpt>
      <trkpt lat="46.88273" lon="8.54819">
        <ele>1413</ele>
        <time>2021-08-10T15:12:51.943Z</time>
      </trkpt>
      <trkpt lat="46.88274" lon="8.5482">
        <ele>1414</ele>
        <time>2021-08-10T15:12:52.943Z</time>
      </trkpt>
      <trkpt lat="46.88274" lon="8.5482">
        <ele>1414</ele>
        <time>2021-08-10T15:12:53.943Z</time>
      </trkpt>
      <trkpt lat="46.88274" lon="8.54819">
        <ele>1417</ele>
        <time>2021-08-10T15:12:54.945Z</time>
      </trkpt>
      <trkpt lat="46.88274" lon="8.54818">
        <ele>1417</ele>
        <time>2021-08-10T15:12:55.944Z</time>
      </trkpt>
      <trkpt lat="46.88274" lon="8.54819">
        <ele>1418</ele>
        <time>2021-08-10T15:12:56.944Z</time>
      </trkpt>
      <trkpt lat="46.88274" lon="8.54818">
        <ele>1418</ele>
        <time>2021-08-10T15:12:57.945Z</time>
      </trkpt>
      <trkpt lat="46.88274" lon="8.54817">
        <ele>1418</ele>
        <time>2021-08-10T15:12:58.946Z</time>
      </trkpt>
      <trkpt lat="46.88274" lon="8.54818">
        <ele>1419</ele>
        <time>2021-08-10T15:12:59.945Z</time>
      </trkpt>
      <trkpt lat="46.88275" lon="8.54818">
        <ele>1419</ele>
        <time>2021-08-10T15:13:00.945Z</time>
      </trkpt>
      <trkpt lat="46.88271" lon="8.5482">
        <ele>1419</ele>
        <time>2021-08-10T15:13:01.946Z</time>
      </trkpt>
      <trkpt lat="46.88269" lon="8.5482">
        <ele>1419</ele>
        <time>2021-08-10T15:13:02.947Z</time>
      </trkpt>
      <trkpt lat="46.88269" lon="8.5482">
        <ele>1419</ele>
        <time>2021-08-10T15:13:03.946Z</time>
      </trkpt>
      <trkpt lat="46.88268" lon="8.5482">
        <ele>1419</ele>
        <time>2021-08-10T15:13:04.947Z</time>
      </trkpt>
      <trkpt lat="46.88268" lon="8.5482">
        <ele>1418</ele>
        <time>2021-08-10T15:13:05.946Z</time>
      </trkpt>
      <trkpt lat="46.88267" lon="8.54818">
        <ele>1416</ele>
        <time>2021-08-10T15:13:06.947Z</time>
      </trkpt>
      <trkpt lat="46.88267" lon="8.54818">
        <ele>1416</ele>
        <time>2021-08-10T15:13:07.947Z</time>
      </trkpt>
      <trkpt lat="46.88267" lon="8.54817">
        <ele>1415</ele>
        <time>2021-08-10T15:13:08.947Z</time>
      </trkpt>
      <trkpt lat="46.8827" lon="8.5482">
        <ele>1405</ele>
        <time>2021-08-10T15:13:09.947Z</time>
      </trkpt>
      <trkpt lat="46.8827" lon="8.5482">
        <ele>1406</ele>
        <time>2021-08-10T15:13:10.946Z</time>
      </trkpt>
      <trkpt lat="46.8827" lon="8.54819">
        <ele>1406</ele>
        <time>2021-08-10T15:13:11.947Z</time>
      </trkpt>
      <trkpt lat="46.8827" lon="8.54819">
        <ele>1406</ele>
        <time>2021-08-10T15:13:12.947Z</time>
      </trkpt>
      <trkpt lat="46.88271" lon="8.54819">
        <ele>1407</ele>
        <time>2021-08-10T15:13:13.946Z</time>
      </trkpt>
      <trkpt lat="46.88271" lon="8.54819">
        <ele>1407</ele>
        <time>2021-08-10T15:13:14.946Z</time>
      </trkpt>
      <trkpt lat="46.88271" lon="8.54819">
        <ele>1407</ele>
        <time>2021-08-10T15:13:15.946Z</time>
      </trkpt>
      <trkpt lat="46.88271" lon="8.54819">
        <ele>1407</ele>
        <time>2021-08-10T15:13:16.946Z</time>
      </trkpt>
      <trkpt lat="46.88271" lon="8.54819">
        <ele>1407</ele>
        <time>2021-08-10T15:13:17.946Z</time>
      </trkpt>
      <trkpt lat="46.88271" lon="8.54819">
        <ele>1407</ele>
        <time>2021-08-10T15:13:18.947Z</time>
      </trkpt>
      <trkpt lat="46.88271" lon="8.54819">
        <ele>1406</ele>
        <time>2021-08-10T15:13:19.946Z</time>
      </trkpt>
      <trkpt lat="46.8827" lon="8.54819">
        <ele>1405</ele>
        <time>2021-08-10T15:13:20.947Z</time>
      </trkpt>
      <trkpt lat="46.8827" lon="8.54819">
        <ele>1405</ele>
        <time>2021-08-10T15:13:21.946Z</time>
      </trkpt>
      <trkpt lat="46.8827" lon="8.54818">
        <ele>1404</ele>
        <time>2021-08-10T15:13:22.946Z</time>
      </trkpt>
      <trkpt lat="46.88271" lon="8.54818">
        <ele>1403</ele>
        <time>2021-08-10T15:13:23.947Z</time>
      </trkpt>
      <trkpt lat="46.88271" lon="8.54818">
        <ele>1403</ele>
        <time>2021-08-10T15:13:24.947Z</time>
      </trkpt>
      <trkpt lat="46.88271" lon="8.5482">
        <ele>1406</ele>
        <time>2021-08-10T15:13:25.947Z</time>
      </trkpt>
      <trkpt lat="46.88269" lon="8.54819">
        <ele>1406</ele>
        <time>2021-08-10T15:13:26.946Z</time>
      </trkpt>
      <trkpt lat="46.88268" lon="8.54817">
        <ele>1411</ele>
        <time>2021-08-10T15:13:27.947Z</time>
      </trkpt>
      <trkpt lat="46.88275" lon="8.54822">
        <ele>1414</ele>
        <time>2021-08-10T15:13:28.947Z</time>
      </trkpt>
      <trkpt lat="46.88275" lon="8.54822">
        <ele>1414</ele>
        <time>2021-08-10T15:13:29.947Z</time>
      </trkpt>
      <trkpt lat="46.88275" lon="8.54822">
        <ele>1414</ele>
        <time>2021-08-10T15:13:30.946Z</time>
      </trkpt>
      <trkpt lat="46.88271" lon="8.5482">
        <ele>1415</ele>
        <time>2021-08-10T15:13:31.947Z</time>
      </trkpt>
      <trkpt lat="46.88271" lon="8.5482">
        <ele>1415</ele>
        <time>2021-08-10T15:13:32.947Z</time>
      </trkpt>
      <trkpt lat="46.88271" lon="8.54819">
        <ele>1415</ele>
        <time>2021-08-10T15:13:33.946Z</time>
      </trkpt>
      <trkpt lat="46.88268" lon="8.54818">
        <ele>1411</ele>
        <time>2021-08-10T15:13:34.946Z</time>
      </trkpt>
      <trkpt lat="46.88268" lon="8.54818">
        <ele>1411</ele>
        <time>2021-08-10T15:13:35.946Z</time>
      </trkpt>
      <trkpt lat="46.88267" lon="8.54818">
        <ele>1411</ele>
        <time>2021-08-10T15:13:36.946Z</time>
      </trkpt>
      <trkpt lat="46.88266" lon="8.54817">
        <ele>1411</ele>
        <time>2021-08-10T15:13:37.946Z</time>
      </trkpt>
      <trkpt lat="46.88265" lon="8.54818">
        <ele>1411</ele>
        <time>2021-08-10T15:13:38.946Z</time>
      </trkpt>
      <trkpt lat="46.88265" lon="8.54818">
        <ele>1411</ele>
        <time>2021-08-10T15:13:39.947Z</time>
      </trkpt>
      <trkpt lat="46.88264" lon="8.54818">
        <ele>1411</ele>
        <time>2021-08-10T15:13:40.946Z</time>
      </trkpt>
      <trkpt lat="46.88264" lon="8.54818">
        <ele>1411</ele>
        <time>2021-08-10T15:13:41.947Z</time>
      </trkpt>
      <trkpt lat="46.88264" lon="8.54818">
        <ele>1411</ele>
        <time>2021-08-10T15:13:42.947Z</time>
      </trkpt>
      <trkpt lat="46.88263" lon="8.54818">
        <ele>1411</ele>
        <time>2021-08-10T15:13:43.947Z</time>
      </trkpt>
      <trkpt lat="46.88262" lon="8.54817">
        <ele>1411</ele>
        <time>2021-08-10T15:13:44.947Z</time>
      </trkpt>
      <trkpt lat="46.88261" lon="8.54817">
        <ele>1411</ele>
        <time>2021-08-10T15:13:45.946Z</time>
      </trkpt>
      <trkpt lat="46.88261" lon="8.54817">
        <ele>1411</ele>
        <time>2021-08-10T15:13:46.946Z</time>
      </trkpt>
      <trkpt lat="46.8826" lon="8.54816">
        <ele>1410</ele>
        <time>2021-08-10T15:13:47.947Z</time>
      </trkpt>
      <trkpt lat="46.8826" lon="8.54816">
        <ele>1410</ele>
        <time>2021-08-10T15:13:48.947Z</time>
      </trkpt>
      <trkpt lat="46.8826" lon="8.54816">
        <ele>1411</ele>
        <time>2021-08-10T15:13:49.946Z</time>
      </trkpt>
      <trkpt lat="46.88259" lon="8.54815">
        <ele>1414</ele>
        <time>2021-08-10T15:13:50.946Z</time>
      </trkpt>
      <trkpt lat="46.88259" lon="8.54815">
        <ele>1415</ele>
        <time>2021-08-10T15:13:51.947Z</time>
      </trkpt>
      <trkpt lat="46.88258" lon="8.54815">
        <ele>1415</ele>
        <time>2021-08-10T15:13:52.946Z</time>
      </trkpt>
      <trkpt lat="46.88258" lon="8.54814">
        <ele>1416</ele>
        <time>2021-08-10T15:13:53.947Z</time>
      </trkpt>
      <trkpt lat="46.88258" lon="8.54813">
        <ele>1415</ele>
        <time>2021-08-10T15:13:54.947Z</time>
      </trkpt>
      <trkpt lat="46.88258" lon="8.54814">
        <ele>1416</ele>
        <time>2021-08-10T15:13:55.947Z</time>
      </trkpt>
      <trkpt lat="46.88257" lon="8.54813">
        <ele>1416</ele>
        <time>2021-08-10T15:13:56.947Z</time>
      </trkpt>
      <trkpt lat="46.88257" lon="8.54813">
        <ele>1417</ele>
        <time>2021-08-10T15:13:57.947Z</time>
      </trkpt>
      <trkpt lat="46.88256" lon="8.54813">
        <ele>1417</ele>
        <time>2021-08-10T15:13:58.946Z</time>
      </trkpt>
      <trkpt lat="46.88256" lon="8.54813">
        <ele>1417</ele>
        <time>2021-08-10T15:13:59.946Z</time>
      </trkpt>
      <trkpt lat="46.88255" lon="8.54812">
        <ele>1417</ele>
        <time>2021-08-10T15:14:00.946Z</time>
      </trkpt>
      <trkpt lat="46.88255" lon="8.54812">
        <ele>1417</ele>
        <time>2021-08-10T15:14:01.946Z</time>
      </trkpt>
      <trkpt lat="46.88254" lon="8.54812">
        <ele>1417</ele>
        <time>2021-08-10T15:14:02.946Z</time>
      </trkpt>
      <trkpt lat="46.88254" lon="8.54812">
        <ele>1416</ele>
        <time>2021-08-10T15:14:03.947Z</time>
      </trkpt>
      <trkpt lat="46.88254" lon="8.54811">
        <ele>1416</ele>
        <time>2021-08-10T15:14:04.947Z</time>
      </trkpt>
      <trkpt lat="46.88254" lon="8.54811">
        <ele>1416</ele>
        <time>2021-08-10T15:14:05.946Z</time>
      </trkpt>
      <trkpt lat="46.88253" lon="8.5481">
        <ele>1416</ele>
        <time>2021-08-10T15:14:06.946Z</time>
      </trkpt>
      <trkpt lat="46.88253" lon="8.5481">
        <ele>1416</ele>
        <time>2021-08-10T15:14:07.946Z</time>
      </trkpt>
      <trkpt lat="46.88253" lon="8.5481">
        <ele>1416</ele>
        <time>2021-08-10T15:14:08.946Z</time>
      </trkpt>
      <trkpt lat="46.88253" lon="8.54809">
        <ele>1416</ele>
        <time>2021-08-10T15:14:09.946Z</time>
      </trkpt>
      <trkpt lat="46.88252" lon="8.54809">
        <ele>1416</ele>
        <time>2021-08-10T15:14:10.946Z</time>
      </trkpt>
      <trkpt lat="46.88252" lon="8.54808">
        <ele>1416</ele>
        <time>2021-08-10T15:14:25.065Z</time>
      </trkpt>
      <trkpt lat="46.88252" lon="8.54808">
        <ele>1417</ele>
        <time>2021-08-10T15:14:26.064Z</time>
      </trkpt>
      <trkpt lat="46.88252" lon="8.54807">
        <ele>1417</ele>
        <time>2021-08-10T15:14:51.972Z</time>
      </trkpt>
      <trkpt lat="46.88251" lon="8.54807">
        <ele>1417</ele>
        <time>2021-08-10T15:14:52.971Z</time>
      </trkpt>
      <trkpt lat="46.88251" lon="8.54807">
        <ele>1417</ele>
        <time>2021-08-10T15:14:53.971Z</time>
      </trkpt>
      <trkpt lat="46.8825" lon="8.54806">
        <ele>1417</ele>
        <time>2021-08-10T15:15:13.859Z</time>
      </trkpt>
      <trkpt lat="46.88249" lon="8.54806">
        <ele>1417</ele>
        <time>2021-08-10T15:15:14.858Z</time>
      </trkpt>
      <trkpt lat="46.88249" lon="8.54805">
        <ele>1417</ele>
        <time>2021-08-10T15:15:15.858Z</time>
      </trkpt>
      <trkpt lat="46.88249" lon="8.54805">
        <ele>1417</ele>
        <time>2021-08-10T15:15:16.858Z</time>
      </trkpt>
      <trkpt lat="46.88248" lon="8.54805">
        <ele>1417</ele>
        <time>2021-08-10T15:15:17.858Z</time>
      </trkpt>
      <trkpt lat="46.88248" lon="8.54804">
        <ele>1417</ele>
        <time>2021-08-10T15:15:18.859Z</time>
      </trkpt>
      <trkpt lat="46.88248" lon="8.54804">
        <ele>1417</ele>
        <time>2021-08-10T15:15:19.858Z</time>
      </trkpt>
      <trkpt lat="46.88248" lon="8.54803">
        <ele>1418</ele>
        <time>2021-08-10T15:15:20.858Z</time>
      </trkpt>
      <trkpt lat="46.88248" lon="8.54803">
        <ele>1418</ele>
        <time>2021-08-10T15:15:21.858Z</time>
      </trkpt>
      <trkpt lat="46.88248" lon="8.54802">
        <ele>1417</ele>
        <time>2021-08-10T15:15:22.859Z</time>
      </trkpt>
      <trkpt lat="46.88247" lon="8.54801">
        <ele>1417</ele>
        <time>2021-08-10T15:15:23.858Z</time>
      </trkpt>
      <trkpt lat="46.88247" lon="8.54801">
        <ele>1416</ele>
        <time>2021-08-10T15:15:24.858Z</time>
      </trkpt>
      <trkpt lat="46.88246" lon="8.54801">
        <ele>1416</ele>
        <time>2021-08-10T15:15:25.858Z</time>
      </trkpt>
      <trkpt lat="46.88246" lon="8.54801">
        <ele>1416</ele>
        <time>2021-08-10T15:15:26.858Z</time>
      </trkpt>
      <trkpt lat="46.88245" lon="8.54801">
        <ele>1415</ele>
        <time>2021-08-10T15:15:27.858Z</time>
      </trkpt>
      <trkpt lat="46.88244" lon="8.54802">
        <ele>1415</ele>
        <time>2021-08-10T15:15:28.859Z</time>
      </trkpt>
      <trkpt lat="46.88244" lon="8.54802">
        <ele>1415</ele>
        <time>2021-08-10T15:15:29.858Z</time>
      </trkpt>
      <trkpt lat="46.88244" lon="8.54802">
        <ele>1414</ele>
        <time>2021-08-10T15:15:30.858Z</time>
      </trkpt>
      <trkpt lat="46.88243" lon="8.54802">
        <ele>1414</ele>
        <time>2021-08-10T15:15:31.858Z</time>
      </trkpt>
      <trkpt lat="46.88243" lon="8.54801">
        <ele>1414</ele>
        <time>2021-08-10T15:15:32.858Z</time>
      </trkpt>
      <trkpt lat="46.88243" lon="8.54801">
        <ele>1413</ele>
        <time>2021-08-10T15:15:33.859Z</time>
      </trkpt>
      <trkpt lat="46.88242" lon="8.548">
        <ele>1413</ele>
        <time>2021-08-10T15:15:43.865Z</time>
      </trkpt>
      <trkpt lat="46.88242" lon="8.548">
        <ele>1413</ele>
        <time>2021-08-10T15:15:44.865Z</time>
      </trkpt>
      <trkpt lat="46.88242" lon="8.54799">
        <ele>1413</ele>
        <time>2021-08-10T15:15:45.865Z</time>
      </trkpt>
      <trkpt lat="46.88239" lon="8.54796">
        <ele>1414</ele>
        <time>2021-08-10T15:15:46.868Z</time>
      </trkpt>
      <trkpt lat="46.88239" lon="8.54796">
        <ele>1413</ele>
        <time>2021-08-10T15:15:47.868Z</time>
      </trkpt>
      <trkpt lat="46.88239" lon="8.54795">
        <ele>1413</ele>
        <time>2021-08-10T15:15:48.868Z</time>
      </trkpt>
      <trkpt lat="46.88238" lon="8.54795">
        <ele>1413</ele>
        <time>2021-08-10T15:15:49.868Z</time>
      </trkpt>
      <trkpt lat="46.88238" lon="8.54794">
        <ele>1413</ele>
        <time>2021-08-10T15:15:50.867Z</time>
      </trkpt>
      <trkpt lat="46.88238" lon="8.54794">
        <ele>1413</ele>
        <time>2021-08-10T15:15:51.867Z</time>
      </trkpt>
      <trkpt lat="46.88238" lon="8.54794">
        <ele>1413</ele>
        <time>2021-08-10T15:15:52.868Z</time>
      </trkpt>
      <trkpt lat="46.88237" lon="8.54794">
        <ele>1413</ele>
        <time>2021-08-10T15:15:53.867Z</time>
      </trkpt>
      <trkpt lat="46.88236" lon="8.54793">
        <ele>1413</ele>
        <time>2021-08-10T15:15:54.867Z</time>
      </trkpt>
      <trkpt lat="46.88236" lon="8.54793">
        <ele>1413</ele>
        <time>2021-08-10T15:15:55.867Z</time>
      </trkpt>
      <trkpt lat="46.88236" lon="8.54792">
        <ele>1414</ele>
        <time>2021-08-10T15:15:56.868Z</time>
      </trkpt>
      <trkpt lat="46.88236" lon="8.54792">
        <ele>1414</ele>
        <time>2021-08-10T15:15:57.867Z</time>
      </trkpt>
      <trkpt lat="46.88235" lon="8.54792">
        <ele>1415</ele>
        <time>2021-08-10T15:15:58.867Z</time>
      </trkpt>
      <trkpt lat="46.88235" lon="8.54791">
        <ele>1415</ele>
        <time>2021-08-10T15:15:59.868Z</time>
      </trkpt>
      <trkpt lat="46.88235" lon="8.5479">
        <ele>1415</ele>
        <time>2021-08-10T15:16:00.867Z</time>
      </trkpt>
      <trkpt lat="46.88234" lon="8.5479">
        <ele>1415</ele>
        <time>2021-08-10T15:16:01.868Z</time>
      </trkpt>
      <trkpt lat="46.88233" lon="8.5479">
        <ele>1415</ele>
        <time>2021-08-10T15:16:02.867Z</time>
      </trkpt>
      <trkpt lat="46.88233" lon="8.5479">
        <ele>1416</ele>
        <time>2021-08-10T15:16:03.867Z</time>
      </trkpt>
      <trkpt lat="46.88232" lon="8.54791">
        <ele>1416</ele>
        <time>2021-08-10T15:16:04.867Z</time>
      </trkpt>
      <trkpt lat="46.88231" lon="8.54791">
        <ele>1417</ele>
        <time>2021-08-10T15:16:05.868Z</time>
      </trkpt>
      <trkpt lat="46.8823" lon="8.54791">
        <ele>1417</ele>
        <time>2021-08-10T15:16:06.867Z</time>
      </trkpt>
      <trkpt lat="46.8823" lon="8.54792">
        <ele>1418</ele>
        <time>2021-08-10T15:16:07.868Z</time>
      </trkpt>
      <trkpt lat="46.8823" lon="8.54792">
        <ele>1419</ele>
        <time>2021-08-10T15:16:08.868Z</time>
      </trkpt>
      <trkpt lat="46.88229" lon="8.54792">
        <ele>1419</ele>
        <time>2021-08-10T15:16:09.868Z</time>
      </trkpt>
      <trkpt lat="46.88229" lon="8.54792">
        <ele>1420</ele>
        <time>2021-08-10T15:16:10.867Z</time>
      </trkpt>
      <trkpt lat="46.88228" lon="8.54792">
        <ele>1420</ele>
        <time>2021-08-10T15:16:11.868Z</time>
      </trkpt>
      <trkpt lat="46.88228" lon="8.54792">
        <ele>1421</ele>
        <time>2021-08-10T15:16:12.867Z</time>
      </trkpt>
      <trkpt lat="46.88227" lon="8.54792">
        <ele>1422</ele>
        <time>2021-08-10T15:16:13.868Z</time>
      </trkpt>
      <trkpt lat="46.88227" lon="8.54792">
        <ele>1422</ele>
        <time>2021-08-10T15:16:14.868Z</time>
      </trkpt>
      <trkpt lat="46.88226" lon="8.54791">
        <ele>1423</ele>
        <time>2021-08-10T15:16:15.868Z</time>
      </trkpt>
      <trkpt lat="46.88226" lon="8.54791">
        <ele>1423</ele>
        <time>2021-08-10T15:16:16.867Z</time>
      </trkpt>
      <trkpt lat="46.88225" lon="8.54791">
        <ele>1423</ele>
        <time>2021-08-10T15:16:17.868Z</time>
      </trkpt>
      <trkpt lat="46.88225" lon="8.54791">
        <ele>1423</ele>
        <time>2021-08-10T15:16:18.868Z</time>
      </trkpt>
      <trkpt lat="46.88224" lon="8.5479">
        <ele>1423</ele>
        <time>2021-08-10T15:16:19.867Z</time>
      </trkpt>
      <trkpt lat="46.88224" lon="8.5479">
        <ele>1423</ele>
        <time>2021-08-10T15:16:20.868Z</time>
      </trkpt>
      <trkpt lat="46.88223" lon="8.5479">
        <ele>1422</ele>
        <time>2021-08-10T15:16:21.868Z</time>
      </trkpt>
      <trkpt lat="46.88223" lon="8.54789">
        <ele>1422</ele>
        <time>2021-08-10T15:16:22.868Z</time>
      </trkpt>
      <trkpt lat="46.88223" lon="8.54789">
        <ele>1422</ele>
        <time>2021-08-10T15:16:23.867Z</time>
      </trkpt>
      <trkpt lat="46.88222" lon="8.54789">
        <ele>1421</ele>
        <time>2021-08-10T15:16:24.868Z</time>
      </trkpt>
      <trkpt lat="46.88222" lon="8.54789">
        <ele>1421</ele>
        <time>2021-08-10T15:16:25.868Z</time>
      </trkpt>
      <trkpt lat="46.88221" lon="8.54788">
        <ele>1422</ele>
        <time>2021-08-10T15:16:26.868Z</time>
      </trkpt>
      <trkpt lat="46.8822" lon="8.54788">
        <ele>1422</ele>
        <time>2021-08-10T15:16:27.868Z</time>
      </trkpt>
      <trkpt lat="46.8822" lon="8.54788">
        <ele>1422</ele>
        <time>2021-08-10T15:16:28.867Z</time>
      </trkpt>
      <trkpt lat="46.88219" lon="8.54788">
        <ele>1423</ele>
        <time>2021-08-10T15:16:29.868Z</time>
      </trkpt>
      <trkpt lat="46.88219" lon="8.54787">
        <ele>1423</ele>
        <time>2021-08-10T15:16:30.868Z</time>
      </trkpt>
      <trkpt lat="46.88218" lon="8.54787">
        <ele>1423</ele>
        <time>2021-08-10T15:16:31.868Z</time>
      </trkpt>
      <trkpt lat="46.88218" lon="8.54787">
        <ele>1424</ele>
        <time>2021-08-10T15:16:32.867Z</time>
      </trkpt>
      <trkpt lat="46.88217" lon="8.54787">
        <ele>1424</ele>
        <time>2021-08-10T15:16:33.868Z</time>
      </trkpt>
      <trkpt lat="46.88216" lon="8.54787">
        <ele>1425</ele>
        <time>2021-08-10T15:16:34.868Z</time>
      </trkpt>
      <trkpt lat="46.88216" lon="8.54787">
        <ele>1426</ele>
        <time>2021-08-10T15:16:35.868Z</time>
      </trkpt>
      <trkpt lat="46.88215" lon="8.54786">
        <ele>1426</ele>
        <time>2021-08-10T15:16:36.867Z</time>
      </trkpt>
      <trkpt lat="46.88215" lon="8.54786">
        <ele>1426</ele>
        <time>2021-08-10T15:16:37.868Z</time>
      </trkpt>
      <trkpt lat="46.88215" lon="8.54786">
        <ele>1426</ele>
        <time>2021-08-10T15:16:38.868Z</time>
      </trkpt>
      <trkpt lat="46.88214" lon="8.54786">
        <ele>1427</ele>
        <time>2021-08-10T15:16:39.868Z</time>
      </trkpt>
      <trkpt lat="46.88214" lon="8.54785">
        <ele>1427</ele>
        <time>2021-08-10T15:16:40.868Z</time>
      </trkpt>
      <trkpt lat="46.88213" lon="8.54785">
        <ele>1426</ele>
        <time>2021-08-10T15:16:41.867Z</time>
      </trkpt>
      <trkpt lat="46.88213" lon="8.54785">
        <ele>1426</ele>
        <time>2021-08-10T15:16:42.868Z</time>
      </trkpt>
      <trkpt lat="46.88213" lon="8.54785">
        <ele>1426</ele>
        <time>2021-08-10T15:16:43.867Z</time>
      </trkpt>
      <trkpt lat="46.88212" lon="8.54784">
        <ele>1425</ele>
        <time>2021-08-10T15:16:44.867Z</time>
      </trkpt>
      <trkpt lat="46.88212" lon="8.54784">
        <ele>1425</ele>
        <time>2021-08-10T15:16:45.867Z</time>
      </trkpt>
      <trkpt lat="46.88212" lon="8.54784">
        <ele>1425</ele>
        <time>2021-08-10T15:16:46.867Z</time>
      </trkpt>
      <trkpt lat="46.88211" lon="8.54783">
        <ele>1425</ele>
        <time>2021-08-10T15:16:47.867Z</time>
      </trkpt>
      <trkpt lat="46.88211" lon="8.54783">
        <ele>1425</ele>
        <time>2021-08-10T15:16:48.867Z</time>
      </trkpt>
      <trkpt lat="46.88211" lon="8.54782">
        <ele>1425</ele>
        <time>2021-08-10T15:16:49.867Z</time>
      </trkpt>
      <trkpt lat="46.8821" lon="8.54782">
        <ele>1425</ele>
        <time>2021-08-10T15:16:50.868Z</time>
      </trkpt>
      <trkpt lat="46.88209" lon="8.54781">
        <ele>1425</ele>
        <time>2021-08-10T15:16:51.867Z</time>
      </trkpt>
      <trkpt lat="46.88209" lon="8.54781">
        <ele>1425</ele>
        <time>2021-08-10T15:16:52.867Z</time>
      </trkpt>
      <trkpt lat="46.88209" lon="8.54781">
        <ele>1425</ele>
        <time>2021-08-10T15:16:53.867Z</time>
      </trkpt>
      <trkpt lat="46.88208" lon="8.5478">
        <ele>1425</ele>
        <time>2021-08-10T15:16:54.867Z</time>
      </trkpt>
      <trkpt lat="46.88207" lon="8.54779">
        <ele>1425</ele>
        <time>2021-08-10T15:16:55.867Z</time>
      </trkpt>
      <trkpt lat="46.88207" lon="8.54778">
        <ele>1425</ele>
        <time>2021-08-10T15:16:56.867Z</time>
      </trkpt>
      <trkpt lat="46.88206" lon="8.54777">
        <ele>1425</ele>
        <time>2021-08-10T15:16:57.867Z</time>
      </trkpt>
      <trkpt lat="46.88206" lon="8.54777">
        <ele>1425</ele>
        <time>2021-08-10T15:16:58.867Z</time>
      </trkpt>
      <trkpt lat="46.88206" lon="8.54776">
        <ele>1426</ele>
        <time>2021-08-10T15:16:59.867Z</time>
      </trkpt>
      <trkpt lat="46.88206" lon="8.54775">
        <ele>1426</ele>
        <time>2021-08-10T15:17:00.867Z</time>
      </trkpt>
      <trkpt lat="46.88206" lon="8.54774">
        <ele>1426</ele>
        <time>2021-08-10T15:17:01.867Z</time>
      </trkpt>
      <trkpt lat="46.88206" lon="8.54774">
        <ele>1427</ele>
        <time>2021-08-10T15:17:02.867Z</time>
      </trkpt>
      <trkpt lat="46.88206" lon="8.54774">
        <ele>1427</ele>
        <time>2021-08-10T15:17:03.867Z</time>
      </trkpt>
      <trkpt lat="46.88206" lon="8.54773">
        <ele>1427</ele>
        <time>2021-08-10T15:17:04.867Z</time>
      </trkpt>
      <trkpt lat="46.88206" lon="8.54773">
        <ele>1427</ele>
        <time>2021-08-10T15:17:05.867Z</time>
      </trkpt>
      <trkpt lat="46.88207" lon="8.54772">
        <ele>1427</ele>
        <time>2021-08-10T15:17:06.867Z</time>
      </trkpt>
      <trkpt lat="46.88207" lon="8.54771">
        <ele>1427</ele>
        <time>2021-08-10T15:17:07.867Z</time>
      </trkpt>
      <trkpt lat="46.88207" lon="8.54771">
        <ele>1428</ele>
        <time>2021-08-10T15:17:08.867Z</time>
      </trkpt>
      <trkpt lat="46.88207" lon="8.5477">
        <ele>1428</ele>
        <time>2021-08-10T15:17:09.867Z</time>
      </trkpt>
      <trkpt lat="46.88207" lon="8.5477">
        <ele>1429</ele>
        <time>2021-08-10T15:17:10.867Z</time>
      </trkpt>
      <trkpt lat="46.88206" lon="8.54769">
        <ele>1429</ele>
        <time>2021-08-10T15:17:11.867Z</time>
      </trkpt>
      <trkpt lat="46.88206" lon="8.54769">
        <ele>1430</ele>
        <time>2021-08-10T15:17:12.867Z</time>
      </trkpt>
      <trkpt lat="46.88206" lon="8.54768">
        <ele>1430</ele>
        <time>2021-08-10T15:17:13.867Z</time>
      </trkpt>
      <trkpt lat="46.88207" lon="8.54767">
        <ele>1431</ele>
        <time>2021-08-10T15:17:14.867Z</time>
      </trkpt>
      <trkpt lat="46.88207" lon="8.54767">
        <ele>1431</ele>
        <time>2021-08-10T15:17:15.867Z</time>
      </trkpt>
      <trkpt lat="46.88206" lon="8.54766">
        <ele>1431</ele>
        <time>2021-08-10T15:17:16.867Z</time>
      </trkpt>
      <trkpt lat="46.88206" lon="8.54765">
        <ele>1430</ele>
        <time>2021-08-10T15:17:17.868Z</time>
      </trkpt>
      <trkpt lat="46.88206" lon="8.54764">
        <ele>1430</ele>
        <time>2021-08-10T15:17:18.868Z</time>
      </trkpt>
      <trkpt lat="46.88206" lon="8.54763">
        <ele>1429</ele>
        <time>2021-08-10T15:17:19.867Z</time>
      </trkpt>
      <trkpt lat="46.88206" lon="8.54763">
        <ele>1429</ele>
        <time>2021-08-10T15:17:20.867Z</time>
      </trkpt>
      <trkpt lat="46.88206" lon="8.54762">
        <ele>1430</ele>
        <time>2021-08-10T15:17:21.867Z</time>
      </trkpt>
      <trkpt lat="46.88206" lon="8.54761">
        <ele>1430</ele>
        <time>2021-08-10T15:17:22.868Z</time>
      </trkpt>
      <trkpt lat="46.88206" lon="8.54761">
        <ele>1430</ele>
        <time>2021-08-10T15:17:23.868Z</time>
      </trkpt>
      <trkpt lat="46.88206" lon="8.5476">
        <ele>1430</ele>
        <time>2021-08-10T15:17:24.868Z</time>
      </trkpt>
      <trkpt lat="46.88206" lon="8.54759">
        <ele>1429</ele>
        <time>2021-08-10T15:17:25.868Z</time>
      </trkpt>
      <trkpt lat="46.88206" lon="8.54758">
        <ele>1429</ele>
        <time>2021-08-10T15:17:26.868Z</time>
      </trkpt>
      <trkpt lat="46.88205" lon="8.54758">
        <ele>1430</ele>
        <time>2021-08-10T15:17:27.868Z</time>
      </trkpt>
      <trkpt lat="46.88206" lon="8.54757">
        <ele>1430</ele>
        <time>2021-08-10T15:17:28.868Z</time>
      </trkpt>
      <trkpt lat="46.88206" lon="8.54756">
        <ele>1430</ele>
        <time>2021-08-10T15:17:29.867Z</time>
      </trkpt>
      <trkpt lat="46.88206" lon="8.54756">
        <ele>1431</ele>
        <time>2021-08-10T15:17:30.868Z</time>
      </trkpt>
      <trkpt lat="46.88206" lon="8.54756">
        <ele>1431</ele>
        <time>2021-08-10T15:17:31.868Z</time>
      </trkpt>
      <trkpt lat="46.88206" lon="8.54756">
        <ele>1432</ele>
        <time>2021-08-10T15:17:32.868Z</time>
      </trkpt>
      <trkpt lat="46.88207" lon="8.54757">
        <ele>1432</ele>
        <time>2021-08-10T15:17:33.867Z</time>
      </trkpt>
      <trkpt lat="46.88208" lon="8.54757">
        <ele>1432</ele>
        <time>2021-08-10T15:17:34.868Z</time>
      </trkpt>
      <trkpt lat="46.88208" lon="8.54757">
        <ele>1432</ele>
        <time>2021-08-10T15:17:35.868Z</time>
      </trkpt>
      <trkpt lat="46.88208" lon="8.54758">
        <ele>1433</ele>
        <time>2021-08-10T15:17:36.868Z</time>
      </trkpt>
      <trkpt lat="46.88209" lon="8.5476">
        <ele>1433</ele>
        <time>2021-08-10T15:17:37.867Z</time>
      </trkpt>
      <trkpt lat="46.8821" lon="8.54761">
        <ele>1434</ele>
        <time>2021-08-10T15:17:38.868Z</time>
      </trkpt>
      <trkpt lat="46.88211" lon="8.54761">
        <ele>1434</ele>
        <time>2021-08-10T15:17:39.868Z</time>
      </trkpt>
      <trkpt lat="46.88212" lon="8.54762">
        <ele>1434</ele>
        <time>2021-08-10T15:17:40.868Z</time>
      </trkpt>
      <trkpt lat="46.88212" lon="8.54761">
        <ele>1435</ele>
        <time>2021-08-10T15:17:43.980Z</time>
      </trkpt>
      <trkpt lat="46.88213" lon="8.54762">
        <ele>1435</ele>
        <time>2021-08-10T15:17:44.979Z</time>
      </trkpt>
      <trkpt lat="46.88214" lon="8.54762">
        <ele>1435</ele>
        <time>2021-08-10T15:17:45.980Z</time>
      </trkpt>
      <trkpt lat="46.88215" lon="8.54763">
        <ele>1435</ele>
        <time>2021-08-10T15:17:46.980Z</time>
      </trkpt>
      <trkpt lat="46.88216" lon="8.54764">
        <ele>1435</ele>
        <time>2021-08-10T15:17:47.979Z</time>
      </trkpt>
      <trkpt lat="46.88217" lon="8.54764">
        <ele>1435</ele>
        <time>2021-08-10T15:17:48.979Z</time>
      </trkpt>
      <trkpt lat="46.88218" lon="8.54764">
        <ele>1436</ele>
        <time>2021-08-10T15:17:49.980Z</time>
      </trkpt>
      <trkpt lat="46.88218" lon="8.54764">
        <ele>1436</ele>
        <time>2021-08-10T15:17:50.980Z</time>
      </trkpt>
      <trkpt lat="46.88219" lon="8.54764">
        <ele>1436</ele>
        <time>2021-08-10T15:17:51.980Z</time>
      </trkpt>
      <trkpt lat="46.88219" lon="8.54763">
        <ele>1437</ele>
        <time>2021-08-10T15:17:52.980Z</time>
      </trkpt>
      <trkpt lat="46.8822" lon="8.54763">
        <ele>1437</ele>
        <time>2021-08-10T15:17:53.980Z</time>
      </trkpt>
      <trkpt lat="46.88221" lon="8.54763">
        <ele>1438</ele>
        <time>2021-08-10T15:17:54.980Z</time>
      </trkpt>
      <trkpt lat="46.88222" lon="8.54763">
        <ele>1438</ele>
        <time>2021-08-10T15:17:55.980Z</time>
      </trkpt>
      <trkpt lat="46.88223" lon="8.54763">
        <ele>1439</ele>
        <time>2021-08-10T15:17:56.980Z</time>
      </trkpt>
      <trkpt lat="46.88224" lon="8.54763">
        <ele>1439</ele>
        <time>2021-08-10T15:17:57.980Z</time>
      </trkpt>
      <trkpt lat="46.88224" lon="8.54763">
        <ele>1440</ele>
        <time>2021-08-10T15:17:58.980Z</time>
      </trkpt>
      <trkpt lat="46.88225" lon="8.54762">
        <ele>1441</ele>
        <time>2021-08-10T15:17:59.980Z</time>
      </trkpt>
      <trkpt lat="46.88226" lon="8.54762">
        <ele>1441</ele>
        <time>2021-08-10T15:18:00.979Z</time>
      </trkpt>
      <trkpt lat="46.88227" lon="8.54761">
        <ele>1442</ele>
        <time>2021-08-10T15:18:01.980Z</time>
      </trkpt>
      <trkpt lat="46.88227" lon="8.5476">
        <ele>1442</ele>
        <time>2021-08-10T15:18:02.980Z</time>
      </trkpt>
      <trkpt lat="46.88228" lon="8.54759">
        <ele>1442</ele>
        <time>2021-08-10T15:18:03.980Z</time>
      </trkpt>
      <trkpt lat="46.88229" lon="8.54758">
        <ele>1442</ele>
        <time>2021-08-10T15:18:04.980Z</time>
      </trkpt>
      <trkpt lat="46.88228" lon="8.54759">
        <ele>1442</ele>
        <time>2021-08-10T15:18:05.980Z</time>
      </trkpt>
      <trkpt lat="46.88228" lon="8.54759">
        <ele>1441</ele>
        <time>2021-08-10T15:18:06.979Z</time>
      </trkpt>
      <trkpt lat="46.88229" lon="8.54759">
        <ele>1441</ele>
        <time>2021-08-10T15:18:07.979Z</time>
      </trkpt>
      <trkpt lat="46.88229" lon="8.54758">
        <ele>1441</ele>
        <time>2021-08-10T15:18:08.979Z</time>
      </trkpt>
      <trkpt lat="46.8823" lon="8.54757">
        <ele>1440</ele>
        <time>2021-08-10T15:18:09.979Z</time>
      </trkpt>
      <trkpt lat="46.8823" lon="8.54756">
        <ele>1440</ele>
        <time>2021-08-10T15:18:10.979Z</time>
      </trkpt>
      <trkpt lat="46.88231" lon="8.54756">
        <ele>1440</ele>
        <time>2021-08-10T15:18:11.979Z</time>
      </trkpt>
      <trkpt lat="46.88231" lon="8.54755">
        <ele>1440</ele>
        <time>2021-08-10T15:18:12.980Z</time>
      </trkpt>
      <trkpt lat="46.88231" lon="8.54754">
        <ele>1440</ele>
        <time>2021-08-10T15:18:13.980Z</time>
      </trkpt>
      <trkpt lat="46.88232" lon="8.54754">
        <ele>1440</ele>
        <time>2021-08-10T15:18:16.060Z</time>
      </trkpt>
      <trkpt lat="46.88233" lon="8.54753">
        <ele>1440</ele>
        <time>2021-08-10T15:18:17.060Z</time>
      </trkpt>
      <trkpt lat="46.88234" lon="8.54752">
        <ele>1440</ele>
        <time>2021-08-10T15:18:18.060Z</time>
      </trkpt>
      <trkpt lat="46.88234" lon="8.54751">
        <ele>1440</ele>
        <time>2021-08-10T15:18:19.060Z</time>
      </trkpt>
      <trkpt lat="46.88234" lon="8.5475">
        <ele>1440</ele>
        <time>2021-08-10T15:18:20.060Z</time>
      </trkpt>
      <trkpt lat="46.88234" lon="8.54749">
        <ele>1441</ele>
        <time>2021-08-10T15:18:21.060Z</time>
      </trkpt>
      <trkpt lat="46.88235" lon="8.54747">
        <ele>1440</ele>
        <time>2021-08-10T15:18:22.060Z</time>
      </trkpt>
      <trkpt lat="46.88235" lon="8.54746">
        <ele>1440</ele>
        <time>2021-08-10T15:18:23.059Z</time>
      </trkpt>
      <trkpt lat="46.88236" lon="8.54745">
        <ele>1440</ele>
        <time>2021-08-10T15:18:26.077Z</time>
      </trkpt>
      <trkpt lat="46.88236" lon="8.54744">
        <ele>1440</ele>
        <time>2021-08-10T15:18:27.077Z</time>
      </trkpt>
      <trkpt lat="46.88237" lon="8.54744">
        <ele>1440</ele>
        <time>2021-08-10T15:18:28.077Z</time>
      </trkpt>
      <trkpt lat="46.88237" lon="8.54743">
        <ele>1440</ele>
        <time>2021-08-10T15:18:29.077Z</time>
      </trkpt>
      <trkpt lat="46.88237" lon="8.54742">
        <ele>1440</ele>
        <time>2021-08-10T15:18:34.249Z</time>
      </trkpt>
      <trkpt lat="46.88238" lon="8.54741">
        <ele>1440</ele>
        <time>2021-08-10T15:18:35.249Z</time>
      </trkpt>
      <trkpt lat="46.88238" lon="8.5474">
        <ele>1441</ele>
        <time>2021-08-10T15:18:36.250Z</time>
      </trkpt>
      <trkpt lat="46.88239" lon="8.54739">
        <ele>1441</ele>
        <time>2021-08-10T15:18:37.250Z</time>
      </trkpt>
      <trkpt lat="46.88239" lon="8.54739">
        <ele>1441</ele>
        <time>2021-08-10T15:18:38.250Z</time>
      </trkpt>
      <trkpt lat="46.8824" lon="8.54738">
        <ele>1441</ele>
        <time>2021-08-10T15:18:39.250Z</time>
      </trkpt>
      <trkpt lat="46.8824" lon="8.54737">
        <ele>1442</ele>
        <time>2021-08-10T15:18:40.249Z</time>
      </trkpt>
      <trkpt lat="46.8824" lon="8.54736">
        <ele>1442</ele>
        <time>2021-08-10T15:18:41.249Z</time>
      </trkpt>
      <trkpt lat="46.8824" lon="8.54735">
        <ele>1443</ele>
        <time>2021-08-10T15:18:42.250Z</time>
      </trkpt>
      <trkpt lat="46.88241" lon="8.54735">
        <ele>1443</ele>
        <time>2021-08-10T15:18:43.249Z</time>
      </trkpt>
      <trkpt lat="46.88241" lon="8.54735">
        <ele>1443</ele>
        <time>2021-08-10T15:18:44.249Z</time>
      </trkpt>
      <trkpt lat="46.88242" lon="8.54735">
        <ele>1443</ele>
        <time>2021-08-10T15:18:45.250Z</time>
      </trkpt>
      <trkpt lat="46.88243" lon="8.54735">
        <ele>1444</ele>
        <time>2021-08-10T15:18:46.250Z</time>
      </trkpt>
      <trkpt lat="46.88244" lon="8.54734">
        <ele>1444</ele>
        <time>2021-08-10T15:18:47.250Z</time>
      </trkpt>
      <trkpt lat="46.88245" lon="8.54734">
        <ele>1444</ele>
        <time>2021-08-10T15:18:48.250Z</time>
      </trkpt>
      <trkpt lat="46.88246" lon="8.54734">
        <ele>1445</ele>
        <time>2021-08-10T15:18:49.250Z</time>
      </trkpt>
      <trkpt lat="46.88247" lon="8.54733">
        <ele>1446</ele>
        <time>2021-08-10T15:18:50.250Z</time>
      </trkpt>
      <trkpt lat="46.88247" lon="8.54732">
        <ele>1446</ele>
        <time>2021-08-10T15:18:51.250Z</time>
      </trkpt>
      <trkpt lat="46.88247" lon="8.54731">
        <ele>1447</ele>
        <time>2021-08-10T15:18:52.250Z</time>
      </trkpt>
      <trkpt lat="46.88248" lon="8.5473">
        <ele>1447</ele>
        <time>2021-08-10T15:18:53.249Z</time>
      </trkpt>
      <trkpt lat="46.88248" lon="8.5473">
        <ele>1447</ele>
        <time>2021-08-10T15:18:54.250Z</time>
      </trkpt>
      <trkpt lat="46.88249" lon="8.5473">
        <ele>1447</ele>
        <time>2021-08-10T15:18:55.250Z</time>
      </trkpt>
      <trkpt lat="46.8825" lon="8.5473">
        <ele>1448</ele>
        <time>2021-08-10T15:18:56.250Z</time>
      </trkpt>
      <trkpt lat="46.88251" lon="8.5473">
        <ele>1448</ele>
        <time>2021-08-10T15:18:57.249Z</time>
      </trkpt>
      <trkpt lat="46.88252" lon="8.5473">
        <ele>1448</ele>
        <time>2021-08-10T15:18:58.249Z</time>
      </trkpt>
      <trkpt lat="46.88252" lon="8.54729">
        <ele>1448</ele>
        <time>2021-08-10T15:18:59.250Z</time>
      </trkpt>
      <trkpt lat="46.88253" lon="8.54727">
        <ele>1448</ele>
        <time>2021-08-10T15:19:00.250Z</time>
      </trkpt>
      <trkpt lat="46.88252" lon="8.54726">
        <ele>1447</ele>
        <time>2021-08-10T15:19:01.250Z</time>
      </trkpt>
      <trkpt lat="46.88251" lon="8.54725">
        <ele>1447</ele>
        <time>2021-08-10T15:19:02.250Z</time>
      </trkpt>
      <trkpt lat="46.88251" lon="8.54725">
        <ele>1447</ele>
        <time>2021-08-10T15:19:03.250Z</time>
      </trkpt>
      <trkpt lat="46.8825" lon="8.54724">
        <ele>1447</ele>
        <time>2021-08-10T15:19:04.249Z</time>
      </trkpt>
      <trkpt lat="46.8825" lon="8.54724">
        <ele>1446</ele>
        <time>2021-08-10T15:19:05.249Z</time>
      </trkpt>
      <trkpt lat="46.8825" lon="8.54723">
        <ele>1446</ele>
        <time>2021-08-10T15:19:06.249Z</time>
      </trkpt>
      <trkpt lat="46.8825" lon="8.54723">
        <ele>1446</ele>
        <time>2021-08-10T15:19:07.250Z</time>
      </trkpt>
      <trkpt lat="46.88249" lon="8.54722">
        <ele>1447</ele>
        <time>2021-08-10T15:19:08.250Z</time>
      </trkpt>
      <trkpt lat="46.88248" lon="8.54722">
        <ele>1447</ele>
        <time>2021-08-10T15:19:09.250Z</time>
      </trkpt>
      <trkpt lat="46.88247" lon="8.54721">
        <ele>1448</ele>
        <time>2021-08-10T15:19:10.250Z</time>
      </trkpt>
      <trkpt lat="46.88246" lon="8.54721">
        <ele>1448</ele>
        <time>2021-08-10T15:19:11.250Z</time>
      </trkpt>
      <trkpt lat="46.88246" lon="8.54721">
        <ele>1448</ele>
        <time>2021-08-10T15:19:12.250Z</time>
      </trkpt>
      <trkpt lat="46.88245" lon="8.5472">
        <ele>1448</ele>
        <time>2021-08-10T15:19:13.250Z</time>
      </trkpt>
      <trkpt lat="46.88243" lon="8.54719">
        <ele>1449</ele>
        <time>2021-08-10T15:19:14.250Z</time>
      </trkpt>
      <trkpt lat="46.88242" lon="8.54719">
        <ele>1449</ele>
        <time>2021-08-10T15:19:15.249Z</time>
      </trkpt>
      <trkpt lat="46.88241" lon="8.54719">
        <ele>1450</ele>
        <time>2021-08-10T15:19:16.250Z</time>
      </trkpt>
      <trkpt lat="46.8824" lon="8.54719">
        <ele>1450</ele>
        <time>2021-08-10T15:19:17.250Z</time>
      </trkpt>
      <trkpt lat="46.88239" lon="8.54719">
        <ele>1450</ele>
        <time>2021-08-10T15:19:18.250Z</time>
      </trkpt>
      <trkpt lat="46.88238" lon="8.54719">
        <ele>1450</ele>
        <time>2021-08-10T15:19:19.250Z</time>
      </trkpt>
      <trkpt lat="46.88237" lon="8.54719">
        <ele>1450</ele>
        <time>2021-08-10T15:19:20.250Z</time>
      </trkpt>
      <trkpt lat="46.88236" lon="8.5472">
        <ele>1449</ele>
        <time>2021-08-10T15:19:21.250Z</time>
      </trkpt>
      <trkpt lat="46.88235" lon="8.5472">
        <ele>1449</ele>
        <time>2021-08-10T15:19:22.249Z</time>
      </trkpt>
      <trkpt lat="46.88235" lon="8.54721">
        <ele>1449</ele>
        <time>2021-08-10T15:19:23.250Z</time>
      </trkpt>
      <trkpt lat="46.88234" lon="8.54722">
        <ele>1449</ele>
        <time>2021-08-10T15:19:24.250Z</time>
      </trkpt>
      <trkpt lat="46.88233" lon="8.54723">
        <ele>1449</ele>
        <time>2021-08-10T15:19:25.250Z</time>
      </trkpt>
      <trkpt lat="46.88232" lon="8.54723">
        <ele>1449</ele>
        <time>2021-08-10T15:19:26.250Z</time>
      </trkpt>
      <trkpt lat="46.88232" lon="8.54724">
        <ele>1449</ele>
        <time>2021-08-10T15:19:27.250Z</time>
      </trkpt>
      <trkpt lat="46.88231" lon="8.54723">
        <ele>1449</ele>
        <time>2021-08-10T15:19:28.249Z</time>
      </trkpt>
      <trkpt lat="46.8823" lon="8.54724">
        <ele>1448</ele>
        <time>2021-08-10T15:19:29.250Z</time>
      </trkpt>
      <trkpt lat="46.8823" lon="8.54724">
        <ele>1448</ele>
        <time>2021-08-10T15:19:30.250Z</time>
      </trkpt>
      <trkpt lat="46.88229" lon="8.54724">
        <ele>1448</ele>
        <time>2021-08-10T15:19:31.250Z</time>
      </trkpt>
      <trkpt lat="46.88228" lon="8.54724">
        <ele>1449</ele>
        <time>2021-08-10T15:19:32.250Z</time>
      </trkpt>
      <trkpt lat="46.88227" lon="8.54724">
        <ele>1449</ele>
        <time>2021-08-10T15:19:33.250Z</time>
      </trkpt>
      <trkpt lat="46.88226" lon="8.54724">
        <ele>1449</ele>
        <time>2021-08-10T15:19:34.249Z</time>
      </trkpt>
      <trkpt lat="46.88225" lon="8.54723">
        <ele>1449</ele>
        <time>2021-08-10T15:19:35.249Z</time>
      </trkpt>
      <trkpt lat="46.88224" lon="8.54722">
        <ele>1449</ele>
        <time>2021-08-10T15:19:36.250Z</time>
      </trkpt>
      <trkpt lat="46.88224" lon="8.54721">
        <ele>1449</ele>
        <time>2021-08-10T15:19:37.249Z</time>
      </trkpt>
      <trkpt lat="46.88224" lon="8.5472">
        <ele>1449</ele>
        <time>2021-08-10T15:19:38.250Z</time>
      </trkpt>
      <trkpt lat="46.88223" lon="8.54719">
        <ele>1450</ele>
        <time>2021-08-10T15:19:39.250Z</time>
      </trkpt>
      <trkpt lat="46.88223" lon="8.54717">
        <ele>1450</ele>
        <time>2021-08-10T15:19:40.249Z</time>
      </trkpt>
      <trkpt lat="46.88222" lon="8.54717">
        <ele>1450</ele>
        <time>2021-08-10T15:19:43.331Z</time>
      </trkpt>
      <trkpt lat="46.88221" lon="8.54715">
        <ele>1450</ele>
        <time>2021-08-10T15:19:44.330Z</time>
      </trkpt>
      <trkpt lat="46.8822" lon="8.54714">
        <ele>1451</ele>
        <time>2021-08-10T15:19:45.330Z</time>
      </trkpt>
      <trkpt lat="46.88219" lon="8.54712">
        <ele>1451</ele>
        <time>2021-08-10T15:19:46.330Z</time>
      </trkpt>
      <trkpt lat="46.8822" lon="8.54713">
        <ele>1451</ele>
        <time>2021-08-10T15:19:47.330Z</time>
      </trkpt>
      <trkpt lat="46.88221" lon="8.54713">
        <ele>1451</ele>
        <time>2021-08-10T15:19:48.330Z</time>
      </trkpt>
      <trkpt lat="46.88222" lon="8.54713">
        <ele>1451</ele>
        <time>2021-08-10T15:19:49.330Z</time>
      </trkpt>
      <trkpt lat="46.88223" lon="8.54712">
        <ele>1452</ele>
        <time>2021-08-10T15:19:50.330Z</time>
      </trkpt>
      <trkpt lat="46.88224" lon="8.54711">
        <ele>1452</ele>
        <time>2021-08-10T15:19:51.331Z</time>
      </trkpt>
      <trkpt lat="46.88224" lon="8.5471">
        <ele>1452</ele>
        <time>2021-08-10T15:19:52.330Z</time>
      </trkpt>
      <trkpt lat="46.88225" lon="8.54709">
        <ele>1452</ele>
        <time>2021-08-10T15:19:53.331Z</time>
      </trkpt>
      <trkpt lat="46.88225" lon="8.54707">
        <ele>1453</ele>
        <time>2021-08-10T15:19:54.330Z</time>
      </trkpt>
      <trkpt lat="46.88224" lon="8.54706">
        <ele>1453</ele>
        <time>2021-08-10T15:19:55.331Z</time>
      </trkpt>
      <trkpt lat="46.88224" lon="8.54704">
        <ele>1453</ele>
        <time>2021-08-10T15:19:56.331Z</time>
      </trkpt>
      <trkpt lat="46.88223" lon="8.54703">
        <ele>1453</ele>
        <time>2021-08-10T15:19:57.331Z</time>
      </trkpt>
      <trkpt lat="46.88223" lon="8.54703">
        <ele>1454</ele>
        <time>2021-08-10T15:19:58.331Z</time>
      </trkpt>
      <trkpt lat="46.88223" lon="8.54702">
        <ele>1454</ele>
        <time>2021-08-10T15:19:59.331Z</time>
      </trkpt>
      <trkpt lat="46.88222" lon="8.54701">
        <ele>1454</ele>
        <time>2021-08-10T15:20:00.331Z</time>
      </trkpt>
      <trkpt lat="46.88222" lon="8.547">
        <ele>1455</ele>
        <time>2021-08-10T15:20:01.331Z</time>
      </trkpt>
      <trkpt lat="46.88221" lon="8.54699">
        <ele>1455</ele>
        <time>2021-08-10T15:20:02.331Z</time>
      </trkpt>
      <trkpt lat="46.8822" lon="8.54698">
        <ele>1455</ele>
        <time>2021-08-10T15:20:03.331Z</time>
      </trkpt>
      <trkpt lat="46.8822" lon="8.54697">
        <ele>1456</ele>
        <time>2021-08-10T15:20:04.330Z</time>
      </trkpt>
      <trkpt lat="46.8822" lon="8.54696">
        <ele>1456</ele>
        <time>2021-08-10T15:20:05.330Z</time>
      </trkpt>
      <trkpt lat="46.88219" lon="8.54695">
        <ele>1457</ele>
        <time>2021-08-10T15:20:06.331Z</time>
      </trkpt>
      <trkpt lat="46.88219" lon="8.54695">
        <ele>1457</ele>
        <time>2021-08-10T15:20:07.330Z</time>
      </trkpt>
      <trkpt lat="46.88218" lon="8.54695">
        <ele>1457</ele>
        <time>2021-08-10T15:20:08.331Z</time>
      </trkpt>
      <trkpt lat="46.88218" lon="8.54694">
        <ele>1458</ele>
        <time>2021-08-10T15:20:09.330Z</time>
      </trkpt>
      <trkpt lat="46.88217" lon="8.54693">
        <ele>1458</ele>
        <time>2021-08-10T15:20:10.330Z</time>
      </trkpt>
      <trkpt lat="46.88216" lon="8.54692">
        <ele>1459</ele>
        <time>2021-08-10T15:20:11.331Z</time>
      </trkpt>
      <trkpt lat="46.88216" lon="8.54691">
        <ele>1459</ele>
        <time>2021-08-10T15:20:12.331Z</time>
      </trkpt>
      <trkpt lat="46.88216" lon="8.5469">
        <ele>1459</ele>
        <time>2021-08-10T15:20:13.331Z</time>
      </trkpt>
      <trkpt lat="46.88215" lon="8.54689">
        <ele>1459</ele>
        <time>2021-08-10T15:20:14.330Z</time>
      </trkpt>
      <trkpt lat="46.88215" lon="8.54689">
        <ele>1459</ele>
        <time>2021-08-10T15:20:15.330Z</time>
      </trkpt>
      <trkpt lat="46.88215" lon="8.54689">
        <ele>1460</ele>
        <time>2021-08-10T15:20:16.330Z</time>
      </trkpt>
      <trkpt lat="46.88214" lon="8.54688">
        <ele>1460</ele>
        <time>2021-08-10T15:20:17.331Z</time>
      </trkpt>
      <trkpt lat="46.88213" lon="8.54688">
        <ele>1460</ele>
        <time>2021-08-10T15:20:18.330Z</time>
      </trkpt>
      <trkpt lat="46.88213" lon="8.54688">
        <ele>1460</ele>
        <time>2021-08-10T15:20:19.331Z</time>
      </trkpt>
      <trkpt lat="46.88213" lon="8.54687">
        <ele>1460</ele>
        <time>2021-08-10T15:20:20.330Z</time>
      </trkpt>
      <trkpt lat="46.88212" lon="8.54686">
        <ele>1461</ele>
        <time>2021-08-10T15:20:21.331Z</time>
      </trkpt>
      <trkpt lat="46.88212" lon="8.54686">
        <ele>1461</ele>
        <time>2021-08-10T15:20:22.331Z</time>
      </trkpt>
      <trkpt lat="46.88211" lon="8.54685">
        <ele>1461</ele>
        <time>2021-08-10T15:20:23.331Z</time>
      </trkpt>
      <trkpt lat="46.8821" lon="8.54685">
        <ele>1462</ele>
        <time>2021-08-10T15:20:24.330Z</time>
      </trkpt>
      <trkpt lat="46.88209" lon="8.54684">
        <ele>1462</ele>
        <time>2021-08-10T15:20:25.330Z</time>
      </trkpt>
      <trkpt lat="46.88208" lon="8.54683">
        <ele>1462</ele>
        <time>2021-08-10T15:20:26.331Z</time>
      </trkpt>
      <trkpt lat="46.88207" lon="8.54682">
        <ele>1462</ele>
        <time>2021-08-10T15:20:27.331Z</time>
      </trkpt>
      <trkpt lat="46.88206" lon="8.54681">
        <ele>1462</ele>
        <time>2021-08-10T15:20:28.330Z</time>
      </trkpt>
      <trkpt lat="46.88206" lon="8.54681">
        <ele>1463</ele>
        <time>2021-08-10T15:20:29.330Z</time>
      </trkpt>
      <trkpt lat="46.88205" lon="8.54681">
        <ele>1463</ele>
        <time>2021-08-10T15:20:30.330Z</time>
      </trkpt>
      <trkpt lat="46.88204" lon="8.5468">
        <ele>1462</ele>
        <time>2021-08-10T15:20:31.331Z</time>
      </trkpt>
      <trkpt lat="46.88204" lon="8.5468">
        <ele>1462</ele>
        <time>2021-08-10T15:20:32.330Z</time>
      </trkpt>
      <trkpt lat="46.88203" lon="8.5468">
        <ele>1462</ele>
        <time>2021-08-10T15:20:33.330Z</time>
      </trkpt>
      <trkpt lat="46.88202" lon="8.54679">
        <ele>1462</ele>
        <time>2021-08-10T15:20:34.330Z</time>
      </trkpt>
      <trkpt lat="46.88202" lon="8.54678">
        <ele>1462</ele>
        <time>2021-08-10T15:20:35.331Z</time>
      </trkpt>
      <trkpt lat="46.88201" lon="8.54678">
        <ele>1462</ele>
        <time>2021-08-10T15:20:36.330Z</time>
      </trkpt>
      <trkpt lat="46.88201" lon="8.54677">
        <ele>1461</ele>
        <time>2021-08-10T15:20:37.330Z</time>
      </trkpt>
      <trkpt lat="46.88201" lon="8.54677">
        <ele>1461</ele>
        <time>2021-08-10T15:20:38.330Z</time>
      </trkpt>
      <trkpt lat="46.88201" lon="8.54676">
        <ele>1461</ele>
        <time>2021-08-10T15:20:39.330Z</time>
      </trkpt>
      <trkpt lat="46.882" lon="8.54676">
        <ele>1461</ele>
        <time>2021-08-10T15:20:40.330Z</time>
      </trkpt>
      <trkpt lat="46.88199" lon="8.54675">
        <ele>1461</ele>
        <time>2021-08-10T15:20:41.330Z</time>
      </trkpt>
      <trkpt lat="46.88199" lon="8.54674">
        <ele>1461</ele>
        <time>2021-08-10T15:20:42.330Z</time>
      </trkpt>
      <trkpt lat="46.88198" lon="8.54674">
        <ele>1460</ele>
        <time>2021-08-10T15:20:43.331Z</time>
      </trkpt>
      <trkpt lat="46.88197" lon="8.54673">
        <ele>1461</ele>
        <time>2021-08-10T15:20:44.330Z</time>
      </trkpt>
      <trkpt lat="46.88197" lon="8.54672">
        <ele>1461</ele>
        <time>2021-08-10T15:20:45.331Z</time>
      </trkpt>
      <trkpt lat="46.88197" lon="8.54671">
        <ele>1462</ele>
        <time>2021-08-10T15:20:46.331Z</time>
      </trkpt>
      <trkpt lat="46.88197" lon="8.5467">
        <ele>1462</ele>
        <time>2021-08-10T15:20:47.331Z</time>
      </trkpt>
      <trkpt lat="46.88196" lon="8.54669">
        <ele>1463</ele>
        <time>2021-08-10T15:20:48.331Z</time>
      </trkpt>
      <trkpt lat="46.88195" lon="8.54669">
        <ele>1463</ele>
        <time>2021-08-10T15:20:49.330Z</time>
      </trkpt>
      <trkpt lat="46.88195" lon="8.54669">
        <ele>1464</ele>
        <time>2021-08-10T15:20:50.331Z</time>
      </trkpt>
      <trkpt lat="46.88194" lon="8.54668">
        <ele>1465</ele>
        <time>2021-08-10T15:20:51.331Z</time>
      </trkpt>
      <trkpt lat="46.88193" lon="8.54668">
        <ele>1465</ele>
        <time>2021-08-10T15:20:52.331Z</time>
      </trkpt>
      <trkpt lat="46.88193" lon="8.54668">
        <ele>1465</ele>
        <time>2021-08-10T15:20:53.331Z</time>
      </trkpt>
      <trkpt lat="46.88193" lon="8.54668">
        <ele>1466</ele>
        <time>2021-08-10T15:20:54.331Z</time>
      </trkpt>
      <trkpt lat="46.88192" lon="8.54668">
        <ele>1466</ele>
        <time>2021-08-10T15:20:55.330Z</time>
      </trkpt>
      <trkpt lat="46.88191" lon="8.54667">
        <ele>1466</ele>
        <time>2021-08-10T15:20:56.330Z</time>
      </trkpt>
      <trkpt lat="46.88191" lon="8.54668">
        <ele>1466</ele>
        <time>2021-08-10T15:20:57.330Z</time>
      </trkpt>
      <trkpt lat="46.8819" lon="8.54668">
        <ele>1466</ele>
        <time>2021-08-10T15:20:58.331Z</time>
      </trkpt>
      <trkpt lat="46.88189" lon="8.54669">
        <ele>1467</ele>
        <time>2021-08-10T15:21:00.432Z</time>
      </trkpt>
      <trkpt lat="46.88188" lon="8.5467">
        <ele>1467</ele>
        <time>2021-08-10T15:21:01.433Z</time>
      </trkpt>
      <trkpt lat="46.88187" lon="8.54671">
        <ele>1467</ele>
        <time>2021-08-10T15:21:02.433Z</time>
      </trkpt>
      <trkpt lat="46.88186" lon="8.54671">
        <ele>1467</ele>
        <time>2021-08-10T15:21:03.432Z</time>
      </trkpt>
      <trkpt lat="46.88185" lon="8.54671">
        <ele>1467</ele>
        <time>2021-08-10T15:21:04.432Z</time>
      </trkpt>
      <trkpt lat="46.88184" lon="8.54671">
        <ele>1468</ele>
        <time>2021-08-10T15:21:05.433Z</time>
      </trkpt>
      <trkpt lat="46.88183" lon="8.54671">
        <ele>1468</ele>
        <time>2021-08-10T15:21:06.433Z</time>
      </trkpt>
      <trkpt lat="46.88183" lon="8.54671">
        <ele>1469</ele>
        <time>2021-08-10T15:21:07.433Z</time>
      </trkpt>
      <trkpt lat="46.88182" lon="8.54671">
        <ele>1469</ele>
        <time>2021-08-10T15:21:08.433Z</time>
      </trkpt>
      <trkpt lat="46.88182" lon="8.5467">
        <ele>1470</ele>
        <time>2021-08-10T15:21:09.433Z</time>
      </trkpt>
      <trkpt lat="46.88181" lon="8.5467">
        <ele>1470</ele>
        <time>2021-08-10T15:21:10.432Z</time>
      </trkpt>
      <trkpt lat="46.8818" lon="8.5467">
        <ele>1471</ele>
        <time>2021-08-10T15:21:11.433Z</time>
      </trkpt>
      <trkpt lat="46.8818" lon="8.5467">
        <ele>1471</ele>
        <time>2021-08-10T15:21:12.433Z</time>
      </trkpt>
      <trkpt lat="46.88178" lon="8.5467">
        <ele>1471</ele>
        <time>2021-08-10T15:21:13.433Z</time>
      </trkpt>
      <trkpt lat="46.88177" lon="8.5467">
        <ele>1471</ele>
        <time>2021-08-10T15:21:14.433Z</time>
      </trkpt>
      <trkpt lat="46.88176" lon="8.54669">
        <ele>1470</ele>
        <time>2021-08-10T15:21:15.432Z</time>
      </trkpt>
      <trkpt lat="46.88175" lon="8.54669">
        <ele>1470</ele>
        <time>2021-08-10T15:21:16.433Z</time>
      </trkpt>
      <trkpt lat="46.88174" lon="8.54668">
        <ele>1470</ele>
        <time>2021-08-10T15:21:17.432Z</time>
      </trkpt>
      <trkpt lat="46.88174" lon="8.54668">
        <ele>1470</ele>
        <time>2021-08-10T15:21:18.432Z</time>
      </trkpt>
      <trkpt lat="46.88172" lon="8.54668">
        <ele>1471</ele>
        <time>2021-08-10T15:21:19.432Z</time>
      </trkpt>
      <trkpt lat="46.88172" lon="8.54668">
        <ele>1471</ele>
        <time>2021-08-10T15:21:20.432Z</time>
      </trkpt>
      <trkpt lat="46.88171" lon="8.54668">
        <ele>1471</ele>
        <time>2021-08-10T15:21:21.433Z</time>
      </trkpt>
      <trkpt lat="46.88171" lon="8.54667">
        <ele>1471</ele>
        <time>2021-08-10T15:21:22.433Z</time>
      </trkpt>
      <trkpt lat="46.8817" lon="8.54667">
        <ele>1471</ele>
        <time>2021-08-10T15:21:23.433Z</time>
      </trkpt>
      <trkpt lat="46.88169" lon="8.54666">
        <ele>1470</ele>
        <time>2021-08-10T15:21:24.432Z</time>
      </trkpt>
      <trkpt lat="46.88168" lon="8.54666">
        <ele>1470</ele>
        <time>2021-08-10T15:21:25.433Z</time>
      </trkpt>
      <trkpt lat="46.88167" lon="8.54666">
        <ele>1470</ele>
        <time>2021-08-10T15:21:26.433Z</time>
      </trkpt>
      <trkpt lat="46.88167" lon="8.54667">
        <ele>1470</ele>
        <time>2021-08-10T15:21:27.433Z</time>
      </trkpt>
      <trkpt lat="46.88166" lon="8.54667">
        <ele>1471</ele>
        <time>2021-08-10T15:21:28.432Z</time>
      </trkpt>
      <trkpt lat="46.88166" lon="8.54666">
        <ele>1471</ele>
        <time>2021-08-10T15:21:29.433Z</time>
      </trkpt>
      <trkpt lat="46.88165" lon="8.54666">
        <ele>1471</ele>
        <time>2021-08-10T15:21:30.432Z</time>
      </trkpt>
      <trkpt lat="46.88164" lon="8.54666">
        <ele>1472</ele>
        <time>2021-08-10T15:21:31.432Z</time>
      </trkpt>
      <trkpt lat="46.88163" lon="8.54667">
        <ele>1472</ele>
        <time>2021-08-10T15:21:32.432Z</time>
      </trkpt>
      <trkpt lat="46.88162" lon="8.54666">
        <ele>1473</ele>
        <time>2021-08-10T15:21:33.432Z</time>
      </trkpt>
      <trkpt lat="46.88161" lon="8.54666">
        <ele>1473</ele>
        <time>2021-08-10T15:21:34.432Z</time>
      </trkpt>
      <trkpt lat="46.8816" lon="8.54666">
        <ele>1473</ele>
        <time>2021-08-10T15:21:35.432Z</time>
      </trkpt>
      <trkpt lat="46.88159" lon="8.54665">
        <ele>1473</ele>
        <time>2021-08-10T15:21:36.432Z</time>
      </trkpt>
      <trkpt lat="46.88159" lon="8.54665">
        <ele>1473</ele>
        <time>2021-08-10T15:21:37.432Z</time>
      </trkpt>
      <trkpt lat="46.88158" lon="8.54665">
        <ele>1473</ele>
        <time>2021-08-10T15:21:46.613Z</time>
      </trkpt>
      <trkpt lat="46.88158" lon="8.54665">
        <ele>1473</ele>
        <time>2021-08-10T15:21:47.614Z</time>
      </trkpt>
      <trkpt lat="46.88157" lon="8.54664">
        <ele>1473</ele>
        <time>2021-08-10T15:21:48.614Z</time>
      </trkpt>
      <trkpt lat="46.88157" lon="8.54664">
        <ele>1473</ele>
        <time>2021-08-10T15:21:49.613Z</time>
      </trkpt>
      <trkpt lat="46.88156" lon="8.54663">
        <ele>1473</ele>
        <time>2021-08-10T15:21:50.614Z</time>
      </trkpt>
      <trkpt lat="46.88155" lon="8.54663">
        <ele>1473</ele>
        <time>2021-08-10T15:21:51.614Z</time>
      </trkpt>
      <trkpt lat="46.88155" lon="8.54663">
        <ele>1473</ele>
        <time>2021-08-10T15:21:52.614Z</time>
      </trkpt>
      <trkpt lat="46.88154" lon="8.54662">
        <ele>1473</ele>
        <time>2021-08-10T15:21:53.614Z</time>
      </trkpt>
      <trkpt lat="46.88153" lon="8.54661">
        <ele>1473</ele>
        <time>2021-08-10T15:21:54.613Z</time>
      </trkpt>
      <trkpt lat="46.88153" lon="8.54661">
        <ele>1473</ele>
        <time>2021-08-10T15:21:55.613Z</time>
      </trkpt>
      <trkpt lat="46.88153" lon="8.5466">
        <ele>1474</ele>
        <time>2021-08-10T15:21:56.614Z</time>
      </trkpt>
      <trkpt lat="46.88154" lon="8.54659">
        <ele>1475</ele>
        <time>2021-08-10T15:21:57.613Z</time>
      </trkpt>
      <trkpt lat="46.88153" lon="8.54658">
        <ele>1475</ele>
        <time>2021-08-10T15:21:58.613Z</time>
      </trkpt>
      <trkpt lat="46.88154" lon="8.54657">
        <ele>1476</ele>
        <time>2021-08-10T15:21:59.614Z</time>
      </trkpt>
      <trkpt lat="46.88154" lon="8.54656">
        <ele>1476</ele>
        <time>2021-08-10T15:22:00.613Z</time>
      </trkpt>
      <trkpt lat="46.88154" lon="8.54655">
        <ele>1477</ele>
        <time>2021-08-10T15:22:01.614Z</time>
      </trkpt>
      <trkpt lat="46.88154" lon="8.54654">
        <ele>1477</ele>
        <time>2021-08-10T15:22:02.614Z</time>
      </trkpt>
      <trkpt lat="46.88154" lon="8.54653">
        <ele>1478</ele>
        <time>2021-08-10T15:22:03.614Z</time>
      </trkpt>
      <trkpt lat="46.88155" lon="8.54652">
        <ele>1478</ele>
        <time>2021-08-10T15:22:04.613Z</time>
      </trkpt>
      <trkpt lat="46.88155" lon="8.54652">
        <ele>1478</ele>
        <time>2021-08-10T15:22:05.614Z</time>
      </trkpt>
      <trkpt lat="46.88155" lon="8.54651">
        <ele>1478</ele>
        <time>2021-08-10T15:22:06.614Z</time>
      </trkpt>
      <trkpt lat="46.88156" lon="8.54651">
        <ele>1478</ele>
        <time>2021-08-10T15:22:07.613Z</time>
      </trkpt>
      <trkpt lat="46.88156" lon="8.54651">
        <ele>1478</ele>
        <time>2021-08-10T15:22:08.613Z</time>
      </trkpt>
      <trkpt lat="46.88156" lon="8.54651">
        <ele>1477</ele>
        <time>2021-08-10T15:22:12.702Z</time>
      </trkpt>
      <trkpt lat="46.88156" lon="8.54651">
        <ele>1477</ele>
        <time>2021-08-10T15:22:13.702Z</time>
      </trkpt>
      <trkpt lat="46.88157" lon="8.54651">
        <ele>1477</ele>
        <time>2021-08-10T15:22:14.703Z</time>
      </trkpt>
      <trkpt lat="46.88158" lon="8.5465">
        <ele>1476</ele>
        <time>2021-08-10T15:22:15.702Z</time>
      </trkpt>
      <trkpt lat="46.88158" lon="8.5465">
        <ele>1476</ele>
        <time>2021-08-10T15:22:25.872Z</time>
      </trkpt>
      <trkpt lat="46.88159" lon="8.5465">
        <ele>1476</ele>
        <time>2021-08-10T15:22:26.872Z</time>
      </trkpt>
      <trkpt lat="46.8816" lon="8.5465">
        <ele>1476</ele>
        <time>2021-08-10T15:22:27.873Z</time>
      </trkpt>
      <trkpt lat="46.88161" lon="8.5465">
        <ele>1477</ele>
        <time>2021-08-10T15:22:28.873Z</time>
      </trkpt>
      <trkpt lat="46.88162" lon="8.5465">
        <ele>1477</ele>
        <time>2021-08-10T15:22:29.872Z</time>
      </trkpt>
      <trkpt lat="46.88162" lon="8.54649">
        <ele>1478</ele>
        <time>2021-08-10T15:22:30.872Z</time>
      </trkpt>
      <trkpt lat="46.88163" lon="8.54647">
        <ele>1479</ele>
        <time>2021-08-10T15:22:31.872Z</time>
      </trkpt>
      <trkpt lat="46.88164" lon="8.54646">
        <ele>1480</ele>
        <time>2021-08-10T15:22:32.872Z</time>
      </trkpt>
      <trkpt lat="46.88164" lon="8.54645">
        <ele>1481</ele>
        <time>2021-08-10T15:22:33.873Z</time>
      </trkpt>
      <trkpt lat="46.88165" lon="8.54644">
        <ele>1482</ele>
        <time>2021-08-10T15:22:34.873Z</time>
      </trkpt>
      <trkpt lat="46.88166" lon="8.54643">
        <ele>1483</ele>
        <time>2021-08-10T15:22:35.872Z</time>
      </trkpt>
      <trkpt lat="46.88166" lon="8.54643">
        <ele>1483</ele>
        <time>2021-08-10T15:22:36.872Z</time>
      </trkpt>
      <trkpt lat="46.88167" lon="8.54642">
        <ele>1484</ele>
        <time>2021-08-10T15:22:37.872Z</time>
      </trkpt>
      <trkpt lat="46.88168" lon="8.5464">
        <ele>1485</ele>
        <time>2021-08-10T15:22:38.873Z</time>
      </trkpt>
      <trkpt lat="46.88168" lon="8.54639">
        <ele>1486</ele>
        <time>2021-08-10T15:22:39.872Z</time>
      </trkpt>
      <trkpt lat="46.88168" lon="8.54638">
        <ele>1487</ele>
        <time>2021-08-10T15:22:40.873Z</time>
      </trkpt>
      <trkpt lat="46.88169" lon="8.54637">
        <ele>1487</ele>
        <time>2021-08-10T15:22:45.949Z</time>
      </trkpt>
      <trkpt lat="46.8817" lon="8.54636">
        <ele>1487</ele>
        <time>2021-08-10T15:22:46.949Z</time>
      </trkpt>
      <trkpt lat="46.8817" lon="8.54634">
        <ele>1488</ele>
        <time>2021-08-10T15:22:47.949Z</time>
      </trkpt>
      <trkpt lat="46.88171" lon="8.54633">
        <ele>1488</ele>
        <time>2021-08-10T15:22:48.949Z</time>
      </trkpt>
      <trkpt lat="46.88171" lon="8.54632">
        <ele>1487</ele>
        <time>2021-08-10T15:22:49.949Z</time>
      </trkpt>
      <trkpt lat="46.88171" lon="8.5463">
        <ele>1488</ele>
        <time>2021-08-10T15:22:50.949Z</time>
      </trkpt>
      <trkpt lat="46.88171" lon="8.54629">
        <ele>1488</ele>
        <time>2021-08-10T15:22:51.949Z</time>
      </trkpt>
      <trkpt lat="46.88172" lon="8.54628">
        <ele>1488</ele>
        <time>2021-08-10T15:22:52.949Z</time>
      </trkpt>
      <trkpt lat="46.88172" lon="8.54626">
        <ele>1487</ele>
        <time>2021-08-10T15:22:53.949Z</time>
      </trkpt>
      <trkpt lat="46.88173" lon="8.54625">
        <ele>1487</ele>
        <time>2021-08-10T15:22:54.949Z</time>
      </trkpt>
      <trkpt lat="46.88173" lon="8.54624">
        <ele>1486</ele>
        <time>2021-08-10T15:22:55.949Z</time>
      </trkpt>
      <trkpt lat="46.88173" lon="8.54623">
        <ele>1486</ele>
        <time>2021-08-10T15:22:56.949Z</time>
      </trkpt>
      <trkpt lat="46.88174" lon="8.54622">
        <ele>1485</ele>
        <time>2021-08-10T15:22:57.949Z</time>
      </trkpt>
      <trkpt lat="46.88174" lon="8.54621">
        <ele>1485</ele>
        <time>2021-08-10T15:22:58.949Z</time>
      </trkpt>
      <trkpt lat="46.88175" lon="8.54621">
        <ele>1485</ele>
        <time>2021-08-10T15:22:59.949Z</time>
      </trkpt>
      <trkpt lat="46.88176" lon="8.5462">
        <ele>1485</ele>
        <time>2021-08-10T15:23:00.950Z</time>
      </trkpt>
      <trkpt lat="46.88177" lon="8.5462">
        <ele>1485</ele>
        <time>2021-08-10T15:23:01.950Z</time>
      </trkpt>
      <trkpt lat="46.88177" lon="8.5462">
        <ele>1485</ele>
        <time>2021-08-10T15:23:02.950Z</time>
      </trkpt>
      <trkpt lat="46.88176" lon="8.5462">
        <ele>1485</ele>
        <time>2021-08-10T15:23:03.949Z</time>
      </trkpt>
      <trkpt lat="46.88176" lon="8.5462">
        <ele>1484</ele>
        <time>2021-08-10T15:23:04.950Z</time>
      </trkpt>
      <trkpt lat="46.88175" lon="8.5462">
        <ele>1484</ele>
        <time>2021-08-10T15:23:08.076Z</time>
      </trkpt>
      <trkpt lat="46.88175" lon="8.5462">
        <ele>1484</ele>
        <time>2021-08-10T15:23:09.076Z</time>
      </trkpt>
      <trkpt lat="46.88175" lon="8.5462">
        <ele>1483</ele>
        <time>2021-08-10T15:23:10.076Z</time>
      </trkpt>
      <trkpt lat="46.88176" lon="8.5462">
        <ele>1482</ele>
        <time>2021-08-10T15:23:11.078Z</time>
      </trkpt>
      <trkpt lat="46.88176" lon="8.5462">
        <ele>1482</ele>
        <time>2021-08-10T15:23:12.078Z</time>
      </trkpt>
      <trkpt lat="46.88176" lon="8.5462">
        <ele>1481</ele>
        <time>2021-08-10T15:23:15.207Z</time>
      </trkpt>
      <trkpt lat="46.88177" lon="8.54617">
        <ele>1479</ele>
        <time>2021-08-10T15:23:16.209Z</time>
      </trkpt>
      <trkpt lat="46.88177" lon="8.54616">
        <ele>1479</ele>
        <time>2021-08-10T15:23:17.209Z</time>
      </trkpt>
      <trkpt lat="46.88177" lon="8.54615">
        <ele>1479</ele>
        <time>2021-08-10T15:23:18.209Z</time>
      </trkpt>
      <trkpt lat="46.88177" lon="8.54614">
        <ele>1479</ele>
        <time>2021-08-10T15:23:19.209Z</time>
      </trkpt>
      <trkpt lat="46.88177" lon="8.54614">
        <ele>1479</ele>
        <time>2021-08-10T15:23:20.209Z</time>
      </trkpt>
      <trkpt lat="46.88177" lon="8.54613">
        <ele>1478</ele>
        <time>2021-08-10T15:23:21.209Z</time>
      </trkpt>
      <trkpt lat="46.88175" lon="8.54615">
        <ele>1477</ele>
        <time>2021-08-10T15:23:22.208Z</time>
      </trkpt>
      <trkpt lat="46.88175" lon="8.54615">
        <ele>1477</ele>
        <time>2021-08-10T15:23:23.208Z</time>
      </trkpt>
      <trkpt lat="46.88174" lon="8.54616">
        <ele>1476</ele>
        <time>2021-08-10T15:23:24.209Z</time>
      </trkpt>
      <trkpt lat="46.88224" lon="8.54561">
        <ele>1495</ele>
        <time>2021-08-11T08:23:56.378Z</time>
      </trkpt>
      <trkpt lat="46.88224" lon="8.54561">
        <ele>1495</ele>
        <time>2021-08-11T08:23:56.378Z</time>
      </trkpt>
      <trkpt lat="46.88224" lon="8.54561">
        <ele>1495</ele>
        <time>2021-08-11T08:23:56.378Z</time>
      </trkpt>
      <trkpt lat="46.88227" lon="8.54562">
        <ele>1494</ele>
        <time>2021-08-11T08:23:57.378Z</time>
      </trkpt>
      <trkpt lat="46.88225" lon="8.54563">
        <ele>1493</ele>
        <time>2021-08-11T08:23:58.378Z</time>
      </trkpt>
      <trkpt lat="46.88222" lon="8.54564">
        <ele>1492</ele>
        <time>2021-08-11T08:23:59.378Z</time>
      </trkpt>
      <trkpt lat="46.88222" lon="8.54561">
        <ele>1491</ele>
        <time>2021-08-11T08:24:00.378Z</time>
      </trkpt>
      <trkpt lat="46.88221" lon="8.54559">
        <ele>1490</ele>
        <time>2021-08-11T08:24:01.378Z</time>
      </trkpt>
      <trkpt lat="46.8822" lon="8.54557">
        <ele>1489</ele>
        <time>2021-08-11T08:24:02.378Z</time>
      </trkpt>
      <trkpt lat="46.88219" lon="8.54554">
        <ele>1489</ele>
        <time>2021-08-11T08:24:03.378Z</time>
      </trkpt>
      <trkpt lat="46.88216" lon="8.54553">
        <ele>1488</ele>
        <time>2021-08-11T08:24:04.378Z</time>
      </trkpt>
      <trkpt lat="46.88214" lon="8.54551">
        <ele>1488</ele>
        <time>2021-08-11T08:24:05.378Z</time>
      </trkpt>
      <trkpt lat="46.88213" lon="8.5455">
        <ele>1488</ele>
        <time>2021-08-11T08:24:06.378Z</time>
      </trkpt>
      <trkpt lat="46.88212" lon="8.5455">
        <ele>1488</ele>
        <time>2021-08-11T08:24:07.378Z</time>
      </trkpt>
      <trkpt lat="46.88212" lon="8.5455">
        <ele>1488</ele>
        <time>2021-08-11T08:24:08.379Z</time>
      </trkpt>
      <trkpt lat="46.88212" lon="8.5455">
        <ele>1488</ele>
        <time>2021-08-11T08:24:09.379Z</time>
      </trkpt>
      <trkpt lat="46.88212" lon="8.5455">
        <ele>1488</ele>
        <time>2021-08-11T08:24:10.378Z</time>
      </trkpt>
      <trkpt lat="46.88212" lon="8.54549">
        <ele>1488</ele>
        <time>2021-08-11T08:24:11.378Z</time>
      </trkpt>
      <trkpt lat="46.88212" lon="8.54548">
        <ele>1488</ele>
        <time>2021-08-11T08:24:12.379Z</time>
      </trkpt>
      <trkpt lat="46.88211" lon="8.54549">
        <ele>1488</ele>
        <time>2021-08-11T08:24:13.378Z</time>
      </trkpt>
      <trkpt lat="46.8821" lon="8.54549">
        <ele>1488</ele>
        <time>2021-08-11T08:24:14.378Z</time>
      </trkpt>
      <trkpt lat="46.8821" lon="8.5455">
        <ele>1489</ele>
        <time>2021-08-11T08:24:15.378Z</time>
      </trkpt>
      <trkpt lat="46.88209" lon="8.54549">
        <ele>1489</ele>
        <time>2021-08-11T08:24:16.378Z</time>
      </trkpt>
      <trkpt lat="46.88208" lon="8.54549">
        <ele>1489</ele>
        <time>2021-08-11T08:24:17.378Z</time>
      </trkpt>
      <trkpt lat="46.88208" lon="8.54549">
        <ele>1489</ele>
        <time>2021-08-11T08:24:18.378Z</time>
      </trkpt>
      <trkpt lat="46.88208" lon="8.54549">
        <ele>1490</ele>
        <time>2021-08-11T08:24:19.378Z</time>
      </trkpt>
      <trkpt lat="46.88208" lon="8.54549">
        <ele>1490</ele>
        <time>2021-08-11T08:24:20.378Z</time>
      </trkpt>
      <trkpt lat="46.88208" lon="8.54549">
        <ele>1490</ele>
        <time>2021-08-11T08:24:21.378Z</time>
      </trkpt>
      <trkpt lat="46.88209" lon="8.5455">
        <ele>1490</ele>
        <time>2021-08-11T08:24:22.378Z</time>
      </trkpt>
      <trkpt lat="46.88208" lon="8.5455">
        <ele>1491</ele>
        <time>2021-08-11T08:24:23.378Z</time>
      </trkpt>
      <trkpt lat="46.88208" lon="8.5455">
        <ele>1491</ele>
        <time>2021-08-11T08:24:24.378Z</time>
      </trkpt>
      <trkpt lat="46.88208" lon="8.5455">
        <ele>1491</ele>
        <time>2021-08-11T08:24:25.379Z</time>
      </trkpt>
      <trkpt lat="46.88208" lon="8.5455">
        <ele>1491</ele>
        <time>2021-08-11T08:24:26.378Z</time>
      </trkpt>
      <trkpt lat="46.88208" lon="8.5455">
        <ele>1491</ele>
        <time>2021-08-11T08:24:27.378Z</time>
      </trkpt>
      <trkpt lat="46.88209" lon="8.5455">
        <ele>1491</ele>
        <time>2021-08-11T08:24:28.378Z</time>
      </trkpt>
      <trkpt lat="46.88209" lon="8.54549">
        <ele>1491</ele>
        <time>2021-08-11T08:24:29.378Z</time>
      </trkpt>
      <trkpt lat="46.8821" lon="8.54549">
        <ele>1491</ele>
        <time>2021-08-11T08:24:30.378Z</time>
      </trkpt>
      <trkpt lat="46.8821" lon="8.54549">
        <ele>1491</ele>
        <time>2021-08-11T08:24:31.378Z</time>
      </trkpt>
      <trkpt lat="46.8821" lon="8.54549">
        <ele>1491</ele>
        <time>2021-08-11T08:24:32.378Z</time>
      </trkpt>
      <trkpt lat="46.8821" lon="8.54549">
        <ele>1491</ele>
        <time>2021-08-11T08:24:33.378Z</time>
      </trkpt>
      <trkpt lat="46.8821" lon="8.54549">
        <ele>1491</ele>
        <time>2021-08-11T08:24:34.378Z</time>
      </trkpt>
      <trkpt lat="46.88209" lon="8.54548">
        <ele>1491</ele>
        <time>2021-08-11T08:24:35.378Z</time>
      </trkpt>
      <trkpt lat="46.88208" lon="8.54547">
        <ele>1491</ele>
        <time>2021-08-11T08:24:36.378Z</time>
      </trkpt>
      <trkpt lat="46.88207" lon="8.54547">
        <ele>1491</ele>
        <time>2021-08-11T08:24:37.378Z</time>
      </trkpt>
      <trkpt lat="46.88208" lon="8.54547">
        <ele>1492</ele>
        <time>2021-08-11T08:24:38.378Z</time>
      </trkpt>
      <trkpt lat="46.88208" lon="8.54547">
        <ele>1492</ele>
        <time>2021-08-11T08:24:39.378Z</time>
      </trkpt>
      <trkpt lat="46.88209" lon="8.54548">
        <ele>1492</ele>
        <time>2021-08-11T08:24:40.378Z</time>
      </trkpt>
      <trkpt lat="46.88211" lon="8.54549">
        <ele>1492</ele>
        <time>2021-08-11T08:24:41.378Z</time>
      </trkpt>
      <trkpt lat="46.88212" lon="8.5455">
        <ele>1492</ele>
        <time>2021-08-11T08:24:42.378Z</time>
      </trkpt>
      <trkpt lat="46.88213" lon="8.5455">
        <ele>1493</ele>
        <time>2021-08-11T08:24:43.378Z</time>
      </trkpt>
      <trkpt lat="46.88214" lon="8.54549">
        <ele>1493</ele>
        <time>2021-08-11T08:24:44.378Z</time>
      </trkpt>
      <trkpt lat="46.88215" lon="8.54549">
        <ele>1493</ele>
        <time>2021-08-11T08:24:45.378Z</time>
      </trkpt>
      <trkpt lat="46.88216" lon="8.54549">
        <ele>1493</ele>
        <time>2021-08-11T08:24:46.378Z</time>
      </trkpt>
      <trkpt lat="46.88217" lon="8.54549">
        <ele>1493</ele>
        <time>2021-08-11T08:24:47.378Z</time>
      </trkpt>
      <trkpt lat="46.88217" lon="8.54549">
        <ele>1493</ele>
        <time>2021-08-11T08:24:48.379Z</time>
      </trkpt>
      <trkpt lat="46.88219" lon="8.54549">
        <ele>1493</ele>
        <time>2021-08-11T08:24:49.378Z</time>
      </trkpt>
      <trkpt lat="46.88221" lon="8.54549">
        <ele>1493</ele>
        <time>2021-08-11T08:24:50.378Z</time>
      </trkpt>
      <trkpt lat="46.88221" lon="8.54549">
        <ele>1493</ele>
        <time>2021-08-11T08:24:51.378Z</time>
      </trkpt>
      <trkpt lat="46.88223" lon="8.54549">
        <ele>1494</ele>
        <time>2021-08-11T08:24:52.378Z</time>
      </trkpt>
      <trkpt lat="46.88225" lon="8.54549">
        <ele>1494</ele>
        <time>2021-08-11T08:24:53.379Z</time>
      </trkpt>
      <trkpt lat="46.88225" lon="8.54549">
        <ele>1494</ele>
        <time>2021-08-11T08:24:54.379Z</time>
      </trkpt>
      <trkpt lat="46.88227" lon="8.54549">
        <ele>1494</ele>
        <time>2021-08-11T08:24:55.378Z</time>
      </trkpt>
      <trkpt lat="46.88228" lon="8.54549">
        <ele>1494</ele>
        <time>2021-08-11T08:24:56.378Z</time>
      </trkpt>
      <trkpt lat="46.88229" lon="8.54549">
        <ele>1494</ele>
        <time>2021-08-11T08:24:57.378Z</time>
      </trkpt>
      <trkpt lat="46.8823" lon="8.54549">
        <ele>1494</ele>
        <time>2021-08-11T08:24:58.378Z</time>
      </trkpt>
      <trkpt lat="46.8823" lon="8.54548">
        <ele>1495</ele>
        <time>2021-08-11T08:24:59.378Z</time>
      </trkpt>
      <trkpt lat="46.8823" lon="8.54548">
        <ele>1495</ele>
        <time>2021-08-11T08:25:00.378Z</time>
      </trkpt>
      <trkpt lat="46.8823" lon="8.54548">
        <ele>1495</ele>
        <time>2021-08-11T08:25:01.378Z</time>
      </trkpt>
      <trkpt lat="46.8823" lon="8.54543">
        <ele>1499</ele>
        <time>2021-08-11T08:25:02.379Z</time>
      </trkpt>
      <trkpt lat="46.8823" lon="8.54542">
        <ele>1499</ele>
        <time>2021-08-11T08:25:03.378Z</time>
      </trkpt>
      <trkpt lat="46.88231" lon="8.54543">
        <ele>1499</ele>
        <time>2021-08-11T08:25:04.378Z</time>
      </trkpt>
      <trkpt lat="46.88231" lon="8.54544">
        <ele>1499</ele>
        <time>2021-08-11T08:25:05.378Z</time>
      </trkpt>
      <trkpt lat="46.88232" lon="8.54545">
        <ele>1499</ele>
        <time>2021-08-11T08:25:06.378Z</time>
      </trkpt>
      <trkpt lat="46.88233" lon="8.54546">
        <ele>1500</ele>
        <time>2021-08-11T08:25:07.378Z</time>
      </trkpt>
      <trkpt lat="46.88234" lon="8.54547">
        <ele>1500</ele>
        <time>2021-08-11T08:25:08.378Z</time>
      </trkpt>
      <trkpt lat="46.88235" lon="8.54548">
        <ele>1500</ele>
        <time>2021-08-11T08:25:09.378Z</time>
      </trkpt>
      <trkpt lat="46.88237" lon="8.54548">
        <ele>1500</ele>
        <time>2021-08-11T08:25:10.378Z</time>
      </trkpt>
      <trkpt lat="46.88238" lon="8.54549">
        <ele>1500</ele>
        <time>2021-08-11T08:25:11.378Z</time>
      </trkpt>
      <trkpt lat="46.88239" lon="8.54549">
        <ele>1501</ele>
        <time>2021-08-11T08:25:12.379Z</time>
      </trkpt>
      <trkpt lat="46.8824" lon="8.5455">
        <ele>1501</ele>
        <time>2021-08-11T08:25:13.378Z</time>
      </trkpt>
      <trkpt lat="46.8824" lon="8.5455">
        <ele>1501</ele>
        <time>2021-08-11T08:25:14.379Z</time>
      </trkpt>
      <trkpt lat="46.88241" lon="8.5455">
        <ele>1501</ele>
        <time>2021-08-11T08:25:15.378Z</time>
      </trkpt>
      <trkpt lat="46.88243" lon="8.54551">
        <ele>1501</ele>
        <time>2021-08-11T08:25:16.379Z</time>
      </trkpt>
      <trkpt lat="46.88244" lon="8.54552">
        <ele>1501</ele>
        <time>2021-08-11T08:25:17.379Z</time>
      </trkpt>
      <trkpt lat="46.88245" lon="8.54553">
        <ele>1501</ele>
        <time>2021-08-11T08:25:18.379Z</time>
      </trkpt>
      <trkpt lat="46.88245" lon="8.54554">
        <ele>1501</ele>
        <time>2021-08-11T08:25:19.379Z</time>
      </trkpt>
      <trkpt lat="46.88246" lon="8.54555">
        <ele>1500</ele>
        <time>2021-08-11T08:25:20.378Z</time>
      </trkpt>
      <trkpt lat="46.88247" lon="8.54556">
        <ele>1500</ele>
        <time>2021-08-11T08:25:21.379Z</time>
      </trkpt>
      <trkpt lat="46.88248" lon="8.54556">
        <ele>1500</ele>
        <time>2021-08-11T08:25:22.379Z</time>
      </trkpt>
      <trkpt lat="46.88249" lon="8.54557">
        <ele>1499</ele>
        <time>2021-08-11T08:25:23.379Z</time>
      </trkpt>
      <trkpt lat="46.8825" lon="8.54558">
        <ele>1499</ele>
        <time>2021-08-11T08:25:24.378Z</time>
      </trkpt>
      <trkpt lat="46.88251" lon="8.54558">
        <ele>1498</ele>
        <time>2021-08-11T08:25:25.379Z</time>
      </trkpt>
      <trkpt lat="46.88251" lon="8.54559">
        <ele>1498</ele>
        <time>2021-08-11T08:25:26.379Z</time>
      </trkpt>
      <trkpt lat="46.88252" lon="8.54561">
        <ele>1497</ele>
        <time>2021-08-11T08:25:27.379Z</time>
      </trkpt>
      <trkpt lat="46.88253" lon="8.54562">
        <ele>1497</ele>
        <time>2021-08-11T08:25:28.379Z</time>
      </trkpt>
      <trkpt lat="46.88253" lon="8.54563">
        <ele>1497</ele>
        <time>2021-08-11T08:25:29.378Z</time>
      </trkpt>
      <trkpt lat="46.88254" lon="8.54564">
        <ele>1496</ele>
        <time>2021-08-11T08:25:30.379Z</time>
      </trkpt>
      <trkpt lat="46.88255" lon="8.54565">
        <ele>1496</ele>
        <time>2021-08-11T08:25:31.379Z</time>
      </trkpt>
      <trkpt lat="46.88255" lon="8.54567">
        <ele>1496</ele>
        <time>2021-08-11T08:25:32.379Z</time>
      </trkpt>
      <trkpt lat="46.88256" lon="8.54568">
        <ele>1495</ele>
        <time>2021-08-11T08:25:33.378Z</time>
      </trkpt>
      <trkpt lat="46.88257" lon="8.54568">
        <ele>1495</ele>
        <time>2021-08-11T08:25:34.379Z</time>
      </trkpt>
      <trkpt lat="46.88258" lon="8.54569">
        <ele>1495</ele>
        <time>2021-08-11T08:25:35.379Z</time>
      </trkpt>
      <trkpt lat="46.88259" lon="8.5457">
        <ele>1495</ele>
        <time>2021-08-11T08:25:36.379Z</time>
      </trkpt>
      <trkpt lat="46.8826" lon="8.54571">
        <ele>1495</ele>
        <time>2021-08-11T08:25:37.379Z</time>
      </trkpt>
      <trkpt lat="46.8826" lon="8.54571">
        <ele>1495</ele>
        <time>2021-08-11T08:25:38.378Z</time>
      </trkpt>
      <trkpt lat="46.8826" lon="8.54571">
        <ele>1495</ele>
        <time>2021-08-11T08:25:39.379Z</time>
      </trkpt>
      <trkpt lat="46.8826" lon="8.54571">
        <ele>1495</ele>
        <time>2021-08-11T08:25:40.379Z</time>
      </trkpt>
      <trkpt lat="46.88259" lon="8.54575">
        <ele>1496</ele>
        <time>2021-08-11T08:25:41.379Z</time>
      </trkpt>
      <trkpt lat="46.8826" lon="8.54576">
        <ele>1496</ele>
        <time>2021-08-11T08:25:42.378Z</time>
      </trkpt>
      <trkpt lat="46.88261" lon="8.54576">
        <ele>1496</ele>
        <time>2021-08-11T08:25:43.378Z</time>
      </trkpt>
      <trkpt lat="46.88262" lon="8.54576">
        <ele>1496</ele>
        <time>2021-08-11T08:25:44.378Z</time>
      </trkpt>
      <trkpt lat="46.88262" lon="8.54576">
        <ele>1496</ele>
        <time>2021-08-11T08:25:45.379Z</time>
      </trkpt>
      <trkpt lat="46.88263" lon="8.54576">
        <ele>1496</ele>
        <time>2021-08-11T08:25:46.378Z</time>
      </trkpt>
      <trkpt lat="46.88263" lon="8.54576">
        <ele>1496</ele>
        <time>2021-08-11T08:25:47.378Z</time>
      </trkpt>
      <trkpt lat="46.88263" lon="8.54576">
        <ele>1495</ele>
        <time>2021-08-11T08:25:48.379Z</time>
      </trkpt>
      <trkpt lat="46.88264" lon="8.54577">
        <ele>1495</ele>
        <time>2021-08-11T08:25:49.379Z</time>
      </trkpt>
      <trkpt lat="46.88265" lon="8.54578">
        <ele>1495</ele>
        <time>2021-08-11T08:25:50.378Z</time>
      </trkpt>
      <trkpt lat="46.88266" lon="8.54579">
        <ele>1495</ele>
        <time>2021-08-11T08:25:51.378Z</time>
      </trkpt>
      <trkpt lat="46.88267" lon="8.5458">
        <ele>1494</ele>
        <time>2021-08-11T08:25:52.379Z</time>
      </trkpt>
      <trkpt lat="46.88268" lon="8.5458">
        <ele>1494</ele>
        <time>2021-08-11T08:25:53.379Z</time>
      </trkpt>
      <trkpt lat="46.88269" lon="8.54581">
        <ele>1495</ele>
        <time>2021-08-11T08:25:54.379Z</time>
      </trkpt>
      <trkpt lat="46.8827" lon="8.54581">
        <ele>1494</ele>
        <time>2021-08-11T08:25:55.378Z</time>
      </trkpt>
      <trkpt lat="46.88271" lon="8.54581">
        <ele>1494</ele>
        <time>2021-08-11T08:25:56.379Z</time>
      </trkpt>
      <trkpt lat="46.88272" lon="8.54582">
        <ele>1494</ele>
        <time>2021-08-11T08:25:57.379Z</time>
      </trkpt>
      <trkpt lat="46.88273" lon="8.54582">
        <ele>1494</ele>
        <time>2021-08-11T08:25:58.379Z</time>
      </trkpt>
      <trkpt lat="46.88274" lon="8.54583">
        <ele>1494</ele>
        <time>2021-08-11T08:25:59.379Z</time>
      </trkpt>
      <trkpt lat="46.88275" lon="8.54583">
        <ele>1493</ele>
        <time>2021-08-11T08:26:00.378Z</time>
      </trkpt>
      <trkpt lat="46.88276" lon="8.54584">
        <ele>1493</ele>
        <time>2021-08-11T08:26:01.379Z</time>
      </trkpt>
      <trkpt lat="46.88277" lon="8.54585">
        <ele>1493</ele>
        <time>2021-08-11T08:26:02.379Z</time>
      </trkpt>
      <trkpt lat="46.88278" lon="8.54586">
        <ele>1493</ele>
        <time>2021-08-11T08:26:03.379Z</time>
      </trkpt>
      <trkpt lat="46.88279" lon="8.54587">
        <ele>1493</ele>
        <time>2021-08-11T08:26:04.378Z</time>
      </trkpt>
      <trkpt lat="46.8828" lon="8.54587">
        <ele>1493</ele>
        <time>2021-08-11T08:26:05.379Z</time>
      </trkpt>
      <trkpt lat="46.88281" lon="8.54588">
        <ele>1493</ele>
        <time>2021-08-11T08:26:06.379Z</time>
      </trkpt>
      <trkpt lat="46.88282" lon="8.54588">
        <ele>1494</ele>
        <time>2021-08-11T08:26:07.379Z</time>
      </trkpt>
      <trkpt lat="46.88284" lon="8.54589">
        <ele>1494</ele>
        <time>2021-08-11T08:26:08.379Z</time>
      </trkpt>
      <trkpt lat="46.88285" lon="8.54589">
        <ele>1495</ele>
        <time>2021-08-11T08:26:09.378Z</time>
      </trkpt>
      <trkpt lat="46.88286" lon="8.5459">
        <ele>1495</ele>
        <time>2021-08-11T08:26:10.379Z</time>
      </trkpt>
      <trkpt lat="46.88287" lon="8.5459">
        <ele>1494</ele>
        <time>2021-08-11T08:26:11.379Z</time>
      </trkpt>
      <trkpt lat="46.88288" lon="8.54591">
        <ele>1494</ele>
        <time>2021-08-11T08:26:12.379Z</time>
      </trkpt>
      <trkpt lat="46.88289" lon="8.54592">
        <ele>1494</ele>
        <time>2021-08-11T08:26:13.378Z</time>
      </trkpt>
      <trkpt lat="46.8829" lon="8.54592">
        <ele>1494</ele>
        <time>2021-08-11T08:26:14.379Z</time>
      </trkpt>
      <trkpt lat="46.88291" lon="8.54593">
        <ele>1493</ele>
        <time>2021-08-11T08:26:15.378Z</time>
      </trkpt>
      <trkpt lat="46.88292" lon="8.54593">
        <ele>1493</ele>
        <time>2021-08-11T08:26:16.379Z</time>
      </trkpt>
      <trkpt lat="46.88294" lon="8.54594">
        <ele>1494</ele>
        <time>2021-08-11T08:26:17.379Z</time>
      </trkpt>
      <trkpt lat="46.88295" lon="8.54594">
        <ele>1494</ele>
        <time>2021-08-11T08:26:18.379Z</time>
      </trkpt>
      <trkpt lat="46.88296" lon="8.54596">
        <ele>1494</ele>
        <time>2021-08-11T08:26:19.379Z</time>
      </trkpt>
      <trkpt lat="46.88296" lon="8.54597">
        <ele>1495</ele>
        <time>2021-08-11T08:26:20.379Z</time>
      </trkpt>
      <trkpt lat="46.88297" lon="8.54598">
        <ele>1495</ele>
        <time>2021-08-11T08:26:21.379Z</time>
      </trkpt>
      <trkpt lat="46.88298" lon="8.54599">
        <ele>1495</ele>
        <time>2021-08-11T08:26:22.379Z</time>
      </trkpt>
      <trkpt lat="46.88299" lon="8.54599">
        <ele>1495</ele>
        <time>2021-08-11T08:26:23.378Z</time>
      </trkpt>
      <trkpt lat="46.883" lon="8.546">
        <ele>1494</ele>
        <time>2021-08-11T08:26:24.378Z</time>
      </trkpt>
      <trkpt lat="46.88301" lon="8.546">
        <ele>1494</ele>
        <time>2021-08-11T08:26:25.378Z</time>
      </trkpt>
      <trkpt lat="46.88302" lon="8.54601">
        <ele>1494</ele>
        <time>2021-08-11T08:26:26.378Z</time>
      </trkpt>
      <trkpt lat="46.88303" lon="8.54601">
        <ele>1494</ele>
        <time>2021-08-11T08:26:27.378Z</time>
      </trkpt>
      <trkpt lat="46.88304" lon="8.54601">
        <ele>1494</ele>
        <time>2021-08-11T08:26:28.379Z</time>
      </trkpt>
      <trkpt lat="46.88305" lon="8.54601">
        <ele>1494</ele>
        <time>2021-08-11T08:26:29.378Z</time>
      </trkpt>
      <trkpt lat="46.88306" lon="8.54601">
        <ele>1494</ele>
        <time>2021-08-11T08:26:30.378Z</time>
      </trkpt>
      <trkpt lat="46.88307" lon="8.54601">
        <ele>1495</ele>
        <time>2021-08-11T08:26:31.378Z</time>
      </trkpt>
      <trkpt lat="46.88308" lon="8.54601">
        <ele>1495</ele>
        <time>2021-08-11T08:26:32.379Z</time>
      </trkpt>
      <trkpt lat="46.88309" lon="8.54601">
        <ele>1495</ele>
        <time>2021-08-11T08:26:33.378Z</time>
      </trkpt>
      <trkpt lat="46.8831" lon="8.54601">
        <ele>1495</ele>
        <time>2021-08-11T08:26:34.378Z</time>
      </trkpt>
      <trkpt lat="46.8831" lon="8.54601">
        <ele>1495</ele>
        <time>2021-08-11T08:26:35.379Z</time>
      </trkpt>
      <trkpt lat="46.88311" lon="8.54601">
        <ele>1495</ele>
        <time>2021-08-11T08:26:36.379Z</time>
      </trkpt>
      <trkpt lat="46.88312" lon="8.54601">
        <ele>1495</ele>
        <time>2021-08-11T08:26:37.379Z</time>
      </trkpt>
      <trkpt lat="46.88313" lon="8.54601">
        <ele>1495</ele>
        <time>2021-08-11T08:26:38.378Z</time>
      </trkpt>
      <trkpt lat="46.88314" lon="8.546">
        <ele>1495</ele>
        <time>2021-08-11T08:26:39.379Z</time>
      </trkpt>
      <trkpt lat="46.88315" lon="8.546">
        <ele>1495</ele>
        <time>2021-08-11T08:26:40.379Z</time>
      </trkpt>
      <trkpt lat="46.88316" lon="8.546">
        <ele>1494</ele>
        <time>2021-08-11T08:26:41.379Z</time>
      </trkpt>
      <trkpt lat="46.88317" lon="8.54599">
        <ele>1494</ele>
        <time>2021-08-11T08:26:42.378Z</time>
      </trkpt>
      <trkpt lat="46.88318" lon="8.54599">
        <ele>1494</ele>
        <time>2021-08-11T08:26:43.379Z</time>
      </trkpt>
      <trkpt lat="46.88318" lon="8.54598">
        <ele>1494</ele>
        <time>2021-08-11T08:26:44.378Z</time>
      </trkpt>
      <trkpt lat="46.88319" lon="8.54598">
        <ele>1493</ele>
        <time>2021-08-11T08:26:45.379Z</time>
      </trkpt>
      <trkpt lat="46.8832" lon="8.54597">
        <ele>1493</ele>
        <time>2021-08-11T08:26:46.378Z</time>
      </trkpt>
      <trkpt lat="46.88321" lon="8.54597">
        <ele>1493</ele>
        <time>2021-08-11T08:26:47.379Z</time>
      </trkpt>
      <trkpt lat="46.88322" lon="8.54596">
        <ele>1492</ele>
        <time>2021-08-11T08:26:48.378Z</time>
      </trkpt>
      <trkpt lat="46.88323" lon="8.54596">
        <ele>1492</ele>
        <time>2021-08-11T08:26:49.379Z</time>
      </trkpt>
      <trkpt lat="46.88323" lon="8.54595">
        <ele>1492</ele>
        <time>2021-08-11T08:26:50.379Z</time>
      </trkpt>
      <trkpt lat="46.88324" lon="8.54594">
        <ele>1492</ele>
        <time>2021-08-11T08:26:51.379Z</time>
      </trkpt>
      <trkpt lat="46.88324" lon="8.54593">
        <ele>1492</ele>
        <time>2021-08-11T08:26:52.379Z</time>
      </trkpt>
      <trkpt lat="46.88324" lon="8.54592">
        <ele>1492</ele>
        <time>2021-08-11T08:26:53.379Z</time>
      </trkpt>
      <trkpt lat="46.88325" lon="8.54591">
        <ele>1492</ele>
        <time>2021-08-11T08:26:54.378Z</time>
      </trkpt>
      <trkpt lat="46.88324" lon="8.5459">
        <ele>1492</ele>
        <time>2021-08-11T08:26:55.378Z</time>
      </trkpt>
      <trkpt lat="46.88324" lon="8.54589">
        <ele>1492</ele>
        <time>2021-08-11T08:26:56.378Z</time>
      </trkpt>
      <trkpt lat="46.88324" lon="8.54587">
        <ele>1492</ele>
        <time>2021-08-11T08:26:57.378Z</time>
      </trkpt>
      <trkpt lat="46.88323" lon="8.54586">
        <ele>1492</ele>
        <time>2021-08-11T08:26:58.379Z</time>
      </trkpt>
      <trkpt lat="46.88323" lon="8.54585">
        <ele>1493</ele>
        <time>2021-08-11T08:26:59.379Z</time>
      </trkpt>
      <trkpt lat="46.88322" lon="8.54585">
        <ele>1493</ele>
        <time>2021-08-11T08:27:00.379Z</time>
      </trkpt>
      <trkpt lat="46.88321" lon="8.54584">
        <ele>1493</ele>
        <time>2021-08-11T08:27:01.379Z</time>
      </trkpt>
      <trkpt lat="46.88321" lon="8.54583">
        <ele>1494</ele>
        <time>2021-08-11T08:27:02.379Z</time>
      </trkpt>
      <trkpt lat="46.8832" lon="8.54582">
        <ele>1494</ele>
        <time>2021-08-11T08:27:03.379Z</time>
      </trkpt>
      <trkpt lat="46.88319" lon="8.54581">
        <ele>1494</ele>
        <time>2021-08-11T08:27:04.379Z</time>
      </trkpt>
      <trkpt lat="46.88318" lon="8.54581">
        <ele>1494</ele>
        <time>2021-08-11T08:27:05.379Z</time>
      </trkpt>
      <trkpt lat="46.88317" lon="8.5458">
        <ele>1495</ele>
        <time>2021-08-11T08:27:06.379Z</time>
      </trkpt>
      <trkpt lat="46.88317" lon="8.5458">
        <ele>1495</ele>
        <time>2021-08-11T08:27:07.379Z</time>
      </trkpt>
      <trkpt lat="46.88316" lon="8.5458">
        <ele>1496</ele>
        <time>2021-08-11T08:27:08.379Z</time>
      </trkpt>
      <trkpt lat="46.88315" lon="8.54579">
        <ele>1497</ele>
        <time>2021-08-11T08:27:09.379Z</time>
      </trkpt>
      <trkpt lat="46.88315" lon="8.54579">
        <ele>1497</ele>
        <time>2021-08-11T08:27:10.379Z</time>
      </trkpt>
      <trkpt lat="46.88314" lon="8.54578">
        <ele>1498</ele>
        <time>2021-08-11T08:27:11.379Z</time>
      </trkpt>
      <trkpt lat="46.88313" lon="8.54577">
        <ele>1498</ele>
        <time>2021-08-11T08:27:12.379Z</time>
      </trkpt>
      <trkpt lat="46.88313" lon="8.54577">
        <ele>1499</ele>
        <time>2021-08-11T08:27:13.379Z</time>
      </trkpt>
      <trkpt lat="46.88312" lon="8.54576">
        <ele>1499</ele>
        <time>2021-08-11T08:27:14.379Z</time>
      </trkpt>
      <trkpt lat="46.88312" lon="8.54576">
        <ele>1500</ele>
        <time>2021-08-11T08:27:15.378Z</time>
      </trkpt>
      <trkpt lat="46.88311" lon="8.54575">
        <ele>1500</ele>
        <time>2021-08-11T08:27:16.378Z</time>
      </trkpt>
      <trkpt lat="46.88311" lon="8.54575">
        <ele>1500</ele>
        <time>2021-08-11T08:27:17.379Z</time>
      </trkpt>
      <trkpt lat="46.8831" lon="8.54574">
        <ele>1500</ele>
        <time>2021-08-11T08:27:18.378Z</time>
      </trkpt>
      <trkpt lat="46.8831" lon="8.54574">
        <ele>1500</ele>
        <time>2021-08-11T08:27:19.379Z</time>
      </trkpt>
      <trkpt lat="46.8831" lon="8.54574">
        <ele>1500</ele>
        <time>2021-08-11T08:27:20.379Z</time>
      </trkpt>
      <trkpt lat="46.88309" lon="8.54574">
        <ele>1501</ele>
        <time>2021-08-11T08:27:21.379Z</time>
      </trkpt>
      <trkpt lat="46.88308" lon="8.54574">
        <ele>1501</ele>
        <time>2021-08-11T08:27:22.378Z</time>
      </trkpt>
      <trkpt lat="46.88308" lon="8.54573">
        <ele>1501</ele>
        <time>2021-08-11T08:27:23.379Z</time>
      </trkpt>
      <trkpt lat="46.88307" lon="8.54573">
        <ele>1501</ele>
        <time>2021-08-11T08:27:24.379Z</time>
      </trkpt>
      <trkpt lat="46.88307" lon="8.54573">
        <ele>1501</ele>
        <time>2021-08-11T08:27:25.379Z</time>
      </trkpt>
      <trkpt lat="46.88306" lon="8.54572">
        <ele>1501</ele>
        <time>2021-08-11T08:27:26.378Z</time>
      </trkpt>
      <trkpt lat="46.88305" lon="8.54572">
        <ele>1501</ele>
        <time>2021-08-11T08:27:27.379Z</time>
      </trkpt>
      <trkpt lat="46.88305" lon="8.54571">
        <ele>1501</ele>
        <time>2021-08-11T08:27:28.379Z</time>
      </trkpt>
      <trkpt lat="46.88304" lon="8.5457">
        <ele>1501</ele>
        <time>2021-08-11T08:27:29.378Z</time>
      </trkpt>
      <trkpt lat="46.88304" lon="8.5457">
        <ele>1502</ele>
        <time>2021-08-11T08:27:30.379Z</time>
      </trkpt>
      <trkpt lat="46.88303" lon="8.54569">
        <ele>1502</ele>
        <time>2021-08-11T08:27:31.379Z</time>
      </trkpt>
      <trkpt lat="46.88303" lon="8.54568">
        <ele>1502</ele>
        <time>2021-08-11T08:27:32.379Z</time>
      </trkpt>
      <trkpt lat="46.88303" lon="8.54568">
        <ele>1502</ele>
        <time>2021-08-11T08:27:33.379Z</time>
      </trkpt>
      <trkpt lat="46.88302" lon="8.54567">
        <ele>1503</ele>
        <time>2021-08-11T08:27:34.378Z</time>
      </trkpt>
      <trkpt lat="46.88302" lon="8.54566">
        <ele>1503</ele>
        <time>2021-08-11T08:27:35.379Z</time>
      </trkpt>
      <trkpt lat="46.88302" lon="8.54565">
        <ele>1503</ele>
        <time>2021-08-11T08:27:36.379Z</time>
      </trkpt>
      <trkpt lat="46.88302" lon="8.54564">
        <ele>1503</ele>
        <time>2021-08-11T08:27:37.379Z</time>
      </trkpt>
      <trkpt lat="46.88301" lon="8.54563">
        <ele>1503</ele>
        <time>2021-08-11T08:27:38.379Z</time>
      </trkpt>
      <trkpt lat="46.88301" lon="8.54562">
        <ele>1503</ele>
        <time>2021-08-11T08:27:39.379Z</time>
      </trkpt>
      <trkpt lat="46.88301" lon="8.54561">
        <ele>1504</ele>
        <time>2021-08-11T08:27:40.379Z</time>
      </trkpt>
      <trkpt lat="46.883" lon="8.5456">
        <ele>1504</ele>
        <time>2021-08-11T08:27:41.379Z</time>
      </trkpt>
      <trkpt lat="46.883" lon="8.54559">
        <ele>1504</ele>
        <time>2021-08-11T08:27:42.379Z</time>
      </trkpt>
      <trkpt lat="46.88299" lon="8.54558">
        <ele>1505</ele>
        <time>2021-08-11T08:27:43.379Z</time>
      </trkpt>
      <trkpt lat="46.88299" lon="8.54557">
        <ele>1505</ele>
        <time>2021-08-11T08:27:44.379Z</time>
      </trkpt>
      <trkpt lat="46.88299" lon="8.54556">
        <ele>1505</ele>
        <time>2021-08-11T08:27:45.379Z</time>
      </trkpt>
      <trkpt lat="46.88299" lon="8.54555">
        <ele>1505</ele>
        <time>2021-08-11T08:27:46.379Z</time>
      </trkpt>
      <trkpt lat="46.883" lon="8.54554">
        <ele>1505</ele>
        <time>2021-08-11T08:27:47.378Z</time>
      </trkpt>
      <trkpt lat="46.88299" lon="8.54553">
        <ele>1505</ele>
        <time>2021-08-11T08:27:48.378Z</time>
      </trkpt>
      <trkpt lat="46.88299" lon="8.54553">
        <ele>1505</ele>
        <time>2021-08-11T08:27:49.379Z</time>
      </trkpt>
      <trkpt lat="46.88299" lon="8.54552">
        <ele>1505</ele>
        <time>2021-08-11T08:27:50.379Z</time>
      </trkpt>
      <trkpt lat="46.88299" lon="8.54551">
        <ele>1505</ele>
        <time>2021-08-11T08:27:51.379Z</time>
      </trkpt>
      <trkpt lat="46.88299" lon="8.5455">
        <ele>1505</ele>
        <time>2021-08-11T08:27:52.378Z</time>
      </trkpt>
      <trkpt lat="46.88298" lon="8.54549">
        <ele>1505</ele>
        <time>2021-08-11T08:27:53.379Z</time>
      </trkpt>
      <trkpt lat="46.88298" lon="8.54548">
        <ele>1506</ele>
        <time>2021-08-11T08:27:54.379Z</time>
      </trkpt>
      <trkpt lat="46.88298" lon="8.54547">
        <ele>1506</ele>
        <time>2021-08-11T08:27:55.378Z</time>
      </trkpt>
      <trkpt lat="46.88298" lon="8.54547">
        <ele>1506</ele>
        <time>2021-08-11T08:27:56.378Z</time>
      </trkpt>
      <trkpt lat="46.88298" lon="8.54546">
        <ele>1507</ele>
        <time>2021-08-11T08:27:57.378Z</time>
      </trkpt>
      <trkpt lat="46.88297" lon="8.54545">
        <ele>1507</ele>
        <time>2021-08-11T08:27:58.379Z</time>
      </trkpt>
      <trkpt lat="46.88297" lon="8.54544">
        <ele>1507</ele>
        <time>2021-08-11T08:27:59.379Z</time>
      </trkpt>
      <trkpt lat="46.88297" lon="8.54542">
        <ele>1507</ele>
        <time>2021-08-11T08:28:00.379Z</time>
      </trkpt>
      <trkpt lat="46.88297" lon="8.54541">
        <ele>1507</ele>
        <time>2021-08-11T08:28:01.378Z</time>
      </trkpt>
      <trkpt lat="46.88297" lon="8.5454">
        <ele>1507</ele>
        <time>2021-08-11T08:28:02.378Z</time>
      </trkpt>
      <trkpt lat="46.88297" lon="8.5454">
        <ele>1507</ele>
        <time>2021-08-11T08:28:03.379Z</time>
      </trkpt>
      <trkpt lat="46.88297" lon="8.54539">
        <ele>1508</ele>
        <time>2021-08-11T08:28:04.379Z</time>
      </trkpt>
      <trkpt lat="46.88297" lon="8.54538">
        <ele>1509</ele>
        <time>2021-08-11T08:28:05.379Z</time>
      </trkpt>
      <trkpt lat="46.88298" lon="8.54538">
        <ele>1510</ele>
        <time>2021-08-11T08:28:06.379Z</time>
      </trkpt>
      <trkpt lat="46.88298" lon="8.54537">
        <ele>1510</ele>
        <time>2021-08-11T08:28:07.378Z</time>
      </trkpt>
      <trkpt lat="46.88298" lon="8.54536">
        <ele>1511</ele>
        <time>2021-08-11T08:28:08.379Z</time>
      </trkpt>
      <trkpt lat="46.88297" lon="8.54536">
        <ele>1511</ele>
        <time>2021-08-11T08:28:09.379Z</time>
      </trkpt>
      <trkpt lat="46.88297" lon="8.54535">
        <ele>1511</ele>
        <time>2021-08-11T08:28:10.379Z</time>
      </trkpt>
      <trkpt lat="46.88296" lon="8.54534">
        <ele>1511</ele>
        <time>2021-08-11T08:28:11.379Z</time>
      </trkpt>
      <trkpt lat="46.88296" lon="8.54533">
        <ele>1511</ele>
        <time>2021-08-11T08:28:12.378Z</time>
      </trkpt>
      <trkpt lat="46.88295" lon="8.54532">
        <ele>1511</ele>
        <time>2021-08-11T08:28:13.378Z</time>
      </trkpt>
      <trkpt lat="46.88295" lon="8.54532">
        <ele>1512</ele>
        <time>2021-08-11T08:28:14.379Z</time>
      </trkpt>
      <trkpt lat="46.88294" lon="8.54531">
        <ele>1512</ele>
        <time>2021-08-11T08:28:15.379Z</time>
      </trkpt>
      <trkpt lat="46.88294" lon="8.5453">
        <ele>1512</ele>
        <time>2021-08-11T08:28:16.379Z</time>
      </trkpt>
      <trkpt lat="46.88294" lon="8.5453">
        <ele>1512</ele>
        <time>2021-08-11T08:28:17.378Z</time>
      </trkpt>
      <trkpt lat="46.88295" lon="8.5453">
        <ele>1513</ele>
        <time>2021-08-11T08:28:18.378Z</time>
      </trkpt>
      <trkpt lat="46.88294" lon="8.54529">
        <ele>1513</ele>
        <time>2021-08-11T08:28:19.379Z</time>
      </trkpt>
      <trkpt lat="46.88295" lon="8.54529">
        <ele>1513</ele>
        <time>2021-08-11T08:28:20.379Z</time>
      </trkpt>
      <trkpt lat="46.88295" lon="8.54528">
        <ele>1513</ele>
        <time>2021-08-11T08:28:21.379Z</time>
      </trkpt>
      <trkpt lat="46.88295" lon="8.54527">
        <ele>1513</ele>
        <time>2021-08-11T08:28:22.378Z</time>
      </trkpt>
      <trkpt lat="46.88295" lon="8.54526">
        <ele>1513</ele>
        <time>2021-08-11T08:28:23.378Z</time>
      </trkpt>
      <trkpt lat="46.88295" lon="8.54525">
        <ele>1513</ele>
        <time>2021-08-11T08:28:24.379Z</time>
      </trkpt>
      <trkpt lat="46.88296" lon="8.54525">
        <ele>1513</ele>
        <time>2021-08-11T08:28:25.379Z</time>
      </trkpt>
      <trkpt lat="46.88296" lon="8.54524">
        <ele>1513</ele>
        <time>2021-08-11T08:28:26.379Z</time>
      </trkpt>
      <trkpt lat="46.88296" lon="8.54523">
        <ele>1513</ele>
        <time>2021-08-11T08:28:27.379Z</time>
      </trkpt>
      <trkpt lat="46.88296" lon="8.54522">
        <ele>1513</ele>
        <time>2021-08-11T08:28:28.379Z</time>
      </trkpt>
      <trkpt lat="46.88296" lon="8.54521">
        <ele>1513</ele>
        <time>2021-08-11T08:28:29.379Z</time>
      </trkpt>
      <trkpt lat="46.88296" lon="8.5452">
        <ele>1513</ele>
        <time>2021-08-11T08:28:30.379Z</time>
      </trkpt>
      <trkpt lat="46.88296" lon="8.5452">
        <ele>1513</ele>
        <time>2021-08-11T08:28:31.379Z</time>
      </trkpt>
      <trkpt lat="46.88296" lon="8.54519">
        <ele>1513</ele>
        <time>2021-08-11T08:28:32.379Z</time>
      </trkpt>
      <trkpt lat="46.88296" lon="8.54518">
        <ele>1513</ele>
        <time>2021-08-11T08:28:33.378Z</time>
      </trkpt>
      <trkpt lat="46.88296" lon="8.54518">
        <ele>1512</ele>
        <time>2021-08-11T08:28:34.379Z</time>
      </trkpt>
      <trkpt lat="46.88296" lon="8.54517">
        <ele>1512</ele>
        <time>2021-08-11T08:28:35.379Z</time>
      </trkpt>
      <trkpt lat="46.88296" lon="8.54517">
        <ele>1511</ele>
        <time>2021-08-11T08:28:36.379Z</time>
      </trkpt>
      <trkpt lat="46.88297" lon="8.54516">
        <ele>1511</ele>
        <time>2021-08-11T08:28:37.379Z</time>
      </trkpt>
      <trkpt lat="46.88297" lon="8.54516">
        <ele>1512</ele>
        <time>2021-08-11T08:28:38.379Z</time>
      </trkpt>
      <trkpt lat="46.88298" lon="8.54516">
        <ele>1512</ele>
        <time>2021-08-11T08:28:39.378Z</time>
      </trkpt>
      <trkpt lat="46.88299" lon="8.54516">
        <ele>1513</ele>
        <time>2021-08-11T08:28:40.379Z</time>
      </trkpt>
      <trkpt lat="46.883" lon="8.54516">
        <ele>1513</ele>
        <time>2021-08-11T08:28:41.378Z</time>
      </trkpt>
      <trkpt lat="46.883" lon="8.54516">
        <ele>1514</ele>
        <time>2021-08-11T08:28:42.379Z</time>
      </trkpt>
      <trkpt lat="46.88301" lon="8.54516">
        <ele>1514</ele>
        <time>2021-08-11T08:28:43.379Z</time>
      </trkpt>
      <trkpt lat="46.88302" lon="8.54516">
        <ele>1514</ele>
        <time>2021-08-11T08:28:44.379Z</time>
      </trkpt>
      <trkpt lat="46.88303" lon="8.54516">
        <ele>1514</ele>
        <time>2021-08-11T08:28:45.378Z</time>
      </trkpt>
      <trkpt lat="46.88303" lon="8.54516">
        <ele>1515</ele>
        <time>2021-08-11T08:28:46.379Z</time>
      </trkpt>
      <trkpt lat="46.88303" lon="8.54515">
        <ele>1515</ele>
        <time>2021-08-11T08:28:47.379Z</time>
      </trkpt>
      <trkpt lat="46.88304" lon="8.54514">
        <ele>1515</ele>
        <time>2021-08-11T08:28:48.378Z</time>
      </trkpt>
      <trkpt lat="46.88303" lon="8.54514">
        <ele>1515</ele>
        <time>2021-08-11T08:28:49.378Z</time>
      </trkpt>
      <trkpt lat="46.88303" lon="8.54513">
        <ele>1515</ele>
        <time>2021-08-11T08:28:50.379Z</time>
      </trkpt>
      <trkpt lat="46.88303" lon="8.54512">
        <ele>1515</ele>
        <time>2021-08-11T08:28:51.379Z</time>
      </trkpt>
      <trkpt lat="46.88302" lon="8.54511">
        <ele>1515</ele>
        <time>2021-08-11T08:28:52.379Z</time>
      </trkpt>
      <trkpt lat="46.88302" lon="8.5451">
        <ele>1515</ele>
        <time>2021-08-11T08:28:53.378Z</time>
      </trkpt>
      <trkpt lat="46.88301" lon="8.54509">
        <ele>1515</ele>
        <time>2021-08-11T08:28:54.378Z</time>
      </trkpt>
      <trkpt lat="46.883" lon="8.54509">
        <ele>1515</ele>
        <time>2021-08-11T08:28:55.378Z</time>
      </trkpt>
      <trkpt lat="46.883" lon="8.54508">
        <ele>1514</ele>
        <time>2021-08-11T08:28:56.379Z</time>
      </trkpt>
      <trkpt lat="46.883" lon="8.54507">
        <ele>1514</ele>
        <time>2021-08-11T08:28:57.378Z</time>
      </trkpt>
      <trkpt lat="46.88299" lon="8.54507">
        <ele>1515</ele>
        <time>2021-08-11T08:28:58.379Z</time>
      </trkpt>
      <trkpt lat="46.88299" lon="8.54506">
        <ele>1515</ele>
        <time>2021-08-11T08:28:59.379Z</time>
      </trkpt>
      <trkpt lat="46.88299" lon="8.54505">
        <ele>1516</ele>
        <time>2021-08-11T08:29:00.379Z</time>
      </trkpt>
      <trkpt lat="46.88299" lon="8.54505">
        <ele>1516</ele>
        <time>2021-08-11T08:29:01.378Z</time>
      </trkpt>
      <trkpt lat="46.88298" lon="8.54504">
        <ele>1517</ele>
        <time>2021-08-11T08:29:02.378Z</time>
      </trkpt>
      <trkpt lat="46.88298" lon="8.54504">
        <ele>1517</ele>
        <time>2021-08-11T08:29:03.379Z</time>
      </trkpt>
      <trkpt lat="46.88298" lon="8.54503">
        <ele>1516</ele>
        <time>2021-08-11T08:29:04.379Z</time>
      </trkpt>
      <trkpt lat="46.88297" lon="8.54502">
        <ele>1516</ele>
        <time>2021-08-11T08:29:05.379Z</time>
      </trkpt>
      <trkpt lat="46.88297" lon="8.54502">
        <ele>1516</ele>
        <time>2021-08-11T08:29:06.379Z</time>
      </trkpt>
      <trkpt lat="46.88297" lon="8.54501">
        <ele>1516</ele>
        <time>2021-08-11T08:29:07.379Z</time>
      </trkpt>
      <trkpt lat="46.88297" lon="8.54501">
        <ele>1516</ele>
        <time>2021-08-11T08:29:08.378Z</time>
      </trkpt>
      <trkpt lat="46.88296" lon="8.545">
        <ele>1516</ele>
        <time>2021-08-11T08:29:09.379Z</time>
      </trkpt>
      <trkpt lat="46.88296" lon="8.545">
        <ele>1516</ele>
        <time>2021-08-11T08:29:10.379Z</time>
      </trkpt>
      <trkpt lat="46.88296" lon="8.54499">
        <ele>1516</ele>
        <time>2021-08-11T08:29:11.379Z</time>
      </trkpt>
      <trkpt lat="46.88295" lon="8.54498">
        <ele>1517</ele>
        <time>2021-08-11T08:29:12.378Z</time>
      </trkpt>
      <trkpt lat="46.88295" lon="8.54498">
        <ele>1517</ele>
        <time>2021-08-11T08:29:13.378Z</time>
      </trkpt>
      <trkpt lat="46.88295" lon="8.54497">
        <ele>1517</ele>
        <time>2021-08-11T08:29:14.379Z</time>
      </trkpt>
      <trkpt lat="46.88295" lon="8.54496">
        <ele>1518</ele>
        <time>2021-08-11T08:29:15.379Z</time>
      </trkpt>
      <trkpt lat="46.88294" lon="8.54495">
        <ele>1518</ele>
        <time>2021-08-11T08:29:16.379Z</time>
      </trkpt>
      <trkpt lat="46.88294" lon="8.54494">
        <ele>1518</ele>
        <time>2021-08-11T08:29:17.378Z</time>
      </trkpt>
      <trkpt lat="46.88293" lon="8.54493">
        <ele>1519</ele>
        <time>2021-08-11T08:29:18.378Z</time>
      </trkpt>
      <trkpt lat="46.88293" lon="8.54491">
        <ele>1519</ele>
        <time>2021-08-11T08:29:19.379Z</time>
      </trkpt>
      <trkpt lat="46.88292" lon="8.54491">
        <ele>1520</ele>
        <time>2021-08-11T08:29:20.379Z</time>
      </trkpt>
      <trkpt lat="46.88292" lon="8.5449">
        <ele>1520</ele>
        <time>2021-08-11T08:29:21.379Z</time>
      </trkpt>
      <trkpt lat="46.88291" lon="8.54489">
        <ele>1521</ele>
        <time>2021-08-11T08:29:22.378Z</time>
      </trkpt>
      <trkpt lat="46.88291" lon="8.54488">
        <ele>1521</ele>
        <time>2021-08-11T08:29:23.379Z</time>
      </trkpt>
      <trkpt lat="46.8829" lon="8.54488">
        <ele>1522</ele>
        <time>2021-08-11T08:29:24.379Z</time>
      </trkpt>
      <trkpt lat="46.8829" lon="8.54487">
        <ele>1522</ele>
        <time>2021-08-11T08:29:25.379Z</time>
      </trkpt>
      <trkpt lat="46.8829" lon="8.54487">
        <ele>1522</ele>
        <time>2021-08-11T08:29:26.379Z</time>
      </trkpt>
      <trkpt lat="46.8829" lon="8.54486">
        <ele>1522</ele>
        <time>2021-08-11T08:29:27.378Z</time>
      </trkpt>
      <trkpt lat="46.88289" lon="8.54486">
        <ele>1522</ele>
        <time>2021-08-11T08:29:28.378Z</time>
      </trkpt>
      <trkpt lat="46.88289" lon="8.54485">
        <ele>1522</ele>
        <time>2021-08-11T08:29:29.378Z</time>
      </trkpt>
      <trkpt lat="46.88288" lon="8.54485">
        <ele>1522</ele>
        <time>2021-08-11T08:29:30.379Z</time>
      </trkpt>
      <trkpt lat="46.88288" lon="8.54484">
        <ele>1522</ele>
        <time>2021-08-11T08:29:31.379Z</time>
      </trkpt>
      <trkpt lat="46.88287" lon="8.54483">
        <ele>1522</ele>
        <time>2021-08-11T08:29:32.378Z</time>
      </trkpt>
      <trkpt lat="46.88287" lon="8.54483">
        <ele>1522</ele>
        <time>2021-08-11T08:29:33.378Z</time>
      </trkpt>
      <trkpt lat="46.88287" lon="8.54483">
        <ele>1522</ele>
        <time>2021-08-11T08:29:34.379Z</time>
      </trkpt>
      <trkpt lat="46.88287" lon="8.54482">
        <ele>1523</ele>
        <time>2021-08-11T08:29:35.378Z</time>
      </trkpt>
      <trkpt lat="46.88286" lon="8.54482">
        <ele>1523</ele>
        <time>2021-08-11T08:29:36.378Z</time>
      </trkpt>
      <trkpt lat="46.88286" lon="8.54481">
        <ele>1524</ele>
        <time>2021-08-11T08:29:37.378Z</time>
      </trkpt>
      <trkpt lat="46.88286" lon="8.5448">
        <ele>1524</ele>
        <time>2021-08-11T08:29:38.378Z</time>
      </trkpt>
      <trkpt lat="46.88285" lon="8.5448">
        <ele>1524</ele>
        <time>2021-08-11T08:29:39.378Z</time>
      </trkpt>
      <trkpt lat="46.88285" lon="8.54479">
        <ele>1524</ele>
        <time>2021-08-11T08:29:40.379Z</time>
      </trkpt>
      <trkpt lat="46.88285" lon="8.54479">
        <ele>1524</ele>
        <time>2021-08-11T08:29:41.379Z</time>
      </trkpt>
      <trkpt lat="46.88285" lon="8.54478">
        <ele>1525</ele>
        <time>2021-08-11T08:29:42.378Z</time>
      </trkpt>
      <trkpt lat="46.88284" lon="8.54478">
        <ele>1525</ele>
        <time>2021-08-11T08:29:43.378Z</time>
      </trkpt>
      <trkpt lat="46.88284" lon="8.54477">
        <ele>1525</ele>
        <time>2021-08-11T08:29:44.378Z</time>
      </trkpt>
      <trkpt lat="46.88283" lon="8.54477">
        <ele>1525</ele>
        <time>2021-08-11T08:29:45.379Z</time>
      </trkpt>
      <trkpt lat="46.88283" lon="8.54476">
        <ele>1525</ele>
        <time>2021-08-11T08:29:46.378Z</time>
      </trkpt>
      <trkpt lat="46.88283" lon="8.54476">
        <ele>1525</ele>
        <time>2021-08-11T08:29:47.378Z</time>
      </trkpt>
      <trkpt lat="46.88282" lon="8.54475">
        <ele>1525</ele>
        <time>2021-08-11T08:29:48.378Z</time>
      </trkpt>
      <trkpt lat="46.88282" lon="8.54475">
        <ele>1525</ele>
        <time>2021-08-11T08:29:49.379Z</time>
      </trkpt>
      <trkpt lat="46.88281" lon="8.54474">
        <ele>1525</ele>
        <time>2021-08-11T08:29:50.379Z</time>
      </trkpt>
      <trkpt lat="46.88281" lon="8.54474">
        <ele>1525</ele>
        <time>2021-08-11T08:29:51.378Z</time>
      </trkpt>
      <trkpt lat="46.88281" lon="8.54473">
        <ele>1524</ele>
        <time>2021-08-11T08:29:52.378Z</time>
      </trkpt>
      <trkpt lat="46.88281" lon="8.54473">
        <ele>1524</ele>
        <time>2021-08-11T08:29:53.378Z</time>
      </trkpt>
      <trkpt lat="46.88281" lon="8.54472">
        <ele>1524</ele>
        <time>2021-08-11T08:29:54.379Z</time>
      </trkpt>
      <trkpt lat="46.88281" lon="8.54471">
        <ele>1525</ele>
        <time>2021-08-11T08:29:55.378Z</time>
      </trkpt>
      <trkpt lat="46.8828" lon="8.54471">
        <ele>1525</ele>
        <time>2021-08-11T08:29:56.378Z</time>
      </trkpt>
      <trkpt lat="46.8828" lon="8.5447">
        <ele>1526</ele>
        <time>2021-08-11T08:29:57.378Z</time>
      </trkpt>
      <trkpt lat="46.8828" lon="8.5447">
        <ele>1526</ele>
        <time>2021-08-11T08:29:58.378Z</time>
      </trkpt>
      <trkpt lat="46.8828" lon="8.54469">
        <ele>1526</ele>
        <time>2021-08-11T08:29:59.379Z</time>
      </trkpt>
      <trkpt lat="46.8828" lon="8.54468">
        <ele>1527</ele>
        <time>2021-08-11T08:30:00.378Z</time>
      </trkpt>
      <trkpt lat="46.88279" lon="8.54467">
        <ele>1527</ele>
        <time>2021-08-11T08:30:01.378Z</time>
      </trkpt>
      <trkpt lat="46.88279" lon="8.54466">
        <ele>1527</ele>
        <time>2021-08-11T08:30:02.378Z</time>
      </trkpt>
      <trkpt lat="46.88278" lon="8.54466">
        <ele>1528</ele>
        <time>2021-08-11T08:30:03.379Z</time>
      </trkpt>
      <trkpt lat="46.88278" lon="8.54465">
        <ele>1528</ele>
        <time>2021-08-11T08:30:04.378Z</time>
      </trkpt>
      <trkpt lat="46.88277" lon="8.54464">
        <ele>1528</ele>
        <time>2021-08-11T08:30:05.379Z</time>
      </trkpt>
      <trkpt lat="46.88277" lon="8.54463">
        <ele>1528</ele>
        <time>2021-08-11T08:30:06.378Z</time>
      </trkpt>
      <trkpt lat="46.88277" lon="8.54462">
        <ele>1529</ele>
        <time>2021-08-11T08:30:07.378Z</time>
      </trkpt>
      <trkpt lat="46.88277" lon="8.54462">
        <ele>1529</ele>
        <time>2021-08-11T08:30:08.379Z</time>
      </trkpt>
      <trkpt lat="46.88276" lon="8.54461">
        <ele>1530</ele>
        <time>2021-08-11T08:30:09.379Z</time>
      </trkpt>
      <trkpt lat="46.88276" lon="8.5446">
        <ele>1530</ele>
        <time>2021-08-11T08:30:10.379Z</time>
      </trkpt>
      <trkpt lat="46.88276" lon="8.54459">
        <ele>1530</ele>
        <time>2021-08-11T08:30:11.379Z</time>
      </trkpt>
      <trkpt lat="46.88275" lon="8.54458">
        <ele>1530</ele>
        <time>2021-08-11T08:30:12.378Z</time>
      </trkpt>
      <trkpt lat="46.88275" lon="8.54457">
        <ele>1530</ele>
        <time>2021-08-11T08:30:13.379Z</time>
      </trkpt>
      <trkpt lat="46.88274" lon="8.54456">
        <ele>1530</ele>
        <time>2021-08-11T08:30:14.379Z</time>
      </trkpt>
      <trkpt lat="46.88274" lon="8.54456">
        <ele>1530</ele>
        <time>2021-08-11T08:30:15.379Z</time>
      </trkpt>
      <trkpt lat="46.88274" lon="8.54455">
        <ele>1530</ele>
        <time>2021-08-11T08:30:16.378Z</time>
      </trkpt>
      <trkpt lat="46.88274" lon="8.54454">
        <ele>1530</ele>
        <time>2021-08-11T08:30:17.379Z</time>
      </trkpt>
      <trkpt lat="46.88274" lon="8.54453">
        <ele>1530</ele>
        <time>2021-08-11T08:30:18.379Z</time>
      </trkpt>
      <trkpt lat="46.88273" lon="8.54452">
        <ele>1530</ele>
        <time>2021-08-11T08:30:19.379Z</time>
      </trkpt>
      <trkpt lat="46.88273" lon="8.54451">
        <ele>1529</ele>
        <time>2021-08-11T08:30:20.379Z</time>
      </trkpt>
      <trkpt lat="46.88273" lon="8.54451">
        <ele>1529</ele>
        <time>2021-08-11T08:30:21.378Z</time>
      </trkpt>
      <trkpt lat="46.88273" lon="8.5445">
        <ele>1529</ele>
        <time>2021-08-11T08:30:22.379Z</time>
      </trkpt>
      <trkpt lat="46.88272" lon="8.5445">
        <ele>1529</ele>
        <time>2021-08-11T08:30:23.379Z</time>
      </trkpt>
      <trkpt lat="46.88272" lon="8.54449">
        <ele>1529</ele>
        <time>2021-08-11T08:30:24.379Z</time>
      </trkpt>
      <trkpt lat="46.88272" lon="8.54448">
        <ele>1530</ele>
        <time>2021-08-11T08:30:25.379Z</time>
      </trkpt>
      <trkpt lat="46.88272" lon="8.54448">
        <ele>1530</ele>
        <time>2021-08-11T08:30:26.379Z</time>
      </trkpt>
      <trkpt lat="46.88271" lon="8.54447">
        <ele>1530</ele>
        <time>2021-08-11T08:30:27.379Z</time>
      </trkpt>
      <trkpt lat="46.88271" lon="8.54446">
        <ele>1530</ele>
        <time>2021-08-11T08:30:28.378Z</time>
      </trkpt>
      <trkpt lat="46.88271" lon="8.54445">
        <ele>1531</ele>
        <time>2021-08-11T08:30:29.379Z</time>
      </trkpt>
      <trkpt lat="46.8827" lon="8.54445">
        <ele>1531</ele>
        <time>2021-08-11T08:30:30.378Z</time>
      </trkpt>
      <trkpt lat="46.8827" lon="8.54444">
        <ele>1531</ele>
        <time>2021-08-11T08:30:31.379Z</time>
      </trkpt>
      <trkpt lat="46.88269" lon="8.54443">
        <ele>1531</ele>
        <time>2021-08-11T08:30:32.379Z</time>
      </trkpt>
      <trkpt lat="46.88269" lon="8.54443">
        <ele>1531</ele>
        <time>2021-08-11T08:30:33.379Z</time>
      </trkpt>
      <trkpt lat="46.88269" lon="8.54442">
        <ele>1531</ele>
        <time>2021-08-11T08:30:34.378Z</time>
      </trkpt>
      <trkpt lat="46.88269" lon="8.54442">
        <ele>1530</ele>
        <time>2021-08-11T08:30:35.379Z</time>
      </trkpt>
      <trkpt lat="46.88269" lon="8.54441">
        <ele>1530</ele>
        <time>2021-08-11T08:30:36.379Z</time>
      </trkpt>
      <trkpt lat="46.88269" lon="8.54441">
        <ele>1530</ele>
        <time>2021-08-11T08:30:37.379Z</time>
      </trkpt>
      <trkpt lat="46.88269" lon="8.5444">
        <ele>1530</ele>
        <time>2021-08-11T08:30:38.379Z</time>
      </trkpt>
      <trkpt lat="46.88269" lon="8.5444">
        <ele>1530</ele>
        <time>2021-08-11T08:30:39.378Z</time>
      </trkpt>
      <trkpt lat="46.88269" lon="8.54439">
        <ele>1530</ele>
        <time>2021-08-11T08:30:40.379Z</time>
      </trkpt>
      <trkpt lat="46.8827" lon="8.54439">
        <ele>1530</ele>
        <time>2021-08-11T08:30:41.379Z</time>
      </trkpt>
      <trkpt lat="46.8827" lon="8.54438">
        <ele>1531</ele>
        <time>2021-08-11T08:30:42.379Z</time>
      </trkpt>
      <trkpt lat="46.8827" lon="8.54438">
        <ele>1531</ele>
        <time>2021-08-11T08:30:43.379Z</time>
      </trkpt>
      <trkpt lat="46.8827" lon="8.54437">
        <ele>1531</ele>
        <time>2021-08-11T08:30:44.378Z</time>
      </trkpt>
      <trkpt lat="46.8827" lon="8.54437">
        <ele>1531</ele>
        <time>2021-08-11T08:30:45.379Z</time>
      </trkpt>
      <trkpt lat="46.88271" lon="8.54437">
        <ele>1531</ele>
        <time>2021-08-11T08:30:46.379Z</time>
      </trkpt>
      <trkpt lat="46.88271" lon="8.54436">
        <ele>1531</ele>
        <time>2021-08-11T08:30:47.379Z</time>
      </trkpt>
      <trkpt lat="46.88272" lon="8.54436">
        <ele>1531</ele>
        <time>2021-08-11T08:30:48.378Z</time>
      </trkpt>
      <trkpt lat="46.88272" lon="8.54436">
        <ele>1531</ele>
        <time>2021-08-11T08:30:49.379Z</time>
      </trkpt>
      <trkpt lat="46.88273" lon="8.54436">
        <ele>1531</ele>
        <time>2021-08-11T08:30:50.379Z</time>
      </trkpt>
      <trkpt lat="46.88273" lon="8.54436">
        <ele>1531</ele>
        <time>2021-08-11T08:30:51.379Z</time>
      </trkpt>
      <trkpt lat="46.88274" lon="8.54436">
        <ele>1531</ele>
        <time>2021-08-11T08:30:52.379Z</time>
      </trkpt>
      <trkpt lat="46.88274" lon="8.54436">
        <ele>1531</ele>
        <time>2021-08-11T08:30:53.378Z</time>
      </trkpt>
      <trkpt lat="46.88275" lon="8.54437">
        <ele>1531</ele>
        <time>2021-08-11T08:30:54.379Z</time>
      </trkpt>
      <trkpt lat="46.88276" lon="8.54437">
        <ele>1531</ele>
        <time>2021-08-11T08:30:55.379Z</time>
      </trkpt>
      <trkpt lat="46.88276" lon="8.54437">
        <ele>1532</ele>
        <time>2021-08-11T08:30:56.379Z</time>
      </trkpt>
      <trkpt lat="46.88277" lon="8.54437">
        <ele>1532</ele>
        <time>2021-08-11T08:30:57.378Z</time>
      </trkpt>
      <trkpt lat="46.88277" lon="8.54436">
        <ele>1532</ele>
        <time>2021-08-11T08:30:58.379Z</time>
      </trkpt>
      <trkpt lat="46.88278" lon="8.54436">
        <ele>1532</ele>
        <time>2021-08-11T08:30:59.379Z</time>
      </trkpt>
      <trkpt lat="46.88279" lon="8.54436">
        <ele>1533</ele>
        <time>2021-08-11T08:31:00.378Z</time>
      </trkpt>
      <trkpt lat="46.8828" lon="8.54436">
        <ele>1533</ele>
        <time>2021-08-11T08:31:01.379Z</time>
      </trkpt>
      <trkpt lat="46.88281" lon="8.54436">
        <ele>1534</ele>
        <time>2021-08-11T08:31:02.378Z</time>
      </trkpt>
      <trkpt lat="46.88281" lon="8.54436">
        <ele>1534</ele>
        <time>2021-08-11T08:31:03.379Z</time>
      </trkpt>
      <trkpt lat="46.88282" lon="8.54435">
        <ele>1534</ele>
        <time>2021-08-11T08:31:04.378Z</time>
      </trkpt>
      <trkpt lat="46.88282" lon="8.54435">
        <ele>1534</ele>
        <time>2021-08-11T08:31:05.379Z</time>
      </trkpt>
      <trkpt lat="46.88282" lon="8.54435">
        <ele>1534</ele>
        <time>2021-08-11T08:31:06.378Z</time>
      </trkpt>
      <trkpt lat="46.88283" lon="8.54435">
        <ele>1534</ele>
        <time>2021-08-11T08:31:07.378Z</time>
      </trkpt>
      <trkpt lat="46.88283" lon="8.54434">
        <ele>1535</ele>
        <time>2021-08-11T08:31:08.380Z</time>
      </trkpt>
      <trkpt lat="46.88283" lon="8.54434">
        <ele>1535</ele>
        <time>2021-08-11T08:31:09.379Z</time>
      </trkpt>
      <trkpt lat="46.88283" lon="8.54433">
        <ele>1535</ele>
        <time>2021-08-11T08:31:10.379Z</time>
      </trkpt>
      <trkpt lat="46.8828" lon="8.54432">
        <ele>1541</ele>
        <time>2021-08-11T08:31:11.381Z</time>
      </trkpt>
      <trkpt lat="46.8828" lon="8.54432">
        <ele>1541</ele>
        <time>2021-08-11T08:31:12.380Z</time>
      </trkpt>
      <trkpt lat="46.8828" lon="8.54432">
        <ele>1541</ele>
        <time>2021-08-11T08:31:13.381Z</time>
      </trkpt>
      <trkpt lat="46.8828" lon="8.54433">
        <ele>1540</ele>
        <time>2021-08-11T08:31:14.380Z</time>
      </trkpt>
      <trkpt lat="46.88281" lon="8.54432">
        <ele>1539</ele>
        <time>2021-08-11T08:31:15.382Z</time>
      </trkpt>
      <trkpt lat="46.88281" lon="8.54432">
        <ele>1540</ele>
        <time>2021-08-11T08:31:16.382Z</time>
      </trkpt>
      <trkpt lat="46.88281" lon="8.54432">
        <ele>1540</ele>
        <time>2021-08-11T08:31:17.381Z</time>
      </trkpt>
      <trkpt lat="46.88281" lon="8.54432">
        <ele>1541</ele>
        <time>2021-08-11T08:31:18.382Z</time>
      </trkpt>
      <trkpt lat="46.88281" lon="8.54432">
        <ele>1539</ele>
        <time>2021-08-11T08:31:19.381Z</time>
      </trkpt>
      <trkpt lat="46.88279" lon="8.54429">
        <ele>1539</ele>
        <time>2021-08-11T08:31:20.381Z</time>
      </trkpt>
      <trkpt lat="46.88281" lon="8.54431">
        <ele>1540</ele>
        <time>2021-08-11T08:31:21.382Z</time>
      </trkpt>
      <trkpt lat="46.88281" lon="8.54432">
        <ele>1540</ele>
        <time>2021-08-11T08:31:22.381Z</time>
      </trkpt>
      <trkpt lat="46.88283" lon="8.54436">
        <ele>1538</ele>
        <time>2021-08-11T08:31:23.382Z</time>
      </trkpt>
      <trkpt lat="46.88283" lon="8.54436">
        <ele>1538</ele>
        <time>2021-08-11T08:31:24.383Z</time>
      </trkpt>
      <trkpt lat="46.88283" lon="8.54436">
        <ele>1537</ele>
        <time>2021-08-11T08:31:25.382Z</time>
      </trkpt>
      <trkpt lat="46.88283" lon="8.54435">
        <ele>1537</ele>
        <time>2021-08-11T08:31:26.382Z</time>
      </trkpt>
      <trkpt lat="46.88283" lon="8.54435">
        <ele>1536</ele>
        <time>2021-08-11T08:31:27.382Z</time>
      </trkpt>
      <trkpt lat="46.88283" lon="8.54435">
        <ele>1536</ele>
        <time>2021-08-11T08:31:28.383Z</time>
      </trkpt>
      <trkpt lat="46.88283" lon="8.54435">
        <ele>1536</ele>
        <time>2021-08-11T08:31:29.383Z</time>
      </trkpt>
      <trkpt lat="46.88283" lon="8.54434">
        <ele>1535</ele>
        <time>2021-08-11T08:31:30.383Z</time>
      </trkpt>
      <trkpt lat="46.88281" lon="8.54432">
        <ele>1536</ele>
        <time>2021-08-11T08:31:31.384Z</time>
      </trkpt>
      <trkpt lat="46.88281" lon="8.54432">
        <ele>1537</ele>
        <time>2021-08-11T08:31:32.383Z</time>
      </trkpt>
      <trkpt lat="46.88281" lon="8.54433">
        <ele>1537</ele>
        <time>2021-08-11T08:31:33.384Z</time>
      </trkpt>
      <trkpt lat="46.88281" lon="8.54433">
        <ele>1538</ele>
        <time>2021-08-11T08:31:34.384Z</time>
      </trkpt>
      <trkpt lat="46.88281" lon="8.54434">
        <ele>1538</ele>
        <time>2021-08-11T08:31:35.384Z</time>
      </trkpt>
      <trkpt lat="46.88281" lon="8.54434">
        <ele>1538</ele>
        <time>2021-08-11T08:31:36.383Z</time>
      </trkpt>
      <trkpt lat="46.88281" lon="8.54434">
        <ele>1538</ele>
        <time>2021-08-11T08:31:37.383Z</time>
      </trkpt>
      <trkpt lat="46.8828" lon="8.54434">
        <ele>1537</ele>
        <time>2021-08-11T08:31:38.383Z</time>
      </trkpt>
      <trkpt lat="46.8828" lon="8.54434">
        <ele>1537</ele>
        <time>2021-08-11T08:31:39.384Z</time>
      </trkpt>
      <trkpt lat="46.8828" lon="8.54435">
        <ele>1537</ele>
        <time>2021-08-11T08:31:40.384Z</time>
      </trkpt>
      <trkpt lat="46.88281" lon="8.54435">
        <ele>1537</ele>
        <time>2021-08-11T08:31:41.383Z</time>
      </trkpt>
      <trkpt lat="46.88282" lon="8.54436">
        <ele>1537</ele>
        <time>2021-08-11T08:31:42.384Z</time>
      </trkpt>
      <trkpt lat="46.88282" lon="8.54436">
        <ele>1537</ele>
        <time>2021-08-11T08:31:43.384Z</time>
      </trkpt>
      <trkpt lat="46.88283" lon="8.54436">
        <ele>1537</ele>
        <time>2021-08-11T08:31:44.383Z</time>
      </trkpt>
      <trkpt lat="46.88286" lon="8.54433">
        <ele>1539</ele>
        <time>2021-08-11T08:31:45.385Z</time>
      </trkpt>
      <trkpt lat="46.88287" lon="8.54433">
        <ele>1539</ele>
        <time>2021-08-11T08:31:46.384Z</time>
      </trkpt>
      <trkpt lat="46.88287" lon="8.54433">
        <ele>1540</ele>
        <time>2021-08-11T08:31:47.384Z</time>
      </trkpt>
      <trkpt lat="46.88288" lon="8.54433">
        <ele>1540</ele>
        <time>2021-08-11T08:31:48.385Z</time>
      </trkpt>
      <trkpt lat="46.88289" lon="8.54433">
        <ele>1540</ele>
        <time>2021-08-11T08:31:49.384Z</time>
      </trkpt>
      <trkpt lat="46.8829" lon="8.54433">
        <ele>1540</ele>
        <time>2021-08-11T08:31:50.384Z</time>
      </trkpt>
      <trkpt lat="46.88291" lon="8.54433">
        <ele>1540</ele>
        <time>2021-08-11T08:31:51.385Z</time>
      </trkpt>
      <trkpt lat="46.88292" lon="8.54433">
        <ele>1540</ele>
        <time>2021-08-11T08:31:52.385Z</time>
      </trkpt>
      <trkpt lat="46.88293" lon="8.54433">
        <ele>1539</ele>
        <time>2021-08-11T08:31:53.385Z</time>
      </trkpt>
      <trkpt lat="46.88294" lon="8.54433">
        <ele>1539</ele>
        <time>2021-08-11T08:31:54.384Z</time>
      </trkpt>
      <trkpt lat="46.88295" lon="8.54433">
        <ele>1539</ele>
        <time>2021-08-11T08:31:55.384Z</time>
      </trkpt>
      <trkpt lat="46.88295" lon="8.54433">
        <ele>1538</ele>
        <time>2021-08-11T08:31:56.385Z</time>
      </trkpt>
      <trkpt lat="46.88296" lon="8.54433">
        <ele>1538</ele>
        <time>2021-08-11T08:31:57.385Z</time>
      </trkpt>
      <trkpt lat="46.88296" lon="8.54433">
        <ele>1538</ele>
        <time>2021-08-11T08:31:58.385Z</time>
      </trkpt>
      <trkpt lat="46.88297" lon="8.54434">
        <ele>1538</ele>
        <time>2021-08-11T08:31:59.385Z</time>
      </trkpt>
      <trkpt lat="46.88297" lon="8.54434">
        <ele>1537</ele>
        <time>2021-08-11T08:32:00.384Z</time>
      </trkpt>
      <trkpt lat="46.88298" lon="8.54434">
        <ele>1537</ele>
        <time>2021-08-11T08:32:01.385Z</time>
      </trkpt>
      <trkpt lat="46.88298" lon="8.54434">
        <ele>1537</ele>
        <time>2021-08-11T08:32:02.385Z</time>
      </trkpt>
      <trkpt lat="46.88299" lon="8.54434">
        <ele>1537</ele>
        <time>2021-08-11T08:32:03.385Z</time>
      </trkpt>
      <trkpt lat="46.883" lon="8.54434">
        <ele>1536</ele>
        <time>2021-08-11T08:32:04.385Z</time>
      </trkpt>
      <trkpt lat="46.883" lon="8.54434">
        <ele>1536</ele>
        <time>2021-08-11T08:32:05.384Z</time>
      </trkpt>
      <trkpt lat="46.88301" lon="8.54434">
        <ele>1536</ele>
        <time>2021-08-11T08:32:06.384Z</time>
      </trkpt>
      <trkpt lat="46.88301" lon="8.54434">
        <ele>1536</ele>
        <time>2021-08-11T08:32:07.384Z</time>
      </trkpt>
      <trkpt lat="46.88302" lon="8.54434">
        <ele>1536</ele>
        <time>2021-08-11T08:32:08.384Z</time>
      </trkpt>
      <trkpt lat="46.88303" lon="8.54434">
        <ele>1536</ele>
        <time>2021-08-11T08:32:09.385Z</time>
      </trkpt>
      <trkpt lat="46.88303" lon="8.54434">
        <ele>1536</ele>
        <time>2021-08-11T08:32:10.385Z</time>
      </trkpt>
      <trkpt lat="46.88304" lon="8.54434">
        <ele>1536</ele>
        <time>2021-08-11T08:32:11.385Z</time>
      </trkpt>
      <trkpt lat="46.88305" lon="8.54435">
        <ele>1536</ele>
        <time>2021-08-11T08:32:12.385Z</time>
      </trkpt>
      <trkpt lat="46.88305" lon="8.54435">
        <ele>1537</ele>
        <time>2021-08-11T08:32:13.385Z</time>
      </trkpt>
      <trkpt lat="46.88306" lon="8.54435">
        <ele>1537</ele>
        <time>2021-08-11T08:32:14.385Z</time>
      </trkpt>
      <trkpt lat="46.88307" lon="8.54436">
        <ele>1537</ele>
        <time>2021-08-11T08:32:15.384Z</time>
      </trkpt>
      <trkpt lat="46.88307" lon="8.54436">
        <ele>1537</ele>
        <time>2021-08-11T08:32:16.385Z</time>
      </trkpt>
      <trkpt lat="46.88308" lon="8.54438">
        <ele>1537</ele>
        <time>2021-08-11T08:32:17.384Z</time>
      </trkpt>
      <trkpt lat="46.88309" lon="8.54439">
        <ele>1538</ele>
        <time>2021-08-11T08:32:18.385Z</time>
      </trkpt>
      <trkpt lat="46.8831" lon="8.5444">
        <ele>1538</ele>
        <time>2021-08-11T08:32:19.385Z</time>
      </trkpt>
      <trkpt lat="46.88311" lon="8.54441">
        <ele>1539</ele>
        <time>2021-08-11T08:32:20.385Z</time>
      </trkpt>
      <trkpt lat="46.88312" lon="8.54442">
        <ele>1539</ele>
        <time>2021-08-11T08:32:21.385Z</time>
      </trkpt>
      <trkpt lat="46.88313" lon="8.54443">
        <ele>1540</ele>
        <time>2021-08-11T08:32:22.385Z</time>
      </trkpt>
      <trkpt lat="46.88314" lon="8.54444">
        <ele>1540</ele>
        <time>2021-08-11T08:32:23.385Z</time>
      </trkpt>
      <trkpt lat="46.88315" lon="8.54445">
        <ele>1540</ele>
        <time>2021-08-11T08:32:24.385Z</time>
      </trkpt>
      <trkpt lat="46.88316" lon="8.54445">
        <ele>1540</ele>
        <time>2021-08-11T08:32:25.385Z</time>
      </trkpt>
      <trkpt lat="46.88316" lon="8.54447">
        <ele>1540</ele>
        <time>2021-08-11T08:32:26.385Z</time>
      </trkpt>
      <trkpt lat="46.88317" lon="8.54448">
        <ele>1540</ele>
        <time>2021-08-11T08:32:27.385Z</time>
      </trkpt>
      <trkpt lat="46.88319" lon="8.54449">
        <ele>1540</ele>
        <time>2021-08-11T08:32:28.384Z</time>
      </trkpt>
      <trkpt lat="46.8832" lon="8.54449">
        <ele>1540</ele>
        <time>2021-08-11T08:32:29.385Z</time>
      </trkpt>
      <trkpt lat="46.88321" lon="8.5445">
        <ele>1540</ele>
        <time>2021-08-11T08:32:30.384Z</time>
      </trkpt>
      <trkpt lat="46.88322" lon="8.54451">
        <ele>1540</ele>
        <time>2021-08-11T08:32:31.385Z</time>
      </trkpt>
      <trkpt lat="46.88323" lon="8.54451">
        <ele>1540</ele>
        <time>2021-08-11T08:32:32.385Z</time>
      </trkpt>
      <trkpt lat="46.88324" lon="8.54452">
        <ele>1540</ele>
        <time>2021-08-11T08:32:33.385Z</time>
      </trkpt>
      <trkpt lat="46.88325" lon="8.54453">
        <ele>1540</ele>
        <time>2021-08-11T08:32:34.385Z</time>
      </trkpt>
      <trkpt lat="46.88325" lon="8.54454">
        <ele>1540</ele>
        <time>2021-08-11T08:32:35.385Z</time>
      </trkpt>
      <trkpt lat="46.88326" lon="8.54455">
        <ele>1540</ele>
        <time>2021-08-11T08:32:36.385Z</time>
      </trkpt>
      <trkpt lat="46.88327" lon="8.54455">
        <ele>1540</ele>
        <time>2021-08-11T08:32:37.385Z</time>
      </trkpt>
      <trkpt lat="46.88328" lon="8.54456">
        <ele>1540</ele>
        <time>2021-08-11T08:32:38.385Z</time>
      </trkpt>
      <trkpt lat="46.88328" lon="8.54457">
        <ele>1540</ele>
        <time>2021-08-11T08:32:39.385Z</time>
      </trkpt>
      <trkpt lat="46.88329" lon="8.54457">
        <ele>1540</ele>
        <time>2021-08-11T08:32:40.384Z</time>
      </trkpt>
      <trkpt lat="46.8833" lon="8.54457">
        <ele>1539</ele>
        <time>2021-08-11T08:32:41.385Z</time>
      </trkpt>
      <trkpt lat="46.88331" lon="8.54457">
        <ele>1540</ele>
        <time>2021-08-11T08:32:42.384Z</time>
      </trkpt>
      <trkpt lat="46.88332" lon="8.54458">
        <ele>1540</ele>
        <time>2021-08-11T08:32:43.385Z</time>
      </trkpt>
      <trkpt lat="46.88333" lon="8.54458">
        <ele>1540</ele>
        <time>2021-08-11T08:32:44.385Z</time>
      </trkpt>
      <trkpt lat="46.88334" lon="8.54459">
        <ele>1540</ele>
        <time>2021-08-11T08:32:45.385Z</time>
      </trkpt>
      <trkpt lat="46.88334" lon="8.54459">
        <ele>1540</ele>
        <time>2021-08-11T08:32:46.385Z</time>
      </trkpt>
      <trkpt lat="46.88335" lon="8.54459">
        <ele>1540</ele>
        <time>2021-08-11T08:32:47.385Z</time>
      </trkpt>
      <trkpt lat="46.88335" lon="8.54459">
        <ele>1541</ele>
        <time>2021-08-11T08:32:48.385Z</time>
      </trkpt>
      <trkpt lat="46.88336" lon="8.5446">
        <ele>1541</ele>
        <time>2021-08-11T08:32:49.384Z</time>
      </trkpt>
      <trkpt lat="46.88337" lon="8.5446">
        <ele>1541</ele>
        <time>2021-08-11T08:32:50.384Z</time>
      </trkpt>
      <trkpt lat="46.88338" lon="8.54461">
        <ele>1541</ele>
        <time>2021-08-11T08:32:51.385Z</time>
      </trkpt>
      <trkpt lat="46.88339" lon="8.54461">
        <ele>1541</ele>
        <time>2021-08-11T08:32:52.385Z</time>
      </trkpt>
      <trkpt lat="46.88339" lon="8.54461">
        <ele>1542</ele>
        <time>2021-08-11T08:32:53.385Z</time>
      </trkpt>
      <trkpt lat="46.8834" lon="8.54461">
        <ele>1542</ele>
        <time>2021-08-11T08:32:54.385Z</time>
      </trkpt>
      <trkpt lat="46.8834" lon="8.54461">
        <ele>1541</ele>
        <time>2021-08-11T08:32:55.385Z</time>
      </trkpt>
      <trkpt lat="46.88341" lon="8.54461">
        <ele>1541</ele>
        <time>2021-08-11T08:32:56.385Z</time>
      </trkpt>
      <trkpt lat="46.88341" lon="8.54462">
        <ele>1541</ele>
        <time>2021-08-11T08:32:57.385Z</time>
      </trkpt>
      <trkpt lat="46.88342" lon="8.54462">
        <ele>1541</ele>
        <time>2021-08-11T08:32:58.384Z</time>
      </trkpt>
      <trkpt lat="46.88343" lon="8.54462">
        <ele>1541</ele>
        <time>2021-08-11T08:32:59.385Z</time>
      </trkpt>
      <trkpt lat="46.88344" lon="8.54462">
        <ele>1541</ele>
        <time>2021-08-11T08:33:00.385Z</time>
      </trkpt>
      <trkpt lat="46.88344" lon="8.54462">
        <ele>1542</ele>
        <time>2021-08-11T08:33:01.385Z</time>
      </trkpt>
      <trkpt lat="46.88345" lon="8.54462">
        <ele>1542</ele>
        <time>2021-08-11T08:33:02.385Z</time>
      </trkpt>
      <trkpt lat="46.88345" lon="8.54462">
        <ele>1542</ele>
        <time>2021-08-11T08:33:03.385Z</time>
      </trkpt>
      <trkpt lat="46.88346" lon="8.54462">
        <ele>1542</ele>
        <time>2021-08-11T08:33:04.385Z</time>
      </trkpt>
      <trkpt lat="46.88347" lon="8.54462">
        <ele>1542</ele>
        <time>2021-08-11T08:33:05.385Z</time>
      </trkpt>
      <trkpt lat="46.88348" lon="8.54462">
        <ele>1542</ele>
        <time>2021-08-11T08:33:06.385Z</time>
      </trkpt>
      <trkpt lat="46.88349" lon="8.54462">
        <ele>1543</ele>
        <time>2021-08-11T08:33:07.385Z</time>
      </trkpt>
      <trkpt lat="46.8835" lon="8.54462">
        <ele>1543</ele>
        <time>2021-08-11T08:33:08.384Z</time>
      </trkpt>
      <trkpt lat="46.88351" lon="8.54462">
        <ele>1544</ele>
        <time>2021-08-11T08:33:09.385Z</time>
      </trkpt>
      <trkpt lat="46.88352" lon="8.54463">
        <ele>1544</ele>
        <time>2021-08-11T08:33:10.385Z</time>
      </trkpt>
      <trkpt lat="46.88352" lon="8.54462">
        <ele>1544</ele>
        <time>2021-08-11T08:33:11.385Z</time>
      </trkpt>
      <trkpt lat="46.88353" lon="8.54463">
        <ele>1545</ele>
        <time>2021-08-11T08:33:12.384Z</time>
      </trkpt>
      <trkpt lat="46.88353" lon="8.54463">
        <ele>1545</ele>
        <time>2021-08-11T08:33:13.385Z</time>
      </trkpt>
      <trkpt lat="46.88354" lon="8.54463">
        <ele>1546</ele>
        <time>2021-08-11T08:33:14.385Z</time>
      </trkpt>
      <trkpt lat="46.88355" lon="8.54463">
        <ele>1546</ele>
        <time>2021-08-11T08:33:15.384Z</time>
      </trkpt>
      <trkpt lat="46.88356" lon="8.54463">
        <ele>1546</ele>
        <time>2021-08-11T08:33:16.384Z</time>
      </trkpt>
      <trkpt lat="46.88357" lon="8.54462">
        <ele>1547</ele>
        <time>2021-08-11T08:33:17.385Z</time>
      </trkpt>
      <trkpt lat="46.88357" lon="8.54462">
        <ele>1547</ele>
        <time>2021-08-11T08:33:18.385Z</time>
      </trkpt>
      <trkpt lat="46.88358" lon="8.54462">
        <ele>1547</ele>
        <time>2021-08-11T08:33:19.385Z</time>
      </trkpt>
      <trkpt lat="46.88359" lon="8.54462">
        <ele>1548</ele>
        <time>2021-08-11T08:33:20.385Z</time>
      </trkpt>
      <trkpt lat="46.88359" lon="8.54462">
        <ele>1548</ele>
        <time>2021-08-11T08:33:21.384Z</time>
      </trkpt>
      <trkpt lat="46.8836" lon="8.54462">
        <ele>1548</ele>
        <time>2021-08-11T08:33:22.385Z</time>
      </trkpt>
      <trkpt lat="46.8836" lon="8.54462">
        <ele>1548</ele>
        <time>2021-08-11T08:33:23.385Z</time>
      </trkpt>
      <trkpt lat="46.88361" lon="8.54461">
        <ele>1549</ele>
        <time>2021-08-11T08:33:24.385Z</time>
      </trkpt>
      <trkpt lat="46.88362" lon="8.54461">
        <ele>1549</ele>
        <time>2021-08-11T08:33:25.384Z</time>
      </trkpt>
      <trkpt lat="46.88363" lon="8.54461">
        <ele>1549</ele>
        <time>2021-08-11T08:33:26.385Z</time>
      </trkpt>
      <trkpt lat="46.88364" lon="8.54461">
        <ele>1549</ele>
        <time>2021-08-11T08:33:27.384Z</time>
      </trkpt>
      <trkpt lat="46.88364" lon="8.54461">
        <ele>1549</ele>
        <time>2021-08-11T08:33:28.385Z</time>
      </trkpt>
      <trkpt lat="46.88365" lon="8.54461">
        <ele>1550</ele>
        <time>2021-08-11T08:33:29.384Z</time>
      </trkpt>
      <trkpt lat="46.88366" lon="8.54461">
        <ele>1550</ele>
        <time>2021-08-11T08:33:30.384Z</time>
      </trkpt>
      <trkpt lat="46.88367" lon="8.54461">
        <ele>1550</ele>
        <time>2021-08-11T08:33:31.385Z</time>
      </trkpt>
      <trkpt lat="46.88367" lon="8.5446">
        <ele>1550</ele>
        <time>2021-08-11T08:33:32.385Z</time>
      </trkpt>
      <trkpt lat="46.88368" lon="8.5446">
        <ele>1550</ele>
        <time>2021-08-11T08:33:33.385Z</time>
      </trkpt>
      <trkpt lat="46.88368" lon="8.5446">
        <ele>1550</ele>
        <time>2021-08-11T08:33:34.384Z</time>
      </trkpt>
      <trkpt lat="46.88369" lon="8.54459">
        <ele>1549</ele>
        <time>2021-08-11T08:33:35.385Z</time>
      </trkpt>
      <trkpt lat="46.8837" lon="8.54459">
        <ele>1549</ele>
        <time>2021-08-11T08:33:36.385Z</time>
      </trkpt>
      <trkpt lat="46.8837" lon="8.54458">
        <ele>1549</ele>
        <time>2021-08-11T08:33:37.384Z</time>
      </trkpt>
      <trkpt lat="46.88371" lon="8.54458">
        <ele>1548</ele>
        <time>2021-08-11T08:33:38.385Z</time>
      </trkpt>
      <trkpt lat="46.88371" lon="8.54458">
        <ele>1548</ele>
        <time>2021-08-11T08:33:39.385Z</time>
      </trkpt>
      <trkpt lat="46.88372" lon="8.54457">
        <ele>1548</ele>
        <time>2021-08-11T08:33:40.384Z</time>
      </trkpt>
      <trkpt lat="46.88372" lon="8.54457">
        <ele>1548</ele>
        <time>2021-08-11T08:33:41.384Z</time>
      </trkpt>
      <trkpt lat="46.88373" lon="8.54456">
        <ele>1549</ele>
        <time>2021-08-11T08:33:42.385Z</time>
      </trkpt>
      <trkpt lat="46.88373" lon="8.54456">
        <ele>1549</ele>
        <time>2021-08-11T08:33:43.384Z</time>
      </trkpt>
      <trkpt lat="46.88374" lon="8.54455">
        <ele>1549</ele>
        <time>2021-08-11T08:33:44.385Z</time>
      </trkpt>
      <trkpt lat="46.88374" lon="8.54455">
        <ele>1550</ele>
        <time>2021-08-11T08:33:45.385Z</time>
      </trkpt>
      <trkpt lat="46.88375" lon="8.54454">
        <ele>1550</ele>
        <time>2021-08-11T08:33:46.385Z</time>
      </trkpt>
      <trkpt lat="46.88375" lon="8.54453">
        <ele>1551</ele>
        <time>2021-08-11T08:33:47.385Z</time>
      </trkpt>
      <trkpt lat="46.88375" lon="8.54452">
        <ele>1551</ele>
        <time>2021-08-11T08:33:48.385Z</time>
      </trkpt>
      <trkpt lat="46.88375" lon="8.54451">
        <ele>1551</ele>
        <time>2021-08-11T08:33:49.385Z</time>
      </trkpt>
      <trkpt lat="46.88375" lon="8.5445">
        <ele>1551</ele>
        <time>2021-08-11T08:33:50.385Z</time>
      </trkpt>
      <trkpt lat="46.88376" lon="8.54449">
        <ele>1551</ele>
        <time>2021-08-11T08:33:51.384Z</time>
      </trkpt>
      <trkpt lat="46.88376" lon="8.54448">
        <ele>1552</ele>
        <time>2021-08-11T08:33:52.385Z</time>
      </trkpt>
      <trkpt lat="46.88377" lon="8.54447">
        <ele>1552</ele>
        <time>2021-08-11T08:33:53.385Z</time>
      </trkpt>
      <trkpt lat="46.88377" lon="8.54446">
        <ele>1552</ele>
        <time>2021-08-11T08:33:54.385Z</time>
      </trkpt>
      <trkpt lat="46.88377" lon="8.54445">
        <ele>1552</ele>
        <time>2021-08-11T08:33:55.384Z</time>
      </trkpt>
      <trkpt lat="46.88376" lon="8.54444">
        <ele>1552</ele>
        <time>2021-08-11T08:33:56.385Z</time>
      </trkpt>
      <trkpt lat="46.88376" lon="8.54443">
        <ele>1552</ele>
        <time>2021-08-11T08:33:57.384Z</time>
      </trkpt>
      <trkpt lat="46.88376" lon="8.54442">
        <ele>1552</ele>
        <time>2021-08-11T08:33:58.385Z</time>
      </trkpt>
      <trkpt lat="46.88377" lon="8.54441">
        <ele>1552</ele>
        <time>2021-08-11T08:33:59.385Z</time>
      </trkpt>
      <trkpt lat="46.88377" lon="8.5444">
        <ele>1552</ele>
        <time>2021-08-11T08:34:00.385Z</time>
      </trkpt>
      <trkpt lat="46.88377" lon="8.54439">
        <ele>1553</ele>
        <time>2021-08-11T08:34:01.385Z</time>
      </trkpt>
      <trkpt lat="46.88377" lon="8.54438">
        <ele>1553</ele>
        <time>2021-08-11T08:34:02.384Z</time>
      </trkpt>
      <trkpt lat="46.88377" lon="8.54437">
        <ele>1554</ele>
        <time>2021-08-11T08:34:03.385Z</time>
      </trkpt>
      <trkpt lat="46.88378" lon="8.54436">
        <ele>1554</ele>
        <time>2021-08-11T08:34:04.385Z</time>
      </trkpt>
      <trkpt lat="46.88378" lon="8.54435">
        <ele>1554</ele>
        <time>2021-08-11T08:34:05.384Z</time>
      </trkpt>
      <trkpt lat="46.88379" lon="8.54434">
        <ele>1555</ele>
        <time>2021-08-11T08:34:06.385Z</time>
      </trkpt>
      <trkpt lat="46.88379" lon="8.54433">
        <ele>1555</ele>
        <time>2021-08-11T08:34:07.384Z</time>
      </trkpt>
      <trkpt lat="46.88379" lon="8.54432">
        <ele>1555</ele>
        <time>2021-08-11T08:34:08.385Z</time>
      </trkpt>
      <trkpt lat="46.88379" lon="8.54431">
        <ele>1555</ele>
        <time>2021-08-11T08:34:09.385Z</time>
      </trkpt>
      <trkpt lat="46.88379" lon="8.5443">
        <ele>1555</ele>
        <time>2021-08-11T08:34:10.385Z</time>
      </trkpt>
      <trkpt lat="46.88379" lon="8.54429">
        <ele>1555</ele>
        <time>2021-08-11T08:34:11.385Z</time>
      </trkpt>
      <trkpt lat="46.88379" lon="8.54428">
        <ele>1556</ele>
        <time>2021-08-11T08:34:12.384Z</time>
      </trkpt>
      <trkpt lat="46.88379" lon="8.54427">
        <ele>1556</ele>
        <time>2021-08-11T08:34:13.385Z</time>
      </trkpt>
      <trkpt lat="46.88378" lon="8.54427">
        <ele>1556</ele>
        <time>2021-08-11T08:34:14.385Z</time>
      </trkpt>
      <trkpt lat="46.88378" lon="8.54426">
        <ele>1556</ele>
        <time>2021-08-11T08:34:15.384Z</time>
      </trkpt>
      <trkpt lat="46.88378" lon="8.54425">
        <ele>1555</ele>
        <time>2021-08-11T08:34:16.385Z</time>
      </trkpt>
      <trkpt lat="46.88378" lon="8.54425">
        <ele>1555</ele>
        <time>2021-08-11T08:34:17.384Z</time>
      </trkpt>
      <trkpt lat="46.88377" lon="8.54424">
        <ele>1555</ele>
        <time>2021-08-11T08:34:18.385Z</time>
      </trkpt>
      <trkpt lat="46.88377" lon="8.54424">
        <ele>1555</ele>
        <time>2021-08-11T08:34:19.384Z</time>
      </trkpt>
      <trkpt lat="46.88378" lon="8.54423">
        <ele>1556</ele>
        <time>2021-08-11T08:34:20.385Z</time>
      </trkpt>
      <trkpt lat="46.88378" lon="8.54423">
        <ele>1556</ele>
        <time>2021-08-11T08:34:21.385Z</time>
      </trkpt>
      <trkpt lat="46.88378" lon="8.54422">
        <ele>1557</ele>
        <time>2021-08-11T08:34:22.385Z</time>
      </trkpt>
      <trkpt lat="46.88378" lon="8.54421">
        <ele>1557</ele>
        <time>2021-08-11T08:34:23.385Z</time>
      </trkpt>
      <trkpt lat="46.88378" lon="8.54421">
        <ele>1558</ele>
        <time>2021-08-11T08:34:24.385Z</time>
      </trkpt>
      <trkpt lat="46.88378" lon="8.54421">
        <ele>1558</ele>
        <time>2021-08-11T08:34:25.385Z</time>
      </trkpt>
      <trkpt lat="46.88379" lon="8.5442">
        <ele>1559</ele>
        <time>2021-08-11T08:34:26.384Z</time>
      </trkpt>
      <trkpt lat="46.8838" lon="8.54419">
        <ele>1559</ele>
        <time>2021-08-11T08:34:27.385Z</time>
      </trkpt>
      <trkpt lat="46.8838" lon="8.54418">
        <ele>1559</ele>
        <time>2021-08-11T08:34:28.384Z</time>
      </trkpt>
      <trkpt lat="46.8838" lon="8.54418">
        <ele>1559</ele>
        <time>2021-08-11T08:34:29.384Z</time>
      </trkpt>
      <trkpt lat="46.88381" lon="8.54417">
        <ele>1559</ele>
        <time>2021-08-11T08:34:30.385Z</time>
      </trkpt>
      <trkpt lat="46.88381" lon="8.54416">
        <ele>1559</ele>
        <time>2021-08-11T08:34:31.384Z</time>
      </trkpt>
      <trkpt lat="46.88381" lon="8.54415">
        <ele>1559</ele>
        <time>2021-08-11T08:34:32.385Z</time>
      </trkpt>
      <trkpt lat="46.88381" lon="8.54414">
        <ele>1559</ele>
        <time>2021-08-11T08:34:33.385Z</time>
      </trkpt>
      <trkpt lat="46.88381" lon="8.54413">
        <ele>1559</ele>
        <time>2021-08-11T08:34:34.385Z</time>
      </trkpt>
      <trkpt lat="46.88381" lon="8.54413">
        <ele>1559</ele>
        <time>2021-08-11T08:34:35.385Z</time>
      </trkpt>
      <trkpt lat="46.88382" lon="8.54412">
        <ele>1559</ele>
        <time>2021-08-11T08:34:36.384Z</time>
      </trkpt>
      <trkpt lat="46.88382" lon="8.54411">
        <ele>1559</ele>
        <time>2021-08-11T08:34:37.384Z</time>
      </trkpt>
      <trkpt lat="46.88382" lon="8.54411">
        <ele>1559</ele>
        <time>2021-08-11T08:34:38.385Z</time>
      </trkpt>
      <trkpt lat="46.88383" lon="8.5441">
        <ele>1560</ele>
        <time>2021-08-11T08:34:39.384Z</time>
      </trkpt>
      <trkpt lat="46.88383" lon="8.54409">
        <ele>1560</ele>
        <time>2021-08-11T08:34:40.385Z</time>
      </trkpt>
      <trkpt lat="46.88383" lon="8.54409">
        <ele>1560</ele>
        <time>2021-08-11T08:34:41.385Z</time>
      </trkpt>
      <trkpt lat="46.88383" lon="8.54408">
        <ele>1560</ele>
        <time>2021-08-11T08:34:42.385Z</time>
      </trkpt>
      <trkpt lat="46.88384" lon="8.54407">
        <ele>1561</ele>
        <time>2021-08-11T08:34:43.384Z</time>
      </trkpt>
      <trkpt lat="46.88385" lon="8.54406">
        <ele>1561</ele>
        <time>2021-08-11T08:34:44.384Z</time>
      </trkpt>
      <trkpt lat="46.88386" lon="8.54405">
        <ele>1561</ele>
        <time>2021-08-11T08:34:45.385Z</time>
      </trkpt>
      <trkpt lat="46.88387" lon="8.54405">
        <ele>1562</ele>
        <time>2021-08-11T08:34:46.385Z</time>
      </trkpt>
      <trkpt lat="46.88388" lon="8.54404">
        <ele>1562</ele>
        <time>2021-08-11T08:34:47.385Z</time>
      </trkpt>
      <trkpt lat="46.88388" lon="8.54404">
        <ele>1562</ele>
        <time>2021-08-11T08:34:48.385Z</time>
      </trkpt>
      <trkpt lat="46.88388" lon="8.54404">
        <ele>1562</ele>
        <time>2021-08-11T08:34:49.384Z</time>
      </trkpt>
      <trkpt lat="46.88388" lon="8.54403">
        <ele>1562</ele>
        <time>2021-08-11T08:34:50.385Z</time>
      </trkpt>
      <trkpt lat="46.88388" lon="8.54403">
        <ele>1562</ele>
        <time>2021-08-11T08:34:51.385Z</time>
      </trkpt>
      <trkpt lat="46.88389" lon="8.54402">
        <ele>1562</ele>
        <time>2021-08-11T08:34:52.385Z</time>
      </trkpt>
      <trkpt lat="46.88389" lon="8.54401">
        <ele>1563</ele>
        <time>2021-08-11T08:34:53.385Z</time>
      </trkpt>
      <trkpt lat="46.8839" lon="8.54401">
        <ele>1563</ele>
        <time>2021-08-11T08:34:54.385Z</time>
      </trkpt>
      <trkpt lat="46.8839" lon="8.544">
        <ele>1563</ele>
        <time>2021-08-11T08:34:55.385Z</time>
      </trkpt>
      <trkpt lat="46.8839" lon="8.544">
        <ele>1563</ele>
        <time>2021-08-11T08:34:56.384Z</time>
      </trkpt>
      <trkpt lat="46.8839" lon="8.544">
        <ele>1563</ele>
        <time>2021-08-11T08:34:57.385Z</time>
      </trkpt>
      <trkpt lat="46.8839" lon="8.54399">
        <ele>1563</ele>
        <time>2021-08-11T08:34:58.384Z</time>
      </trkpt>
      <trkpt lat="46.8839" lon="8.54399">
        <ele>1563</ele>
        <time>2021-08-11T08:34:59.384Z</time>
      </trkpt>
      <trkpt lat="46.88391" lon="8.54398">
        <ele>1563</ele>
        <time>2021-08-11T08:35:00.385Z</time>
      </trkpt>
      <trkpt lat="46.88391" lon="8.54397">
        <ele>1564</ele>
        <time>2021-08-11T08:35:01.385Z</time>
      </trkpt>
      <trkpt lat="46.88391" lon="8.54397">
        <ele>1564</ele>
        <time>2021-08-11T08:35:02.385Z</time>
      </trkpt>
      <trkpt lat="46.88391" lon="8.54396">
        <ele>1564</ele>
        <time>2021-08-11T08:35:03.384Z</time>
      </trkpt>
      <trkpt lat="46.88392" lon="8.54396">
        <ele>1564</ele>
        <time>2021-08-11T08:35:04.385Z</time>
      </trkpt>
      <trkpt lat="46.88392" lon="8.54395">
        <ele>1565</ele>
        <time>2021-08-11T08:35:05.385Z</time>
      </trkpt>
      <trkpt lat="46.88392" lon="8.54395">
        <ele>1566</ele>
        <time>2021-08-11T08:35:06.385Z</time>
      </trkpt>
      <trkpt lat="46.88393" lon="8.54394">
        <ele>1566</ele>
        <time>2021-08-11T08:35:07.385Z</time>
      </trkpt>
      <trkpt lat="46.88393" lon="8.54393">
        <ele>1567</ele>
        <time>2021-08-11T08:35:08.385Z</time>
      </trkpt>
      <trkpt lat="46.88394" lon="8.54393">
        <ele>1567</ele>
        <time>2021-08-11T08:35:09.385Z</time>
      </trkpt>
      <trkpt lat="46.88394" lon="8.54392">
        <ele>1567</ele>
        <time>2021-08-11T08:35:10.385Z</time>
      </trkpt>
      <trkpt lat="46.88394" lon="8.54391">
        <ele>1568</ele>
        <time>2021-08-11T08:35:11.385Z</time>
      </trkpt>
      <trkpt lat="46.88394" lon="8.54391">
        <ele>1568</ele>
        <time>2021-08-11T08:35:12.385Z</time>
      </trkpt>
      <trkpt lat="46.88394" lon="8.54391">
        <ele>1568</ele>
        <time>2021-08-11T08:35:13.385Z</time>
      </trkpt>
      <trkpt lat="46.88395" lon="8.54391">
        <ele>1569</ele>
        <time>2021-08-11T08:35:14.385Z</time>
      </trkpt>
      <trkpt lat="46.88395" lon="8.5439">
        <ele>1568</ele>
        <time>2021-08-11T08:35:15.384Z</time>
      </trkpt>
      <trkpt lat="46.88395" lon="8.5439">
        <ele>1568</ele>
        <time>2021-08-11T08:35:16.384Z</time>
      </trkpt>
      <trkpt lat="46.88395" lon="8.54389">
        <ele>1568</ele>
        <time>2021-08-11T08:35:17.384Z</time>
      </trkpt>
      <trkpt lat="46.88395" lon="8.54389">
        <ele>1568</ele>
        <time>2021-08-11T08:35:18.385Z</time>
      </trkpt>
      <trkpt lat="46.88394" lon="8.5439">
        <ele>1568</ele>
        <time>2021-08-11T08:35:19.385Z</time>
      </trkpt>
      <trkpt lat="46.88395" lon="8.54389">
        <ele>1569</ele>
        <time>2021-08-11T08:35:20.384Z</time>
      </trkpt>
      <trkpt lat="46.88395" lon="8.54389">
        <ele>1569</ele>
        <time>2021-08-11T08:35:21.385Z</time>
      </trkpt>
      <trkpt lat="46.88396" lon="8.54388">
        <ele>1569</ele>
        <time>2021-08-11T08:35:22.384Z</time>
      </trkpt>
      <trkpt lat="46.88396" lon="8.54387">
        <ele>1569</ele>
        <time>2021-08-11T08:35:23.384Z</time>
      </trkpt>
      <trkpt lat="46.88397" lon="8.54386">
        <ele>1569</ele>
        <time>2021-08-11T08:35:24.385Z</time>
      </trkpt>
      <trkpt lat="46.88397" lon="8.54386">
        <ele>1569</ele>
        <time>2021-08-11T08:35:25.384Z</time>
      </trkpt>
      <trkpt lat="46.88398" lon="8.54386">
        <ele>1569</ele>
        <time>2021-08-11T08:35:26.384Z</time>
      </trkpt>
      <trkpt lat="46.88398" lon="8.54386">
        <ele>1569</ele>
        <time>2021-08-11T08:35:27.385Z</time>
      </trkpt>
      <trkpt lat="46.88399" lon="8.54385">
        <ele>1570</ele>
        <time>2021-08-11T08:35:28.385Z</time>
      </trkpt>
      <trkpt lat="46.88399" lon="8.54384">
        <ele>1570</ele>
        <time>2021-08-11T08:35:29.384Z</time>
      </trkpt>
      <trkpt lat="46.884" lon="8.54384">
        <ele>1570</ele>
        <time>2021-08-11T08:35:30.385Z</time>
      </trkpt>
      <trkpt lat="46.884" lon="8.54383">
        <ele>1571</ele>
        <time>2021-08-11T08:35:31.384Z</time>
      </trkpt>
      <trkpt lat="46.88401" lon="8.54383">
        <ele>1571</ele>
        <time>2021-08-11T08:35:32.384Z</time>
      </trkpt>
      <trkpt lat="46.88401" lon="8.54383">
        <ele>1571</ele>
        <time>2021-08-11T08:35:33.384Z</time>
      </trkpt>
      <trkpt lat="46.88402" lon="8.54383">
        <ele>1572</ele>
        <time>2021-08-11T08:35:34.384Z</time>
      </trkpt>
      <trkpt lat="46.88402" lon="8.54383">
        <ele>1573</ele>
        <time>2021-08-11T08:35:35.385Z</time>
      </trkpt>
      <trkpt lat="46.88403" lon="8.54382">
        <ele>1573</ele>
        <time>2021-08-11T08:35:36.384Z</time>
      </trkpt>
      <trkpt lat="46.88403" lon="8.54382">
        <ele>1573</ele>
        <time>2021-08-11T08:35:37.384Z</time>
      </trkpt>
      <trkpt lat="46.88404" lon="8.54382">
        <ele>1574</ele>
        <time>2021-08-11T08:35:38.384Z</time>
      </trkpt>
      <trkpt lat="46.88404" lon="8.54381">
        <ele>1574</ele>
        <time>2021-08-11T08:35:39.384Z</time>
      </trkpt>
      <trkpt lat="46.88404" lon="8.54381">
        <ele>1574</ele>
        <time>2021-08-11T08:35:40.384Z</time>
      </trkpt>
      <trkpt lat="46.88405" lon="8.5438">
        <ele>1574</ele>
        <time>2021-08-11T08:35:41.384Z</time>
      </trkpt>
      <trkpt lat="46.88405" lon="8.54379">
        <ele>1575</ele>
        <time>2021-08-11T08:35:42.384Z</time>
      </trkpt>
      <trkpt lat="46.88406" lon="8.54379">
        <ele>1575</ele>
        <time>2021-08-11T08:35:43.384Z</time>
      </trkpt>
      <trkpt lat="46.88406" lon="8.54378">
        <ele>1575</ele>
        <time>2021-08-11T08:35:44.384Z</time>
      </trkpt>
      <trkpt lat="46.88407" lon="8.54378">
        <ele>1575</ele>
        <time>2021-08-11T08:35:45.384Z</time>
      </trkpt>
      <trkpt lat="46.88407" lon="8.54378">
        <ele>1575</ele>
        <time>2021-08-11T08:35:46.384Z</time>
      </trkpt>
      <trkpt lat="46.88407" lon="8.54377">
        <ele>1575</ele>
        <time>2021-08-11T08:35:47.384Z</time>
      </trkpt>
      <trkpt lat="46.88407" lon="8.54377">
        <ele>1575</ele>
        <time>2021-08-11T08:35:48.385Z</time>
      </trkpt>
      <trkpt lat="46.88407" lon="8.54377">
        <ele>1574</ele>
        <time>2021-08-11T08:35:49.385Z</time>
      </trkpt>
      <trkpt lat="46.88407" lon="8.54376">
        <ele>1574</ele>
        <time>2021-08-11T08:35:50.385Z</time>
      </trkpt>
      <trkpt lat="46.88407" lon="8.54376">
        <ele>1574</ele>
        <time>2021-08-11T08:35:51.385Z</time>
      </trkpt>
      <trkpt lat="46.88407" lon="8.54375">
        <ele>1574</ele>
        <time>2021-08-11T08:35:52.385Z</time>
      </trkpt>
      <trkpt lat="46.88407" lon="8.54374">
        <ele>1574</ele>
        <time>2021-08-11T08:35:53.385Z</time>
      </trkpt>
      <trkpt lat="46.88408" lon="8.54374">
        <ele>1574</ele>
        <time>2021-08-11T08:35:54.385Z</time>
      </trkpt>
      <trkpt lat="46.88408" lon="8.54374">
        <ele>1574</ele>
        <time>2021-08-11T08:35:55.385Z</time>
      </trkpt>
      <trkpt lat="46.88409" lon="8.54374">
        <ele>1574</ele>
        <time>2021-08-11T08:35:56.384Z</time>
      </trkpt>
      <trkpt lat="46.88409" lon="8.54373">
        <ele>1574</ele>
        <time>2021-08-11T08:35:57.385Z</time>
      </trkpt>
      <trkpt lat="46.88409" lon="8.54373">
        <ele>1574</ele>
        <time>2021-08-11T08:35:58.384Z</time>
      </trkpt>
      <trkpt lat="46.88409" lon="8.54373">
        <ele>1575</ele>
        <time>2021-08-11T08:35:59.386Z</time>
      </trkpt>
      <trkpt lat="46.88409" lon="8.54373">
        <ele>1576</ele>
        <time>2021-08-11T08:36:00.386Z</time>
      </trkpt>
      <trkpt lat="46.88409" lon="8.54373">
        <ele>1575</ele>
        <time>2021-08-11T08:36:01.385Z</time>
      </trkpt>
      <trkpt lat="46.8841" lon="8.54373">
        <ele>1575</ele>
        <time>2021-08-11T08:36:02.386Z</time>
      </trkpt>
      <trkpt lat="46.8841" lon="8.54373">
        <ele>1576</ele>
        <time>2021-08-11T08:36:03.386Z</time>
      </trkpt>
      <trkpt lat="46.8841" lon="8.54372">
        <ele>1576</ele>
        <time>2021-08-11T08:36:04.385Z</time>
      </trkpt>
      <trkpt lat="46.88407" lon="8.5437">
        <ele>1577</ele>
        <time>2021-08-11T08:36:05.386Z</time>
      </trkpt>
      <trkpt lat="46.88409" lon="8.54368">
        <ele>1577</ele>
        <time>2021-08-11T08:36:06.387Z</time>
      </trkpt>
      <trkpt lat="46.88408" lon="8.54368">
        <ele>1577</ele>
        <time>2021-08-11T08:36:07.386Z</time>
      </trkpt>
      <trkpt lat="46.88409" lon="8.54369">
        <ele>1576</ele>
        <time>2021-08-11T08:36:08.386Z</time>
      </trkpt>
      <trkpt lat="46.8841" lon="8.54368">
        <ele>1576</ele>
        <time>2021-08-11T08:36:09.387Z</time>
      </trkpt>
      <trkpt lat="46.88411" lon="8.54367">
        <ele>1576</ele>
        <time>2021-08-11T08:36:10.387Z</time>
      </trkpt>
      <trkpt lat="46.88412" lon="8.54366">
        <ele>1576</ele>
        <time>2021-08-11T08:36:11.386Z</time>
      </trkpt>
      <trkpt lat="46.88412" lon="8.54366">
        <ele>1576</ele>
        <time>2021-08-11T08:36:12.386Z</time>
      </trkpt>
      <trkpt lat="46.88413" lon="8.54365">
        <ele>1577</ele>
        <time>2021-08-11T08:36:13.386Z</time>
      </trkpt>
      <trkpt lat="46.88413" lon="8.54365">
        <ele>1577</ele>
        <time>2021-08-11T08:36:14.386Z</time>
      </trkpt>
      <trkpt lat="46.88414" lon="8.54364">
        <ele>1577</ele>
        <time>2021-08-11T08:36:15.386Z</time>
      </trkpt>
      <trkpt lat="46.88414" lon="8.54362">
        <ele>1580</ele>
        <time>2021-08-11T08:36:16.386Z</time>
      </trkpt>
      <trkpt lat="46.88415" lon="8.54362">
        <ele>1580</ele>
        <time>2021-08-11T08:36:17.386Z</time>
      </trkpt>
      <trkpt lat="46.88415" lon="8.54362">
        <ele>1579</ele>
        <time>2021-08-11T08:36:18.386Z</time>
      </trkpt>
      <trkpt lat="46.88416" lon="8.54361">
        <ele>1579</ele>
        <time>2021-08-11T08:36:19.386Z</time>
      </trkpt>
      <trkpt lat="46.88416" lon="8.54361">
        <ele>1579</ele>
        <time>2021-08-11T08:36:20.386Z</time>
      </trkpt>
      <trkpt lat="46.88417" lon="8.5436">
        <ele>1580</ele>
        <time>2021-08-11T08:36:21.387Z</time>
      </trkpt>
      <trkpt lat="46.88417" lon="8.54359">
        <ele>1580</ele>
        <time>2021-08-11T08:36:22.387Z</time>
      </trkpt>
      <trkpt lat="46.88417" lon="8.54359">
        <ele>1581</ele>
        <time>2021-08-11T08:36:23.386Z</time>
      </trkpt>
      <trkpt lat="46.88417" lon="8.54358">
        <ele>1581</ele>
        <time>2021-08-11T08:36:24.386Z</time>
      </trkpt>
      <trkpt lat="46.88418" lon="8.54357">
        <ele>1581</ele>
        <time>2021-08-11T08:36:25.386Z</time>
      </trkpt>
      <trkpt lat="46.88418" lon="8.54357">
        <ele>1582</ele>
        <time>2021-08-11T08:36:26.386Z</time>
      </trkpt>
      <trkpt lat="46.88418" lon="8.54356">
        <ele>1582</ele>
        <time>2021-08-11T08:36:27.387Z</time>
      </trkpt>
      <trkpt lat="46.88419" lon="8.54355">
        <ele>1582</ele>
        <time>2021-08-11T08:36:28.386Z</time>
      </trkpt>
      <trkpt lat="46.88419" lon="8.54355">
        <ele>1583</ele>
        <time>2021-08-11T08:36:29.386Z</time>
      </trkpt>
      <trkpt lat="46.88419" lon="8.54354">
        <ele>1583</ele>
        <time>2021-08-11T08:36:30.386Z</time>
      </trkpt>
      <trkpt lat="46.88419" lon="8.54353">
        <ele>1583</ele>
        <time>2021-08-11T08:36:31.387Z</time>
      </trkpt>
      <trkpt lat="46.8842" lon="8.54353">
        <ele>1583</ele>
        <time>2021-08-11T08:36:32.386Z</time>
      </trkpt>
      <trkpt lat="46.8842" lon="8.54352">
        <ele>1583</ele>
        <time>2021-08-11T08:36:33.387Z</time>
      </trkpt>
      <trkpt lat="46.8842" lon="8.54351">
        <ele>1583</ele>
        <time>2021-08-11T08:36:34.386Z</time>
      </trkpt>
      <trkpt lat="46.88421" lon="8.5435">
        <ele>1583</ele>
        <time>2021-08-11T08:36:35.386Z</time>
      </trkpt>
      <trkpt lat="46.88421" lon="8.5435">
        <ele>1583</ele>
        <time>2021-08-11T08:36:36.387Z</time>
      </trkpt>
      <trkpt lat="46.88421" lon="8.5435">
        <ele>1582</ele>
        <time>2021-08-11T08:36:37.387Z</time>
      </trkpt>
      <trkpt lat="46.88421" lon="8.5435">
        <ele>1582</ele>
        <time>2021-08-11T08:36:38.386Z</time>
      </trkpt>
      <trkpt lat="46.88421" lon="8.54349">
        <ele>1581</ele>
        <time>2021-08-11T08:36:39.387Z</time>
      </trkpt>
      <trkpt lat="46.88421" lon="8.54348">
        <ele>1581</ele>
        <time>2021-08-11T08:36:40.386Z</time>
      </trkpt>
      <trkpt lat="46.88422" lon="8.54348">
        <ele>1581</ele>
        <time>2021-08-11T08:36:41.386Z</time>
      </trkpt>
      <trkpt lat="46.88422" lon="8.54347">
        <ele>1581</ele>
        <time>2021-08-11T08:36:42.386Z</time>
      </trkpt>
      <trkpt lat="46.88422" lon="8.54347">
        <ele>1581</ele>
        <time>2021-08-11T08:36:43.386Z</time>
      </trkpt>
      <trkpt lat="46.88422" lon="8.54346">
        <ele>1581</ele>
        <time>2021-08-11T08:36:44.386Z</time>
      </trkpt>
      <trkpt lat="46.88422" lon="8.54346">
        <ele>1581</ele>
        <time>2021-08-11T08:36:45.386Z</time>
      </trkpt>
      <trkpt lat="46.88422" lon="8.54345">
        <ele>1581</ele>
        <time>2021-08-11T08:36:46.386Z</time>
      </trkpt>
      <trkpt lat="46.88422" lon="8.54345">
        <ele>1581</ele>
        <time>2021-08-11T08:36:47.386Z</time>
      </trkpt>
      <trkpt lat="46.88422" lon="8.54344">
        <ele>1581</ele>
        <time>2021-08-11T08:36:48.388Z</time>
      </trkpt>
      <trkpt lat="46.88422" lon="8.54343">
        <ele>1581</ele>
        <time>2021-08-11T08:36:49.387Z</time>
      </trkpt>
      <trkpt lat="46.88422" lon="8.54343">
        <ele>1580</ele>
        <time>2021-08-11T08:36:50.387Z</time>
      </trkpt>
      <trkpt lat="46.88422" lon="8.54342">
        <ele>1580</ele>
        <time>2021-08-11T08:36:51.387Z</time>
      </trkpt>
      <trkpt lat="46.88422" lon="8.54341">
        <ele>1580</ele>
        <time>2021-08-11T08:36:52.387Z</time>
      </trkpt>
      <trkpt lat="46.88423" lon="8.5434">
        <ele>1580</ele>
        <time>2021-08-11T08:36:53.387Z</time>
      </trkpt>
      <trkpt lat="46.88423" lon="8.5434">
        <ele>1580</ele>
        <time>2021-08-11T08:36:54.387Z</time>
      </trkpt>
      <trkpt lat="46.88423" lon="8.54339">
        <ele>1580</ele>
        <time>2021-08-11T08:36:55.388Z</time>
      </trkpt>
      <trkpt lat="46.88423" lon="8.54339">
        <ele>1580</ele>
        <time>2021-08-11T08:36:56.387Z</time>
      </trkpt>
      <trkpt lat="46.88424" lon="8.54339">
        <ele>1580</ele>
        <time>2021-08-11T08:36:57.387Z</time>
      </trkpt>
      <trkpt lat="46.88423" lon="8.54339">
        <ele>1580</ele>
        <time>2021-08-11T08:36:58.387Z</time>
      </trkpt>
      <trkpt lat="46.88423" lon="8.54338">
        <ele>1579</ele>
        <time>2021-08-11T08:36:59.387Z</time>
      </trkpt>
      <trkpt lat="46.88423" lon="8.54338">
        <ele>1579</ele>
        <time>2021-08-11T08:37:00.388Z</time>
      </trkpt>
      <trkpt lat="46.88424" lon="8.54337">
        <ele>1578</ele>
        <time>2021-08-11T08:37:01.387Z</time>
      </trkpt>
      <trkpt lat="46.88424" lon="8.54337">
        <ele>1578</ele>
        <time>2021-08-11T08:37:02.387Z</time>
      </trkpt>
      <trkpt lat="46.88423" lon="8.54336">
        <ele>1578</ele>
        <time>2021-08-11T08:37:03.387Z</time>
      </trkpt>
      <trkpt lat="46.88422" lon="8.54336">
        <ele>1577</ele>
        <time>2021-08-11T08:37:04.388Z</time>
      </trkpt>
      <trkpt lat="46.88423" lon="8.54336">
        <ele>1576</ele>
        <time>2021-08-11T08:37:05.387Z</time>
      </trkpt>
      <trkpt lat="46.88423" lon="8.54335">
        <ele>1576</ele>
        <time>2021-08-11T08:37:06.388Z</time>
      </trkpt>
      <trkpt lat="46.88424" lon="8.54335">
        <ele>1575</ele>
        <time>2021-08-11T08:37:07.387Z</time>
      </trkpt>
      <trkpt lat="46.88424" lon="8.54335">
        <ele>1575</ele>
        <time>2021-08-11T08:37:08.387Z</time>
      </trkpt>
      <trkpt lat="46.88425" lon="8.54333">
        <ele>1577</ele>
        <time>2021-08-11T08:37:09.387Z</time>
      </trkpt>
      <trkpt lat="46.88426" lon="8.54331">
        <ele>1579</ele>
        <time>2021-08-11T08:37:10.388Z</time>
      </trkpt>
      <trkpt lat="46.88427" lon="8.5433">
        <ele>1579</ele>
        <time>2021-08-11T08:37:11.388Z</time>
      </trkpt>
      <trkpt lat="46.88427" lon="8.5433">
        <ele>1579</ele>
        <time>2021-08-11T08:37:12.387Z</time>
      </trkpt>
      <trkpt lat="46.88427" lon="8.54329">
        <ele>1579</ele>
        <time>2021-08-11T08:37:13.388Z</time>
      </trkpt>
      <trkpt lat="46.88427" lon="8.54328">
        <ele>1579</ele>
        <time>2021-08-11T08:37:14.387Z</time>
      </trkpt>
      <trkpt lat="46.88427" lon="8.54328">
        <ele>1579</ele>
        <time>2021-08-11T08:37:15.388Z</time>
      </trkpt>
      <trkpt lat="46.88427" lon="8.54328">
        <ele>1580</ele>
        <time>2021-08-11T08:37:16.388Z</time>
      </trkpt>
      <trkpt lat="46.88426" lon="8.54326">
        <ele>1579</ele>
        <time>2021-08-11T08:37:17.389Z</time>
      </trkpt>
      <trkpt lat="46.88425" lon="8.54325">
        <ele>1579</ele>
        <time>2021-08-11T08:37:18.389Z</time>
      </trkpt>
      <trkpt lat="46.88425" lon="8.54325">
        <ele>1579</ele>
        <time>2021-08-11T08:37:19.388Z</time>
      </trkpt>
      <trkpt lat="46.88425" lon="8.54325">
        <ele>1579</ele>
        <time>2021-08-11T08:37:20.388Z</time>
      </trkpt>
      <trkpt lat="46.88425" lon="8.54324">
        <ele>1578</ele>
        <time>2021-08-11T08:37:21.389Z</time>
      </trkpt>
      <trkpt lat="46.88425" lon="8.54324">
        <ele>1578</ele>
        <time>2021-08-11T08:37:22.388Z</time>
      </trkpt>
      <trkpt lat="46.88426" lon="8.54324">
        <ele>1579</ele>
        <time>2021-08-11T08:37:23.389Z</time>
      </trkpt>
      <trkpt lat="46.88426" lon="8.54324">
        <ele>1579</ele>
        <time>2021-08-11T08:37:24.388Z</time>
      </trkpt>
      <trkpt lat="46.88428" lon="8.54322">
        <ele>1578</ele>
        <time>2021-08-11T08:37:25.390Z</time>
      </trkpt>
      <trkpt lat="46.88428" lon="8.54321">
        <ele>1578</ele>
        <time>2021-08-11T08:37:26.389Z</time>
      </trkpt>
      <trkpt lat="46.88427" lon="8.5432">
        <ele>1578</ele>
        <time>2021-08-11T08:37:27.389Z</time>
      </trkpt>
      <trkpt lat="46.88427" lon="8.54319">
        <ele>1577</ele>
        <time>2021-08-11T08:37:28.389Z</time>
      </trkpt>
      <trkpt lat="46.88427" lon="8.54318">
        <ele>1577</ele>
        <time>2021-08-11T08:37:29.390Z</time>
      </trkpt>
      <trkpt lat="46.88427" lon="8.54317">
        <ele>1577</ele>
        <time>2021-08-11T08:37:30.389Z</time>
      </trkpt>
      <trkpt lat="46.88427" lon="8.54316">
        <ele>1576</ele>
        <time>2021-08-11T08:37:31.390Z</time>
      </trkpt>
      <trkpt lat="46.88427" lon="8.54316">
        <ele>1576</ele>
        <time>2021-08-11T08:37:32.390Z</time>
      </trkpt>
      <trkpt lat="46.88427" lon="8.54316">
        <ele>1576</ele>
        <time>2021-08-11T08:37:33.390Z</time>
      </trkpt>
      <trkpt lat="46.88428" lon="8.54316">
        <ele>1577</ele>
        <time>2021-08-11T08:37:34.390Z</time>
      </trkpt>
      <trkpt lat="46.88428" lon="8.54316">
        <ele>1577</ele>
        <time>2021-08-11T08:37:35.391Z</time>
      </trkpt>
      <trkpt lat="46.88429" lon="8.54315">
        <ele>1577</ele>
        <time>2021-08-11T08:37:36.391Z</time>
      </trkpt>
      <trkpt lat="46.88429" lon="8.54315">
        <ele>1578</ele>
        <time>2021-08-11T08:37:37.390Z</time>
      </trkpt>
      <trkpt lat="46.88429" lon="8.54314">
        <ele>1577</ele>
        <time>2021-08-11T08:37:38.391Z</time>
      </trkpt>
      <trkpt lat="46.88429" lon="8.54312">
        <ele>1577</ele>
        <time>2021-08-11T08:37:39.391Z</time>
      </trkpt>
      <trkpt lat="46.88429" lon="8.54311">
        <ele>1578</ele>
        <time>2021-08-11T08:37:40.391Z</time>
      </trkpt>
      <trkpt lat="46.88429" lon="8.54311">
        <ele>1578</ele>
        <time>2021-08-11T08:37:41.390Z</time>
      </trkpt>
      <trkpt lat="46.88429" lon="8.5431">
        <ele>1578</ele>
        <time>2021-08-11T08:37:42.391Z</time>
      </trkpt>
      <trkpt lat="46.88429" lon="8.5431">
        <ele>1578</ele>
        <time>2021-08-11T08:37:43.391Z</time>
      </trkpt>
      <trkpt lat="46.88429" lon="8.54309">
        <ele>1578</ele>
        <time>2021-08-11T08:37:44.391Z</time>
      </trkpt>
      <trkpt lat="46.88429" lon="8.54308">
        <ele>1578</ele>
        <time>2021-08-11T08:37:45.390Z</time>
      </trkpt>
      <trkpt lat="46.88429" lon="8.54307">
        <ele>1578</ele>
        <time>2021-08-11T08:37:46.390Z</time>
      </trkpt>
      <trkpt lat="46.88428" lon="8.54307">
        <ele>1578</ele>
        <time>2021-08-11T08:37:47.391Z</time>
      </trkpt>
      <trkpt lat="46.88428" lon="8.54306">
        <ele>1578</ele>
        <time>2021-08-11T08:37:48.390Z</time>
      </trkpt>
      <trkpt lat="46.88429" lon="8.54306">
        <ele>1578</ele>
        <time>2021-08-11T08:37:49.391Z</time>
      </trkpt>
      <trkpt lat="46.88431" lon="8.54304">
        <ele>1581</ele>
        <time>2021-08-11T08:37:50.393Z</time>
      </trkpt>
      <trkpt lat="46.88431" lon="8.54303">
        <ele>1581</ele>
        <time>2021-08-11T08:37:51.392Z</time>
      </trkpt>
      <trkpt lat="46.88432" lon="8.543">
        <ele>1580</ele>
        <time>2021-08-11T08:37:52.393Z</time>
      </trkpt>
      <trkpt lat="46.88432" lon="8.543">
        <ele>1581</ele>
        <time>2021-08-11T08:37:53.392Z</time>
      </trkpt>
      <trkpt lat="46.88433" lon="8.54299">
        <ele>1582</ele>
        <time>2021-08-11T08:37:54.393Z</time>
      </trkpt>
      <trkpt lat="46.88433" lon="8.54299">
        <ele>1582</ele>
        <time>2021-08-11T08:37:55.393Z</time>
      </trkpt>
      <trkpt lat="46.88434" lon="8.54299">
        <ele>1582</ele>
        <time>2021-08-11T08:37:56.392Z</time>
      </trkpt>
      <trkpt lat="46.88434" lon="8.54298">
        <ele>1582</ele>
        <time>2021-08-11T08:37:57.393Z</time>
      </trkpt>
      <trkpt lat="46.88434" lon="8.54298">
        <ele>1582</ele>
        <time>2021-08-11T08:37:58.393Z</time>
      </trkpt>
      <trkpt lat="46.88435" lon="8.54297">
        <ele>1582</ele>
        <time>2021-08-11T08:37:59.393Z</time>
      </trkpt>
      <trkpt lat="46.88435" lon="8.54297">
        <ele>1583</ele>
        <time>2021-08-11T08:38:00.392Z</time>
      </trkpt>
      <trkpt lat="46.88436" lon="8.54296">
        <ele>1583</ele>
        <time>2021-08-11T08:38:01.393Z</time>
      </trkpt>
      <trkpt lat="46.88437" lon="8.54296">
        <ele>1584</ele>
        <time>2021-08-11T08:38:02.392Z</time>
      </trkpt>
      <trkpt lat="46.88437" lon="8.54296">
        <ele>1584</ele>
        <time>2021-08-11T08:38:03.393Z</time>
      </trkpt>
      <trkpt lat="46.88438" lon="8.54295">
        <ele>1584</ele>
        <time>2021-08-11T08:38:04.393Z</time>
      </trkpt>
      <trkpt lat="46.88438" lon="8.54295">
        <ele>1584</ele>
        <time>2021-08-11T08:38:05.393Z</time>
      </trkpt>
      <trkpt lat="46.88438" lon="8.54294">
        <ele>1584</ele>
        <time>2021-08-11T08:38:06.393Z</time>
      </trkpt>
      <trkpt lat="46.88438" lon="8.54294">
        <ele>1584</ele>
        <time>2021-08-11T08:38:07.393Z</time>
      </trkpt>
      <trkpt lat="46.88439" lon="8.54293">
        <ele>1584</ele>
        <time>2021-08-11T08:38:08.393Z</time>
      </trkpt>
      <trkpt lat="46.88439" lon="8.54293">
        <ele>1584</ele>
        <time>2021-08-11T08:38:09.393Z</time>
      </trkpt>
      <trkpt lat="46.88439" lon="8.54292">
        <ele>1584</ele>
        <time>2021-08-11T08:38:10.393Z</time>
      </trkpt>
      <trkpt lat="46.8844" lon="8.54291">
        <ele>1584</ele>
        <time>2021-08-11T08:38:11.392Z</time>
      </trkpt>
      <trkpt lat="46.8844" lon="8.54291">
        <ele>1584</ele>
        <time>2021-08-11T08:38:12.393Z</time>
      </trkpt>
      <trkpt lat="46.88441" lon="8.5429">
        <ele>1583</ele>
        <time>2021-08-11T08:38:13.392Z</time>
      </trkpt>
      <trkpt lat="46.88441" lon="8.54289">
        <ele>1583</ele>
        <time>2021-08-11T08:38:14.393Z</time>
      </trkpt>
      <trkpt lat="46.88441" lon="8.54289">
        <ele>1584</ele>
        <time>2021-08-11T08:38:15.392Z</time>
      </trkpt>
      <trkpt lat="46.88442" lon="8.54289">
        <ele>1584</ele>
        <time>2021-08-11T08:38:16.393Z</time>
      </trkpt>
      <trkpt lat="46.88442" lon="8.54288">
        <ele>1585</ele>
        <time>2021-08-11T08:38:17.393Z</time>
      </trkpt>
      <trkpt lat="46.88442" lon="8.54287">
        <ele>1585</ele>
        <time>2021-08-11T08:38:18.393Z</time>
      </trkpt>
      <trkpt lat="46.88442" lon="8.54287">
        <ele>1585</ele>
        <time>2021-08-11T08:38:19.393Z</time>
      </trkpt>
      <trkpt lat="46.88442" lon="8.54286">
        <ele>1585</ele>
        <time>2021-08-11T08:38:20.393Z</time>
      </trkpt>
      <trkpt lat="46.88443" lon="8.54286">
        <ele>1586</ele>
        <time>2021-08-11T08:38:21.393Z</time>
      </trkpt>
      <trkpt lat="46.88443" lon="8.54285">
        <ele>1586</ele>
        <time>2021-08-11T08:38:22.393Z</time>
      </trkpt>
      <trkpt lat="46.88444" lon="8.54285">
        <ele>1587</ele>
        <time>2021-08-11T08:38:23.393Z</time>
      </trkpt>
      <trkpt lat="46.88445" lon="8.54284">
        <ele>1587</ele>
        <time>2021-08-11T08:38:24.393Z</time>
      </trkpt>
      <trkpt lat="46.88445" lon="8.54283">
        <ele>1588</ele>
        <time>2021-08-11T08:38:25.393Z</time>
      </trkpt>
      <trkpt lat="46.88445" lon="8.54282">
        <ele>1589</ele>
        <time>2021-08-11T08:38:26.393Z</time>
      </trkpt>
      <trkpt lat="46.88446" lon="8.54281">
        <ele>1588</ele>
        <time>2021-08-11T08:38:27.392Z</time>
      </trkpt>
      <trkpt lat="46.88446" lon="8.5428">
        <ele>1588</ele>
        <time>2021-08-11T08:38:28.393Z</time>
      </trkpt>
      <trkpt lat="46.88446" lon="8.5428">
        <ele>1588</ele>
        <time>2021-08-11T08:38:29.393Z</time>
      </trkpt>
      <trkpt lat="46.88447" lon="8.54279">
        <ele>1588</ele>
        <time>2021-08-11T08:38:30.393Z</time>
      </trkpt>
      <trkpt lat="46.88448" lon="8.54279">
        <ele>1589</ele>
        <time>2021-08-11T08:38:31.392Z</time>
      </trkpt>
      <trkpt lat="46.88448" lon="8.54278">
        <ele>1589</ele>
        <time>2021-08-11T08:38:32.392Z</time>
      </trkpt>
      <trkpt lat="46.88448" lon="8.54278">
        <ele>1589</ele>
        <time>2021-08-11T08:38:33.393Z</time>
      </trkpt>
      <trkpt lat="46.88448" lon="8.54277">
        <ele>1589</ele>
        <time>2021-08-11T08:38:34.393Z</time>
      </trkpt>
      <trkpt lat="46.88448" lon="8.54277">
        <ele>1589</ele>
        <time>2021-08-11T08:38:35.393Z</time>
      </trkpt>
      <trkpt lat="46.88447" lon="8.54276">
        <ele>1588</ele>
        <time>2021-08-11T08:38:36.393Z</time>
      </trkpt>
      <trkpt lat="46.88447" lon="8.54275">
        <ele>1588</ele>
        <time>2021-08-11T08:38:37.392Z</time>
      </trkpt>
      <trkpt lat="46.88447" lon="8.54274">
        <ele>1588</ele>
        <time>2021-08-11T08:38:38.392Z</time>
      </trkpt>
      <trkpt lat="46.88447" lon="8.54273">
        <ele>1589</ele>
        <time>2021-08-11T08:38:39.392Z</time>
      </trkpt>
      <trkpt lat="46.88448" lon="8.54273">
        <ele>1588</ele>
        <time>2021-08-11T08:38:40.393Z</time>
      </trkpt>
      <trkpt lat="46.88448" lon="8.54272">
        <ele>1589</ele>
        <time>2021-08-11T08:38:41.393Z</time>
      </trkpt>
      <trkpt lat="46.88448" lon="8.54272">
        <ele>1589</ele>
        <time>2021-08-11T08:38:42.393Z</time>
      </trkpt>
      <trkpt lat="46.88449" lon="8.54272">
        <ele>1589</ele>
        <time>2021-08-11T08:38:43.392Z</time>
      </trkpt>
      <trkpt lat="46.8845" lon="8.54271">
        <ele>1589</ele>
        <time>2021-08-11T08:38:44.392Z</time>
      </trkpt>
      <trkpt lat="46.8845" lon="8.54271">
        <ele>1589</ele>
        <time>2021-08-11T08:38:45.392Z</time>
      </trkpt>
      <trkpt lat="46.8845" lon="8.5427">
        <ele>1589</ele>
        <time>2021-08-11T08:38:46.392Z</time>
      </trkpt>
      <trkpt lat="46.8845" lon="8.54269">
        <ele>1589</ele>
        <time>2021-08-11T08:38:47.392Z</time>
      </trkpt>
      <trkpt lat="46.8845" lon="8.54268">
        <ele>1590</ele>
        <time>2021-08-11T08:38:48.393Z</time>
      </trkpt>
      <trkpt lat="46.88451" lon="8.54268">
        <ele>1590</ele>
        <time>2021-08-11T08:38:49.393Z</time>
      </trkpt>
      <trkpt lat="46.88451" lon="8.54267">
        <ele>1591</ele>
        <time>2021-08-11T08:38:50.393Z</time>
      </trkpt>
      <trkpt lat="46.88453" lon="8.54266">
        <ele>1591</ele>
        <time>2021-08-11T08:38:51.393Z</time>
      </trkpt>
      <trkpt lat="46.88453" lon="8.54265">
        <ele>1592</ele>
        <time>2021-08-11T08:38:52.393Z</time>
      </trkpt>
      <trkpt lat="46.88453" lon="8.54265">
        <ele>1593</ele>
        <time>2021-08-11T08:38:53.393Z</time>
      </trkpt>
      <trkpt lat="46.88453" lon="8.54265">
        <ele>1594</ele>
        <time>2021-08-11T08:38:54.392Z</time>
      </trkpt>
      <trkpt lat="46.88453" lon="8.54264">
        <ele>1594</ele>
        <time>2021-08-11T08:38:55.393Z</time>
      </trkpt>
      <trkpt lat="46.88453" lon="8.54264">
        <ele>1594</ele>
        <time>2021-08-11T08:38:56.393Z</time>
      </trkpt>
      <trkpt lat="46.88453" lon="8.54263">
        <ele>1594</ele>
        <time>2021-08-11T08:38:57.393Z</time>
      </trkpt>
      <trkpt lat="46.88453" lon="8.54263">
        <ele>1594</ele>
        <time>2021-08-11T08:38:58.393Z</time>
      </trkpt>
      <trkpt lat="46.88453" lon="8.54262">
        <ele>1594</ele>
        <time>2021-08-11T08:38:59.393Z</time>
      </trkpt>
      <trkpt lat="46.88453" lon="8.54262">
        <ele>1594</ele>
        <time>2021-08-11T08:39:00.392Z</time>
      </trkpt>
      <trkpt lat="46.88453" lon="8.54261">
        <ele>1594</ele>
        <time>2021-08-11T08:39:01.393Z</time>
      </trkpt>
      <trkpt lat="46.88453" lon="8.54261">
        <ele>1594</ele>
        <time>2021-08-11T08:39:02.393Z</time>
      </trkpt>
      <trkpt lat="46.88453" lon="8.54261">
        <ele>1594</ele>
        <time>2021-08-11T08:39:03.393Z</time>
      </trkpt>
      <trkpt lat="46.88453" lon="8.5426">
        <ele>1593</ele>
        <time>2021-08-11T08:39:04.394Z</time>
      </trkpt>
      <trkpt lat="46.88453" lon="8.54259">
        <ele>1593</ele>
        <time>2021-08-11T08:39:05.394Z</time>
      </trkpt>
      <trkpt lat="46.88452" lon="8.54258">
        <ele>1593</ele>
        <time>2021-08-11T08:39:06.394Z</time>
      </trkpt>
      <trkpt lat="46.88451" lon="8.54258">
        <ele>1594</ele>
        <time>2021-08-11T08:39:07.393Z</time>
      </trkpt>
      <trkpt lat="46.88452" lon="8.54257">
        <ele>1594</ele>
        <time>2021-08-11T08:39:08.394Z</time>
      </trkpt>
      <trkpt lat="46.88452" lon="8.54256">
        <ele>1594</ele>
        <time>2021-08-11T08:39:09.393Z</time>
      </trkpt>
      <trkpt lat="46.88453" lon="8.54256">
        <ele>1594</ele>
        <time>2021-08-11T08:39:10.394Z</time>
      </trkpt>
      <trkpt lat="46.88454" lon="8.54255">
        <ele>1595</ele>
        <time>2021-08-11T08:39:11.393Z</time>
      </trkpt>
      <trkpt lat="46.88454" lon="8.54254">
        <ele>1595</ele>
        <time>2021-08-11T08:39:12.394Z</time>
      </trkpt>
      <trkpt lat="46.88454" lon="8.54254">
        <ele>1595</ele>
        <time>2021-08-11T08:39:13.394Z</time>
      </trkpt>
      <trkpt lat="46.88454" lon="8.54254">
        <ele>1595</ele>
        <time>2021-08-11T08:39:14.394Z</time>
      </trkpt>
      <trkpt lat="46.88454" lon="8.54253">
        <ele>1595</ele>
        <time>2021-08-11T08:39:15.394Z</time>
      </trkpt>
      <trkpt lat="46.88454" lon="8.54253">
        <ele>1595</ele>
        <time>2021-08-11T08:39:16.393Z</time>
      </trkpt>
      <trkpt lat="46.88454" lon="8.54253">
        <ele>1595</ele>
        <time>2021-08-11T08:39:17.394Z</time>
      </trkpt>
      <trkpt lat="46.88454" lon="8.54252">
        <ele>1595</ele>
        <time>2021-08-11T08:39:18.394Z</time>
      </trkpt>
      <trkpt lat="46.88455" lon="8.54252">
        <ele>1595</ele>
        <time>2021-08-11T08:39:19.394Z</time>
      </trkpt>
      <trkpt lat="46.88455" lon="8.54251">
        <ele>1595</ele>
        <time>2021-08-11T08:39:20.393Z</time>
      </trkpt>
      <trkpt lat="46.88455" lon="8.5425">
        <ele>1595</ele>
        <time>2021-08-11T08:39:21.394Z</time>
      </trkpt>
      <trkpt lat="46.88455" lon="8.5425">
        <ele>1596</ele>
        <time>2021-08-11T08:39:22.394Z</time>
      </trkpt>
      <trkpt lat="46.88455" lon="8.54249">
        <ele>1596</ele>
        <time>2021-08-11T08:39:23.394Z</time>
      </trkpt>
      <trkpt lat="46.88455" lon="8.54249">
        <ele>1596</ele>
        <time>2021-08-11T08:39:24.394Z</time>
      </trkpt>
      <trkpt lat="46.88455" lon="8.54248">
        <ele>1597</ele>
        <time>2021-08-11T08:39:25.394Z</time>
      </trkpt>
      <trkpt lat="46.88456" lon="8.54248">
        <ele>1596</ele>
        <time>2021-08-11T08:39:26.393Z</time>
      </trkpt>
      <trkpt lat="46.88456" lon="8.54247">
        <ele>1597</ele>
        <time>2021-08-11T08:39:27.394Z</time>
      </trkpt>
      <trkpt lat="46.88456" lon="8.54247">
        <ele>1597</ele>
        <time>2021-08-11T08:39:28.394Z</time>
      </trkpt>
      <trkpt lat="46.88457" lon="8.54246">
        <ele>1597</ele>
        <time>2021-08-11T08:39:29.394Z</time>
      </trkpt>
      <trkpt lat="46.88458" lon="8.54245">
        <ele>1598</ele>
        <time>2021-08-11T08:39:30.394Z</time>
      </trkpt>
      <trkpt lat="46.88458" lon="8.54245">
        <ele>1598</ele>
        <time>2021-08-11T08:39:31.393Z</time>
      </trkpt>
      <trkpt lat="46.88459" lon="8.54244">
        <ele>1598</ele>
        <time>2021-08-11T08:39:32.394Z</time>
      </trkpt>
      <trkpt lat="46.88459" lon="8.54244">
        <ele>1599</ele>
        <time>2021-08-11T08:39:33.394Z</time>
      </trkpt>
      <trkpt lat="46.88459" lon="8.54243">
        <ele>1599</ele>
        <time>2021-08-11T08:39:34.394Z</time>
      </trkpt>
      <trkpt lat="46.8846" lon="8.54242">
        <ele>1600</ele>
        <time>2021-08-11T08:39:35.394Z</time>
      </trkpt>
      <trkpt lat="46.88461" lon="8.54242">
        <ele>1600</ele>
        <time>2021-08-11T08:39:36.393Z</time>
      </trkpt>
      <trkpt lat="46.88461" lon="8.54242">
        <ele>1600</ele>
        <time>2021-08-11T08:39:37.394Z</time>
      </trkpt>
      <trkpt lat="46.88462" lon="8.54241">
        <ele>1600</ele>
        <time>2021-08-11T08:39:38.394Z</time>
      </trkpt>
      <trkpt lat="46.88462" lon="8.5424">
        <ele>1600</ele>
        <time>2021-08-11T08:39:39.394Z</time>
      </trkpt>
      <trkpt lat="46.88463" lon="8.5424">
        <ele>1600</ele>
        <time>2021-08-11T08:39:40.393Z</time>
      </trkpt>
      <trkpt lat="46.88464" lon="8.54239">
        <ele>1601</ele>
        <time>2021-08-11T08:39:41.394Z</time>
      </trkpt>
      <trkpt lat="46.88463" lon="8.54239">
        <ele>1601</ele>
        <time>2021-08-11T08:39:42.394Z</time>
      </trkpt>
      <trkpt lat="46.88463" lon="8.54238">
        <ele>1601</ele>
        <time>2021-08-11T08:39:43.394Z</time>
      </trkpt>
      <trkpt lat="46.88464" lon="8.54237">
        <ele>1601</ele>
        <time>2021-08-11T08:39:44.394Z</time>
      </trkpt>
      <trkpt lat="46.88464" lon="8.54237">
        <ele>1601</ele>
        <time>2021-08-11T08:39:45.393Z</time>
      </trkpt>
      <trkpt lat="46.88464" lon="8.54236">
        <ele>1601</ele>
        <time>2021-08-11T08:39:46.394Z</time>
      </trkpt>
      <trkpt lat="46.88464" lon="8.54235">
        <ele>1601</ele>
        <time>2021-08-11T08:39:47.394Z</time>
      </trkpt>
      <trkpt lat="46.88464" lon="8.54234">
        <ele>1601</ele>
        <time>2021-08-11T08:39:48.394Z</time>
      </trkpt>
      <trkpt lat="46.88464" lon="8.54233">
        <ele>1601</ele>
        <time>2021-08-11T08:39:49.393Z</time>
      </trkpt>
      <trkpt lat="46.88464" lon="8.54233">
        <ele>1601</ele>
        <time>2021-08-11T08:39:50.393Z</time>
      </trkpt>
      <trkpt lat="46.88464" lon="8.54232">
        <ele>1601</ele>
        <time>2021-08-11T08:39:51.393Z</time>
      </trkpt>
      <trkpt lat="46.88464" lon="8.54233">
        <ele>1601</ele>
        <time>2021-08-11T08:39:52.393Z</time>
      </trkpt>
      <trkpt lat="46.88462" lon="8.54231">
        <ele>1598</ele>
        <time>2021-08-11T08:39:53.395Z</time>
      </trkpt>
      <trkpt lat="46.88462" lon="8.5423">
        <ele>1598</ele>
        <time>2021-08-11T08:39:54.395Z</time>
      </trkpt>
      <trkpt lat="46.88462" lon="8.54229">
        <ele>1598</ele>
        <time>2021-08-11T08:39:55.394Z</time>
      </trkpt>
      <trkpt lat="46.88462" lon="8.54229">
        <ele>1598</ele>
        <time>2021-08-11T08:39:56.395Z</time>
      </trkpt>
      <trkpt lat="46.88462" lon="8.54228">
        <ele>1598</ele>
        <time>2021-08-11T08:39:57.395Z</time>
      </trkpt>
      <trkpt lat="46.88461" lon="8.54228">
        <ele>1598</ele>
        <time>2021-08-11T08:39:58.395Z</time>
      </trkpt>
      <trkpt lat="46.88461" lon="8.54227">
        <ele>1598</ele>
        <time>2021-08-11T08:39:59.395Z</time>
      </trkpt>
      <trkpt lat="46.88461" lon="8.54227">
        <ele>1598</ele>
        <time>2021-08-11T08:40:00.394Z</time>
      </trkpt>
      <trkpt lat="46.88461" lon="8.54226">
        <ele>1599</ele>
        <time>2021-08-11T08:40:01.395Z</time>
      </trkpt>
      <trkpt lat="46.88461" lon="8.54225">
        <ele>1600</ele>
        <time>2021-08-11T08:40:02.395Z</time>
      </trkpt>
      <trkpt lat="46.88461" lon="8.54225">
        <ele>1600</ele>
        <time>2021-08-11T08:40:03.396Z</time>
      </trkpt>
      <trkpt lat="46.8846" lon="8.54224">
        <ele>1600</ele>
        <time>2021-08-11T08:40:04.395Z</time>
      </trkpt>
      <trkpt lat="46.8846" lon="8.54224">
        <ele>1600</ele>
        <time>2021-08-11T08:40:05.395Z</time>
      </trkpt>
      <trkpt lat="46.8846" lon="8.54223">
        <ele>1600</ele>
        <time>2021-08-11T08:40:06.395Z</time>
      </trkpt>
      <trkpt lat="46.8846" lon="8.54223">
        <ele>1600</ele>
        <time>2021-08-11T08:40:07.396Z</time>
      </trkpt>
      <trkpt lat="46.8846" lon="8.54223">
        <ele>1601</ele>
        <time>2021-08-11T08:40:08.396Z</time>
      </trkpt>
      <trkpt lat="46.8846" lon="8.54222">
        <ele>1601</ele>
        <time>2021-08-11T08:40:09.395Z</time>
      </trkpt>
      <trkpt lat="46.8846" lon="8.54221">
        <ele>1601</ele>
        <time>2021-08-11T08:40:10.396Z</time>
      </trkpt>
      <trkpt lat="46.8846" lon="8.5422">
        <ele>1601</ele>
        <time>2021-08-11T08:40:11.395Z</time>
      </trkpt>
      <trkpt lat="46.8846" lon="8.5422">
        <ele>1601</ele>
        <time>2021-08-11T08:40:12.395Z</time>
      </trkpt>
      <trkpt lat="46.8846" lon="8.54219">
        <ele>1601</ele>
        <time>2021-08-11T08:40:13.395Z</time>
      </trkpt>
      <trkpt lat="46.8846" lon="8.54218">
        <ele>1601</ele>
        <time>2021-08-11T08:40:14.395Z</time>
      </trkpt>
      <trkpt lat="46.8846" lon="8.54218">
        <ele>1601</ele>
        <time>2021-08-11T08:40:15.395Z</time>
      </trkpt>
      <trkpt lat="46.88459" lon="8.54217">
        <ele>1601</ele>
        <time>2021-08-11T08:40:16.395Z</time>
      </trkpt>
      <trkpt lat="46.88459" lon="8.54216">
        <ele>1601</ele>
        <time>2021-08-11T08:40:17.396Z</time>
      </trkpt>
      <trkpt lat="46.88459" lon="8.54216">
        <ele>1601</ele>
        <time>2021-08-11T08:40:18.396Z</time>
      </trkpt>
      <trkpt lat="46.88458" lon="8.54215">
        <ele>1601</ele>
        <time>2021-08-11T08:40:19.396Z</time>
      </trkpt>
      <trkpt lat="46.88458" lon="8.54215">
        <ele>1601</ele>
        <time>2021-08-11T08:40:20.395Z</time>
      </trkpt>
      <trkpt lat="46.88457" lon="8.54215">
        <ele>1601</ele>
        <time>2021-08-11T08:40:21.396Z</time>
      </trkpt>
      <trkpt lat="46.88457" lon="8.54214">
        <ele>1602</ele>
        <time>2021-08-11T08:40:22.395Z</time>
      </trkpt>
      <trkpt lat="46.88457" lon="8.54214">
        <ele>1603</ele>
        <time>2021-08-11T08:40:23.396Z</time>
      </trkpt>
      <trkpt lat="46.88457" lon="8.54213">
        <ele>1603</ele>
        <time>2021-08-11T08:40:24.396Z</time>
      </trkpt>
      <trkpt lat="46.88457" lon="8.54212">
        <ele>1604</ele>
        <time>2021-08-11T08:40:25.395Z</time>
      </trkpt>
      <trkpt lat="46.88458" lon="8.54212">
        <ele>1604</ele>
        <time>2021-08-11T08:40:26.395Z</time>
      </trkpt>
      <trkpt lat="46.88458" lon="8.54211">
        <ele>1605</ele>
        <time>2021-08-11T08:40:27.395Z</time>
      </trkpt>
      <trkpt lat="46.88458" lon="8.5421">
        <ele>1605</ele>
        <time>2021-08-11T08:40:28.395Z</time>
      </trkpt>
      <trkpt lat="46.88458" lon="8.5421">
        <ele>1606</ele>
        <time>2021-08-11T08:40:29.395Z</time>
      </trkpt>
      <trkpt lat="46.88458" lon="8.5421">
        <ele>1606</ele>
        <time>2021-08-11T08:40:30.395Z</time>
      </trkpt>
      <trkpt lat="46.88458" lon="8.54209">
        <ele>1606</ele>
        <time>2021-08-11T08:40:31.396Z</time>
      </trkpt>
      <trkpt lat="46.88458" lon="8.54209">
        <ele>1606</ele>
        <time>2021-08-11T08:40:32.396Z</time>
      </trkpt>
      <trkpt lat="46.88457" lon="8.54208">
        <ele>1606</ele>
        <time>2021-08-11T08:40:33.396Z</time>
      </trkpt>
      <trkpt lat="46.88456" lon="8.54207">
        <ele>1606</ele>
        <time>2021-08-11T08:40:34.395Z</time>
      </trkpt>
      <trkpt lat="46.88456" lon="8.54207">
        <ele>1607</ele>
        <time>2021-08-11T08:40:35.395Z</time>
      </trkpt>
      <trkpt lat="46.88456" lon="8.54206">
        <ele>1607</ele>
        <time>2021-08-11T08:40:36.396Z</time>
      </trkpt>
      <trkpt lat="46.88456" lon="8.54206">
        <ele>1607</ele>
        <time>2021-08-11T08:40:37.395Z</time>
      </trkpt>
      <trkpt lat="46.88457" lon="8.54205">
        <ele>1607</ele>
        <time>2021-08-11T08:40:38.396Z</time>
      </trkpt>
      <trkpt lat="46.88457" lon="8.54205">
        <ele>1608</ele>
        <time>2021-08-11T08:40:39.395Z</time>
      </trkpt>
      <trkpt lat="46.88456" lon="8.54204">
        <ele>1608</ele>
        <time>2021-08-11T08:40:40.396Z</time>
      </trkpt>
      <trkpt lat="46.88456" lon="8.54204">
        <ele>1608</ele>
        <time>2021-08-11T08:40:41.395Z</time>
      </trkpt>
      <trkpt lat="46.88456" lon="8.54203">
        <ele>1608</ele>
        <time>2021-08-11T08:40:42.395Z</time>
      </trkpt>
      <trkpt lat="46.88455" lon="8.54203">
        <ele>1609</ele>
        <time>2021-08-11T08:40:43.396Z</time>
      </trkpt>
      <trkpt lat="46.88454" lon="8.54202">
        <ele>1609</ele>
        <time>2021-08-11T08:40:44.395Z</time>
      </trkpt>
      <trkpt lat="46.88454" lon="8.54202">
        <ele>1609</ele>
        <time>2021-08-11T08:40:45.395Z</time>
      </trkpt>
      <trkpt lat="46.88454" lon="8.54201">
        <ele>1609</ele>
        <time>2021-08-11T08:40:46.395Z</time>
      </trkpt>
      <trkpt lat="46.88454" lon="8.54201">
        <ele>1610</ele>
        <time>2021-08-11T08:40:47.396Z</time>
      </trkpt>
      <trkpt lat="46.88453" lon="8.54201">
        <ele>1610</ele>
        <time>2021-08-11T08:40:48.396Z</time>
      </trkpt>
      <trkpt lat="46.88453" lon="8.542">
        <ele>1610</ele>
        <time>2021-08-11T08:40:49.396Z</time>
      </trkpt>
      <trkpt lat="46.88453" lon="8.542">
        <ele>1611</ele>
        <time>2021-08-11T08:40:50.395Z</time>
      </trkpt>
      <trkpt lat="46.88452" lon="8.54199">
        <ele>1611</ele>
        <time>2021-08-11T08:40:51.395Z</time>
      </trkpt>
      <trkpt lat="46.88451" lon="8.54198">
        <ele>1611</ele>
        <time>2021-08-11T08:40:52.395Z</time>
      </trkpt>
      <trkpt lat="46.88451" lon="8.54197">
        <ele>1611</ele>
        <time>2021-08-11T08:40:53.396Z</time>
      </trkpt>
      <trkpt lat="46.8845" lon="8.54196">
        <ele>1611</ele>
        <time>2021-08-11T08:40:54.396Z</time>
      </trkpt>
      <trkpt lat="46.8845" lon="8.54196">
        <ele>1611</ele>
        <time>2021-08-11T08:40:55.396Z</time>
      </trkpt>
      <trkpt lat="46.8845" lon="8.54195">
        <ele>1611</ele>
        <time>2021-08-11T08:40:56.396Z</time>
      </trkpt>
      <trkpt lat="46.88449" lon="8.54195">
        <ele>1611</ele>
        <time>2021-08-11T08:40:57.396Z</time>
      </trkpt>
      <trkpt lat="46.88449" lon="8.54194">
        <ele>1611</ele>
        <time>2021-08-11T08:40:58.395Z</time>
      </trkpt>
      <trkpt lat="46.88447" lon="8.54193">
        <ele>1611</ele>
        <time>2021-08-11T08:40:59.396Z</time>
      </trkpt>
      <trkpt lat="46.88447" lon="8.54193">
        <ele>1611</ele>
        <time>2021-08-11T08:41:00.396Z</time>
      </trkpt>
      <trkpt lat="46.88447" lon="8.54193">
        <ele>1611</ele>
        <time>2021-08-11T08:41:01.396Z</time>
      </trkpt>
      <trkpt lat="46.88447" lon="8.54193">
        <ele>1611</ele>
        <time>2021-08-11T08:41:02.395Z</time>
      </trkpt>
      <trkpt lat="46.88446" lon="8.54192">
        <ele>1611</ele>
        <time>2021-08-11T08:41:03.395Z</time>
      </trkpt>
      <trkpt lat="46.88445" lon="8.54191">
        <ele>1611</ele>
        <time>2021-08-11T08:41:04.395Z</time>
      </trkpt>
      <trkpt lat="46.88445" lon="8.54191">
        <ele>1611</ele>
        <time>2021-08-11T08:41:05.396Z</time>
      </trkpt>
      <trkpt lat="46.88444" lon="8.5419">
        <ele>1611</ele>
        <time>2021-08-11T08:41:06.395Z</time>
      </trkpt>
      <trkpt lat="46.88444" lon="8.5419">
        <ele>1610</ele>
        <time>2021-08-11T08:41:07.396Z</time>
      </trkpt>
      <trkpt lat="46.88444" lon="8.54189">
        <ele>1610</ele>
        <time>2021-08-11T08:41:08.396Z</time>
      </trkpt>
      <trkpt lat="46.88443" lon="8.54189">
        <ele>1610</ele>
        <time>2021-08-11T08:41:09.396Z</time>
      </trkpt>
      <trkpt lat="46.88443" lon="8.54189">
        <ele>1610</ele>
        <time>2021-08-11T08:41:10.396Z</time>
      </trkpt>
      <trkpt lat="46.88442" lon="8.54188">
        <ele>1610</ele>
        <time>2021-08-11T08:41:11.395Z</time>
      </trkpt>
      <trkpt lat="46.88442" lon="8.54188">
        <ele>1610</ele>
        <time>2021-08-11T08:41:12.396Z</time>
      </trkpt>
      <trkpt lat="46.88441" lon="8.54187">
        <ele>1610</ele>
        <time>2021-08-11T08:41:13.396Z</time>
      </trkpt>
      <trkpt lat="46.88441" lon="8.54187">
        <ele>1610</ele>
        <time>2021-08-11T08:41:14.396Z</time>
      </trkpt>
      <trkpt lat="46.88441" lon="8.54187">
        <ele>1610</ele>
        <time>2021-08-11T08:41:15.395Z</time>
      </trkpt>
      <trkpt lat="46.88441" lon="8.54186">
        <ele>1611</ele>
        <time>2021-08-11T08:41:16.396Z</time>
      </trkpt>
      <trkpt lat="46.8844" lon="8.54185">
        <ele>1611</ele>
        <time>2021-08-11T08:41:17.395Z</time>
      </trkpt>
      <trkpt lat="46.88439" lon="8.54184">
        <ele>1611</ele>
        <time>2021-08-11T08:41:18.396Z</time>
      </trkpt>
      <trkpt lat="46.88439" lon="8.54184">
        <ele>1612</ele>
        <time>2021-08-11T08:41:19.396Z</time>
      </trkpt>
      <trkpt lat="46.88439" lon="8.54183">
        <ele>1612</ele>
        <time>2021-08-11T08:41:20.396Z</time>
      </trkpt>
      <trkpt lat="46.88439" lon="8.54183">
        <ele>1612</ele>
        <time>2021-08-11T08:41:21.395Z</time>
      </trkpt>
      <trkpt lat="46.88438" lon="8.54183">
        <ele>1613</ele>
        <time>2021-08-11T08:41:22.395Z</time>
      </trkpt>
      <trkpt lat="46.88438" lon="8.54182">
        <ele>1613</ele>
        <time>2021-08-11T08:41:23.395Z</time>
      </trkpt>
      <trkpt lat="46.88437" lon="8.54182">
        <ele>1612</ele>
        <time>2021-08-11T08:41:24.396Z</time>
      </trkpt>
      <trkpt lat="46.88437" lon="8.54181">
        <ele>1612</ele>
        <time>2021-08-11T08:41:25.396Z</time>
      </trkpt>
      <trkpt lat="46.88436" lon="8.5418">
        <ele>1612</ele>
        <time>2021-08-11T08:41:26.396Z</time>
      </trkpt>
      <trkpt lat="46.88436" lon="8.5418">
        <ele>1612</ele>
        <time>2021-08-11T08:41:27.396Z</time>
      </trkpt>
      <trkpt lat="46.88435" lon="8.54179">
        <ele>1613</ele>
        <time>2021-08-11T08:41:28.395Z</time>
      </trkpt>
      <trkpt lat="46.88435" lon="8.54179">
        <ele>1613</ele>
        <time>2021-08-11T08:41:29.396Z</time>
      </trkpt>
      <trkpt lat="46.88434" lon="8.54179">
        <ele>1613</ele>
        <time>2021-08-11T08:41:30.395Z</time>
      </trkpt>
      <trkpt lat="46.88435" lon="8.54178">
        <ele>1613</ele>
        <time>2021-08-11T08:41:31.396Z</time>
      </trkpt>
      <trkpt lat="46.88434" lon="8.54178">
        <ele>1613</ele>
        <time>2021-08-11T08:41:32.395Z</time>
      </trkpt>
      <trkpt lat="46.88434" lon="8.54177">
        <ele>1613</ele>
        <time>2021-08-11T08:41:33.396Z</time>
      </trkpt>
      <trkpt lat="46.88433" lon="8.54176">
        <ele>1614</ele>
        <time>2021-08-11T08:41:34.396Z</time>
      </trkpt>
      <trkpt lat="46.88433" lon="8.54176">
        <ele>1614</ele>
        <time>2021-08-11T08:41:35.395Z</time>
      </trkpt>
      <trkpt lat="46.88433" lon="8.54175">
        <ele>1615</ele>
        <time>2021-08-11T08:41:36.395Z</time>
      </trkpt>
      <trkpt lat="46.88432" lon="8.54175">
        <ele>1615</ele>
        <time>2021-08-11T08:41:37.395Z</time>
      </trkpt>
      <trkpt lat="46.88432" lon="8.54175">
        <ele>1615</ele>
        <time>2021-08-11T08:41:38.396Z</time>
      </trkpt>
      <trkpt lat="46.88432" lon="8.54174">
        <ele>1615</ele>
        <time>2021-08-11T08:41:39.396Z</time>
      </trkpt>
      <trkpt lat="46.88431" lon="8.54173">
        <ele>1616</ele>
        <time>2021-08-11T08:41:40.396Z</time>
      </trkpt>
      <trkpt lat="46.88431" lon="8.54173">
        <ele>1616</ele>
        <time>2021-08-11T08:41:41.396Z</time>
      </trkpt>
      <trkpt lat="46.88431" lon="8.54173">
        <ele>1616</ele>
        <time>2021-08-11T08:41:42.397Z</time>
      </trkpt>
      <trkpt lat="46.8843" lon="8.54172">
        <ele>1616</ele>
        <time>2021-08-11T08:41:43.397Z</time>
      </trkpt>
      <trkpt lat="46.8843" lon="8.54171">
        <ele>1617</ele>
        <time>2021-08-11T08:41:44.397Z</time>
      </trkpt>
      <trkpt lat="46.88429" lon="8.54171">
        <ele>1616</ele>
        <time>2021-08-11T08:41:45.397Z</time>
      </trkpt>
      <trkpt lat="46.88429" lon="8.54171">
        <ele>1616</ele>
        <time>2021-08-11T08:41:46.397Z</time>
      </trkpt>
      <trkpt lat="46.88429" lon="8.54171">
        <ele>1616</ele>
        <time>2021-08-11T08:41:47.396Z</time>
      </trkpt>
      <trkpt lat="46.88429" lon="8.54171">
        <ele>1616</ele>
        <time>2021-08-11T08:41:48.397Z</time>
      </trkpt>
      <trkpt lat="46.88428" lon="8.5417">
        <ele>1615</ele>
        <time>2021-08-11T08:41:49.396Z</time>
      </trkpt>
      <trkpt lat="46.88428" lon="8.5417">
        <ele>1615</ele>
        <time>2021-08-11T08:41:50.397Z</time>
      </trkpt>
      <trkpt lat="46.88428" lon="8.5417">
        <ele>1615</ele>
        <time>2021-08-11T08:41:51.397Z</time>
      </trkpt>
      <trkpt lat="46.88427" lon="8.54169">
        <ele>1615</ele>
        <time>2021-08-11T08:41:52.397Z</time>
      </trkpt>
      <trkpt lat="46.88426" lon="8.54168">
        <ele>1616</ele>
        <time>2021-08-11T08:41:53.396Z</time>
      </trkpt>
      <trkpt lat="46.88426" lon="8.54168">
        <ele>1616</ele>
        <time>2021-08-11T08:41:54.397Z</time>
      </trkpt>
      <trkpt lat="46.88425" lon="8.54167">
        <ele>1616</ele>
        <time>2021-08-11T08:41:55.397Z</time>
      </trkpt>
      <trkpt lat="46.88425" lon="8.54167">
        <ele>1616</ele>
        <time>2021-08-11T08:41:56.396Z</time>
      </trkpt>
      <trkpt lat="46.88424" lon="8.54166">
        <ele>1617</ele>
        <time>2021-08-11T08:41:57.396Z</time>
      </trkpt>
      <trkpt lat="46.88423" lon="8.54166">
        <ele>1617</ele>
        <time>2021-08-11T08:41:58.397Z</time>
      </trkpt>
      <trkpt lat="46.88423" lon="8.54165">
        <ele>1617</ele>
        <time>2021-08-11T08:41:59.397Z</time>
      </trkpt>
      <trkpt lat="46.88423" lon="8.54165">
        <ele>1618</ele>
        <time>2021-08-11T08:42:00.396Z</time>
      </trkpt>
      <trkpt lat="46.88422" lon="8.54165">
        <ele>1617</ele>
        <time>2021-08-11T08:42:01.396Z</time>
      </trkpt>
      <trkpt lat="46.88422" lon="8.54164">
        <ele>1616</ele>
        <time>2021-08-11T08:42:02.396Z</time>
      </trkpt>
      <trkpt lat="46.88422" lon="8.54165">
        <ele>1616</ele>
        <time>2021-08-11T08:42:03.396Z</time>
      </trkpt>
      <trkpt lat="46.88421" lon="8.54164">
        <ele>1615</ele>
        <time>2021-08-11T08:42:04.396Z</time>
      </trkpt>
      <trkpt lat="46.88421" lon="8.54163">
        <ele>1615</ele>
        <time>2021-08-11T08:42:05.396Z</time>
      </trkpt>
      <trkpt lat="46.8842" lon="8.54163">
        <ele>1615</ele>
        <time>2021-08-11T08:42:06.396Z</time>
      </trkpt>
      <trkpt lat="46.88419" lon="8.54162">
        <ele>1616</ele>
        <time>2021-08-11T08:42:07.397Z</time>
      </trkpt>
      <trkpt lat="46.88419" lon="8.54162">
        <ele>1616</ele>
        <time>2021-08-11T08:42:08.396Z</time>
      </trkpt>
      <trkpt lat="46.88418" lon="8.54162">
        <ele>1616</ele>
        <time>2021-08-11T08:42:09.397Z</time>
      </trkpt>
      <trkpt lat="46.88418" lon="8.54161">
        <ele>1617</ele>
        <time>2021-08-11T08:42:10.396Z</time>
      </trkpt>
      <trkpt lat="46.88417" lon="8.54161">
        <ele>1617</ele>
        <time>2021-08-11T08:42:11.397Z</time>
      </trkpt>
      <trkpt lat="46.88417" lon="8.54161">
        <ele>1617</ele>
        <time>2021-08-11T08:42:12.397Z</time>
      </trkpt>
      <trkpt lat="46.88417" lon="8.5416">
        <ele>1618</ele>
        <time>2021-08-11T08:42:13.396Z</time>
      </trkpt>
      <trkpt lat="46.88416" lon="8.5416">
        <ele>1618</ele>
        <time>2021-08-11T08:42:14.396Z</time>
      </trkpt>
      <trkpt lat="46.88416" lon="8.54159">
        <ele>1618</ele>
        <time>2021-08-11T08:42:15.397Z</time>
      </trkpt>
      <trkpt lat="46.88415" lon="8.54159">
        <ele>1619</ele>
        <time>2021-08-11T08:42:16.397Z</time>
      </trkpt>
      <trkpt lat="46.88415" lon="8.54159">
        <ele>1619</ele>
        <time>2021-08-11T08:42:17.397Z</time>
      </trkpt>
      <trkpt lat="46.88414" lon="8.54158">
        <ele>1620</ele>
        <time>2021-08-11T08:42:18.397Z</time>
      </trkpt>
      <trkpt lat="46.88414" lon="8.54158">
        <ele>1620</ele>
        <time>2021-08-11T08:42:19.397Z</time>
      </trkpt>
      <trkpt lat="46.88413" lon="8.54157">
        <ele>1620</ele>
        <time>2021-08-11T08:42:20.396Z</time>
      </trkpt>
      <trkpt lat="46.88412" lon="8.54156">
        <ele>1620</ele>
        <time>2021-08-11T08:42:21.397Z</time>
      </trkpt>
      <trkpt lat="46.88412" lon="8.54156">
        <ele>1620</ele>
        <time>2021-08-11T08:42:22.396Z</time>
      </trkpt>
      <trkpt lat="46.88412" lon="8.54155">
        <ele>1621</ele>
        <time>2021-08-11T08:42:23.396Z</time>
      </trkpt>
      <trkpt lat="46.88411" lon="8.54155">
        <ele>1621</ele>
        <time>2021-08-11T08:42:24.396Z</time>
      </trkpt>
      <trkpt lat="46.88411" lon="8.54154">
        <ele>1622</ele>
        <time>2021-08-11T08:42:25.396Z</time>
      </trkpt>
      <trkpt lat="46.88412" lon="8.54154">
        <ele>1623</ele>
        <time>2021-08-11T08:42:26.396Z</time>
      </trkpt>
      <trkpt lat="46.88411" lon="8.54154">
        <ele>1623</ele>
        <time>2021-08-11T08:42:27.396Z</time>
      </trkpt>
      <trkpt lat="46.88411" lon="8.54153">
        <ele>1624</ele>
        <time>2021-08-11T08:42:28.396Z</time>
      </trkpt>
      <trkpt lat="46.8841" lon="8.54152">
        <ele>1624</ele>
        <time>2021-08-11T08:42:29.396Z</time>
      </trkpt>
      <trkpt lat="46.8841" lon="8.54151">
        <ele>1625</ele>
        <time>2021-08-11T08:42:30.396Z</time>
      </trkpt>
      <trkpt lat="46.88409" lon="8.54151">
        <ele>1625</ele>
        <time>2021-08-11T08:42:31.397Z</time>
      </trkpt>
      <trkpt lat="46.88409" lon="8.54151">
        <ele>1626</ele>
        <time>2021-08-11T08:42:32.396Z</time>
      </trkpt>
      <trkpt lat="46.88408" lon="8.5415">
        <ele>1626</ele>
        <time>2021-08-11T08:42:33.396Z</time>
      </trkpt>
      <trkpt lat="46.88408" lon="8.5415">
        <ele>1626</ele>
        <time>2021-08-11T08:42:34.396Z</time>
      </trkpt>
      <trkpt lat="46.88408" lon="8.5415">
        <ele>1626</ele>
        <time>2021-08-11T08:42:35.396Z</time>
      </trkpt>
      <trkpt lat="46.88407" lon="8.54149">
        <ele>1626</ele>
        <time>2021-08-11T08:42:36.396Z</time>
      </trkpt>
      <trkpt lat="46.88407" lon="8.54149">
        <ele>1626</ele>
        <time>2021-08-11T08:42:37.396Z</time>
      </trkpt>
      <trkpt lat="46.88407" lon="8.54148">
        <ele>1625</ele>
        <time>2021-08-11T08:42:38.396Z</time>
      </trkpt>
      <trkpt lat="46.88406" lon="8.54148">
        <ele>1625</ele>
        <time>2021-08-11T08:42:39.397Z</time>
      </trkpt>
      <trkpt lat="46.88406" lon="8.54147">
        <ele>1625</ele>
        <time>2021-08-11T08:42:40.397Z</time>
      </trkpt>
      <trkpt lat="46.88405" lon="8.54147">
        <ele>1624</ele>
        <time>2021-08-11T08:42:41.397Z</time>
      </trkpt>
      <trkpt lat="46.88404" lon="8.54146">
        <ele>1624</ele>
        <time>2021-08-11T08:42:42.397Z</time>
      </trkpt>
      <trkpt lat="46.88404" lon="8.54146">
        <ele>1623</ele>
        <time>2021-08-11T08:42:43.396Z</time>
      </trkpt>
      <trkpt lat="46.88404" lon="8.54145">
        <ele>1623</ele>
        <time>2021-08-11T08:42:44.396Z</time>
      </trkpt>
      <trkpt lat="46.88403" lon="8.54144">
        <ele>1623</ele>
        <time>2021-08-11T08:42:45.396Z</time>
      </trkpt>
      <trkpt lat="46.88402" lon="8.54144">
        <ele>1623</ele>
        <time>2021-08-11T08:42:46.397Z</time>
      </trkpt>
      <trkpt lat="46.88402" lon="8.54144">
        <ele>1623</ele>
        <time>2021-08-11T08:42:47.397Z</time>
      </trkpt>
      <trkpt lat="46.88402" lon="8.54144">
        <ele>1623</ele>
        <time>2021-08-11T08:42:48.397Z</time>
      </trkpt>
      <trkpt lat="46.88402" lon="8.54144">
        <ele>1623</ele>
        <time>2021-08-11T08:42:49.396Z</time>
      </trkpt>
      <trkpt lat="46.88401" lon="8.54143">
        <ele>1624</ele>
        <time>2021-08-11T08:42:50.396Z</time>
      </trkpt>
      <trkpt lat="46.88401" lon="8.54143">
        <ele>1625</ele>
        <time>2021-08-11T08:42:51.397Z</time>
      </trkpt>
      <trkpt lat="46.884" lon="8.54143">
        <ele>1625</ele>
        <time>2021-08-11T08:42:52.397Z</time>
      </trkpt>
      <trkpt lat="46.884" lon="8.54142">
        <ele>1625</ele>
        <time>2021-08-11T08:42:53.396Z</time>
      </trkpt>
      <trkpt lat="46.88399" lon="8.54142">
        <ele>1625</ele>
        <time>2021-08-11T08:42:54.397Z</time>
      </trkpt>
      <trkpt lat="46.88399" lon="8.54142">
        <ele>1625</ele>
        <time>2021-08-11T08:42:55.396Z</time>
      </trkpt>
      <trkpt lat="46.88398" lon="8.54141">
        <ele>1626</ele>
        <time>2021-08-11T08:42:56.397Z</time>
      </trkpt>
      <trkpt lat="46.88398" lon="8.5414">
        <ele>1627</ele>
        <time>2021-08-11T08:42:57.397Z</time>
      </trkpt>
      <trkpt lat="46.88397" lon="8.5414">
        <ele>1627</ele>
        <time>2021-08-11T08:42:58.396Z</time>
      </trkpt>
      <trkpt lat="46.88397" lon="8.54139">
        <ele>1627</ele>
        <time>2021-08-11T08:42:59.396Z</time>
      </trkpt>
      <trkpt lat="46.88396" lon="8.54138">
        <ele>1627</ele>
        <time>2021-08-11T08:43:00.396Z</time>
      </trkpt>
      <trkpt lat="46.88396" lon="8.54138">
        <ele>1627</ele>
        <time>2021-08-11T08:43:01.397Z</time>
      </trkpt>
      <trkpt lat="46.88395" lon="8.54138">
        <ele>1627</ele>
        <time>2021-08-11T08:43:02.396Z</time>
      </trkpt>
      <trkpt lat="46.88395" lon="8.54137">
        <ele>1627</ele>
        <time>2021-08-11T08:43:03.397Z</time>
      </trkpt>
      <trkpt lat="46.88395" lon="8.54137">
        <ele>1627</ele>
        <time>2021-08-11T08:43:04.397Z</time>
      </trkpt>
      <trkpt lat="46.88394" lon="8.54137">
        <ele>1627</ele>
        <time>2021-08-11T08:43:05.396Z</time>
      </trkpt>
      <trkpt lat="46.88394" lon="8.54137">
        <ele>1628</ele>
        <time>2021-08-11T08:43:06.396Z</time>
      </trkpt>
      <trkpt lat="46.88394" lon="8.54137">
        <ele>1628</ele>
        <time>2021-08-11T08:43:07.396Z</time>
      </trkpt>
      <trkpt lat="46.88394" lon="8.54137">
        <ele>1628</ele>
        <time>2021-08-11T08:43:08.396Z</time>
      </trkpt>
      <trkpt lat="46.88393" lon="8.54137">
        <ele>1628</ele>
        <time>2021-08-11T08:43:09.396Z</time>
      </trkpt>
      <trkpt lat="46.88393" lon="8.54137">
        <ele>1628</ele>
        <time>2021-08-11T08:43:10.396Z</time>
      </trkpt>
      <trkpt lat="46.88392" lon="8.54137">
        <ele>1628</ele>
        <time>2021-08-11T08:43:11.396Z</time>
      </trkpt>
      <trkpt lat="46.88392" lon="8.54136">
        <ele>1628</ele>
        <time>2021-08-11T08:43:12.396Z</time>
      </trkpt>
      <trkpt lat="46.88392" lon="8.54136">
        <ele>1628</ele>
        <time>2021-08-11T08:43:13.396Z</time>
      </trkpt>
      <trkpt lat="46.88392" lon="8.54136">
        <ele>1627</ele>
        <time>2021-08-11T08:43:14.396Z</time>
      </trkpt>
      <trkpt lat="46.88391" lon="8.54136">
        <ele>1627</ele>
        <time>2021-08-11T08:43:15.396Z</time>
      </trkpt>
      <trkpt lat="46.8839" lon="8.54135">
        <ele>1627</ele>
        <time>2021-08-11T08:43:16.396Z</time>
      </trkpt>
      <trkpt lat="46.8839" lon="8.54135">
        <ele>1627</ele>
        <time>2021-08-11T08:43:17.396Z</time>
      </trkpt>
      <trkpt lat="46.88389" lon="8.54135">
        <ele>1627</ele>
        <time>2021-08-11T08:43:18.396Z</time>
      </trkpt>
      <trkpt lat="46.88388" lon="8.54134">
        <ele>1626</ele>
        <time>2021-08-11T08:43:19.396Z</time>
      </trkpt>
      <trkpt lat="46.88388" lon="8.54134">
        <ele>1626</ele>
        <time>2021-08-11T08:43:20.397Z</time>
      </trkpt>
      <trkpt lat="46.88388" lon="8.54134">
        <ele>1626</ele>
        <time>2021-08-11T08:43:21.396Z</time>
      </trkpt>
      <trkpt lat="46.88388" lon="8.54134">
        <ele>1626</ele>
        <time>2021-08-11T08:43:22.397Z</time>
      </trkpt>
      <trkpt lat="46.88387" lon="8.54134">
        <ele>1626</ele>
        <time>2021-08-11T08:43:23.396Z</time>
      </trkpt>
      <trkpt lat="46.88387" lon="8.54133">
        <ele>1625</ele>
        <time>2021-08-11T08:43:24.396Z</time>
      </trkpt>
      <trkpt lat="46.88386" lon="8.54133">
        <ele>1625</ele>
        <time>2021-08-11T08:43:25.396Z</time>
      </trkpt>
      <trkpt lat="46.88386" lon="8.54133">
        <ele>1625</ele>
        <time>2021-08-11T08:43:26.396Z</time>
      </trkpt>
      <trkpt lat="46.88385" lon="8.54132">
        <ele>1630</ele>
        <time>2021-08-11T08:43:27.397Z</time>
      </trkpt>
      <trkpt lat="46.88385" lon="8.54131">
        <ele>1630</ele>
        <time>2021-08-11T08:43:28.396Z</time>
      </trkpt>
      <trkpt lat="46.88385" lon="8.54131">
        <ele>1631</ele>
        <time>2021-08-11T08:43:29.396Z</time>
      </trkpt>
      <trkpt lat="46.88385" lon="8.54131">
        <ele>1631</ele>
        <time>2021-08-11T08:43:30.396Z</time>
      </trkpt>
      <trkpt lat="46.88386" lon="8.54131">
        <ele>1631</ele>
        <time>2021-08-11T08:43:31.396Z</time>
      </trkpt>
      <trkpt lat="46.88386" lon="8.54131">
        <ele>1631</ele>
        <time>2021-08-11T08:43:32.397Z</time>
      </trkpt>
      <trkpt lat="46.88387" lon="8.5413">
        <ele>1631</ele>
        <time>2021-08-11T08:43:33.396Z</time>
      </trkpt>
      <trkpt lat="46.88387" lon="8.5413">
        <ele>1631</ele>
        <time>2021-08-11T08:43:34.396Z</time>
      </trkpt>
      <trkpt lat="46.88387" lon="8.54129">
        <ele>1631</ele>
        <time>2021-08-11T08:43:35.396Z</time>
      </trkpt>
      <trkpt lat="46.88387" lon="8.54129">
        <ele>1631</ele>
        <time>2021-08-11T08:43:36.396Z</time>
      </trkpt>
      <trkpt lat="46.88388" lon="8.54129">
        <ele>1628</ele>
        <time>2021-08-11T08:43:37.398Z</time>
      </trkpt>
      <trkpt lat="46.88388" lon="8.5413">
        <ele>1629</ele>
        <time>2021-08-11T08:43:38.399Z</time>
      </trkpt>
      <trkpt lat="46.88389" lon="8.5413">
        <ele>1629</ele>
        <time>2021-08-11T08:43:39.398Z</time>
      </trkpt>
      <trkpt lat="46.88389" lon="8.54131">
        <ele>1628</ele>
        <time>2021-08-11T08:43:40.399Z</time>
      </trkpt>
      <trkpt lat="46.88389" lon="8.54131">
        <ele>1628</ele>
        <time>2021-08-11T08:43:41.399Z</time>
      </trkpt>
      <trkpt lat="46.8839" lon="8.5413">
        <ele>1628</ele>
        <time>2021-08-11T08:43:42.400Z</time>
      </trkpt>
      <trkpt lat="46.8839" lon="8.5413">
        <ele>1628</ele>
        <time>2021-08-11T08:43:43.399Z</time>
      </trkpt>
      <trkpt lat="46.8839" lon="8.5413">
        <ele>1628</ele>
        <time>2021-08-11T08:43:44.399Z</time>
      </trkpt>
      <trkpt lat="46.8839" lon="8.54129">
        <ele>1628</ele>
        <time>2021-08-11T08:43:45.400Z</time>
      </trkpt>
      <trkpt lat="46.8839" lon="8.54129">
        <ele>1628</ele>
        <time>2021-08-11T08:43:46.399Z</time>
      </trkpt>
      <trkpt lat="46.8839" lon="8.54129">
        <ele>1629</ele>
        <time>2021-08-11T08:43:47.400Z</time>
      </trkpt>
      <trkpt lat="46.8839" lon="8.54129">
        <ele>1629</ele>
        <time>2021-08-11T08:43:48.400Z</time>
      </trkpt>
      <trkpt lat="46.88391" lon="8.54128">
        <ele>1630</ele>
        <time>2021-08-11T08:43:49.401Z</time>
      </trkpt>
      <trkpt lat="46.88392" lon="8.54128">
        <ele>1631</ele>
        <time>2021-08-11T08:43:50.400Z</time>
      </trkpt>
      <trkpt lat="46.88393" lon="8.54128">
        <ele>1631</ele>
        <time>2021-08-11T08:43:51.400Z</time>
      </trkpt>
      <trkpt lat="46.88393" lon="8.54128">
        <ele>1631</ele>
        <time>2021-08-11T08:43:52.401Z</time>
      </trkpt>
      <trkpt lat="46.88394" lon="8.54127">
        <ele>1632</ele>
        <time>2021-08-11T08:43:53.400Z</time>
      </trkpt>
      <trkpt lat="46.88394" lon="8.54127">
        <ele>1631</ele>
        <time>2021-08-11T08:43:54.400Z</time>
      </trkpt>
      <trkpt lat="46.88395" lon="8.54126">
        <ele>1631</ele>
        <time>2021-08-11T08:43:55.400Z</time>
      </trkpt>
      <trkpt lat="46.88395" lon="8.54126">
        <ele>1631</ele>
        <time>2021-08-11T08:43:56.400Z</time>
      </trkpt>
      <trkpt lat="46.88396" lon="8.54126">
        <ele>1631</ele>
        <time>2021-08-11T08:43:57.400Z</time>
      </trkpt>
      <trkpt lat="46.88397" lon="8.54125">
        <ele>1631</ele>
        <time>2021-08-11T08:43:58.400Z</time>
      </trkpt>
      <trkpt lat="46.88397" lon="8.54125">
        <ele>1632</ele>
        <time>2021-08-11T08:43:59.400Z</time>
      </trkpt>
      <trkpt lat="46.88397" lon="8.54125">
        <ele>1632</ele>
        <time>2021-08-11T08:44:00.400Z</time>
      </trkpt>
      <trkpt lat="46.88398" lon="8.54125">
        <ele>1632</ele>
        <time>2021-08-11T08:44:01.401Z</time>
      </trkpt>
      <trkpt lat="46.88398" lon="8.54124">
        <ele>1631</ele>
        <time>2021-08-11T08:44:02.401Z</time>
      </trkpt>
      <trkpt lat="46.88398" lon="8.54124">
        <ele>1631</ele>
        <time>2021-08-11T08:44:03.401Z</time>
      </trkpt>
      <trkpt lat="46.88398" lon="8.54124">
        <ele>1631</ele>
        <time>2021-08-11T08:44:04.400Z</time>
      </trkpt>
      <trkpt lat="46.88399" lon="8.54124">
        <ele>1631</ele>
        <time>2021-08-11T08:44:05.400Z</time>
      </trkpt>
      <trkpt lat="46.88399" lon="8.54124">
        <ele>1631</ele>
        <time>2021-08-11T08:44:06.401Z</time>
      </trkpt>
      <trkpt lat="46.88399" lon="8.54123">
        <ele>1631</ele>
        <time>2021-08-11T08:44:07.400Z</time>
      </trkpt>
      <trkpt lat="46.884" lon="8.54123">
        <ele>1631</ele>
        <time>2021-08-11T08:44:08.400Z</time>
      </trkpt>
      <trkpt lat="46.88401" lon="8.54123">
        <ele>1631</ele>
        <time>2021-08-11T08:44:09.401Z</time>
      </trkpt>
      <trkpt lat="46.88402" lon="8.54123">
        <ele>1631</ele>
        <time>2021-08-11T08:44:10.400Z</time>
      </trkpt>
      <trkpt lat="46.88403" lon="8.54123">
        <ele>1632</ele>
        <time>2021-08-11T08:44:11.400Z</time>
      </trkpt>
      <trkpt lat="46.88403" lon="8.54123">
        <ele>1632</ele>
        <time>2021-08-11T08:44:12.401Z</time>
      </trkpt>
      <trkpt lat="46.88404" lon="8.54123">
        <ele>1632</ele>
        <time>2021-08-11T08:44:13.400Z</time>
      </trkpt>
      <trkpt lat="46.88404" lon="8.54124">
        <ele>1632</ele>
        <time>2021-08-11T08:44:14.401Z</time>
      </trkpt>
      <trkpt lat="46.88405" lon="8.54125">
        <ele>1632</ele>
        <time>2021-08-11T08:44:15.401Z</time>
      </trkpt>
      <trkpt lat="46.88405" lon="8.54125">
        <ele>1632</ele>
        <time>2021-08-11T08:44:16.401Z</time>
      </trkpt>
      <trkpt lat="46.88405" lon="8.54125">
        <ele>1632</ele>
        <time>2021-08-11T08:44:17.400Z</time>
      </trkpt>
      <trkpt lat="46.88405" lon="8.54126">
        <ele>1632</ele>
        <time>2021-08-11T08:44:18.400Z</time>
      </trkpt>
      <trkpt lat="46.88406" lon="8.54126">
        <ele>1631</ele>
        <time>2021-08-11T08:44:19.400Z</time>
      </trkpt>
      <trkpt lat="46.88406" lon="8.54125">
        <ele>1631</ele>
        <time>2021-08-11T08:44:20.400Z</time>
      </trkpt>
      <trkpt lat="46.88407" lon="8.54125">
        <ele>1630</ele>
        <time>2021-08-11T08:44:21.401Z</time>
      </trkpt>
      <trkpt lat="46.88408" lon="8.54125">
        <ele>1630</ele>
        <time>2021-08-11T08:44:22.400Z</time>
      </trkpt>
      <trkpt lat="46.88408" lon="8.54125">
        <ele>1630</ele>
        <time>2021-08-11T08:44:23.401Z</time>
      </trkpt>
      <trkpt lat="46.88408" lon="8.54125">
        <ele>1630</ele>
        <time>2021-08-11T08:44:24.400Z</time>
      </trkpt>
      <trkpt lat="46.88409" lon="8.54125">
        <ele>1630</ele>
        <time>2021-08-11T08:44:25.400Z</time>
      </trkpt>
      <trkpt lat="46.88409" lon="8.54124">
        <ele>1630</ele>
        <time>2021-08-11T08:44:26.400Z</time>
      </trkpt>
      <trkpt lat="46.88409" lon="8.54124">
        <ele>1630</ele>
        <time>2021-08-11T08:44:27.400Z</time>
      </trkpt>
      <trkpt lat="46.8841" lon="8.54124">
        <ele>1631</ele>
        <time>2021-08-11T08:44:28.401Z</time>
      </trkpt>
      <trkpt lat="46.88411" lon="8.54123">
        <ele>1631</ele>
        <time>2021-08-11T08:44:29.400Z</time>
      </trkpt>
      <trkpt lat="46.88411" lon="8.54123">
        <ele>1631</ele>
        <time>2021-08-11T08:44:30.400Z</time>
      </trkpt>
      <trkpt lat="46.88412" lon="8.54123">
        <ele>1631</ele>
        <time>2021-08-11T08:44:31.401Z</time>
      </trkpt>
      <trkpt lat="46.88413" lon="8.54123">
        <ele>1632</ele>
        <time>2021-08-11T08:44:32.400Z</time>
      </trkpt>
      <trkpt lat="46.88413" lon="8.54123">
        <ele>1632</ele>
        <time>2021-08-11T08:44:33.400Z</time>
      </trkpt>
      <trkpt lat="46.88414" lon="8.54123">
        <ele>1633</ele>
        <time>2021-08-11T08:44:34.400Z</time>
      </trkpt>
      <trkpt lat="46.88415" lon="8.54123">
        <ele>1634</ele>
        <time>2021-08-11T08:44:35.400Z</time>
      </trkpt>
      <trkpt lat="46.88415" lon="8.54123">
        <ele>1634</ele>
        <time>2021-08-11T08:44:36.400Z</time>
      </trkpt>
      <trkpt lat="46.88415" lon="8.54122">
        <ele>1635</ele>
        <time>2021-08-11T08:44:37.401Z</time>
      </trkpt>
      <trkpt lat="46.88416" lon="8.54122">
        <ele>1635</ele>
        <time>2021-08-11T08:44:38.400Z</time>
      </trkpt>
      <trkpt lat="46.88416" lon="8.54122">
        <ele>1635</ele>
        <time>2021-08-11T08:44:39.401Z</time>
      </trkpt>
      <trkpt lat="46.88416" lon="8.54122">
        <ele>1636</ele>
        <time>2021-08-11T08:44:40.400Z</time>
      </trkpt>
      <trkpt lat="46.88417" lon="8.54121">
        <ele>1636</ele>
        <time>2021-08-11T08:44:41.400Z</time>
      </trkpt>
      <trkpt lat="46.88417" lon="8.54121">
        <ele>1636</ele>
        <time>2021-08-11T08:44:42.400Z</time>
      </trkpt>
      <trkpt lat="46.88418" lon="8.5412">
        <ele>1636</ele>
        <time>2021-08-11T08:44:43.401Z</time>
      </trkpt>
      <trkpt lat="46.88418" lon="8.5412">
        <ele>1637</ele>
        <time>2021-08-11T08:44:44.400Z</time>
      </trkpt>
      <trkpt lat="46.88418" lon="8.5412">
        <ele>1637</ele>
        <time>2021-08-11T08:44:45.400Z</time>
      </trkpt>
      <trkpt lat="46.88419" lon="8.5412">
        <ele>1638</ele>
        <time>2021-08-11T08:44:46.401Z</time>
      </trkpt>
      <trkpt lat="46.88419" lon="8.54119">
        <ele>1638</ele>
        <time>2021-08-11T08:44:47.400Z</time>
      </trkpt>
      <trkpt lat="46.88419" lon="8.54119">
        <ele>1638</ele>
        <time>2021-08-11T08:44:48.400Z</time>
      </trkpt>
      <trkpt lat="46.8842" lon="8.54118">
        <ele>1638</ele>
        <time>2021-08-11T08:44:49.401Z</time>
      </trkpt>
      <trkpt lat="46.8842" lon="8.54118">
        <ele>1638</ele>
        <time>2021-08-11T08:44:50.400Z</time>
      </trkpt>
      <trkpt lat="46.88421" lon="8.54118">
        <ele>1639</ele>
        <time>2021-08-11T08:44:51.401Z</time>
      </trkpt>
      <trkpt lat="46.88421" lon="8.54117">
        <ele>1639</ele>
        <time>2021-08-11T08:44:52.401Z</time>
      </trkpt>
      <trkpt lat="46.88422" lon="8.54117">
        <ele>1639</ele>
        <time>2021-08-11T08:44:53.400Z</time>
      </trkpt>
      <trkpt lat="46.88422" lon="8.54116">
        <ele>1640</ele>
        <time>2021-08-11T08:44:54.400Z</time>
      </trkpt>
      <trkpt lat="46.88423" lon="8.54116">
        <ele>1641</ele>
        <time>2021-08-11T08:44:55.401Z</time>
      </trkpt>
      <trkpt lat="46.88424" lon="8.54115">
        <ele>1641</ele>
        <time>2021-08-11T08:44:56.400Z</time>
      </trkpt>
      <trkpt lat="46.88424" lon="8.54114">
        <ele>1642</ele>
        <time>2021-08-11T08:44:57.400Z</time>
      </trkpt>
      <trkpt lat="46.88424" lon="8.54114">
        <ele>1643</ele>
        <time>2021-08-11T08:44:58.401Z</time>
      </trkpt>
      <trkpt lat="46.88424" lon="8.54113">
        <ele>1643</ele>
        <time>2021-08-11T08:44:59.400Z</time>
      </trkpt>
      <trkpt lat="46.88424" lon="8.54113">
        <ele>1643</ele>
        <time>2021-08-11T08:45:00.400Z</time>
      </trkpt>
      <trkpt lat="46.88424" lon="8.54113">
        <ele>1644</ele>
        <time>2021-08-11T08:45:01.400Z</time>
      </trkpt>
      <trkpt lat="46.88424" lon="8.54113">
        <ele>1644</ele>
        <time>2021-08-11T08:45:02.401Z</time>
      </trkpt>
      <trkpt lat="46.88424" lon="8.54113">
        <ele>1645</ele>
        <time>2021-08-11T08:45:03.400Z</time>
      </trkpt>
      <trkpt lat="46.88424" lon="8.54113">
        <ele>1645</ele>
        <time>2021-08-11T08:45:04.400Z</time>
      </trkpt>
      <trkpt lat="46.88424" lon="8.54113">
        <ele>1645</ele>
        <time>2021-08-11T08:45:05.400Z</time>
      </trkpt>
      <trkpt lat="46.88423" lon="8.54113">
        <ele>1644</ele>
        <time>2021-08-11T08:45:06.400Z</time>
      </trkpt>
      <trkpt lat="46.88423" lon="8.54112">
        <ele>1643</ele>
        <time>2021-08-11T08:45:07.400Z</time>
      </trkpt>
      <trkpt lat="46.88423" lon="8.54112">
        <ele>1643</ele>
        <time>2021-08-11T08:45:08.400Z</time>
      </trkpt>
      <trkpt lat="46.88424" lon="8.54111">
        <ele>1643</ele>
        <time>2021-08-11T08:45:09.401Z</time>
      </trkpt>
      <trkpt lat="46.88424" lon="8.54111">
        <ele>1643</ele>
        <time>2021-08-11T08:45:10.402Z</time>
      </trkpt>
      <trkpt lat="46.88424" lon="8.54111">
        <ele>1644</ele>
        <time>2021-08-11T08:45:11.402Z</time>
      </trkpt>
      <trkpt lat="46.88424" lon="8.5411">
        <ele>1644</ele>
        <time>2021-08-11T08:45:12.401Z</time>
      </trkpt>
      <trkpt lat="46.88423" lon="8.5411">
        <ele>1645</ele>
        <time>2021-08-11T08:45:13.402Z</time>
      </trkpt>
      <trkpt lat="46.88423" lon="8.54111">
        <ele>1645</ele>
        <time>2021-08-11T08:45:14.402Z</time>
      </trkpt>
      <trkpt lat="46.88423" lon="8.54111">
        <ele>1645</ele>
        <time>2021-08-11T08:45:15.402Z</time>
      </trkpt>
      <trkpt lat="46.88423" lon="8.54112">
        <ele>1645</ele>
        <time>2021-08-11T08:45:16.401Z</time>
      </trkpt>
      <trkpt lat="46.88423" lon="8.54115">
        <ele>1642</ele>
        <time>2021-08-11T08:45:17.401Z</time>
      </trkpt>
      <trkpt lat="46.88423" lon="8.54115">
        <ele>1641</ele>
        <time>2021-08-11T08:45:18.402Z</time>
      </trkpt>
      <trkpt lat="46.88423" lon="8.54115">
        <ele>1641</ele>
        <time>2021-08-11T08:45:19.402Z</time>
      </trkpt>
      <trkpt lat="46.88423" lon="8.54115">
        <ele>1641</ele>
        <time>2021-08-11T08:45:20.402Z</time>
      </trkpt>
      <trkpt lat="46.88424" lon="8.54114">
        <ele>1642</ele>
        <time>2021-08-11T08:45:21.401Z</time>
      </trkpt>
      <trkpt lat="46.88424" lon="8.54114">
        <ele>1642</ele>
        <time>2021-08-11T08:45:22.402Z</time>
      </trkpt>
      <trkpt lat="46.88424" lon="8.54115">
        <ele>1642</ele>
        <time>2021-08-11T08:45:23.401Z</time>
      </trkpt>
      <trkpt lat="46.88424" lon="8.54115">
        <ele>1642</ele>
        <time>2021-08-11T08:45:24.402Z</time>
      </trkpt>
      <trkpt lat="46.88424" lon="8.54115">
        <ele>1642</ele>
        <time>2021-08-11T08:45:25.402Z</time>
      </trkpt>
      <trkpt lat="46.88424" lon="8.54114">
        <ele>1640</ele>
        <time>2021-08-11T08:45:26.402Z</time>
      </trkpt>
      <trkpt lat="46.88424" lon="8.54114">
        <ele>1640</ele>
        <time>2021-08-11T08:45:27.401Z</time>
      </trkpt>
      <trkpt lat="46.88424" lon="8.54114">
        <ele>1640</ele>
        <time>2021-08-11T08:45:28.401Z</time>
      </trkpt>
      <trkpt lat="46.88423" lon="8.54116">
        <ele>1639</ele>
        <time>2021-08-11T08:45:29.403Z</time>
      </trkpt>
      <trkpt lat="46.88423" lon="8.54115">
        <ele>1640</ele>
        <time>2021-08-11T08:45:30.402Z</time>
      </trkpt>
      <trkpt lat="46.88423" lon="8.54115">
        <ele>1641</ele>
        <time>2021-08-11T08:45:31.402Z</time>
      </trkpt>
      <trkpt lat="46.88423" lon="8.54115">
        <ele>1641</ele>
        <time>2021-08-11T08:45:32.403Z</time>
      </trkpt>
      <trkpt lat="46.88423" lon="8.54115">
        <ele>1641</ele>
        <time>2021-08-11T08:45:33.402Z</time>
      </trkpt>
      <trkpt lat="46.88423" lon="8.54115">
        <ele>1644</ele>
        <time>2021-08-11T08:45:34.403Z</time>
      </trkpt>
      <trkpt lat="46.88423" lon="8.54115">
        <ele>1644</ele>
        <time>2021-08-11T08:45:35.404Z</time>
      </trkpt>
      <trkpt lat="46.88423" lon="8.54114">
        <ele>1643</ele>
        <time>2021-08-11T08:45:36.403Z</time>
      </trkpt>
      <trkpt lat="46.88423" lon="8.54114">
        <ele>1641</ele>
        <time>2021-08-11T08:45:37.405Z</time>
      </trkpt>
      <trkpt lat="46.88423" lon="8.54114">
        <ele>1641</ele>
        <time>2021-08-11T08:45:38.404Z</time>
      </trkpt>
      <trkpt lat="46.88423" lon="8.54114">
        <ele>1641</ele>
        <time>2021-08-11T08:45:39.404Z</time>
      </trkpt>
      <trkpt lat="46.88423" lon="8.54113">
        <ele>1641</ele>
        <time>2021-08-11T08:45:40.404Z</time>
      </trkpt>
      <trkpt lat="46.88423" lon="8.54114">
        <ele>1639</ele>
        <time>2021-08-11T08:45:41.405Z</time>
      </trkpt>
      <trkpt lat="46.88423" lon="8.54112">
        <ele>1639</ele>
        <time>2021-08-11T08:45:42.405Z</time>
      </trkpt>
      <trkpt lat="46.88423" lon="8.54113">
        <ele>1640</ele>
        <time>2021-08-11T08:45:43.405Z</time>
      </trkpt>
      <trkpt lat="46.88424" lon="8.54112">
        <ele>1642</ele>
        <time>2021-08-11T08:45:44.406Z</time>
      </trkpt>
      <trkpt lat="46.88424" lon="8.54112">
        <ele>1642</ele>
        <time>2021-08-11T08:45:45.406Z</time>
      </trkpt>
      <trkpt lat="46.88423" lon="8.54113">
        <ele>1640</ele>
        <time>2021-08-11T08:45:46.406Z</time>
      </trkpt>
      <trkpt lat="46.88424" lon="8.54114">
        <ele>1640</ele>
        <time>2021-08-11T08:45:47.407Z</time>
      </trkpt>
      <trkpt lat="46.88424" lon="8.54114">
        <ele>1641</ele>
        <time>2021-08-11T08:45:48.406Z</time>
      </trkpt>
      <trkpt lat="46.88425" lon="8.54114">
        <ele>1644</ele>
        <time>2021-08-11T08:45:49.406Z</time>
      </trkpt>
      <trkpt lat="46.88425" lon="8.54114">
        <ele>1644</ele>
        <time>2021-08-11T08:45:50.407Z</time>
      </trkpt>
      <trkpt lat="46.88425" lon="8.54114">
        <ele>1643</ele>
        <time>2021-08-11T08:45:51.406Z</time>
      </trkpt>
      <trkpt lat="46.88425" lon="8.54114">
        <ele>1643</ele>
        <time>2021-08-11T08:45:52.407Z</time>
      </trkpt>
      <trkpt lat="46.88425" lon="8.54114">
        <ele>1642</ele>
        <time>2021-08-11T08:45:53.406Z</time>
      </trkpt>
      <trkpt lat="46.88426" lon="8.54114">
        <ele>1638</ele>
        <time>2021-08-11T08:45:54.408Z</time>
      </trkpt>
      <trkpt lat="46.88426" lon="8.54113">
        <ele>1638</ele>
        <time>2021-08-11T08:45:55.407Z</time>
      </trkpt>
      <trkpt lat="46.88426" lon="8.54113">
        <ele>1638</ele>
        <time>2021-08-11T08:45:56.407Z</time>
      </trkpt>
      <trkpt lat="46.88426" lon="8.54113">
        <ele>1638</ele>
        <time>2021-08-11T08:45:57.408Z</time>
      </trkpt>
      <trkpt lat="46.88427" lon="8.54113">
        <ele>1638</ele>
        <time>2021-08-11T08:45:58.407Z</time>
      </trkpt>
      <trkpt lat="46.88426" lon="8.54113">
        <ele>1638</ele>
        <time>2021-08-11T08:45:59.407Z</time>
      </trkpt>
      <trkpt lat="46.88426" lon="8.54113">
        <ele>1638</ele>
        <time>2021-08-11T08:46:00.408Z</time>
      </trkpt>
      <trkpt lat="46.88427" lon="8.54112">
        <ele>1638</ele>
        <time>2021-08-11T08:46:01.407Z</time>
      </trkpt>
      <trkpt lat="46.88427" lon="8.54112">
        <ele>1637</ele>
        <time>2021-08-11T08:46:02.408Z</time>
      </trkpt>
      <trkpt lat="46.88426" lon="8.54112">
        <ele>1637</ele>
        <time>2021-08-11T08:46:03.407Z</time>
      </trkpt>
      <trkpt lat="46.88426" lon="8.54111">
        <ele>1637</ele>
        <time>2021-08-11T08:46:04.408Z</time>
      </trkpt>
      <trkpt lat="46.88426" lon="8.54111">
        <ele>1637</ele>
        <time>2021-08-11T08:46:05.407Z</time>
      </trkpt>
      <trkpt lat="46.88425" lon="8.54111">
        <ele>1638</ele>
        <time>2021-08-11T08:46:06.407Z</time>
      </trkpt>
      <trkpt lat="46.88427" lon="8.54114">
        <ele>1642</ele>
        <time>2021-08-11T08:46:07.407Z</time>
      </trkpt>
      <trkpt lat="46.88427" lon="8.54114">
        <ele>1643</ele>
        <time>2021-08-11T08:46:08.407Z</time>
      </trkpt>
      <trkpt lat="46.88425" lon="8.54115">
        <ele>1639</ele>
        <time>2021-08-11T08:46:09.408Z</time>
      </trkpt>
      <trkpt lat="46.88425" lon="8.54115">
        <ele>1639</ele>
        <time>2021-08-11T08:46:10.407Z</time>
      </trkpt>
      <trkpt lat="46.88427" lon="8.54116">
        <ele>1641</ele>
        <time>2021-08-11T08:46:11.407Z</time>
      </trkpt>
      <trkpt lat="46.88428" lon="8.54117">
        <ele>1642</ele>
        <time>2021-08-11T08:46:12.408Z</time>
      </trkpt>
      <trkpt lat="46.88428" lon="8.54116">
        <ele>1642</ele>
        <time>2021-08-11T08:46:13.407Z</time>
      </trkpt>
      <trkpt lat="46.88428" lon="8.54116">
        <ele>1642</ele>
        <time>2021-08-11T08:46:14.407Z</time>
      </trkpt>
      <trkpt lat="46.88426" lon="8.54115">
        <ele>1641</ele>
        <time>2021-08-11T08:46:15.408Z</time>
      </trkpt>
      <trkpt lat="46.88426" lon="8.54114">
        <ele>1641</ele>
        <time>2021-08-11T08:46:16.407Z</time>
      </trkpt>
      <trkpt lat="46.88426" lon="8.54114">
        <ele>1641</ele>
        <time>2021-08-11T08:46:17.407Z</time>
      </trkpt>
      <trkpt lat="46.88426" lon="8.54114">
        <ele>1640</ele>
        <time>2021-08-11T08:46:18.408Z</time>
      </trkpt>
      <trkpt lat="46.88425" lon="8.54114">
        <ele>1639</ele>
        <time>2021-08-11T08:46:19.409Z</time>
      </trkpt>
      <trkpt lat="46.88426" lon="8.54113">
        <ele>1639</ele>
        <time>2021-08-11T08:46:20.409Z</time>
      </trkpt>
      <trkpt lat="46.88427" lon="8.54112">
        <ele>1639</ele>
        <time>2021-08-11T08:46:21.408Z</time>
      </trkpt>
      <trkpt lat="46.88428" lon="8.54112">
        <ele>1639</ele>
        <time>2021-08-11T08:46:22.409Z</time>
      </trkpt>
      <trkpt lat="46.88428" lon="8.54112">
        <ele>1639</ele>
        <time>2021-08-11T08:46:23.409Z</time>
      </trkpt>
      <trkpt lat="46.88428" lon="8.54112">
        <ele>1639</ele>
        <time>2021-08-11T08:46:24.409Z</time>
      </trkpt>
      <trkpt lat="46.88428" lon="8.54112">
        <ele>1639</ele>
        <time>2021-08-11T08:46:25.408Z</time>
      </trkpt>
      <trkpt lat="46.88428" lon="8.54112">
        <ele>1639</ele>
        <time>2021-08-11T08:46:26.409Z</time>
      </trkpt>
      <trkpt lat="46.88428" lon="8.54113">
        <ele>1639</ele>
        <time>2021-08-11T08:46:27.409Z</time>
      </trkpt>
      <trkpt lat="46.88428" lon="8.54113">
        <ele>1639</ele>
        <time>2021-08-11T08:46:28.409Z</time>
      </trkpt>
      <trkpt lat="46.88429" lon="8.54112">
        <ele>1639</ele>
        <time>2021-08-11T08:46:29.409Z</time>
      </trkpt>
      <trkpt lat="46.88429" lon="8.54111">
        <ele>1639</ele>
        <time>2021-08-11T08:46:30.409Z</time>
      </trkpt>
      <trkpt lat="46.8843" lon="8.54111">
        <ele>1639</ele>
        <time>2021-08-11T08:46:31.409Z</time>
      </trkpt>
      <trkpt lat="46.8843" lon="8.54111">
        <ele>1640</ele>
        <time>2021-08-11T08:46:32.409Z</time>
      </trkpt>
      <trkpt lat="46.88431" lon="8.54111">
        <ele>1641</ele>
        <time>2021-08-11T08:46:33.409Z</time>
      </trkpt>
      <trkpt lat="46.88431" lon="8.5411">
        <ele>1641</ele>
        <time>2021-08-11T08:46:34.409Z</time>
      </trkpt>
      <trkpt lat="46.88432" lon="8.5411">
        <ele>1641</ele>
        <time>2021-08-11T08:46:35.409Z</time>
      </trkpt>
      <trkpt lat="46.88432" lon="8.54109">
        <ele>1641</ele>
        <time>2021-08-11T08:46:36.408Z</time>
      </trkpt>
      <trkpt lat="46.88432" lon="8.54109">
        <ele>1641</ele>
        <time>2021-08-11T08:46:37.409Z</time>
      </trkpt>
      <trkpt lat="46.88432" lon="8.54109">
        <ele>1641</ele>
        <time>2021-08-11T08:46:38.408Z</time>
      </trkpt>
      <trkpt lat="46.88433" lon="8.54108">
        <ele>1642</ele>
        <time>2021-08-11T08:46:39.409Z</time>
      </trkpt>
      <trkpt lat="46.88433" lon="8.54108">
        <ele>1642</ele>
        <time>2021-08-11T08:46:40.409Z</time>
      </trkpt>
      <trkpt lat="46.88434" lon="8.54107">
        <ele>1642</ele>
        <time>2021-08-11T08:46:41.409Z</time>
      </trkpt>
      <trkpt lat="46.88434" lon="8.54107">
        <ele>1642</ele>
        <time>2021-08-11T08:46:42.409Z</time>
      </trkpt>
      <trkpt lat="46.88435" lon="8.54106">
        <ele>1642</ele>
        <time>2021-08-11T08:46:43.409Z</time>
      </trkpt>
      <trkpt lat="46.88435" lon="8.54106">
        <ele>1643</ele>
        <time>2021-08-11T08:46:44.409Z</time>
      </trkpt>
      <trkpt lat="46.88435" lon="8.54105">
        <ele>1643</ele>
        <time>2021-08-11T08:46:45.409Z</time>
      </trkpt>
      <trkpt lat="46.88436" lon="8.54105">
        <ele>1643</ele>
        <time>2021-08-11T08:46:46.408Z</time>
      </trkpt>
      <trkpt lat="46.88436" lon="8.54104">
        <ele>1643</ele>
        <time>2021-08-11T08:46:47.409Z</time>
      </trkpt>
      <trkpt lat="46.88437" lon="8.54104">
        <ele>1643</ele>
        <time>2021-08-11T08:46:48.409Z</time>
      </trkpt>
      <trkpt lat="46.88437" lon="8.54103">
        <ele>1643</ele>
        <time>2021-08-11T08:46:49.409Z</time>
      </trkpt>
      <trkpt lat="46.88437" lon="8.54103">
        <ele>1643</ele>
        <time>2021-08-11T08:46:50.408Z</time>
      </trkpt>
      <trkpt lat="46.88438" lon="8.54102">
        <ele>1644</ele>
        <time>2021-08-11T08:46:51.409Z</time>
      </trkpt>
      <trkpt lat="46.88437" lon="8.54102">
        <ele>1644</ele>
        <time>2021-08-11T08:46:52.409Z</time>
      </trkpt>
      <trkpt lat="46.88437" lon="8.54102">
        <ele>1644</ele>
        <time>2021-08-11T08:46:53.409Z</time>
      </trkpt>
      <trkpt lat="46.88437" lon="8.54101">
        <ele>1644</ele>
        <time>2021-08-11T08:46:54.409Z</time>
      </trkpt>
      <trkpt lat="46.88437" lon="8.541">
        <ele>1645</ele>
        <time>2021-08-11T08:46:55.409Z</time>
      </trkpt>
      <trkpt lat="46.88438" lon="8.541">
        <ele>1646</ele>
        <time>2021-08-11T08:46:56.409Z</time>
      </trkpt>
      <trkpt lat="46.88438" lon="8.541">
        <ele>1646</ele>
        <time>2021-08-11T08:46:57.409Z</time>
      </trkpt>
      <trkpt lat="46.88438" lon="8.54099">
        <ele>1647</ele>
        <time>2021-08-11T08:46:58.409Z</time>
      </trkpt>
      <trkpt lat="46.88439" lon="8.54099">
        <ele>1648</ele>
        <time>2021-08-11T08:46:59.409Z</time>
      </trkpt>
      <trkpt lat="46.8844" lon="8.54099">
        <ele>1648</ele>
        <time>2021-08-11T08:47:00.409Z</time>
      </trkpt>
      <trkpt lat="46.8844" lon="8.54099">
        <ele>1649</ele>
        <time>2021-08-11T08:47:01.408Z</time>
      </trkpt>
      <trkpt lat="46.88441" lon="8.54098">
        <ele>1649</ele>
        <time>2021-08-11T08:47:02.409Z</time>
      </trkpt>
      <trkpt lat="46.88441" lon="8.54098">
        <ele>1650</ele>
        <time>2021-08-11T08:47:03.409Z</time>
      </trkpt>
      <trkpt lat="46.88441" lon="8.54098">
        <ele>1650</ele>
        <time>2021-08-11T08:47:04.409Z</time>
      </trkpt>
      <trkpt lat="46.88441" lon="8.54097">
        <ele>1651</ele>
        <time>2021-08-11T08:47:05.409Z</time>
      </trkpt>
      <trkpt lat="46.88442" lon="8.54096">
        <ele>1650</ele>
        <time>2021-08-11T08:47:06.410Z</time>
      </trkpt>
      <trkpt lat="46.88442" lon="8.54095">
        <ele>1649</ele>
        <time>2021-08-11T08:47:07.409Z</time>
      </trkpt>
      <trkpt lat="46.88442" lon="8.54095">
        <ele>1649</ele>
        <time>2021-08-11T08:47:08.409Z</time>
      </trkpt>
      <trkpt lat="46.88442" lon="8.54094">
        <ele>1649</ele>
        <time>2021-08-11T08:47:09.409Z</time>
      </trkpt>
      <trkpt lat="46.88442" lon="8.54094">
        <ele>1648</ele>
        <time>2021-08-11T08:47:10.410Z</time>
      </trkpt>
      <trkpt lat="46.88442" lon="8.54094">
        <ele>1648</ele>
        <time>2021-08-11T08:47:11.410Z</time>
      </trkpt>
      <trkpt lat="46.88443" lon="8.54094">
        <ele>1648</ele>
        <time>2021-08-11T08:47:12.409Z</time>
      </trkpt>
      <trkpt lat="46.88443" lon="8.54094">
        <ele>1648</ele>
        <time>2021-08-11T08:47:13.409Z</time>
      </trkpt>
      <trkpt lat="46.88443" lon="8.54093">
        <ele>1648</ele>
        <time>2021-08-11T08:47:14.410Z</time>
      </trkpt>
      <trkpt lat="46.88444" lon="8.54092">
        <ele>1648</ele>
        <time>2021-08-11T08:47:15.410Z</time>
      </trkpt>
      <trkpt lat="46.88444" lon="8.54092">
        <ele>1648</ele>
        <time>2021-08-11T08:47:16.410Z</time>
      </trkpt>
      <trkpt lat="46.88444" lon="8.54092">
        <ele>1648</ele>
        <time>2021-08-11T08:47:17.410Z</time>
      </trkpt>
      <trkpt lat="46.88445" lon="8.54091">
        <ele>1648</ele>
        <time>2021-08-11T08:47:18.409Z</time>
      </trkpt>
      <trkpt lat="46.88445" lon="8.54091">
        <ele>1648</ele>
        <time>2021-08-11T08:47:19.410Z</time>
      </trkpt>
      <trkpt lat="46.88445" lon="8.54091">
        <ele>1647</ele>
        <time>2021-08-11T08:47:20.410Z</time>
      </trkpt>
      <trkpt lat="46.88445" lon="8.54091">
        <ele>1647</ele>
        <time>2021-08-11T08:47:21.410Z</time>
      </trkpt>
      <trkpt lat="46.88446" lon="8.54091">
        <ele>1647</ele>
        <time>2021-08-11T08:47:22.410Z</time>
      </trkpt>
      <trkpt lat="46.88447" lon="8.5409">
        <ele>1647</ele>
        <time>2021-08-11T08:47:23.410Z</time>
      </trkpt>
      <trkpt lat="46.88447" lon="8.54089">
        <ele>1646</ele>
        <time>2021-08-11T08:47:24.409Z</time>
      </trkpt>
      <trkpt lat="46.88447" lon="8.54089">
        <ele>1646</ele>
        <time>2021-08-11T08:47:25.410Z</time>
      </trkpt>
      <trkpt lat="46.88448" lon="8.54089">
        <ele>1646</ele>
        <time>2021-08-11T08:47:26.410Z</time>
      </trkpt>
      <trkpt lat="46.88448" lon="8.54089">
        <ele>1646</ele>
        <time>2021-08-11T08:47:27.410Z</time>
      </trkpt>
      <trkpt lat="46.88448" lon="8.54089">
        <ele>1646</ele>
        <time>2021-08-11T08:47:28.410Z</time>
      </trkpt>
      <trkpt lat="46.88449" lon="8.54089">
        <ele>1646</ele>
        <time>2021-08-11T08:47:29.409Z</time>
      </trkpt>
      <trkpt lat="46.88449" lon="8.54089">
        <ele>1646</ele>
        <time>2021-08-11T08:47:30.410Z</time>
      </trkpt>
      <trkpt lat="46.8845" lon="8.54089">
        <ele>1646</ele>
        <time>2021-08-11T08:47:31.409Z</time>
      </trkpt>
      <trkpt lat="46.8845" lon="8.54089">
        <ele>1647</ele>
        <time>2021-08-11T08:47:32.409Z</time>
      </trkpt>
      <trkpt lat="46.88451" lon="8.54089">
        <ele>1647</ele>
        <time>2021-08-11T08:47:33.410Z</time>
      </trkpt>
      <trkpt lat="46.88451" lon="8.5409">
        <ele>1648</ele>
        <time>2021-08-11T08:47:34.409Z</time>
      </trkpt>
      <trkpt lat="46.88452" lon="8.5409">
        <ele>1649</ele>
        <time>2021-08-11T08:47:35.409Z</time>
      </trkpt>
      <trkpt lat="46.88452" lon="8.54091">
        <ele>1649</ele>
        <time>2021-08-11T08:47:36.410Z</time>
      </trkpt>
      <trkpt lat="46.88452" lon="8.54093">
        <ele>1650</ele>
        <time>2021-08-11T08:47:37.410Z</time>
      </trkpt>
      <trkpt lat="46.88453" lon="8.54093">
        <ele>1650</ele>
        <time>2021-08-11T08:47:38.409Z</time>
      </trkpt>
      <trkpt lat="46.88453" lon="8.54094">
        <ele>1651</ele>
        <time>2021-08-11T08:47:39.409Z</time>
      </trkpt>
      <trkpt lat="46.88453" lon="8.54095">
        <ele>1651</ele>
        <time>2021-08-11T08:47:40.410Z</time>
      </trkpt>
      <trkpt lat="46.88454" lon="8.54095">
        <ele>1651</ele>
        <time>2021-08-11T08:47:41.409Z</time>
      </trkpt>
      <trkpt lat="46.88454" lon="8.54095">
        <ele>1651</ele>
        <time>2021-08-11T08:47:42.409Z</time>
      </trkpt>
      <trkpt lat="46.88455" lon="8.54095">
        <ele>1651</ele>
        <time>2021-08-11T08:47:43.410Z</time>
      </trkpt>
      <trkpt lat="46.88455" lon="8.54096">
        <ele>1651</ele>
        <time>2021-08-11T08:47:44.409Z</time>
      </trkpt>
      <trkpt lat="46.88456" lon="8.54095">
        <ele>1651</ele>
        <time>2021-08-11T08:47:45.409Z</time>
      </trkpt>
      <trkpt lat="46.88456" lon="8.54095">
        <ele>1652</ele>
        <time>2021-08-11T08:47:46.410Z</time>
      </trkpt>
      <trkpt lat="46.88457" lon="8.54094">
        <ele>1652</ele>
        <time>2021-08-11T08:47:47.409Z</time>
      </trkpt>
      <trkpt lat="46.88457" lon="8.54094">
        <ele>1652</ele>
        <time>2021-08-11T08:47:48.410Z</time>
      </trkpt>
      <trkpt lat="46.88457" lon="8.54094">
        <ele>1652</ele>
        <time>2021-08-11T08:47:49.410Z</time>
      </trkpt>
      <trkpt lat="46.88457" lon="8.54094">
        <ele>1652</ele>
        <time>2021-08-11T08:47:50.409Z</time>
      </trkpt>
      <trkpt lat="46.88458" lon="8.54093">
        <ele>1651</ele>
        <time>2021-08-11T08:47:51.409Z</time>
      </trkpt>
      <trkpt lat="46.88458" lon="8.54093">
        <ele>1651</ele>
        <time>2021-08-11T08:47:52.410Z</time>
      </trkpt>
      <trkpt lat="46.88458" lon="8.54092">
        <ele>1651</ele>
        <time>2021-08-11T08:47:53.409Z</time>
      </trkpt>
      <trkpt lat="46.88459" lon="8.54091">
        <ele>1650</ele>
        <time>2021-08-11T08:47:54.410Z</time>
      </trkpt>
      <trkpt lat="46.88459" lon="8.54091">
        <ele>1650</ele>
        <time>2021-08-11T08:47:55.410Z</time>
      </trkpt>
      <trkpt lat="46.88459" lon="8.5409">
        <ele>1650</ele>
        <time>2021-08-11T08:47:56.410Z</time>
      </trkpt>
      <trkpt lat="46.8846" lon="8.5409">
        <ele>1650</ele>
        <time>2021-08-11T08:47:57.410Z</time>
      </trkpt>
      <trkpt lat="46.8846" lon="8.5409">
        <ele>1650</ele>
        <time>2021-08-11T08:47:58.409Z</time>
      </trkpt>
      <trkpt lat="46.8846" lon="8.54089">
        <ele>1650</ele>
        <time>2021-08-11T08:47:59.410Z</time>
      </trkpt>
      <trkpt lat="46.88461" lon="8.54088">
        <ele>1651</ele>
        <time>2021-08-11T08:48:00.409Z</time>
      </trkpt>
      <trkpt lat="46.88461" lon="8.54087">
        <ele>1650</ele>
        <time>2021-08-11T08:48:01.409Z</time>
      </trkpt>
      <trkpt lat="46.88461" lon="8.54087">
        <ele>1650</ele>
        <time>2021-08-11T08:48:02.409Z</time>
      </trkpt>
      <trkpt lat="46.88461" lon="8.54086">
        <ele>1650</ele>
        <time>2021-08-11T08:48:03.409Z</time>
      </trkpt>
      <trkpt lat="46.88461" lon="8.54086">
        <ele>1650</ele>
        <time>2021-08-11T08:48:04.409Z</time>
      </trkpt>
      <trkpt lat="46.88462" lon="8.54086">
        <ele>1650</ele>
        <time>2021-08-11T08:48:05.409Z</time>
      </trkpt>
      <trkpt lat="46.88462" lon="8.54086">
        <ele>1650</ele>
        <time>2021-08-11T08:48:06.409Z</time>
      </trkpt>
      <trkpt lat="46.88462" lon="8.54085">
        <ele>1650</ele>
        <time>2021-08-11T08:48:07.409Z</time>
      </trkpt>
      <trkpt lat="46.88463" lon="8.54085">
        <ele>1650</ele>
        <time>2021-08-11T08:48:08.409Z</time>
      </trkpt>
      <trkpt lat="46.88463" lon="8.54084">
        <ele>1650</ele>
        <time>2021-08-11T08:48:09.409Z</time>
      </trkpt>
      <trkpt lat="46.88464" lon="8.54084">
        <ele>1651</ele>
        <time>2021-08-11T08:48:10.409Z</time>
      </trkpt>
      <trkpt lat="46.88464" lon="8.54084">
        <ele>1651</ele>
        <time>2021-08-11T08:48:11.409Z</time>
      </trkpt>
      <trkpt lat="46.88465" lon="8.54083">
        <ele>1651</ele>
        <time>2021-08-11T08:48:12.409Z</time>
      </trkpt>
      <trkpt lat="46.88465" lon="8.54083">
        <ele>1652</ele>
        <time>2021-08-11T08:48:13.410Z</time>
      </trkpt>
      <trkpt lat="46.88465" lon="8.54083">
        <ele>1652</ele>
        <time>2021-08-11T08:48:14.410Z</time>
      </trkpt>
      <trkpt lat="46.88466" lon="8.54083">
        <ele>1653</ele>
        <time>2021-08-11T08:48:15.410Z</time>
      </trkpt>
      <trkpt lat="46.88466" lon="8.54083">
        <ele>1654</ele>
        <time>2021-08-11T08:48:16.409Z</time>
      </trkpt>
      <trkpt lat="46.88467" lon="8.54084">
        <ele>1655</ele>
        <time>2021-08-11T08:48:17.409Z</time>
      </trkpt>
      <trkpt lat="46.88468" lon="8.54084">
        <ele>1656</ele>
        <time>2021-08-11T08:48:18.410Z</time>
      </trkpt>
      <trkpt lat="46.88469" lon="8.54084">
        <ele>1656</ele>
        <time>2021-08-11T08:48:19.410Z</time>
      </trkpt>
      <trkpt lat="46.88469" lon="8.54084">
        <ele>1657</ele>
        <time>2021-08-11T08:48:20.410Z</time>
      </trkpt>
      <trkpt lat="46.8847" lon="8.54083">
        <ele>1657</ele>
        <time>2021-08-11T08:48:21.410Z</time>
      </trkpt>
      <trkpt lat="46.8847" lon="8.54083">
        <ele>1657</ele>
        <time>2021-08-11T08:48:22.409Z</time>
      </trkpt>
      <trkpt lat="46.8847" lon="8.54083">
        <ele>1657</ele>
        <time>2021-08-11T08:48:23.410Z</time>
      </trkpt>
      <trkpt lat="46.88471" lon="8.54083">
        <ele>1657</ele>
        <time>2021-08-11T08:48:24.410Z</time>
      </trkpt>
      <trkpt lat="46.88471" lon="8.54083">
        <ele>1658</ele>
        <time>2021-08-11T08:48:25.410Z</time>
      </trkpt>
      <trkpt lat="46.88472" lon="8.54083">
        <ele>1658</ele>
        <time>2021-08-11T08:48:26.409Z</time>
      </trkpt>
      <trkpt lat="46.88472" lon="8.54083">
        <ele>1658</ele>
        <time>2021-08-11T08:48:27.410Z</time>
      </trkpt>
      <trkpt lat="46.88473" lon="8.54084">
        <ele>1659</ele>
        <time>2021-08-11T08:48:28.409Z</time>
      </trkpt>
      <trkpt lat="46.88473" lon="8.54084">
        <ele>1659</ele>
        <time>2021-08-11T08:48:29.410Z</time>
      </trkpt>
      <trkpt lat="46.88474" lon="8.54084">
        <ele>1660</ele>
        <time>2021-08-11T08:48:30.410Z</time>
      </trkpt>
      <trkpt lat="46.88474" lon="8.54085">
        <ele>1660</ele>
        <time>2021-08-11T08:48:31.409Z</time>
      </trkpt>
      <trkpt lat="46.88474" lon="8.54084">
        <ele>1661</ele>
        <time>2021-08-11T08:48:32.409Z</time>
      </trkpt>
      <trkpt lat="46.88475" lon="8.54084">
        <ele>1661</ele>
        <time>2021-08-11T08:48:33.409Z</time>
      </trkpt>
      <trkpt lat="46.88475" lon="8.54083">
        <ele>1661</ele>
        <time>2021-08-11T08:48:34.410Z</time>
      </trkpt>
      <trkpt lat="46.88476" lon="8.54083">
        <ele>1661</ele>
        <time>2021-08-11T08:48:35.409Z</time>
      </trkpt>
      <trkpt lat="46.88476" lon="8.54083">
        <ele>1661</ele>
        <time>2021-08-11T08:48:36.410Z</time>
      </trkpt>
      <trkpt lat="46.88476" lon="8.54082">
        <ele>1661</ele>
        <time>2021-08-11T08:48:37.409Z</time>
      </trkpt>
      <trkpt lat="46.88476" lon="8.54082">
        <ele>1661</ele>
        <time>2021-08-11T08:48:38.410Z</time>
      </trkpt>
      <trkpt lat="46.88477" lon="8.54081">
        <ele>1661</ele>
        <time>2021-08-11T08:48:39.410Z</time>
      </trkpt>
      <trkpt lat="46.88477" lon="8.5408">
        <ele>1661</ele>
        <time>2021-08-11T08:48:40.409Z</time>
      </trkpt>
      <trkpt lat="46.88477" lon="8.5408">
        <ele>1662</ele>
        <time>2021-08-11T08:48:41.409Z</time>
      </trkpt>
      <trkpt lat="46.88477" lon="8.54079">
        <ele>1662</ele>
        <time>2021-08-11T08:48:42.410Z</time>
      </trkpt>
      <trkpt lat="46.88476" lon="8.54078">
        <ele>1662</ele>
        <time>2021-08-11T08:48:43.410Z</time>
      </trkpt>
      <trkpt lat="46.88476" lon="8.54078">
        <ele>1662</ele>
        <time>2021-08-11T08:48:44.410Z</time>
      </trkpt>
      <trkpt lat="46.88476" lon="8.54077">
        <ele>1662</ele>
        <time>2021-08-11T08:48:45.409Z</time>
      </trkpt>
      <trkpt lat="46.88476" lon="8.54076">
        <ele>1662</ele>
        <time>2021-08-11T08:48:46.409Z</time>
      </trkpt>
      <trkpt lat="46.88476" lon="8.54075">
        <ele>1662</ele>
        <time>2021-08-11T08:48:47.409Z</time>
      </trkpt>
      <trkpt lat="46.88475" lon="8.54075">
        <ele>1661</ele>
        <time>2021-08-11T08:48:48.410Z</time>
      </trkpt>
      <trkpt lat="46.88475" lon="8.54075">
        <ele>1661</ele>
        <time>2021-08-11T08:48:49.410Z</time>
      </trkpt>
      <trkpt lat="46.88474" lon="8.54075">
        <ele>1661</ele>
        <time>2021-08-11T08:48:50.410Z</time>
      </trkpt>
      <trkpt lat="46.88474" lon="8.54075">
        <ele>1661</ele>
        <time>2021-08-11T08:48:51.409Z</time>
      </trkpt>
      <trkpt lat="46.88474" lon="8.54074">
        <ele>1661</ele>
        <time>2021-08-11T08:48:52.409Z</time>
      </trkpt>
      <trkpt lat="46.88474" lon="8.54074">
        <ele>1661</ele>
        <time>2021-08-11T08:48:53.409Z</time>
      </trkpt>
      <trkpt lat="46.88473" lon="8.54072">
        <ele>1652</ele>
        <time>2021-08-11T08:48:54.410Z</time>
      </trkpt>
      <trkpt lat="46.88473" lon="8.54072">
        <ele>1653</ele>
        <time>2021-08-11T08:48:55.409Z</time>
      </trkpt>
      <trkpt lat="46.88474" lon="8.5407">
        <ele>1656</ele>
        <time>2021-08-11T08:48:56.410Z</time>
      </trkpt>
      <trkpt lat="46.88474" lon="8.5407">
        <ele>1656</ele>
        <time>2021-08-11T08:48:57.410Z</time>
      </trkpt>
      <trkpt lat="46.88474" lon="8.54069">
        <ele>1657</ele>
        <time>2021-08-11T08:48:58.409Z</time>
      </trkpt>
      <trkpt lat="46.88474" lon="8.54069">
        <ele>1657</ele>
        <time>2021-08-11T08:48:59.410Z</time>
      </trkpt>
      <trkpt lat="46.88474" lon="8.54069">
        <ele>1657</ele>
        <time>2021-08-11T08:49:00.410Z</time>
      </trkpt>
      <trkpt lat="46.88474" lon="8.54067">
        <ele>1659</ele>
        <time>2021-08-11T08:49:01.412Z</time>
      </trkpt>
      <trkpt lat="46.88475" lon="8.54067">
        <ele>1659</ele>
        <time>2021-08-11T08:49:02.412Z</time>
      </trkpt>
      <trkpt lat="46.88475" lon="8.54067">
        <ele>1659</ele>
        <time>2021-08-11T08:49:03.411Z</time>
      </trkpt>
      <trkpt lat="46.88475" lon="8.54067">
        <ele>1660</ele>
        <time>2021-08-11T08:49:04.412Z</time>
      </trkpt>
      <trkpt lat="46.88475" lon="8.54066">
        <ele>1660</ele>
        <time>2021-08-11T08:49:05.411Z</time>
      </trkpt>
      <trkpt lat="46.88475" lon="8.54066">
        <ele>1660</ele>
        <time>2021-08-11T08:49:06.411Z</time>
      </trkpt>
      <trkpt lat="46.88475" lon="8.54065">
        <ele>1659</ele>
        <time>2021-08-11T08:49:07.411Z</time>
      </trkpt>
      <trkpt lat="46.88475" lon="8.54065">
        <ele>1659</ele>
        <time>2021-08-11T08:49:08.412Z</time>
      </trkpt>
      <trkpt lat="46.88475" lon="8.54065">
        <ele>1659</ele>
        <time>2021-08-11T08:49:09.411Z</time>
      </trkpt>
      <trkpt lat="46.88475" lon="8.54064">
        <ele>1659</ele>
        <time>2021-08-11T08:49:10.411Z</time>
      </trkpt>
      <trkpt lat="46.88475" lon="8.54064">
        <ele>1658</ele>
        <time>2021-08-11T08:49:11.412Z</time>
      </trkpt>
      <trkpt lat="46.88476" lon="8.54063">
        <ele>1659</ele>
        <time>2021-08-11T08:49:12.411Z</time>
      </trkpt>
      <trkpt lat="46.88477" lon="8.54063">
        <ele>1659</ele>
        <time>2021-08-11T08:49:13.411Z</time>
      </trkpt>
      <trkpt lat="46.88476" lon="8.54062">
        <ele>1659</ele>
        <time>2021-08-11T08:49:14.411Z</time>
      </trkpt>
      <trkpt lat="46.88475" lon="8.54061">
        <ele>1660</ele>
        <time>2021-08-11T08:49:15.411Z</time>
      </trkpt>
      <trkpt lat="46.88475" lon="8.5406">
        <ele>1660</ele>
        <time>2021-08-11T08:49:16.411Z</time>
      </trkpt>
      <trkpt lat="46.88475" lon="8.5406">
        <ele>1661</ele>
        <time>2021-08-11T08:49:17.411Z</time>
      </trkpt>
      <trkpt lat="46.88476" lon="8.5406">
        <ele>1661</ele>
        <time>2021-08-11T08:49:18.411Z</time>
      </trkpt>
      <trkpt lat="46.88476" lon="8.5406">
        <ele>1661</ele>
        <time>2021-08-11T08:49:19.411Z</time>
      </trkpt>
      <trkpt lat="46.88476" lon="8.54059">
        <ele>1661</ele>
        <time>2021-08-11T08:49:20.411Z</time>
      </trkpt>
      <trkpt lat="46.88477" lon="8.54059">
        <ele>1661</ele>
        <time>2021-08-11T08:49:21.411Z</time>
      </trkpt>
      <trkpt lat="46.88478" lon="8.54059">
        <ele>1661</ele>
        <time>2021-08-11T08:49:22.411Z</time>
      </trkpt>
      <trkpt lat="46.88478" lon="8.54059">
        <ele>1661</ele>
        <time>2021-08-11T08:49:23.411Z</time>
      </trkpt>
      <trkpt lat="46.88479" lon="8.54059">
        <ele>1661</ele>
        <time>2021-08-11T08:49:24.411Z</time>
      </trkpt>
      <trkpt lat="46.8848" lon="8.54059">
        <ele>1662</ele>
        <time>2021-08-11T08:49:25.411Z</time>
      </trkpt>
      <trkpt lat="46.8848" lon="8.54059">
        <ele>1662</ele>
        <time>2021-08-11T08:49:26.411Z</time>
      </trkpt>
      <trkpt lat="46.88481" lon="8.54058">
        <ele>1663</ele>
        <time>2021-08-11T08:49:27.411Z</time>
      </trkpt>
      <trkpt lat="46.88481" lon="8.54058">
        <ele>1663</ele>
        <time>2021-08-11T08:49:28.412Z</time>
      </trkpt>
      <trkpt lat="46.88481" lon="8.54058">
        <ele>1664</ele>
        <time>2021-08-11T08:49:29.411Z</time>
      </trkpt>
      <trkpt lat="46.88482" lon="8.54058">
        <ele>1664</ele>
        <time>2021-08-11T08:49:30.411Z</time>
      </trkpt>
      <trkpt lat="46.88482" lon="8.54057">
        <ele>1665</ele>
        <time>2021-08-11T08:49:31.411Z</time>
      </trkpt>
      <trkpt lat="46.88482" lon="8.54057">
        <ele>1665</ele>
        <time>2021-08-11T08:49:32.411Z</time>
      </trkpt>
      <trkpt lat="46.88483" lon="8.54057">
        <ele>1666</ele>
        <time>2021-08-11T08:49:33.411Z</time>
      </trkpt>
      <trkpt lat="46.88483" lon="8.54057">
        <ele>1666</ele>
        <time>2021-08-11T08:49:34.411Z</time>
      </trkpt>
      <trkpt lat="46.88483" lon="8.54054">
        <ele>1665</ele>
        <time>2021-08-11T08:49:35.411Z</time>
      </trkpt>
      <trkpt lat="46.88483" lon="8.54054">
        <ele>1665</ele>
        <time>2021-08-11T08:49:36.411Z</time>
      </trkpt>
      <trkpt lat="46.88483" lon="8.54054">
        <ele>1665</ele>
        <time>2021-08-11T08:49:37.411Z</time>
      </trkpt>
      <trkpt lat="46.88484" lon="8.54053">
        <ele>1666</ele>
        <time>2021-08-11T08:49:38.411Z</time>
      </trkpt>
      <trkpt lat="46.88484" lon="8.54053">
        <ele>1666</ele>
        <time>2021-08-11T08:49:39.411Z</time>
      </trkpt>
      <trkpt lat="46.88485" lon="8.54053">
        <ele>1666</ele>
        <time>2021-08-11T08:49:40.411Z</time>
      </trkpt>
      <trkpt lat="46.88486" lon="8.54053">
        <ele>1667</ele>
        <time>2021-08-11T08:49:41.411Z</time>
      </trkpt>
      <trkpt lat="46.88486" lon="8.54052">
        <ele>1667</ele>
        <time>2021-08-11T08:49:42.411Z</time>
      </trkpt>
      <trkpt lat="46.88487" lon="8.54051">
        <ele>1668</ele>
        <time>2021-08-11T08:49:43.411Z</time>
      </trkpt>
      <trkpt lat="46.88487" lon="8.54051">
        <ele>1668</ele>
        <time>2021-08-11T08:49:44.411Z</time>
      </trkpt>
      <trkpt lat="46.88487" lon="8.5405">
        <ele>1669</ele>
        <time>2021-08-11T08:49:45.411Z</time>
      </trkpt>
      <trkpt lat="46.88488" lon="8.54049">
        <ele>1670</ele>
        <time>2021-08-11T08:49:46.411Z</time>
      </trkpt>
      <trkpt lat="46.88488" lon="8.54049">
        <ele>1670</ele>
        <time>2021-08-11T08:49:47.411Z</time>
      </trkpt>
      <trkpt lat="46.88488" lon="8.54048">
        <ele>1671</ele>
        <time>2021-08-11T08:49:48.411Z</time>
      </trkpt>
      <trkpt lat="46.88487" lon="8.54048">
        <ele>1671</ele>
        <time>2021-08-11T08:49:49.411Z</time>
      </trkpt>
      <trkpt lat="46.88487" lon="8.54048">
        <ele>1671</ele>
        <time>2021-08-11T08:49:50.411Z</time>
      </trkpt>
      <trkpt lat="46.88487" lon="8.54047">
        <ele>1671</ele>
        <time>2021-08-11T08:49:51.411Z</time>
      </trkpt>
      <trkpt lat="46.88487" lon="8.54047">
        <ele>1672</ele>
        <time>2021-08-11T08:49:52.411Z</time>
      </trkpt>
      <trkpt lat="46.88487" lon="8.54046">
        <ele>1672</ele>
        <time>2021-08-11T08:49:53.411Z</time>
      </trkpt>
      <trkpt lat="46.88487" lon="8.54046">
        <ele>1672</ele>
        <time>2021-08-11T08:49:54.411Z</time>
      </trkpt>
      <trkpt lat="46.88488" lon="8.54045">
        <ele>1672</ele>
        <time>2021-08-11T08:49:55.411Z</time>
      </trkpt>
      <trkpt lat="46.88488" lon="8.54045">
        <ele>1672</ele>
        <time>2021-08-11T08:49:56.411Z</time>
      </trkpt>
      <trkpt lat="46.88488" lon="8.54045">
        <ele>1672</ele>
        <time>2021-08-11T08:49:57.411Z</time>
      </trkpt>
      <trkpt lat="46.88488" lon="8.54044">
        <ele>1673</ele>
        <time>2021-08-11T08:49:58.411Z</time>
      </trkpt>
      <trkpt lat="46.88489" lon="8.54044">
        <ele>1672</ele>
        <time>2021-08-11T08:49:59.411Z</time>
      </trkpt>
      <trkpt lat="46.88489" lon="8.54043">
        <ele>1672</ele>
        <time>2021-08-11T08:50:00.411Z</time>
      </trkpt>
      <trkpt lat="46.88489" lon="8.54043">
        <ele>1672</ele>
        <time>2021-08-11T08:50:01.411Z</time>
      </trkpt>
      <trkpt lat="46.88489" lon="8.54043">
        <ele>1671</ele>
        <time>2021-08-11T08:50:02.412Z</time>
      </trkpt>
      <trkpt lat="46.88489" lon="8.54042">
        <ele>1671</ele>
        <time>2021-08-11T08:50:03.412Z</time>
      </trkpt>
      <trkpt lat="46.8849" lon="8.54042">
        <ele>1672</ele>
        <time>2021-08-11T08:50:04.412Z</time>
      </trkpt>
      <trkpt lat="46.8849" lon="8.54041">
        <ele>1672</ele>
        <time>2021-08-11T08:50:05.412Z</time>
      </trkpt>
      <trkpt lat="46.88489" lon="8.54041">
        <ele>1673</ele>
        <time>2021-08-11T08:50:06.413Z</time>
      </trkpt>
      <trkpt lat="46.88489" lon="8.5404">
        <ele>1673</ele>
        <time>2021-08-11T08:50:07.413Z</time>
      </trkpt>
      <trkpt lat="46.88489" lon="8.5404">
        <ele>1674</ele>
        <time>2021-08-11T08:50:08.413Z</time>
      </trkpt>
      <trkpt lat="46.8849" lon="8.54039">
        <ele>1675</ele>
        <time>2021-08-11T08:50:09.413Z</time>
      </trkpt>
      <trkpt lat="46.88489" lon="8.54039">
        <ele>1675</ele>
        <time>2021-08-11T08:50:10.413Z</time>
      </trkpt>
      <trkpt lat="46.88489" lon="8.54039">
        <ele>1676</ele>
        <time>2021-08-11T08:50:11.413Z</time>
      </trkpt>
      <trkpt lat="46.88488" lon="8.54039">
        <ele>1677</ele>
        <time>2021-08-11T08:50:12.413Z</time>
      </trkpt>
      <trkpt lat="46.88488" lon="8.54039">
        <ele>1677</ele>
        <time>2021-08-11T08:50:13.413Z</time>
      </trkpt>
      <trkpt lat="46.88488" lon="8.54039">
        <ele>1678</ele>
        <time>2021-08-11T08:50:14.413Z</time>
      </trkpt>
      <trkpt lat="46.88487" lon="8.54039">
        <ele>1678</ele>
        <time>2021-08-11T08:50:15.413Z</time>
      </trkpt>
      <trkpt lat="46.88487" lon="8.5404">
        <ele>1677</ele>
        <time>2021-08-11T08:50:16.413Z</time>
      </trkpt>
      <trkpt lat="46.88486" lon="8.5404">
        <ele>1677</ele>
        <time>2021-08-11T08:50:17.413Z</time>
      </trkpt>
      <trkpt lat="46.88486" lon="8.5404">
        <ele>1676</ele>
        <time>2021-08-11T08:50:18.412Z</time>
      </trkpt>
      <trkpt lat="46.88485" lon="8.54041">
        <ele>1675</ele>
        <time>2021-08-11T08:50:19.413Z</time>
      </trkpt>
      <trkpt lat="46.88485" lon="8.54041">
        <ele>1674</ele>
        <time>2021-08-11T08:50:20.413Z</time>
      </trkpt>
      <trkpt lat="46.88485" lon="8.54041">
        <ele>1674</ele>
        <time>2021-08-11T08:50:21.413Z</time>
      </trkpt>
      <trkpt lat="46.88484" lon="8.54041">
        <ele>1672</ele>
        <time>2021-08-11T08:50:22.414Z</time>
      </trkpt>
      <trkpt lat="46.88484" lon="8.54041">
        <ele>1672</ele>
        <time>2021-08-11T08:50:23.414Z</time>
      </trkpt>
      <trkpt lat="46.88484" lon="8.5404">
        <ele>1672</ele>
        <time>2021-08-11T08:50:24.413Z</time>
      </trkpt>
      <trkpt lat="46.88484" lon="8.5404">
        <ele>1672</ele>
        <time>2021-08-11T08:50:25.414Z</time>
      </trkpt>
      <trkpt lat="46.88483" lon="8.54039">
        <ele>1674</ele>
        <time>2021-08-11T08:50:26.415Z</time>
      </trkpt>
      <trkpt lat="46.88483" lon="8.54039">
        <ele>1675</ele>
        <time>2021-08-11T08:50:27.414Z</time>
      </trkpt>
      <trkpt lat="46.88483" lon="8.54038">
        <ele>1675</ele>
        <time>2021-08-11T08:50:28.414Z</time>
      </trkpt>
      <trkpt lat="46.88484" lon="8.54036">
        <ele>1675</ele>
        <time>2021-08-11T08:50:29.415Z</time>
      </trkpt>
      <trkpt lat="46.88485" lon="8.54036">
        <ele>1674</ele>
        <time>2021-08-11T08:50:30.415Z</time>
      </trkpt>
      <trkpt lat="46.88485" lon="8.54035">
        <ele>1674</ele>
        <time>2021-08-11T08:50:31.414Z</time>
      </trkpt>
      <trkpt lat="46.88486" lon="8.54034">
        <ele>1674</ele>
        <time>2021-08-11T08:50:32.415Z</time>
      </trkpt>
      <trkpt lat="46.88486" lon="8.54034">
        <ele>1674</ele>
        <time>2021-08-11T08:50:33.415Z</time>
      </trkpt>
      <trkpt lat="46.88486" lon="8.54034">
        <ele>1675</ele>
        <time>2021-08-11T08:50:34.414Z</time>
      </trkpt>
      <trkpt lat="46.88486" lon="8.54033">
        <ele>1676</ele>
        <time>2021-08-11T08:50:35.416Z</time>
      </trkpt>
      <trkpt lat="46.88487" lon="8.54032">
        <ele>1676</ele>
        <time>2021-08-11T08:50:36.415Z</time>
      </trkpt>
      <trkpt lat="46.88487" lon="8.54032">
        <ele>1675</ele>
        <time>2021-08-11T08:50:37.415Z</time>
      </trkpt>
      <trkpt lat="46.88487" lon="8.54032">
        <ele>1676</ele>
        <time>2021-08-11T08:50:38.415Z</time>
      </trkpt>
      <trkpt lat="46.88487" lon="8.54032">
        <ele>1676</ele>
        <time>2021-08-11T08:50:39.416Z</time>
      </trkpt>
      <trkpt lat="46.88488" lon="8.54031">
        <ele>1676</ele>
        <time>2021-08-11T08:50:40.415Z</time>
      </trkpt>
      <trkpt lat="46.88488" lon="8.54031">
        <ele>1676</ele>
        <time>2021-08-11T08:50:41.416Z</time>
      </trkpt>
      <trkpt lat="46.88488" lon="8.5403">
        <ele>1677</ele>
        <time>2021-08-11T08:50:42.416Z</time>
      </trkpt>
      <trkpt lat="46.88488" lon="8.5403">
        <ele>1677</ele>
        <time>2021-08-11T08:50:43.416Z</time>
      </trkpt>
      <trkpt lat="46.88489" lon="8.54029">
        <ele>1676</ele>
        <time>2021-08-11T08:50:44.416Z</time>
      </trkpt>
      <trkpt lat="46.88489" lon="8.54029">
        <ele>1676</ele>
        <time>2021-08-11T08:50:45.415Z</time>
      </trkpt>
      <trkpt lat="46.88489" lon="8.54028">
        <ele>1676</ele>
        <time>2021-08-11T08:50:46.416Z</time>
      </trkpt>
      <trkpt lat="46.88489" lon="8.54028">
        <ele>1676</ele>
        <time>2021-08-11T08:50:47.416Z</time>
      </trkpt>
      <trkpt lat="46.8849" lon="8.54028">
        <ele>1677</ele>
        <time>2021-08-11T08:50:48.416Z</time>
      </trkpt>
      <trkpt lat="46.8849" lon="8.54027">
        <ele>1677</ele>
        <time>2021-08-11T08:50:49.416Z</time>
      </trkpt>
      <trkpt lat="46.8849" lon="8.54027">
        <ele>1677</ele>
        <time>2021-08-11T08:50:50.416Z</time>
      </trkpt>
      <trkpt lat="46.8849" lon="8.54028">
        <ele>1678</ele>
        <time>2021-08-11T08:50:51.416Z</time>
      </trkpt>
      <trkpt lat="46.8849" lon="8.54027">
        <ele>1679</ele>
        <time>2021-08-11T08:50:52.416Z</time>
      </trkpt>
      <trkpt lat="46.88492" lon="8.54026">
        <ele>1681</ele>
        <time>2021-08-11T08:50:53.417Z</time>
      </trkpt>
      <trkpt lat="46.88493" lon="8.54025">
        <ele>1681</ele>
        <time>2021-08-11T08:50:54.416Z</time>
      </trkpt>
      <trkpt lat="46.88493" lon="8.54024">
        <ele>1681</ele>
        <time>2021-08-11T08:50:55.416Z</time>
      </trkpt>
      <trkpt lat="46.88493" lon="8.54024">
        <ele>1680</ele>
        <time>2021-08-11T08:50:56.417Z</time>
      </trkpt>
      <trkpt lat="46.88493" lon="8.54023">
        <ele>1680</ele>
        <time>2021-08-11T08:50:57.417Z</time>
      </trkpt>
      <trkpt lat="46.88493" lon="8.54023">
        <ele>1680</ele>
        <time>2021-08-11T08:50:58.416Z</time>
      </trkpt>
      <trkpt lat="46.88494" lon="8.54022">
        <ele>1680</ele>
        <time>2021-08-11T08:50:59.417Z</time>
      </trkpt>
      <trkpt lat="46.88494" lon="8.54022">
        <ele>1680</ele>
        <time>2021-08-11T08:51:00.417Z</time>
      </trkpt>
      <trkpt lat="46.88494" lon="8.54021">
        <ele>1679</ele>
        <time>2021-08-11T08:51:01.416Z</time>
      </trkpt>
      <trkpt lat="46.88494" lon="8.54021">
        <ele>1679</ele>
        <time>2021-08-11T08:51:02.417Z</time>
      </trkpt>
      <trkpt lat="46.88495" lon="8.5402">
        <ele>1679</ele>
        <time>2021-08-11T08:51:03.417Z</time>
      </trkpt>
      <trkpt lat="46.88495" lon="8.5402">
        <ele>1679</ele>
        <time>2021-08-11T08:51:04.417Z</time>
      </trkpt>
      <trkpt lat="46.88496" lon="8.54019">
        <ele>1679</ele>
        <time>2021-08-11T08:51:05.417Z</time>
      </trkpt>
      <trkpt lat="46.88496" lon="8.54019">
        <ele>1679</ele>
        <time>2021-08-11T08:51:06.416Z</time>
      </trkpt>
      <trkpt lat="46.88497" lon="8.54018">
        <ele>1679</ele>
        <time>2021-08-11T08:51:07.417Z</time>
      </trkpt>
      <trkpt lat="46.88497" lon="8.54017">
        <ele>1679</ele>
        <time>2021-08-11T08:51:08.417Z</time>
      </trkpt>
      <trkpt lat="46.88497" lon="8.54017">
        <ele>1679</ele>
        <time>2021-08-11T08:51:09.416Z</time>
      </trkpt>
      <trkpt lat="46.88497" lon="8.54017">
        <ele>1679</ele>
        <time>2021-08-11T08:51:10.417Z</time>
      </trkpt>
      <trkpt lat="46.88497" lon="8.54016">
        <ele>1679</ele>
        <time>2021-08-11T08:51:11.417Z</time>
      </trkpt>
      <trkpt lat="46.88498" lon="8.54016">
        <ele>1679</ele>
        <time>2021-08-11T08:51:12.417Z</time>
      </trkpt>
      <trkpt lat="46.88498" lon="8.54016">
        <ele>1679</ele>
        <time>2021-08-11T08:51:13.417Z</time>
      </trkpt>
      <trkpt lat="46.88499" lon="8.54015">
        <ele>1679</ele>
        <time>2021-08-11T08:51:14.416Z</time>
      </trkpt>
      <trkpt lat="46.88499" lon="8.54015">
        <ele>1680</ele>
        <time>2021-08-11T08:51:15.417Z</time>
      </trkpt>
      <trkpt lat="46.88499" lon="8.54014">
        <ele>1680</ele>
        <time>2021-08-11T08:51:16.416Z</time>
      </trkpt>
      <trkpt lat="46.88499" lon="8.54013">
        <ele>1680</ele>
        <time>2021-08-11T08:51:17.417Z</time>
      </trkpt>
      <trkpt lat="46.88499" lon="8.54013">
        <ele>1680</ele>
        <time>2021-08-11T08:51:18.416Z</time>
      </trkpt>
      <trkpt lat="46.885" lon="8.54012">
        <ele>1681</ele>
        <time>2021-08-11T08:51:19.416Z</time>
      </trkpt>
      <trkpt lat="46.885" lon="8.54011">
        <ele>1681</ele>
        <time>2021-08-11T08:51:20.417Z</time>
      </trkpt>
      <trkpt lat="46.885" lon="8.54011">
        <ele>1681</ele>
        <time>2021-08-11T08:51:21.417Z</time>
      </trkpt>
      <trkpt lat="46.88501" lon="8.5401">
        <ele>1682</ele>
        <time>2021-08-11T08:51:22.417Z</time>
      </trkpt>
      <trkpt lat="46.88501" lon="8.54009">
        <ele>1682</ele>
        <time>2021-08-11T08:51:23.417Z</time>
      </trkpt>
      <trkpt lat="46.88501" lon="8.54009">
        <ele>1682</ele>
        <time>2021-08-11T08:51:24.417Z</time>
      </trkpt>
      <trkpt lat="46.88501" lon="8.54008">
        <ele>1682</ele>
        <time>2021-08-11T08:51:25.416Z</time>
      </trkpt>
      <trkpt lat="46.88501" lon="8.54007">
        <ele>1682</ele>
        <time>2021-08-11T08:51:26.416Z</time>
      </trkpt>
      <trkpt lat="46.88501" lon="8.54006">
        <ele>1682</ele>
        <time>2021-08-11T08:51:27.417Z</time>
      </trkpt>
      <trkpt lat="46.88501" lon="8.54006">
        <ele>1682</ele>
        <time>2021-08-11T08:51:28.417Z</time>
      </trkpt>
      <trkpt lat="46.88502" lon="8.54004">
        <ele>1682</ele>
        <time>2021-08-11T08:51:29.417Z</time>
      </trkpt>
      <trkpt lat="46.88502" lon="8.54004">
        <ele>1682</ele>
        <time>2021-08-11T08:51:30.416Z</time>
      </trkpt>
      <trkpt lat="46.88502" lon="8.54003">
        <ele>1682</ele>
        <time>2021-08-11T08:51:31.416Z</time>
      </trkpt>
      <trkpt lat="46.88502" lon="8.54002">
        <ele>1683</ele>
        <time>2021-08-11T08:51:32.416Z</time>
      </trkpt>
      <trkpt lat="46.88502" lon="8.54002">
        <ele>1683</ele>
        <time>2021-08-11T08:51:33.416Z</time>
      </trkpt>
      <trkpt lat="46.88503" lon="8.54002">
        <ele>1683</ele>
        <time>2021-08-11T08:51:34.417Z</time>
      </trkpt>
      <trkpt lat="46.88503" lon="8.54001">
        <ele>1683</ele>
        <time>2021-08-11T08:51:35.417Z</time>
      </trkpt>
      <trkpt lat="46.88503" lon="8.54001">
        <ele>1684</ele>
        <time>2021-08-11T08:51:36.417Z</time>
      </trkpt>
      <trkpt lat="46.88503" lon="8.54001">
        <ele>1684</ele>
        <time>2021-08-11T08:51:37.416Z</time>
      </trkpt>
      <trkpt lat="46.88503" lon="8.54">
        <ele>1684</ele>
        <time>2021-08-11T08:51:38.417Z</time>
      </trkpt>
      <trkpt lat="46.88504" lon="8.53999">
        <ele>1684</ele>
        <time>2021-08-11T08:51:39.417Z</time>
      </trkpt>
      <trkpt lat="46.88504" lon="8.53999">
        <ele>1685</ele>
        <time>2021-08-11T08:51:40.416Z</time>
      </trkpt>
      <trkpt lat="46.88504" lon="8.53998">
        <ele>1686</ele>
        <time>2021-08-11T08:51:41.417Z</time>
      </trkpt>
      <trkpt lat="46.88504" lon="8.53998">
        <ele>1686</ele>
        <time>2021-08-11T08:51:42.416Z</time>
      </trkpt>
      <trkpt lat="46.88504" lon="8.53997">
        <ele>1686</ele>
        <time>2021-08-11T08:51:43.416Z</time>
      </trkpt>
      <trkpt lat="46.88505" lon="8.53997">
        <ele>1687</ele>
        <time>2021-08-11T08:51:44.417Z</time>
      </trkpt>
      <trkpt lat="46.88505" lon="8.53997">
        <ele>1687</ele>
        <time>2021-08-11T08:51:45.416Z</time>
      </trkpt>
      <trkpt lat="46.88505" lon="8.53997">
        <ele>1687</ele>
        <time>2021-08-11T08:51:46.417Z</time>
      </trkpt>
      <trkpt lat="46.88506" lon="8.53997">
        <ele>1687</ele>
        <time>2021-08-11T08:51:47.417Z</time>
      </trkpt>
      <trkpt lat="46.88506" lon="8.53997">
        <ele>1687</ele>
        <time>2021-08-11T08:51:48.417Z</time>
      </trkpt>
      <trkpt lat="46.88507" lon="8.53998">
        <ele>1687</ele>
        <time>2021-08-11T08:51:49.416Z</time>
      </trkpt>
      <trkpt lat="46.88507" lon="8.53999">
        <ele>1686</ele>
        <time>2021-08-11T08:51:50.417Z</time>
      </trkpt>
      <trkpt lat="46.88507" lon="8.53999">
        <ele>1686</ele>
        <time>2021-08-11T08:51:51.416Z</time>
      </trkpt>
      <trkpt lat="46.88508" lon="8.53999">
        <ele>1685</ele>
        <time>2021-08-11T08:51:52.417Z</time>
      </trkpt>
      <trkpt lat="46.88508" lon="8.53999">
        <ele>1685</ele>
        <time>2021-08-11T08:51:53.417Z</time>
      </trkpt>
      <trkpt lat="46.88508" lon="8.54">
        <ele>1684</ele>
        <time>2021-08-11T08:51:54.419Z</time>
      </trkpt>
      <trkpt lat="46.88509" lon="8.54001">
        <ele>1684</ele>
        <time>2021-08-11T08:51:55.418Z</time>
      </trkpt>
      <trkpt lat="46.88509" lon="8.54001">
        <ele>1684</ele>
        <time>2021-08-11T08:51:56.418Z</time>
      </trkpt>
      <trkpt lat="46.8851" lon="8.54001">
        <ele>1684</ele>
        <time>2021-08-11T08:51:57.419Z</time>
      </trkpt>
      <trkpt lat="46.8851" lon="8.54002">
        <ele>1683</ele>
        <time>2021-08-11T08:51:58.418Z</time>
      </trkpt>
      <trkpt lat="46.8851" lon="8.54002">
        <ele>1683</ele>
        <time>2021-08-11T08:51:59.418Z</time>
      </trkpt>
      <trkpt lat="46.88511" lon="8.54002">
        <ele>1683</ele>
        <time>2021-08-11T08:52:00.419Z</time>
      </trkpt>
      <trkpt lat="46.88512" lon="8.54002">
        <ele>1683</ele>
        <time>2021-08-11T08:52:01.419Z</time>
      </trkpt>
      <trkpt lat="46.88512" lon="8.54002">
        <ele>1684</ele>
        <time>2021-08-11T08:52:02.419Z</time>
      </trkpt>
      <trkpt lat="46.88512" lon="8.54003">
        <ele>1684</ele>
        <time>2021-08-11T08:52:03.418Z</time>
      </trkpt>
      <trkpt lat="46.88513" lon="8.54004">
        <ele>1685</ele>
        <time>2021-08-11T08:52:04.418Z</time>
      </trkpt>
      <trkpt lat="46.88513" lon="8.54005">
        <ele>1685</ele>
        <time>2021-08-11T08:52:05.419Z</time>
      </trkpt>
      <trkpt lat="46.88513" lon="8.54006">
        <ele>1686</ele>
        <time>2021-08-11T08:52:06.419Z</time>
      </trkpt>
      <trkpt lat="46.88513" lon="8.54007">
        <ele>1687</ele>
        <time>2021-08-11T08:52:07.418Z</time>
      </trkpt>
      <trkpt lat="46.88513" lon="8.54007">
        <ele>1687</ele>
        <time>2021-08-11T08:52:08.419Z</time>
      </trkpt>
      <trkpt lat="46.88514" lon="8.54008">
        <ele>1688</ele>
        <time>2021-08-11T08:52:09.419Z</time>
      </trkpt>
      <trkpt lat="46.88514" lon="8.54008">
        <ele>1688</ele>
        <time>2021-08-11T08:52:10.418Z</time>
      </trkpt>
      <trkpt lat="46.88515" lon="8.54009">
        <ele>1689</ele>
        <time>2021-08-11T08:52:11.419Z</time>
      </trkpt>
      <trkpt lat="46.88515" lon="8.54009">
        <ele>1690</ele>
        <time>2021-08-11T08:52:12.418Z</time>
      </trkpt>
      <trkpt lat="46.88516" lon="8.54009">
        <ele>1690</ele>
        <time>2021-08-11T08:52:13.419Z</time>
      </trkpt>
      <trkpt lat="46.88516" lon="8.54008">
        <ele>1691</ele>
        <time>2021-08-11T08:52:14.418Z</time>
      </trkpt>
      <trkpt lat="46.88517" lon="8.54008">
        <ele>1691</ele>
        <time>2021-08-11T08:52:15.418Z</time>
      </trkpt>
      <trkpt lat="46.88517" lon="8.54008">
        <ele>1692</ele>
        <time>2021-08-11T08:52:16.418Z</time>
      </trkpt>
      <trkpt lat="46.88517" lon="8.54008">
        <ele>1692</ele>
        <time>2021-08-11T08:52:17.419Z</time>
      </trkpt>
      <trkpt lat="46.88514" lon="8.54008">
        <ele>1691</ele>
        <time>2021-08-11T08:52:18.419Z</time>
      </trkpt>
      <trkpt lat="46.88515" lon="8.54008">
        <ele>1691</ele>
        <time>2021-08-11T08:52:19.419Z</time>
      </trkpt>
      <trkpt lat="46.88515" lon="8.54007">
        <ele>1691</ele>
        <time>2021-08-11T08:52:20.419Z</time>
      </trkpt>
      <trkpt lat="46.88516" lon="8.54007">
        <ele>1691</ele>
        <time>2021-08-11T08:52:21.419Z</time>
      </trkpt>
      <trkpt lat="46.88517" lon="8.54006">
        <ele>1691</ele>
        <time>2021-08-11T08:52:22.420Z</time>
      </trkpt>
      <trkpt lat="46.88517" lon="8.54004">
        <ele>1692</ele>
        <time>2021-08-11T08:52:23.419Z</time>
      </trkpt>
      <trkpt lat="46.88518" lon="8.54003">
        <ele>1692</ele>
        <time>2021-08-11T08:52:24.419Z</time>
      </trkpt>
      <trkpt lat="46.88518" lon="8.54003">
        <ele>1692</ele>
        <time>2021-08-11T08:52:25.419Z</time>
      </trkpt>
      <trkpt lat="46.88518" lon="8.54003">
        <ele>1692</ele>
        <time>2021-08-11T08:52:26.420Z</time>
      </trkpt>
      <trkpt lat="46.88518" lon="8.54002">
        <ele>1692</ele>
        <time>2021-08-11T08:52:27.420Z</time>
      </trkpt>
      <trkpt lat="46.88519" lon="8.54002">
        <ele>1692</ele>
        <time>2021-08-11T08:52:28.419Z</time>
      </trkpt>
      <trkpt lat="46.88519" lon="8.54002">
        <ele>1693</ele>
        <time>2021-08-11T08:52:29.419Z</time>
      </trkpt>
      <trkpt lat="46.8852" lon="8.54002">
        <ele>1693</ele>
        <time>2021-08-11T08:52:30.420Z</time>
      </trkpt>
      <trkpt lat="46.8852" lon="8.54002">
        <ele>1693</ele>
        <time>2021-08-11T08:52:31.420Z</time>
      </trkpt>
      <trkpt lat="46.8852" lon="8.54002">
        <ele>1693</ele>
        <time>2021-08-11T08:52:32.419Z</time>
      </trkpt>
      <trkpt lat="46.8852" lon="8.54003">
        <ele>1693</ele>
        <time>2021-08-11T08:52:33.419Z</time>
      </trkpt>
      <trkpt lat="46.88521" lon="8.54003">
        <ele>1693</ele>
        <time>2021-08-11T08:52:34.419Z</time>
      </trkpt>
      <trkpt lat="46.88521" lon="8.54002">
        <ele>1694</ele>
        <time>2021-08-11T08:52:35.420Z</time>
      </trkpt>
      <trkpt lat="46.88522" lon="8.54001">
        <ele>1694</ele>
        <time>2021-08-11T08:52:36.419Z</time>
      </trkpt>
      <trkpt lat="46.88521" lon="8.54001">
        <ele>1694</ele>
        <time>2021-08-11T08:52:37.419Z</time>
      </trkpt>
      <trkpt lat="46.88522" lon="8.54001">
        <ele>1693</ele>
        <time>2021-08-11T08:52:38.419Z</time>
      </trkpt>
      <trkpt lat="46.88522" lon="8.54001">
        <ele>1693</ele>
        <time>2021-08-11T08:52:39.419Z</time>
      </trkpt>
      <trkpt lat="46.88522" lon="8.54001">
        <ele>1694</ele>
        <time>2021-08-11T08:52:40.419Z</time>
      </trkpt>
      <trkpt lat="46.88522" lon="8.53999">
        <ele>1695</ele>
        <time>2021-08-11T08:52:41.419Z</time>
      </trkpt>
      <trkpt lat="46.88523" lon="8.53999">
        <ele>1696</ele>
        <time>2021-08-11T08:52:42.420Z</time>
      </trkpt>
      <trkpt lat="46.88523" lon="8.53999">
        <ele>1696</ele>
        <time>2021-08-11T08:52:43.419Z</time>
      </trkpt>
      <trkpt lat="46.88523" lon="8.53999">
        <ele>1696</ele>
        <time>2021-08-11T08:52:44.419Z</time>
      </trkpt>
      <trkpt lat="46.88523" lon="8.53999">
        <ele>1696</ele>
        <time>2021-08-11T08:52:45.420Z</time>
      </trkpt>
      <trkpt lat="46.88523" lon="8.53999">
        <ele>1696</ele>
        <time>2021-08-11T08:52:46.420Z</time>
      </trkpt>
      <trkpt lat="46.88522" lon="8.53999">
        <ele>1696</ele>
        <time>2021-08-11T08:52:47.420Z</time>
      </trkpt>
      <trkpt lat="46.88522" lon="8.53999">
        <ele>1696</ele>
        <time>2021-08-11T08:52:48.420Z</time>
      </trkpt>
      <trkpt lat="46.88522" lon="8.53999">
        <ele>1696</ele>
        <time>2021-08-11T08:52:49.420Z</time>
      </trkpt>
      <trkpt lat="46.88522" lon="8.53998">
        <ele>1697</ele>
        <time>2021-08-11T08:52:50.419Z</time>
      </trkpt>
      <trkpt lat="46.88523" lon="8.53998">
        <ele>1698</ele>
        <time>2021-08-11T08:52:51.420Z</time>
      </trkpt>
      <trkpt lat="46.88523" lon="8.53997">
        <ele>1698</ele>
        <time>2021-08-11T08:52:52.419Z</time>
      </trkpt>
      <trkpt lat="46.88525" lon="8.53998">
        <ele>1696</ele>
        <time>2021-08-11T08:52:53.419Z</time>
      </trkpt>
      <trkpt lat="46.88525" lon="8.53998">
        <ele>1695</ele>
        <time>2021-08-11T08:52:54.419Z</time>
      </trkpt>
      <trkpt lat="46.88525" lon="8.53997">
        <ele>1695</ele>
        <time>2021-08-11T08:52:55.419Z</time>
      </trkpt>
      <trkpt lat="46.88525" lon="8.53996">
        <ele>1695</ele>
        <time>2021-08-11T08:52:56.419Z</time>
      </trkpt>
      <trkpt lat="46.88526" lon="8.53996">
        <ele>1695</ele>
        <time>2021-08-11T08:52:57.419Z</time>
      </trkpt>
      <trkpt lat="46.88527" lon="8.53995">
        <ele>1695</ele>
        <time>2021-08-11T08:52:58.419Z</time>
      </trkpt>
      <trkpt lat="46.88527" lon="8.53995">
        <ele>1695</ele>
        <time>2021-08-11T08:52:59.419Z</time>
      </trkpt>
      <trkpt lat="46.88526" lon="8.53994">
        <ele>1695</ele>
        <time>2021-08-11T08:53:00.419Z</time>
      </trkpt>
      <trkpt lat="46.88526" lon="8.53994">
        <ele>1695</ele>
        <time>2021-08-11T08:53:01.419Z</time>
      </trkpt>
      <trkpt lat="46.88526" lon="8.53993">
        <ele>1695</ele>
        <time>2021-08-11T08:53:02.419Z</time>
      </trkpt>
      <trkpt lat="46.88526" lon="8.53993">
        <ele>1695</ele>
        <time>2021-08-11T08:53:03.419Z</time>
      </trkpt>
      <trkpt lat="46.88525" lon="8.53992">
        <ele>1696</ele>
        <time>2021-08-11T08:53:04.419Z</time>
      </trkpt>
      <trkpt lat="46.88525" lon="8.53992">
        <ele>1696</ele>
        <time>2021-08-11T08:53:05.419Z</time>
      </trkpt>
      <trkpt lat="46.88525" lon="8.53991">
        <ele>1696</ele>
        <time>2021-08-11T08:53:06.419Z</time>
      </trkpt>
      <trkpt lat="46.88525" lon="8.53991">
        <ele>1696</ele>
        <time>2021-08-11T08:53:07.419Z</time>
      </trkpt>
      <trkpt lat="46.88525" lon="8.53991">
        <ele>1696</ele>
        <time>2021-08-11T08:53:08.419Z</time>
      </trkpt>
      <trkpt lat="46.88526" lon="8.5399">
        <ele>1696</ele>
        <time>2021-08-11T08:53:09.419Z</time>
      </trkpt>
      <trkpt lat="46.88526" lon="8.53989">
        <ele>1697</ele>
        <time>2021-08-11T08:53:10.419Z</time>
      </trkpt>
      <trkpt lat="46.88526" lon="8.53988">
        <ele>1697</ele>
        <time>2021-08-11T08:53:11.419Z</time>
      </trkpt>
      <trkpt lat="46.88527" lon="8.53988">
        <ele>1697</ele>
        <time>2021-08-11T08:53:12.419Z</time>
      </trkpt>
      <trkpt lat="46.88528" lon="8.53987">
        <ele>1697</ele>
        <time>2021-08-11T08:53:13.419Z</time>
      </trkpt>
      <trkpt lat="46.88529" lon="8.53987">
        <ele>1697</ele>
        <time>2021-08-11T08:53:14.419Z</time>
      </trkpt>
      <trkpt lat="46.8853" lon="8.53987">
        <ele>1697</ele>
        <time>2021-08-11T08:53:15.419Z</time>
      </trkpt>
      <trkpt lat="46.8853" lon="8.53987">
        <ele>1697</ele>
        <time>2021-08-11T08:53:16.419Z</time>
      </trkpt>
      <trkpt lat="46.88531" lon="8.53987">
        <ele>1696</ele>
        <time>2021-08-11T08:53:17.419Z</time>
      </trkpt>
      <trkpt lat="46.88531" lon="8.53987">
        <ele>1696</ele>
        <time>2021-08-11T08:53:18.419Z</time>
      </trkpt>
      <trkpt lat="46.88531" lon="8.53988">
        <ele>1696</ele>
        <time>2021-08-11T08:53:19.419Z</time>
      </trkpt>
      <trkpt lat="46.88532" lon="8.53988">
        <ele>1696</ele>
        <time>2021-08-11T08:53:20.419Z</time>
      </trkpt>
      <trkpt lat="46.88532" lon="8.53989">
        <ele>1697</ele>
        <time>2021-08-11T08:53:21.419Z</time>
      </trkpt>
      <trkpt lat="46.88533" lon="8.5399">
        <ele>1697</ele>
        <time>2021-08-11T08:53:22.419Z</time>
      </trkpt>
      <trkpt lat="46.88534" lon="8.5399">
        <ele>1697</ele>
        <time>2021-08-11T08:53:23.419Z</time>
      </trkpt>
      <trkpt lat="46.88534" lon="8.5399">
        <ele>1697</ele>
        <time>2021-08-11T08:53:24.419Z</time>
      </trkpt>
      <trkpt lat="46.88535" lon="8.5399">
        <ele>1697</ele>
        <time>2021-08-11T08:53:25.419Z</time>
      </trkpt>
      <trkpt lat="46.88536" lon="8.53989">
        <ele>1697</ele>
        <time>2021-08-11T08:53:26.419Z</time>
      </trkpt>
      <trkpt lat="46.88536" lon="8.53989">
        <ele>1697</ele>
        <time>2021-08-11T08:53:27.419Z</time>
      </trkpt>
      <trkpt lat="46.88537" lon="8.53988">
        <ele>1698</ele>
        <time>2021-08-11T08:53:28.419Z</time>
      </trkpt>
      <trkpt lat="46.88537" lon="8.53988">
        <ele>1698</ele>
        <time>2021-08-11T08:53:29.419Z</time>
      </trkpt>
      <trkpt lat="46.88537" lon="8.53988">
        <ele>1698</ele>
        <time>2021-08-11T08:53:30.419Z</time>
      </trkpt>
      <trkpt lat="46.88537" lon="8.53989">
        <ele>1698</ele>
        <time>2021-08-11T08:53:31.419Z</time>
      </trkpt>
      <trkpt lat="46.88538" lon="8.53989">
        <ele>1698</ele>
        <time>2021-08-11T08:53:32.419Z</time>
      </trkpt>
      <trkpt lat="46.88539" lon="8.53989">
        <ele>1698</ele>
        <time>2021-08-11T08:53:33.419Z</time>
      </trkpt>
      <trkpt lat="46.88539" lon="8.53988">
        <ele>1698</ele>
        <time>2021-08-11T08:53:34.419Z</time>
      </trkpt>
      <trkpt lat="46.88539" lon="8.53988">
        <ele>1698</ele>
        <time>2021-08-11T08:53:35.419Z</time>
      </trkpt>
      <trkpt lat="46.88539" lon="8.53988">
        <ele>1699</ele>
        <time>2021-08-11T08:53:36.419Z</time>
      </trkpt>
      <trkpt lat="46.88539" lon="8.53987">
        <ele>1699</ele>
        <time>2021-08-11T08:53:37.419Z</time>
      </trkpt>
      <trkpt lat="46.88539" lon="8.53986">
        <ele>1699</ele>
        <time>2021-08-11T08:53:38.419Z</time>
      </trkpt>
      <trkpt lat="46.88539" lon="8.53986">
        <ele>1699</ele>
        <time>2021-08-11T08:53:39.419Z</time>
      </trkpt>
      <trkpt lat="46.88539" lon="8.53986">
        <ele>1699</ele>
        <time>2021-08-11T08:53:40.419Z</time>
      </trkpt>
      <trkpt lat="46.88539" lon="8.53985">
        <ele>1699</ele>
        <time>2021-08-11T08:53:41.419Z</time>
      </trkpt>
      <trkpt lat="46.8854" lon="8.53985">
        <ele>1699</ele>
        <time>2021-08-11T08:53:42.419Z</time>
      </trkpt>
      <trkpt lat="46.8854" lon="8.53985">
        <ele>1699</ele>
        <time>2021-08-11T08:53:43.419Z</time>
      </trkpt>
      <trkpt lat="46.8854" lon="8.53985">
        <ele>1700</ele>
        <time>2021-08-11T08:53:44.419Z</time>
      </trkpt>
      <trkpt lat="46.88541" lon="8.53985">
        <ele>1700</ele>
        <time>2021-08-11T08:53:45.419Z</time>
      </trkpt>
      <trkpt lat="46.88541" lon="8.53985">
        <ele>1701</ele>
        <time>2021-08-11T08:53:46.419Z</time>
      </trkpt>
      <trkpt lat="46.88542" lon="8.53984">
        <ele>1701</ele>
        <time>2021-08-11T08:53:47.419Z</time>
      </trkpt>
      <trkpt lat="46.88542" lon="8.53984">
        <ele>1701</ele>
        <time>2021-08-11T08:53:48.419Z</time>
      </trkpt>
      <trkpt lat="46.88543" lon="8.53984">
        <ele>1702</ele>
        <time>2021-08-11T08:53:49.419Z</time>
      </trkpt>
      <trkpt lat="46.88544" lon="8.53984">
        <ele>1702</ele>
        <time>2021-08-11T08:53:50.419Z</time>
      </trkpt>
      <trkpt lat="46.88545" lon="8.53984">
        <ele>1702</ele>
        <time>2021-08-11T08:53:51.419Z</time>
      </trkpt>
      <trkpt lat="46.88545" lon="8.53983">
        <ele>1702</ele>
        <time>2021-08-11T08:53:52.419Z</time>
      </trkpt>
      <trkpt lat="46.88546" lon="8.53983">
        <ele>1703</ele>
        <time>2021-08-11T08:53:53.419Z</time>
      </trkpt>
      <trkpt lat="46.88546" lon="8.53983">
        <ele>1703</ele>
        <time>2021-08-11T08:53:54.419Z</time>
      </trkpt>
      <trkpt lat="46.88547" lon="8.53983">
        <ele>1704</ele>
        <time>2021-08-11T08:53:55.419Z</time>
      </trkpt>
      <trkpt lat="46.88547" lon="8.53982">
        <ele>1705</ele>
        <time>2021-08-11T08:53:56.419Z</time>
      </trkpt>
      <trkpt lat="46.88548" lon="8.53982">
        <ele>1705</ele>
        <time>2021-08-11T08:53:57.419Z</time>
      </trkpt>
      <trkpt lat="46.88548" lon="8.53982">
        <ele>1706</ele>
        <time>2021-08-11T08:53:58.419Z</time>
      </trkpt>
      <trkpt lat="46.88547" lon="8.53983">
        <ele>1706</ele>
        <time>2021-08-11T08:53:59.419Z</time>
      </trkpt>
      <trkpt lat="46.88547" lon="8.53984">
        <ele>1706</ele>
        <time>2021-08-11T08:54:00.419Z</time>
      </trkpt>
      <trkpt lat="46.88548" lon="8.53984">
        <ele>1706</ele>
        <time>2021-08-11T08:54:01.419Z</time>
      </trkpt>
      <trkpt lat="46.88548" lon="8.53985">
        <ele>1706</ele>
        <time>2021-08-11T08:54:02.419Z</time>
      </trkpt>
      <trkpt lat="46.88548" lon="8.53985">
        <ele>1707</ele>
        <time>2021-08-11T08:54:03.419Z</time>
      </trkpt>
      <trkpt lat="46.88548" lon="8.53985">
        <ele>1707</ele>
        <time>2021-08-11T08:54:04.420Z</time>
      </trkpt>
      <trkpt lat="46.88549" lon="8.53984">
        <ele>1707</ele>
        <time>2021-08-11T08:54:05.420Z</time>
      </trkpt>
      <trkpt lat="46.8855" lon="8.53984">
        <ele>1708</ele>
        <time>2021-08-11T08:54:06.420Z</time>
      </trkpt>
      <trkpt lat="46.88551" lon="8.53984">
        <ele>1708</ele>
        <time>2021-08-11T08:54:07.419Z</time>
      </trkpt>
      <trkpt lat="46.88551" lon="8.53984">
        <ele>1708</ele>
        <time>2021-08-11T08:54:08.420Z</time>
      </trkpt>
      <trkpt lat="46.88552" lon="8.53983">
        <ele>1709</ele>
        <time>2021-08-11T08:54:09.419Z</time>
      </trkpt>
      <trkpt lat="46.88553" lon="8.53982">
        <ele>1709</ele>
        <time>2021-08-11T08:54:10.419Z</time>
      </trkpt>
      <trkpt lat="46.88554" lon="8.53981">
        <ele>1709</ele>
        <time>2021-08-11T08:54:11.419Z</time>
      </trkpt>
      <trkpt lat="46.88554" lon="8.53981">
        <ele>1710</ele>
        <time>2021-08-11T08:54:12.419Z</time>
      </trkpt>
      <trkpt lat="46.88555" lon="8.5398">
        <ele>1710</ele>
        <time>2021-08-11T08:54:13.419Z</time>
      </trkpt>
      <trkpt lat="46.88555" lon="8.5398">
        <ele>1710</ele>
        <time>2021-08-11T08:54:14.419Z</time>
      </trkpt>
      <trkpt lat="46.88555" lon="8.53981">
        <ele>1709</ele>
        <time>2021-08-11T08:54:15.420Z</time>
      </trkpt>
      <trkpt lat="46.88556" lon="8.53981">
        <ele>1709</ele>
        <time>2021-08-11T08:54:16.419Z</time>
      </trkpt>
      <trkpt lat="46.88557" lon="8.53981">
        <ele>1709</ele>
        <time>2021-08-11T08:54:17.419Z</time>
      </trkpt>
      <trkpt lat="46.88557" lon="8.53981">
        <ele>1709</ele>
        <time>2021-08-11T08:54:18.419Z</time>
      </trkpt>
      <trkpt lat="46.88558" lon="8.5398">
        <ele>1709</ele>
        <time>2021-08-11T08:54:19.420Z</time>
      </trkpt>
      <trkpt lat="46.88559" lon="8.53979">
        <ele>1709</ele>
        <time>2021-08-11T08:54:20.420Z</time>
      </trkpt>
      <trkpt lat="46.8856" lon="8.53978">
        <ele>1710</ele>
        <time>2021-08-11T08:54:21.419Z</time>
      </trkpt>
      <trkpt lat="46.8856" lon="8.53978">
        <ele>1710</ele>
        <time>2021-08-11T08:54:22.419Z</time>
      </trkpt>
      <trkpt lat="46.8856" lon="8.53977">
        <ele>1710</ele>
        <time>2021-08-11T08:54:23.420Z</time>
      </trkpt>
      <trkpt lat="46.88561" lon="8.53977">
        <ele>1710</ele>
        <time>2021-08-11T08:54:24.419Z</time>
      </trkpt>
      <trkpt lat="46.88562" lon="8.53976">
        <ele>1710</ele>
        <time>2021-08-11T08:54:25.419Z</time>
      </trkpt>
      <trkpt lat="46.88562" lon="8.53975">
        <ele>1710</ele>
        <time>2021-08-11T08:54:26.419Z</time>
      </trkpt>
      <trkpt lat="46.88562" lon="8.53975">
        <ele>1710</ele>
        <time>2021-08-11T08:54:27.420Z</time>
      </trkpt>
      <trkpt lat="46.88562" lon="8.53975">
        <ele>1709</ele>
        <time>2021-08-11T08:54:28.420Z</time>
      </trkpt>
      <trkpt lat="46.88562" lon="8.53975">
        <ele>1708</ele>
        <time>2021-08-11T08:54:29.421Z</time>
      </trkpt>
      <trkpt lat="46.88562" lon="8.53975">
        <ele>1708</ele>
        <time>2021-08-11T08:54:30.421Z</time>
      </trkpt>
      <trkpt lat="46.88562" lon="8.53976">
        <ele>1708</ele>
        <time>2021-08-11T08:54:31.421Z</time>
      </trkpt>
      <trkpt lat="46.88563" lon="8.53976">
        <ele>1708</ele>
        <time>2021-08-11T08:54:32.420Z</time>
      </trkpt>
      <trkpt lat="46.88563" lon="8.53975">
        <ele>1709</ele>
        <time>2021-08-11T08:54:33.421Z</time>
      </trkpt>
      <trkpt lat="46.88561" lon="8.53976">
        <ele>1707</ele>
        <time>2021-08-11T08:54:34.420Z</time>
      </trkpt>
      <trkpt lat="46.8856" lon="8.53976">
        <ele>1707</ele>
        <time>2021-08-11T08:54:35.421Z</time>
      </trkpt>
      <trkpt lat="46.88559" lon="8.53975">
        <ele>1708</ele>
        <time>2021-08-11T08:54:36.420Z</time>
      </trkpt>
      <trkpt lat="46.8856" lon="8.53976">
        <ele>1708</ele>
        <time>2021-08-11T08:54:37.421Z</time>
      </trkpt>
      <trkpt lat="46.8856" lon="8.53975">
        <ele>1708</ele>
        <time>2021-08-11T08:54:38.421Z</time>
      </trkpt>
      <trkpt lat="46.8856" lon="8.53975">
        <ele>1707</ele>
        <time>2021-08-11T08:54:39.422Z</time>
      </trkpt>
      <trkpt lat="46.88561" lon="8.53975">
        <ele>1707</ele>
        <time>2021-08-11T08:54:40.421Z</time>
      </trkpt>
      <trkpt lat="46.88561" lon="8.53975">
        <ele>1707</ele>
        <time>2021-08-11T08:54:41.421Z</time>
      </trkpt>
      <trkpt lat="46.88561" lon="8.53976">
        <ele>1706</ele>
        <time>2021-08-11T08:54:42.422Z</time>
      </trkpt>
      <trkpt lat="46.8856" lon="8.53976">
        <ele>1706</ele>
        <time>2021-08-11T08:54:43.422Z</time>
      </trkpt>
      <trkpt lat="46.88561" lon="8.53976">
        <ele>1706</ele>
        <time>2021-08-11T08:54:44.422Z</time>
      </trkpt>
      <trkpt lat="46.88561" lon="8.53977">
        <ele>1706</ele>
        <time>2021-08-11T08:54:45.422Z</time>
      </trkpt>
      <trkpt lat="46.88561" lon="8.53978">
        <ele>1706</ele>
        <time>2021-08-11T08:54:46.421Z</time>
      </trkpt>
      <trkpt lat="46.88563" lon="8.53976">
        <ele>1704</ele>
        <time>2021-08-11T08:54:47.423Z</time>
      </trkpt>
      <trkpt lat="46.88563" lon="8.53975">
        <ele>1704</ele>
        <time>2021-08-11T08:54:48.423Z</time>
      </trkpt>
      <trkpt lat="46.88563" lon="8.53975">
        <ele>1704</ele>
        <time>2021-08-11T08:54:49.423Z</time>
      </trkpt>
      <trkpt lat="46.88563" lon="8.53974">
        <ele>1704</ele>
        <time>2021-08-11T08:54:50.422Z</time>
      </trkpt>
      <trkpt lat="46.88562" lon="8.53973">
        <ele>1704</ele>
        <time>2021-08-11T08:54:51.422Z</time>
      </trkpt>
      <trkpt lat="46.88562" lon="8.53973">
        <ele>1704</ele>
        <time>2021-08-11T08:54:52.423Z</time>
      </trkpt>
      <trkpt lat="46.88562" lon="8.53972">
        <ele>1703</ele>
        <time>2021-08-11T08:54:53.422Z</time>
      </trkpt>
      <trkpt lat="46.88563" lon="8.53972">
        <ele>1703</ele>
        <time>2021-08-11T08:54:54.423Z</time>
      </trkpt>
      <trkpt lat="46.88564" lon="8.53971">
        <ele>1702</ele>
        <time>2021-08-11T08:54:55.422Z</time>
      </trkpt>
      <trkpt lat="46.88564" lon="8.5397">
        <ele>1703</ele>
        <time>2021-08-11T08:54:56.423Z</time>
      </trkpt>
      <trkpt lat="46.88564" lon="8.53969">
        <ele>1703</ele>
        <time>2021-08-11T08:54:57.423Z</time>
      </trkpt>
      <trkpt lat="46.88564" lon="8.53968">
        <ele>1703</ele>
        <time>2021-08-11T08:54:58.422Z</time>
      </trkpt>
      <trkpt lat="46.88564" lon="8.53968">
        <ele>1704</ele>
        <time>2021-08-11T08:54:59.423Z</time>
      </trkpt>
      <trkpt lat="46.88564" lon="8.53968">
        <ele>1704</ele>
        <time>2021-08-11T08:55:00.423Z</time>
      </trkpt>
      <trkpt lat="46.88565" lon="8.53968">
        <ele>1704</ele>
        <time>2021-08-11T08:55:01.423Z</time>
      </trkpt>
      <trkpt lat="46.88565" lon="8.53967">
        <ele>1705</ele>
        <time>2021-08-11T08:55:02.423Z</time>
      </trkpt>
      <trkpt lat="46.88566" lon="8.53967">
        <ele>1705</ele>
        <time>2021-08-11T08:55:03.422Z</time>
      </trkpt>
      <trkpt lat="46.88566" lon="8.53967">
        <ele>1705</ele>
        <time>2021-08-11T08:55:04.423Z</time>
      </trkpt>
      <trkpt lat="46.88567" lon="8.53968">
        <ele>1705</ele>
        <time>2021-08-11T08:55:05.423Z</time>
      </trkpt>
      <trkpt lat="46.88567" lon="8.53967">
        <ele>1706</ele>
        <time>2021-08-11T08:55:06.422Z</time>
      </trkpt>
      <trkpt lat="46.88567" lon="8.53966">
        <ele>1706</ele>
        <time>2021-08-11T08:55:07.423Z</time>
      </trkpt>
      <trkpt lat="46.88568" lon="8.53965">
        <ele>1706</ele>
        <time>2021-08-11T08:55:08.423Z</time>
      </trkpt>
      <trkpt lat="46.88568" lon="8.53964">
        <ele>1706</ele>
        <time>2021-08-11T08:55:09.422Z</time>
      </trkpt>
      <trkpt lat="46.88568" lon="8.53963">
        <ele>1706</ele>
        <time>2021-08-11T08:55:10.422Z</time>
      </trkpt>
      <trkpt lat="46.88568" lon="8.53963">
        <ele>1706</ele>
        <time>2021-08-11T08:55:11.423Z</time>
      </trkpt>
      <trkpt lat="46.88567" lon="8.53962">
        <ele>1706</ele>
        <time>2021-08-11T08:55:12.423Z</time>
      </trkpt>
      <trkpt lat="46.88567" lon="8.53962">
        <ele>1706</ele>
        <time>2021-08-11T08:55:13.423Z</time>
      </trkpt>
      <trkpt lat="46.88566" lon="8.53962">
        <ele>1706</ele>
        <time>2021-08-11T08:55:14.423Z</time>
      </trkpt>
      <trkpt lat="46.88566" lon="8.53961">
        <ele>1706</ele>
        <time>2021-08-11T08:55:15.422Z</time>
      </trkpt>
      <trkpt lat="46.88565" lon="8.53961">
        <ele>1706</ele>
        <time>2021-08-11T08:55:16.423Z</time>
      </trkpt>
      <trkpt lat="46.88565" lon="8.5396">
        <ele>1706</ele>
        <time>2021-08-11T08:55:17.422Z</time>
      </trkpt>
      <trkpt lat="46.88564" lon="8.5396">
        <ele>1707</ele>
        <time>2021-08-11T08:55:18.423Z</time>
      </trkpt>
      <trkpt lat="46.88564" lon="8.5396">
        <ele>1707</ele>
        <time>2021-08-11T08:55:19.423Z</time>
      </trkpt>
      <trkpt lat="46.88564" lon="8.53959">
        <ele>1707</ele>
        <time>2021-08-11T08:55:20.422Z</time>
      </trkpt>
      <trkpt lat="46.88563" lon="8.53959">
        <ele>1708</ele>
        <time>2021-08-11T08:55:21.423Z</time>
      </trkpt>
      <trkpt lat="46.88563" lon="8.53959">
        <ele>1708</ele>
        <time>2021-08-11T08:55:22.423Z</time>
      </trkpt>
      <trkpt lat="46.88562" lon="8.53959">
        <ele>1708</ele>
        <time>2021-08-11T08:55:23.422Z</time>
      </trkpt>
      <trkpt lat="46.88562" lon="8.53959">
        <ele>1708</ele>
        <time>2021-08-11T08:55:24.423Z</time>
      </trkpt>
      <trkpt lat="46.88561" lon="8.53959">
        <ele>1708</ele>
        <time>2021-08-11T08:55:25.423Z</time>
      </trkpt>
      <trkpt lat="46.88559" lon="8.53959">
        <ele>1712</ele>
        <time>2021-08-11T08:55:26.423Z</time>
      </trkpt>
      <trkpt lat="46.88559" lon="8.53959">
        <ele>1713</ele>
        <time>2021-08-11T08:55:27.423Z</time>
      </trkpt>
      <trkpt lat="46.88559" lon="8.53958">
        <ele>1714</ele>
        <time>2021-08-11T08:55:28.423Z</time>
      </trkpt>
      <trkpt lat="46.88559" lon="8.53957">
        <ele>1714</ele>
        <time>2021-08-11T08:55:29.422Z</time>
      </trkpt>
      <trkpt lat="46.88559" lon="8.53957">
        <ele>1714</ele>
        <time>2021-08-11T08:55:30.422Z</time>
      </trkpt>
      <trkpt lat="46.88559" lon="8.53957">
        <ele>1714</ele>
        <time>2021-08-11T08:55:31.423Z</time>
      </trkpt>
      <trkpt lat="46.8856" lon="8.53956">
        <ele>1713</ele>
        <time>2021-08-11T08:55:32.424Z</time>
      </trkpt>
      <trkpt lat="46.8856" lon="8.53956">
        <ele>1713</ele>
        <time>2021-08-11T08:55:33.424Z</time>
      </trkpt>
      <trkpt lat="46.8856" lon="8.53955">
        <ele>1713</ele>
        <time>2021-08-11T08:55:34.424Z</time>
      </trkpt>
      <trkpt lat="46.8856" lon="8.53954">
        <ele>1713</ele>
        <time>2021-08-11T08:55:35.423Z</time>
      </trkpt>
      <trkpt lat="46.8856" lon="8.53954">
        <ele>1713</ele>
        <time>2021-08-11T08:55:36.424Z</time>
      </trkpt>
      <trkpt lat="46.8856" lon="8.53954">
        <ele>1713</ele>
        <time>2021-08-11T08:55:37.424Z</time>
      </trkpt>
      <trkpt lat="46.8856" lon="8.53953">
        <ele>1713</ele>
        <time>2021-08-11T08:55:38.423Z</time>
      </trkpt>
      <trkpt lat="46.88561" lon="8.53953">
        <ele>1713</ele>
        <time>2021-08-11T08:55:39.424Z</time>
      </trkpt>
      <trkpt lat="46.88561" lon="8.53952">
        <ele>1714</ele>
        <time>2021-08-11T08:55:40.423Z</time>
      </trkpt>
      <trkpt lat="46.88562" lon="8.53952">
        <ele>1714</ele>
        <time>2021-08-11T08:55:41.424Z</time>
      </trkpt>
      <trkpt lat="46.88562" lon="8.53952">
        <ele>1714</ele>
        <time>2021-08-11T08:55:42.424Z</time>
      </trkpt>
      <trkpt lat="46.88562" lon="8.53951">
        <ele>1714</ele>
        <time>2021-08-11T08:55:43.424Z</time>
      </trkpt>
      <trkpt lat="46.88563" lon="8.5395">
        <ele>1714</ele>
        <time>2021-08-11T08:55:44.423Z</time>
      </trkpt>
      <trkpt lat="46.88563" lon="8.5395">
        <ele>1714</ele>
        <time>2021-08-11T08:55:45.424Z</time>
      </trkpt>
      <trkpt lat="46.88564" lon="8.53949">
        <ele>1715</ele>
        <time>2021-08-11T08:55:46.424Z</time>
      </trkpt>
      <trkpt lat="46.88564" lon="8.53949">
        <ele>1715</ele>
        <time>2021-08-11T08:55:47.424Z</time>
      </trkpt>
      <trkpt lat="46.88565" lon="8.53949">
        <ele>1715</ele>
        <time>2021-08-11T08:55:48.423Z</time>
      </trkpt>
      <trkpt lat="46.88565" lon="8.53948">
        <ele>1715</ele>
        <time>2021-08-11T08:55:49.423Z</time>
      </trkpt>
      <trkpt lat="46.88566" lon="8.53948">
        <ele>1715</ele>
        <time>2021-08-11T08:55:50.423Z</time>
      </trkpt>
      <trkpt lat="46.88566" lon="8.53948">
        <ele>1715</ele>
        <time>2021-08-11T08:55:51.424Z</time>
      </trkpt>
      <trkpt lat="46.88566" lon="8.53947">
        <ele>1715</ele>
        <time>2021-08-11T08:55:52.423Z</time>
      </trkpt>
      <trkpt lat="46.88567" lon="8.53947">
        <ele>1715</ele>
        <time>2021-08-11T08:55:53.423Z</time>
      </trkpt>
      <trkpt lat="46.88567" lon="8.53947">
        <ele>1715</ele>
        <time>2021-08-11T08:55:54.423Z</time>
      </trkpt>
      <trkpt lat="46.88567" lon="8.53946">
        <ele>1716</ele>
        <time>2021-08-11T08:55:55.424Z</time>
      </trkpt>
      <trkpt lat="46.88567" lon="8.53946">
        <ele>1716</ele>
        <time>2021-08-11T08:55:56.424Z</time>
      </trkpt>
      <trkpt lat="46.88568" lon="8.53945">
        <ele>1716</ele>
        <time>2021-08-11T08:55:57.423Z</time>
      </trkpt>
      <trkpt lat="46.88568" lon="8.53944">
        <ele>1716</ele>
        <time>2021-08-11T08:55:58.424Z</time>
      </trkpt>
      <trkpt lat="46.88568" lon="8.53944">
        <ele>1716</ele>
        <time>2021-08-11T08:55:59.424Z</time>
      </trkpt>
      <trkpt lat="46.88569" lon="8.53942">
        <ele>1717</ele>
        <time>2021-08-11T08:56:00.425Z</time>
      </trkpt>
      <trkpt lat="46.88569" lon="8.53941">
        <ele>1717</ele>
        <time>2021-08-11T08:56:01.425Z</time>
      </trkpt>
      <trkpt lat="46.8857" lon="8.53941">
        <ele>1717</ele>
        <time>2021-08-11T08:56:02.424Z</time>
      </trkpt>
      <trkpt lat="46.8857" lon="8.5394">
        <ele>1717</ele>
        <time>2021-08-11T08:56:03.425Z</time>
      </trkpt>
      <trkpt lat="46.8857" lon="8.53939">
        <ele>1717</ele>
        <time>2021-08-11T08:56:04.425Z</time>
      </trkpt>
      <trkpt lat="46.88571" lon="8.53939">
        <ele>1717</ele>
        <time>2021-08-11T08:56:05.425Z</time>
      </trkpt>
      <trkpt lat="46.88571" lon="8.53938">
        <ele>1717</ele>
        <time>2021-08-11T08:56:06.424Z</time>
      </trkpt>
      <trkpt lat="46.88571" lon="8.53938">
        <ele>1717</ele>
        <time>2021-08-11T08:56:07.425Z</time>
      </trkpt>
      <trkpt lat="46.88571" lon="8.53937">
        <ele>1717</ele>
        <time>2021-08-11T08:56:08.425Z</time>
      </trkpt>
      <trkpt lat="46.88572" lon="8.53937">
        <ele>1717</ele>
        <time>2021-08-11T08:56:09.425Z</time>
      </trkpt>
      <trkpt lat="46.88572" lon="8.53937">
        <ele>1717</ele>
        <time>2021-08-11T08:56:10.424Z</time>
      </trkpt>
      <trkpt lat="46.88572" lon="8.53936">
        <ele>1718</ele>
        <time>2021-08-11T08:56:11.424Z</time>
      </trkpt>
      <trkpt lat="46.88572" lon="8.53936">
        <ele>1718</ele>
        <time>2021-08-11T08:56:12.425Z</time>
      </trkpt>
      <trkpt lat="46.88573" lon="8.53935">
        <ele>1716</ele>
        <time>2021-08-11T08:56:13.426Z</time>
      </trkpt>
      <trkpt lat="46.88572" lon="8.53934">
        <ele>1716</ele>
        <time>2021-08-11T08:56:14.427Z</time>
      </trkpt>
      <trkpt lat="46.88571" lon="8.53933">
        <ele>1715</ele>
        <time>2021-08-11T08:56:15.427Z</time>
      </trkpt>
      <trkpt lat="46.88571" lon="8.53932">
        <ele>1715</ele>
        <time>2021-08-11T08:56:16.426Z</time>
      </trkpt>
      <trkpt lat="46.8857" lon="8.53931">
        <ele>1716</ele>
        <time>2021-08-11T08:56:17.426Z</time>
      </trkpt>
      <trkpt lat="46.88569" lon="8.53931">
        <ele>1715</ele>
        <time>2021-08-11T08:56:18.427Z</time>
      </trkpt>
      <trkpt lat="46.88569" lon="8.53931">
        <ele>1715</ele>
        <time>2021-08-11T08:56:19.427Z</time>
      </trkpt>
      <trkpt lat="46.88569" lon="8.5393">
        <ele>1715</ele>
        <time>2021-08-11T08:56:20.427Z</time>
      </trkpt>
      <trkpt lat="46.88569" lon="8.5393">
        <ele>1715</ele>
        <time>2021-08-11T08:56:21.426Z</time>
      </trkpt>
      <trkpt lat="46.8857" lon="8.5393">
        <ele>1715</ele>
        <time>2021-08-11T08:56:22.427Z</time>
      </trkpt>
      <trkpt lat="46.8857" lon="8.53929">
        <ele>1715</ele>
        <time>2021-08-11T08:56:23.427Z</time>
      </trkpt>
      <trkpt lat="46.8857" lon="8.53929">
        <ele>1715</ele>
        <time>2021-08-11T08:56:24.427Z</time>
      </trkpt>
      <trkpt lat="46.8857" lon="8.53928">
        <ele>1715</ele>
        <time>2021-08-11T08:56:25.426Z</time>
      </trkpt>
      <trkpt lat="46.88569" lon="8.53927">
        <ele>1716</ele>
        <time>2021-08-11T08:56:26.426Z</time>
      </trkpt>
      <trkpt lat="46.88569" lon="8.53926">
        <ele>1716</ele>
        <time>2021-08-11T08:56:27.427Z</time>
      </trkpt>
      <trkpt lat="46.88568" lon="8.53926">
        <ele>1716</ele>
        <time>2021-08-11T08:56:28.426Z</time>
      </trkpt>
      <trkpt lat="46.88567" lon="8.53925">
        <ele>1717</ele>
        <time>2021-08-11T08:56:29.426Z</time>
      </trkpt>
      <trkpt lat="46.88567" lon="8.53925">
        <ele>1718</ele>
        <time>2021-08-11T08:56:30.427Z</time>
      </trkpt>
      <trkpt lat="46.88565" lon="8.53924">
        <ele>1721</ele>
        <time>2021-08-11T08:56:31.427Z</time>
      </trkpt>
      <trkpt lat="46.88565" lon="8.53924">
        <ele>1721</ele>
        <time>2021-08-11T08:56:32.426Z</time>
      </trkpt>
      <trkpt lat="46.88564" lon="8.53924">
        <ele>1722</ele>
        <time>2021-08-11T08:56:33.428Z</time>
      </trkpt>
      <trkpt lat="46.88563" lon="8.53924">
        <ele>1722</ele>
        <time>2021-08-11T08:56:34.429Z</time>
      </trkpt>
      <trkpt lat="46.88563" lon="8.53924">
        <ele>1722</ele>
        <time>2021-08-11T08:56:35.428Z</time>
      </trkpt>
      <trkpt lat="46.88562" lon="8.53923">
        <ele>1720</ele>
        <time>2021-08-11T08:56:36.428Z</time>
      </trkpt>
      <trkpt lat="46.88562" lon="8.53923">
        <ele>1719</ele>
        <time>2021-08-11T08:56:37.428Z</time>
      </trkpt>
      <trkpt lat="46.88563" lon="8.53922">
        <ele>1719</ele>
        <time>2021-08-11T08:56:38.428Z</time>
      </trkpt>
      <trkpt lat="46.88563" lon="8.53921">
        <ele>1718</ele>
        <time>2021-08-11T08:56:39.428Z</time>
      </trkpt>
      <trkpt lat="46.88563" lon="8.53921">
        <ele>1718</ele>
        <time>2021-08-11T08:56:40.429Z</time>
      </trkpt>
      <trkpt lat="46.88563" lon="8.5392">
        <ele>1719</ele>
        <time>2021-08-11T08:56:41.428Z</time>
      </trkpt>
      <trkpt lat="46.88563" lon="8.5392">
        <ele>1719</ele>
        <time>2021-08-11T08:56:42.429Z</time>
      </trkpt>
      <trkpt lat="46.88562" lon="8.5392">
        <ele>1720</ele>
        <time>2021-08-11T08:56:43.429Z</time>
      </trkpt>
      <trkpt lat="46.88562" lon="8.5392">
        <ele>1720</ele>
        <time>2021-08-11T08:56:44.429Z</time>
      </trkpt>
      <trkpt lat="46.88562" lon="8.53921">
        <ele>1720</ele>
        <time>2021-08-11T08:56:45.428Z</time>
      </trkpt>
      <trkpt lat="46.88562" lon="8.53921">
        <ele>1721</ele>
        <time>2021-08-11T08:56:46.429Z</time>
      </trkpt>
      <trkpt lat="46.88562" lon="8.53921">
        <ele>1721</ele>
        <time>2021-08-11T08:56:47.429Z</time>
      </trkpt>
      <trkpt lat="46.88561" lon="8.53922">
        <ele>1721</ele>
        <time>2021-08-11T08:56:48.429Z</time>
      </trkpt>
      <trkpt lat="46.88561" lon="8.53921">
        <ele>1721</ele>
        <time>2021-08-11T08:56:49.429Z</time>
      </trkpt>
      <trkpt lat="46.88561" lon="8.53921">
        <ele>1722</ele>
        <time>2021-08-11T08:56:50.429Z</time>
      </trkpt>
      <trkpt lat="46.88561" lon="8.5392">
        <ele>1722</ele>
        <time>2021-08-11T08:56:51.428Z</time>
      </trkpt>
      <trkpt lat="46.8856" lon="8.53919">
        <ele>1722</ele>
        <time>2021-08-11T08:56:52.429Z</time>
      </trkpt>
      <trkpt lat="46.8856" lon="8.53919">
        <ele>1723</ele>
        <time>2021-08-11T08:56:53.429Z</time>
      </trkpt>
      <trkpt lat="46.8856" lon="8.53919">
        <ele>1723</ele>
        <time>2021-08-11T08:56:54.429Z</time>
      </trkpt>
      <trkpt lat="46.88559" lon="8.53918">
        <ele>1723</ele>
        <time>2021-08-11T08:56:55.429Z</time>
      </trkpt>
      <trkpt lat="46.88559" lon="8.53918">
        <ele>1724</ele>
        <time>2021-08-11T08:56:56.428Z</time>
      </trkpt>
      <trkpt lat="46.88558" lon="8.53918">
        <ele>1724</ele>
        <time>2021-08-11T08:56:57.429Z</time>
      </trkpt>
      <trkpt lat="46.88557" lon="8.53918">
        <ele>1724</ele>
        <time>2021-08-11T08:56:58.429Z</time>
      </trkpt>
      <trkpt lat="46.88557" lon="8.53917">
        <ele>1724</ele>
        <time>2021-08-11T08:56:59.429Z</time>
      </trkpt>
      <trkpt lat="46.88557" lon="8.53917">
        <ele>1724</ele>
        <time>2021-08-11T08:57:00.429Z</time>
      </trkpt>
      <trkpt lat="46.88557" lon="8.53916">
        <ele>1724</ele>
        <time>2021-08-11T08:57:01.428Z</time>
      </trkpt>
      <trkpt lat="46.88556" lon="8.53916">
        <ele>1724</ele>
        <time>2021-08-11T08:57:02.429Z</time>
      </trkpt>
      <trkpt lat="46.88556" lon="8.53917">
        <ele>1724</ele>
        <time>2021-08-11T08:57:03.429Z</time>
      </trkpt>
      <trkpt lat="46.88555" lon="8.53916">
        <ele>1728</ele>
        <time>2021-08-11T08:57:04.429Z</time>
      </trkpt>
      <trkpt lat="46.88555" lon="8.53916">
        <ele>1728</ele>
        <time>2021-08-11T08:57:05.429Z</time>
      </trkpt>
      <trkpt lat="46.88554" lon="8.53915">
        <ele>1728</ele>
        <time>2021-08-11T08:57:06.428Z</time>
      </trkpt>
      <trkpt lat="46.88554" lon="8.53916">
        <ele>1729</ele>
        <time>2021-08-11T08:57:07.428Z</time>
      </trkpt>
      <trkpt lat="46.88554" lon="8.53917">
        <ele>1729</ele>
        <time>2021-08-11T08:57:08.428Z</time>
      </trkpt>
      <trkpt lat="46.88554" lon="8.53916">
        <ele>1730</ele>
        <time>2021-08-11T08:57:09.429Z</time>
      </trkpt>
      <trkpt lat="46.88554" lon="8.53916">
        <ele>1730</ele>
        <time>2021-08-11T08:57:10.429Z</time>
      </trkpt>
      <trkpt lat="46.88553" lon="8.53915">
        <ele>1730</ele>
        <time>2021-08-11T08:57:11.428Z</time>
      </trkpt>
      <trkpt lat="46.88553" lon="8.53915">
        <ele>1731</ele>
        <time>2021-08-11T08:57:12.430Z</time>
      </trkpt>
      <trkpt lat="46.88553" lon="8.53915">
        <ele>1731</ele>
        <time>2021-08-11T08:57:13.430Z</time>
      </trkpt>
      <trkpt lat="46.88553" lon="8.53915">
        <ele>1731</ele>
        <time>2021-08-11T08:57:14.430Z</time>
      </trkpt>
      <trkpt lat="46.88553" lon="8.53915">
        <ele>1731</ele>
        <time>2021-08-11T08:57:15.430Z</time>
      </trkpt>
      <trkpt lat="46.88552" lon="8.53915">
        <ele>1730</ele>
        <time>2021-08-11T08:57:16.430Z</time>
      </trkpt>
      <trkpt lat="46.88552" lon="8.53915">
        <ele>1730</ele>
        <time>2021-08-11T08:57:17.430Z</time>
      </trkpt>
      <trkpt lat="46.88551" lon="8.53913">
        <ele>1729</ele>
        <time>2021-08-11T08:57:18.429Z</time>
      </trkpt>
      <trkpt lat="46.88551" lon="8.53913">
        <ele>1729</ele>
        <time>2021-08-11T08:57:19.430Z</time>
      </trkpt>
      <trkpt lat="46.8855" lon="8.53913">
        <ele>1729</ele>
        <time>2021-08-11T08:57:20.429Z</time>
      </trkpt>
      <trkpt lat="46.88549" lon="8.53913">
        <ele>1731</ele>
        <time>2021-08-11T08:57:21.429Z</time>
      </trkpt>
      <trkpt lat="46.88548" lon="8.53913">
        <ele>1731</ele>
        <time>2021-08-11T08:57:22.430Z</time>
      </trkpt>
      <trkpt lat="46.88548" lon="8.53913">
        <ele>1732</ele>
        <time>2021-08-11T08:57:23.429Z</time>
      </trkpt>
      <trkpt lat="46.88547" lon="8.53913">
        <ele>1733</ele>
        <time>2021-08-11T08:57:24.430Z</time>
      </trkpt>
      <trkpt lat="46.88547" lon="8.53913">
        <ele>1733</ele>
        <time>2021-08-11T08:57:25.430Z</time>
      </trkpt>
      <trkpt lat="46.88546" lon="8.53914">
        <ele>1737</ele>
        <time>2021-08-11T08:57:26.430Z</time>
      </trkpt>
      <trkpt lat="46.88547" lon="8.53914">
        <ele>1737</ele>
        <time>2021-08-11T08:57:27.430Z</time>
      </trkpt>
      <trkpt lat="46.88547" lon="8.53913">
        <ele>1737</ele>
        <time>2021-08-11T08:57:28.429Z</time>
      </trkpt>
      <trkpt lat="46.88547" lon="8.53913">
        <ele>1737</ele>
        <time>2021-08-11T08:57:29.431Z</time>
      </trkpt>
      <trkpt lat="46.88547" lon="8.53912">
        <ele>1737</ele>
        <time>2021-08-11T08:57:30.430Z</time>
      </trkpt>
      <trkpt lat="46.88548" lon="8.53911">
        <ele>1737</ele>
        <time>2021-08-11T08:57:31.430Z</time>
      </trkpt>
      <trkpt lat="46.88549" lon="8.53911">
        <ele>1737</ele>
        <time>2021-08-11T08:57:32.431Z</time>
      </trkpt>
      <trkpt lat="46.8855" lon="8.53911">
        <ele>1737</ele>
        <time>2021-08-11T08:57:33.430Z</time>
      </trkpt>
      <trkpt lat="46.8855" lon="8.5391">
        <ele>1737</ele>
        <time>2021-08-11T08:57:34.431Z</time>
      </trkpt>
      <trkpt lat="46.8855" lon="8.5391">
        <ele>1737</ele>
        <time>2021-08-11T08:57:35.431Z</time>
      </trkpt>
      <trkpt lat="46.8855" lon="8.5391">
        <ele>1737</ele>
        <time>2021-08-11T08:57:36.431Z</time>
      </trkpt>
      <trkpt lat="46.8855" lon="8.53909">
        <ele>1737</ele>
        <time>2021-08-11T08:57:37.431Z</time>
      </trkpt>
      <trkpt lat="46.88551" lon="8.5391">
        <ele>1737</ele>
        <time>2021-08-11T08:57:38.431Z</time>
      </trkpt>
      <trkpt lat="46.88551" lon="8.5391">
        <ele>1738</ele>
        <time>2021-08-11T08:57:39.431Z</time>
      </trkpt>
      <trkpt lat="46.88551" lon="8.5391">
        <ele>1738</ele>
        <time>2021-08-11T08:57:40.430Z</time>
      </trkpt>
      <trkpt lat="46.88551" lon="8.5391">
        <ele>1738</ele>
        <time>2021-08-11T08:57:41.431Z</time>
      </trkpt>
      <trkpt lat="46.88551" lon="8.53909">
        <ele>1738</ele>
        <time>2021-08-11T08:57:42.430Z</time>
      </trkpt>
      <trkpt lat="46.88553" lon="8.53909">
        <ele>1737</ele>
        <time>2021-08-11T08:57:43.430Z</time>
      </trkpt>
      <trkpt lat="46.88553" lon="8.53908">
        <ele>1737</ele>
        <time>2021-08-11T08:57:44.430Z</time>
      </trkpt>
      <trkpt lat="46.88554" lon="8.53907">
        <ele>1737</ele>
        <time>2021-08-11T08:57:45.430Z</time>
      </trkpt>
      <trkpt lat="46.88554" lon="8.53907">
        <ele>1737</ele>
        <time>2021-08-11T08:57:46.430Z</time>
      </trkpt>
      <trkpt lat="46.88554" lon="8.53906">
        <ele>1737</ele>
        <time>2021-08-11T08:57:47.430Z</time>
      </trkpt>
      <trkpt lat="46.88554" lon="8.53906">
        <ele>1738</ele>
        <time>2021-08-11T08:57:48.430Z</time>
      </trkpt>
      <trkpt lat="46.88555" lon="8.53905">
        <ele>1738</ele>
        <time>2021-08-11T08:57:49.430Z</time>
      </trkpt>
      <trkpt lat="46.88554" lon="8.53906">
        <ele>1738</ele>
        <time>2021-08-11T08:57:50.430Z</time>
      </trkpt>
      <trkpt lat="46.88554" lon="8.53905">
        <ele>1738</ele>
        <time>2021-08-11T08:57:51.431Z</time>
      </trkpt>
      <trkpt lat="46.88554" lon="8.53905">
        <ele>1738</ele>
        <time>2021-08-11T08:57:52.431Z</time>
      </trkpt>
      <trkpt lat="46.88555" lon="8.53905">
        <ele>1738</ele>
        <time>2021-08-11T08:57:53.431Z</time>
      </trkpt>
      <trkpt lat="46.88556" lon="8.53904">
        <ele>1738</ele>
        <time>2021-08-11T08:57:54.431Z</time>
      </trkpt>
      <trkpt lat="46.88556" lon="8.53904">
        <ele>1738</ele>
        <time>2021-08-11T08:57:55.431Z</time>
      </trkpt>
      <trkpt lat="46.88557" lon="8.53904">
        <ele>1737</ele>
        <time>2021-08-11T08:57:56.431Z</time>
      </trkpt>
      <trkpt lat="46.88557" lon="8.53903">
        <ele>1737</ele>
        <time>2021-08-11T08:57:57.431Z</time>
      </trkpt>
      <trkpt lat="46.88558" lon="8.53901">
        <ele>1737</ele>
        <time>2021-08-11T08:57:58.430Z</time>
      </trkpt>
      <trkpt lat="46.88559" lon="8.53901">
        <ele>1736</ele>
        <time>2021-08-11T08:57:59.431Z</time>
      </trkpt>
      <trkpt lat="46.88559" lon="8.539">
        <ele>1736</ele>
        <time>2021-08-11T08:58:00.431Z</time>
      </trkpt>
      <trkpt lat="46.88559" lon="8.53899">
        <ele>1737</ele>
        <time>2021-08-11T08:58:01.431Z</time>
      </trkpt>
      <trkpt lat="46.8856" lon="8.53899">
        <ele>1737</ele>
        <time>2021-08-11T08:58:02.430Z</time>
      </trkpt>
      <trkpt lat="46.88561" lon="8.53898">
        <ele>1737</ele>
        <time>2021-08-11T08:58:03.431Z</time>
      </trkpt>
      <trkpt lat="46.88562" lon="8.53897">
        <ele>1737</ele>
        <time>2021-08-11T08:58:04.430Z</time>
      </trkpt>
      <trkpt lat="46.88562" lon="8.53897">
        <ele>1737</ele>
        <time>2021-08-11T08:58:05.430Z</time>
      </trkpt>
      <trkpt lat="46.88563" lon="8.53897">
        <ele>1737</ele>
        <time>2021-08-11T08:58:06.431Z</time>
      </trkpt>
      <trkpt lat="46.88563" lon="8.53896">
        <ele>1738</ele>
        <time>2021-08-11T08:58:07.431Z</time>
      </trkpt>
      <trkpt lat="46.88563" lon="8.53896">
        <ele>1738</ele>
        <time>2021-08-11T08:58:08.431Z</time>
      </trkpt>
      <trkpt lat="46.88563" lon="8.53895">
        <ele>1738</ele>
        <time>2021-08-11T08:58:09.430Z</time>
      </trkpt>
      <trkpt lat="46.88563" lon="8.53894">
        <ele>1738</ele>
        <time>2021-08-11T08:58:10.430Z</time>
      </trkpt>
      <trkpt lat="46.88563" lon="8.53893">
        <ele>1738</ele>
        <time>2021-08-11T08:58:11.431Z</time>
      </trkpt>
      <trkpt lat="46.88563" lon="8.53892">
        <ele>1737</ele>
        <time>2021-08-11T08:58:12.430Z</time>
      </trkpt>
      <trkpt lat="46.88564" lon="8.53892">
        <ele>1737</ele>
        <time>2021-08-11T08:58:13.430Z</time>
      </trkpt>
      <trkpt lat="46.88564" lon="8.53891">
        <ele>1736</ele>
        <time>2021-08-11T08:58:14.431Z</time>
      </trkpt>
      <trkpt lat="46.88565" lon="8.5389">
        <ele>1736</ele>
        <time>2021-08-11T08:58:15.431Z</time>
      </trkpt>
      <trkpt lat="46.88565" lon="8.53889">
        <ele>1736</ele>
        <time>2021-08-11T08:58:16.430Z</time>
      </trkpt>
      <trkpt lat="46.88565" lon="8.53888">
        <ele>1736</ele>
        <time>2021-08-11T08:58:17.431Z</time>
      </trkpt>
      <trkpt lat="46.88566" lon="8.53887">
        <ele>1737</ele>
        <time>2021-08-11T08:58:18.430Z</time>
      </trkpt>
      <trkpt lat="46.88565" lon="8.53886">
        <ele>1741</ele>
        <time>2021-08-11T08:58:19.430Z</time>
      </trkpt>
      <trkpt lat="46.88563" lon="8.53886">
        <ele>1738</ele>
        <time>2021-08-11T08:58:20.431Z</time>
      </trkpt>
      <trkpt lat="46.88563" lon="8.53885">
        <ele>1738</ele>
        <time>2021-08-11T08:58:21.431Z</time>
      </trkpt>
      <trkpt lat="46.88564" lon="8.53883">
        <ele>1738</ele>
        <time>2021-08-11T08:58:22.430Z</time>
      </trkpt>
      <trkpt lat="46.88564" lon="8.53883">
        <ele>1738</ele>
        <time>2021-08-11T08:58:23.430Z</time>
      </trkpt>
      <trkpt lat="46.88565" lon="8.53882">
        <ele>1738</ele>
        <time>2021-08-11T08:58:24.430Z</time>
      </trkpt>
      <trkpt lat="46.88565" lon="8.53882">
        <ele>1738</ele>
        <time>2021-08-11T08:58:25.431Z</time>
      </trkpt>
      <trkpt lat="46.88565" lon="8.53881">
        <ele>1738</ele>
        <time>2021-08-11T08:58:26.430Z</time>
      </trkpt>
      <trkpt lat="46.88566" lon="8.5388">
        <ele>1737</ele>
        <time>2021-08-11T08:58:27.431Z</time>
      </trkpt>
      <trkpt lat="46.88566" lon="8.5388">
        <ele>1737</ele>
        <time>2021-08-11T08:58:28.431Z</time>
      </trkpt>
      <trkpt lat="46.88567" lon="8.53879">
        <ele>1737</ele>
        <time>2021-08-11T08:58:29.431Z</time>
      </trkpt>
      <trkpt lat="46.88567" lon="8.53878">
        <ele>1736</ele>
        <time>2021-08-11T08:58:30.431Z</time>
      </trkpt>
      <trkpt lat="46.88567" lon="8.53878">
        <ele>1736</ele>
        <time>2021-08-11T08:58:31.430Z</time>
      </trkpt>
      <trkpt lat="46.88568" lon="8.53878">
        <ele>1736</ele>
        <time>2021-08-11T08:58:32.430Z</time>
      </trkpt>
      <trkpt lat="46.88568" lon="8.53877">
        <ele>1736</ele>
        <time>2021-08-11T08:58:33.431Z</time>
      </trkpt>
      <trkpt lat="46.88568" lon="8.53877">
        <ele>1735</ele>
        <time>2021-08-11T08:58:34.431Z</time>
      </trkpt>
      <trkpt lat="46.88568" lon="8.53876">
        <ele>1735</ele>
        <time>2021-08-11T08:58:35.431Z</time>
      </trkpt>
      <trkpt lat="46.88568" lon="8.53876">
        <ele>1734</ele>
        <time>2021-08-11T08:58:36.431Z</time>
      </trkpt>
      <trkpt lat="46.88568" lon="8.53875">
        <ele>1734</ele>
        <time>2021-08-11T08:58:37.430Z</time>
      </trkpt>
      <trkpt lat="46.88567" lon="8.53875">
        <ele>1734</ele>
        <time>2021-08-11T08:58:38.431Z</time>
      </trkpt>
      <trkpt lat="46.88568" lon="8.53873">
        <ele>1734</ele>
        <time>2021-08-11T08:58:39.431Z</time>
      </trkpt>
      <trkpt lat="46.88568" lon="8.53873">
        <ele>1734</ele>
        <time>2021-08-11T08:58:40.431Z</time>
      </trkpt>
      <trkpt lat="46.88568" lon="8.53872">
        <ele>1734</ele>
        <time>2021-08-11T08:58:41.431Z</time>
      </trkpt>
      <trkpt lat="46.88568" lon="8.53871">
        <ele>1734</ele>
        <time>2021-08-11T08:58:42.430Z</time>
      </trkpt>
      <trkpt lat="46.88568" lon="8.5387">
        <ele>1734</ele>
        <time>2021-08-11T08:58:43.430Z</time>
      </trkpt>
      <trkpt lat="46.88569" lon="8.53869">
        <ele>1733</ele>
        <time>2021-08-11T08:58:44.431Z</time>
      </trkpt>
      <trkpt lat="46.8857" lon="8.53868">
        <ele>1733</ele>
        <time>2021-08-11T08:58:45.431Z</time>
      </trkpt>
      <trkpt lat="46.88571" lon="8.53868">
        <ele>1733</ele>
        <time>2021-08-11T08:58:46.431Z</time>
      </trkpt>
      <trkpt lat="46.88572" lon="8.53868">
        <ele>1733</ele>
        <time>2021-08-11T08:58:47.431Z</time>
      </trkpt>
      <trkpt lat="46.88571" lon="8.53867">
        <ele>1733</ele>
        <time>2021-08-11T08:58:48.430Z</time>
      </trkpt>
      <trkpt lat="46.88571" lon="8.53866">
        <ele>1734</ele>
        <time>2021-08-11T08:58:49.431Z</time>
      </trkpt>
      <trkpt lat="46.88571" lon="8.53865">
        <ele>1734</ele>
        <time>2021-08-11T08:58:50.431Z</time>
      </trkpt>
      <trkpt lat="46.88572" lon="8.53865">
        <ele>1734</ele>
        <time>2021-08-11T08:58:51.431Z</time>
      </trkpt>
      <trkpt lat="46.88572" lon="8.53865">
        <ele>1734</ele>
        <time>2021-08-11T08:58:52.431Z</time>
      </trkpt>
      <trkpt lat="46.88573" lon="8.53865">
        <ele>1734</ele>
        <time>2021-08-11T08:58:53.430Z</time>
      </trkpt>
      <trkpt lat="46.88574" lon="8.53864">
        <ele>1733</ele>
        <time>2021-08-11T08:58:54.430Z</time>
      </trkpt>
      <trkpt lat="46.88574" lon="8.53863">
        <ele>1733</ele>
        <time>2021-08-11T08:58:55.431Z</time>
      </trkpt>
      <trkpt lat="46.88574" lon="8.53859">
        <ele>1729</ele>
        <time>2021-08-11T08:58:56.431Z</time>
      </trkpt>
      <trkpt lat="46.88575" lon="8.53859">
        <ele>1729</ele>
        <time>2021-08-11T08:58:57.431Z</time>
      </trkpt>
      <trkpt lat="46.88575" lon="8.53858">
        <ele>1729</ele>
        <time>2021-08-11T08:58:58.430Z</time>
      </trkpt>
      <trkpt lat="46.88576" lon="8.53858">
        <ele>1729</ele>
        <time>2021-08-11T08:58:59.430Z</time>
      </trkpt>
      <trkpt lat="46.88577" lon="8.53858">
        <ele>1729</ele>
        <time>2021-08-11T08:59:00.431Z</time>
      </trkpt>
      <trkpt lat="46.88577" lon="8.53858">
        <ele>1729</ele>
        <time>2021-08-11T08:59:01.430Z</time>
      </trkpt>
      <trkpt lat="46.88577" lon="8.53857">
        <ele>1730</ele>
        <time>2021-08-11T08:59:02.431Z</time>
      </trkpt>
      <trkpt lat="46.88578" lon="8.53857">
        <ele>1730</ele>
        <time>2021-08-11T08:59:03.431Z</time>
      </trkpt>
      <trkpt lat="46.88578" lon="8.53857">
        <ele>1731</ele>
        <time>2021-08-11T08:59:04.431Z</time>
      </trkpt>
      <trkpt lat="46.88579" lon="8.53856">
        <ele>1732</ele>
        <time>2021-08-11T08:59:05.431Z</time>
      </trkpt>
      <trkpt lat="46.8858" lon="8.53856">
        <ele>1733</ele>
        <time>2021-08-11T08:59:06.431Z</time>
      </trkpt>
      <trkpt lat="46.88581" lon="8.53856">
        <ele>1733</ele>
        <time>2021-08-11T08:59:07.431Z</time>
      </trkpt>
      <trkpt lat="46.88582" lon="8.53855">
        <ele>1734</ele>
        <time>2021-08-11T08:59:08.430Z</time>
      </trkpt>
      <trkpt lat="46.88582" lon="8.53855">
        <ele>1735</ele>
        <time>2021-08-11T08:59:09.431Z</time>
      </trkpt>
      <trkpt lat="46.88583" lon="8.53854">
        <ele>1735</ele>
        <time>2021-08-11T08:59:10.431Z</time>
      </trkpt>
      <trkpt lat="46.88584" lon="8.53854">
        <ele>1736</ele>
        <time>2021-08-11T08:59:11.430Z</time>
      </trkpt>
      <trkpt lat="46.88584" lon="8.53854">
        <ele>1736</ele>
        <time>2021-08-11T08:59:12.431Z</time>
      </trkpt>
      <trkpt lat="46.88585" lon="8.53854">
        <ele>1737</ele>
        <time>2021-08-11T08:59:13.431Z</time>
      </trkpt>
      <trkpt lat="46.88585" lon="8.53853">
        <ele>1737</ele>
        <time>2021-08-11T08:59:14.431Z</time>
      </trkpt>
      <trkpt lat="46.88586" lon="8.53853">
        <ele>1738</ele>
        <time>2021-08-11T08:59:15.431Z</time>
      </trkpt>
      <trkpt lat="46.88587" lon="8.53853">
        <ele>1738</ele>
        <time>2021-08-11T08:59:16.431Z</time>
      </trkpt>
      <trkpt lat="46.88588" lon="8.53853">
        <ele>1739</ele>
        <time>2021-08-11T08:59:17.430Z</time>
      </trkpt>
      <trkpt lat="46.8859" lon="8.53853">
        <ele>1740</ele>
        <time>2021-08-11T08:59:18.431Z</time>
      </trkpt>
      <trkpt lat="46.88591" lon="8.53852">
        <ele>1740</ele>
        <time>2021-08-11T08:59:19.431Z</time>
      </trkpt>
      <trkpt lat="46.88591" lon="8.53851">
        <ele>1741</ele>
        <time>2021-08-11T08:59:20.430Z</time>
      </trkpt>
      <trkpt lat="46.88592" lon="8.5385">
        <ele>1741</ele>
        <time>2021-08-11T08:59:21.431Z</time>
      </trkpt>
      <trkpt lat="46.88593" lon="8.53849">
        <ele>1742</ele>
        <time>2021-08-11T08:59:22.431Z</time>
      </trkpt>
      <trkpt lat="46.88594" lon="8.53848">
        <ele>1742</ele>
        <time>2021-08-11T08:59:23.431Z</time>
      </trkpt>
      <trkpt lat="46.88594" lon="8.53848">
        <ele>1743</ele>
        <time>2021-08-11T08:59:24.430Z</time>
      </trkpt>
      <trkpt lat="46.88595" lon="8.53847">
        <ele>1743</ele>
        <time>2021-08-11T08:59:25.431Z</time>
      </trkpt>
      <trkpt lat="46.88595" lon="8.53846">
        <ele>1743</ele>
        <time>2021-08-11T08:59:26.431Z</time>
      </trkpt>
      <trkpt lat="46.88596" lon="8.53845">
        <ele>1743</ele>
        <time>2021-08-11T08:59:27.430Z</time>
      </trkpt>
      <trkpt lat="46.88597" lon="8.53844">
        <ele>1743</ele>
        <time>2021-08-11T08:59:28.431Z</time>
      </trkpt>
      <trkpt lat="46.88597" lon="8.53844">
        <ele>1743</ele>
        <time>2021-08-11T08:59:29.431Z</time>
      </trkpt>
      <trkpt lat="46.88598" lon="8.53843">
        <ele>1743</ele>
        <time>2021-08-11T08:59:30.430Z</time>
      </trkpt>
      <trkpt lat="46.88599" lon="8.53843">
        <ele>1743</ele>
        <time>2021-08-11T08:59:31.431Z</time>
      </trkpt>
      <trkpt lat="46.88599" lon="8.53843">
        <ele>1743</ele>
        <time>2021-08-11T08:59:32.431Z</time>
      </trkpt>
      <trkpt lat="46.886" lon="8.53843">
        <ele>1742</ele>
        <time>2021-08-11T08:59:33.431Z</time>
      </trkpt>
      <trkpt lat="46.886" lon="8.53843">
        <ele>1743</ele>
        <time>2021-08-11T08:59:34.430Z</time>
      </trkpt>
      <trkpt lat="46.88601" lon="8.53843">
        <ele>1743</ele>
        <time>2021-08-11T08:59:35.431Z</time>
      </trkpt>
      <trkpt lat="46.88601" lon="8.53844">
        <ele>1743</ele>
        <time>2021-08-11T08:59:36.431Z</time>
      </trkpt>
      <trkpt lat="46.88601" lon="8.53843">
        <ele>1744</ele>
        <time>2021-08-11T08:59:37.430Z</time>
      </trkpt>
      <trkpt lat="46.88601" lon="8.53843">
        <ele>1744</ele>
        <time>2021-08-11T08:59:38.431Z</time>
      </trkpt>
      <trkpt lat="46.88602" lon="8.53843">
        <ele>1744</ele>
        <time>2021-08-11T08:59:39.431Z</time>
      </trkpt>
      <trkpt lat="46.88602" lon="8.53843">
        <ele>1744</ele>
        <time>2021-08-11T08:59:40.430Z</time>
      </trkpt>
      <trkpt lat="46.88603" lon="8.53842">
        <ele>1744</ele>
        <time>2021-08-11T08:59:41.431Z</time>
      </trkpt>
      <trkpt lat="46.88603" lon="8.53842">
        <ele>1743</ele>
        <time>2021-08-11T08:59:42.431Z</time>
      </trkpt>
      <trkpt lat="46.88603" lon="8.53842">
        <ele>1743</ele>
        <time>2021-08-11T08:59:43.430Z</time>
      </trkpt>
      <trkpt lat="46.88601" lon="8.53843">
        <ele>1744</ele>
        <time>2021-08-11T08:59:44.430Z</time>
      </trkpt>
      <trkpt lat="46.88602" lon="8.53843">
        <ele>1745</ele>
        <time>2021-08-11T08:59:45.430Z</time>
      </trkpt>
      <trkpt lat="46.88602" lon="8.53842">
        <ele>1746</ele>
        <time>2021-08-11T08:59:46.430Z</time>
      </trkpt>
      <trkpt lat="46.88603" lon="8.53841">
        <ele>1747</ele>
        <time>2021-08-11T08:59:47.430Z</time>
      </trkpt>
      <trkpt lat="46.88603" lon="8.53841">
        <ele>1747</ele>
        <time>2021-08-11T08:59:48.431Z</time>
      </trkpt>
      <trkpt lat="46.88603" lon="8.53841">
        <ele>1747</ele>
        <time>2021-08-11T08:59:49.431Z</time>
      </trkpt>
      <trkpt lat="46.88604" lon="8.5384">
        <ele>1747</ele>
        <time>2021-08-11T08:59:50.430Z</time>
      </trkpt>
      <trkpt lat="46.88604" lon="8.5384">
        <ele>1747</ele>
        <time>2021-08-11T08:59:51.431Z</time>
      </trkpt>
      <trkpt lat="46.88604" lon="8.53838">
        <ele>1747</ele>
        <time>2021-08-11T08:59:52.431Z</time>
      </trkpt>
      <trkpt lat="46.88604" lon="8.53838">
        <ele>1747</ele>
        <time>2021-08-11T08:59:53.430Z</time>
      </trkpt>
      <trkpt lat="46.88604" lon="8.53837">
        <ele>1746</ele>
        <time>2021-08-11T08:59:54.431Z</time>
      </trkpt>
      <trkpt lat="46.88605" lon="8.53837">
        <ele>1746</ele>
        <time>2021-08-11T08:59:55.431Z</time>
      </trkpt>
      <trkpt lat="46.88605" lon="8.53836">
        <ele>1746</ele>
        <time>2021-08-11T08:59:56.430Z</time>
      </trkpt>
      <trkpt lat="46.88606" lon="8.53836">
        <ele>1746</ele>
        <time>2021-08-11T08:59:57.431Z</time>
      </trkpt>
      <trkpt lat="46.88606" lon="8.53835">
        <ele>1746</ele>
        <time>2021-08-11T08:59:58.431Z</time>
      </trkpt>
      <trkpt lat="46.88607" lon="8.53835">
        <ele>1747</ele>
        <time>2021-08-11T08:59:59.430Z</time>
      </trkpt>
      <trkpt lat="46.88607" lon="8.53834">
        <ele>1747</ele>
        <time>2021-08-11T09:00:00.431Z</time>
      </trkpt>
      <trkpt lat="46.88608" lon="8.53834">
        <ele>1747</ele>
        <time>2021-08-11T09:00:01.430Z</time>
      </trkpt>
      <trkpt lat="46.88608" lon="8.53834">
        <ele>1748</ele>
        <time>2021-08-11T09:00:02.430Z</time>
      </trkpt>
      <trkpt lat="46.88609" lon="8.53833">
        <ele>1748</ele>
        <time>2021-08-11T09:00:03.431Z</time>
      </trkpt>
      <trkpt lat="46.88609" lon="8.53832">
        <ele>1749</ele>
        <time>2021-08-11T09:00:04.431Z</time>
      </trkpt>
      <trkpt lat="46.8861" lon="8.53831">
        <ele>1749</ele>
        <time>2021-08-11T09:00:05.430Z</time>
      </trkpt>
      <trkpt lat="46.8861" lon="8.53829">
        <ele>1749</ele>
        <time>2021-08-11T09:00:06.431Z</time>
      </trkpt>
      <trkpt lat="46.88611" lon="8.53829">
        <ele>1749</ele>
        <time>2021-08-11T09:00:07.431Z</time>
      </trkpt>
      <trkpt lat="46.88611" lon="8.53828">
        <ele>1749</ele>
        <time>2021-08-11T09:00:08.431Z</time>
      </trkpt>
      <trkpt lat="46.88612" lon="8.53827">
        <ele>1750</ele>
        <time>2021-08-11T09:00:09.430Z</time>
      </trkpt>
      <trkpt lat="46.88612" lon="8.53827">
        <ele>1750</ele>
        <time>2021-08-11T09:00:10.431Z</time>
      </trkpt>
      <trkpt lat="46.88613" lon="8.53827">
        <ele>1751</ele>
        <time>2021-08-11T09:00:11.430Z</time>
      </trkpt>
      <trkpt lat="46.88614" lon="8.53827">
        <ele>1751</ele>
        <time>2021-08-11T09:00:12.431Z</time>
      </trkpt>
      <trkpt lat="46.88614" lon="8.53826">
        <ele>1752</ele>
        <time>2021-08-11T09:00:13.430Z</time>
      </trkpt>
      <trkpt lat="46.88615" lon="8.53825">
        <ele>1752</ele>
        <time>2021-08-11T09:00:14.430Z</time>
      </trkpt>
      <trkpt lat="46.88615" lon="8.53825">
        <ele>1752</ele>
        <time>2021-08-11T09:00:15.430Z</time>
      </trkpt>
      <trkpt lat="46.88616" lon="8.53825">
        <ele>1752</ele>
        <time>2021-08-11T09:00:16.431Z</time>
      </trkpt>
      <trkpt lat="46.88616" lon="8.53825">
        <ele>1753</ele>
        <time>2021-08-11T09:00:17.431Z</time>
      </trkpt>
      <trkpt lat="46.88617" lon="8.53825">
        <ele>1754</ele>
        <time>2021-08-11T09:00:18.431Z</time>
      </trkpt>
      <trkpt lat="46.88618" lon="8.53825">
        <ele>1754</ele>
        <time>2021-08-11T09:00:19.431Z</time>
      </trkpt>
      <trkpt lat="46.88619" lon="8.53824">
        <ele>1755</ele>
        <time>2021-08-11T09:00:20.430Z</time>
      </trkpt>
      <trkpt lat="46.8862" lon="8.53824">
        <ele>1755</ele>
        <time>2021-08-11T09:00:21.431Z</time>
      </trkpt>
      <trkpt lat="46.8862" lon="8.53824">
        <ele>1756</ele>
        <time>2021-08-11T09:00:22.431Z</time>
      </trkpt>
      <trkpt lat="46.8862" lon="8.53824">
        <ele>1756</ele>
        <time>2021-08-11T09:00:23.430Z</time>
      </trkpt>
      <trkpt lat="46.88621" lon="8.53823">
        <ele>1757</ele>
        <time>2021-08-11T09:00:24.431Z</time>
      </trkpt>
      <trkpt lat="46.88621" lon="8.53822">
        <ele>1757</ele>
        <time>2021-08-11T09:00:25.431Z</time>
      </trkpt>
      <trkpt lat="46.88621" lon="8.53822">
        <ele>1756</ele>
        <time>2021-08-11T09:00:26.431Z</time>
      </trkpt>
      <trkpt lat="46.88621" lon="8.53821">
        <ele>1756</ele>
        <time>2021-08-11T09:00:27.431Z</time>
      </trkpt>
      <trkpt lat="46.88622" lon="8.5382">
        <ele>1756</ele>
        <time>2021-08-11T09:00:28.431Z</time>
      </trkpt>
      <trkpt lat="46.88623" lon="8.53819">
        <ele>1755</ele>
        <time>2021-08-11T09:00:29.431Z</time>
      </trkpt>
      <trkpt lat="46.88624" lon="8.53818">
        <ele>1755</ele>
        <time>2021-08-11T09:00:30.431Z</time>
      </trkpt>
      <trkpt lat="46.88624" lon="8.53818">
        <ele>1754</ele>
        <time>2021-08-11T09:00:31.431Z</time>
      </trkpt>
      <trkpt lat="46.88624" lon="8.53818">
        <ele>1754</ele>
        <time>2021-08-11T09:00:32.431Z</time>
      </trkpt>
      <trkpt lat="46.88625" lon="8.53817">
        <ele>1754</ele>
        <time>2021-08-11T09:00:33.431Z</time>
      </trkpt>
      <trkpt lat="46.88625" lon="8.53817">
        <ele>1753</ele>
        <time>2021-08-11T09:00:34.430Z</time>
      </trkpt>
      <trkpt lat="46.88625" lon="8.53817">
        <ele>1753</ele>
        <time>2021-08-11T09:00:35.431Z</time>
      </trkpt>
      <trkpt lat="46.88625" lon="8.53818">
        <ele>1753</ele>
        <time>2021-08-11T09:00:36.430Z</time>
      </trkpt>
      <trkpt lat="46.88626" lon="8.53816">
        <ele>1754</ele>
        <time>2021-08-11T09:00:37.432Z</time>
      </trkpt>
      <trkpt lat="46.88626" lon="8.53815">
        <ele>1754</ele>
        <time>2021-08-11T09:00:38.432Z</time>
      </trkpt>
      <trkpt lat="46.88626" lon="8.53815">
        <ele>1754</ele>
        <time>2021-08-11T09:00:39.431Z</time>
      </trkpt>
      <trkpt lat="46.88626" lon="8.53816">
        <ele>1755</ele>
        <time>2021-08-11T09:00:40.432Z</time>
      </trkpt>
      <trkpt lat="46.88627" lon="8.53816">
        <ele>1755</ele>
        <time>2021-08-11T09:00:41.432Z</time>
      </trkpt>
      <trkpt lat="46.88628" lon="8.53815">
        <ele>1755</ele>
        <time>2021-08-11T09:00:42.433Z</time>
      </trkpt>
      <trkpt lat="46.88629" lon="8.53815">
        <ele>1755</ele>
        <time>2021-08-11T09:00:43.432Z</time>
      </trkpt>
      <trkpt lat="46.88629" lon="8.53815">
        <ele>1755</ele>
        <time>2021-08-11T09:00:44.432Z</time>
      </trkpt>
      <trkpt lat="46.8863" lon="8.53815">
        <ele>1755</ele>
        <time>2021-08-11T09:00:45.433Z</time>
      </trkpt>
      <trkpt lat="46.8863" lon="8.53815">
        <ele>1755</ele>
        <time>2021-08-11T09:00:46.433Z</time>
      </trkpt>
      <trkpt lat="46.8863" lon="8.53814">
        <ele>1755</ele>
        <time>2021-08-11T09:00:47.432Z</time>
      </trkpt>
      <trkpt lat="46.8863" lon="8.53813">
        <ele>1755</ele>
        <time>2021-08-11T09:00:48.433Z</time>
      </trkpt>
      <trkpt lat="46.8863" lon="8.53813">
        <ele>1754</ele>
        <time>2021-08-11T09:00:49.433Z</time>
      </trkpt>
      <trkpt lat="46.8863" lon="8.53812">
        <ele>1754</ele>
        <time>2021-08-11T09:00:50.432Z</time>
      </trkpt>
      <trkpt lat="46.88631" lon="8.53812">
        <ele>1754</ele>
        <time>2021-08-11T09:00:51.433Z</time>
      </trkpt>
      <trkpt lat="46.88631" lon="8.53812">
        <ele>1754</ele>
        <time>2021-08-11T09:00:52.433Z</time>
      </trkpt>
      <trkpt lat="46.88632" lon="8.53811">
        <ele>1754</ele>
        <time>2021-08-11T09:00:53.433Z</time>
      </trkpt>
      <trkpt lat="46.88632" lon="8.5381">
        <ele>1755</ele>
        <time>2021-08-11T09:00:54.432Z</time>
      </trkpt>
      <trkpt lat="46.88632" lon="8.5381">
        <ele>1755</ele>
        <time>2021-08-11T09:00:55.433Z</time>
      </trkpt>
      <trkpt lat="46.88632" lon="8.53811">
        <ele>1755</ele>
        <time>2021-08-11T09:00:56.433Z</time>
      </trkpt>
      <trkpt lat="46.88633" lon="8.53812">
        <ele>1756</ele>
        <time>2021-08-11T09:00:57.433Z</time>
      </trkpt>
      <trkpt lat="46.88633" lon="8.53812">
        <ele>1756</ele>
        <time>2021-08-11T09:00:58.432Z</time>
      </trkpt>
      <trkpt lat="46.88634" lon="8.53811">
        <ele>1761</ele>
        <time>2021-08-11T09:00:59.434Z</time>
      </trkpt>
      <trkpt lat="46.88634" lon="8.53812">
        <ele>1762</ele>
        <time>2021-08-11T09:01:00.434Z</time>
      </trkpt>
      <trkpt lat="46.88636" lon="8.5381">
        <ele>1763</ele>
        <time>2021-08-11T09:01:01.435Z</time>
      </trkpt>
      <trkpt lat="46.88636" lon="8.53809">
        <ele>1763</ele>
        <time>2021-08-11T09:01:02.434Z</time>
      </trkpt>
      <trkpt lat="46.88636" lon="8.53809">
        <ele>1762</ele>
        <time>2021-08-11T09:01:03.434Z</time>
      </trkpt>
      <trkpt lat="46.88636" lon="8.53809">
        <ele>1762</ele>
        <time>2021-08-11T09:01:04.434Z</time>
      </trkpt>
      <trkpt lat="46.88637" lon="8.53808">
        <ele>1762</ele>
        <time>2021-08-11T09:01:05.434Z</time>
      </trkpt>
      <trkpt lat="46.88637" lon="8.53806">
        <ele>1763</ele>
        <time>2021-08-11T09:01:06.435Z</time>
      </trkpt>
      <trkpt lat="46.88639" lon="8.53807">
        <ele>1764</ele>
        <time>2021-08-11T09:01:07.434Z</time>
      </trkpt>
      <trkpt lat="46.88639" lon="8.53807">
        <ele>1763</ele>
        <time>2021-08-11T09:01:08.435Z</time>
      </trkpt>
      <trkpt lat="46.88639" lon="8.53807">
        <ele>1763</ele>
        <time>2021-08-11T09:01:09.434Z</time>
      </trkpt>
      <trkpt lat="46.88639" lon="8.53807">
        <ele>1763</ele>
        <time>2021-08-11T09:01:10.434Z</time>
      </trkpt>
      <trkpt lat="46.8864" lon="8.53807">
        <ele>1763</ele>
        <time>2021-08-11T09:01:11.435Z</time>
      </trkpt>
      <trkpt lat="46.8864" lon="8.53807">
        <ele>1763</ele>
        <time>2021-08-11T09:01:12.435Z</time>
      </trkpt>
      <trkpt lat="46.88641" lon="8.53807">
        <ele>1763</ele>
        <time>2021-08-11T09:01:13.434Z</time>
      </trkpt>
      <trkpt lat="46.88642" lon="8.53807">
        <ele>1764</ele>
        <time>2021-08-11T09:01:14.435Z</time>
      </trkpt>
      <trkpt lat="46.88642" lon="8.53807">
        <ele>1764</ele>
        <time>2021-08-11T09:01:15.435Z</time>
      </trkpt>
      <trkpt lat="46.88643" lon="8.53806">
        <ele>1764</ele>
        <time>2021-08-11T09:01:16.435Z</time>
      </trkpt>
      <trkpt lat="46.88644" lon="8.53806">
        <ele>1764</ele>
        <time>2021-08-11T09:01:17.435Z</time>
      </trkpt>
      <trkpt lat="46.88644" lon="8.53806">
        <ele>1764</ele>
        <time>2021-08-11T09:01:18.435Z</time>
      </trkpt>
      <trkpt lat="46.88645" lon="8.53806">
        <ele>1764</ele>
        <time>2021-08-11T09:01:19.435Z</time>
      </trkpt>
      <trkpt lat="46.88646" lon="8.53806">
        <ele>1764</ele>
        <time>2021-08-11T09:01:20.434Z</time>
      </trkpt>
      <trkpt lat="46.88646" lon="8.53806">
        <ele>1764</ele>
        <time>2021-08-11T09:01:21.435Z</time>
      </trkpt>
      <trkpt lat="46.88647" lon="8.53805">
        <ele>1763</ele>
        <time>2021-08-11T09:01:22.435Z</time>
      </trkpt>
      <trkpt lat="46.88647" lon="8.53805">
        <ele>1763</ele>
        <time>2021-08-11T09:01:23.434Z</time>
      </trkpt>
      <trkpt lat="46.88648" lon="8.53804">
        <ele>1763</ele>
        <time>2021-08-11T09:01:24.434Z</time>
      </trkpt>
      <trkpt lat="46.88648" lon="8.53804">
        <ele>1763</ele>
        <time>2021-08-11T09:01:25.435Z</time>
      </trkpt>
      <trkpt lat="46.88648" lon="8.53803">
        <ele>1762</ele>
        <time>2021-08-11T09:01:26.434Z</time>
      </trkpt>
      <trkpt lat="46.88649" lon="8.53803">
        <ele>1762</ele>
        <time>2021-08-11T09:01:27.435Z</time>
      </trkpt>
      <trkpt lat="46.88649" lon="8.53803">
        <ele>1762</ele>
        <time>2021-08-11T09:01:28.435Z</time>
      </trkpt>
      <trkpt lat="46.8865" lon="8.53802">
        <ele>1762</ele>
        <time>2021-08-11T09:01:29.434Z</time>
      </trkpt>
      <trkpt lat="46.8865" lon="8.53802">
        <ele>1762</ele>
        <time>2021-08-11T09:01:30.435Z</time>
      </trkpt>
      <trkpt lat="46.88651" lon="8.53802">
        <ele>1762</ele>
        <time>2021-08-11T09:01:31.435Z</time>
      </trkpt>
      <trkpt lat="46.88651" lon="8.53802">
        <ele>1761</ele>
        <time>2021-08-11T09:01:32.434Z</time>
      </trkpt>
      <trkpt lat="46.88652" lon="8.53802">
        <ele>1761</ele>
        <time>2021-08-11T09:01:33.435Z</time>
      </trkpt>
      <trkpt lat="46.88652" lon="8.53801">
        <ele>1762</ele>
        <time>2021-08-11T09:01:34.435Z</time>
      </trkpt>
      <trkpt lat="46.88652" lon="8.53801">
        <ele>1762</ele>
        <time>2021-08-11T09:01:35.434Z</time>
      </trkpt>
      <trkpt lat="46.88653" lon="8.53801">
        <ele>1762</ele>
        <time>2021-08-11T09:01:36.434Z</time>
      </trkpt>
      <trkpt lat="46.88653" lon="8.538">
        <ele>1763</ele>
        <time>2021-08-11T09:01:37.434Z</time>
      </trkpt>
      <trkpt lat="46.88653" lon="8.538">
        <ele>1763</ele>
        <time>2021-08-11T09:01:38.435Z</time>
      </trkpt>
      <trkpt lat="46.88654" lon="8.53799">
        <ele>1765</ele>
        <time>2021-08-11T09:01:39.435Z</time>
      </trkpt>
      <trkpt lat="46.88654" lon="8.53798">
        <ele>1765</ele>
        <time>2021-08-11T09:01:40.435Z</time>
      </trkpt>
      <trkpt lat="46.88655" lon="8.53798">
        <ele>1764</ele>
        <time>2021-08-11T09:01:41.434Z</time>
      </trkpt>
      <trkpt lat="46.88655" lon="8.53798">
        <ele>1763</ele>
        <time>2021-08-11T09:01:42.435Z</time>
      </trkpt>
      <trkpt lat="46.88655" lon="8.53798">
        <ele>1763</ele>
        <time>2021-08-11T09:01:43.435Z</time>
      </trkpt>
      <trkpt lat="46.88655" lon="8.53798">
        <ele>1763</ele>
        <time>2021-08-11T09:01:44.435Z</time>
      </trkpt>
      <trkpt lat="46.88656" lon="8.53799">
        <ele>1762</ele>
        <time>2021-08-11T09:01:45.435Z</time>
      </trkpt>
      <trkpt lat="46.88656" lon="8.53799">
        <ele>1762</ele>
        <time>2021-08-11T09:01:46.434Z</time>
      </trkpt>
      <trkpt lat="46.88656" lon="8.538">
        <ele>1762</ele>
        <time>2021-08-11T09:01:47.435Z</time>
      </trkpt>
      <trkpt lat="46.88657" lon="8.53799">
        <ele>1761</ele>
        <time>2021-08-11T09:01:48.434Z</time>
      </trkpt>
      <trkpt lat="46.88658" lon="8.53798">
        <ele>1761</ele>
        <time>2021-08-11T09:01:49.435Z</time>
      </trkpt>
      <trkpt lat="46.88659" lon="8.53796">
        <ele>1761</ele>
        <time>2021-08-11T09:01:50.435Z</time>
      </trkpt>
      <trkpt lat="46.8866" lon="8.53795">
        <ele>1761</ele>
        <time>2021-08-11T09:01:51.434Z</time>
      </trkpt>
      <trkpt lat="46.8866" lon="8.53795">
        <ele>1761</ele>
        <time>2021-08-11T09:01:52.435Z</time>
      </trkpt>
      <trkpt lat="46.8866" lon="8.53795">
        <ele>1760</ele>
        <time>2021-08-11T09:01:53.435Z</time>
      </trkpt>
      <trkpt lat="46.88661" lon="8.53796">
        <ele>1760</ele>
        <time>2021-08-11T09:01:54.436Z</time>
      </trkpt>
      <trkpt lat="46.88662" lon="8.53796">
        <ele>1760</ele>
        <time>2021-08-11T09:01:55.435Z</time>
      </trkpt>
      <trkpt lat="46.88662" lon="8.53796">
        <ele>1760</ele>
        <time>2021-08-11T09:01:56.435Z</time>
      </trkpt>
      <trkpt lat="46.88663" lon="8.53796">
        <ele>1759</ele>
        <time>2021-08-11T09:01:57.436Z</time>
      </trkpt>
      <trkpt lat="46.88663" lon="8.53797">
        <ele>1759</ele>
        <time>2021-08-11T09:01:58.436Z</time>
      </trkpt>
      <trkpt lat="46.88663" lon="8.53797">
        <ele>1759</ele>
        <time>2021-08-11T09:01:59.435Z</time>
      </trkpt>
      <trkpt lat="46.88663" lon="8.53797">
        <ele>1760</ele>
        <time>2021-08-11T09:02:00.436Z</time>
      </trkpt>
      <trkpt lat="46.88663" lon="8.53797">
        <ele>1760</ele>
        <time>2021-08-11T09:02:01.436Z</time>
      </trkpt>
      <trkpt lat="46.88663" lon="8.53797">
        <ele>1760</ele>
        <time>2021-08-11T09:02:02.436Z</time>
      </trkpt>
      <trkpt lat="46.88664" lon="8.53796">
        <ele>1761</ele>
        <time>2021-08-11T09:02:03.436Z</time>
      </trkpt>
      <trkpt lat="46.88665" lon="8.53795">
        <ele>1761</ele>
        <time>2021-08-11T09:02:04.435Z</time>
      </trkpt>
      <trkpt lat="46.88665" lon="8.53795">
        <ele>1761</ele>
        <time>2021-08-11T09:02:05.436Z</time>
      </trkpt>
      <trkpt lat="46.88665" lon="8.53796">
        <ele>1761</ele>
        <time>2021-08-11T09:02:06.436Z</time>
      </trkpt>
      <trkpt lat="46.88665" lon="8.53796">
        <ele>1761</ele>
        <time>2021-08-11T09:02:07.436Z</time>
      </trkpt>
      <trkpt lat="46.88665" lon="8.53796">
        <ele>1761</ele>
        <time>2021-08-11T09:02:08.435Z</time>
      </trkpt>
      <trkpt lat="46.88666" lon="8.53797">
        <ele>1760</ele>
        <time>2021-08-11T09:02:09.436Z</time>
      </trkpt>
      <trkpt lat="46.88666" lon="8.53797">
        <ele>1760</ele>
        <time>2021-08-11T09:02:10.436Z</time>
      </trkpt>
      <trkpt lat="46.88667" lon="8.53796">
        <ele>1760</ele>
        <time>2021-08-11T09:02:11.435Z</time>
      </trkpt>
      <trkpt lat="46.88667" lon="8.53796">
        <ele>1761</ele>
        <time>2021-08-11T09:02:12.436Z</time>
      </trkpt>
      <trkpt lat="46.88666" lon="8.53794">
        <ele>1765</ele>
        <time>2021-08-11T09:02:13.436Z</time>
      </trkpt>
      <trkpt lat="46.88666" lon="8.53793">
        <ele>1766</ele>
        <time>2021-08-11T09:02:14.436Z</time>
      </trkpt>
      <trkpt lat="46.88665" lon="8.53792">
        <ele>1766</ele>
        <time>2021-08-11T09:02:15.435Z</time>
      </trkpt>
      <trkpt lat="46.88666" lon="8.53791">
        <ele>1766</ele>
        <time>2021-08-11T09:02:16.435Z</time>
      </trkpt>
      <trkpt lat="46.88666" lon="8.5379">
        <ele>1766</ele>
        <time>2021-08-11T09:02:17.435Z</time>
      </trkpt>
      <trkpt lat="46.88666" lon="8.5379">
        <ele>1766</ele>
        <time>2021-08-11T09:02:18.436Z</time>
      </trkpt>
      <trkpt lat="46.88666" lon="8.53789">
        <ele>1765</ele>
        <time>2021-08-11T09:02:19.436Z</time>
      </trkpt>
      <trkpt lat="46.88666" lon="8.53788">
        <ele>1765</ele>
        <time>2021-08-11T09:02:20.436Z</time>
      </trkpt>
      <trkpt lat="46.88665" lon="8.53788">
        <ele>1765</ele>
        <time>2021-08-11T09:02:21.435Z</time>
      </trkpt>
      <trkpt lat="46.88665" lon="8.53788">
        <ele>1765</ele>
        <time>2021-08-11T09:02:22.435Z</time>
      </trkpt>
      <trkpt lat="46.88666" lon="8.5379">
        <ele>1767</ele>
        <time>2021-08-11T09:02:23.437Z</time>
      </trkpt>
      <trkpt lat="46.88666" lon="8.5379">
        <ele>1767</ele>
        <time>2021-08-11T09:02:24.436Z</time>
      </trkpt>
      <trkpt lat="46.88665" lon="8.5379">
        <ele>1767</ele>
        <time>2021-08-11T09:02:25.436Z</time>
      </trkpt>
      <trkpt lat="46.88665" lon="8.5379">
        <ele>1767</ele>
        <time>2021-08-11T09:02:26.436Z</time>
      </trkpt>
      <trkpt lat="46.88664" lon="8.53789">
        <ele>1766</ele>
        <time>2021-08-11T09:02:27.438Z</time>
      </trkpt>
      <trkpt lat="46.88663" lon="8.53789">
        <ele>1766</ele>
        <time>2021-08-11T09:02:28.437Z</time>
      </trkpt>
      <trkpt lat="46.88663" lon="8.53788">
        <ele>1766</ele>
        <time>2021-08-11T09:02:29.437Z</time>
      </trkpt>
      <trkpt lat="46.88662" lon="8.53788">
        <ele>1766</ele>
        <time>2021-08-11T09:02:30.437Z</time>
      </trkpt>
      <trkpt lat="46.88662" lon="8.53788">
        <ele>1766</ele>
        <time>2021-08-11T09:02:31.438Z</time>
      </trkpt>
      <trkpt lat="46.88662" lon="8.53788">
        <ele>1766</ele>
        <time>2021-08-11T09:02:32.438Z</time>
      </trkpt>
      <trkpt lat="46.88662" lon="8.53787">
        <ele>1766</ele>
        <time>2021-08-11T09:02:33.437Z</time>
      </trkpt>
      <trkpt lat="46.88662" lon="8.53786">
        <ele>1767</ele>
        <time>2021-08-11T09:02:34.438Z</time>
      </trkpt>
      <trkpt lat="46.88662" lon="8.53785">
        <ele>1767</ele>
        <time>2021-08-11T09:02:35.438Z</time>
      </trkpt>
      <trkpt lat="46.88661" lon="8.53785">
        <ele>1767</ele>
        <time>2021-08-11T09:02:36.437Z</time>
      </trkpt>
      <trkpt lat="46.88661" lon="8.53785">
        <ele>1767</ele>
        <time>2021-08-11T09:02:37.438Z</time>
      </trkpt>
      <trkpt lat="46.88661" lon="8.53784">
        <ele>1767</ele>
        <time>2021-08-11T09:02:38.437Z</time>
      </trkpt>
      <trkpt lat="46.8866" lon="8.53784">
        <ele>1767</ele>
        <time>2021-08-11T09:02:39.437Z</time>
      </trkpt>
      <trkpt lat="46.8866" lon="8.53783">
        <ele>1767</ele>
        <time>2021-08-11T09:02:40.438Z</time>
      </trkpt>
      <trkpt lat="46.8866" lon="8.53782">
        <ele>1767</ele>
        <time>2021-08-11T09:02:41.438Z</time>
      </trkpt>
      <trkpt lat="46.8866" lon="8.53782">
        <ele>1767</ele>
        <time>2021-08-11T09:02:42.438Z</time>
      </trkpt>
      <trkpt lat="46.8866" lon="8.53782">
        <ele>1767</ele>
        <time>2021-08-11T09:02:43.438Z</time>
      </trkpt>
      <trkpt lat="46.88659" lon="8.53781">
        <ele>1767</ele>
        <time>2021-08-11T09:02:44.438Z</time>
      </trkpt>
      <trkpt lat="46.88658" lon="8.53781">
        <ele>1774</ele>
        <time>2021-08-11T09:02:45.438Z</time>
      </trkpt>
      <trkpt lat="46.88658" lon="8.53782">
        <ele>1777</ele>
        <time>2021-08-11T09:02:46.437Z</time>
      </trkpt>
      <trkpt lat="46.88658" lon="8.53781">
        <ele>1778</ele>
        <time>2021-08-11T09:02:47.438Z</time>
      </trkpt>
      <trkpt lat="46.88656" lon="8.53779">
        <ele>1771</ele>
        <time>2021-08-11T09:02:48.438Z</time>
      </trkpt>
      <trkpt lat="46.88656" lon="8.53779">
        <ele>1771</ele>
        <time>2021-08-11T09:02:49.438Z</time>
      </trkpt>
      <trkpt lat="46.88656" lon="8.53776">
        <ele>1770</ele>
        <time>2021-08-11T09:02:50.437Z</time>
      </trkpt>
      <trkpt lat="46.88656" lon="8.53775">
        <ele>1770</ele>
        <time>2021-08-11T09:02:51.438Z</time>
      </trkpt>
      <trkpt lat="46.88655" lon="8.53775">
        <ele>1769</ele>
        <time>2021-08-11T09:02:52.437Z</time>
      </trkpt>
      <trkpt lat="46.88655" lon="8.53774">
        <ele>1769</ele>
        <time>2021-08-11T09:02:53.438Z</time>
      </trkpt>
      <trkpt lat="46.88654" lon="8.53774">
        <ele>1769</ele>
        <time>2021-08-11T09:02:54.437Z</time>
      </trkpt>
      <trkpt lat="46.88654" lon="8.53773">
        <ele>1770</ele>
        <time>2021-08-11T09:02:55.437Z</time>
      </trkpt>
      <trkpt lat="46.88654" lon="8.53772">
        <ele>1770</ele>
        <time>2021-08-11T09:02:56.438Z</time>
      </trkpt>
      <trkpt lat="46.88653" lon="8.53771">
        <ele>1770</ele>
        <time>2021-08-11T09:02:57.438Z</time>
      </trkpt>
      <trkpt lat="46.88653" lon="8.53771">
        <ele>1770</ele>
        <time>2021-08-11T09:02:58.438Z</time>
      </trkpt>
      <trkpt lat="46.88653" lon="8.5377">
        <ele>1771</ele>
        <time>2021-08-11T09:02:59.438Z</time>
      </trkpt>
      <trkpt lat="46.88652" lon="8.53771">
        <ele>1771</ele>
        <time>2021-08-11T09:03:00.437Z</time>
      </trkpt>
      <trkpt lat="46.88652" lon="8.5377">
        <ele>1771</ele>
        <time>2021-08-11T09:03:01.438Z</time>
      </trkpt>
      <trkpt lat="46.88651" lon="8.53771">
        <ele>1772</ele>
        <time>2021-08-11T09:03:02.438Z</time>
      </trkpt>
      <trkpt lat="46.88651" lon="8.5377">
        <ele>1772</ele>
        <time>2021-08-11T09:03:03.438Z</time>
      </trkpt>
      <trkpt lat="46.88651" lon="8.5377">
        <ele>1772</ele>
        <time>2021-08-11T09:03:04.438Z</time>
      </trkpt>
      <trkpt lat="46.88651" lon="8.53769">
        <ele>1772</ele>
        <time>2021-08-11T09:03:05.437Z</time>
      </trkpt>
      <trkpt lat="46.8865" lon="8.53768">
        <ele>1771</ele>
        <time>2021-08-11T09:03:06.438Z</time>
      </trkpt>
      <trkpt lat="46.8865" lon="8.53768">
        <ele>1771</ele>
        <time>2021-08-11T09:03:07.438Z</time>
      </trkpt>
      <trkpt lat="46.88649" lon="8.53767">
        <ele>1771</ele>
        <time>2021-08-11T09:03:08.438Z</time>
      </trkpt>
      <trkpt lat="46.88649" lon="8.53767">
        <ele>1771</ele>
        <time>2021-08-11T09:03:09.438Z</time>
      </trkpt>
      <trkpt lat="46.88649" lon="8.53768">
        <ele>1771</ele>
        <time>2021-08-11T09:03:10.438Z</time>
      </trkpt>
      <trkpt lat="46.88649" lon="8.53767">
        <ele>1772</ele>
        <time>2021-08-11T09:03:11.437Z</time>
      </trkpt>
      <trkpt lat="46.88648" lon="8.53767">
        <ele>1772</ele>
        <time>2021-08-11T09:03:12.438Z</time>
      </trkpt>
      <trkpt lat="46.88648" lon="8.53767">
        <ele>1772</ele>
        <time>2021-08-11T09:03:13.438Z</time>
      </trkpt>
      <trkpt lat="46.88648" lon="8.53767">
        <ele>1772</ele>
        <time>2021-08-11T09:03:14.438Z</time>
      </trkpt>
      <trkpt lat="46.88648" lon="8.53767">
        <ele>1772</ele>
        <time>2021-08-11T09:03:15.437Z</time>
      </trkpt>
      <trkpt lat="46.88647" lon="8.53767">
        <ele>1772</ele>
        <time>2021-08-11T09:03:16.438Z</time>
      </trkpt>
      <trkpt lat="46.88647" lon="8.53766">
        <ele>1773</ele>
        <time>2021-08-11T09:03:17.438Z</time>
      </trkpt>
      <trkpt lat="46.88647" lon="8.53766">
        <ele>1773</ele>
        <time>2021-08-11T09:03:18.437Z</time>
      </trkpt>
      <trkpt lat="46.88646" lon="8.53765">
        <ele>1773</ele>
        <time>2021-08-11T09:03:19.438Z</time>
      </trkpt>
      <trkpt lat="46.88646" lon="8.53765">
        <ele>1773</ele>
        <time>2021-08-11T09:03:20.437Z</time>
      </trkpt>
      <trkpt lat="46.88645" lon="8.53765">
        <ele>1773</ele>
        <time>2021-08-11T09:03:21.438Z</time>
      </trkpt>
      <trkpt lat="46.88644" lon="8.53765">
        <ele>1773</ele>
        <time>2021-08-11T09:03:22.438Z</time>
      </trkpt>
      <trkpt lat="46.88643" lon="8.53764">
        <ele>1773</ele>
        <time>2021-08-11T09:03:23.437Z</time>
      </trkpt>
      <trkpt lat="46.88643" lon="8.53764">
        <ele>1773</ele>
        <time>2021-08-11T09:03:24.437Z</time>
      </trkpt>
      <trkpt lat="46.88643" lon="8.53763">
        <ele>1774</ele>
        <time>2021-08-11T09:03:25.438Z</time>
      </trkpt>
      <trkpt lat="46.88643" lon="8.53762">
        <ele>1774</ele>
        <time>2021-08-11T09:03:26.438Z</time>
      </trkpt>
      <trkpt lat="46.88643" lon="8.53762">
        <ele>1775</ele>
        <time>2021-08-11T09:03:27.438Z</time>
      </trkpt>
      <trkpt lat="46.88643" lon="8.53761">
        <ele>1775</ele>
        <time>2021-08-11T09:03:28.437Z</time>
      </trkpt>
      <trkpt lat="46.88643" lon="8.53762">
        <ele>1776</ele>
        <time>2021-08-11T09:03:29.438Z</time>
      </trkpt>
      <trkpt lat="46.88643" lon="8.53761">
        <ele>1776</ele>
        <time>2021-08-11T09:03:30.438Z</time>
      </trkpt>
      <trkpt lat="46.88643" lon="8.53762">
        <ele>1776</ele>
        <time>2021-08-11T09:03:31.438Z</time>
      </trkpt>
      <trkpt lat="46.88644" lon="8.53766">
        <ele>1776</ele>
        <time>2021-08-11T09:03:32.439Z</time>
      </trkpt>
      <trkpt lat="46.88645" lon="8.53766">
        <ele>1775</ele>
        <time>2021-08-11T09:03:33.438Z</time>
      </trkpt>
      <trkpt lat="46.88645" lon="8.53766">
        <ele>1775</ele>
        <time>2021-08-11T09:03:34.438Z</time>
      </trkpt>
      <trkpt lat="46.88644" lon="8.53763">
        <ele>1775</ele>
        <time>2021-08-11T09:03:35.440Z</time>
      </trkpt>
      <trkpt lat="46.88644" lon="8.53763">
        <ele>1775</ele>
        <time>2021-08-11T09:03:36.439Z</time>
      </trkpt>
      <trkpt lat="46.88643" lon="8.53762">
        <ele>1775</ele>
        <time>2021-08-11T09:03:37.440Z</time>
      </trkpt>
      <trkpt lat="46.88642" lon="8.53762">
        <ele>1775</ele>
        <time>2021-08-11T09:03:38.441Z</time>
      </trkpt>
      <trkpt lat="46.88642" lon="8.53762">
        <ele>1774</ele>
        <time>2021-08-11T09:03:39.440Z</time>
      </trkpt>
      <trkpt lat="46.88641" lon="8.53761">
        <ele>1772</ele>
        <time>2021-08-11T09:03:40.441Z</time>
      </trkpt>
      <trkpt lat="46.88642" lon="8.53761">
        <ele>1772</ele>
        <time>2021-08-11T09:03:41.440Z</time>
      </trkpt>
      <trkpt lat="46.88641" lon="8.53759">
        <ele>1773</ele>
        <time>2021-08-11T09:03:42.440Z</time>
      </trkpt>
      <trkpt lat="46.88639" lon="8.53758">
        <ele>1776</ele>
        <time>2021-08-11T09:03:43.440Z</time>
      </trkpt>
      <trkpt lat="46.88638" lon="8.53758">
        <ele>1776</ele>
        <time>2021-08-11T09:03:44.441Z</time>
      </trkpt>
      <trkpt lat="46.88638" lon="8.53758">
        <ele>1776</ele>
        <time>2021-08-11T09:03:45.441Z</time>
      </trkpt>
      <trkpt lat="46.88637" lon="8.53758">
        <ele>1776</ele>
        <time>2021-08-11T09:03:46.441Z</time>
      </trkpt>
      <trkpt lat="46.88637" lon="8.53757">
        <ele>1777</ele>
        <time>2021-08-11T09:03:47.441Z</time>
      </trkpt>
      <trkpt lat="46.88637" lon="8.53757">
        <ele>1777</ele>
        <time>2021-08-11T09:03:48.441Z</time>
      </trkpt>
      <trkpt lat="46.88637" lon="8.53757">
        <ele>1777</ele>
        <time>2021-08-11T09:03:49.441Z</time>
      </trkpt>
      <trkpt lat="46.88633" lon="8.53754">
        <ele>1782</ele>
        <time>2021-08-11T09:03:50.440Z</time>
      </trkpt>
      <trkpt lat="46.88632" lon="8.53754">
        <ele>1783</ele>
        <time>2021-08-11T09:03:51.440Z</time>
      </trkpt>
      <trkpt lat="46.88632" lon="8.53753">
        <ele>1783</ele>
        <time>2021-08-11T09:03:52.440Z</time>
      </trkpt>
      <trkpt lat="46.88632" lon="8.53753">
        <ele>1783</ele>
        <time>2021-08-11T09:03:53.440Z</time>
      </trkpt>
      <trkpt lat="46.88632" lon="8.53752">
        <ele>1783</ele>
        <time>2021-08-11T09:03:54.440Z</time>
      </trkpt>
      <trkpt lat="46.88632" lon="8.53752">
        <ele>1783</ele>
        <time>2021-08-11T09:03:55.440Z</time>
      </trkpt>
      <trkpt lat="46.88631" lon="8.53751">
        <ele>1783</ele>
        <time>2021-08-11T09:03:56.440Z</time>
      </trkpt>
      <trkpt lat="46.88631" lon="8.53751">
        <ele>1784</ele>
        <time>2021-08-11T09:03:57.440Z</time>
      </trkpt>
      <trkpt lat="46.88631" lon="8.53751">
        <ele>1785</ele>
        <time>2021-08-11T09:03:58.440Z</time>
      </trkpt>
      <trkpt lat="46.88631" lon="8.5375">
        <ele>1785</ele>
        <time>2021-08-11T09:03:59.440Z</time>
      </trkpt>
      <trkpt lat="46.88631" lon="8.5375">
        <ele>1785</ele>
        <time>2021-08-11T09:04:00.440Z</time>
      </trkpt>
      <trkpt lat="46.88631" lon="8.5375">
        <ele>1785</ele>
        <time>2021-08-11T09:04:01.440Z</time>
      </trkpt>
      <trkpt lat="46.8863" lon="8.5375">
        <ele>1783</ele>
        <time>2021-08-11T09:04:02.442Z</time>
      </trkpt>
      <trkpt lat="46.8863" lon="8.53749">
        <ele>1783</ele>
        <time>2021-08-11T09:04:03.442Z</time>
      </trkpt>
      <trkpt lat="46.8863" lon="8.53749">
        <ele>1782</ele>
        <time>2021-08-11T09:04:04.441Z</time>
      </trkpt>
      <trkpt lat="46.8863" lon="8.53748">
        <ele>1782</ele>
        <time>2021-08-11T09:04:05.442Z</time>
      </trkpt>
      <trkpt lat="46.8863" lon="8.53748">
        <ele>1783</ele>
        <time>2021-08-11T09:04:06.442Z</time>
      </trkpt>
      <trkpt lat="46.88631" lon="8.53748">
        <ele>1784</ele>
        <time>2021-08-11T09:04:07.442Z</time>
      </trkpt>
      <trkpt lat="46.88631" lon="8.53748">
        <ele>1784</ele>
        <time>2021-08-11T09:04:08.443Z</time>
      </trkpt>
      <trkpt lat="46.88632" lon="8.53747">
        <ele>1783</ele>
        <time>2021-08-11T09:04:09.442Z</time>
      </trkpt>
      <trkpt lat="46.88632" lon="8.53747">
        <ele>1783</ele>
        <time>2021-08-11T09:04:10.443Z</time>
      </trkpt>
      <trkpt lat="46.88633" lon="8.53747">
        <ele>1782</ele>
        <time>2021-08-11T09:04:11.443Z</time>
      </trkpt>
      <trkpt lat="46.88633" lon="8.53747">
        <ele>1782</ele>
        <time>2021-08-11T09:04:12.442Z</time>
      </trkpt>
      <trkpt lat="46.88634" lon="8.53746">
        <ele>1783</ele>
        <time>2021-08-11T09:04:13.442Z</time>
      </trkpt>
      <trkpt lat="46.88635" lon="8.53746">
        <ele>1783</ele>
        <time>2021-08-11T09:04:14.443Z</time>
      </trkpt>
      <trkpt lat="46.88635" lon="8.53746">
        <ele>1783</ele>
        <time>2021-08-11T09:04:15.443Z</time>
      </trkpt>
      <trkpt lat="46.88636" lon="8.53745">
        <ele>1783</ele>
        <time>2021-08-11T09:04:16.442Z</time>
      </trkpt>
      <trkpt lat="46.88635" lon="8.53744">
        <ele>1783</ele>
        <time>2021-08-11T09:04:17.443Z</time>
      </trkpt>
      <trkpt lat="46.88636" lon="8.53743">
        <ele>1783</ele>
        <time>2021-08-11T09:04:18.443Z</time>
      </trkpt>
      <trkpt lat="46.88636" lon="8.53742">
        <ele>1783</ele>
        <time>2021-08-11T09:04:19.443Z</time>
      </trkpt>
      <trkpt lat="46.88636" lon="8.53742">
        <ele>1782</ele>
        <time>2021-08-11T09:04:20.442Z</time>
      </trkpt>
      <trkpt lat="46.88636" lon="8.53742">
        <ele>1782</ele>
        <time>2021-08-11T09:04:21.442Z</time>
      </trkpt>
      <trkpt lat="46.88636" lon="8.53742">
        <ele>1782</ele>
        <time>2021-08-11T09:04:22.443Z</time>
      </trkpt>
      <trkpt lat="46.88637" lon="8.53741">
        <ele>1783</ele>
        <time>2021-08-11T09:04:23.443Z</time>
      </trkpt>
      <trkpt lat="46.88637" lon="8.53741">
        <ele>1783</ele>
        <time>2021-08-11T09:04:24.442Z</time>
      </trkpt>
      <trkpt lat="46.88637" lon="8.53741">
        <ele>1783</ele>
        <time>2021-08-11T09:04:25.442Z</time>
      </trkpt>
      <trkpt lat="46.88638" lon="8.53741">
        <ele>1783</ele>
        <time>2021-08-11T09:04:26.442Z</time>
      </trkpt>
      <trkpt lat="46.88638" lon="8.53741">
        <ele>1784</ele>
        <time>2021-08-11T09:04:27.442Z</time>
      </trkpt>
      <trkpt lat="46.88639" lon="8.5374">
        <ele>1784</ele>
        <time>2021-08-11T09:04:28.443Z</time>
      </trkpt>
      <trkpt lat="46.88639" lon="8.5374">
        <ele>1784</ele>
        <time>2021-08-11T09:04:29.444Z</time>
      </trkpt>
      <trkpt lat="46.8864" lon="8.5374">
        <ele>1784</ele>
        <time>2021-08-11T09:04:30.443Z</time>
      </trkpt>
      <trkpt lat="46.88642" lon="8.5374">
        <ele>1788</ele>
        <time>2021-08-11T09:04:31.444Z</time>
      </trkpt>
      <trkpt lat="46.88642" lon="8.53739">
        <ele>1788</ele>
        <time>2021-08-11T09:04:32.443Z</time>
      </trkpt>
      <trkpt lat="46.88643" lon="8.53739">
        <ele>1789</ele>
        <time>2021-08-11T09:04:33.444Z</time>
      </trkpt>
      <trkpt lat="46.88643" lon="8.53738">
        <ele>1789</ele>
        <time>2021-08-11T09:04:34.444Z</time>
      </trkpt>
      <trkpt lat="46.88643" lon="8.53738">
        <ele>1789</ele>
        <time>2021-08-11T09:04:35.443Z</time>
      </trkpt>
      <trkpt lat="46.88644" lon="8.53738">
        <ele>1789</ele>
        <time>2021-08-11T09:04:36.444Z</time>
      </trkpt>
      <trkpt lat="46.88644" lon="8.53737">
        <ele>1789</ele>
        <time>2021-08-11T09:04:37.444Z</time>
      </trkpt>
      <trkpt lat="46.88644" lon="8.53736">
        <ele>1790</ele>
        <time>2021-08-11T09:04:38.443Z</time>
      </trkpt>
      <trkpt lat="46.88644" lon="8.53736">
        <ele>1790</ele>
        <time>2021-08-11T09:04:39.444Z</time>
      </trkpt>
      <trkpt lat="46.88644" lon="8.53735">
        <ele>1790</ele>
        <time>2021-08-11T09:04:40.444Z</time>
      </trkpt>
      <trkpt lat="46.88644" lon="8.53735">
        <ele>1790</ele>
        <time>2021-08-11T09:04:41.444Z</time>
      </trkpt>
      <trkpt lat="46.88645" lon="8.53734">
        <ele>1790</ele>
        <time>2021-08-11T09:04:42.443Z</time>
      </trkpt>
      <trkpt lat="46.88645" lon="8.53734">
        <ele>1790</ele>
        <time>2021-08-11T09:04:43.444Z</time>
      </trkpt>
      <trkpt lat="46.88646" lon="8.53733">
        <ele>1790</ele>
        <time>2021-08-11T09:04:44.443Z</time>
      </trkpt>
      <trkpt lat="46.88645" lon="8.53733">
        <ele>1790</ele>
        <time>2021-08-11T09:04:45.443Z</time>
      </trkpt>
      <trkpt lat="46.88645" lon="8.53732">
        <ele>1790</ele>
        <time>2021-08-11T09:04:46.444Z</time>
      </trkpt>
      <trkpt lat="46.88644" lon="8.53731">
        <ele>1790</ele>
        <time>2021-08-11T09:04:47.444Z</time>
      </trkpt>
      <trkpt lat="46.88643" lon="8.5373">
        <ele>1790</ele>
        <time>2021-08-11T09:04:48.444Z</time>
      </trkpt>
      <trkpt lat="46.88643" lon="8.53729">
        <ele>1791</ele>
        <time>2021-08-11T09:04:49.444Z</time>
      </trkpt>
      <trkpt lat="46.88642" lon="8.53728">
        <ele>1791</ele>
        <time>2021-08-11T09:04:50.443Z</time>
      </trkpt>
      <trkpt lat="46.88641" lon="8.53728">
        <ele>1792</ele>
        <time>2021-08-11T09:04:51.444Z</time>
      </trkpt>
      <trkpt lat="46.88641" lon="8.53728">
        <ele>1792</ele>
        <time>2021-08-11T09:04:52.444Z</time>
      </trkpt>
      <trkpt lat="46.8864" lon="8.53727">
        <ele>1792</ele>
        <time>2021-08-11T09:04:53.444Z</time>
      </trkpt>
      <trkpt lat="46.8864" lon="8.53727">
        <ele>1792</ele>
        <time>2021-08-11T09:04:54.444Z</time>
      </trkpt>
      <trkpt lat="46.8864" lon="8.53727">
        <ele>1792</ele>
        <time>2021-08-11T09:04:55.443Z</time>
      </trkpt>
      <trkpt lat="46.88638" lon="8.53727">
        <ele>1791</ele>
        <time>2021-08-11T09:04:56.444Z</time>
      </trkpt>
      <trkpt lat="46.88638" lon="8.53726">
        <ele>1791</ele>
        <time>2021-08-11T09:04:57.444Z</time>
      </trkpt>
      <trkpt lat="46.88637" lon="8.53725">
        <ele>1791</ele>
        <time>2021-08-11T09:04:58.443Z</time>
      </trkpt>
      <trkpt lat="46.88637" lon="8.53725">
        <ele>1791</ele>
        <time>2021-08-11T09:04:59.444Z</time>
      </trkpt>
      <trkpt lat="46.88636" lon="8.53725">
        <ele>1791</ele>
        <time>2021-08-11T09:05:00.444Z</time>
      </trkpt>
      <trkpt lat="46.88635" lon="8.53726">
        <ele>1791</ele>
        <time>2021-08-11T09:05:01.443Z</time>
      </trkpt>
      <trkpt lat="46.88635" lon="8.53725">
        <ele>1791</ele>
        <time>2021-08-11T09:05:02.444Z</time>
      </trkpt>
      <trkpt lat="46.88635" lon="8.53725">
        <ele>1791</ele>
        <time>2021-08-11T09:05:03.444Z</time>
      </trkpt>
      <trkpt lat="46.88634" lon="8.53726">
        <ele>1791</ele>
        <time>2021-08-11T09:05:04.444Z</time>
      </trkpt>
      <trkpt lat="46.88634" lon="8.53727">
        <ele>1791</ele>
        <time>2021-08-11T09:05:05.444Z</time>
      </trkpt>
      <trkpt lat="46.88634" lon="8.53727">
        <ele>1791</ele>
        <time>2021-08-11T09:05:06.443Z</time>
      </trkpt>
      <trkpt lat="46.88633" lon="8.53727">
        <ele>1792</ele>
        <time>2021-08-11T09:05:07.443Z</time>
      </trkpt>
      <trkpt lat="46.88633" lon="8.53727">
        <ele>1791</ele>
        <time>2021-08-11T09:05:08.443Z</time>
      </trkpt>
      <trkpt lat="46.88633" lon="8.53726">
        <ele>1791</ele>
        <time>2021-08-11T09:05:09.444Z</time>
      </trkpt>
      <trkpt lat="46.88632" lon="8.53726">
        <ele>1791</ele>
        <time>2021-08-11T09:05:10.444Z</time>
      </trkpt>
      <trkpt lat="46.88632" lon="8.53727">
        <ele>1791</ele>
        <time>2021-08-11T09:05:11.443Z</time>
      </trkpt>
      <trkpt lat="46.88632" lon="8.53727">
        <ele>1791</ele>
        <time>2021-08-11T09:05:12.444Z</time>
      </trkpt>
      <trkpt lat="46.88631" lon="8.53727">
        <ele>1792</ele>
        <time>2021-08-11T09:05:13.443Z</time>
      </trkpt>
      <trkpt lat="46.88631" lon="8.53727">
        <ele>1792</ele>
        <time>2021-08-11T09:05:14.443Z</time>
      </trkpt>
      <trkpt lat="46.88631" lon="8.53727">
        <ele>1792</ele>
        <time>2021-08-11T09:05:15.444Z</time>
      </trkpt>
      <trkpt lat="46.8863" lon="8.53726">
        <ele>1792</ele>
        <time>2021-08-11T09:05:16.444Z</time>
      </trkpt>
      <trkpt lat="46.8863" lon="8.53726">
        <ele>1792</ele>
        <time>2021-08-11T09:05:17.444Z</time>
      </trkpt>
      <trkpt lat="46.8863" lon="8.53726">
        <ele>1791</ele>
        <time>2021-08-11T09:05:18.444Z</time>
      </trkpt>
      <trkpt lat="46.88629" lon="8.53725">
        <ele>1791</ele>
        <time>2021-08-11T09:05:19.443Z</time>
      </trkpt>
      <trkpt lat="46.88629" lon="8.53725">
        <ele>1791</ele>
        <time>2021-08-11T09:05:20.444Z</time>
      </trkpt>
      <trkpt lat="46.88628" lon="8.53724">
        <ele>1792</ele>
        <time>2021-08-11T09:05:21.444Z</time>
      </trkpt>
      <trkpt lat="46.88628" lon="8.53724">
        <ele>1792</ele>
        <time>2021-08-11T09:05:22.444Z</time>
      </trkpt>
      <trkpt lat="46.88628" lon="8.53724">
        <ele>1792</ele>
        <time>2021-08-11T09:05:23.444Z</time>
      </trkpt>
      <trkpt lat="46.88628" lon="8.53723">
        <ele>1792</ele>
        <time>2021-08-11T09:05:24.444Z</time>
      </trkpt>
      <trkpt lat="46.88628" lon="8.53723">
        <ele>1791</ele>
        <time>2021-08-11T09:05:25.444Z</time>
      </trkpt>
      <trkpt lat="46.88628" lon="8.53723">
        <ele>1792</ele>
        <time>2021-08-11T09:05:26.444Z</time>
      </trkpt>
      <trkpt lat="46.88627" lon="8.53722">
        <ele>1792</ele>
        <time>2021-08-11T09:05:27.445Z</time>
      </trkpt>
      <trkpt lat="46.88626" lon="8.53721">
        <ele>1793</ele>
        <time>2021-08-11T09:05:28.444Z</time>
      </trkpt>
      <trkpt lat="46.88624" lon="8.53721">
        <ele>1794</ele>
        <time>2021-08-11T09:05:29.445Z</time>
      </trkpt>
      <trkpt lat="46.88623" lon="8.53721">
        <ele>1795</ele>
        <time>2021-08-11T09:05:30.445Z</time>
      </trkpt>
      <trkpt lat="46.88622" lon="8.53722">
        <ele>1796</ele>
        <time>2021-08-11T09:05:31.445Z</time>
      </trkpt>
      <trkpt lat="46.88622" lon="8.53721">
        <ele>1797</ele>
        <time>2021-08-11T09:05:32.445Z</time>
      </trkpt>
      <trkpt lat="46.88622" lon="8.5372">
        <ele>1797</ele>
        <time>2021-08-11T09:05:33.444Z</time>
      </trkpt>
      <trkpt lat="46.88622" lon="8.5372">
        <ele>1797</ele>
        <time>2021-08-11T09:05:34.444Z</time>
      </trkpt>
      <trkpt lat="46.88622" lon="8.53721">
        <ele>1797</ele>
        <time>2021-08-11T09:05:35.444Z</time>
      </trkpt>
      <trkpt lat="46.88621" lon="8.53721">
        <ele>1797</ele>
        <time>2021-08-11T09:05:36.445Z</time>
      </trkpt>
      <trkpt lat="46.88621" lon="8.5372">
        <ele>1797</ele>
        <time>2021-08-11T09:05:37.445Z</time>
      </trkpt>
      <trkpt lat="46.88621" lon="8.5372">
        <ele>1796</ele>
        <time>2021-08-11T09:05:38.444Z</time>
      </trkpt>
      <trkpt lat="46.8862" lon="8.5372">
        <ele>1795</ele>
        <time>2021-08-11T09:05:39.445Z</time>
      </trkpt>
      <trkpt lat="46.88619" lon="8.5372">
        <ele>1796</ele>
        <time>2021-08-11T09:05:40.444Z</time>
      </trkpt>
      <trkpt lat="46.88619" lon="8.5372">
        <ele>1796</ele>
        <time>2021-08-11T09:05:41.445Z</time>
      </trkpt>
      <trkpt lat="46.88619" lon="8.53719">
        <ele>1797</ele>
        <time>2021-08-11T09:05:42.445Z</time>
      </trkpt>
      <trkpt lat="46.88619" lon="8.53719">
        <ele>1798</ele>
        <time>2021-08-11T09:05:43.445Z</time>
      </trkpt>
      <trkpt lat="46.88619" lon="8.53719">
        <ele>1798</ele>
        <time>2021-08-11T09:05:44.445Z</time>
      </trkpt>
      <trkpt lat="46.88619" lon="8.53716">
        <ele>1799</ele>
        <time>2021-08-11T09:05:45.444Z</time>
      </trkpt>
      <trkpt lat="46.88619" lon="8.53716">
        <ele>1798</ele>
        <time>2021-08-11T09:05:46.445Z</time>
      </trkpt>
      <trkpt lat="46.88619" lon="8.53716">
        <ele>1797</ele>
        <time>2021-08-11T09:05:47.444Z</time>
      </trkpt>
      <trkpt lat="46.88619" lon="8.53716">
        <ele>1796</ele>
        <time>2021-08-11T09:05:48.445Z</time>
      </trkpt>
      <trkpt lat="46.88619" lon="8.53716">
        <ele>1796</ele>
        <time>2021-08-11T09:05:49.445Z</time>
      </trkpt>
      <trkpt lat="46.88618" lon="8.53716">
        <ele>1795</ele>
        <time>2021-08-11T09:05:50.445Z</time>
      </trkpt>
      <trkpt lat="46.88618" lon="8.53716">
        <ele>1795</ele>
        <time>2021-08-11T09:05:51.445Z</time>
      </trkpt>
      <trkpt lat="46.88618" lon="8.53717">
        <ele>1794</ele>
        <time>2021-08-11T09:05:52.444Z</time>
      </trkpt>
      <trkpt lat="46.88618" lon="8.53717">
        <ele>1794</ele>
        <time>2021-08-11T09:05:53.445Z</time>
      </trkpt>
      <trkpt lat="46.88617" lon="8.53716">
        <ele>1793</ele>
        <time>2021-08-11T09:05:54.445Z</time>
      </trkpt>
      <trkpt lat="46.88617" lon="8.53717">
        <ele>1793</ele>
        <time>2021-08-11T09:05:55.445Z</time>
      </trkpt>
      <trkpt lat="46.88617" lon="8.53718">
        <ele>1793</ele>
        <time>2021-08-11T09:05:56.445Z</time>
      </trkpt>
      <trkpt lat="46.88617" lon="8.53718">
        <ele>1794</ele>
        <time>2021-08-11T09:05:57.445Z</time>
      </trkpt>
      <trkpt lat="46.88618" lon="8.53718">
        <ele>1795</ele>
        <time>2021-08-11T09:05:58.445Z</time>
      </trkpt>
      <trkpt lat="46.88618" lon="8.53717">
        <ele>1795</ele>
        <time>2021-08-11T09:05:59.444Z</time>
      </trkpt>
      <trkpt lat="46.88618" lon="8.53717">
        <ele>1796</ele>
        <time>2021-08-11T09:06:00.445Z</time>
      </trkpt>
      <trkpt lat="46.88618" lon="8.53717">
        <ele>1796</ele>
        <time>2021-08-11T09:06:01.445Z</time>
      </trkpt>
      <trkpt lat="46.88619" lon="8.53716">
        <ele>1796</ele>
        <time>2021-08-11T09:06:02.445Z</time>
      </trkpt>
      <trkpt lat="46.8862" lon="8.53716">
        <ele>1796</ele>
        <time>2021-08-11T09:06:03.445Z</time>
      </trkpt>
      <trkpt lat="46.8862" lon="8.53715">
        <ele>1796</ele>
        <time>2021-08-11T09:06:04.445Z</time>
      </trkpt>
      <trkpt lat="46.88621" lon="8.53715">
        <ele>1797</ele>
        <time>2021-08-11T09:06:05.444Z</time>
      </trkpt>
      <trkpt lat="46.88621" lon="8.53714">
        <ele>1798</ele>
        <time>2021-08-11T09:06:06.444Z</time>
      </trkpt>
      <trkpt lat="46.88621" lon="8.53713">
        <ele>1798</ele>
        <time>2021-08-11T09:06:07.445Z</time>
      </trkpt>
      <trkpt lat="46.88622" lon="8.53713">
        <ele>1798</ele>
        <time>2021-08-11T09:06:08.444Z</time>
      </trkpt>
      <trkpt lat="46.88622" lon="8.53712">
        <ele>1799</ele>
        <time>2021-08-11T09:06:09.444Z</time>
      </trkpt>
      <trkpt lat="46.88623" lon="8.53712">
        <ele>1799</ele>
        <time>2021-08-11T09:06:10.445Z</time>
      </trkpt>
      <trkpt lat="46.88623" lon="8.53712">
        <ele>1799</ele>
        <time>2021-08-11T09:06:11.445Z</time>
      </trkpt>
      <trkpt lat="46.88623" lon="8.53712">
        <ele>1799</ele>
        <time>2021-08-11T09:06:12.445Z</time>
      </trkpt>
      <trkpt lat="46.88623" lon="8.53712">
        <ele>1799</ele>
        <time>2021-08-11T09:06:13.444Z</time>
      </trkpt>
      <trkpt lat="46.88624" lon="8.53712">
        <ele>1799</ele>
        <time>2021-08-11T09:06:14.444Z</time>
      </trkpt>
      <trkpt lat="46.88625" lon="8.53711">
        <ele>1799</ele>
        <time>2021-08-11T09:06:15.444Z</time>
      </trkpt>
      <trkpt lat="46.88625" lon="8.5371">
        <ele>1800</ele>
        <time>2021-08-11T09:06:16.445Z</time>
      </trkpt>
      <trkpt lat="46.88626" lon="8.53709">
        <ele>1804</ele>
        <time>2021-08-11T09:06:17.445Z</time>
      </trkpt>
      <trkpt lat="46.88627" lon="8.53709">
        <ele>1804</ele>
        <time>2021-08-11T09:06:18.445Z</time>
      </trkpt>
      <trkpt lat="46.88627" lon="8.53708">
        <ele>1804</ele>
        <time>2021-08-11T09:06:19.445Z</time>
      </trkpt>
      <trkpt lat="46.88627" lon="8.53708">
        <ele>1803</ele>
        <time>2021-08-11T09:06:20.445Z</time>
      </trkpt>
      <trkpt lat="46.88628" lon="8.53707">
        <ele>1803</ele>
        <time>2021-08-11T09:06:21.444Z</time>
      </trkpt>
      <trkpt lat="46.88628" lon="8.53707">
        <ele>1803</ele>
        <time>2021-08-11T09:06:22.444Z</time>
      </trkpt>
      <trkpt lat="46.88628" lon="8.53707">
        <ele>1803</ele>
        <time>2021-08-11T09:06:23.444Z</time>
      </trkpt>
      <trkpt lat="46.88628" lon="8.53706">
        <ele>1802</ele>
        <time>2021-08-11T09:06:24.444Z</time>
      </trkpt>
      <trkpt lat="46.88628" lon="8.53706">
        <ele>1801</ele>
        <time>2021-08-11T09:06:25.445Z</time>
      </trkpt>
      <trkpt lat="46.88629" lon="8.53706">
        <ele>1801</ele>
        <time>2021-08-11T09:06:26.445Z</time>
      </trkpt>
      <trkpt lat="46.88629" lon="8.53706">
        <ele>1802</ele>
        <time>2021-08-11T09:06:27.445Z</time>
      </trkpt>
      <trkpt lat="46.88629" lon="8.53706">
        <ele>1802</ele>
        <time>2021-08-11T09:06:28.445Z</time>
      </trkpt>
      <trkpt lat="46.8863" lon="8.53705">
        <ele>1803</ele>
        <time>2021-08-11T09:06:29.444Z</time>
      </trkpt>
      <trkpt lat="46.8863" lon="8.53705">
        <ele>1803</ele>
        <time>2021-08-11T09:06:30.444Z</time>
      </trkpt>
      <trkpt lat="46.8863" lon="8.53704">
        <ele>1804</ele>
        <time>2021-08-11T09:06:31.444Z</time>
      </trkpt>
      <trkpt lat="46.88631" lon="8.53703">
        <ele>1805</ele>
        <time>2021-08-11T09:06:32.444Z</time>
      </trkpt>
      <trkpt lat="46.88631" lon="8.53703">
        <ele>1805</ele>
        <time>2021-08-11T09:06:33.444Z</time>
      </trkpt>
      <trkpt lat="46.88632" lon="8.53702">
        <ele>1806</ele>
        <time>2021-08-11T09:06:34.444Z</time>
      </trkpt>
      <trkpt lat="46.88633" lon="8.53702">
        <ele>1806</ele>
        <time>2021-08-11T09:06:35.444Z</time>
      </trkpt>
      <trkpt lat="46.88633" lon="8.53701">
        <ele>1807</ele>
        <time>2021-08-11T09:06:36.445Z</time>
      </trkpt>
      <trkpt lat="46.88633" lon="8.53701">
        <ele>1807</ele>
        <time>2021-08-11T09:06:37.445Z</time>
      </trkpt>
      <trkpt lat="46.88634" lon="8.537">
        <ele>1808</ele>
        <time>2021-08-11T09:06:38.444Z</time>
      </trkpt>
      <trkpt lat="46.88634" lon="8.53699">
        <ele>1808</ele>
        <time>2021-08-11T09:06:39.445Z</time>
      </trkpt>
      <trkpt lat="46.88634" lon="8.53699">
        <ele>1808</ele>
        <time>2021-08-11T09:06:40.444Z</time>
      </trkpt>
      <trkpt lat="46.88634" lon="8.53699">
        <ele>1808</ele>
        <time>2021-08-11T09:06:41.444Z</time>
      </trkpt>
      <trkpt lat="46.88635" lon="8.53699">
        <ele>1809</ele>
        <time>2021-08-11T09:06:42.444Z</time>
      </trkpt>
      <trkpt lat="46.88635" lon="8.53699">
        <ele>1808</ele>
        <time>2021-08-11T09:06:43.444Z</time>
      </trkpt>
      <trkpt lat="46.88634" lon="8.537">
        <ele>1808</ele>
        <time>2021-08-11T09:06:44.445Z</time>
      </trkpt>
      <trkpt lat="46.88634" lon="8.537">
        <ele>1808</ele>
        <time>2021-08-11T09:06:45.444Z</time>
      </trkpt>
      <trkpt lat="46.88635" lon="8.53699">
        <ele>1808</ele>
        <time>2021-08-11T09:06:46.445Z</time>
      </trkpt>
      <trkpt lat="46.88636" lon="8.53699">
        <ele>1809</ele>
        <time>2021-08-11T09:06:47.444Z</time>
      </trkpt>
      <trkpt lat="46.88636" lon="8.53698">
        <ele>1809</ele>
        <time>2021-08-11T09:06:48.445Z</time>
      </trkpt>
      <trkpt lat="46.88636" lon="8.53697">
        <ele>1809</ele>
        <time>2021-08-11T09:06:49.444Z</time>
      </trkpt>
      <trkpt lat="46.88637" lon="8.53697">
        <ele>1809</ele>
        <time>2021-08-11T09:06:50.444Z</time>
      </trkpt>
      <trkpt lat="46.88637" lon="8.53697">
        <ele>1809</ele>
        <time>2021-08-11T09:06:51.445Z</time>
      </trkpt>
      <trkpt lat="46.88637" lon="8.53696">
        <ele>1809</ele>
        <time>2021-08-11T09:06:52.444Z</time>
      </trkpt>
      <trkpt lat="46.88638" lon="8.53696">
        <ele>1809</ele>
        <time>2021-08-11T09:06:53.445Z</time>
      </trkpt>
      <trkpt lat="46.88638" lon="8.53696">
        <ele>1809</ele>
        <time>2021-08-11T09:06:54.445Z</time>
      </trkpt>
      <trkpt lat="46.88639" lon="8.53696">
        <ele>1808</ele>
        <time>2021-08-11T09:06:55.445Z</time>
      </trkpt>
      <trkpt lat="46.88639" lon="8.53695">
        <ele>1808</ele>
        <time>2021-08-11T09:06:56.445Z</time>
      </trkpt>
      <trkpt lat="46.88639" lon="8.53695">
        <ele>1808</ele>
        <time>2021-08-11T09:06:57.445Z</time>
      </trkpt>
      <trkpt lat="46.88639" lon="8.53694">
        <ele>1808</ele>
        <time>2021-08-11T09:06:58.445Z</time>
      </trkpt>
      <trkpt lat="46.8864" lon="8.53694">
        <ele>1808</ele>
        <time>2021-08-11T09:06:59.444Z</time>
      </trkpt>
      <trkpt lat="46.8864" lon="8.53694">
        <ele>1809</ele>
        <time>2021-08-11T09:07:00.445Z</time>
      </trkpt>
      <trkpt lat="46.8864" lon="8.53693">
        <ele>1809</ele>
        <time>2021-08-11T09:07:01.445Z</time>
      </trkpt>
      <trkpt lat="46.8864" lon="8.53693">
        <ele>1809</ele>
        <time>2021-08-11T09:07:02.444Z</time>
      </trkpt>
      <trkpt lat="46.8864" lon="8.53692">
        <ele>1809</ele>
        <time>2021-08-11T09:07:03.445Z</time>
      </trkpt>
      <trkpt lat="46.8864" lon="8.53692">
        <ele>1809</ele>
        <time>2021-08-11T09:07:04.445Z</time>
      </trkpt>
      <trkpt lat="46.88639" lon="8.5369">
        <ele>1812</ele>
        <time>2021-08-11T09:07:05.446Z</time>
      </trkpt>
      <trkpt lat="46.88638" lon="8.5369">
        <ele>1812</ele>
        <time>2021-08-11T09:07:06.446Z</time>
      </trkpt>
      <trkpt lat="46.88638" lon="8.5369">
        <ele>1812</ele>
        <time>2021-08-11T09:07:07.445Z</time>
      </trkpt>
      <trkpt lat="46.8864" lon="8.5369">
        <ele>1811</ele>
        <time>2021-08-11T09:07:08.446Z</time>
      </trkpt>
      <trkpt lat="46.8864" lon="8.5369">
        <ele>1811</ele>
        <time>2021-08-11T09:07:09.445Z</time>
      </trkpt>
      <trkpt lat="46.8864" lon="8.5369">
        <ele>1811</ele>
        <time>2021-08-11T09:07:10.446Z</time>
      </trkpt>
      <trkpt lat="46.8864" lon="8.5369">
        <ele>1811</ele>
        <time>2021-08-11T09:07:11.445Z</time>
      </trkpt>
      <trkpt lat="46.88641" lon="8.5369">
        <ele>1811</ele>
        <time>2021-08-11T09:07:12.445Z</time>
      </trkpt>
      <trkpt lat="46.88641" lon="8.5369">
        <ele>1810</ele>
        <time>2021-08-11T09:07:13.446Z</time>
      </trkpt>
      <trkpt lat="46.88641" lon="8.5369">
        <ele>1810</ele>
        <time>2021-08-11T09:07:14.446Z</time>
      </trkpt>
      <trkpt lat="46.88642" lon="8.53689">
        <ele>1810</ele>
        <time>2021-08-11T09:07:15.445Z</time>
      </trkpt>
      <trkpt lat="46.88642" lon="8.53689">
        <ele>1810</ele>
        <time>2021-08-11T09:07:16.445Z</time>
      </trkpt>
      <trkpt lat="46.88642" lon="8.53689">
        <ele>1810</ele>
        <time>2021-08-11T09:07:17.445Z</time>
      </trkpt>
      <trkpt lat="46.88643" lon="8.53689">
        <ele>1810</ele>
        <time>2021-08-11T09:07:18.445Z</time>
      </trkpt>
      <trkpt lat="46.88643" lon="8.53689">
        <ele>1810</ele>
        <time>2021-08-11T09:07:19.445Z</time>
      </trkpt>
      <trkpt lat="46.88643" lon="8.53689">
        <ele>1810</ele>
        <time>2021-08-11T09:07:20.446Z</time>
      </trkpt>
      <trkpt lat="46.88644" lon="8.53688">
        <ele>1811</ele>
        <time>2021-08-11T09:07:21.446Z</time>
      </trkpt>
      <trkpt lat="46.88644" lon="8.53688">
        <ele>1811</ele>
        <time>2021-08-11T09:07:22.446Z</time>
      </trkpt>
      <trkpt lat="46.88644" lon="8.53688">
        <ele>1812</ele>
        <time>2021-08-11T09:07:23.445Z</time>
      </trkpt>
      <trkpt lat="46.88644" lon="8.53689">
        <ele>1812</ele>
        <time>2021-08-11T09:07:24.445Z</time>
      </trkpt>
      <trkpt lat="46.88644" lon="8.53689">
        <ele>1812</ele>
        <time>2021-08-11T09:07:25.446Z</time>
      </trkpt>
      <trkpt lat="46.88645" lon="8.53689">
        <ele>1814</ele>
        <time>2021-08-11T09:07:26.447Z</time>
      </trkpt>
      <trkpt lat="46.88645" lon="8.53689">
        <ele>1815</ele>
        <time>2021-08-11T09:07:27.447Z</time>
      </trkpt>
      <trkpt lat="46.88646" lon="8.53688">
        <ele>1815</ele>
        <time>2021-08-11T09:07:28.446Z</time>
      </trkpt>
      <trkpt lat="46.88646" lon="8.53688">
        <ele>1816</ele>
        <time>2021-08-11T09:07:29.446Z</time>
      </trkpt>
      <trkpt lat="46.88647" lon="8.53688">
        <ele>1816</ele>
        <time>2021-08-11T09:07:30.446Z</time>
      </trkpt>
      <trkpt lat="46.88647" lon="8.53688">
        <ele>1817</ele>
        <time>2021-08-11T09:07:31.448Z</time>
      </trkpt>
      <trkpt lat="46.88648" lon="8.53688">
        <ele>1818</ele>
        <time>2021-08-11T09:07:32.447Z</time>
      </trkpt>
      <trkpt lat="46.88648" lon="8.53688">
        <ele>1818</ele>
        <time>2021-08-11T09:07:33.448Z</time>
      </trkpt>
      <trkpt lat="46.88649" lon="8.53688">
        <ele>1819</ele>
        <time>2021-08-11T09:07:34.447Z</time>
      </trkpt>
      <trkpt lat="46.8865" lon="8.53687">
        <ele>1819</ele>
        <time>2021-08-11T09:07:35.448Z</time>
      </trkpt>
      <trkpt lat="46.8865" lon="8.53687">
        <ele>1818</ele>
        <time>2021-08-11T09:07:36.448Z</time>
      </trkpt>
      <trkpt lat="46.88651" lon="8.53686">
        <ele>1818</ele>
        <time>2021-08-11T09:07:37.448Z</time>
      </trkpt>
      <trkpt lat="46.88651" lon="8.53686">
        <ele>1818</ele>
        <time>2021-08-11T09:07:38.447Z</time>
      </trkpt>
      <trkpt lat="46.88651" lon="8.53687">
        <ele>1817</ele>
        <time>2021-08-11T09:07:39.448Z</time>
      </trkpt>
      <trkpt lat="46.88651" lon="8.53687">
        <ele>1817</ele>
        <time>2021-08-11T09:07:40.449Z</time>
      </trkpt>
      <trkpt lat="46.88651" lon="8.53687">
        <ele>1817</ele>
        <time>2021-08-11T09:07:41.449Z</time>
      </trkpt>
      <trkpt lat="46.88651" lon="8.53686">
        <ele>1819</ele>
        <time>2021-08-11T09:07:42.448Z</time>
      </trkpt>
      <trkpt lat="46.88652" lon="8.53686">
        <ele>1819</ele>
        <time>2021-08-11T09:07:43.449Z</time>
      </trkpt>
      <trkpt lat="46.88652" lon="8.53686">
        <ele>1819</ele>
        <time>2021-08-11T09:07:44.448Z</time>
      </trkpt>
      <trkpt lat="46.88653" lon="8.53685">
        <ele>1820</ele>
        <time>2021-08-11T09:07:45.448Z</time>
      </trkpt>
      <trkpt lat="46.88654" lon="8.53685">
        <ele>1820</ele>
        <time>2021-08-11T09:07:46.449Z</time>
      </trkpt>
      <trkpt lat="46.88654" lon="8.53684">
        <ele>1821</ele>
        <time>2021-08-11T09:07:47.449Z</time>
      </trkpt>
      <trkpt lat="46.88655" lon="8.53684">
        <ele>1821</ele>
        <time>2021-08-11T09:07:48.449Z</time>
      </trkpt>
      <trkpt lat="46.88656" lon="8.53684">
        <ele>1822</ele>
        <time>2021-08-11T09:07:49.449Z</time>
      </trkpt>
      <trkpt lat="46.88657" lon="8.53683">
        <ele>1822</ele>
        <time>2021-08-11T09:07:50.449Z</time>
      </trkpt>
      <trkpt lat="46.88657" lon="8.53683">
        <ele>1822</ele>
        <time>2021-08-11T09:07:51.448Z</time>
      </trkpt>
      <trkpt lat="46.88658" lon="8.53683">
        <ele>1821</ele>
        <time>2021-08-11T09:07:52.449Z</time>
      </trkpt>
      <trkpt lat="46.88659" lon="8.53683">
        <ele>1821</ele>
        <time>2021-08-11T09:07:53.449Z</time>
      </trkpt>
      <trkpt lat="46.88659" lon="8.53683">
        <ele>1820</ele>
        <time>2021-08-11T09:07:54.449Z</time>
      </trkpt>
      <trkpt lat="46.88659" lon="8.53683">
        <ele>1820</ele>
        <time>2021-08-11T09:07:55.449Z</time>
      </trkpt>
      <trkpt lat="46.8866" lon="8.53682">
        <ele>1818</ele>
        <time>2021-08-11T09:07:56.449Z</time>
      </trkpt>
      <trkpt lat="46.8866" lon="8.53682">
        <ele>1818</ele>
        <time>2021-08-11T09:07:57.449Z</time>
      </trkpt>
      <trkpt lat="46.88661" lon="8.53682">
        <ele>1818</ele>
        <time>2021-08-11T09:07:58.448Z</time>
      </trkpt>
      <trkpt lat="46.88661" lon="8.53682">
        <ele>1818</ele>
        <time>2021-08-11T09:07:59.449Z</time>
      </trkpt>
      <trkpt lat="46.88662" lon="8.53682">
        <ele>1819</ele>
        <time>2021-08-11T09:08:00.448Z</time>
      </trkpt>
      <trkpt lat="46.88662" lon="8.53683">
        <ele>1819</ele>
        <time>2021-08-11T09:08:01.448Z</time>
      </trkpt>
      <trkpt lat="46.88662" lon="8.53683">
        <ele>1819</ele>
        <time>2021-08-11T09:08:02.449Z</time>
      </trkpt>
      <trkpt lat="46.88663" lon="8.53682">
        <ele>1820</ele>
        <time>2021-08-11T09:08:03.449Z</time>
      </trkpt>
      <trkpt lat="46.88663" lon="8.53681">
        <ele>1820</ele>
        <time>2021-08-11T09:08:04.448Z</time>
      </trkpt>
      <trkpt lat="46.88663" lon="8.53681">
        <ele>1820</ele>
        <time>2021-08-11T09:08:05.449Z</time>
      </trkpt>
      <trkpt lat="46.88663" lon="8.53681">
        <ele>1820</ele>
        <time>2021-08-11T09:08:06.448Z</time>
      </trkpt>
      <trkpt lat="46.88664" lon="8.5368">
        <ele>1820</ele>
        <time>2021-08-11T09:08:07.450Z</time>
      </trkpt>
      <trkpt lat="46.88664" lon="8.5368">
        <ele>1819</ele>
        <time>2021-08-11T09:08:08.449Z</time>
      </trkpt>
      <trkpt lat="46.88664" lon="8.5368">
        <ele>1819</ele>
        <time>2021-08-11T09:08:09.449Z</time>
      </trkpt>
      <trkpt lat="46.88665" lon="8.5368">
        <ele>1819</ele>
        <time>2021-08-11T09:08:10.449Z</time>
      </trkpt>
      <trkpt lat="46.88665" lon="8.5368">
        <ele>1819</ele>
        <time>2021-08-11T09:08:11.450Z</time>
      </trkpt>
      <trkpt lat="46.88665" lon="8.5368">
        <ele>1819</ele>
        <time>2021-08-11T09:08:12.450Z</time>
      </trkpt>
      <trkpt lat="46.88666" lon="8.5368">
        <ele>1819</ele>
        <time>2021-08-11T09:08:13.450Z</time>
      </trkpt>
      <trkpt lat="46.88666" lon="8.5368">
        <ele>1819</ele>
        <time>2021-08-11T09:08:14.450Z</time>
      </trkpt>
      <trkpt lat="46.88667" lon="8.5368">
        <ele>1820</ele>
        <time>2021-08-11T09:08:15.450Z</time>
      </trkpt>
      <trkpt lat="46.88667" lon="8.5368">
        <ele>1820</ele>
        <time>2021-08-11T09:08:16.450Z</time>
      </trkpt>
      <trkpt lat="46.88668" lon="8.53679">
        <ele>1820</ele>
        <time>2021-08-11T09:08:17.450Z</time>
      </trkpt>
      <trkpt lat="46.88668" lon="8.53679">
        <ele>1820</ele>
        <time>2021-08-11T09:08:18.450Z</time>
      </trkpt>
      <trkpt lat="46.88669" lon="8.53679">
        <ele>1820</ele>
        <time>2021-08-11T09:08:19.450Z</time>
      </trkpt>
      <trkpt lat="46.88669" lon="8.53678">
        <ele>1821</ele>
        <time>2021-08-11T09:08:20.450Z</time>
      </trkpt>
      <trkpt lat="46.88669" lon="8.53678">
        <ele>1821</ele>
        <time>2021-08-11T09:08:21.449Z</time>
      </trkpt>
      <trkpt lat="46.88669" lon="8.53679">
        <ele>1822</ele>
        <time>2021-08-11T09:08:22.450Z</time>
      </trkpt>
      <trkpt lat="46.88671" lon="8.53677">
        <ele>1823</ele>
        <time>2021-08-11T09:08:23.450Z</time>
      </trkpt>
      <trkpt lat="46.88671" lon="8.53677">
        <ele>1823</ele>
        <time>2021-08-11T09:08:24.451Z</time>
      </trkpt>
      <trkpt lat="46.88672" lon="8.53677">
        <ele>1825</ele>
        <time>2021-08-11T09:08:25.450Z</time>
      </trkpt>
      <trkpt lat="46.88673" lon="8.53677">
        <ele>1825</ele>
        <time>2021-08-11T09:08:26.450Z</time>
      </trkpt>
      <trkpt lat="46.88674" lon="8.53676">
        <ele>1826</ele>
        <time>2021-08-11T09:08:27.450Z</time>
      </trkpt>
      <trkpt lat="46.88674" lon="8.53676">
        <ele>1826</ele>
        <time>2021-08-11T09:08:28.450Z</time>
      </trkpt>
      <trkpt lat="46.88674" lon="8.53677">
        <ele>1826</ele>
        <time>2021-08-11T09:08:29.450Z</time>
      </trkpt>
      <trkpt lat="46.88674" lon="8.53677">
        <ele>1826</ele>
        <time>2021-08-11T09:08:30.450Z</time>
      </trkpt>
      <trkpt lat="46.88674" lon="8.53678">
        <ele>1826</ele>
        <time>2021-08-11T09:08:31.450Z</time>
      </trkpt>
      <trkpt lat="46.88675" lon="8.53678">
        <ele>1826</ele>
        <time>2021-08-11T09:08:32.451Z</time>
      </trkpt>
      <trkpt lat="46.88675" lon="8.53678">
        <ele>1826</ele>
        <time>2021-08-11T09:08:33.450Z</time>
      </trkpt>
      <trkpt lat="46.88676" lon="8.53679">
        <ele>1826</ele>
        <time>2021-08-11T09:08:34.450Z</time>
      </trkpt>
      <trkpt lat="46.88676" lon="8.53679">
        <ele>1826</ele>
        <time>2021-08-11T09:08:35.450Z</time>
      </trkpt>
      <trkpt lat="46.88677" lon="8.5368">
        <ele>1826</ele>
        <time>2021-08-11T09:08:36.451Z</time>
      </trkpt>
      <trkpt lat="46.88677" lon="8.5368">
        <ele>1826</ele>
        <time>2021-08-11T09:08:37.451Z</time>
      </trkpt>
      <trkpt lat="46.88677" lon="8.53681">
        <ele>1826</ele>
        <time>2021-08-11T09:08:38.450Z</time>
      </trkpt>
      <trkpt lat="46.88677" lon="8.53681">
        <ele>1825</ele>
        <time>2021-08-11T09:08:39.450Z</time>
      </trkpt>
      <trkpt lat="46.88678" lon="8.53682">
        <ele>1825</ele>
        <time>2021-08-11T09:08:40.450Z</time>
      </trkpt>
      <trkpt lat="46.88678" lon="8.53682">
        <ele>1825</ele>
        <time>2021-08-11T09:08:41.451Z</time>
      </trkpt>
      <trkpt lat="46.88678" lon="8.53682">
        <ele>1824</ele>
        <time>2021-08-11T09:08:42.451Z</time>
      </trkpt>
      <trkpt lat="46.88679" lon="8.53682">
        <ele>1824</ele>
        <time>2021-08-11T09:08:43.450Z</time>
      </trkpt>
      <trkpt lat="46.8868" lon="8.53682">
        <ele>1824</ele>
        <time>2021-08-11T09:08:44.450Z</time>
      </trkpt>
      <trkpt lat="46.8868" lon="8.53683">
        <ele>1823</ele>
        <time>2021-08-11T09:08:45.450Z</time>
      </trkpt>
      <trkpt lat="46.8868" lon="8.53683">
        <ele>1823</ele>
        <time>2021-08-11T09:08:46.451Z</time>
      </trkpt>
      <trkpt lat="46.8868" lon="8.53682">
        <ele>1823</ele>
        <time>2021-08-11T09:08:47.451Z</time>
      </trkpt>
      <trkpt lat="46.8868" lon="8.53682">
        <ele>1823</ele>
        <time>2021-08-11T09:08:48.450Z</time>
      </trkpt>
      <trkpt lat="46.88681" lon="8.53681">
        <ele>1823</ele>
        <time>2021-08-11T09:08:49.450Z</time>
      </trkpt>
      <trkpt lat="46.88681" lon="8.5368">
        <ele>1823</ele>
        <time>2021-08-11T09:08:50.451Z</time>
      </trkpt>
      <trkpt lat="46.88682" lon="8.5368">
        <ele>1823</ele>
        <time>2021-08-11T09:08:51.451Z</time>
      </trkpt>
      <trkpt lat="46.88682" lon="8.53679">
        <ele>1823</ele>
        <time>2021-08-11T09:08:52.451Z</time>
      </trkpt>
      <trkpt lat="46.88683" lon="8.53679">
        <ele>1824</ele>
        <time>2021-08-11T09:08:53.450Z</time>
      </trkpt>
      <trkpt lat="46.88683" lon="8.53679">
        <ele>1824</ele>
        <time>2021-08-11T09:08:54.450Z</time>
      </trkpt>
      <trkpt lat="46.88683" lon="8.53678">
        <ele>1825</ele>
        <time>2021-08-11T09:08:55.451Z</time>
      </trkpt>
      <trkpt lat="46.88683" lon="8.53678">
        <ele>1825</ele>
        <time>2021-08-11T09:08:56.451Z</time>
      </trkpt>
      <trkpt lat="46.88683" lon="8.53678">
        <ele>1825</ele>
        <time>2021-08-11T09:08:57.450Z</time>
      </trkpt>
      <trkpt lat="46.88684" lon="8.53678">
        <ele>1826</ele>
        <time>2021-08-11T09:08:58.450Z</time>
      </trkpt>
      <trkpt lat="46.88684" lon="8.53678">
        <ele>1827</ele>
        <time>2021-08-11T09:08:59.451Z</time>
      </trkpt>
      <trkpt lat="46.88684" lon="8.53677">
        <ele>1827</ele>
        <time>2021-08-11T09:09:00.451Z</time>
      </trkpt>
      <trkpt lat="46.88684" lon="8.53677">
        <ele>1827</ele>
        <time>2021-08-11T09:09:01.452Z</time>
      </trkpt>
      <trkpt lat="46.88685" lon="8.53677">
        <ele>1828</ele>
        <time>2021-08-11T09:09:02.452Z</time>
      </trkpt>
      <trkpt lat="46.88686" lon="8.53676">
        <ele>1828</ele>
        <time>2021-08-11T09:09:03.452Z</time>
      </trkpt>
      <trkpt lat="46.88686" lon="8.53676">
        <ele>1829</ele>
        <time>2021-08-11T09:09:04.452Z</time>
      </trkpt>
      <trkpt lat="46.88686" lon="8.53676">
        <ele>1829</ele>
        <time>2021-08-11T09:09:05.452Z</time>
      </trkpt>
      <trkpt lat="46.88686" lon="8.53676">
        <ele>1829</ele>
        <time>2021-08-11T09:09:06.452Z</time>
      </trkpt>
      <trkpt lat="46.88687" lon="8.53675">
        <ele>1829</ele>
        <time>2021-08-11T09:09:07.452Z</time>
      </trkpt>
      <trkpt lat="46.88688" lon="8.53675">
        <ele>1829</ele>
        <time>2021-08-11T09:09:08.452Z</time>
      </trkpt>
      <trkpt lat="46.88688" lon="8.53675">
        <ele>1829</ele>
        <time>2021-08-11T09:09:09.452Z</time>
      </trkpt>
      <trkpt lat="46.88688" lon="8.53676">
        <ele>1829</ele>
        <time>2021-08-11T09:09:10.451Z</time>
      </trkpt>
      <trkpt lat="46.88689" lon="8.53676">
        <ele>1829</ele>
        <time>2021-08-11T09:09:11.452Z</time>
      </trkpt>
      <trkpt lat="46.88689" lon="8.53676">
        <ele>1829</ele>
        <time>2021-08-11T09:09:12.452Z</time>
      </trkpt>
      <trkpt lat="46.8869" lon="8.53676">
        <ele>1829</ele>
        <time>2021-08-11T09:09:13.452Z</time>
      </trkpt>
      <trkpt lat="46.8869" lon="8.53676">
        <ele>1829</ele>
        <time>2021-08-11T09:09:14.452Z</time>
      </trkpt>
      <trkpt lat="46.8869" lon="8.53675">
        <ele>1829</ele>
        <time>2021-08-11T09:09:15.451Z</time>
      </trkpt>
      <trkpt lat="46.8869" lon="8.53675">
        <ele>1829</ele>
        <time>2021-08-11T09:09:16.451Z</time>
      </trkpt>
      <trkpt lat="46.8869" lon="8.53674">
        <ele>1829</ele>
        <time>2021-08-11T09:09:17.452Z</time>
      </trkpt>
      <trkpt lat="46.88689" lon="8.53673">
        <ele>1829</ele>
        <time>2021-08-11T09:09:18.452Z</time>
      </trkpt>
      <trkpt lat="46.88689" lon="8.53673">
        <ele>1830</ele>
        <time>2021-08-11T09:09:19.452Z</time>
      </trkpt>
      <trkpt lat="46.88688" lon="8.53672">
        <ele>1830</ele>
        <time>2021-08-11T09:09:20.452Z</time>
      </trkpt>
      <trkpt lat="46.88688" lon="8.53671">
        <ele>1830</ele>
        <time>2021-08-11T09:09:21.451Z</time>
      </trkpt>
      <trkpt lat="46.88687" lon="8.53671">
        <ele>1829</ele>
        <time>2021-08-11T09:09:22.452Z</time>
      </trkpt>
      <trkpt lat="46.88687" lon="8.5367">
        <ele>1829</ele>
        <time>2021-08-11T09:09:23.452Z</time>
      </trkpt>
      <trkpt lat="46.88687" lon="8.5367">
        <ele>1829</ele>
        <time>2021-08-11T09:09:24.452Z</time>
      </trkpt>
      <trkpt lat="46.88687" lon="8.5367">
        <ele>1829</ele>
        <time>2021-08-11T09:09:25.452Z</time>
      </trkpt>
      <trkpt lat="46.88686" lon="8.53669">
        <ele>1829</ele>
        <time>2021-08-11T09:09:26.451Z</time>
      </trkpt>
      <trkpt lat="46.88686" lon="8.53669">
        <ele>1829</ele>
        <time>2021-08-11T09:09:27.452Z</time>
      </trkpt>
      <trkpt lat="46.88686" lon="8.53668">
        <ele>1829</ele>
        <time>2021-08-11T09:09:28.452Z</time>
      </trkpt>
      <trkpt lat="46.88686" lon="8.53668">
        <ele>1829</ele>
        <time>2021-08-11T09:09:29.452Z</time>
      </trkpt>
      <trkpt lat="46.88686" lon="8.53668">
        <ele>1828</ele>
        <time>2021-08-11T09:09:30.452Z</time>
      </trkpt>
      <trkpt lat="46.88686" lon="8.53667">
        <ele>1828</ele>
        <time>2021-08-11T09:09:31.452Z</time>
      </trkpt>
      <trkpt lat="46.88686" lon="8.53667">
        <ele>1828</ele>
        <time>2021-08-11T09:09:32.451Z</time>
      </trkpt>
      <trkpt lat="46.88686" lon="8.53666">
        <ele>1828</ele>
        <time>2021-08-11T09:09:33.452Z</time>
      </trkpt>
      <trkpt lat="46.88687" lon="8.53666">
        <ele>1828</ele>
        <time>2021-08-11T09:09:34.451Z</time>
      </trkpt>
      <trkpt lat="46.88687" lon="8.53665">
        <ele>1828</ele>
        <time>2021-08-11T09:09:35.452Z</time>
      </trkpt>
      <trkpt lat="46.88686" lon="8.53664">
        <ele>1828</ele>
        <time>2021-08-11T09:09:36.452Z</time>
      </trkpt>
      <trkpt lat="46.88685" lon="8.53664">
        <ele>1828</ele>
        <time>2021-08-11T09:09:37.453Z</time>
      </trkpt>
      <trkpt lat="46.88685" lon="8.53662">
        <ele>1829</ele>
        <time>2021-08-11T09:09:38.453Z</time>
      </trkpt>
      <trkpt lat="46.88684" lon="8.53662">
        <ele>1829</ele>
        <time>2021-08-11T09:09:39.453Z</time>
      </trkpt>
      <trkpt lat="46.88684" lon="8.53661">
        <ele>1830</ele>
        <time>2021-08-11T09:09:40.453Z</time>
      </trkpt>
      <trkpt lat="46.88684" lon="8.53661">
        <ele>1831</ele>
        <time>2021-08-11T09:09:41.453Z</time>
      </trkpt>
      <trkpt lat="46.88685" lon="8.53659">
        <ele>1832</ele>
        <time>2021-08-11T09:09:42.452Z</time>
      </trkpt>
      <trkpt lat="46.88685" lon="8.53661">
        <ele>1832</ele>
        <time>2021-08-11T09:09:43.453Z</time>
      </trkpt>
      <trkpt lat="46.88684" lon="8.53663">
        <ele>1832</ele>
        <time>2021-08-11T09:09:44.453Z</time>
      </trkpt>
      <trkpt lat="46.88684" lon="8.53663">
        <ele>1832</ele>
        <time>2021-08-11T09:09:45.453Z</time>
      </trkpt>
      <trkpt lat="46.88684" lon="8.53664">
        <ele>1833</ele>
        <time>2021-08-11T09:09:46.452Z</time>
      </trkpt>
      <trkpt lat="46.88684" lon="8.53661">
        <ele>1832</ele>
        <time>2021-08-11T09:09:47.454Z</time>
      </trkpt>
      <trkpt lat="46.88684" lon="8.53661">
        <ele>1832</ele>
        <time>2021-08-11T09:09:48.454Z</time>
      </trkpt>
      <trkpt lat="46.88685" lon="8.53661">
        <ele>1832</ele>
        <time>2021-08-11T09:09:49.454Z</time>
      </trkpt>
      <trkpt lat="46.88685" lon="8.5366">
        <ele>1833</ele>
        <time>2021-08-11T09:09:50.454Z</time>
      </trkpt>
      <trkpt lat="46.88684" lon="8.53658">
        <ele>1833</ele>
        <time>2021-08-11T09:09:51.454Z</time>
      </trkpt>
      <trkpt lat="46.88684" lon="8.53657">
        <ele>1833</ele>
        <time>2021-08-11T09:09:52.454Z</time>
      </trkpt>
      <trkpt lat="46.88683" lon="8.53657">
        <ele>1833</ele>
        <time>2021-08-11T09:09:53.455Z</time>
      </trkpt>
      <trkpt lat="46.88683" lon="8.53656">
        <ele>1833</ele>
        <time>2021-08-11T09:09:54.455Z</time>
      </trkpt>
      <trkpt lat="46.88683" lon="8.53655">
        <ele>1833</ele>
        <time>2021-08-11T09:09:55.454Z</time>
      </trkpt>
      <trkpt lat="46.88684" lon="8.53652">
        <ele>1833</ele>
        <time>2021-08-11T09:09:56.454Z</time>
      </trkpt>
      <trkpt lat="46.88684" lon="8.5365">
        <ele>1833</ele>
        <time>2021-08-11T09:09:57.455Z</time>
      </trkpt>
      <trkpt lat="46.88683" lon="8.5365">
        <ele>1833</ele>
        <time>2021-08-11T09:09:58.454Z</time>
      </trkpt>
      <trkpt lat="46.88683" lon="8.53649">
        <ele>1832</ele>
        <time>2021-08-11T09:09:59.455Z</time>
      </trkpt>
      <trkpt lat="46.88682" lon="8.53649">
        <ele>1832</ele>
        <time>2021-08-11T09:10:00.455Z</time>
      </trkpt>
      <trkpt lat="46.88682" lon="8.53649">
        <ele>1831</ele>
        <time>2021-08-11T09:10:01.454Z</time>
      </trkpt>
      <trkpt lat="46.88682" lon="8.53648">
        <ele>1831</ele>
        <time>2021-08-11T09:10:02.455Z</time>
      </trkpt>
      <trkpt lat="46.88681" lon="8.53648">
        <ele>1830</ele>
        <time>2021-08-11T09:10:03.454Z</time>
      </trkpt>
      <trkpt lat="46.88681" lon="8.53648">
        <ele>1830</ele>
        <time>2021-08-11T09:10:04.455Z</time>
      </trkpt>
      <trkpt lat="46.88681" lon="8.53647">
        <ele>1830</ele>
        <time>2021-08-11T09:10:05.455Z</time>
      </trkpt>
      <trkpt lat="46.8868" lon="8.53647">
        <ele>1830</ele>
        <time>2021-08-11T09:10:06.455Z</time>
      </trkpt>
      <trkpt lat="46.88679" lon="8.53646">
        <ele>1829</ele>
        <time>2021-08-11T09:10:07.454Z</time>
      </trkpt>
      <trkpt lat="46.88679" lon="8.53646">
        <ele>1829</ele>
        <time>2021-08-11T09:10:08.455Z</time>
      </trkpt>
      <trkpt lat="46.88678" lon="8.53645">
        <ele>1829</ele>
        <time>2021-08-11T09:10:09.455Z</time>
      </trkpt>
      <trkpt lat="46.88678" lon="8.53644">
        <ele>1829</ele>
        <time>2021-08-11T09:10:10.454Z</time>
      </trkpt>
      <trkpt lat="46.88678" lon="8.53644">
        <ele>1829</ele>
        <time>2021-08-11T09:10:11.455Z</time>
      </trkpt>
      <trkpt lat="46.88678" lon="8.53643">
        <ele>1829</ele>
        <time>2021-08-11T09:10:12.454Z</time>
      </trkpt>
      <trkpt lat="46.88678" lon="8.53642">
        <ele>1830</ele>
        <time>2021-08-11T09:10:13.455Z</time>
      </trkpt>
      <trkpt lat="46.88678" lon="8.53642">
        <ele>1831</ele>
        <time>2021-08-11T09:10:14.455Z</time>
      </trkpt>
      <trkpt lat="46.88678" lon="8.53641">
        <ele>1831</ele>
        <time>2021-08-11T09:10:15.455Z</time>
      </trkpt>
      <trkpt lat="46.88677" lon="8.5364">
        <ele>1832</ele>
        <time>2021-08-11T09:10:16.454Z</time>
      </trkpt>
      <trkpt lat="46.88677" lon="8.53639">
        <ele>1833</ele>
        <time>2021-08-11T09:10:17.454Z</time>
      </trkpt>
      <trkpt lat="46.88677" lon="8.53639">
        <ele>1834</ele>
        <time>2021-08-11T09:10:18.455Z</time>
      </trkpt>
      <trkpt lat="46.88677" lon="8.53639">
        <ele>1834</ele>
        <time>2021-08-11T09:10:19.454Z</time>
      </trkpt>
      <trkpt lat="46.88677" lon="8.53638">
        <ele>1834</ele>
        <time>2021-08-11T09:10:20.455Z</time>
      </trkpt>
      <trkpt lat="46.88677" lon="8.53638">
        <ele>1834</ele>
        <time>2021-08-11T09:10:21.454Z</time>
      </trkpt>
      <trkpt lat="46.88676" lon="8.53638">
        <ele>1835</ele>
        <time>2021-08-11T09:10:22.455Z</time>
      </trkpt>
      <trkpt lat="46.88676" lon="8.53639">
        <ele>1836</ele>
        <time>2021-08-11T09:10:23.454Z</time>
      </trkpt>
      <trkpt lat="46.88675" lon="8.53639">
        <ele>1836</ele>
        <time>2021-08-11T09:10:24.455Z</time>
      </trkpt>
      <trkpt lat="46.88674" lon="8.5364">
        <ele>1837</ele>
        <time>2021-08-11T09:10:25.456Z</time>
      </trkpt>
      <trkpt lat="46.88674" lon="8.5364">
        <ele>1836</ele>
        <time>2021-08-11T09:10:26.455Z</time>
      </trkpt>
      <trkpt lat="46.88674" lon="8.53639">
        <ele>1836</ele>
        <time>2021-08-11T09:10:27.456Z</time>
      </trkpt>
      <trkpt lat="46.88673" lon="8.53639">
        <ele>1836</ele>
        <time>2021-08-11T09:10:28.457Z</time>
      </trkpt>
      <trkpt lat="46.88672" lon="8.53639">
        <ele>1836</ele>
        <time>2021-08-11T09:10:29.457Z</time>
      </trkpt>
      <trkpt lat="46.88672" lon="8.53639">
        <ele>1837</ele>
        <time>2021-08-11T09:10:30.456Z</time>
      </trkpt>
      <trkpt lat="46.88672" lon="8.5364">
        <ele>1837</ele>
        <time>2021-08-11T09:10:31.457Z</time>
      </trkpt>
      <trkpt lat="46.88671" lon="8.5364">
        <ele>1837</ele>
        <time>2021-08-11T09:10:32.456Z</time>
      </trkpt>
      <trkpt lat="46.88671" lon="8.5364">
        <ele>1837</ele>
        <time>2021-08-11T09:10:33.457Z</time>
      </trkpt>
      <trkpt lat="46.88671" lon="8.5364">
        <ele>1837</ele>
        <time>2021-08-11T09:10:34.457Z</time>
      </trkpt>
      <trkpt lat="46.88671" lon="8.53639">
        <ele>1837</ele>
        <time>2021-08-11T09:10:35.458Z</time>
      </trkpt>
      <trkpt lat="46.8867" lon="8.53639">
        <ele>1839</ele>
        <time>2021-08-11T09:10:36.457Z</time>
      </trkpt>
      <trkpt lat="46.8867" lon="8.53639">
        <ele>1840</ele>
        <time>2021-08-11T09:10:37.458Z</time>
      </trkpt>
      <trkpt lat="46.88671" lon="8.53638">
        <ele>1843</ele>
        <time>2021-08-11T09:10:38.458Z</time>
      </trkpt>
      <trkpt lat="46.88672" lon="8.53637">
        <ele>1843</ele>
        <time>2021-08-11T09:10:39.458Z</time>
      </trkpt>
      <trkpt lat="46.88672" lon="8.53637">
        <ele>1844</ele>
        <time>2021-08-11T09:10:40.458Z</time>
      </trkpt>
      <trkpt lat="46.88672" lon="8.53637">
        <ele>1845</ele>
        <time>2021-08-11T09:10:41.458Z</time>
      </trkpt>
      <trkpt lat="46.88673" lon="8.53636">
        <ele>1845</ele>
        <time>2021-08-11T09:10:42.459Z</time>
      </trkpt>
      <trkpt lat="46.88673" lon="8.53636">
        <ele>1846</ele>
        <time>2021-08-11T09:10:43.459Z</time>
      </trkpt>
      <trkpt lat="46.88673" lon="8.53635">
        <ele>1846</ele>
        <time>2021-08-11T09:10:44.459Z</time>
      </trkpt>
      <trkpt lat="46.88673" lon="8.53634">
        <ele>1847</ele>
        <time>2021-08-11T09:10:45.459Z</time>
      </trkpt>
      <trkpt lat="46.88673" lon="8.53634">
        <ele>1847</ele>
        <time>2021-08-11T09:10:46.459Z</time>
      </trkpt>
      <trkpt lat="46.88673" lon="8.53634">
        <ele>1847</ele>
        <time>2021-08-11T09:10:47.458Z</time>
      </trkpt>
      <trkpt lat="46.88672" lon="8.53634">
        <ele>1847</ele>
        <time>2021-08-11T09:10:48.459Z</time>
      </trkpt>
      <trkpt lat="46.88672" lon="8.53634">
        <ele>1847</ele>
        <time>2021-08-11T09:10:49.459Z</time>
      </trkpt>
      <trkpt lat="46.88672" lon="8.53634">
        <ele>1847</ele>
        <time>2021-08-11T09:10:50.459Z</time>
      </trkpt>
      <trkpt lat="46.8867" lon="8.53633">
        <ele>1848</ele>
        <time>2021-08-11T09:10:51.460Z</time>
      </trkpt>
      <trkpt lat="46.8867" lon="8.53633">
        <ele>1848</ele>
        <time>2021-08-11T09:10:52.460Z</time>
      </trkpt>
      <trkpt lat="46.88669" lon="8.53632">
        <ele>1849</ele>
        <time>2021-08-11T09:10:53.459Z</time>
      </trkpt>
      <trkpt lat="46.88669" lon="8.53632">
        <ele>1849</ele>
        <time>2021-08-11T09:10:54.460Z</time>
      </trkpt>
      <trkpt lat="46.88669" lon="8.53632">
        <ele>1849</ele>
        <time>2021-08-11T09:10:55.460Z</time>
      </trkpt>
      <trkpt lat="46.88668" lon="8.53631">
        <ele>1849</ele>
        <time>2021-08-11T09:10:56.459Z</time>
      </trkpt>
      <trkpt lat="46.88668" lon="8.53631">
        <ele>1849</ele>
        <time>2021-08-11T09:10:57.460Z</time>
      </trkpt>
      <trkpt lat="46.88668" lon="8.53631">
        <ele>1849</ele>
        <time>2021-08-11T09:10:58.460Z</time>
      </trkpt>
      <trkpt lat="46.88668" lon="8.53629">
        <ele>1849</ele>
        <time>2021-08-11T09:10:59.461Z</time>
      </trkpt>
      <trkpt lat="46.88669" lon="8.53628">
        <ele>1849</ele>
        <time>2021-08-11T09:11:00.461Z</time>
      </trkpt>
      <trkpt lat="46.88669" lon="8.53628">
        <ele>1849</ele>
        <time>2021-08-11T09:11:01.460Z</time>
      </trkpt>
      <trkpt lat="46.88669" lon="8.53628">
        <ele>1850</ele>
        <time>2021-08-11T09:11:02.461Z</time>
      </trkpt>
      <trkpt lat="46.88666" lon="8.53625">
        <ele>1847</ele>
        <time>2021-08-11T09:11:03.462Z</time>
      </trkpt>
      <trkpt lat="46.88666" lon="8.53624">
        <ele>1847</ele>
        <time>2021-08-11T09:11:04.462Z</time>
      </trkpt>
      <trkpt lat="46.88665" lon="8.53624">
        <ele>1847</ele>
        <time>2021-08-11T09:11:05.461Z</time>
      </trkpt>
      <trkpt lat="46.88665" lon="8.53623">
        <ele>1848</ele>
        <time>2021-08-11T09:11:06.462Z</time>
      </trkpt>
      <trkpt lat="46.88664" lon="8.53623">
        <ele>1848</ele>
        <time>2021-08-11T09:11:07.461Z</time>
      </trkpt>
      <trkpt lat="46.88664" lon="8.53623">
        <ele>1849</ele>
        <time>2021-08-11T09:11:08.461Z</time>
      </trkpt>
      <trkpt lat="46.88663" lon="8.53622">
        <ele>1849</ele>
        <time>2021-08-11T09:11:09.462Z</time>
      </trkpt>
      <trkpt lat="46.88663" lon="8.53622">
        <ele>1849</ele>
        <time>2021-08-11T09:11:10.462Z</time>
      </trkpt>
      <trkpt lat="46.88662" lon="8.53622">
        <ele>1849</ele>
        <time>2021-08-11T09:11:11.462Z</time>
      </trkpt>
      <trkpt lat="46.88662" lon="8.53621">
        <ele>1848</ele>
        <time>2021-08-11T09:11:12.461Z</time>
      </trkpt>
      <trkpt lat="46.88661" lon="8.5362">
        <ele>1848</ele>
        <time>2021-08-11T09:11:13.461Z</time>
      </trkpt>
      <trkpt lat="46.88661" lon="8.5362">
        <ele>1848</ele>
        <time>2021-08-11T09:11:14.462Z</time>
      </trkpt>
      <trkpt lat="46.8866" lon="8.53619">
        <ele>1848</ele>
        <time>2021-08-11T09:11:15.462Z</time>
      </trkpt>
      <trkpt lat="46.8866" lon="8.53619">
        <ele>1849</ele>
        <time>2021-08-11T09:11:16.462Z</time>
      </trkpt>
      <trkpt lat="46.8866" lon="8.53619">
        <ele>1849</ele>
        <time>2021-08-11T09:11:17.461Z</time>
      </trkpt>
      <trkpt lat="46.8866" lon="8.53618">
        <ele>1849</ele>
        <time>2021-08-11T09:11:18.462Z</time>
      </trkpt>
      <trkpt lat="46.8866" lon="8.53618">
        <ele>1849</ele>
        <time>2021-08-11T09:11:19.462Z</time>
      </trkpt>
      <trkpt lat="46.8866" lon="8.53618">
        <ele>1850</ele>
        <time>2021-08-11T09:11:20.462Z</time>
      </trkpt>
      <trkpt lat="46.88661" lon="8.53618">
        <ele>1851</ele>
        <time>2021-08-11T09:11:21.462Z</time>
      </trkpt>
      <trkpt lat="46.88662" lon="8.53617">
        <ele>1851</ele>
        <time>2021-08-11T09:11:22.461Z</time>
      </trkpt>
      <trkpt lat="46.88663" lon="8.53617">
        <ele>1851</ele>
        <time>2021-08-11T09:11:23.462Z</time>
      </trkpt>
      <trkpt lat="46.88663" lon="8.53618">
        <ele>1852</ele>
        <time>2021-08-11T09:11:24.461Z</time>
      </trkpt>
      <trkpt lat="46.88664" lon="8.53618">
        <ele>1852</ele>
        <time>2021-08-11T09:11:25.462Z</time>
      </trkpt>
      <trkpt lat="46.88664" lon="8.53618">
        <ele>1853</ele>
        <time>2021-08-11T09:11:26.462Z</time>
      </trkpt>
      <trkpt lat="46.88666" lon="8.53618">
        <ele>1853</ele>
        <time>2021-08-11T09:11:27.462Z</time>
      </trkpt>
      <trkpt lat="46.88666" lon="8.53617">
        <ele>1854</ele>
        <time>2021-08-11T09:11:28.462Z</time>
      </trkpt>
      <trkpt lat="46.88667" lon="8.53617">
        <ele>1854</ele>
        <time>2021-08-11T09:11:29.462Z</time>
      </trkpt>
      <trkpt lat="46.88667" lon="8.53617">
        <ele>1855</ele>
        <time>2021-08-11T09:11:30.462Z</time>
      </trkpt>
      <trkpt lat="46.88666" lon="8.53616">
        <ele>1854</ele>
        <time>2021-08-11T09:11:31.462Z</time>
      </trkpt>
      <trkpt lat="46.88666" lon="8.53616">
        <ele>1854</ele>
        <time>2021-08-11T09:11:32.462Z</time>
      </trkpt>
      <trkpt lat="46.88665" lon="8.53616">
        <ele>1853</ele>
        <time>2021-08-11T09:11:33.462Z</time>
      </trkpt>
      <trkpt lat="46.88663" lon="8.53615">
        <ele>1854</ele>
        <time>2021-08-11T09:11:34.464Z</time>
      </trkpt>
      <trkpt lat="46.88663" lon="8.53615">
        <ele>1854</ele>
        <time>2021-08-11T09:11:35.463Z</time>
      </trkpt>
      <trkpt lat="46.88662" lon="8.53614">
        <ele>1855</ele>
        <time>2021-08-11T09:11:36.463Z</time>
      </trkpt>
      <trkpt lat="46.88661" lon="8.53614">
        <ele>1855</ele>
        <time>2021-08-11T09:11:37.464Z</time>
      </trkpt>
      <trkpt lat="46.88661" lon="8.53615">
        <ele>1856</ele>
        <time>2021-08-11T09:11:38.463Z</time>
      </trkpt>
      <trkpt lat="46.88661" lon="8.53614">
        <ele>1856</ele>
        <time>2021-08-11T09:11:39.464Z</time>
      </trkpt>
      <trkpt lat="46.88661" lon="8.53614">
        <ele>1857</ele>
        <time>2021-08-11T09:11:40.464Z</time>
      </trkpt>
      <trkpt lat="46.8866" lon="8.53613">
        <ele>1857</ele>
        <time>2021-08-11T09:11:41.464Z</time>
      </trkpt>
      <trkpt lat="46.8866" lon="8.53613">
        <ele>1857</ele>
        <time>2021-08-11T09:11:42.463Z</time>
      </trkpt>
      <trkpt lat="46.88659" lon="8.53613">
        <ele>1857</ele>
        <time>2021-08-11T09:11:43.464Z</time>
      </trkpt>
      <trkpt lat="46.88658" lon="8.53612">
        <ele>1858</ele>
        <time>2021-08-11T09:11:44.464Z</time>
      </trkpt>
      <trkpt lat="46.88658" lon="8.53611">
        <ele>1858</ele>
        <time>2021-08-11T09:11:45.463Z</time>
      </trkpt>
      <trkpt lat="46.88658" lon="8.53611">
        <ele>1858</ele>
        <time>2021-08-11T09:11:46.464Z</time>
      </trkpt>
      <trkpt lat="46.88658" lon="8.53611">
        <ele>1859</ele>
        <time>2021-08-11T09:11:47.463Z</time>
      </trkpt>
      <trkpt lat="46.88657" lon="8.53611">
        <ele>1859</ele>
        <time>2021-08-11T09:11:48.464Z</time>
      </trkpt>
      <trkpt lat="46.88657" lon="8.53611">
        <ele>1859</ele>
        <time>2021-08-11T09:11:49.464Z</time>
      </trkpt>
      <trkpt lat="46.88658" lon="8.53611">
        <ele>1859</ele>
        <time>2021-08-11T09:11:50.463Z</time>
      </trkpt>
      <trkpt lat="46.88658" lon="8.53611">
        <ele>1859</ele>
        <time>2021-08-11T09:11:51.463Z</time>
      </trkpt>
      <trkpt lat="46.88658" lon="8.53611">
        <ele>1859</ele>
        <time>2021-08-11T09:11:52.463Z</time>
      </trkpt>
      <trkpt lat="46.88657" lon="8.53612">
        <ele>1859</ele>
        <time>2021-08-11T09:11:53.463Z</time>
      </trkpt>
      <trkpt lat="46.88656" lon="8.53611">
        <ele>1859</ele>
        <time>2021-08-11T09:11:54.464Z</time>
      </trkpt>
      <trkpt lat="46.88655" lon="8.53611">
        <ele>1859</ele>
        <time>2021-08-11T09:11:55.464Z</time>
      </trkpt>
      <trkpt lat="46.88657" lon="8.5361">
        <ele>1861</ele>
        <time>2021-08-11T09:11:56.464Z</time>
      </trkpt>
      <trkpt lat="46.88658" lon="8.5361">
        <ele>1862</ele>
        <time>2021-08-11T09:11:57.464Z</time>
      </trkpt>
      <trkpt lat="46.88658" lon="8.53611">
        <ele>1863</ele>
        <time>2021-08-11T09:11:58.464Z</time>
      </trkpt>
      <trkpt lat="46.88658" lon="8.53612">
        <ele>1864</ele>
        <time>2021-08-11T09:11:59.464Z</time>
      </trkpt>
      <trkpt lat="46.88659" lon="8.53612">
        <ele>1865</ele>
        <time>2021-08-11T09:12:00.464Z</time>
      </trkpt>
      <trkpt lat="46.8866" lon="8.53612">
        <ele>1866</ele>
        <time>2021-08-11T09:12:01.464Z</time>
      </trkpt>
      <trkpt lat="46.88661" lon="8.53612">
        <ele>1867</ele>
        <time>2021-08-11T09:12:02.464Z</time>
      </trkpt>
      <trkpt lat="46.88661" lon="8.53612">
        <ele>1869</ele>
        <time>2021-08-11T09:12:03.464Z</time>
      </trkpt>
      <trkpt lat="46.88661" lon="8.53613">
        <ele>1870</ele>
        <time>2021-08-11T09:12:04.464Z</time>
      </trkpt>
      <trkpt lat="46.88661" lon="8.53614">
        <ele>1870</ele>
        <time>2021-08-11T09:12:05.464Z</time>
      </trkpt>
      <trkpt lat="46.88661" lon="8.53613">
        <ele>1871</ele>
        <time>2021-08-11T09:12:06.464Z</time>
      </trkpt>
      <trkpt lat="46.88662" lon="8.53613">
        <ele>1872</ele>
        <time>2021-08-11T09:12:07.464Z</time>
      </trkpt>
      <trkpt lat="46.88663" lon="8.53613">
        <ele>1873</ele>
        <time>2021-08-11T09:12:08.464Z</time>
      </trkpt>
      <trkpt lat="46.88663" lon="8.53613">
        <ele>1874</ele>
        <time>2021-08-11T09:12:09.464Z</time>
      </trkpt>
      <trkpt lat="46.88663" lon="8.53611">
        <ele>1874</ele>
        <time>2021-08-11T09:12:10.463Z</time>
      </trkpt>
      <trkpt lat="46.88662" lon="8.53611">
        <ele>1874</ele>
        <time>2021-08-11T09:12:11.464Z</time>
      </trkpt>
      <trkpt lat="46.88661" lon="8.53609">
        <ele>1873</ele>
        <time>2021-08-11T09:12:12.464Z</time>
      </trkpt>
      <trkpt lat="46.8866" lon="8.53609">
        <ele>1873</ele>
        <time>2021-08-11T09:12:13.464Z</time>
      </trkpt>
      <trkpt lat="46.8866" lon="8.53608">
        <ele>1872</ele>
        <time>2021-08-11T09:12:14.464Z</time>
      </trkpt>
      <trkpt lat="46.88659" lon="8.53607">
        <ele>1871</ele>
        <time>2021-08-11T09:12:15.464Z</time>
      </trkpt>
      <trkpt lat="46.88659" lon="8.53607">
        <ele>1870</ele>
        <time>2021-08-11T09:12:16.464Z</time>
      </trkpt>
      <trkpt lat="46.88658" lon="8.53606">
        <ele>1869</ele>
        <time>2021-08-11T09:12:17.464Z</time>
      </trkpt>
      <trkpt lat="46.88657" lon="8.53606">
        <ele>1868</ele>
        <time>2021-08-11T09:12:18.464Z</time>
      </trkpt>
      <trkpt lat="46.88657" lon="8.53605">
        <ele>1867</ele>
        <time>2021-08-11T09:12:19.464Z</time>
      </trkpt>
      <trkpt lat="46.88657" lon="8.53605">
        <ele>1867</ele>
        <time>2021-08-11T09:12:20.464Z</time>
      </trkpt>
      <trkpt lat="46.88657" lon="8.53606">
        <ele>1867</ele>
        <time>2021-08-11T09:12:21.464Z</time>
      </trkpt>
      <trkpt lat="46.88656" lon="8.53606">
        <ele>1866</ele>
        <time>2021-08-11T09:12:22.464Z</time>
      </trkpt>
      <trkpt lat="46.88655" lon="8.53606">
        <ele>1866</ele>
        <time>2021-08-11T09:12:23.464Z</time>
      </trkpt>
      <trkpt lat="46.88655" lon="8.53606">
        <ele>1865</ele>
        <time>2021-08-11T09:12:24.464Z</time>
      </trkpt>
      <trkpt lat="46.88655" lon="8.53607">
        <ele>1864</ele>
        <time>2021-08-11T09:12:25.464Z</time>
      </trkpt>
      <trkpt lat="46.88655" lon="8.53607">
        <ele>1864</ele>
        <time>2021-08-11T09:12:26.463Z</time>
      </trkpt>
      <trkpt lat="46.88654" lon="8.53607">
        <ele>1863</ele>
        <time>2021-08-11T09:12:27.464Z</time>
      </trkpt>
      <trkpt lat="46.88654" lon="8.53607">
        <ele>1863</ele>
        <time>2021-08-11T09:12:28.463Z</time>
      </trkpt>
      <trkpt lat="46.88653" lon="8.53606">
        <ele>1862</ele>
        <time>2021-08-11T09:12:29.464Z</time>
      </trkpt>
      <trkpt lat="46.88653" lon="8.53606">
        <ele>1862</ele>
        <time>2021-08-11T09:12:30.464Z</time>
      </trkpt>
      <trkpt lat="46.88653" lon="8.53605">
        <ele>1861</ele>
        <time>2021-08-11T09:12:31.463Z</time>
      </trkpt>
      <trkpt lat="46.88653" lon="8.53604">
        <ele>1861</ele>
        <time>2021-08-11T09:12:32.464Z</time>
      </trkpt>
      <trkpt lat="46.88652" lon="8.53603">
        <ele>1861</ele>
        <time>2021-08-11T09:12:33.464Z</time>
      </trkpt>
      <trkpt lat="46.88652" lon="8.53603">
        <ele>1861</ele>
        <time>2021-08-11T09:12:34.463Z</time>
      </trkpt>
      <trkpt lat="46.88652" lon="8.53602">
        <ele>1861</ele>
        <time>2021-08-11T09:12:35.464Z</time>
      </trkpt>
      <trkpt lat="46.88651" lon="8.53601">
        <ele>1861</ele>
        <time>2021-08-11T09:12:36.463Z</time>
      </trkpt>
      <trkpt lat="46.88651" lon="8.53601">
        <ele>1862</ele>
        <time>2021-08-11T09:12:37.464Z</time>
      </trkpt>
      <trkpt lat="46.88651" lon="8.536">
        <ele>1862</ele>
        <time>2021-08-11T09:12:38.464Z</time>
      </trkpt>
      <trkpt lat="46.88652" lon="8.536">
        <ele>1862</ele>
        <time>2021-08-11T09:12:39.464Z</time>
      </trkpt>
      <trkpt lat="46.88652" lon="8.53599">
        <ele>1863</ele>
        <time>2021-08-11T09:12:40.464Z</time>
      </trkpt>
      <trkpt lat="46.88652" lon="8.53599">
        <ele>1864</ele>
        <time>2021-08-11T09:12:41.463Z</time>
      </trkpt>
      <trkpt lat="46.88653" lon="8.53598">
        <ele>1864</ele>
        <time>2021-08-11T09:12:42.464Z</time>
      </trkpt>
      <trkpt lat="46.88654" lon="8.53597">
        <ele>1867</ele>
        <time>2021-08-11T09:12:43.466Z</time>
      </trkpt>
      <trkpt lat="46.88653" lon="8.53598">
        <ele>1867</ele>
        <time>2021-08-11T09:12:44.465Z</time>
      </trkpt>
      <trkpt lat="46.88654" lon="8.53597">
        <ele>1867</ele>
        <time>2021-08-11T09:12:45.466Z</time>
      </trkpt>
      <trkpt lat="46.88654" lon="8.53596">
        <ele>1866</ele>
        <time>2021-08-11T09:12:46.466Z</time>
      </trkpt>
      <trkpt lat="46.88654" lon="8.53596">
        <ele>1865</ele>
        <time>2021-08-11T09:12:47.467Z</time>
      </trkpt>
      <trkpt lat="46.88654" lon="8.53596">
        <ele>1865</ele>
        <time>2021-08-11T09:12:48.466Z</time>
      </trkpt>
      <trkpt lat="46.88653" lon="8.53596">
        <ele>1869</ele>
        <time>2021-08-11T09:12:49.467Z</time>
      </trkpt>
      <trkpt lat="46.88653" lon="8.53595">
        <ele>1870</ele>
        <time>2021-08-11T09:12:50.467Z</time>
      </trkpt>
      <trkpt lat="46.88653" lon="8.53595">
        <ele>1870</ele>
        <time>2021-08-11T09:12:51.467Z</time>
      </trkpt>
      <trkpt lat="46.88654" lon="8.53595">
        <ele>1870</ele>
        <time>2021-08-11T09:12:52.466Z</time>
      </trkpt>
      <trkpt lat="46.88653" lon="8.53597">
        <ele>1866</ele>
        <time>2021-08-11T09:12:53.468Z</time>
      </trkpt>
      <trkpt lat="46.88653" lon="8.53597">
        <ele>1866</ele>
        <time>2021-08-11T09:12:54.467Z</time>
      </trkpt>
      <trkpt lat="46.88652" lon="8.53596">
        <ele>1868</ele>
        <time>2021-08-11T09:12:55.469Z</time>
      </trkpt>
      <trkpt lat="46.88652" lon="8.53596">
        <ele>1868</ele>
        <time>2021-08-11T09:12:56.470Z</time>
      </trkpt>
      <trkpt lat="46.88652" lon="8.53596">
        <ele>1868</ele>
        <time>2021-08-11T09:12:57.469Z</time>
      </trkpt>
      <trkpt lat="46.88649" lon="8.53594">
        <ele>1869</ele>
        <time>2021-08-11T09:12:58.470Z</time>
      </trkpt>
      <trkpt lat="46.8865" lon="8.53595">
        <ele>1869</ele>
        <time>2021-08-11T09:12:59.469Z</time>
      </trkpt>
      <trkpt lat="46.88646" lon="8.53591">
        <ele>1889</ele>
        <time>2021-08-11T09:13:00.470Z</time>
      </trkpt>
      <trkpt lat="46.88646" lon="8.53591">
        <ele>1889</ele>
        <time>2021-08-11T09:13:01.469Z</time>
      </trkpt>
      <trkpt lat="46.88647" lon="8.53588">
        <ele>1867</ele>
        <time>2021-08-11T09:13:02.470Z</time>
      </trkpt>
      <trkpt lat="46.88647" lon="8.53588">
        <ele>1867</ele>
        <time>2021-08-11T09:13:03.469Z</time>
      </trkpt>
      <trkpt lat="46.88647" lon="8.53588">
        <ele>1867</ele>
        <time>2021-08-11T09:13:04.470Z</time>
      </trkpt>
      <trkpt lat="46.8865" lon="8.53598">
        <ele>1861</ele>
        <time>2021-08-11T09:13:05.471Z</time>
      </trkpt>
      <trkpt lat="46.88651" lon="8.536">
        <ele>1864</ele>
        <time>2021-08-11T09:13:06.473Z</time>
      </trkpt>
      <trkpt lat="46.88652" lon="8.53599">
        <ele>1865</ele>
        <time>2021-08-11T09:13:07.472Z</time>
      </trkpt>
      <trkpt lat="46.88651" lon="8.53599">
        <ele>1866</ele>
        <time>2021-08-11T09:13:08.473Z</time>
      </trkpt>
      <trkpt lat="46.8865" lon="8.536">
        <ele>1866</ele>
        <time>2021-08-11T09:13:09.473Z</time>
      </trkpt>
      <trkpt lat="46.8865" lon="8.536">
        <ele>1866</ele>
        <time>2021-08-11T09:13:10.472Z</time>
      </trkpt>
      <trkpt lat="46.8865" lon="8.53601">
        <ele>1866</ele>
        <time>2021-08-11T09:13:11.472Z</time>
      </trkpt>
      <trkpt lat="46.8865" lon="8.53602">
        <ele>1864</ele>
        <time>2021-08-11T09:13:12.473Z</time>
      </trkpt>
      <trkpt lat="46.8865" lon="8.53602">
        <ele>1864</ele>
        <time>2021-08-11T09:13:13.472Z</time>
      </trkpt>
      <trkpt lat="46.88652" lon="8.53602">
        <ele>1874</ele>
        <time>2021-08-11T09:13:14.472Z</time>
      </trkpt>
      <trkpt lat="46.88653" lon="8.53601">
        <ele>1876</ele>
        <time>2021-08-11T09:13:15.473Z</time>
      </trkpt>
      <trkpt lat="46.88653" lon="8.536">
        <ele>1876</ele>
        <time>2021-08-11T09:13:16.473Z</time>
      </trkpt>
      <trkpt lat="46.88654" lon="8.53599">
        <ele>1873</ele>
        <time>2021-08-11T09:13:17.472Z</time>
      </trkpt>
      <trkpt lat="46.88653" lon="8.53599">
        <ele>1872</ele>
        <time>2021-08-11T09:13:18.473Z</time>
      </trkpt>
      <trkpt lat="46.88653" lon="8.53599">
        <ele>1872</ele>
        <time>2021-08-11T09:13:19.472Z</time>
      </trkpt>
      <trkpt lat="46.88654" lon="8.53598">
        <ele>1872</ele>
        <time>2021-08-11T09:13:20.473Z</time>
      </trkpt>
      <trkpt lat="46.88654" lon="8.53598">
        <ele>1872</ele>
        <time>2021-08-11T09:13:21.473Z</time>
      </trkpt>
      <trkpt lat="46.88656" lon="8.53597">
        <ele>1871</ele>
        <time>2021-08-11T09:13:22.472Z</time>
      </trkpt>
      <trkpt lat="46.88656" lon="8.53598">
        <ele>1871</ele>
        <time>2021-08-11T09:13:23.472Z</time>
      </trkpt>
      <trkpt lat="46.88656" lon="8.53598">
        <ele>1871</ele>
        <time>2021-08-11T09:13:24.473Z</time>
      </trkpt>
      <trkpt lat="46.88656" lon="8.53599">
        <ele>1869</ele>
        <time>2021-08-11T09:13:25.474Z</time>
      </trkpt>
      <trkpt lat="46.88656" lon="8.53599">
        <ele>1870</ele>
        <time>2021-08-11T09:13:26.473Z</time>
      </trkpt>
      <trkpt lat="46.88655" lon="8.536">
        <ele>1870</ele>
        <time>2021-08-11T09:13:27.473Z</time>
      </trkpt>
      <trkpt lat="46.88655" lon="8.536">
        <ele>1869</ele>
        <time>2021-08-11T09:13:28.474Z</time>
      </trkpt>
      <trkpt lat="46.88654" lon="8.536">
        <ele>1869</ele>
        <time>2021-08-11T09:13:29.474Z</time>
      </trkpt>
      <trkpt lat="46.88654" lon="8.53601">
        <ele>1869</ele>
        <time>2021-08-11T09:13:30.473Z</time>
      </trkpt>
      <trkpt lat="46.88654" lon="8.53601">
        <ele>1870</ele>
        <time>2021-08-11T09:13:31.473Z</time>
      </trkpt>
      <trkpt lat="46.88655" lon="8.53601">
        <ele>1870</ele>
        <time>2021-08-11T09:13:32.473Z</time>
      </trkpt>
      <trkpt lat="46.88655" lon="8.536">
        <ele>1871</ele>
        <time>2021-08-11T09:13:33.473Z</time>
      </trkpt>
      <trkpt lat="46.88651" lon="8.53599">
        <ele>1869</ele>
        <time>2021-08-11T09:13:34.474Z</time>
      </trkpt>
      <trkpt lat="46.88651" lon="8.53598">
        <ele>1869</ele>
        <time>2021-08-11T09:13:35.474Z</time>
      </trkpt>
      <trkpt lat="46.88651" lon="8.53595">
        <ele>1868</ele>
        <time>2021-08-11T09:13:36.474Z</time>
      </trkpt>
      <trkpt lat="46.88651" lon="8.53595">
        <ele>1868</ele>
        <time>2021-08-11T09:13:37.475Z</time>
      </trkpt>
      <trkpt lat="46.88651" lon="8.53596">
        <ele>1868</ele>
        <time>2021-08-11T09:13:38.475Z</time>
      </trkpt>
      <trkpt lat="46.88651" lon="8.53597">
        <ele>1868</ele>
        <time>2021-08-11T09:13:39.474Z</time>
      </trkpt>
      <trkpt lat="46.88651" lon="8.53597">
        <ele>1868</ele>
        <time>2021-08-11T09:13:40.474Z</time>
      </trkpt>
      <trkpt lat="46.8865" lon="8.53596">
        <ele>1868</ele>
        <time>2021-08-11T09:13:41.475Z</time>
      </trkpt>
      <trkpt lat="46.8865" lon="8.53596">
        <ele>1868</ele>
        <time>2021-08-11T09:13:42.474Z</time>
      </trkpt>
      <trkpt lat="46.8865" lon="8.53594">
        <ele>1868</ele>
        <time>2021-08-11T09:13:43.475Z</time>
      </trkpt>
      <trkpt lat="46.8865" lon="8.53594">
        <ele>1867</ele>
        <time>2021-08-11T09:13:44.475Z</time>
      </trkpt>
      <trkpt lat="46.8865" lon="8.53594">
        <ele>1866</ele>
        <time>2021-08-11T09:13:45.477Z</time>
      </trkpt>
      <trkpt lat="46.8865" lon="8.53594">
        <ele>1866</ele>
        <time>2021-08-11T09:13:46.476Z</time>
      </trkpt>
      <trkpt lat="46.88651" lon="8.53595">
        <ele>1865</ele>
        <time>2021-08-11T09:13:47.477Z</time>
      </trkpt>
      <trkpt lat="46.8865" lon="8.53595">
        <ele>1865</ele>
        <time>2021-08-11T09:13:48.477Z</time>
      </trkpt>
      <trkpt lat="46.8865" lon="8.53596">
        <ele>1866</ele>
        <time>2021-08-11T09:13:49.477Z</time>
      </trkpt>
      <trkpt lat="46.88649" lon="8.53596">
        <ele>1868</ele>
        <time>2021-08-11T09:13:50.476Z</time>
      </trkpt>
      <trkpt lat="46.88649" lon="8.53595">
        <ele>1869</ele>
        <time>2021-08-11T09:13:51.477Z</time>
      </trkpt>
      <trkpt lat="46.88651" lon="8.53593">
        <ele>1872</ele>
        <time>2021-08-11T09:13:52.476Z</time>
      </trkpt>
      <trkpt lat="46.88651" lon="8.53593">
        <ele>1873</ele>
        <time>2021-08-11T09:13:53.477Z</time>
      </trkpt>
      <trkpt lat="46.88652" lon="8.53594">
        <ele>1873</ele>
        <time>2021-08-11T09:13:54.477Z</time>
      </trkpt>
      <trkpt lat="46.88652" lon="8.53594">
        <ele>1873</ele>
        <time>2021-08-11T09:13:55.477Z</time>
      </trkpt>
      <trkpt lat="46.88652" lon="8.53594">
        <ele>1873</ele>
        <time>2021-08-11T09:13:56.477Z</time>
      </trkpt>
      <trkpt lat="46.88653" lon="8.53594">
        <ele>1873</ele>
        <time>2021-08-11T09:13:57.476Z</time>
      </trkpt>
      <trkpt lat="46.88653" lon="8.53594">
        <ele>1873</ele>
        <time>2021-08-11T09:13:58.476Z</time>
      </trkpt>
      <trkpt lat="46.88653" lon="8.53593">
        <ele>1873</ele>
        <time>2021-08-11T09:13:59.476Z</time>
      </trkpt>
      <trkpt lat="46.88652" lon="8.53593">
        <ele>1872</ele>
        <time>2021-08-11T09:14:00.476Z</time>
      </trkpt>
      <trkpt lat="46.88654" lon="8.5359">
        <ele>1869</ele>
        <time>2021-08-11T09:14:01.477Z</time>
      </trkpt>
      <trkpt lat="46.88654" lon="8.53589">
        <ele>1869</ele>
        <time>2021-08-11T09:14:02.477Z</time>
      </trkpt>
      <trkpt lat="46.88654" lon="8.53589">
        <ele>1868</ele>
        <time>2021-08-11T09:14:03.478Z</time>
      </trkpt>
      <trkpt lat="46.88653" lon="8.53588">
        <ele>1868</ele>
        <time>2021-08-11T09:14:04.477Z</time>
      </trkpt>
      <trkpt lat="46.88653" lon="8.53588">
        <ele>1868</ele>
        <time>2021-08-11T09:14:05.478Z</time>
      </trkpt>
      <trkpt lat="46.88652" lon="8.53588">
        <ele>1867</ele>
        <time>2021-08-11T09:14:06.478Z</time>
      </trkpt>
      <trkpt lat="46.88652" lon="8.53587">
        <ele>1867</ele>
        <time>2021-08-11T09:14:07.478Z</time>
      </trkpt>
      <trkpt lat="46.88652" lon="8.53587">
        <ele>1867</ele>
        <time>2021-08-11T09:14:08.478Z</time>
      </trkpt>
      <trkpt lat="46.88651" lon="8.53587">
        <ele>1867</ele>
        <time>2021-08-11T09:14:09.478Z</time>
      </trkpt>
      <trkpt lat="46.88651" lon="8.53586">
        <ele>1866</ele>
        <time>2021-08-11T09:14:10.477Z</time>
      </trkpt>
      <trkpt lat="46.88651" lon="8.53586">
        <ele>1866</ele>
        <time>2021-08-11T09:14:11.478Z</time>
      </trkpt>
      <trkpt lat="46.8865" lon="8.53587">
        <ele>1865</ele>
        <time>2021-08-11T09:14:12.478Z</time>
      </trkpt>
      <trkpt lat="46.8865" lon="8.53586">
        <ele>1865</ele>
        <time>2021-08-11T09:14:13.477Z</time>
      </trkpt>
      <trkpt lat="46.8865" lon="8.53586">
        <ele>1865</ele>
        <time>2021-08-11T09:14:14.478Z</time>
      </trkpt>
      <trkpt lat="46.8865" lon="8.53586">
        <ele>1865</ele>
        <time>2021-08-11T09:14:15.477Z</time>
      </trkpt>
      <trkpt lat="46.8865" lon="8.53586">
        <ele>1864</ele>
        <time>2021-08-11T09:14:16.478Z</time>
      </trkpt>
      <trkpt lat="46.88649" lon="8.53586">
        <ele>1863</ele>
        <time>2021-08-11T09:14:17.477Z</time>
      </trkpt>
      <trkpt lat="46.88648" lon="8.53586">
        <ele>1864</ele>
        <time>2021-08-11T09:14:18.478Z</time>
      </trkpt>
      <trkpt lat="46.88648" lon="8.53585">
        <ele>1864</ele>
        <time>2021-08-11T09:14:19.477Z</time>
      </trkpt>
      <trkpt lat="46.88648" lon="8.53584">
        <ele>1864</ele>
        <time>2021-08-11T09:14:20.478Z</time>
      </trkpt>
      <trkpt lat="46.88648" lon="8.53584">
        <ele>1864</ele>
        <time>2021-08-11T09:14:21.478Z</time>
      </trkpt>
      <trkpt lat="46.88647" lon="8.53583">
        <ele>1864</ele>
        <time>2021-08-11T09:14:22.478Z</time>
      </trkpt>
      <trkpt lat="46.88647" lon="8.53583">
        <ele>1864</ele>
        <time>2021-08-11T09:14:23.478Z</time>
      </trkpt>
      <trkpt lat="46.88647" lon="8.53583">
        <ele>1864</ele>
        <time>2021-08-11T09:14:24.478Z</time>
      </trkpt>
      <trkpt lat="46.88648" lon="8.53583">
        <ele>1864</ele>
        <time>2021-08-11T09:14:25.478Z</time>
      </trkpt>
      <trkpt lat="46.88649" lon="8.53582">
        <ele>1864</ele>
        <time>2021-08-11T09:14:26.478Z</time>
      </trkpt>
      <trkpt lat="46.88649" lon="8.53582">
        <ele>1864</ele>
        <time>2021-08-11T09:14:27.478Z</time>
      </trkpt>
      <trkpt lat="46.8865" lon="8.5358">
        <ele>1864</ele>
        <time>2021-08-11T09:14:28.478Z</time>
      </trkpt>
      <trkpt lat="46.88651" lon="8.5358">
        <ele>1864</ele>
        <time>2021-08-11T09:14:29.478Z</time>
      </trkpt>
      <trkpt lat="46.8865" lon="8.5358">
        <ele>1864</ele>
        <time>2021-08-11T09:14:30.477Z</time>
      </trkpt>
      <trkpt lat="46.8865" lon="8.5358">
        <ele>1864</ele>
        <time>2021-08-11T09:14:31.478Z</time>
      </trkpt>
      <trkpt lat="46.88648" lon="8.53579">
        <ele>1864</ele>
        <time>2021-08-11T09:14:32.478Z</time>
      </trkpt>
      <trkpt lat="46.88649" lon="8.53579">
        <ele>1864</ele>
        <time>2021-08-11T09:14:33.478Z</time>
      </trkpt>
      <trkpt lat="46.88648" lon="8.53578">
        <ele>1864</ele>
        <time>2021-08-11T09:14:34.478Z</time>
      </trkpt>
      <trkpt lat="46.88647" lon="8.53575">
        <ele>1865</ele>
        <time>2021-08-11T09:14:35.480Z</time>
      </trkpt>
      <trkpt lat="46.88648" lon="8.53574">
        <ele>1864</ele>
        <time>2021-08-11T09:14:36.480Z</time>
      </trkpt>
      <trkpt lat="46.88649" lon="8.53574">
        <ele>1864</ele>
        <time>2021-08-11T09:14:37.479Z</time>
      </trkpt>
      <trkpt lat="46.88646" lon="8.53573">
        <ele>1863</ele>
        <time>2021-08-11T09:14:38.479Z</time>
      </trkpt>
      <trkpt lat="46.88646" lon="8.53573">
        <ele>1864</ele>
        <time>2021-08-11T09:14:39.479Z</time>
      </trkpt>
      <trkpt lat="46.88645" lon="8.53573">
        <ele>1864</ele>
        <time>2021-08-11T09:14:40.479Z</time>
      </trkpt>
      <trkpt lat="46.88644" lon="8.53571">
        <ele>1865</ele>
        <time>2021-08-11T09:14:41.479Z</time>
      </trkpt>
      <trkpt lat="46.88643" lon="8.53571">
        <ele>1865</ele>
        <time>2021-08-11T09:14:42.479Z</time>
      </trkpt>
      <trkpt lat="46.88642" lon="8.53571">
        <ele>1865</ele>
        <time>2021-08-11T09:14:43.479Z</time>
      </trkpt>
      <trkpt lat="46.88641" lon="8.5357">
        <ele>1865</ele>
        <time>2021-08-11T09:14:44.479Z</time>
      </trkpt>
      <trkpt lat="46.88641" lon="8.53569">
        <ele>1865</ele>
        <time>2021-08-11T09:14:45.479Z</time>
      </trkpt>
      <trkpt lat="46.88641" lon="8.53569">
        <ele>1865</ele>
        <time>2021-08-11T09:14:46.479Z</time>
      </trkpt>
      <trkpt lat="46.8864" lon="8.53568">
        <ele>1865</ele>
        <time>2021-08-11T09:14:47.479Z</time>
      </trkpt>
      <trkpt lat="46.88639" lon="8.53568">
        <ele>1865</ele>
        <time>2021-08-11T09:14:48.479Z</time>
      </trkpt>
      <trkpt lat="46.88638" lon="8.53568">
        <ele>1865</ele>
        <time>2021-08-11T09:14:49.479Z</time>
      </trkpt>
      <trkpt lat="46.88637" lon="8.53568">
        <ele>1865</ele>
        <time>2021-08-11T09:14:50.479Z</time>
      </trkpt>
      <trkpt lat="46.88637" lon="8.53569">
        <ele>1864</ele>
        <time>2021-08-11T09:14:51.480Z</time>
      </trkpt>
      <trkpt lat="46.88636" lon="8.53569">
        <ele>1864</ele>
        <time>2021-08-11T09:14:52.479Z</time>
      </trkpt>
      <trkpt lat="46.88635" lon="8.53569">
        <ele>1863</ele>
        <time>2021-08-11T09:14:53.479Z</time>
      </trkpt>
      <trkpt lat="46.88635" lon="8.53569">
        <ele>1862</ele>
        <time>2021-08-11T09:14:54.480Z</time>
      </trkpt>
      <trkpt lat="46.88634" lon="8.53568">
        <ele>1861</ele>
        <time>2021-08-11T09:14:55.479Z</time>
      </trkpt>
      <trkpt lat="46.88634" lon="8.53568">
        <ele>1860</ele>
        <time>2021-08-11T09:14:56.479Z</time>
      </trkpt>
      <trkpt lat="46.88633" lon="8.53568">
        <ele>1860</ele>
        <time>2021-08-11T09:14:57.480Z</time>
      </trkpt>
      <trkpt lat="46.88633" lon="8.53568">
        <ele>1859</ele>
        <time>2021-08-11T09:14:58.479Z</time>
      </trkpt>
      <trkpt lat="46.88633" lon="8.53568">
        <ele>1859</ele>
        <time>2021-08-11T09:14:59.479Z</time>
      </trkpt>
      <trkpt lat="46.88634" lon="8.53567">
        <ele>1856</ele>
        <time>2021-08-11T09:15:00.481Z</time>
      </trkpt>
      <trkpt lat="46.88633" lon="8.53567">
        <ele>1856</ele>
        <time>2021-08-11T09:15:01.480Z</time>
      </trkpt>
      <trkpt lat="46.88633" lon="8.53567">
        <ele>1856</ele>
        <time>2021-08-11T09:15:02.480Z</time>
      </trkpt>
      <trkpt lat="46.88633" lon="8.53567">
        <ele>1854</ele>
        <time>2021-08-11T09:15:03.481Z</time>
      </trkpt>
      <trkpt lat="46.88632" lon="8.53567">
        <ele>1853</ele>
        <time>2021-08-11T09:15:04.480Z</time>
      </trkpt>
      <trkpt lat="46.88632" lon="8.53567">
        <ele>1853</ele>
        <time>2021-08-11T09:15:05.481Z</time>
      </trkpt>
      <trkpt lat="46.88632" lon="8.53567">
        <ele>1852</ele>
        <time>2021-08-11T09:15:06.481Z</time>
      </trkpt>
      <trkpt lat="46.88632" lon="8.53567">
        <ele>1852</ele>
        <time>2021-08-11T09:15:07.480Z</time>
      </trkpt>
      <trkpt lat="46.88632" lon="8.53567">
        <ele>1852</ele>
        <time>2021-08-11T09:15:08.481Z</time>
      </trkpt>
      <trkpt lat="46.88632" lon="8.53567">
        <ele>1852</ele>
        <time>2021-08-11T09:15:09.481Z</time>
      </trkpt>
      <trkpt lat="46.88632" lon="8.53568">
        <ele>1852</ele>
        <time>2021-08-11T09:15:10.481Z</time>
      </trkpt>
      <trkpt lat="46.88632" lon="8.53569">
        <ele>1851</ele>
        <time>2021-08-11T09:15:11.481Z</time>
      </trkpt>
      <trkpt lat="46.88632" lon="8.5357">
        <ele>1851</ele>
        <time>2021-08-11T09:15:12.480Z</time>
      </trkpt>
      <trkpt lat="46.88632" lon="8.5357">
        <ele>1851</ele>
        <time>2021-08-11T09:15:13.480Z</time>
      </trkpt>
      <trkpt lat="46.88632" lon="8.5357">
        <ele>1851</ele>
        <time>2021-08-11T09:15:14.481Z</time>
      </trkpt>
      <trkpt lat="46.88632" lon="8.5357">
        <ele>1851</ele>
        <time>2021-08-11T09:15:15.480Z</time>
      </trkpt>
      <trkpt lat="46.88636" lon="8.53568">
        <ele>1852</ele>
        <time>2021-08-11T09:15:16.481Z</time>
      </trkpt>
      <trkpt lat="46.88636" lon="8.53567">
        <ele>1852</ele>
        <time>2021-08-11T09:15:17.481Z</time>
      </trkpt>
      <trkpt lat="46.88639" lon="8.53562">
        <ele>1857</ele>
        <time>2021-08-11T09:15:18.482Z</time>
      </trkpt>
      <trkpt lat="46.88638" lon="8.53561">
        <ele>1857</ele>
        <time>2021-08-11T09:15:19.482Z</time>
      </trkpt>
      <trkpt lat="46.88638" lon="8.53559">
        <ele>1858</ele>
        <time>2021-08-11T09:15:20.484Z</time>
      </trkpt>
      <trkpt lat="46.88637" lon="8.53559">
        <ele>1859</ele>
        <time>2021-08-11T09:15:21.484Z</time>
      </trkpt>
      <trkpt lat="46.88637" lon="8.53558">
        <ele>1859</ele>
        <time>2021-08-11T09:15:22.483Z</time>
      </trkpt>
      <trkpt lat="46.88636" lon="8.53558">
        <ele>1860</ele>
        <time>2021-08-11T09:15:23.484Z</time>
      </trkpt>
      <trkpt lat="46.88636" lon="8.53558">
        <ele>1860</ele>
        <time>2021-08-11T09:15:24.483Z</time>
      </trkpt>
      <trkpt lat="46.88635" lon="8.53557">
        <ele>1860</ele>
        <time>2021-08-11T09:15:25.484Z</time>
      </trkpt>
      <trkpt lat="46.88635" lon="8.53556">
        <ele>1860</ele>
        <time>2021-08-11T09:15:26.484Z</time>
      </trkpt>
      <trkpt lat="46.88633" lon="8.53556">
        <ele>1860</ele>
        <time>2021-08-11T09:15:27.483Z</time>
      </trkpt>
      <trkpt lat="46.88632" lon="8.53556">
        <ele>1861</ele>
        <time>2021-08-11T09:15:28.484Z</time>
      </trkpt>
      <trkpt lat="46.88631" lon="8.53556">
        <ele>1861</ele>
        <time>2021-08-11T09:15:29.484Z</time>
      </trkpt>
      <trkpt lat="46.88631" lon="8.53556">
        <ele>1861</ele>
        <time>2021-08-11T09:15:30.484Z</time>
      </trkpt>
      <trkpt lat="46.8863" lon="8.53555">
        <ele>1862</ele>
        <time>2021-08-11T09:15:31.484Z</time>
      </trkpt>
      <trkpt lat="46.88629" lon="8.53555">
        <ele>1862</ele>
        <time>2021-08-11T09:15:32.483Z</time>
      </trkpt>
      <trkpt lat="46.88629" lon="8.53555">
        <ele>1862</ele>
        <time>2021-08-11T09:15:33.484Z</time>
      </trkpt>
      <trkpt lat="46.88628" lon="8.53555">
        <ele>1861</ele>
        <time>2021-08-11T09:15:34.484Z</time>
      </trkpt>
      <trkpt lat="46.88627" lon="8.53555">
        <ele>1861</ele>
        <time>2021-08-11T09:15:35.483Z</time>
      </trkpt>
      <trkpt lat="46.88627" lon="8.53555">
        <ele>1861</ele>
        <time>2021-08-11T09:15:36.483Z</time>
      </trkpt>
      <trkpt lat="46.88627" lon="8.53555">
        <ele>1861</ele>
        <time>2021-08-11T09:15:37.485Z</time>
      </trkpt>
      <trkpt lat="46.88625" lon="8.53555">
        <ele>1861</ele>
        <time>2021-08-11T09:15:38.485Z</time>
      </trkpt>
      <trkpt lat="46.88624" lon="8.53555">
        <ele>1861</ele>
        <time>2021-08-11T09:15:39.484Z</time>
      </trkpt>
      <trkpt lat="46.88622" lon="8.53555">
        <ele>1861</ele>
        <time>2021-08-11T09:15:40.485Z</time>
      </trkpt>
      <trkpt lat="46.88621" lon="8.53556">
        <ele>1861</ele>
        <time>2021-08-11T09:15:41.485Z</time>
      </trkpt>
      <trkpt lat="46.88621" lon="8.53556">
        <ele>1861</ele>
        <time>2021-08-11T09:15:42.485Z</time>
      </trkpt>
      <trkpt lat="46.8862" lon="8.53556">
        <ele>1860</ele>
        <time>2021-08-11T09:15:43.485Z</time>
      </trkpt>
      <trkpt lat="46.8862" lon="8.53555">
        <ele>1860</ele>
        <time>2021-08-11T09:15:44.484Z</time>
      </trkpt>
      <trkpt lat="46.88619" lon="8.53555">
        <ele>1859</ele>
        <time>2021-08-11T09:15:45.485Z</time>
      </trkpt>
      <trkpt lat="46.88619" lon="8.53555">
        <ele>1858</ele>
        <time>2021-08-11T09:15:46.485Z</time>
      </trkpt>
      <trkpt lat="46.88618" lon="8.53554">
        <ele>1858</ele>
        <time>2021-08-11T09:15:47.485Z</time>
      </trkpt>
      <trkpt lat="46.88617" lon="8.53553">
        <ele>1858</ele>
        <time>2021-08-11T09:15:48.485Z</time>
      </trkpt>
      <trkpt lat="46.88616" lon="8.53553">
        <ele>1857</ele>
        <time>2021-08-11T09:15:49.484Z</time>
      </trkpt>
      <trkpt lat="46.88616" lon="8.53553">
        <ele>1857</ele>
        <time>2021-08-11T09:15:50.484Z</time>
      </trkpt>
      <trkpt lat="46.88616" lon="8.53553">
        <ele>1856</ele>
        <time>2021-08-11T09:15:51.485Z</time>
      </trkpt>
      <trkpt lat="46.88616" lon="8.53553">
        <ele>1856</ele>
        <time>2021-08-11T09:15:52.485Z</time>
      </trkpt>
      <trkpt lat="46.88615" lon="8.53554">
        <ele>1855</ele>
        <time>2021-08-11T09:15:53.485Z</time>
      </trkpt>
      <trkpt lat="46.88615" lon="8.53553">
        <ele>1855</ele>
        <time>2021-08-11T09:15:54.485Z</time>
      </trkpt>
      <trkpt lat="46.88615" lon="8.53552">
        <ele>1855</ele>
        <time>2021-08-11T09:15:55.484Z</time>
      </trkpt>
      <trkpt lat="46.88612" lon="8.53551">
        <ele>1854</ele>
        <time>2021-08-11T09:15:56.485Z</time>
      </trkpt>
      <trkpt lat="46.88611" lon="8.5355">
        <ele>1854</ele>
        <time>2021-08-11T09:15:57.484Z</time>
      </trkpt>
      <trkpt lat="46.8861" lon="8.5355">
        <ele>1854</ele>
        <time>2021-08-11T09:15:58.484Z</time>
      </trkpt>
      <trkpt lat="46.88609" lon="8.5355">
        <ele>1854</ele>
        <time>2021-08-11T09:15:59.484Z</time>
      </trkpt>
      <trkpt lat="46.88608" lon="8.5355">
        <ele>1855</ele>
        <time>2021-08-11T09:16:00.484Z</time>
      </trkpt>
      <trkpt lat="46.88608" lon="8.5355">
        <ele>1855</ele>
        <time>2021-08-11T09:16:01.484Z</time>
      </trkpt>
      <trkpt lat="46.88607" lon="8.5355">
        <ele>1856</ele>
        <time>2021-08-11T09:16:02.485Z</time>
      </trkpt>
      <trkpt lat="46.88607" lon="8.53551">
        <ele>1856</ele>
        <time>2021-08-11T09:16:03.485Z</time>
      </trkpt>
      <trkpt lat="46.88607" lon="8.53551">
        <ele>1856</ele>
        <time>2021-08-11T09:16:04.485Z</time>
      </trkpt>
      <trkpt lat="46.88609" lon="8.53551">
        <ele>1858</ele>
        <time>2021-08-11T09:16:05.486Z</time>
      </trkpt>
      <trkpt lat="46.88609" lon="8.53551">
        <ele>1859</ele>
        <time>2021-08-11T09:16:06.486Z</time>
      </trkpt>
      <trkpt lat="46.8861" lon="8.53551">
        <ele>1859</ele>
        <time>2021-08-11T09:16:07.485Z</time>
      </trkpt>
      <trkpt lat="46.88611" lon="8.53552">
        <ele>1859</ele>
        <time>2021-08-11T09:16:08.486Z</time>
      </trkpt>
      <trkpt lat="46.88611" lon="8.53552">
        <ele>1859</ele>
        <time>2021-08-11T09:16:09.485Z</time>
      </trkpt>
      <trkpt lat="46.88611" lon="8.5355">
        <ele>1859</ele>
        <time>2021-08-11T09:16:10.485Z</time>
      </trkpt>
      <trkpt lat="46.88612" lon="8.53549">
        <ele>1859</ele>
        <time>2021-08-11T09:16:11.486Z</time>
      </trkpt>
      <trkpt lat="46.88612" lon="8.53548">
        <ele>1858</ele>
        <time>2021-08-11T09:16:12.486Z</time>
      </trkpt>
      <trkpt lat="46.88612" lon="8.53547">
        <ele>1857</ele>
        <time>2021-08-11T09:16:13.486Z</time>
      </trkpt>
      <trkpt lat="46.88614" lon="8.53546">
        <ele>1860</ele>
        <time>2021-08-11T09:16:14.486Z</time>
      </trkpt>
      <trkpt lat="46.88614" lon="8.53547">
        <ele>1860</ele>
        <time>2021-08-11T09:16:15.486Z</time>
      </trkpt>
      <trkpt lat="46.88615" lon="8.53548">
        <ele>1860</ele>
        <time>2021-08-11T09:16:16.487Z</time>
      </trkpt>
      <trkpt lat="46.88615" lon="8.53547">
        <ele>1860</ele>
        <time>2021-08-11T09:16:17.486Z</time>
      </trkpt>
      <trkpt lat="46.88616" lon="8.53547">
        <ele>1860</ele>
        <time>2021-08-11T09:16:18.487Z</time>
      </trkpt>
      <trkpt lat="46.88616" lon="8.53546">
        <ele>1860</ele>
        <time>2021-08-11T09:16:19.487Z</time>
      </trkpt>
      <trkpt lat="46.88616" lon="8.53546">
        <ele>1860</ele>
        <time>2021-08-11T09:16:20.487Z</time>
      </trkpt>
      <trkpt lat="46.88616" lon="8.53547">
        <ele>1861</ele>
        <time>2021-08-11T09:16:21.488Z</time>
      </trkpt>
      <trkpt lat="46.88615" lon="8.53548">
        <ele>1861</ele>
        <time>2021-08-11T09:16:22.488Z</time>
      </trkpt>
      <trkpt lat="46.88615" lon="8.53549">
        <ele>1861</ele>
        <time>2021-08-11T09:16:23.488Z</time>
      </trkpt>
      <trkpt lat="46.88614" lon="8.53548">
        <ele>1860</ele>
        <time>2021-08-11T09:16:24.487Z</time>
      </trkpt>
      <trkpt lat="46.88613" lon="8.53547">
        <ele>1859</ele>
        <time>2021-08-11T09:16:25.487Z</time>
      </trkpt>
      <trkpt lat="46.88612" lon="8.53548">
        <ele>1859</ele>
        <time>2021-08-11T09:16:26.488Z</time>
      </trkpt>
      <trkpt lat="46.88612" lon="8.53548">
        <ele>1858</ele>
        <time>2021-08-11T09:16:27.487Z</time>
      </trkpt>
      <trkpt lat="46.88611" lon="8.53548">
        <ele>1858</ele>
        <time>2021-08-11T09:16:28.488Z</time>
      </trkpt>
      <trkpt lat="46.88611" lon="8.53548">
        <ele>1858</ele>
        <time>2021-08-11T09:16:29.488Z</time>
      </trkpt>
      <trkpt lat="46.8861" lon="8.53547">
        <ele>1857</ele>
        <time>2021-08-11T09:16:30.490Z</time>
      </trkpt>
      <trkpt lat="46.8861" lon="8.53548">
        <ele>1856</ele>
        <time>2021-08-11T09:16:31.489Z</time>
      </trkpt>
      <trkpt lat="46.88607" lon="8.53546">
        <ele>1857</ele>
        <time>2021-08-11T09:16:32.490Z</time>
      </trkpt>
      <trkpt lat="46.88607" lon="8.53546">
        <ele>1857</ele>
        <time>2021-08-11T09:16:33.491Z</time>
      </trkpt>
      <trkpt lat="46.88607" lon="8.53546">
        <ele>1856</ele>
        <time>2021-08-11T09:16:34.491Z</time>
      </trkpt>
      <trkpt lat="46.88609" lon="8.5355">
        <ele>1854</ele>
        <time>2021-08-11T09:16:35.491Z</time>
      </trkpt>
      <trkpt lat="46.88609" lon="8.53551">
        <ele>1853</ele>
        <time>2021-08-11T09:16:36.492Z</time>
      </trkpt>
      <trkpt lat="46.88609" lon="8.53551">
        <ele>1853</ele>
        <time>2021-08-11T09:16:37.492Z</time>
      </trkpt>
      <trkpt lat="46.8861" lon="8.53552">
        <ele>1854</ele>
        <time>2021-08-11T09:16:38.493Z</time>
      </trkpt>
      <trkpt lat="46.88611" lon="8.53552">
        <ele>1855</ele>
        <time>2021-08-11T09:16:39.493Z</time>
      </trkpt>
      <trkpt lat="46.88612" lon="8.53552">
        <ele>1855</ele>
        <time>2021-08-11T09:16:40.492Z</time>
      </trkpt>
      <trkpt lat="46.88612" lon="8.53552">
        <ele>1855</ele>
        <time>2021-08-11T09:16:41.493Z</time>
      </trkpt>
      <trkpt lat="46.88613" lon="8.53551">
        <ele>1856</ele>
        <time>2021-08-11T09:16:42.493Z</time>
      </trkpt>
      <trkpt lat="46.88614" lon="8.53551">
        <ele>1856</ele>
        <time>2021-08-11T09:16:43.493Z</time>
      </trkpt>
      <trkpt lat="46.88615" lon="8.5355">
        <ele>1856</ele>
        <time>2021-08-11T09:16:44.492Z</time>
      </trkpt>
      <trkpt lat="46.88615" lon="8.53551">
        <ele>1856</ele>
        <time>2021-08-11T09:16:45.493Z</time>
      </trkpt>
      <trkpt lat="46.88615" lon="8.53551">
        <ele>1856</ele>
        <time>2021-08-11T09:16:46.493Z</time>
      </trkpt>
      <trkpt lat="46.88614" lon="8.53552">
        <ele>1856</ele>
        <time>2021-08-11T09:16:47.493Z</time>
      </trkpt>
      <trkpt lat="46.88613" lon="8.53552">
        <ele>1856</ele>
        <time>2021-08-11T09:16:48.493Z</time>
      </trkpt>
      <trkpt lat="46.88613" lon="8.53554">
        <ele>1857</ele>
        <time>2021-08-11T09:16:49.493Z</time>
      </trkpt>
      <trkpt lat="46.88613" lon="8.53554">
        <ele>1858</ele>
        <time>2021-08-11T09:16:50.494Z</time>
      </trkpt>
      <trkpt lat="46.88613" lon="8.53554">
        <ele>1858</ele>
        <time>2021-08-11T09:16:51.493Z</time>
      </trkpt>
      <trkpt lat="46.88613" lon="8.53554">
        <ele>1858</ele>
        <time>2021-08-11T09:16:52.493Z</time>
      </trkpt>
      <trkpt lat="46.88611" lon="8.53543">
        <ele>1860</ele>
        <time>2021-08-11T09:16:53.495Z</time>
      </trkpt>
      <trkpt lat="46.8861" lon="8.53543">
        <ele>1860</ele>
        <time>2021-08-11T09:16:54.495Z</time>
      </trkpt>
      <trkpt lat="46.88611" lon="8.53544">
        <ele>1860</ele>
        <time>2021-08-11T09:16:55.495Z</time>
      </trkpt>
      <trkpt lat="46.88611" lon="8.53545">
        <ele>1860</ele>
        <time>2021-08-11T09:16:56.495Z</time>
      </trkpt>
      <trkpt lat="46.88612" lon="8.53545">
        <ele>1860</ele>
        <time>2021-08-11T09:16:57.495Z</time>
      </trkpt>
      <trkpt lat="46.88613" lon="8.53545">
        <ele>1859</ele>
        <time>2021-08-11T09:16:58.494Z</time>
      </trkpt>
      <trkpt lat="46.88613" lon="8.53545">
        <ele>1859</ele>
        <time>2021-08-11T09:16:59.494Z</time>
      </trkpt>
      <trkpt lat="46.88613" lon="8.53545">
        <ele>1859</ele>
        <time>2021-08-11T09:17:00.494Z</time>
      </trkpt>
      <trkpt lat="46.88613" lon="8.53544">
        <ele>1858</ele>
        <time>2021-08-11T09:17:01.495Z</time>
      </trkpt>
      <trkpt lat="46.88612" lon="8.5354">
        <ele>1856</ele>
        <time>2021-08-11T09:17:02.495Z</time>
      </trkpt>
      <trkpt lat="46.88608" lon="8.53546">
        <ele>1856</ele>
        <time>2021-08-11T09:17:03.495Z</time>
      </trkpt>
      <trkpt lat="46.88615" lon="8.5355">
        <ele>1857</ele>
        <time>2021-08-11T09:17:04.496Z</time>
      </trkpt>
      <trkpt lat="46.88609" lon="8.5355">
        <ele>1851</ele>
        <time>2021-08-11T09:17:05.496Z</time>
      </trkpt>
      <trkpt lat="46.88609" lon="8.53551">
        <ele>1851</ele>
        <time>2021-08-11T09:17:06.495Z</time>
      </trkpt>
      <trkpt lat="46.88609" lon="8.53551">
        <ele>1852</ele>
        <time>2021-08-11T09:17:07.495Z</time>
      </trkpt>
      <trkpt lat="46.88609" lon="8.53551">
        <ele>1852</ele>
        <time>2021-08-11T09:17:08.495Z</time>
      </trkpt>
      <trkpt lat="46.88609" lon="8.5355">
        <ele>1852</ele>
        <time>2021-08-11T09:17:09.496Z</time>
      </trkpt>
      <trkpt lat="46.88609" lon="8.5355">
        <ele>1852</ele>
        <time>2021-08-11T09:17:10.496Z</time>
      </trkpt>
      <trkpt lat="46.88608" lon="8.5355">
        <ele>1852</ele>
        <time>2021-08-11T09:17:11.496Z</time>
      </trkpt>
      <trkpt lat="46.88605" lon="8.5355">
        <ele>1853</ele>
        <time>2021-08-11T09:17:12.497Z</time>
      </trkpt>
      <trkpt lat="46.88605" lon="8.5355">
        <ele>1853</ele>
        <time>2021-08-11T09:17:13.497Z</time>
      </trkpt>
      <trkpt lat="46.88605" lon="8.5355">
        <ele>1853</ele>
        <time>2021-08-11T09:17:14.497Z</time>
      </trkpt>
      <trkpt lat="46.88605" lon="8.53549">
        <ele>1853</ele>
        <time>2021-08-11T09:17:15.497Z</time>
      </trkpt>
      <trkpt lat="46.88606" lon="8.53548">
        <ele>1853</ele>
        <time>2021-08-11T09:17:16.496Z</time>
      </trkpt>
      <trkpt lat="46.88604" lon="8.53546">
        <ele>1854</ele>
        <time>2021-08-11T09:17:17.497Z</time>
      </trkpt>
      <trkpt lat="46.88604" lon="8.53545">
        <ele>1854</ele>
        <time>2021-08-11T09:17:18.496Z</time>
      </trkpt>
      <trkpt lat="46.88604" lon="8.53545">
        <ele>1854</ele>
        <time>2021-08-11T09:17:19.496Z</time>
      </trkpt>
      <trkpt lat="46.88604" lon="8.53544">
        <ele>1855</ele>
        <time>2021-08-11T09:17:20.497Z</time>
      </trkpt>
      <trkpt lat="46.88603" lon="8.53544">
        <ele>1855</ele>
        <time>2021-08-11T09:17:21.497Z</time>
      </trkpt>
      <trkpt lat="46.88603" lon="8.53544">
        <ele>1854</ele>
        <time>2021-08-11T09:17:22.497Z</time>
      </trkpt>
      <trkpt lat="46.88603" lon="8.53545">
        <ele>1853</ele>
        <time>2021-08-11T09:17:23.497Z</time>
      </trkpt>
      <trkpt lat="46.88602" lon="8.53544">
        <ele>1847</ele>
        <time>2021-08-11T09:17:24.498Z</time>
      </trkpt>
      <trkpt lat="46.88602" lon="8.53544">
        <ele>1847</ele>
        <time>2021-08-11T09:17:25.498Z</time>
      </trkpt>
      <trkpt lat="46.88601" lon="8.53543">
        <ele>1847</ele>
        <time>2021-08-11T09:17:26.497Z</time>
      </trkpt>
      <trkpt lat="46.88601" lon="8.53543">
        <ele>1846</ele>
        <time>2021-08-11T09:17:27.498Z</time>
      </trkpt>
      <trkpt lat="46.88601" lon="8.53543">
        <ele>1846</ele>
        <time>2021-08-11T09:17:28.499Z</time>
      </trkpt>
      <trkpt lat="46.88602" lon="8.53541">
        <ele>1848</ele>
        <time>2021-08-11T09:17:29.499Z</time>
      </trkpt>
      <trkpt lat="46.88602" lon="8.53541">
        <ele>1849</ele>
        <time>2021-08-11T09:17:30.499Z</time>
      </trkpt>
      <trkpt lat="46.88602" lon="8.5354">
        <ele>1849</ele>
        <time>2021-08-11T09:17:31.498Z</time>
      </trkpt>
      <trkpt lat="46.88602" lon="8.53539">
        <ele>1849</ele>
        <time>2021-08-11T09:17:32.499Z</time>
      </trkpt>
      <trkpt lat="46.88602" lon="8.53539">
        <ele>1849</ele>
        <time>2021-08-11T09:17:33.498Z</time>
      </trkpt>
      <trkpt lat="46.88602" lon="8.53539">
        <ele>1849</ele>
        <time>2021-08-11T09:17:34.498Z</time>
      </trkpt>
      <trkpt lat="46.88601" lon="8.5354">
        <ele>1847</ele>
        <time>2021-08-11T09:17:35.376Z</time>
      </trkpt>
      <trkpt lat="46.88601" lon="8.53539">
        <ele>1847</ele>
        <time>2021-08-11T09:17:36.376Z</time>
      </trkpt>
      <trkpt lat="46.886" lon="8.5354">
        <ele>1847</ele>
        <time>2021-08-11T09:17:37.500Z</time>
      </trkpt>
      <trkpt lat="46.88599" lon="8.53537">
        <ele>1849</ele>
        <time>2021-08-11T09:17:38.378Z</time>
      </trkpt>
      <trkpt lat="46.88599" lon="8.53537">
        <ele>1849</ele>
        <time>2021-08-11T09:17:39.377Z</time>
      </trkpt>
      <trkpt lat="46.88599" lon="8.53537">
        <ele>1849</ele>
        <time>2021-08-11T09:17:40.377Z</time>
      </trkpt>
      <trkpt lat="46.88599" lon="8.53536">
        <ele>1848</ele>
        <time>2021-08-11T09:17:41.378Z</time>
      </trkpt>
      <trkpt lat="46.88599" lon="8.53536">
        <ele>1848</ele>
        <time>2021-08-11T09:17:42.378Z</time>
      </trkpt>
      <trkpt lat="46.88598" lon="8.53535">
        <ele>1847</ele>
        <time>2021-08-11T09:17:43.378Z</time>
      </trkpt>
      <trkpt lat="46.88598" lon="8.53534">
        <ele>1847</ele>
        <time>2021-08-11T09:17:44.379Z</time>
      </trkpt>
      <trkpt lat="46.88598" lon="8.53534">
        <ele>1847</ele>
        <time>2021-08-11T09:17:45.378Z</time>
      </trkpt>
      <trkpt lat="46.88598" lon="8.53533">
        <ele>1847</ele>
        <time>2021-08-11T09:17:46.378Z</time>
      </trkpt>
      <trkpt lat="46.88598" lon="8.53532">
        <ele>1847</ele>
        <time>2021-08-11T09:17:47.379Z</time>
      </trkpt>
      <trkpt lat="46.88597" lon="8.53532">
        <ele>1847</ele>
        <time>2021-08-11T09:17:48.378Z</time>
      </trkpt>
      <trkpt lat="46.88597" lon="8.53532">
        <ele>1847</ele>
        <time>2021-08-11T09:17:49.378Z</time>
      </trkpt>
      <trkpt lat="46.88597" lon="8.53531">
        <ele>1847</ele>
        <time>2021-08-11T09:17:50.379Z</time>
      </trkpt>
      <trkpt lat="46.88597" lon="8.53531">
        <ele>1847</ele>
        <time>2021-08-11T09:17:51.379Z</time>
      </trkpt>
      <trkpt lat="46.88597" lon="8.53531">
        <ele>1847</ele>
        <time>2021-08-11T09:17:52.379Z</time>
      </trkpt>
      <trkpt lat="46.88596" lon="8.53531">
        <ele>1844</ele>
        <time>2021-08-11T09:17:53.380Z</time>
      </trkpt>
      <trkpt lat="46.88596" lon="8.53531">
        <ele>1844</ele>
        <time>2021-08-11T09:17:54.380Z</time>
      </trkpt>
      <trkpt lat="46.88596" lon="8.53531">
        <ele>1845</ele>
        <time>2021-08-11T09:17:55.379Z</time>
      </trkpt>
      <trkpt lat="46.88596" lon="8.53531">
        <ele>1845</ele>
        <time>2021-08-11T09:17:56.380Z</time>
      </trkpt>
      <trkpt lat="46.88595" lon="8.53531">
        <ele>1846</ele>
        <time>2021-08-11T09:17:57.380Z</time>
      </trkpt>
      <trkpt lat="46.88595" lon="8.5353">
        <ele>1846</ele>
        <time>2021-08-11T09:17:58.379Z</time>
      </trkpt>
      <trkpt lat="46.88595" lon="8.5353">
        <ele>1847</ele>
        <time>2021-08-11T09:17:59.379Z</time>
      </trkpt>
      <trkpt lat="46.88595" lon="8.53529">
        <ele>1847</ele>
        <time>2021-08-11T09:18:00.379Z</time>
      </trkpt>
      <trkpt lat="46.88593" lon="8.53527">
        <ele>1848</ele>
        <time>2021-08-11T09:18:01.381Z</time>
      </trkpt>
      <trkpt lat="46.88593" lon="8.53527">
        <ele>1848</ele>
        <time>2021-08-11T09:18:02.381Z</time>
      </trkpt>
      <trkpt lat="46.88592" lon="8.53526">
        <ele>1848</ele>
        <time>2021-08-11T09:18:03.382Z</time>
      </trkpt>
      <trkpt lat="46.88591" lon="8.53525">
        <ele>1848</ele>
        <time>2021-08-11T09:18:04.381Z</time>
      </trkpt>
      <trkpt lat="46.8859" lon="8.53524">
        <ele>1848</ele>
        <time>2021-08-11T09:18:05.382Z</time>
      </trkpt>
      <trkpt lat="46.88589" lon="8.53523">
        <ele>1848</ele>
        <time>2021-08-11T09:18:06.381Z</time>
      </trkpt>
      <trkpt lat="46.88588" lon="8.53522">
        <ele>1848</ele>
        <time>2021-08-11T09:18:07.381Z</time>
      </trkpt>
      <trkpt lat="46.88587" lon="8.53522">
        <ele>1847</ele>
        <time>2021-08-11T09:18:08.381Z</time>
      </trkpt>
      <trkpt lat="46.88587" lon="8.53521">
        <ele>1847</ele>
        <time>2021-08-11T09:18:09.381Z</time>
      </trkpt>
      <trkpt lat="46.88586" lon="8.53521">
        <ele>1847</ele>
        <time>2021-08-11T09:18:10.381Z</time>
      </trkpt>
      <trkpt lat="46.88589" lon="8.53525">
        <ele>1843</ele>
        <time>2021-08-11T09:18:11.383Z</time>
      </trkpt>
      <trkpt lat="46.88589" lon="8.53525">
        <ele>1843</ele>
        <time>2021-08-11T09:18:12.383Z</time>
      </trkpt>
      <trkpt lat="46.88589" lon="8.53525">
        <ele>1842</ele>
        <time>2021-08-11T09:18:13.383Z</time>
      </trkpt>
      <trkpt lat="46.88589" lon="8.53525">
        <ele>1842</ele>
        <time>2021-08-11T09:18:14.383Z</time>
      </trkpt>
      <trkpt lat="46.88588" lon="8.53525">
        <ele>1841</ele>
        <time>2021-08-11T09:18:15.383Z</time>
      </trkpt>
      <trkpt lat="46.88588" lon="8.53525">
        <ele>1841</ele>
        <time>2021-08-11T09:18:16.382Z</time>
      </trkpt>
      <trkpt lat="46.88587" lon="8.53525">
        <ele>1841</ele>
        <time>2021-08-11T09:18:17.382Z</time>
      </trkpt>
      <trkpt lat="46.88587" lon="8.53524">
        <ele>1841</ele>
        <time>2021-08-11T09:18:18.383Z</time>
      </trkpt>
      <trkpt lat="46.88586" lon="8.53524">
        <ele>1841</ele>
        <time>2021-08-11T09:18:19.383Z</time>
      </trkpt>
      <trkpt lat="46.88585" lon="8.53523">
        <ele>1841</ele>
        <time>2021-08-11T09:18:20.383Z</time>
      </trkpt>
      <trkpt lat="46.88584" lon="8.53522">
        <ele>1841</ele>
        <time>2021-08-11T09:18:21.383Z</time>
      </trkpt>
      <trkpt lat="46.88583" lon="8.53522">
        <ele>1841</ele>
        <time>2021-08-11T09:18:22.382Z</time>
      </trkpt>
      <trkpt lat="46.88582" lon="8.5352">
        <ele>1841</ele>
        <time>2021-08-11T09:18:23.382Z</time>
      </trkpt>
      <trkpt lat="46.88581" lon="8.5352">
        <ele>1841</ele>
        <time>2021-08-11T09:18:24.383Z</time>
      </trkpt>
      <trkpt lat="46.88581" lon="8.5352">
        <ele>1841</ele>
        <time>2021-08-11T09:18:25.382Z</time>
      </trkpt>
      <trkpt lat="46.8858" lon="8.5352">
        <ele>1841</ele>
        <time>2021-08-11T09:18:26.382Z</time>
      </trkpt>
      <trkpt lat="46.8858" lon="8.5352">
        <ele>1841</ele>
        <time>2021-08-11T09:18:27.383Z</time>
      </trkpt>
      <trkpt lat="46.88579" lon="8.5352">
        <ele>1841</ele>
        <time>2021-08-11T09:18:28.382Z</time>
      </trkpt>
      <trkpt lat="46.88579" lon="8.5352">
        <ele>1841</ele>
        <time>2021-08-11T09:18:29.383Z</time>
      </trkpt>
      <trkpt lat="46.88578" lon="8.53519">
        <ele>1841</ele>
        <time>2021-08-11T09:18:30.382Z</time>
      </trkpt>
      <trkpt lat="46.88578" lon="8.53519">
        <ele>1841</ele>
        <time>2021-08-11T09:18:31.383Z</time>
      </trkpt>
      <trkpt lat="46.88577" lon="8.53519">
        <ele>1841</ele>
        <time>2021-08-11T09:18:32.383Z</time>
      </trkpt>
      <trkpt lat="46.88577" lon="8.53519">
        <ele>1841</ele>
        <time>2021-08-11T09:18:33.383Z</time>
      </trkpt>
      <trkpt lat="46.88577" lon="8.53518">
        <ele>1840</ele>
        <time>2021-08-11T09:18:34.382Z</time>
      </trkpt>
      <trkpt lat="46.88577" lon="8.53517">
        <ele>1840</ele>
        <time>2021-08-11T09:18:35.383Z</time>
      </trkpt>
      <trkpt lat="46.88577" lon="8.53517">
        <ele>1840</ele>
        <time>2021-08-11T09:18:36.383Z</time>
      </trkpt>
      <trkpt lat="46.88577" lon="8.53516">
        <ele>1840</ele>
        <time>2021-08-11T09:18:37.383Z</time>
      </trkpt>
      <trkpt lat="46.88576" lon="8.53515">
        <ele>1840</ele>
        <time>2021-08-11T09:18:38.383Z</time>
      </trkpt>
      <trkpt lat="46.88576" lon="8.53514">
        <ele>1840</ele>
        <time>2021-08-11T09:18:39.382Z</time>
      </trkpt>
      <trkpt lat="46.88575" lon="8.53514">
        <ele>1840</ele>
        <time>2021-08-11T09:18:40.383Z</time>
      </trkpt>
      <trkpt lat="46.88575" lon="8.53513">
        <ele>1841</ele>
        <time>2021-08-11T09:18:41.383Z</time>
      </trkpt>
      <trkpt lat="46.88574" lon="8.53513">
        <ele>1841</ele>
        <time>2021-08-11T09:18:42.383Z</time>
      </trkpt>
      <trkpt lat="46.88574" lon="8.53512">
        <ele>1841</ele>
        <time>2021-08-11T09:18:43.383Z</time>
      </trkpt>
      <trkpt lat="46.88573" lon="8.53512">
        <ele>1841</ele>
        <time>2021-08-11T09:18:44.382Z</time>
      </trkpt>
      <trkpt lat="46.88573" lon="8.53511">
        <ele>1841</ele>
        <time>2021-08-11T09:18:45.382Z</time>
      </trkpt>
      <trkpt lat="46.88572" lon="8.53511">
        <ele>1841</ele>
        <time>2021-08-11T09:18:46.383Z</time>
      </trkpt>
      <trkpt lat="46.88572" lon="8.53511">
        <ele>1841</ele>
        <time>2021-08-11T09:18:47.383Z</time>
      </trkpt>
      <trkpt lat="46.88572" lon="8.5351">
        <ele>1841</ele>
        <time>2021-08-11T09:18:48.383Z</time>
      </trkpt>
      <trkpt lat="46.88572" lon="8.5351">
        <ele>1841</ele>
        <time>2021-08-11T09:18:49.382Z</time>
      </trkpt>
      <trkpt lat="46.88571" lon="8.5351">
        <ele>1841</ele>
        <time>2021-08-11T09:18:50.382Z</time>
      </trkpt>
      <trkpt lat="46.88571" lon="8.53509">
        <ele>1841</ele>
        <time>2021-08-11T09:18:51.382Z</time>
      </trkpt>
      <trkpt lat="46.88571" lon="8.53508">
        <ele>1841</ele>
        <time>2021-08-11T09:18:52.382Z</time>
      </trkpt>
      <trkpt lat="46.88571" lon="8.53508">
        <ele>1841</ele>
        <time>2021-08-11T09:18:53.382Z</time>
      </trkpt>
      <trkpt lat="46.8857" lon="8.53507">
        <ele>1841</ele>
        <time>2021-08-11T09:18:54.383Z</time>
      </trkpt>
      <trkpt lat="46.8857" lon="8.53506">
        <ele>1842</ele>
        <time>2021-08-11T09:18:55.383Z</time>
      </trkpt>
      <trkpt lat="46.88569" lon="8.53505">
        <ele>1842</ele>
        <time>2021-08-11T09:18:56.383Z</time>
      </trkpt>
      <trkpt lat="46.88568" lon="8.53504">
        <ele>1842</ele>
        <time>2021-08-11T09:18:57.383Z</time>
      </trkpt>
      <trkpt lat="46.88568" lon="8.53504">
        <ele>1841</ele>
        <time>2021-08-11T09:18:58.382Z</time>
      </trkpt>
      <trkpt lat="46.88567" lon="8.53503">
        <ele>1841</ele>
        <time>2021-08-11T09:18:59.382Z</time>
      </trkpt>
      <trkpt lat="46.88566" lon="8.53502">
        <ele>1841</ele>
        <time>2021-08-11T09:19:00.383Z</time>
      </trkpt>
      <trkpt lat="46.88565" lon="8.53502">
        <ele>1841</ele>
        <time>2021-08-11T09:19:01.383Z</time>
      </trkpt>
      <trkpt lat="46.88565" lon="8.53502">
        <ele>1840</ele>
        <time>2021-08-11T09:19:02.383Z</time>
      </trkpt>
      <trkpt lat="46.88565" lon="8.53502">
        <ele>1840</ele>
        <time>2021-08-11T09:19:03.382Z</time>
      </trkpt>
      <trkpt lat="46.88565" lon="8.53502">
        <ele>1839</ele>
        <time>2021-08-11T09:19:04.382Z</time>
      </trkpt>
      <trkpt lat="46.88565" lon="8.53505">
        <ele>1847</ele>
        <time>2021-08-11T09:19:05.383Z</time>
      </trkpt>
      <trkpt lat="46.88564" lon="8.53504">
        <ele>1847</ele>
        <time>2021-08-11T09:19:06.382Z</time>
      </trkpt>
      <trkpt lat="46.88564" lon="8.53503">
        <ele>1848</ele>
        <time>2021-08-11T09:19:07.383Z</time>
      </trkpt>
      <trkpt lat="46.88563" lon="8.53502">
        <ele>1848</ele>
        <time>2021-08-11T09:19:08.383Z</time>
      </trkpt>
      <trkpt lat="46.88558" lon="8.535">
        <ele>1855</ele>
        <time>2021-08-11T09:19:09.382Z</time>
      </trkpt>
      <trkpt lat="46.88558" lon="8.535">
        <ele>1854</ele>
        <time>2021-08-11T09:19:10.383Z</time>
      </trkpt>
      <trkpt lat="46.88558" lon="8.53499">
        <ele>1853</ele>
        <time>2021-08-11T09:19:11.382Z</time>
      </trkpt>
      <trkpt lat="46.88557" lon="8.53499">
        <ele>1851</ele>
        <time>2021-08-11T09:19:12.383Z</time>
      </trkpt>
      <trkpt lat="46.88557" lon="8.53498">
        <ele>1850</ele>
        <time>2021-08-11T09:19:13.383Z</time>
      </trkpt>
      <trkpt lat="46.88556" lon="8.53498">
        <ele>1850</ele>
        <time>2021-08-11T09:19:14.383Z</time>
      </trkpt>
      <trkpt lat="46.88555" lon="8.53498">
        <ele>1849</ele>
        <time>2021-08-11T09:19:15.382Z</time>
      </trkpt>
      <trkpt lat="46.88554" lon="8.53498">
        <ele>1849</ele>
        <time>2021-08-11T09:19:16.383Z</time>
      </trkpt>
      <trkpt lat="46.88554" lon="8.53497">
        <ele>1848</ele>
        <time>2021-08-11T09:19:17.383Z</time>
      </trkpt>
      <trkpt lat="46.88553" lon="8.53497">
        <ele>1848</ele>
        <time>2021-08-11T09:19:18.383Z</time>
      </trkpt>
      <trkpt lat="46.88553" lon="8.53497">
        <ele>1847</ele>
        <time>2021-08-11T09:19:19.383Z</time>
      </trkpt>
      <trkpt lat="46.88552" lon="8.53497">
        <ele>1847</ele>
        <time>2021-08-11T09:19:20.383Z</time>
      </trkpt>
      <trkpt lat="46.88552" lon="8.53497">
        <ele>1846</ele>
        <time>2021-08-11T09:19:21.383Z</time>
      </trkpt>
      <trkpt lat="46.88552" lon="8.53497">
        <ele>1846</ele>
        <time>2021-08-11T09:19:22.382Z</time>
      </trkpt>
      <trkpt lat="46.88552" lon="8.53497">
        <ele>1845</ele>
        <time>2021-08-11T09:19:23.382Z</time>
      </trkpt>
      <trkpt lat="46.88552" lon="8.53495">
        <ele>1839</ele>
        <time>2021-08-11T09:19:24.383Z</time>
      </trkpt>
      <trkpt lat="46.88551" lon="8.53495">
        <ele>1838</ele>
        <time>2021-08-11T09:19:25.384Z</time>
      </trkpt>
      <trkpt lat="46.88551" lon="8.53494">
        <ele>1838</ele>
        <time>2021-08-11T09:19:26.385Z</time>
      </trkpt>
      <trkpt lat="46.88551" lon="8.53494">
        <ele>1837</ele>
        <time>2021-08-11T09:19:27.384Z</time>
      </trkpt>
      <trkpt lat="46.8855" lon="8.53493">
        <ele>1836</ele>
        <time>2021-08-11T09:19:28.384Z</time>
      </trkpt>
      <trkpt lat="46.8855" lon="8.53493">
        <ele>1835</ele>
        <time>2021-08-11T09:19:29.384Z</time>
      </trkpt>
      <trkpt lat="46.88549" lon="8.53492">
        <ele>1835</ele>
        <time>2021-08-11T09:19:30.384Z</time>
      </trkpt>
      <trkpt lat="46.88549" lon="8.53492">
        <ele>1834</ele>
        <time>2021-08-11T09:19:31.384Z</time>
      </trkpt>
      <trkpt lat="46.88549" lon="8.53491">
        <ele>1834</ele>
        <time>2021-08-11T09:19:32.384Z</time>
      </trkpt>
      <trkpt lat="46.88548" lon="8.5349">
        <ele>1834</ele>
        <time>2021-08-11T09:19:33.384Z</time>
      </trkpt>
      <trkpt lat="46.88548" lon="8.5349">
        <ele>1834</ele>
        <time>2021-08-11T09:19:34.384Z</time>
      </trkpt>
      <trkpt lat="46.88547" lon="8.53489">
        <ele>1834</ele>
        <time>2021-08-11T09:19:35.384Z</time>
      </trkpt>
      <trkpt lat="46.88547" lon="8.53489">
        <ele>1833</ele>
        <time>2021-08-11T09:19:36.384Z</time>
      </trkpt>
      <trkpt lat="46.88548" lon="8.53489">
        <ele>1833</ele>
        <time>2021-08-11T09:19:37.384Z</time>
      </trkpt>
      <trkpt lat="46.88547" lon="8.53488">
        <ele>1833</ele>
        <time>2021-08-11T09:19:38.385Z</time>
      </trkpt>
      <trkpt lat="46.88547" lon="8.53488">
        <ele>1833</ele>
        <time>2021-08-11T09:19:39.385Z</time>
      </trkpt>
      <trkpt lat="46.88546" lon="8.53487">
        <ele>1832</ele>
        <time>2021-08-11T09:19:40.384Z</time>
      </trkpt>
      <trkpt lat="46.88546" lon="8.53486">
        <ele>1832</ele>
        <time>2021-08-11T09:19:41.385Z</time>
      </trkpt>
      <trkpt lat="46.88545" lon="8.53485">
        <ele>1832</ele>
        <time>2021-08-11T09:19:42.384Z</time>
      </trkpt>
      <trkpt lat="46.88547" lon="8.53484">
        <ele>1832</ele>
        <time>2021-08-11T09:19:43.385Z</time>
      </trkpt>
      <trkpt lat="46.88547" lon="8.53482">
        <ele>1832</ele>
        <time>2021-08-11T09:19:44.384Z</time>
      </trkpt>
      <trkpt lat="46.88546" lon="8.53481">
        <ele>1832</ele>
        <time>2021-08-11T09:19:45.385Z</time>
      </trkpt>
      <trkpt lat="46.88546" lon="8.5348">
        <ele>1832</ele>
        <time>2021-08-11T09:19:46.385Z</time>
      </trkpt>
      <trkpt lat="46.88544" lon="8.5348">
        <ele>1832</ele>
        <time>2021-08-11T09:19:47.385Z</time>
      </trkpt>
      <trkpt lat="46.88543" lon="8.5348">
        <ele>1831</ele>
        <time>2021-08-11T09:19:48.385Z</time>
      </trkpt>
      <trkpt lat="46.88541" lon="8.5348">
        <ele>1831</ele>
        <time>2021-08-11T09:19:49.384Z</time>
      </trkpt>
      <trkpt lat="46.8854" lon="8.53479">
        <ele>1831</ele>
        <time>2021-08-11T09:19:50.385Z</time>
      </trkpt>
      <trkpt lat="46.8854" lon="8.53478">
        <ele>1831</ele>
        <time>2021-08-11T09:19:51.385Z</time>
      </trkpt>
      <trkpt lat="46.88539" lon="8.53478">
        <ele>1830</ele>
        <time>2021-08-11T09:19:52.385Z</time>
      </trkpt>
      <trkpt lat="46.88538" lon="8.53478">
        <ele>1830</ele>
        <time>2021-08-11T09:19:53.384Z</time>
      </trkpt>
      <trkpt lat="46.88537" lon="8.53478">
        <ele>1829</ele>
        <time>2021-08-11T09:19:54.384Z</time>
      </trkpt>
      <trkpt lat="46.88537" lon="8.53479">
        <ele>1829</ele>
        <time>2021-08-11T09:19:55.384Z</time>
      </trkpt>
      <trkpt lat="46.88536" lon="8.53482">
        <ele>1828</ele>
        <time>2021-08-11T09:19:56.384Z</time>
      </trkpt>
      <trkpt lat="46.88535" lon="8.53481">
        <ele>1835</ele>
        <time>2021-08-11T09:19:57.384Z</time>
      </trkpt>
      <trkpt lat="46.88536" lon="8.5348">
        <ele>1836</ele>
        <time>2021-08-11T09:19:58.384Z</time>
      </trkpt>
      <trkpt lat="46.88535" lon="8.5348">
        <ele>1836</ele>
        <time>2021-08-11T09:19:59.384Z</time>
      </trkpt>
      <trkpt lat="46.88535" lon="8.5348">
        <ele>1837</ele>
        <time>2021-08-11T09:20:00.385Z</time>
      </trkpt>
      <trkpt lat="46.88536" lon="8.5348">
        <ele>1837</ele>
        <time>2021-08-11T09:20:01.385Z</time>
      </trkpt>
      <trkpt lat="46.88536" lon="8.53479">
        <ele>1837</ele>
        <time>2021-08-11T09:20:02.385Z</time>
      </trkpt>
      <trkpt lat="46.88535" lon="8.53479">
        <ele>1837</ele>
        <time>2021-08-11T09:20:03.385Z</time>
      </trkpt>
      <trkpt lat="46.88534" lon="8.53478">
        <ele>1837</ele>
        <time>2021-08-11T09:20:04.385Z</time>
      </trkpt>
      <trkpt lat="46.88534" lon="8.53477">
        <ele>1837</ele>
        <time>2021-08-11T09:20:05.385Z</time>
      </trkpt>
      <trkpt lat="46.88534" lon="8.53476">
        <ele>1837</ele>
        <time>2021-08-11T09:20:06.385Z</time>
      </trkpt>
      <trkpt lat="46.88534" lon="8.53475">
        <ele>1836</ele>
        <time>2021-08-11T09:20:07.385Z</time>
      </trkpt>
      <trkpt lat="46.88534" lon="8.53474">
        <ele>1836</ele>
        <time>2021-08-11T09:20:08.385Z</time>
      </trkpt>
      <trkpt lat="46.88534" lon="8.53474">
        <ele>1836</ele>
        <time>2021-08-11T09:20:09.385Z</time>
      </trkpt>
      <trkpt lat="46.88533" lon="8.53472">
        <ele>1836</ele>
        <time>2021-08-11T09:20:10.385Z</time>
      </trkpt>
      <trkpt lat="46.88533" lon="8.53471">
        <ele>1835</ele>
        <time>2021-08-11T09:20:11.385Z</time>
      </trkpt>
      <trkpt lat="46.88533" lon="8.5347">
        <ele>1835</ele>
        <time>2021-08-11T09:20:12.385Z</time>
      </trkpt>
      <trkpt lat="46.88533" lon="8.53469">
        <ele>1835</ele>
        <time>2021-08-11T09:20:13.385Z</time>
      </trkpt>
      <trkpt lat="46.88533" lon="8.53468">
        <ele>1834</ele>
        <time>2021-08-11T09:20:14.385Z</time>
      </trkpt>
      <trkpt lat="46.88533" lon="8.53468">
        <ele>1834</ele>
        <time>2021-08-11T09:20:15.385Z</time>
      </trkpt>
      <trkpt lat="46.88533" lon="8.53467">
        <ele>1833</ele>
        <time>2021-08-11T09:20:16.385Z</time>
      </trkpt>
      <trkpt lat="46.88532" lon="8.53466">
        <ele>1833</ele>
        <time>2021-08-11T09:20:17.385Z</time>
      </trkpt>
      <trkpt lat="46.88532" lon="8.53464">
        <ele>1832</ele>
        <time>2021-08-11T09:20:18.385Z</time>
      </trkpt>
      <trkpt lat="46.88532" lon="8.53463">
        <ele>1833</ele>
        <time>2021-08-11T09:20:19.385Z</time>
      </trkpt>
      <trkpt lat="46.88532" lon="8.53463">
        <ele>1833</ele>
        <time>2021-08-11T09:20:20.385Z</time>
      </trkpt>
      <trkpt lat="46.88531" lon="8.53463">
        <ele>1834</ele>
        <time>2021-08-11T09:20:21.385Z</time>
      </trkpt>
      <trkpt lat="46.88532" lon="8.53462">
        <ele>1835</ele>
        <time>2021-08-11T09:20:22.386Z</time>
      </trkpt>
      <trkpt lat="46.88532" lon="8.53461">
        <ele>1836</ele>
        <time>2021-08-11T09:20:23.386Z</time>
      </trkpt>
      <trkpt lat="46.88531" lon="8.53461">
        <ele>1836</ele>
        <time>2021-08-11T09:20:24.385Z</time>
      </trkpt>
      <trkpt lat="46.88532" lon="8.5346">
        <ele>1836</ele>
        <time>2021-08-11T09:20:25.386Z</time>
      </trkpt>
      <trkpt lat="46.88531" lon="8.53459">
        <ele>1836</ele>
        <time>2021-08-11T09:20:26.385Z</time>
      </trkpt>
      <trkpt lat="46.88531" lon="8.53458">
        <ele>1835</ele>
        <time>2021-08-11T09:20:27.386Z</time>
      </trkpt>
      <trkpt lat="46.8853" lon="8.53458">
        <ele>1835</ele>
        <time>2021-08-11T09:20:28.386Z</time>
      </trkpt>
      <trkpt lat="46.88529" lon="8.53457">
        <ele>1835</ele>
        <time>2021-08-11T09:20:29.386Z</time>
      </trkpt>
      <trkpt lat="46.88529" lon="8.53457">
        <ele>1834</ele>
        <time>2021-08-11T09:20:30.385Z</time>
      </trkpt>
      <trkpt lat="46.88528" lon="8.53457">
        <ele>1834</ele>
        <time>2021-08-11T09:20:31.386Z</time>
      </trkpt>
      <trkpt lat="46.88528" lon="8.53457">
        <ele>1833</ele>
        <time>2021-08-11T09:20:32.386Z</time>
      </trkpt>
      <trkpt lat="46.88527" lon="8.53458">
        <ele>1829</ele>
        <time>2021-08-11T09:20:33.386Z</time>
      </trkpt>
      <trkpt lat="46.88527" lon="8.53457">
        <ele>1828</ele>
        <time>2021-08-11T09:20:34.386Z</time>
      </trkpt>
      <trkpt lat="46.88527" lon="8.53457">
        <ele>1828</ele>
        <time>2021-08-11T09:20:35.385Z</time>
      </trkpt>
      <trkpt lat="46.88526" lon="8.53457">
        <ele>1828</ele>
        <time>2021-08-11T09:20:36.386Z</time>
      </trkpt>
      <trkpt lat="46.88525" lon="8.53457">
        <ele>1828</ele>
        <time>2021-08-11T09:20:37.386Z</time>
      </trkpt>
      <trkpt lat="46.88525" lon="8.53457">
        <ele>1828</ele>
        <time>2021-08-11T09:20:38.386Z</time>
      </trkpt>
      <trkpt lat="46.88524" lon="8.53457">
        <ele>1829</ele>
        <time>2021-08-11T09:20:39.385Z</time>
      </trkpt>
      <trkpt lat="46.88523" lon="8.53457">
        <ele>1830</ele>
        <time>2021-08-11T09:20:40.386Z</time>
      </trkpt>
      <trkpt lat="46.88523" lon="8.53456">
        <ele>1830</ele>
        <time>2021-08-11T09:20:41.386Z</time>
      </trkpt>
      <trkpt lat="46.88522" lon="8.53456">
        <ele>1831</ele>
        <time>2021-08-11T09:20:42.385Z</time>
      </trkpt>
      <trkpt lat="46.88522" lon="8.53456">
        <ele>1832</ele>
        <time>2021-08-11T09:20:43.385Z</time>
      </trkpt>
      <trkpt lat="46.88521" lon="8.53455">
        <ele>1832</ele>
        <time>2021-08-11T09:20:44.386Z</time>
      </trkpt>
      <trkpt lat="46.88521" lon="8.53455">
        <ele>1833</ele>
        <time>2021-08-11T09:20:45.386Z</time>
      </trkpt>
      <trkpt lat="46.88519" lon="8.53453">
        <ele>1834</ele>
        <time>2021-08-11T09:20:46.387Z</time>
      </trkpt>
      <trkpt lat="46.88519" lon="8.53452">
        <ele>1834</ele>
        <time>2021-08-11T09:20:47.387Z</time>
      </trkpt>
      <trkpt lat="46.88518" lon="8.53452">
        <ele>1834</ele>
        <time>2021-08-11T09:20:48.386Z</time>
      </trkpt>
      <trkpt lat="46.88518" lon="8.53452">
        <ele>1835</ele>
        <time>2021-08-11T09:20:49.387Z</time>
      </trkpt>
      <trkpt lat="46.88518" lon="8.53452">
        <ele>1835</ele>
        <time>2021-08-11T09:20:50.387Z</time>
      </trkpt>
      <trkpt lat="46.88517" lon="8.53452">
        <ele>1835</ele>
        <time>2021-08-11T09:20:51.386Z</time>
      </trkpt>
      <trkpt lat="46.88517" lon="8.53452">
        <ele>1835</ele>
        <time>2021-08-11T09:20:52.387Z</time>
      </trkpt>
      <trkpt lat="46.88517" lon="8.53452">
        <ele>1836</ele>
        <time>2021-08-11T09:20:53.386Z</time>
      </trkpt>
      <trkpt lat="46.88516" lon="8.53452">
        <ele>1836</ele>
        <time>2021-08-11T09:20:54.387Z</time>
      </trkpt>
      <trkpt lat="46.88516" lon="8.53452">
        <ele>1836</ele>
        <time>2021-08-11T09:20:55.386Z</time>
      </trkpt>
      <trkpt lat="46.88515" lon="8.53451">
        <ele>1836</ele>
        <time>2021-08-11T09:20:56.387Z</time>
      </trkpt>
      <trkpt lat="46.88514" lon="8.53451">
        <ele>1836</ele>
        <time>2021-08-11T09:20:57.386Z</time>
      </trkpt>
      <trkpt lat="46.88513" lon="8.5345">
        <ele>1836</ele>
        <time>2021-08-11T09:20:58.387Z</time>
      </trkpt>
      <trkpt lat="46.88512" lon="8.53451">
        <ele>1837</ele>
        <time>2021-08-11T09:20:59.387Z</time>
      </trkpt>
      <trkpt lat="46.88511" lon="8.53451">
        <ele>1837</ele>
        <time>2021-08-11T09:21:00.387Z</time>
      </trkpt>
      <trkpt lat="46.88511" lon="8.5345">
        <ele>1838</ele>
        <time>2021-08-11T09:21:01.387Z</time>
      </trkpt>
      <trkpt lat="46.88511" lon="8.53451">
        <ele>1838</ele>
        <time>2021-08-11T09:21:02.386Z</time>
      </trkpt>
      <trkpt lat="46.88511" lon="8.53451">
        <ele>1838</ele>
        <time>2021-08-11T09:21:03.386Z</time>
      </trkpt>
      <trkpt lat="46.88511" lon="8.53451">
        <ele>1835</ele>
        <time>2021-08-11T09:21:04.387Z</time>
      </trkpt>
      <trkpt lat="46.88512" lon="8.53452">
        <ele>1835</ele>
        <time>2021-08-11T09:21:05.386Z</time>
      </trkpt>
      <trkpt lat="46.88512" lon="8.53452">
        <ele>1834</ele>
        <time>2021-08-11T09:21:06.386Z</time>
      </trkpt>
      <trkpt lat="46.88511" lon="8.53451">
        <ele>1829</ele>
        <time>2021-08-11T09:21:07.387Z</time>
      </trkpt>
      <trkpt lat="46.8851" lon="8.5345">
        <ele>1829</ele>
        <time>2021-08-11T09:21:08.387Z</time>
      </trkpt>
      <trkpt lat="46.8851" lon="8.5345">
        <ele>1828</ele>
        <time>2021-08-11T09:21:09.387Z</time>
      </trkpt>
      <trkpt lat="46.8851" lon="8.5345">
        <ele>1828</ele>
        <time>2021-08-11T09:21:10.387Z</time>
      </trkpt>
      <trkpt lat="46.88509" lon="8.5345">
        <ele>1828</ele>
        <time>2021-08-11T09:21:11.388Z</time>
      </trkpt>
      <trkpt lat="46.88508" lon="8.5345">
        <ele>1827</ele>
        <time>2021-08-11T09:21:12.388Z</time>
      </trkpt>
      <trkpt lat="46.88508" lon="8.5345">
        <ele>1827</ele>
        <time>2021-08-11T09:21:13.388Z</time>
      </trkpt>
      <trkpt lat="46.88508" lon="8.53449">
        <ele>1827</ele>
        <time>2021-08-11T09:21:14.387Z</time>
      </trkpt>
      <trkpt lat="46.88508" lon="8.53449">
        <ele>1827</ele>
        <time>2021-08-11T09:21:15.387Z</time>
      </trkpt>
      <trkpt lat="46.88509" lon="8.53449">
        <ele>1827</ele>
        <time>2021-08-11T09:21:16.388Z</time>
      </trkpt>
      <trkpt lat="46.88508" lon="8.53449">
        <ele>1827</ele>
        <time>2021-08-11T09:21:17.388Z</time>
      </trkpt>
      <trkpt lat="46.88507" lon="8.53449">
        <ele>1827</ele>
        <time>2021-08-11T09:21:18.388Z</time>
      </trkpt>
      <trkpt lat="46.88507" lon="8.53449">
        <ele>1827</ele>
        <time>2021-08-11T09:21:19.388Z</time>
      </trkpt>
      <trkpt lat="46.88506" lon="8.5345">
        <ele>1825</ele>
        <time>2021-08-11T09:21:20.390Z</time>
      </trkpt>
      <trkpt lat="46.88506" lon="8.5345">
        <ele>1825</ele>
        <time>2021-08-11T09:21:21.389Z</time>
      </trkpt>
      <trkpt lat="46.88507" lon="8.5345">
        <ele>1827</ele>
        <time>2021-08-11T09:21:22.390Z</time>
      </trkpt>
      <trkpt lat="46.88507" lon="8.5345">
        <ele>1828</ele>
        <time>2021-08-11T09:21:23.390Z</time>
      </trkpt>
      <trkpt lat="46.88506" lon="8.5345">
        <ele>1828</ele>
        <time>2021-08-11T09:21:24.390Z</time>
      </trkpt>
      <trkpt lat="46.88503" lon="8.53449">
        <ele>1840</ele>
        <time>2021-08-11T09:21:25.391Z</time>
      </trkpt>
      <trkpt lat="46.88504" lon="8.5345">
        <ele>1841</ele>
        <time>2021-08-11T09:21:26.390Z</time>
      </trkpt>
      <trkpt lat="46.88504" lon="8.53451">
        <ele>1841</ele>
        <time>2021-08-11T09:21:27.391Z</time>
      </trkpt>
      <trkpt lat="46.88504" lon="8.53451">
        <ele>1842</ele>
        <time>2021-08-11T09:21:28.391Z</time>
      </trkpt>
      <trkpt lat="46.88504" lon="8.53451">
        <ele>1842</ele>
        <time>2021-08-11T09:21:29.391Z</time>
      </trkpt>
      <trkpt lat="46.88501" lon="8.53448">
        <ele>1843</ele>
        <time>2021-08-11T09:21:30.391Z</time>
      </trkpt>
      <trkpt lat="46.88501" lon="8.53447">
        <ele>1842</ele>
        <time>2021-08-11T09:21:31.390Z</time>
      </trkpt>
      <trkpt lat="46.88499" lon="8.53445">
        <ele>1840</ele>
        <time>2021-08-11T09:21:32.391Z</time>
      </trkpt>
      <trkpt lat="46.88499" lon="8.53444">
        <ele>1840</ele>
        <time>2021-08-11T09:21:33.390Z</time>
      </trkpt>
      <trkpt lat="46.88499" lon="8.53443">
        <ele>1839</ele>
        <time>2021-08-11T09:21:34.392Z</time>
      </trkpt>
      <trkpt lat="46.885" lon="8.53443">
        <ele>1839</ele>
        <time>2021-08-11T09:21:35.392Z</time>
      </trkpt>
      <trkpt lat="46.88499" lon="8.53442">
        <ele>1838</ele>
        <time>2021-08-11T09:21:36.391Z</time>
      </trkpt>
      <trkpt lat="46.88499" lon="8.53442">
        <ele>1838</ele>
        <time>2021-08-11T09:21:37.391Z</time>
      </trkpt>
      <trkpt lat="46.88494" lon="8.53445">
        <ele>1834</ele>
        <time>2021-08-11T09:21:38.393Z</time>
      </trkpt>
      <trkpt lat="46.88494" lon="8.53445">
        <ele>1834</ele>
        <time>2021-08-11T09:21:39.393Z</time>
      </trkpt>
      <trkpt lat="46.88495" lon="8.53445">
        <ele>1833</ele>
        <time>2021-08-11T09:21:40.392Z</time>
      </trkpt>
      <trkpt lat="46.88495" lon="8.53446">
        <ele>1831</ele>
        <time>2021-08-11T09:21:41.393Z</time>
      </trkpt>
      <trkpt lat="46.88495" lon="8.53445">
        <ele>1831</ele>
        <time>2021-08-11T09:21:42.394Z</time>
      </trkpt>
      <trkpt lat="46.88495" lon="8.53444">
        <ele>1832</ele>
        <time>2021-08-11T09:21:43.393Z</time>
      </trkpt>
      <trkpt lat="46.88495" lon="8.53443">
        <ele>1832</ele>
        <time>2021-08-11T09:21:44.394Z</time>
      </trkpt>
      <trkpt lat="46.88495" lon="8.53442">
        <ele>1833</ele>
        <time>2021-08-11T09:21:45.394Z</time>
      </trkpt>
      <trkpt lat="46.88502" lon="8.53439">
        <ele>1834</ele>
        <time>2021-08-11T09:21:46.394Z</time>
      </trkpt>
      <trkpt lat="46.88501" lon="8.53439">
        <ele>1834</ele>
        <time>2021-08-11T09:21:47.394Z</time>
      </trkpt>
      <trkpt lat="46.885" lon="8.53439">
        <ele>1834</ele>
        <time>2021-08-11T09:21:48.393Z</time>
      </trkpt>
      <trkpt lat="46.88498" lon="8.5344">
        <ele>1833</ele>
        <time>2021-08-11T09:21:49.393Z</time>
      </trkpt>
      <trkpt lat="46.88497" lon="8.5344">
        <ele>1833</ele>
        <time>2021-08-11T09:21:50.393Z</time>
      </trkpt>
      <trkpt lat="46.88497" lon="8.5344">
        <ele>1833</ele>
        <time>2021-08-11T09:21:51.394Z</time>
      </trkpt>
      <trkpt lat="46.88496" lon="8.5344">
        <ele>1833</ele>
        <time>2021-08-11T09:21:52.394Z</time>
      </trkpt>
      <trkpt lat="46.88496" lon="8.53439">
        <ele>1834</ele>
        <time>2021-08-11T09:21:53.394Z</time>
      </trkpt>
      <trkpt lat="46.88497" lon="8.53439">
        <ele>1834</ele>
        <time>2021-08-11T09:21:54.394Z</time>
      </trkpt>
      <trkpt lat="46.88497" lon="8.53439">
        <ele>1834</ele>
        <time>2021-08-11T09:21:55.393Z</time>
      </trkpt>
      <trkpt lat="46.88501" lon="8.53438">
        <ele>1833</ele>
        <time>2021-08-11T09:21:56.394Z</time>
      </trkpt>
      <trkpt lat="46.885" lon="8.53437">
        <ele>1833</ele>
        <time>2021-08-11T09:21:57.394Z</time>
      </trkpt>
      <trkpt lat="46.88499" lon="8.53437">
        <ele>1832</ele>
        <time>2021-08-11T09:21:58.394Z</time>
      </trkpt>
      <trkpt lat="46.88498" lon="8.53436">
        <ele>1832</ele>
        <time>2021-08-11T09:21:59.393Z</time>
      </trkpt>
      <trkpt lat="46.88497" lon="8.53436">
        <ele>1832</ele>
        <time>2021-08-11T09:22:00.394Z</time>
      </trkpt>
      <trkpt lat="46.88497" lon="8.53437">
        <ele>1832</ele>
        <time>2021-08-11T09:22:01.394Z</time>
      </trkpt>
      <trkpt lat="46.88496" lon="8.53436">
        <ele>1832</ele>
        <time>2021-08-11T09:22:02.394Z</time>
      </trkpt>
      <trkpt lat="46.88495" lon="8.53435">
        <ele>1832</ele>
        <time>2021-08-11T09:22:03.395Z</time>
      </trkpt>
      <trkpt lat="46.88494" lon="8.53435">
        <ele>1832</ele>
        <time>2021-08-11T09:22:04.394Z</time>
      </trkpt>
      <trkpt lat="46.88493" lon="8.53436">
        <ele>1832</ele>
        <time>2021-08-11T09:22:05.394Z</time>
      </trkpt>
      <trkpt lat="46.88493" lon="8.53436">
        <ele>1832</ele>
        <time>2021-08-11T09:22:06.394Z</time>
      </trkpt>
      <trkpt lat="46.88492" lon="8.53437">
        <ele>1831</ele>
        <time>2021-08-11T09:22:07.395Z</time>
      </trkpt>
      <trkpt lat="46.88492" lon="8.53437">
        <ele>1831</ele>
        <time>2021-08-11T09:22:08.395Z</time>
      </trkpt>
      <trkpt lat="46.88492" lon="8.53436">
        <ele>1831</ele>
        <time>2021-08-11T09:22:09.394Z</time>
      </trkpt>
      <trkpt lat="46.8849" lon="8.53435">
        <ele>1827</ele>
        <time>2021-08-11T09:22:10.396Z</time>
      </trkpt>
      <trkpt lat="46.8849" lon="8.53435">
        <ele>1826</ele>
        <time>2021-08-11T09:22:11.396Z</time>
      </trkpt>
      <trkpt lat="46.88489" lon="8.53434">
        <ele>1826</ele>
        <time>2021-08-11T09:22:12.395Z</time>
      </trkpt>
      <trkpt lat="46.88489" lon="8.53435">
        <ele>1826</ele>
        <time>2021-08-11T09:22:13.396Z</time>
      </trkpt>
      <trkpt lat="46.88489" lon="8.53435">
        <ele>1826</ele>
        <time>2021-08-11T09:22:14.396Z</time>
      </trkpt>
      <trkpt lat="46.88488" lon="8.53435">
        <ele>1826</ele>
        <time>2021-08-11T09:22:15.396Z</time>
      </trkpt>
      <trkpt lat="46.88488" lon="8.53435">
        <ele>1826</ele>
        <time>2021-08-11T09:22:16.396Z</time>
      </trkpt>
      <trkpt lat="46.88487" lon="8.53435">
        <ele>1826</ele>
        <time>2021-08-11T09:22:17.395Z</time>
      </trkpt>
      <trkpt lat="46.88487" lon="8.53436">
        <ele>1826</ele>
        <time>2021-08-11T09:22:18.396Z</time>
      </trkpt>
      <trkpt lat="46.88487" lon="8.53436">
        <ele>1826</ele>
        <time>2021-08-11T09:22:19.396Z</time>
      </trkpt>
      <trkpt lat="46.88487" lon="8.53436">
        <ele>1826</ele>
        <time>2021-08-11T09:22:20.396Z</time>
      </trkpt>
      <trkpt lat="46.88487" lon="8.53436">
        <ele>1826</ele>
        <time>2021-08-11T09:22:21.395Z</time>
      </trkpt>
      <trkpt lat="46.88487" lon="8.53435">
        <ele>1826</ele>
        <time>2021-08-11T09:22:22.396Z</time>
      </trkpt>
      <trkpt lat="46.88486" lon="8.53434">
        <ele>1826</ele>
        <time>2021-08-11T09:22:23.396Z</time>
      </trkpt>
      <trkpt lat="46.88486" lon="8.53434">
        <ele>1827</ele>
        <time>2021-08-11T09:22:24.396Z</time>
      </trkpt>
      <trkpt lat="46.88486" lon="8.53432">
        <ele>1829</ele>
        <time>2021-08-11T09:22:25.397Z</time>
      </trkpt>
      <trkpt lat="46.88485" lon="8.53432">
        <ele>1830</ele>
        <time>2021-08-11T09:22:26.397Z</time>
      </trkpt>
      <trkpt lat="46.88484" lon="8.53431">
        <ele>1830</ele>
        <time>2021-08-11T09:22:27.396Z</time>
      </trkpt>
      <trkpt lat="46.88483" lon="8.5343">
        <ele>1830</ele>
        <time>2021-08-11T09:22:28.397Z</time>
      </trkpt>
      <trkpt lat="46.88482" lon="8.5343">
        <ele>1830</ele>
        <time>2021-08-11T09:22:29.396Z</time>
      </trkpt>
      <trkpt lat="46.88481" lon="8.53431">
        <ele>1830</ele>
        <time>2021-08-11T09:22:30.397Z</time>
      </trkpt>
      <trkpt lat="46.88481" lon="8.53431">
        <ele>1830</ele>
        <time>2021-08-11T09:22:31.397Z</time>
      </trkpt>
      <trkpt lat="46.88481" lon="8.53431">
        <ele>1830</ele>
        <time>2021-08-11T09:22:32.396Z</time>
      </trkpt>
      <trkpt lat="46.88481" lon="8.5343">
        <ele>1831</ele>
        <time>2021-08-11T09:22:33.397Z</time>
      </trkpt>
      <trkpt lat="46.88481" lon="8.5343">
        <ele>1831</ele>
        <time>2021-08-11T09:22:34.396Z</time>
      </trkpt>
      <trkpt lat="46.88481" lon="8.53429">
        <ele>1831</ele>
        <time>2021-08-11T09:22:35.397Z</time>
      </trkpt>
      <trkpt lat="46.88481" lon="8.53429">
        <ele>1830</ele>
        <time>2021-08-11T09:22:36.397Z</time>
      </trkpt>
      <trkpt lat="46.88481" lon="8.53429">
        <ele>1830</ele>
        <time>2021-08-11T09:22:37.397Z</time>
      </trkpt>
      <trkpt lat="46.88481" lon="8.53429">
        <ele>1830</ele>
        <time>2021-08-11T09:22:38.397Z</time>
      </trkpt>
      <trkpt lat="46.88482" lon="8.53428">
        <ele>1829</ele>
        <time>2021-08-11T09:22:39.398Z</time>
      </trkpt>
      <trkpt lat="46.88481" lon="8.53427">
        <ele>1829</ele>
        <time>2021-08-11T09:22:40.398Z</time>
      </trkpt>
      <trkpt lat="46.88481" lon="8.53426">
        <ele>1829</ele>
        <time>2021-08-11T09:22:41.397Z</time>
      </trkpt>
      <trkpt lat="46.8848" lon="8.53425">
        <ele>1828</ele>
        <time>2021-08-11T09:22:42.397Z</time>
      </trkpt>
      <trkpt lat="46.8848" lon="8.53424">
        <ele>1828</ele>
        <time>2021-08-11T09:22:43.398Z</time>
      </trkpt>
      <trkpt lat="46.8848" lon="8.53423">
        <ele>1828</ele>
        <time>2021-08-11T09:22:44.398Z</time>
      </trkpt>
      <trkpt lat="46.8848" lon="8.53423">
        <ele>1828</ele>
        <time>2021-08-11T09:22:45.398Z</time>
      </trkpt>
      <trkpt lat="46.88481" lon="8.53425">
        <ele>1828</ele>
        <time>2021-08-11T09:22:46.398Z</time>
      </trkpt>
      <trkpt lat="46.88481" lon="8.53424">
        <ele>1828</ele>
        <time>2021-08-11T09:22:47.397Z</time>
      </trkpt>
      <trkpt lat="46.88482" lon="8.53422">
        <ele>1829</ele>
        <time>2021-08-11T09:22:48.398Z</time>
      </trkpt>
      <trkpt lat="46.88482" lon="8.53421">
        <ele>1829</ele>
        <time>2021-08-11T09:22:49.399Z</time>
      </trkpt>
      <trkpt lat="46.88482" lon="8.53421">
        <ele>1828</ele>
        <time>2021-08-11T09:22:50.398Z</time>
      </trkpt>
      <trkpt lat="46.88481" lon="8.5342">
        <ele>1828</ele>
        <time>2021-08-11T09:22:51.399Z</time>
      </trkpt>
      <trkpt lat="46.88481" lon="8.53419">
        <ele>1827</ele>
        <time>2021-08-11T09:22:52.399Z</time>
      </trkpt>
      <trkpt lat="46.8848" lon="8.53419">
        <ele>1827</ele>
        <time>2021-08-11T09:22:53.399Z</time>
      </trkpt>
      <trkpt lat="46.8848" lon="8.53418">
        <ele>1826</ele>
        <time>2021-08-11T09:22:54.399Z</time>
      </trkpt>
      <trkpt lat="46.88479" lon="8.53418">
        <ele>1825</ele>
        <time>2021-08-11T09:22:55.399Z</time>
      </trkpt>
      <trkpt lat="46.88478" lon="8.53417">
        <ele>1825</ele>
        <time>2021-08-11T09:22:56.398Z</time>
      </trkpt>
      <trkpt lat="46.88477" lon="8.53418">
        <ele>1824</ele>
        <time>2021-08-11T09:22:57.399Z</time>
      </trkpt>
      <trkpt lat="46.88476" lon="8.53418">
        <ele>1823</ele>
        <time>2021-08-11T09:22:58.399Z</time>
      </trkpt>
      <trkpt lat="46.88476" lon="8.53418">
        <ele>1823</ele>
        <time>2021-08-11T09:22:59.399Z</time>
      </trkpt>
      <trkpt lat="46.88477" lon="8.53417">
        <ele>1820</ele>
        <time>2021-08-11T09:23:00.401Z</time>
      </trkpt>
      <trkpt lat="46.88476" lon="8.53416">
        <ele>1820</ele>
        <time>2021-08-11T09:23:01.400Z</time>
      </trkpt>
      <trkpt lat="46.88476" lon="8.53416">
        <ele>1820</ele>
        <time>2021-08-11T09:23:02.400Z</time>
      </trkpt>
      <trkpt lat="46.88474" lon="8.53416">
        <ele>1820</ele>
        <time>2021-08-11T09:23:03.401Z</time>
      </trkpt>
      <trkpt lat="46.88473" lon="8.53416">
        <ele>1820</ele>
        <time>2021-08-11T09:23:04.401Z</time>
      </trkpt>
      <trkpt lat="46.88473" lon="8.53415">
        <ele>1820</ele>
        <time>2021-08-11T09:23:05.402Z</time>
      </trkpt>
      <trkpt lat="46.88473" lon="8.53415">
        <ele>1820</ele>
        <time>2021-08-11T09:23:06.402Z</time>
      </trkpt>
      <trkpt lat="46.88473" lon="8.53414">
        <ele>1820</ele>
        <time>2021-08-11T09:23:07.402Z</time>
      </trkpt>
      <trkpt lat="46.88472" lon="8.53413">
        <ele>1820</ele>
        <time>2021-08-11T09:23:08.402Z</time>
      </trkpt>
      <trkpt lat="46.88472" lon="8.53412">
        <ele>1820</ele>
        <time>2021-08-11T09:23:09.402Z</time>
      </trkpt>
      <trkpt lat="46.88472" lon="8.53412">
        <ele>1820</ele>
        <time>2021-08-11T09:23:10.402Z</time>
      </trkpt>
      <trkpt lat="46.88472" lon="8.53411">
        <ele>1820</ele>
        <time>2021-08-11T09:23:11.402Z</time>
      </trkpt>
      <trkpt lat="46.88468" lon="8.5341">
        <ele>1820</ele>
        <time>2021-08-11T09:23:12.401Z</time>
      </trkpt>
      <trkpt lat="46.88468" lon="8.5341">
        <ele>1820</ele>
        <time>2021-08-11T09:23:13.401Z</time>
      </trkpt>
      <trkpt lat="46.88467" lon="8.5341">
        <ele>1820</ele>
        <time>2021-08-11T09:23:14.402Z</time>
      </trkpt>
      <trkpt lat="46.88467" lon="8.5341">
        <ele>1820</ele>
        <time>2021-08-11T09:23:15.401Z</time>
      </trkpt>
      <trkpt lat="46.88467" lon="8.5341">
        <ele>1819</ele>
        <time>2021-08-11T09:23:16.402Z</time>
      </trkpt>
      <trkpt lat="46.88466" lon="8.53409">
        <ele>1819</ele>
        <time>2021-08-11T09:23:17.401Z</time>
      </trkpt>
      <trkpt lat="46.88466" lon="8.53409">
        <ele>1819</ele>
        <time>2021-08-11T09:23:18.402Z</time>
      </trkpt>
      <trkpt lat="46.88465" lon="8.53409">
        <ele>1819</ele>
        <time>2021-08-11T09:23:19.401Z</time>
      </trkpt>
      <trkpt lat="46.88465" lon="8.53408">
        <ele>1819</ele>
        <time>2021-08-11T09:23:20.402Z</time>
      </trkpt>
      <trkpt lat="46.88465" lon="8.53407">
        <ele>1818</ele>
        <time>2021-08-11T09:23:21.402Z</time>
      </trkpt>
      <trkpt lat="46.88465" lon="8.53407">
        <ele>1818</ele>
        <time>2021-08-11T09:23:22.402Z</time>
      </trkpt>
      <trkpt lat="46.88464" lon="8.53406">
        <ele>1818</ele>
        <time>2021-08-11T09:23:23.402Z</time>
      </trkpt>
      <trkpt lat="46.88463" lon="8.53405">
        <ele>1818</ele>
        <time>2021-08-11T09:23:24.401Z</time>
      </trkpt>
      <trkpt lat="46.88463" lon="8.53405">
        <ele>1817</ele>
        <time>2021-08-11T09:23:25.401Z</time>
      </trkpt>
      <trkpt lat="46.88463" lon="8.53404">
        <ele>1817</ele>
        <time>2021-08-11T09:23:26.402Z</time>
      </trkpt>
      <trkpt lat="46.88463" lon="8.53403">
        <ele>1816</ele>
        <time>2021-08-11T09:23:27.402Z</time>
      </trkpt>
      <trkpt lat="46.88464" lon="8.53403">
        <ele>1816</ele>
        <time>2021-08-11T09:23:28.401Z</time>
      </trkpt>
      <trkpt lat="46.88464" lon="8.53402">
        <ele>1816</ele>
        <time>2021-08-11T09:23:29.401Z</time>
      </trkpt>
      <trkpt lat="46.88465" lon="8.53402">
        <ele>1816</ele>
        <time>2021-08-11T09:23:30.402Z</time>
      </trkpt>
      <trkpt lat="46.88465" lon="8.53402">
        <ele>1816</ele>
        <time>2021-08-11T09:23:31.402Z</time>
      </trkpt>
      <trkpt lat="46.88464" lon="8.53401">
        <ele>1816</ele>
        <time>2021-08-11T09:23:32.402Z</time>
      </trkpt>
      <trkpt lat="46.88464" lon="8.53401">
        <ele>1816</ele>
        <time>2021-08-11T09:23:33.402Z</time>
      </trkpt>
      <trkpt lat="46.88465" lon="8.53401">
        <ele>1809</ele>
        <time>2021-08-11T09:23:34.402Z</time>
      </trkpt>
      <trkpt lat="46.88464" lon="8.53401">
        <ele>1809</ele>
        <time>2021-08-11T09:23:35.402Z</time>
      </trkpt>
      <trkpt lat="46.88463" lon="8.534">
        <ele>1809</ele>
        <time>2021-08-11T09:23:36.401Z</time>
      </trkpt>
      <trkpt lat="46.88462" lon="8.534">
        <ele>1809</ele>
        <time>2021-08-11T09:23:37.402Z</time>
      </trkpt>
      <trkpt lat="46.88462" lon="8.534">
        <ele>1809</ele>
        <time>2021-08-11T09:23:38.401Z</time>
      </trkpt>
      <trkpt lat="46.88461" lon="8.53399">
        <ele>1810</ele>
        <time>2021-08-11T09:23:39.402Z</time>
      </trkpt>
      <trkpt lat="46.8846" lon="8.53399">
        <ele>1810</ele>
        <time>2021-08-11T09:23:40.401Z</time>
      </trkpt>
      <trkpt lat="46.88459" lon="8.53399">
        <ele>1810</ele>
        <time>2021-08-11T09:23:41.401Z</time>
      </trkpt>
      <trkpt lat="46.88458" lon="8.53399">
        <ele>1810</ele>
        <time>2021-08-11T09:23:42.402Z</time>
      </trkpt>
      <trkpt lat="46.88457" lon="8.53398">
        <ele>1810</ele>
        <time>2021-08-11T09:23:43.401Z</time>
      </trkpt>
      <trkpt lat="46.88456" lon="8.53398">
        <ele>1809</ele>
        <time>2021-08-11T09:23:44.401Z</time>
      </trkpt>
      <trkpt lat="46.88455" lon="8.53398">
        <ele>1809</ele>
        <time>2021-08-11T09:23:45.401Z</time>
      </trkpt>
      <trkpt lat="46.88455" lon="8.53398">
        <ele>1808</ele>
        <time>2021-08-11T09:23:46.401Z</time>
      </trkpt>
      <trkpt lat="46.88452" lon="8.53395">
        <ele>1806</ele>
        <time>2021-08-11T09:23:47.401Z</time>
      </trkpt>
      <trkpt lat="46.8845" lon="8.53394">
        <ele>1806</ele>
        <time>2021-08-11T09:23:48.401Z</time>
      </trkpt>
      <trkpt lat="46.8845" lon="8.53394">
        <ele>1806</ele>
        <time>2021-08-11T09:23:49.402Z</time>
      </trkpt>
      <trkpt lat="46.88448" lon="8.53392">
        <ele>1807</ele>
        <time>2021-08-11T09:23:50.402Z</time>
      </trkpt>
      <trkpt lat="46.88448" lon="8.53391">
        <ele>1807</ele>
        <time>2021-08-11T09:23:51.401Z</time>
      </trkpt>
      <trkpt lat="46.88448" lon="8.53391">
        <ele>1807</ele>
        <time>2021-08-11T09:23:52.401Z</time>
      </trkpt>
      <trkpt lat="46.88448" lon="8.5339">
        <ele>1807</ele>
        <time>2021-08-11T09:23:53.402Z</time>
      </trkpt>
      <trkpt lat="46.88447" lon="8.53389">
        <ele>1807</ele>
        <time>2021-08-11T09:23:54.402Z</time>
      </trkpt>
      <trkpt lat="46.88447" lon="8.5339">
        <ele>1807</ele>
        <time>2021-08-11T09:23:55.402Z</time>
      </trkpt>
      <trkpt lat="46.88448" lon="8.53391">
        <ele>1806</ele>
        <time>2021-08-11T09:23:56.403Z</time>
      </trkpt>
      <trkpt lat="46.88448" lon="8.53391">
        <ele>1806</ele>
        <time>2021-08-11T09:23:57.403Z</time>
      </trkpt>
      <trkpt lat="46.88448" lon="8.53391">
        <ele>1806</ele>
        <time>2021-08-11T09:23:58.402Z</time>
      </trkpt>
      <trkpt lat="46.88446" lon="8.5339">
        <ele>1804</ele>
        <time>2021-08-11T09:23:59.404Z</time>
      </trkpt>
      <trkpt lat="46.88446" lon="8.5339">
        <ele>1804</ele>
        <time>2021-08-11T09:24:00.404Z</time>
      </trkpt>
      <trkpt lat="46.88446" lon="8.53389">
        <ele>1804</ele>
        <time>2021-08-11T09:24:01.404Z</time>
      </trkpt>
      <trkpt lat="46.88445" lon="8.53389">
        <ele>1804</ele>
        <time>2021-08-11T09:24:02.404Z</time>
      </trkpt>
      <trkpt lat="46.88445" lon="8.53388">
        <ele>1804</ele>
        <time>2021-08-11T09:24:03.403Z</time>
      </trkpt>
      <trkpt lat="46.88445" lon="8.53388">
        <ele>1804</ele>
        <time>2021-08-11T09:24:04.403Z</time>
      </trkpt>
      <trkpt lat="46.88445" lon="8.53388">
        <ele>1804</ele>
        <time>2021-08-11T09:24:05.404Z</time>
      </trkpt>
      <trkpt lat="46.88445" lon="8.53387">
        <ele>1804</ele>
        <time>2021-08-11T09:24:06.404Z</time>
      </trkpt>
      <trkpt lat="46.88445" lon="8.53386">
        <ele>1804</ele>
        <time>2021-08-11T09:24:07.405Z</time>
      </trkpt>
      <trkpt lat="46.88445" lon="8.53385">
        <ele>1804</ele>
        <time>2021-08-11T09:24:08.405Z</time>
      </trkpt>
      <trkpt lat="46.88445" lon="8.53385">
        <ele>1804</ele>
        <time>2021-08-11T09:24:09.404Z</time>
      </trkpt>
      <trkpt lat="46.88445" lon="8.53385">
        <ele>1804</ele>
        <time>2021-08-11T09:24:10.405Z</time>
      </trkpt>
      <trkpt lat="46.88445" lon="8.53384">
        <ele>1803</ele>
        <time>2021-08-11T09:24:11.405Z</time>
      </trkpt>
      <trkpt lat="46.88445" lon="8.53383">
        <ele>1803</ele>
        <time>2021-08-11T09:24:12.404Z</time>
      </trkpt>
      <trkpt lat="46.88445" lon="8.53383">
        <ele>1803</ele>
        <time>2021-08-11T09:24:13.405Z</time>
      </trkpt>
      <trkpt lat="46.88445" lon="8.53382">
        <ele>1803</ele>
        <time>2021-08-11T09:24:14.405Z</time>
      </trkpt>
      <trkpt lat="46.88445" lon="8.53382">
        <ele>1803</ele>
        <time>2021-08-11T09:24:15.404Z</time>
      </trkpt>
      <trkpt lat="46.88444" lon="8.53381">
        <ele>1804</ele>
        <time>2021-08-11T09:24:16.405Z</time>
      </trkpt>
      <trkpt lat="46.88444" lon="8.53381">
        <ele>1804</ele>
        <time>2021-08-11T09:24:17.405Z</time>
      </trkpt>
      <trkpt lat="46.88444" lon="8.53381">
        <ele>1804</ele>
        <time>2021-08-11T09:24:18.404Z</time>
      </trkpt>
      <trkpt lat="46.88445" lon="8.5338">
        <ele>1803</ele>
        <time>2021-08-11T09:24:19.405Z</time>
      </trkpt>
      <trkpt lat="46.88445" lon="8.5338">
        <ele>1803</ele>
        <time>2021-08-11T09:24:20.404Z</time>
      </trkpt>
      <trkpt lat="46.88445" lon="8.5338">
        <ele>1803</ele>
        <time>2021-08-11T09:24:21.404Z</time>
      </trkpt>
      <trkpt lat="46.88445" lon="8.53379">
        <ele>1803</ele>
        <time>2021-08-11T09:24:22.404Z</time>
      </trkpt>
      <trkpt lat="46.88445" lon="8.53379">
        <ele>1803</ele>
        <time>2021-08-11T09:24:23.404Z</time>
      </trkpt>
      <trkpt lat="46.88444" lon="8.53378">
        <ele>1803</ele>
        <time>2021-08-11T09:24:24.405Z</time>
      </trkpt>
      <trkpt lat="46.88443" lon="8.53377">
        <ele>1803</ele>
        <time>2021-08-11T09:24:25.405Z</time>
      </trkpt>
      <trkpt lat="46.88443" lon="8.53377">
        <ele>1803</ele>
        <time>2021-08-11T09:24:26.405Z</time>
      </trkpt>
      <trkpt lat="46.88443" lon="8.53376">
        <ele>1802</ele>
        <time>2021-08-11T09:24:27.405Z</time>
      </trkpt>
      <trkpt lat="46.88443" lon="8.53376">
        <ele>1802</ele>
        <time>2021-08-11T09:24:28.405Z</time>
      </trkpt>
      <trkpt lat="46.88442" lon="8.53375">
        <ele>1802</ele>
        <time>2021-08-11T09:24:29.404Z</time>
      </trkpt>
      <trkpt lat="46.88441" lon="8.53374">
        <ele>1801</ele>
        <time>2021-08-11T09:24:30.405Z</time>
      </trkpt>
      <trkpt lat="46.88441" lon="8.53374">
        <ele>1801</ele>
        <time>2021-08-11T09:24:31.405Z</time>
      </trkpt>
      <trkpt lat="46.8844" lon="8.53373">
        <ele>1800</ele>
        <time>2021-08-11T09:24:32.404Z</time>
      </trkpt>
      <trkpt lat="46.8844" lon="8.53372">
        <ele>1799</ele>
        <time>2021-08-11T09:24:33.405Z</time>
      </trkpt>
      <trkpt lat="46.88439" lon="8.53372">
        <ele>1798</ele>
        <time>2021-08-11T09:24:34.405Z</time>
      </trkpt>
      <trkpt lat="46.88439" lon="8.53372">
        <ele>1797</ele>
        <time>2021-08-11T09:24:35.404Z</time>
      </trkpt>
      <trkpt lat="46.8844" lon="8.53372">
        <ele>1796</ele>
        <time>2021-08-11T09:24:36.405Z</time>
      </trkpt>
      <trkpt lat="46.8844" lon="8.53372">
        <ele>1795</ele>
        <time>2021-08-11T09:24:37.405Z</time>
      </trkpt>
      <trkpt lat="46.88441" lon="8.53373">
        <ele>1794</ele>
        <time>2021-08-11T09:24:38.405Z</time>
      </trkpt>
      <trkpt lat="46.88442" lon="8.53374">
        <ele>1794</ele>
        <time>2021-08-11T09:24:39.406Z</time>
      </trkpt>
      <trkpt lat="46.88443" lon="8.53374">
        <ele>1794</ele>
        <time>2021-08-11T09:24:40.406Z</time>
      </trkpt>
      <trkpt lat="46.88443" lon="8.53374">
        <ele>1794</ele>
        <time>2021-08-11T09:24:41.405Z</time>
      </trkpt>
      <trkpt lat="46.88444" lon="8.53374">
        <ele>1793</ele>
        <time>2021-08-11T09:24:42.405Z</time>
      </trkpt>
      <trkpt lat="46.88445" lon="8.53373">
        <ele>1793</ele>
        <time>2021-08-11T09:24:43.406Z</time>
      </trkpt>
      <trkpt lat="46.88445" lon="8.53373">
        <ele>1793</ele>
        <time>2021-08-11T09:24:44.406Z</time>
      </trkpt>
      <trkpt lat="46.88445" lon="8.53373">
        <ele>1792</ele>
        <time>2021-08-11T09:24:45.406Z</time>
      </trkpt>
      <trkpt lat="46.88448" lon="8.53368">
        <ele>1794</ele>
        <time>2021-08-11T09:24:46.407Z</time>
      </trkpt>
      <trkpt lat="46.88448" lon="8.53367">
        <ele>1795</ele>
        <time>2021-08-11T09:24:47.406Z</time>
      </trkpt>
      <trkpt lat="46.88448" lon="8.53367">
        <ele>1795</ele>
        <time>2021-08-11T09:24:48.406Z</time>
      </trkpt>
      <trkpt lat="46.88447" lon="8.53367">
        <ele>1794</ele>
        <time>2021-08-11T09:24:49.407Z</time>
      </trkpt>
      <trkpt lat="46.88447" lon="8.53367">
        <ele>1794</ele>
        <time>2021-08-11T09:24:50.406Z</time>
      </trkpt>
      <trkpt lat="46.88442" lon="8.5337">
        <ele>1790</ele>
        <time>2021-08-11T09:24:51.406Z</time>
      </trkpt>
      <trkpt lat="46.88441" lon="8.5337">
        <ele>1790</ele>
        <time>2021-08-11T09:24:52.407Z</time>
      </trkpt>
      <trkpt lat="46.88442" lon="8.5337">
        <ele>1790</ele>
        <time>2021-08-11T09:24:53.407Z</time>
      </trkpt>
      <trkpt lat="46.88442" lon="8.5337">
        <ele>1789</ele>
        <time>2021-08-11T09:24:54.407Z</time>
      </trkpt>
      <trkpt lat="46.88442" lon="8.5337">
        <ele>1789</ele>
        <time>2021-08-11T09:24:55.406Z</time>
      </trkpt>
      <trkpt lat="46.88442" lon="8.5337">
        <ele>1789</ele>
        <time>2021-08-11T09:24:56.406Z</time>
      </trkpt>
      <trkpt lat="46.88443" lon="8.5337">
        <ele>1790</ele>
        <time>2021-08-11T09:24:57.407Z</time>
      </trkpt>
      <trkpt lat="46.88443" lon="8.5337">
        <ele>1790</ele>
        <time>2021-08-11T09:24:58.406Z</time>
      </trkpt>
      <trkpt lat="46.88442" lon="8.5337">
        <ele>1791</ele>
        <time>2021-08-11T09:24:59.407Z</time>
      </trkpt>
      <trkpt lat="46.88442" lon="8.5337">
        <ele>1791</ele>
        <time>2021-08-11T09:25:00.407Z</time>
      </trkpt>
      <trkpt lat="46.88442" lon="8.53371">
        <ele>1790</ele>
        <time>2021-08-11T09:25:01.407Z</time>
      </trkpt>
      <trkpt lat="46.88442" lon="8.5337">
        <ele>1789</ele>
        <time>2021-08-11T09:25:02.406Z</time>
      </trkpt>
      <trkpt lat="46.88442" lon="8.53369">
        <ele>1789</ele>
        <time>2021-08-11T09:25:03.407Z</time>
      </trkpt>
      <trkpt lat="46.88442" lon="8.53369">
        <ele>1789</ele>
        <time>2021-08-11T09:25:04.406Z</time>
      </trkpt>
      <trkpt lat="46.88442" lon="8.53368">
        <ele>1789</ele>
        <time>2021-08-11T09:25:05.406Z</time>
      </trkpt>
      <trkpt lat="46.88442" lon="8.53367">
        <ele>1789</ele>
        <time>2021-08-11T09:25:06.407Z</time>
      </trkpt>
      <trkpt lat="46.88441" lon="8.53364">
        <ele>1788</ele>
        <time>2021-08-11T09:25:07.407Z</time>
      </trkpt>
      <trkpt lat="46.88441" lon="8.53363">
        <ele>1788</ele>
        <time>2021-08-11T09:25:08.407Z</time>
      </trkpt>
      <trkpt lat="46.88441" lon="8.53363">
        <ele>1788</ele>
        <time>2021-08-11T09:25:09.406Z</time>
      </trkpt>
      <trkpt lat="46.8844" lon="8.53361">
        <ele>1788</ele>
        <time>2021-08-11T09:25:10.407Z</time>
      </trkpt>
      <trkpt lat="46.8844" lon="8.53361">
        <ele>1789</ele>
        <time>2021-08-11T09:25:11.407Z</time>
      </trkpt>
      <trkpt lat="46.88439" lon="8.5336">
        <ele>1789</ele>
        <time>2021-08-11T09:25:12.407Z</time>
      </trkpt>
      <trkpt lat="46.88438" lon="8.53359">
        <ele>1789</ele>
        <time>2021-08-11T09:25:13.407Z</time>
      </trkpt>
      <trkpt lat="46.88438" lon="8.53359">
        <ele>1789</ele>
        <time>2021-08-11T09:25:14.407Z</time>
      </trkpt>
      <trkpt lat="46.88437" lon="8.53358">
        <ele>1789</ele>
        <time>2021-08-11T09:25:15.407Z</time>
      </trkpt>
      <trkpt lat="46.88437" lon="8.53358">
        <ele>1789</ele>
        <time>2021-08-11T09:25:16.407Z</time>
      </trkpt>
      <trkpt lat="46.88437" lon="8.53357">
        <ele>1789</ele>
        <time>2021-08-11T09:25:17.406Z</time>
      </trkpt>
      <trkpt lat="46.88437" lon="8.53356">
        <ele>1789</ele>
        <time>2021-08-11T09:25:18.407Z</time>
      </trkpt>
      <trkpt lat="46.88437" lon="8.53355">
        <ele>1790</ele>
        <time>2021-08-11T09:25:19.407Z</time>
      </trkpt>
      <trkpt lat="46.88437" lon="8.53353">
        <ele>1790</ele>
        <time>2021-08-11T09:25:20.406Z</time>
      </trkpt>
      <trkpt lat="46.88436" lon="8.53352">
        <ele>1790</ele>
        <time>2021-08-11T09:25:21.407Z</time>
      </trkpt>
      <trkpt lat="46.88436" lon="8.53351">
        <ele>1790</ele>
        <time>2021-08-11T09:25:22.407Z</time>
      </trkpt>
      <trkpt lat="46.88435" lon="8.53351">
        <ele>1791</ele>
        <time>2021-08-11T09:25:23.407Z</time>
      </trkpt>
      <trkpt lat="46.88434" lon="8.5335">
        <ele>1791</ele>
        <time>2021-08-11T09:25:24.407Z</time>
      </trkpt>
      <trkpt lat="46.88434" lon="8.5335">
        <ele>1791</ele>
        <time>2021-08-11T09:25:25.407Z</time>
      </trkpt>
      <trkpt lat="46.88434" lon="8.5335">
        <ele>1791</ele>
        <time>2021-08-11T09:25:26.407Z</time>
      </trkpt>
      <trkpt lat="46.88433" lon="8.5335">
        <ele>1791</ele>
        <time>2021-08-11T09:25:27.407Z</time>
      </trkpt>
      <trkpt lat="46.88433" lon="8.53349">
        <ele>1791</ele>
        <time>2021-08-11T09:25:28.407Z</time>
      </trkpt>
      <trkpt lat="46.88432" lon="8.53349">
        <ele>1791</ele>
        <time>2021-08-11T09:25:29.406Z</time>
      </trkpt>
      <trkpt lat="46.88432" lon="8.53349">
        <ele>1791</ele>
        <time>2021-08-11T09:25:30.407Z</time>
      </trkpt>
      <trkpt lat="46.88432" lon="8.53348">
        <ele>1791</ele>
        <time>2021-08-11T09:25:31.407Z</time>
      </trkpt>
      <trkpt lat="46.88431" lon="8.53348">
        <ele>1791</ele>
        <time>2021-08-11T09:25:32.406Z</time>
      </trkpt>
      <trkpt lat="46.8843" lon="8.53348">
        <ele>1791</ele>
        <time>2021-08-11T09:25:33.406Z</time>
      </trkpt>
      <trkpt lat="46.8843" lon="8.53348">
        <ele>1791</ele>
        <time>2021-08-11T09:25:34.407Z</time>
      </trkpt>
      <trkpt lat="46.88429" lon="8.53348">
        <ele>1791</ele>
        <time>2021-08-11T09:25:35.406Z</time>
      </trkpt>
      <trkpt lat="46.88429" lon="8.53347">
        <ele>1790</ele>
        <time>2021-08-11T09:25:36.407Z</time>
      </trkpt>
      <trkpt lat="46.88428" lon="8.53347">
        <ele>1790</ele>
        <time>2021-08-11T09:25:37.407Z</time>
      </trkpt>
      <trkpt lat="46.88428" lon="8.53346">
        <ele>1789</ele>
        <time>2021-08-11T09:25:38.406Z</time>
      </trkpt>
      <trkpt lat="46.88428" lon="8.53346">
        <ele>1789</ele>
        <time>2021-08-11T09:25:39.407Z</time>
      </trkpt>
      <trkpt lat="46.88427" lon="8.53345">
        <ele>1788</ele>
        <time>2021-08-11T09:25:40.406Z</time>
      </trkpt>
      <trkpt lat="46.88427" lon="8.53344">
        <ele>1788</ele>
        <time>2021-08-11T09:25:41.406Z</time>
      </trkpt>
      <trkpt lat="46.88428" lon="8.53343">
        <ele>1788</ele>
        <time>2021-08-11T09:25:42.407Z</time>
      </trkpt>
      <trkpt lat="46.88428" lon="8.53341">
        <ele>1787</ele>
        <time>2021-08-11T09:25:43.407Z</time>
      </trkpt>
      <trkpt lat="46.88429" lon="8.5334">
        <ele>1787</ele>
        <time>2021-08-11T09:25:44.406Z</time>
      </trkpt>
      <trkpt lat="46.88429" lon="8.5334">
        <ele>1786</ele>
        <time>2021-08-11T09:25:45.406Z</time>
      </trkpt>
      <trkpt lat="46.88429" lon="8.53339">
        <ele>1786</ele>
        <time>2021-08-11T09:25:46.407Z</time>
      </trkpt>
      <trkpt lat="46.88429" lon="8.53338">
        <ele>1785</ele>
        <time>2021-08-11T09:25:47.407Z</time>
      </trkpt>
      <trkpt lat="46.88429" lon="8.53337">
        <ele>1784</ele>
        <time>2021-08-11T09:25:48.407Z</time>
      </trkpt>
      <trkpt lat="46.88429" lon="8.53336">
        <ele>1784</ele>
        <time>2021-08-11T09:25:49.406Z</time>
      </trkpt>
      <trkpt lat="46.88428" lon="8.53336">
        <ele>1784</ele>
        <time>2021-08-11T09:25:50.407Z</time>
      </trkpt>
      <trkpt lat="46.88428" lon="8.53335">
        <ele>1784</ele>
        <time>2021-08-11T09:25:51.407Z</time>
      </trkpt>
      <trkpt lat="46.88428" lon="8.53335">
        <ele>1784</ele>
        <time>2021-08-11T09:25:52.406Z</time>
      </trkpt>
      <trkpt lat="46.88427" lon="8.53334">
        <ele>1784</ele>
        <time>2021-08-11T09:25:53.407Z</time>
      </trkpt>
      <trkpt lat="46.88427" lon="8.53333">
        <ele>1784</ele>
        <time>2021-08-11T09:25:54.406Z</time>
      </trkpt>
      <trkpt lat="46.88427" lon="8.53332">
        <ele>1784</ele>
        <time>2021-08-11T09:25:55.407Z</time>
      </trkpt>
      <trkpt lat="46.88427" lon="8.53331">
        <ele>1784</ele>
        <time>2021-08-11T09:25:56.407Z</time>
      </trkpt>
      <trkpt lat="46.88428" lon="8.5333">
        <ele>1784</ele>
        <time>2021-08-11T09:25:57.407Z</time>
      </trkpt>
      <trkpt lat="46.88428" lon="8.53329">
        <ele>1784</ele>
        <time>2021-08-11T09:25:58.407Z</time>
      </trkpt>
      <trkpt lat="46.88427" lon="8.53328">
        <ele>1784</ele>
        <time>2021-08-11T09:25:59.406Z</time>
      </trkpt>
      <trkpt lat="46.88427" lon="8.53327">
        <ele>1784</ele>
        <time>2021-08-11T09:26:00.407Z</time>
      </trkpt>
      <trkpt lat="46.88427" lon="8.53326">
        <ele>1784</ele>
        <time>2021-08-11T09:26:01.406Z</time>
      </trkpt>
      <trkpt lat="46.88427" lon="8.53325">
        <ele>1784</ele>
        <time>2021-08-11T09:26:02.407Z</time>
      </trkpt>
      <trkpt lat="46.88427" lon="8.53325">
        <ele>1784</ele>
        <time>2021-08-11T09:26:03.407Z</time>
      </trkpt>
      <trkpt lat="46.88427" lon="8.53325">
        <ele>1784</ele>
        <time>2021-08-11T09:26:04.407Z</time>
      </trkpt>
      <trkpt lat="46.88427" lon="8.53324">
        <ele>1783</ele>
        <time>2021-08-11T09:26:05.407Z</time>
      </trkpt>
      <trkpt lat="46.88426" lon="8.53324">
        <ele>1783</ele>
        <time>2021-08-11T09:26:06.407Z</time>
      </trkpt>
      <trkpt lat="46.88426" lon="8.53323">
        <ele>1783</ele>
        <time>2021-08-11T09:26:07.407Z</time>
      </trkpt>
      <trkpt lat="46.88426" lon="8.53323">
        <ele>1783</ele>
        <time>2021-08-11T09:26:08.407Z</time>
      </trkpt>
      <trkpt lat="46.88426" lon="8.53322">
        <ele>1783</ele>
        <time>2021-08-11T09:26:09.407Z</time>
      </trkpt>
      <trkpt lat="46.88426" lon="8.53322">
        <ele>1782</ele>
        <time>2021-08-11T09:26:10.406Z</time>
      </trkpt>
      <trkpt lat="46.88426" lon="8.53321">
        <ele>1782</ele>
        <time>2021-08-11T09:26:11.406Z</time>
      </trkpt>
      <trkpt lat="46.88426" lon="8.5332">
        <ele>1781</ele>
        <time>2021-08-11T09:26:12.407Z</time>
      </trkpt>
      <trkpt lat="46.88425" lon="8.53319">
        <ele>1781</ele>
        <time>2021-08-11T09:26:13.407Z</time>
      </trkpt>
      <trkpt lat="46.88425" lon="8.53318">
        <ele>1781</ele>
        <time>2021-08-11T09:26:14.406Z</time>
      </trkpt>
      <trkpt lat="46.88425" lon="8.53318">
        <ele>1781</ele>
        <time>2021-08-11T09:26:15.407Z</time>
      </trkpt>
      <trkpt lat="46.88425" lon="8.53317">
        <ele>1780</ele>
        <time>2021-08-11T09:26:16.407Z</time>
      </trkpt>
      <trkpt lat="46.88424" lon="8.53316">
        <ele>1780</ele>
        <time>2021-08-11T09:26:17.407Z</time>
      </trkpt>
      <trkpt lat="46.88424" lon="8.53315">
        <ele>1780</ele>
        <time>2021-08-11T09:26:18.406Z</time>
      </trkpt>
      <trkpt lat="46.88424" lon="8.53315">
        <ele>1780</ele>
        <time>2021-08-11T09:26:19.406Z</time>
      </trkpt>
      <trkpt lat="46.88424" lon="8.53312">
        <ele>1780</ele>
        <time>2021-08-11T09:26:20.407Z</time>
      </trkpt>
      <trkpt lat="46.88424" lon="8.53312">
        <ele>1780</ele>
        <time>2021-08-11T09:26:21.407Z</time>
      </trkpt>
      <trkpt lat="46.88424" lon="8.53311">
        <ele>1780</ele>
        <time>2021-08-11T09:26:22.407Z</time>
      </trkpt>
      <trkpt lat="46.88424" lon="8.53311">
        <ele>1779</ele>
        <time>2021-08-11T09:26:23.407Z</time>
      </trkpt>
      <trkpt lat="46.88424" lon="8.53311">
        <ele>1779</ele>
        <time>2021-08-11T09:26:24.406Z</time>
      </trkpt>
      <trkpt lat="46.88424" lon="8.5331">
        <ele>1779</ele>
        <time>2021-08-11T09:26:25.406Z</time>
      </trkpt>
      <trkpt lat="46.88424" lon="8.53309">
        <ele>1779</ele>
        <time>2021-08-11T09:26:26.406Z</time>
      </trkpt>
      <trkpt lat="46.88423" lon="8.53308">
        <ele>1779</ele>
        <time>2021-08-11T09:26:27.406Z</time>
      </trkpt>
      <trkpt lat="46.88423" lon="8.53308">
        <ele>1779</ele>
        <time>2021-08-11T09:26:28.407Z</time>
      </trkpt>
      <trkpt lat="46.88422" lon="8.53308">
        <ele>1779</ele>
        <time>2021-08-11T09:26:29.407Z</time>
      </trkpt>
      <trkpt lat="46.88421" lon="8.53307">
        <ele>1780</ele>
        <time>2021-08-11T09:26:30.406Z</time>
      </trkpt>
      <trkpt lat="46.8842" lon="8.53307">
        <ele>1780</ele>
        <time>2021-08-11T09:26:31.407Z</time>
      </trkpt>
      <trkpt lat="46.8842" lon="8.53306">
        <ele>1780</ele>
        <time>2021-08-11T09:26:32.406Z</time>
      </trkpt>
      <trkpt lat="46.8842" lon="8.53306">
        <ele>1780</ele>
        <time>2021-08-11T09:26:33.407Z</time>
      </trkpt>
      <trkpt lat="46.8842" lon="8.53305">
        <ele>1780</ele>
        <time>2021-08-11T09:26:34.407Z</time>
      </trkpt>
      <trkpt lat="46.8842" lon="8.53305">
        <ele>1780</ele>
        <time>2021-08-11T09:26:35.407Z</time>
      </trkpt>
      <trkpt lat="46.8842" lon="8.53304">
        <ele>1780</ele>
        <time>2021-08-11T09:26:36.407Z</time>
      </trkpt>
      <trkpt lat="46.8842" lon="8.53304">
        <ele>1780</ele>
        <time>2021-08-11T09:26:37.407Z</time>
      </trkpt>
      <trkpt lat="46.88421" lon="8.53304">
        <ele>1779</ele>
        <time>2021-08-11T09:26:38.407Z</time>
      </trkpt>
      <trkpt lat="46.88419" lon="8.53302">
        <ele>1778</ele>
        <time>2021-08-11T09:26:39.408Z</time>
      </trkpt>
      <trkpt lat="46.88419" lon="8.53301">
        <ele>1778</ele>
        <time>2021-08-11T09:26:40.408Z</time>
      </trkpt>
      <trkpt lat="46.88419" lon="8.533">
        <ele>1778</ele>
        <time>2021-08-11T09:26:41.408Z</time>
      </trkpt>
      <trkpt lat="46.88418" lon="8.53299">
        <ele>1778</ele>
        <time>2021-08-11T09:26:42.408Z</time>
      </trkpt>
      <trkpt lat="46.88418" lon="8.53299">
        <ele>1778</ele>
        <time>2021-08-11T09:26:43.408Z</time>
      </trkpt>
      <trkpt lat="46.88418" lon="8.53298">
        <ele>1778</ele>
        <time>2021-08-11T09:26:44.409Z</time>
      </trkpt>
      <trkpt lat="46.88417" lon="8.53298">
        <ele>1777</ele>
        <time>2021-08-11T09:26:45.408Z</time>
      </trkpt>
      <trkpt lat="46.88417" lon="8.53297">
        <ele>1777</ele>
        <time>2021-08-11T09:26:46.408Z</time>
      </trkpt>
      <trkpt lat="46.88416" lon="8.53297">
        <ele>1777</ele>
        <time>2021-08-11T09:26:47.409Z</time>
      </trkpt>
      <trkpt lat="46.88416" lon="8.53296">
        <ele>1776</ele>
        <time>2021-08-11T09:26:48.408Z</time>
      </trkpt>
      <trkpt lat="46.88416" lon="8.53296">
        <ele>1776</ele>
        <time>2021-08-11T09:26:49.408Z</time>
      </trkpt>
      <trkpt lat="46.88416" lon="8.53295">
        <ele>1776</ele>
        <time>2021-08-11T09:26:50.408Z</time>
      </trkpt>
      <trkpt lat="46.88416" lon="8.53294">
        <ele>1775</ele>
        <time>2021-08-11T09:26:51.408Z</time>
      </trkpt>
      <trkpt lat="46.88416" lon="8.53294">
        <ele>1775</ele>
        <time>2021-08-11T09:26:52.408Z</time>
      </trkpt>
      <trkpt lat="46.88416" lon="8.53293">
        <ele>1774</ele>
        <time>2021-08-11T09:26:53.408Z</time>
      </trkpt>
      <trkpt lat="46.88416" lon="8.53292">
        <ele>1774</ele>
        <time>2021-08-11T09:26:54.409Z</time>
      </trkpt>
      <trkpt lat="46.88416" lon="8.53291">
        <ele>1773</ele>
        <time>2021-08-11T09:26:55.409Z</time>
      </trkpt>
      <trkpt lat="46.88417" lon="8.5329">
        <ele>1773</ele>
        <time>2021-08-11T09:26:56.408Z</time>
      </trkpt>
      <trkpt lat="46.88417" lon="8.5329">
        <ele>1773</ele>
        <time>2021-08-11T09:26:57.409Z</time>
      </trkpt>
      <trkpt lat="46.88416" lon="8.53289">
        <ele>1773</ele>
        <time>2021-08-11T09:26:58.408Z</time>
      </trkpt>
      <trkpt lat="46.88416" lon="8.53288">
        <ele>1773</ele>
        <time>2021-08-11T09:26:59.409Z</time>
      </trkpt>
      <trkpt lat="46.88415" lon="8.53287">
        <ele>1773</ele>
        <time>2021-08-11T09:27:00.408Z</time>
      </trkpt>
      <trkpt lat="46.88415" lon="8.53286">
        <ele>1773</ele>
        <time>2021-08-11T09:27:01.408Z</time>
      </trkpt>
      <trkpt lat="46.88415" lon="8.53285">
        <ele>1773</ele>
        <time>2021-08-11T09:27:02.408Z</time>
      </trkpt>
      <trkpt lat="46.88414" lon="8.53284">
        <ele>1773</ele>
        <time>2021-08-11T09:27:03.408Z</time>
      </trkpt>
      <trkpt lat="46.88414" lon="8.53284">
        <ele>1772</ele>
        <time>2021-08-11T09:27:04.408Z</time>
      </trkpt>
      <trkpt lat="46.88414" lon="8.53283">
        <ele>1772</ele>
        <time>2021-08-11T09:27:05.408Z</time>
      </trkpt>
      <trkpt lat="46.88414" lon="8.53283">
        <ele>1771</ele>
        <time>2021-08-11T09:27:06.408Z</time>
      </trkpt>
      <trkpt lat="46.88414" lon="8.53282">
        <ele>1771</ele>
        <time>2021-08-11T09:27:07.408Z</time>
      </trkpt>
      <trkpt lat="46.88414" lon="8.53282">
        <ele>1771</ele>
        <time>2021-08-11T09:27:08.408Z</time>
      </trkpt>
      <trkpt lat="46.88413" lon="8.53281">
        <ele>1771</ele>
        <time>2021-08-11T09:27:09.410Z</time>
      </trkpt>
      <trkpt lat="46.88413" lon="8.5328">
        <ele>1771</ele>
        <time>2021-08-11T09:27:10.409Z</time>
      </trkpt>
      <trkpt lat="46.88413" lon="8.53279">
        <ele>1771</ele>
        <time>2021-08-11T09:27:11.409Z</time>
      </trkpt>
      <trkpt lat="46.88413" lon="8.53279">
        <ele>1770</ele>
        <time>2021-08-11T09:27:12.409Z</time>
      </trkpt>
      <trkpt lat="46.88412" lon="8.53279">
        <ele>1769</ele>
        <time>2021-08-11T09:27:13.410Z</time>
      </trkpt>
      <trkpt lat="46.88411" lon="8.53279">
        <ele>1769</ele>
        <time>2021-08-11T09:27:14.410Z</time>
      </trkpt>
      <trkpt lat="46.88411" lon="8.53279">
        <ele>1769</ele>
        <time>2021-08-11T09:27:15.410Z</time>
      </trkpt>
      <trkpt lat="46.88412" lon="8.53278">
        <ele>1768</ele>
        <time>2021-08-11T09:27:16.410Z</time>
      </trkpt>
      <trkpt lat="46.88413" lon="8.53278">
        <ele>1768</ele>
        <time>2021-08-11T09:27:17.409Z</time>
      </trkpt>
      <trkpt lat="46.88413" lon="8.53277">
        <ele>1768</ele>
        <time>2021-08-11T09:27:18.410Z</time>
      </trkpt>
      <trkpt lat="46.88412" lon="8.53277">
        <ele>1767</ele>
        <time>2021-08-11T09:27:19.412Z</time>
      </trkpt>
      <trkpt lat="46.88412" lon="8.53277">
        <ele>1767</ele>
        <time>2021-08-11T09:27:20.412Z</time>
      </trkpt>
      <trkpt lat="46.88412" lon="8.53277">
        <ele>1766</ele>
        <time>2021-08-11T09:27:21.411Z</time>
      </trkpt>
      <trkpt lat="46.88411" lon="8.53276">
        <ele>1766</ele>
        <time>2021-08-11T09:27:22.411Z</time>
      </trkpt>
      <trkpt lat="46.88411" lon="8.53276">
        <ele>1766</ele>
        <time>2021-08-11T09:27:23.411Z</time>
      </trkpt>
      <trkpt lat="46.88411" lon="8.53274">
        <ele>1765</ele>
        <time>2021-08-11T09:27:24.412Z</time>
      </trkpt>
      <trkpt lat="46.88411" lon="8.53273">
        <ele>1765</ele>
        <time>2021-08-11T09:27:25.413Z</time>
      </trkpt>
      <trkpt lat="46.88411" lon="8.53272">
        <ele>1766</ele>
        <time>2021-08-11T09:27:26.413Z</time>
      </trkpt>
      <trkpt lat="46.88411" lon="8.53271">
        <ele>1766</ele>
        <time>2021-08-11T09:27:27.413Z</time>
      </trkpt>
      <trkpt lat="46.88411" lon="8.5327">
        <ele>1766</ele>
        <time>2021-08-11T09:27:28.412Z</time>
      </trkpt>
      <trkpt lat="46.88411" lon="8.5327">
        <ele>1766</ele>
        <time>2021-08-11T09:27:29.413Z</time>
      </trkpt>
      <trkpt lat="46.88412" lon="8.5327">
        <ele>1766</ele>
        <time>2021-08-11T09:27:30.413Z</time>
      </trkpt>
      <trkpt lat="46.88412" lon="8.53269">
        <ele>1766</ele>
        <time>2021-08-11T09:27:31.414Z</time>
      </trkpt>
      <trkpt lat="46.88412" lon="8.53268">
        <ele>1765</ele>
        <time>2021-08-11T09:27:32.414Z</time>
      </trkpt>
      <trkpt lat="46.88412" lon="8.53267">
        <ele>1765</ele>
        <time>2021-08-11T09:27:33.413Z</time>
      </trkpt>
      <trkpt lat="46.88412" lon="8.53266">
        <ele>1765</ele>
        <time>2021-08-11T09:27:34.413Z</time>
      </trkpt>
      <trkpt lat="46.88412" lon="8.53266">
        <ele>1765</ele>
        <time>2021-08-11T09:27:35.414Z</time>
      </trkpt>
      <trkpt lat="46.88412" lon="8.53265">
        <ele>1764</ele>
        <time>2021-08-11T09:27:36.413Z</time>
      </trkpt>
      <trkpt lat="46.88412" lon="8.53265">
        <ele>1764</ele>
        <time>2021-08-11T09:27:37.413Z</time>
      </trkpt>
      <trkpt lat="46.88412" lon="8.53265">
        <ele>1764</ele>
        <time>2021-08-11T09:27:38.414Z</time>
      </trkpt>
      <trkpt lat="46.88413" lon="8.53264">
        <ele>1764</ele>
        <time>2021-08-11T09:27:39.414Z</time>
      </trkpt>
      <trkpt lat="46.88413" lon="8.53263">
        <ele>1764</ele>
        <time>2021-08-11T09:27:40.413Z</time>
      </trkpt>
      <trkpt lat="46.88413" lon="8.53263">
        <ele>1764</ele>
        <time>2021-08-11T09:27:41.414Z</time>
      </trkpt>
      <trkpt lat="46.88412" lon="8.53261">
        <ele>1763</ele>
        <time>2021-08-11T09:27:42.414Z</time>
      </trkpt>
      <trkpt lat="46.88412" lon="8.53261">
        <ele>1762</ele>
        <time>2021-08-11T09:27:43.414Z</time>
      </trkpt>
      <trkpt lat="46.88412" lon="8.5326">
        <ele>1762</ele>
        <time>2021-08-11T09:27:44.414Z</time>
      </trkpt>
      <trkpt lat="46.88412" lon="8.5326">
        <ele>1762</ele>
        <time>2021-08-11T09:27:45.415Z</time>
      </trkpt>
      <trkpt lat="46.88411" lon="8.53258">
        <ele>1762</ele>
        <time>2021-08-11T09:27:46.416Z</time>
      </trkpt>
      <trkpt lat="46.88411" lon="8.53258">
        <ele>1762</ele>
        <time>2021-08-11T09:27:47.415Z</time>
      </trkpt>
      <trkpt lat="46.88411" lon="8.53257">
        <ele>1762</ele>
        <time>2021-08-11T09:27:48.415Z</time>
      </trkpt>
      <trkpt lat="46.8841" lon="8.53257">
        <ele>1762</ele>
        <time>2021-08-11T09:27:49.416Z</time>
      </trkpt>
      <trkpt lat="46.8841" lon="8.53256">
        <ele>1761</ele>
        <time>2021-08-11T09:27:50.416Z</time>
      </trkpt>
      <trkpt lat="46.8841" lon="8.53256">
        <ele>1761</ele>
        <time>2021-08-11T09:27:51.416Z</time>
      </trkpt>
      <trkpt lat="46.8841" lon="8.53255">
        <ele>1760</ele>
        <time>2021-08-11T09:27:52.416Z</time>
      </trkpt>
      <trkpt lat="46.8841" lon="8.53254">
        <ele>1760</ele>
        <time>2021-08-11T09:27:53.416Z</time>
      </trkpt>
      <trkpt lat="46.8841" lon="8.53254">
        <ele>1759</ele>
        <time>2021-08-11T09:27:54.416Z</time>
      </trkpt>
      <trkpt lat="46.88409" lon="8.53253">
        <ele>1759</ele>
        <time>2021-08-11T09:27:55.416Z</time>
      </trkpt>
      <trkpt lat="46.8841" lon="8.53252">
        <ele>1759</ele>
        <time>2021-08-11T09:27:56.416Z</time>
      </trkpt>
      <trkpt lat="46.88409" lon="8.53251">
        <ele>1759</ele>
        <time>2021-08-11T09:27:57.416Z</time>
      </trkpt>
      <trkpt lat="46.88409" lon="8.53251">
        <ele>1759</ele>
        <time>2021-08-11T09:27:58.416Z</time>
      </trkpt>
      <trkpt lat="46.88409" lon="8.5325">
        <ele>1759</ele>
        <time>2021-08-11T09:27:59.415Z</time>
      </trkpt>
      <trkpt lat="46.88409" lon="8.53249">
        <ele>1758</ele>
        <time>2021-08-11T09:28:00.416Z</time>
      </trkpt>
      <trkpt lat="46.88409" lon="8.53248">
        <ele>1758</ele>
        <time>2021-08-11T09:28:01.415Z</time>
      </trkpt>
      <trkpt lat="46.88409" lon="8.53246">
        <ele>1758</ele>
        <time>2021-08-11T09:28:02.416Z</time>
      </trkpt>
      <trkpt lat="46.88408" lon="8.53244">
        <ele>1757</ele>
        <time>2021-08-11T09:28:03.415Z</time>
      </trkpt>
      <trkpt lat="46.88408" lon="8.53243">
        <ele>1757</ele>
        <time>2021-08-11T09:28:04.416Z</time>
      </trkpt>
      <trkpt lat="46.88408" lon="8.53242">
        <ele>1758</ele>
        <time>2021-08-11T09:28:05.416Z</time>
      </trkpt>
      <trkpt lat="46.88408" lon="8.53241">
        <ele>1758</ele>
        <time>2021-08-11T09:28:06.415Z</time>
      </trkpt>
      <trkpt lat="46.88408" lon="8.5324">
        <ele>1758</ele>
        <time>2021-08-11T09:28:07.415Z</time>
      </trkpt>
      <trkpt lat="46.88407" lon="8.53239">
        <ele>1759</ele>
        <time>2021-08-11T09:28:08.416Z</time>
      </trkpt>
      <trkpt lat="46.88407" lon="8.53239">
        <ele>1759</ele>
        <time>2021-08-11T09:28:09.416Z</time>
      </trkpt>
      <trkpt lat="46.88406" lon="8.53239">
        <ele>1759</ele>
        <time>2021-08-11T09:28:10.415Z</time>
      </trkpt>
      <trkpt lat="46.88405" lon="8.53238">
        <ele>1760</ele>
        <time>2021-08-11T09:28:11.416Z</time>
      </trkpt>
      <trkpt lat="46.88404" lon="8.53238">
        <ele>1760</ele>
        <time>2021-08-11T09:28:12.415Z</time>
      </trkpt>
      <trkpt lat="46.88403" lon="8.53238">
        <ele>1761</ele>
        <time>2021-08-11T09:28:13.416Z</time>
      </trkpt>
      <trkpt lat="46.88403" lon="8.53237">
        <ele>1761</ele>
        <time>2021-08-11T09:28:14.416Z</time>
      </trkpt>
      <trkpt lat="46.88403" lon="8.53237">
        <ele>1762</ele>
        <time>2021-08-11T09:28:15.416Z</time>
      </trkpt>
      <trkpt lat="46.88402" lon="8.53236">
        <ele>1762</ele>
        <time>2021-08-11T09:28:16.416Z</time>
      </trkpt>
      <trkpt lat="46.88402" lon="8.53236">
        <ele>1763</ele>
        <time>2021-08-11T09:28:17.416Z</time>
      </trkpt>
      <trkpt lat="46.88401" lon="8.53235">
        <ele>1763</ele>
        <time>2021-08-11T09:28:18.416Z</time>
      </trkpt>
      <trkpt lat="46.884" lon="8.53235">
        <ele>1763</ele>
        <time>2021-08-11T09:28:19.415Z</time>
      </trkpt>
      <trkpt lat="46.88399" lon="8.53234">
        <ele>1763</ele>
        <time>2021-08-11T09:28:20.416Z</time>
      </trkpt>
      <trkpt lat="46.88399" lon="8.53234">
        <ele>1763</ele>
        <time>2021-08-11T09:28:21.416Z</time>
      </trkpt>
      <trkpt lat="46.88398" lon="8.53234">
        <ele>1763</ele>
        <time>2021-08-11T09:28:22.416Z</time>
      </trkpt>
      <trkpt lat="46.88397" lon="8.53233">
        <ele>1763</ele>
        <time>2021-08-11T09:28:23.416Z</time>
      </trkpt>
      <trkpt lat="46.88396" lon="8.53234">
        <ele>1762</ele>
        <time>2021-08-11T09:28:24.416Z</time>
      </trkpt>
      <trkpt lat="46.88395" lon="8.53234">
        <ele>1762</ele>
        <time>2021-08-11T09:28:25.416Z</time>
      </trkpt>
      <trkpt lat="46.88395" lon="8.53234">
        <ele>1762</ele>
        <time>2021-08-11T09:28:26.416Z</time>
      </trkpt>
      <trkpt lat="46.88395" lon="8.53234">
        <ele>1762</ele>
        <time>2021-08-11T09:28:27.416Z</time>
      </trkpt>
      <trkpt lat="46.88394" lon="8.53233">
        <ele>1762</ele>
        <time>2021-08-11T09:28:28.415Z</time>
      </trkpt>
      <trkpt lat="46.88394" lon="8.53232">
        <ele>1762</ele>
        <time>2021-08-11T09:28:29.415Z</time>
      </trkpt>
      <trkpt lat="46.88393" lon="8.53232">
        <ele>1762</ele>
        <time>2021-08-11T09:28:30.416Z</time>
      </trkpt>
      <trkpt lat="46.88393" lon="8.53231">
        <ele>1762</ele>
        <time>2021-08-11T09:28:31.416Z</time>
      </trkpt>
      <trkpt lat="46.88392" lon="8.53231">
        <ele>1762</ele>
        <time>2021-08-11T09:28:32.416Z</time>
      </trkpt>
      <trkpt lat="46.88392" lon="8.53231">
        <ele>1762</ele>
        <time>2021-08-11T09:28:33.416Z</time>
      </trkpt>
      <trkpt lat="46.88391" lon="8.5323">
        <ele>1762</ele>
        <time>2021-08-11T09:28:34.415Z</time>
      </trkpt>
      <trkpt lat="46.8839" lon="8.53229">
        <ele>1762</ele>
        <time>2021-08-11T09:28:35.416Z</time>
      </trkpt>
      <trkpt lat="46.88389" lon="8.53229">
        <ele>1762</ele>
        <time>2021-08-11T09:28:36.416Z</time>
      </trkpt>
      <trkpt lat="46.88388" lon="8.53229">
        <ele>1762</ele>
        <time>2021-08-11T09:28:37.416Z</time>
      </trkpt>
      <trkpt lat="46.88386" lon="8.53229">
        <ele>1762</ele>
        <time>2021-08-11T09:28:38.416Z</time>
      </trkpt>
      <trkpt lat="46.88385" lon="8.53228">
        <ele>1762</ele>
        <time>2021-08-11T09:28:39.415Z</time>
      </trkpt>
      <trkpt lat="46.88384" lon="8.53228">
        <ele>1762</ele>
        <time>2021-08-11T09:28:40.415Z</time>
      </trkpt>
      <trkpt lat="46.88383" lon="8.53228">
        <ele>1762</ele>
        <time>2021-08-11T09:28:41.416Z</time>
      </trkpt>
      <trkpt lat="46.88382" lon="8.53227">
        <ele>1762</ele>
        <time>2021-08-11T09:28:42.415Z</time>
      </trkpt>
      <trkpt lat="46.88382" lon="8.53227">
        <ele>1762</ele>
        <time>2021-08-11T09:28:43.415Z</time>
      </trkpt>
      <trkpt lat="46.88382" lon="8.53227">
        <ele>1762</ele>
        <time>2021-08-11T09:28:44.416Z</time>
      </trkpt>
      <trkpt lat="46.88381" lon="8.53227">
        <ele>1762</ele>
        <time>2021-08-11T09:28:45.416Z</time>
      </trkpt>
      <trkpt lat="46.8838" lon="8.53227">
        <ele>1762</ele>
        <time>2021-08-11T09:28:46.416Z</time>
      </trkpt>
      <trkpt lat="46.88379" lon="8.53227">
        <ele>1762</ele>
        <time>2021-08-11T09:28:47.416Z</time>
      </trkpt>
      <trkpt lat="46.88378" lon="8.53228">
        <ele>1762</ele>
        <time>2021-08-11T09:28:48.415Z</time>
      </trkpt>
      <trkpt lat="46.88378" lon="8.53228">
        <ele>1762</ele>
        <time>2021-08-11T09:28:49.416Z</time>
      </trkpt>
      <trkpt lat="46.88379" lon="8.53229">
        <ele>1762</ele>
        <time>2021-08-11T09:28:50.416Z</time>
      </trkpt>
      <trkpt lat="46.88378" lon="8.53229">
        <ele>1762</ele>
        <time>2021-08-11T09:28:51.416Z</time>
      </trkpt>
      <trkpt lat="46.88378" lon="8.53229">
        <ele>1763</ele>
        <time>2021-08-11T09:28:52.416Z</time>
      </trkpt>
      <trkpt lat="46.88377" lon="8.53228">
        <ele>1763</ele>
        <time>2021-08-11T09:28:53.415Z</time>
      </trkpt>
      <trkpt lat="46.88377" lon="8.53228">
        <ele>1763</ele>
        <time>2021-08-11T09:28:54.416Z</time>
      </trkpt>
      <trkpt lat="46.88377" lon="8.53228">
        <ele>1763</ele>
        <time>2021-08-11T09:28:55.416Z</time>
      </trkpt>
      <trkpt lat="46.88376" lon="8.53229">
        <ele>1763</ele>
        <time>2021-08-11T09:28:56.415Z</time>
      </trkpt>
      <trkpt lat="46.88376" lon="8.53229">
        <ele>1763</ele>
        <time>2021-08-11T09:28:57.416Z</time>
      </trkpt>
      <trkpt lat="46.88375" lon="8.53228">
        <ele>1763</ele>
        <time>2021-08-11T09:28:58.416Z</time>
      </trkpt>
      <trkpt lat="46.88374" lon="8.53228">
        <ele>1762</ele>
        <time>2021-08-11T09:28:59.415Z</time>
      </trkpt>
      <trkpt lat="46.88374" lon="8.53228">
        <ele>1762</ele>
        <time>2021-08-11T09:29:00.416Z</time>
      </trkpt>
      <trkpt lat="46.88373" lon="8.53229">
        <ele>1762</ele>
        <time>2021-08-11T09:29:01.415Z</time>
      </trkpt>
      <trkpt lat="46.88372" lon="8.53229">
        <ele>1761</ele>
        <time>2021-08-11T09:29:02.416Z</time>
      </trkpt>
      <trkpt lat="46.88372" lon="8.53229">
        <ele>1760</ele>
        <time>2021-08-11T09:29:03.416Z</time>
      </trkpt>
      <trkpt lat="46.88371" lon="8.53229">
        <ele>1760</ele>
        <time>2021-08-11T09:29:04.416Z</time>
      </trkpt>
      <trkpt lat="46.8837" lon="8.53228">
        <ele>1759</ele>
        <time>2021-08-11T09:29:05.416Z</time>
      </trkpt>
      <trkpt lat="46.88368" lon="8.53228">
        <ele>1758</ele>
        <time>2021-08-11T09:29:06.415Z</time>
      </trkpt>
      <trkpt lat="46.88368" lon="8.53228">
        <ele>1758</ele>
        <time>2021-08-11T09:29:07.416Z</time>
      </trkpt>
      <trkpt lat="46.88367" lon="8.53228">
        <ele>1757</ele>
        <time>2021-08-11T09:29:08.416Z</time>
      </trkpt>
      <trkpt lat="46.88366" lon="8.53227">
        <ele>1756</ele>
        <time>2021-08-11T09:29:09.415Z</time>
      </trkpt>
      <trkpt lat="46.88365" lon="8.53227">
        <ele>1755</ele>
        <time>2021-08-11T09:29:10.416Z</time>
      </trkpt>
      <trkpt lat="46.88365" lon="8.53227">
        <ele>1755</ele>
        <time>2021-08-11T09:29:11.416Z</time>
      </trkpt>
      <trkpt lat="46.88365" lon="8.53227">
        <ele>1754</ele>
        <time>2021-08-11T09:29:12.416Z</time>
      </trkpt>
      <trkpt lat="46.88364" lon="8.53227">
        <ele>1753</ele>
        <time>2021-08-11T09:29:13.415Z</time>
      </trkpt>
      <trkpt lat="46.88364" lon="8.53227">
        <ele>1752</ele>
        <time>2021-08-11T09:29:14.416Z</time>
      </trkpt>
      <trkpt lat="46.88363" lon="8.53225">
        <ele>1752</ele>
        <time>2021-08-11T09:29:15.416Z</time>
      </trkpt>
      <trkpt lat="46.88362" lon="8.53225">
        <ele>1751</ele>
        <time>2021-08-11T09:29:16.416Z</time>
      </trkpt>
      <trkpt lat="46.88361" lon="8.53224">
        <ele>1751</ele>
        <time>2021-08-11T09:29:17.416Z</time>
      </trkpt>
      <trkpt lat="46.88361" lon="8.53223">
        <ele>1750</ele>
        <time>2021-08-11T09:29:18.415Z</time>
      </trkpt>
      <trkpt lat="46.88361" lon="8.53222">
        <ele>1750</ele>
        <time>2021-08-11T09:29:19.416Z</time>
      </trkpt>
      <trkpt lat="46.88361" lon="8.53222">
        <ele>1750</ele>
        <time>2021-08-11T09:29:20.415Z</time>
      </trkpt>
      <trkpt lat="46.88361" lon="8.53221">
        <ele>1750</ele>
        <time>2021-08-11T09:29:21.415Z</time>
      </trkpt>
      <trkpt lat="46.88361" lon="8.53219">
        <ele>1747</ele>
        <time>2021-08-11T09:29:22.416Z</time>
      </trkpt>
      <trkpt lat="46.88353" lon="8.53219">
        <ele>1741</ele>
        <time>2021-08-11T09:29:23.415Z</time>
      </trkpt>
      <trkpt lat="46.88353" lon="8.53219">
        <ele>1740</ele>
        <time>2021-08-11T09:29:24.416Z</time>
      </trkpt>
      <trkpt lat="46.88352" lon="8.53219">
        <ele>1740</ele>
        <time>2021-08-11T09:29:25.415Z</time>
      </trkpt>
      <trkpt lat="46.88352" lon="8.53217">
        <ele>1740</ele>
        <time>2021-08-11T09:29:26.415Z</time>
      </trkpt>
      <trkpt lat="46.88351" lon="8.53217">
        <ele>1740</ele>
        <time>2021-08-11T09:29:27.416Z</time>
      </trkpt>
      <trkpt lat="46.88352" lon="8.53217">
        <ele>1741</ele>
        <time>2021-08-11T09:29:28.416Z</time>
      </trkpt>
      <trkpt lat="46.88351" lon="8.53217">
        <ele>1741</ele>
        <time>2021-08-11T09:29:29.417Z</time>
      </trkpt>
      <trkpt lat="46.88351" lon="8.53217">
        <ele>1741</ele>
        <time>2021-08-11T09:29:30.417Z</time>
      </trkpt>
      <trkpt lat="46.88356" lon="8.53213">
        <ele>1752</ele>
        <time>2021-08-11T09:29:31.417Z</time>
      </trkpt>
      <trkpt lat="46.88355" lon="8.53213">
        <ele>1752</ele>
        <time>2021-08-11T09:29:32.416Z</time>
      </trkpt>
      <trkpt lat="46.88354" lon="8.53213">
        <ele>1752</ele>
        <time>2021-08-11T09:29:33.417Z</time>
      </trkpt>
      <trkpt lat="46.88354" lon="8.53212">
        <ele>1752</ele>
        <time>2021-08-11T09:29:34.416Z</time>
      </trkpt>
      <trkpt lat="46.88354" lon="8.53213">
        <ele>1750</ele>
        <time>2021-08-11T09:29:35.417Z</time>
      </trkpt>
      <trkpt lat="46.88354" lon="8.53213">
        <ele>1749</ele>
        <time>2021-08-11T09:29:36.417Z</time>
      </trkpt>
      <trkpt lat="46.88354" lon="8.53213">
        <ele>1749</ele>
        <time>2021-08-11T09:29:37.417Z</time>
      </trkpt>
      <trkpt lat="46.88354" lon="8.53214">
        <ele>1748</ele>
        <time>2021-08-11T09:29:38.417Z</time>
      </trkpt>
      <trkpt lat="46.88353" lon="8.53214">
        <ele>1747</ele>
        <time>2021-08-11T09:29:39.417Z</time>
      </trkpt>
      <trkpt lat="46.88353" lon="8.53214">
        <ele>1746</ele>
        <time>2021-08-11T09:29:40.416Z</time>
      </trkpt>
      <trkpt lat="46.88352" lon="8.53214">
        <ele>1746</ele>
        <time>2021-08-11T09:29:41.417Z</time>
      </trkpt>
      <trkpt lat="46.88352" lon="8.53214">
        <ele>1745</ele>
        <time>2021-08-11T09:29:42.417Z</time>
      </trkpt>
      <trkpt lat="46.88351" lon="8.53213">
        <ele>1745</ele>
        <time>2021-08-11T09:29:43.417Z</time>
      </trkpt>
      <trkpt lat="46.88351" lon="8.53212">
        <ele>1745</ele>
        <time>2021-08-11T09:29:44.416Z</time>
      </trkpt>
      <trkpt lat="46.8835" lon="8.53212">
        <ele>1744</ele>
        <time>2021-08-11T09:29:45.417Z</time>
      </trkpt>
      <trkpt lat="46.8835" lon="8.53212">
        <ele>1744</ele>
        <time>2021-08-11T09:29:46.417Z</time>
      </trkpt>
      <trkpt lat="46.8835" lon="8.53212">
        <ele>1743</ele>
        <time>2021-08-11T09:29:47.417Z</time>
      </trkpt>
      <trkpt lat="46.88349" lon="8.53212">
        <ele>1743</ele>
        <time>2021-08-11T09:29:48.417Z</time>
      </trkpt>
      <trkpt lat="46.88349" lon="8.53212">
        <ele>1742</ele>
        <time>2021-08-11T09:29:49.416Z</time>
      </trkpt>
      <trkpt lat="46.88349" lon="8.53212">
        <ele>1742</ele>
        <time>2021-08-11T09:29:50.417Z</time>
      </trkpt>
      <trkpt lat="46.88348" lon="8.53211">
        <ele>1741</ele>
        <time>2021-08-11T09:29:51.417Z</time>
      </trkpt>
      <trkpt lat="46.88348" lon="8.53211">
        <ele>1741</ele>
        <time>2021-08-11T09:29:52.417Z</time>
      </trkpt>
      <trkpt lat="46.88348" lon="8.53211">
        <ele>1741</ele>
        <time>2021-08-11T09:29:53.416Z</time>
      </trkpt>
      <trkpt lat="46.88347" lon="8.5321">
        <ele>1741</ele>
        <time>2021-08-11T09:29:54.417Z</time>
      </trkpt>
      <trkpt lat="46.88347" lon="8.53209">
        <ele>1741</ele>
        <time>2021-08-11T09:29:55.417Z</time>
      </trkpt>
      <trkpt lat="46.88346" lon="8.53209">
        <ele>1741</ele>
        <time>2021-08-11T09:29:56.417Z</time>
      </trkpt>
      <trkpt lat="46.88345" lon="8.53208">
        <ele>1742</ele>
        <time>2021-08-11T09:29:57.417Z</time>
      </trkpt>
      <trkpt lat="46.88345" lon="8.53207">
        <ele>1742</ele>
        <time>2021-08-11T09:29:58.416Z</time>
      </trkpt>
      <trkpt lat="46.88344" lon="8.53207">
        <ele>1743</ele>
        <time>2021-08-11T09:29:59.417Z</time>
      </trkpt>
      <trkpt lat="46.88344" lon="8.53205">
        <ele>1743</ele>
        <time>2021-08-11T09:30:00.417Z</time>
      </trkpt>
      <trkpt lat="46.88343" lon="8.53204">
        <ele>1743</ele>
        <time>2021-08-11T09:30:01.417Z</time>
      </trkpt>
      <trkpt lat="46.88342" lon="8.53203">
        <ele>1744</ele>
        <time>2021-08-11T09:30:02.416Z</time>
      </trkpt>
      <trkpt lat="46.88342" lon="8.53203">
        <ele>1744</ele>
        <time>2021-08-11T09:30:03.417Z</time>
      </trkpt>
      <trkpt lat="46.88341" lon="8.53203">
        <ele>1744</ele>
        <time>2021-08-11T09:30:04.416Z</time>
      </trkpt>
      <trkpt lat="46.88341" lon="8.53204">
        <ele>1745</ele>
        <time>2021-08-11T09:30:05.416Z</time>
      </trkpt>
      <trkpt lat="46.88341" lon="8.53203">
        <ele>1745</ele>
        <time>2021-08-11T09:30:06.417Z</time>
      </trkpt>
      <trkpt lat="46.88341" lon="8.53203">
        <ele>1745</ele>
        <time>2021-08-11T09:30:07.416Z</time>
      </trkpt>
      <trkpt lat="46.88342" lon="8.53203">
        <ele>1745</ele>
        <time>2021-08-11T09:30:08.417Z</time>
      </trkpt>
      <trkpt lat="46.88344" lon="8.53204">
        <ele>1745</ele>
        <time>2021-08-11T09:30:09.416Z</time>
      </trkpt>
      <trkpt lat="46.88345" lon="8.53205">
        <ele>1745</ele>
        <time>2021-08-11T09:30:10.416Z</time>
      </trkpt>
      <trkpt lat="46.88345" lon="8.53206">
        <ele>1745</ele>
        <time>2021-08-11T09:30:11.416Z</time>
      </trkpt>
      <trkpt lat="46.88345" lon="8.53206">
        <ele>1745</ele>
        <time>2021-08-11T09:30:12.416Z</time>
      </trkpt>
      <trkpt lat="46.88345" lon="8.53205">
        <ele>1745</ele>
        <time>2021-08-11T09:30:13.418Z</time>
      </trkpt>
      <trkpt lat="46.88344" lon="8.53205">
        <ele>1745</ele>
        <time>2021-08-11T09:30:14.419Z</time>
      </trkpt>
      <trkpt lat="46.88343" lon="8.53204">
        <ele>1744</ele>
        <time>2021-08-11T09:30:15.418Z</time>
      </trkpt>
      <trkpt lat="46.88342" lon="8.53203">
        <ele>1744</ele>
        <time>2021-08-11T09:30:16.419Z</time>
      </trkpt>
      <trkpt lat="46.88341" lon="8.53203">
        <ele>1744</ele>
        <time>2021-08-11T09:30:17.419Z</time>
      </trkpt>
      <trkpt lat="46.88339" lon="8.53202">
        <ele>1744</ele>
        <time>2021-08-11T09:30:18.418Z</time>
      </trkpt>
      <trkpt lat="46.88338" lon="8.53201">
        <ele>1744</ele>
        <time>2021-08-11T09:30:19.419Z</time>
      </trkpt>
      <trkpt lat="46.88337" lon="8.53201">
        <ele>1744</ele>
        <time>2021-08-11T09:30:20.419Z</time>
      </trkpt>
      <trkpt lat="46.88337" lon="8.532">
        <ele>1744</ele>
        <time>2021-08-11T09:30:21.418Z</time>
      </trkpt>
      <trkpt lat="46.88336" lon="8.53199">
        <ele>1743</ele>
        <time>2021-08-11T09:30:22.419Z</time>
      </trkpt>
      <trkpt lat="46.88335" lon="8.53199">
        <ele>1742</ele>
        <time>2021-08-11T09:30:23.418Z</time>
      </trkpt>
      <trkpt lat="46.88335" lon="8.53198">
        <ele>1742</ele>
        <time>2021-08-11T09:30:24.419Z</time>
      </trkpt>
      <trkpt lat="46.88334" lon="8.53197">
        <ele>1741</ele>
        <time>2021-08-11T09:30:25.419Z</time>
      </trkpt>
      <trkpt lat="46.88333" lon="8.53196">
        <ele>1741</ele>
        <time>2021-08-11T09:30:26.418Z</time>
      </trkpt>
      <trkpt lat="46.88333" lon="8.53196">
        <ele>1741</ele>
        <time>2021-08-11T09:30:27.418Z</time>
      </trkpt>
      <trkpt lat="46.88332" lon="8.53195">
        <ele>1740</ele>
        <time>2021-08-11T09:30:28.418Z</time>
      </trkpt>
      <trkpt lat="46.88331" lon="8.53195">
        <ele>1740</ele>
        <time>2021-08-11T09:30:29.419Z</time>
      </trkpt>
      <trkpt lat="46.8833" lon="8.53194">
        <ele>1740</ele>
        <time>2021-08-11T09:30:30.419Z</time>
      </trkpt>
      <trkpt lat="46.88329" lon="8.53194">
        <ele>1739</ele>
        <time>2021-08-11T09:30:31.419Z</time>
      </trkpt>
      <trkpt lat="46.88328" lon="8.53193">
        <ele>1739</ele>
        <time>2021-08-11T09:30:32.419Z</time>
      </trkpt>
      <trkpt lat="46.88327" lon="8.53192">
        <ele>1739</ele>
        <time>2021-08-11T09:30:33.418Z</time>
      </trkpt>
      <trkpt lat="46.88326" lon="8.53192">
        <ele>1739</ele>
        <time>2021-08-11T09:30:34.418Z</time>
      </trkpt>
      <trkpt lat="46.88325" lon="8.53191">
        <ele>1739</ele>
        <time>2021-08-11T09:30:35.419Z</time>
      </trkpt>
      <trkpt lat="46.88324" lon="8.5319">
        <ele>1739</ele>
        <time>2021-08-11T09:30:36.418Z</time>
      </trkpt>
      <trkpt lat="46.88324" lon="8.53189">
        <ele>1739</ele>
        <time>2021-08-11T09:30:37.419Z</time>
      </trkpt>
      <trkpt lat="46.88323" lon="8.53188">
        <ele>1739</ele>
        <time>2021-08-11T09:30:38.419Z</time>
      </trkpt>
      <trkpt lat="46.88322" lon="8.53187">
        <ele>1739</ele>
        <time>2021-08-11T09:30:39.419Z</time>
      </trkpt>
      <trkpt lat="46.88321" lon="8.53186">
        <ele>1739</ele>
        <time>2021-08-11T09:30:40.419Z</time>
      </trkpt>
      <trkpt lat="46.8832" lon="8.53185">
        <ele>1738</ele>
        <time>2021-08-11T09:30:41.418Z</time>
      </trkpt>
      <trkpt lat="46.88319" lon="8.53184">
        <ele>1739</ele>
        <time>2021-08-11T09:30:42.419Z</time>
      </trkpt>
      <trkpt lat="46.88318" lon="8.53183">
        <ele>1739</ele>
        <time>2021-08-11T09:30:43.419Z</time>
      </trkpt>
      <trkpt lat="46.88317" lon="8.53181">
        <ele>1739</ele>
        <time>2021-08-11T09:30:44.419Z</time>
      </trkpt>
      <trkpt lat="46.88316" lon="8.5318">
        <ele>1739</ele>
        <time>2021-08-11T09:30:45.419Z</time>
      </trkpt>
      <trkpt lat="46.88315" lon="8.53179">
        <ele>1738</ele>
        <time>2021-08-11T09:30:46.418Z</time>
      </trkpt>
      <trkpt lat="46.88314" lon="8.53179">
        <ele>1738</ele>
        <time>2021-08-11T09:30:47.419Z</time>
      </trkpt>
      <trkpt lat="46.88313" lon="8.53178">
        <ele>1738</ele>
        <time>2021-08-11T09:30:48.419Z</time>
      </trkpt>
      <trkpt lat="46.88313" lon="8.53178">
        <ele>1738</ele>
        <time>2021-08-11T09:30:49.418Z</time>
      </trkpt>
      <trkpt lat="46.88312" lon="8.53177">
        <ele>1737</ele>
        <time>2021-08-11T09:30:50.419Z</time>
      </trkpt>
      <trkpt lat="46.88311" lon="8.53175">
        <ele>1737</ele>
        <time>2021-08-11T09:30:51.418Z</time>
      </trkpt>
      <trkpt lat="46.8831" lon="8.53174">
        <ele>1737</ele>
        <time>2021-08-11T09:30:52.418Z</time>
      </trkpt>
      <trkpt lat="46.8831" lon="8.53172">
        <ele>1737</ele>
        <time>2021-08-11T09:30:53.418Z</time>
      </trkpt>
      <trkpt lat="46.88309" lon="8.53171">
        <ele>1737</ele>
        <time>2021-08-11T09:30:54.419Z</time>
      </trkpt>
      <trkpt lat="46.88308" lon="8.5317">
        <ele>1737</ele>
        <time>2021-08-11T09:30:55.419Z</time>
      </trkpt>
      <trkpt lat="46.88307" lon="8.53169">
        <ele>1737</ele>
        <time>2021-08-11T09:30:56.418Z</time>
      </trkpt>
      <trkpt lat="46.88306" lon="8.53168">
        <ele>1737</ele>
        <time>2021-08-11T09:30:57.418Z</time>
      </trkpt>
      <trkpt lat="46.88305" lon="8.53168">
        <ele>1736</ele>
        <time>2021-08-11T09:30:58.419Z</time>
      </trkpt>
      <trkpt lat="46.88305" lon="8.53167">
        <ele>1736</ele>
        <time>2021-08-11T09:30:59.419Z</time>
      </trkpt>
      <trkpt lat="46.88305" lon="8.53167">
        <ele>1735</ele>
        <time>2021-08-11T09:31:00.419Z</time>
      </trkpt>
      <trkpt lat="46.88304" lon="8.53167">
        <ele>1735</ele>
        <time>2021-08-11T09:31:01.419Z</time>
      </trkpt>
      <trkpt lat="46.88303" lon="8.53168">
        <ele>1736</ele>
        <time>2021-08-11T09:31:02.419Z</time>
      </trkpt>
      <trkpt lat="46.88303" lon="8.53168">
        <ele>1736</ele>
        <time>2021-08-11T09:31:03.419Z</time>
      </trkpt>
      <trkpt lat="46.88303" lon="8.53167">
        <ele>1735</ele>
        <time>2021-08-11T09:31:04.418Z</time>
      </trkpt>
      <trkpt lat="46.88302" lon="8.53167">
        <ele>1734</ele>
        <time>2021-08-11T09:31:05.418Z</time>
      </trkpt>
      <trkpt lat="46.88301" lon="8.53166">
        <ele>1734</ele>
        <time>2021-08-11T09:31:06.418Z</time>
      </trkpt>
      <trkpt lat="46.883" lon="8.53165">
        <ele>1734</ele>
        <time>2021-08-11T09:31:07.419Z</time>
      </trkpt>
      <trkpt lat="46.88299" lon="8.53164">
        <ele>1735</ele>
        <time>2021-08-11T09:31:08.419Z</time>
      </trkpt>
      <trkpt lat="46.88298" lon="8.53164">
        <ele>1735</ele>
        <time>2021-08-11T09:31:09.418Z</time>
      </trkpt>
      <trkpt lat="46.88297" lon="8.53163">
        <ele>1735</ele>
        <time>2021-08-11T09:31:10.418Z</time>
      </trkpt>
      <trkpt lat="46.88296" lon="8.53162">
        <ele>1735</ele>
        <time>2021-08-11T09:31:11.418Z</time>
      </trkpt>
      <trkpt lat="46.88295" lon="8.53161">
        <ele>1735</ele>
        <time>2021-08-11T09:31:12.418Z</time>
      </trkpt>
      <trkpt lat="46.88294" lon="8.53161">
        <ele>1735</ele>
        <time>2021-08-11T09:31:13.418Z</time>
      </trkpt>
      <trkpt lat="46.88293" lon="8.5316">
        <ele>1735</ele>
        <time>2021-08-11T09:31:14.419Z</time>
      </trkpt>
      <trkpt lat="46.88292" lon="8.53159">
        <ele>1735</ele>
        <time>2021-08-11T09:31:15.419Z</time>
      </trkpt>
      <trkpt lat="46.88291" lon="8.53158">
        <ele>1736</ele>
        <time>2021-08-11T09:31:16.419Z</time>
      </trkpt>
      <trkpt lat="46.8829" lon="8.53157">
        <ele>1736</ele>
        <time>2021-08-11T09:31:17.418Z</time>
      </trkpt>
      <trkpt lat="46.8829" lon="8.53156">
        <ele>1736</ele>
        <time>2021-08-11T09:31:18.419Z</time>
      </trkpt>
      <trkpt lat="46.88289" lon="8.53155">
        <ele>1737</ele>
        <time>2021-08-11T09:31:19.418Z</time>
      </trkpt>
      <trkpt lat="46.88288" lon="8.53154">
        <ele>1737</ele>
        <time>2021-08-11T09:31:20.418Z</time>
      </trkpt>
      <trkpt lat="46.88287" lon="8.53153">
        <ele>1737</ele>
        <time>2021-08-11T09:31:21.419Z</time>
      </trkpt>
      <trkpt lat="46.88286" lon="8.53152">
        <ele>1737</ele>
        <time>2021-08-11T09:31:22.418Z</time>
      </trkpt>
      <trkpt lat="46.88285" lon="8.53151">
        <ele>1738</ele>
        <time>2021-08-11T09:31:23.419Z</time>
      </trkpt>
      <trkpt lat="46.88284" lon="8.5315">
        <ele>1737</ele>
        <time>2021-08-11T09:31:24.418Z</time>
      </trkpt>
      <trkpt lat="46.88283" lon="8.53149">
        <ele>1737</ele>
        <time>2021-08-11T09:31:25.418Z</time>
      </trkpt>
      <trkpt lat="46.88282" lon="8.53147">
        <ele>1737</ele>
        <time>2021-08-11T09:31:26.419Z</time>
      </trkpt>
      <trkpt lat="46.88281" lon="8.53147">
        <ele>1737</ele>
        <time>2021-08-11T09:31:27.419Z</time>
      </trkpt>
      <trkpt lat="46.8828" lon="8.53146">
        <ele>1736</ele>
        <time>2021-08-11T09:31:28.419Z</time>
      </trkpt>
      <trkpt lat="46.88279" lon="8.53146">
        <ele>1736</ele>
        <time>2021-08-11T09:31:29.418Z</time>
      </trkpt>
      <trkpt lat="46.88278" lon="8.53145">
        <ele>1735</ele>
        <time>2021-08-11T09:31:30.418Z</time>
      </trkpt>
      <trkpt lat="46.88278" lon="8.53145">
        <ele>1734</ele>
        <time>2021-08-11T09:31:31.419Z</time>
      </trkpt>
      <trkpt lat="46.88277" lon="8.53144">
        <ele>1732</ele>
        <time>2021-08-11T09:31:32.419Z</time>
      </trkpt>
      <trkpt lat="46.88276" lon="8.53144">
        <ele>1731</ele>
        <time>2021-08-11T09:31:33.419Z</time>
      </trkpt>
      <trkpt lat="46.88276" lon="8.53144">
        <ele>1730</ele>
        <time>2021-08-11T09:31:34.418Z</time>
      </trkpt>
      <trkpt lat="46.88276" lon="8.53144">
        <ele>1730</ele>
        <time>2021-08-11T09:31:35.418Z</time>
      </trkpt>
      <trkpt lat="46.88275" lon="8.53143">
        <ele>1729</ele>
        <time>2021-08-11T09:31:36.419Z</time>
      </trkpt>
      <trkpt lat="46.88274" lon="8.53143">
        <ele>1728</ele>
        <time>2021-08-11T09:31:37.418Z</time>
      </trkpt>
      <trkpt lat="46.88274" lon="8.53143">
        <ele>1728</ele>
        <time>2021-08-11T09:31:38.418Z</time>
      </trkpt>
      <trkpt lat="46.88273" lon="8.53143">
        <ele>1728</ele>
        <time>2021-08-11T09:31:39.418Z</time>
      </trkpt>
      <trkpt lat="46.88272" lon="8.53142">
        <ele>1727</ele>
        <time>2021-08-11T09:31:40.418Z</time>
      </trkpt>
      <trkpt lat="46.88271" lon="8.53141">
        <ele>1727</ele>
        <time>2021-08-11T09:31:41.418Z</time>
      </trkpt>
      <trkpt lat="46.8827" lon="8.5314">
        <ele>1727</ele>
        <time>2021-08-11T09:31:42.419Z</time>
      </trkpt>
      <trkpt lat="46.8827" lon="8.5314">
        <ele>1727</ele>
        <time>2021-08-11T09:31:43.419Z</time>
      </trkpt>
      <trkpt lat="46.88269" lon="8.53139">
        <ele>1727</ele>
        <time>2021-08-11T09:31:44.419Z</time>
      </trkpt>
      <trkpt lat="46.88268" lon="8.53138">
        <ele>1727</ele>
        <time>2021-08-11T09:31:45.418Z</time>
      </trkpt>
      <trkpt lat="46.88267" lon="8.53137">
        <ele>1727</ele>
        <time>2021-08-11T09:31:46.419Z</time>
      </trkpt>
      <trkpt lat="46.88266" lon="8.53136">
        <ele>1727</ele>
        <time>2021-08-11T09:31:47.419Z</time>
      </trkpt>
      <trkpt lat="46.88265" lon="8.53136">
        <ele>1726</ele>
        <time>2021-08-11T09:31:48.419Z</time>
      </trkpt>
      <trkpt lat="46.88264" lon="8.53135">
        <ele>1726</ele>
        <time>2021-08-11T09:31:49.418Z</time>
      </trkpt>
      <trkpt lat="46.88264" lon="8.53134">
        <ele>1726</ele>
        <time>2021-08-11T09:31:50.418Z</time>
      </trkpt>
      <trkpt lat="46.88263" lon="8.53132">
        <ele>1725</ele>
        <time>2021-08-11T09:31:51.418Z</time>
      </trkpt>
      <trkpt lat="46.88262" lon="8.53131">
        <ele>1725</ele>
        <time>2021-08-11T09:31:52.419Z</time>
      </trkpt>
      <trkpt lat="46.88261" lon="8.53129">
        <ele>1725</ele>
        <time>2021-08-11T09:31:53.419Z</time>
      </trkpt>
      <trkpt lat="46.88261" lon="8.53128">
        <ele>1724</ele>
        <time>2021-08-11T09:31:54.418Z</time>
      </trkpt>
      <trkpt lat="46.8826" lon="8.53127">
        <ele>1724</ele>
        <time>2021-08-11T09:31:55.418Z</time>
      </trkpt>
      <trkpt lat="46.8826" lon="8.53126">
        <ele>1725</ele>
        <time>2021-08-11T09:31:56.418Z</time>
      </trkpt>
      <trkpt lat="46.88259" lon="8.53125">
        <ele>1725</ele>
        <time>2021-08-11T09:31:57.419Z</time>
      </trkpt>
      <trkpt lat="46.88259" lon="8.53124">
        <ele>1725</ele>
        <time>2021-08-11T09:31:58.419Z</time>
      </trkpt>
      <trkpt lat="46.88259" lon="8.53123">
        <ele>1725</ele>
        <time>2021-08-11T09:31:59.418Z</time>
      </trkpt>
      <trkpt lat="46.88258" lon="8.53122">
        <ele>1725</ele>
        <time>2021-08-11T09:32:00.418Z</time>
      </trkpt>
      <trkpt lat="46.88257" lon="8.53121">
        <ele>1725</ele>
        <time>2021-08-11T09:32:01.418Z</time>
      </trkpt>
      <trkpt lat="46.88256" lon="8.5312">
        <ele>1725</ele>
        <time>2021-08-11T09:32:02.419Z</time>
      </trkpt>
      <trkpt lat="46.88255" lon="8.53119">
        <ele>1725</ele>
        <time>2021-08-11T09:32:03.418Z</time>
      </trkpt>
      <trkpt lat="46.88254" lon="8.53118">
        <ele>1725</ele>
        <time>2021-08-11T09:32:04.418Z</time>
      </trkpt>
      <trkpt lat="46.88253" lon="8.53117">
        <ele>1725</ele>
        <time>2021-08-11T09:32:05.418Z</time>
      </trkpt>
      <trkpt lat="46.88252" lon="8.53116">
        <ele>1724</ele>
        <time>2021-08-11T09:32:06.419Z</time>
      </trkpt>
      <trkpt lat="46.88251" lon="8.53114">
        <ele>1725</ele>
        <time>2021-08-11T09:32:07.418Z</time>
      </trkpt>
      <trkpt lat="46.8825" lon="8.53113">
        <ele>1725</ele>
        <time>2021-08-11T09:32:08.419Z</time>
      </trkpt>
      <trkpt lat="46.88249" lon="8.53112">
        <ele>1724</ele>
        <time>2021-08-11T09:32:09.418Z</time>
      </trkpt>
      <trkpt lat="46.88249" lon="8.5311">
        <ele>1724</ele>
        <time>2021-08-11T09:32:10.419Z</time>
      </trkpt>
      <trkpt lat="46.88248" lon="8.5311">
        <ele>1724</ele>
        <time>2021-08-11T09:32:11.418Z</time>
      </trkpt>
      <trkpt lat="46.88247" lon="8.53109">
        <ele>1724</ele>
        <time>2021-08-11T09:32:12.418Z</time>
      </trkpt>
      <trkpt lat="46.88246" lon="8.53108">
        <ele>1723</ele>
        <time>2021-08-11T09:32:13.418Z</time>
      </trkpt>
      <trkpt lat="46.88245" lon="8.53107">
        <ele>1723</ele>
        <time>2021-08-11T09:32:14.418Z</time>
      </trkpt>
      <trkpt lat="46.88244" lon="8.53107">
        <ele>1723</ele>
        <time>2021-08-11T09:32:15.419Z</time>
      </trkpt>
      <trkpt lat="46.88243" lon="8.53106">
        <ele>1723</ele>
        <time>2021-08-11T09:32:16.418Z</time>
      </trkpt>
      <trkpt lat="46.88242" lon="8.53106">
        <ele>1723</ele>
        <time>2021-08-11T09:32:17.418Z</time>
      </trkpt>
      <trkpt lat="46.88241" lon="8.53106">
        <ele>1723</ele>
        <time>2021-08-11T09:32:18.418Z</time>
      </trkpt>
      <trkpt lat="46.8824" lon="8.53106">
        <ele>1723</ele>
        <time>2021-08-11T09:32:19.418Z</time>
      </trkpt>
      <trkpt lat="46.88239" lon="8.53106">
        <ele>1723</ele>
        <time>2021-08-11T09:32:20.419Z</time>
      </trkpt>
      <trkpt lat="46.88238" lon="8.53106">
        <ele>1723</ele>
        <time>2021-08-11T09:32:21.419Z</time>
      </trkpt>
      <trkpt lat="46.88237" lon="8.53106">
        <ele>1723</ele>
        <time>2021-08-11T09:32:22.419Z</time>
      </trkpt>
      <trkpt lat="46.88236" lon="8.53105">
        <ele>1723</ele>
        <time>2021-08-11T09:32:23.419Z</time>
      </trkpt>
      <trkpt lat="46.88236" lon="8.53104">
        <ele>1723</ele>
        <time>2021-08-11T09:32:24.419Z</time>
      </trkpt>
      <trkpt lat="46.88235" lon="8.53103">
        <ele>1723</ele>
        <time>2021-08-11T09:32:25.419Z</time>
      </trkpt>
      <trkpt lat="46.88234" lon="8.53102">
        <ele>1723</ele>
        <time>2021-08-11T09:32:26.419Z</time>
      </trkpt>
      <trkpt lat="46.88233" lon="8.53101">
        <ele>1723</ele>
        <time>2021-08-11T09:32:27.418Z</time>
      </trkpt>
      <trkpt lat="46.88231" lon="8.53099">
        <ele>1723</ele>
        <time>2021-08-11T09:32:28.419Z</time>
      </trkpt>
      <trkpt lat="46.8823" lon="8.53098">
        <ele>1723</ele>
        <time>2021-08-11T09:32:29.419Z</time>
      </trkpt>
      <trkpt lat="46.88229" lon="8.53096">
        <ele>1723</ele>
        <time>2021-08-11T09:32:30.419Z</time>
      </trkpt>
      <trkpt lat="46.88228" lon="8.53095">
        <ele>1723</ele>
        <time>2021-08-11T09:32:31.418Z</time>
      </trkpt>
      <trkpt lat="46.88228" lon="8.53095">
        <ele>1723</ele>
        <time>2021-08-11T09:32:32.419Z</time>
      </trkpt>
      <trkpt lat="46.88227" lon="8.53094">
        <ele>1723</ele>
        <time>2021-08-11T09:32:33.419Z</time>
      </trkpt>
      <trkpt lat="46.88227" lon="8.53092">
        <ele>1722</ele>
        <time>2021-08-11T09:32:34.419Z</time>
      </trkpt>
      <trkpt lat="46.88226" lon="8.53091">
        <ele>1722</ele>
        <time>2021-08-11T09:32:35.419Z</time>
      </trkpt>
      <trkpt lat="46.88226" lon="8.5309">
        <ele>1722</ele>
        <time>2021-08-11T09:32:36.418Z</time>
      </trkpt>
      <trkpt lat="46.88226" lon="8.53088">
        <ele>1721</ele>
        <time>2021-08-11T09:32:37.418Z</time>
      </trkpt>
      <trkpt lat="46.88226" lon="8.53087">
        <ele>1721</ele>
        <time>2021-08-11T09:32:38.418Z</time>
      </trkpt>
      <trkpt lat="46.88226" lon="8.53085">
        <ele>1721</ele>
        <time>2021-08-11T09:32:39.418Z</time>
      </trkpt>
      <trkpt lat="46.88225" lon="8.53083">
        <ele>1721</ele>
        <time>2021-08-11T09:32:40.418Z</time>
      </trkpt>
      <trkpt lat="46.88224" lon="8.53082">
        <ele>1721</ele>
        <time>2021-08-11T09:32:41.418Z</time>
      </trkpt>
      <trkpt lat="46.88224" lon="8.53082">
        <ele>1720</ele>
        <time>2021-08-11T09:32:42.418Z</time>
      </trkpt>
      <trkpt lat="46.88224" lon="8.53081">
        <ele>1719</ele>
        <time>2021-08-11T09:32:43.418Z</time>
      </trkpt>
      <trkpt lat="46.88223" lon="8.5308">
        <ele>1719</ele>
        <time>2021-08-11T09:32:44.418Z</time>
      </trkpt>
      <trkpt lat="46.88223" lon="8.53079">
        <ele>1719</ele>
        <time>2021-08-11T09:32:45.419Z</time>
      </trkpt>
      <trkpt lat="46.88222" lon="8.53078">
        <ele>1719</ele>
        <time>2021-08-11T09:32:46.419Z</time>
      </trkpt>
      <trkpt lat="46.88222" lon="8.53077">
        <ele>1718</ele>
        <time>2021-08-11T09:32:47.419Z</time>
      </trkpt>
      <trkpt lat="46.88222" lon="8.53076">
        <ele>1718</ele>
        <time>2021-08-11T09:32:48.419Z</time>
      </trkpt>
      <trkpt lat="46.88221" lon="8.53074">
        <ele>1719</ele>
        <time>2021-08-11T09:32:49.418Z</time>
      </trkpt>
      <trkpt lat="46.88221" lon="8.53073">
        <ele>1719</ele>
        <time>2021-08-11T09:32:50.419Z</time>
      </trkpt>
      <trkpt lat="46.8822" lon="8.53071">
        <ele>1719</ele>
        <time>2021-08-11T09:32:51.419Z</time>
      </trkpt>
      <trkpt lat="46.88219" lon="8.5307">
        <ele>1719</ele>
        <time>2021-08-11T09:32:52.419Z</time>
      </trkpt>
      <trkpt lat="46.88219" lon="8.53068">
        <ele>1719</ele>
        <time>2021-08-11T09:32:53.419Z</time>
      </trkpt>
      <trkpt lat="46.88219" lon="8.53067">
        <ele>1719</ele>
        <time>2021-08-11T09:32:54.418Z</time>
      </trkpt>
      <trkpt lat="46.88219" lon="8.53066">
        <ele>1719</ele>
        <time>2021-08-11T09:32:55.419Z</time>
      </trkpt>
      <trkpt lat="46.88218" lon="8.53065">
        <ele>1719</ele>
        <time>2021-08-11T09:32:56.419Z</time>
      </trkpt>
      <trkpt lat="46.88218" lon="8.53064">
        <ele>1719</ele>
        <time>2021-08-11T09:32:57.419Z</time>
      </trkpt>
      <trkpt lat="46.88218" lon="8.53063">
        <ele>1719</ele>
        <time>2021-08-11T09:32:58.419Z</time>
      </trkpt>
      <trkpt lat="46.88218" lon="8.53062">
        <ele>1718</ele>
        <time>2021-08-11T09:32:59.418Z</time>
      </trkpt>
      <trkpt lat="46.88218" lon="8.53061">
        <ele>1718</ele>
        <time>2021-08-11T09:33:00.418Z</time>
      </trkpt>
      <trkpt lat="46.88218" lon="8.5306">
        <ele>1717</ele>
        <time>2021-08-11T09:33:01.418Z</time>
      </trkpt>
      <trkpt lat="46.88218" lon="8.5306">
        <ele>1717</ele>
        <time>2021-08-11T09:33:02.418Z</time>
      </trkpt>
      <trkpt lat="46.88217" lon="8.53059">
        <ele>1716</ele>
        <time>2021-08-11T09:33:03.419Z</time>
      </trkpt>
      <trkpt lat="46.88216" lon="8.53058">
        <ele>1716</ele>
        <time>2021-08-11T09:33:04.419Z</time>
      </trkpt>
      <trkpt lat="46.88216" lon="8.53056">
        <ele>1715</ele>
        <time>2021-08-11T09:33:05.418Z</time>
      </trkpt>
      <trkpt lat="46.88215" lon="8.53055">
        <ele>1715</ele>
        <time>2021-08-11T09:33:06.419Z</time>
      </trkpt>
      <trkpt lat="46.88214" lon="8.53053">
        <ele>1715</ele>
        <time>2021-08-11T09:33:07.419Z</time>
      </trkpt>
      <trkpt lat="46.88214" lon="8.53051">
        <ele>1715</ele>
        <time>2021-08-11T09:33:08.419Z</time>
      </trkpt>
      <trkpt lat="46.88214" lon="8.5305">
        <ele>1715</ele>
        <time>2021-08-11T09:33:09.418Z</time>
      </trkpt>
      <trkpt lat="46.88213" lon="8.53048">
        <ele>1715</ele>
        <time>2021-08-11T09:33:10.419Z</time>
      </trkpt>
      <trkpt lat="46.88213" lon="8.53046">
        <ele>1715</ele>
        <time>2021-08-11T09:33:11.419Z</time>
      </trkpt>
      <trkpt lat="46.88212" lon="8.53045">
        <ele>1716</ele>
        <time>2021-08-11T09:33:12.419Z</time>
      </trkpt>
      <trkpt lat="46.88212" lon="8.53044">
        <ele>1716</ele>
        <time>2021-08-11T09:33:13.419Z</time>
      </trkpt>
      <trkpt lat="46.88211" lon="8.53043">
        <ele>1716</ele>
        <time>2021-08-11T09:33:14.418Z</time>
      </trkpt>
      <trkpt lat="46.88211" lon="8.53042">
        <ele>1717</ele>
        <time>2021-08-11T09:33:15.419Z</time>
      </trkpt>
      <trkpt lat="46.8821" lon="8.53041">
        <ele>1717</ele>
        <time>2021-08-11T09:33:16.419Z</time>
      </trkpt>
      <trkpt lat="46.88209" lon="8.5304">
        <ele>1717</ele>
        <time>2021-08-11T09:33:17.419Z</time>
      </trkpt>
      <trkpt lat="46.88209" lon="8.53039">
        <ele>1718</ele>
        <time>2021-08-11T09:33:18.418Z</time>
      </trkpt>
      <trkpt lat="46.88208" lon="8.53038">
        <ele>1718</ele>
        <time>2021-08-11T09:33:19.419Z</time>
      </trkpt>
      <trkpt lat="46.88208" lon="8.53037">
        <ele>1719</ele>
        <time>2021-08-11T09:33:20.419Z</time>
      </trkpt>
      <trkpt lat="46.88207" lon="8.53036">
        <ele>1719</ele>
        <time>2021-08-11T09:33:21.419Z</time>
      </trkpt>
      <trkpt lat="46.88206" lon="8.53035">
        <ele>1719</ele>
        <time>2021-08-11T09:33:22.419Z</time>
      </trkpt>
      <trkpt lat="46.88206" lon="8.53033">
        <ele>1719</ele>
        <time>2021-08-11T09:33:23.418Z</time>
      </trkpt>
      <trkpt lat="46.88205" lon="8.53032">
        <ele>1719</ele>
        <time>2021-08-11T09:33:24.419Z</time>
      </trkpt>
      <trkpt lat="46.88204" lon="8.53031">
        <ele>1718</ele>
        <time>2021-08-11T09:33:25.419Z</time>
      </trkpt>
      <trkpt lat="46.88203" lon="8.5303">
        <ele>1718</ele>
        <time>2021-08-11T09:33:26.419Z</time>
      </trkpt>
      <trkpt lat="46.88202" lon="8.53029">
        <ele>1718</ele>
        <time>2021-08-11T09:33:27.418Z</time>
      </trkpt>
      <trkpt lat="46.88202" lon="8.53028">
        <ele>1717</ele>
        <time>2021-08-11T09:33:28.418Z</time>
      </trkpt>
      <trkpt lat="46.88202" lon="8.53027">
        <ele>1717</ele>
        <time>2021-08-11T09:33:29.419Z</time>
      </trkpt>
      <trkpt lat="46.88201" lon="8.53026">
        <ele>1716</ele>
        <time>2021-08-11T09:33:30.419Z</time>
      </trkpt>
      <trkpt lat="46.88201" lon="8.53025">
        <ele>1716</ele>
        <time>2021-08-11T09:33:31.419Z</time>
      </trkpt>
      <trkpt lat="46.882" lon="8.53025">
        <ele>1716</ele>
        <time>2021-08-11T09:33:32.418Z</time>
      </trkpt>
      <trkpt lat="46.882" lon="8.53024">
        <ele>1716</ele>
        <time>2021-08-11T09:33:33.419Z</time>
      </trkpt>
      <trkpt lat="46.88199" lon="8.53023">
        <ele>1716</ele>
        <time>2021-08-11T09:33:34.419Z</time>
      </trkpt>
      <trkpt lat="46.88198" lon="8.53022">
        <ele>1716</ele>
        <time>2021-08-11T09:33:35.419Z</time>
      </trkpt>
      <trkpt lat="46.88198" lon="8.5302">
        <ele>1716</ele>
        <time>2021-08-11T09:33:36.419Z</time>
      </trkpt>
      <trkpt lat="46.88197" lon="8.53019">
        <ele>1716</ele>
        <time>2021-08-11T09:33:37.418Z</time>
      </trkpt>
      <trkpt lat="46.88196" lon="8.53018">
        <ele>1716</ele>
        <time>2021-08-11T09:33:38.419Z</time>
      </trkpt>
      <trkpt lat="46.88195" lon="8.53017">
        <ele>1717</ele>
        <time>2021-08-11T09:33:39.419Z</time>
      </trkpt>
      <trkpt lat="46.88195" lon="8.53016">
        <ele>1717</ele>
        <time>2021-08-11T09:33:40.419Z</time>
      </trkpt>
      <trkpt lat="46.88194" lon="8.53015">
        <ele>1717</ele>
        <time>2021-08-11T09:33:41.418Z</time>
      </trkpt>
      <trkpt lat="46.88193" lon="8.53014">
        <ele>1717</ele>
        <time>2021-08-11T09:33:42.419Z</time>
      </trkpt>
      <trkpt lat="46.88192" lon="8.53013">
        <ele>1717</ele>
        <time>2021-08-11T09:33:43.419Z</time>
      </trkpt>
      <trkpt lat="46.88191" lon="8.53012">
        <ele>1718</ele>
        <time>2021-08-11T09:33:44.419Z</time>
      </trkpt>
      <trkpt lat="46.88191" lon="8.53011">
        <ele>1718</ele>
        <time>2021-08-11T09:33:45.419Z</time>
      </trkpt>
      <trkpt lat="46.8819" lon="8.5301">
        <ele>1718</ele>
        <time>2021-08-11T09:33:46.418Z</time>
      </trkpt>
      <trkpt lat="46.8819" lon="8.5301">
        <ele>1719</ele>
        <time>2021-08-11T09:33:47.419Z</time>
      </trkpt>
      <trkpt lat="46.88189" lon="8.5301">
        <ele>1719</ele>
        <time>2021-08-11T09:33:48.419Z</time>
      </trkpt>
      <trkpt lat="46.88188" lon="8.53009">
        <ele>1720</ele>
        <time>2021-08-11T09:33:49.419Z</time>
      </trkpt>
      <trkpt lat="46.88187" lon="8.53008">
        <ele>1720</ele>
        <time>2021-08-11T09:33:50.418Z</time>
      </trkpt>
      <trkpt lat="46.88187" lon="8.53007">
        <ele>1720</ele>
        <time>2021-08-11T09:33:51.419Z</time>
      </trkpt>
      <trkpt lat="46.88186" lon="8.53006">
        <ele>1720</ele>
        <time>2021-08-11T09:33:52.419Z</time>
      </trkpt>
      <trkpt lat="46.88185" lon="8.53006">
        <ele>1720</ele>
        <time>2021-08-11T09:33:53.419Z</time>
      </trkpt>
      <trkpt lat="46.88185" lon="8.53005">
        <ele>1719</ele>
        <time>2021-08-11T09:33:54.419Z</time>
      </trkpt>
      <trkpt lat="46.88184" lon="8.53004">
        <ele>1719</ele>
        <time>2021-08-11T09:33:55.418Z</time>
      </trkpt>
      <trkpt lat="46.88184" lon="8.53004">
        <ele>1718</ele>
        <time>2021-08-11T09:33:56.419Z</time>
      </trkpt>
      <trkpt lat="46.88183" lon="8.53003">
        <ele>1718</ele>
        <time>2021-08-11T09:33:57.419Z</time>
      </trkpt>
      <trkpt lat="46.88182" lon="8.53001">
        <ele>1718</ele>
        <time>2021-08-11T09:33:58.419Z</time>
      </trkpt>
      <trkpt lat="46.88182" lon="8.53">
        <ele>1717</ele>
        <time>2021-08-11T09:33:59.418Z</time>
      </trkpt>
      <trkpt lat="46.88181" lon="8.52999">
        <ele>1716</ele>
        <time>2021-08-11T09:34:00.419Z</time>
      </trkpt>
      <trkpt lat="46.88181" lon="8.52998">
        <ele>1716</ele>
        <time>2021-08-11T09:34:01.419Z</time>
      </trkpt>
      <trkpt lat="46.8818" lon="8.52996">
        <ele>1716</ele>
        <time>2021-08-11T09:34:02.419Z</time>
      </trkpt>
      <trkpt lat="46.88179" lon="8.52995">
        <ele>1715</ele>
        <time>2021-08-11T09:34:03.419Z</time>
      </trkpt>
      <trkpt lat="46.88178" lon="8.52994">
        <ele>1714</ele>
        <time>2021-08-11T09:34:04.418Z</time>
      </trkpt>
      <trkpt lat="46.88177" lon="8.52993">
        <ele>1714</ele>
        <time>2021-08-11T09:34:05.419Z</time>
      </trkpt>
      <trkpt lat="46.88176" lon="8.52992">
        <ele>1713</ele>
        <time>2021-08-11T09:34:06.419Z</time>
      </trkpt>
      <trkpt lat="46.88176" lon="8.52991">
        <ele>1713</ele>
        <time>2021-08-11T09:34:07.418Z</time>
      </trkpt>
      <trkpt lat="46.88175" lon="8.5299">
        <ele>1713</ele>
        <time>2021-08-11T09:34:08.418Z</time>
      </trkpt>
      <trkpt lat="46.88174" lon="8.52989">
        <ele>1713</ele>
        <time>2021-08-11T09:34:09.419Z</time>
      </trkpt>
      <trkpt lat="46.88173" lon="8.52989">
        <ele>1713</ele>
        <time>2021-08-11T09:34:10.419Z</time>
      </trkpt>
      <trkpt lat="46.88172" lon="8.52988">
        <ele>1713</ele>
        <time>2021-08-11T09:34:11.418Z</time>
      </trkpt>
      <trkpt lat="46.88171" lon="8.52987">
        <ele>1713</ele>
        <time>2021-08-11T09:34:12.419Z</time>
      </trkpt>
      <trkpt lat="46.8817" lon="8.52986">
        <ele>1713</ele>
        <time>2021-08-11T09:34:13.418Z</time>
      </trkpt>
      <trkpt lat="46.8817" lon="8.52985">
        <ele>1713</ele>
        <time>2021-08-11T09:34:14.419Z</time>
      </trkpt>
      <trkpt lat="46.88169" lon="8.52984">
        <ele>1713</ele>
        <time>2021-08-11T09:34:15.419Z</time>
      </trkpt>
      <trkpt lat="46.88168" lon="8.52983">
        <ele>1713</ele>
        <time>2021-08-11T09:34:16.418Z</time>
      </trkpt>
      <trkpt lat="46.88167" lon="8.52982">
        <ele>1713</ele>
        <time>2021-08-11T09:34:17.419Z</time>
      </trkpt>
      <trkpt lat="46.88166" lon="8.52982">
        <ele>1713</ele>
        <time>2021-08-11T09:34:18.419Z</time>
      </trkpt>
      <trkpt lat="46.88165" lon="8.5298">
        <ele>1713</ele>
        <time>2021-08-11T09:34:19.419Z</time>
      </trkpt>
      <trkpt lat="46.88165" lon="8.52979">
        <ele>1713</ele>
        <time>2021-08-11T09:34:20.418Z</time>
      </trkpt>
      <trkpt lat="46.88164" lon="8.52978">
        <ele>1713</ele>
        <time>2021-08-11T09:34:21.419Z</time>
      </trkpt>
      <trkpt lat="46.88163" lon="8.52977">
        <ele>1712</ele>
        <time>2021-08-11T09:34:22.419Z</time>
      </trkpt>
      <trkpt lat="46.88162" lon="8.52977">
        <ele>1712</ele>
        <time>2021-08-11T09:34:23.418Z</time>
      </trkpt>
      <trkpt lat="46.88161" lon="8.52976">
        <ele>1712</ele>
        <time>2021-08-11T09:34:24.419Z</time>
      </trkpt>
      <trkpt lat="46.8816" lon="8.52975">
        <ele>1712</ele>
        <time>2021-08-11T09:34:25.419Z</time>
      </trkpt>
      <trkpt lat="46.88159" lon="8.52973">
        <ele>1713</ele>
        <time>2021-08-11T09:34:26.418Z</time>
      </trkpt>
      <trkpt lat="46.88158" lon="8.52972">
        <ele>1713</ele>
        <time>2021-08-11T09:34:27.419Z</time>
      </trkpt>
      <trkpt lat="46.88157" lon="8.52971">
        <ele>1713</ele>
        <time>2021-08-11T09:34:28.419Z</time>
      </trkpt>
      <trkpt lat="46.88156" lon="8.5297">
        <ele>1714</ele>
        <time>2021-08-11T09:34:29.419Z</time>
      </trkpt>
      <trkpt lat="46.88155" lon="8.52969">
        <ele>1714</ele>
        <time>2021-08-11T09:34:30.418Z</time>
      </trkpt>
      <trkpt lat="46.88154" lon="8.52968">
        <ele>1714</ele>
        <time>2021-08-11T09:34:31.418Z</time>
      </trkpt>
      <trkpt lat="46.88153" lon="8.52967">
        <ele>1714</ele>
        <time>2021-08-11T09:34:32.418Z</time>
      </trkpt>
      <trkpt lat="46.88152" lon="8.52966">
        <ele>1714</ele>
        <time>2021-08-11T09:34:33.418Z</time>
      </trkpt>
      <trkpt lat="46.88151" lon="8.52965">
        <ele>1714</ele>
        <time>2021-08-11T09:34:34.419Z</time>
      </trkpt>
      <trkpt lat="46.88151" lon="8.52963">
        <ele>1714</ele>
        <time>2021-08-11T09:34:35.419Z</time>
      </trkpt>
      <trkpt lat="46.8815" lon="8.52962">
        <ele>1714</ele>
        <time>2021-08-11T09:34:36.419Z</time>
      </trkpt>
      <trkpt lat="46.88149" lon="8.5296">
        <ele>1714</ele>
        <time>2021-08-11T09:34:37.419Z</time>
      </trkpt>
      <trkpt lat="46.88149" lon="8.52959">
        <ele>1714</ele>
        <time>2021-08-11T09:34:38.418Z</time>
      </trkpt>
      <trkpt lat="46.88149" lon="8.52957">
        <ele>1714</ele>
        <time>2021-08-11T09:34:39.419Z</time>
      </trkpt>
      <trkpt lat="46.88148" lon="8.52955">
        <ele>1715</ele>
        <time>2021-08-11T09:34:40.419Z</time>
      </trkpt>
      <trkpt lat="46.88147" lon="8.52953">
        <ele>1714</ele>
        <time>2021-08-11T09:34:41.419Z</time>
      </trkpt>
      <trkpt lat="46.88147" lon="8.52952">
        <ele>1714</ele>
        <time>2021-08-11T09:34:42.419Z</time>
      </trkpt>
      <trkpt lat="46.88146" lon="8.52951">
        <ele>1714</ele>
        <time>2021-08-11T09:34:43.419Z</time>
      </trkpt>
      <trkpt lat="46.88146" lon="8.5295">
        <ele>1713</ele>
        <time>2021-08-11T09:34:44.419Z</time>
      </trkpt>
      <trkpt lat="46.88145" lon="8.52949">
        <ele>1713</ele>
        <time>2021-08-11T09:34:45.419Z</time>
      </trkpt>
      <trkpt lat="46.88145" lon="8.52947">
        <ele>1713</ele>
        <time>2021-08-11T09:34:46.419Z</time>
      </trkpt>
      <trkpt lat="46.88144" lon="8.52946">
        <ele>1713</ele>
        <time>2021-08-11T09:34:47.418Z</time>
      </trkpt>
      <trkpt lat="46.88143" lon="8.52945">
        <ele>1713</ele>
        <time>2021-08-11T09:34:48.419Z</time>
      </trkpt>
      <trkpt lat="46.88143" lon="8.52944">
        <ele>1714</ele>
        <time>2021-08-11T09:34:49.418Z</time>
      </trkpt>
      <trkpt lat="46.88142" lon="8.52943">
        <ele>1714</ele>
        <time>2021-08-11T09:34:50.419Z</time>
      </trkpt>
      <trkpt lat="46.88141" lon="8.52942">
        <ele>1714</ele>
        <time>2021-08-11T09:34:51.418Z</time>
      </trkpt>
      <trkpt lat="46.8814" lon="8.52941">
        <ele>1714</ele>
        <time>2021-08-11T09:34:52.419Z</time>
      </trkpt>
      <trkpt lat="46.8814" lon="8.5294">
        <ele>1714</ele>
        <time>2021-08-11T09:34:53.419Z</time>
      </trkpt>
      <trkpt lat="46.88139" lon="8.52939">
        <ele>1715</ele>
        <time>2021-08-11T09:34:54.419Z</time>
      </trkpt>
      <trkpt lat="46.88139" lon="8.52938">
        <ele>1715</ele>
        <time>2021-08-11T09:34:55.419Z</time>
      </trkpt>
      <trkpt lat="46.88139" lon="8.52937">
        <ele>1715</ele>
        <time>2021-08-11T09:34:56.418Z</time>
      </trkpt>
      <trkpt lat="46.88138" lon="8.52936">
        <ele>1715</ele>
        <time>2021-08-11T09:34:57.419Z</time>
      </trkpt>
      <trkpt lat="46.88137" lon="8.52935">
        <ele>1715</ele>
        <time>2021-08-11T09:34:58.419Z</time>
      </trkpt>
      <trkpt lat="46.88136" lon="8.52933">
        <ele>1715</ele>
        <time>2021-08-11T09:34:59.419Z</time>
      </trkpt>
      <trkpt lat="46.88135" lon="8.52932">
        <ele>1715</ele>
        <time>2021-08-11T09:35:00.419Z</time>
      </trkpt>
      <trkpt lat="46.88135" lon="8.5293">
        <ele>1715</ele>
        <time>2021-08-11T09:35:01.419Z</time>
      </trkpt>
      <trkpt lat="46.88134" lon="8.5293">
        <ele>1716</ele>
        <time>2021-08-11T09:35:02.418Z</time>
      </trkpt>
      <trkpt lat="46.88133" lon="8.52929">
        <ele>1716</ele>
        <time>2021-08-11T09:35:03.419Z</time>
      </trkpt>
      <trkpt lat="46.88132" lon="8.52929">
        <ele>1716</ele>
        <time>2021-08-11T09:35:04.419Z</time>
      </trkpt>
      <trkpt lat="46.88131" lon="8.52928">
        <ele>1716</ele>
        <time>2021-08-11T09:35:05.419Z</time>
      </trkpt>
      <trkpt lat="46.8813" lon="8.52928">
        <ele>1716</ele>
        <time>2021-08-11T09:35:06.418Z</time>
      </trkpt>
      <trkpt lat="46.88129" lon="8.52928">
        <ele>1716</ele>
        <time>2021-08-11T09:35:07.418Z</time>
      </trkpt>
      <trkpt lat="46.88128" lon="8.52928">
        <ele>1715</ele>
        <time>2021-08-11T09:35:08.419Z</time>
      </trkpt>
      <trkpt lat="46.88127" lon="8.52927">
        <ele>1715</ele>
        <time>2021-08-11T09:35:09.418Z</time>
      </trkpt>
      <trkpt lat="46.88125" lon="8.52926">
        <ele>1715</ele>
        <time>2021-08-11T09:35:10.419Z</time>
      </trkpt>
      <trkpt lat="46.88125" lon="8.52925">
        <ele>1715</ele>
        <time>2021-08-11T09:35:11.419Z</time>
      </trkpt>
      <trkpt lat="46.88124" lon="8.52925">
        <ele>1715</ele>
        <time>2021-08-11T09:35:12.419Z</time>
      </trkpt>
      <trkpt lat="46.88122" lon="8.52925">
        <ele>1715</ele>
        <time>2021-08-11T09:35:13.419Z</time>
      </trkpt>
      <trkpt lat="46.88121" lon="8.52924">
        <ele>1715</ele>
        <time>2021-08-11T09:35:14.418Z</time>
      </trkpt>
      <trkpt lat="46.8812" lon="8.52923">
        <ele>1715</ele>
        <time>2021-08-11T09:35:15.419Z</time>
      </trkpt>
      <trkpt lat="46.88119" lon="8.52923">
        <ele>1716</ele>
        <time>2021-08-11T09:35:16.419Z</time>
      </trkpt>
      <trkpt lat="46.88117" lon="8.52922">
        <ele>1716</ele>
        <time>2021-08-11T09:35:17.418Z</time>
      </trkpt>
      <trkpt lat="46.88116" lon="8.52921">
        <ele>1716</ele>
        <time>2021-08-11T09:35:18.419Z</time>
      </trkpt>
      <trkpt lat="46.88115" lon="8.5292">
        <ele>1716</ele>
        <time>2021-08-11T09:35:19.418Z</time>
      </trkpt>
      <trkpt lat="46.88115" lon="8.52919">
        <ele>1717</ele>
        <time>2021-08-11T09:35:20.419Z</time>
      </trkpt>
      <trkpt lat="46.88114" lon="8.52918">
        <ele>1717</ele>
        <time>2021-08-11T09:35:21.419Z</time>
      </trkpt>
      <trkpt lat="46.88112" lon="8.52917">
        <ele>1717</ele>
        <time>2021-08-11T09:35:22.419Z</time>
      </trkpt>
      <trkpt lat="46.88111" lon="8.52917">
        <ele>1718</ele>
        <time>2021-08-11T09:35:23.418Z</time>
      </trkpt>
      <trkpt lat="46.8811" lon="8.52916">
        <ele>1718</ele>
        <time>2021-08-11T09:35:24.418Z</time>
      </trkpt>
      <trkpt lat="46.88109" lon="8.52915">
        <ele>1718</ele>
        <time>2021-08-11T09:35:25.419Z</time>
      </trkpt>
      <trkpt lat="46.88108" lon="8.52915">
        <ele>1717</ele>
        <time>2021-08-11T09:35:26.419Z</time>
      </trkpt>
      <trkpt lat="46.88106" lon="8.52915">
        <ele>1717</ele>
        <time>2021-08-11T09:35:27.419Z</time>
      </trkpt>
      <trkpt lat="46.88106" lon="8.52914">
        <ele>1716</ele>
        <time>2021-08-11T09:35:28.419Z</time>
      </trkpt>
      <trkpt lat="46.88105" lon="8.52914">
        <ele>1715</ele>
        <time>2021-08-11T09:35:29.419Z</time>
      </trkpt>
      <trkpt lat="46.88105" lon="8.52913">
        <ele>1714</ele>
        <time>2021-08-11T09:35:30.419Z</time>
      </trkpt>
      <trkpt lat="46.88105" lon="8.52911">
        <ele>1713</ele>
        <time>2021-08-11T09:35:31.419Z</time>
      </trkpt>
      <trkpt lat="46.88104" lon="8.5291">
        <ele>1713</ele>
        <time>2021-08-11T09:35:32.419Z</time>
      </trkpt>
      <trkpt lat="46.88105" lon="8.52909">
        <ele>1713</ele>
        <time>2021-08-11T09:35:33.418Z</time>
      </trkpt>
      <trkpt lat="46.88104" lon="8.52907">
        <ele>1712</ele>
        <time>2021-08-11T09:35:34.419Z</time>
      </trkpt>
      <trkpt lat="46.88103" lon="8.52906">
        <ele>1712</ele>
        <time>2021-08-11T09:35:35.418Z</time>
      </trkpt>
      <trkpt lat="46.88103" lon="8.52906">
        <ele>1712</ele>
        <time>2021-08-11T09:35:36.419Z</time>
      </trkpt>
      <trkpt lat="46.88102" lon="8.52906">
        <ele>1712</ele>
        <time>2021-08-11T09:35:37.419Z</time>
      </trkpt>
      <trkpt lat="46.88101" lon="8.52905">
        <ele>1711</ele>
        <time>2021-08-11T09:35:38.419Z</time>
      </trkpt>
      <trkpt lat="46.881" lon="8.52904">
        <ele>1711</ele>
        <time>2021-08-11T09:35:39.418Z</time>
      </trkpt>
      <trkpt lat="46.88099" lon="8.52903">
        <ele>1712</ele>
        <time>2021-08-11T09:35:40.419Z</time>
      </trkpt>
      <trkpt lat="46.88098" lon="8.52902">
        <ele>1712</ele>
        <time>2021-08-11T09:35:41.419Z</time>
      </trkpt>
      <trkpt lat="46.88097" lon="8.52901">
        <ele>1712</ele>
        <time>2021-08-11T09:35:42.419Z</time>
      </trkpt>
      <trkpt lat="46.88096" lon="8.529">
        <ele>1712</ele>
        <time>2021-08-11T09:35:43.419Z</time>
      </trkpt>
      <trkpt lat="46.88095" lon="8.52899">
        <ele>1713</ele>
        <time>2021-08-11T09:35:44.418Z</time>
      </trkpt>
      <trkpt lat="46.88094" lon="8.52899">
        <ele>1713</ele>
        <time>2021-08-11T09:35:45.419Z</time>
      </trkpt>
      <trkpt lat="46.88093" lon="8.52898">
        <ele>1714</ele>
        <time>2021-08-11T09:35:46.419Z</time>
      </trkpt>
      <trkpt lat="46.88092" lon="8.52897">
        <ele>1714</ele>
        <time>2021-08-11T09:35:47.419Z</time>
      </trkpt>
      <trkpt lat="46.88091" lon="8.52896">
        <ele>1715</ele>
        <time>2021-08-11T09:35:48.419Z</time>
      </trkpt>
      <trkpt lat="46.8809" lon="8.52896">
        <ele>1715</ele>
        <time>2021-08-11T09:35:49.419Z</time>
      </trkpt>
      <trkpt lat="46.88089" lon="8.52895">
        <ele>1716</ele>
        <time>2021-08-11T09:35:50.419Z</time>
      </trkpt>
      <trkpt lat="46.88088" lon="8.52894">
        <ele>1716</ele>
        <time>2021-08-11T09:35:51.419Z</time>
      </trkpt>
      <trkpt lat="46.88087" lon="8.52894">
        <ele>1717</ele>
        <time>2021-08-11T09:35:52.419Z</time>
      </trkpt>
      <trkpt lat="46.88086" lon="8.52893">
        <ele>1717</ele>
        <time>2021-08-11T09:35:53.419Z</time>
      </trkpt>
      <trkpt lat="46.88085" lon="8.52892">
        <ele>1717</ele>
        <time>2021-08-11T09:35:54.418Z</time>
      </trkpt>
      <trkpt lat="46.88085" lon="8.52892">
        <ele>1717</ele>
        <time>2021-08-11T09:35:55.418Z</time>
      </trkpt>
      <trkpt lat="46.88084" lon="8.52891">
        <ele>1717</ele>
        <time>2021-08-11T09:35:56.419Z</time>
      </trkpt>
      <trkpt lat="46.88083" lon="8.52891">
        <ele>1716</ele>
        <time>2021-08-11T09:35:57.419Z</time>
      </trkpt>
      <trkpt lat="46.88082" lon="8.5289">
        <ele>1716</ele>
        <time>2021-08-11T09:35:58.419Z</time>
      </trkpt>
      <trkpt lat="46.88082" lon="8.52889">
        <ele>1715</ele>
        <time>2021-08-11T09:35:59.418Z</time>
      </trkpt>
      <trkpt lat="46.88081" lon="8.52889">
        <ele>1715</ele>
        <time>2021-08-11T09:36:00.419Z</time>
      </trkpt>
      <trkpt lat="46.8808" lon="8.52888">
        <ele>1714</ele>
        <time>2021-08-11T09:36:01.419Z</time>
      </trkpt>
      <trkpt lat="46.8808" lon="8.52887">
        <ele>1714</ele>
        <time>2021-08-11T09:36:02.419Z</time>
      </trkpt>
      <trkpt lat="46.88079" lon="8.52887">
        <ele>1713</ele>
        <time>2021-08-11T09:36:03.419Z</time>
      </trkpt>
      <trkpt lat="46.88079" lon="8.52887">
        <ele>1713</ele>
        <time>2021-08-11T09:36:04.419Z</time>
      </trkpt>
      <trkpt lat="46.88078" lon="8.52887">
        <ele>1712</ele>
        <time>2021-08-11T09:36:05.419Z</time>
      </trkpt>
      <trkpt lat="46.88078" lon="8.52887">
        <ele>1712</ele>
        <time>2021-08-11T09:36:06.419Z</time>
      </trkpt>
      <trkpt lat="46.88078" lon="8.52886">
        <ele>1712</ele>
        <time>2021-08-11T09:36:07.418Z</time>
      </trkpt>
      <trkpt lat="46.88078" lon="8.52886">
        <ele>1711</ele>
        <time>2021-08-11T09:36:08.419Z</time>
      </trkpt>
      <trkpt lat="46.88078" lon="8.52886">
        <ele>1711</ele>
        <time>2021-08-11T09:36:09.419Z</time>
      </trkpt>
      <trkpt lat="46.88078" lon="8.52885">
        <ele>1711</ele>
        <time>2021-08-11T09:36:10.421Z</time>
      </trkpt>
      <trkpt lat="46.88078" lon="8.52884">
        <ele>1710</ele>
        <time>2021-08-11T09:36:11.420Z</time>
      </trkpt>
      <trkpt lat="46.88078" lon="8.52884">
        <ele>1710</ele>
        <time>2021-08-11T09:36:12.420Z</time>
      </trkpt>
      <trkpt lat="46.88077" lon="8.52883">
        <ele>1709</ele>
        <time>2021-08-11T09:36:13.420Z</time>
      </trkpt>
      <trkpt lat="46.88077" lon="8.52883">
        <ele>1709</ele>
        <time>2021-08-11T09:36:14.421Z</time>
      </trkpt>
      <trkpt lat="46.88076" lon="8.52882">
        <ele>1708</ele>
        <time>2021-08-11T09:36:15.421Z</time>
      </trkpt>
      <trkpt lat="46.88076" lon="8.52881">
        <ele>1708</ele>
        <time>2021-08-11T09:36:16.420Z</time>
      </trkpt>
      <trkpt lat="46.88075" lon="8.52881">
        <ele>1709</ele>
        <time>2021-08-11T09:36:17.420Z</time>
      </trkpt>
      <trkpt lat="46.88075" lon="8.5288">
        <ele>1709</ele>
        <time>2021-08-11T09:36:18.420Z</time>
      </trkpt>
      <trkpt lat="46.88075" lon="8.52878">
        <ele>1709</ele>
        <time>2021-08-11T09:36:19.421Z</time>
      </trkpt>
      <trkpt lat="46.88074" lon="8.52877">
        <ele>1709</ele>
        <time>2021-08-11T09:36:20.420Z</time>
      </trkpt>
      <trkpt lat="46.88075" lon="8.52877">
        <ele>1709</ele>
        <time>2021-08-11T09:36:21.420Z</time>
      </trkpt>
      <trkpt lat="46.88074" lon="8.52878">
        <ele>1709</ele>
        <time>2021-08-11T09:36:22.420Z</time>
      </trkpt>
      <trkpt lat="46.88073" lon="8.52878">
        <ele>1709</ele>
        <time>2021-08-11T09:36:23.421Z</time>
      </trkpt>
      <trkpt lat="46.88073" lon="8.52879">
        <ele>1708</ele>
        <time>2021-08-11T09:36:24.420Z</time>
      </trkpt>
      <trkpt lat="46.88073" lon="8.52879">
        <ele>1708</ele>
        <time>2021-08-11T09:36:25.420Z</time>
      </trkpt>
      <trkpt lat="46.88073" lon="8.52878">
        <ele>1707</ele>
        <time>2021-08-11T09:36:26.421Z</time>
      </trkpt>
      <trkpt lat="46.88072" lon="8.52877">
        <ele>1706</ele>
        <time>2021-08-11T09:36:27.421Z</time>
      </trkpt>
      <trkpt lat="46.88072" lon="8.52875">
        <ele>1706</ele>
        <time>2021-08-11T09:36:28.420Z</time>
      </trkpt>
      <trkpt lat="46.88069" lon="8.52874">
        <ele>1705</ele>
        <time>2021-08-11T09:36:29.420Z</time>
      </trkpt>
      <trkpt lat="46.88069" lon="8.52873">
        <ele>1704</ele>
        <time>2021-08-11T09:36:30.420Z</time>
      </trkpt>
      <trkpt lat="46.88068" lon="8.52872">
        <ele>1704</ele>
        <time>2021-08-11T09:36:31.421Z</time>
      </trkpt>
      <trkpt lat="46.88068" lon="8.52871">
        <ele>1704</ele>
        <time>2021-08-11T09:36:32.420Z</time>
      </trkpt>
      <trkpt lat="46.88067" lon="8.5287">
        <ele>1703</ele>
        <time>2021-08-11T09:36:33.420Z</time>
      </trkpt>
      <trkpt lat="46.88067" lon="8.52869">
        <ele>1703</ele>
        <time>2021-08-11T09:36:34.421Z</time>
      </trkpt>
      <trkpt lat="46.88066" lon="8.52868">
        <ele>1703</ele>
        <time>2021-08-11T09:36:35.420Z</time>
      </trkpt>
      <trkpt lat="46.88065" lon="8.52868">
        <ele>1703</ele>
        <time>2021-08-11T09:36:36.420Z</time>
      </trkpt>
      <trkpt lat="46.88064" lon="8.52867">
        <ele>1703</ele>
        <time>2021-08-11T09:36:37.421Z</time>
      </trkpt>
      <trkpt lat="46.88063" lon="8.52867">
        <ele>1703</ele>
        <time>2021-08-11T09:36:38.421Z</time>
      </trkpt>
      <trkpt lat="46.88063" lon="8.52867">
        <ele>1703</ele>
        <time>2021-08-11T09:36:39.420Z</time>
      </trkpt>
      <trkpt lat="46.88061" lon="8.52866">
        <ele>1703</ele>
        <time>2021-08-11T09:36:40.420Z</time>
      </trkpt>
      <trkpt lat="46.88061" lon="8.52865">
        <ele>1703</ele>
        <time>2021-08-11T09:36:41.420Z</time>
      </trkpt>
      <trkpt lat="46.8806" lon="8.52863">
        <ele>1703</ele>
        <time>2021-08-11T09:36:42.421Z</time>
      </trkpt>
      <trkpt lat="46.88059" lon="8.52862">
        <ele>1702</ele>
        <time>2021-08-11T09:36:43.420Z</time>
      </trkpt>
      <trkpt lat="46.88058" lon="8.52862">
        <ele>1702</ele>
        <time>2021-08-11T09:36:44.420Z</time>
      </trkpt>
      <trkpt lat="46.88057" lon="8.52861">
        <ele>1702</ele>
        <time>2021-08-11T09:36:45.420Z</time>
      </trkpt>
      <trkpt lat="46.88057" lon="8.5286">
        <ele>1702</ele>
        <time>2021-08-11T09:36:46.420Z</time>
      </trkpt>
      <trkpt lat="46.88056" lon="8.52859">
        <ele>1702</ele>
        <time>2021-08-11T09:36:47.420Z</time>
      </trkpt>
      <trkpt lat="46.88055" lon="8.52858">
        <ele>1702</ele>
        <time>2021-08-11T09:36:48.420Z</time>
      </trkpt>
      <trkpt lat="46.88054" lon="8.52857">
        <ele>1702</ele>
        <time>2021-08-11T09:36:49.420Z</time>
      </trkpt>
      <trkpt lat="46.88054" lon="8.52856">
        <ele>1703</ele>
        <time>2021-08-11T09:36:50.420Z</time>
      </trkpt>
      <trkpt lat="46.88053" lon="8.52855">
        <ele>1703</ele>
        <time>2021-08-11T09:36:51.420Z</time>
      </trkpt>
      <trkpt lat="46.88052" lon="8.52854">
        <ele>1703</ele>
        <time>2021-08-11T09:36:52.421Z</time>
      </trkpt>
      <trkpt lat="46.88052" lon="8.52853">
        <ele>1703</ele>
        <time>2021-08-11T09:36:53.420Z</time>
      </trkpt>
      <trkpt lat="46.88051" lon="8.52852">
        <ele>1704</ele>
        <time>2021-08-11T09:36:54.420Z</time>
      </trkpt>
      <trkpt lat="46.8805" lon="8.52851">
        <ele>1704</ele>
        <time>2021-08-11T09:36:55.420Z</time>
      </trkpt>
      <trkpt lat="46.88049" lon="8.52849">
        <ele>1704</ele>
        <time>2021-08-11T09:36:56.421Z</time>
      </trkpt>
      <trkpt lat="46.88048" lon="8.52848">
        <ele>1704</ele>
        <time>2021-08-11T09:36:57.420Z</time>
      </trkpt>
      <trkpt lat="46.88047" lon="8.52847">
        <ele>1704</ele>
        <time>2021-08-11T09:36:58.421Z</time>
      </trkpt>
      <trkpt lat="46.88047" lon="8.52845">
        <ele>1704</ele>
        <time>2021-08-11T09:36:59.420Z</time>
      </trkpt>
      <trkpt lat="46.88046" lon="8.52844">
        <ele>1705</ele>
        <time>2021-08-11T09:37:00.420Z</time>
      </trkpt>
      <trkpt lat="46.88046" lon="8.52843">
        <ele>1705</ele>
        <time>2021-08-11T09:37:01.420Z</time>
      </trkpt>
      <trkpt lat="46.88045" lon="8.52841">
        <ele>1704</ele>
        <time>2021-08-11T09:37:02.420Z</time>
      </trkpt>
      <trkpt lat="46.88044" lon="8.52841">
        <ele>1704</ele>
        <time>2021-08-11T09:37:03.421Z</time>
      </trkpt>
      <trkpt lat="46.88043" lon="8.52839">
        <ele>1704</ele>
        <time>2021-08-11T09:37:04.420Z</time>
      </trkpt>
      <trkpt lat="46.88043" lon="8.52838">
        <ele>1703</ele>
        <time>2021-08-11T09:37:05.421Z</time>
      </trkpt>
      <trkpt lat="46.88041" lon="8.52837">
        <ele>1703</ele>
        <time>2021-08-11T09:37:06.420Z</time>
      </trkpt>
      <trkpt lat="46.88041" lon="8.52837">
        <ele>1703</ele>
        <time>2021-08-11T09:37:07.421Z</time>
      </trkpt>
      <trkpt lat="46.88039" lon="8.52835">
        <ele>1704</ele>
        <time>2021-08-11T09:37:08.421Z</time>
      </trkpt>
      <trkpt lat="46.88038" lon="8.52834">
        <ele>1704</ele>
        <time>2021-08-11T09:37:09.420Z</time>
      </trkpt>
      <trkpt lat="46.88037" lon="8.52833">
        <ele>1704</ele>
        <time>2021-08-11T09:37:10.421Z</time>
      </trkpt>
      <trkpt lat="46.88037" lon="8.52832">
        <ele>1704</ele>
        <time>2021-08-11T09:37:11.421Z</time>
      </trkpt>
      <trkpt lat="46.88036" lon="8.52831">
        <ele>1704</ele>
        <time>2021-08-11T09:37:12.421Z</time>
      </trkpt>
      <trkpt lat="46.88035" lon="8.52831">
        <ele>1704</ele>
        <time>2021-08-11T09:37:13.420Z</time>
      </trkpt>
      <trkpt lat="46.88034" lon="8.52831">
        <ele>1704</ele>
        <time>2021-08-11T09:37:14.421Z</time>
      </trkpt>
      <trkpt lat="46.88034" lon="8.5283">
        <ele>1704</ele>
        <time>2021-08-11T09:37:15.421Z</time>
      </trkpt>
      <trkpt lat="46.88033" lon="8.52829">
        <ele>1705</ele>
        <time>2021-08-11T09:37:16.421Z</time>
      </trkpt>
      <trkpt lat="46.88033" lon="8.52829">
        <ele>1705</ele>
        <time>2021-08-11T09:37:17.421Z</time>
      </trkpt>
      <trkpt lat="46.88032" lon="8.52829">
        <ele>1705</ele>
        <time>2021-08-11T09:37:18.421Z</time>
      </trkpt>
      <trkpt lat="46.88031" lon="8.52829">
        <ele>1705</ele>
        <time>2021-08-11T09:37:19.421Z</time>
      </trkpt>
      <trkpt lat="46.88031" lon="8.52829">
        <ele>1705</ele>
        <time>2021-08-11T09:37:20.421Z</time>
      </trkpt>
      <trkpt lat="46.8803" lon="8.52829">
        <ele>1705</ele>
        <time>2021-08-11T09:37:21.421Z</time>
      </trkpt>
      <trkpt lat="46.8803" lon="8.52829">
        <ele>1705</ele>
        <time>2021-08-11T09:37:22.420Z</time>
      </trkpt>
      <trkpt lat="46.88029" lon="8.52828">
        <ele>1705</ele>
        <time>2021-08-11T09:37:23.421Z</time>
      </trkpt>
      <trkpt lat="46.88029" lon="8.52828">
        <ele>1705</ele>
        <time>2021-08-11T09:37:24.421Z</time>
      </trkpt>
      <trkpt lat="46.88028" lon="8.52828">
        <ele>1705</ele>
        <time>2021-08-11T09:37:25.421Z</time>
      </trkpt>
      <trkpt lat="46.88028" lon="8.52828">
        <ele>1705</ele>
        <time>2021-08-11T09:37:26.420Z</time>
      </trkpt>
      <trkpt lat="46.88027" lon="8.52828">
        <ele>1705</ele>
        <time>2021-08-11T09:37:27.420Z</time>
      </trkpt>
      <trkpt lat="46.88026" lon="8.52828">
        <ele>1705</ele>
        <time>2021-08-11T09:37:28.421Z</time>
      </trkpt>
      <trkpt lat="46.88026" lon="8.52828">
        <ele>1705</ele>
        <time>2021-08-11T09:37:29.421Z</time>
      </trkpt>
      <trkpt lat="46.88026" lon="8.52828">
        <ele>1705</ele>
        <time>2021-08-11T09:37:30.421Z</time>
      </trkpt>
      <trkpt lat="46.88027" lon="8.52828">
        <ele>1704</ele>
        <time>2021-08-11T09:37:31.420Z</time>
      </trkpt>
      <trkpt lat="46.88026" lon="8.52828">
        <ele>1704</ele>
        <time>2021-08-11T09:37:32.421Z</time>
      </trkpt>
      <trkpt lat="46.88026" lon="8.52829">
        <ele>1703</ele>
        <time>2021-08-11T09:37:33.421Z</time>
      </trkpt>
      <trkpt lat="46.88025" lon="8.52829">
        <ele>1702</ele>
        <time>2021-08-11T09:37:34.421Z</time>
      </trkpt>
      <trkpt lat="46.88025" lon="8.52829">
        <ele>1702</ele>
        <time>2021-08-11T09:37:35.421Z</time>
      </trkpt>
      <trkpt lat="46.88025" lon="8.52828">
        <ele>1701</ele>
        <time>2021-08-11T09:37:36.420Z</time>
      </trkpt>
      <trkpt lat="46.88024" lon="8.52828">
        <ele>1701</ele>
        <time>2021-08-11T09:37:37.421Z</time>
      </trkpt>
      <trkpt lat="46.88023" lon="8.52827">
        <ele>1700</ele>
        <time>2021-08-11T09:37:38.421Z</time>
      </trkpt>
      <trkpt lat="46.88021" lon="8.52826">
        <ele>1700</ele>
        <time>2021-08-11T09:37:39.421Z</time>
      </trkpt>
      <trkpt lat="46.8802" lon="8.52825">
        <ele>1700</ele>
        <time>2021-08-11T09:37:40.421Z</time>
      </trkpt>
      <trkpt lat="46.88019" lon="8.52824">
        <ele>1700</ele>
        <time>2021-08-11T09:37:41.420Z</time>
      </trkpt>
      <trkpt lat="46.88019" lon="8.52824">
        <ele>1700</ele>
        <time>2021-08-11T09:37:42.420Z</time>
      </trkpt>
      <trkpt lat="46.88018" lon="8.52824">
        <ele>1699</ele>
        <time>2021-08-11T09:37:43.421Z</time>
      </trkpt>
      <trkpt lat="46.88017" lon="8.52824">
        <ele>1699</ele>
        <time>2021-08-11T09:37:44.421Z</time>
      </trkpt>
      <trkpt lat="46.88017" lon="8.52823">
        <ele>1699</ele>
        <time>2021-08-11T09:37:45.420Z</time>
      </trkpt>
      <trkpt lat="46.88016" lon="8.52822">
        <ele>1700</ele>
        <time>2021-08-11T09:37:46.420Z</time>
      </trkpt>
      <trkpt lat="46.88016" lon="8.52822">
        <ele>1700</ele>
        <time>2021-08-11T09:37:47.420Z</time>
      </trkpt>
      <trkpt lat="46.88015" lon="8.52821">
        <ele>1700</ele>
        <time>2021-08-11T09:37:48.421Z</time>
      </trkpt>
      <trkpt lat="46.88015" lon="8.52821">
        <ele>1700</ele>
        <time>2021-08-11T09:37:49.421Z</time>
      </trkpt>
      <trkpt lat="46.88014" lon="8.52822">
        <ele>1700</ele>
        <time>2021-08-11T09:37:50.420Z</time>
      </trkpt>
      <trkpt lat="46.88014" lon="8.52822">
        <ele>1696</ele>
        <time>2021-08-11T09:37:51.422Z</time>
      </trkpt>
      <trkpt lat="46.88012" lon="8.52823">
        <ele>1700</ele>
        <time>2021-08-11T09:37:52.422Z</time>
      </trkpt>
      <trkpt lat="46.88012" lon="8.52823">
        <ele>1701</ele>
        <time>2021-08-11T09:37:53.423Z</time>
      </trkpt>
      <trkpt lat="46.88014" lon="8.52824">
        <ele>1700</ele>
        <time>2021-08-11T09:37:54.422Z</time>
      </trkpt>
      <trkpt lat="46.88014" lon="8.52825">
        <ele>1700</ele>
        <time>2021-08-11T09:37:55.423Z</time>
      </trkpt>
      <trkpt lat="46.88014" lon="8.52825">
        <ele>1700</ele>
        <time>2021-08-11T09:37:56.422Z</time>
      </trkpt>
      <trkpt lat="46.88015" lon="8.52823">
        <ele>1702</ele>
        <time>2021-08-11T09:37:57.422Z</time>
      </trkpt>
      <trkpt lat="46.88014" lon="8.52823">
        <ele>1702</ele>
        <time>2021-08-11T09:37:58.422Z</time>
      </trkpt>
      <trkpt lat="46.88014" lon="8.52823">
        <ele>1702</ele>
        <time>2021-08-11T09:37:59.422Z</time>
      </trkpt>
      <trkpt lat="46.88014" lon="8.52823">
        <ele>1703</ele>
        <time>2021-08-11T09:38:00.422Z</time>
      </trkpt>
      <trkpt lat="46.88012" lon="8.52821">
        <ele>1706</ele>
        <time>2021-08-11T09:38:01.424Z</time>
      </trkpt>
      <trkpt lat="46.88012" lon="8.52821">
        <ele>1706</ele>
        <time>2021-08-11T09:38:02.423Z</time>
      </trkpt>
      <trkpt lat="46.88011" lon="8.52821">
        <ele>1706</ele>
        <time>2021-08-11T09:38:03.425Z</time>
      </trkpt>
      <trkpt lat="46.88011" lon="8.5282">
        <ele>1706</ele>
        <time>2021-08-11T09:38:04.425Z</time>
      </trkpt>
      <trkpt lat="46.8801" lon="8.52819">
        <ele>1706</ele>
        <time>2021-08-11T09:38:05.424Z</time>
      </trkpt>
      <trkpt lat="46.8801" lon="8.52819">
        <ele>1706</ele>
        <time>2021-08-11T09:38:06.425Z</time>
      </trkpt>
      <trkpt lat="46.8801" lon="8.52818">
        <ele>1706</ele>
        <time>2021-08-11T09:38:07.425Z</time>
      </trkpt>
      <trkpt lat="46.8801" lon="8.52817">
        <ele>1706</ele>
        <time>2021-08-11T09:38:08.424Z</time>
      </trkpt>
      <trkpt lat="46.88011" lon="8.52816">
        <ele>1706</ele>
        <time>2021-08-11T09:38:09.425Z</time>
      </trkpt>
      <trkpt lat="46.88013" lon="8.52814">
        <ele>1706</ele>
        <time>2021-08-11T09:38:10.425Z</time>
      </trkpt>
      <trkpt lat="46.88014" lon="8.52813">
        <ele>1706</ele>
        <time>2021-08-11T09:38:11.424Z</time>
      </trkpt>
      <trkpt lat="46.88015" lon="8.52812">
        <ele>1706</ele>
        <time>2021-08-11T09:38:12.425Z</time>
      </trkpt>
      <trkpt lat="46.88015" lon="8.52811">
        <ele>1706</ele>
        <time>2021-08-11T09:38:13.425Z</time>
      </trkpt>
      <trkpt lat="46.88015" lon="8.52811">
        <ele>1706</ele>
        <time>2021-08-11T09:38:14.425Z</time>
      </trkpt>
      <trkpt lat="46.88015" lon="8.52809">
        <ele>1706</ele>
        <time>2021-08-11T09:38:15.425Z</time>
      </trkpt>
      <trkpt lat="46.88015" lon="8.52809">
        <ele>1706</ele>
        <time>2021-08-11T09:38:16.424Z</time>
      </trkpt>
      <trkpt lat="46.88014" lon="8.52807">
        <ele>1706</ele>
        <time>2021-08-11T09:38:17.425Z</time>
      </trkpt>
      <trkpt lat="46.88014" lon="8.52806">
        <ele>1706</ele>
        <time>2021-08-11T09:38:18.425Z</time>
      </trkpt>
      <trkpt lat="46.88013" lon="8.52806">
        <ele>1706</ele>
        <time>2021-08-11T09:38:19.424Z</time>
      </trkpt>
      <trkpt lat="46.88013" lon="8.52806">
        <ele>1705</ele>
        <time>2021-08-11T09:38:20.425Z</time>
      </trkpt>
      <trkpt lat="46.88012" lon="8.52806">
        <ele>1705</ele>
        <time>2021-08-11T09:38:21.424Z</time>
      </trkpt>
      <trkpt lat="46.88012" lon="8.52806">
        <ele>1704</ele>
        <time>2021-08-11T09:38:22.425Z</time>
      </trkpt>
      <trkpt lat="46.88011" lon="8.52807">
        <ele>1704</ele>
        <time>2021-08-11T09:38:23.425Z</time>
      </trkpt>
      <trkpt lat="46.8801" lon="8.52807">
        <ele>1703</ele>
        <time>2021-08-11T09:38:24.425Z</time>
      </trkpt>
      <trkpt lat="46.88009" lon="8.52806">
        <ele>1702</ele>
        <time>2021-08-11T09:38:25.425Z</time>
      </trkpt>
      <trkpt lat="46.88009" lon="8.52805">
        <ele>1702</ele>
        <time>2021-08-11T09:38:26.425Z</time>
      </trkpt>
      <trkpt lat="46.88009" lon="8.52805">
        <ele>1702</ele>
        <time>2021-08-11T09:38:27.425Z</time>
      </trkpt>
      <trkpt lat="46.88007" lon="8.52805">
        <ele>1698</ele>
        <time>2021-08-11T09:38:28.425Z</time>
      </trkpt>
      <trkpt lat="46.88007" lon="8.52805">
        <ele>1697</ele>
        <time>2021-08-11T09:38:29.425Z</time>
      </trkpt>
      <trkpt lat="46.88007" lon="8.52804">
        <ele>1697</ele>
        <time>2021-08-11T09:38:30.424Z</time>
      </trkpt>
      <trkpt lat="46.88006" lon="8.52804">
        <ele>1697</ele>
        <time>2021-08-11T09:38:31.424Z</time>
      </trkpt>
      <trkpt lat="46.88005" lon="8.52803">
        <ele>1697</ele>
        <time>2021-08-11T09:38:32.424Z</time>
      </trkpt>
      <trkpt lat="46.88005" lon="8.52803">
        <ele>1697</ele>
        <time>2021-08-11T09:38:33.425Z</time>
      </trkpt>
      <trkpt lat="46.88005" lon="8.52803">
        <ele>1697</ele>
        <time>2021-08-11T09:38:34.424Z</time>
      </trkpt>
      <trkpt lat="46.88005" lon="8.52804">
        <ele>1697</ele>
        <time>2021-08-11T09:38:35.425Z</time>
      </trkpt>
      <trkpt lat="46.88005" lon="8.52804">
        <ele>1697</ele>
        <time>2021-08-11T09:38:36.424Z</time>
      </trkpt>
      <trkpt lat="46.88005" lon="8.52805">
        <ele>1697</ele>
        <time>2021-08-11T09:38:37.424Z</time>
      </trkpt>
      <trkpt lat="46.88005" lon="8.52805">
        <ele>1697</ele>
        <time>2021-08-11T09:38:38.425Z</time>
      </trkpt>
      <trkpt lat="46.88005" lon="8.52805">
        <ele>1697</ele>
        <time>2021-08-11T09:38:39.424Z</time>
      </trkpt>
      <trkpt lat="46.88006" lon="8.52806">
        <ele>1697</ele>
        <time>2021-08-11T09:38:40.425Z</time>
      </trkpt>
      <trkpt lat="46.88006" lon="8.52806">
        <ele>1697</ele>
        <time>2021-08-11T09:38:41.424Z</time>
      </trkpt>
      <trkpt lat="46.88006" lon="8.52807">
        <ele>1696</ele>
        <time>2021-08-11T09:38:42.424Z</time>
      </trkpt>
      <trkpt lat="46.88005" lon="8.52806">
        <ele>1696</ele>
        <time>2021-08-11T09:38:43.426Z</time>
      </trkpt>
      <trkpt lat="46.88007" lon="8.52806">
        <ele>1696</ele>
        <time>2021-08-11T09:38:44.427Z</time>
      </trkpt>
      <trkpt lat="46.88007" lon="8.52806">
        <ele>1697</ele>
        <time>2021-08-11T09:38:45.427Z</time>
      </trkpt>
      <trkpt lat="46.88007" lon="8.52806">
        <ele>1697</ele>
        <time>2021-08-11T09:38:46.426Z</time>
      </trkpt>
      <trkpt lat="46.88007" lon="8.52805">
        <ele>1697</ele>
        <time>2021-08-11T09:38:47.427Z</time>
      </trkpt>
      <trkpt lat="46.88007" lon="8.52805">
        <ele>1698</ele>
        <time>2021-08-11T09:38:48.426Z</time>
      </trkpt>
      <trkpt lat="46.88007" lon="8.52805">
        <ele>1698</ele>
        <time>2021-08-11T09:38:49.427Z</time>
      </trkpt>
      <trkpt lat="46.88012" lon="8.52799">
        <ele>1709</ele>
        <time>2021-08-11T09:38:50.429Z</time>
      </trkpt>
      <trkpt lat="46.88012" lon="8.52798">
        <ele>1709</ele>
        <time>2021-08-11T09:38:51.429Z</time>
      </trkpt>
      <trkpt lat="46.88012" lon="8.52797">
        <ele>1709</ele>
        <time>2021-08-11T09:38:52.428Z</time>
      </trkpt>
      <trkpt lat="46.8801" lon="8.52797">
        <ele>1709</ele>
        <time>2021-08-11T09:38:53.428Z</time>
      </trkpt>
      <trkpt lat="46.88009" lon="8.52797">
        <ele>1709</ele>
        <time>2021-08-11T09:38:54.428Z</time>
      </trkpt>
      <trkpt lat="46.88009" lon="8.52797">
        <ele>1708</ele>
        <time>2021-08-11T09:38:55.428Z</time>
      </trkpt>
      <trkpt lat="46.88007" lon="8.52799">
        <ele>1707</ele>
        <time>2021-08-11T09:38:56.429Z</time>
      </trkpt>
      <trkpt lat="46.88007" lon="8.52799">
        <ele>1706</ele>
        <time>2021-08-11T09:38:57.429Z</time>
      </trkpt>
      <trkpt lat="46.88007" lon="8.528">
        <ele>1706</ele>
        <time>2021-08-11T09:38:58.428Z</time>
      </trkpt>
      <trkpt lat="46.88002" lon="8.52807">
        <ele>1699</ele>
        <time>2021-08-11T09:38:59.430Z</time>
      </trkpt>
      <trkpt lat="46.88002" lon="8.52807">
        <ele>1699</ele>
        <time>2021-08-11T09:39:00.430Z</time>
      </trkpt>
      <trkpt lat="46.88002" lon="8.52808">
        <ele>1699</ele>
        <time>2021-08-11T09:39:01.429Z</time>
      </trkpt>
      <trkpt lat="46.88002" lon="8.52808">
        <ele>1699</ele>
        <time>2021-08-11T09:39:02.429Z</time>
      </trkpt>
      <trkpt lat="46.88002" lon="8.52808">
        <ele>1700</ele>
        <time>2021-08-11T09:39:03.429Z</time>
      </trkpt>
      <trkpt lat="46.88001" lon="8.52808">
        <ele>1697</ele>
        <time>2021-08-11T09:39:04.430Z</time>
      </trkpt>
      <trkpt lat="46.88001" lon="8.52808">
        <ele>1697</ele>
        <time>2021-08-11T09:39:05.430Z</time>
      </trkpt>
      <trkpt lat="46.88" lon="8.52808">
        <ele>1696</ele>
        <time>2021-08-11T09:39:06.429Z</time>
      </trkpt>
      <trkpt lat="46.88002" lon="8.52809">
        <ele>1698</ele>
        <time>2021-08-11T09:39:07.431Z</time>
      </trkpt>
      <trkpt lat="46.88005" lon="8.52812">
        <ele>1697</ele>
        <time>2021-08-11T09:39:08.430Z</time>
      </trkpt>
      <trkpt lat="46.88005" lon="8.52811">
        <ele>1697</ele>
        <time>2021-08-11T09:39:09.430Z</time>
      </trkpt>
      <trkpt lat="46.88005" lon="8.52812">
        <ele>1697</ele>
        <time>2021-08-11T09:39:10.431Z</time>
      </trkpt>
      <trkpt lat="46.88004" lon="8.52809">
        <ele>1697</ele>
        <time>2021-08-11T09:39:11.431Z</time>
      </trkpt>
      <trkpt lat="46.88003" lon="8.52809">
        <ele>1697</ele>
        <time>2021-08-11T09:39:12.432Z</time>
      </trkpt>
      <trkpt lat="46.88003" lon="8.52808">
        <ele>1697</ele>
        <time>2021-08-11T09:39:13.431Z</time>
      </trkpt>
      <trkpt lat="46.88003" lon="8.52808">
        <ele>1698</ele>
        <time>2021-08-11T09:39:14.432Z</time>
      </trkpt>
      <trkpt lat="46.88003" lon="8.52806">
        <ele>1695</ele>
        <time>2021-08-11T09:39:15.433Z</time>
      </trkpt>
      <trkpt lat="46.88002" lon="8.52807">
        <ele>1695</ele>
        <time>2021-08-11T09:39:16.433Z</time>
      </trkpt>
      <trkpt lat="46.88001" lon="8.52808">
        <ele>1695</ele>
        <time>2021-08-11T09:39:17.432Z</time>
      </trkpt>
      <trkpt lat="46.88001" lon="8.52808">
        <ele>1696</ele>
        <time>2021-08-11T09:39:18.433Z</time>
      </trkpt>
      <trkpt lat="46.88001" lon="8.52809">
        <ele>1696</ele>
        <time>2021-08-11T09:39:19.432Z</time>
      </trkpt>
      <trkpt lat="46.88005" lon="8.52812">
        <ele>1696</ele>
        <time>2021-08-11T09:39:20.432Z</time>
      </trkpt>
      <trkpt lat="46.88004" lon="8.52812">
        <ele>1697</ele>
        <time>2021-08-11T09:39:21.432Z</time>
      </trkpt>
      <trkpt lat="46.88004" lon="8.52811">
        <ele>1697</ele>
        <time>2021-08-11T09:39:22.432Z</time>
      </trkpt>
      <trkpt lat="46.88" lon="8.52808">
        <ele>1701</ele>
        <time>2021-08-11T09:39:23.434Z</time>
      </trkpt>
      <trkpt lat="46.87999" lon="8.52808">
        <ele>1701</ele>
        <time>2021-08-11T09:39:24.434Z</time>
      </trkpt>
      <trkpt lat="46.87999" lon="8.52809">
        <ele>1701</ele>
        <time>2021-08-11T09:39:25.434Z</time>
      </trkpt>
      <trkpt lat="46.87999" lon="8.52809">
        <ele>1702</ele>
        <time>2021-08-11T09:39:26.433Z</time>
      </trkpt>
      <trkpt lat="46.87999" lon="8.52809">
        <ele>1702</ele>
        <time>2021-08-11T09:39:27.433Z</time>
      </trkpt>
      <trkpt lat="46.88" lon="8.5281">
        <ele>1703</ele>
        <time>2021-08-11T09:39:28.434Z</time>
      </trkpt>
      <trkpt lat="46.88001" lon="8.52811">
        <ele>1703</ele>
        <time>2021-08-11T09:39:29.434Z</time>
      </trkpt>
      <trkpt lat="46.88001" lon="8.52811">
        <ele>1703</ele>
        <time>2021-08-11T09:39:30.434Z</time>
      </trkpt>
      <trkpt lat="46.88002" lon="8.52811">
        <ele>1703</ele>
        <time>2021-08-11T09:39:31.433Z</time>
      </trkpt>
      <trkpt lat="46.88002" lon="8.52811">
        <ele>1703</ele>
        <time>2021-08-11T09:39:32.434Z</time>
      </trkpt>
      <trkpt lat="46.88001" lon="8.52811">
        <ele>1703</ele>
        <time>2021-08-11T09:39:33.434Z</time>
      </trkpt>
      <trkpt lat="46.88001" lon="8.5281">
        <ele>1704</ele>
        <time>2021-08-11T09:39:34.434Z</time>
      </trkpt>
      <trkpt lat="46.88002" lon="8.52809">
        <ele>1704</ele>
        <time>2021-08-11T09:39:35.434Z</time>
      </trkpt>
      <trkpt lat="46.88002" lon="8.52809">
        <ele>1704</ele>
        <time>2021-08-11T09:39:36.434Z</time>
      </trkpt>
      <trkpt lat="46.88002" lon="8.52809">
        <ele>1705</ele>
        <time>2021-08-11T09:39:37.435Z</time>
      </trkpt>
      <trkpt lat="46.88002" lon="8.52808">
        <ele>1705</ele>
        <time>2021-08-11T09:39:38.435Z</time>
      </trkpt>
      <trkpt lat="46.88001" lon="8.52807">
        <ele>1705</ele>
        <time>2021-08-11T09:39:39.435Z</time>
      </trkpt>
      <trkpt lat="46.88001" lon="8.52807">
        <ele>1705</ele>
        <time>2021-08-11T09:39:40.434Z</time>
      </trkpt>
      <trkpt lat="46.88" lon="8.52806">
        <ele>1705</ele>
        <time>2021-08-11T09:39:41.435Z</time>
      </trkpt>
      <trkpt lat="46.88" lon="8.52805">
        <ele>1705</ele>
        <time>2021-08-11T09:39:42.435Z</time>
      </trkpt>
      <trkpt lat="46.87999" lon="8.52804">
        <ele>1704</ele>
        <time>2021-08-11T09:39:43.435Z</time>
      </trkpt>
      <trkpt lat="46.87998" lon="8.52804">
        <ele>1705</ele>
        <time>2021-08-11T09:39:44.435Z</time>
      </trkpt>
      <trkpt lat="46.87998" lon="8.52803">
        <ele>1705</ele>
        <time>2021-08-11T09:39:45.434Z</time>
      </trkpt>
      <trkpt lat="46.87997" lon="8.52802">
        <ele>1705</ele>
        <time>2021-08-11T09:39:46.435Z</time>
      </trkpt>
      <trkpt lat="46.87997" lon="8.52803">
        <ele>1705</ele>
        <time>2021-08-11T09:39:47.436Z</time>
      </trkpt>
      <trkpt lat="46.87996" lon="8.52804">
        <ele>1704</ele>
        <time>2021-08-11T09:39:48.436Z</time>
      </trkpt>
      <trkpt lat="46.87996" lon="8.52804">
        <ele>1704</ele>
        <time>2021-08-11T09:39:49.435Z</time>
      </trkpt>
      <trkpt lat="46.87995" lon="8.52803">
        <ele>1704</ele>
        <time>2021-08-11T09:39:50.436Z</time>
      </trkpt>
      <trkpt lat="46.87995" lon="8.52803">
        <ele>1703</ele>
        <time>2021-08-11T09:39:51.436Z</time>
      </trkpt>
      <trkpt lat="46.87994" lon="8.52803">
        <ele>1703</ele>
        <time>2021-08-11T09:39:52.436Z</time>
      </trkpt>
      <trkpt lat="46.87993" lon="8.52802">
        <ele>1703</ele>
        <time>2021-08-11T09:39:53.435Z</time>
      </trkpt>
      <trkpt lat="46.87992" lon="8.52802">
        <ele>1703</ele>
        <time>2021-08-11T09:39:54.436Z</time>
      </trkpt>
      <trkpt lat="46.87991" lon="8.52802">
        <ele>1703</ele>
        <time>2021-08-11T09:39:55.436Z</time>
      </trkpt>
      <trkpt lat="46.8799" lon="8.52801">
        <ele>1703</ele>
        <time>2021-08-11T09:39:56.436Z</time>
      </trkpt>
      <trkpt lat="46.87989" lon="8.528">
        <ele>1703</ele>
        <time>2021-08-11T09:39:57.436Z</time>
      </trkpt>
      <trkpt lat="46.87988" lon="8.52799">
        <ele>1703</ele>
        <time>2021-08-11T09:39:58.435Z</time>
      </trkpt>
      <trkpt lat="46.87987" lon="8.52799">
        <ele>1703</ele>
        <time>2021-08-11T09:39:59.436Z</time>
      </trkpt>
      <trkpt lat="46.87986" lon="8.52799">
        <ele>1702</ele>
        <time>2021-08-11T09:40:00.436Z</time>
      </trkpt>
      <trkpt lat="46.87985" lon="8.52799">
        <ele>1701</ele>
        <time>2021-08-11T09:40:01.435Z</time>
      </trkpt>
      <trkpt lat="46.87984" lon="8.52799">
        <ele>1701</ele>
        <time>2021-08-11T09:40:02.436Z</time>
      </trkpt>
      <trkpt lat="46.87984" lon="8.52799">
        <ele>1701</ele>
        <time>2021-08-11T09:40:03.436Z</time>
      </trkpt>
      <trkpt lat="46.87983" lon="8.52799">
        <ele>1701</ele>
        <time>2021-08-11T09:40:04.436Z</time>
      </trkpt>
      <trkpt lat="46.87982" lon="8.52799">
        <ele>1701</ele>
        <time>2021-08-11T09:40:05.435Z</time>
      </trkpt>
      <trkpt lat="46.87981" lon="8.528">
        <ele>1701</ele>
        <time>2021-08-11T09:40:06.436Z</time>
      </trkpt>
      <trkpt lat="46.8798" lon="8.52801">
        <ele>1701</ele>
        <time>2021-08-11T09:40:07.435Z</time>
      </trkpt>
      <trkpt lat="46.8798" lon="8.52801">
        <ele>1700</ele>
        <time>2021-08-11T09:40:08.435Z</time>
      </trkpt>
      <trkpt lat="46.87979" lon="8.52802">
        <ele>1700</ele>
        <time>2021-08-11T09:40:09.436Z</time>
      </trkpt>
      <trkpt lat="46.87979" lon="8.52803">
        <ele>1700</ele>
        <time>2021-08-11T09:40:10.436Z</time>
      </trkpt>
      <trkpt lat="46.87978" lon="8.52803">
        <ele>1701</ele>
        <time>2021-08-11T09:40:11.436Z</time>
      </trkpt>
      <trkpt lat="46.87978" lon="8.52804">
        <ele>1701</ele>
        <time>2021-08-11T09:40:12.436Z</time>
      </trkpt>
      <trkpt lat="46.87978" lon="8.52805">
        <ele>1700</ele>
        <time>2021-08-11T09:40:13.436Z</time>
      </trkpt>
      <trkpt lat="46.8798" lon="8.52807">
        <ele>1699</ele>
        <time>2021-08-11T09:40:14.436Z</time>
      </trkpt>
      <trkpt lat="46.87981" lon="8.52807">
        <ele>1699</ele>
        <time>2021-08-11T09:40:15.436Z</time>
      </trkpt>
      <trkpt lat="46.87982" lon="8.52804">
        <ele>1699</ele>
        <time>2021-08-11T09:40:16.436Z</time>
      </trkpt>
      <trkpt lat="46.87982" lon="8.52804">
        <ele>1699</ele>
        <time>2021-08-11T09:40:17.436Z</time>
      </trkpt>
      <trkpt lat="46.87982" lon="8.52804">
        <ele>1700</ele>
        <time>2021-08-11T09:40:18.435Z</time>
      </trkpt>
      <trkpt lat="46.87982" lon="8.52805">
        <ele>1700</ele>
        <time>2021-08-11T09:40:19.436Z</time>
      </trkpt>
      <trkpt lat="46.87982" lon="8.52808">
        <ele>1689</ele>
        <time>2021-08-11T09:40:20.437Z</time>
      </trkpt>
      <trkpt lat="46.87981" lon="8.52809">
        <ele>1688</ele>
        <time>2021-08-11T09:40:21.437Z</time>
      </trkpt>
      <trkpt lat="46.87981" lon="8.52809">
        <ele>1688</ele>
        <time>2021-08-11T09:40:22.436Z</time>
      </trkpt>
      <trkpt lat="46.8798" lon="8.52809">
        <ele>1688</ele>
        <time>2021-08-11T09:40:23.437Z</time>
      </trkpt>
      <trkpt lat="46.87979" lon="8.52809">
        <ele>1689</ele>
        <time>2021-08-11T09:40:24.437Z</time>
      </trkpt>
      <trkpt lat="46.87978" lon="8.52809">
        <ele>1690</ele>
        <time>2021-08-11T09:40:25.436Z</time>
      </trkpt>
      <trkpt lat="46.87977" lon="8.52808">
        <ele>1690</ele>
        <time>2021-08-11T09:40:26.436Z</time>
      </trkpt>
      <trkpt lat="46.87976" lon="8.52808">
        <ele>1691</ele>
        <time>2021-08-11T09:40:27.437Z</time>
      </trkpt>
      <trkpt lat="46.87975" lon="8.52808">
        <ele>1691</ele>
        <time>2021-08-11T09:40:28.437Z</time>
      </trkpt>
      <trkpt lat="46.87974" lon="8.52808">
        <ele>1691</ele>
        <time>2021-08-11T09:40:29.436Z</time>
      </trkpt>
      <trkpt lat="46.87973" lon="8.52808">
        <ele>1692</ele>
        <time>2021-08-11T09:40:30.437Z</time>
      </trkpt>
      <trkpt lat="46.87972" lon="8.52807">
        <ele>1692</ele>
        <time>2021-08-11T09:40:31.436Z</time>
      </trkpt>
      <trkpt lat="46.87971" lon="8.52807">
        <ele>1692</ele>
        <time>2021-08-11T09:40:32.436Z</time>
      </trkpt>
      <trkpt lat="46.8797" lon="8.52806">
        <ele>1692</ele>
        <time>2021-08-11T09:40:33.436Z</time>
      </trkpt>
      <trkpt lat="46.87969" lon="8.52806">
        <ele>1692</ele>
        <time>2021-08-11T09:40:34.436Z</time>
      </trkpt>
      <trkpt lat="46.87968" lon="8.52806">
        <ele>1692</ele>
        <time>2021-08-11T09:40:35.436Z</time>
      </trkpt>
      <trkpt lat="46.87967" lon="8.52806">
        <ele>1692</ele>
        <time>2021-08-11T09:40:36.436Z</time>
      </trkpt>
      <trkpt lat="46.87967" lon="8.52805">
        <ele>1692</ele>
        <time>2021-08-11T09:40:37.436Z</time>
      </trkpt>
      <trkpt lat="46.87966" lon="8.52805">
        <ele>1692</ele>
        <time>2021-08-11T09:40:38.437Z</time>
      </trkpt>
      <trkpt lat="46.87965" lon="8.52804">
        <ele>1692</ele>
        <time>2021-08-11T09:40:39.436Z</time>
      </trkpt>
      <trkpt lat="46.87964" lon="8.52804">
        <ele>1693</ele>
        <time>2021-08-11T09:40:40.437Z</time>
      </trkpt>
      <trkpt lat="46.87963" lon="8.52803">
        <ele>1693</ele>
        <time>2021-08-11T09:40:41.436Z</time>
      </trkpt>
      <trkpt lat="46.87962" lon="8.52802">
        <ele>1693</ele>
        <time>2021-08-11T09:40:42.436Z</time>
      </trkpt>
      <trkpt lat="46.87961" lon="8.52802">
        <ele>1693</ele>
        <time>2021-08-11T09:40:43.436Z</time>
      </trkpt>
      <trkpt lat="46.8796" lon="8.52802">
        <ele>1693</ele>
        <time>2021-08-11T09:40:44.437Z</time>
      </trkpt>
      <trkpt lat="46.87959" lon="8.52801">
        <ele>1693</ele>
        <time>2021-08-11T09:40:45.437Z</time>
      </trkpt>
      <trkpt lat="46.87959" lon="8.52801">
        <ele>1693</ele>
        <time>2021-08-11T09:40:46.437Z</time>
      </trkpt>
      <trkpt lat="46.87958" lon="8.528">
        <ele>1694</ele>
        <time>2021-08-11T09:40:47.437Z</time>
      </trkpt>
      <trkpt lat="46.87957" lon="8.528">
        <ele>1694</ele>
        <time>2021-08-11T09:40:48.437Z</time>
      </trkpt>
      <trkpt lat="46.87956" lon="8.52799">
        <ele>1694</ele>
        <time>2021-08-11T09:40:49.436Z</time>
      </trkpt>
      <trkpt lat="46.87956" lon="8.52799">
        <ele>1695</ele>
        <time>2021-08-11T09:40:50.437Z</time>
      </trkpt>
      <trkpt lat="46.87955" lon="8.52798">
        <ele>1695</ele>
        <time>2021-08-11T09:40:51.437Z</time>
      </trkpt>
      <trkpt lat="46.87954" lon="8.52798">
        <ele>1695</ele>
        <time>2021-08-11T09:40:52.437Z</time>
      </trkpt>
      <trkpt lat="46.87953" lon="8.52797">
        <ele>1695</ele>
        <time>2021-08-11T09:40:53.437Z</time>
      </trkpt>
      <trkpt lat="46.87952" lon="8.52797">
        <ele>1696</ele>
        <time>2021-08-11T09:40:54.436Z</time>
      </trkpt>
      <trkpt lat="46.87951" lon="8.52796">
        <ele>1696</ele>
        <time>2021-08-11T09:40:55.437Z</time>
      </trkpt>
      <trkpt lat="46.8795" lon="8.52795">
        <ele>1697</ele>
        <time>2021-08-11T09:40:56.437Z</time>
      </trkpt>
      <trkpt lat="46.87948" lon="8.52794">
        <ele>1697</ele>
        <time>2021-08-11T09:40:57.437Z</time>
      </trkpt>
      <trkpt lat="46.87947" lon="8.52793">
        <ele>1698</ele>
        <time>2021-08-11T09:40:58.437Z</time>
      </trkpt>
      <trkpt lat="46.87945" lon="8.52791">
        <ele>1699</ele>
        <time>2021-08-11T09:40:59.436Z</time>
      </trkpt>
      <trkpt lat="46.87944" lon="8.52789">
        <ele>1700</ele>
        <time>2021-08-11T09:41:00.437Z</time>
      </trkpt>
      <trkpt lat="46.87943" lon="8.52788">
        <ele>1701</ele>
        <time>2021-08-11T09:41:01.437Z</time>
      </trkpt>
      <trkpt lat="46.87942" lon="8.52787">
        <ele>1701</ele>
        <time>2021-08-11T09:41:02.437Z</time>
      </trkpt>
      <trkpt lat="46.87941" lon="8.52785">
        <ele>1701</ele>
        <time>2021-08-11T09:41:03.436Z</time>
      </trkpt>
      <trkpt lat="46.8794" lon="8.52784">
        <ele>1701</ele>
        <time>2021-08-11T09:41:04.436Z</time>
      </trkpt>
      <trkpt lat="46.87939" lon="8.52784">
        <ele>1701</ele>
        <time>2021-08-11T09:41:05.437Z</time>
      </trkpt>
      <trkpt lat="46.87938" lon="8.52783">
        <ele>1700</ele>
        <time>2021-08-11T09:41:06.436Z</time>
      </trkpt>
      <trkpt lat="46.87937" lon="8.52783">
        <ele>1700</ele>
        <time>2021-08-11T09:41:07.436Z</time>
      </trkpt>
      <trkpt lat="46.87936" lon="8.52783">
        <ele>1699</ele>
        <time>2021-08-11T09:41:08.436Z</time>
      </trkpt>
      <trkpt lat="46.87936" lon="8.52783">
        <ele>1699</ele>
        <time>2021-08-11T09:41:09.436Z</time>
      </trkpt>
      <trkpt lat="46.87935" lon="8.52783">
        <ele>1698</ele>
        <time>2021-08-11T09:41:10.437Z</time>
      </trkpt>
      <trkpt lat="46.87934" lon="8.52783">
        <ele>1697</ele>
        <time>2021-08-11T09:41:11.437Z</time>
      </trkpt>
      <trkpt lat="46.87933" lon="8.52782">
        <ele>1697</ele>
        <time>2021-08-11T09:41:12.437Z</time>
      </trkpt>
      <trkpt lat="46.87932" lon="8.52782">
        <ele>1696</ele>
        <time>2021-08-11T09:41:13.436Z</time>
      </trkpt>
      <trkpt lat="46.87931" lon="8.52782">
        <ele>1696</ele>
        <time>2021-08-11T09:41:14.436Z</time>
      </trkpt>
      <trkpt lat="46.87931" lon="8.52782">
        <ele>1697</ele>
        <time>2021-08-11T09:41:15.437Z</time>
      </trkpt>
      <trkpt lat="46.8793" lon="8.52783">
        <ele>1697</ele>
        <time>2021-08-11T09:41:16.437Z</time>
      </trkpt>
      <trkpt lat="46.87929" lon="8.52783">
        <ele>1697</ele>
        <time>2021-08-11T09:41:17.437Z</time>
      </trkpt>
      <trkpt lat="46.87927" lon="8.52782">
        <ele>1697</ele>
        <time>2021-08-11T09:41:18.437Z</time>
      </trkpt>
      <trkpt lat="46.87926" lon="8.52782">
        <ele>1696</ele>
        <time>2021-08-11T09:41:19.436Z</time>
      </trkpt>
      <trkpt lat="46.87925" lon="8.52782">
        <ele>1696</ele>
        <time>2021-08-11T09:41:20.437Z</time>
      </trkpt>
      <trkpt lat="46.87925" lon="8.52782">
        <ele>1696</ele>
        <time>2021-08-11T09:41:21.437Z</time>
      </trkpt>
      <trkpt lat="46.87924" lon="8.52782">
        <ele>1696</ele>
        <time>2021-08-11T09:41:22.437Z</time>
      </trkpt>
      <trkpt lat="46.87922" lon="8.52781">
        <ele>1696</ele>
        <time>2021-08-11T09:41:23.437Z</time>
      </trkpt>
      <trkpt lat="46.87922" lon="8.5278">
        <ele>1695</ele>
        <time>2021-08-11T09:41:24.436Z</time>
      </trkpt>
      <trkpt lat="46.87921" lon="8.52779">
        <ele>1695</ele>
        <time>2021-08-11T09:41:25.437Z</time>
      </trkpt>
      <trkpt lat="46.8792" lon="8.52778">
        <ele>1695</ele>
        <time>2021-08-11T09:41:26.437Z</time>
      </trkpt>
      <trkpt lat="46.8792" lon="8.52777">
        <ele>1695</ele>
        <time>2021-08-11T09:41:27.436Z</time>
      </trkpt>
      <trkpt lat="46.87919" lon="8.52776">
        <ele>1695</ele>
        <time>2021-08-11T09:41:28.437Z</time>
      </trkpt>
      <trkpt lat="46.87918" lon="8.52775">
        <ele>1695</ele>
        <time>2021-08-11T09:41:29.437Z</time>
      </trkpt>
      <trkpt lat="46.87917" lon="8.52775">
        <ele>1695</ele>
        <time>2021-08-11T09:41:30.436Z</time>
      </trkpt>
      <trkpt lat="46.87916" lon="8.52774">
        <ele>1696</ele>
        <time>2021-08-11T09:41:31.436Z</time>
      </trkpt>
      <trkpt lat="46.87915" lon="8.52773">
        <ele>1696</ele>
        <time>2021-08-11T09:41:32.436Z</time>
      </trkpt>
      <trkpt lat="46.87915" lon="8.52772">
        <ele>1696</ele>
        <time>2021-08-11T09:41:33.437Z</time>
      </trkpt>
      <trkpt lat="46.87914" lon="8.52772">
        <ele>1696</ele>
        <time>2021-08-11T09:41:34.437Z</time>
      </trkpt>
      <trkpt lat="46.87913" lon="8.52771">
        <ele>1696</ele>
        <time>2021-08-11T09:41:35.437Z</time>
      </trkpt>
      <trkpt lat="46.87912" lon="8.5277">
        <ele>1696</ele>
        <time>2021-08-11T09:41:36.437Z</time>
      </trkpt>
      <trkpt lat="46.87912" lon="8.5277">
        <ele>1696</ele>
        <time>2021-08-11T09:41:37.437Z</time>
      </trkpt>
      <trkpt lat="46.8791" lon="8.52769">
        <ele>1696</ele>
        <time>2021-08-11T09:41:38.437Z</time>
      </trkpt>
      <trkpt lat="46.8791" lon="8.52769">
        <ele>1696</ele>
        <time>2021-08-11T09:41:39.437Z</time>
      </trkpt>
      <trkpt lat="46.87909" lon="8.52769">
        <ele>1696</ele>
        <time>2021-08-11T09:41:40.437Z</time>
      </trkpt>
      <trkpt lat="46.87908" lon="8.52769">
        <ele>1696</ele>
        <time>2021-08-11T09:41:41.437Z</time>
      </trkpt>
      <trkpt lat="46.87907" lon="8.52769">
        <ele>1696</ele>
        <time>2021-08-11T09:41:42.436Z</time>
      </trkpt>
      <trkpt lat="46.87906" lon="8.52769">
        <ele>1696</ele>
        <time>2021-08-11T09:41:43.436Z</time>
      </trkpt>
      <trkpt lat="46.87905" lon="8.52769">
        <ele>1696</ele>
        <time>2021-08-11T09:41:44.437Z</time>
      </trkpt>
      <trkpt lat="46.87904" lon="8.52769">
        <ele>1696</ele>
        <time>2021-08-11T09:41:45.437Z</time>
      </trkpt>
      <trkpt lat="46.87903" lon="8.52769">
        <ele>1696</ele>
        <time>2021-08-11T09:41:46.437Z</time>
      </trkpt>
      <trkpt lat="46.87902" lon="8.52769">
        <ele>1695</ele>
        <time>2021-08-11T09:41:47.436Z</time>
      </trkpt>
      <trkpt lat="46.87901" lon="8.52769">
        <ele>1695</ele>
        <time>2021-08-11T09:41:48.436Z</time>
      </trkpt>
      <trkpt lat="46.87901" lon="8.52769">
        <ele>1695</ele>
        <time>2021-08-11T09:41:49.437Z</time>
      </trkpt>
      <trkpt lat="46.879" lon="8.52769">
        <ele>1695</ele>
        <time>2021-08-11T09:41:50.437Z</time>
      </trkpt>
      <trkpt lat="46.879" lon="8.52768">
        <ele>1695</ele>
        <time>2021-08-11T09:41:51.437Z</time>
      </trkpt>
      <trkpt lat="46.87899" lon="8.52768">
        <ele>1695</ele>
        <time>2021-08-11T09:41:52.437Z</time>
      </trkpt>
      <trkpt lat="46.87898" lon="8.52767">
        <ele>1695</ele>
        <time>2021-08-11T09:41:53.436Z</time>
      </trkpt>
      <trkpt lat="46.87897" lon="8.52766">
        <ele>1695</ele>
        <time>2021-08-11T09:41:54.437Z</time>
      </trkpt>
      <trkpt lat="46.87897" lon="8.52766">
        <ele>1695</ele>
        <time>2021-08-11T09:41:55.437Z</time>
      </trkpt>
      <trkpt lat="46.87896" lon="8.52765">
        <ele>1695</ele>
        <time>2021-08-11T09:41:56.437Z</time>
      </trkpt>
      <trkpt lat="46.87895" lon="8.52765">
        <ele>1695</ele>
        <time>2021-08-11T09:41:57.437Z</time>
      </trkpt>
      <trkpt lat="46.87894" lon="8.52765">
        <ele>1695</ele>
        <time>2021-08-11T09:41:58.436Z</time>
      </trkpt>
      <trkpt lat="46.87894" lon="8.52764">
        <ele>1695</ele>
        <time>2021-08-11T09:41:59.436Z</time>
      </trkpt>
      <trkpt lat="46.87893" lon="8.52763">
        <ele>1696</ele>
        <time>2021-08-11T09:42:00.436Z</time>
      </trkpt>
      <trkpt lat="46.87892" lon="8.52763">
        <ele>1695</ele>
        <time>2021-08-11T09:42:01.437Z</time>
      </trkpt>
      <trkpt lat="46.87892" lon="8.52762">
        <ele>1695</ele>
        <time>2021-08-11T09:42:02.436Z</time>
      </trkpt>
      <trkpt lat="46.87892" lon="8.52762">
        <ele>1695</ele>
        <time>2021-08-11T09:42:03.437Z</time>
      </trkpt>
      <trkpt lat="46.87891" lon="8.52761">
        <ele>1695</ele>
        <time>2021-08-11T09:42:04.437Z</time>
      </trkpt>
      <trkpt lat="46.87891" lon="8.5276">
        <ele>1695</ele>
        <time>2021-08-11T09:42:05.437Z</time>
      </trkpt>
      <trkpt lat="46.8789" lon="8.52759">
        <ele>1694</ele>
        <time>2021-08-11T09:42:06.437Z</time>
      </trkpt>
      <trkpt lat="46.8789" lon="8.52758">
        <ele>1694</ele>
        <time>2021-08-11T09:42:07.436Z</time>
      </trkpt>
      <trkpt lat="46.8789" lon="8.52757">
        <ele>1693</ele>
        <time>2021-08-11T09:42:08.436Z</time>
      </trkpt>
      <trkpt lat="46.87889" lon="8.52756">
        <ele>1693</ele>
        <time>2021-08-11T09:42:09.437Z</time>
      </trkpt>
      <trkpt lat="46.87889" lon="8.52755">
        <ele>1692</ele>
        <time>2021-08-11T09:42:10.437Z</time>
      </trkpt>
      <trkpt lat="46.87888" lon="8.52754">
        <ele>1692</ele>
        <time>2021-08-11T09:42:11.437Z</time>
      </trkpt>
      <trkpt lat="46.87888" lon="8.52753">
        <ele>1692</ele>
        <time>2021-08-11T09:42:12.437Z</time>
      </trkpt>
      <trkpt lat="46.87887" lon="8.52753">
        <ele>1692</ele>
        <time>2021-08-11T09:42:13.436Z</time>
      </trkpt>
      <trkpt lat="46.87886" lon="8.52752">
        <ele>1692</ele>
        <time>2021-08-11T09:42:14.437Z</time>
      </trkpt>
      <trkpt lat="46.87886" lon="8.52751">
        <ele>1692</ele>
        <time>2021-08-11T09:42:15.437Z</time>
      </trkpt>
      <trkpt lat="46.87885" lon="8.5275">
        <ele>1692</ele>
        <time>2021-08-11T09:42:16.437Z</time>
      </trkpt>
      <trkpt lat="46.87884" lon="8.5275">
        <ele>1693</ele>
        <time>2021-08-11T09:42:17.437Z</time>
      </trkpt>
      <trkpt lat="46.87883" lon="8.5275">
        <ele>1693</ele>
        <time>2021-08-11T09:42:18.436Z</time>
      </trkpt>
      <trkpt lat="46.87882" lon="8.52749">
        <ele>1693</ele>
        <time>2021-08-11T09:42:19.437Z</time>
      </trkpt>
      <trkpt lat="46.87881" lon="8.52749">
        <ele>1694</ele>
        <time>2021-08-11T09:42:20.437Z</time>
      </trkpt>
      <trkpt lat="46.8788" lon="8.52749">
        <ele>1694</ele>
        <time>2021-08-11T09:42:21.437Z</time>
      </trkpt>
      <trkpt lat="46.87879" lon="8.52748">
        <ele>1694</ele>
        <time>2021-08-11T09:42:22.437Z</time>
      </trkpt>
      <trkpt lat="46.87878" lon="8.52748">
        <ele>1694</ele>
        <time>2021-08-11T09:42:23.437Z</time>
      </trkpt>
      <trkpt lat="46.87878" lon="8.52747">
        <ele>1694</ele>
        <time>2021-08-11T09:42:24.436Z</time>
      </trkpt>
      <trkpt lat="46.87877" lon="8.52746">
        <ele>1694</ele>
        <time>2021-08-11T09:42:25.437Z</time>
      </trkpt>
      <trkpt lat="46.87876" lon="8.52746">
        <ele>1695</ele>
        <time>2021-08-11T09:42:26.436Z</time>
      </trkpt>
      <trkpt lat="46.87876" lon="8.52745">
        <ele>1695</ele>
        <time>2021-08-11T09:42:27.436Z</time>
      </trkpt>
      <trkpt lat="46.87875" lon="8.52745">
        <ele>1695</ele>
        <time>2021-08-11T09:42:28.436Z</time>
      </trkpt>
      <trkpt lat="46.87874" lon="8.52744">
        <ele>1696</ele>
        <time>2021-08-11T09:42:29.437Z</time>
      </trkpt>
      <trkpt lat="46.87873" lon="8.52744">
        <ele>1696</ele>
        <time>2021-08-11T09:42:30.436Z</time>
      </trkpt>
      <trkpt lat="46.87873" lon="8.52743">
        <ele>1696</ele>
        <time>2021-08-11T09:42:31.437Z</time>
      </trkpt>
      <trkpt lat="46.87872" lon="8.52743">
        <ele>1697</ele>
        <time>2021-08-11T09:42:32.437Z</time>
      </trkpt>
      <trkpt lat="46.87871" lon="8.52742">
        <ele>1697</ele>
        <time>2021-08-11T09:42:33.437Z</time>
      </trkpt>
      <trkpt lat="46.8787" lon="8.52742">
        <ele>1697</ele>
        <time>2021-08-11T09:42:34.437Z</time>
      </trkpt>
      <trkpt lat="46.87869" lon="8.52741">
        <ele>1698</ele>
        <time>2021-08-11T09:42:35.437Z</time>
      </trkpt>
      <trkpt lat="46.87867" lon="8.5274">
        <ele>1698</ele>
        <time>2021-08-11T09:42:36.436Z</time>
      </trkpt>
      <trkpt lat="46.87867" lon="8.52739">
        <ele>1699</ele>
        <time>2021-08-11T09:42:37.437Z</time>
      </trkpt>
      <trkpt lat="46.87866" lon="8.52738">
        <ele>1699</ele>
        <time>2021-08-11T09:42:38.437Z</time>
      </trkpt>
      <trkpt lat="46.87865" lon="8.52737">
        <ele>1699</ele>
        <time>2021-08-11T09:42:39.437Z</time>
      </trkpt>
      <trkpt lat="46.87865" lon="8.52736">
        <ele>1699</ele>
        <time>2021-08-11T09:42:40.436Z</time>
      </trkpt>
      <trkpt lat="46.87864" lon="8.52736">
        <ele>1699</ele>
        <time>2021-08-11T09:42:41.436Z</time>
      </trkpt>
      <trkpt lat="46.87864" lon="8.52735">
        <ele>1699</ele>
        <time>2021-08-11T09:42:42.437Z</time>
      </trkpt>
      <trkpt lat="46.87863" lon="8.52735">
        <ele>1699</ele>
        <time>2021-08-11T09:42:43.436Z</time>
      </trkpt>
      <trkpt lat="46.87862" lon="8.52734">
        <ele>1699</ele>
        <time>2021-08-11T09:42:44.437Z</time>
      </trkpt>
      <trkpt lat="46.87862" lon="8.52734">
        <ele>1699</ele>
        <time>2021-08-11T09:42:45.436Z</time>
      </trkpt>
      <trkpt lat="46.87861" lon="8.52732">
        <ele>1699</ele>
        <time>2021-08-11T09:42:46.437Z</time>
      </trkpt>
      <trkpt lat="46.8786" lon="8.52731">
        <ele>1698</ele>
        <time>2021-08-11T09:42:47.436Z</time>
      </trkpt>
      <trkpt lat="46.87859" lon="8.52731">
        <ele>1698</ele>
        <time>2021-08-11T09:42:48.437Z</time>
      </trkpt>
      <trkpt lat="46.87859" lon="8.52731">
        <ele>1698</ele>
        <time>2021-08-11T09:42:49.436Z</time>
      </trkpt>
      <trkpt lat="46.87858" lon="8.52731">
        <ele>1698</ele>
        <time>2021-08-11T09:42:50.437Z</time>
      </trkpt>
      <trkpt lat="46.87857" lon="8.5273">
        <ele>1697</ele>
        <time>2021-08-11T09:42:51.437Z</time>
      </trkpt>
      <trkpt lat="46.87856" lon="8.52729">
        <ele>1697</ele>
        <time>2021-08-11T09:42:52.437Z</time>
      </trkpt>
      <trkpt lat="46.87855" lon="8.52729">
        <ele>1697</ele>
        <time>2021-08-11T09:42:53.436Z</time>
      </trkpt>
      <trkpt lat="46.87855" lon="8.52729">
        <ele>1697</ele>
        <time>2021-08-11T09:42:54.436Z</time>
      </trkpt>
      <trkpt lat="46.87854" lon="8.52729">
        <ele>1697</ele>
        <time>2021-08-11T09:42:55.437Z</time>
      </trkpt>
      <trkpt lat="46.87853" lon="8.52729">
        <ele>1697</ele>
        <time>2021-08-11T09:42:56.437Z</time>
      </trkpt>
      <trkpt lat="46.87852" lon="8.52729">
        <ele>1697</ele>
        <time>2021-08-11T09:42:57.436Z</time>
      </trkpt>
      <trkpt lat="46.87852" lon="8.52729">
        <ele>1697</ele>
        <time>2021-08-11T09:42:58.437Z</time>
      </trkpt>
      <trkpt lat="46.87851" lon="8.52728">
        <ele>1696</ele>
        <time>2021-08-11T09:42:59.436Z</time>
      </trkpt>
      <trkpt lat="46.8785" lon="8.52727">
        <ele>1696</ele>
        <time>2021-08-11T09:43:00.437Z</time>
      </trkpt>
      <trkpt lat="46.8785" lon="8.52727">
        <ele>1697</ele>
        <time>2021-08-11T09:43:01.437Z</time>
      </trkpt>
      <trkpt lat="46.87849" lon="8.52726">
        <ele>1697</ele>
        <time>2021-08-11T09:43:02.437Z</time>
      </trkpt>
      <trkpt lat="46.87848" lon="8.52726">
        <ele>1697</ele>
        <time>2021-08-11T09:43:03.437Z</time>
      </trkpt>
      <trkpt lat="46.87848" lon="8.52726">
        <ele>1697</ele>
        <time>2021-08-11T09:43:04.437Z</time>
      </trkpt>
      <trkpt lat="46.87847" lon="8.52726">
        <ele>1698</ele>
        <time>2021-08-11T09:43:05.436Z</time>
      </trkpt>
      <trkpt lat="46.87847" lon="8.52725">
        <ele>1698</ele>
        <time>2021-08-11T09:43:06.437Z</time>
      </trkpt>
      <trkpt lat="46.87846" lon="8.52724">
        <ele>1698</ele>
        <time>2021-08-11T09:43:07.437Z</time>
      </trkpt>
      <trkpt lat="46.87846" lon="8.52722">
        <ele>1698</ele>
        <time>2021-08-11T09:43:08.436Z</time>
      </trkpt>
      <trkpt lat="46.87845" lon="8.52721">
        <ele>1698</ele>
        <time>2021-08-11T09:43:09.437Z</time>
      </trkpt>
      <trkpt lat="46.87845" lon="8.5272">
        <ele>1698</ele>
        <time>2021-08-11T09:43:10.437Z</time>
      </trkpt>
      <trkpt lat="46.87844" lon="8.52719">
        <ele>1698</ele>
        <time>2021-08-11T09:43:11.437Z</time>
      </trkpt>
      <trkpt lat="46.87843" lon="8.52718">
        <ele>1698</ele>
        <time>2021-08-11T09:43:12.436Z</time>
      </trkpt>
      <trkpt lat="46.87843" lon="8.52718">
        <ele>1697</ele>
        <time>2021-08-11T09:43:13.436Z</time>
      </trkpt>
      <trkpt lat="46.87843" lon="8.52718">
        <ele>1697</ele>
        <time>2021-08-11T09:43:14.437Z</time>
      </trkpt>
      <trkpt lat="46.87843" lon="8.52718">
        <ele>1697</ele>
        <time>2021-08-11T09:43:15.437Z</time>
      </trkpt>
      <trkpt lat="46.87843" lon="8.52717">
        <ele>1697</ele>
        <time>2021-08-11T09:43:16.437Z</time>
      </trkpt>
      <trkpt lat="46.87843" lon="8.52717">
        <ele>1697</ele>
        <time>2021-08-11T09:43:17.437Z</time>
      </trkpt>
      <trkpt lat="46.87842" lon="8.52716">
        <ele>1697</ele>
        <time>2021-08-11T09:43:18.437Z</time>
      </trkpt>
      <trkpt lat="46.87842" lon="8.52715">
        <ele>1697</ele>
        <time>2021-08-11T09:43:19.437Z</time>
      </trkpt>
      <trkpt lat="46.87841" lon="8.52714">
        <ele>1697</ele>
        <time>2021-08-11T09:43:20.436Z</time>
      </trkpt>
      <trkpt lat="46.8784" lon="8.52713">
        <ele>1697</ele>
        <time>2021-08-11T09:43:21.436Z</time>
      </trkpt>
      <trkpt lat="46.8784" lon="8.52712">
        <ele>1697</ele>
        <time>2021-08-11T09:43:22.437Z</time>
      </trkpt>
      <trkpt lat="46.87839" lon="8.52711">
        <ele>1697</ele>
        <time>2021-08-11T09:43:23.437Z</time>
      </trkpt>
      <trkpt lat="46.87838" lon="8.5271">
        <ele>1696</ele>
        <time>2021-08-11T09:43:24.437Z</time>
      </trkpt>
      <trkpt lat="46.87838" lon="8.52709">
        <ele>1696</ele>
        <time>2021-08-11T09:43:25.437Z</time>
      </trkpt>
      <trkpt lat="46.87837" lon="8.52708">
        <ele>1696</ele>
        <time>2021-08-11T09:43:26.437Z</time>
      </trkpt>
      <trkpt lat="46.87836" lon="8.52707">
        <ele>1696</ele>
        <time>2021-08-11T09:43:27.437Z</time>
      </trkpt>
      <trkpt lat="46.87835" lon="8.52706">
        <ele>1696</ele>
        <time>2021-08-11T09:43:28.437Z</time>
      </trkpt>
      <trkpt lat="46.87835" lon="8.52705">
        <ele>1696</ele>
        <time>2021-08-11T09:43:29.436Z</time>
      </trkpt>
      <trkpt lat="46.87834" lon="8.52704">
        <ele>1696</ele>
        <time>2021-08-11T09:43:30.436Z</time>
      </trkpt>
      <trkpt lat="46.87833" lon="8.52703">
        <ele>1695</ele>
        <time>2021-08-11T09:43:31.437Z</time>
      </trkpt>
      <trkpt lat="46.87832" lon="8.52702">
        <ele>1695</ele>
        <time>2021-08-11T09:43:32.437Z</time>
      </trkpt>
      <trkpt lat="46.87831" lon="8.52702">
        <ele>1695</ele>
        <time>2021-08-11T09:43:33.436Z</time>
      </trkpt>
      <trkpt lat="46.87831" lon="8.52701">
        <ele>1694</ele>
        <time>2021-08-11T09:43:34.437Z</time>
      </trkpt>
      <trkpt lat="46.8783" lon="8.527">
        <ele>1694</ele>
        <time>2021-08-11T09:43:35.437Z</time>
      </trkpt>
      <trkpt lat="46.87829" lon="8.52699">
        <ele>1694</ele>
        <time>2021-08-11T09:43:36.437Z</time>
      </trkpt>
      <trkpt lat="46.87828" lon="8.52698">
        <ele>1694</ele>
        <time>2021-08-11T09:43:37.437Z</time>
      </trkpt>
      <trkpt lat="46.87828" lon="8.52697">
        <ele>1694</ele>
        <time>2021-08-11T09:43:38.437Z</time>
      </trkpt>
      <trkpt lat="46.87827" lon="8.52696">
        <ele>1694</ele>
        <time>2021-08-11T09:43:39.437Z</time>
      </trkpt>
      <trkpt lat="46.87826" lon="8.52695">
        <ele>1694</ele>
        <time>2021-08-11T09:43:40.436Z</time>
      </trkpt>
      <trkpt lat="46.87826" lon="8.52694">
        <ele>1694</ele>
        <time>2021-08-11T09:43:41.437Z</time>
      </trkpt>
      <trkpt lat="46.87825" lon="8.52693">
        <ele>1694</ele>
        <time>2021-08-11T09:43:42.437Z</time>
      </trkpt>
      <trkpt lat="46.87825" lon="8.52692">
        <ele>1693</ele>
        <time>2021-08-11T09:43:43.437Z</time>
      </trkpt>
      <trkpt lat="46.87825" lon="8.52691">
        <ele>1693</ele>
        <time>2021-08-11T09:43:44.436Z</time>
      </trkpt>
      <trkpt lat="46.87824" lon="8.52691">
        <ele>1693</ele>
        <time>2021-08-11T09:43:45.437Z</time>
      </trkpt>
      <trkpt lat="46.87824" lon="8.5269">
        <ele>1693</ele>
        <time>2021-08-11T09:43:46.436Z</time>
      </trkpt>
      <trkpt lat="46.87824" lon="8.5269">
        <ele>1694</ele>
        <time>2021-08-11T09:43:47.437Z</time>
      </trkpt>
      <trkpt lat="46.87824" lon="8.5269">
        <ele>1694</ele>
        <time>2021-08-11T09:43:48.437Z</time>
      </trkpt>
      <trkpt lat="46.87823" lon="8.5269">
        <ele>1694</ele>
        <time>2021-08-11T09:43:49.436Z</time>
      </trkpt>
      <trkpt lat="46.87823" lon="8.5269">
        <ele>1694</ele>
        <time>2021-08-11T09:43:50.438Z</time>
      </trkpt>
      <trkpt lat="46.87823" lon="8.52691">
        <ele>1695</ele>
        <time>2021-08-11T09:43:51.437Z</time>
      </trkpt>
      <trkpt lat="46.87823" lon="8.52692">
        <ele>1694</ele>
        <time>2021-08-11T09:43:52.439Z</time>
      </trkpt>
      <trkpt lat="46.87823" lon="8.52692">
        <ele>1694</ele>
        <time>2021-08-11T09:43:53.438Z</time>
      </trkpt>
      <trkpt lat="46.87822" lon="8.52691">
        <ele>1692</ele>
        <time>2021-08-11T09:43:54.438Z</time>
      </trkpt>
      <trkpt lat="46.87821" lon="8.52691">
        <ele>1692</ele>
        <time>2021-08-11T09:43:55.438Z</time>
      </trkpt>
      <trkpt lat="46.87821" lon="8.5269">
        <ele>1693</ele>
        <time>2021-08-11T09:43:56.438Z</time>
      </trkpt>
      <trkpt lat="46.87821" lon="8.5269">
        <ele>1693</ele>
        <time>2021-08-11T09:43:57.438Z</time>
      </trkpt>
      <trkpt lat="46.8782" lon="8.52689">
        <ele>1693</ele>
        <time>2021-08-11T09:43:58.439Z</time>
      </trkpt>
      <trkpt lat="46.8782" lon="8.52688">
        <ele>1694</ele>
        <time>2021-08-11T09:43:59.439Z</time>
      </trkpt>
      <trkpt lat="46.87819" lon="8.52688">
        <ele>1695</ele>
        <time>2021-08-11T09:44:00.438Z</time>
      </trkpt>
      <trkpt lat="46.87818" lon="8.52687">
        <ele>1695</ele>
        <time>2021-08-11T09:44:01.438Z</time>
      </trkpt>
      <trkpt lat="46.87817" lon="8.52687">
        <ele>1696</ele>
        <time>2021-08-11T09:44:02.438Z</time>
      </trkpt>
      <trkpt lat="46.87817" lon="8.52686">
        <ele>1696</ele>
        <time>2021-08-11T09:44:03.438Z</time>
      </trkpt>
      <trkpt lat="46.87816" lon="8.52686">
        <ele>1697</ele>
        <time>2021-08-11T09:44:04.438Z</time>
      </trkpt>
      <trkpt lat="46.87815" lon="8.52685">
        <ele>1698</ele>
        <time>2021-08-11T09:44:05.438Z</time>
      </trkpt>
      <trkpt lat="46.87814" lon="8.52684">
        <ele>1698</ele>
        <time>2021-08-11T09:44:06.438Z</time>
      </trkpt>
      <trkpt lat="46.87813" lon="8.52684">
        <ele>1698</ele>
        <time>2021-08-11T09:44:07.438Z</time>
      </trkpt>
      <trkpt lat="46.87813" lon="8.52683">
        <ele>1699</ele>
        <time>2021-08-11T09:44:08.439Z</time>
      </trkpt>
      <trkpt lat="46.87812" lon="8.52683">
        <ele>1699</ele>
        <time>2021-08-11T09:44:09.438Z</time>
      </trkpt>
      <trkpt lat="46.87811" lon="8.52682">
        <ele>1698</ele>
        <time>2021-08-11T09:44:10.438Z</time>
      </trkpt>
      <trkpt lat="46.8781" lon="8.52681">
        <ele>1699</ele>
        <time>2021-08-11T09:44:11.438Z</time>
      </trkpt>
      <trkpt lat="46.8781" lon="8.52681">
        <ele>1699</ele>
        <time>2021-08-11T09:44:12.438Z</time>
      </trkpt>
      <trkpt lat="46.87809" lon="8.5268">
        <ele>1699</ele>
        <time>2021-08-11T09:44:13.439Z</time>
      </trkpt>
      <trkpt lat="46.87809" lon="8.5268">
        <ele>1699</ele>
        <time>2021-08-11T09:44:14.438Z</time>
      </trkpt>
      <trkpt lat="46.87809" lon="8.5268">
        <ele>1699</ele>
        <time>2021-08-11T09:44:15.439Z</time>
      </trkpt>
      <trkpt lat="46.87808" lon="8.52679">
        <ele>1699</ele>
        <time>2021-08-11T09:44:16.438Z</time>
      </trkpt>
      <trkpt lat="46.87808" lon="8.52679">
        <ele>1699</ele>
        <time>2021-08-11T09:44:17.438Z</time>
      </trkpt>
      <trkpt lat="46.87808" lon="8.52679">
        <ele>1699</ele>
        <time>2021-08-11T09:44:18.439Z</time>
      </trkpt>
      <trkpt lat="46.87807" lon="8.52679">
        <ele>1699</ele>
        <time>2021-08-11T09:44:19.439Z</time>
      </trkpt>
      <trkpt lat="46.87806" lon="8.52678">
        <ele>1699</ele>
        <time>2021-08-11T09:44:20.438Z</time>
      </trkpt>
      <trkpt lat="46.87805" lon="8.52678">
        <ele>1699</ele>
        <time>2021-08-11T09:44:21.438Z</time>
      </trkpt>
      <trkpt lat="46.87805" lon="8.52678">
        <ele>1699</ele>
        <time>2021-08-11T09:44:22.438Z</time>
      </trkpt>
      <trkpt lat="46.87804" lon="8.52677">
        <ele>1699</ele>
        <time>2021-08-11T09:44:23.438Z</time>
      </trkpt>
      <trkpt lat="46.87804" lon="8.52676">
        <ele>1699</ele>
        <time>2021-08-11T09:44:24.438Z</time>
      </trkpt>
      <trkpt lat="46.87804" lon="8.52675">
        <ele>1699</ele>
        <time>2021-08-11T09:44:25.438Z</time>
      </trkpt>
      <trkpt lat="46.87804" lon="8.52675">
        <ele>1699</ele>
        <time>2021-08-11T09:44:26.439Z</time>
      </trkpt>
      <trkpt lat="46.87803" lon="8.52674">
        <ele>1699</ele>
        <time>2021-08-11T09:44:27.439Z</time>
      </trkpt>
      <trkpt lat="46.87802" lon="8.52674">
        <ele>1699</ele>
        <time>2021-08-11T09:44:28.438Z</time>
      </trkpt>
      <trkpt lat="46.87801" lon="8.52674">
        <ele>1700</ele>
        <time>2021-08-11T09:44:29.439Z</time>
      </trkpt>
      <trkpt lat="46.87801" lon="8.52674">
        <ele>1699</ele>
        <time>2021-08-11T09:44:30.438Z</time>
      </trkpt>
      <trkpt lat="46.878" lon="8.52674">
        <ele>1699</ele>
        <time>2021-08-11T09:44:31.438Z</time>
      </trkpt>
      <trkpt lat="46.878" lon="8.52673">
        <ele>1699</ele>
        <time>2021-08-11T09:44:32.439Z</time>
      </trkpt>
      <trkpt lat="46.87799" lon="8.52673">
        <ele>1699</ele>
        <time>2021-08-11T09:44:33.438Z</time>
      </trkpt>
      <trkpt lat="46.87799" lon="8.52673">
        <ele>1699</ele>
        <time>2021-08-11T09:44:34.438Z</time>
      </trkpt>
      <trkpt lat="46.87799" lon="8.52673">
        <ele>1700</ele>
        <time>2021-08-11T09:44:35.438Z</time>
      </trkpt>
      <trkpt lat="46.87798" lon="8.52672">
        <ele>1701</ele>
        <time>2021-08-11T09:44:36.438Z</time>
      </trkpt>
      <trkpt lat="46.87798" lon="8.52673">
        <ele>1701</ele>
        <time>2021-08-11T09:44:37.438Z</time>
      </trkpt>
      <trkpt lat="46.87798" lon="8.52674">
        <ele>1702</ele>
        <time>2021-08-11T09:44:38.439Z</time>
      </trkpt>
      <trkpt lat="46.87798" lon="8.52675">
        <ele>1702</ele>
        <time>2021-08-11T09:44:39.438Z</time>
      </trkpt>
      <trkpt lat="46.87798" lon="8.52675">
        <ele>1702</ele>
        <time>2021-08-11T09:44:40.439Z</time>
      </trkpt>
      <trkpt lat="46.87797" lon="8.52673">
        <ele>1703</ele>
        <time>2021-08-11T09:44:41.440Z</time>
      </trkpt>
      <trkpt lat="46.87797" lon="8.52673">
        <ele>1703</ele>
        <time>2021-08-11T09:44:42.439Z</time>
      </trkpt>
      <trkpt lat="46.87796" lon="8.52671">
        <ele>1705</ele>
        <time>2021-08-11T09:44:43.439Z</time>
      </trkpt>
      <trkpt lat="46.87795" lon="8.5267">
        <ele>1705</ele>
        <time>2021-08-11T09:44:44.440Z</time>
      </trkpt>
      <trkpt lat="46.87794" lon="8.5267">
        <ele>1706</ele>
        <time>2021-08-11T09:44:45.439Z</time>
      </trkpt>
      <trkpt lat="46.87793" lon="8.52668">
        <ele>1706</ele>
        <time>2021-08-11T09:44:46.440Z</time>
      </trkpt>
      <trkpt lat="46.87792" lon="8.52668">
        <ele>1706</ele>
        <time>2021-08-11T09:44:47.439Z</time>
      </trkpt>
      <trkpt lat="46.87792" lon="8.52667">
        <ele>1706</ele>
        <time>2021-08-11T09:44:48.439Z</time>
      </trkpt>
      <trkpt lat="46.87792" lon="8.52667">
        <ele>1706</ele>
        <time>2021-08-11T09:44:49.440Z</time>
      </trkpt>
      <trkpt lat="46.87791" lon="8.52666">
        <ele>1707</ele>
        <time>2021-08-11T09:44:50.439Z</time>
      </trkpt>
      <trkpt lat="46.87791" lon="8.52666">
        <ele>1706</ele>
        <time>2021-08-11T09:44:51.440Z</time>
      </trkpt>
      <trkpt lat="46.8779" lon="8.52666">
        <ele>1706</ele>
        <time>2021-08-11T09:44:52.440Z</time>
      </trkpt>
      <trkpt lat="46.8779" lon="8.52665">
        <ele>1706</ele>
        <time>2021-08-11T09:44:53.439Z</time>
      </trkpt>
      <trkpt lat="46.8779" lon="8.52665">
        <ele>1705</ele>
        <time>2021-08-11T09:44:54.440Z</time>
      </trkpt>
      <trkpt lat="46.8779" lon="8.52665">
        <ele>1705</ele>
        <time>2021-08-11T09:44:55.440Z</time>
      </trkpt>
      <trkpt lat="46.87789" lon="8.52666">
        <ele>1705</ele>
        <time>2021-08-11T09:44:56.439Z</time>
      </trkpt>
      <trkpt lat="46.87789" lon="8.52665">
        <ele>1705</ele>
        <time>2021-08-11T09:44:57.440Z</time>
      </trkpt>
      <trkpt lat="46.87788" lon="8.52665">
        <ele>1705</ele>
        <time>2021-08-11T09:44:58.440Z</time>
      </trkpt>
      <trkpt lat="46.87787" lon="8.52664">
        <ele>1706</ele>
        <time>2021-08-11T09:44:59.440Z</time>
      </trkpt>
      <trkpt lat="46.87786" lon="8.52663">
        <ele>1706</ele>
        <time>2021-08-11T09:45:00.440Z</time>
      </trkpt>
      <trkpt lat="46.87786" lon="8.52663">
        <ele>1706</ele>
        <time>2021-08-11T09:45:01.440Z</time>
      </trkpt>
      <trkpt lat="46.87785" lon="8.52663">
        <ele>1706</ele>
        <time>2021-08-11T09:45:02.439Z</time>
      </trkpt>
      <trkpt lat="46.87785" lon="8.52662">
        <ele>1707</ele>
        <time>2021-08-11T09:45:03.440Z</time>
      </trkpt>
      <trkpt lat="46.87784" lon="8.52661">
        <ele>1707</ele>
        <time>2021-08-11T09:45:04.440Z</time>
      </trkpt>
      <trkpt lat="46.87784" lon="8.52661">
        <ele>1706</ele>
        <time>2021-08-11T09:45:05.439Z</time>
      </trkpt>
      <trkpt lat="46.87783" lon="8.52661">
        <ele>1706</ele>
        <time>2021-08-11T09:45:06.440Z</time>
      </trkpt>
      <trkpt lat="46.87783" lon="8.5266">
        <ele>1706</ele>
        <time>2021-08-11T09:45:07.440Z</time>
      </trkpt>
      <trkpt lat="46.87783" lon="8.52659">
        <ele>1706</ele>
        <time>2021-08-11T09:45:08.440Z</time>
      </trkpt>
      <trkpt lat="46.87782" lon="8.52658">
        <ele>1706</ele>
        <time>2021-08-11T09:45:09.440Z</time>
      </trkpt>
      <trkpt lat="46.87782" lon="8.52659">
        <ele>1706</ele>
        <time>2021-08-11T09:45:10.440Z</time>
      </trkpt>
      <trkpt lat="46.87782" lon="8.52658">
        <ele>1706</ele>
        <time>2021-08-11T09:45:11.440Z</time>
      </trkpt>
      <trkpt lat="46.87781" lon="8.52658">
        <ele>1706</ele>
        <time>2021-08-11T09:45:12.440Z</time>
      </trkpt>
      <trkpt lat="46.87781" lon="8.52658">
        <ele>1707</ele>
        <time>2021-08-11T09:45:13.440Z</time>
      </trkpt>
      <trkpt lat="46.87781" lon="8.52658">
        <ele>1707</ele>
        <time>2021-08-11T09:45:14.440Z</time>
      </trkpt>
      <trkpt lat="46.8778" lon="8.52658">
        <ele>1708</ele>
        <time>2021-08-11T09:45:15.440Z</time>
      </trkpt>
      <trkpt lat="46.8778" lon="8.52658">
        <ele>1708</ele>
        <time>2021-08-11T09:45:16.440Z</time>
      </trkpt>
      <trkpt lat="46.8778" lon="8.52658">
        <ele>1709</ele>
        <time>2021-08-11T09:45:17.439Z</time>
      </trkpt>
      <trkpt lat="46.87779" lon="8.52657">
        <ele>1708</ele>
        <time>2021-08-11T09:45:18.440Z</time>
      </trkpt>
      <trkpt lat="46.87779" lon="8.52656">
        <ele>1708</ele>
        <time>2021-08-11T09:45:19.439Z</time>
      </trkpt>
      <trkpt lat="46.87779" lon="8.52656">
        <ele>1707</ele>
        <time>2021-08-11T09:45:20.439Z</time>
      </trkpt>
      <trkpt lat="46.87778" lon="8.52656">
        <ele>1707</ele>
        <time>2021-08-11T09:45:21.440Z</time>
      </trkpt>
      <trkpt lat="46.87778" lon="8.52655">
        <ele>1707</ele>
        <time>2021-08-11T09:45:22.439Z</time>
      </trkpt>
      <trkpt lat="46.87777" lon="8.52655">
        <ele>1707</ele>
        <time>2021-08-11T09:45:23.440Z</time>
      </trkpt>
      <trkpt lat="46.87777" lon="8.52655">
        <ele>1706</ele>
        <time>2021-08-11T09:45:24.440Z</time>
      </trkpt>
      <trkpt lat="46.87776" lon="8.52655">
        <ele>1706</ele>
        <time>2021-08-11T09:45:25.439Z</time>
      </trkpt>
      <trkpt lat="46.87776" lon="8.52655">
        <ele>1706</ele>
        <time>2021-08-11T09:45:26.440Z</time>
      </trkpt>
      <trkpt lat="46.87775" lon="8.52655">
        <ele>1706</ele>
        <time>2021-08-11T09:45:27.440Z</time>
      </trkpt>
      <trkpt lat="46.87775" lon="8.52654">
        <ele>1706</ele>
        <time>2021-08-11T09:45:28.439Z</time>
      </trkpt>
      <trkpt lat="46.87775" lon="8.52654">
        <ele>1706</ele>
        <time>2021-08-11T09:45:29.440Z</time>
      </trkpt>
      <trkpt lat="46.87774" lon="8.52654">
        <ele>1707</ele>
        <time>2021-08-11T09:45:30.440Z</time>
      </trkpt>
      <trkpt lat="46.87774" lon="8.52654">
        <ele>1707</ele>
        <time>2021-08-11T09:45:31.440Z</time>
      </trkpt>
      <trkpt lat="46.87773" lon="8.52654">
        <ele>1708</ele>
        <time>2021-08-11T09:45:32.439Z</time>
      </trkpt>
      <trkpt lat="46.87772" lon="8.52654">
        <ele>1708</ele>
        <time>2021-08-11T09:45:33.440Z</time>
      </trkpt>
      <trkpt lat="46.87772" lon="8.52654">
        <ele>1708</ele>
        <time>2021-08-11T09:45:34.440Z</time>
      </trkpt>
      <trkpt lat="46.87771" lon="8.52654">
        <ele>1708</ele>
        <time>2021-08-11T09:45:35.439Z</time>
      </trkpt>
      <trkpt lat="46.87771" lon="8.52654">
        <ele>1708</ele>
        <time>2021-08-11T09:45:36.440Z</time>
      </trkpt>
      <trkpt lat="46.87771" lon="8.52653">
        <ele>1709</ele>
        <time>2021-08-11T09:45:37.440Z</time>
      </trkpt>
      <trkpt lat="46.8777" lon="8.52653">
        <ele>1709</ele>
        <time>2021-08-11T09:45:38.439Z</time>
      </trkpt>
      <trkpt lat="46.8777" lon="8.52652">
        <ele>1710</ele>
        <time>2021-08-11T09:45:39.440Z</time>
      </trkpt>
      <trkpt lat="46.87769" lon="8.52652">
        <ele>1711</ele>
        <time>2021-08-11T09:45:40.440Z</time>
      </trkpt>
      <trkpt lat="46.87769" lon="8.52652">
        <ele>1711</ele>
        <time>2021-08-11T09:45:41.439Z</time>
      </trkpt>
      <trkpt lat="46.87768" lon="8.52652">
        <ele>1711</ele>
        <time>2021-08-11T09:45:42.440Z</time>
      </trkpt>
      <trkpt lat="46.87768" lon="8.52651">
        <ele>1711</ele>
        <time>2021-08-11T09:45:43.440Z</time>
      </trkpt>
      <trkpt lat="46.87767" lon="8.5265">
        <ele>1711</ele>
        <time>2021-08-11T09:45:44.440Z</time>
      </trkpt>
      <trkpt lat="46.87766" lon="8.52649">
        <ele>1711</ele>
        <time>2021-08-11T09:45:45.439Z</time>
      </trkpt>
      <trkpt lat="46.87765" lon="8.52649">
        <ele>1712</ele>
        <time>2021-08-11T09:45:46.439Z</time>
      </trkpt>
      <trkpt lat="46.87764" lon="8.52648">
        <ele>1712</ele>
        <time>2021-08-11T09:45:47.439Z</time>
      </trkpt>
      <trkpt lat="46.87763" lon="8.52647">
        <ele>1712</ele>
        <time>2021-08-11T09:45:48.439Z</time>
      </trkpt>
      <trkpt lat="46.87763" lon="8.52646">
        <ele>1712</ele>
        <time>2021-08-11T09:45:49.439Z</time>
      </trkpt>
      <trkpt lat="46.87762" lon="8.52645">
        <ele>1712</ele>
        <time>2021-08-11T09:45:50.440Z</time>
      </trkpt>
      <trkpt lat="46.87761" lon="8.52644">
        <ele>1712</ele>
        <time>2021-08-11T09:45:51.439Z</time>
      </trkpt>
      <trkpt lat="46.8776" lon="8.52644">
        <ele>1712</ele>
        <time>2021-08-11T09:45:52.440Z</time>
      </trkpt>
      <trkpt lat="46.8776" lon="8.52644">
        <ele>1712</ele>
        <time>2021-08-11T09:45:53.440Z</time>
      </trkpt>
      <trkpt lat="46.87759" lon="8.52645">
        <ele>1712</ele>
        <time>2021-08-11T09:45:54.440Z</time>
      </trkpt>
      <trkpt lat="46.87759" lon="8.52645">
        <ele>1712</ele>
        <time>2021-08-11T09:45:55.440Z</time>
      </trkpt>
      <trkpt lat="46.87758" lon="8.52645">
        <ele>1712</ele>
        <time>2021-08-11T09:45:56.440Z</time>
      </trkpt>
      <trkpt lat="46.87758" lon="8.52645">
        <ele>1713</ele>
        <time>2021-08-11T09:45:57.440Z</time>
      </trkpt>
      <trkpt lat="46.87758" lon="8.52646">
        <ele>1713</ele>
        <time>2021-08-11T09:45:58.440Z</time>
      </trkpt>
      <trkpt lat="46.87757" lon="8.52645">
        <ele>1714</ele>
        <time>2021-08-11T09:45:59.439Z</time>
      </trkpt>
      <trkpt lat="46.87757" lon="8.52645">
        <ele>1715</ele>
        <time>2021-08-11T09:46:00.440Z</time>
      </trkpt>
      <trkpt lat="46.87757" lon="8.52645">
        <ele>1715</ele>
        <time>2021-08-11T09:46:01.439Z</time>
      </trkpt>
      <trkpt lat="46.87756" lon="8.52645">
        <ele>1716</ele>
        <time>2021-08-11T09:46:02.440Z</time>
      </trkpt>
      <trkpt lat="46.87756" lon="8.52645">
        <ele>1716</ele>
        <time>2021-08-11T09:46:03.439Z</time>
      </trkpt>
      <trkpt lat="46.87756" lon="8.52645">
        <ele>1715</ele>
        <time>2021-08-11T09:46:04.440Z</time>
      </trkpt>
      <trkpt lat="46.87755" lon="8.52645">
        <ele>1715</ele>
        <time>2021-08-11T09:46:05.440Z</time>
      </trkpt>
      <trkpt lat="46.87755" lon="8.52645">
        <ele>1715</ele>
        <time>2021-08-11T09:46:06.440Z</time>
      </trkpt>
      <trkpt lat="46.87754" lon="8.52644">
        <ele>1715</ele>
        <time>2021-08-11T09:46:07.440Z</time>
      </trkpt>
      <trkpt lat="46.87754" lon="8.52644">
        <ele>1715</ele>
        <time>2021-08-11T09:46:08.440Z</time>
      </trkpt>
      <trkpt lat="46.87753" lon="8.52644">
        <ele>1716</ele>
        <time>2021-08-11T09:46:09.440Z</time>
      </trkpt>
      <trkpt lat="46.87753" lon="8.52643">
        <ele>1717</ele>
        <time>2021-08-11T09:46:10.439Z</time>
      </trkpt>
      <trkpt lat="46.87752" lon="8.52643">
        <ele>1717</ele>
        <time>2021-08-11T09:46:11.440Z</time>
      </trkpt>
      <trkpt lat="46.87751" lon="8.52642">
        <ele>1717</ele>
        <time>2021-08-11T09:46:12.440Z</time>
      </trkpt>
      <trkpt lat="46.87751" lon="8.52642">
        <ele>1717</ele>
        <time>2021-08-11T09:46:13.440Z</time>
      </trkpt>
      <trkpt lat="46.8775" lon="8.52641">
        <ele>1717</ele>
        <time>2021-08-11T09:46:14.440Z</time>
      </trkpt>
      <trkpt lat="46.8775" lon="8.52641">
        <ele>1717</ele>
        <time>2021-08-11T09:46:15.440Z</time>
      </trkpt>
      <trkpt lat="46.87749" lon="8.52641">
        <ele>1717</ele>
        <time>2021-08-11T09:46:16.440Z</time>
      </trkpt>
      <trkpt lat="46.87749" lon="8.52642">
        <ele>1717</ele>
        <time>2021-08-11T09:46:17.440Z</time>
      </trkpt>
      <trkpt lat="46.87748" lon="8.52642">
        <ele>1718</ele>
        <time>2021-08-11T09:46:18.439Z</time>
      </trkpt>
      <trkpt lat="46.87748" lon="8.52642">
        <ele>1718</ele>
        <time>2021-08-11T09:46:19.439Z</time>
      </trkpt>
      <trkpt lat="46.87748" lon="8.52642">
        <ele>1718</ele>
        <time>2021-08-11T09:46:20.439Z</time>
      </trkpt>
      <trkpt lat="46.87747" lon="8.52642">
        <ele>1719</ele>
        <time>2021-08-11T09:46:21.440Z</time>
      </trkpt>
      <trkpt lat="46.87747" lon="8.52642">
        <ele>1718</ele>
        <time>2021-08-11T09:46:22.440Z</time>
      </trkpt>
      <trkpt lat="46.87746" lon="8.52642">
        <ele>1718</ele>
        <time>2021-08-11T09:46:23.440Z</time>
      </trkpt>
      <trkpt lat="46.87746" lon="8.52642">
        <ele>1718</ele>
        <time>2021-08-11T09:46:24.439Z</time>
      </trkpt>
      <trkpt lat="46.87745" lon="8.52642">
        <ele>1718</ele>
        <time>2021-08-11T09:46:25.440Z</time>
      </trkpt>
      <trkpt lat="46.87745" lon="8.52642">
        <ele>1718</ele>
        <time>2021-08-11T09:46:26.440Z</time>
      </trkpt>
      <trkpt lat="46.87744" lon="8.52642">
        <ele>1718</ele>
        <time>2021-08-11T09:46:27.440Z</time>
      </trkpt>
      <trkpt lat="46.87744" lon="8.52642">
        <ele>1718</ele>
        <time>2021-08-11T09:46:28.439Z</time>
      </trkpt>
      <trkpt lat="46.87743" lon="8.52642">
        <ele>1718</ele>
        <time>2021-08-11T09:46:29.440Z</time>
      </trkpt>
      <trkpt lat="46.87742" lon="8.52642">
        <ele>1719</ele>
        <time>2021-08-11T09:46:30.440Z</time>
      </trkpt>
      <trkpt lat="46.8774" lon="8.52643">
        <ele>1719</ele>
        <time>2021-08-11T09:46:31.440Z</time>
      </trkpt>
      <trkpt lat="46.87739" lon="8.52643">
        <ele>1720</ele>
        <time>2021-08-11T09:46:32.440Z</time>
      </trkpt>
      <trkpt lat="46.87739" lon="8.52644">
        <ele>1721</ele>
        <time>2021-08-11T09:46:33.439Z</time>
      </trkpt>
      <trkpt lat="46.87738" lon="8.52644">
        <ele>1721</ele>
        <time>2021-08-11T09:46:34.440Z</time>
      </trkpt>
      <trkpt lat="46.87737" lon="8.52646">
        <ele>1722</ele>
        <time>2021-08-11T09:46:35.440Z</time>
      </trkpt>
      <trkpt lat="46.87737" lon="8.52647">
        <ele>1723</ele>
        <time>2021-08-11T09:46:36.440Z</time>
      </trkpt>
      <trkpt lat="46.87736" lon="8.52648">
        <ele>1723</ele>
        <time>2021-08-11T09:46:37.439Z</time>
      </trkpt>
      <trkpt lat="46.87735" lon="8.52649">
        <ele>1723</ele>
        <time>2021-08-11T09:46:38.440Z</time>
      </trkpt>
      <trkpt lat="46.87735" lon="8.5265">
        <ele>1722</ele>
        <time>2021-08-11T09:46:39.439Z</time>
      </trkpt>
      <trkpt lat="46.87734" lon="8.52651">
        <ele>1722</ele>
        <time>2021-08-11T09:46:40.439Z</time>
      </trkpt>
      <trkpt lat="46.87733" lon="8.52652">
        <ele>1722</ele>
        <time>2021-08-11T09:46:41.440Z</time>
      </trkpt>
      <trkpt lat="46.87732" lon="8.52653">
        <ele>1722</ele>
        <time>2021-08-11T09:46:42.439Z</time>
      </trkpt>
      <trkpt lat="46.87731" lon="8.52653">
        <ele>1722</ele>
        <time>2021-08-11T09:46:43.440Z</time>
      </trkpt>
      <trkpt lat="46.8773" lon="8.52654">
        <ele>1722</ele>
        <time>2021-08-11T09:46:44.439Z</time>
      </trkpt>
      <trkpt lat="46.87729" lon="8.52654">
        <ele>1722</ele>
        <time>2021-08-11T09:46:45.440Z</time>
      </trkpt>
      <trkpt lat="46.87729" lon="8.52655">
        <ele>1722</ele>
        <time>2021-08-11T09:46:46.440Z</time>
      </trkpt>
      <trkpt lat="46.87728" lon="8.52655">
        <ele>1723</ele>
        <time>2021-08-11T09:46:47.440Z</time>
      </trkpt>
      <trkpt lat="46.87727" lon="8.52656">
        <ele>1723</ele>
        <time>2021-08-11T09:46:48.440Z</time>
      </trkpt>
      <trkpt lat="46.87726" lon="8.52656">
        <ele>1723</ele>
        <time>2021-08-11T09:46:49.439Z</time>
      </trkpt>
      <trkpt lat="46.87725" lon="8.52657">
        <ele>1723</ele>
        <time>2021-08-11T09:46:50.440Z</time>
      </trkpt>
      <trkpt lat="46.87725" lon="8.52658">
        <ele>1722</ele>
        <time>2021-08-11T09:46:51.439Z</time>
      </trkpt>
      <trkpt lat="46.87725" lon="8.52659">
        <ele>1722</ele>
        <time>2021-08-11T09:46:52.440Z</time>
      </trkpt>
      <trkpt lat="46.87724" lon="8.5266">
        <ele>1721</ele>
        <time>2021-08-11T09:46:53.440Z</time>
      </trkpt>
      <trkpt lat="46.87724" lon="8.5266">
        <ele>1720</ele>
        <time>2021-08-11T09:46:54.440Z</time>
      </trkpt>
      <trkpt lat="46.87723" lon="8.5266">
        <ele>1720</ele>
        <time>2021-08-11T09:46:55.439Z</time>
      </trkpt>
      <trkpt lat="46.87722" lon="8.5266">
        <ele>1720</ele>
        <time>2021-08-11T09:46:56.440Z</time>
      </trkpt>
      <trkpt lat="46.87722" lon="8.52659">
        <ele>1721</ele>
        <time>2021-08-11T09:46:57.440Z</time>
      </trkpt>
      <trkpt lat="46.87721" lon="8.52659">
        <ele>1721</ele>
        <time>2021-08-11T09:46:58.440Z</time>
      </trkpt>
      <trkpt lat="46.8772" lon="8.52658">
        <ele>1720</ele>
        <time>2021-08-11T09:46:59.439Z</time>
      </trkpt>
      <trkpt lat="46.8772" lon="8.52657">
        <ele>1720</ele>
        <time>2021-08-11T09:47:00.439Z</time>
      </trkpt>
      <trkpt lat="46.87719" lon="8.52656">
        <ele>1720</ele>
        <time>2021-08-11T09:47:01.440Z</time>
      </trkpt>
      <trkpt lat="46.87718" lon="8.52656">
        <ele>1719</ele>
        <time>2021-08-11T09:47:02.440Z</time>
      </trkpt>
      <trkpt lat="46.87718" lon="8.52655">
        <ele>1719</ele>
        <time>2021-08-11T09:47:03.440Z</time>
      </trkpt>
      <trkpt lat="46.87717" lon="8.52654">
        <ele>1719</ele>
        <time>2021-08-11T09:47:04.439Z</time>
      </trkpt>
      <trkpt lat="46.87717" lon="8.52654">
        <ele>1718</ele>
        <time>2021-08-11T09:47:05.440Z</time>
      </trkpt>
      <trkpt lat="46.87717" lon="8.52654">
        <ele>1718</ele>
        <time>2021-08-11T09:47:06.440Z</time>
      </trkpt>
      <trkpt lat="46.87716" lon="8.52653">
        <ele>1718</ele>
        <time>2021-08-11T09:47:07.440Z</time>
      </trkpt>
      <trkpt lat="46.87716" lon="8.52652">
        <ele>1718</ele>
        <time>2021-08-11T09:47:08.440Z</time>
      </trkpt>
      <trkpt lat="46.87716" lon="8.52652">
        <ele>1719</ele>
        <time>2021-08-11T09:47:09.440Z</time>
      </trkpt>
      <trkpt lat="46.87715" lon="8.52651">
        <ele>1719</ele>
        <time>2021-08-11T09:47:10.439Z</time>
      </trkpt>
      <trkpt lat="46.87715" lon="8.52651">
        <ele>1719</ele>
        <time>2021-08-11T09:47:11.439Z</time>
      </trkpt>
      <trkpt lat="46.87715" lon="8.5265">
        <ele>1719</ele>
        <time>2021-08-11T09:47:12.440Z</time>
      </trkpt>
      <trkpt lat="46.87714" lon="8.5265">
        <ele>1719</ele>
        <time>2021-08-11T09:47:13.439Z</time>
      </trkpt>
      <trkpt lat="46.87714" lon="8.5265">
        <ele>1719</ele>
        <time>2021-08-11T09:47:14.440Z</time>
      </trkpt>
      <trkpt lat="46.87713" lon="8.52649">
        <ele>1720</ele>
        <time>2021-08-11T09:47:15.440Z</time>
      </trkpt>
      <trkpt lat="46.87713" lon="8.52649">
        <ele>1720</ele>
        <time>2021-08-11T09:47:16.440Z</time>
      </trkpt>
      <trkpt lat="46.87712" lon="8.52648">
        <ele>1721</ele>
        <time>2021-08-11T09:47:17.440Z</time>
      </trkpt>
      <trkpt lat="46.87712" lon="8.52647">
        <ele>1721</ele>
        <time>2021-08-11T09:47:18.440Z</time>
      </trkpt>
      <trkpt lat="46.87711" lon="8.52647">
        <ele>1721</ele>
        <time>2021-08-11T09:47:19.439Z</time>
      </trkpt>
      <trkpt lat="46.87711" lon="8.52646">
        <ele>1720</ele>
        <time>2021-08-11T09:47:20.440Z</time>
      </trkpt>
      <trkpt lat="46.8771" lon="8.52646">
        <ele>1720</ele>
        <time>2021-08-11T09:47:21.439Z</time>
      </trkpt>
      <trkpt lat="46.8771" lon="8.52645">
        <ele>1720</ele>
        <time>2021-08-11T09:47:22.440Z</time>
      </trkpt>
      <trkpt lat="46.87709" lon="8.52644">
        <ele>1720</ele>
        <time>2021-08-11T09:47:23.440Z</time>
      </trkpt>
      <trkpt lat="46.87709" lon="8.52642">
        <ele>1721</ele>
        <time>2021-08-11T09:47:24.440Z</time>
      </trkpt>
      <trkpt lat="46.87708" lon="8.52642">
        <ele>1721</ele>
        <time>2021-08-11T09:47:25.440Z</time>
      </trkpt>
      <trkpt lat="46.87708" lon="8.5264">
        <ele>1721</ele>
        <time>2021-08-11T09:47:26.439Z</time>
      </trkpt>
      <trkpt lat="46.87707" lon="8.52639">
        <ele>1721</ele>
        <time>2021-08-11T09:47:27.440Z</time>
      </trkpt>
      <trkpt lat="46.87707" lon="8.52638">
        <ele>1721</ele>
        <time>2021-08-11T09:47:28.440Z</time>
      </trkpt>
      <trkpt lat="46.87707" lon="8.52637">
        <ele>1721</ele>
        <time>2021-08-11T09:47:29.440Z</time>
      </trkpt>
      <trkpt lat="46.87707" lon="8.52636">
        <ele>1721</ele>
        <time>2021-08-11T09:47:30.440Z</time>
      </trkpt>
      <trkpt lat="46.87706" lon="8.52635">
        <ele>1720</ele>
        <time>2021-08-11T09:47:31.440Z</time>
      </trkpt>
      <trkpt lat="46.87706" lon="8.52634">
        <ele>1720</ele>
        <time>2021-08-11T09:47:32.439Z</time>
      </trkpt>
      <trkpt lat="46.87706" lon="8.52634">
        <ele>1720</ele>
        <time>2021-08-11T09:47:33.440Z</time>
      </trkpt>
      <trkpt lat="46.87706" lon="8.52633">
        <ele>1720</ele>
        <time>2021-08-11T09:47:34.440Z</time>
      </trkpt>
      <trkpt lat="46.87706" lon="8.52632">
        <ele>1720</ele>
        <time>2021-08-11T09:47:35.439Z</time>
      </trkpt>
      <trkpt lat="46.87706" lon="8.52632">
        <ele>1720</ele>
        <time>2021-08-11T09:47:36.440Z</time>
      </trkpt>
      <trkpt lat="46.87706" lon="8.52631">
        <ele>1720</ele>
        <time>2021-08-11T09:47:37.440Z</time>
      </trkpt>
      <trkpt lat="46.87706" lon="8.5263">
        <ele>1720</ele>
        <time>2021-08-11T09:47:38.440Z</time>
      </trkpt>
      <trkpt lat="46.87707" lon="8.5263">
        <ele>1720</ele>
        <time>2021-08-11T09:47:39.439Z</time>
      </trkpt>
      <trkpt lat="46.87707" lon="8.52629">
        <ele>1720</ele>
        <time>2021-08-11T09:47:40.439Z</time>
      </trkpt>
      <trkpt lat="46.87707" lon="8.52628">
        <ele>1720</ele>
        <time>2021-08-11T09:47:41.439Z</time>
      </trkpt>
      <trkpt lat="46.87707" lon="8.52627">
        <ele>1720</ele>
        <time>2021-08-11T09:47:42.439Z</time>
      </trkpt>
      <trkpt lat="46.87707" lon="8.52626">
        <ele>1719</ele>
        <time>2021-08-11T09:47:43.440Z</time>
      </trkpt>
      <trkpt lat="46.87707" lon="8.52625">
        <ele>1719</ele>
        <time>2021-08-11T09:47:44.439Z</time>
      </trkpt>
      <trkpt lat="46.87707" lon="8.52624">
        <ele>1719</ele>
        <time>2021-08-11T09:47:45.439Z</time>
      </trkpt>
      <trkpt lat="46.87707" lon="8.52623">
        <ele>1719</ele>
        <time>2021-08-11T09:47:46.439Z</time>
      </trkpt>
      <trkpt lat="46.87707" lon="8.52622">
        <ele>1719</ele>
        <time>2021-08-11T09:47:47.440Z</time>
      </trkpt>
      <trkpt lat="46.87706" lon="8.52621">
        <ele>1719</ele>
        <time>2021-08-11T09:47:48.440Z</time>
      </trkpt>
      <trkpt lat="46.87706" lon="8.5262">
        <ele>1719</ele>
        <time>2021-08-11T09:47:49.439Z</time>
      </trkpt>
      <trkpt lat="46.87706" lon="8.52619">
        <ele>1720</ele>
        <time>2021-08-11T09:47:50.439Z</time>
      </trkpt>
      <trkpt lat="46.87706" lon="8.52617">
        <ele>1720</ele>
        <time>2021-08-11T09:47:51.440Z</time>
      </trkpt>
      <trkpt lat="46.87706" lon="8.52615">
        <ele>1721</ele>
        <time>2021-08-11T09:47:52.440Z</time>
      </trkpt>
      <trkpt lat="46.87706" lon="8.52614">
        <ele>1721</ele>
        <time>2021-08-11T09:47:53.440Z</time>
      </trkpt>
      <trkpt lat="46.87705" lon="8.52612">
        <ele>1721</ele>
        <time>2021-08-11T09:47:54.440Z</time>
      </trkpt>
      <trkpt lat="46.87705" lon="8.52611">
        <ele>1721</ele>
        <time>2021-08-11T09:47:55.439Z</time>
      </trkpt>
      <trkpt lat="46.87705" lon="8.5261">
        <ele>1721</ele>
        <time>2021-08-11T09:47:56.440Z</time>
      </trkpt>
      <trkpt lat="46.87704" lon="8.52609">
        <ele>1722</ele>
        <time>2021-08-11T09:47:57.440Z</time>
      </trkpt>
      <trkpt lat="46.87704" lon="8.52607">
        <ele>1722</ele>
        <time>2021-08-11T09:47:58.440Z</time>
      </trkpt>
      <trkpt lat="46.87704" lon="8.52606">
        <ele>1722</ele>
        <time>2021-08-11T09:47:59.439Z</time>
      </trkpt>
      <trkpt lat="46.87703" lon="8.52604">
        <ele>1722</ele>
        <time>2021-08-11T09:48:00.440Z</time>
      </trkpt>
      <trkpt lat="46.87703" lon="8.52603">
        <ele>1722</ele>
        <time>2021-08-11T09:48:01.440Z</time>
      </trkpt>
      <trkpt lat="46.87703" lon="8.52601">
        <ele>1722</ele>
        <time>2021-08-11T09:48:02.440Z</time>
      </trkpt>
      <trkpt lat="46.87702" lon="8.526">
        <ele>1722</ele>
        <time>2021-08-11T09:48:03.440Z</time>
      </trkpt>
      <trkpt lat="46.87702" lon="8.52599">
        <ele>1722</ele>
        <time>2021-08-11T09:48:04.439Z</time>
      </trkpt>
      <trkpt lat="46.87701" lon="8.52599">
        <ele>1722</ele>
        <time>2021-08-11T09:48:05.439Z</time>
      </trkpt>
      <trkpt lat="46.87701" lon="8.52599">
        <ele>1722</ele>
        <time>2021-08-11T09:48:06.439Z</time>
      </trkpt>
      <trkpt lat="46.877" lon="8.52598">
        <ele>1722</ele>
        <time>2021-08-11T09:48:07.440Z</time>
      </trkpt>
      <trkpt lat="46.877" lon="8.52596">
        <ele>1722</ele>
        <time>2021-08-11T09:48:08.440Z</time>
      </trkpt>
      <trkpt lat="46.87699" lon="8.52595">
        <ele>1722</ele>
        <time>2021-08-11T09:48:09.439Z</time>
      </trkpt>
      <trkpt lat="46.87698" lon="8.52594">
        <ele>1722</ele>
        <time>2021-08-11T09:48:10.439Z</time>
      </trkpt>
      <trkpt lat="46.87698" lon="8.52593">
        <ele>1721</ele>
        <time>2021-08-11T09:48:11.440Z</time>
      </trkpt>
      <trkpt lat="46.87697" lon="8.52592">
        <ele>1721</ele>
        <time>2021-08-11T09:48:12.439Z</time>
      </trkpt>
      <trkpt lat="46.87697" lon="8.5259">
        <ele>1721</ele>
        <time>2021-08-11T09:48:13.440Z</time>
      </trkpt>
      <trkpt lat="46.87697" lon="8.52589">
        <ele>1721</ele>
        <time>2021-08-11T09:48:14.439Z</time>
      </trkpt>
      <trkpt lat="46.87697" lon="8.52588">
        <ele>1721</ele>
        <time>2021-08-11T09:48:15.440Z</time>
      </trkpt>
      <trkpt lat="46.87697" lon="8.52586">
        <ele>1721</ele>
        <time>2021-08-11T09:48:16.440Z</time>
      </trkpt>
      <trkpt lat="46.87696" lon="8.52585">
        <ele>1721</ele>
        <time>2021-08-11T09:48:17.440Z</time>
      </trkpt>
      <trkpt lat="46.87696" lon="8.52584">
        <ele>1721</ele>
        <time>2021-08-11T09:48:18.440Z</time>
      </trkpt>
      <trkpt lat="46.87695" lon="8.52583">
        <ele>1721</ele>
        <time>2021-08-11T09:48:19.440Z</time>
      </trkpt>
      <trkpt lat="46.87695" lon="8.52582">
        <ele>1721</ele>
        <time>2021-08-11T09:48:20.439Z</time>
      </trkpt>
      <trkpt lat="46.87694" lon="8.52581">
        <ele>1721</ele>
        <time>2021-08-11T09:48:21.439Z</time>
      </trkpt>
      <trkpt lat="46.87694" lon="8.5258">
        <ele>1722</ele>
        <time>2021-08-11T09:48:22.440Z</time>
      </trkpt>
      <trkpt lat="46.87693" lon="8.52579">
        <ele>1722</ele>
        <time>2021-08-11T09:48:23.440Z</time>
      </trkpt>
      <trkpt lat="46.87693" lon="8.52578">
        <ele>1722</ele>
        <time>2021-08-11T09:48:24.440Z</time>
      </trkpt>
      <trkpt lat="46.87693" lon="8.52576">
        <ele>1722</ele>
        <time>2021-08-11T09:48:25.439Z</time>
      </trkpt>
      <trkpt lat="46.87694" lon="8.52575">
        <ele>1721</ele>
        <time>2021-08-11T09:48:26.440Z</time>
      </trkpt>
      <trkpt lat="46.87694" lon="8.52574">
        <ele>1721</ele>
        <time>2021-08-11T09:48:27.439Z</time>
      </trkpt>
      <trkpt lat="46.87694" lon="8.52573">
        <ele>1721</ele>
        <time>2021-08-11T09:48:28.440Z</time>
      </trkpt>
      <trkpt lat="46.87694" lon="8.52572">
        <ele>1721</ele>
        <time>2021-08-11T09:48:29.439Z</time>
      </trkpt>
      <trkpt lat="46.87694" lon="8.52571">
        <ele>1721</ele>
        <time>2021-08-11T09:48:30.440Z</time>
      </trkpt>
      <trkpt lat="46.87695" lon="8.52569">
        <ele>1720</ele>
        <time>2021-08-11T09:48:31.440Z</time>
      </trkpt>
      <trkpt lat="46.87695" lon="8.52568">
        <ele>1720</ele>
        <time>2021-08-11T09:48:32.440Z</time>
      </trkpt>
      <trkpt lat="46.87695" lon="8.52567">
        <ele>1719</ele>
        <time>2021-08-11T09:48:33.440Z</time>
      </trkpt>
      <trkpt lat="46.87695" lon="8.52565">
        <ele>1719</ele>
        <time>2021-08-11T09:48:34.440Z</time>
      </trkpt>
      <trkpt lat="46.87695" lon="8.52563">
        <ele>1718</ele>
        <time>2021-08-11T09:48:35.440Z</time>
      </trkpt>
      <trkpt lat="46.87695" lon="8.52562">
        <ele>1717</ele>
        <time>2021-08-11T09:48:36.440Z</time>
      </trkpt>
      <trkpt lat="46.87695" lon="8.5256">
        <ele>1717</ele>
        <time>2021-08-11T09:48:37.439Z</time>
      </trkpt>
      <trkpt lat="46.87694" lon="8.52559">
        <ele>1716</ele>
        <time>2021-08-11T09:48:38.439Z</time>
      </trkpt>
      <trkpt lat="46.87694" lon="8.52557">
        <ele>1716</ele>
        <time>2021-08-11T09:48:39.439Z</time>
      </trkpt>
      <trkpt lat="46.87693" lon="8.52555">
        <ele>1716</ele>
        <time>2021-08-11T09:48:40.439Z</time>
      </trkpt>
      <trkpt lat="46.87693" lon="8.52554">
        <ele>1715</ele>
        <time>2021-08-11T09:48:41.440Z</time>
      </trkpt>
      <trkpt lat="46.87693" lon="8.52552">
        <ele>1715</ele>
        <time>2021-08-11T09:48:42.440Z</time>
      </trkpt>
      <trkpt lat="46.87693" lon="8.52551">
        <ele>1715</ele>
        <time>2021-08-11T09:48:43.440Z</time>
      </trkpt>
      <trkpt lat="46.87692" lon="8.5255">
        <ele>1715</ele>
        <time>2021-08-11T09:48:44.439Z</time>
      </trkpt>
      <trkpt lat="46.87692" lon="8.52549">
        <ele>1714</ele>
        <time>2021-08-11T09:48:45.440Z</time>
      </trkpt>
      <trkpt lat="46.87691" lon="8.52547">
        <ele>1714</ele>
        <time>2021-08-11T09:48:46.440Z</time>
      </trkpt>
      <trkpt lat="46.87691" lon="8.52546">
        <ele>1714</ele>
        <time>2021-08-11T09:48:47.440Z</time>
      </trkpt>
      <trkpt lat="46.87691" lon="8.52545">
        <ele>1713</ele>
        <time>2021-08-11T09:48:48.440Z</time>
      </trkpt>
      <trkpt lat="46.8769" lon="8.52543">
        <ele>1713</ele>
        <time>2021-08-11T09:48:49.439Z</time>
      </trkpt>
      <trkpt lat="46.8769" lon="8.52542">
        <ele>1713</ele>
        <time>2021-08-11T09:48:50.439Z</time>
      </trkpt>
      <trkpt lat="46.87689" lon="8.52541">
        <ele>1712</ele>
        <time>2021-08-11T09:48:51.440Z</time>
      </trkpt>
      <trkpt lat="46.87688" lon="8.5254">
        <ele>1712</ele>
        <time>2021-08-11T09:48:52.440Z</time>
      </trkpt>
      <trkpt lat="46.87688" lon="8.5254">
        <ele>1712</ele>
        <time>2021-08-11T09:48:53.440Z</time>
      </trkpt>
      <trkpt lat="46.87687" lon="8.52539">
        <ele>1712</ele>
        <time>2021-08-11T09:48:54.440Z</time>
      </trkpt>
      <trkpt lat="46.87686" lon="8.52538">
        <ele>1713</ele>
        <time>2021-08-11T09:48:55.440Z</time>
      </trkpt>
      <trkpt lat="46.87686" lon="8.52537">
        <ele>1713</ele>
        <time>2021-08-11T09:48:56.440Z</time>
      </trkpt>
      <trkpt lat="46.87685" lon="8.52537">
        <ele>1714</ele>
        <time>2021-08-11T09:48:57.439Z</time>
      </trkpt>
      <trkpt lat="46.87684" lon="8.52536">
        <ele>1714</ele>
        <time>2021-08-11T09:48:58.440Z</time>
      </trkpt>
      <trkpt lat="46.87684" lon="8.52535">
        <ele>1714</ele>
        <time>2021-08-11T09:48:59.440Z</time>
      </trkpt>
      <trkpt lat="46.87683" lon="8.52534">
        <ele>1714</ele>
        <time>2021-08-11T09:49:00.440Z</time>
      </trkpt>
      <trkpt lat="46.87683" lon="8.52533">
        <ele>1713</ele>
        <time>2021-08-11T09:49:01.440Z</time>
      </trkpt>
      <trkpt lat="46.87683" lon="8.52532">
        <ele>1713</ele>
        <time>2021-08-11T09:49:02.440Z</time>
      </trkpt>
      <trkpt lat="46.87682" lon="8.5253">
        <ele>1713</ele>
        <time>2021-08-11T09:49:03.440Z</time>
      </trkpt>
      <trkpt lat="46.87682" lon="8.5253">
        <ele>1713</ele>
        <time>2021-08-11T09:49:04.440Z</time>
      </trkpt>
      <trkpt lat="46.87682" lon="8.52529">
        <ele>1713</ele>
        <time>2021-08-11T09:49:05.440Z</time>
      </trkpt>
      <trkpt lat="46.87681" lon="8.52527">
        <ele>1713</ele>
        <time>2021-08-11T09:49:06.439Z</time>
      </trkpt>
      <trkpt lat="46.8768" lon="8.52526">
        <ele>1713</ele>
        <time>2021-08-11T09:49:07.439Z</time>
      </trkpt>
      <trkpt lat="46.8768" lon="8.52525">
        <ele>1713</ele>
        <time>2021-08-11T09:49:08.440Z</time>
      </trkpt>
      <trkpt lat="46.87679" lon="8.52524">
        <ele>1713</ele>
        <time>2021-08-11T09:49:09.440Z</time>
      </trkpt>
      <trkpt lat="46.87679" lon="8.52523">
        <ele>1714</ele>
        <time>2021-08-11T09:49:10.439Z</time>
      </trkpt>
      <trkpt lat="46.87678" lon="8.52522">
        <ele>1713</ele>
        <time>2021-08-11T09:49:11.440Z</time>
      </trkpt>
      <trkpt lat="46.87678" lon="8.5252">
        <ele>1713</ele>
        <time>2021-08-11T09:49:12.439Z</time>
      </trkpt>
      <trkpt lat="46.87677" lon="8.52519">
        <ele>1713</ele>
        <time>2021-08-11T09:49:13.440Z</time>
      </trkpt>
      <trkpt lat="46.87677" lon="8.52519">
        <ele>1713</ele>
        <time>2021-08-11T09:49:14.439Z</time>
      </trkpt>
      <trkpt lat="46.87676" lon="8.52518">
        <ele>1713</ele>
        <time>2021-08-11T09:49:15.439Z</time>
      </trkpt>
      <trkpt lat="46.87676" lon="8.52517">
        <ele>1714</ele>
        <time>2021-08-11T09:49:16.440Z</time>
      </trkpt>
      <trkpt lat="46.87676" lon="8.52517">
        <ele>1713</ele>
        <time>2021-08-11T09:49:17.440Z</time>
      </trkpt>
      <trkpt lat="46.87675" lon="8.52516">
        <ele>1713</ele>
        <time>2021-08-11T09:49:18.440Z</time>
      </trkpt>
      <trkpt lat="46.87674" lon="8.52516">
        <ele>1713</ele>
        <time>2021-08-11T09:49:19.440Z</time>
      </trkpt>
      <trkpt lat="46.87674" lon="8.52515">
        <ele>1713</ele>
        <time>2021-08-11T09:49:20.439Z</time>
      </trkpt>
      <trkpt lat="46.87674" lon="8.52514">
        <ele>1712</ele>
        <time>2021-08-11T09:49:21.440Z</time>
      </trkpt>
      <trkpt lat="46.87673" lon="8.52514">
        <ele>1712</ele>
        <time>2021-08-11T09:49:22.440Z</time>
      </trkpt>
      <trkpt lat="46.87672" lon="8.52513">
        <ele>1712</ele>
        <time>2021-08-11T09:49:23.439Z</time>
      </trkpt>
      <trkpt lat="46.87672" lon="8.52512">
        <ele>1712</ele>
        <time>2021-08-11T09:49:24.439Z</time>
      </trkpt>
      <trkpt lat="46.87671" lon="8.52512">
        <ele>1712</ele>
        <time>2021-08-11T09:49:25.439Z</time>
      </trkpt>
      <trkpt lat="46.87671" lon="8.52511">
        <ele>1712</ele>
        <time>2021-08-11T09:49:26.440Z</time>
      </trkpt>
      <trkpt lat="46.87671" lon="8.5251">
        <ele>1712</ele>
        <time>2021-08-11T09:49:27.440Z</time>
      </trkpt>
      <trkpt lat="46.8767" lon="8.52509">
        <ele>1713</ele>
        <time>2021-08-11T09:49:28.439Z</time>
      </trkpt>
      <trkpt lat="46.8767" lon="8.52508">
        <ele>1714</ele>
        <time>2021-08-11T09:49:29.440Z</time>
      </trkpt>
      <trkpt lat="46.87669" lon="8.52507">
        <ele>1714</ele>
        <time>2021-08-11T09:49:30.440Z</time>
      </trkpt>
      <trkpt lat="46.87669" lon="8.52507">
        <ele>1715</ele>
        <time>2021-08-11T09:49:31.439Z</time>
      </trkpt>
      <trkpt lat="46.87668" lon="8.52506">
        <ele>1715</ele>
        <time>2021-08-11T09:49:32.440Z</time>
      </trkpt>
      <trkpt lat="46.87668" lon="8.52506">
        <ele>1715</ele>
        <time>2021-08-11T09:49:33.440Z</time>
      </trkpt>
      <trkpt lat="46.87668" lon="8.52505">
        <ele>1715</ele>
        <time>2021-08-11T09:49:34.440Z</time>
      </trkpt>
      <trkpt lat="46.87667" lon="8.52504">
        <ele>1716</ele>
        <time>2021-08-11T09:49:35.440Z</time>
      </trkpt>
      <trkpt lat="46.87667" lon="8.52503">
        <ele>1715</ele>
        <time>2021-08-11T09:49:36.439Z</time>
      </trkpt>
      <trkpt lat="46.87666" lon="8.52502">
        <ele>1715</ele>
        <time>2021-08-11T09:49:37.440Z</time>
      </trkpt>
      <trkpt lat="46.87665" lon="8.52501">
        <ele>1715</ele>
        <time>2021-08-11T09:49:38.440Z</time>
      </trkpt>
      <trkpt lat="46.87665" lon="8.52499">
        <ele>1715</ele>
        <time>2021-08-11T09:49:39.440Z</time>
      </trkpt>
      <trkpt lat="46.87665" lon="8.52498">
        <ele>1715</ele>
        <time>2021-08-11T09:49:40.439Z</time>
      </trkpt>
      <trkpt lat="46.87664" lon="8.52497">
        <ele>1716</ele>
        <time>2021-08-11T09:49:41.439Z</time>
      </trkpt>
      <trkpt lat="46.87663" lon="8.52496">
        <ele>1716</ele>
        <time>2021-08-11T09:49:42.440Z</time>
      </trkpt>
      <trkpt lat="46.87662" lon="8.52494">
        <ele>1716</ele>
        <time>2021-08-11T09:49:43.440Z</time>
      </trkpt>
      <trkpt lat="46.87662" lon="8.52493">
        <ele>1717</ele>
        <time>2021-08-11T09:49:44.440Z</time>
      </trkpt>
      <trkpt lat="46.87661" lon="8.52492">
        <ele>1716</ele>
        <time>2021-08-11T09:49:45.439Z</time>
      </trkpt>
      <trkpt lat="46.87661" lon="8.52491">
        <ele>1716</ele>
        <time>2021-08-11T09:49:46.440Z</time>
      </trkpt>
      <trkpt lat="46.8766" lon="8.5249">
        <ele>1715</ele>
        <time>2021-08-11T09:49:47.440Z</time>
      </trkpt>
      <trkpt lat="46.87659" lon="8.52489">
        <ele>1715</ele>
        <time>2021-08-11T09:49:48.440Z</time>
      </trkpt>
      <trkpt lat="46.87658" lon="8.52488">
        <ele>1715</ele>
        <time>2021-08-11T09:49:49.439Z</time>
      </trkpt>
      <trkpt lat="46.87658" lon="8.52487">
        <ele>1714</ele>
        <time>2021-08-11T09:49:50.440Z</time>
      </trkpt>
      <trkpt lat="46.87657" lon="8.52486">
        <ele>1714</ele>
        <time>2021-08-11T09:49:51.439Z</time>
      </trkpt>
      <trkpt lat="46.87657" lon="8.52485">
        <ele>1715</ele>
        <time>2021-08-11T09:49:52.440Z</time>
      </trkpt>
      <trkpt lat="46.87656" lon="8.52485">
        <ele>1715</ele>
        <time>2021-08-11T09:49:53.440Z</time>
      </trkpt>
      <trkpt lat="46.87655" lon="8.52484">
        <ele>1716</ele>
        <time>2021-08-11T09:49:54.440Z</time>
      </trkpt>
      <trkpt lat="46.87654" lon="8.52483">
        <ele>1716</ele>
        <time>2021-08-11T09:49:55.440Z</time>
      </trkpt>
      <trkpt lat="46.87654" lon="8.52483">
        <ele>1717</ele>
        <time>2021-08-11T09:49:56.439Z</time>
      </trkpt>
      <trkpt lat="46.87653" lon="8.52482">
        <ele>1717</ele>
        <time>2021-08-11T09:49:57.440Z</time>
      </trkpt>
      <trkpt lat="46.87652" lon="8.52481">
        <ele>1717</ele>
        <time>2021-08-11T09:49:58.440Z</time>
      </trkpt>
      <trkpt lat="46.87651" lon="8.52481">
        <ele>1717</ele>
        <time>2021-08-11T09:49:59.440Z</time>
      </trkpt>
      <trkpt lat="46.87651" lon="8.5248">
        <ele>1717</ele>
        <time>2021-08-11T09:50:00.440Z</time>
      </trkpt>
      <trkpt lat="46.8765" lon="8.52479">
        <ele>1716</ele>
        <time>2021-08-11T09:50:01.439Z</time>
      </trkpt>
      <trkpt lat="46.87649" lon="8.52479">
        <ele>1716</ele>
        <time>2021-08-11T09:50:02.440Z</time>
      </trkpt>
      <trkpt lat="46.87649" lon="8.52478">
        <ele>1716</ele>
        <time>2021-08-11T09:50:03.440Z</time>
      </trkpt>
      <trkpt lat="46.87648" lon="8.52477">
        <ele>1716</ele>
        <time>2021-08-11T09:50:04.440Z</time>
      </trkpt>
      <trkpt lat="46.87647" lon="8.52476">
        <ele>1716</ele>
        <time>2021-08-11T09:50:05.440Z</time>
      </trkpt>
      <trkpt lat="46.87646" lon="8.52476">
        <ele>1717</ele>
        <time>2021-08-11T09:50:06.439Z</time>
      </trkpt>
      <trkpt lat="46.87645" lon="8.52475">
        <ele>1716</ele>
        <time>2021-08-11T09:50:07.439Z</time>
      </trkpt>
      <trkpt lat="46.87645" lon="8.52475">
        <ele>1716</ele>
        <time>2021-08-11T09:50:08.439Z</time>
      </trkpt>
      <trkpt lat="46.87644" lon="8.52475">
        <ele>1716</ele>
        <time>2021-08-11T09:50:09.440Z</time>
      </trkpt>
      <trkpt lat="46.87643" lon="8.52474">
        <ele>1716</ele>
        <time>2021-08-11T09:50:10.440Z</time>
      </trkpt>
      <trkpt lat="46.87642" lon="8.52473">
        <ele>1715</ele>
        <time>2021-08-11T09:50:11.440Z</time>
      </trkpt>
      <trkpt lat="46.87641" lon="8.52473">
        <ele>1715</ele>
        <time>2021-08-11T09:50:12.440Z</time>
      </trkpt>
      <trkpt lat="46.8764" lon="8.52473">
        <ele>1715</ele>
        <time>2021-08-11T09:50:13.439Z</time>
      </trkpt>
      <trkpt lat="46.8764" lon="8.52472">
        <ele>1714</ele>
        <time>2021-08-11T09:50:14.440Z</time>
      </trkpt>
      <trkpt lat="46.87639" lon="8.52471">
        <ele>1714</ele>
        <time>2021-08-11T09:50:15.440Z</time>
      </trkpt>
      <trkpt lat="46.87638" lon="8.52471">
        <ele>1714</ele>
        <time>2021-08-11T09:50:16.440Z</time>
      </trkpt>
      <trkpt lat="46.87637" lon="8.5247">
        <ele>1714</ele>
        <time>2021-08-11T09:50:17.440Z</time>
      </trkpt>
      <trkpt lat="46.87636" lon="8.5247">
        <ele>1714</ele>
        <time>2021-08-11T09:50:18.440Z</time>
      </trkpt>
      <trkpt lat="46.87636" lon="8.5247">
        <ele>1715</ele>
        <time>2021-08-11T09:50:19.439Z</time>
      </trkpt>
      <trkpt lat="46.87635" lon="8.52469">
        <ele>1716</ele>
        <time>2021-08-11T09:50:20.440Z</time>
      </trkpt>
      <trkpt lat="46.87634" lon="8.52469">
        <ele>1716</ele>
        <time>2021-08-11T09:50:21.439Z</time>
      </trkpt>
      <trkpt lat="46.87633" lon="8.52468">
        <ele>1717</ele>
        <time>2021-08-11T09:50:22.440Z</time>
      </trkpt>
      <trkpt lat="46.87633" lon="8.52468">
        <ele>1717</ele>
        <time>2021-08-11T09:50:23.439Z</time>
      </trkpt>
      <trkpt lat="46.87633" lon="8.52468">
        <ele>1717</ele>
        <time>2021-08-11T09:50:24.439Z</time>
      </trkpt>
      <trkpt lat="46.87633" lon="8.52469">
        <ele>1717</ele>
        <time>2021-08-11T09:50:25.440Z</time>
      </trkpt>
      <trkpt lat="46.87634" lon="8.52469">
        <ele>1717</ele>
        <time>2021-08-11T09:50:26.440Z</time>
      </trkpt>
      <trkpt lat="46.87633" lon="8.52468">
        <ele>1717</ele>
        <time>2021-08-11T09:50:27.441Z</time>
      </trkpt>
      <trkpt lat="46.87632" lon="8.52468">
        <ele>1718</ele>
        <time>2021-08-11T09:50:28.440Z</time>
      </trkpt>
      <trkpt lat="46.87631" lon="8.52467">
        <ele>1718</ele>
        <time>2021-08-11T09:50:29.440Z</time>
      </trkpt>
      <trkpt lat="46.8763" lon="8.52468">
        <ele>1718</ele>
        <time>2021-08-11T09:50:30.441Z</time>
      </trkpt>
      <trkpt lat="46.87629" lon="8.52467">
        <ele>1718</ele>
        <time>2021-08-11T09:50:31.440Z</time>
      </trkpt>
      <trkpt lat="46.87628" lon="8.52466">
        <ele>1718</ele>
        <time>2021-08-11T09:50:32.441Z</time>
      </trkpt>
      <trkpt lat="46.87627" lon="8.52466">
        <ele>1718</ele>
        <time>2021-08-11T09:50:33.441Z</time>
      </trkpt>
      <trkpt lat="46.87626" lon="8.52465">
        <ele>1718</ele>
        <time>2021-08-11T09:50:34.440Z</time>
      </trkpt>
      <trkpt lat="46.87624" lon="8.52465">
        <ele>1718</ele>
        <time>2021-08-11T09:50:35.441Z</time>
      </trkpt>
      <trkpt lat="46.87623" lon="8.52466">
        <ele>1717</ele>
        <time>2021-08-11T09:50:36.441Z</time>
      </trkpt>
      <trkpt lat="46.87622" lon="8.52466">
        <ele>1717</ele>
        <time>2021-08-11T09:50:37.441Z</time>
      </trkpt>
      <trkpt lat="46.87621" lon="8.52466">
        <ele>1717</ele>
        <time>2021-08-11T09:50:38.441Z</time>
      </trkpt>
      <trkpt lat="46.8762" lon="8.52466">
        <ele>1717</ele>
        <time>2021-08-11T09:50:39.440Z</time>
      </trkpt>
      <trkpt lat="46.87619" lon="8.52467">
        <ele>1716</ele>
        <time>2021-08-11T09:50:40.441Z</time>
      </trkpt>
      <trkpt lat="46.87618" lon="8.52467">
        <ele>1716</ele>
        <time>2021-08-11T09:50:41.441Z</time>
      </trkpt>
      <trkpt lat="46.87617" lon="8.52467">
        <ele>1715</ele>
        <time>2021-08-11T09:50:42.441Z</time>
      </trkpt>
      <trkpt lat="46.87616" lon="8.52467">
        <ele>1715</ele>
        <time>2021-08-11T09:50:43.440Z</time>
      </trkpt>
      <trkpt lat="46.87616" lon="8.52468">
        <ele>1715</ele>
        <time>2021-08-11T09:50:44.441Z</time>
      </trkpt>
      <trkpt lat="46.87615" lon="8.52468">
        <ele>1715</ele>
        <time>2021-08-11T09:50:45.441Z</time>
      </trkpt>
      <trkpt lat="46.87614" lon="8.52469">
        <ele>1714</ele>
        <time>2021-08-11T09:50:46.441Z</time>
      </trkpt>
      <trkpt lat="46.87614" lon="8.5247">
        <ele>1714</ele>
        <time>2021-08-11T09:50:47.441Z</time>
      </trkpt>
      <trkpt lat="46.87613" lon="8.52471">
        <ele>1713</ele>
        <time>2021-08-11T09:50:48.440Z</time>
      </trkpt>
      <trkpt lat="46.87612" lon="8.52472">
        <ele>1713</ele>
        <time>2021-08-11T09:50:49.441Z</time>
      </trkpt>
      <trkpt lat="46.87612" lon="8.52473">
        <ele>1713</ele>
        <time>2021-08-11T09:50:50.441Z</time>
      </trkpt>
      <trkpt lat="46.87611" lon="8.52474">
        <ele>1713</ele>
        <time>2021-08-11T09:50:51.440Z</time>
      </trkpt>
      <trkpt lat="46.87611" lon="8.52475">
        <ele>1713</ele>
        <time>2021-08-11T09:50:52.441Z</time>
      </trkpt>
      <trkpt lat="46.8761" lon="8.52476">
        <ele>1713</ele>
        <time>2021-08-11T09:50:53.441Z</time>
      </trkpt>
      <trkpt lat="46.87609" lon="8.52476">
        <ele>1713</ele>
        <time>2021-08-11T09:50:54.441Z</time>
      </trkpt>
      <trkpt lat="46.87609" lon="8.52475">
        <ele>1713</ele>
        <time>2021-08-11T09:50:55.441Z</time>
      </trkpt>
      <trkpt lat="46.87609" lon="8.52475">
        <ele>1713</ele>
        <time>2021-08-11T09:50:56.440Z</time>
      </trkpt>
      <trkpt lat="46.87609" lon="8.52475">
        <ele>1713</ele>
        <time>2021-08-11T09:50:57.441Z</time>
      </trkpt>
      <trkpt lat="46.87608" lon="8.52475">
        <ele>1713</ele>
        <time>2021-08-11T09:50:58.441Z</time>
      </trkpt>
      <trkpt lat="46.87608" lon="8.52475">
        <ele>1713</ele>
        <time>2021-08-11T09:50:59.441Z</time>
      </trkpt>
      <trkpt lat="46.87608" lon="8.52475">
        <ele>1713</ele>
        <time>2021-08-11T09:51:00.441Z</time>
      </trkpt>
      <trkpt lat="46.87607" lon="8.52476">
        <ele>1712</ele>
        <time>2021-08-11T09:51:01.441Z</time>
      </trkpt>
      <trkpt lat="46.87607" lon="8.52475">
        <ele>1711</ele>
        <time>2021-08-11T09:51:02.440Z</time>
      </trkpt>
      <trkpt lat="46.87606" lon="8.52475">
        <ele>1711</ele>
        <time>2021-08-11T09:51:03.441Z</time>
      </trkpt>
      <trkpt lat="46.87606" lon="8.52475">
        <ele>1711</ele>
        <time>2021-08-11T09:51:04.441Z</time>
      </trkpt>
      <trkpt lat="46.87606" lon="8.52474">
        <ele>1711</ele>
        <time>2021-08-11T09:51:05.440Z</time>
      </trkpt>
      <trkpt lat="46.87606" lon="8.52473">
        <ele>1710</ele>
        <time>2021-08-11T09:51:06.441Z</time>
      </trkpt>
      <trkpt lat="46.87606" lon="8.52472">
        <ele>1710</ele>
        <time>2021-08-11T09:51:07.441Z</time>
      </trkpt>
      <trkpt lat="46.87606" lon="8.52471">
        <ele>1710</ele>
        <time>2021-08-11T09:51:08.441Z</time>
      </trkpt>
      <trkpt lat="46.87606" lon="8.5247">
        <ele>1710</ele>
        <time>2021-08-11T09:51:09.441Z</time>
      </trkpt>
      <trkpt lat="46.87605" lon="8.52469">
        <ele>1711</ele>
        <time>2021-08-11T09:51:10.440Z</time>
      </trkpt>
      <trkpt lat="46.87605" lon="8.52467">
        <ele>1711</ele>
        <time>2021-08-11T09:51:11.440Z</time>
      </trkpt>
      <trkpt lat="46.87605" lon="8.52466">
        <ele>1711</ele>
        <time>2021-08-11T09:51:12.441Z</time>
      </trkpt>
      <trkpt lat="46.87605" lon="8.52465">
        <ele>1710</ele>
        <time>2021-08-11T09:51:13.441Z</time>
      </trkpt>
      <trkpt lat="46.87604" lon="8.52464">
        <ele>1710</ele>
        <time>2021-08-11T09:51:14.441Z</time>
      </trkpt>
      <trkpt lat="46.87604" lon="8.52464">
        <ele>1710</ele>
        <time>2021-08-11T09:51:15.441Z</time>
      </trkpt>
      <trkpt lat="46.87603" lon="8.52463">
        <ele>1710</ele>
        <time>2021-08-11T09:51:16.441Z</time>
      </trkpt>
      <trkpt lat="46.87603" lon="8.52463">
        <ele>1709</ele>
        <time>2021-08-11T09:51:17.441Z</time>
      </trkpt>
      <trkpt lat="46.87603" lon="8.52462">
        <ele>1709</ele>
        <time>2021-08-11T09:51:18.441Z</time>
      </trkpt>
      <trkpt lat="46.87602" lon="8.52461">
        <ele>1709</ele>
        <time>2021-08-11T09:51:19.441Z</time>
      </trkpt>
      <trkpt lat="46.87601" lon="8.5246">
        <ele>1710</ele>
        <time>2021-08-11T09:51:20.441Z</time>
      </trkpt>
      <trkpt lat="46.87601" lon="8.52459">
        <ele>1710</ele>
        <time>2021-08-11T09:51:21.441Z</time>
      </trkpt>
      <trkpt lat="46.876" lon="8.52458">
        <ele>1711</ele>
        <time>2021-08-11T09:51:22.441Z</time>
      </trkpt>
      <trkpt lat="46.876" lon="8.52457">
        <ele>1711</ele>
        <time>2021-08-11T09:51:23.440Z</time>
      </trkpt>
      <trkpt lat="46.87599" lon="8.52456">
        <ele>1711</ele>
        <time>2021-08-11T09:51:24.441Z</time>
      </trkpt>
      <trkpt lat="46.87599" lon="8.52455">
        <ele>1711</ele>
        <time>2021-08-11T09:51:25.441Z</time>
      </trkpt>
      <trkpt lat="46.87599" lon="8.52454">
        <ele>1711</ele>
        <time>2021-08-11T09:51:26.440Z</time>
      </trkpt>
      <trkpt lat="46.87598" lon="8.52452">
        <ele>1710</ele>
        <time>2021-08-11T09:51:27.441Z</time>
      </trkpt>
      <trkpt lat="46.87598" lon="8.52451">
        <ele>1710</ele>
        <time>2021-08-11T09:51:28.440Z</time>
      </trkpt>
      <trkpt lat="46.87598" lon="8.5245">
        <ele>1710</ele>
        <time>2021-08-11T09:51:29.441Z</time>
      </trkpt>
      <trkpt lat="46.87598" lon="8.52449">
        <ele>1709</ele>
        <time>2021-08-11T09:51:30.440Z</time>
      </trkpt>
      <trkpt lat="46.87597" lon="8.52448">
        <ele>1709</ele>
        <time>2021-08-11T09:51:31.441Z</time>
      </trkpt>
      <trkpt lat="46.87597" lon="8.52447">
        <ele>1709</ele>
        <time>2021-08-11T09:51:32.441Z</time>
      </trkpt>
      <trkpt lat="46.87597" lon="8.52445">
        <ele>1709</ele>
        <time>2021-08-11T09:51:33.440Z</time>
      </trkpt>
      <trkpt lat="46.87596" lon="8.52444">
        <ele>1709</ele>
        <time>2021-08-11T09:51:34.440Z</time>
      </trkpt>
      <trkpt lat="46.87596" lon="8.52443">
        <ele>1709</ele>
        <time>2021-08-11T09:51:35.441Z</time>
      </trkpt>
      <trkpt lat="46.87596" lon="8.52441">
        <ele>1709</ele>
        <time>2021-08-11T09:51:36.441Z</time>
      </trkpt>
      <trkpt lat="46.87595" lon="8.52439">
        <ele>1709</ele>
        <time>2021-08-11T09:51:37.441Z</time>
      </trkpt>
      <trkpt lat="46.87595" lon="8.52438">
        <ele>1710</ele>
        <time>2021-08-11T09:51:38.441Z</time>
      </trkpt>
      <trkpt lat="46.87595" lon="8.52436">
        <ele>1710</ele>
        <time>2021-08-11T09:51:39.440Z</time>
      </trkpt>
      <trkpt lat="46.87595" lon="8.52434">
        <ele>1709</ele>
        <time>2021-08-11T09:51:40.441Z</time>
      </trkpt>
      <trkpt lat="46.87595" lon="8.52433">
        <ele>1709</ele>
        <time>2021-08-11T09:51:41.441Z</time>
      </trkpt>
      <trkpt lat="46.87596" lon="8.52432">
        <ele>1709</ele>
        <time>2021-08-11T09:51:42.441Z</time>
      </trkpt>
      <trkpt lat="46.87596" lon="8.5243">
        <ele>1709</ele>
        <time>2021-08-11T09:51:43.441Z</time>
      </trkpt>
      <trkpt lat="46.87597" lon="8.52429">
        <ele>1709</ele>
        <time>2021-08-11T09:51:44.441Z</time>
      </trkpt>
      <trkpt lat="46.87597" lon="8.52428">
        <ele>1709</ele>
        <time>2021-08-11T09:51:45.440Z</time>
      </trkpt>
      <trkpt lat="46.87598" lon="8.52427">
        <ele>1709</ele>
        <time>2021-08-11T09:51:46.441Z</time>
      </trkpt>
      <trkpt lat="46.87598" lon="8.52425">
        <ele>1709</ele>
        <time>2021-08-11T09:51:47.440Z</time>
      </trkpt>
      <trkpt lat="46.87599" lon="8.52424">
        <ele>1709</ele>
        <time>2021-08-11T09:51:48.441Z</time>
      </trkpt>
      <trkpt lat="46.876" lon="8.52424">
        <ele>1709</ele>
        <time>2021-08-11T09:51:49.441Z</time>
      </trkpt>
      <trkpt lat="46.876" lon="8.52423">
        <ele>1709</ele>
        <time>2021-08-11T09:51:50.441Z</time>
      </trkpt>
      <trkpt lat="46.87601" lon="8.52422">
        <ele>1709</ele>
        <time>2021-08-11T09:51:51.441Z</time>
      </trkpt>
      <trkpt lat="46.87602" lon="8.52421">
        <ele>1709</ele>
        <time>2021-08-11T09:51:52.441Z</time>
      </trkpt>
      <trkpt lat="46.87602" lon="8.52421">
        <ele>1709</ele>
        <time>2021-08-11T09:51:53.441Z</time>
      </trkpt>
      <trkpt lat="46.87602" lon="8.5242">
        <ele>1708</ele>
        <time>2021-08-11T09:51:54.441Z</time>
      </trkpt>
      <trkpt lat="46.87603" lon="8.5242">
        <ele>1708</ele>
        <time>2021-08-11T09:51:55.440Z</time>
      </trkpt>
      <trkpt lat="46.87604" lon="8.52419">
        <ele>1707</ele>
        <time>2021-08-11T09:51:56.441Z</time>
      </trkpt>
      <trkpt lat="46.87605" lon="8.52419">
        <ele>1707</ele>
        <time>2021-08-11T09:51:57.440Z</time>
      </trkpt>
      <trkpt lat="46.87606" lon="8.52418">
        <ele>1706</ele>
        <time>2021-08-11T09:51:58.440Z</time>
      </trkpt>
      <trkpt lat="46.87606" lon="8.52417">
        <ele>1705</ele>
        <time>2021-08-11T09:51:59.441Z</time>
      </trkpt>
      <trkpt lat="46.87607" lon="8.52416">
        <ele>1704</ele>
        <time>2021-08-11T09:52:00.441Z</time>
      </trkpt>
      <trkpt lat="46.87607" lon="8.52415">
        <ele>1704</ele>
        <time>2021-08-11T09:52:01.441Z</time>
      </trkpt>
      <trkpt lat="46.87608" lon="8.52414">
        <ele>1703</ele>
        <time>2021-08-11T09:52:02.441Z</time>
      </trkpt>
      <trkpt lat="46.87608" lon="8.52412">
        <ele>1702</ele>
        <time>2021-08-11T09:52:03.441Z</time>
      </trkpt>
      <trkpt lat="46.87609" lon="8.52411">
        <ele>1701</ele>
        <time>2021-08-11T09:52:04.441Z</time>
      </trkpt>
      <trkpt lat="46.87609" lon="8.5241">
        <ele>1701</ele>
        <time>2021-08-11T09:52:05.440Z</time>
      </trkpt>
      <trkpt lat="46.87609" lon="8.52407">
        <ele>1700</ele>
        <time>2021-08-11T09:52:06.440Z</time>
      </trkpt>
      <trkpt lat="46.87609" lon="8.52406">
        <ele>1700</ele>
        <time>2021-08-11T09:52:07.440Z</time>
      </trkpt>
      <trkpt lat="46.87609" lon="8.52405">
        <ele>1699</ele>
        <time>2021-08-11T09:52:08.441Z</time>
      </trkpt>
      <trkpt lat="46.8761" lon="8.52403">
        <ele>1699</ele>
        <time>2021-08-11T09:52:09.441Z</time>
      </trkpt>
      <trkpt lat="46.87611" lon="8.52402">
        <ele>1699</ele>
        <time>2021-08-11T09:52:10.441Z</time>
      </trkpt>
      <trkpt lat="46.87611" lon="8.524">
        <ele>1699</ele>
        <time>2021-08-11T09:52:11.441Z</time>
      </trkpt>
      <trkpt lat="46.87612" lon="8.52399">
        <ele>1699</ele>
        <time>2021-08-11T09:52:12.440Z</time>
      </trkpt>
      <trkpt lat="46.87612" lon="8.52398">
        <ele>1699</ele>
        <time>2021-08-11T09:52:13.441Z</time>
      </trkpt>
      <trkpt lat="46.87612" lon="8.52397">
        <ele>1699</ele>
        <time>2021-08-11T09:52:14.441Z</time>
      </trkpt>
      <trkpt lat="46.87613" lon="8.52396">
        <ele>1700</ele>
        <time>2021-08-11T09:52:15.441Z</time>
      </trkpt>
      <trkpt lat="46.87613" lon="8.52395">
        <ele>1700</ele>
        <time>2021-08-11T09:52:16.441Z</time>
      </trkpt>
      <trkpt lat="46.87613" lon="8.52394">
        <ele>1700</ele>
        <time>2021-08-11T09:52:17.440Z</time>
      </trkpt>
      <trkpt lat="46.87613" lon="8.52393">
        <ele>1699</ele>
        <time>2021-08-11T09:52:18.440Z</time>
      </trkpt>
      <trkpt lat="46.87613" lon="8.52392">
        <ele>1699</ele>
        <time>2021-08-11T09:52:19.441Z</time>
      </trkpt>
      <trkpt lat="46.87613" lon="8.52391">
        <ele>1699</ele>
        <time>2021-08-11T09:52:20.441Z</time>
      </trkpt>
      <trkpt lat="46.87613" lon="8.52389">
        <ele>1700</ele>
        <time>2021-08-11T09:52:21.441Z</time>
      </trkpt>
      <trkpt lat="46.87613" lon="8.52389">
        <ele>1699</ele>
        <time>2021-08-11T09:52:22.441Z</time>
      </trkpt>
      <trkpt lat="46.87613" lon="8.52388">
        <ele>1699</ele>
        <time>2021-08-11T09:52:23.440Z</time>
      </trkpt>
      <trkpt lat="46.87613" lon="8.52387">
        <ele>1699</ele>
        <time>2021-08-11T09:52:24.441Z</time>
      </trkpt>
      <trkpt lat="46.87613" lon="8.52386">
        <ele>1699</ele>
        <time>2021-08-11T09:52:25.441Z</time>
      </trkpt>
      <trkpt lat="46.87613" lon="8.52385">
        <ele>1699</ele>
        <time>2021-08-11T09:52:26.441Z</time>
      </trkpt>
      <trkpt lat="46.87613" lon="8.52385">
        <ele>1700</ele>
        <time>2021-08-11T09:52:27.441Z</time>
      </trkpt>
      <trkpt lat="46.87613" lon="8.52384">
        <ele>1700</ele>
        <time>2021-08-11T09:52:28.441Z</time>
      </trkpt>
      <trkpt lat="46.87613" lon="8.52383">
        <ele>1699</ele>
        <time>2021-08-11T09:52:29.441Z</time>
      </trkpt>
      <trkpt lat="46.87613" lon="8.52382">
        <ele>1698</ele>
        <time>2021-08-11T09:52:30.441Z</time>
      </trkpt>
      <trkpt lat="46.87613" lon="8.52381">
        <ele>1698</ele>
        <time>2021-08-11T09:52:31.441Z</time>
      </trkpt>
      <trkpt lat="46.87613" lon="8.5238">
        <ele>1697</ele>
        <time>2021-08-11T09:52:32.441Z</time>
      </trkpt>
      <trkpt lat="46.87613" lon="8.52379">
        <ele>1696</ele>
        <time>2021-08-11T09:52:33.442Z</time>
      </trkpt>
      <trkpt lat="46.87613" lon="8.52378">
        <ele>1696</ele>
        <time>2021-08-11T09:52:34.442Z</time>
      </trkpt>
      <trkpt lat="46.87613" lon="8.52377">
        <ele>1696</ele>
        <time>2021-08-11T09:52:35.442Z</time>
      </trkpt>
      <trkpt lat="46.87612" lon="8.52376">
        <ele>1696</ele>
        <time>2021-08-11T09:52:36.442Z</time>
      </trkpt>
      <trkpt lat="46.87612" lon="8.52375">
        <ele>1696</ele>
        <time>2021-08-11T09:52:37.442Z</time>
      </trkpt>
      <trkpt lat="46.87612" lon="8.52374">
        <ele>1696</ele>
        <time>2021-08-11T09:52:38.441Z</time>
      </trkpt>
      <trkpt lat="46.87613" lon="8.52373">
        <ele>1696</ele>
        <time>2021-08-11T09:52:39.442Z</time>
      </trkpt>
      <trkpt lat="46.87613" lon="8.52372">
        <ele>1696</ele>
        <time>2021-08-11T09:52:40.441Z</time>
      </trkpt>
      <trkpt lat="46.87612" lon="8.52371">
        <ele>1696</ele>
        <time>2021-08-11T09:52:41.442Z</time>
      </trkpt>
      <trkpt lat="46.87612" lon="8.5237">
        <ele>1696</ele>
        <time>2021-08-11T09:52:42.442Z</time>
      </trkpt>
      <trkpt lat="46.87611" lon="8.52369">
        <ele>1696</ele>
        <time>2021-08-11T09:52:43.442Z</time>
      </trkpt>
      <trkpt lat="46.87612" lon="8.52368">
        <ele>1696</ele>
        <time>2021-08-11T09:52:44.442Z</time>
      </trkpt>
      <trkpt lat="46.87612" lon="8.52367">
        <ele>1696</ele>
        <time>2021-08-11T09:52:45.441Z</time>
      </trkpt>
      <trkpt lat="46.87612" lon="8.52366">
        <ele>1696</ele>
        <time>2021-08-11T09:52:46.442Z</time>
      </trkpt>
      <trkpt lat="46.87612" lon="8.52365">
        <ele>1696</ele>
        <time>2021-08-11T09:52:47.441Z</time>
      </trkpt>
      <trkpt lat="46.87613" lon="8.52364">
        <ele>1696</ele>
        <time>2021-08-11T09:52:48.441Z</time>
      </trkpt>
      <trkpt lat="46.87613" lon="8.52363">
        <ele>1696</ele>
        <time>2021-08-11T09:52:49.442Z</time>
      </trkpt>
      <trkpt lat="46.87614" lon="8.52362">
        <ele>1696</ele>
        <time>2021-08-11T09:52:50.442Z</time>
      </trkpt>
      <trkpt lat="46.87614" lon="8.52361">
        <ele>1696</ele>
        <time>2021-08-11T09:52:51.441Z</time>
      </trkpt>
      <trkpt lat="46.87614" lon="8.52359">
        <ele>1695</ele>
        <time>2021-08-11T09:52:52.442Z</time>
      </trkpt>
      <trkpt lat="46.87615" lon="8.52358">
        <ele>1695</ele>
        <time>2021-08-11T09:52:53.441Z</time>
      </trkpt>
      <trkpt lat="46.87615" lon="8.52357">
        <ele>1694</ele>
        <time>2021-08-11T09:52:54.442Z</time>
      </trkpt>
      <trkpt lat="46.87616" lon="8.52356">
        <ele>1694</ele>
        <time>2021-08-11T09:52:55.442Z</time>
      </trkpt>
      <trkpt lat="46.87616" lon="8.52355">
        <ele>1694</ele>
        <time>2021-08-11T09:52:56.442Z</time>
      </trkpt>
      <trkpt lat="46.87616" lon="8.52354">
        <ele>1693</ele>
        <time>2021-08-11T09:52:57.442Z</time>
      </trkpt>
      <trkpt lat="46.87616" lon="8.52353">
        <ele>1693</ele>
        <time>2021-08-11T09:52:58.441Z</time>
      </trkpt>
      <trkpt lat="46.87617" lon="8.52353">
        <ele>1693</ele>
        <time>2021-08-11T09:52:59.442Z</time>
      </trkpt>
      <trkpt lat="46.87617" lon="8.52352">
        <ele>1692</ele>
        <time>2021-08-11T09:53:00.442Z</time>
      </trkpt>
      <trkpt lat="46.87617" lon="8.52351">
        <ele>1692</ele>
        <time>2021-08-11T09:53:01.442Z</time>
      </trkpt>
      <trkpt lat="46.87617" lon="8.52351">
        <ele>1691</ele>
        <time>2021-08-11T09:53:02.442Z</time>
      </trkpt>
      <trkpt lat="46.87618" lon="8.52351">
        <ele>1691</ele>
        <time>2021-08-11T09:53:03.441Z</time>
      </trkpt>
      <trkpt lat="46.87618" lon="8.52351">
        <ele>1691</ele>
        <time>2021-08-11T09:53:04.441Z</time>
      </trkpt>
      <trkpt lat="46.87623" lon="8.52351">
        <ele>1691</ele>
        <time>2021-08-11T09:53:05.442Z</time>
      </trkpt>
      <trkpt lat="46.87622" lon="8.52351">
        <ele>1691</ele>
        <time>2021-08-11T09:53:06.443Z</time>
      </trkpt>
      <trkpt lat="46.87622" lon="8.52351">
        <ele>1692</ele>
        <time>2021-08-11T09:53:07.442Z</time>
      </trkpt>
      <trkpt lat="46.87621" lon="8.52351">
        <ele>1696</ele>
        <time>2021-08-11T09:53:08.443Z</time>
      </trkpt>
      <trkpt lat="46.87621" lon="8.5235">
        <ele>1696</ele>
        <time>2021-08-11T09:53:09.442Z</time>
      </trkpt>
      <trkpt lat="46.8762" lon="8.5235">
        <ele>1696</ele>
        <time>2021-08-11T09:53:10.443Z</time>
      </trkpt>
      <trkpt lat="46.87619" lon="8.5235">
        <ele>1696</ele>
        <time>2021-08-11T09:53:11.442Z</time>
      </trkpt>
      <trkpt lat="46.87619" lon="8.5235">
        <ele>1696</ele>
        <time>2021-08-11T09:53:12.442Z</time>
      </trkpt>
      <trkpt lat="46.87618" lon="8.52349">
        <ele>1696</ele>
        <time>2021-08-11T09:53:13.442Z</time>
      </trkpt>
      <trkpt lat="46.87618" lon="8.52348">
        <ele>1696</ele>
        <time>2021-08-11T09:53:14.442Z</time>
      </trkpt>
      <trkpt lat="46.87617" lon="8.52348">
        <ele>1696</ele>
        <time>2021-08-11T09:53:15.442Z</time>
      </trkpt>
      <trkpt lat="46.87617" lon="8.52347">
        <ele>1696</ele>
        <time>2021-08-11T09:53:16.443Z</time>
      </trkpt>
      <trkpt lat="46.87617" lon="8.52346">
        <ele>1695</ele>
        <time>2021-08-11T09:53:17.443Z</time>
      </trkpt>
      <trkpt lat="46.87617" lon="8.52345">
        <ele>1695</ele>
        <time>2021-08-11T09:53:18.443Z</time>
      </trkpt>
      <trkpt lat="46.87616" lon="8.52344">
        <ele>1695</ele>
        <time>2021-08-11T09:53:19.443Z</time>
      </trkpt>
      <trkpt lat="46.87616" lon="8.52343">
        <ele>1694</ele>
        <time>2021-08-11T09:53:20.443Z</time>
      </trkpt>
      <trkpt lat="46.87615" lon="8.52342">
        <ele>1694</ele>
        <time>2021-08-11T09:53:21.442Z</time>
      </trkpt>
      <trkpt lat="46.87615" lon="8.52341">
        <ele>1693</ele>
        <time>2021-08-11T09:53:22.442Z</time>
      </trkpt>
      <trkpt lat="46.87614" lon="8.5234">
        <ele>1693</ele>
        <time>2021-08-11T09:53:23.443Z</time>
      </trkpt>
      <trkpt lat="46.87614" lon="8.52339">
        <ele>1692</ele>
        <time>2021-08-11T09:53:24.442Z</time>
      </trkpt>
      <trkpt lat="46.87614" lon="8.52338">
        <ele>1691</ele>
        <time>2021-08-11T09:53:25.443Z</time>
      </trkpt>
      <trkpt lat="46.87614" lon="8.52337">
        <ele>1691</ele>
        <time>2021-08-11T09:53:26.442Z</time>
      </trkpt>
      <trkpt lat="46.87613" lon="8.52336">
        <ele>1691</ele>
        <time>2021-08-11T09:53:27.442Z</time>
      </trkpt>
      <trkpt lat="46.87613" lon="8.52335">
        <ele>1690</ele>
        <time>2021-08-11T09:53:28.442Z</time>
      </trkpt>
      <trkpt lat="46.87612" lon="8.52334">
        <ele>1690</ele>
        <time>2021-08-11T09:53:29.442Z</time>
      </trkpt>
      <trkpt lat="46.87612" lon="8.52333">
        <ele>1689</ele>
        <time>2021-08-11T09:53:30.442Z</time>
      </trkpt>
      <trkpt lat="46.87613" lon="8.52331">
        <ele>1688</ele>
        <time>2021-08-11T09:53:31.442Z</time>
      </trkpt>
      <trkpt lat="46.87613" lon="8.52329">
        <ele>1688</ele>
        <time>2021-08-11T09:53:32.442Z</time>
      </trkpt>
      <trkpt lat="46.87613" lon="8.52328">
        <ele>1689</ele>
        <time>2021-08-11T09:53:33.442Z</time>
      </trkpt>
      <trkpt lat="46.87612" lon="8.52327">
        <ele>1689</ele>
        <time>2021-08-11T09:53:34.442Z</time>
      </trkpt>
      <trkpt lat="46.87611" lon="8.52326">
        <ele>1690</ele>
        <time>2021-08-11T09:53:35.442Z</time>
      </trkpt>
      <trkpt lat="46.87611" lon="8.52325">
        <ele>1690</ele>
        <time>2021-08-11T09:53:36.443Z</time>
      </trkpt>
      <trkpt lat="46.8761" lon="8.52325">
        <ele>1691</ele>
        <time>2021-08-11T09:53:37.442Z</time>
      </trkpt>
      <trkpt lat="46.8761" lon="8.52324">
        <ele>1691</ele>
        <time>2021-08-11T09:53:38.442Z</time>
      </trkpt>
      <trkpt lat="46.87609" lon="8.52323">
        <ele>1691</ele>
        <time>2021-08-11T09:53:39.442Z</time>
      </trkpt>
      <trkpt lat="46.87609" lon="8.52321">
        <ele>1691</ele>
        <time>2021-08-11T09:53:40.442Z</time>
      </trkpt>
      <trkpt lat="46.87608" lon="8.52321">
        <ele>1690</ele>
        <time>2021-08-11T09:53:41.443Z</time>
      </trkpt>
      <trkpt lat="46.87607" lon="8.5232">
        <ele>1690</ele>
        <time>2021-08-11T09:53:42.442Z</time>
      </trkpt>
      <trkpt lat="46.87607" lon="8.5232">
        <ele>1690</ele>
        <time>2021-08-11T09:53:43.442Z</time>
      </trkpt>
      <trkpt lat="46.87608" lon="8.52321">
        <ele>1690</ele>
        <time>2021-08-11T09:53:44.442Z</time>
      </trkpt>
      <trkpt lat="46.87607" lon="8.52323">
        <ele>1686</ele>
        <time>2021-08-11T09:53:45.444Z</time>
      </trkpt>
      <trkpt lat="46.87607" lon="8.52323">
        <ele>1686</ele>
        <time>2021-08-11T09:53:46.444Z</time>
      </trkpt>
      <trkpt lat="46.87606" lon="8.52321">
        <ele>1686</ele>
        <time>2021-08-11T09:53:47.445Z</time>
      </trkpt>
      <trkpt lat="46.87606" lon="8.5232">
        <ele>1686</ele>
        <time>2021-08-11T09:53:48.444Z</time>
      </trkpt>
      <trkpt lat="46.87605" lon="8.52319">
        <ele>1685</ele>
        <time>2021-08-11T09:53:49.445Z</time>
      </trkpt>
      <trkpt lat="46.87604" lon="8.52318">
        <ele>1685</ele>
        <time>2021-08-11T09:53:50.444Z</time>
      </trkpt>
      <trkpt lat="46.87604" lon="8.52318">
        <ele>1685</ele>
        <time>2021-08-11T09:53:51.445Z</time>
      </trkpt>
      <trkpt lat="46.87603" lon="8.52318">
        <ele>1686</ele>
        <time>2021-08-11T09:53:52.444Z</time>
      </trkpt>
      <trkpt lat="46.87602" lon="8.52318">
        <ele>1686</ele>
        <time>2021-08-11T09:53:53.445Z</time>
      </trkpt>
      <trkpt lat="46.87602" lon="8.52317">
        <ele>1686</ele>
        <time>2021-08-11T09:53:54.445Z</time>
      </trkpt>
      <trkpt lat="46.87601" lon="8.52317">
        <ele>1686</ele>
        <time>2021-08-11T09:53:55.444Z</time>
      </trkpt>
      <trkpt lat="46.876" lon="8.52316">
        <ele>1686</ele>
        <time>2021-08-11T09:53:56.445Z</time>
      </trkpt>
      <trkpt lat="46.876" lon="8.52316">
        <ele>1686</ele>
        <time>2021-08-11T09:53:57.445Z</time>
      </trkpt>
      <trkpt lat="46.876" lon="8.52317">
        <ele>1685</ele>
        <time>2021-08-11T09:53:58.444Z</time>
      </trkpt>
      <trkpt lat="46.876" lon="8.52317">
        <ele>1685</ele>
        <time>2021-08-11T09:53:59.445Z</time>
      </trkpt>
      <trkpt lat="46.87597" lon="8.52316">
        <ele>1682</ele>
        <time>2021-08-11T09:54:00.447Z</time>
      </trkpt>
      <trkpt lat="46.87597" lon="8.52315">
        <ele>1682</ele>
        <time>2021-08-11T09:54:01.446Z</time>
      </trkpt>
      <trkpt lat="46.87596" lon="8.52313">
        <ele>1683</ele>
        <time>2021-08-11T09:54:02.446Z</time>
      </trkpt>
      <trkpt lat="46.87596" lon="8.52312">
        <ele>1683</ele>
        <time>2021-08-11T09:54:03.446Z</time>
      </trkpt>
      <trkpt lat="46.87595" lon="8.5231">
        <ele>1684</ele>
        <time>2021-08-11T09:54:04.447Z</time>
      </trkpt>
      <trkpt lat="46.87594" lon="8.52309">
        <ele>1684</ele>
        <time>2021-08-11T09:54:05.446Z</time>
      </trkpt>
      <trkpt lat="46.87594" lon="8.52307">
        <ele>1684</ele>
        <time>2021-08-11T09:54:06.447Z</time>
      </trkpt>
      <trkpt lat="46.87594" lon="8.52306">
        <ele>1684</ele>
        <time>2021-08-11T09:54:07.446Z</time>
      </trkpt>
      <trkpt lat="46.87593" lon="8.52305">
        <ele>1684</ele>
        <time>2021-08-11T09:54:08.446Z</time>
      </trkpt>
      <trkpt lat="46.87593" lon="8.52303">
        <ele>1685</ele>
        <time>2021-08-11T09:54:09.446Z</time>
      </trkpt>
      <trkpt lat="46.87592" lon="8.52301">
        <ele>1685</ele>
        <time>2021-08-11T09:54:10.447Z</time>
      </trkpt>
      <trkpt lat="46.87592" lon="8.523">
        <ele>1685</ele>
        <time>2021-08-11T09:54:11.446Z</time>
      </trkpt>
      <trkpt lat="46.87591" lon="8.52299">
        <ele>1684</ele>
        <time>2021-08-11T09:54:12.446Z</time>
      </trkpt>
      <trkpt lat="46.87591" lon="8.52299">
        <ele>1684</ele>
        <time>2021-08-11T09:54:13.446Z</time>
      </trkpt>
      <trkpt lat="46.8759" lon="8.52298">
        <ele>1684</ele>
        <time>2021-08-11T09:54:14.446Z</time>
      </trkpt>
      <trkpt lat="46.8759" lon="8.52297">
        <ele>1684</ele>
        <time>2021-08-11T09:54:15.446Z</time>
      </trkpt>
      <trkpt lat="46.87589" lon="8.52296">
        <ele>1685</ele>
        <time>2021-08-11T09:54:16.446Z</time>
      </trkpt>
      <trkpt lat="46.87589" lon="8.52295">
        <ele>1685</ele>
        <time>2021-08-11T09:54:17.447Z</time>
      </trkpt>
      <trkpt lat="46.87588" lon="8.52293">
        <ele>1686</ele>
        <time>2021-08-11T09:54:18.447Z</time>
      </trkpt>
      <trkpt lat="46.87588" lon="8.52291">
        <ele>1686</ele>
        <time>2021-08-11T09:54:19.447Z</time>
      </trkpt>
      <trkpt lat="46.87588" lon="8.5229">
        <ele>1686</ele>
        <time>2021-08-11T09:54:20.447Z</time>
      </trkpt>
      <trkpt lat="46.87587" lon="8.52289">
        <ele>1686</ele>
        <time>2021-08-11T09:54:21.447Z</time>
      </trkpt>
      <trkpt lat="46.87587" lon="8.52288">
        <ele>1687</ele>
        <time>2021-08-11T09:54:22.447Z</time>
      </trkpt>
      <trkpt lat="46.87586" lon="8.52286">
        <ele>1687</ele>
        <time>2021-08-11T09:54:23.446Z</time>
      </trkpt>
      <trkpt lat="46.87586" lon="8.52285">
        <ele>1687</ele>
        <time>2021-08-11T09:54:24.447Z</time>
      </trkpt>
      <trkpt lat="46.87586" lon="8.52284">
        <ele>1686</ele>
        <time>2021-08-11T09:54:25.447Z</time>
      </trkpt>
      <trkpt lat="46.87586" lon="8.52283">
        <ele>1686</ele>
        <time>2021-08-11T09:54:26.447Z</time>
      </trkpt>
      <trkpt lat="46.87585" lon="8.52281">
        <ele>1686</ele>
        <time>2021-08-11T09:54:27.447Z</time>
      </trkpt>
      <trkpt lat="46.87585" lon="8.5228">
        <ele>1685</ele>
        <time>2021-08-11T09:54:28.446Z</time>
      </trkpt>
      <trkpt lat="46.87584" lon="8.52279">
        <ele>1684</ele>
        <time>2021-08-11T09:54:29.447Z</time>
      </trkpt>
      <trkpt lat="46.87583" lon="8.52278">
        <ele>1684</ele>
        <time>2021-08-11T09:54:30.447Z</time>
      </trkpt>
      <trkpt lat="46.87583" lon="8.52278">
        <ele>1684</ele>
        <time>2021-08-11T09:54:31.447Z</time>
      </trkpt>
      <trkpt lat="46.87582" lon="8.52277">
        <ele>1684</ele>
        <time>2021-08-11T09:54:32.447Z</time>
      </trkpt>
      <trkpt lat="46.87581" lon="8.52276">
        <ele>1684</ele>
        <time>2021-08-11T09:54:33.446Z</time>
      </trkpt>
      <trkpt lat="46.87581" lon="8.52275">
        <ele>1684</ele>
        <time>2021-08-11T09:54:34.447Z</time>
      </trkpt>
      <trkpt lat="46.87581" lon="8.52274">
        <ele>1684</ele>
        <time>2021-08-11T09:54:35.447Z</time>
      </trkpt>
      <trkpt lat="46.8758" lon="8.52273">
        <ele>1684</ele>
        <time>2021-08-11T09:54:36.447Z</time>
      </trkpt>
      <trkpt lat="46.8758" lon="8.52271">
        <ele>1684</ele>
        <time>2021-08-11T09:54:37.446Z</time>
      </trkpt>
      <trkpt lat="46.87579" lon="8.5227">
        <ele>1685</ele>
        <time>2021-08-11T09:54:38.446Z</time>
      </trkpt>
      <trkpt lat="46.87579" lon="8.52269">
        <ele>1685</ele>
        <time>2021-08-11T09:54:39.447Z</time>
      </trkpt>
      <trkpt lat="46.87578" lon="8.52268">
        <ele>1685</ele>
        <time>2021-08-11T09:54:40.446Z</time>
      </trkpt>
      <trkpt lat="46.87578" lon="8.52266">
        <ele>1684</ele>
        <time>2021-08-11T09:54:41.446Z</time>
      </trkpt>
      <trkpt lat="46.87578" lon="8.52265">
        <ele>1684</ele>
        <time>2021-08-11T09:54:42.447Z</time>
      </trkpt>
      <trkpt lat="46.87578" lon="8.52264">
        <ele>1685</ele>
        <time>2021-08-11T09:54:43.447Z</time>
      </trkpt>
      <trkpt lat="46.87577" lon="8.52263">
        <ele>1685</ele>
        <time>2021-08-11T09:54:44.447Z</time>
      </trkpt>
      <trkpt lat="46.87577" lon="8.52261">
        <ele>1685</ele>
        <time>2021-08-11T09:54:45.447Z</time>
      </trkpt>
      <trkpt lat="46.87577" lon="8.5226">
        <ele>1684</ele>
        <time>2021-08-11T09:54:46.447Z</time>
      </trkpt>
      <trkpt lat="46.87577" lon="8.52258">
        <ele>1684</ele>
        <time>2021-08-11T09:54:47.447Z</time>
      </trkpt>
      <trkpt lat="46.87576" lon="8.52257">
        <ele>1683</ele>
        <time>2021-08-11T09:54:48.446Z</time>
      </trkpt>
      <trkpt lat="46.87575" lon="8.52255">
        <ele>1683</ele>
        <time>2021-08-11T09:54:49.447Z</time>
      </trkpt>
      <trkpt lat="46.87575" lon="8.52254">
        <ele>1683</ele>
        <time>2021-08-11T09:54:50.447Z</time>
      </trkpt>
      <trkpt lat="46.87575" lon="8.52252">
        <ele>1683</ele>
        <time>2021-08-11T09:54:51.447Z</time>
      </trkpt>
      <trkpt lat="46.87574" lon="8.52251">
        <ele>1683</ele>
        <time>2021-08-11T09:54:52.447Z</time>
      </trkpt>
      <trkpt lat="46.87574" lon="8.5225">
        <ele>1683</ele>
        <time>2021-08-11T09:54:53.447Z</time>
      </trkpt>
      <trkpt lat="46.87574" lon="8.52249">
        <ele>1682</ele>
        <time>2021-08-11T09:54:54.447Z</time>
      </trkpt>
      <trkpt lat="46.87573" lon="8.52247">
        <ele>1682</ele>
        <time>2021-08-11T09:54:55.447Z</time>
      </trkpt>
      <trkpt lat="46.87573" lon="8.52246">
        <ele>1681</ele>
        <time>2021-08-11T09:54:56.447Z</time>
      </trkpt>
      <trkpt lat="46.87572" lon="8.52245">
        <ele>1681</ele>
        <time>2021-08-11T09:54:57.447Z</time>
      </trkpt>
      <trkpt lat="46.87572" lon="8.52244">
        <ele>1680</ele>
        <time>2021-08-11T09:54:58.446Z</time>
      </trkpt>
      <trkpt lat="46.87572" lon="8.52242">
        <ele>1679</ele>
        <time>2021-08-11T09:54:59.446Z</time>
      </trkpt>
      <trkpt lat="46.87571" lon="8.52241">
        <ele>1679</ele>
        <time>2021-08-11T09:55:00.446Z</time>
      </trkpt>
      <trkpt lat="46.8757" lon="8.52239">
        <ele>1678</ele>
        <time>2021-08-11T09:55:01.446Z</time>
      </trkpt>
      <trkpt lat="46.8757" lon="8.52238">
        <ele>1678</ele>
        <time>2021-08-11T09:55:02.447Z</time>
      </trkpt>
      <trkpt lat="46.87569" lon="8.52236">
        <ele>1677</ele>
        <time>2021-08-11T09:55:03.447Z</time>
      </trkpt>
      <trkpt lat="46.87569" lon="8.52235">
        <ele>1677</ele>
        <time>2021-08-11T09:55:04.447Z</time>
      </trkpt>
      <trkpt lat="46.87568" lon="8.52234">
        <ele>1677</ele>
        <time>2021-08-11T09:55:05.447Z</time>
      </trkpt>
      <trkpt lat="46.87568" lon="8.52233">
        <ele>1677</ele>
        <time>2021-08-11T09:55:06.447Z</time>
      </trkpt>
      <trkpt lat="46.87567" lon="8.52231">
        <ele>1676</ele>
        <time>2021-08-11T09:55:07.447Z</time>
      </trkpt>
      <trkpt lat="46.87567" lon="8.5223">
        <ele>1676</ele>
        <time>2021-08-11T09:55:08.446Z</time>
      </trkpt>
      <trkpt lat="46.87566" lon="8.52229">
        <ele>1676</ele>
        <time>2021-08-11T09:55:09.447Z</time>
      </trkpt>
      <trkpt lat="46.87566" lon="8.52228">
        <ele>1676</ele>
        <time>2021-08-11T09:55:10.446Z</time>
      </trkpt>
      <trkpt lat="46.87565" lon="8.52227">
        <ele>1676</ele>
        <time>2021-08-11T09:55:11.446Z</time>
      </trkpt>
      <trkpt lat="46.87565" lon="8.52226">
        <ele>1675</ele>
        <time>2021-08-11T09:55:12.447Z</time>
      </trkpt>
      <trkpt lat="46.87564" lon="8.52225">
        <ele>1675</ele>
        <time>2021-08-11T09:55:13.446Z</time>
      </trkpt>
      <trkpt lat="46.87564" lon="8.52225">
        <ele>1675</ele>
        <time>2021-08-11T09:55:14.447Z</time>
      </trkpt>
      <trkpt lat="46.87563" lon="8.52224">
        <ele>1675</ele>
        <time>2021-08-11T09:55:15.447Z</time>
      </trkpt>
      <trkpt lat="46.87562" lon="8.52222">
        <ele>1675</ele>
        <time>2021-08-11T09:55:16.447Z</time>
      </trkpt>
      <trkpt lat="46.87562" lon="8.52221">
        <ele>1675</ele>
        <time>2021-08-11T09:55:17.447Z</time>
      </trkpt>
      <trkpt lat="46.87561" lon="8.5222">
        <ele>1675</ele>
        <time>2021-08-11T09:55:18.446Z</time>
      </trkpt>
      <trkpt lat="46.87561" lon="8.52218">
        <ele>1675</ele>
        <time>2021-08-11T09:55:19.447Z</time>
      </trkpt>
      <trkpt lat="46.8756" lon="8.52217">
        <ele>1675</ele>
        <time>2021-08-11T09:55:20.447Z</time>
      </trkpt>
      <trkpt lat="46.87559" lon="8.52215">
        <ele>1676</ele>
        <time>2021-08-11T09:55:21.447Z</time>
      </trkpt>
      <trkpt lat="46.87559" lon="8.52214">
        <ele>1676</ele>
        <time>2021-08-11T09:55:22.447Z</time>
      </trkpt>
      <trkpt lat="46.87558" lon="8.52212">
        <ele>1676</ele>
        <time>2021-08-11T09:55:23.446Z</time>
      </trkpt>
      <trkpt lat="46.87558" lon="8.52211">
        <ele>1676</ele>
        <time>2021-08-11T09:55:24.446Z</time>
      </trkpt>
      <trkpt lat="46.87557" lon="8.5221">
        <ele>1676</ele>
        <time>2021-08-11T09:55:25.447Z</time>
      </trkpt>
      <trkpt lat="46.87557" lon="8.52209">
        <ele>1676</ele>
        <time>2021-08-11T09:55:26.446Z</time>
      </trkpt>
      <trkpt lat="46.87556" lon="8.52207">
        <ele>1676</ele>
        <time>2021-08-11T09:55:27.447Z</time>
      </trkpt>
      <trkpt lat="46.87555" lon="8.52206">
        <ele>1676</ele>
        <time>2021-08-11T09:55:28.446Z</time>
      </trkpt>
      <trkpt lat="46.87554" lon="8.52204">
        <ele>1676</ele>
        <time>2021-08-11T09:55:29.447Z</time>
      </trkpt>
      <trkpt lat="46.87553" lon="8.52203">
        <ele>1676</ele>
        <time>2021-08-11T09:55:30.446Z</time>
      </trkpt>
      <trkpt lat="46.87553" lon="8.52202">
        <ele>1676</ele>
        <time>2021-08-11T09:55:31.447Z</time>
      </trkpt>
      <trkpt lat="46.87553" lon="8.52201">
        <ele>1676</ele>
        <time>2021-08-11T09:55:32.447Z</time>
      </trkpt>
      <trkpt lat="46.87552" lon="8.52199">
        <ele>1676</ele>
        <time>2021-08-11T09:55:33.447Z</time>
      </trkpt>
      <trkpt lat="46.87552" lon="8.52199">
        <ele>1676</ele>
        <time>2021-08-11T09:55:34.447Z</time>
      </trkpt>
      <trkpt lat="46.87551" lon="8.52198">
        <ele>1676</ele>
        <time>2021-08-11T09:55:35.447Z</time>
      </trkpt>
      <trkpt lat="46.8755" lon="8.52196">
        <ele>1676</ele>
        <time>2021-08-11T09:55:36.447Z</time>
      </trkpt>
      <trkpt lat="46.87549" lon="8.52195">
        <ele>1676</ele>
        <time>2021-08-11T09:55:37.447Z</time>
      </trkpt>
      <trkpt lat="46.87548" lon="8.52194">
        <ele>1677</ele>
        <time>2021-08-11T09:55:38.446Z</time>
      </trkpt>
      <trkpt lat="46.87547" lon="8.52192">
        <ele>1677</ele>
        <time>2021-08-11T09:55:39.447Z</time>
      </trkpt>
      <trkpt lat="46.87546" lon="8.52191">
        <ele>1677</ele>
        <time>2021-08-11T09:55:40.446Z</time>
      </trkpt>
      <trkpt lat="46.87546" lon="8.5219">
        <ele>1678</ele>
        <time>2021-08-11T09:55:41.446Z</time>
      </trkpt>
      <trkpt lat="46.87547" lon="8.52191">
        <ele>1678</ele>
        <time>2021-08-11T09:55:42.447Z</time>
      </trkpt>
      <trkpt lat="46.87547" lon="8.52192">
        <ele>1678</ele>
        <time>2021-08-11T09:55:43.446Z</time>
      </trkpt>
      <trkpt lat="46.87548" lon="8.52192">
        <ele>1677</ele>
        <time>2021-08-11T09:55:44.447Z</time>
      </trkpt>
      <trkpt lat="46.87548" lon="8.52192">
        <ele>1676</ele>
        <time>2021-08-11T09:55:45.447Z</time>
      </trkpt>
      <trkpt lat="46.87548" lon="8.52193">
        <ele>1675</ele>
        <time>2021-08-11T09:55:46.447Z</time>
      </trkpt>
      <trkpt lat="46.87549" lon="8.52193">
        <ele>1674</ele>
        <time>2021-08-11T09:55:47.446Z</time>
      </trkpt>
      <trkpt lat="46.87549" lon="8.52192">
        <ele>1674</ele>
        <time>2021-08-11T09:55:48.448Z</time>
      </trkpt>
      <trkpt lat="46.87549" lon="8.52191">
        <ele>1674</ele>
        <time>2021-08-11T09:55:49.447Z</time>
      </trkpt>
      <trkpt lat="46.8755" lon="8.52193">
        <ele>1676</ele>
        <time>2021-08-11T09:55:50.448Z</time>
      </trkpt>
      <trkpt lat="46.8755" lon="8.52194">
        <ele>1676</ele>
        <time>2021-08-11T09:55:51.447Z</time>
      </trkpt>
      <trkpt lat="46.8755" lon="8.52194">
        <ele>1677</ele>
        <time>2021-08-11T09:55:52.447Z</time>
      </trkpt>
      <trkpt lat="46.8755" lon="8.52194">
        <ele>1678</ele>
        <time>2021-08-11T09:55:53.449Z</time>
      </trkpt>
      <trkpt lat="46.8755" lon="8.52194">
        <ele>1679</ele>
        <time>2021-08-11T09:55:54.448Z</time>
      </trkpt>
      <trkpt lat="46.87551" lon="8.52195">
        <ele>1682</ele>
        <time>2021-08-11T09:55:55.448Z</time>
      </trkpt>
      <trkpt lat="46.87552" lon="8.52195">
        <ele>1683</ele>
        <time>2021-08-11T09:55:56.449Z</time>
      </trkpt>
      <trkpt lat="46.87549" lon="8.52192">
        <ele>1671</ele>
        <time>2021-08-11T09:55:57.449Z</time>
      </trkpt>
      <trkpt lat="46.87548" lon="8.52191">
        <ele>1671</ele>
        <time>2021-08-11T09:55:58.449Z</time>
      </trkpt>
      <trkpt lat="46.87547" lon="8.52191">
        <ele>1671</ele>
        <time>2021-08-11T09:55:59.448Z</time>
      </trkpt>
      <trkpt lat="46.87546" lon="8.52191">
        <ele>1671</ele>
        <time>2021-08-11T09:56:00.449Z</time>
      </trkpt>
      <trkpt lat="46.87545" lon="8.5219">
        <ele>1671</ele>
        <time>2021-08-11T09:56:01.448Z</time>
      </trkpt>
      <trkpt lat="46.87544" lon="8.5219">
        <ele>1672</ele>
        <time>2021-08-11T09:56:02.449Z</time>
      </trkpt>
      <trkpt lat="46.87543" lon="8.52188">
        <ele>1672</ele>
        <time>2021-08-11T09:56:03.449Z</time>
      </trkpt>
      <trkpt lat="46.87542" lon="8.52188">
        <ele>1672</ele>
        <time>2021-08-11T09:56:04.449Z</time>
      </trkpt>
      <trkpt lat="46.87541" lon="8.52187">
        <ele>1671</ele>
        <time>2021-08-11T09:56:05.448Z</time>
      </trkpt>
      <trkpt lat="46.8754" lon="8.52187">
        <ele>1671</ele>
        <time>2021-08-11T09:56:06.448Z</time>
      </trkpt>
      <trkpt lat="46.87539" lon="8.52186">
        <ele>1671</ele>
        <time>2021-08-11T09:56:07.449Z</time>
      </trkpt>
      <trkpt lat="46.87537" lon="8.52185">
        <ele>1671</ele>
        <time>2021-08-11T09:56:08.448Z</time>
      </trkpt>
      <trkpt lat="46.87536" lon="8.52183">
        <ele>1671</ele>
        <time>2021-08-11T09:56:09.449Z</time>
      </trkpt>
      <trkpt lat="46.87534" lon="8.52183">
        <ele>1671</ele>
        <time>2021-08-11T09:56:10.449Z</time>
      </trkpt>
      <trkpt lat="46.87533" lon="8.52183">
        <ele>1671</ele>
        <time>2021-08-11T09:56:11.449Z</time>
      </trkpt>
      <trkpt lat="46.87532" lon="8.52182">
        <ele>1671</ele>
        <time>2021-08-11T09:56:12.448Z</time>
      </trkpt>
      <trkpt lat="46.87531" lon="8.52182">
        <ele>1671</ele>
        <time>2021-08-11T09:56:13.449Z</time>
      </trkpt>
      <trkpt lat="46.8753" lon="8.52182">
        <ele>1671</ele>
        <time>2021-08-11T09:56:14.449Z</time>
      </trkpt>
      <trkpt lat="46.87529" lon="8.52181">
        <ele>1671</ele>
        <time>2021-08-11T09:56:15.449Z</time>
      </trkpt>
      <trkpt lat="46.87528" lon="8.5218">
        <ele>1670</ele>
        <time>2021-08-11T09:56:16.448Z</time>
      </trkpt>
      <trkpt lat="46.87527" lon="8.5218">
        <ele>1670</ele>
        <time>2021-08-11T09:56:17.448Z</time>
      </trkpt>
      <trkpt lat="46.87527" lon="8.5218">
        <ele>1670</ele>
        <time>2021-08-11T09:56:18.449Z</time>
      </trkpt>
      <trkpt lat="46.87526" lon="8.5218">
        <ele>1670</ele>
        <time>2021-08-11T09:56:19.449Z</time>
      </trkpt>
      <trkpt lat="46.87525" lon="8.52179">
        <ele>1670</ele>
        <time>2021-08-11T09:56:20.448Z</time>
      </trkpt>
      <trkpt lat="46.87524" lon="8.52179">
        <ele>1670</ele>
        <time>2021-08-11T09:56:21.449Z</time>
      </trkpt>
      <trkpt lat="46.87524" lon="8.52178">
        <ele>1670</ele>
        <time>2021-08-11T09:56:22.449Z</time>
      </trkpt>
      <trkpt lat="46.87523" lon="8.52177">
        <ele>1670</ele>
        <time>2021-08-11T09:56:23.449Z</time>
      </trkpt>
      <trkpt lat="46.87522" lon="8.52176">
        <ele>1670</ele>
        <time>2021-08-11T09:56:24.449Z</time>
      </trkpt>
      <trkpt lat="46.87521" lon="8.52175">
        <ele>1670</ele>
        <time>2021-08-11T09:56:25.448Z</time>
      </trkpt>
      <trkpt lat="46.87521" lon="8.52174">
        <ele>1670</ele>
        <time>2021-08-11T09:56:26.449Z</time>
      </trkpt>
      <trkpt lat="46.8752" lon="8.52174">
        <ele>1670</ele>
        <time>2021-08-11T09:56:27.449Z</time>
      </trkpt>
      <trkpt lat="46.87519" lon="8.52174">
        <ele>1670</ele>
        <time>2021-08-11T09:56:28.449Z</time>
      </trkpt>
      <trkpt lat="46.87518" lon="8.52173">
        <ele>1669</ele>
        <time>2021-08-11T09:56:29.448Z</time>
      </trkpt>
      <trkpt lat="46.87517" lon="8.52173">
        <ele>1669</ele>
        <time>2021-08-11T09:56:30.448Z</time>
      </trkpt>
      <trkpt lat="46.87516" lon="8.52172">
        <ele>1670</ele>
        <time>2021-08-11T09:56:31.449Z</time>
      </trkpt>
      <trkpt lat="46.87516" lon="8.52172">
        <ele>1670</ele>
        <time>2021-08-11T09:56:32.448Z</time>
      </trkpt>
      <trkpt lat="46.87515" lon="8.52172">
        <ele>1670</ele>
        <time>2021-08-11T09:56:33.449Z</time>
      </trkpt>
      <trkpt lat="46.87514" lon="8.52172">
        <ele>1669</ele>
        <time>2021-08-11T09:56:34.449Z</time>
      </trkpt>
      <trkpt lat="46.87513" lon="8.52171">
        <ele>1669</ele>
        <time>2021-08-11T09:56:35.449Z</time>
      </trkpt>
      <trkpt lat="46.87512" lon="8.52171">
        <ele>1669</ele>
        <time>2021-08-11T09:56:36.449Z</time>
      </trkpt>
      <trkpt lat="46.87511" lon="8.52171">
        <ele>1668</ele>
        <time>2021-08-11T09:56:37.449Z</time>
      </trkpt>
      <trkpt lat="46.8751" lon="8.5217">
        <ele>1667</ele>
        <time>2021-08-11T09:56:38.449Z</time>
      </trkpt>
      <trkpt lat="46.8751" lon="8.5217">
        <ele>1667</ele>
        <time>2021-08-11T09:56:39.448Z</time>
      </trkpt>
      <trkpt lat="46.87509" lon="8.5217">
        <ele>1667</ele>
        <time>2021-08-11T09:56:40.448Z</time>
      </trkpt>
      <trkpt lat="46.87509" lon="8.5217">
        <ele>1666</ele>
        <time>2021-08-11T09:56:41.449Z</time>
      </trkpt>
      <trkpt lat="46.87508" lon="8.52169">
        <ele>1666</ele>
        <time>2021-08-11T09:56:42.449Z</time>
      </trkpt>
      <trkpt lat="46.87507" lon="8.52169">
        <ele>1666</ele>
        <time>2021-08-11T09:56:43.449Z</time>
      </trkpt>
      <trkpt lat="46.87507" lon="8.52168">
        <ele>1665</ele>
        <time>2021-08-11T09:56:44.449Z</time>
      </trkpt>
      <trkpt lat="46.87506" lon="8.52167">
        <ele>1665</ele>
        <time>2021-08-11T09:56:45.448Z</time>
      </trkpt>
      <trkpt lat="46.87505" lon="8.52167">
        <ele>1665</ele>
        <time>2021-08-11T09:56:46.449Z</time>
      </trkpt>
      <trkpt lat="46.87505" lon="8.52166">
        <ele>1665</ele>
        <time>2021-08-11T09:56:47.448Z</time>
      </trkpt>
      <trkpt lat="46.87504" lon="8.52165">
        <ele>1665</ele>
        <time>2021-08-11T09:56:48.449Z</time>
      </trkpt>
      <trkpt lat="46.87504" lon="8.52164">
        <ele>1665</ele>
        <time>2021-08-11T09:56:49.448Z</time>
      </trkpt>
      <trkpt lat="46.87503" lon="8.52163">
        <ele>1665</ele>
        <time>2021-08-11T09:56:50.448Z</time>
      </trkpt>
      <trkpt lat="46.87503" lon="8.52162">
        <ele>1665</ele>
        <time>2021-08-11T09:56:51.449Z</time>
      </trkpt>
      <trkpt lat="46.87502" lon="8.52161">
        <ele>1665</ele>
        <time>2021-08-11T09:56:52.448Z</time>
      </trkpt>
      <trkpt lat="46.87501" lon="8.52161">
        <ele>1665</ele>
        <time>2021-08-11T09:56:53.449Z</time>
      </trkpt>
      <trkpt lat="46.87501" lon="8.5216">
        <ele>1665</ele>
        <time>2021-08-11T09:56:54.448Z</time>
      </trkpt>
      <trkpt lat="46.875" lon="8.52159">
        <ele>1665</ele>
        <time>2021-08-11T09:56:55.448Z</time>
      </trkpt>
      <trkpt lat="46.87499" lon="8.52159">
        <ele>1665</ele>
        <time>2021-08-11T09:56:56.449Z</time>
      </trkpt>
      <trkpt lat="46.87499" lon="8.52158">
        <ele>1665</ele>
        <time>2021-08-11T09:56:57.449Z</time>
      </trkpt>
      <trkpt lat="46.87499" lon="8.52157">
        <ele>1665</ele>
        <time>2021-08-11T09:56:58.449Z</time>
      </trkpt>
      <trkpt lat="46.87498" lon="8.52156">
        <ele>1665</ele>
        <time>2021-08-11T09:56:59.449Z</time>
      </trkpt>
      <trkpt lat="46.87497" lon="8.52154">
        <ele>1665</ele>
        <time>2021-08-11T09:57:00.448Z</time>
      </trkpt>
      <trkpt lat="46.87497" lon="8.52153">
        <ele>1665</ele>
        <time>2021-08-11T09:57:01.449Z</time>
      </trkpt>
      <trkpt lat="46.87497" lon="8.52152">
        <ele>1665</ele>
        <time>2021-08-11T09:57:02.448Z</time>
      </trkpt>
      <trkpt lat="46.87496" lon="8.52151">
        <ele>1665</ele>
        <time>2021-08-11T09:57:03.449Z</time>
      </trkpt>
      <trkpt lat="46.87496" lon="8.5215">
        <ele>1666</ele>
        <time>2021-08-11T09:57:04.449Z</time>
      </trkpt>
      <trkpt lat="46.87495" lon="8.52148">
        <ele>1666</ele>
        <time>2021-08-11T09:57:05.449Z</time>
      </trkpt>
      <trkpt lat="46.87495" lon="8.52147">
        <ele>1666</ele>
        <time>2021-08-11T09:57:06.449Z</time>
      </trkpt>
      <trkpt lat="46.87494" lon="8.52146">
        <ele>1666</ele>
        <time>2021-08-11T09:57:07.449Z</time>
      </trkpt>
      <trkpt lat="46.87493" lon="8.52145">
        <ele>1666</ele>
        <time>2021-08-11T09:57:08.448Z</time>
      </trkpt>
      <trkpt lat="46.87493" lon="8.52144">
        <ele>1667</ele>
        <time>2021-08-11T09:57:09.449Z</time>
      </trkpt>
      <trkpt lat="46.87492" lon="8.52143">
        <ele>1667</ele>
        <time>2021-08-11T09:57:10.449Z</time>
      </trkpt>
      <trkpt lat="46.87491" lon="8.52142">
        <ele>1667</ele>
        <time>2021-08-11T09:57:11.449Z</time>
      </trkpt>
      <trkpt lat="46.87491" lon="8.52141">
        <ele>1667</ele>
        <time>2021-08-11T09:57:12.449Z</time>
      </trkpt>
      <trkpt lat="46.8749" lon="8.52139">
        <ele>1667</ele>
        <time>2021-08-11T09:57:13.448Z</time>
      </trkpt>
      <trkpt lat="46.8749" lon="8.52138">
        <ele>1667</ele>
        <time>2021-08-11T09:57:14.449Z</time>
      </trkpt>
      <trkpt lat="46.87489" lon="8.52137">
        <ele>1667</ele>
        <time>2021-08-11T09:57:15.449Z</time>
      </trkpt>
      <trkpt lat="46.87489" lon="8.52136">
        <ele>1667</ele>
        <time>2021-08-11T09:57:16.449Z</time>
      </trkpt>
      <trkpt lat="46.87488" lon="8.52135">
        <ele>1667</ele>
        <time>2021-08-11T09:57:17.449Z</time>
      </trkpt>
      <trkpt lat="46.87487" lon="8.52134">
        <ele>1667</ele>
        <time>2021-08-11T09:57:18.449Z</time>
      </trkpt>
      <trkpt lat="46.87486" lon="8.52132">
        <ele>1668</ele>
        <time>2021-08-11T09:57:19.449Z</time>
      </trkpt>
      <trkpt lat="46.87486" lon="8.52131">
        <ele>1668</ele>
        <time>2021-08-11T09:57:20.449Z</time>
      </trkpt>
      <trkpt lat="46.87485" lon="8.5213">
        <ele>1668</ele>
        <time>2021-08-11T09:57:21.449Z</time>
      </trkpt>
      <trkpt lat="46.87484" lon="8.52129">
        <ele>1669</ele>
        <time>2021-08-11T09:57:22.449Z</time>
      </trkpt>
      <trkpt lat="46.87483" lon="8.52128">
        <ele>1668</ele>
        <time>2021-08-11T09:57:23.448Z</time>
      </trkpt>
      <trkpt lat="46.87482" lon="8.52127">
        <ele>1668</ele>
        <time>2021-08-11T09:57:24.449Z</time>
      </trkpt>
      <trkpt lat="46.87482" lon="8.52127">
        <ele>1667</ele>
        <time>2021-08-11T09:57:25.449Z</time>
      </trkpt>
      <trkpt lat="46.87481" lon="8.52126">
        <ele>1667</ele>
        <time>2021-08-11T09:57:26.448Z</time>
      </trkpt>
      <trkpt lat="46.87481" lon="8.52125">
        <ele>1666</ele>
        <time>2021-08-11T09:57:27.448Z</time>
      </trkpt>
      <trkpt lat="46.87481" lon="8.52125">
        <ele>1665</ele>
        <time>2021-08-11T09:57:28.449Z</time>
      </trkpt>
      <trkpt lat="46.87481" lon="8.52125">
        <ele>1665</ele>
        <time>2021-08-11T09:57:29.449Z</time>
      </trkpt>
      <trkpt lat="46.8748" lon="8.52124">
        <ele>1665</ele>
        <time>2021-08-11T09:57:30.449Z</time>
      </trkpt>
      <trkpt lat="46.87479" lon="8.52122">
        <ele>1665</ele>
        <time>2021-08-11T09:57:31.449Z</time>
      </trkpt>
      <trkpt lat="46.87479" lon="8.52122">
        <ele>1665</ele>
        <time>2021-08-11T09:57:32.448Z</time>
      </trkpt>
      <trkpt lat="46.87477" lon="8.52121">
        <ele>1664</ele>
        <time>2021-08-11T09:57:33.449Z</time>
      </trkpt>
      <trkpt lat="46.87476" lon="8.52121">
        <ele>1664</ele>
        <time>2021-08-11T09:57:34.448Z</time>
      </trkpt>
      <trkpt lat="46.87475" lon="8.5212">
        <ele>1664</ele>
        <time>2021-08-11T09:57:35.448Z</time>
      </trkpt>
      <trkpt lat="46.87474" lon="8.52118">
        <ele>1663</ele>
        <time>2021-08-11T09:57:36.449Z</time>
      </trkpt>
      <trkpt lat="46.87473" lon="8.52117">
        <ele>1663</ele>
        <time>2021-08-11T09:57:37.448Z</time>
      </trkpt>
      <trkpt lat="46.87473" lon="8.52116">
        <ele>1663</ele>
        <time>2021-08-11T09:57:38.449Z</time>
      </trkpt>
      <trkpt lat="46.87472" lon="8.52115">
        <ele>1663</ele>
        <time>2021-08-11T09:57:39.449Z</time>
      </trkpt>
      <trkpt lat="46.87472" lon="8.52114">
        <ele>1664</ele>
        <time>2021-08-11T09:57:40.449Z</time>
      </trkpt>
      <trkpt lat="46.87471" lon="8.52114">
        <ele>1663</ele>
        <time>2021-08-11T09:57:41.449Z</time>
      </trkpt>
      <trkpt lat="46.8747" lon="8.52114">
        <ele>1663</ele>
        <time>2021-08-11T09:57:42.449Z</time>
      </trkpt>
      <trkpt lat="46.87469" lon="8.52114">
        <ele>1663</ele>
        <time>2021-08-11T09:57:43.449Z</time>
      </trkpt>
      <trkpt lat="46.87469" lon="8.52113">
        <ele>1662</ele>
        <time>2021-08-11T09:57:44.448Z</time>
      </trkpt>
      <trkpt lat="46.87468" lon="8.52112">
        <ele>1662</ele>
        <time>2021-08-11T09:57:45.449Z</time>
      </trkpt>
      <trkpt lat="46.87467" lon="8.52111">
        <ele>1662</ele>
        <time>2021-08-11T09:57:46.449Z</time>
      </trkpt>
      <trkpt lat="46.87465" lon="8.52109">
        <ele>1662</ele>
        <time>2021-08-11T09:57:47.449Z</time>
      </trkpt>
      <trkpt lat="46.87465" lon="8.52107">
        <ele>1662</ele>
        <time>2021-08-11T09:57:48.449Z</time>
      </trkpt>
      <trkpt lat="46.87464" lon="8.52106">
        <ele>1662</ele>
        <time>2021-08-11T09:57:49.449Z</time>
      </trkpt>
      <trkpt lat="46.87463" lon="8.52105">
        <ele>1662</ele>
        <time>2021-08-11T09:57:50.449Z</time>
      </trkpt>
      <trkpt lat="46.87463" lon="8.52103">
        <ele>1662</ele>
        <time>2021-08-11T09:57:51.448Z</time>
      </trkpt>
      <trkpt lat="46.87462" lon="8.52102">
        <ele>1661</ele>
        <time>2021-08-11T09:57:52.449Z</time>
      </trkpt>
      <trkpt lat="46.87462" lon="8.52101">
        <ele>1661</ele>
        <time>2021-08-11T09:57:53.448Z</time>
      </trkpt>
      <trkpt lat="46.87461" lon="8.52099">
        <ele>1661</ele>
        <time>2021-08-11T09:57:54.449Z</time>
      </trkpt>
      <trkpt lat="46.8746" lon="8.52098">
        <ele>1662</ele>
        <time>2021-08-11T09:57:55.448Z</time>
      </trkpt>
      <trkpt lat="46.8746" lon="8.52097">
        <ele>1662</ele>
        <time>2021-08-11T09:57:56.448Z</time>
      </trkpt>
      <trkpt lat="46.87459" lon="8.52096">
        <ele>1661</ele>
        <time>2021-08-11T09:57:57.449Z</time>
      </trkpt>
      <trkpt lat="46.87459" lon="8.52094">
        <ele>1661</ele>
        <time>2021-08-11T09:57:58.448Z</time>
      </trkpt>
      <trkpt lat="46.87458" lon="8.52093">
        <ele>1661</ele>
        <time>2021-08-11T09:57:59.449Z</time>
      </trkpt>
      <trkpt lat="46.87457" lon="8.52091">
        <ele>1660</ele>
        <time>2021-08-11T09:58:00.449Z</time>
      </trkpt>
      <trkpt lat="46.87457" lon="8.52089">
        <ele>1660</ele>
        <time>2021-08-11T09:58:01.449Z</time>
      </trkpt>
      <trkpt lat="46.87456" lon="8.52088">
        <ele>1660</ele>
        <time>2021-08-11T09:58:02.449Z</time>
      </trkpt>
      <trkpt lat="46.87455" lon="8.52086">
        <ele>1660</ele>
        <time>2021-08-11T09:58:03.448Z</time>
      </trkpt>
      <trkpt lat="46.87454" lon="8.52085">
        <ele>1660</ele>
        <time>2021-08-11T09:58:04.449Z</time>
      </trkpt>
      <trkpt lat="46.87453" lon="8.52083">
        <ele>1661</ele>
        <time>2021-08-11T09:58:05.449Z</time>
      </trkpt>
      <trkpt lat="46.87452" lon="8.52081">
        <ele>1660</ele>
        <time>2021-08-11T09:58:06.448Z</time>
      </trkpt>
      <trkpt lat="46.87451" lon="8.5208">
        <ele>1660</ele>
        <time>2021-08-11T09:58:07.449Z</time>
      </trkpt>
      <trkpt lat="46.87451" lon="8.52079">
        <ele>1660</ele>
        <time>2021-08-11T09:58:08.449Z</time>
      </trkpt>
      <trkpt lat="46.8745" lon="8.52077">
        <ele>1659</ele>
        <time>2021-08-11T09:58:09.449Z</time>
      </trkpt>
      <trkpt lat="46.87449" lon="8.52075">
        <ele>1659</ele>
        <time>2021-08-11T09:58:10.449Z</time>
      </trkpt>
      <trkpt lat="46.87448" lon="8.52074">
        <ele>1660</ele>
        <time>2021-08-11T09:58:11.448Z</time>
      </trkpt>
      <trkpt lat="46.87447" lon="8.52072">
        <ele>1660</ele>
        <time>2021-08-11T09:58:12.449Z</time>
      </trkpt>
      <trkpt lat="46.87447" lon="8.52071">
        <ele>1659</ele>
        <time>2021-08-11T09:58:13.449Z</time>
      </trkpt>
      <trkpt lat="46.87446" lon="8.52069">
        <ele>1659</ele>
        <time>2021-08-11T09:58:14.449Z</time>
      </trkpt>
      <trkpt lat="46.87445" lon="8.52068">
        <ele>1659</ele>
        <time>2021-08-11T09:58:15.448Z</time>
      </trkpt>
      <trkpt lat="46.87444" lon="8.52066">
        <ele>1659</ele>
        <time>2021-08-11T09:58:16.449Z</time>
      </trkpt>
      <trkpt lat="46.87444" lon="8.52065">
        <ele>1658</ele>
        <time>2021-08-11T09:58:17.448Z</time>
      </trkpt>
      <trkpt lat="46.87443" lon="8.52064">
        <ele>1658</ele>
        <time>2021-08-11T09:58:18.449Z</time>
      </trkpt>
      <trkpt lat="46.87442" lon="8.52063">
        <ele>1658</ele>
        <time>2021-08-11T09:58:19.448Z</time>
      </trkpt>
      <trkpt lat="46.87441" lon="8.52062">
        <ele>1658</ele>
        <time>2021-08-11T09:58:20.449Z</time>
      </trkpt>
      <trkpt lat="46.8744" lon="8.52062">
        <ele>1658</ele>
        <time>2021-08-11T09:58:21.449Z</time>
      </trkpt>
      <trkpt lat="46.87439" lon="8.52061">
        <ele>1658</ele>
        <time>2021-08-11T09:58:22.449Z</time>
      </trkpt>
      <trkpt lat="46.87438" lon="8.52059">
        <ele>1657</ele>
        <time>2021-08-11T09:58:23.448Z</time>
      </trkpt>
      <trkpt lat="46.87437" lon="8.52058">
        <ele>1658</ele>
        <time>2021-08-11T09:58:24.449Z</time>
      </trkpt>
      <trkpt lat="46.87436" lon="8.52056">
        <ele>1658</ele>
        <time>2021-08-11T09:58:25.449Z</time>
      </trkpt>
      <trkpt lat="46.87435" lon="8.52054">
        <ele>1659</ele>
        <time>2021-08-11T09:58:26.449Z</time>
      </trkpt>
      <trkpt lat="46.87435" lon="8.52052">
        <ele>1659</ele>
        <time>2021-08-11T09:58:27.449Z</time>
      </trkpt>
      <trkpt lat="46.87434" lon="8.5205">
        <ele>1659</ele>
        <time>2021-08-11T09:58:28.449Z</time>
      </trkpt>
      <trkpt lat="46.87433" lon="8.52048">
        <ele>1658</ele>
        <time>2021-08-11T09:58:29.449Z</time>
      </trkpt>
      <trkpt lat="46.87432" lon="8.52046">
        <ele>1658</ele>
        <time>2021-08-11T09:58:30.449Z</time>
      </trkpt>
      <trkpt lat="46.87431" lon="8.52044">
        <ele>1657</ele>
        <time>2021-08-11T09:58:31.448Z</time>
      </trkpt>
      <trkpt lat="46.8743" lon="8.52043">
        <ele>1657</ele>
        <time>2021-08-11T09:58:32.449Z</time>
      </trkpt>
      <trkpt lat="46.87429" lon="8.52042">
        <ele>1656</ele>
        <time>2021-08-11T09:58:33.449Z</time>
      </trkpt>
      <trkpt lat="46.87428" lon="8.52041">
        <ele>1656</ele>
        <time>2021-08-11T09:58:34.449Z</time>
      </trkpt>
      <trkpt lat="46.87427" lon="8.52039">
        <ele>1656</ele>
        <time>2021-08-11T09:58:35.448Z</time>
      </trkpt>
      <trkpt lat="46.87426" lon="8.52038">
        <ele>1656</ele>
        <time>2021-08-11T09:58:36.449Z</time>
      </trkpt>
      <trkpt lat="46.87425" lon="8.52036">
        <ele>1656</ele>
        <time>2021-08-11T09:58:37.448Z</time>
      </trkpt>
      <trkpt lat="46.87424" lon="8.52035">
        <ele>1656</ele>
        <time>2021-08-11T09:58:38.449Z</time>
      </trkpt>
      <trkpt lat="46.87423" lon="8.52033">
        <ele>1656</ele>
        <time>2021-08-11T09:58:39.449Z</time>
      </trkpt>
      <trkpt lat="46.87422" lon="8.52032">
        <ele>1656</ele>
        <time>2021-08-11T09:58:40.449Z</time>
      </trkpt>
      <trkpt lat="46.87421" lon="8.52031">
        <ele>1656</ele>
        <time>2021-08-11T09:58:41.449Z</time>
      </trkpt>
      <trkpt lat="46.87421" lon="8.52029">
        <ele>1655</ele>
        <time>2021-08-11T09:58:42.449Z</time>
      </trkpt>
      <trkpt lat="46.8742" lon="8.52028">
        <ele>1655</ele>
        <time>2021-08-11T09:58:43.449Z</time>
      </trkpt>
      <trkpt lat="46.87419" lon="8.52027">
        <ele>1655</ele>
        <time>2021-08-11T09:58:44.449Z</time>
      </trkpt>
      <trkpt lat="46.87418" lon="8.52026">
        <ele>1655</ele>
        <time>2021-08-11T09:58:45.449Z</time>
      </trkpt>
      <trkpt lat="46.87417" lon="8.52024">
        <ele>1654</ele>
        <time>2021-08-11T09:58:46.449Z</time>
      </trkpt>
      <trkpt lat="46.87417" lon="8.52023">
        <ele>1655</ele>
        <time>2021-08-11T09:58:47.448Z</time>
      </trkpt>
      <trkpt lat="46.87416" lon="8.52022">
        <ele>1655</ele>
        <time>2021-08-11T09:58:48.449Z</time>
      </trkpt>
      <trkpt lat="46.87415" lon="8.5202">
        <ele>1655</ele>
        <time>2021-08-11T09:58:49.448Z</time>
      </trkpt>
      <trkpt lat="46.87415" lon="8.52019">
        <ele>1655</ele>
        <time>2021-08-11T09:58:50.448Z</time>
      </trkpt>
      <trkpt lat="46.87414" lon="8.52017">
        <ele>1655</ele>
        <time>2021-08-11T09:58:51.449Z</time>
      </trkpt>
      <trkpt lat="46.87413" lon="8.52017">
        <ele>1655</ele>
        <time>2021-08-11T09:58:52.448Z</time>
      </trkpt>
      <trkpt lat="46.87412" lon="8.52015">
        <ele>1655</ele>
        <time>2021-08-11T09:58:53.449Z</time>
      </trkpt>
      <trkpt lat="46.87411" lon="8.52014">
        <ele>1655</ele>
        <time>2021-08-11T09:58:54.448Z</time>
      </trkpt>
      <trkpt lat="46.8741" lon="8.52013">
        <ele>1655</ele>
        <time>2021-08-11T09:58:55.449Z</time>
      </trkpt>
      <trkpt lat="46.87409" lon="8.52012">
        <ele>1655</ele>
        <time>2021-08-11T09:58:56.449Z</time>
      </trkpt>
      <trkpt lat="46.87408" lon="8.52011">
        <ele>1655</ele>
        <time>2021-08-11T09:58:57.449Z</time>
      </trkpt>
      <trkpt lat="46.87408" lon="8.5201">
        <ele>1655</ele>
        <time>2021-08-11T09:58:58.449Z</time>
      </trkpt>
      <trkpt lat="46.87407" lon="8.52009">
        <ele>1655</ele>
        <time>2021-08-11T09:58:59.448Z</time>
      </trkpt>
      <trkpt lat="46.87406" lon="8.52008">
        <ele>1654</ele>
        <time>2021-08-11T09:59:00.448Z</time>
      </trkpt>
      <trkpt lat="46.87405" lon="8.52008">
        <ele>1654</ele>
        <time>2021-08-11T09:59:01.448Z</time>
      </trkpt>
      <trkpt lat="46.87405" lon="8.52007">
        <ele>1654</ele>
        <time>2021-08-11T09:59:02.449Z</time>
      </trkpt>
      <trkpt lat="46.87404" lon="8.52006">
        <ele>1653</ele>
        <time>2021-08-11T09:59:03.449Z</time>
      </trkpt>
      <trkpt lat="46.87404" lon="8.52005">
        <ele>1653</ele>
        <time>2021-08-11T09:59:04.448Z</time>
      </trkpt>
      <trkpt lat="46.87404" lon="8.52004">
        <ele>1652</ele>
        <time>2021-08-11T09:59:05.448Z</time>
      </trkpt>
      <trkpt lat="46.87404" lon="8.52003">
        <ele>1652</ele>
        <time>2021-08-11T09:59:06.448Z</time>
      </trkpt>
      <trkpt lat="46.87403" lon="8.52001">
        <ele>1651</ele>
        <time>2021-08-11T09:59:07.448Z</time>
      </trkpt>
      <trkpt lat="46.87402" lon="8.52">
        <ele>1651</ele>
        <time>2021-08-11T09:59:08.448Z</time>
      </trkpt>
      <trkpt lat="46.87401" lon="8.51998">
        <ele>1650</ele>
        <time>2021-08-11T09:59:09.449Z</time>
      </trkpt>
      <trkpt lat="46.874" lon="8.51997">
        <ele>1650</ele>
        <time>2021-08-11T09:59:10.448Z</time>
      </trkpt>
      <trkpt lat="46.87399" lon="8.51996">
        <ele>1650</ele>
        <time>2021-08-11T09:59:11.448Z</time>
      </trkpt>
      <trkpt lat="46.87398" lon="8.51995">
        <ele>1650</ele>
        <time>2021-08-11T09:59:12.449Z</time>
      </trkpt>
      <trkpt lat="46.87397" lon="8.51993">
        <ele>1650</ele>
        <time>2021-08-11T09:59:13.448Z</time>
      </trkpt>
      <trkpt lat="46.87395" lon="8.51992">
        <ele>1650</ele>
        <time>2021-08-11T09:59:14.449Z</time>
      </trkpt>
      <trkpt lat="46.87395" lon="8.51991">
        <ele>1650</ele>
        <time>2021-08-11T09:59:15.448Z</time>
      </trkpt>
      <trkpt lat="46.87394" lon="8.5199">
        <ele>1650</ele>
        <time>2021-08-11T09:59:16.449Z</time>
      </trkpt>
      <trkpt lat="46.87393" lon="8.51989">
        <ele>1650</ele>
        <time>2021-08-11T09:59:17.449Z</time>
      </trkpt>
      <trkpt lat="46.87392" lon="8.51987">
        <ele>1650</ele>
        <time>2021-08-11T09:59:18.448Z</time>
      </trkpt>
      <trkpt lat="46.87391" lon="8.51986">
        <ele>1649</ele>
        <time>2021-08-11T09:59:19.449Z</time>
      </trkpt>
      <trkpt lat="46.87391" lon="8.51985">
        <ele>1649</ele>
        <time>2021-08-11T09:59:20.449Z</time>
      </trkpt>
      <trkpt lat="46.8739" lon="8.51984">
        <ele>1649</ele>
        <time>2021-08-11T09:59:21.449Z</time>
      </trkpt>
      <trkpt lat="46.8739" lon="8.51983">
        <ele>1649</ele>
        <time>2021-08-11T09:59:22.449Z</time>
      </trkpt>
      <trkpt lat="46.87389" lon="8.51982">
        <ele>1648</ele>
        <time>2021-08-11T09:59:23.449Z</time>
      </trkpt>
      <trkpt lat="46.87388" lon="8.5198">
        <ele>1647</ele>
        <time>2021-08-11T09:59:24.448Z</time>
      </trkpt>
      <trkpt lat="46.87387" lon="8.51979">
        <ele>1647</ele>
        <time>2021-08-11T09:59:25.449Z</time>
      </trkpt>
      <trkpt lat="46.87386" lon="8.51977">
        <ele>1646</ele>
        <time>2021-08-11T09:59:26.449Z</time>
      </trkpt>
      <trkpt lat="46.87385" lon="8.51976">
        <ele>1645</ele>
        <time>2021-08-11T09:59:27.448Z</time>
      </trkpt>
      <trkpt lat="46.87384" lon="8.51975">
        <ele>1645</ele>
        <time>2021-08-11T09:59:28.449Z</time>
      </trkpt>
      <trkpt lat="46.87384" lon="8.51974">
        <ele>1644</ele>
        <time>2021-08-11T09:59:29.448Z</time>
      </trkpt>
      <trkpt lat="46.87382" lon="8.51973">
        <ele>1643</ele>
        <time>2021-08-11T09:59:30.449Z</time>
      </trkpt>
      <trkpt lat="46.87381" lon="8.51972">
        <ele>1643</ele>
        <time>2021-08-11T09:59:31.449Z</time>
      </trkpt>
      <trkpt lat="46.8738" lon="8.51971">
        <ele>1643</ele>
        <time>2021-08-11T09:59:32.449Z</time>
      </trkpt>
      <trkpt lat="46.87378" lon="8.5197">
        <ele>1643</ele>
        <time>2021-08-11T09:59:33.448Z</time>
      </trkpt>
      <trkpt lat="46.87378" lon="8.51968">
        <ele>1643</ele>
        <time>2021-08-11T09:59:34.449Z</time>
      </trkpt>
      <trkpt lat="46.87377" lon="8.51967">
        <ele>1643</ele>
        <time>2021-08-11T09:59:35.448Z</time>
      </trkpt>
      <trkpt lat="46.87376" lon="8.51965">
        <ele>1643</ele>
        <time>2021-08-11T09:59:36.448Z</time>
      </trkpt>
      <trkpt lat="46.87375" lon="8.51964">
        <ele>1643</ele>
        <time>2021-08-11T09:59:37.449Z</time>
      </trkpt>
      <trkpt lat="46.87375" lon="8.51962">
        <ele>1643</ele>
        <time>2021-08-11T09:59:38.449Z</time>
      </trkpt>
      <trkpt lat="46.87374" lon="8.51961">
        <ele>1643</ele>
        <time>2021-08-11T09:59:39.449Z</time>
      </trkpt>
      <trkpt lat="46.87373" lon="8.5196">
        <ele>1643</ele>
        <time>2021-08-11T09:59:40.448Z</time>
      </trkpt>
      <trkpt lat="46.87372" lon="8.51959">
        <ele>1643</ele>
        <time>2021-08-11T09:59:41.448Z</time>
      </trkpt>
      <trkpt lat="46.87372" lon="8.51958">
        <ele>1643</ele>
        <time>2021-08-11T09:59:42.449Z</time>
      </trkpt>
      <trkpt lat="46.87371" lon="8.51956">
        <ele>1643</ele>
        <time>2021-08-11T09:59:43.449Z</time>
      </trkpt>
      <trkpt lat="46.87371" lon="8.51955">
        <ele>1643</ele>
        <time>2021-08-11T09:59:44.449Z</time>
      </trkpt>
      <trkpt lat="46.8737" lon="8.51953">
        <ele>1643</ele>
        <time>2021-08-11T09:59:45.448Z</time>
      </trkpt>
      <trkpt lat="46.87369" lon="8.51952">
        <ele>1643</ele>
        <time>2021-08-11T09:59:46.448Z</time>
      </trkpt>
      <trkpt lat="46.87368" lon="8.5195">
        <ele>1643</ele>
        <time>2021-08-11T09:59:47.449Z</time>
      </trkpt>
      <trkpt lat="46.87367" lon="8.51948">
        <ele>1642</ele>
        <time>2021-08-11T09:59:48.448Z</time>
      </trkpt>
      <trkpt lat="46.87366" lon="8.51946">
        <ele>1642</ele>
        <time>2021-08-11T09:59:49.449Z</time>
      </trkpt>
      <trkpt lat="46.87366" lon="8.51945">
        <ele>1641</ele>
        <time>2021-08-11T09:59:50.448Z</time>
      </trkpt>
      <trkpt lat="46.87365" lon="8.51943">
        <ele>1641</ele>
        <time>2021-08-11T09:59:51.448Z</time>
      </trkpt>
      <trkpt lat="46.87364" lon="8.51941">
        <ele>1641</ele>
        <time>2021-08-11T09:59:52.449Z</time>
      </trkpt>
      <trkpt lat="46.87363" lon="8.51939">
        <ele>1641</ele>
        <time>2021-08-11T09:59:53.449Z</time>
      </trkpt>
      <trkpt lat="46.87363" lon="8.51938">
        <ele>1641</ele>
        <time>2021-08-11T09:59:54.448Z</time>
      </trkpt>
      <trkpt lat="46.87362" lon="8.51936">
        <ele>1641</ele>
        <time>2021-08-11T09:59:55.449Z</time>
      </trkpt>
      <trkpt lat="46.87361" lon="8.51934">
        <ele>1641</ele>
        <time>2021-08-11T09:59:56.448Z</time>
      </trkpt>
      <trkpt lat="46.8736" lon="8.51933">
        <ele>1641</ele>
        <time>2021-08-11T09:59:57.448Z</time>
      </trkpt>
      <trkpt lat="46.87359" lon="8.51931">
        <ele>1641</ele>
        <time>2021-08-11T09:59:58.448Z</time>
      </trkpt>
      <trkpt lat="46.87359" lon="8.5193">
        <ele>1641</ele>
        <time>2021-08-11T09:59:59.449Z</time>
      </trkpt>
      <trkpt lat="46.87358" lon="8.51929">
        <ele>1641</ele>
        <time>2021-08-11T10:00:00.448Z</time>
      </trkpt>
      <trkpt lat="46.87357" lon="8.51928">
        <ele>1641</ele>
        <time>2021-08-11T10:00:01.448Z</time>
      </trkpt>
      <trkpt lat="46.87357" lon="8.51926">
        <ele>1641</ele>
        <time>2021-08-11T10:00:02.448Z</time>
      </trkpt>
      <trkpt lat="46.87356" lon="8.51925">
        <ele>1642</ele>
        <time>2021-08-11T10:00:03.449Z</time>
      </trkpt>
      <trkpt lat="46.87355" lon="8.51924">
        <ele>1642</ele>
        <time>2021-08-11T10:00:04.448Z</time>
      </trkpt>
      <trkpt lat="46.87354" lon="8.51922">
        <ele>1642</ele>
        <time>2021-08-11T10:00:05.448Z</time>
      </trkpt>
      <trkpt lat="46.87353" lon="8.51919">
        <ele>1642</ele>
        <time>2021-08-11T10:00:06.448Z</time>
      </trkpt>
      <trkpt lat="46.87352" lon="8.51918">
        <ele>1643</ele>
        <time>2021-08-11T10:00:07.448Z</time>
      </trkpt>
      <trkpt lat="46.87351" lon="8.51916">
        <ele>1643</ele>
        <time>2021-08-11T10:00:08.449Z</time>
      </trkpt>
      <trkpt lat="46.8735" lon="8.51915">
        <ele>1643</ele>
        <time>2021-08-11T10:00:09.448Z</time>
      </trkpt>
      <trkpt lat="46.87349" lon="8.51913">
        <ele>1643</ele>
        <time>2021-08-11T10:00:10.448Z</time>
      </trkpt>
      <trkpt lat="46.87349" lon="8.51911">
        <ele>1643</ele>
        <time>2021-08-11T10:00:11.448Z</time>
      </trkpt>
      <trkpt lat="46.87348" lon="8.5191">
        <ele>1642</ele>
        <time>2021-08-11T10:00:12.448Z</time>
      </trkpt>
      <trkpt lat="46.87347" lon="8.51908">
        <ele>1641</ele>
        <time>2021-08-11T10:00:13.449Z</time>
      </trkpt>
      <trkpt lat="46.87346" lon="8.51907">
        <ele>1641</ele>
        <time>2021-08-11T10:00:14.448Z</time>
      </trkpt>
      <trkpt lat="46.87346" lon="8.51905">
        <ele>1640</ele>
        <time>2021-08-11T10:00:15.449Z</time>
      </trkpt>
      <trkpt lat="46.87345" lon="8.51903">
        <ele>1640</ele>
        <time>2021-08-11T10:00:16.448Z</time>
      </trkpt>
      <trkpt lat="46.87344" lon="8.51902">
        <ele>1639</ele>
        <time>2021-08-11T10:00:17.448Z</time>
      </trkpt>
      <trkpt lat="46.87343" lon="8.519">
        <ele>1640</ele>
        <time>2021-08-11T10:00:18.449Z</time>
      </trkpt>
      <trkpt lat="46.87343" lon="8.51899">
        <ele>1640</ele>
        <time>2021-08-11T10:00:19.448Z</time>
      </trkpt>
      <trkpt lat="46.87341" lon="8.51897">
        <ele>1640</ele>
        <time>2021-08-11T10:00:20.448Z</time>
      </trkpt>
      <trkpt lat="46.87341" lon="8.51895">
        <ele>1639</ele>
        <time>2021-08-11T10:00:21.449Z</time>
      </trkpt>
      <trkpt lat="46.8734" lon="8.51893">
        <ele>1640</ele>
        <time>2021-08-11T10:00:22.449Z</time>
      </trkpt>
      <trkpt lat="46.87338" lon="8.51891">
        <ele>1640</ele>
        <time>2021-08-11T10:00:23.449Z</time>
      </trkpt>
      <trkpt lat="46.87337" lon="8.51888">
        <ele>1640</ele>
        <time>2021-08-11T10:00:24.448Z</time>
      </trkpt>
      <trkpt lat="46.87336" lon="8.51887">
        <ele>1641</ele>
        <time>2021-08-11T10:00:25.448Z</time>
      </trkpt>
      <trkpt lat="46.87335" lon="8.51885">
        <ele>1641</ele>
        <time>2021-08-11T10:00:26.448Z</time>
      </trkpt>
      <trkpt lat="46.87334" lon="8.51884">
        <ele>1641</ele>
        <time>2021-08-11T10:00:27.449Z</time>
      </trkpt>
      <trkpt lat="46.87334" lon="8.51883">
        <ele>1641</ele>
        <time>2021-08-11T10:00:28.448Z</time>
      </trkpt>
      <trkpt lat="46.87333" lon="8.51883">
        <ele>1641</ele>
        <time>2021-08-11T10:00:29.448Z</time>
      </trkpt>
      <trkpt lat="46.87332" lon="8.51881">
        <ele>1641</ele>
        <time>2021-08-11T10:00:30.448Z</time>
      </trkpt>
      <trkpt lat="46.87332" lon="8.5188">
        <ele>1641</ele>
        <time>2021-08-11T10:00:31.448Z</time>
      </trkpt>
      <trkpt lat="46.87331" lon="8.51878">
        <ele>1641</ele>
        <time>2021-08-11T10:00:32.449Z</time>
      </trkpt>
      <trkpt lat="46.87331" lon="8.51877">
        <ele>1641</ele>
        <time>2021-08-11T10:00:33.449Z</time>
      </trkpt>
      <trkpt lat="46.8733" lon="8.51875">
        <ele>1641</ele>
        <time>2021-08-11T10:00:34.448Z</time>
      </trkpt>
      <trkpt lat="46.87329" lon="8.51874">
        <ele>1641</ele>
        <time>2021-08-11T10:00:35.448Z</time>
      </trkpt>
      <trkpt lat="46.87328" lon="8.51872">
        <ele>1641</ele>
        <time>2021-08-11T10:00:36.448Z</time>
      </trkpt>
      <trkpt lat="46.87327" lon="8.51871">
        <ele>1641</ele>
        <time>2021-08-11T10:00:37.449Z</time>
      </trkpt>
      <trkpt lat="46.87326" lon="8.5187">
        <ele>1640</ele>
        <time>2021-08-11T10:00:38.449Z</time>
      </trkpt>
      <trkpt lat="46.87325" lon="8.51868">
        <ele>1640</ele>
        <time>2021-08-11T10:00:39.448Z</time>
      </trkpt>
      <trkpt lat="46.87325" lon="8.51866">
        <ele>1640</ele>
        <time>2021-08-11T10:00:40.449Z</time>
      </trkpt>
      <trkpt lat="46.87324" lon="8.51865">
        <ele>1640</ele>
        <time>2021-08-11T10:00:41.448Z</time>
      </trkpt>
      <trkpt lat="46.87323" lon="8.51864">
        <ele>1640</ele>
        <time>2021-08-11T10:00:42.449Z</time>
      </trkpt>
      <trkpt lat="46.87323" lon="8.51863">
        <ele>1640</ele>
        <time>2021-08-11T10:00:43.448Z</time>
      </trkpt>
      <trkpt lat="46.87322" lon="8.51861">
        <ele>1639</ele>
        <time>2021-08-11T10:00:44.448Z</time>
      </trkpt>
      <trkpt lat="46.87321" lon="8.5186">
        <ele>1639</ele>
        <time>2021-08-11T10:00:45.449Z</time>
      </trkpt>
      <trkpt lat="46.8732" lon="8.51858">
        <ele>1638</ele>
        <time>2021-08-11T10:00:46.448Z</time>
      </trkpt>
      <trkpt lat="46.87319" lon="8.51857">
        <ele>1638</ele>
        <time>2021-08-11T10:00:47.449Z</time>
      </trkpt>
      <trkpt lat="46.87319" lon="8.51855">
        <ele>1637</ele>
        <time>2021-08-11T10:00:48.448Z</time>
      </trkpt>
      <trkpt lat="46.87318" lon="8.51854">
        <ele>1637</ele>
        <time>2021-08-11T10:00:49.448Z</time>
      </trkpt>
      <trkpt lat="46.87317" lon="8.51852">
        <ele>1636</ele>
        <time>2021-08-11T10:00:50.448Z</time>
      </trkpt>
      <trkpt lat="46.87316" lon="8.51851">
        <ele>1636</ele>
        <time>2021-08-11T10:00:51.448Z</time>
      </trkpt>
      <trkpt lat="46.87315" lon="8.5185">
        <ele>1637</ele>
        <time>2021-08-11T10:00:52.449Z</time>
      </trkpt>
      <trkpt lat="46.87314" lon="8.51849">
        <ele>1637</ele>
        <time>2021-08-11T10:00:53.449Z</time>
      </trkpt>
      <trkpt lat="46.87314" lon="8.51848">
        <ele>1637</ele>
        <time>2021-08-11T10:00:54.448Z</time>
      </trkpt>
      <trkpt lat="46.87313" lon="8.51847">
        <ele>1637</ele>
        <time>2021-08-11T10:00:55.448Z</time>
      </trkpt>
      <trkpt lat="46.87313" lon="8.51846">
        <ele>1637</ele>
        <time>2021-08-11T10:00:56.448Z</time>
      </trkpt>
      <trkpt lat="46.87313" lon="8.51845">
        <ele>1637</ele>
        <time>2021-08-11T10:00:57.449Z</time>
      </trkpt>
      <trkpt lat="46.87313" lon="8.51844">
        <ele>1637</ele>
        <time>2021-08-11T10:00:58.449Z</time>
      </trkpt>
      <trkpt lat="46.87312" lon="8.51842">
        <ele>1637</ele>
        <time>2021-08-11T10:00:59.448Z</time>
      </trkpt>
      <trkpt lat="46.87312" lon="8.5184">
        <ele>1637</ele>
        <time>2021-08-11T10:01:00.448Z</time>
      </trkpt>
      <trkpt lat="46.87311" lon="8.51839">
        <ele>1637</ele>
        <time>2021-08-11T10:01:01.448Z</time>
      </trkpt>
      <trkpt lat="46.87311" lon="8.51837">
        <ele>1636</ele>
        <time>2021-08-11T10:01:02.448Z</time>
      </trkpt>
      <trkpt lat="46.8731" lon="8.51836">
        <ele>1636</ele>
        <time>2021-08-11T10:01:03.448Z</time>
      </trkpt>
      <trkpt lat="46.8731" lon="8.51835">
        <ele>1636</ele>
        <time>2021-08-11T10:01:04.448Z</time>
      </trkpt>
      <trkpt lat="46.87309" lon="8.51834">
        <ele>1636</ele>
        <time>2021-08-11T10:01:05.448Z</time>
      </trkpt>
      <trkpt lat="46.87309" lon="8.51832">
        <ele>1636</ele>
        <time>2021-08-11T10:01:06.448Z</time>
      </trkpt>
      <trkpt lat="46.87308" lon="8.51831">
        <ele>1636</ele>
        <time>2021-08-11T10:01:07.448Z</time>
      </trkpt>
      <trkpt lat="46.87308" lon="8.51829">
        <ele>1636</ele>
        <time>2021-08-11T10:01:08.448Z</time>
      </trkpt>
      <trkpt lat="46.87307" lon="8.51828">
        <ele>1636</ele>
        <time>2021-08-11T10:01:09.449Z</time>
      </trkpt>
      <trkpt lat="46.87306" lon="8.51826">
        <ele>1636</ele>
        <time>2021-08-11T10:01:10.448Z</time>
      </trkpt>
      <trkpt lat="46.87306" lon="8.51824">
        <ele>1636</ele>
        <time>2021-08-11T10:01:11.449Z</time>
      </trkpt>
      <trkpt lat="46.87305" lon="8.51823">
        <ele>1636</ele>
        <time>2021-08-11T10:01:12.449Z</time>
      </trkpt>
      <trkpt lat="46.87304" lon="8.51821">
        <ele>1637</ele>
        <time>2021-08-11T10:01:13.449Z</time>
      </trkpt>
      <trkpt lat="46.87303" lon="8.5182">
        <ele>1637</ele>
        <time>2021-08-11T10:01:14.448Z</time>
      </trkpt>
      <trkpt lat="46.87303" lon="8.51818">
        <ele>1638</ele>
        <time>2021-08-11T10:01:15.449Z</time>
      </trkpt>
      <trkpt lat="46.87302" lon="8.51817">
        <ele>1638</ele>
        <time>2021-08-11T10:01:16.449Z</time>
      </trkpt>
      <trkpt lat="46.87301" lon="8.51815">
        <ele>1639</ele>
        <time>2021-08-11T10:01:17.448Z</time>
      </trkpt>
      <trkpt lat="46.87301" lon="8.51813">
        <ele>1639</ele>
        <time>2021-08-11T10:01:18.449Z</time>
      </trkpt>
      <trkpt lat="46.873" lon="8.51812">
        <ele>1640</ele>
        <time>2021-08-11T10:01:19.449Z</time>
      </trkpt>
      <trkpt lat="46.873" lon="8.5181">
        <ele>1640</ele>
        <time>2021-08-11T10:01:20.449Z</time>
      </trkpt>
      <trkpt lat="46.873" lon="8.51809">
        <ele>1640</ele>
        <time>2021-08-11T10:01:21.449Z</time>
      </trkpt>
      <trkpt lat="46.873" lon="8.51808">
        <ele>1640</ele>
        <time>2021-08-11T10:01:22.449Z</time>
      </trkpt>
      <trkpt lat="46.873" lon="8.51806">
        <ele>1641</ele>
        <time>2021-08-11T10:01:23.449Z</time>
      </trkpt>
      <trkpt lat="46.873" lon="8.51804">
        <ele>1641</ele>
        <time>2021-08-11T10:01:24.449Z</time>
      </trkpt>
      <trkpt lat="46.873" lon="8.51802">
        <ele>1641</ele>
        <time>2021-08-11T10:01:25.449Z</time>
      </trkpt>
      <trkpt lat="46.87301" lon="8.518">
        <ele>1642</ele>
        <time>2021-08-11T10:01:26.448Z</time>
      </trkpt>
      <trkpt lat="46.87301" lon="8.51799">
        <ele>1642</ele>
        <time>2021-08-11T10:01:27.449Z</time>
      </trkpt>
      <trkpt lat="46.87301" lon="8.51797">
        <ele>1642</ele>
        <time>2021-08-11T10:01:28.448Z</time>
      </trkpt>
      <trkpt lat="46.873" lon="8.51796">
        <ele>1642</ele>
        <time>2021-08-11T10:01:29.449Z</time>
      </trkpt>
      <trkpt lat="46.873" lon="8.51795">
        <ele>1642</ele>
        <time>2021-08-11T10:01:30.449Z</time>
      </trkpt>
      <trkpt lat="46.87299" lon="8.51794">
        <ele>1641</ele>
        <time>2021-08-11T10:01:31.448Z</time>
      </trkpt>
      <trkpt lat="46.87298" lon="8.51794">
        <ele>1641</ele>
        <time>2021-08-11T10:01:32.449Z</time>
      </trkpt>
      <trkpt lat="46.87298" lon="8.51792">
        <ele>1640</ele>
        <time>2021-08-11T10:01:33.448Z</time>
      </trkpt>
      <trkpt lat="46.87297" lon="8.51791">
        <ele>1639</ele>
        <time>2021-08-11T10:01:34.449Z</time>
      </trkpt>
      <trkpt lat="46.87297" lon="8.51791">
        <ele>1639</ele>
        <time>2021-08-11T10:01:35.448Z</time>
      </trkpt>
      <trkpt lat="46.87296" lon="8.5179">
        <ele>1639</ele>
        <time>2021-08-11T10:01:36.449Z</time>
      </trkpt>
      <trkpt lat="46.87296" lon="8.51789">
        <ele>1639</ele>
        <time>2021-08-11T10:01:37.449Z</time>
      </trkpt>
      <trkpt lat="46.87295" lon="8.51788">
        <ele>1638</ele>
        <time>2021-08-11T10:01:38.449Z</time>
      </trkpt>
      <trkpt lat="46.87295" lon="8.51788">
        <ele>1637</ele>
        <time>2021-08-11T10:01:39.449Z</time>
      </trkpt>
      <trkpt lat="46.87295" lon="8.51787">
        <ele>1637</ele>
        <time>2021-08-11T10:01:40.448Z</time>
      </trkpt>
      <trkpt lat="46.87295" lon="8.51786">
        <ele>1637</ele>
        <time>2021-08-11T10:01:41.449Z</time>
      </trkpt>
      <trkpt lat="46.87295" lon="8.51785">
        <ele>1637</ele>
        <time>2021-08-11T10:01:42.449Z</time>
      </trkpt>
      <trkpt lat="46.87296" lon="8.51783">
        <ele>1637</ele>
        <time>2021-08-11T10:01:43.449Z</time>
      </trkpt>
      <trkpt lat="46.87296" lon="8.51782">
        <ele>1637</ele>
        <time>2021-08-11T10:01:44.448Z</time>
      </trkpt>
      <trkpt lat="46.87295" lon="8.51781">
        <ele>1637</ele>
        <time>2021-08-11T10:01:45.448Z</time>
      </trkpt>
      <trkpt lat="46.87294" lon="8.51781">
        <ele>1637</ele>
        <time>2021-08-11T10:01:46.449Z</time>
      </trkpt>
      <trkpt lat="46.87293" lon="8.51781">
        <ele>1637</ele>
        <time>2021-08-11T10:01:47.449Z</time>
      </trkpt>
      <trkpt lat="46.87293" lon="8.5178">
        <ele>1638</ele>
        <time>2021-08-11T10:01:48.449Z</time>
      </trkpt>
      <trkpt lat="46.87293" lon="8.51779">
        <ele>1638</ele>
        <time>2021-08-11T10:01:49.448Z</time>
      </trkpt>
      <trkpt lat="46.87293" lon="8.51778">
        <ele>1638</ele>
        <time>2021-08-11T10:01:50.449Z</time>
      </trkpt>
      <trkpt lat="46.87293" lon="8.51777">
        <ele>1639</ele>
        <time>2021-08-11T10:01:51.448Z</time>
      </trkpt>
      <trkpt lat="46.87292" lon="8.51776">
        <ele>1639</ele>
        <time>2021-08-11T10:01:52.448Z</time>
      </trkpt>
      <trkpt lat="46.87291" lon="8.51775">
        <ele>1639</ele>
        <time>2021-08-11T10:01:53.449Z</time>
      </trkpt>
      <trkpt lat="46.87291" lon="8.51775">
        <ele>1639</ele>
        <time>2021-08-11T10:01:54.449Z</time>
      </trkpt>
      <trkpt lat="46.87291" lon="8.51774">
        <ele>1639</ele>
        <time>2021-08-11T10:01:55.448Z</time>
      </trkpt>
      <trkpt lat="46.87291" lon="8.51772">
        <ele>1640</ele>
        <time>2021-08-11T10:01:56.449Z</time>
      </trkpt>
      <trkpt lat="46.87291" lon="8.5177">
        <ele>1640</ele>
        <time>2021-08-11T10:01:57.448Z</time>
      </trkpt>
      <trkpt lat="46.8729" lon="8.51769">
        <ele>1640</ele>
        <time>2021-08-11T10:01:58.449Z</time>
      </trkpt>
      <trkpt lat="46.87289" lon="8.51767">
        <ele>1640</ele>
        <time>2021-08-11T10:01:59.448Z</time>
      </trkpt>
      <trkpt lat="46.87288" lon="8.51766">
        <ele>1640</ele>
        <time>2021-08-11T10:02:00.448Z</time>
      </trkpt>
      <trkpt lat="46.87287" lon="8.51766">
        <ele>1639</ele>
        <time>2021-08-11T10:02:01.449Z</time>
      </trkpt>
      <trkpt lat="46.87286" lon="8.51766">
        <ele>1639</ele>
        <time>2021-08-11T10:02:02.449Z</time>
      </trkpt>
      <trkpt lat="46.87285" lon="8.51766">
        <ele>1638</ele>
        <time>2021-08-11T10:02:03.449Z</time>
      </trkpt>
      <trkpt lat="46.87285" lon="8.51765">
        <ele>1638</ele>
        <time>2021-08-11T10:02:04.448Z</time>
      </trkpt>
      <trkpt lat="46.87285" lon="8.51764">
        <ele>1638</ele>
        <time>2021-08-11T10:02:05.449Z</time>
      </trkpt>
      <trkpt lat="46.87285" lon="8.51763">
        <ele>1638</ele>
        <time>2021-08-11T10:02:06.449Z</time>
      </trkpt>
      <trkpt lat="46.87284" lon="8.51762">
        <ele>1638</ele>
        <time>2021-08-11T10:02:07.449Z</time>
      </trkpt>
      <trkpt lat="46.87284" lon="8.51761">
        <ele>1638</ele>
        <time>2021-08-11T10:02:08.449Z</time>
      </trkpt>
      <trkpt lat="46.87284" lon="8.5176">
        <ele>1638</ele>
        <time>2021-08-11T10:02:09.448Z</time>
      </trkpt>
      <trkpt lat="46.87284" lon="8.5176">
        <ele>1639</ele>
        <time>2021-08-11T10:02:10.449Z</time>
      </trkpt>
      <trkpt lat="46.87284" lon="8.51759">
        <ele>1639</ele>
        <time>2021-08-11T10:02:11.449Z</time>
      </trkpt>
      <trkpt lat="46.87284" lon="8.51758">
        <ele>1639</ele>
        <time>2021-08-11T10:02:12.449Z</time>
      </trkpt>
      <trkpt lat="46.87284" lon="8.51758">
        <ele>1639</ele>
        <time>2021-08-11T10:02:13.448Z</time>
      </trkpt>
      <trkpt lat="46.87284" lon="8.51757">
        <ele>1640</ele>
        <time>2021-08-11T10:02:14.449Z</time>
      </trkpt>
      <trkpt lat="46.87283" lon="8.51757">
        <ele>1640</ele>
        <time>2021-08-11T10:02:15.449Z</time>
      </trkpt>
      <trkpt lat="46.87281" lon="8.51758">
        <ele>1641</ele>
        <time>2021-08-11T10:02:16.450Z</time>
      </trkpt>
      <trkpt lat="46.87281" lon="8.51756">
        <ele>1641</ele>
        <time>2021-08-11T10:02:17.449Z</time>
      </trkpt>
      <trkpt lat="46.87281" lon="8.51756">
        <ele>1642</ele>
        <time>2021-08-11T10:02:18.449Z</time>
      </trkpt>
      <trkpt lat="46.87281" lon="8.51747">
        <ele>1649</ele>
        <time>2021-08-11T10:02:19.450Z</time>
      </trkpt>
      <trkpt lat="46.87281" lon="8.51747">
        <ele>1649</ele>
        <time>2021-08-11T10:02:20.451Z</time>
      </trkpt>
      <trkpt lat="46.87277" lon="8.51758">
        <ele>1649</ele>
        <time>2021-08-11T10:02:21.451Z</time>
      </trkpt>
      <trkpt lat="46.8728" lon="8.51758">
        <ele>1646</ele>
        <time>2021-08-11T10:02:22.451Z</time>
      </trkpt>
      <trkpt lat="46.87278" lon="8.51758">
        <ele>1645</ele>
        <time>2021-08-11T10:02:23.450Z</time>
      </trkpt>
      <trkpt lat="46.87277" lon="8.51759">
        <ele>1643</ele>
        <time>2021-08-11T10:02:24.450Z</time>
      </trkpt>
      <trkpt lat="46.87276" lon="8.51759">
        <ele>1643</ele>
        <time>2021-08-11T10:02:25.451Z</time>
      </trkpt>
      <trkpt lat="46.87277" lon="8.51759">
        <ele>1642</ele>
        <time>2021-08-11T10:02:26.450Z</time>
      </trkpt>
      <trkpt lat="46.87279" lon="8.51756">
        <ele>1642</ele>
        <time>2021-08-11T10:02:27.451Z</time>
      </trkpt>
      <trkpt lat="46.87279" lon="8.51755">
        <ele>1642</ele>
        <time>2021-08-11T10:02:28.451Z</time>
      </trkpt>
      <trkpt lat="46.87279" lon="8.51755">
        <ele>1641</ele>
        <time>2021-08-11T10:02:29.451Z</time>
      </trkpt>
      <trkpt lat="46.87279" lon="8.51755">
        <ele>1641</ele>
        <time>2021-08-11T10:02:30.451Z</time>
      </trkpt>
      <trkpt lat="46.87281" lon="8.51754">
        <ele>1639</ele>
        <time>2021-08-11T10:02:31.452Z</time>
      </trkpt>
      <trkpt lat="46.87281" lon="8.51754">
        <ele>1639</ele>
        <time>2021-08-11T10:02:32.451Z</time>
      </trkpt>
      <trkpt lat="46.87281" lon="8.51753">
        <ele>1640</ele>
        <time>2021-08-11T10:02:33.451Z</time>
      </trkpt>
      <trkpt lat="46.87282" lon="8.51752">
        <ele>1640</ele>
        <time>2021-08-11T10:02:34.451Z</time>
      </trkpt>
      <trkpt lat="46.87282" lon="8.51751">
        <ele>1640</ele>
        <time>2021-08-11T10:02:35.451Z</time>
      </trkpt>
      <trkpt lat="46.87282" lon="8.5175">
        <ele>1640</ele>
        <time>2021-08-11T10:02:36.452Z</time>
      </trkpt>
      <trkpt lat="46.87282" lon="8.51749">
        <ele>1640</ele>
        <time>2021-08-11T10:02:37.451Z</time>
      </trkpt>
      <trkpt lat="46.87282" lon="8.51748">
        <ele>1640</ele>
        <time>2021-08-11T10:02:38.451Z</time>
      </trkpt>
      <trkpt lat="46.87282" lon="8.51747">
        <ele>1640</ele>
        <time>2021-08-11T10:02:39.451Z</time>
      </trkpt>
      <trkpt lat="46.87282" lon="8.51746">
        <ele>1640</ele>
        <time>2021-08-11T10:02:40.452Z</time>
      </trkpt>
      <trkpt lat="46.87281" lon="8.51744">
        <ele>1640</ele>
        <time>2021-08-11T10:02:41.451Z</time>
      </trkpt>
      <trkpt lat="46.87281" lon="8.51743">
        <ele>1640</ele>
        <time>2021-08-11T10:02:42.451Z</time>
      </trkpt>
      <trkpt lat="46.8728" lon="8.51741">
        <ele>1641</ele>
        <time>2021-08-11T10:02:43.451Z</time>
      </trkpt>
      <trkpt lat="46.8728" lon="8.5174">
        <ele>1642</ele>
        <time>2021-08-11T10:02:44.451Z</time>
      </trkpt>
      <trkpt lat="46.87279" lon="8.51738">
        <ele>1642</ele>
        <time>2021-08-11T10:02:45.451Z</time>
      </trkpt>
      <trkpt lat="46.87278" lon="8.51737">
        <ele>1643</ele>
        <time>2021-08-11T10:02:46.451Z</time>
      </trkpt>
      <trkpt lat="46.87278" lon="8.51737">
        <ele>1643</ele>
        <time>2021-08-11T10:02:47.451Z</time>
      </trkpt>
      <trkpt lat="46.87277" lon="8.51735">
        <ele>1644</ele>
        <time>2021-08-11T10:02:48.451Z</time>
      </trkpt>
      <trkpt lat="46.87276" lon="8.51734">
        <ele>1644</ele>
        <time>2021-08-11T10:02:49.452Z</time>
      </trkpt>
      <trkpt lat="46.87276" lon="8.51733">
        <ele>1644</ele>
        <time>2021-08-11T10:02:50.452Z</time>
      </trkpt>
      <trkpt lat="46.87275" lon="8.51732">
        <ele>1644</ele>
        <time>2021-08-11T10:02:51.452Z</time>
      </trkpt>
      <trkpt lat="46.87275" lon="8.51731">
        <ele>1644</ele>
        <time>2021-08-11T10:02:52.451Z</time>
      </trkpt>
      <trkpt lat="46.87274" lon="8.5173">
        <ele>1644</ele>
        <time>2021-08-11T10:02:53.451Z</time>
      </trkpt>
      <trkpt lat="46.87274" lon="8.51729">
        <ele>1644</ele>
        <time>2021-08-11T10:02:54.451Z</time>
      </trkpt>
      <trkpt lat="46.87273" lon="8.51729">
        <ele>1643</ele>
        <time>2021-08-11T10:02:55.451Z</time>
      </trkpt>
      <trkpt lat="46.87272" lon="8.51728">
        <ele>1643</ele>
        <time>2021-08-11T10:02:56.451Z</time>
      </trkpt>
      <trkpt lat="46.87272" lon="8.51727">
        <ele>1643</ele>
        <time>2021-08-11T10:02:57.451Z</time>
      </trkpt>
      <trkpt lat="46.87271" lon="8.51727">
        <ele>1643</ele>
        <time>2021-08-11T10:02:58.452Z</time>
      </trkpt>
      <trkpt lat="46.87271" lon="8.51727">
        <ele>1643</ele>
        <time>2021-08-11T10:02:59.452Z</time>
      </trkpt>
      <trkpt lat="46.87271" lon="8.51727">
        <ele>1643</ele>
        <time>2021-08-11T10:03:00.452Z</time>
      </trkpt>
      <trkpt lat="46.8727" lon="8.51727">
        <ele>1643</ele>
        <time>2021-08-11T10:03:01.451Z</time>
      </trkpt>
      <trkpt lat="46.8727" lon="8.51728">
        <ele>1643</ele>
        <time>2021-08-11T10:03:02.452Z</time>
      </trkpt>
      <trkpt lat="46.87269" lon="8.51728">
        <ele>1643</ele>
        <time>2021-08-11T10:03:03.452Z</time>
      </trkpt>
      <trkpt lat="46.87269" lon="8.51729">
        <ele>1643</ele>
        <time>2021-08-11T10:03:04.451Z</time>
      </trkpt>
      <trkpt lat="46.87269" lon="8.5173">
        <ele>1643</ele>
        <time>2021-08-11T10:03:05.451Z</time>
      </trkpt>
      <trkpt lat="46.87271" lon="8.51727">
        <ele>1644</ele>
        <time>2021-08-11T10:03:06.452Z</time>
      </trkpt>
      <trkpt lat="46.87271" lon="8.51726">
        <ele>1644</ele>
        <time>2021-08-11T10:03:07.451Z</time>
      </trkpt>
      <trkpt lat="46.87271" lon="8.51725">
        <ele>1644</ele>
        <time>2021-08-11T10:03:08.452Z</time>
      </trkpt>
      <trkpt lat="46.8727" lon="8.51724">
        <ele>1644</ele>
        <time>2021-08-11T10:03:09.452Z</time>
      </trkpt>
      <trkpt lat="46.8727" lon="8.51723">
        <ele>1643</ele>
        <time>2021-08-11T10:03:10.451Z</time>
      </trkpt>
      <trkpt lat="46.8727" lon="8.51722">
        <ele>1643</ele>
        <time>2021-08-11T10:03:11.452Z</time>
      </trkpt>
      <trkpt lat="46.8727" lon="8.51722">
        <ele>1642</ele>
        <time>2021-08-11T10:03:12.452Z</time>
      </trkpt>
      <trkpt lat="46.8727" lon="8.51721">
        <ele>1642</ele>
        <time>2021-08-11T10:03:13.451Z</time>
      </trkpt>
      <trkpt lat="46.8727" lon="8.5172">
        <ele>1641</ele>
        <time>2021-08-11T10:03:14.452Z</time>
      </trkpt>
      <trkpt lat="46.8727" lon="8.51719">
        <ele>1641</ele>
        <time>2021-08-11T10:03:15.451Z</time>
      </trkpt>
      <trkpt lat="46.8727" lon="8.51718">
        <ele>1640</ele>
        <time>2021-08-11T10:03:16.452Z</time>
      </trkpt>
      <trkpt lat="46.87269" lon="8.51717">
        <ele>1640</ele>
        <time>2021-08-11T10:03:17.452Z</time>
      </trkpt>
      <trkpt lat="46.87269" lon="8.51716">
        <ele>1639</ele>
        <time>2021-08-11T10:03:18.452Z</time>
      </trkpt>
      <trkpt lat="46.87269" lon="8.51715">
        <ele>1639</ele>
        <time>2021-08-11T10:03:19.452Z</time>
      </trkpt>
      <trkpt lat="46.87269" lon="8.51714">
        <ele>1639</ele>
        <time>2021-08-11T10:03:20.452Z</time>
      </trkpt>
      <trkpt lat="46.87268" lon="8.51714">
        <ele>1639</ele>
        <time>2021-08-11T10:03:21.452Z</time>
      </trkpt>
      <trkpt lat="46.87267" lon="8.51711">
        <ele>1642</ele>
        <time>2021-08-11T10:03:22.453Z</time>
      </trkpt>
      <trkpt lat="46.87267" lon="8.51711">
        <ele>1643</ele>
        <time>2021-08-11T10:03:23.453Z</time>
      </trkpt>
      <trkpt lat="46.87267" lon="8.5171">
        <ele>1643</ele>
        <time>2021-08-11T10:03:24.452Z</time>
      </trkpt>
      <trkpt lat="46.87266" lon="8.51709">
        <ele>1646</ele>
        <time>2021-08-11T10:03:25.454Z</time>
      </trkpt>
      <trkpt lat="46.87266" lon="8.51708">
        <ele>1646</ele>
        <time>2021-08-11T10:03:26.454Z</time>
      </trkpt>
      <trkpt lat="46.87265" lon="8.51707">
        <ele>1646</ele>
        <time>2021-08-11T10:03:27.453Z</time>
      </trkpt>
      <trkpt lat="46.87264" lon="8.51706">
        <ele>1645</ele>
        <time>2021-08-11T10:03:28.454Z</time>
      </trkpt>
      <trkpt lat="46.87264" lon="8.51705">
        <ele>1645</ele>
        <time>2021-08-11T10:03:29.454Z</time>
      </trkpt>
      <trkpt lat="46.87263" lon="8.51705">
        <ele>1645</ele>
        <time>2021-08-11T10:03:30.454Z</time>
      </trkpt>
      <trkpt lat="46.87263" lon="8.51703">
        <ele>1645</ele>
        <time>2021-08-11T10:03:31.453Z</time>
      </trkpt>
      <trkpt lat="46.87262" lon="8.51702">
        <ele>1645</ele>
        <time>2021-08-11T10:03:32.453Z</time>
      </trkpt>
      <trkpt lat="46.87261" lon="8.51701">
        <ele>1645</ele>
        <time>2021-08-11T10:03:33.454Z</time>
      </trkpt>
      <trkpt lat="46.8726" lon="8.517">
        <ele>1644</ele>
        <time>2021-08-11T10:03:34.454Z</time>
      </trkpt>
      <trkpt lat="46.8726" lon="8.51699">
        <ele>1644</ele>
        <time>2021-08-11T10:03:35.454Z</time>
      </trkpt>
      <trkpt lat="46.87259" lon="8.51697">
        <ele>1643</ele>
        <time>2021-08-11T10:03:36.453Z</time>
      </trkpt>
      <trkpt lat="46.87258" lon="8.51696">
        <ele>1643</ele>
        <time>2021-08-11T10:03:37.454Z</time>
      </trkpt>
      <trkpt lat="46.87258" lon="8.51695">
        <ele>1643</ele>
        <time>2021-08-11T10:03:38.453Z</time>
      </trkpt>
      <trkpt lat="46.87257" lon="8.51695">
        <ele>1643</ele>
        <time>2021-08-11T10:03:39.454Z</time>
      </trkpt>
      <trkpt lat="46.87256" lon="8.51694">
        <ele>1642</ele>
        <time>2021-08-11T10:03:40.454Z</time>
      </trkpt>
      <trkpt lat="46.87255" lon="8.51693">
        <ele>1642</ele>
        <time>2021-08-11T10:03:41.454Z</time>
      </trkpt>
      <trkpt lat="46.87255" lon="8.51692">
        <ele>1641</ele>
        <time>2021-08-11T10:03:42.454Z</time>
      </trkpt>
      <trkpt lat="46.87254" lon="8.51692">
        <ele>1640</ele>
        <time>2021-08-11T10:03:43.453Z</time>
      </trkpt>
      <trkpt lat="46.87253" lon="8.51691">
        <ele>1639</ele>
        <time>2021-08-11T10:03:44.454Z</time>
      </trkpt>
      <trkpt lat="46.87252" lon="8.5169">
        <ele>1638</ele>
        <time>2021-08-11T10:03:45.454Z</time>
      </trkpt>
      <trkpt lat="46.87252" lon="8.51689">
        <ele>1638</ele>
        <time>2021-08-11T10:03:46.454Z</time>
      </trkpt>
      <trkpt lat="46.87251" lon="8.51689">
        <ele>1637</ele>
        <time>2021-08-11T10:03:47.454Z</time>
      </trkpt>
      <trkpt lat="46.87251" lon="8.5169">
        <ele>1637</ele>
        <time>2021-08-11T10:03:48.453Z</time>
      </trkpt>
      <trkpt lat="46.8725" lon="8.5169">
        <ele>1637</ele>
        <time>2021-08-11T10:03:49.454Z</time>
      </trkpt>
      <trkpt lat="46.8725" lon="8.51689">
        <ele>1637</ele>
        <time>2021-08-11T10:03:50.454Z</time>
      </trkpt>
      <trkpt lat="46.87249" lon="8.51688">
        <ele>1637</ele>
        <time>2021-08-11T10:03:51.453Z</time>
      </trkpt>
      <trkpt lat="46.87248" lon="8.51686">
        <ele>1637</ele>
        <time>2021-08-11T10:03:52.454Z</time>
      </trkpt>
      <trkpt lat="46.87247" lon="8.51686">
        <ele>1638</ele>
        <time>2021-08-11T10:03:53.454Z</time>
      </trkpt>
      <trkpt lat="46.87247" lon="8.51685">
        <ele>1638</ele>
        <time>2021-08-11T10:03:54.453Z</time>
      </trkpt>
      <trkpt lat="46.87246" lon="8.51683">
        <ele>1638</ele>
        <time>2021-08-11T10:03:55.454Z</time>
      </trkpt>
      <trkpt lat="46.87246" lon="8.51683">
        <ele>1639</ele>
        <time>2021-08-11T10:03:56.454Z</time>
      </trkpt>
      <trkpt lat="46.87245" lon="8.51683">
        <ele>1639</ele>
        <time>2021-08-11T10:03:57.454Z</time>
      </trkpt>
      <trkpt lat="46.87244" lon="8.51683">
        <ele>1639</ele>
        <time>2021-08-11T10:03:58.454Z</time>
      </trkpt>
      <trkpt lat="46.87243" lon="8.51682">
        <ele>1640</ele>
        <time>2021-08-11T10:03:59.454Z</time>
      </trkpt>
      <trkpt lat="46.87243" lon="8.51681">
        <ele>1640</ele>
        <time>2021-08-11T10:04:00.454Z</time>
      </trkpt>
      <trkpt lat="46.87241" lon="8.5168">
        <ele>1640</ele>
        <time>2021-08-11T10:04:01.454Z</time>
      </trkpt>
      <trkpt lat="46.87241" lon="8.5168">
        <ele>1640</ele>
        <time>2021-08-11T10:04:02.454Z</time>
      </trkpt>
      <trkpt lat="46.87239" lon="8.5168">
        <ele>1641</ele>
        <time>2021-08-11T10:04:03.454Z</time>
      </trkpt>
      <trkpt lat="46.87238" lon="8.51679">
        <ele>1641</ele>
        <time>2021-08-11T10:04:04.454Z</time>
      </trkpt>
      <trkpt lat="46.87237" lon="8.5168">
        <ele>1641</ele>
        <time>2021-08-11T10:04:05.454Z</time>
      </trkpt>
      <trkpt lat="46.87236" lon="8.5168">
        <ele>1640</ele>
        <time>2021-08-11T10:04:06.454Z</time>
      </trkpt>
      <trkpt lat="46.87234" lon="8.51679">
        <ele>1640</ele>
        <time>2021-08-11T10:04:07.454Z</time>
      </trkpt>
      <trkpt lat="46.87233" lon="8.51679">
        <ele>1640</ele>
        <time>2021-08-11T10:04:08.453Z</time>
      </trkpt>
      <trkpt lat="46.87233" lon="8.51678">
        <ele>1640</ele>
        <time>2021-08-11T10:04:09.454Z</time>
      </trkpt>
      <trkpt lat="46.87232" lon="8.51678">
        <ele>1640</ele>
        <time>2021-08-11T10:04:10.454Z</time>
      </trkpt>
      <trkpt lat="46.87232" lon="8.51677">
        <ele>1640</ele>
        <time>2021-08-11T10:04:11.454Z</time>
      </trkpt>
      <trkpt lat="46.87232" lon="8.51677">
        <ele>1640</ele>
        <time>2021-08-11T10:04:12.453Z</time>
      </trkpt>
      <trkpt lat="46.87232" lon="8.51677">
        <ele>1640</ele>
        <time>2021-08-11T10:04:13.454Z</time>
      </trkpt>
      <trkpt lat="46.87231" lon="8.51678">
        <ele>1643</ele>
        <time>2021-08-11T10:04:14.454Z</time>
      </trkpt>
      <trkpt lat="46.87231" lon="8.51677">
        <ele>1643</ele>
        <time>2021-08-11T10:04:15.454Z</time>
      </trkpt>
      <trkpt lat="46.87231" lon="8.51677">
        <ele>1642</ele>
        <time>2021-08-11T10:04:16.453Z</time>
      </trkpt>
      <trkpt lat="46.8723" lon="8.51676">
        <ele>1642</ele>
        <time>2021-08-11T10:04:17.454Z</time>
      </trkpt>
      <trkpt lat="46.87229" lon="8.51676">
        <ele>1642</ele>
        <time>2021-08-11T10:04:18.454Z</time>
      </trkpt>
      <trkpt lat="46.87228" lon="8.51675">
        <ele>1641</ele>
        <time>2021-08-11T10:04:19.453Z</time>
      </trkpt>
      <trkpt lat="46.87227" lon="8.51676">
        <ele>1640</ele>
        <time>2021-08-11T10:04:20.453Z</time>
      </trkpt>
      <trkpt lat="46.87226" lon="8.51676">
        <ele>1640</ele>
        <time>2021-08-11T10:04:21.453Z</time>
      </trkpt>
      <trkpt lat="46.87225" lon="8.51675">
        <ele>1639</ele>
        <time>2021-08-11T10:04:22.453Z</time>
      </trkpt>
      <trkpt lat="46.87225" lon="8.51674">
        <ele>1639</ele>
        <time>2021-08-11T10:04:23.454Z</time>
      </trkpt>
      <trkpt lat="46.87224" lon="8.51673">
        <ele>1638</ele>
        <time>2021-08-11T10:04:24.454Z</time>
      </trkpt>
      <trkpt lat="46.87224" lon="8.51672">
        <ele>1638</ele>
        <time>2021-08-11T10:04:25.454Z</time>
      </trkpt>
      <trkpt lat="46.87223" lon="8.51671">
        <ele>1637</ele>
        <time>2021-08-11T10:04:26.453Z</time>
      </trkpt>
      <trkpt lat="46.87222" lon="8.5167">
        <ele>1637</ele>
        <time>2021-08-11T10:04:27.454Z</time>
      </trkpt>
      <trkpt lat="46.87221" lon="8.5167">
        <ele>1636</ele>
        <time>2021-08-11T10:04:28.454Z</time>
      </trkpt>
      <trkpt lat="46.87221" lon="8.5167">
        <ele>1635</ele>
        <time>2021-08-11T10:04:29.454Z</time>
      </trkpt>
      <trkpt lat="46.87221" lon="8.51669">
        <ele>1634</ele>
        <time>2021-08-11T10:04:30.453Z</time>
      </trkpt>
      <trkpt lat="46.8722" lon="8.51668">
        <ele>1633</ele>
        <time>2021-08-11T10:04:31.453Z</time>
      </trkpt>
      <trkpt lat="46.8722" lon="8.51667">
        <ele>1632</ele>
        <time>2021-08-11T10:04:32.453Z</time>
      </trkpt>
      <trkpt lat="46.8722" lon="8.51667">
        <ele>1632</ele>
        <time>2021-08-11T10:04:33.454Z</time>
      </trkpt>
      <trkpt lat="46.87219" lon="8.51665">
        <ele>1631</ele>
        <time>2021-08-11T10:04:34.454Z</time>
      </trkpt>
      <trkpt lat="46.87219" lon="8.51664">
        <ele>1631</ele>
        <time>2021-08-11T10:04:35.454Z</time>
      </trkpt>
      <trkpt lat="46.87218" lon="8.51663">
        <ele>1630</ele>
        <time>2021-08-11T10:04:36.454Z</time>
      </trkpt>
      <trkpt lat="46.87218" lon="8.51661">
        <ele>1630</ele>
        <time>2021-08-11T10:04:37.453Z</time>
      </trkpt>
      <trkpt lat="46.87218" lon="8.5166">
        <ele>1630</ele>
        <time>2021-08-11T10:04:38.454Z</time>
      </trkpt>
      <trkpt lat="46.87217" lon="8.51659">
        <ele>1630</ele>
        <time>2021-08-11T10:04:39.454Z</time>
      </trkpt>
      <trkpt lat="46.87217" lon="8.51658">
        <ele>1630</ele>
        <time>2021-08-11T10:04:40.454Z</time>
      </trkpt>
      <trkpt lat="46.87216" lon="8.51657">
        <ele>1630</ele>
        <time>2021-08-11T10:04:41.454Z</time>
      </trkpt>
      <trkpt lat="46.87216" lon="8.51656">
        <ele>1630</ele>
        <time>2021-08-11T10:04:42.453Z</time>
      </trkpt>
      <trkpt lat="46.87215" lon="8.51655">
        <ele>1629</ele>
        <time>2021-08-11T10:04:43.453Z</time>
      </trkpt>
      <trkpt lat="46.87215" lon="8.51654">
        <ele>1629</ele>
        <time>2021-08-11T10:04:44.454Z</time>
      </trkpt>
      <trkpt lat="46.87214" lon="8.51653">
        <ele>1630</ele>
        <time>2021-08-11T10:04:45.454Z</time>
      </trkpt>
      <trkpt lat="46.87212" lon="8.51652">
        <ele>1629</ele>
        <time>2021-08-11T10:04:46.454Z</time>
      </trkpt>
      <trkpt lat="46.87211" lon="8.51651">
        <ele>1630</ele>
        <time>2021-08-11T10:04:47.454Z</time>
      </trkpt>
      <trkpt lat="46.87211" lon="8.5165">
        <ele>1630</ele>
        <time>2021-08-11T10:04:48.453Z</time>
      </trkpt>
      <trkpt lat="46.8721" lon="8.51648">
        <ele>1630</ele>
        <time>2021-08-11T10:04:49.454Z</time>
      </trkpt>
      <trkpt lat="46.8721" lon="8.51648">
        <ele>1631</ele>
        <time>2021-08-11T10:04:50.454Z</time>
      </trkpt>
      <trkpt lat="46.87209" lon="8.51647">
        <ele>1631</ele>
        <time>2021-08-11T10:04:51.454Z</time>
      </trkpt>
      <trkpt lat="46.87208" lon="8.51646">
        <ele>1631</ele>
        <time>2021-08-11T10:04:52.454Z</time>
      </trkpt>
      <trkpt lat="46.87208" lon="8.51644">
        <ele>1631</ele>
        <time>2021-08-11T10:04:53.453Z</time>
      </trkpt>
      <trkpt lat="46.87207" lon="8.51643">
        <ele>1631</ele>
        <time>2021-08-11T10:04:54.454Z</time>
      </trkpt>
      <trkpt lat="46.87207" lon="8.51642">
        <ele>1630</ele>
        <time>2021-08-11T10:04:55.454Z</time>
      </trkpt>
      <trkpt lat="46.87206" lon="8.51642">
        <ele>1630</ele>
        <time>2021-08-11T10:04:56.454Z</time>
      </trkpt>
      <trkpt lat="46.87206" lon="8.5164">
        <ele>1630</ele>
        <time>2021-08-11T10:04:57.454Z</time>
      </trkpt>
      <trkpt lat="46.87205" lon="8.51639">
        <ele>1630</ele>
        <time>2021-08-11T10:04:58.453Z</time>
      </trkpt>
      <trkpt lat="46.87205" lon="8.51638">
        <ele>1630</ele>
        <time>2021-08-11T10:04:59.453Z</time>
      </trkpt>
      <trkpt lat="46.87204" lon="8.51637">
        <ele>1629</ele>
        <time>2021-08-11T10:05:00.453Z</time>
      </trkpt>
      <trkpt lat="46.87203" lon="8.51636">
        <ele>1629</ele>
        <time>2021-08-11T10:05:01.453Z</time>
      </trkpt>
      <trkpt lat="46.87203" lon="8.51635">
        <ele>1629</ele>
        <time>2021-08-11T10:05:02.454Z</time>
      </trkpt>
      <trkpt lat="46.87203" lon="8.51634">
        <ele>1629</ele>
        <time>2021-08-11T10:05:03.454Z</time>
      </trkpt>
      <trkpt lat="46.87202" lon="8.51633">
        <ele>1629</ele>
        <time>2021-08-11T10:05:04.454Z</time>
      </trkpt>
      <trkpt lat="46.87202" lon="8.51632">
        <ele>1628</ele>
        <time>2021-08-11T10:05:05.454Z</time>
      </trkpt>
      <trkpt lat="46.87201" lon="8.51632">
        <ele>1628</ele>
        <time>2021-08-11T10:05:06.453Z</time>
      </trkpt>
      <trkpt lat="46.872" lon="8.51631">
        <ele>1628</ele>
        <time>2021-08-11T10:05:07.454Z</time>
      </trkpt>
      <trkpt lat="46.87199" lon="8.5163">
        <ele>1628</ele>
        <time>2021-08-11T10:05:08.454Z</time>
      </trkpt>
      <trkpt lat="46.87199" lon="8.51629">
        <ele>1628</ele>
        <time>2021-08-11T10:05:09.454Z</time>
      </trkpt>
      <trkpt lat="46.87198" lon="8.51628">
        <ele>1628</ele>
        <time>2021-08-11T10:05:10.454Z</time>
      </trkpt>
      <trkpt lat="46.87197" lon="8.51626">
        <ele>1628</ele>
        <time>2021-08-11T10:05:11.453Z</time>
      </trkpt>
      <trkpt lat="46.87197" lon="8.51624">
        <ele>1628</ele>
        <time>2021-08-11T10:05:12.454Z</time>
      </trkpt>
      <trkpt lat="46.87197" lon="8.51622">
        <ele>1628</ele>
        <time>2021-08-11T10:05:13.454Z</time>
      </trkpt>
      <trkpt lat="46.87196" lon="8.51621">
        <ele>1628</ele>
        <time>2021-08-11T10:05:14.454Z</time>
      </trkpt>
      <trkpt lat="46.87195" lon="8.51621">
        <ele>1628</ele>
        <time>2021-08-11T10:05:15.454Z</time>
      </trkpt>
      <trkpt lat="46.87195" lon="8.51621">
        <ele>1628</ele>
        <time>2021-08-11T10:05:16.454Z</time>
      </trkpt>
      <trkpt lat="46.87194" lon="8.51619">
        <ele>1628</ele>
        <time>2021-08-11T10:05:17.454Z</time>
      </trkpt>
      <trkpt lat="46.87193" lon="8.51618">
        <ele>1628</ele>
        <time>2021-08-11T10:05:18.454Z</time>
      </trkpt>
      <trkpt lat="46.87191" lon="8.51617">
        <ele>1627</ele>
        <time>2021-08-11T10:05:19.453Z</time>
      </trkpt>
      <trkpt lat="46.8719" lon="8.51616">
        <ele>1627</ele>
        <time>2021-08-11T10:05:20.454Z</time>
      </trkpt>
      <trkpt lat="46.87189" lon="8.51615">
        <ele>1626</ele>
        <time>2021-08-11T10:05:21.454Z</time>
      </trkpt>
      <trkpt lat="46.87189" lon="8.51615">
        <ele>1626</ele>
        <time>2021-08-11T10:05:22.453Z</time>
      </trkpt>
      <trkpt lat="46.87188" lon="8.51615">
        <ele>1626</ele>
        <time>2021-08-11T10:05:23.454Z</time>
      </trkpt>
      <trkpt lat="46.87187" lon="8.51616">
        <ele>1625</ele>
        <time>2021-08-11T10:05:24.454Z</time>
      </trkpt>
      <trkpt lat="46.87186" lon="8.51615">
        <ele>1625</ele>
        <time>2021-08-11T10:05:25.454Z</time>
      </trkpt>
      <trkpt lat="46.87185" lon="8.51615">
        <ele>1625</ele>
        <time>2021-08-11T10:05:26.454Z</time>
      </trkpt>
      <trkpt lat="46.87184" lon="8.51614">
        <ele>1625</ele>
        <time>2021-08-11T10:05:27.453Z</time>
      </trkpt>
      <trkpt lat="46.87183" lon="8.51614">
        <ele>1625</ele>
        <time>2021-08-11T10:05:28.454Z</time>
      </trkpt>
      <trkpt lat="46.87182" lon="8.51613">
        <ele>1625</ele>
        <time>2021-08-11T10:05:29.454Z</time>
      </trkpt>
      <trkpt lat="46.87181" lon="8.51612">
        <ele>1625</ele>
        <time>2021-08-11T10:05:30.454Z</time>
      </trkpt>
      <trkpt lat="46.8718" lon="8.51611">
        <ele>1626</ele>
        <time>2021-08-11T10:05:31.454Z</time>
      </trkpt>
      <trkpt lat="46.87179" lon="8.5161">
        <ele>1626</ele>
        <time>2021-08-11T10:05:32.453Z</time>
      </trkpt>
      <trkpt lat="46.87178" lon="8.51609">
        <ele>1626</ele>
        <time>2021-08-11T10:05:33.454Z</time>
      </trkpt>
      <trkpt lat="46.87177" lon="8.51608">
        <ele>1626</ele>
        <time>2021-08-11T10:05:34.454Z</time>
      </trkpt>
      <trkpt lat="46.87176" lon="8.51607">
        <ele>1626</ele>
        <time>2021-08-11T10:05:35.454Z</time>
      </trkpt>
      <trkpt lat="46.87175" lon="8.51605">
        <ele>1626</ele>
        <time>2021-08-11T10:05:36.454Z</time>
      </trkpt>
      <trkpt lat="46.87174" lon="8.51604">
        <ele>1626</ele>
        <time>2021-08-11T10:05:37.453Z</time>
      </trkpt>
      <trkpt lat="46.87173" lon="8.51603">
        <ele>1625</ele>
        <time>2021-08-11T10:05:38.454Z</time>
      </trkpt>
      <trkpt lat="46.87172" lon="8.51601">
        <ele>1625</ele>
        <time>2021-08-11T10:05:39.454Z</time>
      </trkpt>
      <trkpt lat="46.87171" lon="8.516">
        <ele>1625</ele>
        <time>2021-08-11T10:05:40.454Z</time>
      </trkpt>
      <trkpt lat="46.8717" lon="8.51599">
        <ele>1625</ele>
        <time>2021-08-11T10:05:41.453Z</time>
      </trkpt>
      <trkpt lat="46.87169" lon="8.51597">
        <ele>1625</ele>
        <time>2021-08-11T10:05:42.454Z</time>
      </trkpt>
      <trkpt lat="46.87168" lon="8.51596">
        <ele>1625</ele>
        <time>2021-08-11T10:05:43.454Z</time>
      </trkpt>
      <trkpt lat="46.87167" lon="8.51595">
        <ele>1625</ele>
        <time>2021-08-11T10:05:44.454Z</time>
      </trkpt>
      <trkpt lat="46.87166" lon="8.51593">
        <ele>1624</ele>
        <time>2021-08-11T10:05:45.454Z</time>
      </trkpt>
      <trkpt lat="46.87165" lon="8.51592">
        <ele>1624</ele>
        <time>2021-08-11T10:05:46.453Z</time>
      </trkpt>
      <trkpt lat="46.87165" lon="8.51591">
        <ele>1624</ele>
        <time>2021-08-11T10:05:47.454Z</time>
      </trkpt>
      <trkpt lat="46.87164" lon="8.51591">
        <ele>1624</ele>
        <time>2021-08-11T10:05:48.454Z</time>
      </trkpt>
      <trkpt lat="46.87163" lon="8.5159">
        <ele>1625</ele>
        <time>2021-08-11T10:05:49.454Z</time>
      </trkpt>
      <trkpt lat="46.87162" lon="8.51589">
        <ele>1625</ele>
        <time>2021-08-11T10:05:50.453Z</time>
      </trkpt>
      <trkpt lat="46.87161" lon="8.51588">
        <ele>1625</ele>
        <time>2021-08-11T10:05:51.454Z</time>
      </trkpt>
      <trkpt lat="46.87161" lon="8.51587">
        <ele>1625</ele>
        <time>2021-08-11T10:05:52.454Z</time>
      </trkpt>
      <trkpt lat="46.8716" lon="8.51586">
        <ele>1625</ele>
        <time>2021-08-11T10:05:53.454Z</time>
      </trkpt>
      <trkpt lat="46.87159" lon="8.51585">
        <ele>1625</ele>
        <time>2021-08-11T10:05:54.454Z</time>
      </trkpt>
      <trkpt lat="46.87158" lon="8.51584">
        <ele>1624</ele>
        <time>2021-08-11T10:05:55.453Z</time>
      </trkpt>
      <trkpt lat="46.87158" lon="8.51584">
        <ele>1623</ele>
        <time>2021-08-11T10:05:56.454Z</time>
      </trkpt>
      <trkpt lat="46.87157" lon="8.51583">
        <ele>1622</ele>
        <time>2021-08-11T10:05:57.454Z</time>
      </trkpt>
      <trkpt lat="46.87156" lon="8.51583">
        <ele>1621</ele>
        <time>2021-08-11T10:05:58.454Z</time>
      </trkpt>
      <trkpt lat="46.87155" lon="8.51582">
        <ele>1620</ele>
        <time>2021-08-11T10:05:59.453Z</time>
      </trkpt>
      <trkpt lat="46.87154" lon="8.51581">
        <ele>1619</ele>
        <time>2021-08-11T10:06:00.454Z</time>
      </trkpt>
      <trkpt lat="46.87154" lon="8.5158">
        <ele>1618</ele>
        <time>2021-08-11T10:06:01.454Z</time>
      </trkpt>
      <trkpt lat="46.87153" lon="8.51578">
        <ele>1617</ele>
        <time>2021-08-11T10:06:02.454Z</time>
      </trkpt>
      <trkpt lat="46.87152" lon="8.51577">
        <ele>1616</ele>
        <time>2021-08-11T10:06:03.454Z</time>
      </trkpt>
      <trkpt lat="46.87151" lon="8.51576">
        <ele>1615</ele>
        <time>2021-08-11T10:06:04.453Z</time>
      </trkpt>
      <trkpt lat="46.87151" lon="8.51575">
        <ele>1615</ele>
        <time>2021-08-11T10:06:05.454Z</time>
      </trkpt>
      <trkpt lat="46.8715" lon="8.51574">
        <ele>1614</ele>
        <time>2021-08-11T10:06:06.454Z</time>
      </trkpt>
      <trkpt lat="46.87149" lon="8.51572">
        <ele>1614</ele>
        <time>2021-08-11T10:06:07.454Z</time>
      </trkpt>
      <trkpt lat="46.87148" lon="8.5157">
        <ele>1613</ele>
        <time>2021-08-11T10:06:08.453Z</time>
      </trkpt>
      <trkpt lat="46.87147" lon="8.51569">
        <ele>1612</ele>
        <time>2021-08-11T10:06:09.454Z</time>
      </trkpt>
      <trkpt lat="46.87146" lon="8.51568">
        <ele>1612</ele>
        <time>2021-08-11T10:06:10.454Z</time>
      </trkpt>
      <trkpt lat="46.87145" lon="8.51567">
        <ele>1612</ele>
        <time>2021-08-11T10:06:11.454Z</time>
      </trkpt>
      <trkpt lat="46.87144" lon="8.51565">
        <ele>1612</ele>
        <time>2021-08-11T10:06:12.454Z</time>
      </trkpt>
      <trkpt lat="46.87143" lon="8.51564">
        <ele>1612</ele>
        <time>2021-08-11T10:06:13.453Z</time>
      </trkpt>
      <trkpt lat="46.87142" lon="8.51563">
        <ele>1612</ele>
        <time>2021-08-11T10:06:14.453Z</time>
      </trkpt>
      <trkpt lat="46.87141" lon="8.51562">
        <ele>1612</ele>
        <time>2021-08-11T10:06:15.454Z</time>
      </trkpt>
      <trkpt lat="46.8714" lon="8.51561">
        <ele>1612</ele>
        <time>2021-08-11T10:06:16.454Z</time>
      </trkpt>
      <trkpt lat="46.87139" lon="8.51561">
        <ele>1612</ele>
        <time>2021-08-11T10:06:17.454Z</time>
      </trkpt>
      <trkpt lat="46.87138" lon="8.5156">
        <ele>1611</ele>
        <time>2021-08-11T10:06:18.453Z</time>
      </trkpt>
      <trkpt lat="46.87137" lon="8.51559">
        <ele>1611</ele>
        <time>2021-08-11T10:06:19.453Z</time>
      </trkpt>
      <trkpt lat="46.87136" lon="8.51558">
        <ele>1611</ele>
        <time>2021-08-11T10:06:20.453Z</time>
      </trkpt>
      <trkpt lat="46.87134" lon="8.51557">
        <ele>1611</ele>
        <time>2021-08-11T10:06:21.453Z</time>
      </trkpt>
      <trkpt lat="46.87133" lon="8.51556">
        <ele>1611</ele>
        <time>2021-08-11T10:06:22.453Z</time>
      </trkpt>
      <trkpt lat="46.87132" lon="8.51554">
        <ele>1611</ele>
        <time>2021-08-11T10:06:23.453Z</time>
      </trkpt>
      <trkpt lat="46.87131" lon="8.51552">
        <ele>1611</ele>
        <time>2021-08-11T10:06:24.453Z</time>
      </trkpt>
      <trkpt lat="46.8713" lon="8.51552">
        <ele>1610</ele>
        <time>2021-08-11T10:06:25.454Z</time>
      </trkpt>
      <trkpt lat="46.87128" lon="8.51551">
        <ele>1609</ele>
        <time>2021-08-11T10:06:26.454Z</time>
      </trkpt>
      <trkpt lat="46.87127" lon="8.51549">
        <ele>1609</ele>
        <time>2021-08-11T10:06:27.454Z</time>
      </trkpt>
      <trkpt lat="46.87126" lon="8.51549">
        <ele>1608</ele>
        <time>2021-08-11T10:06:28.453Z</time>
      </trkpt>
      <trkpt lat="46.87126" lon="8.51548">
        <ele>1607</ele>
        <time>2021-08-11T10:06:29.454Z</time>
      </trkpt>
      <trkpt lat="46.87125" lon="8.51548">
        <ele>1607</ele>
        <time>2021-08-11T10:06:30.454Z</time>
      </trkpt>
      <trkpt lat="46.87125" lon="8.51547">
        <ele>1607</ele>
        <time>2021-08-11T10:06:31.454Z</time>
      </trkpt>
      <trkpt lat="46.87123" lon="8.51545">
        <ele>1606</ele>
        <time>2021-08-11T10:06:32.454Z</time>
      </trkpt>
      <trkpt lat="46.87122" lon="8.51544">
        <ele>1606</ele>
        <time>2021-08-11T10:06:33.453Z</time>
      </trkpt>
      <trkpt lat="46.87122" lon="8.51544">
        <ele>1606</ele>
        <time>2021-08-11T10:06:34.454Z</time>
      </trkpt>
      <trkpt lat="46.8712" lon="8.51543">
        <ele>1606</ele>
        <time>2021-08-11T10:06:35.454Z</time>
      </trkpt>
      <trkpt lat="46.8712" lon="8.51543">
        <ele>1605</ele>
        <time>2021-08-11T10:06:36.454Z</time>
      </trkpt>
      <trkpt lat="46.87118" lon="8.51544">
        <ele>1605</ele>
        <time>2021-08-11T10:06:37.453Z</time>
      </trkpt>
      <trkpt lat="46.87117" lon="8.51544">
        <ele>1606</ele>
        <time>2021-08-11T10:06:38.453Z</time>
      </trkpt>
      <trkpt lat="46.87116" lon="8.51544">
        <ele>1606</ele>
        <time>2021-08-11T10:06:39.454Z</time>
      </trkpt>
      <trkpt lat="46.87115" lon="8.51543">
        <ele>1606</ele>
        <time>2021-08-11T10:06:40.454Z</time>
      </trkpt>
      <trkpt lat="46.87113" lon="8.51543">
        <ele>1606</ele>
        <time>2021-08-11T10:06:41.454Z</time>
      </trkpt>
      <trkpt lat="46.87113" lon="8.51543">
        <ele>1606</ele>
        <time>2021-08-11T10:06:42.453Z</time>
      </trkpt>
      <trkpt lat="46.87112" lon="8.51543">
        <ele>1606</ele>
        <time>2021-08-11T10:06:43.454Z</time>
      </trkpt>
      <trkpt lat="46.87111" lon="8.51542">
        <ele>1606</ele>
        <time>2021-08-11T10:06:44.454Z</time>
      </trkpt>
      <trkpt lat="46.8711" lon="8.51541">
        <ele>1606</ele>
        <time>2021-08-11T10:06:45.454Z</time>
      </trkpt>
      <trkpt lat="46.8711" lon="8.51541">
        <ele>1606</ele>
        <time>2021-08-11T10:06:46.453Z</time>
      </trkpt>
      <trkpt lat="46.87109" lon="8.5154">
        <ele>1606</ele>
        <time>2021-08-11T10:06:47.453Z</time>
      </trkpt>
      <trkpt lat="46.87108" lon="8.5154">
        <ele>1606</ele>
        <time>2021-08-11T10:06:48.454Z</time>
      </trkpt>
      <trkpt lat="46.87108" lon="8.51539">
        <ele>1606</ele>
        <time>2021-08-11T10:06:49.454Z</time>
      </trkpt>
      <trkpt lat="46.87107" lon="8.51538">
        <ele>1605</ele>
        <time>2021-08-11T10:06:50.454Z</time>
      </trkpt>
      <trkpt lat="46.87105" lon="8.51537">
        <ele>1605</ele>
        <time>2021-08-11T10:06:51.453Z</time>
      </trkpt>
      <trkpt lat="46.87105" lon="8.51536">
        <ele>1605</ele>
        <time>2021-08-11T10:06:52.454Z</time>
      </trkpt>
      <trkpt lat="46.87104" lon="8.51534">
        <ele>1604</ele>
        <time>2021-08-11T10:06:53.454Z</time>
      </trkpt>
      <trkpt lat="46.87104" lon="8.51533">
        <ele>1604</ele>
        <time>2021-08-11T10:06:54.454Z</time>
      </trkpt>
      <trkpt lat="46.87103" lon="8.51532">
        <ele>1603</ele>
        <time>2021-08-11T10:06:55.453Z</time>
      </trkpt>
      <trkpt lat="46.87104" lon="8.51531">
        <ele>1603</ele>
        <time>2021-08-11T10:06:56.453Z</time>
      </trkpt>
      <trkpt lat="46.87104" lon="8.51531">
        <ele>1603</ele>
        <time>2021-08-11T10:06:57.454Z</time>
      </trkpt>
      <trkpt lat="46.87103" lon="8.51531">
        <ele>1602</ele>
        <time>2021-08-11T10:06:58.454Z</time>
      </trkpt>
      <trkpt lat="46.87102" lon="8.5153">
        <ele>1602</ele>
        <time>2021-08-11T10:06:59.454Z</time>
      </trkpt>
      <trkpt lat="46.87102" lon="8.51528">
        <ele>1601</ele>
        <time>2021-08-11T10:07:00.453Z</time>
      </trkpt>
      <trkpt lat="46.87102" lon="8.51526">
        <ele>1601</ele>
        <time>2021-08-11T10:07:01.454Z</time>
      </trkpt>
      <trkpt lat="46.87101" lon="8.51525">
        <ele>1601</ele>
        <time>2021-08-11T10:07:02.454Z</time>
      </trkpt>
      <trkpt lat="46.87101" lon="8.51524">
        <ele>1600</ele>
        <time>2021-08-11T10:07:03.454Z</time>
      </trkpt>
      <trkpt lat="46.871" lon="8.51523">
        <ele>1600</ele>
        <time>2021-08-11T10:07:04.453Z</time>
      </trkpt>
      <trkpt lat="46.871" lon="8.51521">
        <ele>1599</ele>
        <time>2021-08-11T10:07:05.453Z</time>
      </trkpt>
      <trkpt lat="46.871" lon="8.51521">
        <ele>1599</ele>
        <time>2021-08-11T10:07:06.454Z</time>
      </trkpt>
      <trkpt lat="46.871" lon="8.51521">
        <ele>1599</ele>
        <time>2021-08-11T10:07:07.454Z</time>
      </trkpt>
      <trkpt lat="46.87099" lon="8.5152">
        <ele>1599</ele>
        <time>2021-08-11T10:07:08.454Z</time>
      </trkpt>
      <trkpt lat="46.87098" lon="8.51519">
        <ele>1599</ele>
        <time>2021-08-11T10:07:09.453Z</time>
      </trkpt>
      <trkpt lat="46.87098" lon="8.51518">
        <ele>1599</ele>
        <time>2021-08-11T10:07:10.454Z</time>
      </trkpt>
      <trkpt lat="46.87097" lon="8.51518">
        <ele>1598</ele>
        <time>2021-08-11T10:07:11.454Z</time>
      </trkpt>
      <trkpt lat="46.87097" lon="8.51516">
        <ele>1598</ele>
        <time>2021-08-11T10:07:12.454Z</time>
      </trkpt>
      <trkpt lat="46.87096" lon="8.51516">
        <ele>1598</ele>
        <time>2021-08-11T10:07:13.454Z</time>
      </trkpt>
      <trkpt lat="46.87096" lon="8.51515">
        <ele>1598</ele>
        <time>2021-08-11T10:07:14.453Z</time>
      </trkpt>
      <trkpt lat="46.87095" lon="8.51514">
        <ele>1598</ele>
        <time>2021-08-11T10:07:15.454Z</time>
      </trkpt>
      <trkpt lat="46.87095" lon="8.51514">
        <ele>1598</ele>
        <time>2021-08-11T10:07:16.454Z</time>
      </trkpt>
      <trkpt lat="46.87094" lon="8.51513">
        <ele>1598</ele>
        <time>2021-08-11T10:07:17.454Z</time>
      </trkpt>
      <trkpt lat="46.87093" lon="8.51511">
        <ele>1598</ele>
        <time>2021-08-11T10:07:18.453Z</time>
      </trkpt>
      <trkpt lat="46.87092" lon="8.5151">
        <ele>1597</ele>
        <time>2021-08-11T10:07:19.454Z</time>
      </trkpt>
      <trkpt lat="46.87091" lon="8.51509">
        <ele>1597</ele>
        <time>2021-08-11T10:07:20.454Z</time>
      </trkpt>
      <trkpt lat="46.87091" lon="8.51509">
        <ele>1596</ele>
        <time>2021-08-11T10:07:21.454Z</time>
      </trkpt>
      <trkpt lat="46.8709" lon="8.5151">
        <ele>1596</ele>
        <time>2021-08-11T10:07:22.454Z</time>
      </trkpt>
      <trkpt lat="46.87088" lon="8.51508">
        <ele>1596</ele>
        <time>2021-08-11T10:07:23.453Z</time>
      </trkpt>
      <trkpt lat="46.87087" lon="8.51507">
        <ele>1596</ele>
        <time>2021-08-11T10:07:24.454Z</time>
      </trkpt>
      <trkpt lat="46.87086" lon="8.51505">
        <ele>1596</ele>
        <time>2021-08-11T10:07:25.454Z</time>
      </trkpt>
      <trkpt lat="46.87084" lon="8.51504">
        <ele>1596</ele>
        <time>2021-08-11T10:07:26.454Z</time>
      </trkpt>
      <trkpt lat="46.87083" lon="8.51503">
        <ele>1595</ele>
        <time>2021-08-11T10:07:27.453Z</time>
      </trkpt>
      <trkpt lat="46.87082" lon="8.51502">
        <ele>1595</ele>
        <time>2021-08-11T10:07:28.454Z</time>
      </trkpt>
      <trkpt lat="46.87081" lon="8.51501">
        <ele>1595</ele>
        <time>2021-08-11T10:07:29.454Z</time>
      </trkpt>
      <trkpt lat="46.8708" lon="8.515">
        <ele>1595</ele>
        <time>2021-08-11T10:07:30.454Z</time>
      </trkpt>
      <trkpt lat="46.87079" lon="8.515">
        <ele>1594</ele>
        <time>2021-08-11T10:07:31.454Z</time>
      </trkpt>
      <trkpt lat="46.87079" lon="8.51499">
        <ele>1593</ele>
        <time>2021-08-11T10:07:32.453Z</time>
      </trkpt>
      <trkpt lat="46.87078" lon="8.51498">
        <ele>1592</ele>
        <time>2021-08-11T10:07:33.454Z</time>
      </trkpt>
      <trkpt lat="46.87078" lon="8.51498">
        <ele>1590</ele>
        <time>2021-08-11T10:07:34.454Z</time>
      </trkpt>
      <trkpt lat="46.87077" lon="8.51497">
        <ele>1589</ele>
        <time>2021-08-11T10:07:35.454Z</time>
      </trkpt>
      <trkpt lat="46.87076" lon="8.51496">
        <ele>1588</ele>
        <time>2021-08-11T10:07:36.454Z</time>
      </trkpt>
      <trkpt lat="46.87076" lon="8.51495">
        <ele>1587</ele>
        <time>2021-08-11T10:07:37.454Z</time>
      </trkpt>
      <trkpt lat="46.87075" lon="8.51494">
        <ele>1587</ele>
        <time>2021-08-11T10:07:38.454Z</time>
      </trkpt>
      <trkpt lat="46.87075" lon="8.51493">
        <ele>1586</ele>
        <time>2021-08-11T10:07:39.454Z</time>
      </trkpt>
      <trkpt lat="46.87075" lon="8.51492">
        <ele>1586</ele>
        <time>2021-08-11T10:07:40.453Z</time>
      </trkpt>
      <trkpt lat="46.87075" lon="8.51491">
        <ele>1586</ele>
        <time>2021-08-11T10:07:41.454Z</time>
      </trkpt>
      <trkpt lat="46.87075" lon="8.5149">
        <ele>1585</ele>
        <time>2021-08-11T10:07:42.454Z</time>
      </trkpt>
      <trkpt lat="46.87075" lon="8.51489">
        <ele>1585</ele>
        <time>2021-08-11T10:07:43.453Z</time>
      </trkpt>
      <trkpt lat="46.87076" lon="8.51487">
        <ele>1584</ele>
        <time>2021-08-11T10:07:44.454Z</time>
      </trkpt>
      <trkpt lat="46.87075" lon="8.51486">
        <ele>1584</ele>
        <time>2021-08-11T10:07:45.453Z</time>
      </trkpt>
      <trkpt lat="46.87075" lon="8.51485">
        <ele>1584</ele>
        <time>2021-08-11T10:07:46.453Z</time>
      </trkpt>
      <trkpt lat="46.87074" lon="8.51484">
        <ele>1583</ele>
        <time>2021-08-11T10:07:47.454Z</time>
      </trkpt>
      <trkpt lat="46.87073" lon="8.51483">
        <ele>1583</ele>
        <time>2021-08-11T10:07:48.454Z</time>
      </trkpt>
      <trkpt lat="46.87072" lon="8.51482">
        <ele>1583</ele>
        <time>2021-08-11T10:07:49.454Z</time>
      </trkpt>
      <trkpt lat="46.87072" lon="8.51482">
        <ele>1583</ele>
        <time>2021-08-11T10:07:50.453Z</time>
      </trkpt>
      <trkpt lat="46.87071" lon="8.51481">
        <ele>1583</ele>
        <time>2021-08-11T10:07:51.453Z</time>
      </trkpt>
      <trkpt lat="46.8707" lon="8.5148">
        <ele>1582</ele>
        <time>2021-08-11T10:07:52.453Z</time>
      </trkpt>
      <trkpt lat="46.8707" lon="8.51479">
        <ele>1582</ele>
        <time>2021-08-11T10:07:53.453Z</time>
      </trkpt>
      <trkpt lat="46.87069" lon="8.51479">
        <ele>1581</ele>
        <time>2021-08-11T10:07:54.454Z</time>
      </trkpt>
      <trkpt lat="46.87068" lon="8.51478">
        <ele>1581</ele>
        <time>2021-08-11T10:07:55.454Z</time>
      </trkpt>
      <trkpt lat="46.87067" lon="8.51477">
        <ele>1580</ele>
        <time>2021-08-11T10:07:56.454Z</time>
      </trkpt>
      <trkpt lat="46.87066" lon="8.51477">
        <ele>1580</ele>
        <time>2021-08-11T10:07:57.454Z</time>
      </trkpt>
      <trkpt lat="46.87066" lon="8.51475">
        <ele>1579</ele>
        <time>2021-08-11T10:07:58.454Z</time>
      </trkpt>
      <trkpt lat="46.87065" lon="8.51474">
        <ele>1578</ele>
        <time>2021-08-11T10:07:59.453Z</time>
      </trkpt>
      <trkpt lat="46.87064" lon="8.51472">
        <ele>1578</ele>
        <time>2021-08-11T10:08:00.454Z</time>
      </trkpt>
      <trkpt lat="46.87063" lon="8.51471">
        <ele>1577</ele>
        <time>2021-08-11T10:08:01.454Z</time>
      </trkpt>
      <trkpt lat="46.87062" lon="8.5147">
        <ele>1577</ele>
        <time>2021-08-11T10:08:02.454Z</time>
      </trkpt>
      <trkpt lat="46.87061" lon="8.51469">
        <ele>1577</ele>
        <time>2021-08-11T10:08:03.453Z</time>
      </trkpt>
      <trkpt lat="46.8706" lon="8.51468">
        <ele>1576</ele>
        <time>2021-08-11T10:08:04.454Z</time>
      </trkpt>
      <trkpt lat="46.87059" lon="8.51467">
        <ele>1575</ele>
        <time>2021-08-11T10:08:05.454Z</time>
      </trkpt>
      <trkpt lat="46.87058" lon="8.51467">
        <ele>1575</ele>
        <time>2021-08-11T10:08:06.453Z</time>
      </trkpt>
      <trkpt lat="46.87057" lon="8.51466">
        <ele>1575</ele>
        <time>2021-08-11T10:08:07.454Z</time>
      </trkpt>
      <trkpt lat="46.87057" lon="8.51466">
        <ele>1575</ele>
        <time>2021-08-11T10:08:08.454Z</time>
      </trkpt>
      <trkpt lat="46.87055" lon="8.51465">
        <ele>1575</ele>
        <time>2021-08-11T10:08:09.454Z</time>
      </trkpt>
      <trkpt lat="46.87054" lon="8.51464">
        <ele>1575</ele>
        <time>2021-08-11T10:08:10.454Z</time>
      </trkpt>
      <trkpt lat="46.87053" lon="8.51463">
        <ele>1576</ele>
        <time>2021-08-11T10:08:11.454Z</time>
      </trkpt>
      <trkpt lat="46.87052" lon="8.51462">
        <ele>1577</ele>
        <time>2021-08-11T10:08:12.453Z</time>
      </trkpt>
      <trkpt lat="46.87052" lon="8.51461">
        <ele>1577</ele>
        <time>2021-08-11T10:08:13.454Z</time>
      </trkpt>
      <trkpt lat="46.87051" lon="8.5146">
        <ele>1577</ele>
        <time>2021-08-11T10:08:14.454Z</time>
      </trkpt>
      <trkpt lat="46.8705" lon="8.51459">
        <ele>1577</ele>
        <time>2021-08-11T10:08:15.453Z</time>
      </trkpt>
      <trkpt lat="46.87049" lon="8.51459">
        <ele>1578</ele>
        <time>2021-08-11T10:08:16.454Z</time>
      </trkpt>
      <trkpt lat="46.87048" lon="8.51458">
        <ele>1578</ele>
        <time>2021-08-11T10:08:17.454Z</time>
      </trkpt>
      <trkpt lat="46.87047" lon="8.51457">
        <ele>1578</ele>
        <time>2021-08-11T10:08:18.454Z</time>
      </trkpt>
      <trkpt lat="46.87046" lon="8.51456">
        <ele>1578</ele>
        <time>2021-08-11T10:08:19.453Z</time>
      </trkpt>
      <trkpt lat="46.87045" lon="8.51455">
        <ele>1578</ele>
        <time>2021-08-11T10:08:20.454Z</time>
      </trkpt>
      <trkpt lat="46.87044" lon="8.51455">
        <ele>1578</ele>
        <time>2021-08-11T10:08:21.454Z</time>
      </trkpt>
      <trkpt lat="46.87043" lon="8.51454">
        <ele>1578</ele>
        <time>2021-08-11T10:08:22.453Z</time>
      </trkpt>
      <trkpt lat="46.87042" lon="8.51453">
        <ele>1578</ele>
        <time>2021-08-11T10:08:23.453Z</time>
      </trkpt>
      <trkpt lat="46.87041" lon="8.51453">
        <ele>1578</ele>
        <time>2021-08-11T10:08:24.454Z</time>
      </trkpt>
      <trkpt lat="46.8704" lon="8.51452">
        <ele>1578</ele>
        <time>2021-08-11T10:08:25.454Z</time>
      </trkpt>
      <trkpt lat="46.87039" lon="8.51451">
        <ele>1577</ele>
        <time>2021-08-11T10:08:26.454Z</time>
      </trkpt>
      <trkpt lat="46.87038" lon="8.5145">
        <ele>1577</ele>
        <time>2021-08-11T10:08:27.454Z</time>
      </trkpt>
      <trkpt lat="46.87037" lon="8.51449">
        <ele>1577</ele>
        <time>2021-08-11T10:08:28.454Z</time>
      </trkpt>
      <trkpt lat="46.87035" lon="8.51447">
        <ele>1577</ele>
        <time>2021-08-11T10:08:29.453Z</time>
      </trkpt>
      <trkpt lat="46.87033" lon="8.51446">
        <ele>1577</ele>
        <time>2021-08-11T10:08:30.454Z</time>
      </trkpt>
      <trkpt lat="46.87031" lon="8.51444">
        <ele>1577</ele>
        <time>2021-08-11T10:08:31.454Z</time>
      </trkpt>
      <trkpt lat="46.8703" lon="8.51442">
        <ele>1578</ele>
        <time>2021-08-11T10:08:32.453Z</time>
      </trkpt>
      <trkpt lat="46.87029" lon="8.5144">
        <ele>1578</ele>
        <time>2021-08-11T10:08:33.454Z</time>
      </trkpt>
      <trkpt lat="46.87028" lon="8.51438">
        <ele>1578</ele>
        <time>2021-08-11T10:08:34.454Z</time>
      </trkpt>
      <trkpt lat="46.87027" lon="8.51435">
        <ele>1578</ele>
        <time>2021-08-11T10:08:35.454Z</time>
      </trkpt>
      <trkpt lat="46.87026" lon="8.51433">
        <ele>1578</ele>
        <time>2021-08-11T10:08:36.453Z</time>
      </trkpt>
      <trkpt lat="46.87025" lon="8.51432">
        <ele>1578</ele>
        <time>2021-08-11T10:08:37.454Z</time>
      </trkpt>
      <trkpt lat="46.87024" lon="8.5143">
        <ele>1578</ele>
        <time>2021-08-11T10:08:38.454Z</time>
      </trkpt>
      <trkpt lat="46.87022" lon="8.51427">
        <ele>1578</ele>
        <time>2021-08-11T10:08:39.453Z</time>
      </trkpt>
      <trkpt lat="46.87022" lon="8.51427">
        <ele>1578</ele>
        <time>2021-08-11T10:08:40.454Z</time>
      </trkpt>
      <trkpt lat="46.87021" lon="8.51426">
        <ele>1578</ele>
        <time>2021-08-11T10:08:41.454Z</time>
      </trkpt>
      <trkpt lat="46.8702" lon="8.51426">
        <ele>1578</ele>
        <time>2021-08-11T10:08:42.453Z</time>
      </trkpt>
      <trkpt lat="46.87019" lon="8.51426">
        <ele>1578</ele>
        <time>2021-08-11T10:08:43.454Z</time>
      </trkpt>
      <trkpt lat="46.87017" lon="8.51426">
        <ele>1577</ele>
        <time>2021-08-11T10:08:44.454Z</time>
      </trkpt>
      <trkpt lat="46.87016" lon="8.51425">
        <ele>1577</ele>
        <time>2021-08-11T10:08:45.454Z</time>
      </trkpt>
      <trkpt lat="46.87015" lon="8.51425">
        <ele>1577</ele>
        <time>2021-08-11T10:08:46.453Z</time>
      </trkpt>
      <trkpt lat="46.87014" lon="8.51425">
        <ele>1577</ele>
        <time>2021-08-11T10:08:47.453Z</time>
      </trkpt>
      <trkpt lat="46.87013" lon="8.51426">
        <ele>1577</ele>
        <time>2021-08-11T10:08:48.454Z</time>
      </trkpt>
      <trkpt lat="46.87013" lon="8.51426">
        <ele>1577</ele>
        <time>2021-08-11T10:08:49.453Z</time>
      </trkpt>
      <trkpt lat="46.87013" lon="8.51426">
        <ele>1577</ele>
        <time>2021-08-11T10:08:50.454Z</time>
      </trkpt>
      <trkpt lat="46.87012" lon="8.51426">
        <ele>1577</ele>
        <time>2021-08-11T10:08:51.455Z</time>
      </trkpt>
      <trkpt lat="46.87011" lon="8.51426">
        <ele>1577</ele>
        <time>2021-08-11T10:08:52.454Z</time>
      </trkpt>
      <trkpt lat="46.8701" lon="8.51425">
        <ele>1577</ele>
        <time>2021-08-11T10:08:53.455Z</time>
      </trkpt>
      <trkpt lat="46.87009" lon="8.51423">
        <ele>1577</ele>
        <time>2021-08-11T10:08:54.455Z</time>
      </trkpt>
      <trkpt lat="46.87008" lon="8.51423">
        <ele>1577</ele>
        <time>2021-08-11T10:08:55.455Z</time>
      </trkpt>
      <trkpt lat="46.87007" lon="8.51423">
        <ele>1577</ele>
        <time>2021-08-11T10:08:56.455Z</time>
      </trkpt>
      <trkpt lat="46.87006" lon="8.51422">
        <ele>1577</ele>
        <time>2021-08-11T10:08:57.455Z</time>
      </trkpt>
      <trkpt lat="46.87005" lon="8.51422">
        <ele>1577</ele>
        <time>2021-08-11T10:08:58.455Z</time>
      </trkpt>
      <trkpt lat="46.87005" lon="8.51422">
        <ele>1578</ele>
        <time>2021-08-11T10:08:59.455Z</time>
      </trkpt>
      <trkpt lat="46.87004" lon="8.51421">
        <ele>1577</ele>
        <time>2021-08-11T10:09:00.456Z</time>
      </trkpt>
      <trkpt lat="46.87004" lon="8.51422">
        <ele>1576</ele>
        <time>2021-08-11T10:09:01.456Z</time>
      </trkpt>
      <trkpt lat="46.87004" lon="8.51422">
        <ele>1576</ele>
        <time>2021-08-11T10:09:02.455Z</time>
      </trkpt>
      <trkpt lat="46.87004" lon="8.51421">
        <ele>1575</ele>
        <time>2021-08-11T10:09:03.456Z</time>
      </trkpt>
      <trkpt lat="46.87003" lon="8.51421">
        <ele>1575</ele>
        <time>2021-08-11T10:09:04.456Z</time>
      </trkpt>
      <trkpt lat="46.87003" lon="8.51421">
        <ele>1574</ele>
        <time>2021-08-11T10:09:05.455Z</time>
      </trkpt>
      <trkpt lat="46.87003" lon="8.51421">
        <ele>1573</ele>
        <time>2021-08-11T10:09:06.456Z</time>
      </trkpt>
      <trkpt lat="46.87007" lon="8.51425">
        <ele>1567</ele>
        <time>2021-08-11T10:09:07.457Z</time>
      </trkpt>
      <trkpt lat="46.87007" lon="8.51425">
        <ele>1567</ele>
        <time>2021-08-11T10:09:08.457Z</time>
      </trkpt>
      <trkpt lat="46.87007" lon="8.51425">
        <ele>1567</ele>
        <time>2021-08-11T10:09:09.456Z</time>
      </trkpt>
      <trkpt lat="46.87007" lon="8.51426">
        <ele>1568</ele>
        <time>2021-08-11T10:09:10.458Z</time>
      </trkpt>
      <trkpt lat="46.87006" lon="8.51426">
        <ele>1568</ele>
        <time>2021-08-11T10:09:11.457Z</time>
      </trkpt>
      <trkpt lat="46.87006" lon="8.51426">
        <ele>1568</ele>
        <time>2021-08-11T10:09:12.457Z</time>
      </trkpt>
      <trkpt lat="46.87005" lon="8.51427">
        <ele>1568</ele>
        <time>2021-08-11T10:09:13.458Z</time>
      </trkpt>
      <trkpt lat="46.87003" lon="8.51431">
        <ele>1567</ele>
        <time>2021-08-11T10:09:14.458Z</time>
      </trkpt>
      <trkpt lat="46.87003" lon="8.51431">
        <ele>1568</ele>
        <time>2021-08-11T10:09:15.458Z</time>
      </trkpt>
      <trkpt lat="46.87004" lon="8.51432">
        <ele>1568</ele>
        <time>2021-08-11T10:09:16.457Z</time>
      </trkpt>
      <trkpt lat="46.87004" lon="8.51432">
        <ele>1589</ele>
        <time>2021-08-11T10:09:17.457Z</time>
      </trkpt>
      <trkpt lat="46.87004" lon="8.51432">
        <ele>1589</ele>
        <time>2021-08-11T10:09:18.458Z</time>
      </trkpt>
      <trkpt lat="46.87005" lon="8.51435">
        <ele>1588</ele>
        <time>2021-08-11T10:09:19.458Z</time>
      </trkpt>
      <trkpt lat="46.87006" lon="8.51435">
        <ele>1587</ele>
        <time>2021-08-11T10:09:20.457Z</time>
      </trkpt>
      <trkpt lat="46.87006" lon="8.51434">
        <ele>1585</ele>
        <time>2021-08-11T10:09:21.457Z</time>
      </trkpt>
      <trkpt lat="46.87005" lon="8.51433">
        <ele>1584</ele>
        <time>2021-08-11T10:09:22.457Z</time>
      </trkpt>
      <trkpt lat="46.87005" lon="8.51432">
        <ele>1583</ele>
        <time>2021-08-11T10:09:23.457Z</time>
      </trkpt>
      <trkpt lat="46.87004" lon="8.51431">
        <ele>1581</ele>
        <time>2021-08-11T10:09:24.457Z</time>
      </trkpt>
      <trkpt lat="46.87003" lon="8.51431">
        <ele>1580</ele>
        <time>2021-08-11T10:09:25.457Z</time>
      </trkpt>
      <trkpt lat="46.87002" lon="8.51429">
        <ele>1579</ele>
        <time>2021-08-11T10:09:26.458Z</time>
      </trkpt>
      <trkpt lat="46.87002" lon="8.51428">
        <ele>1577</ele>
        <time>2021-08-11T10:09:27.457Z</time>
      </trkpt>
      <trkpt lat="46.87001" lon="8.51427">
        <ele>1576</ele>
        <time>2021-08-11T10:09:28.458Z</time>
      </trkpt>
      <trkpt lat="46.87001" lon="8.51426">
        <ele>1575</ele>
        <time>2021-08-11T10:09:29.458Z</time>
      </trkpt>
      <trkpt lat="46.87" lon="8.51425">
        <ele>1575</ele>
        <time>2021-08-11T10:09:30.458Z</time>
      </trkpt>
      <trkpt lat="46.87" lon="8.51425">
        <ele>1575</ele>
        <time>2021-08-11T10:09:31.457Z</time>
      </trkpt>
      <trkpt lat="46.86999" lon="8.51425">
        <ele>1575</ele>
        <time>2021-08-11T10:09:32.458Z</time>
      </trkpt>
      <trkpt lat="46.86998" lon="8.51424">
        <ele>1575</ele>
        <time>2021-08-11T10:09:33.457Z</time>
      </trkpt>
      <trkpt lat="46.86998" lon="8.51423">
        <ele>1574</ele>
        <time>2021-08-11T10:09:34.457Z</time>
      </trkpt>
      <trkpt lat="46.86997" lon="8.51421">
        <ele>1574</ele>
        <time>2021-08-11T10:09:35.457Z</time>
      </trkpt>
      <trkpt lat="46.86997" lon="8.5142">
        <ele>1574</ele>
        <time>2021-08-11T10:09:36.458Z</time>
      </trkpt>
      <trkpt lat="46.86997" lon="8.51419">
        <ele>1573</ele>
        <time>2021-08-11T10:09:37.458Z</time>
      </trkpt>
      <trkpt lat="46.86996" lon="8.51418">
        <ele>1573</ele>
        <time>2021-08-11T10:09:38.458Z</time>
      </trkpt>
      <trkpt lat="46.86996" lon="8.51417">
        <ele>1573</ele>
        <time>2021-08-11T10:09:39.457Z</time>
      </trkpt>
      <trkpt lat="46.86996" lon="8.51416">
        <ele>1572</ele>
        <time>2021-08-11T10:09:40.457Z</time>
      </trkpt>
      <trkpt lat="46.86995" lon="8.51415">
        <ele>1572</ele>
        <time>2021-08-11T10:09:41.458Z</time>
      </trkpt>
      <trkpt lat="46.86994" lon="8.51415">
        <ele>1572</ele>
        <time>2021-08-11T10:09:42.457Z</time>
      </trkpt>
      <trkpt lat="46.86994" lon="8.51415">
        <ele>1572</ele>
        <time>2021-08-11T10:09:43.458Z</time>
      </trkpt>
      <trkpt lat="46.86992" lon="8.51416">
        <ele>1572</ele>
        <time>2021-08-11T10:09:44.458Z</time>
      </trkpt>
      <trkpt lat="46.86993" lon="8.51416">
        <ele>1573</ele>
        <time>2021-08-11T10:09:45.458Z</time>
      </trkpt>
      <trkpt lat="46.86993" lon="8.51417">
        <ele>1574</ele>
        <time>2021-08-11T10:09:46.457Z</time>
      </trkpt>
      <trkpt lat="46.86992" lon="8.51417">
        <ele>1579</ele>
        <time>2021-08-11T10:09:47.459Z</time>
      </trkpt>
      <trkpt lat="46.86991" lon="8.51418">
        <ele>1580</ele>
        <time>2021-08-11T10:09:48.459Z</time>
      </trkpt>
      <trkpt lat="46.86991" lon="8.51419">
        <ele>1580</ele>
        <time>2021-08-11T10:09:49.458Z</time>
      </trkpt>
      <trkpt lat="46.86991" lon="8.51419">
        <ele>1580</ele>
        <time>2021-08-11T10:09:50.459Z</time>
      </trkpt>
      <trkpt lat="46.86991" lon="8.5142">
        <ele>1579</ele>
        <time>2021-08-11T10:09:51.459Z</time>
      </trkpt>
      <trkpt lat="46.8699" lon="8.51419">
        <ele>1579</ele>
        <time>2021-08-11T10:09:52.459Z</time>
      </trkpt>
      <trkpt lat="46.8699" lon="8.51418">
        <ele>1578</ele>
        <time>2021-08-11T10:09:53.459Z</time>
      </trkpt>
      <trkpt lat="46.8699" lon="8.51416">
        <ele>1578</ele>
        <time>2021-08-11T10:09:54.459Z</time>
      </trkpt>
      <trkpt lat="46.8699" lon="8.51415">
        <ele>1577</ele>
        <time>2021-08-11T10:09:55.459Z</time>
      </trkpt>
      <trkpt lat="46.8699" lon="8.51414">
        <ele>1576</ele>
        <time>2021-08-11T10:09:56.459Z</time>
      </trkpt>
      <trkpt lat="46.86989" lon="8.51413">
        <ele>1576</ele>
        <time>2021-08-11T10:09:57.459Z</time>
      </trkpt>
      <trkpt lat="46.86988" lon="8.51412">
        <ele>1575</ele>
        <time>2021-08-11T10:09:58.459Z</time>
      </trkpt>
      <trkpt lat="46.86988" lon="8.51411">
        <ele>1574</ele>
        <time>2021-08-11T10:09:59.458Z</time>
      </trkpt>
      <trkpt lat="46.86987" lon="8.51411">
        <ele>1574</ele>
        <time>2021-08-11T10:10:00.459Z</time>
      </trkpt>
      <trkpt lat="46.86986" lon="8.5141">
        <ele>1573</ele>
        <time>2021-08-11T10:10:01.459Z</time>
      </trkpt>
      <trkpt lat="46.86986" lon="8.5141">
        <ele>1573</ele>
        <time>2021-08-11T10:10:02.459Z</time>
      </trkpt>
      <trkpt lat="46.86985" lon="8.51409">
        <ele>1572</ele>
        <time>2021-08-11T10:10:03.459Z</time>
      </trkpt>
      <trkpt lat="46.86984" lon="8.51408">
        <ele>1572</ele>
        <time>2021-08-11T10:10:04.459Z</time>
      </trkpt>
      <trkpt lat="46.86983" lon="8.51408">
        <ele>1572</ele>
        <time>2021-08-11T10:10:05.459Z</time>
      </trkpt>
      <trkpt lat="46.86983" lon="8.51407">
        <ele>1572</ele>
        <time>2021-08-11T10:10:06.458Z</time>
      </trkpt>
      <trkpt lat="46.86982" lon="8.51405">
        <ele>1572</ele>
        <time>2021-08-11T10:10:07.459Z</time>
      </trkpt>
      <trkpt lat="46.86981" lon="8.51405">
        <ele>1572</ele>
        <time>2021-08-11T10:10:08.458Z</time>
      </trkpt>
      <trkpt lat="46.86981" lon="8.51404">
        <ele>1572</ele>
        <time>2021-08-11T10:10:09.459Z</time>
      </trkpt>
      <trkpt lat="46.8698" lon="8.51402">
        <ele>1573</ele>
        <time>2021-08-11T10:10:10.459Z</time>
      </trkpt>
      <trkpt lat="46.8698" lon="8.51401">
        <ele>1573</ele>
        <time>2021-08-11T10:10:11.459Z</time>
      </trkpt>
      <trkpt lat="46.86979" lon="8.514">
        <ele>1573</ele>
        <time>2021-08-11T10:10:12.459Z</time>
      </trkpt>
      <trkpt lat="46.86979" lon="8.51399">
        <ele>1573</ele>
        <time>2021-08-11T10:10:13.458Z</time>
      </trkpt>
      <trkpt lat="46.86977" lon="8.51398">
        <ele>1574</ele>
        <time>2021-08-11T10:10:14.458Z</time>
      </trkpt>
      <trkpt lat="46.86976" lon="8.51396">
        <ele>1574</ele>
        <time>2021-08-11T10:10:15.458Z</time>
      </trkpt>
      <trkpt lat="46.86976" lon="8.51393">
        <ele>1574</ele>
        <time>2021-08-11T10:10:16.459Z</time>
      </trkpt>
      <trkpt lat="46.86975" lon="8.51391">
        <ele>1574</ele>
        <time>2021-08-11T10:10:17.459Z</time>
      </trkpt>
      <trkpt lat="46.86975" lon="8.5139">
        <ele>1575</ele>
        <time>2021-08-11T10:10:18.458Z</time>
      </trkpt>
      <trkpt lat="46.86974" lon="8.51387">
        <ele>1575</ele>
        <time>2021-08-11T10:10:19.459Z</time>
      </trkpt>
      <trkpt lat="46.86973" lon="8.51384">
        <ele>1575</ele>
        <time>2021-08-11T10:10:20.459Z</time>
      </trkpt>
      <trkpt lat="46.86972" lon="8.51382">
        <ele>1575</ele>
        <time>2021-08-11T10:10:21.459Z</time>
      </trkpt>
      <trkpt lat="46.86971" lon="8.51381">
        <ele>1576</ele>
        <time>2021-08-11T10:10:22.458Z</time>
      </trkpt>
      <trkpt lat="46.86971" lon="8.51378">
        <ele>1576</ele>
        <time>2021-08-11T10:10:23.459Z</time>
      </trkpt>
      <trkpt lat="46.8697" lon="8.51376">
        <ele>1576</ele>
        <time>2021-08-11T10:10:24.459Z</time>
      </trkpt>
      <trkpt lat="46.86969" lon="8.51375">
        <ele>1577</ele>
        <time>2021-08-11T10:10:25.459Z</time>
      </trkpt>
      <trkpt lat="46.86969" lon="8.51374">
        <ele>1577</ele>
        <time>2021-08-11T10:10:26.458Z</time>
      </trkpt>
      <trkpt lat="46.86969" lon="8.51371">
        <ele>1577</ele>
        <time>2021-08-11T10:10:27.459Z</time>
      </trkpt>
      <trkpt lat="46.86968" lon="8.5137">
        <ele>1577</ele>
        <time>2021-08-11T10:10:28.459Z</time>
      </trkpt>
      <trkpt lat="46.86967" lon="8.51369">
        <ele>1576</ele>
        <time>2021-08-11T10:10:29.459Z</time>
      </trkpt>
      <trkpt lat="46.86966" lon="8.51368">
        <ele>1576</ele>
        <time>2021-08-11T10:10:30.459Z</time>
      </trkpt>
      <trkpt lat="46.86966" lon="8.51368">
        <ele>1575</ele>
        <time>2021-08-11T10:10:31.459Z</time>
      </trkpt>
      <trkpt lat="46.86965" lon="8.51367">
        <ele>1574</ele>
        <time>2021-08-11T10:10:32.458Z</time>
      </trkpt>
      <trkpt lat="46.86964" lon="8.51367">
        <ele>1574</ele>
        <time>2021-08-11T10:10:33.459Z</time>
      </trkpt>
      <trkpt lat="46.86964" lon="8.51366">
        <ele>1573</ele>
        <time>2021-08-11T10:10:34.459Z</time>
      </trkpt>
      <trkpt lat="46.86963" lon="8.51366">
        <ele>1572</ele>
        <time>2021-08-11T10:10:35.459Z</time>
      </trkpt>
      <trkpt lat="46.86962" lon="8.51365">
        <ele>1572</ele>
        <time>2021-08-11T10:10:36.459Z</time>
      </trkpt>
      <trkpt lat="46.86961" lon="8.51365">
        <ele>1571</ele>
        <time>2021-08-11T10:10:37.459Z</time>
      </trkpt>
      <trkpt lat="46.86961" lon="8.51365">
        <ele>1571</ele>
        <time>2021-08-11T10:10:38.458Z</time>
      </trkpt>
      <trkpt lat="46.8696" lon="8.51364">
        <ele>1570</ele>
        <time>2021-08-11T10:10:39.459Z</time>
      </trkpt>
      <trkpt lat="46.86959" lon="8.51364">
        <ele>1570</ele>
        <time>2021-08-11T10:10:40.459Z</time>
      </trkpt>
      <trkpt lat="46.86958" lon="8.51363">
        <ele>1569</ele>
        <time>2021-08-11T10:10:41.459Z</time>
      </trkpt>
      <trkpt lat="46.86958" lon="8.51362">
        <ele>1568</ele>
        <time>2021-08-11T10:10:42.459Z</time>
      </trkpt>
      <trkpt lat="46.86957" lon="8.51362">
        <ele>1567</ele>
        <time>2021-08-11T10:10:43.459Z</time>
      </trkpt>
      <trkpt lat="46.86956" lon="8.51361">
        <ele>1566</ele>
        <time>2021-08-11T10:10:44.458Z</time>
      </trkpt>
      <trkpt lat="46.86955" lon="8.51361">
        <ele>1565</ele>
        <time>2021-08-11T10:10:45.458Z</time>
      </trkpt>
      <trkpt lat="46.86955" lon="8.5136">
        <ele>1563</ele>
        <time>2021-08-11T10:10:46.459Z</time>
      </trkpt>
      <trkpt lat="46.86954" lon="8.51359">
        <ele>1562</ele>
        <time>2021-08-11T10:10:47.459Z</time>
      </trkpt>
      <trkpt lat="46.86954" lon="8.51358">
        <ele>1562</ele>
        <time>2021-08-11T10:10:48.459Z</time>
      </trkpt>
      <trkpt lat="46.86953" lon="8.51358">
        <ele>1561</ele>
        <time>2021-08-11T10:10:49.459Z</time>
      </trkpt>
      <trkpt lat="46.86952" lon="8.51357">
        <ele>1561</ele>
        <time>2021-08-11T10:10:50.458Z</time>
      </trkpt>
      <trkpt lat="46.86952" lon="8.51355">
        <ele>1561</ele>
        <time>2021-08-11T10:10:51.459Z</time>
      </trkpt>
      <trkpt lat="46.86951" lon="8.51354">
        <ele>1560</ele>
        <time>2021-08-11T10:10:52.458Z</time>
      </trkpt>
      <trkpt lat="46.86951" lon="8.51353">
        <ele>1560</ele>
        <time>2021-08-11T10:10:53.459Z</time>
      </trkpt>
      <trkpt lat="46.8695" lon="8.51352">
        <ele>1560</ele>
        <time>2021-08-11T10:10:54.458Z</time>
      </trkpt>
      <trkpt lat="46.86949" lon="8.51351">
        <ele>1560</ele>
        <time>2021-08-11T10:10:55.459Z</time>
      </trkpt>
      <trkpt lat="46.86949" lon="8.5135">
        <ele>1559</ele>
        <time>2021-08-11T10:10:56.459Z</time>
      </trkpt>
      <trkpt lat="46.86949" lon="8.51348">
        <ele>1559</ele>
        <time>2021-08-11T10:10:57.459Z</time>
      </trkpt>
      <trkpt lat="46.86948" lon="8.51347">
        <ele>1558</ele>
        <time>2021-08-11T10:10:58.459Z</time>
      </trkpt>
      <trkpt lat="46.86947" lon="8.51346">
        <ele>1558</ele>
        <time>2021-08-11T10:10:59.459Z</time>
      </trkpt>
      <trkpt lat="46.86946" lon="8.51346">
        <ele>1557</ele>
        <time>2021-08-11T10:11:00.459Z</time>
      </trkpt>
      <trkpt lat="46.86945" lon="8.51345">
        <ele>1557</ele>
        <time>2021-08-11T10:11:01.458Z</time>
      </trkpt>
      <trkpt lat="46.86944" lon="8.51344">
        <ele>1557</ele>
        <time>2021-08-11T10:11:02.459Z</time>
      </trkpt>
      <trkpt lat="46.86944" lon="8.51343">
        <ele>1556</ele>
        <time>2021-08-11T10:11:03.459Z</time>
      </trkpt>
      <trkpt lat="46.86944" lon="8.51342">
        <ele>1555</ele>
        <time>2021-08-11T10:11:04.459Z</time>
      </trkpt>
      <trkpt lat="46.86944" lon="8.51341">
        <ele>1555</ele>
        <time>2021-08-11T10:11:05.459Z</time>
      </trkpt>
      <trkpt lat="46.86944" lon="8.5134">
        <ele>1555</ele>
        <time>2021-08-11T10:11:06.459Z</time>
      </trkpt>
      <trkpt lat="46.86943" lon="8.51338">
        <ele>1555</ele>
        <time>2021-08-11T10:11:07.459Z</time>
      </trkpt>
      <trkpt lat="46.86942" lon="8.51336">
        <ele>1555</ele>
        <time>2021-08-11T10:11:08.459Z</time>
      </trkpt>
      <trkpt lat="46.86941" lon="8.51335">
        <ele>1555</ele>
        <time>2021-08-11T10:11:09.458Z</time>
      </trkpt>
      <trkpt lat="46.8694" lon="8.51333">
        <ele>1555</ele>
        <time>2021-08-11T10:11:10.459Z</time>
      </trkpt>
      <trkpt lat="46.86939" lon="8.51332">
        <ele>1555</ele>
        <time>2021-08-11T10:11:11.459Z</time>
      </trkpt>
      <trkpt lat="46.86938" lon="8.5133">
        <ele>1555</ele>
        <time>2021-08-11T10:11:12.459Z</time>
      </trkpt>
      <trkpt lat="46.86937" lon="8.51329">
        <ele>1555</ele>
        <time>2021-08-11T10:11:13.459Z</time>
      </trkpt>
      <trkpt lat="46.86936" lon="8.51326">
        <ele>1554</ele>
        <time>2021-08-11T10:11:14.459Z</time>
      </trkpt>
      <trkpt lat="46.86935" lon="8.51324">
        <ele>1553</ele>
        <time>2021-08-11T10:11:15.459Z</time>
      </trkpt>
      <trkpt lat="46.86935" lon="8.51323">
        <ele>1552</ele>
        <time>2021-08-11T10:11:16.458Z</time>
      </trkpt>
      <trkpt lat="46.86934" lon="8.51321">
        <ele>1552</ele>
        <time>2021-08-11T10:11:17.458Z</time>
      </trkpt>
      <trkpt lat="46.86933" lon="8.5132">
        <ele>1551</ele>
        <time>2021-08-11T10:11:18.459Z</time>
      </trkpt>
      <trkpt lat="46.86932" lon="8.51319">
        <ele>1551</ele>
        <time>2021-08-11T10:11:19.459Z</time>
      </trkpt>
      <trkpt lat="46.86931" lon="8.51317">
        <ele>1550</ele>
        <time>2021-08-11T10:11:20.458Z</time>
      </trkpt>
      <trkpt lat="46.8693" lon="8.51316">
        <ele>1550</ele>
        <time>2021-08-11T10:11:21.459Z</time>
      </trkpt>
      <trkpt lat="46.8693" lon="8.51315">
        <ele>1550</ele>
        <time>2021-08-11T10:11:22.459Z</time>
      </trkpt>
      <trkpt lat="46.86928" lon="8.51313">
        <ele>1550</ele>
        <time>2021-08-11T10:11:23.458Z</time>
      </trkpt>
      <trkpt lat="46.86928" lon="8.51313">
        <ele>1551</ele>
        <time>2021-08-11T10:11:24.459Z</time>
      </trkpt>
      <trkpt lat="46.86927" lon="8.51312">
        <ele>1551</ele>
        <time>2021-08-11T10:11:25.458Z</time>
      </trkpt>
      <trkpt lat="46.86925" lon="8.51311">
        <ele>1551</ele>
        <time>2021-08-11T10:11:26.458Z</time>
      </trkpt>
      <trkpt lat="46.86924" lon="8.51311">
        <ele>1551</ele>
        <time>2021-08-11T10:11:27.458Z</time>
      </trkpt>
      <trkpt lat="46.86923" lon="8.51311">
        <ele>1551</ele>
        <time>2021-08-11T10:11:28.458Z</time>
      </trkpt>
      <trkpt lat="46.86922" lon="8.5131">
        <ele>1551</ele>
        <time>2021-08-11T10:11:29.459Z</time>
      </trkpt>
      <trkpt lat="46.8692" lon="8.51308">
        <ele>1552</ele>
        <time>2021-08-11T10:11:30.459Z</time>
      </trkpt>
      <trkpt lat="46.8692" lon="8.51307">
        <ele>1552</ele>
        <time>2021-08-11T10:11:31.459Z</time>
      </trkpt>
      <trkpt lat="46.86919" lon="8.51306">
        <ele>1552</ele>
        <time>2021-08-11T10:11:32.459Z</time>
      </trkpt>
      <trkpt lat="46.86917" lon="8.51305">
        <ele>1553</ele>
        <time>2021-08-11T10:11:33.458Z</time>
      </trkpt>
      <trkpt lat="46.86915" lon="8.51304">
        <ele>1553</ele>
        <time>2021-08-11T10:11:34.459Z</time>
      </trkpt>
      <trkpt lat="46.86913" lon="8.51303">
        <ele>1553</ele>
        <time>2021-08-11T10:11:35.459Z</time>
      </trkpt>
      <trkpt lat="46.86912" lon="8.51303">
        <ele>1553</ele>
        <time>2021-08-11T10:11:36.459Z</time>
      </trkpt>
      <trkpt lat="46.86911" lon="8.51302">
        <ele>1554</ele>
        <time>2021-08-11T10:11:37.459Z</time>
      </trkpt>
      <trkpt lat="46.8691" lon="8.513">
        <ele>1554</ele>
        <time>2021-08-11T10:11:38.458Z</time>
      </trkpt>
      <trkpt lat="46.86908" lon="8.51299">
        <ele>1555</ele>
        <time>2021-08-11T10:11:39.458Z</time>
      </trkpt>
      <trkpt lat="46.86907" lon="8.51298">
        <ele>1555</ele>
        <time>2021-08-11T10:11:40.459Z</time>
      </trkpt>
      <trkpt lat="46.86905" lon="8.51297">
        <ele>1555</ele>
        <time>2021-08-11T10:11:41.459Z</time>
      </trkpt>
      <trkpt lat="46.86904" lon="8.51297">
        <ele>1555</ele>
        <time>2021-08-11T10:11:42.459Z</time>
      </trkpt>
      <trkpt lat="46.86902" lon="8.51297">
        <ele>1554</ele>
        <time>2021-08-11T10:11:43.459Z</time>
      </trkpt>
      <trkpt lat="46.86901" lon="8.51297">
        <ele>1554</ele>
        <time>2021-08-11T10:11:44.459Z</time>
      </trkpt>
      <trkpt lat="46.869" lon="8.51297">
        <ele>1553</ele>
        <time>2021-08-11T10:11:45.458Z</time>
      </trkpt>
      <trkpt lat="46.86899" lon="8.51297">
        <ele>1553</ele>
        <time>2021-08-11T10:11:46.459Z</time>
      </trkpt>
      <trkpt lat="46.86898" lon="8.51296">
        <ele>1552</ele>
        <time>2021-08-11T10:11:47.459Z</time>
      </trkpt>
      <trkpt lat="46.86898" lon="8.51296">
        <ele>1552</ele>
        <time>2021-08-11T10:11:48.459Z</time>
      </trkpt>
      <trkpt lat="46.86897" lon="8.51296">
        <ele>1551</ele>
        <time>2021-08-11T10:11:49.459Z</time>
      </trkpt>
      <trkpt lat="46.86896" lon="8.51296">
        <ele>1551</ele>
        <time>2021-08-11T10:11:50.458Z</time>
      </trkpt>
      <trkpt lat="46.86895" lon="8.51295">
        <ele>1550</ele>
        <time>2021-08-11T10:11:51.459Z</time>
      </trkpt>
      <trkpt lat="46.86894" lon="8.51295">
        <ele>1550</ele>
        <time>2021-08-11T10:11:52.459Z</time>
      </trkpt>
      <trkpt lat="46.86893" lon="8.51295">
        <ele>1550</ele>
        <time>2021-08-11T10:11:53.459Z</time>
      </trkpt>
      <trkpt lat="46.86893" lon="8.51295">
        <ele>1549</ele>
        <time>2021-08-11T10:11:54.458Z</time>
      </trkpt>
      <trkpt lat="46.86892" lon="8.51294">
        <ele>1549</ele>
        <time>2021-08-11T10:11:55.459Z</time>
      </trkpt>
      <trkpt lat="46.8689" lon="8.51294">
        <ele>1549</ele>
        <time>2021-08-11T10:11:56.459Z</time>
      </trkpt>
      <trkpt lat="46.8689" lon="8.51294">
        <ele>1549</ele>
        <time>2021-08-11T10:11:57.458Z</time>
      </trkpt>
      <trkpt lat="46.86889" lon="8.51293">
        <ele>1548</ele>
        <time>2021-08-11T10:11:58.458Z</time>
      </trkpt>
      <trkpt lat="46.86887" lon="8.51292">
        <ele>1548</ele>
        <time>2021-08-11T10:11:59.459Z</time>
      </trkpt>
      <trkpt lat="46.86886" lon="8.51291">
        <ele>1548</ele>
        <time>2021-08-11T10:12:00.459Z</time>
      </trkpt>
      <trkpt lat="46.86885" lon="8.51291">
        <ele>1548</ele>
        <time>2021-08-11T10:12:01.458Z</time>
      </trkpt>
      <trkpt lat="46.86885" lon="8.5129">
        <ele>1548</ele>
        <time>2021-08-11T10:12:02.459Z</time>
      </trkpt>
      <trkpt lat="46.86883" lon="8.5129">
        <ele>1549</ele>
        <time>2021-08-11T10:12:03.458Z</time>
      </trkpt>
      <trkpt lat="46.86882" lon="8.5129">
        <ele>1549</ele>
        <time>2021-08-11T10:12:04.459Z</time>
      </trkpt>
      <trkpt lat="46.86881" lon="8.51289">
        <ele>1549</ele>
        <time>2021-08-11T10:12:05.459Z</time>
      </trkpt>
      <trkpt lat="46.8688" lon="8.51289">
        <ele>1549</ele>
        <time>2021-08-11T10:12:06.459Z</time>
      </trkpt>
      <trkpt lat="46.86879" lon="8.51289">
        <ele>1549</ele>
        <time>2021-08-11T10:12:07.459Z</time>
      </trkpt>
      <trkpt lat="46.86878" lon="8.51289">
        <ele>1549</ele>
        <time>2021-08-11T10:12:08.458Z</time>
      </trkpt>
      <trkpt lat="46.86877" lon="8.51289">
        <ele>1548</ele>
        <time>2021-08-11T10:12:09.459Z</time>
      </trkpt>
      <trkpt lat="46.86876" lon="8.51289">
        <ele>1548</ele>
        <time>2021-08-11T10:12:10.459Z</time>
      </trkpt>
      <trkpt lat="46.86876" lon="8.51289">
        <ele>1547</ele>
        <time>2021-08-11T10:12:11.459Z</time>
      </trkpt>
      <trkpt lat="46.86875" lon="8.51288">
        <ele>1547</ele>
        <time>2021-08-11T10:12:12.459Z</time>
      </trkpt>
      <trkpt lat="46.86874" lon="8.51288">
        <ele>1547</ele>
        <time>2021-08-11T10:12:13.459Z</time>
      </trkpt>
      <trkpt lat="46.86873" lon="8.51288">
        <ele>1547</ele>
        <time>2021-08-11T10:12:14.458Z</time>
      </trkpt>
      <trkpt lat="46.86872" lon="8.51289">
        <ele>1546</ele>
        <time>2021-08-11T10:12:15.459Z</time>
      </trkpt>
      <trkpt lat="46.86871" lon="8.51289">
        <ele>1546</ele>
        <time>2021-08-11T10:12:16.459Z</time>
      </trkpt>
      <trkpt lat="46.8687" lon="8.51288">
        <ele>1546</ele>
        <time>2021-08-11T10:12:17.459Z</time>
      </trkpt>
      <trkpt lat="46.86869" lon="8.51289">
        <ele>1546</ele>
        <time>2021-08-11T10:12:18.458Z</time>
      </trkpt>
      <trkpt lat="46.86868" lon="8.51289">
        <ele>1546</ele>
        <time>2021-08-11T10:12:19.458Z</time>
      </trkpt>
      <trkpt lat="46.86866" lon="8.51289">
        <ele>1546</ele>
        <time>2021-08-11T10:12:20.459Z</time>
      </trkpt>
      <trkpt lat="46.86865" lon="8.51288">
        <ele>1546</ele>
        <time>2021-08-11T10:12:21.459Z</time>
      </trkpt>
      <trkpt lat="46.86864" lon="8.51288">
        <ele>1546</ele>
        <time>2021-08-11T10:12:22.459Z</time>
      </trkpt>
      <trkpt lat="46.86863" lon="8.51287">
        <ele>1546</ele>
        <time>2021-08-11T10:12:23.459Z</time>
      </trkpt>
      <trkpt lat="46.86862" lon="8.51287">
        <ele>1546</ele>
        <time>2021-08-11T10:12:24.458Z</time>
      </trkpt>
      <trkpt lat="46.8686" lon="8.51287">
        <ele>1546</ele>
        <time>2021-08-11T10:12:25.458Z</time>
      </trkpt>
      <trkpt lat="46.86859" lon="8.51286">
        <ele>1546</ele>
        <time>2021-08-11T10:12:26.459Z</time>
      </trkpt>
      <trkpt lat="46.86858" lon="8.51286">
        <ele>1546</ele>
        <time>2021-08-11T10:12:27.459Z</time>
      </trkpt>
      <trkpt lat="46.86857" lon="8.51286">
        <ele>1545</ele>
        <time>2021-08-11T10:12:28.459Z</time>
      </trkpt>
      <trkpt lat="46.86856" lon="8.51285">
        <ele>1545</ele>
        <time>2021-08-11T10:12:29.459Z</time>
      </trkpt>
      <trkpt lat="46.86855" lon="8.51284">
        <ele>1544</ele>
        <time>2021-08-11T10:12:30.458Z</time>
      </trkpt>
      <trkpt lat="46.86854" lon="8.51283">
        <ele>1543</ele>
        <time>2021-08-11T10:12:31.459Z</time>
      </trkpt>
      <trkpt lat="46.86853" lon="8.51282">
        <ele>1543</ele>
        <time>2021-08-11T10:12:32.458Z</time>
      </trkpt>
      <trkpt lat="46.86852" lon="8.51282">
        <ele>1542</ele>
        <time>2021-08-11T10:12:33.458Z</time>
      </trkpt>
      <trkpt lat="46.86851" lon="8.51281">
        <ele>1542</ele>
        <time>2021-08-11T10:12:34.458Z</time>
      </trkpt>
      <trkpt lat="46.8685" lon="8.5128">
        <ele>1542</ele>
        <time>2021-08-11T10:12:35.458Z</time>
      </trkpt>
      <trkpt lat="46.86849" lon="8.51279">
        <ele>1541</ele>
        <time>2021-08-11T10:12:36.458Z</time>
      </trkpt>
      <trkpt lat="46.86847" lon="8.51278">
        <ele>1541</ele>
        <time>2021-08-11T10:12:37.459Z</time>
      </trkpt>
      <trkpt lat="46.86846" lon="8.51278">
        <ele>1541</ele>
        <time>2021-08-11T10:12:38.459Z</time>
      </trkpt>
      <trkpt lat="46.86845" lon="8.51277">
        <ele>1541</ele>
        <time>2021-08-11T10:12:39.458Z</time>
      </trkpt>
      <trkpt lat="46.86845" lon="8.51277">
        <ele>1541</ele>
        <time>2021-08-11T10:12:40.458Z</time>
      </trkpt>
      <trkpt lat="46.86844" lon="8.51276">
        <ele>1541</ele>
        <time>2021-08-11T10:12:41.459Z</time>
      </trkpt>
      <trkpt lat="46.86842" lon="8.51276">
        <ele>1541</ele>
        <time>2021-08-11T10:12:42.458Z</time>
      </trkpt>
      <trkpt lat="46.86841" lon="8.51275">
        <ele>1541</ele>
        <time>2021-08-11T10:12:43.459Z</time>
      </trkpt>
      <trkpt lat="46.8684" lon="8.51274">
        <ele>1541</ele>
        <time>2021-08-11T10:12:44.458Z</time>
      </trkpt>
      <trkpt lat="46.86839" lon="8.51272">
        <ele>1541</ele>
        <time>2021-08-11T10:12:45.458Z</time>
      </trkpt>
      <trkpt lat="46.86838" lon="8.51272">
        <ele>1541</ele>
        <time>2021-08-11T10:12:46.459Z</time>
      </trkpt>
      <trkpt lat="46.86837" lon="8.51272">
        <ele>1541</ele>
        <time>2021-08-11T10:12:47.458Z</time>
      </trkpt>
      <trkpt lat="46.86836" lon="8.51273">
        <ele>1541</ele>
        <time>2021-08-11T10:12:48.459Z</time>
      </trkpt>
      <trkpt lat="46.86834" lon="8.5127">
        <ele>1541</ele>
        <time>2021-08-11T10:12:49.459Z</time>
      </trkpt>
      <trkpt lat="46.86833" lon="8.5127">
        <ele>1541</ele>
        <time>2021-08-11T10:12:50.458Z</time>
      </trkpt>
      <trkpt lat="46.86832" lon="8.51269">
        <ele>1540</ele>
        <time>2021-08-11T10:12:51.459Z</time>
      </trkpt>
      <trkpt lat="46.8683" lon="8.51269">
        <ele>1540</ele>
        <time>2021-08-11T10:12:52.459Z</time>
      </trkpt>
      <trkpt lat="46.86829" lon="8.51268">
        <ele>1540</ele>
        <time>2021-08-11T10:12:53.459Z</time>
      </trkpt>
      <trkpt lat="46.86828" lon="8.51267">
        <ele>1540</ele>
        <time>2021-08-11T10:12:54.459Z</time>
      </trkpt>
      <trkpt lat="46.86826" lon="8.51267">
        <ele>1540</ele>
        <time>2021-08-11T10:12:55.458Z</time>
      </trkpt>
      <trkpt lat="46.86825" lon="8.51266">
        <ele>1540</ele>
        <time>2021-08-11T10:12:56.459Z</time>
      </trkpt>
      <trkpt lat="46.86823" lon="8.51265">
        <ele>1540</ele>
        <time>2021-08-11T10:12:57.459Z</time>
      </trkpt>
      <trkpt lat="46.86822" lon="8.51264">
        <ele>1540</ele>
        <time>2021-08-11T10:12:58.459Z</time>
      </trkpt>
      <trkpt lat="46.86821" lon="8.51263">
        <ele>1541</ele>
        <time>2021-08-11T10:12:59.459Z</time>
      </trkpt>
      <trkpt lat="46.86819" lon="8.51263">
        <ele>1541</ele>
        <time>2021-08-11T10:13:00.459Z</time>
      </trkpt>
      <trkpt lat="46.86819" lon="8.51263">
        <ele>1541</ele>
        <time>2021-08-11T10:13:01.458Z</time>
      </trkpt>
      <trkpt lat="46.86818" lon="8.51262">
        <ele>1542</ele>
        <time>2021-08-11T10:13:02.459Z</time>
      </trkpt>
      <trkpt lat="46.86817" lon="8.51261">
        <ele>1542</ele>
        <time>2021-08-11T10:13:03.458Z</time>
      </trkpt>
      <trkpt lat="46.86817" lon="8.51259">
        <ele>1542</ele>
        <time>2021-08-11T10:13:04.459Z</time>
      </trkpt>
      <trkpt lat="46.86816" lon="8.51259">
        <ele>1542</ele>
        <time>2021-08-11T10:13:05.459Z</time>
      </trkpt>
      <trkpt lat="46.86815" lon="8.51257">
        <ele>1542</ele>
        <time>2021-08-11T10:13:06.459Z</time>
      </trkpt>
      <trkpt lat="46.86814" lon="8.51257">
        <ele>1542</ele>
        <time>2021-08-11T10:13:07.458Z</time>
      </trkpt>
      <trkpt lat="46.86813" lon="8.51256">
        <ele>1543</ele>
        <time>2021-08-11T10:13:08.458Z</time>
      </trkpt>
      <trkpt lat="46.86812" lon="8.51255">
        <ele>1543</ele>
        <time>2021-08-11T10:13:09.459Z</time>
      </trkpt>
      <trkpt lat="46.86811" lon="8.51253">
        <ele>1543</ele>
        <time>2021-08-11T10:13:10.459Z</time>
      </trkpt>
      <trkpt lat="46.86809" lon="8.51252">
        <ele>1543</ele>
        <time>2021-08-11T10:13:11.459Z</time>
      </trkpt>
      <trkpt lat="46.86808" lon="8.51252">
        <ele>1543</ele>
        <time>2021-08-11T10:13:12.459Z</time>
      </trkpt>
      <trkpt lat="46.86807" lon="8.51251">
        <ele>1544</ele>
        <time>2021-08-11T10:13:13.459Z</time>
      </trkpt>
      <trkpt lat="46.86806" lon="8.51251">
        <ele>1544</ele>
        <time>2021-08-11T10:13:14.458Z</time>
      </trkpt>
      <trkpt lat="46.86805" lon="8.5125">
        <ele>1545</ele>
        <time>2021-08-11T10:13:15.459Z</time>
      </trkpt>
      <trkpt lat="46.86804" lon="8.51249">
        <ele>1545</ele>
        <time>2021-08-11T10:13:16.458Z</time>
      </trkpt>
      <trkpt lat="46.86802" lon="8.51249">
        <ele>1545</ele>
        <time>2021-08-11T10:13:17.458Z</time>
      </trkpt>
      <trkpt lat="46.86802" lon="8.51248">
        <ele>1545</ele>
        <time>2021-08-11T10:13:18.459Z</time>
      </trkpt>
      <trkpt lat="46.86801" lon="8.51248">
        <ele>1545</ele>
        <time>2021-08-11T10:13:19.458Z</time>
      </trkpt>
      <trkpt lat="46.868" lon="8.51247">
        <ele>1545</ele>
        <time>2021-08-11T10:13:20.459Z</time>
      </trkpt>
      <trkpt lat="46.86798" lon="8.51247">
        <ele>1545</ele>
        <time>2021-08-11T10:13:21.459Z</time>
      </trkpt>
      <trkpt lat="46.86797" lon="8.51246">
        <ele>1545</ele>
        <time>2021-08-11T10:13:22.458Z</time>
      </trkpt>
      <trkpt lat="46.86796" lon="8.51246">
        <ele>1545</ele>
        <time>2021-08-11T10:13:23.459Z</time>
      </trkpt>
      <trkpt lat="46.86796" lon="8.51245">
        <ele>1544</ele>
        <time>2021-08-11T10:13:24.458Z</time>
      </trkpt>
      <trkpt lat="46.86795" lon="8.51245">
        <ele>1544</ele>
        <time>2021-08-11T10:13:25.459Z</time>
      </trkpt>
      <trkpt lat="46.86794" lon="8.51244">
        <ele>1543</ele>
        <time>2021-08-11T10:13:26.459Z</time>
      </trkpt>
      <trkpt lat="46.86792" lon="8.51242">
        <ele>1543</ele>
        <time>2021-08-11T10:13:27.458Z</time>
      </trkpt>
      <trkpt lat="46.86791" lon="8.51242">
        <ele>1542</ele>
        <time>2021-08-11T10:13:28.459Z</time>
      </trkpt>
      <trkpt lat="46.8679" lon="8.51241">
        <ele>1542</ele>
        <time>2021-08-11T10:13:29.459Z</time>
      </trkpt>
      <trkpt lat="46.86789" lon="8.5124">
        <ele>1541</ele>
        <time>2021-08-11T10:13:30.459Z</time>
      </trkpt>
      <trkpt lat="46.86787" lon="8.51238">
        <ele>1541</ele>
        <time>2021-08-11T10:13:31.459Z</time>
      </trkpt>
      <trkpt lat="46.86786" lon="8.51238">
        <ele>1540</ele>
        <time>2021-08-11T10:13:32.459Z</time>
      </trkpt>
      <trkpt lat="46.86786" lon="8.51237">
        <ele>1539</ele>
        <time>2021-08-11T10:13:33.458Z</time>
      </trkpt>
      <trkpt lat="46.86785" lon="8.51238">
        <ele>1538</ele>
        <time>2021-08-11T10:13:34.459Z</time>
      </trkpt>
      <trkpt lat="46.86785" lon="8.51238">
        <ele>1537</ele>
        <time>2021-08-11T10:13:35.458Z</time>
      </trkpt>
      <trkpt lat="46.86783" lon="8.51237">
        <ele>1536</ele>
        <time>2021-08-11T10:13:36.459Z</time>
      </trkpt>
      <trkpt lat="46.86781" lon="8.51235">
        <ele>1535</ele>
        <time>2021-08-11T10:13:37.459Z</time>
      </trkpt>
      <trkpt lat="46.8678" lon="8.51233">
        <ele>1534</ele>
        <time>2021-08-11T10:13:38.459Z</time>
      </trkpt>
      <trkpt lat="46.86779" lon="8.51231">
        <ele>1533</ele>
        <time>2021-08-11T10:13:39.459Z</time>
      </trkpt>
      <trkpt lat="46.86777" lon="8.51229">
        <ele>1533</ele>
        <time>2021-08-11T10:13:40.459Z</time>
      </trkpt>
      <trkpt lat="46.86776" lon="8.51228">
        <ele>1532</ele>
        <time>2021-08-11T10:13:41.459Z</time>
      </trkpt>
      <trkpt lat="46.86775" lon="8.51227">
        <ele>1531</ele>
        <time>2021-08-11T10:13:42.459Z</time>
      </trkpt>
      <trkpt lat="46.86774" lon="8.51227">
        <ele>1531</ele>
        <time>2021-08-11T10:13:43.458Z</time>
      </trkpt>
      <trkpt lat="46.86773" lon="8.51226">
        <ele>1531</ele>
        <time>2021-08-11T10:13:44.458Z</time>
      </trkpt>
      <trkpt lat="46.86773" lon="8.51226">
        <ele>1530</ele>
        <time>2021-08-11T10:13:45.459Z</time>
      </trkpt>
      <trkpt lat="46.86772" lon="8.51226">
        <ele>1530</ele>
        <time>2021-08-11T10:13:46.459Z</time>
      </trkpt>
      <trkpt lat="46.86771" lon="8.51226">
        <ele>1530</ele>
        <time>2021-08-11T10:13:47.459Z</time>
      </trkpt>
      <trkpt lat="46.8677" lon="8.51226">
        <ele>1530</ele>
        <time>2021-08-11T10:13:48.459Z</time>
      </trkpt>
      <trkpt lat="46.86769" lon="8.51226">
        <ele>1530</ele>
        <time>2021-08-11T10:13:49.459Z</time>
      </trkpt>
      <trkpt lat="46.86769" lon="8.51226">
        <ele>1530</ele>
        <time>2021-08-11T10:13:50.459Z</time>
      </trkpt>
      <trkpt lat="46.86768" lon="8.51226">
        <ele>1530</ele>
        <time>2021-08-11T10:13:51.459Z</time>
      </trkpt>
      <trkpt lat="46.86767" lon="8.51226">
        <ele>1531</ele>
        <time>2021-08-11T10:13:52.459Z</time>
      </trkpt>
      <trkpt lat="46.86766" lon="8.51225">
        <ele>1531</ele>
        <time>2021-08-11T10:13:53.459Z</time>
      </trkpt>
      <trkpt lat="46.86765" lon="8.51224">
        <ele>1530</ele>
        <time>2021-08-11T10:13:54.459Z</time>
      </trkpt>
      <trkpt lat="46.86764" lon="8.51224">
        <ele>1530</ele>
        <time>2021-08-11T10:13:55.459Z</time>
      </trkpt>
      <trkpt lat="46.86763" lon="8.51223">
        <ele>1529</ele>
        <time>2021-08-11T10:13:56.458Z</time>
      </trkpt>
      <trkpt lat="46.86761" lon="8.51221">
        <ele>1529</ele>
        <time>2021-08-11T10:13:57.459Z</time>
      </trkpt>
      <trkpt lat="46.8676" lon="8.5122">
        <ele>1528</ele>
        <time>2021-08-11T10:13:58.458Z</time>
      </trkpt>
      <trkpt lat="46.86759" lon="8.5122">
        <ele>1528</ele>
        <time>2021-08-11T10:13:59.459Z</time>
      </trkpt>
      <trkpt lat="46.86757" lon="8.5122">
        <ele>1527</ele>
        <time>2021-08-11T10:14:00.458Z</time>
      </trkpt>
      <trkpt lat="46.86756" lon="8.51219">
        <ele>1526</ele>
        <time>2021-08-11T10:14:01.459Z</time>
      </trkpt>
      <trkpt lat="46.86755" lon="8.51219">
        <ele>1525</ele>
        <time>2021-08-11T10:14:02.459Z</time>
      </trkpt>
      <trkpt lat="46.86754" lon="8.51219">
        <ele>1524</ele>
        <time>2021-08-11T10:14:03.459Z</time>
      </trkpt>
      <trkpt lat="46.86753" lon="8.51217">
        <ele>1524</ele>
        <time>2021-08-11T10:14:04.458Z</time>
      </trkpt>
      <trkpt lat="46.86752" lon="8.51216">
        <ele>1524</ele>
        <time>2021-08-11T10:14:05.458Z</time>
      </trkpt>
      <trkpt lat="46.86751" lon="8.51216">
        <ele>1523</ele>
        <time>2021-08-11T10:14:06.459Z</time>
      </trkpt>
      <trkpt lat="46.86749" lon="8.51214">
        <ele>1523</ele>
        <time>2021-08-11T10:14:07.459Z</time>
      </trkpt>
      <trkpt lat="46.86748" lon="8.51213">
        <ele>1523</ele>
        <time>2021-08-11T10:14:08.459Z</time>
      </trkpt>
      <trkpt lat="46.86747" lon="8.51212">
        <ele>1523</ele>
        <time>2021-08-11T10:14:09.459Z</time>
      </trkpt>
      <trkpt lat="46.86746" lon="8.51211">
        <ele>1524</ele>
        <time>2021-08-11T10:14:10.458Z</time>
      </trkpt>
      <trkpt lat="46.86745" lon="8.51211">
        <ele>1524</ele>
        <time>2021-08-11T10:14:11.459Z</time>
      </trkpt>
      <trkpt lat="46.86744" lon="8.51211">
        <ele>1523</ele>
        <time>2021-08-11T10:14:12.459Z</time>
      </trkpt>
      <trkpt lat="46.86743" lon="8.51212">
        <ele>1522</ele>
        <time>2021-08-11T10:14:13.458Z</time>
      </trkpt>
      <trkpt lat="46.86743" lon="8.51212">
        <ele>1521</ele>
        <time>2021-08-11T10:14:14.459Z</time>
      </trkpt>
      <trkpt lat="46.86742" lon="8.51212">
        <ele>1520</ele>
        <time>2021-08-11T10:14:15.459Z</time>
      </trkpt>
      <trkpt lat="46.86741" lon="8.51212">
        <ele>1520</ele>
        <time>2021-08-11T10:14:16.459Z</time>
      </trkpt>
      <trkpt lat="46.8674" lon="8.51212">
        <ele>1519</ele>
        <time>2021-08-11T10:14:17.459Z</time>
      </trkpt>
      <trkpt lat="46.86739" lon="8.51212">
        <ele>1518</ele>
        <time>2021-08-11T10:14:18.458Z</time>
      </trkpt>
      <trkpt lat="46.86738" lon="8.51211">
        <ele>1517</ele>
        <time>2021-08-11T10:14:19.459Z</time>
      </trkpt>
      <trkpt lat="46.86737" lon="8.5121">
        <ele>1517</ele>
        <time>2021-08-11T10:14:20.459Z</time>
      </trkpt>
      <trkpt lat="46.86736" lon="8.51209">
        <ele>1516</ele>
        <time>2021-08-11T10:14:21.459Z</time>
      </trkpt>
      <trkpt lat="46.86736" lon="8.5121">
        <ele>1515</ele>
        <time>2021-08-11T10:14:22.459Z</time>
      </trkpt>
      <trkpt lat="46.86735" lon="8.51209">
        <ele>1514</ele>
        <time>2021-08-11T10:14:23.459Z</time>
      </trkpt>
      <trkpt lat="46.86735" lon="8.51208">
        <ele>1512</ele>
        <time>2021-08-11T10:14:24.459Z</time>
      </trkpt>
      <trkpt lat="46.86734" lon="8.51206">
        <ele>1511</ele>
        <time>2021-08-11T10:14:25.458Z</time>
      </trkpt>
      <trkpt lat="46.86733" lon="8.51205">
        <ele>1510</ele>
        <time>2021-08-11T10:14:26.459Z</time>
      </trkpt>
      <trkpt lat="46.86732" lon="8.51202">
        <ele>1509</ele>
        <time>2021-08-11T10:14:27.458Z</time>
      </trkpt>
      <trkpt lat="46.86732" lon="8.512">
        <ele>1508</ele>
        <time>2021-08-11T10:14:28.459Z</time>
      </trkpt>
      <trkpt lat="46.86731" lon="8.51199">
        <ele>1507</ele>
        <time>2021-08-11T10:14:29.458Z</time>
      </trkpt>
      <trkpt lat="46.86731" lon="8.51197">
        <ele>1507</ele>
        <time>2021-08-11T10:14:30.459Z</time>
      </trkpt>
      <trkpt lat="46.86731" lon="8.51195">
        <ele>1506</ele>
        <time>2021-08-11T10:14:31.459Z</time>
      </trkpt>
      <trkpt lat="46.86731" lon="8.51194">
        <ele>1506</ele>
        <time>2021-08-11T10:14:32.459Z</time>
      </trkpt>
      <trkpt lat="46.86732" lon="8.51192">
        <ele>1505</ele>
        <time>2021-08-11T10:14:33.459Z</time>
      </trkpt>
      <trkpt lat="46.86732" lon="8.51191">
        <ele>1505</ele>
        <time>2021-08-11T10:14:34.459Z</time>
      </trkpt>
      <trkpt lat="46.86733" lon="8.51191">
        <ele>1505</ele>
        <time>2021-08-11T10:14:35.459Z</time>
      </trkpt>
      <trkpt lat="46.86734" lon="8.51191">
        <ele>1504</ele>
        <time>2021-08-11T10:14:36.459Z</time>
      </trkpt>
      <trkpt lat="46.86735" lon="8.5119">
        <ele>1503</ele>
        <time>2021-08-11T10:14:37.459Z</time>
      </trkpt>
      <trkpt lat="46.86736" lon="8.51189">
        <ele>1503</ele>
        <time>2021-08-11T10:14:38.458Z</time>
      </trkpt>
      <trkpt lat="46.86736" lon="8.51187">
        <ele>1502</ele>
        <time>2021-08-11T10:14:39.459Z</time>
      </trkpt>
      <trkpt lat="46.86737" lon="8.51186">
        <ele>1502</ele>
        <time>2021-08-11T10:14:40.459Z</time>
      </trkpt>
      <trkpt lat="46.86737" lon="8.51184">
        <ele>1501</ele>
        <time>2021-08-11T10:14:41.459Z</time>
      </trkpt>
      <trkpt lat="46.86737" lon="8.51181">
        <ele>1501</ele>
        <time>2021-08-11T10:14:42.459Z</time>
      </trkpt>
      <trkpt lat="46.86737" lon="8.51179">
        <ele>1500</ele>
        <time>2021-08-11T10:14:43.459Z</time>
      </trkpt>
      <trkpt lat="46.86737" lon="8.51177">
        <ele>1500</ele>
        <time>2021-08-11T10:14:44.459Z</time>
      </trkpt>
      <trkpt lat="46.86738" lon="8.51175">
        <ele>1500</ele>
        <time>2021-08-11T10:14:45.459Z</time>
      </trkpt>
      <trkpt lat="46.86738" lon="8.51173">
        <ele>1500</ele>
        <time>2021-08-11T10:14:46.458Z</time>
      </trkpt>
      <trkpt lat="46.86739" lon="8.51172">
        <ele>1500</ele>
        <time>2021-08-11T10:14:47.458Z</time>
      </trkpt>
      <trkpt lat="46.86739" lon="8.5117">
        <ele>1500</ele>
        <time>2021-08-11T10:14:48.458Z</time>
      </trkpt>
      <trkpt lat="46.86739" lon="8.51168">
        <ele>1499</ele>
        <time>2021-08-11T10:14:49.458Z</time>
      </trkpt>
      <trkpt lat="46.8674" lon="8.51167">
        <ele>1499</ele>
        <time>2021-08-11T10:14:50.459Z</time>
      </trkpt>
      <trkpt lat="46.8674" lon="8.51165">
        <ele>1499</ele>
        <time>2021-08-11T10:14:51.459Z</time>
      </trkpt>
      <trkpt lat="46.8674" lon="8.51164">
        <ele>1499</ele>
        <time>2021-08-11T10:14:52.459Z</time>
      </trkpt>
      <trkpt lat="46.86741" lon="8.51163">
        <ele>1498</ele>
        <time>2021-08-11T10:14:53.459Z</time>
      </trkpt>
      <trkpt lat="46.86742" lon="8.51161">
        <ele>1498</ele>
        <time>2021-08-11T10:14:54.459Z</time>
      </trkpt>
      <trkpt lat="46.86742" lon="8.5116">
        <ele>1498</ele>
        <time>2021-08-11T10:14:55.459Z</time>
      </trkpt>
      <trkpt lat="46.86743" lon="8.51158">
        <ele>1498</ele>
        <time>2021-08-11T10:14:56.459Z</time>
      </trkpt>
      <trkpt lat="46.86743" lon="8.51156">
        <ele>1498</ele>
        <time>2021-08-11T10:14:57.458Z</time>
      </trkpt>
      <trkpt lat="46.86743" lon="8.51155">
        <ele>1498</ele>
        <time>2021-08-11T10:14:58.459Z</time>
      </trkpt>
      <trkpt lat="46.86743" lon="8.51153">
        <ele>1498</ele>
        <time>2021-08-11T10:14:59.458Z</time>
      </trkpt>
      <trkpt lat="46.86743" lon="8.51151">
        <ele>1498</ele>
        <time>2021-08-11T10:15:00.459Z</time>
      </trkpt>
      <trkpt lat="46.86743" lon="8.5115">
        <ele>1499</ele>
        <time>2021-08-11T10:15:01.459Z</time>
      </trkpt>
      <trkpt lat="46.86743" lon="8.51149">
        <ele>1499</ele>
        <time>2021-08-11T10:15:02.458Z</time>
      </trkpt>
      <trkpt lat="46.86744" lon="8.51148">
        <ele>1500</ele>
        <time>2021-08-11T10:15:03.458Z</time>
      </trkpt>
      <trkpt lat="46.86744" lon="8.51147">
        <ele>1500</ele>
        <time>2021-08-11T10:15:04.458Z</time>
      </trkpt>
      <trkpt lat="46.86745" lon="8.51145">
        <ele>1499</ele>
        <time>2021-08-11T10:15:05.459Z</time>
      </trkpt>
      <trkpt lat="46.86745" lon="8.51145">
        <ele>1498</ele>
        <time>2021-08-11T10:15:06.459Z</time>
      </trkpt>
      <trkpt lat="46.86746" lon="8.51144">
        <ele>1498</ele>
        <time>2021-08-11T10:15:07.459Z</time>
      </trkpt>
      <trkpt lat="46.86747" lon="8.51143">
        <ele>1497</ele>
        <time>2021-08-11T10:15:08.459Z</time>
      </trkpt>
      <trkpt lat="46.86748" lon="8.51142">
        <ele>1497</ele>
        <time>2021-08-11T10:15:09.459Z</time>
      </trkpt>
      <trkpt lat="46.86749" lon="8.51142">
        <ele>1496</ele>
        <time>2021-08-11T10:15:10.458Z</time>
      </trkpt>
      <trkpt lat="46.8675" lon="8.51141">
        <ele>1495</ele>
        <time>2021-08-11T10:15:11.459Z</time>
      </trkpt>
      <trkpt lat="46.8675" lon="8.5114">
        <ele>1494</ele>
        <time>2021-08-11T10:15:12.459Z</time>
      </trkpt>
      <trkpt lat="46.86751" lon="8.5114">
        <ele>1493</ele>
        <time>2021-08-11T10:15:13.458Z</time>
      </trkpt>
      <trkpt lat="46.86752" lon="8.51138">
        <ele>1493</ele>
        <time>2021-08-11T10:15:14.459Z</time>
      </trkpt>
      <trkpt lat="46.86752" lon="8.51137">
        <ele>1493</ele>
        <time>2021-08-11T10:15:15.458Z</time>
      </trkpt>
      <trkpt lat="46.86752" lon="8.51136">
        <ele>1492</ele>
        <time>2021-08-11T10:15:16.459Z</time>
      </trkpt>
      <trkpt lat="46.86752" lon="8.51134">
        <ele>1492</ele>
        <time>2021-08-11T10:15:17.459Z</time>
      </trkpt>
      <trkpt lat="46.86753" lon="8.51132">
        <ele>1492</ele>
        <time>2021-08-11T10:15:18.459Z</time>
      </trkpt>
      <trkpt lat="46.86753" lon="8.51131">
        <ele>1492</ele>
        <time>2021-08-11T10:15:19.458Z</time>
      </trkpt>
      <trkpt lat="46.86752" lon="8.51129">
        <ele>1492</ele>
        <time>2021-08-11T10:15:20.459Z</time>
      </trkpt>
      <trkpt lat="46.86753" lon="8.51128">
        <ele>1491</ele>
        <time>2021-08-11T10:15:21.458Z</time>
      </trkpt>
      <trkpt lat="46.86752" lon="8.51126">
        <ele>1491</ele>
        <time>2021-08-11T10:15:22.459Z</time>
      </trkpt>
      <trkpt lat="46.86752" lon="8.51124">
        <ele>1491</ele>
        <time>2021-08-11T10:15:23.458Z</time>
      </trkpt>
      <trkpt lat="46.86752" lon="8.51122">
        <ele>1491</ele>
        <time>2021-08-11T10:15:24.459Z</time>
      </trkpt>
      <trkpt lat="46.86751" lon="8.5112">
        <ele>1491</ele>
        <time>2021-08-11T10:15:25.458Z</time>
      </trkpt>
      <trkpt lat="46.86751" lon="8.51119">
        <ele>1491</ele>
        <time>2021-08-11T10:15:26.458Z</time>
      </trkpt>
      <trkpt lat="46.8675" lon="8.51117">
        <ele>1491</ele>
        <time>2021-08-11T10:15:27.459Z</time>
      </trkpt>
      <trkpt lat="46.86749" lon="8.51116">
        <ele>1491</ele>
        <time>2021-08-11T10:15:28.459Z</time>
      </trkpt>
      <trkpt lat="46.86748" lon="8.51114">
        <ele>1491</ele>
        <time>2021-08-11T10:15:29.459Z</time>
      </trkpt>
      <trkpt lat="46.86747" lon="8.51112">
        <ele>1491</ele>
        <time>2021-08-11T10:15:30.459Z</time>
      </trkpt>
      <trkpt lat="46.86747" lon="8.51111">
        <ele>1491</ele>
        <time>2021-08-11T10:15:31.459Z</time>
      </trkpt>
      <trkpt lat="46.86746" lon="8.5111">
        <ele>1491</ele>
        <time>2021-08-11T10:15:32.459Z</time>
      </trkpt>
      <trkpt lat="46.86745" lon="8.51108">
        <ele>1492</ele>
        <time>2021-08-11T10:15:33.459Z</time>
      </trkpt>
      <trkpt lat="46.86744" lon="8.51107">
        <ele>1492</ele>
        <time>2021-08-11T10:15:34.458Z</time>
      </trkpt>
      <trkpt lat="46.86743" lon="8.51107">
        <ele>1492</ele>
        <time>2021-08-11T10:15:35.459Z</time>
      </trkpt>
      <trkpt lat="46.86743" lon="8.51106">
        <ele>1492</ele>
        <time>2021-08-11T10:15:36.459Z</time>
      </trkpt>
      <trkpt lat="46.86742" lon="8.51106">
        <ele>1491</ele>
        <time>2021-08-11T10:15:37.459Z</time>
      </trkpt>
      <trkpt lat="46.86741" lon="8.51105">
        <ele>1491</ele>
        <time>2021-08-11T10:15:38.459Z</time>
      </trkpt>
      <trkpt lat="46.8674" lon="8.51104">
        <ele>1491</ele>
        <time>2021-08-11T10:15:39.459Z</time>
      </trkpt>
      <trkpt lat="46.8674" lon="8.51103">
        <ele>1491</ele>
        <time>2021-08-11T10:15:40.459Z</time>
      </trkpt>
      <trkpt lat="46.86739" lon="8.51102">
        <ele>1491</ele>
        <time>2021-08-11T10:15:41.459Z</time>
      </trkpt>
      <trkpt lat="46.86739" lon="8.51101">
        <ele>1491</ele>
        <time>2021-08-11T10:15:42.458Z</time>
      </trkpt>
      <trkpt lat="46.86738" lon="8.51099">
        <ele>1491</ele>
        <time>2021-08-11T10:15:43.458Z</time>
      </trkpt>
      <trkpt lat="46.86738" lon="8.51098">
        <ele>1490</ele>
        <time>2021-08-11T10:15:44.458Z</time>
      </trkpt>
      <trkpt lat="46.86738" lon="8.51096">
        <ele>1490</ele>
        <time>2021-08-11T10:15:45.459Z</time>
      </trkpt>
      <trkpt lat="46.86738" lon="8.51095">
        <ele>1490</ele>
        <time>2021-08-11T10:15:46.459Z</time>
      </trkpt>
      <trkpt lat="46.86738" lon="8.51093">
        <ele>1489</ele>
        <time>2021-08-11T10:15:47.459Z</time>
      </trkpt>
      <trkpt lat="46.86739" lon="8.51093">
        <ele>1489</ele>
        <time>2021-08-11T10:15:48.458Z</time>
      </trkpt>
      <trkpt lat="46.8674" lon="8.51092">
        <ele>1489</ele>
        <time>2021-08-11T10:15:49.458Z</time>
      </trkpt>
      <trkpt lat="46.8674" lon="8.5109">
        <ele>1489</ele>
        <time>2021-08-11T10:15:50.459Z</time>
      </trkpt>
      <trkpt lat="46.86739" lon="8.51088">
        <ele>1489</ele>
        <time>2021-08-11T10:15:51.458Z</time>
      </trkpt>
      <trkpt lat="46.86739" lon="8.51087">
        <ele>1489</ele>
        <time>2021-08-11T10:15:52.459Z</time>
      </trkpt>
      <trkpt lat="46.86739" lon="8.51085">
        <ele>1489</ele>
        <time>2021-08-11T10:15:53.458Z</time>
      </trkpt>
      <trkpt lat="46.86739" lon="8.51083">
        <ele>1489</ele>
        <time>2021-08-11T10:15:54.458Z</time>
      </trkpt>
      <trkpt lat="46.86739" lon="8.51082">
        <ele>1489</ele>
        <time>2021-08-11T10:15:55.459Z</time>
      </trkpt>
      <trkpt lat="46.86739" lon="8.5108">
        <ele>1489</ele>
        <time>2021-08-11T10:15:56.459Z</time>
      </trkpt>
      <trkpt lat="46.86739" lon="8.51079">
        <ele>1489</ele>
        <time>2021-08-11T10:15:57.458Z</time>
      </trkpt>
      <trkpt lat="46.8674" lon="8.51077">
        <ele>1488</ele>
        <time>2021-08-11T10:15:58.458Z</time>
      </trkpt>
      <trkpt lat="46.8674" lon="8.51075">
        <ele>1488</ele>
        <time>2021-08-11T10:15:59.458Z</time>
      </trkpt>
      <trkpt lat="46.86741" lon="8.51074">
        <ele>1488</ele>
        <time>2021-08-11T10:16:00.459Z</time>
      </trkpt>
      <trkpt lat="46.86741" lon="8.51072">
        <ele>1488</ele>
        <time>2021-08-11T10:16:01.459Z</time>
      </trkpt>
      <trkpt lat="46.86741" lon="8.51071">
        <ele>1487</ele>
        <time>2021-08-11T10:16:02.459Z</time>
      </trkpt>
      <trkpt lat="46.86741" lon="8.51069">
        <ele>1487</ele>
        <time>2021-08-11T10:16:03.458Z</time>
      </trkpt>
      <trkpt lat="46.86741" lon="8.51068">
        <ele>1487</ele>
        <time>2021-08-11T10:16:04.458Z</time>
      </trkpt>
      <trkpt lat="46.86742" lon="8.51067">
        <ele>1486</ele>
        <time>2021-08-11T10:16:05.459Z</time>
      </trkpt>
      <trkpt lat="46.86742" lon="8.51065">
        <ele>1486</ele>
        <time>2021-08-11T10:16:06.458Z</time>
      </trkpt>
      <trkpt lat="46.86743" lon="8.51065">
        <ele>1485</ele>
        <time>2021-08-11T10:16:07.458Z</time>
      </trkpt>
      <trkpt lat="46.86743" lon="8.51065">
        <ele>1485</ele>
        <time>2021-08-11T10:16:08.458Z</time>
      </trkpt>
      <trkpt lat="46.86743" lon="8.51064">
        <ele>1484</ele>
        <time>2021-08-11T10:16:09.458Z</time>
      </trkpt>
      <trkpt lat="46.86743" lon="8.51063">
        <ele>1484</ele>
        <time>2021-08-11T10:16:10.458Z</time>
      </trkpt>
      <trkpt lat="46.86743" lon="8.51062">
        <ele>1483</ele>
        <time>2021-08-11T10:16:11.458Z</time>
      </trkpt>
      <trkpt lat="46.86744" lon="8.5106">
        <ele>1482</ele>
        <time>2021-08-11T10:16:12.458Z</time>
      </trkpt>
      <trkpt lat="46.86744" lon="8.51059">
        <ele>1481</ele>
        <time>2021-08-11T10:16:13.458Z</time>
      </trkpt>
      <trkpt lat="46.86745" lon="8.51058">
        <ele>1480</ele>
        <time>2021-08-11T10:16:14.458Z</time>
      </trkpt>
      <trkpt lat="46.86745" lon="8.51056">
        <ele>1479</ele>
        <time>2021-08-11T10:16:15.459Z</time>
      </trkpt>
      <trkpt lat="46.86746" lon="8.51054">
        <ele>1479</ele>
        <time>2021-08-11T10:16:16.459Z</time>
      </trkpt>
      <trkpt lat="46.86746" lon="8.51052">
        <ele>1479</ele>
        <time>2021-08-11T10:16:17.458Z</time>
      </trkpt>
      <trkpt lat="46.86746" lon="8.51051">
        <ele>1478</ele>
        <time>2021-08-11T10:16:18.458Z</time>
      </trkpt>
      <trkpt lat="46.86746" lon="8.5105">
        <ele>1478</ele>
        <time>2021-08-11T10:16:19.458Z</time>
      </trkpt>
      <trkpt lat="46.86746" lon="8.51048">
        <ele>1478</ele>
        <time>2021-08-11T10:16:20.458Z</time>
      </trkpt>
      <trkpt lat="46.86745" lon="8.51047">
        <ele>1478</ele>
        <time>2021-08-11T10:16:21.458Z</time>
      </trkpt>
      <trkpt lat="46.86745" lon="8.51046">
        <ele>1478</ele>
        <time>2021-08-11T10:16:22.458Z</time>
      </trkpt>
      <trkpt lat="46.86745" lon="8.51045">
        <ele>1478</ele>
        <time>2021-08-11T10:16:23.458Z</time>
      </trkpt>
      <trkpt lat="46.86746" lon="8.51044">
        <ele>1478</ele>
        <time>2021-08-11T10:16:24.459Z</time>
      </trkpt>
      <trkpt lat="46.86746" lon="8.51043">
        <ele>1478</ele>
        <time>2021-08-11T10:16:25.458Z</time>
      </trkpt>
      <trkpt lat="46.86747" lon="8.51041">
        <ele>1478</ele>
        <time>2021-08-11T10:16:26.458Z</time>
      </trkpt>
      <trkpt lat="46.86748" lon="8.5104">
        <ele>1478</ele>
        <time>2021-08-11T10:16:27.458Z</time>
      </trkpt>
      <trkpt lat="46.86749" lon="8.51038">
        <ele>1478</ele>
        <time>2021-08-11T10:16:28.459Z</time>
      </trkpt>
      <trkpt lat="46.86749" lon="8.51037">
        <ele>1479</ele>
        <time>2021-08-11T10:16:29.459Z</time>
      </trkpt>
      <trkpt lat="46.8675" lon="8.51035">
        <ele>1479</ele>
        <time>2021-08-11T10:16:30.459Z</time>
      </trkpt>
      <trkpt lat="46.8675" lon="8.51033">
        <ele>1479</ele>
        <time>2021-08-11T10:16:31.459Z</time>
      </trkpt>
      <trkpt lat="46.86751" lon="8.51032">
        <ele>1479</ele>
        <time>2021-08-11T10:16:32.458Z</time>
      </trkpt>
      <trkpt lat="46.86751" lon="8.5103">
        <ele>1479</ele>
        <time>2021-08-11T10:16:33.459Z</time>
      </trkpt>
      <trkpt lat="46.86751" lon="8.51029">
        <ele>1479</ele>
        <time>2021-08-11T10:16:34.459Z</time>
      </trkpt>
      <trkpt lat="46.86751" lon="8.51027">
        <ele>1479</ele>
        <time>2021-08-11T10:16:35.459Z</time>
      </trkpt>
      <trkpt lat="46.86751" lon="8.51025">
        <ele>1480</ele>
        <time>2021-08-11T10:16:36.458Z</time>
      </trkpt>
      <trkpt lat="46.86751" lon="8.51024">
        <ele>1480</ele>
        <time>2021-08-11T10:16:37.459Z</time>
      </trkpt>
      <trkpt lat="46.86751" lon="8.51023">
        <ele>1480</ele>
        <time>2021-08-11T10:16:38.459Z</time>
      </trkpt>
      <trkpt lat="46.86749" lon="8.51025">
        <ele>1481</ele>
        <time>2021-08-11T10:16:39.459Z</time>
      </trkpt>
      <trkpt lat="46.86749" lon="8.51025">
        <ele>1481</ele>
        <time>2021-08-11T10:16:40.459Z</time>
      </trkpt>
      <trkpt lat="46.86749" lon="8.51026">
        <ele>1481</ele>
        <time>2021-08-11T10:16:41.459Z</time>
      </trkpt>
      <trkpt lat="46.86748" lon="8.51027">
        <ele>1481</ele>
        <time>2021-08-11T10:16:42.460Z</time>
      </trkpt>
      <trkpt lat="46.86748" lon="8.51027">
        <ele>1487</ele>
        <time>2021-08-11T10:16:43.460Z</time>
      </trkpt>
      <trkpt lat="46.86747" lon="8.51027">
        <ele>1487</ele>
        <time>2021-08-11T10:16:44.460Z</time>
      </trkpt>
      <trkpt lat="46.86748" lon="8.51027">
        <ele>1487</ele>
        <time>2021-08-11T10:16:45.459Z</time>
      </trkpt>
      <trkpt lat="46.86748" lon="8.51027">
        <ele>1487</ele>
        <time>2021-08-11T10:16:46.459Z</time>
      </trkpt>
      <trkpt lat="46.86748" lon="8.51027">
        <ele>1487</ele>
        <time>2021-08-11T10:16:47.460Z</time>
      </trkpt>
      <trkpt lat="46.86748" lon="8.51028">
        <ele>1487</ele>
        <time>2021-08-11T10:16:48.459Z</time>
      </trkpt>
      <trkpt lat="46.86748" lon="8.51029">
        <ele>1488</ele>
        <time>2021-08-11T10:16:49.460Z</time>
      </trkpt>
      <trkpt lat="46.86749" lon="8.51026">
        <ele>1486</ele>
        <time>2021-08-11T10:16:50.461Z</time>
      </trkpt>
      <trkpt lat="46.86749" lon="8.51026">
        <ele>1486</ele>
        <time>2021-08-11T10:16:51.460Z</time>
      </trkpt>
      <trkpt lat="46.8675" lon="8.51026">
        <ele>1486</ele>
        <time>2021-08-11T10:16:52.460Z</time>
      </trkpt>
      <trkpt lat="46.86751" lon="8.51026">
        <ele>1485</ele>
        <time>2021-08-11T10:16:53.461Z</time>
      </trkpt>
      <trkpt lat="46.86751" lon="8.51025">
        <ele>1486</ele>
        <time>2021-08-11T10:16:54.461Z</time>
      </trkpt>
      <trkpt lat="46.86752" lon="8.51024">
        <ele>1486</ele>
        <time>2021-08-11T10:16:55.460Z</time>
      </trkpt>
      <trkpt lat="46.86752" lon="8.51022">
        <ele>1486</ele>
        <time>2021-08-11T10:16:56.460Z</time>
      </trkpt>
      <trkpt lat="46.86753" lon="8.5102">
        <ele>1485</ele>
        <time>2021-08-11T10:16:57.460Z</time>
      </trkpt>
      <trkpt lat="46.86754" lon="8.51019">
        <ele>1485</ele>
        <time>2021-08-11T10:16:58.461Z</time>
      </trkpt>
      <trkpt lat="46.86754" lon="8.51018">
        <ele>1485</ele>
        <time>2021-08-11T10:16:59.460Z</time>
      </trkpt>
      <trkpt lat="46.86754" lon="8.51016">
        <ele>1485</ele>
        <time>2021-08-11T10:17:00.460Z</time>
      </trkpt>
      <trkpt lat="46.86754" lon="8.51015">
        <ele>1485</ele>
        <time>2021-08-11T10:17:01.460Z</time>
      </trkpt>
      <trkpt lat="46.86754" lon="8.51014">
        <ele>1486</ele>
        <time>2021-08-11T10:17:02.461Z</time>
      </trkpt>
      <trkpt lat="46.86755" lon="8.51014">
        <ele>1486</ele>
        <time>2021-08-11T10:17:03.461Z</time>
      </trkpt>
      <trkpt lat="46.86755" lon="8.51014">
        <ele>1486</ele>
        <time>2021-08-11T10:17:04.461Z</time>
      </trkpt>
      <trkpt lat="46.86755" lon="8.51014">
        <ele>1486</ele>
        <time>2021-08-11T10:17:05.460Z</time>
      </trkpt>
      <trkpt lat="46.86755" lon="8.51015">
        <ele>1486</ele>
        <time>2021-08-11T10:17:06.461Z</time>
      </trkpt>
      <trkpt lat="46.86755" lon="8.51016">
        <ele>1486</ele>
        <time>2021-08-11T10:17:07.460Z</time>
      </trkpt>
      <trkpt lat="46.86754" lon="8.51015">
        <ele>1487</ele>
        <time>2021-08-11T10:17:08.461Z</time>
      </trkpt>
      <trkpt lat="46.86754" lon="8.51015">
        <ele>1488</ele>
        <time>2021-08-11T10:17:09.460Z</time>
      </trkpt>
      <trkpt lat="46.86754" lon="8.51015">
        <ele>1488</ele>
        <time>2021-08-11T10:17:10.460Z</time>
      </trkpt>
      <trkpt lat="46.86754" lon="8.51015">
        <ele>1488</ele>
        <time>2021-08-11T10:17:11.460Z</time>
      </trkpt>
      <trkpt lat="46.86754" lon="8.51015">
        <ele>1488</ele>
        <time>2021-08-11T10:17:12.460Z</time>
      </trkpt>
      <trkpt lat="46.86755" lon="8.51016">
        <ele>1488</ele>
        <time>2021-08-11T10:17:13.460Z</time>
      </trkpt>
      <trkpt lat="46.86756" lon="8.51012">
        <ele>1486</ele>
        <time>2021-08-11T10:17:14.461Z</time>
      </trkpt>
      <trkpt lat="46.86756" lon="8.5101">
        <ele>1485</ele>
        <time>2021-08-11T10:17:15.460Z</time>
      </trkpt>
      <trkpt lat="46.86756" lon="8.5101">
        <ele>1484</ele>
        <time>2021-08-11T10:17:16.460Z</time>
      </trkpt>
      <trkpt lat="46.86756" lon="8.5101">
        <ele>1484</ele>
        <time>2021-08-11T10:17:17.461Z</time>
      </trkpt>
      <trkpt lat="46.86757" lon="8.5101">
        <ele>1483</ele>
        <time>2021-08-11T10:17:18.460Z</time>
      </trkpt>
      <trkpt lat="46.86757" lon="8.5101">
        <ele>1483</ele>
        <time>2021-08-11T10:17:19.460Z</time>
      </trkpt>
      <trkpt lat="46.86757" lon="8.51009">
        <ele>1482</ele>
        <time>2021-08-11T10:17:20.460Z</time>
      </trkpt>
      <trkpt lat="46.86758" lon="8.51009">
        <ele>1482</ele>
        <time>2021-08-11T10:17:21.461Z</time>
      </trkpt>
      <trkpt lat="46.86758" lon="8.51009">
        <ele>1482</ele>
        <time>2021-08-11T10:17:22.461Z</time>
      </trkpt>
      <trkpt lat="46.86758" lon="8.5101">
        <ele>1482</ele>
        <time>2021-08-11T10:17:23.460Z</time>
      </trkpt>
      <trkpt lat="46.86758" lon="8.5101">
        <ele>1482</ele>
        <time>2021-08-11T10:17:24.460Z</time>
      </trkpt>
      <trkpt lat="46.86758" lon="8.5101">
        <ele>1483</ele>
        <time>2021-08-11T10:17:25.460Z</time>
      </trkpt>
      <trkpt lat="46.86758" lon="8.51009">
        <ele>1483</ele>
        <time>2021-08-11T10:17:26.461Z</time>
      </trkpt>
      <trkpt lat="46.86758" lon="8.51008">
        <ele>1483</ele>
        <time>2021-08-11T10:17:27.461Z</time>
      </trkpt>
      <trkpt lat="46.86758" lon="8.51007">
        <ele>1484</ele>
        <time>2021-08-11T10:17:28.461Z</time>
      </trkpt>
      <trkpt lat="46.86758" lon="8.51007">
        <ele>1484</ele>
        <time>2021-08-11T10:17:29.461Z</time>
      </trkpt>
      <trkpt lat="46.86759" lon="8.51006">
        <ele>1484</ele>
        <time>2021-08-11T10:17:30.460Z</time>
      </trkpt>
      <trkpt lat="46.8676" lon="8.51005">
        <ele>1484</ele>
        <time>2021-08-11T10:17:31.461Z</time>
      </trkpt>
      <trkpt lat="46.8676" lon="8.51004">
        <ele>1484</ele>
        <time>2021-08-11T10:17:32.461Z</time>
      </trkpt>
      <trkpt lat="46.86761" lon="8.51004">
        <ele>1483</ele>
        <time>2021-08-11T10:17:33.461Z</time>
      </trkpt>
      <trkpt lat="46.86761" lon="8.51003">
        <ele>1483</ele>
        <time>2021-08-11T10:17:34.460Z</time>
      </trkpt>
      <trkpt lat="46.86762" lon="8.51003">
        <ele>1483</ele>
        <time>2021-08-11T10:17:35.460Z</time>
      </trkpt>
      <trkpt lat="46.86763" lon="8.51003">
        <ele>1482</ele>
        <time>2021-08-11T10:17:36.461Z</time>
      </trkpt>
      <trkpt lat="46.86763" lon="8.51002">
        <ele>1482</ele>
        <time>2021-08-11T10:17:37.461Z</time>
      </trkpt>
      <trkpt lat="46.86764" lon="8.51002">
        <ele>1482</ele>
        <time>2021-08-11T10:17:38.461Z</time>
      </trkpt>
      <trkpt lat="46.86765" lon="8.51002">
        <ele>1483</ele>
        <time>2021-08-11T10:17:39.460Z</time>
      </trkpt>
      <trkpt lat="46.86765" lon="8.51003">
        <ele>1483</ele>
        <time>2021-08-11T10:17:40.460Z</time>
      </trkpt>
      <trkpt lat="46.86766" lon="8.51002">
        <ele>1483</ele>
        <time>2021-08-11T10:17:41.460Z</time>
      </trkpt>
      <trkpt lat="46.86767" lon="8.51002">
        <ele>1483</ele>
        <time>2021-08-11T10:17:42.461Z</time>
      </trkpt>
      <trkpt lat="46.86768" lon="8.51002">
        <ele>1483</ele>
        <time>2021-08-11T10:17:43.461Z</time>
      </trkpt>
      <trkpt lat="46.86769" lon="8.51001">
        <ele>1483</ele>
        <time>2021-08-11T10:17:44.460Z</time>
      </trkpt>
      <trkpt lat="46.8677" lon="8.51001">
        <ele>1483</ele>
        <time>2021-08-11T10:17:45.460Z</time>
      </trkpt>
      <trkpt lat="46.86771" lon="8.51">
        <ele>1483</ele>
        <time>2021-08-11T10:17:46.461Z</time>
      </trkpt>
      <trkpt lat="46.86771" lon="8.50998">
        <ele>1483</ele>
        <time>2021-08-11T10:17:47.461Z</time>
      </trkpt>
      <trkpt lat="46.86772" lon="8.50997">
        <ele>1482</ele>
        <time>2021-08-11T10:17:48.460Z</time>
      </trkpt>
      <trkpt lat="46.86772" lon="8.50996">
        <ele>1482</ele>
        <time>2021-08-11T10:17:49.460Z</time>
      </trkpt>
      <trkpt lat="46.86773" lon="8.50995">
        <ele>1482</ele>
        <time>2021-08-11T10:17:50.461Z</time>
      </trkpt>
      <trkpt lat="46.86773" lon="8.50994">
        <ele>1481</ele>
        <time>2021-08-11T10:17:51.461Z</time>
      </trkpt>
      <trkpt lat="46.86773" lon="8.50993">
        <ele>1481</ele>
        <time>2021-08-11T10:17:52.461Z</time>
      </trkpt>
      <trkpt lat="46.86773" lon="8.50992">
        <ele>1481</ele>
        <time>2021-08-11T10:17:53.460Z</time>
      </trkpt>
      <trkpt lat="46.86774" lon="8.50991">
        <ele>1480</ele>
        <time>2021-08-11T10:17:54.460Z</time>
      </trkpt>
      <trkpt lat="46.86774" lon="8.50989">
        <ele>1480</ele>
        <time>2021-08-11T10:17:55.461Z</time>
      </trkpt>
      <trkpt lat="46.86775" lon="8.50988">
        <ele>1479</ele>
        <time>2021-08-11T10:17:56.461Z</time>
      </trkpt>
      <trkpt lat="46.86776" lon="8.50986">
        <ele>1479</ele>
        <time>2021-08-11T10:17:57.461Z</time>
      </trkpt>
      <trkpt lat="46.86776" lon="8.50986">
        <ele>1479</ele>
        <time>2021-08-11T10:17:58.461Z</time>
      </trkpt>
      <trkpt lat="46.86776" lon="8.50984">
        <ele>1479</ele>
        <time>2021-08-11T10:17:59.460Z</time>
      </trkpt>
      <trkpt lat="46.86777" lon="8.50983">
        <ele>1479</ele>
        <time>2021-08-11T10:18:00.460Z</time>
      </trkpt>
      <trkpt lat="46.86778" lon="8.50981">
        <ele>1478</ele>
        <time>2021-08-11T10:18:01.460Z</time>
      </trkpt>
      <trkpt lat="46.86778" lon="8.5098">
        <ele>1478</ele>
        <time>2021-08-11T10:18:02.460Z</time>
      </trkpt>
      <trkpt lat="46.86779" lon="8.50979">
        <ele>1478</ele>
        <time>2021-08-11T10:18:03.461Z</time>
      </trkpt>
      <trkpt lat="46.86779" lon="8.50978">
        <ele>1478</ele>
        <time>2021-08-11T10:18:04.460Z</time>
      </trkpt>
      <trkpt lat="46.86779" lon="8.50976">
        <ele>1478</ele>
        <time>2021-08-11T10:18:05.460Z</time>
      </trkpt>
      <trkpt lat="46.8678" lon="8.50975">
        <ele>1478</ele>
        <time>2021-08-11T10:18:06.460Z</time>
      </trkpt>
      <trkpt lat="46.86781" lon="8.50974">
        <ele>1479</ele>
        <time>2021-08-11T10:18:07.461Z</time>
      </trkpt>
      <trkpt lat="46.86781" lon="8.50972">
        <ele>1480</ele>
        <time>2021-08-11T10:18:08.460Z</time>
      </trkpt>
      <trkpt lat="46.86782" lon="8.5097">
        <ele>1480</ele>
        <time>2021-08-11T10:18:09.460Z</time>
      </trkpt>
      <trkpt lat="46.86782" lon="8.50968">
        <ele>1481</ele>
        <time>2021-08-11T10:18:10.460Z</time>
      </trkpt>
      <trkpt lat="46.86783" lon="8.50967">
        <ele>1481</ele>
        <time>2021-08-11T10:18:11.460Z</time>
      </trkpt>
      <trkpt lat="46.86784" lon="8.50965">
        <ele>1482</ele>
        <time>2021-08-11T10:18:12.461Z</time>
      </trkpt>
      <trkpt lat="46.86784" lon="8.50964">
        <ele>1483</ele>
        <time>2021-08-11T10:18:13.460Z</time>
      </trkpt>
      <trkpt lat="46.86785" lon="8.50961">
        <ele>1483</ele>
        <time>2021-08-11T10:18:14.460Z</time>
      </trkpt>
      <trkpt lat="46.86785" lon="8.5096">
        <ele>1483</ele>
        <time>2021-08-11T10:18:15.460Z</time>
      </trkpt>
      <trkpt lat="46.86785" lon="8.50958">
        <ele>1483</ele>
        <time>2021-08-11T10:18:16.461Z</time>
      </trkpt>
      <trkpt lat="46.86785" lon="8.50957">
        <ele>1484</ele>
        <time>2021-08-11T10:18:17.460Z</time>
      </trkpt>
      <trkpt lat="46.86785" lon="8.50955">
        <ele>1483</ele>
        <time>2021-08-11T10:18:18.460Z</time>
      </trkpt>
      <trkpt lat="46.86786" lon="8.50953">
        <ele>1483</ele>
        <time>2021-08-11T10:18:19.460Z</time>
      </trkpt>
      <trkpt lat="46.86787" lon="8.50951">
        <ele>1483</ele>
        <time>2021-08-11T10:18:20.460Z</time>
      </trkpt>
      <trkpt lat="46.86788" lon="8.50949">
        <ele>1483</ele>
        <time>2021-08-11T10:18:21.460Z</time>
      </trkpt>
      <trkpt lat="46.86789" lon="8.50947">
        <ele>1482</ele>
        <time>2021-08-11T10:18:22.460Z</time>
      </trkpt>
      <trkpt lat="46.8679" lon="8.50945">
        <ele>1482</ele>
        <time>2021-08-11T10:18:23.460Z</time>
      </trkpt>
      <trkpt lat="46.8679" lon="8.50944">
        <ele>1482</ele>
        <time>2021-08-11T10:18:24.460Z</time>
      </trkpt>
      <trkpt lat="46.86791" lon="8.50943">
        <ele>1482</ele>
        <time>2021-08-11T10:18:25.460Z</time>
      </trkpt>
      <trkpt lat="46.86791" lon="8.50942">
        <ele>1482</ele>
        <time>2021-08-11T10:18:26.460Z</time>
      </trkpt>
      <trkpt lat="46.86792" lon="8.50941">
        <ele>1481</ele>
        <time>2021-08-11T10:18:27.460Z</time>
      </trkpt>
      <trkpt lat="46.86793" lon="8.5094">
        <ele>1481</ele>
        <time>2021-08-11T10:18:28.460Z</time>
      </trkpt>
      <trkpt lat="46.86793" lon="8.5094">
        <ele>1481</ele>
        <time>2021-08-11T10:18:29.460Z</time>
      </trkpt>
      <trkpt lat="46.86794" lon="8.50939">
        <ele>1482</ele>
        <time>2021-08-11T10:18:30.460Z</time>
      </trkpt>
      <trkpt lat="46.86795" lon="8.50937">
        <ele>1482</ele>
        <time>2021-08-11T10:18:31.460Z</time>
      </trkpt>
      <trkpt lat="46.86796" lon="8.50936">
        <ele>1482</ele>
        <time>2021-08-11T10:18:32.460Z</time>
      </trkpt>
      <trkpt lat="46.86797" lon="8.50935">
        <ele>1481</ele>
        <time>2021-08-11T10:18:33.460Z</time>
      </trkpt>
      <trkpt lat="46.86798" lon="8.50934">
        <ele>1482</ele>
        <time>2021-08-11T10:18:34.460Z</time>
      </trkpt>
      <trkpt lat="46.86799" lon="8.50933">
        <ele>1482</ele>
        <time>2021-08-11T10:18:35.460Z</time>
      </trkpt>
      <trkpt lat="46.86799" lon="8.50932">
        <ele>1482</ele>
        <time>2021-08-11T10:18:36.461Z</time>
      </trkpt>
      <trkpt lat="46.868" lon="8.50931">
        <ele>1482</ele>
        <time>2021-08-11T10:18:37.460Z</time>
      </trkpt>
      <trkpt lat="46.868" lon="8.50929">
        <ele>1483</ele>
        <time>2021-08-11T10:18:38.461Z</time>
      </trkpt>
      <trkpt lat="46.868" lon="8.50927">
        <ele>1483</ele>
        <time>2021-08-11T10:18:39.460Z</time>
      </trkpt>
      <trkpt lat="46.868" lon="8.50926">
        <ele>1482</ele>
        <time>2021-08-11T10:18:40.460Z</time>
      </trkpt>
      <trkpt lat="46.86801" lon="8.50925">
        <ele>1482</ele>
        <time>2021-08-11T10:18:41.460Z</time>
      </trkpt>
      <trkpt lat="46.86802" lon="8.50923">
        <ele>1482</ele>
        <time>2021-08-11T10:18:42.460Z</time>
      </trkpt>
      <trkpt lat="46.86802" lon="8.50922">
        <ele>1481</ele>
        <time>2021-08-11T10:18:43.461Z</time>
      </trkpt>
      <trkpt lat="46.86803" lon="8.5092">
        <ele>1481</ele>
        <time>2021-08-11T10:18:44.460Z</time>
      </trkpt>
      <trkpt lat="46.86803" lon="8.50919">
        <ele>1480</ele>
        <time>2021-08-11T10:18:45.461Z</time>
      </trkpt>
      <trkpt lat="46.86804" lon="8.50917">
        <ele>1480</ele>
        <time>2021-08-11T10:18:46.460Z</time>
      </trkpt>
      <trkpt lat="46.86805" lon="8.50916">
        <ele>1480</ele>
        <time>2021-08-11T10:18:47.460Z</time>
      </trkpt>
      <trkpt lat="46.86806" lon="8.50915">
        <ele>1480</ele>
        <time>2021-08-11T10:18:48.461Z</time>
      </trkpt>
      <trkpt lat="46.86807" lon="8.50914">
        <ele>1480</ele>
        <time>2021-08-11T10:18:49.460Z</time>
      </trkpt>
      <trkpt lat="46.86807" lon="8.50913">
        <ele>1480</ele>
        <time>2021-08-11T10:18:50.461Z</time>
      </trkpt>
      <trkpt lat="46.86807" lon="8.50912">
        <ele>1480</ele>
        <time>2021-08-11T10:18:51.460Z</time>
      </trkpt>
      <trkpt lat="46.86808" lon="8.5091">
        <ele>1481</ele>
        <time>2021-08-11T10:18:52.461Z</time>
      </trkpt>
      <trkpt lat="46.86809" lon="8.50909">
        <ele>1481</ele>
        <time>2021-08-11T10:18:53.461Z</time>
      </trkpt>
      <trkpt lat="46.8681" lon="8.50908">
        <ele>1481</ele>
        <time>2021-08-11T10:18:54.461Z</time>
      </trkpt>
      <trkpt lat="46.8681" lon="8.50906">
        <ele>1481</ele>
        <time>2021-08-11T10:18:55.461Z</time>
      </trkpt>
      <trkpt lat="46.86812" lon="8.50906">
        <ele>1481</ele>
        <time>2021-08-11T10:18:56.461Z</time>
      </trkpt>
      <trkpt lat="46.86813" lon="8.50905">
        <ele>1481</ele>
        <time>2021-08-11T10:18:57.461Z</time>
      </trkpt>
      <trkpt lat="46.86814" lon="8.50904">
        <ele>1482</ele>
        <time>2021-08-11T10:18:58.460Z</time>
      </trkpt>
      <trkpt lat="46.86814" lon="8.50904">
        <ele>1483</ele>
        <time>2021-08-11T10:18:59.461Z</time>
      </trkpt>
      <trkpt lat="46.86816" lon="8.50903">
        <ele>1483</ele>
        <time>2021-08-11T10:19:00.461Z</time>
      </trkpt>
      <trkpt lat="46.86817" lon="8.50901">
        <ele>1484</ele>
        <time>2021-08-11T10:19:01.461Z</time>
      </trkpt>
      <trkpt lat="46.86818" lon="8.50899">
        <ele>1483</ele>
        <time>2021-08-11T10:19:02.460Z</time>
      </trkpt>
      <trkpt lat="46.86819" lon="8.50898">
        <ele>1484</ele>
        <time>2021-08-11T10:19:03.461Z</time>
      </trkpt>
      <trkpt lat="46.8682" lon="8.50897">
        <ele>1484</ele>
        <time>2021-08-11T10:19:04.461Z</time>
      </trkpt>
      <trkpt lat="46.86821" lon="8.50896">
        <ele>1484</ele>
        <time>2021-08-11T10:19:05.461Z</time>
      </trkpt>
      <trkpt lat="46.86822" lon="8.50894">
        <ele>1484</ele>
        <time>2021-08-11T10:19:06.460Z</time>
      </trkpt>
      <trkpt lat="46.86823" lon="8.50893">
        <ele>1484</ele>
        <time>2021-08-11T10:19:07.460Z</time>
      </trkpt>
      <trkpt lat="46.86824" lon="8.50892">
        <ele>1484</ele>
        <time>2021-08-11T10:19:08.461Z</time>
      </trkpt>
      <trkpt lat="46.86825" lon="8.50892">
        <ele>1483</ele>
        <time>2021-08-11T10:19:09.461Z</time>
      </trkpt>
      <trkpt lat="46.86825" lon="8.50891">
        <ele>1482</ele>
        <time>2021-08-11T10:19:10.461Z</time>
      </trkpt>
      <trkpt lat="46.86827" lon="8.5089">
        <ele>1482</ele>
        <time>2021-08-11T10:19:11.460Z</time>
      </trkpt>
      <trkpt lat="46.86827" lon="8.5089">
        <ele>1482</ele>
        <time>2021-08-11T10:19:12.460Z</time>
      </trkpt>
      <trkpt lat="46.86828" lon="8.5089">
        <ele>1481</ele>
        <time>2021-08-11T10:19:13.461Z</time>
      </trkpt>
      <trkpt lat="46.8683" lon="8.50889">
        <ele>1481</ele>
        <time>2021-08-11T10:19:14.460Z</time>
      </trkpt>
      <trkpt lat="46.8683" lon="8.50888">
        <ele>1481</ele>
        <time>2021-08-11T10:19:15.461Z</time>
      </trkpt>
      <trkpt lat="46.86832" lon="8.50888">
        <ele>1481</ele>
        <time>2021-08-11T10:19:16.460Z</time>
      </trkpt>
      <trkpt lat="46.86833" lon="8.50887">
        <ele>1481</ele>
        <time>2021-08-11T10:19:17.461Z</time>
      </trkpt>
      <trkpt lat="46.86833" lon="8.50887">
        <ele>1481</ele>
        <time>2021-08-11T10:19:18.461Z</time>
      </trkpt>
      <trkpt lat="46.86834" lon="8.50886">
        <ele>1481</ele>
        <time>2021-08-11T10:19:19.461Z</time>
      </trkpt>
      <trkpt lat="46.86835" lon="8.50886">
        <ele>1481</ele>
        <time>2021-08-11T10:19:20.461Z</time>
      </trkpt>
      <trkpt lat="46.86836" lon="8.50885">
        <ele>1481</ele>
        <time>2021-08-11T10:19:21.460Z</time>
      </trkpt>
      <trkpt lat="46.86837" lon="8.50884">
        <ele>1481</ele>
        <time>2021-08-11T10:19:22.460Z</time>
      </trkpt>
      <trkpt lat="46.86837" lon="8.50883">
        <ele>1481</ele>
        <time>2021-08-11T10:19:23.461Z</time>
      </trkpt>
      <trkpt lat="46.86839" lon="8.50883">
        <ele>1481</ele>
        <time>2021-08-11T10:19:24.460Z</time>
      </trkpt>
      <trkpt lat="46.8684" lon="8.50882">
        <ele>1481</ele>
        <time>2021-08-11T10:19:25.461Z</time>
      </trkpt>
      <trkpt lat="46.86841" lon="8.50882">
        <ele>1481</ele>
        <time>2021-08-11T10:19:26.461Z</time>
      </trkpt>
      <trkpt lat="46.86842" lon="8.50881">
        <ele>1482</ele>
        <time>2021-08-11T10:19:27.460Z</time>
      </trkpt>
      <trkpt lat="46.86843" lon="8.50881">
        <ele>1482</ele>
        <time>2021-08-11T10:19:28.461Z</time>
      </trkpt>
      <trkpt lat="46.86844" lon="8.5088">
        <ele>1482</ele>
        <time>2021-08-11T10:19:29.460Z</time>
      </trkpt>
      <trkpt lat="46.86846" lon="8.50879">
        <ele>1482</ele>
        <time>2021-08-11T10:19:30.461Z</time>
      </trkpt>
      <trkpt lat="46.86848" lon="8.50878">
        <ele>1481</ele>
        <time>2021-08-11T10:19:31.460Z</time>
      </trkpt>
      <trkpt lat="46.86849" lon="8.50877">
        <ele>1482</ele>
        <time>2021-08-11T10:19:32.460Z</time>
      </trkpt>
      <trkpt lat="46.8685" lon="8.50877">
        <ele>1482</ele>
        <time>2021-08-11T10:19:33.460Z</time>
      </trkpt>
      <trkpt lat="46.86852" lon="8.50876">
        <ele>1482</ele>
        <time>2021-08-11T10:19:34.461Z</time>
      </trkpt>
      <trkpt lat="46.86853" lon="8.50875">
        <ele>1482</ele>
        <time>2021-08-11T10:19:35.461Z</time>
      </trkpt>
      <trkpt lat="46.86853" lon="8.50875">
        <ele>1482</ele>
        <time>2021-08-11T10:19:36.460Z</time>
      </trkpt>
      <trkpt lat="46.86854" lon="8.50874">
        <ele>1482</ele>
        <time>2021-08-11T10:19:37.461Z</time>
      </trkpt>
      <trkpt lat="46.86854" lon="8.50874">
        <ele>1482</ele>
        <time>2021-08-11T10:19:38.461Z</time>
      </trkpt>
      <trkpt lat="46.86854" lon="8.50874">
        <ele>1481</ele>
        <time>2021-08-11T10:19:39.461Z</time>
      </trkpt>
      <trkpt lat="46.86854" lon="8.50873">
        <ele>1481</ele>
        <time>2021-08-11T10:19:40.461Z</time>
      </trkpt>
      <trkpt lat="46.86854" lon="8.50873">
        <ele>1481</ele>
        <time>2021-08-11T10:19:41.460Z</time>
      </trkpt>
      <trkpt lat="46.86854" lon="8.50873">
        <ele>1480</ele>
        <time>2021-08-11T10:19:42.461Z</time>
      </trkpt>
      <trkpt lat="46.86854" lon="8.50873">
        <ele>1480</ele>
        <time>2021-08-11T10:19:43.460Z</time>
      </trkpt>
      <trkpt lat="46.86851" lon="8.50869">
        <ele>1477</ele>
        <time>2021-08-11T10:19:44.460Z</time>
      </trkpt>
      <trkpt lat="46.86852" lon="8.50869">
        <ele>1476</ele>
        <time>2021-08-11T10:19:45.461Z</time>
      </trkpt>
      <trkpt lat="46.86853" lon="8.50869">
        <ele>1475</ele>
        <time>2021-08-11T10:19:46.460Z</time>
      </trkpt>
      <trkpt lat="46.86854" lon="8.50869">
        <ele>1474</ele>
        <time>2021-08-11T10:19:47.461Z</time>
      </trkpt>
      <trkpt lat="46.86854" lon="8.50868">
        <ele>1473</ele>
        <time>2021-08-11T10:19:48.460Z</time>
      </trkpt>
      <trkpt lat="46.86854" lon="8.50869">
        <ele>1473</ele>
        <time>2021-08-11T10:19:49.460Z</time>
      </trkpt>
      <trkpt lat="46.86854" lon="8.50869">
        <ele>1472</ele>
        <time>2021-08-11T10:19:50.462Z</time>
      </trkpt>
      <trkpt lat="46.86853" lon="8.5087">
        <ele>1470</ele>
        <time>2021-08-11T10:19:51.462Z</time>
      </trkpt>
      <trkpt lat="46.86854" lon="8.5087">
        <ele>1470</ele>
        <time>2021-08-11T10:19:52.462Z</time>
      </trkpt>
      <trkpt lat="46.86848" lon="8.50879">
        <ele>1474</ele>
        <time>2021-08-11T10:19:53.462Z</time>
      </trkpt>
      <trkpt lat="46.86848" lon="8.50879">
        <ele>1474</ele>
        <time>2021-08-11T10:19:54.461Z</time>
      </trkpt>
      <trkpt lat="46.86848" lon="8.50881">
        <ele>1474</ele>
        <time>2021-08-11T10:19:55.462Z</time>
      </trkpt>
      <trkpt lat="46.86848" lon="8.50881">
        <ele>1474</ele>
        <time>2021-08-11T10:19:56.461Z</time>
      </trkpt>
      <trkpt lat="46.86848" lon="8.50882">
        <ele>1475</ele>
        <time>2021-08-11T10:19:57.461Z</time>
      </trkpt>
      <trkpt lat="46.86847" lon="8.50882">
        <ele>1475</ele>
        <time>2021-08-11T10:19:58.462Z</time>
      </trkpt>
      <trkpt lat="46.86847" lon="8.50882">
        <ele>1475</ele>
        <time>2021-08-11T10:19:59.462Z</time>
      </trkpt>
      <trkpt lat="46.86847" lon="8.50882">
        <ele>1475</ele>
        <time>2021-08-11T10:20:00.462Z</time>
      </trkpt>
      <trkpt lat="46.86847" lon="8.50882">
        <ele>1475</ele>
        <time>2021-08-11T10:20:01.461Z</time>
      </trkpt>
      <trkpt lat="46.86848" lon="8.50882">
        <ele>1475</ele>
        <time>2021-08-11T10:20:02.463Z</time>
      </trkpt>
      <trkpt lat="46.86848" lon="8.50883">
        <ele>1475</ele>
        <time>2021-08-11T10:20:03.462Z</time>
      </trkpt>
      <trkpt lat="46.86852" lon="8.50877">
        <ele>1484</ele>
        <time>2021-08-11T10:20:04.462Z</time>
      </trkpt>
      <trkpt lat="46.86853" lon="8.50878">
        <ele>1485</ele>
        <time>2021-08-11T10:20:05.463Z</time>
      </trkpt>
      <trkpt lat="46.86853" lon="8.5088">
        <ele>1486</ele>
        <time>2021-08-11T10:20:06.462Z</time>
      </trkpt>
      <trkpt lat="46.86853" lon="8.50881">
        <ele>1486</ele>
        <time>2021-08-11T10:20:07.463Z</time>
      </trkpt>
      <trkpt lat="46.86853" lon="8.50881">
        <ele>1487</ele>
        <time>2021-08-11T10:20:08.463Z</time>
      </trkpt>
      <trkpt lat="46.86854" lon="8.5088">
        <ele>1488</ele>
        <time>2021-08-11T10:20:09.463Z</time>
      </trkpt>
      <trkpt lat="46.86853" lon="8.50877">
        <ele>1491</ele>
        <time>2021-08-11T10:20:10.462Z</time>
      </trkpt>
      <trkpt lat="46.86853" lon="8.50876">
        <ele>1491</ele>
        <time>2021-08-11T10:20:11.463Z</time>
      </trkpt>
      <trkpt lat="46.86853" lon="8.50874">
        <ele>1491</ele>
        <time>2021-08-11T10:20:12.463Z</time>
      </trkpt>
      <trkpt lat="46.86853" lon="8.50873">
        <ele>1494</ele>
        <time>2021-08-11T10:20:13.463Z</time>
      </trkpt>
      <trkpt lat="46.86851" lon="8.50877">
        <ele>1496</ele>
        <time>2021-08-11T10:20:14.463Z</time>
      </trkpt>
      <trkpt lat="46.86853" lon="8.50877">
        <ele>1487</ele>
        <time>2021-08-11T10:20:15.462Z</time>
      </trkpt>
      <trkpt lat="46.86853" lon="8.50878">
        <ele>1487</ele>
        <time>2021-08-11T10:20:16.462Z</time>
      </trkpt>
      <trkpt lat="46.86855" lon="8.50875">
        <ele>1484</ele>
        <time>2021-08-11T10:20:17.462Z</time>
      </trkpt>
      <trkpt lat="46.86852" lon="8.50872">
        <ele>1480</ele>
        <time>2021-08-11T10:20:18.463Z</time>
      </trkpt>
      <trkpt lat="46.86852" lon="8.50872">
        <ele>1481</ele>
        <time>2021-08-11T10:20:19.462Z</time>
      </trkpt>
      <trkpt lat="46.86852" lon="8.50872">
        <ele>1481</ele>
        <time>2021-08-11T10:20:20.462Z</time>
      </trkpt>
      <trkpt lat="46.86852" lon="8.50872">
        <ele>1481</ele>
        <time>2021-08-11T10:20:21.463Z</time>
      </trkpt>
      <trkpt lat="46.86852" lon="8.50872">
        <ele>1481</ele>
        <time>2021-08-11T10:20:22.463Z</time>
      </trkpt>
      <trkpt lat="46.86852" lon="8.50872">
        <ele>1482</ele>
        <time>2021-08-11T10:20:23.464Z</time>
      </trkpt>
      <trkpt lat="46.86853" lon="8.50872">
        <ele>1481</ele>
        <time>2021-08-11T10:20:24.464Z</time>
      </trkpt>
      <trkpt lat="46.86853" lon="8.50873">
        <ele>1481</ele>
        <time>2021-08-11T10:20:25.463Z</time>
      </trkpt>
      <trkpt lat="46.86853" lon="8.50873">
        <ele>1481</ele>
        <time>2021-08-11T10:20:26.463Z</time>
      </trkpt>
      <trkpt lat="46.86852" lon="8.50871">
        <ele>1481</ele>
        <time>2021-08-11T10:20:27.464Z</time>
      </trkpt>
      <trkpt lat="46.86852" lon="8.50871">
        <ele>1482</ele>
        <time>2021-08-11T10:20:28.463Z</time>
      </trkpt>
      <trkpt lat="46.86851" lon="8.50871">
        <ele>1482</ele>
        <time>2021-08-11T10:20:29.463Z</time>
      </trkpt>
      <trkpt lat="46.86851" lon="8.50871">
        <ele>1483</ele>
        <time>2021-08-11T10:20:30.464Z</time>
      </trkpt>
      <trkpt lat="46.86851" lon="8.50871">
        <ele>1483</ele>
        <time>2021-08-11T10:20:31.464Z</time>
      </trkpt>
      <trkpt lat="46.86851" lon="8.5087">
        <ele>1483</ele>
        <time>2021-08-11T10:20:32.464Z</time>
      </trkpt>
      <trkpt lat="46.86851" lon="8.5087">
        <ele>1483</ele>
        <time>2021-08-11T10:20:33.463Z</time>
      </trkpt>
      <trkpt lat="46.8685" lon="8.5087">
        <ele>1483</ele>
        <time>2021-08-11T10:20:34.464Z</time>
      </trkpt>
      <trkpt lat="46.8685" lon="8.50873">
        <ele>1481</ele>
        <time>2021-08-11T10:20:35.465Z</time>
      </trkpt>
      <trkpt lat="46.8685" lon="8.50873">
        <ele>1481</ele>
        <time>2021-08-11T10:20:36.464Z</time>
      </trkpt>
      <trkpt lat="46.86849" lon="8.50873">
        <ele>1481</ele>
        <time>2021-08-11T10:20:37.464Z</time>
      </trkpt>
      <trkpt lat="46.8685" lon="8.50873">
        <ele>1483</ele>
        <time>2021-08-11T10:20:38.466Z</time>
      </trkpt>
      <trkpt lat="46.8685" lon="8.50873">
        <ele>1483</ele>
        <time>2021-08-11T10:20:39.465Z</time>
      </trkpt>
      <trkpt lat="46.86851" lon="8.50873">
        <ele>1483</ele>
        <time>2021-08-11T10:20:40.465Z</time>
      </trkpt>
      <trkpt lat="46.86852" lon="8.50873">
        <ele>1483</ele>
        <time>2021-08-11T10:20:41.465Z</time>
      </trkpt>
      <trkpt lat="46.86852" lon="8.50872">
        <ele>1483</ele>
        <time>2021-08-11T10:20:42.466Z</time>
      </trkpt>
      <trkpt lat="46.86853" lon="8.50873">
        <ele>1483</ele>
        <time>2021-08-11T10:20:43.466Z</time>
      </trkpt>
      <trkpt lat="46.86854" lon="8.50872">
        <ele>1483</ele>
        <time>2021-08-11T10:20:44.465Z</time>
      </trkpt>
      <trkpt lat="46.86854" lon="8.50871">
        <ele>1483</ele>
        <time>2021-08-11T10:20:45.466Z</time>
      </trkpt>
      <trkpt lat="46.86855" lon="8.5087">
        <ele>1483</ele>
        <time>2021-08-11T10:20:46.466Z</time>
      </trkpt>
      <trkpt lat="46.86856" lon="8.50868">
        <ele>1483</ele>
        <time>2021-08-11T10:20:47.466Z</time>
      </trkpt>
      <trkpt lat="46.86856" lon="8.50867">
        <ele>1483</ele>
        <time>2021-08-11T10:20:48.466Z</time>
      </trkpt>
      <trkpt lat="46.86856" lon="8.50865">
        <ele>1483</ele>
        <time>2021-08-11T10:20:49.466Z</time>
      </trkpt>
      <trkpt lat="46.86855" lon="8.50864">
        <ele>1483</ele>
        <time>2021-08-11T10:20:50.466Z</time>
      </trkpt>
      <trkpt lat="46.86854" lon="8.50864">
        <ele>1483</ele>
        <time>2021-08-11T10:20:51.466Z</time>
      </trkpt>
      <trkpt lat="46.86853" lon="8.50863">
        <ele>1483</ele>
        <time>2021-08-11T10:20:52.465Z</time>
      </trkpt>
      <trkpt lat="46.86852" lon="8.50863">
        <ele>1483</ele>
        <time>2021-08-11T10:20:53.466Z</time>
      </trkpt>
      <trkpt lat="46.86852" lon="8.50863">
        <ele>1483</ele>
        <time>2021-08-11T10:20:54.465Z</time>
      </trkpt>
      <trkpt lat="46.86852" lon="8.50863">
        <ele>1482</ele>
        <time>2021-08-11T10:20:55.465Z</time>
      </trkpt>
      <trkpt lat="46.86852" lon="8.50862">
        <ele>1482</ele>
        <time>2021-08-11T10:20:56.466Z</time>
      </trkpt>
      <trkpt lat="46.86851" lon="8.50863">
        <ele>1482</ele>
        <time>2021-08-11T10:20:57.466Z</time>
      </trkpt>
      <trkpt lat="46.8685" lon="8.50863">
        <ele>1481</ele>
        <time>2021-08-11T10:20:58.466Z</time>
      </trkpt>
      <trkpt lat="46.8685" lon="8.50863">
        <ele>1481</ele>
        <time>2021-08-11T10:20:59.466Z</time>
      </trkpt>
      <trkpt lat="46.86849" lon="8.50863">
        <ele>1480</ele>
        <time>2021-08-11T10:21:00.465Z</time>
      </trkpt>
      <trkpt lat="46.86849" lon="8.50863">
        <ele>1479</ele>
        <time>2021-08-11T10:21:01.466Z</time>
      </trkpt>
      <trkpt lat="46.86848" lon="8.50862">
        <ele>1479</ele>
        <time>2021-08-11T10:21:02.466Z</time>
      </trkpt>
      <trkpt lat="46.86848" lon="8.50863">
        <ele>1478</ele>
        <time>2021-08-11T10:21:03.466Z</time>
      </trkpt>
      <trkpt lat="46.86849" lon="8.50863">
        <ele>1478</ele>
        <time>2021-08-11T10:21:04.465Z</time>
      </trkpt>
      <trkpt lat="46.86848" lon="8.50862">
        <ele>1479</ele>
        <time>2021-08-11T10:21:05.466Z</time>
      </trkpt>
      <trkpt lat="46.86847" lon="8.50862">
        <ele>1479</ele>
        <time>2021-08-11T10:21:06.466Z</time>
      </trkpt>
      <trkpt lat="46.86847" lon="8.50863">
        <ele>1479</ele>
        <time>2021-08-11T10:21:07.466Z</time>
      </trkpt>
      <trkpt lat="46.86847" lon="8.50864">
        <ele>1478</ele>
        <time>2021-08-11T10:21:08.467Z</time>
      </trkpt>
      <trkpt lat="46.86847" lon="8.50865">
        <ele>1478</ele>
        <time>2021-08-11T10:21:09.466Z</time>
      </trkpt>
      <trkpt lat="46.86847" lon="8.50869">
        <ele>1473</ele>
        <time>2021-08-11T10:21:10.468Z</time>
      </trkpt>
      <trkpt lat="46.86847" lon="8.5087">
        <ele>1472</ele>
        <time>2021-08-11T10:21:11.468Z</time>
      </trkpt>
      <trkpt lat="46.86847" lon="8.5087">
        <ele>1472</ele>
        <time>2021-08-11T10:21:12.467Z</time>
      </trkpt>
      <trkpt lat="46.86846" lon="8.50868">
        <ele>1472</ele>
        <time>2021-08-11T10:21:13.469Z</time>
      </trkpt>
      <trkpt lat="46.86846" lon="8.50868">
        <ele>1472</ele>
        <time>2021-08-11T10:21:14.468Z</time>
      </trkpt>
      <trkpt lat="46.86845" lon="8.50867">
        <ele>1472</ele>
        <time>2021-08-11T10:21:15.468Z</time>
      </trkpt>
      <trkpt lat="46.86844" lon="8.50867">
        <ele>1472</ele>
        <time>2021-08-11T10:21:16.469Z</time>
      </trkpt>
      <trkpt lat="46.86844" lon="8.50866">
        <ele>1472</ele>
        <time>2021-08-11T10:21:17.468Z</time>
      </trkpt>
      <trkpt lat="46.86843" lon="8.50866">
        <ele>1473</ele>
        <time>2021-08-11T10:21:18.468Z</time>
      </trkpt>
      <trkpt lat="46.86842" lon="8.50866">
        <ele>1473</ele>
        <time>2021-08-11T10:21:19.468Z</time>
      </trkpt>
      <trkpt lat="46.86842" lon="8.50866">
        <ele>1474</ele>
        <time>2021-08-11T10:21:20.468Z</time>
      </trkpt>
      <trkpt lat="46.86841" lon="8.50865">
        <ele>1474</ele>
        <time>2021-08-11T10:21:21.468Z</time>
      </trkpt>
      <trkpt lat="46.86841" lon="8.50865">
        <ele>1475</ele>
        <time>2021-08-11T10:21:22.469Z</time>
      </trkpt>
      <trkpt lat="46.86841" lon="8.50865">
        <ele>1475</ele>
        <time>2021-08-11T10:21:23.468Z</time>
      </trkpt>
      <trkpt lat="46.86841" lon="8.50865">
        <ele>1476</ele>
        <time>2021-08-11T10:21:24.469Z</time>
      </trkpt>
      <trkpt lat="46.86842" lon="8.50866">
        <ele>1479</ele>
        <time>2021-08-11T10:21:25.470Z</time>
      </trkpt>
      <trkpt lat="46.86843" lon="8.50866">
        <ele>1480</ele>
        <time>2021-08-11T10:21:26.471Z</time>
      </trkpt>
      <trkpt lat="46.86843" lon="8.50866">
        <ele>1480</ele>
        <time>2021-08-11T10:21:27.470Z</time>
      </trkpt>
      <trkpt lat="46.86841" lon="8.50864">
        <ele>1482</ele>
        <time>2021-08-11T10:21:28.471Z</time>
      </trkpt>
      <trkpt lat="46.86841" lon="8.50864">
        <ele>1482</ele>
        <time>2021-08-11T10:21:29.472Z</time>
      </trkpt>
      <trkpt lat="46.8684" lon="8.50863">
        <ele>1483</ele>
        <time>2021-08-11T10:21:30.472Z</time>
      </trkpt>
      <trkpt lat="46.8684" lon="8.50862">
        <ele>1483</ele>
        <time>2021-08-11T10:21:31.472Z</time>
      </trkpt>
      <trkpt lat="46.86842" lon="8.50861">
        <ele>1485</ele>
        <time>2021-08-11T10:21:32.473Z</time>
      </trkpt>
      <trkpt lat="46.86842" lon="8.50861">
        <ele>1485</ele>
        <time>2021-08-11T10:21:33.473Z</time>
      </trkpt>
      <trkpt lat="46.86843" lon="8.50866">
        <ele>1475</ele>
        <time>2021-08-11T10:21:34.473Z</time>
      </trkpt>
      <trkpt lat="46.86842" lon="8.50865">
        <ele>1474</ele>
        <time>2021-08-11T10:21:35.472Z</time>
      </trkpt>
      <trkpt lat="46.86841" lon="8.50864">
        <ele>1474</ele>
        <time>2021-08-11T10:21:36.472Z</time>
      </trkpt>
      <trkpt lat="46.86841" lon="8.50863">
        <ele>1473</ele>
        <time>2021-08-11T10:21:37.473Z</time>
      </trkpt>
      <trkpt lat="46.8684" lon="8.50862">
        <ele>1473</ele>
        <time>2021-08-11T10:21:38.473Z</time>
      </trkpt>
      <trkpt lat="46.86839" lon="8.50862">
        <ele>1473</ele>
        <time>2021-08-11T10:21:39.473Z</time>
      </trkpt>
      <trkpt lat="46.86839" lon="8.50863">
        <ele>1473</ele>
        <time>2021-08-11T10:21:40.473Z</time>
      </trkpt>
      <trkpt lat="46.86838" lon="8.50863">
        <ele>1474</ele>
        <time>2021-08-11T10:21:41.472Z</time>
      </trkpt>
      <trkpt lat="46.86837" lon="8.50864">
        <ele>1474</ele>
        <time>2021-08-11T10:21:42.473Z</time>
      </trkpt>
      <trkpt lat="46.86836" lon="8.50863">
        <ele>1479</ele>
        <time>2021-08-11T10:21:43.475Z</time>
      </trkpt>
      <trkpt lat="46.86835" lon="8.50863">
        <ele>1479</ele>
        <time>2021-08-11T10:21:44.474Z</time>
      </trkpt>
      <trkpt lat="46.86835" lon="8.50863">
        <ele>1479</ele>
        <time>2021-08-11T10:21:45.474Z</time>
      </trkpt>
      <trkpt lat="46.86834" lon="8.50863">
        <ele>1481</ele>
        <time>2021-08-11T10:21:46.476Z</time>
      </trkpt>
      <trkpt lat="46.86834" lon="8.50864">
        <ele>1482</ele>
        <time>2021-08-11T10:21:47.476Z</time>
      </trkpt>
      <trkpt lat="46.86834" lon="8.50865">
        <ele>1482</ele>
        <time>2021-08-11T10:21:48.475Z</time>
      </trkpt>
      <trkpt lat="46.86833" lon="8.50865">
        <ele>1483</ele>
        <time>2021-08-11T10:21:49.475Z</time>
      </trkpt>
      <trkpt lat="46.86832" lon="8.50865">
        <ele>1483</ele>
        <time>2021-08-11T10:21:50.475Z</time>
      </trkpt>
      <trkpt lat="46.86832" lon="8.50864">
        <ele>1484</ele>
        <time>2021-08-11T10:21:51.476Z</time>
      </trkpt>
      <trkpt lat="46.86832" lon="8.50864">
        <ele>1484</ele>
        <time>2021-08-11T10:21:52.475Z</time>
      </trkpt>
      <trkpt lat="46.86832" lon="8.50863">
        <ele>1484</ele>
        <time>2021-08-11T10:21:53.476Z</time>
      </trkpt>
      <trkpt lat="46.86832" lon="8.50863">
        <ele>1484</ele>
        <time>2021-08-11T10:21:54.476Z</time>
      </trkpt>
      <trkpt lat="46.86833" lon="8.50863">
        <ele>1484</ele>
        <time>2021-08-11T10:21:55.475Z</time>
      </trkpt>
      <trkpt lat="46.86832" lon="8.50863">
        <ele>1484</ele>
        <time>2021-08-11T10:21:56.476Z</time>
      </trkpt>
      <trkpt lat="46.86831" lon="8.50863">
        <ele>1485</ele>
        <time>2021-08-11T10:21:57.475Z</time>
      </trkpt>
      <trkpt lat="46.86831" lon="8.50863">
        <ele>1485</ele>
        <time>2021-08-11T10:21:58.476Z</time>
      </trkpt>
      <trkpt lat="46.8683" lon="8.50863">
        <ele>1485</ele>
        <time>2021-08-11T10:21:59.475Z</time>
      </trkpt>
      <trkpt lat="46.8683" lon="8.50863">
        <ele>1484</ele>
        <time>2021-08-11T10:22:00.476Z</time>
      </trkpt>
      <trkpt lat="46.86829" lon="8.50864">
        <ele>1484</ele>
        <time>2021-08-11T10:22:01.476Z</time>
      </trkpt>
      <trkpt lat="46.86828" lon="8.50864">
        <ele>1484</ele>
        <time>2021-08-11T10:22:02.476Z</time>
      </trkpt>
      <trkpt lat="46.86828" lon="8.50864">
        <ele>1484</ele>
        <time>2021-08-11T10:22:03.476Z</time>
      </trkpt>
      <trkpt lat="46.86828" lon="8.50864">
        <ele>1485</ele>
        <time>2021-08-11T10:22:04.476Z</time>
      </trkpt>
      <trkpt lat="46.86828" lon="8.50864">
        <ele>1485</ele>
        <time>2021-08-11T10:22:05.476Z</time>
      </trkpt>
      <trkpt lat="46.86827" lon="8.50864">
        <ele>1485</ele>
        <time>2021-08-11T10:22:06.476Z</time>
      </trkpt>
      <trkpt lat="46.86827" lon="8.50864">
        <ele>1486</ele>
        <time>2021-08-11T10:22:07.476Z</time>
      </trkpt>
      <trkpt lat="46.86826" lon="8.50865">
        <ele>1484</ele>
        <time>2021-08-11T10:22:08.476Z</time>
      </trkpt>
      <trkpt lat="46.86825" lon="8.50865">
        <ele>1483</ele>
        <time>2021-08-11T10:22:09.475Z</time>
      </trkpt>
      <trkpt lat="46.86824" lon="8.50866">
        <ele>1483</ele>
        <time>2021-08-11T10:22:10.475Z</time>
      </trkpt>
      <trkpt lat="46.86824" lon="8.50866">
        <ele>1483</ele>
        <time>2021-08-11T10:22:11.475Z</time>
      </trkpt>
      <trkpt lat="46.86824" lon="8.50867">
        <ele>1483</ele>
        <time>2021-08-11T10:22:12.476Z</time>
      </trkpt>
      <trkpt lat="46.86824" lon="8.50868">
        <ele>1483</ele>
        <time>2021-08-11T10:22:13.476Z</time>
      </trkpt>
      <trkpt lat="46.86824" lon="8.50867">
        <ele>1482</ele>
        <time>2021-08-11T10:22:14.475Z</time>
      </trkpt>
      <trkpt lat="46.86823" lon="8.50867">
        <ele>1482</ele>
        <time>2021-08-11T10:22:15.475Z</time>
      </trkpt>
      <trkpt lat="46.86822" lon="8.50867">
        <ele>1482</ele>
        <time>2021-08-11T10:22:16.476Z</time>
      </trkpt>
      <trkpt lat="46.86822" lon="8.50867">
        <ele>1481</ele>
        <time>2021-08-11T10:22:17.476Z</time>
      </trkpt>
      <trkpt lat="46.86822" lon="8.50868">
        <ele>1481</ele>
        <time>2021-08-11T10:22:18.476Z</time>
      </trkpt>
      <trkpt lat="46.86821" lon="8.50869">
        <ele>1480</ele>
        <time>2021-08-11T10:22:19.475Z</time>
      </trkpt>
      <trkpt lat="46.8682" lon="8.5087">
        <ele>1479</ele>
        <time>2021-08-11T10:22:20.475Z</time>
      </trkpt>
      <trkpt lat="46.86819" lon="8.5087">
        <ele>1479</ele>
        <time>2021-08-11T10:22:21.476Z</time>
      </trkpt>
      <trkpt lat="46.86818" lon="8.5087">
        <ele>1478</ele>
        <time>2021-08-11T10:22:22.475Z</time>
      </trkpt>
      <trkpt lat="46.86817" lon="8.50871">
        <ele>1478</ele>
        <time>2021-08-11T10:22:23.476Z</time>
      </trkpt>
      <trkpt lat="46.86817" lon="8.50871">
        <ele>1478</ele>
        <time>2021-08-11T10:22:24.475Z</time>
      </trkpt>
      <trkpt lat="46.86816" lon="8.50871">
        <ele>1478</ele>
        <time>2021-08-11T10:22:25.475Z</time>
      </trkpt>
      <trkpt lat="46.86816" lon="8.5087">
        <ele>1477</ele>
        <time>2021-08-11T10:22:26.475Z</time>
      </trkpt>
      <trkpt lat="46.86816" lon="8.5087">
        <ele>1477</ele>
        <time>2021-08-11T10:22:27.475Z</time>
      </trkpt>
      <trkpt lat="46.86815" lon="8.5087">
        <ele>1476</ele>
        <time>2021-08-11T10:22:28.476Z</time>
      </trkpt>
      <trkpt lat="46.86815" lon="8.50871">
        <ele>1476</ele>
        <time>2021-08-11T10:22:29.476Z</time>
      </trkpt>
      <trkpt lat="46.86814" lon="8.5087">
        <ele>1476</ele>
        <time>2021-08-11T10:22:30.476Z</time>
      </trkpt>
      <trkpt lat="46.86814" lon="8.5087">
        <ele>1475</ele>
        <time>2021-08-11T10:22:31.476Z</time>
      </trkpt>
      <trkpt lat="46.86813" lon="8.5087">
        <ele>1475</ele>
        <time>2021-08-11T10:22:32.476Z</time>
      </trkpt>
      <trkpt lat="46.86812" lon="8.5087">
        <ele>1475</ele>
        <time>2021-08-11T10:22:33.475Z</time>
      </trkpt>
      <trkpt lat="46.86812" lon="8.5087">
        <ele>1476</ele>
        <time>2021-08-11T10:22:34.476Z</time>
      </trkpt>
      <trkpt lat="46.86811" lon="8.5087">
        <ele>1476</ele>
        <time>2021-08-11T10:22:35.476Z</time>
      </trkpt>
      <trkpt lat="46.8681" lon="8.50871">
        <ele>1477</ele>
        <time>2021-08-11T10:22:36.475Z</time>
      </trkpt>
      <trkpt lat="46.8681" lon="8.50871">
        <ele>1477</ele>
        <time>2021-08-11T10:22:37.476Z</time>
      </trkpt>
      <trkpt lat="46.86809" lon="8.50871">
        <ele>1477</ele>
        <time>2021-08-11T10:22:38.475Z</time>
      </trkpt>
      <trkpt lat="46.86809" lon="8.50872">
        <ele>1478</ele>
        <time>2021-08-11T10:22:39.476Z</time>
      </trkpt>
      <trkpt lat="46.86808" lon="8.50873">
        <ele>1478</ele>
        <time>2021-08-11T10:22:40.475Z</time>
      </trkpt>
      <trkpt lat="46.86808" lon="8.50873">
        <ele>1478</ele>
        <time>2021-08-11T10:22:41.475Z</time>
      </trkpt>
      <trkpt lat="46.86808" lon="8.50872">
        <ele>1478</ele>
        <time>2021-08-11T10:22:42.476Z</time>
      </trkpt>
      <trkpt lat="46.86807" lon="8.50872">
        <ele>1478</ele>
        <time>2021-08-11T10:22:43.475Z</time>
      </trkpt>
      <trkpt lat="46.86805" lon="8.50872">
        <ele>1479</ele>
        <time>2021-08-11T10:22:44.476Z</time>
      </trkpt>
      <trkpt lat="46.86805" lon="8.50872">
        <ele>1479</ele>
        <time>2021-08-11T10:22:45.475Z</time>
      </trkpt>
      <trkpt lat="46.86804" lon="8.50872">
        <ele>1480</ele>
        <time>2021-08-11T10:22:46.475Z</time>
      </trkpt>
      <trkpt lat="46.86803" lon="8.50871">
        <ele>1480</ele>
        <time>2021-08-11T10:22:47.475Z</time>
      </trkpt>
      <trkpt lat="46.86803" lon="8.50871">
        <ele>1480</ele>
        <time>2021-08-11T10:22:48.475Z</time>
      </trkpt>
      <trkpt lat="46.86802" lon="8.50872">
        <ele>1481</ele>
        <time>2021-08-11T10:22:49.475Z</time>
      </trkpt>
      <trkpt lat="46.86801" lon="8.50872">
        <ele>1481</ele>
        <time>2021-08-11T10:22:50.475Z</time>
      </trkpt>
      <trkpt lat="46.868" lon="8.50871">
        <ele>1481</ele>
        <time>2021-08-11T10:22:51.475Z</time>
      </trkpt>
      <trkpt lat="46.868" lon="8.50871">
        <ele>1482</ele>
        <time>2021-08-11T10:22:52.475Z</time>
      </trkpt>
      <trkpt lat="46.86799" lon="8.5087">
        <ele>1482</ele>
        <time>2021-08-11T10:22:53.475Z</time>
      </trkpt>
      <trkpt lat="46.86798" lon="8.5087">
        <ele>1482</ele>
        <time>2021-08-11T10:22:54.476Z</time>
      </trkpt>
      <trkpt lat="46.86797" lon="8.5087">
        <ele>1483</ele>
        <time>2021-08-11T10:22:55.475Z</time>
      </trkpt>
      <trkpt lat="46.86796" lon="8.5087">
        <ele>1483</ele>
        <time>2021-08-11T10:22:56.476Z</time>
      </trkpt>
      <trkpt lat="46.86796" lon="8.50871">
        <ele>1484</ele>
        <time>2021-08-11T10:22:57.476Z</time>
      </trkpt>
      <trkpt lat="46.86796" lon="8.50871">
        <ele>1484</ele>
        <time>2021-08-11T10:22:58.475Z</time>
      </trkpt>
      <trkpt lat="46.86795" lon="8.50872">
        <ele>1485</ele>
        <time>2021-08-11T10:22:59.475Z</time>
      </trkpt>
      <trkpt lat="46.86795" lon="8.50872">
        <ele>1485</ele>
        <time>2021-08-11T10:23:00.476Z</time>
      </trkpt>
      <trkpt lat="46.86794" lon="8.50872">
        <ele>1485</ele>
        <time>2021-08-11T10:23:01.476Z</time>
      </trkpt>
      <trkpt lat="46.86794" lon="8.50872">
        <ele>1484</ele>
        <time>2021-08-11T10:23:02.476Z</time>
      </trkpt>
      <trkpt lat="46.86793" lon="8.50873">
        <ele>1484</ele>
        <time>2021-08-11T10:23:03.475Z</time>
      </trkpt>
      <trkpt lat="46.86792" lon="8.50873">
        <ele>1483</ele>
        <time>2021-08-11T10:23:04.476Z</time>
      </trkpt>
      <trkpt lat="46.86791" lon="8.50873">
        <ele>1483</ele>
        <time>2021-08-11T10:23:05.476Z</time>
      </trkpt>
      <trkpt lat="46.8679" lon="8.50874">
        <ele>1483</ele>
        <time>2021-08-11T10:23:06.476Z</time>
      </trkpt>
      <trkpt lat="46.8679" lon="8.50875">
        <ele>1482</ele>
        <time>2021-08-11T10:23:07.476Z</time>
      </trkpt>
      <trkpt lat="46.8679" lon="8.50876">
        <ele>1482</ele>
        <time>2021-08-11T10:23:08.476Z</time>
      </trkpt>
      <trkpt lat="46.8679" lon="8.50876">
        <ele>1482</ele>
        <time>2021-08-11T10:23:09.475Z</time>
      </trkpt>
      <trkpt lat="46.8679" lon="8.50876">
        <ele>1481</ele>
        <time>2021-08-11T10:23:10.476Z</time>
      </trkpt>
      <trkpt lat="46.86789" lon="8.50877">
        <ele>1481</ele>
        <time>2021-08-11T10:23:11.476Z</time>
      </trkpt>
      <trkpt lat="46.86789" lon="8.50878">
        <ele>1481</ele>
        <time>2021-08-11T10:23:12.476Z</time>
      </trkpt>
      <trkpt lat="46.86789" lon="8.50879">
        <ele>1481</ele>
        <time>2021-08-11T10:23:13.475Z</time>
      </trkpt>
      <trkpt lat="46.86788" lon="8.5088">
        <ele>1481</ele>
        <time>2021-08-11T10:23:14.475Z</time>
      </trkpt>
      <trkpt lat="46.86788" lon="8.50881">
        <ele>1481</ele>
        <time>2021-08-11T10:23:15.476Z</time>
      </trkpt>
      <trkpt lat="46.86788" lon="8.50881">
        <ele>1481</ele>
        <time>2021-08-11T10:23:16.476Z</time>
      </trkpt>
      <trkpt lat="46.86787" lon="8.50881">
        <ele>1482</ele>
        <time>2021-08-11T10:23:17.476Z</time>
      </trkpt>
      <trkpt lat="46.86787" lon="8.50882">
        <ele>1483</ele>
        <time>2021-08-11T10:23:18.475Z</time>
      </trkpt>
      <trkpt lat="46.86786" lon="8.50882">
        <ele>1483</ele>
        <time>2021-08-11T10:23:19.475Z</time>
      </trkpt>
      <trkpt lat="46.86786" lon="8.50882">
        <ele>1483</ele>
        <time>2021-08-11T10:23:20.475Z</time>
      </trkpt>
      <trkpt lat="46.86786" lon="8.50883">
        <ele>1483</ele>
        <time>2021-08-11T10:23:21.476Z</time>
      </trkpt>
      <trkpt lat="46.86785" lon="8.50883">
        <ele>1483</ele>
        <time>2021-08-11T10:23:22.476Z</time>
      </trkpt>
      <trkpt lat="46.86785" lon="8.50883">
        <ele>1483</ele>
        <time>2021-08-11T10:23:23.476Z</time>
      </trkpt>
      <trkpt lat="46.86784" lon="8.50882">
        <ele>1482</ele>
        <time>2021-08-11T10:23:24.475Z</time>
      </trkpt>
      <trkpt lat="46.86784" lon="8.50882">
        <ele>1482</ele>
        <time>2021-08-11T10:23:25.475Z</time>
      </trkpt>
      <trkpt lat="46.86784" lon="8.50881">
        <ele>1481</ele>
        <time>2021-08-11T10:23:26.476Z</time>
      </trkpt>
      <trkpt lat="46.86783" lon="8.50881">
        <ele>1481</ele>
        <time>2021-08-11T10:23:27.476Z</time>
      </trkpt>
      <trkpt lat="46.86783" lon="8.5088">
        <ele>1482</ele>
        <time>2021-08-11T10:23:28.476Z</time>
      </trkpt>
      <trkpt lat="46.86783" lon="8.5088">
        <ele>1482</ele>
        <time>2021-08-11T10:23:29.476Z</time>
      </trkpt>
      <trkpt lat="46.86783" lon="8.5088">
        <ele>1482</ele>
        <time>2021-08-11T10:23:30.475Z</time>
      </trkpt>
      <trkpt lat="46.86783" lon="8.50879">
        <ele>1482</ele>
        <time>2021-08-11T10:23:31.476Z</time>
      </trkpt>
      <trkpt lat="46.86783" lon="8.50879">
        <ele>1482</ele>
        <time>2021-08-11T10:23:32.476Z</time>
      </trkpt>
      <trkpt lat="46.86783" lon="8.50878">
        <ele>1483</ele>
        <time>2021-08-11T10:23:33.475Z</time>
      </trkpt>
      <trkpt lat="46.86784" lon="8.50877">
        <ele>1484</ele>
        <time>2021-08-11T10:23:34.476Z</time>
      </trkpt>
      <trkpt lat="46.86784" lon="8.50876">
        <ele>1484</ele>
        <time>2021-08-11T10:23:35.476Z</time>
      </trkpt>
      <trkpt lat="46.86784" lon="8.50875">
        <ele>1485</ele>
        <time>2021-08-11T10:23:36.475Z</time>
      </trkpt>
      <trkpt lat="46.86784" lon="8.50874">
        <ele>1486</ele>
        <time>2021-08-11T10:23:37.476Z</time>
      </trkpt>
      <trkpt lat="46.86785" lon="8.50873">
        <ele>1487</ele>
        <time>2021-08-11T10:23:38.476Z</time>
      </trkpt>
      <trkpt lat="46.86784" lon="8.50871">
        <ele>1487</ele>
        <time>2021-08-11T10:23:39.476Z</time>
      </trkpt>
      <trkpt lat="46.86785" lon="8.50871">
        <ele>1488</ele>
        <time>2021-08-11T10:23:40.476Z</time>
      </trkpt>
      <trkpt lat="46.86785" lon="8.5087">
        <ele>1489</ele>
        <time>2021-08-11T10:23:41.476Z</time>
      </trkpt>
      <trkpt lat="46.86785" lon="8.5087">
        <ele>1489</ele>
        <time>2021-08-11T10:23:42.475Z</time>
      </trkpt>
      <trkpt lat="46.86786" lon="8.50869">
        <ele>1490</ele>
        <time>2021-08-11T10:23:43.476Z</time>
      </trkpt>
      <trkpt lat="46.86786" lon="8.50868">
        <ele>1490</ele>
        <time>2021-08-11T10:23:44.476Z</time>
      </trkpt>
      <trkpt lat="46.86786" lon="8.50868">
        <ele>1490</ele>
        <time>2021-08-11T10:23:45.476Z</time>
      </trkpt>
      <trkpt lat="46.86786" lon="8.50867">
        <ele>1490</ele>
        <time>2021-08-11T10:23:46.475Z</time>
      </trkpt>
      <trkpt lat="46.86786" lon="8.50866">
        <ele>1490</ele>
        <time>2021-08-11T10:23:47.476Z</time>
      </trkpt>
      <trkpt lat="46.86786" lon="8.50865">
        <ele>1491</ele>
        <time>2021-08-11T10:23:48.476Z</time>
      </trkpt>
      <trkpt lat="46.86786" lon="8.50864">
        <ele>1491</ele>
        <time>2021-08-11T10:23:49.476Z</time>
      </trkpt>
      <trkpt lat="46.86786" lon="8.50863">
        <ele>1491</ele>
        <time>2021-08-11T10:23:50.476Z</time>
      </trkpt>
      <trkpt lat="46.86786" lon="8.50862">
        <ele>1491</ele>
        <time>2021-08-11T10:23:51.475Z</time>
      </trkpt>
      <trkpt lat="46.86787" lon="8.50861">
        <ele>1491</ele>
        <time>2021-08-11T10:23:52.476Z</time>
      </trkpt>
      <trkpt lat="46.86787" lon="8.50861">
        <ele>1491</ele>
        <time>2021-08-11T10:23:53.476Z</time>
      </trkpt>
      <trkpt lat="46.86787" lon="8.5086">
        <ele>1491</ele>
        <time>2021-08-11T10:23:54.476Z</time>
      </trkpt>
      <trkpt lat="46.86788" lon="8.50859">
        <ele>1490</ele>
        <time>2021-08-11T10:23:55.476Z</time>
      </trkpt>
      <trkpt lat="46.86788" lon="8.50858">
        <ele>1490</ele>
        <time>2021-08-11T10:23:56.475Z</time>
      </trkpt>
      <trkpt lat="46.86789" lon="8.50857">
        <ele>1490</ele>
        <time>2021-08-11T10:23:57.476Z</time>
      </trkpt>
      <trkpt lat="46.86789" lon="8.50856">
        <ele>1491</ele>
        <time>2021-08-11T10:23:58.476Z</time>
      </trkpt>
      <trkpt lat="46.86789" lon="8.50856">
        <ele>1491</ele>
        <time>2021-08-11T10:23:59.476Z</time>
      </trkpt>
      <trkpt lat="46.8679" lon="8.50855">
        <ele>1492</ele>
        <time>2021-08-11T10:24:00.476Z</time>
      </trkpt>
      <trkpt lat="46.8679" lon="8.50854">
        <ele>1492</ele>
        <time>2021-08-11T10:24:01.475Z</time>
      </trkpt>
      <trkpt lat="46.8679" lon="8.50853">
        <ele>1492</ele>
        <time>2021-08-11T10:24:02.475Z</time>
      </trkpt>
      <trkpt lat="46.86791" lon="8.50852">
        <ele>1492</ele>
        <time>2021-08-11T10:24:03.476Z</time>
      </trkpt>
      <trkpt lat="46.86791" lon="8.50852">
        <ele>1492</ele>
        <time>2021-08-11T10:24:04.476Z</time>
      </trkpt>
      <trkpt lat="46.86791" lon="8.50851">
        <ele>1492</ele>
        <time>2021-08-11T10:24:05.476Z</time>
      </trkpt>
      <trkpt lat="46.86791" lon="8.50851">
        <ele>1492</ele>
        <time>2021-08-11T10:24:06.475Z</time>
      </trkpt>
      <trkpt lat="46.86791" lon="8.5085">
        <ele>1492</ele>
        <time>2021-08-11T10:24:07.475Z</time>
      </trkpt>
      <trkpt lat="46.86792" lon="8.50849">
        <ele>1492</ele>
        <time>2021-08-11T10:24:08.476Z</time>
      </trkpt>
      <trkpt lat="46.86792" lon="8.50849">
        <ele>1492</ele>
        <time>2021-08-11T10:24:09.476Z</time>
      </trkpt>
      <trkpt lat="46.86793" lon="8.50848">
        <ele>1492</ele>
        <time>2021-08-11T10:24:10.476Z</time>
      </trkpt>
      <trkpt lat="46.86793" lon="8.50847">
        <ele>1492</ele>
        <time>2021-08-11T10:24:11.475Z</time>
      </trkpt>
      <trkpt lat="46.86794" lon="8.50846">
        <ele>1492</ele>
        <time>2021-08-11T10:24:12.475Z</time>
      </trkpt>
      <trkpt lat="46.86794" lon="8.50845">
        <ele>1492</ele>
        <time>2021-08-11T10:24:13.475Z</time>
      </trkpt>
      <trkpt lat="46.86794" lon="8.50844">
        <ele>1491</ele>
        <time>2021-08-11T10:24:14.476Z</time>
      </trkpt>
      <trkpt lat="46.86794" lon="8.50843">
        <ele>1492</ele>
        <time>2021-08-11T10:24:15.476Z</time>
      </trkpt>
      <trkpt lat="46.86794" lon="8.50842">
        <ele>1492</ele>
        <time>2021-08-11T10:24:16.476Z</time>
      </trkpt>
      <trkpt lat="46.86794" lon="8.50841">
        <ele>1492</ele>
        <time>2021-08-11T10:24:17.476Z</time>
      </trkpt>
      <trkpt lat="46.86793" lon="8.5084">
        <ele>1492</ele>
        <time>2021-08-11T10:24:18.476Z</time>
      </trkpt>
      <trkpt lat="46.86793" lon="8.50839">
        <ele>1492</ele>
        <time>2021-08-11T10:24:19.475Z</time>
      </trkpt>
      <trkpt lat="46.86793" lon="8.50837">
        <ele>1492</ele>
        <time>2021-08-11T10:24:20.475Z</time>
      </trkpt>
      <trkpt lat="46.86793" lon="8.50836">
        <ele>1493</ele>
        <time>2021-08-11T10:24:21.476Z</time>
      </trkpt>
      <trkpt lat="46.86793" lon="8.50836">
        <ele>1493</ele>
        <time>2021-08-11T10:24:22.476Z</time>
      </trkpt>
      <trkpt lat="46.86793" lon="8.50835">
        <ele>1493</ele>
        <time>2021-08-11T10:24:23.476Z</time>
      </trkpt>
      <trkpt lat="46.86793" lon="8.50834">
        <ele>1493</ele>
        <time>2021-08-11T10:24:24.476Z</time>
      </trkpt>
      <trkpt lat="46.86793" lon="8.50833">
        <ele>1493</ele>
        <time>2021-08-11T10:24:25.475Z</time>
      </trkpt>
      <trkpt lat="46.86793" lon="8.50831">
        <ele>1492</ele>
        <time>2021-08-11T10:24:26.476Z</time>
      </trkpt>
      <trkpt lat="46.86793" lon="8.50831">
        <ele>1492</ele>
        <time>2021-08-11T10:24:27.476Z</time>
      </trkpt>
      <trkpt lat="46.86793" lon="8.5083">
        <ele>1492</ele>
        <time>2021-08-11T10:24:28.476Z</time>
      </trkpt>
      <trkpt lat="46.86793" lon="8.50829">
        <ele>1492</ele>
        <time>2021-08-11T10:24:29.476Z</time>
      </trkpt>
      <trkpt lat="46.86793" lon="8.50828">
        <ele>1492</ele>
        <time>2021-08-11T10:24:30.475Z</time>
      </trkpt>
      <trkpt lat="46.86793" lon="8.50827">
        <ele>1492</ele>
        <time>2021-08-11T10:24:31.476Z</time>
      </trkpt>
      <trkpt lat="46.86794" lon="8.50826">
        <ele>1492</ele>
        <time>2021-08-11T10:24:32.476Z</time>
      </trkpt>
      <trkpt lat="46.86794" lon="8.50825">
        <ele>1492</ele>
        <time>2021-08-11T10:24:33.475Z</time>
      </trkpt>
      <trkpt lat="46.86794" lon="8.50825">
        <ele>1492</ele>
        <time>2021-08-11T10:24:34.476Z</time>
      </trkpt>
      <trkpt lat="46.86795" lon="8.50824">
        <ele>1493</ele>
        <time>2021-08-11T10:24:35.476Z</time>
      </trkpt>
      <trkpt lat="46.86795" lon="8.50824">
        <ele>1493</ele>
        <time>2021-08-11T10:24:36.475Z</time>
      </trkpt>
      <trkpt lat="46.86795" lon="8.50824">
        <ele>1493</ele>
        <time>2021-08-11T10:24:37.476Z</time>
      </trkpt>
      <trkpt lat="46.86796" lon="8.50822">
        <ele>1494</ele>
        <time>2021-08-11T10:24:38.476Z</time>
      </trkpt>
      <trkpt lat="46.86796" lon="8.50822">
        <ele>1494</ele>
        <time>2021-08-11T10:24:39.476Z</time>
      </trkpt>
      <trkpt lat="46.86795" lon="8.50821">
        <ele>1494</ele>
        <time>2021-08-11T10:24:40.476Z</time>
      </trkpt>
      <trkpt lat="46.86795" lon="8.50821">
        <ele>1494</ele>
        <time>2021-08-11T10:24:41.475Z</time>
      </trkpt>
      <trkpt lat="46.86795" lon="8.5082">
        <ele>1494</ele>
        <time>2021-08-11T10:24:42.476Z</time>
      </trkpt>
      <trkpt lat="46.86795" lon="8.50818">
        <ele>1495</ele>
        <time>2021-08-11T10:24:43.476Z</time>
      </trkpt>
      <trkpt lat="46.86795" lon="8.50817">
        <ele>1495</ele>
        <time>2021-08-11T10:24:44.476Z</time>
      </trkpt>
      <trkpt lat="46.86795" lon="8.50815">
        <ele>1495</ele>
        <time>2021-08-11T10:24:45.476Z</time>
      </trkpt>
      <trkpt lat="46.86795" lon="8.50814">
        <ele>1495</ele>
        <time>2021-08-11T10:24:46.475Z</time>
      </trkpt>
      <trkpt lat="46.86794" lon="8.50812">
        <ele>1495</ele>
        <time>2021-08-11T10:24:47.475Z</time>
      </trkpt>
      <trkpt lat="46.86794" lon="8.50812">
        <ele>1496</ele>
        <time>2021-08-11T10:24:48.476Z</time>
      </trkpt>
      <trkpt lat="46.86793" lon="8.50811">
        <ele>1496</ele>
        <time>2021-08-11T10:24:49.476Z</time>
      </trkpt>
      <trkpt lat="46.86793" lon="8.5081">
        <ele>1496</ele>
        <time>2021-08-11T10:24:50.476Z</time>
      </trkpt>
      <trkpt lat="46.86793" lon="8.50809">
        <ele>1496</ele>
        <time>2021-08-11T10:24:51.475Z</time>
      </trkpt>
      <trkpt lat="46.86792" lon="8.50807">
        <ele>1496</ele>
        <time>2021-08-11T10:24:52.475Z</time>
      </trkpt>
      <trkpt lat="46.86792" lon="8.50806">
        <ele>1496</ele>
        <time>2021-08-11T10:24:53.476Z</time>
      </trkpt>
      <trkpt lat="46.86792" lon="8.50805">
        <ele>1496</ele>
        <time>2021-08-11T10:24:54.476Z</time>
      </trkpt>
      <trkpt lat="46.86792" lon="8.50804">
        <ele>1495</ele>
        <time>2021-08-11T10:24:55.476Z</time>
      </trkpt>
      <trkpt lat="46.86792" lon="8.50803">
        <ele>1495</ele>
        <time>2021-08-11T10:24:56.476Z</time>
      </trkpt>
      <trkpt lat="46.86792" lon="8.50803">
        <ele>1495</ele>
        <time>2021-08-11T10:24:57.475Z</time>
      </trkpt>
      <trkpt lat="46.86791" lon="8.50802">
        <ele>1495</ele>
        <time>2021-08-11T10:24:58.476Z</time>
      </trkpt>
      <trkpt lat="46.86791" lon="8.50802">
        <ele>1495</ele>
        <time>2021-08-11T10:24:59.476Z</time>
      </trkpt>
      <trkpt lat="46.86791" lon="8.50801">
        <ele>1496</ele>
        <time>2021-08-11T10:25:00.476Z</time>
      </trkpt>
      <trkpt lat="46.86791" lon="8.508">
        <ele>1497</ele>
        <time>2021-08-11T10:25:18.535Z</time>
      </trkpt>
      <trkpt lat="46.86792" lon="8.50798">
        <ele>1497</ele>
        <time>2021-08-11T10:25:19.534Z</time>
      </trkpt>
      <trkpt lat="46.86792" lon="8.50797">
        <ele>1498</ele>
        <time>2021-08-11T10:25:20.534Z</time>
      </trkpt>
      <trkpt lat="46.86792" lon="8.50797">
        <ele>1498</ele>
        <time>2021-08-11T10:25:21.534Z</time>
      </trkpt>
      <trkpt lat="46.86792" lon="8.50797">
        <ele>1498</ele>
        <time>2021-08-11T10:25:22.534Z</time>
      </trkpt>
      <trkpt lat="46.86792" lon="8.50796">
        <ele>1498</ele>
        <time>2021-08-11T10:25:23.534Z</time>
      </trkpt>
      <trkpt lat="46.86792" lon="8.50795">
        <ele>1499</ele>
        <time>2021-08-11T10:25:24.535Z</time>
      </trkpt>
      <trkpt lat="46.86792" lon="8.50793">
        <ele>1499</ele>
        <time>2021-08-11T10:25:25.535Z</time>
      </trkpt>
      <trkpt lat="46.86792" lon="8.50791">
        <ele>1499</ele>
        <time>2021-08-11T10:25:26.535Z</time>
      </trkpt>
      <trkpt lat="46.86793" lon="8.5079">
        <ele>1499</ele>
        <time>2021-08-11T10:25:27.535Z</time>
      </trkpt>
      <trkpt lat="46.86794" lon="8.50788">
        <ele>1499</ele>
        <time>2021-08-11T10:25:28.534Z</time>
      </trkpt>
      <trkpt lat="46.86794" lon="8.50787">
        <ele>1499</ele>
        <time>2021-08-11T10:25:29.534Z</time>
      </trkpt>
      <trkpt lat="46.86794" lon="8.50786">
        <ele>1499</ele>
        <time>2021-08-11T10:25:30.535Z</time>
      </trkpt>
      <trkpt lat="46.86794" lon="8.50784">
        <ele>1499</ele>
        <time>2021-08-11T10:25:31.535Z</time>
      </trkpt>
      <trkpt lat="46.86794" lon="8.50783">
        <ele>1499</ele>
        <time>2021-08-11T10:25:32.535Z</time>
      </trkpt>
      <trkpt lat="46.86793" lon="8.50781">
        <ele>1499</ele>
        <time>2021-08-11T10:25:33.535Z</time>
      </trkpt>
      <trkpt lat="46.86793" lon="8.5078">
        <ele>1499</ele>
        <time>2021-08-11T10:25:34.534Z</time>
      </trkpt>
      <trkpt lat="46.86793" lon="8.50778">
        <ele>1498</ele>
        <time>2021-08-11T10:25:35.535Z</time>
      </trkpt>
      <trkpt lat="46.86794" lon="8.50777">
        <ele>1498</ele>
        <time>2021-08-11T10:25:36.535Z</time>
      </trkpt>
      <trkpt lat="46.86792" lon="8.50775">
        <ele>1498</ele>
        <time>2021-08-11T10:25:37.535Z</time>
      </trkpt>
      <trkpt lat="46.86792" lon="8.50773">
        <ele>1498</ele>
        <time>2021-08-11T10:25:38.535Z</time>
      </trkpt>
      <trkpt lat="46.86793" lon="8.50772">
        <ele>1498</ele>
        <time>2021-08-11T10:25:39.534Z</time>
      </trkpt>
      <trkpt lat="46.86793" lon="8.5077">
        <ele>1498</ele>
        <time>2021-08-11T10:25:40.535Z</time>
      </trkpt>
      <trkpt lat="46.86792" lon="8.50769">
        <ele>1498</ele>
        <time>2021-08-11T10:25:41.535Z</time>
      </trkpt>
      <trkpt lat="46.86792" lon="8.50767">
        <ele>1498</ele>
        <time>2021-08-11T10:25:42.535Z</time>
      </trkpt>
      <trkpt lat="46.86792" lon="8.50766">
        <ele>1498</ele>
        <time>2021-08-11T10:25:43.535Z</time>
      </trkpt>
      <trkpt lat="46.86793" lon="8.50766">
        <ele>1497</ele>
        <time>2021-08-11T10:25:44.534Z</time>
      </trkpt>
      <trkpt lat="46.86793" lon="8.50765">
        <ele>1498</ele>
        <time>2021-08-11T10:25:45.534Z</time>
      </trkpt>
      <trkpt lat="46.86793" lon="8.50764">
        <ele>1498</ele>
        <time>2021-08-11T10:25:46.535Z</time>
      </trkpt>
      <trkpt lat="46.86793" lon="8.50763">
        <ele>1498</ele>
        <time>2021-08-11T10:25:47.535Z</time>
      </trkpt>
      <trkpt lat="46.86794" lon="8.50762">
        <ele>1498</ele>
        <time>2021-08-11T10:25:48.534Z</time>
      </trkpt>
      <trkpt lat="46.86794" lon="8.50761">
        <ele>1498</ele>
        <time>2021-08-11T10:25:49.534Z</time>
      </trkpt>
      <trkpt lat="46.86794" lon="8.50761">
        <ele>1498</ele>
        <time>2021-08-11T10:25:50.534Z</time>
      </trkpt>
      <trkpt lat="46.86794" lon="8.5076">
        <ele>1498</ele>
        <time>2021-08-11T10:25:51.535Z</time>
      </trkpt>
      <trkpt lat="46.86794" lon="8.50759">
        <ele>1497</ele>
        <time>2021-08-11T10:25:52.535Z</time>
      </trkpt>
      <trkpt lat="46.86794" lon="8.50759">
        <ele>1497</ele>
        <time>2021-08-11T10:25:53.534Z</time>
      </trkpt>
      <trkpt lat="46.86794" lon="8.50758">
        <ele>1498</ele>
        <time>2021-08-11T10:25:54.535Z</time>
      </trkpt>
      <trkpt lat="46.86794" lon="8.50755">
        <ele>1498</ele>
        <time>2021-08-11T10:25:55.535Z</time>
      </trkpt>
      <trkpt lat="46.86794" lon="8.50755">
        <ele>1499</ele>
        <time>2021-08-11T10:25:56.535Z</time>
      </trkpt>
      <trkpt lat="46.86795" lon="8.50754">
        <ele>1500</ele>
        <time>2021-08-11T10:25:57.535Z</time>
      </trkpt>
      <trkpt lat="46.86795" lon="8.50754">
        <ele>1500</ele>
        <time>2021-08-11T10:26:09.502Z</time>
      </trkpt>
      <trkpt lat="46.86795" lon="8.50755">
        <ele>1500</ele>
        <time>2021-08-11T10:26:11.276Z</time>
      </trkpt>
      <trkpt lat="46.86796" lon="8.50755">
        <ele>1501</ele>
        <time>2021-08-11T10:26:12.277Z</time>
      </trkpt>
      <trkpt lat="46.86796" lon="8.50756">
        <ele>1501</ele>
        <time>2021-08-11T10:26:13.277Z</time>
      </trkpt>
      <trkpt lat="46.86797" lon="8.50756">
        <ele>1501</ele>
        <time>2021-08-11T10:26:14.277Z</time>
      </trkpt>
      <trkpt lat="46.86797" lon="8.50755">
        <ele>1501</ele>
        <time>2021-08-11T10:26:15.276Z</time>
      </trkpt>
      <trkpt lat="46.86797" lon="8.50755">
        <ele>1502</ele>
        <time>2021-08-11T10:26:16.276Z</time>
      </trkpt>
      <trkpt lat="46.86797" lon="8.50755">
        <ele>1503</ele>
        <time>2021-08-11T10:26:17.277Z</time>
      </trkpt>
      <trkpt lat="46.86797" lon="8.50754">
        <ele>1503</ele>
        <time>2021-08-11T10:26:18.277Z</time>
      </trkpt>
      <trkpt lat="46.86798" lon="8.50754">
        <ele>1504</ele>
        <time>2021-08-11T10:26:19.277Z</time>
      </trkpt>
      <trkpt lat="46.86798" lon="8.50754">
        <ele>1505</ele>
        <time>2021-08-11T10:26:20.277Z</time>
      </trkpt>
      <trkpt lat="46.86798" lon="8.50753">
        <ele>1505</ele>
        <time>2021-08-11T10:26:21.276Z</time>
      </trkpt>
      <trkpt lat="46.86798" lon="8.5075">
        <ele>1506</ele>
        <time>2021-08-11T10:26:22.277Z</time>
      </trkpt>
      <trkpt lat="46.86799" lon="8.5075">
        <ele>1507</ele>
        <time>2021-08-11T10:26:23.277Z</time>
      </trkpt>
      <trkpt lat="46.86799" lon="8.5075">
        <ele>1507</ele>
        <time>2021-08-11T10:26:24.277Z</time>
      </trkpt>
      <trkpt lat="46.868" lon="8.5075">
        <ele>1507</ele>
        <time>2021-08-11T10:26:25.277Z</time>
      </trkpt>
      <trkpt lat="46.868" lon="8.50749">
        <ele>1507</ele>
        <time>2021-08-11T10:26:26.277Z</time>
      </trkpt>
      <trkpt lat="46.86802" lon="8.50751">
        <ele>1507</ele>
        <time>2021-08-11T10:26:27.277Z</time>
      </trkpt>
      <trkpt lat="46.86803" lon="8.50751">
        <ele>1507</ele>
        <time>2021-08-11T10:26:28.278Z</time>
      </trkpt>
      <trkpt lat="46.86803" lon="8.50751">
        <ele>1507</ele>
        <time>2021-08-11T10:26:29.277Z</time>
      </trkpt>
      <trkpt lat="46.86803" lon="8.5075">
        <ele>1507</ele>
        <time>2021-08-11T10:26:30.277Z</time>
      </trkpt>
      <trkpt lat="46.86803" lon="8.5075">
        <ele>1508</ele>
        <time>2021-08-11T10:26:31.277Z</time>
      </trkpt>
      <trkpt lat="46.86803" lon="8.50749">
        <ele>1508</ele>
        <time>2021-08-11T10:26:32.277Z</time>
      </trkpt>
      <trkpt lat="46.86805" lon="8.50747">
        <ele>1508</ele>
        <time>2021-08-11T10:26:33.278Z</time>
      </trkpt>
      <trkpt lat="46.86806" lon="8.50746">
        <ele>1509</ele>
        <time>2021-08-11T10:26:34.278Z</time>
      </trkpt>
      <trkpt lat="46.86807" lon="8.50745">
        <ele>1509</ele>
        <time>2021-08-11T10:26:35.278Z</time>
      </trkpt>
      <trkpt lat="46.86808" lon="8.50745">
        <ele>1509</ele>
        <time>2021-08-11T10:26:36.278Z</time>
      </trkpt>
      <trkpt lat="46.86809" lon="8.50745">
        <ele>1510</ele>
        <time>2021-08-11T10:26:37.277Z</time>
      </trkpt>
      <trkpt lat="46.86809" lon="8.50746">
        <ele>1510</ele>
        <time>2021-08-11T10:26:38.278Z</time>
      </trkpt>
      <trkpt lat="46.8681" lon="8.50746">
        <ele>1511</ele>
        <time>2021-08-11T10:26:39.278Z</time>
      </trkpt>
      <trkpt lat="46.86811" lon="8.50746">
        <ele>1512</ele>
        <time>2021-08-11T10:26:40.278Z</time>
      </trkpt>
      <trkpt lat="46.86811" lon="8.50746">
        <ele>1512</ele>
        <time>2021-08-11T10:26:41.278Z</time>
      </trkpt>
      <trkpt lat="46.86812" lon="8.50746">
        <ele>1513</ele>
        <time>2021-08-11T10:26:42.277Z</time>
      </trkpt>
      <trkpt lat="46.86812" lon="8.50746">
        <ele>1513</ele>
        <time>2021-08-11T10:26:43.278Z</time>
      </trkpt>
      <trkpt lat="46.86813" lon="8.50746">
        <ele>1514</ele>
        <time>2021-08-11T10:26:44.278Z</time>
      </trkpt>
      <trkpt lat="46.86813" lon="8.50745">
        <ele>1514</ele>
        <time>2021-08-11T10:26:45.278Z</time>
      </trkpt>
      <trkpt lat="46.86814" lon="8.50745">
        <ele>1514</ele>
        <time>2021-08-11T10:26:46.278Z</time>
      </trkpt>
      <trkpt lat="46.86814" lon="8.50745">
        <ele>1514</ele>
        <time>2021-08-11T10:26:47.277Z</time>
      </trkpt>
      <trkpt lat="46.86815" lon="8.50745">
        <ele>1514</ele>
        <time>2021-08-11T10:26:48.277Z</time>
      </trkpt>
      <trkpt lat="46.86815" lon="8.50744">
        <ele>1514</ele>
        <time>2021-08-11T10:26:49.277Z</time>
      </trkpt>
      <trkpt lat="46.86815" lon="8.50744">
        <ele>1514</ele>
        <time>2021-08-11T10:26:50.278Z</time>
      </trkpt>
      <trkpt lat="46.86816" lon="8.50745">
        <ele>1513</ele>
        <time>2021-08-11T10:26:51.278Z</time>
      </trkpt>
      <trkpt lat="46.86818" lon="8.50745">
        <ele>1513</ele>
        <time>2021-08-11T10:26:52.278Z</time>
      </trkpt>
      <trkpt lat="46.86818" lon="8.50745">
        <ele>1513</ele>
        <time>2021-08-11T10:26:53.278Z</time>
      </trkpt>
      <trkpt lat="46.8682" lon="8.50743">
        <ele>1513</ele>
        <time>2021-08-11T10:26:54.277Z</time>
      </trkpt>
      <trkpt lat="46.86821" lon="8.50743">
        <ele>1513</ele>
        <time>2021-08-11T10:26:55.278Z</time>
      </trkpt>
      <trkpt lat="46.8682" lon="8.50742">
        <ele>1513</ele>
        <time>2021-08-11T10:26:56.278Z</time>
      </trkpt>
      <trkpt lat="46.8682" lon="8.50742">
        <ele>1513</ele>
        <time>2021-08-11T10:26:57.278Z</time>
      </trkpt>
      <trkpt lat="46.86821" lon="8.50741">
        <ele>1513</ele>
        <time>2021-08-11T10:26:58.278Z</time>
      </trkpt>
      <trkpt lat="46.86821" lon="8.50741">
        <ele>1513</ele>
        <time>2021-08-11T10:26:59.277Z</time>
      </trkpt>
      <trkpt lat="46.86822" lon="8.5074">
        <ele>1513</ele>
        <time>2021-08-11T10:27:00.277Z</time>
      </trkpt>
      <trkpt lat="46.86822" lon="8.50739">
        <ele>1513</ele>
        <time>2021-08-11T10:27:01.278Z</time>
      </trkpt>
      <trkpt lat="46.86823" lon="8.50739">
        <ele>1513</ele>
        <time>2021-08-11T10:27:02.278Z</time>
      </trkpt>
      <trkpt lat="46.86823" lon="8.50738">
        <ele>1513</ele>
        <time>2021-08-11T10:27:03.278Z</time>
      </trkpt>
      <trkpt lat="46.86823" lon="8.50736">
        <ele>1513</ele>
        <time>2021-08-11T10:27:04.277Z</time>
      </trkpt>
      <trkpt lat="46.86824" lon="8.50735">
        <ele>1513</ele>
        <time>2021-08-11T10:27:05.277Z</time>
      </trkpt>
      <trkpt lat="46.86824" lon="8.50734">
        <ele>1513</ele>
        <time>2021-08-11T10:27:06.278Z</time>
      </trkpt>
      <trkpt lat="46.86824" lon="8.50733">
        <ele>1513</ele>
        <time>2021-08-11T10:27:07.278Z</time>
      </trkpt>
      <trkpt lat="46.86825" lon="8.50732">
        <ele>1513</ele>
        <time>2021-08-11T10:27:08.277Z</time>
      </trkpt>
      <trkpt lat="46.86825" lon="8.50731">
        <ele>1513</ele>
        <time>2021-08-11T10:27:09.278Z</time>
      </trkpt>
      <trkpt lat="46.86825" lon="8.50731">
        <ele>1513</ele>
        <time>2021-08-11T10:27:10.278Z</time>
      </trkpt>
      <trkpt lat="46.86826" lon="8.50731">
        <ele>1514</ele>
        <time>2021-08-11T10:27:11.278Z</time>
      </trkpt>
      <trkpt lat="46.86826" lon="8.5073">
        <ele>1514</ele>
        <time>2021-08-11T10:27:12.277Z</time>
      </trkpt>
      <trkpt lat="46.86826" lon="8.50729">
        <ele>1515</ele>
        <time>2021-08-11T10:27:13.278Z</time>
      </trkpt>
      <trkpt lat="46.86826" lon="8.50727">
        <ele>1515</ele>
        <time>2021-08-11T10:27:14.278Z</time>
      </trkpt>
      <trkpt lat="46.86826" lon="8.50725">
        <ele>1515</ele>
        <time>2021-08-11T10:27:15.278Z</time>
      </trkpt>
      <trkpt lat="46.86826" lon="8.50724">
        <ele>1515</ele>
        <time>2021-08-11T10:27:16.278Z</time>
      </trkpt>
      <trkpt lat="46.86826" lon="8.50724">
        <ele>1515</ele>
        <time>2021-08-11T10:27:17.277Z</time>
      </trkpt>
      <trkpt lat="46.86827" lon="8.50724">
        <ele>1515</ele>
        <time>2021-08-11T10:27:18.277Z</time>
      </trkpt>
      <trkpt lat="46.86827" lon="8.50724">
        <ele>1515</ele>
        <time>2021-08-11T10:27:19.278Z</time>
      </trkpt>
      <trkpt lat="46.86828" lon="8.50723">
        <ele>1515</ele>
        <time>2021-08-11T10:27:20.277Z</time>
      </trkpt>
      <trkpt lat="46.86828" lon="8.50723">
        <ele>1516</ele>
        <time>2021-08-11T10:27:21.278Z</time>
      </trkpt>
      <trkpt lat="46.86828" lon="8.50722">
        <ele>1516</ele>
        <time>2021-08-11T10:27:22.278Z</time>
      </trkpt>
      <trkpt lat="46.86828" lon="8.50721">
        <ele>1517</ele>
        <time>2021-08-11T10:27:23.278Z</time>
      </trkpt>
      <trkpt lat="46.86829" lon="8.5072">
        <ele>1517</ele>
        <time>2021-08-11T10:27:24.278Z</time>
      </trkpt>
      <trkpt lat="46.8683" lon="8.50719">
        <ele>1517</ele>
        <time>2021-08-11T10:27:25.278Z</time>
      </trkpt>
      <trkpt lat="46.8683" lon="8.50719">
        <ele>1517</ele>
        <time>2021-08-11T10:27:26.277Z</time>
      </trkpt>
      <trkpt lat="46.8683" lon="8.50718">
        <ele>1518</ele>
        <time>2021-08-11T10:27:27.278Z</time>
      </trkpt>
      <trkpt lat="46.8683" lon="8.50717">
        <ele>1517</ele>
        <time>2021-08-11T10:27:28.278Z</time>
      </trkpt>
      <trkpt lat="46.8683" lon="8.50716">
        <ele>1517</ele>
        <time>2021-08-11T10:27:29.278Z</time>
      </trkpt>
      <trkpt lat="46.8683" lon="8.50715">
        <ele>1517</ele>
        <time>2021-08-11T10:27:30.278Z</time>
      </trkpt>
      <trkpt lat="46.86829" lon="8.50714">
        <ele>1516</ele>
        <time>2021-08-11T10:27:31.278Z</time>
      </trkpt>
      <trkpt lat="46.86828" lon="8.50713">
        <ele>1516</ele>
        <time>2021-08-11T10:27:32.277Z</time>
      </trkpt>
      <trkpt lat="46.86827" lon="8.50712">
        <ele>1515</ele>
        <time>2021-08-11T10:27:33.278Z</time>
      </trkpt>
      <trkpt lat="46.86826" lon="8.50712">
        <ele>1515</ele>
        <time>2021-08-11T10:27:34.278Z</time>
      </trkpt>
      <trkpt lat="46.86826" lon="8.50712">
        <ele>1515</ele>
        <time>2021-08-11T10:27:35.278Z</time>
      </trkpt>
      <trkpt lat="46.86825" lon="8.50712">
        <ele>1515</ele>
        <time>2021-08-11T10:27:36.278Z</time>
      </trkpt>
      <trkpt lat="46.86824" lon="8.50712">
        <ele>1515</ele>
        <time>2021-08-11T10:27:37.278Z</time>
      </trkpt>
      <trkpt lat="46.86824" lon="8.50711">
        <ele>1515</ele>
        <time>2021-08-11T10:27:38.278Z</time>
      </trkpt>
      <trkpt lat="46.86823" lon="8.50712">
        <ele>1514</ele>
        <time>2021-08-11T10:27:39.277Z</time>
      </trkpt>
      <trkpt lat="46.86823" lon="8.50712">
        <ele>1514</ele>
        <time>2021-08-11T10:27:40.277Z</time>
      </trkpt>
      <trkpt lat="46.86822" lon="8.50713">
        <ele>1513</ele>
        <time>2021-08-11T10:27:41.278Z</time>
      </trkpt>
      <trkpt lat="46.86822" lon="8.50713">
        <ele>1512</ele>
        <time>2021-08-11T10:27:42.277Z</time>
      </trkpt>
      <trkpt lat="46.86822" lon="8.50713">
        <ele>1512</ele>
        <time>2021-08-11T10:27:43.278Z</time>
      </trkpt>
      <trkpt lat="46.86821" lon="8.50713">
        <ele>1512</ele>
        <time>2021-08-11T10:27:44.278Z</time>
      </trkpt>
      <trkpt lat="46.8682" lon="8.50713">
        <ele>1511</ele>
        <time>2021-08-11T10:27:45.278Z</time>
      </trkpt>
      <trkpt lat="46.86819" lon="8.50713">
        <ele>1511</ele>
        <time>2021-08-11T10:27:46.278Z</time>
      </trkpt>
      <trkpt lat="46.86818" lon="8.50713">
        <ele>1511</ele>
        <time>2021-08-11T10:27:47.278Z</time>
      </trkpt>
      <trkpt lat="46.86818" lon="8.50713">
        <ele>1511</ele>
        <time>2021-08-11T10:27:48.277Z</time>
      </trkpt>
      <trkpt lat="46.86817" lon="8.50713">
        <ele>1512</ele>
        <time>2021-08-11T10:27:49.278Z</time>
      </trkpt>
      <trkpt lat="46.86816" lon="8.50713">
        <ele>1512</ele>
        <time>2021-08-11T10:27:50.278Z</time>
      </trkpt>
      <trkpt lat="46.86815" lon="8.50713">
        <ele>1512</ele>
        <time>2021-08-11T10:27:51.277Z</time>
      </trkpt>
      <trkpt lat="46.86815" lon="8.50713">
        <ele>1512</ele>
        <time>2021-08-11T10:27:52.278Z</time>
      </trkpt>
      <trkpt lat="46.86815" lon="8.50712">
        <ele>1512</ele>
        <time>2021-08-11T10:27:53.278Z</time>
      </trkpt>
      <trkpt lat="46.86814" lon="8.50712">
        <ele>1513</ele>
        <time>2021-08-11T10:27:54.277Z</time>
      </trkpt>
      <trkpt lat="46.86813" lon="8.50711">
        <ele>1513</ele>
        <time>2021-08-11T10:27:55.277Z</time>
      </trkpt>
      <trkpt lat="46.86812" lon="8.5071">
        <ele>1513</ele>
        <time>2021-08-11T10:27:56.278Z</time>
      </trkpt>
      <trkpt lat="46.86812" lon="8.5071">
        <ele>1513</ele>
        <time>2021-08-11T10:27:57.277Z</time>
      </trkpt>
      <trkpt lat="46.86811" lon="8.50709">
        <ele>1513</ele>
        <time>2021-08-11T10:27:58.278Z</time>
      </trkpt>
      <trkpt lat="46.86811" lon="8.5071">
        <ele>1513</ele>
        <time>2021-08-11T10:27:59.278Z</time>
      </trkpt>
      <trkpt lat="46.86811" lon="8.5071">
        <ele>1513</ele>
        <time>2021-08-11T10:28:00.277Z</time>
      </trkpt>
      <trkpt lat="46.8681" lon="8.50709">
        <ele>1513</ele>
        <time>2021-08-11T10:28:01.278Z</time>
      </trkpt>
      <trkpt lat="46.86809" lon="8.50709">
        <ele>1514</ele>
        <time>2021-08-11T10:28:02.278Z</time>
      </trkpt>
      <trkpt lat="46.86809" lon="8.5071">
        <ele>1514</ele>
        <time>2021-08-11T10:28:03.277Z</time>
      </trkpt>
      <trkpt lat="46.86808" lon="8.50709">
        <ele>1513</ele>
        <time>2021-08-11T10:28:04.278Z</time>
      </trkpt>
      <trkpt lat="46.86807" lon="8.50709">
        <ele>1513</ele>
        <time>2021-08-11T10:28:05.278Z</time>
      </trkpt>
      <trkpt lat="46.86807" lon="8.50708">
        <ele>1513</ele>
        <time>2021-08-11T10:28:06.277Z</time>
      </trkpt>
      <trkpt lat="46.86806" lon="8.50708">
        <ele>1512</ele>
        <time>2021-08-11T10:28:07.278Z</time>
      </trkpt>
      <trkpt lat="46.86805" lon="8.50708">
        <ele>1512</ele>
        <time>2021-08-11T10:28:08.278Z</time>
      </trkpt>
      <trkpt lat="46.86804" lon="8.50708">
        <ele>1511</ele>
        <time>2021-08-11T10:28:09.277Z</time>
      </trkpt>
      <trkpt lat="46.86803" lon="8.50707">
        <ele>1511</ele>
        <time>2021-08-11T10:28:10.277Z</time>
      </trkpt>
      <trkpt lat="46.86802" lon="8.50707">
        <ele>1510</ele>
        <time>2021-08-11T10:28:11.277Z</time>
      </trkpt>
      <trkpt lat="46.86802" lon="8.50706">
        <ele>1510</ele>
        <time>2021-08-11T10:28:12.278Z</time>
      </trkpt>
      <trkpt lat="46.86802" lon="8.50706">
        <ele>1510</ele>
        <time>2021-08-11T10:28:13.277Z</time>
      </trkpt>
      <trkpt lat="46.86801" lon="8.50706">
        <ele>1509</ele>
        <time>2021-08-11T10:28:14.278Z</time>
      </trkpt>
      <trkpt lat="46.86801" lon="8.50705">
        <ele>1509</ele>
        <time>2021-08-11T10:28:15.278Z</time>
      </trkpt>
      <trkpt lat="46.868" lon="8.50705">
        <ele>1509</ele>
        <time>2021-08-11T10:28:16.277Z</time>
      </trkpt>
      <trkpt lat="46.868" lon="8.50705">
        <ele>1509</ele>
        <time>2021-08-11T10:28:17.278Z</time>
      </trkpt>
      <trkpt lat="46.86799" lon="8.50705">
        <ele>1508</ele>
        <time>2021-08-11T10:28:18.278Z</time>
      </trkpt>
      <trkpt lat="46.86799" lon="8.50706">
        <ele>1508</ele>
        <time>2021-08-11T10:28:19.278Z</time>
      </trkpt>
      <trkpt lat="46.86798" lon="8.50706">
        <ele>1508</ele>
        <time>2021-08-11T10:28:20.278Z</time>
      </trkpt>
      <trkpt lat="46.86797" lon="8.50706">
        <ele>1507</ele>
        <time>2021-08-11T10:28:21.278Z</time>
      </trkpt>
      <trkpt lat="46.86796" lon="8.50706">
        <ele>1507</ele>
        <time>2021-08-11T10:28:22.278Z</time>
      </trkpt>
      <trkpt lat="46.86795" lon="8.50706">
        <ele>1507</ele>
        <time>2021-08-11T10:28:23.278Z</time>
      </trkpt>
      <trkpt lat="46.86795" lon="8.50706">
        <ele>1507</ele>
        <time>2021-08-11T10:28:24.278Z</time>
      </trkpt>
      <trkpt lat="46.86795" lon="8.50705">
        <ele>1507</ele>
        <time>2021-08-11T10:28:25.278Z</time>
      </trkpt>
      <trkpt lat="46.86794" lon="8.50706">
        <ele>1508</ele>
        <time>2021-08-11T10:28:26.278Z</time>
      </trkpt>
      <trkpt lat="46.86794" lon="8.50705">
        <ele>1508</ele>
        <time>2021-08-11T10:28:27.277Z</time>
      </trkpt>
      <trkpt lat="46.86793" lon="8.50705">
        <ele>1509</ele>
        <time>2021-08-11T10:28:28.278Z</time>
      </trkpt>
      <trkpt lat="46.86793" lon="8.50705">
        <ele>1509</ele>
        <time>2021-08-11T10:28:29.278Z</time>
      </trkpt>
      <trkpt lat="46.86792" lon="8.50705">
        <ele>1509</ele>
        <time>2021-08-11T10:28:30.277Z</time>
      </trkpt>
      <trkpt lat="46.86791" lon="8.50705">
        <ele>1510</ele>
        <time>2021-08-11T10:28:31.278Z</time>
      </trkpt>
      <trkpt lat="46.86791" lon="8.50704">
        <ele>1510</ele>
        <time>2021-08-11T10:28:32.278Z</time>
      </trkpt>
      <trkpt lat="46.8679" lon="8.50704">
        <ele>1510</ele>
        <time>2021-08-11T10:28:33.277Z</time>
      </trkpt>
      <trkpt lat="46.8679" lon="8.50704">
        <ele>1510</ele>
        <time>2021-08-11T10:28:34.278Z</time>
      </trkpt>
      <trkpt lat="46.86789" lon="8.50703">
        <ele>1510</ele>
        <time>2021-08-11T10:28:35.278Z</time>
      </trkpt>
      <trkpt lat="46.86789" lon="8.50703">
        <ele>1510</ele>
        <time>2021-08-11T10:28:36.278Z</time>
      </trkpt>
      <trkpt lat="46.86788" lon="8.50703">
        <ele>1511</ele>
        <time>2021-08-11T10:28:37.278Z</time>
      </trkpt>
      <trkpt lat="46.86788" lon="8.50702">
        <ele>1510</ele>
        <time>2021-08-11T10:28:38.278Z</time>
      </trkpt>
      <trkpt lat="46.86787" lon="8.50701">
        <ele>1510</ele>
        <time>2021-08-11T10:28:39.277Z</time>
      </trkpt>
      <trkpt lat="46.86787" lon="8.50701">
        <ele>1510</ele>
        <time>2021-08-11T10:28:40.278Z</time>
      </trkpt>
      <trkpt lat="46.86786" lon="8.50701">
        <ele>1509</ele>
        <time>2021-08-11T10:28:41.278Z</time>
      </trkpt>
      <trkpt lat="46.86785" lon="8.507">
        <ele>1508</ele>
        <time>2021-08-11T10:28:42.277Z</time>
      </trkpt>
      <trkpt lat="46.86785" lon="8.50699">
        <ele>1508</ele>
        <time>2021-08-11T10:28:43.278Z</time>
      </trkpt>
      <trkpt lat="46.86784" lon="8.50698">
        <ele>1507</ele>
        <time>2021-08-11T10:28:44.278Z</time>
      </trkpt>
      <trkpt lat="46.86784" lon="8.50698">
        <ele>1506</ele>
        <time>2021-08-11T10:28:45.277Z</time>
      </trkpt>
      <trkpt lat="46.86783" lon="8.50698">
        <ele>1506</ele>
        <time>2021-08-11T10:28:46.278Z</time>
      </trkpt>
      <trkpt lat="46.86783" lon="8.50698">
        <ele>1505</ele>
        <time>2021-08-11T10:28:47.278Z</time>
      </trkpt>
      <trkpt lat="46.86782" lon="8.50697">
        <ele>1505</ele>
        <time>2021-08-11T10:28:48.277Z</time>
      </trkpt>
      <trkpt lat="46.86782" lon="8.50697">
        <ele>1504</ele>
        <time>2021-08-11T10:28:49.277Z</time>
      </trkpt>
      <trkpt lat="46.86781" lon="8.50697">
        <ele>1503</ele>
        <time>2021-08-11T10:28:50.278Z</time>
      </trkpt>
      <trkpt lat="46.8678" lon="8.50697">
        <ele>1503</ele>
        <time>2021-08-11T10:28:51.277Z</time>
      </trkpt>
      <trkpt lat="46.8678" lon="8.50697">
        <ele>1503</ele>
        <time>2021-08-11T10:28:52.278Z</time>
      </trkpt>
      <trkpt lat="46.86779" lon="8.50698">
        <ele>1503</ele>
        <time>2021-08-11T10:28:53.278Z</time>
      </trkpt>
      <trkpt lat="46.86779" lon="8.50698">
        <ele>1503</ele>
        <time>2021-08-11T10:28:54.277Z</time>
      </trkpt>
      <trkpt lat="46.86779" lon="8.50697">
        <ele>1504</ele>
        <time>2021-08-11T10:28:55.278Z</time>
      </trkpt>
      <trkpt lat="46.86778" lon="8.50697">
        <ele>1505</ele>
        <time>2021-08-11T10:28:56.278Z</time>
      </trkpt>
      <trkpt lat="46.86778" lon="8.50696">
        <ele>1506</ele>
        <time>2021-08-11T10:28:57.277Z</time>
      </trkpt>
      <trkpt lat="46.86779" lon="8.50695">
        <ele>1507</ele>
        <time>2021-08-11T10:28:58.278Z</time>
      </trkpt>
      <trkpt lat="46.86779" lon="8.50694">
        <ele>1508</ele>
        <time>2021-08-11T10:28:59.278Z</time>
      </trkpt>
      <trkpt lat="46.86779" lon="8.50695">
        <ele>1509</ele>
        <time>2021-08-11T10:29:00.278Z</time>
      </trkpt>
      <trkpt lat="46.86779" lon="8.50696">
        <ele>1510</ele>
        <time>2021-08-11T10:29:01.278Z</time>
      </trkpt>
      <trkpt lat="46.8678" lon="8.50697">
        <ele>1511</ele>
        <time>2021-08-11T10:29:02.278Z</time>
      </trkpt>
      <trkpt lat="46.86781" lon="8.50697">
        <ele>1513</ele>
        <time>2021-08-11T10:29:03.277Z</time>
      </trkpt>
      <trkpt lat="46.86781" lon="8.50696">
        <ele>1514</ele>
        <time>2021-08-11T10:29:04.278Z</time>
      </trkpt>
      <trkpt lat="46.86781" lon="8.50696">
        <ele>1514</ele>
        <time>2021-08-11T10:29:05.278Z</time>
      </trkpt>
      <trkpt lat="46.86782" lon="8.50695">
        <ele>1515</ele>
        <time>2021-08-11T10:29:06.278Z</time>
      </trkpt>
      <trkpt lat="46.86782" lon="8.50695">
        <ele>1515</ele>
        <time>2021-08-11T10:29:07.278Z</time>
      </trkpt>
      <trkpt lat="46.86782" lon="8.50694">
        <ele>1515</ele>
        <time>2021-08-11T10:29:08.278Z</time>
      </trkpt>
      <trkpt lat="46.86783" lon="8.50694">
        <ele>1515</ele>
        <time>2021-08-11T10:29:09.278Z</time>
      </trkpt>
      <trkpt lat="46.86783" lon="8.50694">
        <ele>1514</ele>
        <time>2021-08-11T10:29:10.278Z</time>
      </trkpt>
      <trkpt lat="46.86784" lon="8.50693">
        <ele>1514</ele>
        <time>2021-08-11T10:29:11.278Z</time>
      </trkpt>
      <trkpt lat="46.86784" lon="8.50693">
        <ele>1514</ele>
        <time>2021-08-11T10:29:12.277Z</time>
      </trkpt>
      <trkpt lat="46.86785" lon="8.50694">
        <ele>1515</ele>
        <time>2021-08-11T10:29:13.277Z</time>
      </trkpt>
      <trkpt lat="46.86785" lon="8.50694">
        <ele>1515</ele>
        <time>2021-08-11T10:29:14.277Z</time>
      </trkpt>
      <trkpt lat="46.86786" lon="8.50693">
        <ele>1515</ele>
        <time>2021-08-11T10:29:15.277Z</time>
      </trkpt>
      <trkpt lat="46.86786" lon="8.50693">
        <ele>1515</ele>
        <time>2021-08-11T10:29:16.277Z</time>
      </trkpt>
      <trkpt lat="46.86787" lon="8.50693">
        <ele>1515</ele>
        <time>2021-08-11T10:29:17.278Z</time>
      </trkpt>
      <trkpt lat="46.86787" lon="8.50693">
        <ele>1515</ele>
        <time>2021-08-11T10:29:18.278Z</time>
      </trkpt>
      <trkpt lat="46.86788" lon="8.50692">
        <ele>1515</ele>
        <time>2021-08-11T10:29:19.278Z</time>
      </trkpt>
      <trkpt lat="46.86788" lon="8.50691">
        <ele>1515</ele>
        <time>2021-08-11T10:29:20.278Z</time>
      </trkpt>
      <trkpt lat="46.86788" lon="8.50691">
        <ele>1515</ele>
        <time>2021-08-11T10:29:21.278Z</time>
      </trkpt>
      <trkpt lat="46.86789" lon="8.5069">
        <ele>1515</ele>
        <time>2021-08-11T10:29:22.278Z</time>
      </trkpt>
      <trkpt lat="46.8679" lon="8.5069">
        <ele>1515</ele>
        <time>2021-08-11T10:29:23.278Z</time>
      </trkpt>
      <trkpt lat="46.8679" lon="8.50689">
        <ele>1514</ele>
        <time>2021-08-11T10:29:24.278Z</time>
      </trkpt>
      <trkpt lat="46.86791" lon="8.50688">
        <ele>1514</ele>
        <time>2021-08-11T10:29:25.278Z</time>
      </trkpt>
      <trkpt lat="46.86792" lon="8.50688">
        <ele>1514</ele>
        <time>2021-08-11T10:29:26.277Z</time>
      </trkpt>
      <trkpt lat="46.86792" lon="8.50688">
        <ele>1514</ele>
        <time>2021-08-11T10:29:27.277Z</time>
      </trkpt>
      <trkpt lat="46.86793" lon="8.50687">
        <ele>1514</ele>
        <time>2021-08-11T10:29:28.278Z</time>
      </trkpt>
      <trkpt lat="46.86794" lon="8.50686">
        <ele>1514</ele>
        <time>2021-08-11T10:29:29.277Z</time>
      </trkpt>
      <trkpt lat="46.86795" lon="8.50685">
        <ele>1514</ele>
        <time>2021-08-11T10:29:30.278Z</time>
      </trkpt>
      <trkpt lat="46.86795" lon="8.50685">
        <ele>1513</ele>
        <time>2021-08-11T10:29:31.278Z</time>
      </trkpt>
      <trkpt lat="46.86796" lon="8.50684">
        <ele>1513</ele>
        <time>2021-08-11T10:29:32.277Z</time>
      </trkpt>
      <trkpt lat="46.86797" lon="8.50683">
        <ele>1513</ele>
        <time>2021-08-11T10:29:33.278Z</time>
      </trkpt>
      <trkpt lat="46.86797" lon="8.50683">
        <ele>1513</ele>
        <time>2021-08-11T10:29:34.278Z</time>
      </trkpt>
      <trkpt lat="46.86798" lon="8.50682">
        <ele>1514</ele>
        <time>2021-08-11T10:29:35.277Z</time>
      </trkpt>
      <trkpt lat="46.86798" lon="8.50681">
        <ele>1515</ele>
        <time>2021-08-11T10:29:36.278Z</time>
      </trkpt>
      <trkpt lat="46.86798" lon="8.5068">
        <ele>1516</ele>
        <time>2021-08-11T10:29:37.278Z</time>
      </trkpt>
      <trkpt lat="46.86799" lon="8.5068">
        <ele>1516</ele>
        <time>2021-08-11T10:29:38.277Z</time>
      </trkpt>
      <trkpt lat="46.86799" lon="8.5068">
        <ele>1517</ele>
        <time>2021-08-11T10:29:39.278Z</time>
      </trkpt>
      <trkpt lat="46.868" lon="8.50679">
        <ele>1517</ele>
        <time>2021-08-11T10:29:40.278Z</time>
      </trkpt>
      <trkpt lat="46.868" lon="8.50678">
        <ele>1518</ele>
        <time>2021-08-11T10:29:41.277Z</time>
      </trkpt>
      <trkpt lat="46.86801" lon="8.50678">
        <ele>1519</ele>
        <time>2021-08-11T10:29:42.278Z</time>
      </trkpt>
      <trkpt lat="46.86801" lon="8.50678">
        <ele>1520</ele>
        <time>2021-08-11T10:29:43.278Z</time>
      </trkpt>
      <trkpt lat="46.86802" lon="8.50677">
        <ele>1521</ele>
        <time>2021-08-11T10:29:44.277Z</time>
      </trkpt>
      <trkpt lat="46.86802" lon="8.50677">
        <ele>1521</ele>
        <time>2021-08-11T10:29:45.278Z</time>
      </trkpt>
      <trkpt lat="46.86803" lon="8.50676">
        <ele>1522</ele>
        <time>2021-08-11T10:29:46.278Z</time>
      </trkpt>
      <trkpt lat="46.86803" lon="8.50676">
        <ele>1522</ele>
        <time>2021-08-11T10:29:47.277Z</time>
      </trkpt>
      <trkpt lat="46.86804" lon="8.50675">
        <ele>1523</ele>
        <time>2021-08-11T10:29:48.278Z</time>
      </trkpt>
      <trkpt lat="46.86804" lon="8.50674">
        <ele>1523</ele>
        <time>2021-08-11T10:29:49.278Z</time>
      </trkpt>
      <trkpt lat="46.86805" lon="8.50673">
        <ele>1523</ele>
        <time>2021-08-11T10:29:50.277Z</time>
      </trkpt>
      <trkpt lat="46.86805" lon="8.50673">
        <ele>1524</ele>
        <time>2021-08-11T10:29:51.278Z</time>
      </trkpt>
      <trkpt lat="46.86805" lon="8.50672">
        <ele>1524</ele>
        <time>2021-08-11T10:29:52.278Z</time>
      </trkpt>
      <trkpt lat="46.86806" lon="8.50671">
        <ele>1525</ele>
        <time>2021-08-11T10:29:53.277Z</time>
      </trkpt>
      <trkpt lat="46.86806" lon="8.50671">
        <ele>1525</ele>
        <time>2021-08-11T10:29:54.278Z</time>
      </trkpt>
      <trkpt lat="46.86806" lon="8.5067">
        <ele>1526</ele>
        <time>2021-08-11T10:29:55.278Z</time>
      </trkpt>
      <trkpt lat="46.86807" lon="8.50669">
        <ele>1526</ele>
        <time>2021-08-11T10:29:56.277Z</time>
      </trkpt>
      <trkpt lat="46.86807" lon="8.50669">
        <ele>1527</ele>
        <time>2021-08-11T10:29:57.278Z</time>
      </trkpt>
      <trkpt lat="46.86808" lon="8.50668">
        <ele>1527</ele>
        <time>2021-08-11T10:29:58.278Z</time>
      </trkpt>
      <trkpt lat="46.86809" lon="8.50667">
        <ele>1528</ele>
        <time>2021-08-11T10:29:59.277Z</time>
      </trkpt>
      <trkpt lat="46.86809" lon="8.50667">
        <ele>1528</ele>
        <time>2021-08-11T10:30:00.278Z</time>
      </trkpt>
      <trkpt lat="46.86809" lon="8.50666">
        <ele>1528</ele>
        <time>2021-08-11T10:30:01.278Z</time>
      </trkpt>
      <trkpt lat="46.8681" lon="8.50666">
        <ele>1528</ele>
        <time>2021-08-11T10:30:02.277Z</time>
      </trkpt>
      <trkpt lat="46.86811" lon="8.50665">
        <ele>1528</ele>
        <time>2021-08-11T10:30:03.277Z</time>
      </trkpt>
      <trkpt lat="46.86812" lon="8.50665">
        <ele>1528</ele>
        <time>2021-08-11T10:30:04.278Z</time>
      </trkpt>
      <trkpt lat="46.86812" lon="8.50664">
        <ele>1528</ele>
        <time>2021-08-11T10:30:05.277Z</time>
      </trkpt>
      <trkpt lat="46.86813" lon="8.50663">
        <ele>1528</ele>
        <time>2021-08-11T10:30:06.278Z</time>
      </trkpt>
      <trkpt lat="46.86813" lon="8.50662">
        <ele>1528</ele>
        <time>2021-08-11T10:30:07.278Z</time>
      </trkpt>
      <trkpt lat="46.86813" lon="8.50661">
        <ele>1528</ele>
        <time>2021-08-11T10:30:08.277Z</time>
      </trkpt>
      <trkpt lat="46.86813" lon="8.5066">
        <ele>1527</ele>
        <time>2021-08-11T10:30:09.278Z</time>
      </trkpt>
      <trkpt lat="46.86813" lon="8.50659">
        <ele>1527</ele>
        <time>2021-08-11T10:30:10.277Z</time>
      </trkpt>
      <trkpt lat="46.86813" lon="8.50659">
        <ele>1528</ele>
        <time>2021-08-11T10:30:11.277Z</time>
      </trkpt>
      <trkpt lat="46.86814" lon="8.50659">
        <ele>1528</ele>
        <time>2021-08-11T10:30:12.278Z</time>
      </trkpt>
      <trkpt lat="46.86814" lon="8.50658">
        <ele>1528</ele>
        <time>2021-08-11T10:30:13.278Z</time>
      </trkpt>
      <trkpt lat="46.86815" lon="8.50657">
        <ele>1528</ele>
        <time>2021-08-11T10:30:14.278Z</time>
      </trkpt>
      <trkpt lat="46.86815" lon="8.50657">
        <ele>1528</ele>
        <time>2021-08-11T10:30:15.277Z</time>
      </trkpt>
      <trkpt lat="46.86815" lon="8.50656">
        <ele>1528</ele>
        <time>2021-08-11T10:30:16.278Z</time>
      </trkpt>
      <trkpt lat="46.86815" lon="8.50656">
        <ele>1528</ele>
        <time>2021-08-11T10:30:17.277Z</time>
      </trkpt>
      <trkpt lat="46.86816" lon="8.50655">
        <ele>1529</ele>
        <time>2021-08-11T10:30:18.278Z</time>
      </trkpt>
      <trkpt lat="46.86816" lon="8.50654">
        <ele>1529</ele>
        <time>2021-08-11T10:30:19.278Z</time>
      </trkpt>
      <trkpt lat="46.86817" lon="8.50653">
        <ele>1529</ele>
        <time>2021-08-11T10:30:20.278Z</time>
      </trkpt>
      <trkpt lat="46.86817" lon="8.50652">
        <ele>1529</ele>
        <time>2021-08-11T10:30:21.278Z</time>
      </trkpt>
      <trkpt lat="46.86818" lon="8.50652">
        <ele>1530</ele>
        <time>2021-08-11T10:30:22.278Z</time>
      </trkpt>
      <trkpt lat="46.86819" lon="8.50651">
        <ele>1530</ele>
        <time>2021-08-11T10:30:23.277Z</time>
      </trkpt>
      <trkpt lat="46.86819" lon="8.5065">
        <ele>1530</ele>
        <time>2021-08-11T10:30:24.278Z</time>
      </trkpt>
      <trkpt lat="46.86819" lon="8.50649">
        <ele>1530</ele>
        <time>2021-08-11T10:30:25.278Z</time>
      </trkpt>
      <trkpt lat="46.86819" lon="8.50648">
        <ele>1530</ele>
        <time>2021-08-11T10:30:26.278Z</time>
      </trkpt>
      <trkpt lat="46.8682" lon="8.50648">
        <ele>1529</ele>
        <time>2021-08-11T10:30:27.278Z</time>
      </trkpt>
      <trkpt lat="46.86821" lon="8.50647">
        <ele>1529</ele>
        <time>2021-08-11T10:30:28.278Z</time>
      </trkpt>
      <trkpt lat="46.86821" lon="8.50646">
        <ele>1530</ele>
        <time>2021-08-11T10:30:29.278Z</time>
      </trkpt>
      <trkpt lat="46.86822" lon="8.50646">
        <ele>1530</ele>
        <time>2021-08-11T10:30:30.277Z</time>
      </trkpt>
      <trkpt lat="46.86823" lon="8.50645">
        <ele>1530</ele>
        <time>2021-08-11T10:30:31.278Z</time>
      </trkpt>
      <trkpt lat="46.86824" lon="8.50644">
        <ele>1531</ele>
        <time>2021-08-11T10:30:32.278Z</time>
      </trkpt>
      <trkpt lat="46.86824" lon="8.50643">
        <ele>1531</ele>
        <time>2021-08-11T10:30:33.278Z</time>
      </trkpt>
      <trkpt lat="46.86825" lon="8.50642">
        <ele>1531</ele>
        <time>2021-08-11T10:30:34.277Z</time>
      </trkpt>
      <trkpt lat="46.86826" lon="8.50641">
        <ele>1532</ele>
        <time>2021-08-11T10:30:35.278Z</time>
      </trkpt>
      <trkpt lat="46.86826" lon="8.50641">
        <ele>1533</ele>
        <time>2021-08-11T10:30:36.278Z</time>
      </trkpt>
      <trkpt lat="46.86827" lon="8.5064">
        <ele>1533</ele>
        <time>2021-08-11T10:30:37.278Z</time>
      </trkpt>
      <trkpt lat="46.86827" lon="8.50639">
        <ele>1533</ele>
        <time>2021-08-11T10:30:38.278Z</time>
      </trkpt>
      <trkpt lat="46.86827" lon="8.50638">
        <ele>1532</ele>
        <time>2021-08-11T10:30:39.277Z</time>
      </trkpt>
      <trkpt lat="46.86828" lon="8.50637">
        <ele>1532</ele>
        <time>2021-08-11T10:30:40.278Z</time>
      </trkpt>
      <trkpt lat="46.86828" lon="8.50636">
        <ele>1532</ele>
        <time>2021-08-11T10:30:41.278Z</time>
      </trkpt>
      <trkpt lat="46.86828" lon="8.50635">
        <ele>1531</ele>
        <time>2021-08-11T10:30:42.278Z</time>
      </trkpt>
      <trkpt lat="46.86828" lon="8.50634">
        <ele>1531</ele>
        <time>2021-08-11T10:30:43.277Z</time>
      </trkpt>
      <trkpt lat="46.86829" lon="8.50634">
        <ele>1531</ele>
        <time>2021-08-11T10:30:44.278Z</time>
      </trkpt>
      <trkpt lat="46.8683" lon="8.50632">
        <ele>1531</ele>
        <time>2021-08-11T10:30:45.278Z</time>
      </trkpt>
      <trkpt lat="46.8683" lon="8.50631">
        <ele>1531</ele>
        <time>2021-08-11T10:30:46.278Z</time>
      </trkpt>
      <trkpt lat="46.86831" lon="8.50631">
        <ele>1531</ele>
        <time>2021-08-11T10:30:47.277Z</time>
      </trkpt>
      <trkpt lat="46.86832" lon="8.5063">
        <ele>1532</ele>
        <time>2021-08-11T10:30:48.278Z</time>
      </trkpt>
      <trkpt lat="46.86832" lon="8.50628">
        <ele>1532</ele>
        <time>2021-08-11T10:30:49.278Z</time>
      </trkpt>
      <trkpt lat="46.86833" lon="8.50627">
        <ele>1532</ele>
        <time>2021-08-11T10:30:50.278Z</time>
      </trkpt>
      <trkpt lat="46.86833" lon="8.50626">
        <ele>1531</ele>
        <time>2021-08-11T10:30:51.278Z</time>
      </trkpt>
      <trkpt lat="46.86833" lon="8.50625">
        <ele>1531</ele>
        <time>2021-08-11T10:30:52.277Z</time>
      </trkpt>
      <trkpt lat="46.86834" lon="8.50624">
        <ele>1531</ele>
        <time>2021-08-11T10:30:53.278Z</time>
      </trkpt>
      <trkpt lat="46.86834" lon="8.50623">
        <ele>1531</ele>
        <time>2021-08-11T10:30:54.278Z</time>
      </trkpt>
      <trkpt lat="46.86835" lon="8.50622">
        <ele>1531</ele>
        <time>2021-08-11T10:30:55.278Z</time>
      </trkpt>
      <trkpt lat="46.86835" lon="8.50622">
        <ele>1531</ele>
        <time>2021-08-11T10:30:56.278Z</time>
      </trkpt>
      <trkpt lat="46.86836" lon="8.50621">
        <ele>1531</ele>
        <time>2021-08-11T10:30:57.277Z</time>
      </trkpt>
      <trkpt lat="46.86837" lon="8.50621">
        <ele>1532</ele>
        <time>2021-08-11T10:30:58.277Z</time>
      </trkpt>
      <trkpt lat="46.86836" lon="8.50621">
        <ele>1532</ele>
        <time>2021-08-11T10:30:59.277Z</time>
      </trkpt>
      <trkpt lat="46.86837" lon="8.5062">
        <ele>1533</ele>
        <time>2021-08-11T10:31:00.278Z</time>
      </trkpt>
      <trkpt lat="46.86838" lon="8.5062">
        <ele>1533</ele>
        <time>2021-08-11T10:31:01.278Z</time>
      </trkpt>
      <trkpt lat="46.86838" lon="8.50619">
        <ele>1533</ele>
        <time>2021-08-11T10:31:02.277Z</time>
      </trkpt>
      <trkpt lat="46.86839" lon="8.50618">
        <ele>1533</ele>
        <time>2021-08-11T10:31:03.278Z</time>
      </trkpt>
      <trkpt lat="46.86839" lon="8.50618">
        <ele>1533</ele>
        <time>2021-08-11T10:31:04.278Z</time>
      </trkpt>
      <trkpt lat="46.8684" lon="8.50617">
        <ele>1534</ele>
        <time>2021-08-11T10:31:05.278Z</time>
      </trkpt>
      <trkpt lat="46.86841" lon="8.50617">
        <ele>1534</ele>
        <time>2021-08-11T10:31:06.278Z</time>
      </trkpt>
      <trkpt lat="46.86842" lon="8.50617">
        <ele>1534</ele>
        <time>2021-08-11T10:31:07.277Z</time>
      </trkpt>
      <trkpt lat="46.86842" lon="8.50616">
        <ele>1534</ele>
        <time>2021-08-11T10:31:08.277Z</time>
      </trkpt>
      <trkpt lat="46.86843" lon="8.50616">
        <ele>1534</ele>
        <time>2021-08-11T10:31:09.277Z</time>
      </trkpt>
      <trkpt lat="46.86844" lon="8.50616">
        <ele>1534</ele>
        <time>2021-08-11T10:31:10.278Z</time>
      </trkpt>
      <trkpt lat="46.86844" lon="8.50615">
        <ele>1534</ele>
        <time>2021-08-11T10:31:11.278Z</time>
      </trkpt>
      <trkpt lat="46.86844" lon="8.50614">
        <ele>1534</ele>
        <time>2021-08-11T10:31:12.278Z</time>
      </trkpt>
      <trkpt lat="46.86845" lon="8.50614">
        <ele>1533</ele>
        <time>2021-08-11T10:31:13.277Z</time>
      </trkpt>
      <trkpt lat="46.86845" lon="8.50614">
        <ele>1533</ele>
        <time>2021-08-11T10:31:14.278Z</time>
      </trkpt>
      <trkpt lat="46.86846" lon="8.50614">
        <ele>1533</ele>
        <time>2021-08-11T10:31:15.278Z</time>
      </trkpt>
      <trkpt lat="46.86847" lon="8.50615">
        <ele>1532</ele>
        <time>2021-08-11T10:31:16.278Z</time>
      </trkpt>
      <trkpt lat="46.86847" lon="8.50615">
        <ele>1532</ele>
        <time>2021-08-11T10:31:17.278Z</time>
      </trkpt>
      <trkpt lat="46.86848" lon="8.50614">
        <ele>1532</ele>
        <time>2021-08-11T10:31:18.278Z</time>
      </trkpt>
      <trkpt lat="46.86849" lon="8.50614">
        <ele>1532</ele>
        <time>2021-08-11T10:31:19.277Z</time>
      </trkpt>
      <trkpt lat="46.8685" lon="8.50613">
        <ele>1532</ele>
        <time>2021-08-11T10:31:20.278Z</time>
      </trkpt>
      <trkpt lat="46.86851" lon="8.50613">
        <ele>1532</ele>
        <time>2021-08-11T10:31:21.278Z</time>
      </trkpt>
      <trkpt lat="46.86851" lon="8.50612">
        <ele>1532</ele>
        <time>2021-08-11T10:31:22.278Z</time>
      </trkpt>
      <trkpt lat="46.86852" lon="8.50613">
        <ele>1533</ele>
        <time>2021-08-11T10:31:23.277Z</time>
      </trkpt>
      <trkpt lat="46.86853" lon="8.50612">
        <ele>1533</ele>
        <time>2021-08-11T10:31:24.277Z</time>
      </trkpt>
      <trkpt lat="46.86854" lon="8.50612">
        <ele>1534</ele>
        <time>2021-08-11T10:31:25.278Z</time>
      </trkpt>
      <trkpt lat="46.86855" lon="8.50612">
        <ele>1534</ele>
        <time>2021-08-11T10:31:26.278Z</time>
      </trkpt>
      <trkpt lat="46.86856" lon="8.50612">
        <ele>1534</ele>
        <time>2021-08-11T10:31:27.278Z</time>
      </trkpt>
      <trkpt lat="46.86857" lon="8.50612">
        <ele>1534</ele>
        <time>2021-08-11T10:31:28.277Z</time>
      </trkpt>
      <trkpt lat="46.86857" lon="8.50612">
        <ele>1534</ele>
        <time>2021-08-11T10:31:29.278Z</time>
      </trkpt>
      <trkpt lat="46.86858" lon="8.50612">
        <ele>1535</ele>
        <time>2021-08-11T10:31:30.277Z</time>
      </trkpt>
      <trkpt lat="46.86859" lon="8.50612">
        <ele>1535</ele>
        <time>2021-08-11T10:31:31.278Z</time>
      </trkpt>
      <trkpt lat="46.86859" lon="8.50612">
        <ele>1535</ele>
        <time>2021-08-11T10:31:32.278Z</time>
      </trkpt>
      <trkpt lat="46.86859" lon="8.50612">
        <ele>1535</ele>
        <time>2021-08-11T10:31:33.278Z</time>
      </trkpt>
      <trkpt lat="46.8686" lon="8.50612">
        <ele>1535</ele>
        <time>2021-08-11T10:31:34.277Z</time>
      </trkpt>
      <trkpt lat="46.8686" lon="8.50612">
        <ele>1536</ele>
        <time>2021-08-11T10:31:35.277Z</time>
      </trkpt>
      <trkpt lat="46.8686" lon="8.50613">
        <ele>1536</ele>
        <time>2021-08-11T10:31:36.277Z</time>
      </trkpt>
      <trkpt lat="46.86861" lon="8.50613">
        <ele>1536</ele>
        <time>2021-08-11T10:31:44.398Z</time>
      </trkpt>
      <trkpt lat="46.86861" lon="8.50615">
        <ele>1537</ele>
        <time>2021-08-11T10:31:45.398Z</time>
      </trkpt>
      <trkpt lat="46.86862" lon="8.50615">
        <ele>1537</ele>
        <time>2021-08-11T10:31:46.399Z</time>
      </trkpt>
      <trkpt lat="46.86863" lon="8.50614">
        <ele>1538</ele>
        <time>2021-08-11T10:31:59.377Z</time>
      </trkpt>
      <trkpt lat="46.86864" lon="8.50613">
        <ele>1539</ele>
        <time>2021-08-11T10:32:01.135Z</time>
      </trkpt>
      <trkpt lat="46.86865" lon="8.50613">
        <ele>1539</ele>
        <time>2021-08-11T10:32:02.135Z</time>
      </trkpt>
      <trkpt lat="46.86866" lon="8.50613">
        <ele>1540</ele>
        <time>2021-08-11T10:32:03.135Z</time>
      </trkpt>
      <trkpt lat="46.86867" lon="8.50613">
        <ele>1540</ele>
        <time>2021-08-11T10:33:12.258Z</time>
      </trkpt>
      <trkpt lat="46.86868" lon="8.50613">
        <ele>1540</ele>
        <time>2021-08-11T10:33:13.258Z</time>
      </trkpt>
      <trkpt lat="46.86868" lon="8.50614">
        <ele>1540</ele>
        <time>2021-08-11T10:33:14.258Z</time>
      </trkpt>
      <trkpt lat="46.86869" lon="8.50614">
        <ele>1540</ele>
        <time>2021-08-11T10:33:15.258Z</time>
      </trkpt>
      <trkpt lat="46.8687" lon="8.50614">
        <ele>1541</ele>
        <time>2021-08-11T10:33:32.382Z</time>
      </trkpt>
      <trkpt lat="46.8687" lon="8.50614">
        <ele>1541</ele>
        <time>2021-08-11T10:33:42.152Z</time>
      </trkpt>
      <trkpt lat="46.86871" lon="8.50614">
        <ele>1541</ele>
        <time>2021-08-11T10:33:43.152Z</time>
      </trkpt>
      <trkpt lat="46.86871" lon="8.50615">
        <ele>1540</ele>
        <time>2021-08-11T10:33:44.152Z</time>
      </trkpt>
      <trkpt lat="46.86872" lon="8.50615">
        <ele>1540</ele>
        <time>2021-08-11T10:34:34.283Z</time>
      </trkpt>
      <trkpt lat="46.86872" lon="8.50616">
        <ele>1540</ele>
        <time>2021-08-11T10:34:35.282Z</time>
      </trkpt>
      <trkpt lat="46.86873" lon="8.50616">
        <ele>1540</ele>
        <time>2021-08-11T10:34:37.123Z</time>
      </trkpt>
      <trkpt lat="46.86873" lon="8.50617">
        <ele>1541</ele>
        <time>2021-08-11T10:34:38.123Z</time>
      </trkpt>
      <trkpt lat="46.86874" lon="8.50617">
        <ele>1541</ele>
        <time>2021-08-11T10:34:39.123Z</time>
      </trkpt>
      <trkpt lat="46.86875" lon="8.50617">
        <ele>1541</ele>
        <time>2021-08-11T10:34:40.123Z</time>
      </trkpt>
      <trkpt lat="46.86875" lon="8.50617">
        <ele>1541</ele>
        <time>2021-08-11T10:34:41.123Z</time>
      </trkpt>
      <trkpt lat="46.86876" lon="8.50617">
        <ele>1541</ele>
        <time>2021-08-11T10:35:01.158Z</time>
      </trkpt>
      <trkpt lat="46.86876" lon="8.50617">
        <ele>1541</ele>
        <time>2021-08-11T10:35:02.157Z</time>
      </trkpt>
      <trkpt lat="46.86876" lon="8.50617">
        <ele>1541</ele>
        <time>2021-08-11T10:35:03.158Z</time>
      </trkpt>
      <trkpt lat="46.86877" lon="8.50616">
        <ele>1542</ele>
        <time>2021-08-11T10:35:04.157Z</time>
      </trkpt>
      <trkpt lat="46.86878" lon="8.50616">
        <ele>1541</ele>
        <time>2021-08-11T10:35:05.158Z</time>
      </trkpt>
      <trkpt lat="46.86879" lon="8.50616">
        <ele>1541</ele>
        <time>2021-08-11T10:35:13.282Z</time>
      </trkpt>
      <trkpt lat="46.86879" lon="8.50615">
        <ele>1541</ele>
        <time>2021-08-11T10:35:14.282Z</time>
      </trkpt>
      <trkpt lat="46.8688" lon="8.50615">
        <ele>1542</ele>
        <time>2021-08-11T10:35:15.281Z</time>
      </trkpt>
      <trkpt lat="46.8688" lon="8.50615">
        <ele>1542</ele>
        <time>2021-08-11T10:35:16.282Z</time>
      </trkpt>
      <trkpt lat="46.86881" lon="8.50615">
        <ele>1542</ele>
        <time>2021-08-11T10:35:17.282Z</time>
      </trkpt>
      <trkpt lat="46.86881" lon="8.50615">
        <ele>1542</ele>
        <time>2021-08-11T10:35:18.282Z</time>
      </trkpt>
      <trkpt lat="46.86882" lon="8.50615">
        <ele>1542</ele>
        <time>2021-08-11T10:35:19.282Z</time>
      </trkpt>
      <trkpt lat="46.86882" lon="8.50614">
        <ele>1542</ele>
        <time>2021-08-11T10:35:20.281Z</time>
      </trkpt>
      <trkpt lat="46.86883" lon="8.50614">
        <ele>1542</ele>
        <time>2021-08-11T10:35:21.281Z</time>
      </trkpt>
      <trkpt lat="46.86883" lon="8.50613">
        <ele>1541</ele>
        <time>2021-08-11T10:35:22.282Z</time>
      </trkpt>
      <trkpt lat="46.86884" lon="8.50613">
        <ele>1540</ele>
        <time>2021-08-11T10:36:07.404Z</time>
      </trkpt>
      <trkpt lat="46.86885" lon="8.50612">
        <ele>1540</ele>
        <time>2021-08-11T10:36:08.404Z</time>
      </trkpt>
      <trkpt lat="46.86885" lon="8.50611">
        <ele>1540</ele>
        <time>2021-08-11T10:36:09.404Z</time>
      </trkpt>
      <trkpt lat="46.86885" lon="8.50611">
        <ele>1540</ele>
        <time>2021-08-11T10:36:10.403Z</time>
      </trkpt>
      <trkpt lat="46.86885" lon="8.50611">
        <ele>1540</ele>
        <time>2021-08-11T10:36:11.403Z</time>
      </trkpt>
      <trkpt lat="46.86886" lon="8.50612">
        <ele>1540</ele>
        <time>2021-08-11T10:36:12.403Z</time>
      </trkpt>
      <trkpt lat="46.86886" lon="8.50612">
        <ele>1541</ele>
        <time>2021-08-11T10:36:13.404Z</time>
      </trkpt>
      <trkpt lat="46.86887" lon="8.50612">
        <ele>1542</ele>
        <time>2021-08-11T10:36:14.404Z</time>
      </trkpt>
      <trkpt lat="46.86887" lon="8.50612">
        <ele>1542</ele>
        <time>2021-08-11T10:36:15.403Z</time>
      </trkpt>
      <trkpt lat="46.86888" lon="8.50611">
        <ele>1543</ele>
        <time>2021-08-11T10:36:16.403Z</time>
      </trkpt>
      <trkpt lat="46.86889" lon="8.50611">
        <ele>1544</ele>
        <time>2021-08-11T10:36:17.404Z</time>
      </trkpt>
      <trkpt lat="46.8689" lon="8.50611">
        <ele>1544</ele>
        <time>2021-08-11T10:36:18.404Z</time>
      </trkpt>
      <trkpt lat="46.86891" lon="8.50611">
        <ele>1545</ele>
        <time>2021-08-11T10:36:19.404Z</time>
      </trkpt>
      <trkpt lat="46.86892" lon="8.50611">
        <ele>1545</ele>
        <time>2021-08-11T10:36:20.404Z</time>
      </trkpt>
      <trkpt lat="46.86892" lon="8.5061">
        <ele>1546</ele>
        <time>2021-08-11T10:36:21.404Z</time>
      </trkpt>
      <trkpt lat="46.86893" lon="8.5061">
        <ele>1546</ele>
        <time>2021-08-11T10:36:22.404Z</time>
      </trkpt>
      <trkpt lat="46.86894" lon="8.50609">
        <ele>1546</ele>
        <time>2021-08-11T10:36:23.404Z</time>
      </trkpt>
      <trkpt lat="46.86894" lon="8.50609">
        <ele>1547</ele>
        <time>2021-08-11T10:36:24.403Z</time>
      </trkpt>
      <trkpt lat="46.86895" lon="8.50608">
        <ele>1547</ele>
        <time>2021-08-11T10:36:25.404Z</time>
      </trkpt>
      <trkpt lat="46.86895" lon="8.50608">
        <ele>1547</ele>
        <time>2021-08-11T10:36:26.403Z</time>
      </trkpt>
      <trkpt lat="46.86896" lon="8.50608">
        <ele>1547</ele>
        <time>2021-08-11T10:36:27.404Z</time>
      </trkpt>
      <trkpt lat="46.86897" lon="8.50607">
        <ele>1547</ele>
        <time>2021-08-11T10:36:28.404Z</time>
      </trkpt>
      <trkpt lat="46.86898" lon="8.50606">
        <ele>1546</ele>
        <time>2021-08-11T10:36:29.404Z</time>
      </trkpt>
      <trkpt lat="46.86898" lon="8.50606">
        <ele>1546</ele>
        <time>2021-08-11T10:36:30.404Z</time>
      </trkpt>
      <trkpt lat="46.86898" lon="8.50605">
        <ele>1545</ele>
        <time>2021-08-11T10:36:31.403Z</time>
      </trkpt>
      <trkpt lat="46.86899" lon="8.50605">
        <ele>1544</ele>
        <time>2021-08-11T10:36:32.403Z</time>
      </trkpt>
      <trkpt lat="46.869" lon="8.50604">
        <ele>1544</ele>
        <time>2021-08-11T10:36:33.404Z</time>
      </trkpt>
      <trkpt lat="46.869" lon="8.50603">
        <ele>1544</ele>
        <time>2021-08-11T10:36:34.404Z</time>
      </trkpt>
      <trkpt lat="46.86901" lon="8.50603">
        <ele>1543</ele>
        <time>2021-08-11T10:36:35.404Z</time>
      </trkpt>
      <trkpt lat="46.86902" lon="8.50602">
        <ele>1543</ele>
        <time>2021-08-11T10:36:36.403Z</time>
      </trkpt>
      <trkpt lat="46.86903" lon="8.50602">
        <ele>1542</ele>
        <time>2021-08-11T10:36:37.404Z</time>
      </trkpt>
      <trkpt lat="46.86904" lon="8.50601">
        <ele>1542</ele>
        <time>2021-08-11T10:36:38.403Z</time>
      </trkpt>
      <trkpt lat="46.86905" lon="8.50601">
        <ele>1542</ele>
        <time>2021-08-11T10:36:39.403Z</time>
      </trkpt>
      <trkpt lat="46.86906" lon="8.506">
        <ele>1542</ele>
        <time>2021-08-11T10:36:40.403Z</time>
      </trkpt>
      <trkpt lat="46.86907" lon="8.506">
        <ele>1542</ele>
        <time>2021-08-11T10:36:41.404Z</time>
      </trkpt>
      <trkpt lat="46.86908" lon="8.50599">
        <ele>1543</ele>
        <time>2021-08-11T10:36:42.404Z</time>
      </trkpt>
      <trkpt lat="46.86909" lon="8.50598">
        <ele>1543</ele>
        <time>2021-08-11T10:36:43.404Z</time>
      </trkpt>
      <trkpt lat="46.86909" lon="8.50597">
        <ele>1543</ele>
        <time>2021-08-11T10:36:44.403Z</time>
      </trkpt>
      <trkpt lat="46.86909" lon="8.50596">
        <ele>1544</ele>
        <time>2021-08-11T10:36:45.404Z</time>
      </trkpt>
      <trkpt lat="46.8691" lon="8.50596">
        <ele>1544</ele>
        <time>2021-08-11T10:36:46.404Z</time>
      </trkpt>
      <trkpt lat="46.8691" lon="8.50595">
        <ele>1544</ele>
        <time>2021-08-11T10:36:47.403Z</time>
      </trkpt>
      <trkpt lat="46.86911" lon="8.50594">
        <ele>1545</ele>
        <time>2021-08-11T10:36:48.404Z</time>
      </trkpt>
      <trkpt lat="46.86912" lon="8.50594">
        <ele>1545</ele>
        <time>2021-08-11T10:36:49.403Z</time>
      </trkpt>
      <trkpt lat="46.86912" lon="8.50594">
        <ele>1545</ele>
        <time>2021-08-11T10:36:50.404Z</time>
      </trkpt>
      <trkpt lat="46.86913" lon="8.50593">
        <ele>1545</ele>
        <time>2021-08-11T10:36:51.404Z</time>
      </trkpt>
      <trkpt lat="46.86914" lon="8.50592">
        <ele>1545</ele>
        <time>2021-08-11T10:36:52.404Z</time>
      </trkpt>
      <trkpt lat="46.86914" lon="8.50592">
        <ele>1545</ele>
        <time>2021-08-11T10:36:53.404Z</time>
      </trkpt>
      <trkpt lat="46.86914" lon="8.50591">
        <ele>1546</ele>
        <time>2021-08-11T10:36:54.404Z</time>
      </trkpt>
      <trkpt lat="46.86915" lon="8.5059">
        <ele>1546</ele>
        <time>2021-08-11T10:36:55.404Z</time>
      </trkpt>
      <trkpt lat="46.86915" lon="8.5059">
        <ele>1546</ele>
        <time>2021-08-11T10:36:56.403Z</time>
      </trkpt>
      <trkpt lat="46.86915" lon="8.50589">
        <ele>1546</ele>
        <time>2021-08-11T10:36:57.403Z</time>
      </trkpt>
      <trkpt lat="46.86915" lon="8.50588">
        <ele>1546</ele>
        <time>2021-08-11T10:36:58.404Z</time>
      </trkpt>
      <trkpt lat="46.86917" lon="8.50587">
        <ele>1547</ele>
        <time>2021-08-11T10:36:59.404Z</time>
      </trkpt>
      <trkpt lat="46.86918" lon="8.50587">
        <ele>1547</ele>
        <time>2021-08-11T10:37:00.403Z</time>
      </trkpt>
      <trkpt lat="46.86919" lon="8.50586">
        <ele>1547</ele>
        <time>2021-08-11T10:37:01.404Z</time>
      </trkpt>
      <trkpt lat="46.8692" lon="8.50585">
        <ele>1547</ele>
        <time>2021-08-11T10:37:02.404Z</time>
      </trkpt>
      <trkpt lat="46.8692" lon="8.50585">
        <ele>1547</ele>
        <time>2021-08-11T10:37:03.404Z</time>
      </trkpt>
      <trkpt lat="46.86921" lon="8.50584">
        <ele>1547</ele>
        <time>2021-08-11T10:37:04.403Z</time>
      </trkpt>
      <trkpt lat="46.86922" lon="8.50583">
        <ele>1547</ele>
        <time>2021-08-11T10:37:05.404Z</time>
      </trkpt>
      <trkpt lat="46.86922" lon="8.50582">
        <ele>1547</ele>
        <time>2021-08-11T10:37:06.404Z</time>
      </trkpt>
      <trkpt lat="46.86924" lon="8.50582">
        <ele>1548</ele>
        <time>2021-08-11T10:37:07.404Z</time>
      </trkpt>
      <trkpt lat="46.86925" lon="8.50581">
        <ele>1548</ele>
        <time>2021-08-11T10:37:08.404Z</time>
      </trkpt>
      <trkpt lat="46.86926" lon="8.50581">
        <ele>1548</ele>
        <time>2021-08-11T10:37:09.403Z</time>
      </trkpt>
      <trkpt lat="46.86927" lon="8.5058">
        <ele>1548</ele>
        <time>2021-08-11T10:37:10.404Z</time>
      </trkpt>
      <trkpt lat="46.86927" lon="8.5058">
        <ele>1549</ele>
        <time>2021-08-11T10:37:11.404Z</time>
      </trkpt>
      <trkpt lat="46.86928" lon="8.5058">
        <ele>1549</ele>
        <time>2021-08-11T10:37:12.404Z</time>
      </trkpt>
      <trkpt lat="46.86929" lon="8.5058">
        <ele>1550</ele>
        <time>2021-08-11T10:37:13.403Z</time>
      </trkpt>
      <trkpt lat="46.86931" lon="8.50579">
        <ele>1550</ele>
        <time>2021-08-11T10:37:14.404Z</time>
      </trkpt>
      <trkpt lat="46.86932" lon="8.50579">
        <ele>1551</ele>
        <time>2021-08-11T10:37:15.404Z</time>
      </trkpt>
      <trkpt lat="46.86932" lon="8.50578">
        <ele>1551</ele>
        <time>2021-08-11T10:37:16.404Z</time>
      </trkpt>
      <trkpt lat="46.86933" lon="8.50577">
        <ele>1551</ele>
        <time>2021-08-11T10:37:17.404Z</time>
      </trkpt>
      <trkpt lat="46.86933" lon="8.50576">
        <ele>1551</ele>
        <time>2021-08-11T10:37:18.404Z</time>
      </trkpt>
      <trkpt lat="46.86934" lon="8.50575">
        <ele>1551</ele>
        <time>2021-08-11T10:37:19.404Z</time>
      </trkpt>
      <trkpt lat="46.86934" lon="8.50574">
        <ele>1551</ele>
        <time>2021-08-11T10:37:20.404Z</time>
      </trkpt>
      <trkpt lat="46.86934" lon="8.50573">
        <ele>1552</ele>
        <time>2021-08-11T10:37:21.404Z</time>
      </trkpt>
      <trkpt lat="46.86935" lon="8.50572">
        <ele>1552</ele>
        <time>2021-08-11T10:37:22.404Z</time>
      </trkpt>
      <trkpt lat="46.86936" lon="8.50571">
        <ele>1552</ele>
        <time>2021-08-11T10:37:23.403Z</time>
      </trkpt>
      <trkpt lat="46.86938" lon="8.50571">
        <ele>1553</ele>
        <time>2021-08-11T10:37:24.403Z</time>
      </trkpt>
      <trkpt lat="46.86939" lon="8.5057">
        <ele>1553</ele>
        <time>2021-08-11T10:37:25.404Z</time>
      </trkpt>
      <trkpt lat="46.8694" lon="8.50569">
        <ele>1554</ele>
        <time>2021-08-11T10:37:26.404Z</time>
      </trkpt>
      <trkpt lat="46.86941" lon="8.50569">
        <ele>1554</ele>
        <time>2021-08-11T10:37:27.404Z</time>
      </trkpt>
      <trkpt lat="46.86941" lon="8.50569">
        <ele>1554</ele>
        <time>2021-08-11T10:37:28.404Z</time>
      </trkpt>
      <trkpt lat="46.86942" lon="8.50568">
        <ele>1555</ele>
        <time>2021-08-11T10:37:29.403Z</time>
      </trkpt>
      <trkpt lat="46.86942" lon="8.5057">
        <ele>1555</ele>
        <time>2021-08-11T10:37:30.404Z</time>
      </trkpt>
      <trkpt lat="46.86943" lon="8.50571">
        <ele>1556</ele>
        <time>2021-08-11T10:37:31.404Z</time>
      </trkpt>
      <trkpt lat="46.86943" lon="8.50571">
        <ele>1556</ele>
        <time>2021-08-11T10:37:32.404Z</time>
      </trkpt>
      <trkpt lat="46.86943" lon="8.50571">
        <ele>1556</ele>
        <time>2021-08-11T10:37:33.404Z</time>
      </trkpt>
      <trkpt lat="46.86943" lon="8.50571">
        <ele>1556</ele>
        <time>2021-08-11T10:37:34.403Z</time>
      </trkpt>
      <trkpt lat="46.86943" lon="8.50572">
        <ele>1557</ele>
        <time>2021-08-11T10:37:35.404Z</time>
      </trkpt>
      <trkpt lat="46.86943" lon="8.50572">
        <ele>1557</ele>
        <time>2021-08-11T10:37:36.404Z</time>
      </trkpt>
      <trkpt lat="46.86943" lon="8.50572">
        <ele>1557</ele>
        <time>2021-08-11T10:37:37.404Z</time>
      </trkpt>
      <trkpt lat="46.86943" lon="8.50573">
        <ele>1558</ele>
        <time>2021-08-11T10:37:38.404Z</time>
      </trkpt>
      <trkpt lat="46.86944" lon="8.50573">
        <ele>1558</ele>
        <time>2021-08-11T10:37:39.403Z</time>
      </trkpt>
      <trkpt lat="46.86944" lon="8.50573">
        <ele>1558</ele>
        <time>2021-08-11T10:37:40.403Z</time>
      </trkpt>
      <trkpt lat="46.86945" lon="8.50574">
        <ele>1559</ele>
        <time>2021-08-11T10:37:41.404Z</time>
      </trkpt>
      <trkpt lat="46.86946" lon="8.50574">
        <ele>1559</ele>
        <time>2021-08-11T10:37:42.403Z</time>
      </trkpt>
      <trkpt lat="46.86947" lon="8.50574">
        <ele>1560</ele>
        <time>2021-08-11T10:37:43.404Z</time>
      </trkpt>
      <trkpt lat="46.86947" lon="8.50575">
        <ele>1560</ele>
        <time>2021-08-11T10:37:44.404Z</time>
      </trkpt>
      <trkpt lat="46.86947" lon="8.50575">
        <ele>1561</ele>
        <time>2021-08-11T10:37:45.404Z</time>
      </trkpt>
      <trkpt lat="46.86948" lon="8.50574">
        <ele>1561</ele>
        <time>2021-08-11T10:37:46.403Z</time>
      </trkpt>
      <trkpt lat="46.86949" lon="8.50573">
        <ele>1561</ele>
        <time>2021-08-11T10:37:47.404Z</time>
      </trkpt>
      <trkpt lat="46.86949" lon="8.50573">
        <ele>1561</ele>
        <time>2021-08-11T10:37:48.403Z</time>
      </trkpt>
      <trkpt lat="46.8695" lon="8.50572">
        <ele>1561</ele>
        <time>2021-08-11T10:37:49.404Z</time>
      </trkpt>
      <trkpt lat="46.86951" lon="8.50572">
        <ele>1561</ele>
        <time>2021-08-11T10:37:50.404Z</time>
      </trkpt>
      <trkpt lat="46.86952" lon="8.50571">
        <ele>1561</ele>
        <time>2021-08-11T10:37:51.403Z</time>
      </trkpt>
      <trkpt lat="46.86952" lon="8.5057">
        <ele>1562</ele>
        <time>2021-08-11T10:37:52.404Z</time>
      </trkpt>
      <trkpt lat="46.86953" lon="8.50569">
        <ele>1562</ele>
        <time>2021-08-11T10:37:53.403Z</time>
      </trkpt>
      <trkpt lat="46.86954" lon="8.50568">
        <ele>1562</ele>
        <time>2021-08-11T10:37:54.404Z</time>
      </trkpt>
      <trkpt lat="46.86955" lon="8.50567">
        <ele>1562</ele>
        <time>2021-08-11T10:37:55.404Z</time>
      </trkpt>
      <trkpt lat="46.86955" lon="8.50567">
        <ele>1563</ele>
        <time>2021-08-11T10:37:56.404Z</time>
      </trkpt>
      <trkpt lat="46.86956" lon="8.50566">
        <ele>1563</ele>
        <time>2021-08-11T10:37:57.403Z</time>
      </trkpt>
      <trkpt lat="46.86957" lon="8.50565">
        <ele>1563</ele>
        <time>2021-08-11T10:37:58.404Z</time>
      </trkpt>
      <trkpt lat="46.86958" lon="8.50564">
        <ele>1563</ele>
        <time>2021-08-11T10:37:59.404Z</time>
      </trkpt>
      <trkpt lat="46.86958" lon="8.50564">
        <ele>1563</ele>
        <time>2021-08-11T10:38:00.404Z</time>
      </trkpt>
      <trkpt lat="46.86958" lon="8.50564">
        <ele>1563</ele>
        <time>2021-08-11T10:38:01.403Z</time>
      </trkpt>
      <trkpt lat="46.86958" lon="8.50564">
        <ele>1563</ele>
        <time>2021-08-11T10:38:02.403Z</time>
      </trkpt>
      <trkpt lat="46.86959" lon="8.50564">
        <ele>1563</ele>
        <time>2021-08-11T10:38:03.403Z</time>
      </trkpt>
      <trkpt lat="46.86958" lon="8.50564">
        <ele>1564</ele>
        <time>2021-08-11T10:38:04.403Z</time>
      </trkpt>
      <trkpt lat="46.86958" lon="8.50563">
        <ele>1564</ele>
        <time>2021-08-11T10:38:05.404Z</time>
      </trkpt>
      <trkpt lat="46.86957" lon="8.50563">
        <ele>1564</ele>
        <time>2021-08-11T10:38:06.404Z</time>
      </trkpt>
      <trkpt lat="46.86958" lon="8.50562">
        <ele>1564</ele>
        <time>2021-08-11T10:38:07.404Z</time>
      </trkpt>
      <trkpt lat="46.86958" lon="8.50562">
        <ele>1564</ele>
        <time>2021-08-11T10:38:08.403Z</time>
      </trkpt>
      <trkpt lat="46.86959" lon="8.50561">
        <ele>1565</ele>
        <time>2021-08-11T10:38:09.404Z</time>
      </trkpt>
      <trkpt lat="46.86959" lon="8.50561">
        <ele>1565</ele>
        <time>2021-08-11T10:38:10.404Z</time>
      </trkpt>
      <trkpt lat="46.8696" lon="8.5056">
        <ele>1565</ele>
        <time>2021-08-11T10:38:11.404Z</time>
      </trkpt>
      <trkpt lat="46.86961" lon="8.50559">
        <ele>1565</ele>
        <time>2021-08-11T10:38:12.404Z</time>
      </trkpt>
      <trkpt lat="46.86961" lon="8.50558">
        <ele>1564</ele>
        <time>2021-08-11T10:38:13.403Z</time>
      </trkpt>
      <trkpt lat="46.86962" lon="8.50558">
        <ele>1564</ele>
        <time>2021-08-11T10:38:14.404Z</time>
      </trkpt>
      <trkpt lat="46.86962" lon="8.50557">
        <ele>1564</ele>
        <time>2021-08-11T10:38:15.404Z</time>
      </trkpt>
      <trkpt lat="46.86963" lon="8.50556">
        <ele>1564</ele>
        <time>2021-08-11T10:38:16.404Z</time>
      </trkpt>
      <trkpt lat="46.86965" lon="8.50555">
        <ele>1564</ele>
        <time>2021-08-11T10:38:17.404Z</time>
      </trkpt>
      <trkpt lat="46.86966" lon="8.50553">
        <ele>1564</ele>
        <time>2021-08-11T10:38:18.403Z</time>
      </trkpt>
      <trkpt lat="46.86967" lon="8.50553">
        <ele>1564</ele>
        <time>2021-08-11T10:38:19.403Z</time>
      </trkpt>
      <trkpt lat="46.86969" lon="8.50552">
        <ele>1564</ele>
        <time>2021-08-11T10:38:20.403Z</time>
      </trkpt>
      <trkpt lat="46.8697" lon="8.50552">
        <ele>1564</ele>
        <time>2021-08-11T10:38:21.404Z</time>
      </trkpt>
      <trkpt lat="46.86971" lon="8.50551">
        <ele>1564</ele>
        <time>2021-08-11T10:38:22.404Z</time>
      </trkpt>
      <trkpt lat="46.86973" lon="8.50549">
        <ele>1564</ele>
        <time>2021-08-11T10:38:23.404Z</time>
      </trkpt>
      <trkpt lat="46.86974" lon="8.50548">
        <ele>1564</ele>
        <time>2021-08-11T10:38:24.404Z</time>
      </trkpt>
      <trkpt lat="46.86975" lon="8.50547">
        <ele>1564</ele>
        <time>2021-08-11T10:38:25.403Z</time>
      </trkpt>
      <trkpt lat="46.86975" lon="8.50546">
        <ele>1564</ele>
        <time>2021-08-11T10:38:26.404Z</time>
      </trkpt>
      <trkpt lat="46.86976" lon="8.50545">
        <ele>1563</ele>
        <time>2021-08-11T10:38:27.404Z</time>
      </trkpt>
      <trkpt lat="46.86976" lon="8.50545">
        <ele>1563</ele>
        <time>2021-08-11T10:38:28.403Z</time>
      </trkpt>
      <trkpt lat="46.86977" lon="8.50544">
        <ele>1563</ele>
        <time>2021-08-11T10:38:29.404Z</time>
      </trkpt>
      <trkpt lat="46.86978" lon="8.50543">
        <ele>1563</ele>
        <time>2021-08-11T10:38:30.403Z</time>
      </trkpt>
      <trkpt lat="46.86979" lon="8.50543">
        <ele>1562</ele>
        <time>2021-08-11T10:38:31.404Z</time>
      </trkpt>
      <trkpt lat="46.86979" lon="8.50542">
        <ele>1562</ele>
        <time>2021-08-11T10:38:32.404Z</time>
      </trkpt>
      <trkpt lat="46.86979" lon="8.50541">
        <ele>1562</ele>
        <time>2021-08-11T10:38:33.403Z</time>
      </trkpt>
      <trkpt lat="46.8698" lon="8.50541">
        <ele>1562</ele>
        <time>2021-08-11T10:38:34.404Z</time>
      </trkpt>
      <trkpt lat="46.8698" lon="8.50541">
        <ele>1562</ele>
        <time>2021-08-11T10:38:35.403Z</time>
      </trkpt>
      <trkpt lat="46.86981" lon="8.50541">
        <ele>1562</ele>
        <time>2021-08-11T10:38:36.404Z</time>
      </trkpt>
      <trkpt lat="46.86982" lon="8.50542">
        <ele>1561</ele>
        <time>2021-08-11T10:38:37.404Z</time>
      </trkpt>
      <trkpt lat="46.86982" lon="8.50543">
        <ele>1561</ele>
        <time>2021-08-11T10:38:38.403Z</time>
      </trkpt>
      <trkpt lat="46.86982" lon="8.50544">
        <ele>1561</ele>
        <time>2021-08-11T10:38:39.404Z</time>
      </trkpt>
      <trkpt lat="46.86982" lon="8.50545">
        <ele>1560</ele>
        <time>2021-08-11T10:38:40.403Z</time>
      </trkpt>
      <trkpt lat="46.86983" lon="8.50548">
        <ele>1560</ele>
        <time>2021-08-11T10:38:41.403Z</time>
      </trkpt>
      <trkpt lat="46.86983" lon="8.50549">
        <ele>1560</ele>
        <time>2021-08-11T10:38:42.404Z</time>
      </trkpt>
      <trkpt lat="46.86983" lon="8.50549">
        <ele>1560</ele>
        <time>2021-08-11T10:38:43.404Z</time>
      </trkpt>
      <trkpt lat="46.86983" lon="8.50548">
        <ele>1560</ele>
        <time>2021-08-11T10:38:44.403Z</time>
      </trkpt>
      <trkpt lat="46.86983" lon="8.50548">
        <ele>1560</ele>
        <time>2021-08-11T10:38:45.404Z</time>
      </trkpt>
      <trkpt lat="46.86983" lon="8.50548">
        <ele>1560</ele>
        <time>2021-08-11T10:38:46.404Z</time>
      </trkpt>
      <trkpt lat="46.86983" lon="8.50548">
        <ele>1560</ele>
        <time>2021-08-11T10:38:47.404Z</time>
      </trkpt>
      <trkpt lat="46.86984" lon="8.50548">
        <ele>1560</ele>
        <time>2021-08-11T10:38:48.403Z</time>
      </trkpt>
      <trkpt lat="46.86985" lon="8.50548">
        <ele>1560</ele>
        <time>2021-08-11T10:38:49.404Z</time>
      </trkpt>
      <trkpt lat="46.86985" lon="8.50548">
        <ele>1561</ele>
        <time>2021-08-11T10:38:50.404Z</time>
      </trkpt>
      <trkpt lat="46.86986" lon="8.50548">
        <ele>1561</ele>
        <time>2021-08-11T10:38:51.404Z</time>
      </trkpt>
      <trkpt lat="46.86987" lon="8.50547">
        <ele>1562</ele>
        <time>2021-08-11T10:38:52.404Z</time>
      </trkpt>
      <trkpt lat="46.86987" lon="8.50547">
        <ele>1562</ele>
        <time>2021-08-11T10:38:53.404Z</time>
      </trkpt>
      <trkpt lat="46.86988" lon="8.50547">
        <ele>1562</ele>
        <time>2021-08-11T10:38:54.404Z</time>
      </trkpt>
      <trkpt lat="46.86988" lon="8.50547">
        <ele>1562</ele>
        <time>2021-08-11T10:38:55.403Z</time>
      </trkpt>
      <trkpt lat="46.86988" lon="8.50547">
        <ele>1562</ele>
        <time>2021-08-11T10:38:56.403Z</time>
      </trkpt>
      <trkpt lat="46.86988" lon="8.50547">
        <ele>1562</ele>
        <time>2021-08-11T10:38:57.403Z</time>
      </trkpt>
      <trkpt lat="46.86988" lon="8.50547">
        <ele>1562</ele>
        <time>2021-08-11T10:38:58.404Z</time>
      </trkpt>
      <trkpt lat="46.86989" lon="8.50547">
        <ele>1562</ele>
        <time>2021-08-11T10:38:59.404Z</time>
      </trkpt>
      <trkpt lat="46.86989" lon="8.50547">
        <ele>1562</ele>
        <time>2021-08-11T10:39:00.403Z</time>
      </trkpt>
      <trkpt lat="46.86989" lon="8.50547">
        <ele>1561</ele>
        <time>2021-08-11T10:39:01.403Z</time>
      </trkpt>
      <trkpt lat="46.86989" lon="8.50548">
        <ele>1561</ele>
        <time>2021-08-11T10:39:02.404Z</time>
      </trkpt>
      <trkpt lat="46.86989" lon="8.50548">
        <ele>1561</ele>
        <time>2021-08-11T10:39:03.404Z</time>
      </trkpt>
      <trkpt lat="46.86989" lon="8.50548">
        <ele>1561</ele>
        <time>2021-08-11T10:39:04.403Z</time>
      </trkpt>
      <trkpt lat="46.8699" lon="8.50549">
        <ele>1561</ele>
        <time>2021-08-11T10:39:05.404Z</time>
      </trkpt>
      <trkpt lat="46.86991" lon="8.50549">
        <ele>1561</ele>
        <time>2021-08-11T10:39:06.404Z</time>
      </trkpt>
      <trkpt lat="46.86992" lon="8.50549">
        <ele>1561</ele>
        <time>2021-08-11T10:39:07.404Z</time>
      </trkpt>
      <trkpt lat="46.86992" lon="8.50549">
        <ele>1561</ele>
        <time>2021-08-11T10:39:08.403Z</time>
      </trkpt>
      <trkpt lat="46.86993" lon="8.50548">
        <ele>1561</ele>
        <time>2021-08-11T10:39:09.403Z</time>
      </trkpt>
      <trkpt lat="46.86993" lon="8.50548">
        <ele>1561</ele>
        <time>2021-08-11T10:39:10.404Z</time>
      </trkpt>
      <trkpt lat="46.86994" lon="8.50547">
        <ele>1561</ele>
        <time>2021-08-11T10:39:11.404Z</time>
      </trkpt>
      <trkpt lat="46.86995" lon="8.50546">
        <ele>1561</ele>
        <time>2021-08-11T10:39:12.404Z</time>
      </trkpt>
      <trkpt lat="46.86995" lon="8.50545">
        <ele>1561</ele>
        <time>2021-08-11T10:39:13.404Z</time>
      </trkpt>
      <trkpt lat="46.86997" lon="8.50544">
        <ele>1560</ele>
        <time>2021-08-11T10:39:14.403Z</time>
      </trkpt>
      <trkpt lat="46.86998" lon="8.50543">
        <ele>1560</ele>
        <time>2021-08-11T10:39:15.404Z</time>
      </trkpt>
      <trkpt lat="46.86999" lon="8.50542">
        <ele>1560</ele>
        <time>2021-08-11T10:39:16.403Z</time>
      </trkpt>
      <trkpt lat="46.87" lon="8.50542">
        <ele>1560</ele>
        <time>2021-08-11T10:39:17.404Z</time>
      </trkpt>
      <trkpt lat="46.87001" lon="8.50541">
        <ele>1560</ele>
        <time>2021-08-11T10:39:18.404Z</time>
      </trkpt>
      <trkpt lat="46.87003" lon="8.5054">
        <ele>1560</ele>
        <time>2021-08-11T10:39:19.404Z</time>
      </trkpt>
      <trkpt lat="46.87004" lon="8.5054">
        <ele>1560</ele>
        <time>2021-08-11T10:39:20.404Z</time>
      </trkpt>
      <trkpt lat="46.87004" lon="8.5054">
        <ele>1561</ele>
        <time>2021-08-11T10:39:21.403Z</time>
      </trkpt>
      <trkpt lat="46.87005" lon="8.50539">
        <ele>1561</ele>
        <time>2021-08-11T10:39:22.404Z</time>
      </trkpt>
      <trkpt lat="46.87006" lon="8.50538">
        <ele>1561</ele>
        <time>2021-08-11T10:39:23.404Z</time>
      </trkpt>
      <trkpt lat="46.87007" lon="8.50538">
        <ele>1561</ele>
        <time>2021-08-11T10:39:24.403Z</time>
      </trkpt>
      <trkpt lat="46.87007" lon="8.50538">
        <ele>1561</ele>
        <time>2021-08-11T10:39:25.404Z</time>
      </trkpt>
      <trkpt lat="46.87008" lon="8.50537">
        <ele>1561</ele>
        <time>2021-08-11T10:39:26.404Z</time>
      </trkpt>
      <trkpt lat="46.87009" lon="8.50537">
        <ele>1562</ele>
        <time>2021-08-11T10:39:27.403Z</time>
      </trkpt>
      <trkpt lat="46.8701" lon="8.50536">
        <ele>1562</ele>
        <time>2021-08-11T10:39:28.404Z</time>
      </trkpt>
      <trkpt lat="46.87011" lon="8.50535">
        <ele>1562</ele>
        <time>2021-08-11T10:39:29.403Z</time>
      </trkpt>
      <trkpt lat="46.87011" lon="8.50534">
        <ele>1563</ele>
        <time>2021-08-11T10:39:30.404Z</time>
      </trkpt>
      <trkpt lat="46.87012" lon="8.50533">
        <ele>1563</ele>
        <time>2021-08-11T10:39:31.404Z</time>
      </trkpt>
      <trkpt lat="46.87012" lon="8.50533">
        <ele>1563</ele>
        <time>2021-08-11T10:39:32.403Z</time>
      </trkpt>
      <trkpt lat="46.87013" lon="8.50532">
        <ele>1563</ele>
        <time>2021-08-11T10:39:33.404Z</time>
      </trkpt>
      <trkpt lat="46.87013" lon="8.50531">
        <ele>1564</ele>
        <time>2021-08-11T10:39:34.404Z</time>
      </trkpt>
      <trkpt lat="46.87014" lon="8.50531">
        <ele>1564</ele>
        <time>2021-08-11T10:39:35.404Z</time>
      </trkpt>
      <trkpt lat="46.87014" lon="8.50531">
        <ele>1564</ele>
        <time>2021-08-11T10:39:36.404Z</time>
      </trkpt>
      <trkpt lat="46.87015" lon="8.50531">
        <ele>1565</ele>
        <time>2021-08-11T10:39:37.403Z</time>
      </trkpt>
      <trkpt lat="46.87015" lon="8.50532">
        <ele>1565</ele>
        <time>2021-08-11T10:39:38.404Z</time>
      </trkpt>
      <trkpt lat="46.87015" lon="8.50533">
        <ele>1565</ele>
        <time>2021-08-11T10:39:39.404Z</time>
      </trkpt>
      <trkpt lat="46.87016" lon="8.50533">
        <ele>1565</ele>
        <time>2021-08-11T10:39:40.404Z</time>
      </trkpt>
      <trkpt lat="46.87016" lon="8.50533">
        <ele>1565</ele>
        <time>2021-08-11T10:39:44.398Z</time>
      </trkpt>
      <trkpt lat="46.87017" lon="8.50532">
        <ele>1565</ele>
        <time>2021-08-11T10:39:46.237Z</time>
      </trkpt>
      <trkpt lat="46.87018" lon="8.50532">
        <ele>1566</ele>
        <time>2021-08-11T10:39:47.237Z</time>
      </trkpt>
      <trkpt lat="46.87021" lon="8.50531">
        <ele>1567</ele>
        <time>2021-08-11T10:39:48.237Z</time>
      </trkpt>
      <trkpt lat="46.87023" lon="8.50531">
        <ele>1567</ele>
        <time>2021-08-11T10:39:49.237Z</time>
      </trkpt>
      <trkpt lat="46.87025" lon="8.5053">
        <ele>1568</ele>
        <time>2021-08-11T10:39:50.237Z</time>
      </trkpt>
      <trkpt lat="46.87027" lon="8.5053">
        <ele>1568</ele>
        <time>2021-08-11T10:39:51.236Z</time>
      </trkpt>
      <trkpt lat="46.87029" lon="8.50529">
        <ele>1568</ele>
        <time>2021-08-11T10:39:52.237Z</time>
      </trkpt>
      <trkpt lat="46.8703" lon="8.50528">
        <ele>1569</ele>
        <time>2021-08-11T10:39:53.237Z</time>
      </trkpt>
      <trkpt lat="46.87031" lon="8.50528">
        <ele>1569</ele>
        <time>2021-08-11T10:39:54.237Z</time>
      </trkpt>
      <trkpt lat="46.87033" lon="8.50527">
        <ele>1569</ele>
        <time>2021-08-11T10:39:55.237Z</time>
      </trkpt>
      <trkpt lat="46.87034" lon="8.50527">
        <ele>1569</ele>
        <time>2021-08-11T10:39:56.236Z</time>
      </trkpt>
      <trkpt lat="46.87035" lon="8.50527">
        <ele>1570</ele>
        <time>2021-08-11T10:39:57.237Z</time>
      </trkpt>
      <trkpt lat="46.87036" lon="8.50526">
        <ele>1570</ele>
        <time>2021-08-11T10:39:58.237Z</time>
      </trkpt>
      <trkpt lat="46.87037" lon="8.50526">
        <ele>1570</ele>
        <time>2021-08-11T10:39:59.236Z</time>
      </trkpt>
      <trkpt lat="46.87037" lon="8.50526">
        <ele>1570</ele>
        <time>2021-08-11T10:40:00.237Z</time>
      </trkpt>
      <trkpt lat="46.87038" lon="8.50526">
        <ele>1570</ele>
        <time>2021-08-11T10:40:01.237Z</time>
      </trkpt>
      <trkpt lat="46.87039" lon="8.50526">
        <ele>1571</ele>
        <time>2021-08-11T10:40:02.237Z</time>
      </trkpt>
      <trkpt lat="46.87039" lon="8.50526">
        <ele>1571</ele>
        <time>2021-08-11T10:40:03.237Z</time>
      </trkpt>
      <trkpt lat="46.87041" lon="8.50524">
        <ele>1571</ele>
        <time>2021-08-11T10:40:04.236Z</time>
      </trkpt>
      <trkpt lat="46.87042" lon="8.50524">
        <ele>1571</ele>
        <time>2021-08-11T10:40:05.237Z</time>
      </trkpt>
      <trkpt lat="46.87043" lon="8.50523">
        <ele>1571</ele>
        <time>2021-08-11T10:40:06.237Z</time>
      </trkpt>
      <trkpt lat="46.87044" lon="8.50522">
        <ele>1571</ele>
        <time>2021-08-11T10:40:07.237Z</time>
      </trkpt>
      <trkpt lat="46.87044" lon="8.50521">
        <ele>1571</ele>
        <time>2021-08-11T10:40:08.236Z</time>
      </trkpt>
      <trkpt lat="46.87045" lon="8.50521">
        <ele>1570</ele>
        <time>2021-08-11T10:40:09.236Z</time>
      </trkpt>
      <trkpt lat="46.87046" lon="8.50521">
        <ele>1570</ele>
        <time>2021-08-11T10:40:10.237Z</time>
      </trkpt>
      <trkpt lat="46.87046" lon="8.5052">
        <ele>1570</ele>
        <time>2021-08-11T10:40:11.236Z</time>
      </trkpt>
      <trkpt lat="46.87047" lon="8.5052">
        <ele>1570</ele>
        <time>2021-08-11T10:40:12.237Z</time>
      </trkpt>
      <trkpt lat="46.87048" lon="8.5052">
        <ele>1570</ele>
        <time>2021-08-11T10:40:13.237Z</time>
      </trkpt>
      <trkpt lat="46.87049" lon="8.50519">
        <ele>1570</ele>
        <time>2021-08-11T10:40:14.237Z</time>
      </trkpt>
      <trkpt lat="46.8705" lon="8.50519">
        <ele>1569</ele>
        <time>2021-08-11T10:40:15.237Z</time>
      </trkpt>
      <trkpt lat="46.87051" lon="8.50518">
        <ele>1569</ele>
        <time>2021-08-11T10:40:16.237Z</time>
      </trkpt>
      <trkpt lat="46.87051" lon="8.50518">
        <ele>1569</ele>
        <time>2021-08-11T10:40:17.236Z</time>
      </trkpt>
      <trkpt lat="46.87052" lon="8.50518">
        <ele>1568</ele>
        <time>2021-08-11T10:40:18.237Z</time>
      </trkpt>
      <trkpt lat="46.87053" lon="8.50516">
        <ele>1568</ele>
        <time>2021-08-11T10:40:19.237Z</time>
      </trkpt>
      <trkpt lat="46.87054" lon="8.50516">
        <ele>1567</ele>
        <time>2021-08-11T10:40:20.237Z</time>
      </trkpt>
      <trkpt lat="46.87056" lon="8.50514">
        <ele>1567</ele>
        <time>2021-08-11T10:40:21.237Z</time>
      </trkpt>
      <trkpt lat="46.87057" lon="8.50513">
        <ele>1567</ele>
        <time>2021-08-11T10:40:22.236Z</time>
      </trkpt>
      <trkpt lat="46.87059" lon="8.50513">
        <ele>1567</ele>
        <time>2021-08-11T10:40:23.237Z</time>
      </trkpt>
      <trkpt lat="46.87061" lon="8.50512">
        <ele>1567</ele>
        <time>2021-08-11T10:40:24.237Z</time>
      </trkpt>
      <trkpt lat="46.87062" lon="8.50512">
        <ele>1567</ele>
        <time>2021-08-11T10:40:30.256Z</time>
      </trkpt>
      <trkpt lat="46.87063" lon="8.50512">
        <ele>1566</ele>
        <time>2021-08-11T10:40:31.256Z</time>
      </trkpt>
      <trkpt lat="46.87064" lon="8.50511">
        <ele>1566</ele>
        <time>2021-08-11T10:40:32.255Z</time>
      </trkpt>
      <trkpt lat="46.87065" lon="8.5051">
        <ele>1566</ele>
        <time>2021-08-11T10:40:43.369Z</time>
      </trkpt>
      <trkpt lat="46.87065" lon="8.50509">
        <ele>1565</ele>
        <time>2021-08-11T10:40:44.369Z</time>
      </trkpt>
      <trkpt lat="46.87066" lon="8.50509">
        <ele>1565</ele>
        <time>2021-08-11T10:40:45.368Z</time>
      </trkpt>
      <trkpt lat="46.87066" lon="8.50508">
        <ele>1565</ele>
        <time>2021-08-11T10:41:07.395Z</time>
      </trkpt>
      <trkpt lat="46.87066" lon="8.50508">
        <ele>1565</ele>
        <time>2021-08-11T10:41:11.272Z</time>
      </trkpt>
      <trkpt lat="46.87067" lon="8.50508">
        <ele>1565</ele>
        <time>2021-08-11T10:41:12.272Z</time>
      </trkpt>
      <trkpt lat="46.87068" lon="8.50507">
        <ele>1565</ele>
        <time>2021-08-11T10:41:25.045Z</time>
      </trkpt>
      <trkpt lat="46.8707" lon="8.50506">
        <ele>1565</ele>
        <time>2021-08-11T10:41:26.045Z</time>
      </trkpt>
      <trkpt lat="46.87071" lon="8.50505">
        <ele>1565</ele>
        <time>2021-08-11T10:41:27.045Z</time>
      </trkpt>
      <trkpt lat="46.87072" lon="8.50504">
        <ele>1565</ele>
        <time>2021-08-11T10:41:28.045Z</time>
      </trkpt>
      <trkpt lat="46.87073" lon="8.50504">
        <ele>1565</ele>
        <time>2021-08-11T10:41:29.045Z</time>
      </trkpt>
      <trkpt lat="46.87075" lon="8.50504">
        <ele>1565</ele>
        <time>2021-08-11T10:41:30.045Z</time>
      </trkpt>
      <trkpt lat="46.87076" lon="8.50504">
        <ele>1565</ele>
        <time>2021-08-11T10:41:31.045Z</time>
      </trkpt>
      <trkpt lat="46.87076" lon="8.50503">
        <ele>1565</ele>
        <time>2021-08-11T10:41:51.126Z</time>
      </trkpt>
      <trkpt lat="46.87077" lon="8.50503">
        <ele>1565</ele>
        <time>2021-08-11T10:41:52.126Z</time>
      </trkpt>
      <trkpt lat="46.87078" lon="8.50502">
        <ele>1565</ele>
        <time>2021-08-11T10:41:53.125Z</time>
      </trkpt>
      <trkpt lat="46.87078" lon="8.50501">
        <ele>1565</ele>
        <time>2021-08-11T10:41:54.125Z</time>
      </trkpt>
      <trkpt lat="46.87079" lon="8.505">
        <ele>1565</ele>
        <time>2021-08-11T10:41:55.126Z</time>
      </trkpt>
      <trkpt lat="46.8708" lon="8.50499">
        <ele>1565</ele>
        <time>2021-08-11T10:41:56.126Z</time>
      </trkpt>
      <trkpt lat="46.87081" lon="8.50499">
        <ele>1565</ele>
        <time>2021-08-11T10:41:57.126Z</time>
      </trkpt>
      <trkpt lat="46.87082" lon="8.50499">
        <ele>1565</ele>
        <time>2021-08-11T10:41:58.125Z</time>
      </trkpt>
      <trkpt lat="46.87083" lon="8.50498">
        <ele>1565</ele>
        <time>2021-08-11T10:41:59.125Z</time>
      </trkpt>
      <trkpt lat="46.87084" lon="8.50498">
        <ele>1565</ele>
        <time>2021-08-11T10:42:00.126Z</time>
      </trkpt>
      <trkpt lat="46.87085" lon="8.50498">
        <ele>1565</ele>
        <time>2021-08-11T10:42:01.126Z</time>
      </trkpt>
      <trkpt lat="46.87085" lon="8.50497">
        <ele>1565</ele>
        <time>2021-08-11T10:42:02.126Z</time>
      </trkpt>
      <trkpt lat="46.87085" lon="8.50497">
        <ele>1565</ele>
        <time>2021-08-11T10:42:03.126Z</time>
      </trkpt>
      <trkpt lat="46.87086" lon="8.50496">
        <ele>1565</ele>
        <time>2021-08-11T10:42:04.125Z</time>
      </trkpt>
      <trkpt lat="46.87087" lon="8.50495">
        <ele>1565</ele>
        <time>2021-08-11T10:42:05.126Z</time>
      </trkpt>
      <trkpt lat="46.87088" lon="8.50495">
        <ele>1565</ele>
        <time>2021-08-11T10:42:06.126Z</time>
      </trkpt>
      <trkpt lat="46.87089" lon="8.50495">
        <ele>1565</ele>
        <time>2021-08-11T10:42:07.125Z</time>
      </trkpt>
      <trkpt lat="46.87091" lon="8.50496">
        <ele>1565</ele>
        <time>2021-08-11T10:42:08.126Z</time>
      </trkpt>
      <trkpt lat="46.87092" lon="8.50496">
        <ele>1565</ele>
        <time>2021-08-11T10:42:09.126Z</time>
      </trkpt>
      <trkpt lat="46.87093" lon="8.50496">
        <ele>1565</ele>
        <time>2021-08-11T10:42:10.126Z</time>
      </trkpt>
      <trkpt lat="46.87094" lon="8.50496">
        <ele>1565</ele>
        <time>2021-08-11T10:42:11.125Z</time>
      </trkpt>
      <trkpt lat="46.87095" lon="8.50496">
        <ele>1565</ele>
        <time>2021-08-11T10:42:12.126Z</time>
      </trkpt>
      <trkpt lat="46.87096" lon="8.50495">
        <ele>1565</ele>
        <time>2021-08-11T10:42:13.126Z</time>
      </trkpt>
      <trkpt lat="46.87097" lon="8.50494">
        <ele>1565</ele>
        <time>2021-08-11T10:42:15.110Z</time>
      </trkpt>
      <trkpt lat="46.87098" lon="8.50493">
        <ele>1565</ele>
        <time>2021-08-11T10:42:16.110Z</time>
      </trkpt>
      <trkpt lat="46.87099" lon="8.50493">
        <ele>1565</ele>
        <time>2021-08-11T10:42:17.109Z</time>
      </trkpt>
      <trkpt lat="46.871" lon="8.50493">
        <ele>1565</ele>
        <time>2021-08-11T10:42:18.110Z</time>
      </trkpt>
      <trkpt lat="46.871" lon="8.50494">
        <ele>1565</ele>
        <time>2021-08-11T10:42:19.110Z</time>
      </trkpt>
      <trkpt lat="46.87101" lon="8.50493">
        <ele>1565</ele>
        <time>2021-08-11T10:42:20.109Z</time>
      </trkpt>
      <trkpt lat="46.87102" lon="8.50494">
        <ele>1565</ele>
        <time>2021-08-11T10:42:21.109Z</time>
      </trkpt>
      <trkpt lat="46.87103" lon="8.50494">
        <ele>1565</ele>
        <time>2021-08-11T10:42:22.110Z</time>
      </trkpt>
      <trkpt lat="46.87104" lon="8.50493">
        <ele>1565</ele>
        <time>2021-08-11T10:42:23.110Z</time>
      </trkpt>
      <trkpt lat="46.87106" lon="8.50493">
        <ele>1566</ele>
        <time>2021-08-11T10:42:25.111Z</time>
      </trkpt>
      <trkpt lat="46.87107" lon="8.50492">
        <ele>1566</ele>
        <time>2021-08-11T10:42:26.110Z</time>
      </trkpt>
      <trkpt lat="46.87107" lon="8.50491">
        <ele>1566</ele>
        <time>2021-08-11T10:42:27.110Z</time>
      </trkpt>
      <trkpt lat="46.87108" lon="8.5049">
        <ele>1566</ele>
        <time>2021-08-11T10:42:28.111Z</time>
      </trkpt>
      <trkpt lat="46.87109" lon="8.50489">
        <ele>1565</ele>
        <time>2021-08-11T10:42:29.111Z</time>
      </trkpt>
      <trkpt lat="46.8711" lon="8.50488">
        <ele>1565</ele>
        <time>2021-08-11T10:42:30.111Z</time>
      </trkpt>
      <trkpt lat="46.8711" lon="8.50488">
        <ele>1564</ele>
        <time>2021-08-11T10:42:31.111Z</time>
      </trkpt>
      <trkpt lat="46.87111" lon="8.50487">
        <ele>1564</ele>
        <time>2021-08-11T10:42:32.110Z</time>
      </trkpt>
      <trkpt lat="46.87112" lon="8.50486">
        <ele>1563</ele>
        <time>2021-08-11T10:42:33.111Z</time>
      </trkpt>
      <trkpt lat="46.87113" lon="8.50486">
        <ele>1563</ele>
        <time>2021-08-11T10:42:34.110Z</time>
      </trkpt>
      <trkpt lat="46.87115" lon="8.50485">
        <ele>1562</ele>
        <time>2021-08-11T10:42:35.111Z</time>
      </trkpt>
      <trkpt lat="46.87115" lon="8.50484">
        <ele>1562</ele>
        <time>2021-08-11T10:42:36.111Z</time>
      </trkpt>
      <trkpt lat="46.87117" lon="8.50484">
        <ele>1561</ele>
        <time>2021-08-11T10:42:37.111Z</time>
      </trkpt>
      <trkpt lat="46.87118" lon="8.50483">
        <ele>1561</ele>
        <time>2021-08-11T10:42:38.111Z</time>
      </trkpt>
      <trkpt lat="46.87119" lon="8.50481">
        <ele>1560</ele>
        <time>2021-08-11T10:42:39.110Z</time>
      </trkpt>
      <trkpt lat="46.8712" lon="8.5048">
        <ele>1560</ele>
        <time>2021-08-11T10:42:40.110Z</time>
      </trkpt>
      <trkpt lat="46.87121" lon="8.50478">
        <ele>1560</ele>
        <time>2021-08-11T10:42:45.147Z</time>
      </trkpt>
      <trkpt lat="46.87121" lon="8.50478">
        <ele>1559</ele>
        <time>2021-08-11T10:42:46.148Z</time>
      </trkpt>
      <trkpt lat="46.87122" lon="8.50477">
        <ele>1559</ele>
        <time>2021-08-11T10:42:47.148Z</time>
      </trkpt>
      <trkpt lat="46.87123" lon="8.50476">
        <ele>1559</ele>
        <time>2021-08-11T10:42:48.148Z</time>
      </trkpt>
      <trkpt lat="46.87124" lon="8.50476">
        <ele>1558</ele>
        <time>2021-08-11T10:42:49.148Z</time>
      </trkpt>
      <trkpt lat="46.87125" lon="8.50476">
        <ele>1558</ele>
        <time>2021-08-11T10:42:56.124Z</time>
      </trkpt>
      <trkpt lat="46.87126" lon="8.50475">
        <ele>1557</ele>
        <time>2021-08-11T10:42:57.125Z</time>
      </trkpt>
      <trkpt lat="46.87127" lon="8.50475">
        <ele>1557</ele>
        <time>2021-08-11T10:43:02.897Z</time>
      </trkpt>
      <trkpt lat="46.87128" lon="8.50474">
        <ele>1556</ele>
        <time>2021-08-11T10:43:03.898Z</time>
      </trkpt>
      <trkpt lat="46.87128" lon="8.50474">
        <ele>1555</ele>
        <time>2021-08-11T10:43:04.898Z</time>
      </trkpt>
      <trkpt lat="46.87129" lon="8.50474">
        <ele>1555</ele>
        <time>2021-08-11T10:43:05.898Z</time>
      </trkpt>
      <trkpt lat="46.8713" lon="8.50474">
        <ele>1555</ele>
        <time>2021-08-11T10:43:06.898Z</time>
      </trkpt>
      <trkpt lat="46.87131" lon="8.50475">
        <ele>1554</ele>
        <time>2021-08-11T10:43:07.897Z</time>
      </trkpt>
      <trkpt lat="46.87132" lon="8.50475">
        <ele>1554</ele>
        <time>2021-08-11T10:43:08.897Z</time>
      </trkpt>
      <trkpt lat="46.87133" lon="8.50476">
        <ele>1553</ele>
        <time>2021-08-11T10:43:13.893Z</time>
      </trkpt>
      <trkpt lat="46.87135" lon="8.50475">
        <ele>1553</ele>
        <time>2021-08-11T10:43:14.892Z</time>
      </trkpt>
      <trkpt lat="46.87137" lon="8.50474">
        <ele>1553</ele>
        <time>2021-08-11T10:43:15.893Z</time>
      </trkpt>
      <trkpt lat="46.87138" lon="8.50474">
        <ele>1552</ele>
        <time>2021-08-11T10:43:16.893Z</time>
      </trkpt>
      <trkpt lat="46.87139" lon="8.50473">
        <ele>1552</ele>
        <time>2021-08-11T10:43:17.892Z</time>
      </trkpt>
      <trkpt lat="46.8714" lon="8.50473">
        <ele>1552</ele>
        <time>2021-08-11T10:43:20.880Z</time>
      </trkpt>
      <trkpt lat="46.87141" lon="8.50473">
        <ele>1552</ele>
        <time>2021-08-11T10:43:21.879Z</time>
      </trkpt>
      <trkpt lat="46.87142" lon="8.50473">
        <ele>1552</ele>
        <time>2021-08-11T10:43:22.880Z</time>
      </trkpt>
      <trkpt lat="46.87143" lon="8.50473">
        <ele>1552</ele>
        <time>2021-08-11T10:43:31.999Z</time>
      </trkpt>
      <trkpt lat="46.87144" lon="8.50474">
        <ele>1553</ele>
        <time>2021-08-11T10:43:32.999Z</time>
      </trkpt>
      <trkpt lat="46.87145" lon="8.50474">
        <ele>1553</ele>
        <time>2021-08-11T10:43:33.999Z</time>
      </trkpt>
      <trkpt lat="46.87145" lon="8.50474">
        <ele>1553</ele>
        <time>2021-08-11T10:43:34.998Z</time>
      </trkpt>
      <trkpt lat="46.87146" lon="8.50474">
        <ele>1554</ele>
        <time>2021-08-11T10:43:35.998Z</time>
      </trkpt>
      <trkpt lat="46.87147" lon="8.50473">
        <ele>1554</ele>
        <time>2021-08-11T10:43:36.999Z</time>
      </trkpt>
      <trkpt lat="46.87148" lon="8.50472">
        <ele>1554</ele>
        <time>2021-08-11T10:43:37.999Z</time>
      </trkpt>
      <trkpt lat="46.87149" lon="8.50472">
        <ele>1553</ele>
        <time>2021-08-11T10:43:38.999Z</time>
      </trkpt>
      <trkpt lat="46.8715" lon="8.50471">
        <ele>1553</ele>
        <time>2021-08-11T10:43:39.998Z</time>
      </trkpt>
      <trkpt lat="46.87151" lon="8.50471">
        <ele>1553</ele>
        <time>2021-08-11T10:43:42.997Z</time>
      </trkpt>
      <trkpt lat="46.87151" lon="8.50471">
        <ele>1554</ele>
        <time>2021-08-11T10:43:44.771Z</time>
      </trkpt>
      <trkpt lat="46.87152" lon="8.5047">
        <ele>1554</ele>
        <time>2021-08-11T10:43:45.771Z</time>
      </trkpt>
      <trkpt lat="46.87153" lon="8.5047">
        <ele>1554</ele>
        <time>2021-08-11T10:43:46.771Z</time>
      </trkpt>
      <trkpt lat="46.87153" lon="8.5047">
        <ele>1554</ele>
        <time>2021-08-11T10:43:47.771Z</time>
      </trkpt>
      <trkpt lat="46.87154" lon="8.5047">
        <ele>1554</ele>
        <time>2021-08-11T10:43:51.874Z</time>
      </trkpt>
      <trkpt lat="46.87154" lon="8.50469">
        <ele>1554</ele>
        <time>2021-08-11T10:43:52.874Z</time>
      </trkpt>
      <trkpt lat="46.87155" lon="8.50468">
        <ele>1554</ele>
        <time>2021-08-11T10:43:53.874Z</time>
      </trkpt>
      <trkpt lat="46.87156" lon="8.50467">
        <ele>1554</ele>
        <time>2021-08-11T10:43:54.873Z</time>
      </trkpt>
      <trkpt lat="46.87157" lon="8.50465">
        <ele>1554</ele>
        <time>2021-08-11T10:43:55.874Z</time>
      </trkpt>
      <trkpt lat="46.87158" lon="8.50464">
        <ele>1555</ele>
        <time>2021-08-11T10:43:56.873Z</time>
      </trkpt>
      <trkpt lat="46.87158" lon="8.50462">
        <ele>1555</ele>
        <time>2021-08-11T10:43:57.873Z</time>
      </trkpt>
      <trkpt lat="46.87158" lon="8.50461">
        <ele>1556</ele>
        <time>2021-08-11T10:43:58.874Z</time>
      </trkpt>
      <trkpt lat="46.87159" lon="8.50459">
        <ele>1556</ele>
        <time>2021-08-11T10:43:59.874Z</time>
      </trkpt>
      <trkpt lat="46.87159" lon="8.50458">
        <ele>1557</ele>
        <time>2021-08-11T10:44:00.874Z</time>
      </trkpt>
      <trkpt lat="46.87159" lon="8.50456">
        <ele>1557</ele>
        <time>2021-08-11T10:44:01.874Z</time>
      </trkpt>
      <trkpt lat="46.87159" lon="8.50456">
        <ele>1558</ele>
        <time>2021-08-11T10:44:14.018Z</time>
      </trkpt>
      <trkpt lat="46.87158" lon="8.50455">
        <ele>1558</ele>
        <time>2021-08-11T10:44:15.018Z</time>
      </trkpt>
      <trkpt lat="46.87159" lon="8.50453">
        <ele>1558</ele>
        <time>2021-08-11T10:44:22.876Z</time>
      </trkpt>
      <trkpt lat="46.8716" lon="8.5045">
        <ele>1558</ele>
        <time>2021-08-11T10:44:23.875Z</time>
      </trkpt>
      <trkpt lat="46.87161" lon="8.50448">
        <ele>1558</ele>
        <time>2021-08-11T10:44:29.773Z</time>
      </trkpt>
      <trkpt lat="46.87162" lon="8.50446">
        <ele>1558</ele>
        <time>2021-08-11T10:44:30.773Z</time>
      </trkpt>
      <trkpt lat="46.87162" lon="8.50444">
        <ele>1558</ele>
        <time>2021-08-11T10:44:31.773Z</time>
      </trkpt>
      <trkpt lat="46.87162" lon="8.50444">
        <ele>1558</ele>
        <time>2021-08-11T10:44:32.772Z</time>
      </trkpt>
      <trkpt lat="46.87162" lon="8.50444">
        <ele>1558</ele>
        <time>2021-08-11T10:44:33.773Z</time>
      </trkpt>
      <trkpt lat="46.87163" lon="8.50444">
        <ele>1558</ele>
        <time>2021-08-11T10:44:34.773Z</time>
      </trkpt>
      <trkpt lat="46.87163" lon="8.50444">
        <ele>1558</ele>
        <time>2021-08-11T10:44:35.773Z</time>
      </trkpt>
      <trkpt lat="46.87164" lon="8.50443">
        <ele>1557</ele>
        <time>2021-08-11T10:44:36.773Z</time>
      </trkpt>
      <trkpt lat="46.87165" lon="8.50442">
        <ele>1557</ele>
        <time>2021-08-11T10:44:37.772Z</time>
      </trkpt>
      <trkpt lat="46.87166" lon="8.50441">
        <ele>1557</ele>
        <time>2021-08-11T10:44:38.773Z</time>
      </trkpt>
      <trkpt lat="46.87166" lon="8.5044">
        <ele>1557</ele>
        <time>2021-08-11T10:44:39.773Z</time>
      </trkpt>
      <trkpt lat="46.87167" lon="8.50439">
        <ele>1557</ele>
        <time>2021-08-11T10:44:40.773Z</time>
      </trkpt>
      <trkpt lat="46.87167" lon="8.50437">
        <ele>1557</ele>
        <time>2021-08-11T10:44:41.773Z</time>
      </trkpt>
      <trkpt lat="46.87168" lon="8.50436">
        <ele>1556</ele>
        <time>2021-08-11T10:44:42.772Z</time>
      </trkpt>
      <trkpt lat="46.87169" lon="8.50435">
        <ele>1556</ele>
        <time>2021-08-11T10:44:43.773Z</time>
      </trkpt>
      <trkpt lat="46.8717" lon="8.50435">
        <ele>1556</ele>
        <time>2021-08-11T10:44:44.773Z</time>
      </trkpt>
      <trkpt lat="46.8717" lon="8.50434">
        <ele>1556</ele>
        <time>2021-08-11T10:44:45.773Z</time>
      </trkpt>
      <trkpt lat="46.87171" lon="8.50434">
        <ele>1556</ele>
        <time>2021-08-11T10:44:46.772Z</time>
      </trkpt>
      <trkpt lat="46.87172" lon="8.50433">
        <ele>1556</ele>
        <time>2021-08-11T10:44:47.773Z</time>
      </trkpt>
      <trkpt lat="46.87172" lon="8.50433">
        <ele>1556</ele>
        <time>2021-08-11T10:44:48.773Z</time>
      </trkpt>
      <trkpt lat="46.87173" lon="8.50432">
        <ele>1556</ele>
        <time>2021-08-11T10:44:49.773Z</time>
      </trkpt>
      <trkpt lat="46.87174" lon="8.50432">
        <ele>1556</ele>
        <time>2021-08-11T10:44:50.773Z</time>
      </trkpt>
      <trkpt lat="46.87175" lon="8.50432">
        <ele>1556</ele>
        <time>2021-08-11T10:44:51.773Z</time>
      </trkpt>
      <trkpt lat="46.87176" lon="8.50432">
        <ele>1555</ele>
        <time>2021-08-11T10:44:52.773Z</time>
      </trkpt>
      <trkpt lat="46.87177" lon="8.50432">
        <ele>1555</ele>
        <time>2021-08-11T10:44:53.773Z</time>
      </trkpt>
      <trkpt lat="46.87178" lon="8.50432">
        <ele>1555</ele>
        <time>2021-08-11T10:44:54.773Z</time>
      </trkpt>
      <trkpt lat="46.87178" lon="8.50432">
        <ele>1555</ele>
        <time>2021-08-11T10:44:55.772Z</time>
      </trkpt>
      <trkpt lat="46.87179" lon="8.50432">
        <ele>1554</ele>
        <time>2021-08-11T10:44:56.772Z</time>
      </trkpt>
      <trkpt lat="46.8718" lon="8.50432">
        <ele>1554</ele>
        <time>2021-08-11T10:44:57.772Z</time>
      </trkpt>
      <trkpt lat="46.87181" lon="8.50433">
        <ele>1554</ele>
        <time>2021-08-11T10:44:58.772Z</time>
      </trkpt>
      <trkpt lat="46.87181" lon="8.50433">
        <ele>1554</ele>
        <time>2021-08-11T10:44:59.772Z</time>
      </trkpt>
      <trkpt lat="46.87181" lon="8.50432">
        <ele>1554</ele>
        <time>2021-08-11T10:45:00.772Z</time>
      </trkpt>
      <trkpt lat="46.87182" lon="8.50432">
        <ele>1554</ele>
        <time>2021-08-11T10:45:01.772Z</time>
      </trkpt>
      <trkpt lat="46.87183" lon="8.50431">
        <ele>1554</ele>
        <time>2021-08-11T10:45:02.772Z</time>
      </trkpt>
      <trkpt lat="46.87184" lon="8.5043">
        <ele>1554</ele>
        <time>2021-08-11T10:45:03.772Z</time>
      </trkpt>
      <trkpt lat="46.87185" lon="8.5043">
        <ele>1554</ele>
        <time>2021-08-11T10:45:04.773Z</time>
      </trkpt>
      <trkpt lat="46.87186" lon="8.50429">
        <ele>1554</ele>
        <time>2021-08-11T10:45:05.773Z</time>
      </trkpt>
      <trkpt lat="46.87187" lon="8.50429">
        <ele>1554</ele>
        <time>2021-08-11T10:45:06.772Z</time>
      </trkpt>
      <trkpt lat="46.87188" lon="8.50429">
        <ele>1554</ele>
        <time>2021-08-11T10:45:07.773Z</time>
      </trkpt>
      <trkpt lat="46.87189" lon="8.50429">
        <ele>1554</ele>
        <time>2021-08-11T10:45:08.773Z</time>
      </trkpt>
      <trkpt lat="46.8719" lon="8.50429">
        <ele>1554</ele>
        <time>2021-08-11T10:45:09.773Z</time>
      </trkpt>
      <trkpt lat="46.87191" lon="8.50428">
        <ele>1554</ele>
        <time>2021-08-11T10:45:10.772Z</time>
      </trkpt>
      <trkpt lat="46.87192" lon="8.50428">
        <ele>1555</ele>
        <time>2021-08-11T10:45:11.772Z</time>
      </trkpt>
      <trkpt lat="46.87193" lon="8.50428">
        <ele>1555</ele>
        <time>2021-08-11T10:45:12.773Z</time>
      </trkpt>
      <trkpt lat="46.87193" lon="8.50427">
        <ele>1555</ele>
        <time>2021-08-11T10:45:13.773Z</time>
      </trkpt>
      <trkpt lat="46.87195" lon="8.50427">
        <ele>1555</ele>
        <time>2021-08-11T10:45:14.773Z</time>
      </trkpt>
      <trkpt lat="46.87196" lon="8.50426">
        <ele>1555</ele>
        <time>2021-08-11T10:45:15.772Z</time>
      </trkpt>
      <trkpt lat="46.87197" lon="8.50426">
        <ele>1555</ele>
        <time>2021-08-11T10:45:16.773Z</time>
      </trkpt>
      <trkpt lat="46.87198" lon="8.50426">
        <ele>1555</ele>
        <time>2021-08-11T10:45:17.773Z</time>
      </trkpt>
      <trkpt lat="46.87198" lon="8.50425">
        <ele>1555</ele>
        <time>2021-08-11T10:45:18.773Z</time>
      </trkpt>
      <trkpt lat="46.87199" lon="8.50424">
        <ele>1554</ele>
        <time>2021-08-11T10:45:19.773Z</time>
      </trkpt>
      <trkpt lat="46.872" lon="8.50424">
        <ele>1554</ele>
        <time>2021-08-11T10:45:20.772Z</time>
      </trkpt>
      <trkpt lat="46.872" lon="8.50424">
        <ele>1554</ele>
        <time>2021-08-11T10:45:21.773Z</time>
      </trkpt>
      <trkpt lat="46.872" lon="8.50424">
        <ele>1554</ele>
        <time>2021-08-11T10:45:22.773Z</time>
      </trkpt>
      <trkpt lat="46.87202" lon="8.50424">
        <ele>1554</ele>
        <time>2021-08-11T10:45:23.773Z</time>
      </trkpt>
      <trkpt lat="46.87203" lon="8.50423">
        <ele>1555</ele>
        <time>2021-08-11T10:45:24.772Z</time>
      </trkpt>
      <trkpt lat="46.87205" lon="8.50422">
        <ele>1555</ele>
        <time>2021-08-11T10:45:25.773Z</time>
      </trkpt>
      <trkpt lat="46.87206" lon="8.50421">
        <ele>1555</ele>
        <time>2021-08-11T10:45:26.773Z</time>
      </trkpt>
      <trkpt lat="46.87207" lon="8.5042">
        <ele>1556</ele>
        <time>2021-08-11T10:45:27.773Z</time>
      </trkpt>
      <trkpt lat="46.87209" lon="8.5042">
        <ele>1556</ele>
        <time>2021-08-11T10:45:28.773Z</time>
      </trkpt>
      <trkpt lat="46.8721" lon="8.50421">
        <ele>1557</ele>
        <time>2021-08-11T10:45:29.772Z</time>
      </trkpt>
      <trkpt lat="46.87211" lon="8.50421">
        <ele>1557</ele>
        <time>2021-08-11T10:45:30.773Z</time>
      </trkpt>
      <trkpt lat="46.87211" lon="8.50422">
        <ele>1558</ele>
        <time>2021-08-11T10:45:31.773Z</time>
      </trkpt>
      <trkpt lat="46.87212" lon="8.50423">
        <ele>1558</ele>
        <time>2021-08-11T10:45:32.773Z</time>
      </trkpt>
      <trkpt lat="46.87213" lon="8.50423">
        <ele>1559</ele>
        <time>2021-08-11T10:45:33.772Z</time>
      </trkpt>
      <trkpt lat="46.87214" lon="8.50422">
        <ele>1559</ele>
        <time>2021-08-11T10:45:34.773Z</time>
      </trkpt>
      <trkpt lat="46.87216" lon="8.50422">
        <ele>1560</ele>
        <time>2021-08-11T10:45:35.773Z</time>
      </trkpt>
      <trkpt lat="46.87218" lon="8.50421">
        <ele>1559</ele>
        <time>2021-08-11T10:45:36.773Z</time>
      </trkpt>
      <trkpt lat="46.8722" lon="8.50422">
        <ele>1559</ele>
        <time>2021-08-11T10:45:37.773Z</time>
      </trkpt>
      <trkpt lat="46.87221" lon="8.50422">
        <ele>1559</ele>
        <time>2021-08-11T10:45:38.772Z</time>
      </trkpt>
      <trkpt lat="46.87223" lon="8.50422">
        <ele>1558</ele>
        <time>2021-08-11T10:45:40.856Z</time>
      </trkpt>
      <trkpt lat="46.87224" lon="8.50422">
        <ele>1558</ele>
        <time>2021-08-11T10:45:41.856Z</time>
      </trkpt>
      <trkpt lat="46.87225" lon="8.50423">
        <ele>1557</ele>
        <time>2021-08-11T10:45:42.856Z</time>
      </trkpt>
      <trkpt lat="46.87226" lon="8.50424">
        <ele>1557</ele>
        <time>2021-08-11T10:45:43.855Z</time>
      </trkpt>
      <trkpt lat="46.87227" lon="8.50425">
        <ele>1556</ele>
        <time>2021-08-11T10:45:44.856Z</time>
      </trkpt>
      <trkpt lat="46.87228" lon="8.50426">
        <ele>1556</ele>
        <time>2021-08-11T10:45:45.856Z</time>
      </trkpt>
      <trkpt lat="46.87229" lon="8.50426">
        <ele>1556</ele>
        <time>2021-08-11T10:45:46.855Z</time>
      </trkpt>
      <trkpt lat="46.8723" lon="8.50427">
        <ele>1555</ele>
        <time>2021-08-11T10:45:47.856Z</time>
      </trkpt>
      <trkpt lat="46.87231" lon="8.50428">
        <ele>1555</ele>
        <time>2021-08-11T10:45:48.855Z</time>
      </trkpt>
      <trkpt lat="46.87232" lon="8.50428">
        <ele>1554</ele>
        <time>2021-08-11T10:45:49.856Z</time>
      </trkpt>
      <trkpt lat="46.87233" lon="8.50429">
        <ele>1554</ele>
        <time>2021-08-11T10:45:50.856Z</time>
      </trkpt>
      <trkpt lat="46.87234" lon="8.50429">
        <ele>1553</ele>
        <time>2021-08-11T10:45:51.856Z</time>
      </trkpt>
      <trkpt lat="46.87235" lon="8.5043">
        <ele>1553</ele>
        <time>2021-08-11T10:45:52.856Z</time>
      </trkpt>
      <trkpt lat="46.87236" lon="8.5043">
        <ele>1552</ele>
        <time>2021-08-11T10:45:53.855Z</time>
      </trkpt>
      <trkpt lat="46.87237" lon="8.50431">
        <ele>1552</ele>
        <time>2021-08-11T10:45:54.856Z</time>
      </trkpt>
      <trkpt lat="46.87238" lon="8.50432">
        <ele>1552</ele>
        <time>2021-08-11T10:45:55.856Z</time>
      </trkpt>
      <trkpt lat="46.8724" lon="8.50432">
        <ele>1552</ele>
        <time>2021-08-11T10:45:56.856Z</time>
      </trkpt>
      <trkpt lat="46.8724" lon="8.50432">
        <ele>1552</ele>
        <time>2021-08-11T10:45:57.855Z</time>
      </trkpt>
      <trkpt lat="46.87241" lon="8.50433">
        <ele>1552</ele>
        <time>2021-08-11T10:45:58.856Z</time>
      </trkpt>
      <trkpt lat="46.87242" lon="8.50433">
        <ele>1552</ele>
        <time>2021-08-11T10:45:59.856Z</time>
      </trkpt>
      <trkpt lat="46.87242" lon="8.50434">
        <ele>1552</ele>
        <time>2021-08-11T10:46:00.856Z</time>
      </trkpt>
      <trkpt lat="46.87243" lon="8.50435">
        <ele>1553</ele>
        <time>2021-08-11T10:46:01.856Z</time>
      </trkpt>
      <trkpt lat="46.87244" lon="8.50436">
        <ele>1553</ele>
        <time>2021-08-11T10:46:02.855Z</time>
      </trkpt>
      <trkpt lat="46.87245" lon="8.50436">
        <ele>1553</ele>
        <time>2021-08-11T10:46:03.856Z</time>
      </trkpt>
      <trkpt lat="46.87246" lon="8.50436">
        <ele>1553</ele>
        <time>2021-08-11T10:46:04.856Z</time>
      </trkpt>
      <trkpt lat="46.87247" lon="8.50436">
        <ele>1553</ele>
        <time>2021-08-11T10:46:05.856Z</time>
      </trkpt>
      <trkpt lat="46.87248" lon="8.50436">
        <ele>1552</ele>
        <time>2021-08-11T10:46:06.855Z</time>
      </trkpt>
      <trkpt lat="46.87249" lon="8.50436">
        <ele>1552</ele>
        <time>2021-08-11T10:46:07.855Z</time>
      </trkpt>
      <trkpt lat="46.8725" lon="8.50435">
        <ele>1552</ele>
        <time>2021-08-11T10:46:08.856Z</time>
      </trkpt>
      <trkpt lat="46.8725" lon="8.50436">
        <ele>1551</ele>
        <time>2021-08-11T10:46:09.856Z</time>
      </trkpt>
      <trkpt lat="46.87251" lon="8.50438">
        <ele>1551</ele>
        <time>2021-08-11T10:46:10.856Z</time>
      </trkpt>
      <trkpt lat="46.87253" lon="8.50438">
        <ele>1551</ele>
        <time>2021-08-11T10:46:11.855Z</time>
      </trkpt>
      <trkpt lat="46.87254" lon="8.50438">
        <ele>1551</ele>
        <time>2021-08-11T10:46:12.856Z</time>
      </trkpt>
      <trkpt lat="46.87257" lon="8.50437">
        <ele>1550</ele>
        <time>2021-08-11T10:46:13.856Z</time>
      </trkpt>
      <trkpt lat="46.87258" lon="8.50436">
        <ele>1550</ele>
        <time>2021-08-11T10:46:14.856Z</time>
      </trkpt>
      <trkpt lat="46.87259" lon="8.50434">
        <ele>1550</ele>
        <time>2021-08-11T10:46:15.855Z</time>
      </trkpt>
      <trkpt lat="46.8726" lon="8.50433">
        <ele>1550</ele>
        <time>2021-08-11T10:46:16.856Z</time>
      </trkpt>
      <trkpt lat="46.8726" lon="8.50431">
        <ele>1549</ele>
        <time>2021-08-11T10:46:17.856Z</time>
      </trkpt>
      <trkpt lat="46.8726" lon="8.5043">
        <ele>1549</ele>
        <time>2021-08-11T10:46:18.856Z</time>
      </trkpt>
      <trkpt lat="46.8726" lon="8.50429">
        <ele>1549</ele>
        <time>2021-08-11T10:46:19.855Z</time>
      </trkpt>
      <trkpt lat="46.8726" lon="8.50428">
        <ele>1548</ele>
        <time>2021-08-11T10:46:20.856Z</time>
      </trkpt>
      <trkpt lat="46.87261" lon="8.50427">
        <ele>1547</ele>
        <time>2021-08-11T10:46:21.856Z</time>
      </trkpt>
      <trkpt lat="46.87261" lon="8.50426">
        <ele>1547</ele>
        <time>2021-08-11T10:46:22.856Z</time>
      </trkpt>
      <trkpt lat="46.87262" lon="8.50425">
        <ele>1546</ele>
        <time>2021-08-11T10:46:23.855Z</time>
      </trkpt>
      <trkpt lat="46.87262" lon="8.50424">
        <ele>1546</ele>
        <time>2021-08-11T10:46:24.856Z</time>
      </trkpt>
      <trkpt lat="46.87262" lon="8.50422">
        <ele>1545</ele>
        <time>2021-08-11T10:46:25.856Z</time>
      </trkpt>
      <trkpt lat="46.87262" lon="8.5042">
        <ele>1545</ele>
        <time>2021-08-11T10:46:26.856Z</time>
      </trkpt>
      <trkpt lat="46.87262" lon="8.50419">
        <ele>1545</ele>
        <time>2021-08-11T10:46:27.855Z</time>
      </trkpt>
      <trkpt lat="46.87262" lon="8.50419">
        <ele>1545</ele>
        <time>2021-08-11T10:46:28.856Z</time>
      </trkpt>
      <trkpt lat="46.87263" lon="8.50418">
        <ele>1544</ele>
        <time>2021-08-11T10:46:36.871Z</time>
      </trkpt>
      <trkpt lat="46.87263" lon="8.50417">
        <ele>1543</ele>
        <time>2021-08-11T10:46:37.871Z</time>
      </trkpt>
      <trkpt lat="46.87263" lon="8.50416">
        <ele>1542</ele>
        <time>2021-08-11T10:46:38.870Z</time>
      </trkpt>
      <trkpt lat="46.87263" lon="8.50415">
        <ele>1541</ele>
        <time>2021-08-11T10:46:39.871Z</time>
      </trkpt>
      <trkpt lat="46.87263" lon="8.50415">
        <ele>1540</ele>
        <time>2021-08-11T10:46:40.871Z</time>
      </trkpt>
      <trkpt lat="46.87264" lon="8.50414">
        <ele>1539</ele>
        <time>2021-08-11T10:46:41.871Z</time>
      </trkpt>
      <trkpt lat="46.87265" lon="8.50413">
        <ele>1538</ele>
        <time>2021-08-11T10:46:42.870Z</time>
      </trkpt>
      <trkpt lat="46.87265" lon="8.50412">
        <ele>1538</ele>
        <time>2021-08-11T10:46:43.870Z</time>
      </trkpt>
      <trkpt lat="46.87266" lon="8.5041">
        <ele>1537</ele>
        <time>2021-08-11T10:46:44.870Z</time>
      </trkpt>
      <trkpt lat="46.87267" lon="8.50409">
        <ele>1537</ele>
        <time>2021-08-11T10:46:47.991Z</time>
      </trkpt>
      <trkpt lat="46.87267" lon="8.50407">
        <ele>1537</ele>
        <time>2021-08-11T10:46:48.991Z</time>
      </trkpt>
      <trkpt lat="46.87268" lon="8.50406">
        <ele>1537</ele>
        <time>2021-08-11T10:46:49.991Z</time>
      </trkpt>
      <trkpt lat="46.87269" lon="8.50405">
        <ele>1536</ele>
        <time>2021-08-11T10:46:50.991Z</time>
      </trkpt>
      <trkpt lat="46.87269" lon="8.50404">
        <ele>1535</ele>
        <time>2021-08-11T10:46:51.992Z</time>
      </trkpt>
      <trkpt lat="46.8727" lon="8.50403">
        <ele>1534</ele>
        <time>2021-08-11T10:46:52.992Z</time>
      </trkpt>
      <trkpt lat="46.8727" lon="8.50402">
        <ele>1534</ele>
        <time>2021-08-11T10:46:53.991Z</time>
      </trkpt>
      <trkpt lat="46.8727" lon="8.50401">
        <ele>1533</ele>
        <time>2021-08-11T10:46:54.991Z</time>
      </trkpt>
      <trkpt lat="46.87271" lon="8.50401">
        <ele>1532</ele>
        <time>2021-08-11T10:46:55.992Z</time>
      </trkpt>
      <trkpt lat="46.87272" lon="8.504">
        <ele>1532</ele>
        <time>2021-08-11T10:46:56.992Z</time>
      </trkpt>
      <trkpt lat="46.87273" lon="8.50398">
        <ele>1531</ele>
        <time>2021-08-11T10:46:57.992Z</time>
      </trkpt>
      <trkpt lat="46.87275" lon="8.50397">
        <ele>1531</ele>
        <time>2021-08-11T10:46:58.991Z</time>
      </trkpt>
      <trkpt lat="46.87276" lon="8.50396">
        <ele>1531</ele>
        <time>2021-08-11T10:46:59.992Z</time>
      </trkpt>
      <trkpt lat="46.87278" lon="8.50394">
        <ele>1531</ele>
        <time>2021-08-11T10:47:00.992Z</time>
      </trkpt>
      <trkpt lat="46.87278" lon="8.50393">
        <ele>1531</ele>
        <time>2021-08-11T10:47:01.992Z</time>
      </trkpt>
      <trkpt lat="46.87279" lon="8.50392">
        <ele>1531</ele>
        <time>2021-08-11T10:47:02.992Z</time>
      </trkpt>
      <trkpt lat="46.8728" lon="8.50392">
        <ele>1531</ele>
        <time>2021-08-11T10:47:03.991Z</time>
      </trkpt>
      <trkpt lat="46.8728" lon="8.50391">
        <ele>1531</ele>
        <time>2021-08-11T10:47:04.991Z</time>
      </trkpt>
      <trkpt lat="46.8728" lon="8.5039">
        <ele>1531</ele>
        <time>2021-08-11T10:47:05.991Z</time>
      </trkpt>
      <trkpt lat="46.8728" lon="8.50389">
        <ele>1531</ele>
        <time>2021-08-11T10:47:06.991Z</time>
      </trkpt>
      <trkpt lat="46.8728" lon="8.50388">
        <ele>1532</ele>
        <time>2021-08-11T10:47:07.992Z</time>
      </trkpt>
      <trkpt lat="46.8728" lon="8.50387">
        <ele>1532</ele>
        <time>2021-08-11T10:47:08.992Z</time>
      </trkpt>
      <trkpt lat="46.8728" lon="8.50385">
        <ele>1533</ele>
        <time>2021-08-11T10:47:09.992Z</time>
      </trkpt>
      <trkpt lat="46.87281" lon="8.50385">
        <ele>1533</ele>
        <time>2021-08-11T10:47:10.991Z</time>
      </trkpt>
      <trkpt lat="46.87282" lon="8.50384">
        <ele>1534</ele>
        <time>2021-08-11T10:47:11.992Z</time>
      </trkpt>
      <trkpt lat="46.87281" lon="8.50381">
        <ele>1534</ele>
        <time>2021-08-11T10:47:12.992Z</time>
      </trkpt>
      <trkpt lat="46.8728" lon="8.5038">
        <ele>1534</ele>
        <time>2021-08-11T10:47:13.992Z</time>
      </trkpt>
      <trkpt lat="46.87279" lon="8.50379">
        <ele>1534</ele>
        <time>2021-08-11T10:47:14.992Z</time>
      </trkpt>
      <trkpt lat="46.87278" lon="8.50378">
        <ele>1533</ele>
        <time>2021-08-11T10:47:15.992Z</time>
      </trkpt>
      <trkpt lat="46.87279" lon="8.50377">
        <ele>1533</ele>
        <time>2021-08-11T10:47:16.991Z</time>
      </trkpt>
      <trkpt lat="46.8728" lon="8.50376">
        <ele>1533</ele>
        <time>2021-08-11T10:47:17.992Z</time>
      </trkpt>
      <trkpt lat="46.87281" lon="8.50376">
        <ele>1532</ele>
        <time>2021-08-11T10:47:18.991Z</time>
      </trkpt>
      <trkpt lat="46.87281" lon="8.50375">
        <ele>1531</ele>
        <time>2021-08-11T10:47:19.991Z</time>
      </trkpt>
      <trkpt lat="46.87281" lon="8.50373">
        <ele>1531</ele>
        <time>2021-08-11T10:47:20.992Z</time>
      </trkpt>
      <trkpt lat="46.87282" lon="8.50372">
        <ele>1530</ele>
        <time>2021-08-11T10:47:21.991Z</time>
      </trkpt>
      <trkpt lat="46.87282" lon="8.50372">
        <ele>1531</ele>
        <time>2021-08-11T10:47:22.992Z</time>
      </trkpt>
      <trkpt lat="46.87283" lon="8.5037">
        <ele>1531</ele>
        <time>2021-08-11T10:47:23.991Z</time>
      </trkpt>
      <trkpt lat="46.87283" lon="8.50369">
        <ele>1531</ele>
        <time>2021-08-11T10:47:24.992Z</time>
      </trkpt>
      <trkpt lat="46.87283" lon="8.50367">
        <ele>1531</ele>
        <time>2021-08-11T10:47:25.992Z</time>
      </trkpt>
      <trkpt lat="46.87283" lon="8.50366">
        <ele>1531</ele>
        <time>2021-08-11T10:47:26.991Z</time>
      </trkpt>
      <trkpt lat="46.87283" lon="8.50365">
        <ele>1531</ele>
        <time>2021-08-11T10:47:27.992Z</time>
      </trkpt>
      <trkpt lat="46.87283" lon="8.50364">
        <ele>1531</ele>
        <time>2021-08-11T10:47:28.991Z</time>
      </trkpt>
      <trkpt lat="46.87284" lon="8.50363">
        <ele>1530</ele>
        <time>2021-08-11T10:47:29.992Z</time>
      </trkpt>
      <trkpt lat="46.87285" lon="8.50361">
        <ele>1530</ele>
        <time>2021-08-11T10:47:30.992Z</time>
      </trkpt>
      <trkpt lat="46.87286" lon="8.5036">
        <ele>1530</ele>
        <time>2021-08-11T10:47:31.992Z</time>
      </trkpt>
      <trkpt lat="46.87287" lon="8.50359">
        <ele>1530</ele>
        <time>2021-08-11T10:47:32.992Z</time>
      </trkpt>
      <trkpt lat="46.87288" lon="8.50358">
        <ele>1529</ele>
        <time>2021-08-11T10:47:33.992Z</time>
      </trkpt>
      <trkpt lat="46.87288" lon="8.50357">
        <ele>1529</ele>
        <time>2021-08-11T10:47:34.992Z</time>
      </trkpt>
      <trkpt lat="46.87288" lon="8.50356">
        <ele>1529</ele>
        <time>2021-08-11T10:47:35.992Z</time>
      </trkpt>
      <trkpt lat="46.87289" lon="8.50355">
        <ele>1529</ele>
        <time>2021-08-11T10:47:36.991Z</time>
      </trkpt>
      <trkpt lat="46.87289" lon="8.50354">
        <ele>1529</ele>
        <time>2021-08-11T10:47:37.992Z</time>
      </trkpt>
      <trkpt lat="46.87289" lon="8.50351">
        <ele>1529</ele>
        <time>2021-08-11T10:47:38.991Z</time>
      </trkpt>
      <trkpt lat="46.87289" lon="8.50349">
        <ele>1530</ele>
        <time>2021-08-11T10:47:39.992Z</time>
      </trkpt>
      <trkpt lat="46.87289" lon="8.50348">
        <ele>1531</ele>
        <time>2021-08-11T10:47:40.992Z</time>
      </trkpt>
      <trkpt lat="46.87289" lon="8.50346">
        <ele>1531</ele>
        <time>2021-08-11T10:47:41.992Z</time>
      </trkpt>
      <trkpt lat="46.8729" lon="8.50345">
        <ele>1532</ele>
        <time>2021-08-11T10:47:42.992Z</time>
      </trkpt>
      <trkpt lat="46.87289" lon="8.50344">
        <ele>1532</ele>
        <time>2021-08-11T10:47:43.992Z</time>
      </trkpt>
      <trkpt lat="46.8729" lon="8.50342">
        <ele>1532</ele>
        <time>2021-08-11T10:47:44.992Z</time>
      </trkpt>
      <trkpt lat="46.8729" lon="8.50341">
        <ele>1532</ele>
        <time>2021-08-11T10:47:45.992Z</time>
      </trkpt>
      <trkpt lat="46.8729" lon="8.5034">
        <ele>1533</ele>
        <time>2021-08-11T10:47:46.992Z</time>
      </trkpt>
      <trkpt lat="46.87291" lon="8.5034">
        <ele>1533</ele>
        <time>2021-08-11T10:47:47.992Z</time>
      </trkpt>
      <trkpt lat="46.87292" lon="8.50339">
        <ele>1533</ele>
        <time>2021-08-11T10:47:48.992Z</time>
      </trkpt>
      <trkpt lat="46.87292" lon="8.50338">
        <ele>1533</ele>
        <time>2021-08-11T10:47:49.991Z</time>
      </trkpt>
      <trkpt lat="46.87291" lon="8.50337">
        <ele>1533</ele>
        <time>2021-08-11T10:47:50.992Z</time>
      </trkpt>
      <trkpt lat="46.87291" lon="8.50337">
        <ele>1532</ele>
        <time>2021-08-11T10:47:51.992Z</time>
      </trkpt>
      <trkpt lat="46.8729" lon="8.50337">
        <ele>1532</ele>
        <time>2021-08-11T10:47:52.992Z</time>
      </trkpt>
      <trkpt lat="46.8729" lon="8.50337">
        <ele>1532</ele>
        <time>2021-08-11T10:47:53.992Z</time>
      </trkpt>
      <trkpt lat="46.8729" lon="8.50337">
        <ele>1531</ele>
        <time>2021-08-11T10:47:54.992Z</time>
      </trkpt>
      <trkpt lat="46.8729" lon="8.50336">
        <ele>1526</ele>
        <time>2021-08-11T10:47:55.994Z</time>
      </trkpt>
      <trkpt lat="46.8729" lon="8.50336">
        <ele>1525</ele>
        <time>2021-08-11T10:47:56.994Z</time>
      </trkpt>
      <trkpt lat="46.87291" lon="8.50335">
        <ele>1524</ele>
        <time>2021-08-11T10:47:57.993Z</time>
      </trkpt>
      <trkpt lat="46.87291" lon="8.50334">
        <ele>1523</ele>
        <time>2021-08-11T10:47:58.994Z</time>
      </trkpt>
      <trkpt lat="46.87291" lon="8.50333">
        <ele>1523</ele>
        <time>2021-08-11T10:47:59.993Z</time>
      </trkpt>
      <trkpt lat="46.8729" lon="8.50332">
        <ele>1523</ele>
        <time>2021-08-11T10:48:00.993Z</time>
      </trkpt>
      <trkpt lat="46.8729" lon="8.50331">
        <ele>1522</ele>
        <time>2021-08-11T10:48:01.994Z</time>
      </trkpt>
      <trkpt lat="46.8729" lon="8.5033">
        <ele>1522</ele>
        <time>2021-08-11T10:48:02.993Z</time>
      </trkpt>
      <trkpt lat="46.8729" lon="8.50329">
        <ele>1521</ele>
        <time>2021-08-11T10:48:03.994Z</time>
      </trkpt>
      <trkpt lat="46.87289" lon="8.50328">
        <ele>1521</ele>
        <time>2021-08-11T10:48:04.994Z</time>
      </trkpt>
      <trkpt lat="46.87289" lon="8.50327">
        <ele>1521</ele>
        <time>2021-08-11T10:48:05.994Z</time>
      </trkpt>
      <trkpt lat="46.87289" lon="8.50326">
        <ele>1521</ele>
        <time>2021-08-11T10:48:06.994Z</time>
      </trkpt>
      <trkpt lat="46.87288" lon="8.50325">
        <ele>1521</ele>
        <time>2021-08-11T10:48:07.993Z</time>
      </trkpt>
      <trkpt lat="46.87288" lon="8.50323">
        <ele>1520</ele>
        <time>2021-08-11T10:48:08.994Z</time>
      </trkpt>
      <trkpt lat="46.87288" lon="8.50322">
        <ele>1520</ele>
        <time>2021-08-11T10:48:09.993Z</time>
      </trkpt>
      <trkpt lat="46.87288" lon="8.50321">
        <ele>1520</ele>
        <time>2021-08-11T10:48:10.994Z</time>
      </trkpt>
      <trkpt lat="46.87289" lon="8.5032">
        <ele>1519</ele>
        <time>2021-08-11T10:48:11.993Z</time>
      </trkpt>
      <trkpt lat="46.87289" lon="8.5032">
        <ele>1519</ele>
        <time>2021-08-11T10:48:12.993Z</time>
      </trkpt>
      <trkpt lat="46.87288" lon="8.50319">
        <ele>1518</ele>
        <time>2021-08-11T10:48:13.994Z</time>
      </trkpt>
      <trkpt lat="46.87288" lon="8.50318">
        <ele>1518</ele>
        <time>2021-08-11T10:48:14.993Z</time>
      </trkpt>
      <trkpt lat="46.87288" lon="8.50316">
        <ele>1518</ele>
        <time>2021-08-11T10:48:15.994Z</time>
      </trkpt>
      <trkpt lat="46.87288" lon="8.50315">
        <ele>1518</ele>
        <time>2021-08-11T10:48:16.994Z</time>
      </trkpt>
      <trkpt lat="46.87289" lon="8.50313">
        <ele>1518</ele>
        <time>2021-08-11T10:48:17.994Z</time>
      </trkpt>
      <trkpt lat="46.8729" lon="8.50312">
        <ele>1518</ele>
        <time>2021-08-11T10:48:18.994Z</time>
      </trkpt>
      <trkpt lat="46.87291" lon="8.5031">
        <ele>1518</ele>
        <time>2021-08-11T10:48:19.993Z</time>
      </trkpt>
      <trkpt lat="46.87291" lon="8.50309">
        <ele>1518</ele>
        <time>2021-08-11T10:48:20.994Z</time>
      </trkpt>
      <trkpt lat="46.87292" lon="8.50307">
        <ele>1518</ele>
        <time>2021-08-11T10:48:21.994Z</time>
      </trkpt>
      <trkpt lat="46.87293" lon="8.50305">
        <ele>1517</ele>
        <time>2021-08-11T10:48:22.993Z</time>
      </trkpt>
      <trkpt lat="46.87293" lon="8.50304">
        <ele>1516</ele>
        <time>2021-08-11T10:48:23.993Z</time>
      </trkpt>
      <trkpt lat="46.87294" lon="8.50304">
        <ele>1516</ele>
        <time>2021-08-11T10:48:26.126Z</time>
      </trkpt>
      <trkpt lat="46.87294" lon="8.50304">
        <ele>1515</ele>
        <time>2021-08-11T10:48:27.126Z</time>
      </trkpt>
      <trkpt lat="46.87294" lon="8.50304">
        <ele>1515</ele>
        <time>2021-08-11T10:48:28.126Z</time>
      </trkpt>
      <trkpt lat="46.87293" lon="8.50306">
        <ele>1515</ele>
        <time>2021-08-11T10:48:29.126Z</time>
      </trkpt>
      <trkpt lat="46.87293" lon="8.50307">
        <ele>1515</ele>
        <time>2021-08-11T10:48:30.126Z</time>
      </trkpt>
      <trkpt lat="46.87293" lon="8.50308">
        <ele>1515</ele>
        <time>2021-08-11T10:48:31.126Z</time>
      </trkpt>
      <trkpt lat="46.87293" lon="8.5031">
        <ele>1515</ele>
        <time>2021-08-11T10:48:32.126Z</time>
      </trkpt>
      <trkpt lat="46.87293" lon="8.50312">
        <ele>1515</ele>
        <time>2021-08-11T10:48:33.126Z</time>
      </trkpt>
      <trkpt lat="46.87293" lon="8.50313">
        <ele>1515</ele>
        <time>2021-08-11T10:48:34.126Z</time>
      </trkpt>
      <trkpt lat="46.87293" lon="8.50315">
        <ele>1516</ele>
        <time>2021-08-11T10:48:35.126Z</time>
      </trkpt>
      <trkpt lat="46.87293" lon="8.50316">
        <ele>1516</ele>
        <time>2021-08-11T10:48:36.125Z</time>
      </trkpt>
      <trkpt lat="46.87294" lon="8.50317">
        <ele>1517</ele>
        <time>2021-08-11T10:48:37.125Z</time>
      </trkpt>
      <trkpt lat="46.87294" lon="8.50319">
        <ele>1517</ele>
        <time>2021-08-11T10:48:38.126Z</time>
      </trkpt>
      <trkpt lat="46.87295" lon="8.50319">
        <ele>1518</ele>
        <time>2021-08-11T10:48:39.126Z</time>
      </trkpt>
      <trkpt lat="46.87295" lon="8.5032">
        <ele>1518</ele>
        <time>2021-08-11T10:48:40.126Z</time>
      </trkpt>
      <trkpt lat="46.87296" lon="8.50321">
        <ele>1518</ele>
        <time>2021-08-11T10:48:41.126Z</time>
      </trkpt>
      <trkpt lat="46.87296" lon="8.50322">
        <ele>1518</ele>
        <time>2021-08-11T10:48:42.126Z</time>
      </trkpt>
      <trkpt lat="46.87297" lon="8.50323">
        <ele>1518</ele>
        <time>2021-08-11T10:48:43.126Z</time>
      </trkpt>
      <trkpt lat="46.87298" lon="8.50325">
        <ele>1518</ele>
        <time>2021-08-11T10:48:44.126Z</time>
      </trkpt>
      <trkpt lat="46.87299" lon="8.50324">
        <ele>1518</ele>
        <time>2021-08-11T10:48:45.126Z</time>
      </trkpt>
      <trkpt lat="46.87301" lon="8.50323">
        <ele>1518</ele>
        <time>2021-08-11T10:48:46.126Z</time>
      </trkpt>
      <trkpt lat="46.87302" lon="8.50321">
        <ele>1518</ele>
        <time>2021-08-11T10:48:47.126Z</time>
      </trkpt>
      <trkpt lat="46.87303" lon="8.50319">
        <ele>1519</ele>
        <time>2021-08-11T10:48:48.126Z</time>
      </trkpt>
      <trkpt lat="46.87303" lon="8.50317">
        <ele>1519</ele>
        <time>2021-08-11T10:48:49.126Z</time>
      </trkpt>
      <trkpt lat="46.87303" lon="8.50316">
        <ele>1520</ele>
        <time>2021-08-11T10:48:52.103Z</time>
      </trkpt>
      <trkpt lat="46.87302" lon="8.50315">
        <ele>1520</ele>
        <time>2021-08-11T10:48:53.104Z</time>
      </trkpt>
      <trkpt lat="46.87302" lon="8.50314">
        <ele>1520</ele>
        <time>2021-08-11T10:48:54.104Z</time>
      </trkpt>
      <trkpt lat="46.87301" lon="8.50312">
        <ele>1520</ele>
        <time>2021-08-11T10:48:55.104Z</time>
      </trkpt>
      <trkpt lat="46.87301" lon="8.50311">
        <ele>1520</ele>
        <time>2021-08-11T10:48:56.103Z</time>
      </trkpt>
      <trkpt lat="46.87301" lon="8.5031">
        <ele>1519</ele>
        <time>2021-08-11T10:48:57.104Z</time>
      </trkpt>
      <trkpt lat="46.87301" lon="8.50309">
        <ele>1518</ele>
        <time>2021-08-11T10:48:58.104Z</time>
      </trkpt>
      <trkpt lat="46.87301" lon="8.50308">
        <ele>1517</ele>
        <time>2021-08-11T10:48:59.104Z</time>
      </trkpt>
      <trkpt lat="46.87301" lon="8.50307">
        <ele>1517</ele>
        <time>2021-08-11T10:49:00.104Z</time>
      </trkpt>
      <trkpt lat="46.87301" lon="8.50306">
        <ele>1516</ele>
        <time>2021-08-11T10:49:01.103Z</time>
      </trkpt>
      <trkpt lat="46.873" lon="8.50305">
        <ele>1516</ele>
        <time>2021-08-11T10:49:02.104Z</time>
      </trkpt>
      <trkpt lat="46.873" lon="8.50303">
        <ele>1515</ele>
        <time>2021-08-11T10:49:03.104Z</time>
      </trkpt>
      <trkpt lat="46.873" lon="8.50302">
        <ele>1514</ele>
        <time>2021-08-11T10:49:04.104Z</time>
      </trkpt>
      <trkpt lat="46.873" lon="8.50301">
        <ele>1514</ele>
        <time>2021-08-11T10:49:05.103Z</time>
      </trkpt>
      <trkpt lat="46.87301" lon="8.503">
        <ele>1513</ele>
        <time>2021-08-11T10:49:06.103Z</time>
      </trkpt>
      <trkpt lat="46.87302" lon="8.50298">
        <ele>1513</ele>
        <time>2021-08-11T10:49:07.104Z</time>
      </trkpt>
      <trkpt lat="46.87302" lon="8.50297">
        <ele>1512</ele>
        <time>2021-08-11T10:49:08.103Z</time>
      </trkpt>
      <trkpt lat="46.87303" lon="8.50296">
        <ele>1512</ele>
        <time>2021-08-11T10:49:09.104Z</time>
      </trkpt>
      <trkpt lat="46.87303" lon="8.50294">
        <ele>1512</ele>
        <time>2021-08-11T10:49:10.103Z</time>
      </trkpt>
      <trkpt lat="46.87304" lon="8.50293">
        <ele>1512</ele>
        <time>2021-08-11T10:49:11.104Z</time>
      </trkpt>
      <trkpt lat="46.87304" lon="8.50292">
        <ele>1511</ele>
        <time>2021-08-11T10:49:12.104Z</time>
      </trkpt>
      <trkpt lat="46.87304" lon="8.50291">
        <ele>1511</ele>
        <time>2021-08-11T10:49:13.104Z</time>
      </trkpt>
      <trkpt lat="46.87305" lon="8.5029">
        <ele>1511</ele>
        <time>2021-08-11T10:49:14.103Z</time>
      </trkpt>
      <trkpt lat="46.87305" lon="8.50288">
        <ele>1510</ele>
        <time>2021-08-11T10:49:15.103Z</time>
      </trkpt>
      <trkpt lat="46.87305" lon="8.50287">
        <ele>1510</ele>
        <time>2021-08-11T10:49:16.104Z</time>
      </trkpt>
      <trkpt lat="46.87306" lon="8.50287">
        <ele>1510</ele>
        <time>2021-08-11T10:49:17.104Z</time>
      </trkpt>
      <trkpt lat="46.87306" lon="8.50285">
        <ele>1509</ele>
        <time>2021-08-11T10:49:18.104Z</time>
      </trkpt>
      <trkpt lat="46.87306" lon="8.50284">
        <ele>1509</ele>
        <time>2021-08-11T10:49:19.103Z</time>
      </trkpt>
      <trkpt lat="46.87307" lon="8.50283">
        <ele>1508</ele>
        <time>2021-08-11T10:49:20.104Z</time>
      </trkpt>
      <trkpt lat="46.87308" lon="8.50281">
        <ele>1508</ele>
        <time>2021-08-11T10:49:21.103Z</time>
      </trkpt>
      <trkpt lat="46.87309" lon="8.5028">
        <ele>1507</ele>
        <time>2021-08-11T10:49:22.103Z</time>
      </trkpt>
      <trkpt lat="46.8731" lon="8.50278">
        <ele>1507</ele>
        <time>2021-08-11T10:49:23.103Z</time>
      </trkpt>
      <trkpt lat="46.8731" lon="8.50277">
        <ele>1507</ele>
        <time>2021-08-11T10:49:24.104Z</time>
      </trkpt>
      <trkpt lat="46.8731" lon="8.50275">
        <ele>1507</ele>
        <time>2021-08-11T10:49:25.103Z</time>
      </trkpt>
      <trkpt lat="46.8731" lon="8.50274">
        <ele>1507</ele>
        <time>2021-08-11T10:49:26.104Z</time>
      </trkpt>
      <trkpt lat="46.87311" lon="8.50273">
        <ele>1507</ele>
        <time>2021-08-11T10:49:27.104Z</time>
      </trkpt>
      <trkpt lat="46.87311" lon="8.50272">
        <ele>1506</ele>
        <time>2021-08-11T10:49:28.104Z</time>
      </trkpt>
      <trkpt lat="46.87311" lon="8.50272">
        <ele>1505</ele>
        <time>2021-08-11T10:49:29.103Z</time>
      </trkpt>
      <trkpt lat="46.87312" lon="8.50271">
        <ele>1505</ele>
        <time>2021-08-11T10:49:30.103Z</time>
      </trkpt>
      <trkpt lat="46.87313" lon="8.50269">
        <ele>1504</ele>
        <time>2021-08-11T10:49:31.104Z</time>
      </trkpt>
      <trkpt lat="46.87314" lon="8.50268">
        <ele>1504</ele>
        <time>2021-08-11T10:49:32.104Z</time>
      </trkpt>
      <trkpt lat="46.87314" lon="8.50267">
        <ele>1504</ele>
        <time>2021-08-11T10:49:33.104Z</time>
      </trkpt>
      <trkpt lat="46.87316" lon="8.50266">
        <ele>1504</ele>
        <time>2021-08-11T10:49:34.103Z</time>
      </trkpt>
      <trkpt lat="46.87318" lon="8.50265">
        <ele>1504</ele>
        <time>2021-08-11T10:49:35.104Z</time>
      </trkpt>
      <trkpt lat="46.8732" lon="8.50265">
        <ele>1503</ele>
        <time>2021-08-11T10:49:36.104Z</time>
      </trkpt>
      <trkpt lat="46.87321" lon="8.50264">
        <ele>1503</ele>
        <time>2021-08-11T10:49:37.104Z</time>
      </trkpt>
      <trkpt lat="46.87322" lon="8.50262">
        <ele>1503</ele>
        <time>2021-08-11T10:49:38.104Z</time>
      </trkpt>
      <trkpt lat="46.87323" lon="8.50261">
        <ele>1503</ele>
        <time>2021-08-11T10:49:39.103Z</time>
      </trkpt>
      <trkpt lat="46.87324" lon="8.5026">
        <ele>1503</ele>
        <time>2021-08-11T10:49:40.104Z</time>
      </trkpt>
      <trkpt lat="46.87326" lon="8.50259">
        <ele>1504</ele>
        <time>2021-08-11T10:49:41.104Z</time>
      </trkpt>
      <trkpt lat="46.87327" lon="8.50257">
        <ele>1504</ele>
        <time>2021-08-11T10:49:42.103Z</time>
      </trkpt>
      <trkpt lat="46.87327" lon="8.50256">
        <ele>1504</ele>
        <time>2021-08-11T10:49:43.103Z</time>
      </trkpt>
      <trkpt lat="46.87328" lon="8.50254">
        <ele>1504</ele>
        <time>2021-08-11T10:49:44.104Z</time>
      </trkpt>
      <trkpt lat="46.87328" lon="8.50253">
        <ele>1504</ele>
        <time>2021-08-11T10:49:45.104Z</time>
      </trkpt>
      <trkpt lat="46.87329" lon="8.50252">
        <ele>1504</ele>
        <time>2021-08-11T10:49:46.104Z</time>
      </trkpt>
      <trkpt lat="46.8733" lon="8.5025">
        <ele>1504</ele>
        <time>2021-08-11T10:49:47.104Z</time>
      </trkpt>
      <trkpt lat="46.8733" lon="8.50249">
        <ele>1505</ele>
        <time>2021-08-11T10:49:48.103Z</time>
      </trkpt>
      <trkpt lat="46.87331" lon="8.50248">
        <ele>1505</ele>
        <time>2021-08-11T10:49:49.104Z</time>
      </trkpt>
      <trkpt lat="46.8733" lon="8.50247">
        <ele>1504</ele>
        <time>2021-08-11T10:49:50.104Z</time>
      </trkpt>
      <trkpt lat="46.8733" lon="8.50246">
        <ele>1504</ele>
        <time>2021-08-11T10:49:51.104Z</time>
      </trkpt>
      <trkpt lat="46.8733" lon="8.50244">
        <ele>1503</ele>
        <time>2021-08-11T10:49:52.103Z</time>
      </trkpt>
      <trkpt lat="46.87329" lon="8.50243">
        <ele>1503</ele>
        <time>2021-08-11T10:49:53.104Z</time>
      </trkpt>
      <trkpt lat="46.8733" lon="8.50243">
        <ele>1502</ele>
        <time>2021-08-11T10:49:54.103Z</time>
      </trkpt>
      <trkpt lat="46.8733" lon="8.50242">
        <ele>1502</ele>
        <time>2021-08-11T10:49:55.104Z</time>
      </trkpt>
      <trkpt lat="46.87331" lon="8.50242">
        <ele>1501</ele>
        <time>2021-08-11T10:49:56.104Z</time>
      </trkpt>
      <trkpt lat="46.87331" lon="8.50242">
        <ele>1500</ele>
        <time>2021-08-11T10:49:57.103Z</time>
      </trkpt>
      <trkpt lat="46.87332" lon="8.50241">
        <ele>1499</ele>
        <time>2021-08-11T10:49:58.103Z</time>
      </trkpt>
      <trkpt lat="46.87333" lon="8.5024">
        <ele>1499</ele>
        <time>2021-08-11T10:49:59.104Z</time>
      </trkpt>
      <trkpt lat="46.87334" lon="8.50239">
        <ele>1498</ele>
        <time>2021-08-11T10:50:00.104Z</time>
      </trkpt>
      <trkpt lat="46.87335" lon="8.50238">
        <ele>1498</ele>
        <time>2021-08-11T10:50:01.104Z</time>
      </trkpt>
      <trkpt lat="46.87335" lon="8.50237">
        <ele>1497</ele>
        <time>2021-08-11T10:50:02.103Z</time>
      </trkpt>
      <trkpt lat="46.87336" lon="8.50236">
        <ele>1496</ele>
        <time>2021-08-11T10:50:03.103Z</time>
      </trkpt>
      <trkpt lat="46.87337" lon="8.50236">
        <ele>1496</ele>
        <time>2021-08-11T10:50:04.104Z</time>
      </trkpt>
      <trkpt lat="46.87337" lon="8.50236">
        <ele>1495</ele>
        <time>2021-08-11T10:50:05.104Z</time>
      </trkpt>
      <trkpt lat="46.87337" lon="8.50236">
        <ele>1494</ele>
        <time>2021-08-11T10:50:06.103Z</time>
      </trkpt>
      <trkpt lat="46.87338" lon="8.50234">
        <ele>1493</ele>
        <time>2021-08-11T10:50:07.104Z</time>
      </trkpt>
      <trkpt lat="46.87338" lon="8.50233">
        <ele>1492</ele>
        <time>2021-08-11T10:50:08.104Z</time>
      </trkpt>
      <trkpt lat="46.87339" lon="8.50232">
        <ele>1491</ele>
        <time>2021-08-11T10:50:09.104Z</time>
      </trkpt>
      <trkpt lat="46.8734" lon="8.50231">
        <ele>1490</ele>
        <time>2021-08-11T10:50:10.104Z</time>
      </trkpt>
      <trkpt lat="46.87341" lon="8.50229">
        <ele>1490</ele>
        <time>2021-08-11T10:50:11.103Z</time>
      </trkpt>
      <trkpt lat="46.87342" lon="8.50228">
        <ele>1489</ele>
        <time>2021-08-11T10:50:12.104Z</time>
      </trkpt>
      <trkpt lat="46.87342" lon="8.50227">
        <ele>1489</ele>
        <time>2021-08-11T10:50:13.104Z</time>
      </trkpt>
      <trkpt lat="46.87343" lon="8.50226">
        <ele>1489</ele>
        <time>2021-08-11T10:50:14.104Z</time>
      </trkpt>
      <trkpt lat="46.87344" lon="8.50226">
        <ele>1488</ele>
        <time>2021-08-11T10:50:24.120Z</time>
      </trkpt>
      <trkpt lat="46.87345" lon="8.50224">
        <ele>1488</ele>
        <time>2021-08-11T10:50:25.120Z</time>
      </trkpt>
      <trkpt lat="46.87345" lon="8.50223">
        <ele>1488</ele>
        <time>2021-08-11T10:50:26.121Z</time>
      </trkpt>
      <trkpt lat="46.87346" lon="8.50222">
        <ele>1488</ele>
        <time>2021-08-11T10:50:27.121Z</time>
      </trkpt>
      <trkpt lat="46.87347" lon="8.50222">
        <ele>1488</ele>
        <time>2021-08-11T10:50:28.121Z</time>
      </trkpt>
      <trkpt lat="46.87348" lon="8.50221">
        <ele>1489</ele>
        <time>2021-08-11T10:50:29.120Z</time>
      </trkpt>
      <trkpt lat="46.87349" lon="8.50221">
        <ele>1489</ele>
        <time>2021-08-11T10:50:30.121Z</time>
      </trkpt>
      <trkpt lat="46.8735" lon="8.5022">
        <ele>1490</ele>
        <time>2021-08-11T10:50:31.121Z</time>
      </trkpt>
      <trkpt lat="46.8735" lon="8.50219">
        <ele>1490</ele>
        <time>2021-08-11T10:50:32.121Z</time>
      </trkpt>
      <trkpt lat="46.87351" lon="8.50218">
        <ele>1490</ele>
        <time>2021-08-11T10:50:33.120Z</time>
      </trkpt>
      <trkpt lat="46.87352" lon="8.50217">
        <ele>1489</ele>
        <time>2021-08-11T10:50:34.120Z</time>
      </trkpt>
      <trkpt lat="46.87352" lon="8.50216">
        <ele>1489</ele>
        <time>2021-08-11T10:50:43.263Z</time>
      </trkpt>
      <trkpt lat="46.87353" lon="8.50215">
        <ele>1489</ele>
        <time>2021-08-11T10:50:44.263Z</time>
      </trkpt>
      <trkpt lat="46.87354" lon="8.50214">
        <ele>1489</ele>
        <time>2021-08-11T10:50:45.263Z</time>
      </trkpt>
      <trkpt lat="46.87354" lon="8.50213">
        <ele>1489</ele>
        <time>2021-08-11T10:50:50.992Z</time>
      </trkpt>
      <trkpt lat="46.87355" lon="8.50212">
        <ele>1490</ele>
        <time>2021-08-11T10:50:51.993Z</time>
      </trkpt>
      <trkpt lat="46.87355" lon="8.50211">
        <ele>1490</ele>
        <time>2021-08-11T10:50:52.993Z</time>
      </trkpt>
      <trkpt lat="46.87356" lon="8.5021">
        <ele>1491</ele>
        <time>2021-08-11T10:50:53.993Z</time>
      </trkpt>
      <trkpt lat="46.87357" lon="8.50208">
        <ele>1491</ele>
        <time>2021-08-11T10:50:54.993Z</time>
      </trkpt>
      <trkpt lat="46.87358" lon="8.50206">
        <ele>1492</ele>
        <time>2021-08-11T10:50:55.992Z</time>
      </trkpt>
      <trkpt lat="46.87359" lon="8.50204">
        <ele>1492</ele>
        <time>2021-08-11T10:50:56.993Z</time>
      </trkpt>
      <trkpt lat="46.87361" lon="8.50203">
        <ele>1492</ele>
        <time>2021-08-11T10:50:57.993Z</time>
      </trkpt>
      <trkpt lat="46.87362" lon="8.50202">
        <ele>1492</ele>
        <time>2021-08-11T10:51:10.115Z</time>
      </trkpt>
      <trkpt lat="46.87364" lon="8.50201">
        <ele>1492</ele>
        <time>2021-08-11T10:51:11.116Z</time>
      </trkpt>
      <trkpt lat="46.87365" lon="8.502">
        <ele>1492</ele>
        <time>2021-08-11T10:51:12.116Z</time>
      </trkpt>
      <trkpt lat="46.87365" lon="8.50199">
        <ele>1491</ele>
        <time>2021-08-11T10:51:13.116Z</time>
      </trkpt>
      <trkpt lat="46.87366" lon="8.50198">
        <ele>1491</ele>
        <time>2021-08-11T10:51:14.115Z</time>
      </trkpt>
      <trkpt lat="46.87367" lon="8.50196">
        <ele>1491</ele>
        <time>2021-08-11T10:51:15.115Z</time>
      </trkpt>
      <trkpt lat="46.87367" lon="8.50195">
        <ele>1490</ele>
        <time>2021-08-11T10:51:16.116Z</time>
      </trkpt>
      <trkpt lat="46.87368" lon="8.50193">
        <ele>1490</ele>
        <time>2021-08-11T10:51:17.116Z</time>
      </trkpt>
      <trkpt lat="46.87369" lon="8.50192">
        <ele>1490</ele>
        <time>2021-08-11T10:51:18.115Z</time>
      </trkpt>
      <trkpt lat="46.8737" lon="8.50192">
        <ele>1489</ele>
        <time>2021-08-11T10:51:19.116Z</time>
      </trkpt>
      <trkpt lat="46.87371" lon="8.50192">
        <ele>1489</ele>
        <time>2021-08-11T10:51:20.116Z</time>
      </trkpt>
      <trkpt lat="46.87371" lon="8.50191">
        <ele>1488</ele>
        <time>2021-08-11T10:51:21.115Z</time>
      </trkpt>
      <trkpt lat="46.87373" lon="8.5019">
        <ele>1488</ele>
        <time>2021-08-11T10:51:22.115Z</time>
      </trkpt>
      <trkpt lat="46.87374" lon="8.50189">
        <ele>1488</ele>
        <time>2021-08-11T10:51:23.116Z</time>
      </trkpt>
      <trkpt lat="46.87375" lon="8.50188">
        <ele>1488</ele>
        <time>2021-08-11T10:51:24.116Z</time>
      </trkpt>
      <trkpt lat="46.87376" lon="8.50187">
        <ele>1488</ele>
        <time>2021-08-11T10:51:25.115Z</time>
      </trkpt>
      <trkpt lat="46.87377" lon="8.50186">
        <ele>1489</ele>
        <time>2021-08-11T10:51:26.115Z</time>
      </trkpt>
      <trkpt lat="46.87378" lon="8.50185">
        <ele>1490</ele>
        <time>2021-08-11T10:51:27.115Z</time>
      </trkpt>
      <trkpt lat="46.8738" lon="8.50183">
        <ele>1490</ele>
        <time>2021-08-11T10:51:28.115Z</time>
      </trkpt>
      <trkpt lat="46.87381" lon="8.50182">
        <ele>1491</ele>
        <time>2021-08-11T10:51:29.115Z</time>
      </trkpt>
      <trkpt lat="46.87382" lon="8.5018">
        <ele>1491</ele>
        <time>2021-08-11T10:51:30.115Z</time>
      </trkpt>
      <trkpt lat="46.87382" lon="8.50178">
        <ele>1492</ele>
        <time>2021-08-11T10:51:31.116Z</time>
      </trkpt>
      <trkpt lat="46.87382" lon="8.50177">
        <ele>1492</ele>
        <time>2021-08-11T10:51:32.115Z</time>
      </trkpt>
      <trkpt lat="46.87381" lon="8.50175">
        <ele>1493</ele>
        <time>2021-08-11T10:51:33.116Z</time>
      </trkpt>
      <trkpt lat="46.87381" lon="8.50175">
        <ele>1494</ele>
        <time>2021-08-11T10:51:34.116Z</time>
      </trkpt>
      <trkpt lat="46.87381" lon="8.50174">
        <ele>1495</ele>
        <time>2021-08-11T10:51:35.116Z</time>
      </trkpt>
      <trkpt lat="46.8738" lon="8.50174">
        <ele>1495</ele>
        <time>2021-08-11T10:51:36.115Z</time>
      </trkpt>
      <trkpt lat="46.8738" lon="8.50174">
        <ele>1496</ele>
        <time>2021-08-11T10:51:37.116Z</time>
      </trkpt>
      <trkpt lat="46.8738" lon="8.50173">
        <ele>1499</ele>
        <time>2021-08-11T10:51:38.117Z</time>
      </trkpt>
      <trkpt lat="46.8738" lon="8.50173">
        <ele>1499</ele>
        <time>2021-08-11T10:51:39.117Z</time>
      </trkpt>
      <trkpt lat="46.8738" lon="8.50172">
        <ele>1498</ele>
        <time>2021-08-11T10:51:40.116Z</time>
      </trkpt>
      <trkpt lat="46.87379" lon="8.50168">
        <ele>1497</ele>
        <time>2021-08-11T10:51:41.116Z</time>
      </trkpt>
      <trkpt lat="46.8738" lon="8.50167">
        <ele>1497</ele>
        <time>2021-08-11T10:51:42.116Z</time>
      </trkpt>
      <trkpt lat="46.8738" lon="8.50167">
        <ele>1497</ele>
        <time>2021-08-11T10:51:43.117Z</time>
      </trkpt>
      <trkpt lat="46.87381" lon="8.50167">
        <ele>1495</ele>
        <time>2021-08-11T10:51:44.118Z</time>
      </trkpt>
      <trkpt lat="46.87381" lon="8.50166">
        <ele>1495</ele>
        <time>2021-08-11T10:51:45.117Z</time>
      </trkpt>
      <trkpt lat="46.87381" lon="8.50165">
        <ele>1495</ele>
        <time>2021-08-11T10:51:46.118Z</time>
      </trkpt>
      <trkpt lat="46.87382" lon="8.50164">
        <ele>1495</ele>
        <time>2021-08-11T10:51:47.118Z</time>
      </trkpt>
      <trkpt lat="46.87382" lon="8.50164">
        <ele>1495</ele>
        <time>2021-08-11T10:51:48.117Z</time>
      </trkpt>
      <trkpt lat="46.87382" lon="8.50163">
        <ele>1495</ele>
        <time>2021-08-11T10:51:49.118Z</time>
      </trkpt>
      <trkpt lat="46.87383" lon="8.50163">
        <ele>1495</ele>
        <time>2021-08-11T10:51:50.118Z</time>
      </trkpt>
      <trkpt lat="46.87383" lon="8.50162">
        <ele>1495</ele>
        <time>2021-08-11T10:51:51.118Z</time>
      </trkpt>
      <trkpt lat="46.87384" lon="8.50161">
        <ele>1495</ele>
        <time>2021-08-11T10:51:52.118Z</time>
      </trkpt>
      <trkpt lat="46.87384" lon="8.50161">
        <ele>1495</ele>
        <time>2021-08-11T10:51:53.118Z</time>
      </trkpt>
      <trkpt lat="46.87384" lon="8.5016">
        <ele>1495</ele>
        <time>2021-08-11T10:51:54.118Z</time>
      </trkpt>
      <trkpt lat="46.87384" lon="8.50159">
        <ele>1495</ele>
        <time>2021-08-11T10:51:55.118Z</time>
      </trkpt>
      <trkpt lat="46.87385" lon="8.50159">
        <ele>1495</ele>
        <time>2021-08-11T10:51:56.118Z</time>
      </trkpt>
      <trkpt lat="46.87385" lon="8.50158">
        <ele>1495</ele>
        <time>2021-08-11T10:51:57.118Z</time>
      </trkpt>
      <trkpt lat="46.87385" lon="8.50157">
        <ele>1495</ele>
        <time>2021-08-11T10:51:58.117Z</time>
      </trkpt>
      <trkpt lat="46.87386" lon="8.50157">
        <ele>1494</ele>
        <time>2021-08-11T10:51:59.117Z</time>
      </trkpt>
      <trkpt lat="46.87386" lon="8.50157">
        <ele>1494</ele>
        <time>2021-08-11T10:52:00.118Z</time>
      </trkpt>
      <trkpt lat="46.87387" lon="8.50156">
        <ele>1494</ele>
        <time>2021-08-11T10:52:01.118Z</time>
      </trkpt>
      <trkpt lat="46.87386" lon="8.50155">
        <ele>1494</ele>
        <time>2021-08-11T10:52:02.118Z</time>
      </trkpt>
      <trkpt lat="46.87387" lon="8.50154">
        <ele>1494</ele>
        <time>2021-08-11T10:52:03.118Z</time>
      </trkpt>
      <trkpt lat="46.87387" lon="8.50153">
        <ele>1494</ele>
        <time>2021-08-11T10:52:04.118Z</time>
      </trkpt>
      <trkpt lat="46.87387" lon="8.50152">
        <ele>1494</ele>
        <time>2021-08-11T10:52:05.118Z</time>
      </trkpt>
      <trkpt lat="46.87387" lon="8.50151">
        <ele>1494</ele>
        <time>2021-08-11T10:52:06.118Z</time>
      </trkpt>
      <trkpt lat="46.87387" lon="8.5015">
        <ele>1494</ele>
        <time>2021-08-11T10:52:07.118Z</time>
      </trkpt>
      <trkpt lat="46.87388" lon="8.50149">
        <ele>1495</ele>
        <time>2021-08-11T10:52:08.117Z</time>
      </trkpt>
      <trkpt lat="46.87388" lon="8.50148">
        <ele>1495</ele>
        <time>2021-08-11T10:52:09.117Z</time>
      </trkpt>
      <trkpt lat="46.87389" lon="8.50147">
        <ele>1495</ele>
        <time>2021-08-11T10:52:10.117Z</time>
      </trkpt>
      <trkpt lat="46.87389" lon="8.50146">
        <ele>1496</ele>
        <time>2021-08-11T10:52:11.117Z</time>
      </trkpt>
      <trkpt lat="46.8739" lon="8.50145">
        <ele>1496</ele>
        <time>2021-08-11T10:52:12.118Z</time>
      </trkpt>
      <trkpt lat="46.87391" lon="8.50144">
        <ele>1496</ele>
        <time>2021-08-11T10:52:13.117Z</time>
      </trkpt>
      <trkpt lat="46.87391" lon="8.50143">
        <ele>1496</ele>
        <time>2021-08-11T10:52:14.118Z</time>
      </trkpt>
      <trkpt lat="46.87392" lon="8.50143">
        <ele>1496</ele>
        <time>2021-08-11T10:52:15.118Z</time>
      </trkpt>
      <trkpt lat="46.87394" lon="8.50143">
        <ele>1495</ele>
        <time>2021-08-11T10:52:16.117Z</time>
      </trkpt>
      <trkpt lat="46.87394" lon="8.50142">
        <ele>1495</ele>
        <time>2021-08-11T10:52:17.118Z</time>
      </trkpt>
      <trkpt lat="46.87394" lon="8.50141">
        <ele>1495</ele>
        <time>2021-08-11T10:52:18.118Z</time>
      </trkpt>
      <trkpt lat="46.87394" lon="8.5014">
        <ele>1496</ele>
        <time>2021-08-11T10:52:19.117Z</time>
      </trkpt>
      <trkpt lat="46.87395" lon="8.50139">
        <ele>1496</ele>
        <time>2021-08-11T10:52:20.118Z</time>
      </trkpt>
      <trkpt lat="46.87396" lon="8.50138">
        <ele>1496</ele>
        <time>2021-08-11T10:52:21.118Z</time>
      </trkpt>
      <trkpt lat="46.87397" lon="8.50137">
        <ele>1497</ele>
        <time>2021-08-11T10:52:22.118Z</time>
      </trkpt>
      <trkpt lat="46.87398" lon="8.50136">
        <ele>1497</ele>
        <time>2021-08-11T10:52:23.118Z</time>
      </trkpt>
      <trkpt lat="46.87398" lon="8.50135">
        <ele>1497</ele>
        <time>2021-08-11T10:52:24.117Z</time>
      </trkpt>
      <trkpt lat="46.87398" lon="8.50135">
        <ele>1498</ele>
        <time>2021-08-11T10:52:25.117Z</time>
      </trkpt>
      <trkpt lat="46.87398" lon="8.50133">
        <ele>1498</ele>
        <time>2021-08-11T10:52:26.118Z</time>
      </trkpt>
      <trkpt lat="46.87398" lon="8.50132">
        <ele>1498</ele>
        <time>2021-08-11T10:52:34.123Z</time>
      </trkpt>
      <trkpt lat="46.87398" lon="8.50131">
        <ele>1498</ele>
        <time>2021-08-11T10:52:35.123Z</time>
      </trkpt>
      <trkpt lat="46.87398" lon="8.5013">
        <ele>1498</ele>
        <time>2021-08-11T10:52:36.123Z</time>
      </trkpt>
      <trkpt lat="46.87398" lon="8.5013">
        <ele>1498</ele>
        <time>2021-08-11T10:52:43.146Z</time>
      </trkpt>
      <trkpt lat="46.87398" lon="8.50129">
        <ele>1498</ele>
        <time>2021-08-11T10:52:44.146Z</time>
      </trkpt>
      <trkpt lat="46.87397" lon="8.50129">
        <ele>1498</ele>
        <time>2021-08-11T10:52:45.871Z</time>
      </trkpt>
      <trkpt lat="46.87396" lon="8.50128">
        <ele>1497</ele>
        <time>2021-08-11T10:52:46.872Z</time>
      </trkpt>
      <trkpt lat="46.87394" lon="8.50126">
        <ele>1495</ele>
        <time>2021-08-11T10:52:47.874Z</time>
      </trkpt>
      <trkpt lat="46.87393" lon="8.50126">
        <ele>1495</ele>
        <time>2021-08-11T10:52:48.873Z</time>
      </trkpt>
      <trkpt lat="46.87393" lon="8.50126">
        <ele>1495</ele>
        <time>2021-08-11T10:52:49.873Z</time>
      </trkpt>
      <trkpt lat="46.87391" lon="8.50124">
        <ele>1496</ele>
        <time>2021-08-11T10:52:50.875Z</time>
      </trkpt>
      <trkpt lat="46.87391" lon="8.50124">
        <ele>1497</ele>
        <time>2021-08-11T10:52:51.875Z</time>
      </trkpt>
      <trkpt lat="46.87391" lon="8.50124">
        <ele>1497</ele>
        <time>2021-08-11T10:53:19.893Z</time>
      </trkpt>
      <trkpt lat="46.87392" lon="8.50123">
        <ele>1497</ele>
        <time>2021-08-11T10:53:20.892Z</time>
      </trkpt>
      <trkpt lat="46.87393" lon="8.50123">
        <ele>1498</ele>
        <time>2021-08-11T10:53:21.893Z</time>
      </trkpt>
      <trkpt lat="46.87393" lon="8.50122">
        <ele>1498</ele>
        <time>2021-08-11T10:53:22.893Z</time>
      </trkpt>
      <trkpt lat="46.87394" lon="8.50121">
        <ele>1498</ele>
        <time>2021-08-11T10:53:54.893Z</time>
      </trkpt>
      <trkpt lat="46.87394" lon="8.5012">
        <ele>1499</ele>
        <time>2021-08-11T10:53:55.893Z</time>
      </trkpt>
      <trkpt lat="46.87393" lon="8.50119">
        <ele>1499</ele>
        <time>2021-08-11T10:53:56.893Z</time>
      </trkpt>
      <trkpt lat="46.87393" lon="8.50119">
        <ele>1500</ele>
        <time>2021-08-11T10:53:57.893Z</time>
      </trkpt>
      <trkpt lat="46.87393" lon="8.50118">
        <ele>1500</ele>
        <time>2021-08-11T10:53:58.893Z</time>
      </trkpt>
      <trkpt lat="46.87393" lon="8.50117">
        <ele>1500</ele>
        <time>2021-08-11T10:54:27.870Z</time>
      </trkpt>
      <trkpt lat="46.87393" lon="8.50116">
        <ele>1500</ele>
        <time>2021-08-11T10:54:28.870Z</time>
      </trkpt>
      <trkpt lat="46.87393" lon="8.50115">
        <ele>1501</ele>
        <time>2021-08-11T10:54:29.869Z</time>
      </trkpt>
      <trkpt lat="46.87392" lon="8.50113">
        <ele>1501</ele>
        <time>2021-08-11T10:54:39.870Z</time>
      </trkpt>
      <trkpt lat="46.87392" lon="8.50113">
        <ele>1501</ele>
        <time>2021-08-11T10:54:40.869Z</time>
      </trkpt>
      <trkpt lat="46.87392" lon="8.50113">
        <ele>1502</ele>
        <time>2021-08-11T10:54:41.870Z</time>
      </trkpt>
      <trkpt lat="46.87392" lon="8.50112">
        <ele>1502</ele>
        <time>2021-08-11T10:54:42.870Z</time>
      </trkpt>
      <trkpt lat="46.87391" lon="8.50111">
        <ele>1502</ele>
        <time>2021-08-11T10:54:43.869Z</time>
      </trkpt>
      <trkpt lat="46.87391" lon="8.50109">
        <ele>1502</ele>
        <time>2021-08-11T10:54:49.889Z</time>
      </trkpt>
      <trkpt lat="46.8739" lon="8.50108">
        <ele>1502</ele>
        <time>2021-08-11T10:54:50.888Z</time>
      </trkpt>
      <trkpt lat="46.8739" lon="8.50107">
        <ele>1502</ele>
        <time>2021-08-11T10:54:56.621Z</time>
      </trkpt>
      <trkpt lat="46.8739" lon="8.50106">
        <ele>1503</ele>
        <time>2021-08-11T10:55:03.369Z</time>
      </trkpt>
      <trkpt lat="46.8739" lon="8.50105">
        <ele>1503</ele>
        <time>2021-08-11T10:55:04.368Z</time>
      </trkpt>
      <trkpt lat="46.8739" lon="8.50104">
        <ele>1503</ele>
        <time>2021-08-11T10:55:23.120Z</time>
      </trkpt>
      <trkpt lat="46.87389" lon="8.50103">
        <ele>1503</ele>
        <time>2021-08-11T10:55:24.120Z</time>
      </trkpt>
      <trkpt lat="46.8739" lon="8.50103">
        <ele>1503</ele>
        <time>2021-08-11T10:55:30.890Z</time>
      </trkpt>
      <trkpt lat="46.8739" lon="8.50102">
        <ele>1503</ele>
        <time>2021-08-11T10:55:35.611Z</time>
      </trkpt>
      <trkpt lat="46.87391" lon="8.50101">
        <ele>1503</ele>
        <time>2021-08-11T10:55:36.612Z</time>
      </trkpt>
      <trkpt lat="46.87392" lon="8.501">
        <ele>1504</ele>
        <time>2021-08-11T10:55:46.366Z</time>
      </trkpt>
      <trkpt lat="46.87393" lon="8.50099">
        <ele>1504</ele>
        <time>2021-08-11T10:56:15.117Z</time>
      </trkpt>
      <trkpt lat="46.87393" lon="8.50098">
        <ele>1505</ele>
        <time>2021-08-11T10:56:16.117Z</time>
      </trkpt>
      <trkpt lat="46.87392" lon="8.50097">
        <ele>1505</ele>
        <time>2021-08-11T10:56:38.861Z</time>
      </trkpt>
      <trkpt lat="46.87392" lon="8.50096">
        <ele>1504</ele>
        <time>2021-08-11T10:56:39.862Z</time>
      </trkpt>
      <trkpt lat="46.87392" lon="8.50096">
        <ele>1504</ele>
        <time>2021-08-11T10:56:49.737Z</time>
      </trkpt>
      <trkpt lat="46.87393" lon="8.50095">
        <ele>1504</ele>
        <time>2021-08-11T10:56:50.737Z</time>
      </trkpt>
      <trkpt lat="46.87393" lon="8.50094">
        <ele>1503</ele>
        <time>2021-08-11T10:56:51.736Z</time>
      </trkpt>
      <trkpt lat="46.87393" lon="8.50093">
        <ele>1503</ele>
        <time>2021-08-11T10:56:52.737Z</time>
      </trkpt>
      <trkpt lat="46.87393" lon="8.50091">
        <ele>1503</ele>
        <time>2021-08-11T10:56:53.737Z</time>
      </trkpt>
      <trkpt lat="46.87394" lon="8.50089">
        <ele>1504</ele>
        <time>2021-08-11T10:57:00.866Z</time>
      </trkpt>
      <trkpt lat="46.87394" lon="8.50088">
        <ele>1504</ele>
        <time>2021-08-11T10:57:01.866Z</time>
      </trkpt>
      <trkpt lat="46.87395" lon="8.50087">
        <ele>1504</ele>
        <time>2021-08-11T10:57:02.865Z</time>
      </trkpt>
      <trkpt lat="46.87395" lon="8.50086">
        <ele>1504</ele>
        <time>2021-08-11T10:57:03.866Z</time>
      </trkpt>
      <trkpt lat="46.87395" lon="8.50086">
        <ele>1504</ele>
        <time>2021-08-11T10:57:04.865Z</time>
      </trkpt>
      <trkpt lat="46.87395" lon="8.50086">
        <ele>1504</ele>
        <time>2021-08-11T10:57:05.866Z</time>
      </trkpt>
      <trkpt lat="46.87395" lon="8.50085">
        <ele>1503</ele>
        <time>2021-08-11T10:57:06.866Z</time>
      </trkpt>
      <trkpt lat="46.87394" lon="8.50083">
        <ele>1503</ele>
        <time>2021-08-11T10:57:07.865Z</time>
      </trkpt>
      <trkpt lat="46.87394" lon="8.50082">
        <ele>1503</ele>
        <time>2021-08-11T10:57:08.866Z</time>
      </trkpt>
      <trkpt lat="46.87393" lon="8.50082">
        <ele>1503</ele>
        <time>2021-08-11T10:57:09.865Z</time>
      </trkpt>
      <trkpt lat="46.87393" lon="8.50081">
        <ele>1503</ele>
        <time>2021-08-11T10:57:10.865Z</time>
      </trkpt>
      <trkpt lat="46.87393" lon="8.5008">
        <ele>1504</ele>
        <time>2021-08-11T10:57:11.866Z</time>
      </trkpt>
      <trkpt lat="46.87393" lon="8.5008">
        <ele>1504</ele>
        <time>2021-08-11T10:57:12.866Z</time>
      </trkpt>
      <trkpt lat="46.87393" lon="8.50079">
        <ele>1504</ele>
        <time>2021-08-11T10:57:20.868Z</time>
      </trkpt>
      <trkpt lat="46.87393" lon="8.50078">
        <ele>1504</ele>
        <time>2021-08-11T10:57:21.868Z</time>
      </trkpt>
      <trkpt lat="46.87393" lon="8.50077">
        <ele>1504</ele>
        <time>2021-08-11T10:57:37.614Z</time>
      </trkpt>
      <trkpt lat="46.87393" lon="8.50076">
        <ele>1504</ele>
        <time>2021-08-11T10:57:38.614Z</time>
      </trkpt>
      <trkpt lat="46.87393" lon="8.50074">
        <ele>1504</ele>
        <time>2021-08-11T10:57:49.365Z</time>
      </trkpt>
      <trkpt lat="46.87393" lon="8.50073">
        <ele>1504</ele>
        <time>2021-08-11T10:57:56.243Z</time>
      </trkpt>
      <trkpt lat="46.87393" lon="8.50072">
        <ele>1505</ele>
        <time>2021-08-11T10:57:57.243Z</time>
      </trkpt>
      <trkpt lat="46.87394" lon="8.50071">
        <ele>1505</ele>
        <time>2021-08-11T10:57:58.243Z</time>
      </trkpt>
      <trkpt lat="46.87394" lon="8.50071">
        <ele>1506</ele>
        <time>2021-08-11T10:58:02.367Z</time>
      </trkpt>
      <trkpt lat="46.87393" lon="8.5007">
        <ele>1506</ele>
        <time>2021-08-11T10:58:03.367Z</time>
      </trkpt>
      <trkpt lat="46.87393" lon="8.5007">
        <ele>1506</ele>
        <time>2021-08-11T10:58:04.366Z</time>
      </trkpt>
      <trkpt lat="46.87394" lon="8.50069">
        <ele>1506</ele>
        <time>2021-08-11T10:58:05.367Z</time>
      </trkpt>
      <trkpt lat="46.87393" lon="8.50068">
        <ele>1507</ele>
        <time>2021-08-11T10:58:17.511Z</time>
      </trkpt>
      <trkpt lat="46.87394" lon="8.50067">
        <ele>1507</ele>
        <time>2021-08-11T10:58:18.511Z</time>
      </trkpt>
      <trkpt lat="46.87394" lon="8.50066">
        <ele>1507</ele>
        <time>2021-08-11T10:58:19.512Z</time>
      </trkpt>
      <trkpt lat="46.87394" lon="8.50065">
        <ele>1507</ele>
        <time>2021-08-11T10:58:20.512Z</time>
      </trkpt>
      <trkpt lat="46.87393" lon="8.50065">
        <ele>1506</ele>
        <time>2021-08-11T10:58:21.511Z</time>
      </trkpt>
      <trkpt lat="46.87393" lon="8.50064">
        <ele>1506</ele>
        <time>2021-08-11T10:58:22.512Z</time>
      </trkpt>
      <trkpt lat="46.87392" lon="8.50063">
        <ele>1506</ele>
        <time>2021-08-11T10:58:23.512Z</time>
      </trkpt>
      <trkpt lat="46.87392" lon="8.50062">
        <ele>1506</ele>
        <time>2021-08-11T10:58:24.512Z</time>
      </trkpt>
      <trkpt lat="46.87392" lon="8.50061">
        <ele>1506</ele>
        <time>2021-08-11T10:58:25.512Z</time>
      </trkpt>
      <trkpt lat="46.87393" lon="8.5006">
        <ele>1506</ele>
        <time>2021-08-11T10:58:26.512Z</time>
      </trkpt>
      <trkpt lat="46.87393" lon="8.5006">
        <ele>1507</ele>
        <time>2021-08-11T10:58:27.512Z</time>
      </trkpt>
      <trkpt lat="46.87393" lon="8.50058">
        <ele>1507</ele>
        <time>2021-08-11T10:58:28.511Z</time>
      </trkpt>
      <trkpt lat="46.87394" lon="8.50057">
        <ele>1507</ele>
        <time>2021-08-11T10:58:29.511Z</time>
      </trkpt>
      <trkpt lat="46.87394" lon="8.50056">
        <ele>1507</ele>
        <time>2021-08-11T10:58:30.512Z</time>
      </trkpt>
      <trkpt lat="46.87394" lon="8.50055">
        <ele>1507</ele>
        <time>2021-08-11T10:58:31.512Z</time>
      </trkpt>
      <trkpt lat="46.87394" lon="8.50054">
        <ele>1508</ele>
        <time>2021-08-11T10:58:32.512Z</time>
      </trkpt>
      <trkpt lat="46.87394" lon="8.50053">
        <ele>1508</ele>
        <time>2021-08-11T10:58:33.512Z</time>
      </trkpt>
      <trkpt lat="46.87394" lon="8.50052">
        <ele>1508</ele>
        <time>2021-08-11T10:58:34.511Z</time>
      </trkpt>
      <trkpt lat="46.87394" lon="8.50051">
        <ele>1509</ele>
        <time>2021-08-11T10:58:35.512Z</time>
      </trkpt>
      <trkpt lat="46.87394" lon="8.50051">
        <ele>1509</ele>
        <time>2021-08-11T10:58:36.512Z</time>
      </trkpt>
      <trkpt lat="46.87394" lon="8.5005">
        <ele>1509</ele>
        <time>2021-08-11T10:58:37.512Z</time>
      </trkpt>
      <trkpt lat="46.87394" lon="8.50049">
        <ele>1509</ele>
        <time>2021-08-11T10:58:38.512Z</time>
      </trkpt>
      <trkpt lat="46.87393" lon="8.50048">
        <ele>1509</ele>
        <time>2021-08-11T10:58:39.512Z</time>
      </trkpt>
      <trkpt lat="46.87394" lon="8.50048">
        <ele>1509</ele>
        <time>2021-08-11T10:58:40.512Z</time>
      </trkpt>
      <trkpt lat="46.87394" lon="8.50047">
        <ele>1509</ele>
        <time>2021-08-11T10:58:41.512Z</time>
      </trkpt>
      <trkpt lat="46.87393" lon="8.50046">
        <ele>1509</ele>
        <time>2021-08-11T10:58:42.512Z</time>
      </trkpt>
      <trkpt lat="46.87393" lon="8.50046">
        <ele>1509</ele>
        <time>2021-08-11T10:58:43.512Z</time>
      </trkpt>
      <trkpt lat="46.87392" lon="8.50045">
        <ele>1510</ele>
        <time>2021-08-11T10:58:44.512Z</time>
      </trkpt>
      <trkpt lat="46.87392" lon="8.50045">
        <ele>1510</ele>
        <time>2021-08-11T10:58:45.512Z</time>
      </trkpt>
      <trkpt lat="46.87393" lon="8.50044">
        <ele>1511</ele>
        <time>2021-08-11T10:58:46.512Z</time>
      </trkpt>
      <trkpt lat="46.87393" lon="8.50044">
        <ele>1511</ele>
        <time>2021-08-11T10:58:47.512Z</time>
      </trkpt>
      <trkpt lat="46.87393" lon="8.50043">
        <ele>1511</ele>
        <time>2021-08-11T10:58:48.511Z</time>
      </trkpt>
      <trkpt lat="46.87393" lon="8.50042">
        <ele>1511</ele>
        <time>2021-08-11T10:58:49.512Z</time>
      </trkpt>
      <trkpt lat="46.87393" lon="8.50041">
        <ele>1511</ele>
        <time>2021-08-11T10:58:50.512Z</time>
      </trkpt>
      <trkpt lat="46.87391" lon="8.50041">
        <ele>1511</ele>
        <time>2021-08-11T10:58:51.512Z</time>
      </trkpt>
      <trkpt lat="46.87391" lon="8.5004">
        <ele>1511</ele>
        <time>2021-08-11T10:58:52.512Z</time>
      </trkpt>
      <trkpt lat="46.87389" lon="8.50042">
        <ele>1511</ele>
        <time>2021-08-11T10:58:53.512Z</time>
      </trkpt>
      <trkpt lat="46.87389" lon="8.50042">
        <ele>1510</ele>
        <time>2021-08-11T10:58:54.512Z</time>
      </trkpt>
      <trkpt lat="46.87388" lon="8.50042">
        <ele>1510</ele>
        <time>2021-08-11T10:58:55.512Z</time>
      </trkpt>
      <trkpt lat="46.87385" lon="8.50042">
        <ele>1507</ele>
        <time>2021-08-11T10:58:56.512Z</time>
      </trkpt>
      <trkpt lat="46.87387" lon="8.50042">
        <ele>1507</ele>
        <time>2021-08-11T10:58:57.513Z</time>
      </trkpt>
      <trkpt lat="46.87387" lon="8.50042">
        <ele>1507</ele>
        <time>2021-08-11T10:58:58.513Z</time>
      </trkpt>
      <trkpt lat="46.87387" lon="8.50042">
        <ele>1508</ele>
        <time>2021-08-11T10:58:59.512Z</time>
      </trkpt>
      <trkpt lat="46.87389" lon="8.50039">
        <ele>1514</ele>
        <time>2021-08-11T10:59:00.512Z</time>
      </trkpt>
      <trkpt lat="46.87389" lon="8.50038">
        <ele>1514</ele>
        <time>2021-08-11T10:59:01.513Z</time>
      </trkpt>
      <trkpt lat="46.8739" lon="8.50037">
        <ele>1514</ele>
        <time>2021-08-11T10:59:02.512Z</time>
      </trkpt>
      <trkpt lat="46.8739" lon="8.50037">
        <ele>1514</ele>
        <time>2021-08-11T10:59:03.512Z</time>
      </trkpt>
      <trkpt lat="46.8739" lon="8.50036">
        <ele>1515</ele>
        <time>2021-08-11T10:59:09.657Z</time>
      </trkpt>
      <trkpt lat="46.8739" lon="8.50036">
        <ele>1515</ele>
        <time>2021-08-11T10:59:10.657Z</time>
      </trkpt>
      <trkpt lat="46.8739" lon="8.50035">
        <ele>1515</ele>
        <time>2021-08-11T10:59:11.657Z</time>
      </trkpt>
      <trkpt lat="46.8739" lon="8.50035">
        <ele>1514</ele>
        <time>2021-08-11T10:59:12.657Z</time>
      </trkpt>
      <trkpt lat="46.87391" lon="8.50034">
        <ele>1514</ele>
        <time>2021-08-11T10:59:13.656Z</time>
      </trkpt>
      <trkpt lat="46.87391" lon="8.50033">
        <ele>1514</ele>
        <time>2021-08-11T10:59:14.657Z</time>
      </trkpt>
      <trkpt lat="46.87391" lon="8.50033">
        <ele>1514</ele>
        <time>2021-08-11T10:59:15.657Z</time>
      </trkpt>
      <trkpt lat="46.87391" lon="8.50032">
        <ele>1514</ele>
        <time>2021-08-11T10:59:16.657Z</time>
      </trkpt>
      <trkpt lat="46.87391" lon="8.50031">
        <ele>1514</ele>
        <time>2021-08-11T10:59:17.656Z</time>
      </trkpt>
      <trkpt lat="46.8739" lon="8.50029">
        <ele>1514</ele>
        <time>2021-08-11T10:59:18.656Z</time>
      </trkpt>
      <trkpt lat="46.8739" lon="8.50027">
        <ele>1514</ele>
        <time>2021-08-11T10:59:19.656Z</time>
      </trkpt>
      <trkpt lat="46.8739" lon="8.50026">
        <ele>1514</ele>
        <time>2021-08-11T10:59:20.657Z</time>
      </trkpt>
      <trkpt lat="46.87391" lon="8.50025">
        <ele>1513</ele>
        <time>2021-08-11T10:59:21.657Z</time>
      </trkpt>
      <trkpt lat="46.87392" lon="8.50025">
        <ele>1513</ele>
        <time>2021-08-11T10:59:22.657Z</time>
      </trkpt>
      <trkpt lat="46.87393" lon="8.50024">
        <ele>1513</ele>
        <time>2021-08-11T10:59:23.656Z</time>
      </trkpt>
      <trkpt lat="46.87393" lon="8.50023">
        <ele>1513</ele>
        <time>2021-08-11T10:59:24.656Z</time>
      </trkpt>
      <trkpt lat="46.87393" lon="8.50022">
        <ele>1513</ele>
        <time>2021-08-11T10:59:25.657Z</time>
      </trkpt>
      <trkpt lat="46.87393" lon="8.50021">
        <ele>1512</ele>
        <time>2021-08-11T10:59:26.656Z</time>
      </trkpt>
      <trkpt lat="46.87393" lon="8.5002">
        <ele>1512</ele>
        <time>2021-08-11T10:59:27.657Z</time>
      </trkpt>
      <trkpt lat="46.87394" lon="8.50018">
        <ele>1512</ele>
        <time>2021-08-11T10:59:28.657Z</time>
      </trkpt>
      <trkpt lat="46.87394" lon="8.50017">
        <ele>1512</ele>
        <time>2021-08-11T10:59:29.656Z</time>
      </trkpt>
      <trkpt lat="46.87395" lon="8.50017">
        <ele>1512</ele>
        <time>2021-08-11T10:59:30.656Z</time>
      </trkpt>
      <trkpt lat="46.87395" lon="8.50016">
        <ele>1512</ele>
        <time>2021-08-11T10:59:31.656Z</time>
      </trkpt>
      <trkpt lat="46.87395" lon="8.50015">
        <ele>1513</ele>
        <time>2021-08-11T10:59:32.657Z</time>
      </trkpt>
      <trkpt lat="46.87394" lon="8.50014">
        <ele>1512</ele>
        <time>2021-08-11T10:59:33.657Z</time>
      </trkpt>
      <trkpt lat="46.87394" lon="8.50014">
        <ele>1512</ele>
        <time>2021-08-11T10:59:34.657Z</time>
      </trkpt>
      <trkpt lat="46.87394" lon="8.50013">
        <ele>1512</ele>
        <time>2021-08-11T10:59:35.657Z</time>
      </trkpt>
      <trkpt lat="46.87394" lon="8.50012">
        <ele>1512</ele>
        <time>2021-08-11T10:59:36.656Z</time>
      </trkpt>
      <trkpt lat="46.87394" lon="8.50011">
        <ele>1512</ele>
        <time>2021-08-11T10:59:37.657Z</time>
      </trkpt>
      <trkpt lat="46.87395" lon="8.5001">
        <ele>1512</ele>
        <time>2021-08-11T10:59:38.656Z</time>
      </trkpt>
      <trkpt lat="46.87395" lon="8.5001">
        <ele>1512</ele>
        <time>2021-08-11T10:59:39.657Z</time>
      </trkpt>
      <trkpt lat="46.87395" lon="8.50009">
        <ele>1513</ele>
        <time>2021-08-11T10:59:40.657Z</time>
      </trkpt>
      <trkpt lat="46.87395" lon="8.50009">
        <ele>1513</ele>
        <time>2021-08-11T10:59:41.657Z</time>
      </trkpt>
      <trkpt lat="46.87395" lon="8.50008">
        <ele>1514</ele>
        <time>2021-08-11T10:59:42.657Z</time>
      </trkpt>
      <trkpt lat="46.87396" lon="8.50007">
        <ele>1514</ele>
        <time>2021-08-11T10:59:43.656Z</time>
      </trkpt>
      <trkpt lat="46.87395" lon="8.50007">
        <ele>1514</ele>
        <time>2021-08-11T10:59:44.656Z</time>
      </trkpt>
      <trkpt lat="46.87395" lon="8.50006">
        <ele>1514</ele>
        <time>2021-08-11T10:59:45.657Z</time>
      </trkpt>
      <trkpt lat="46.87395" lon="8.50005">
        <ele>1514</ele>
        <time>2021-08-11T10:59:46.657Z</time>
      </trkpt>
      <trkpt lat="46.87395" lon="8.50004">
        <ele>1514</ele>
        <time>2021-08-11T10:59:47.657Z</time>
      </trkpt>
      <trkpt lat="46.87395" lon="8.50004">
        <ele>1514</ele>
        <time>2021-08-11T10:59:48.657Z</time>
      </trkpt>
      <trkpt lat="46.87395" lon="8.50003">
        <ele>1514</ele>
        <time>2021-08-11T10:59:49.657Z</time>
      </trkpt>
      <trkpt lat="46.87395" lon="8.50003">
        <ele>1514</ele>
        <time>2021-08-11T10:59:50.657Z</time>
      </trkpt>
      <trkpt lat="46.87395" lon="8.50001">
        <ele>1514</ele>
        <time>2021-08-11T10:59:51.657Z</time>
      </trkpt>
      <trkpt lat="46.87395" lon="8.50001">
        <ele>1514</ele>
        <time>2021-08-11T10:59:52.657Z</time>
      </trkpt>
      <trkpt lat="46.87394" lon="8.5">
        <ele>1514</ele>
        <time>2021-08-11T10:59:53.657Z</time>
      </trkpt>
      <trkpt lat="46.87394" lon="8.49999">
        <ele>1514</ele>
        <time>2021-08-11T10:59:54.656Z</time>
      </trkpt>
      <trkpt lat="46.87394" lon="8.49998">
        <ele>1513</ele>
        <time>2021-08-11T10:59:55.657Z</time>
      </trkpt>
      <trkpt lat="46.87394" lon="8.49997">
        <ele>1513</ele>
        <time>2021-08-11T10:59:56.657Z</time>
      </trkpt>
      <trkpt lat="46.87394" lon="8.49996">
        <ele>1513</ele>
        <time>2021-08-11T10:59:57.656Z</time>
      </trkpt>
      <trkpt lat="46.87395" lon="8.49995">
        <ele>1514</ele>
        <time>2021-08-11T10:59:58.656Z</time>
      </trkpt>
      <trkpt lat="46.87395" lon="8.49994">
        <ele>1514</ele>
        <time>2021-08-11T10:59:59.657Z</time>
      </trkpt>
      <trkpt lat="46.87395" lon="8.49993">
        <ele>1515</ele>
        <time>2021-08-11T11:00:00.657Z</time>
      </trkpt>
      <trkpt lat="46.87395" lon="8.49992">
        <ele>1515</ele>
        <time>2021-08-11T11:00:01.657Z</time>
      </trkpt>
      <trkpt lat="46.87395" lon="8.49991">
        <ele>1515</ele>
        <time>2021-08-11T11:00:02.657Z</time>
      </trkpt>
      <trkpt lat="46.87395" lon="8.4999">
        <ele>1515</ele>
        <time>2021-08-11T11:00:03.657Z</time>
      </trkpt>
      <trkpt lat="46.87396" lon="8.49989">
        <ele>1516</ele>
        <time>2021-08-11T11:00:04.657Z</time>
      </trkpt>
      <trkpt lat="46.87396" lon="8.49988">
        <ele>1516</ele>
        <time>2021-08-11T11:00:05.656Z</time>
      </trkpt>
      <trkpt lat="46.87396" lon="8.49987">
        <ele>1517</ele>
        <time>2021-08-11T11:00:06.657Z</time>
      </trkpt>
      <trkpt lat="46.87397" lon="8.49986">
        <ele>1518</ele>
        <time>2021-08-11T11:00:07.657Z</time>
      </trkpt>
      <trkpt lat="46.87397" lon="8.49985">
        <ele>1519</ele>
        <time>2021-08-11T11:00:08.657Z</time>
      </trkpt>
      <trkpt lat="46.87397" lon="8.49984">
        <ele>1519</ele>
        <time>2021-08-11T11:00:09.657Z</time>
      </trkpt>
      <trkpt lat="46.87398" lon="8.49983">
        <ele>1520</ele>
        <time>2021-08-11T11:00:10.656Z</time>
      </trkpt>
      <trkpt lat="46.87398" lon="8.49982">
        <ele>1520</ele>
        <time>2021-08-11T11:00:11.656Z</time>
      </trkpt>
      <trkpt lat="46.87398" lon="8.49981">
        <ele>1520</ele>
        <time>2021-08-11T11:00:12.657Z</time>
      </trkpt>
      <trkpt lat="46.87398" lon="8.4998">
        <ele>1520</ele>
        <time>2021-08-11T11:00:13.656Z</time>
      </trkpt>
      <trkpt lat="46.87398" lon="8.4998">
        <ele>1520</ele>
        <time>2021-08-11T11:00:14.656Z</time>
      </trkpt>
      <trkpt lat="46.87399" lon="8.49978">
        <ele>1520</ele>
        <time>2021-08-11T11:00:15.657Z</time>
      </trkpt>
      <trkpt lat="46.87399" lon="8.49978">
        <ele>1520</ele>
        <time>2021-08-11T11:00:16.657Z</time>
      </trkpt>
      <trkpt lat="46.87399" lon="8.49977">
        <ele>1520</ele>
        <time>2021-08-11T11:00:17.657Z</time>
      </trkpt>
      <trkpt lat="46.874" lon="8.49976">
        <ele>1520</ele>
        <time>2021-08-11T11:00:18.656Z</time>
      </trkpt>
      <trkpt lat="46.87401" lon="8.49975">
        <ele>1520</ele>
        <time>2021-08-11T11:00:19.657Z</time>
      </trkpt>
      <trkpt lat="46.87401" lon="8.49974">
        <ele>1520</ele>
        <time>2021-08-11T11:00:20.657Z</time>
      </trkpt>
      <trkpt lat="46.87401" lon="8.49973">
        <ele>1520</ele>
        <time>2021-08-11T11:00:21.657Z</time>
      </trkpt>
      <trkpt lat="46.87401" lon="8.49973">
        <ele>1520</ele>
        <time>2021-08-11T11:00:22.657Z</time>
      </trkpt>
      <trkpt lat="46.874" lon="8.49972">
        <ele>1520</ele>
        <time>2021-08-11T11:00:23.657Z</time>
      </trkpt>
      <trkpt lat="46.874" lon="8.49972">
        <ele>1520</ele>
        <time>2021-08-11T11:00:24.657Z</time>
      </trkpt>
      <trkpt lat="46.87401" lon="8.49971">
        <ele>1520</ele>
        <time>2021-08-11T11:00:25.656Z</time>
      </trkpt>
      <trkpt lat="46.87401" lon="8.4997">
        <ele>1520</ele>
        <time>2021-08-11T11:00:26.657Z</time>
      </trkpt>
      <trkpt lat="46.87401" lon="8.49969">
        <ele>1521</ele>
        <time>2021-08-11T11:00:27.657Z</time>
      </trkpt>
      <trkpt lat="46.87402" lon="8.49968">
        <ele>1521</ele>
        <time>2021-08-11T11:00:28.656Z</time>
      </trkpt>
      <trkpt lat="46.87402" lon="8.49967">
        <ele>1521</ele>
        <time>2021-08-11T11:00:29.657Z</time>
      </trkpt>
      <trkpt lat="46.87403" lon="8.49966">
        <ele>1521</ele>
        <time>2021-08-11T11:00:30.657Z</time>
      </trkpt>
      <trkpt lat="46.87404" lon="8.49965">
        <ele>1521</ele>
        <time>2021-08-11T11:00:31.657Z</time>
      </trkpt>
      <trkpt lat="46.87404" lon="8.49965">
        <ele>1522</ele>
        <time>2021-08-11T11:00:32.657Z</time>
      </trkpt>
      <trkpt lat="46.87404" lon="8.49964">
        <ele>1522</ele>
        <time>2021-08-11T11:00:33.656Z</time>
      </trkpt>
      <trkpt lat="46.87406" lon="8.49962">
        <ele>1523</ele>
        <time>2021-08-11T11:00:34.657Z</time>
      </trkpt>
      <trkpt lat="46.87406" lon="8.4996">
        <ele>1523</ele>
        <time>2021-08-11T11:00:35.657Z</time>
      </trkpt>
      <trkpt lat="46.87406" lon="8.4996">
        <ele>1524</ele>
        <time>2021-08-11T11:00:36.657Z</time>
      </trkpt>
      <trkpt lat="46.87406" lon="8.49959">
        <ele>1524</ele>
        <time>2021-08-11T11:00:37.657Z</time>
      </trkpt>
      <trkpt lat="46.87405" lon="8.49958">
        <ele>1524</ele>
        <time>2021-08-11T11:00:38.656Z</time>
      </trkpt>
      <trkpt lat="46.87406" lon="8.49957">
        <ele>1523</ele>
        <time>2021-08-11T11:00:39.657Z</time>
      </trkpt>
      <trkpt lat="46.87406" lon="8.49955">
        <ele>1524</ele>
        <time>2021-08-11T11:00:40.657Z</time>
      </trkpt>
      <trkpt lat="46.87405" lon="8.49954">
        <ele>1524</ele>
        <time>2021-08-11T11:00:41.656Z</time>
      </trkpt>
      <trkpt lat="46.87406" lon="8.49953">
        <ele>1524</ele>
        <time>2021-08-11T11:00:42.657Z</time>
      </trkpt>
      <trkpt lat="46.87406" lon="8.49953">
        <ele>1524</ele>
        <time>2021-08-11T11:00:43.657Z</time>
      </trkpt>
      <trkpt lat="46.87407" lon="8.49953">
        <ele>1524</ele>
        <time>2021-08-11T11:00:44.656Z</time>
      </trkpt>
      <trkpt lat="46.87407" lon="8.49951">
        <ele>1524</ele>
        <time>2021-08-11T11:00:45.657Z</time>
      </trkpt>
      <trkpt lat="46.87407" lon="8.4995">
        <ele>1524</ele>
        <time>2021-08-11T11:00:46.657Z</time>
      </trkpt>
      <trkpt lat="46.87408" lon="8.49949">
        <ele>1524</ele>
        <time>2021-08-11T11:00:47.657Z</time>
      </trkpt>
      <trkpt lat="46.87408" lon="8.49948">
        <ele>1525</ele>
        <time>2021-08-11T11:00:48.657Z</time>
      </trkpt>
      <trkpt lat="46.87408" lon="8.49947">
        <ele>1525</ele>
        <time>2021-08-11T11:00:49.656Z</time>
      </trkpt>
      <trkpt lat="46.87408" lon="8.49946">
        <ele>1525</ele>
        <time>2021-08-11T11:00:50.657Z</time>
      </trkpt>
      <trkpt lat="46.87408" lon="8.49945">
        <ele>1526</ele>
        <time>2021-08-11T11:00:51.656Z</time>
      </trkpt>
      <trkpt lat="46.87409" lon="8.49944">
        <ele>1526</ele>
        <time>2021-08-11T11:00:52.656Z</time>
      </trkpt>
      <trkpt lat="46.87408" lon="8.49944">
        <ele>1526</ele>
        <time>2021-08-11T11:00:53.656Z</time>
      </trkpt>
      <trkpt lat="46.87408" lon="8.49943">
        <ele>1527</ele>
        <time>2021-08-11T11:00:54.656Z</time>
      </trkpt>
      <trkpt lat="46.87408" lon="8.49942">
        <ele>1527</ele>
        <time>2021-08-11T11:00:55.656Z</time>
      </trkpt>
      <trkpt lat="46.87409" lon="8.49941">
        <ele>1528</ele>
        <time>2021-08-11T11:00:56.656Z</time>
      </trkpt>
      <trkpt lat="46.87409" lon="8.49939">
        <ele>1528</ele>
        <time>2021-08-11T11:01:47.739Z</time>
      </trkpt>
      <trkpt lat="46.87409" lon="8.49938">
        <ele>1529</ele>
        <time>2021-08-11T11:01:48.739Z</time>
      </trkpt>
      <trkpt lat="46.87409" lon="8.49937">
        <ele>1528</ele>
        <time>2021-08-11T11:01:54.489Z</time>
      </trkpt>
      <trkpt lat="46.8741" lon="8.49936">
        <ele>1528</ele>
        <time>2021-08-11T11:01:55.490Z</time>
      </trkpt>
      <trkpt lat="46.8741" lon="8.49935">
        <ele>1528</ele>
        <time>2021-08-11T11:01:56.490Z</time>
      </trkpt>
      <trkpt lat="46.87409" lon="8.49934">
        <ele>1527</ele>
        <time>2021-08-11T11:01:57.489Z</time>
      </trkpt>
      <trkpt lat="46.8741" lon="8.49932">
        <ele>1527</ele>
        <time>2021-08-11T11:01:58.490Z</time>
      </trkpt>
      <trkpt lat="46.8741" lon="8.49931">
        <ele>1527</ele>
        <time>2021-08-11T11:02:01.597Z</time>
      </trkpt>
      <trkpt lat="46.87409" lon="8.4993">
        <ele>1527</ele>
        <time>2021-08-11T11:02:02.597Z</time>
      </trkpt>
      <trkpt lat="46.87409" lon="8.4993">
        <ele>1527</ele>
        <time>2021-08-11T11:02:03.598Z</time>
      </trkpt>
      <trkpt lat="46.87409" lon="8.49928">
        <ele>1527</ele>
        <time>2021-08-11T11:02:04.598Z</time>
      </trkpt>
      <trkpt lat="46.87408" lon="8.49927">
        <ele>1527</ele>
        <time>2021-08-11T11:02:05.598Z</time>
      </trkpt>
      <trkpt lat="46.87409" lon="8.49927">
        <ele>1527</ele>
        <time>2021-08-11T11:02:06.597Z</time>
      </trkpt>
      <trkpt lat="46.87409" lon="8.49926">
        <ele>1527</ele>
        <time>2021-08-11T11:02:07.598Z</time>
      </trkpt>
      <trkpt lat="46.8741" lon="8.49924">
        <ele>1527</ele>
        <time>2021-08-11T11:02:08.597Z</time>
      </trkpt>
      <trkpt lat="46.87411" lon="8.49923">
        <ele>1528</ele>
        <time>2021-08-11T11:02:09.598Z</time>
      </trkpt>
      <trkpt lat="46.87411" lon="8.49922">
        <ele>1528</ele>
        <time>2021-08-11T11:02:10.597Z</time>
      </trkpt>
      <trkpt lat="46.87411" lon="8.49921">
        <ele>1528</ele>
        <time>2021-08-11T11:02:12.616Z</time>
      </trkpt>
      <trkpt lat="46.87411" lon="8.4992">
        <ele>1529</ele>
        <time>2021-08-11T11:02:22.365Z</time>
      </trkpt>
      <trkpt lat="46.87412" lon="8.49919">
        <ele>1529</ele>
        <time>2021-08-11T11:02:23.365Z</time>
      </trkpt>
      <trkpt lat="46.87412" lon="8.49918">
        <ele>1529</ele>
        <time>2021-08-11T11:02:24.366Z</time>
      </trkpt>
      <trkpt lat="46.87412" lon="8.49917">
        <ele>1529</ele>
        <time>2021-08-11T11:02:29.491Z</time>
      </trkpt>
      <trkpt lat="46.87413" lon="8.49915">
        <ele>1529</ele>
        <time>2021-08-11T11:02:30.491Z</time>
      </trkpt>
      <trkpt lat="46.87413" lon="8.49915">
        <ele>1529</ele>
        <time>2021-08-11T11:02:31.490Z</time>
      </trkpt>
      <trkpt lat="46.87413" lon="8.49914">
        <ele>1529</ele>
        <time>2021-08-11T11:02:32.491Z</time>
      </trkpt>
      <trkpt lat="46.87414" lon="8.49913">
        <ele>1529</ele>
        <time>2021-08-11T11:02:33.491Z</time>
      </trkpt>
      <trkpt lat="46.87414" lon="8.49912">
        <ele>1530</ele>
        <time>2021-08-11T11:02:34.491Z</time>
      </trkpt>
      <trkpt lat="46.87415" lon="8.49911">
        <ele>1530</ele>
        <time>2021-08-11T11:02:35.491Z</time>
      </trkpt>
      <trkpt lat="46.87415" lon="8.4991">
        <ele>1530</ele>
        <time>2021-08-11T11:02:36.490Z</time>
      </trkpt>
      <trkpt lat="46.87415" lon="8.49909">
        <ele>1530</ele>
        <time>2021-08-11T11:02:37.491Z</time>
      </trkpt>
      <trkpt lat="46.87415" lon="8.49908">
        <ele>1530</ele>
        <time>2021-08-11T11:02:38.490Z</time>
      </trkpt>
      <trkpt lat="46.87415" lon="8.49906">
        <ele>1530</ele>
        <time>2021-08-11T11:02:39.491Z</time>
      </trkpt>
      <trkpt lat="46.87415" lon="8.49905">
        <ele>1530</ele>
        <time>2021-08-11T11:02:40.491Z</time>
      </trkpt>
      <trkpt lat="46.87415" lon="8.49904">
        <ele>1530</ele>
        <time>2021-08-11T11:02:41.491Z</time>
      </trkpt>
      <trkpt lat="46.87416" lon="8.49903">
        <ele>1530</ele>
        <time>2021-08-11T11:02:42.491Z</time>
      </trkpt>
      <trkpt lat="46.87416" lon="8.49903">
        <ele>1530</ele>
        <time>2021-08-11T11:02:43.491Z</time>
      </trkpt>
      <trkpt lat="46.87417" lon="8.49902">
        <ele>1530</ele>
        <time>2021-08-11T11:02:44.491Z</time>
      </trkpt>
      <trkpt lat="46.87417" lon="8.499">
        <ele>1530</ele>
        <time>2021-08-11T11:02:45.491Z</time>
      </trkpt>
      <trkpt lat="46.87418" lon="8.49899">
        <ele>1531</ele>
        <time>2021-08-11T11:02:46.490Z</time>
      </trkpt>
      <trkpt lat="46.87418" lon="8.49898">
        <ele>1531</ele>
        <time>2021-08-11T11:02:49.495Z</time>
      </trkpt>
      <trkpt lat="46.87418" lon="8.49898">
        <ele>1531</ele>
        <time>2021-08-11T11:02:50.495Z</time>
      </trkpt>
      <trkpt lat="46.87419" lon="8.49897">
        <ele>1531</ele>
        <time>2021-08-11T11:02:55.241Z</time>
      </trkpt>
      <trkpt lat="46.87418" lon="8.49896">
        <ele>1531</ele>
        <time>2021-08-11T11:02:56.240Z</time>
      </trkpt>
      <trkpt lat="46.87418" lon="8.49894">
        <ele>1530</ele>
        <time>2021-08-11T11:02:57.241Z</time>
      </trkpt>
      <trkpt lat="46.87417" lon="8.49893">
        <ele>1529</ele>
        <time>2021-08-11T11:02:58.240Z</time>
      </trkpt>
      <trkpt lat="46.87418" lon="8.49893">
        <ele>1529</ele>
        <time>2021-08-11T11:02:59.241Z</time>
      </trkpt>
      <trkpt lat="46.87418" lon="8.49892">
        <ele>1529</ele>
        <time>2021-08-11T11:03:00.241Z</time>
      </trkpt>
      <trkpt lat="46.87418" lon="8.49892">
        <ele>1529</ele>
        <time>2021-08-11T11:03:01.240Z</time>
      </trkpt>
      <trkpt lat="46.87419" lon="8.49892">
        <ele>1529</ele>
        <time>2021-08-11T11:03:02.241Z</time>
      </trkpt>
      <trkpt lat="46.8742" lon="8.49891">
        <ele>1529</ele>
        <time>2021-08-11T11:03:03.240Z</time>
      </trkpt>
      <trkpt lat="46.87421" lon="8.4989">
        <ele>1528</ele>
        <time>2021-08-11T11:03:04.241Z</time>
      </trkpt>
      <trkpt lat="46.87421" lon="8.49889">
        <ele>1529</ele>
        <time>2021-08-11T11:03:05.241Z</time>
      </trkpt>
      <trkpt lat="46.87421" lon="8.49888">
        <ele>1529</ele>
        <time>2021-08-11T11:03:06.241Z</time>
      </trkpt>
      <trkpt lat="46.87421" lon="8.49887">
        <ele>1530</ele>
        <time>2021-08-11T11:03:07.240Z</time>
      </trkpt>
      <trkpt lat="46.87421" lon="8.49886">
        <ele>1530</ele>
        <time>2021-08-11T11:03:08.241Z</time>
      </trkpt>
      <trkpt lat="46.87421" lon="8.49885">
        <ele>1531</ele>
        <time>2021-08-11T11:03:09.241Z</time>
      </trkpt>
      <trkpt lat="46.87421" lon="8.49884">
        <ele>1531</ele>
        <time>2021-08-11T11:03:10.241Z</time>
      </trkpt>
      <trkpt lat="46.87421" lon="8.49883">
        <ele>1532</ele>
        <time>2021-08-11T11:03:11.241Z</time>
      </trkpt>
      <trkpt lat="46.87421" lon="8.49883">
        <ele>1532</ele>
        <time>2021-08-11T11:03:12.241Z</time>
      </trkpt>
      <trkpt lat="46.87421" lon="8.49882">
        <ele>1532</ele>
        <time>2021-08-11T11:03:13.240Z</time>
      </trkpt>
      <trkpt lat="46.87421" lon="8.49881">
        <ele>1532</ele>
        <time>2021-08-11T11:03:14.240Z</time>
      </trkpt>
      <trkpt lat="46.87421" lon="8.4988">
        <ele>1532</ele>
        <time>2021-08-11T11:03:15.241Z</time>
      </trkpt>
      <trkpt lat="46.8742" lon="8.4988">
        <ele>1532</ele>
        <time>2021-08-11T11:03:16.241Z</time>
      </trkpt>
      <trkpt lat="46.8742" lon="8.49879">
        <ele>1532</ele>
        <time>2021-08-11T11:03:17.240Z</time>
      </trkpt>
      <trkpt lat="46.8742" lon="8.49879">
        <ele>1532</ele>
        <time>2021-08-11T11:03:18.240Z</time>
      </trkpt>
      <trkpt lat="46.8742" lon="8.49878">
        <ele>1532</ele>
        <time>2021-08-11T11:03:19.240Z</time>
      </trkpt>
      <trkpt lat="46.87421" lon="8.49878">
        <ele>1532</ele>
        <time>2021-08-11T11:03:20.241Z</time>
      </trkpt>
      <trkpt lat="46.87421" lon="8.49877">
        <ele>1533</ele>
        <time>2021-08-11T11:03:21.242Z</time>
      </trkpt>
      <trkpt lat="46.87421" lon="8.49876">
        <ele>1533</ele>
        <time>2021-08-11T11:03:23.242Z</time>
      </trkpt>
      <trkpt lat="46.87422" lon="8.49875">
        <ele>1533</ele>
        <time>2021-08-11T11:03:24.242Z</time>
      </trkpt>
      <trkpt lat="46.87423" lon="8.49874">
        <ele>1534</ele>
        <time>2021-08-11T11:03:25.242Z</time>
      </trkpt>
      <trkpt lat="46.87424" lon="8.49874">
        <ele>1534</ele>
        <time>2021-08-11T11:03:26.241Z</time>
      </trkpt>
      <trkpt lat="46.87424" lon="8.49873">
        <ele>1534</ele>
        <time>2021-08-11T11:03:27.241Z</time>
      </trkpt>
      <trkpt lat="46.87425" lon="8.49872">
        <ele>1534</ele>
        <time>2021-08-11T11:03:28.242Z</time>
      </trkpt>
      <trkpt lat="46.87424" lon="8.49871">
        <ele>1534</ele>
        <time>2021-08-11T11:03:29.241Z</time>
      </trkpt>
      <trkpt lat="46.87424" lon="8.49869">
        <ele>1534</ele>
        <time>2021-08-11T11:03:30.242Z</time>
      </trkpt>
      <trkpt lat="46.87424" lon="8.49868">
        <ele>1534</ele>
        <time>2021-08-11T11:03:31.242Z</time>
      </trkpt>
      <trkpt lat="46.87425" lon="8.49867">
        <ele>1534</ele>
        <time>2021-08-11T11:03:32.242Z</time>
      </trkpt>
      <trkpt lat="46.87425" lon="8.49865">
        <ele>1534</ele>
        <time>2021-08-11T11:03:33.242Z</time>
      </trkpt>
      <trkpt lat="46.87425" lon="8.49864">
        <ele>1534</ele>
        <time>2021-08-11T11:03:34.241Z</time>
      </trkpt>
      <trkpt lat="46.87425" lon="8.49864">
        <ele>1535</ele>
        <time>2021-08-11T11:03:35.242Z</time>
      </trkpt>
      <trkpt lat="46.87425" lon="8.49864">
        <ele>1535</ele>
        <time>2021-08-11T11:03:36.242Z</time>
      </trkpt>
      <trkpt lat="46.87426" lon="8.49863">
        <ele>1535</ele>
        <time>2021-08-11T11:03:37.242Z</time>
      </trkpt>
      <trkpt lat="46.87426" lon="8.49863">
        <ele>1536</ele>
        <time>2021-08-11T11:03:38.242Z</time>
      </trkpt>
      <trkpt lat="46.87426" lon="8.49861">
        <ele>1537</ele>
        <time>2021-08-11T11:03:39.242Z</time>
      </trkpt>
      <trkpt lat="46.87425" lon="8.4986">
        <ele>1537</ele>
        <time>2021-08-11T11:03:40.242Z</time>
      </trkpt>
      <trkpt lat="46.87425" lon="8.49859">
        <ele>1538</ele>
        <time>2021-08-11T11:03:41.242Z</time>
      </trkpt>
      <trkpt lat="46.87426" lon="8.49858">
        <ele>1538</ele>
        <time>2021-08-11T11:03:42.241Z</time>
      </trkpt>
      <trkpt lat="46.87426" lon="8.49857">
        <ele>1538</ele>
        <time>2021-08-11T11:03:48.363Z</time>
      </trkpt>
      <trkpt lat="46.87426" lon="8.49856">
        <ele>1538</ele>
        <time>2021-08-11T11:03:49.364Z</time>
      </trkpt>
      <trkpt lat="46.87426" lon="8.49855">
        <ele>1538</ele>
        <time>2021-08-11T11:03:50.364Z</time>
      </trkpt>
      <trkpt lat="46.87426" lon="8.49854">
        <ele>1538</ele>
        <time>2021-08-11T11:03:51.364Z</time>
      </trkpt>
      <trkpt lat="46.87426" lon="8.49853">
        <ele>1539</ele>
        <time>2021-08-11T11:03:57.363Z</time>
      </trkpt>
      <trkpt lat="46.87427" lon="8.49852">
        <ele>1539</ele>
        <time>2021-08-11T11:03:58.362Z</time>
      </trkpt>
      <trkpt lat="46.87427" lon="8.49851">
        <ele>1539</ele>
        <time>2021-08-11T11:04:02.135Z</time>
      </trkpt>
      <trkpt lat="46.87427" lon="8.49849">
        <ele>1540</ele>
        <time>2021-08-11T11:04:03.135Z</time>
      </trkpt>
      <trkpt lat="46.87428" lon="8.49848">
        <ele>1540</ele>
        <time>2021-08-11T11:04:04.135Z</time>
      </trkpt>
      <trkpt lat="46.87428" lon="8.49848">
        <ele>1541</ele>
        <time>2021-08-11T11:04:05.135Z</time>
      </trkpt>
      <trkpt lat="46.87428" lon="8.49847">
        <ele>1541</ele>
        <time>2021-08-11T11:04:06.135Z</time>
      </trkpt>
      <trkpt lat="46.87428" lon="8.49846">
        <ele>1541</ele>
        <time>2021-08-11T11:04:07.134Z</time>
      </trkpt>
      <trkpt lat="46.87429" lon="8.49845">
        <ele>1542</ele>
        <time>2021-08-11T11:04:08.135Z</time>
      </trkpt>
      <trkpt lat="46.87428" lon="8.49843">
        <ele>1542</ele>
        <time>2021-08-11T11:04:10.261Z</time>
      </trkpt>
      <trkpt lat="46.87428" lon="8.49843">
        <ele>1542</ele>
        <time>2021-08-11T11:04:11.261Z</time>
      </trkpt>
      <trkpt lat="46.87427" lon="8.49842">
        <ele>1542</ele>
        <time>2021-08-11T11:04:12.261Z</time>
      </trkpt>
      <trkpt lat="46.87427" lon="8.49841">
        <ele>1542</ele>
        <time>2021-08-11T11:04:13.260Z</time>
      </trkpt>
      <trkpt lat="46.87426" lon="8.4984">
        <ele>1543</ele>
        <time>2021-08-11T11:04:14.261Z</time>
      </trkpt>
      <trkpt lat="46.87426" lon="8.4984">
        <ele>1543</ele>
        <time>2021-08-11T11:04:15.261Z</time>
      </trkpt>
      <trkpt lat="46.87426" lon="8.49839">
        <ele>1543</ele>
        <time>2021-08-11T11:04:16.261Z</time>
      </trkpt>
      <trkpt lat="46.87426" lon="8.49838">
        <ele>1543</ele>
        <time>2021-08-11T11:04:17.261Z</time>
      </trkpt>
      <trkpt lat="46.87426" lon="8.49837">
        <ele>1544</ele>
        <time>2021-08-11T11:04:18.260Z</time>
      </trkpt>
      <trkpt lat="46.87426" lon="8.49837">
        <ele>1544</ele>
        <time>2021-08-11T11:04:19.260Z</time>
      </trkpt>
      <trkpt lat="46.87426" lon="8.49836">
        <ele>1544</ele>
        <time>2021-08-11T11:04:20.261Z</time>
      </trkpt>
      <trkpt lat="46.87426" lon="8.49835">
        <ele>1545</ele>
        <time>2021-08-11T11:04:21.260Z</time>
      </trkpt>
      <trkpt lat="46.87425" lon="8.49834">
        <ele>1545</ele>
        <time>2021-08-11T11:04:22.260Z</time>
      </trkpt>
      <trkpt lat="46.87425" lon="8.49833">
        <ele>1545</ele>
        <time>2021-08-11T11:04:23.260Z</time>
      </trkpt>
      <trkpt lat="46.87425" lon="8.49832">
        <ele>1546</ele>
        <time>2021-08-11T11:04:24.261Z</time>
      </trkpt>
      <trkpt lat="46.87425" lon="8.49832">
        <ele>1546</ele>
        <time>2021-08-11T11:04:25.260Z</time>
      </trkpt>
      <trkpt lat="46.87425" lon="8.49831">
        <ele>1546</ele>
        <time>2021-08-11T11:04:26.261Z</time>
      </trkpt>
      <trkpt lat="46.87426" lon="8.49831">
        <ele>1546</ele>
        <time>2021-08-11T11:04:27.261Z</time>
      </trkpt>
      <trkpt lat="46.87426" lon="8.4983">
        <ele>1546</ele>
        <time>2021-08-11T11:04:34.425Z</time>
      </trkpt>
      <trkpt lat="46.87426" lon="8.49829">
        <ele>1546</ele>
        <time>2021-08-11T11:04:35.425Z</time>
      </trkpt>
      <trkpt lat="46.87426" lon="8.49829">
        <ele>1546</ele>
        <time>2021-08-11T11:04:36.424Z</time>
      </trkpt>
      <trkpt lat="46.87427" lon="8.49828">
        <ele>1546</ele>
        <time>2021-08-11T11:04:37.425Z</time>
      </trkpt>
      <trkpt lat="46.87427" lon="8.49828">
        <ele>1547</ele>
        <time>2021-08-11T11:04:38.425Z</time>
      </trkpt>
      <trkpt lat="46.87426" lon="8.49827">
        <ele>1547</ele>
        <time>2021-08-11T11:04:39.424Z</time>
      </trkpt>
      <trkpt lat="46.87426" lon="8.49826">
        <ele>1547</ele>
        <time>2021-08-11T11:04:40.425Z</time>
      </trkpt>
      <trkpt lat="46.87427" lon="8.49824">
        <ele>1547</ele>
        <time>2021-08-11T11:04:41.425Z</time>
      </trkpt>
      <trkpt lat="46.87427" lon="8.49823">
        <ele>1548</ele>
        <time>2021-08-11T11:04:42.425Z</time>
      </trkpt>
      <trkpt lat="46.87427" lon="8.49822">
        <ele>1548</ele>
        <time>2021-08-11T11:04:43.425Z</time>
      </trkpt>
      <trkpt lat="46.87428" lon="8.49821">
        <ele>1548</ele>
        <time>2021-08-11T11:04:44.424Z</time>
      </trkpt>
      <trkpt lat="46.87428" lon="8.49821">
        <ele>1548</ele>
        <time>2021-08-11T11:04:45.425Z</time>
      </trkpt>
      <trkpt lat="46.87428" lon="8.4982">
        <ele>1549</ele>
        <time>2021-08-11T11:04:46.425Z</time>
      </trkpt>
      <trkpt lat="46.87427" lon="8.4982">
        <ele>1549</ele>
        <time>2021-08-11T11:04:47.425Z</time>
      </trkpt>
      <trkpt lat="46.87427" lon="8.49819">
        <ele>1550</ele>
        <time>2021-08-11T11:04:48.425Z</time>
      </trkpt>
      <trkpt lat="46.87427" lon="8.49818">
        <ele>1550</ele>
        <time>2021-08-11T11:04:49.425Z</time>
      </trkpt>
      <trkpt lat="46.87427" lon="8.49817">
        <ele>1551</ele>
        <time>2021-08-11T11:04:50.424Z</time>
      </trkpt>
      <trkpt lat="46.87428" lon="8.49816">
        <ele>1551</ele>
        <time>2021-08-11T11:04:51.425Z</time>
      </trkpt>
      <trkpt lat="46.87428" lon="8.49815">
        <ele>1551</ele>
        <time>2021-08-11T11:04:52.424Z</time>
      </trkpt>
      <trkpt lat="46.87428" lon="8.49814">
        <ele>1551</ele>
        <time>2021-08-11T11:04:53.425Z</time>
      </trkpt>
      <trkpt lat="46.87428" lon="8.49813">
        <ele>1551</ele>
        <time>2021-08-11T11:04:54.425Z</time>
      </trkpt>
      <trkpt lat="46.87428" lon="8.49812">
        <ele>1550</ele>
        <time>2021-08-11T11:04:55.425Z</time>
      </trkpt>
      <trkpt lat="46.87428" lon="8.49811">
        <ele>1550</ele>
        <time>2021-08-11T11:04:56.425Z</time>
      </trkpt>
      <trkpt lat="46.87428" lon="8.49811">
        <ele>1550</ele>
        <time>2021-08-11T11:04:57.425Z</time>
      </trkpt>
      <trkpt lat="46.87429" lon="8.4981">
        <ele>1550</ele>
        <time>2021-08-11T11:04:58.425Z</time>
      </trkpt>
      <trkpt lat="46.87429" lon="8.49809">
        <ele>1550</ele>
        <time>2021-08-11T11:04:59.425Z</time>
      </trkpt>
      <trkpt lat="46.87428" lon="8.49809">
        <ele>1550</ele>
        <time>2021-08-11T11:05:00.425Z</time>
      </trkpt>
      <trkpt lat="46.87428" lon="8.49808">
        <ele>1550</ele>
        <time>2021-08-11T11:05:01.425Z</time>
      </trkpt>
      <trkpt lat="46.87428" lon="8.49807">
        <ele>1550</ele>
        <time>2021-08-11T11:05:02.425Z</time>
      </trkpt>
      <trkpt lat="46.87428" lon="8.49806">
        <ele>1550</ele>
        <time>2021-08-11T11:05:03.425Z</time>
      </trkpt>
      <trkpt lat="46.87428" lon="8.49804">
        <ele>1551</ele>
        <time>2021-08-11T11:05:04.424Z</time>
      </trkpt>
      <trkpt lat="46.87428" lon="8.49803">
        <ele>1551</ele>
        <time>2021-08-11T11:05:05.424Z</time>
      </trkpt>
      <trkpt lat="46.87429" lon="8.49802">
        <ele>1552</ele>
        <time>2021-08-11T11:05:06.425Z</time>
      </trkpt>
      <trkpt lat="46.87428" lon="8.49801">
        <ele>1552</ele>
        <time>2021-08-11T11:05:07.425Z</time>
      </trkpt>
      <trkpt lat="46.87428" lon="8.49801">
        <ele>1552</ele>
        <time>2021-08-11T11:05:08.425Z</time>
      </trkpt>
      <trkpt lat="46.87427" lon="8.498">
        <ele>1552</ele>
        <time>2021-08-11T11:05:09.425Z</time>
      </trkpt>
      <trkpt lat="46.87428" lon="8.498">
        <ele>1552</ele>
        <time>2021-08-11T11:05:13.504Z</time>
      </trkpt>
      <trkpt lat="46.87428" lon="8.49799">
        <ele>1551</ele>
        <time>2021-08-11T11:05:14.505Z</time>
      </trkpt>
      <trkpt lat="46.87429" lon="8.49798">
        <ele>1551</ele>
        <time>2021-08-11T11:05:15.505Z</time>
      </trkpt>
      <trkpt lat="46.87429" lon="8.49797">
        <ele>1551</ele>
        <time>2021-08-11T11:05:16.504Z</time>
      </trkpt>
      <trkpt lat="46.87429" lon="8.49795">
        <ele>1551</ele>
        <time>2021-08-11T11:05:17.505Z</time>
      </trkpt>
      <trkpt lat="46.87429" lon="8.49795">
        <ele>1550</ele>
        <time>2021-08-11T11:05:18.505Z</time>
      </trkpt>
      <trkpt lat="46.87429" lon="8.49794">
        <ele>1550</ele>
        <time>2021-08-11T11:05:19.505Z</time>
      </trkpt>
      <trkpt lat="46.87428" lon="8.49794">
        <ele>1550</ele>
        <time>2021-08-11T11:05:20.504Z</time>
      </trkpt>
      <trkpt lat="46.87429" lon="8.49793">
        <ele>1550</ele>
        <time>2021-08-11T11:05:21.504Z</time>
      </trkpt>
      <trkpt lat="46.87429" lon="8.49791">
        <ele>1550</ele>
        <time>2021-08-11T11:05:22.505Z</time>
      </trkpt>
      <trkpt lat="46.87429" lon="8.4979">
        <ele>1550</ele>
        <time>2021-08-11T11:05:23.505Z</time>
      </trkpt>
      <trkpt lat="46.87429" lon="8.49789">
        <ele>1551</ele>
        <time>2021-08-11T11:05:24.505Z</time>
      </trkpt>
      <trkpt lat="46.87429" lon="8.49788">
        <ele>1551</ele>
        <time>2021-08-11T11:05:25.505Z</time>
      </trkpt>
      <trkpt lat="46.8743" lon="8.49788">
        <ele>1552</ele>
        <time>2021-08-11T11:05:26.505Z</time>
      </trkpt>
      <trkpt lat="46.8743" lon="8.49787">
        <ele>1552</ele>
        <time>2021-08-11T11:05:27.505Z</time>
      </trkpt>
      <trkpt lat="46.8743" lon="8.49787">
        <ele>1552</ele>
        <time>2021-08-11T11:05:28.505Z</time>
      </trkpt>
      <trkpt lat="46.87431" lon="8.49785">
        <ele>1552</ele>
        <time>2021-08-11T11:05:29.505Z</time>
      </trkpt>
      <trkpt lat="46.87431" lon="8.49784">
        <ele>1552</ele>
        <time>2021-08-11T11:05:30.505Z</time>
      </trkpt>
      <trkpt lat="46.87432" lon="8.49782">
        <ele>1552</ele>
        <time>2021-08-11T11:05:35.510Z</time>
      </trkpt>
      <trkpt lat="46.87432" lon="8.49782">
        <ele>1552</ele>
        <time>2021-08-11T11:05:36.510Z</time>
      </trkpt>
      <trkpt lat="46.87432" lon="8.49781">
        <ele>1552</ele>
        <time>2021-08-11T11:05:37.510Z</time>
      </trkpt>
      <trkpt lat="46.87432" lon="8.4978">
        <ele>1552</ele>
        <time>2021-08-11T11:05:38.509Z</time>
      </trkpt>
      <trkpt lat="46.87433" lon="8.49779">
        <ele>1552</ele>
        <time>2021-08-11T11:05:39.510Z</time>
      </trkpt>
      <trkpt lat="46.87433" lon="8.49777">
        <ele>1552</ele>
        <time>2021-08-11T11:05:40.510Z</time>
      </trkpt>
      <trkpt lat="46.87433" lon="8.49776">
        <ele>1552</ele>
        <time>2021-08-11T11:05:41.510Z</time>
      </trkpt>
      <trkpt lat="46.87433" lon="8.49775">
        <ele>1552</ele>
        <time>2021-08-11T11:05:44.600Z</time>
      </trkpt>
      <trkpt lat="46.87433" lon="8.49773">
        <ele>1552</ele>
        <time>2021-08-11T11:05:45.599Z</time>
      </trkpt>
      <trkpt lat="46.87433" lon="8.49773">
        <ele>1553</ele>
        <time>2021-08-11T11:05:46.600Z</time>
      </trkpt>
      <trkpt lat="46.87433" lon="8.49773">
        <ele>1553</ele>
        <time>2021-08-11T11:05:47.600Z</time>
      </trkpt>
      <trkpt lat="46.87433" lon="8.49773">
        <ele>1553</ele>
        <time>2021-08-11T11:05:48.600Z</time>
      </trkpt>
      <trkpt lat="46.87434" lon="8.49772">
        <ele>1553</ele>
        <time>2021-08-11T11:05:49.599Z</time>
      </trkpt>
      <trkpt lat="46.87434" lon="8.49772">
        <ele>1553</ele>
        <time>2021-08-11T11:05:50.600Z</time>
      </trkpt>
      <trkpt lat="46.87434" lon="8.49771">
        <ele>1554</ele>
        <time>2021-08-11T11:05:51.599Z</time>
      </trkpt>
      <trkpt lat="46.87435" lon="8.4977">
        <ele>1554</ele>
        <time>2021-08-11T11:05:52.600Z</time>
      </trkpt>
      <trkpt lat="46.87436" lon="8.49769">
        <ele>1554</ele>
        <time>2021-08-11T11:05:53.599Z</time>
      </trkpt>
      <trkpt lat="46.87436" lon="8.49768">
        <ele>1554</ele>
        <time>2021-08-11T11:05:54.600Z</time>
      </trkpt>
      <trkpt lat="46.87435" lon="8.49767">
        <ele>1554</ele>
        <time>2021-08-11T11:05:55.599Z</time>
      </trkpt>
      <trkpt lat="46.87435" lon="8.49766">
        <ele>1554</ele>
        <time>2021-08-11T11:05:56.599Z</time>
      </trkpt>
      <trkpt lat="46.87436" lon="8.49765">
        <ele>1554</ele>
        <time>2021-08-11T11:05:57.600Z</time>
      </trkpt>
      <trkpt lat="46.87436" lon="8.49764">
        <ele>1555</ele>
        <time>2021-08-11T11:05:58.600Z</time>
      </trkpt>
      <trkpt lat="46.87436" lon="8.49763">
        <ele>1555</ele>
        <time>2021-08-11T11:05:59.599Z</time>
      </trkpt>
      <trkpt lat="46.87436" lon="8.49761">
        <ele>1555</ele>
        <time>2021-08-11T11:06:00.600Z</time>
      </trkpt>
      <trkpt lat="46.87435" lon="8.49761">
        <ele>1556</ele>
        <time>2021-08-11T11:06:01.600Z</time>
      </trkpt>
      <trkpt lat="46.87435" lon="8.4976">
        <ele>1556</ele>
        <time>2021-08-11T11:06:02.600Z</time>
      </trkpt>
      <trkpt lat="46.87435" lon="8.49759">
        <ele>1556</ele>
        <time>2021-08-11T11:06:03.600Z</time>
      </trkpt>
      <trkpt lat="46.87436" lon="8.49758">
        <ele>1557</ele>
        <time>2021-08-11T11:06:04.600Z</time>
      </trkpt>
      <trkpt lat="46.87436" lon="8.49757">
        <ele>1557</ele>
        <time>2021-08-11T11:06:05.599Z</time>
      </trkpt>
      <trkpt lat="46.87436" lon="8.49756">
        <ele>1557</ele>
        <time>2021-08-11T11:06:06.600Z</time>
      </trkpt>
      <trkpt lat="46.87436" lon="8.49755">
        <ele>1557</ele>
        <time>2021-08-11T11:06:07.600Z</time>
      </trkpt>
      <trkpt lat="46.87437" lon="8.49754">
        <ele>1557</ele>
        <time>2021-08-11T11:06:12.631Z</time>
      </trkpt>
      <trkpt lat="46.87437" lon="8.49753">
        <ele>1557</ele>
        <time>2021-08-11T11:06:13.631Z</time>
      </trkpt>
      <trkpt lat="46.87438" lon="8.49752">
        <ele>1557</ele>
        <time>2021-08-11T11:06:14.630Z</time>
      </trkpt>
      <trkpt lat="46.87438" lon="8.49751">
        <ele>1558</ele>
        <time>2021-08-11T11:06:15.631Z</time>
      </trkpt>
      <trkpt lat="46.87438" lon="8.4975">
        <ele>1559</ele>
        <time>2021-08-11T11:06:16.630Z</time>
      </trkpt>
      <trkpt lat="46.87438" lon="8.49749">
        <ele>1559</ele>
        <time>2021-08-11T11:06:17.631Z</time>
      </trkpt>
      <trkpt lat="46.87439" lon="8.49749">
        <ele>1560</ele>
        <time>2021-08-11T11:06:18.631Z</time>
      </trkpt>
      <trkpt lat="46.87439" lon="8.49748">
        <ele>1560</ele>
        <time>2021-08-11T11:06:19.630Z</time>
      </trkpt>
      <trkpt lat="46.87439" lon="8.49747">
        <ele>1560</ele>
        <time>2021-08-11T11:06:20.631Z</time>
      </trkpt>
      <trkpt lat="46.8744" lon="8.49746">
        <ele>1560</ele>
        <time>2021-08-11T11:06:21.631Z</time>
      </trkpt>
      <trkpt lat="46.87439" lon="8.49745">
        <ele>1559</ele>
        <time>2021-08-11T11:06:22.631Z</time>
      </trkpt>
      <trkpt lat="46.87439" lon="8.49744">
        <ele>1559</ele>
        <time>2021-08-11T11:06:23.631Z</time>
      </trkpt>
      <trkpt lat="46.87438" lon="8.49744">
        <ele>1559</ele>
        <time>2021-08-11T11:06:24.630Z</time>
      </trkpt>
      <trkpt lat="46.87438" lon="8.49742">
        <ele>1559</ele>
        <time>2021-08-11T11:06:25.631Z</time>
      </trkpt>
      <trkpt lat="46.87439" lon="8.49741">
        <ele>1558</ele>
        <time>2021-08-11T11:06:26.630Z</time>
      </trkpt>
      <trkpt lat="46.87439" lon="8.49741">
        <ele>1558</ele>
        <time>2021-08-11T11:06:27.630Z</time>
      </trkpt>
      <trkpt lat="46.87439" lon="8.49739">
        <ele>1558</ele>
        <time>2021-08-11T11:06:28.630Z</time>
      </trkpt>
      <trkpt lat="46.8744" lon="8.49739">
        <ele>1559</ele>
        <time>2021-08-11T11:06:29.631Z</time>
      </trkpt>
      <trkpt lat="46.8744" lon="8.49739">
        <ele>1559</ele>
        <time>2021-08-11T11:06:30.631Z</time>
      </trkpt>
      <trkpt lat="46.8744" lon="8.49738">
        <ele>1559</ele>
        <time>2021-08-11T11:06:31.631Z</time>
      </trkpt>
      <trkpt lat="46.8744" lon="8.49737">
        <ele>1559</ele>
        <time>2021-08-11T11:06:32.631Z</time>
      </trkpt>
      <trkpt lat="46.87441" lon="8.49736">
        <ele>1559</ele>
        <time>2021-08-11T11:06:33.631Z</time>
      </trkpt>
      <trkpt lat="46.87441" lon="8.49735">
        <ele>1560</ele>
        <time>2021-08-11T11:06:34.631Z</time>
      </trkpt>
      <trkpt lat="46.87442" lon="8.49734">
        <ele>1560</ele>
        <time>2021-08-11T11:06:40.607Z</time>
      </trkpt>
      <trkpt lat="46.87442" lon="8.49732">
        <ele>1560</ele>
        <time>2021-08-11T11:06:41.607Z</time>
      </trkpt>
      <trkpt lat="46.87443" lon="8.49731">
        <ele>1560</ele>
        <time>2021-08-11T11:06:42.607Z</time>
      </trkpt>
      <trkpt lat="46.87443" lon="8.4973">
        <ele>1560</ele>
        <time>2021-08-11T11:06:43.607Z</time>
      </trkpt>
      <trkpt lat="46.87442" lon="8.49729">
        <ele>1560</ele>
        <time>2021-08-11T11:06:44.606Z</time>
      </trkpt>
      <trkpt lat="46.87442" lon="8.49727">
        <ele>1560</ele>
        <time>2021-08-11T11:06:45.607Z</time>
      </trkpt>
      <trkpt lat="46.87443" lon="8.49727">
        <ele>1560</ele>
        <time>2021-08-11T11:06:46.607Z</time>
      </trkpt>
      <trkpt lat="46.87444" lon="8.49725">
        <ele>1560</ele>
        <time>2021-08-11T11:06:47.607Z</time>
      </trkpt>
      <trkpt lat="46.87443" lon="8.49724">
        <ele>1560</ele>
        <time>2021-08-11T11:06:48.607Z</time>
      </trkpt>
      <trkpt lat="46.87444" lon="8.49723">
        <ele>1560</ele>
        <time>2021-08-11T11:06:51.633Z</time>
      </trkpt>
      <trkpt lat="46.87443" lon="8.49722">
        <ele>1560</ele>
        <time>2021-08-11T11:06:52.633Z</time>
      </trkpt>
      <trkpt lat="46.87443" lon="8.49721">
        <ele>1560</ele>
        <time>2021-08-11T11:06:53.632Z</time>
      </trkpt>
      <trkpt lat="46.87444" lon="8.4972">
        <ele>1560</ele>
        <time>2021-08-11T11:06:58.608Z</time>
      </trkpt>
      <trkpt lat="46.87444" lon="8.49719">
        <ele>1560</ele>
        <time>2021-08-11T11:06:59.608Z</time>
      </trkpt>
      <trkpt lat="46.87444" lon="8.49718">
        <ele>1561</ele>
        <time>2021-08-11T11:07:00.608Z</time>
      </trkpt>
      <trkpt lat="46.87444" lon="8.49716">
        <ele>1561</ele>
        <time>2021-08-11T11:07:01.609Z</time>
      </trkpt>
      <trkpt lat="46.87444" lon="8.49716">
        <ele>1561</ele>
        <time>2021-08-11T11:07:02.608Z</time>
      </trkpt>
      <trkpt lat="46.87444" lon="8.49714">
        <ele>1561</ele>
        <time>2021-08-11T11:07:03.609Z</time>
      </trkpt>
      <trkpt lat="46.87444" lon="8.49714">
        <ele>1562</ele>
        <time>2021-08-11T11:07:04.608Z</time>
      </trkpt>
      <trkpt lat="46.87445" lon="8.49713">
        <ele>1562</ele>
        <time>2021-08-11T11:07:05.609Z</time>
      </trkpt>
      <trkpt lat="46.87445" lon="8.49712">
        <ele>1562</ele>
        <time>2021-08-11T11:07:06.609Z</time>
      </trkpt>
      <trkpt lat="46.87445" lon="8.49711">
        <ele>1562</ele>
        <time>2021-08-11T11:07:07.609Z</time>
      </trkpt>
      <trkpt lat="46.87445" lon="8.4971">
        <ele>1562</ele>
        <time>2021-08-11T11:07:08.609Z</time>
      </trkpt>
      <trkpt lat="46.87446" lon="8.49709">
        <ele>1562</ele>
        <time>2021-08-11T11:07:09.609Z</time>
      </trkpt>
      <trkpt lat="46.87446" lon="8.49708">
        <ele>1563</ele>
        <time>2021-08-11T11:07:10.608Z</time>
      </trkpt>
      <trkpt lat="46.87446" lon="8.49707">
        <ele>1564</ele>
        <time>2021-08-11T11:07:11.608Z</time>
      </trkpt>
      <trkpt lat="46.87446" lon="8.49707">
        <ele>1564</ele>
        <time>2021-08-11T11:07:12.608Z</time>
      </trkpt>
      <trkpt lat="46.87447" lon="8.49706">
        <ele>1565</ele>
        <time>2021-08-11T11:07:13.609Z</time>
      </trkpt>
      <trkpt lat="46.87448" lon="8.49704">
        <ele>1565</ele>
        <time>2021-08-11T11:07:14.609Z</time>
      </trkpt>
      <trkpt lat="46.87449" lon="8.49703">
        <ele>1565</ele>
        <time>2021-08-11T11:07:15.608Z</time>
      </trkpt>
      <trkpt lat="46.8745" lon="8.49703">
        <ele>1565</ele>
        <time>2021-08-11T11:07:16.608Z</time>
      </trkpt>
      <trkpt lat="46.8745" lon="8.49702">
        <ele>1566</ele>
        <time>2021-08-11T11:07:17.609Z</time>
      </trkpt>
      <trkpt lat="46.8745" lon="8.49702">
        <ele>1566</ele>
        <time>2021-08-11T11:07:18.609Z</time>
      </trkpt>
      <trkpt lat="46.87449" lon="8.49702">
        <ele>1567</ele>
        <time>2021-08-11T11:07:19.609Z</time>
      </trkpt>
      <trkpt lat="46.87449" lon="8.497">
        <ele>1567</ele>
        <time>2021-08-11T11:07:20.608Z</time>
      </trkpt>
      <trkpt lat="46.8745" lon="8.49698">
        <ele>1568</ele>
        <time>2021-08-11T11:07:21.608Z</time>
      </trkpt>
      <trkpt lat="46.8745" lon="8.49697">
        <ele>1568</ele>
        <time>2021-08-11T11:07:22.608Z</time>
      </trkpt>
      <trkpt lat="46.87449" lon="8.49696">
        <ele>1568</ele>
        <time>2021-08-11T11:07:23.609Z</time>
      </trkpt>
      <trkpt lat="46.87449" lon="8.49695">
        <ele>1568</ele>
        <time>2021-08-11T11:07:24.609Z</time>
      </trkpt>
      <trkpt lat="46.87449" lon="8.49694">
        <ele>1568</ele>
        <time>2021-08-11T11:07:25.608Z</time>
      </trkpt>
      <trkpt lat="46.8745" lon="8.49693">
        <ele>1568</ele>
        <time>2021-08-11T11:07:26.609Z</time>
      </trkpt>
      <trkpt lat="46.8745" lon="8.49692">
        <ele>1568</ele>
        <time>2021-08-11T11:07:27.608Z</time>
      </trkpt>
      <trkpt lat="46.87451" lon="8.49691">
        <ele>1568</ele>
        <time>2021-08-11T11:07:28.609Z</time>
      </trkpt>
      <trkpt lat="46.87451" lon="8.4969">
        <ele>1568</ele>
        <time>2021-08-11T11:07:29.609Z</time>
      </trkpt>
      <trkpt lat="46.87451" lon="8.49689">
        <ele>1567</ele>
        <time>2021-08-11T11:07:30.609Z</time>
      </trkpt>
      <trkpt lat="46.87452" lon="8.49688">
        <ele>1567</ele>
        <time>2021-08-11T11:07:31.608Z</time>
      </trkpt>
      <trkpt lat="46.87452" lon="8.49687">
        <ele>1567</ele>
        <time>2021-08-11T11:07:32.608Z</time>
      </trkpt>
      <trkpt lat="46.87452" lon="8.49686">
        <ele>1567</ele>
        <time>2021-08-11T11:07:33.609Z</time>
      </trkpt>
      <trkpt lat="46.87453" lon="8.49685">
        <ele>1567</ele>
        <time>2021-08-11T11:07:34.609Z</time>
      </trkpt>
      <trkpt lat="46.87453" lon="8.49685">
        <ele>1567</ele>
        <time>2021-08-11T11:07:35.609Z</time>
      </trkpt>
      <trkpt lat="46.87451" lon="8.49688">
        <ele>1570</ele>
        <time>2021-08-11T11:07:36.609Z</time>
      </trkpt>
      <trkpt lat="46.8745" lon="8.4969">
        <ele>1576</ele>
        <time>2021-08-11T11:07:37.610Z</time>
      </trkpt>
      <trkpt lat="46.87451" lon="8.4969">
        <ele>1576</ele>
        <time>2021-08-11T11:07:38.609Z</time>
      </trkpt>
      <trkpt lat="46.8745" lon="8.49691">
        <ele>1577</ele>
        <time>2021-08-11T11:07:39.609Z</time>
      </trkpt>
      <trkpt lat="46.87442" lon="8.49694">
        <ele>1582</ele>
        <time>2021-08-11T11:07:40.611Z</time>
      </trkpt>
      <trkpt lat="46.87443" lon="8.49693">
        <ele>1583</ele>
        <time>2021-08-11T11:07:41.611Z</time>
      </trkpt>
      <trkpt lat="46.87444" lon="8.49693">
        <ele>1583</ele>
        <time>2021-08-11T11:07:42.610Z</time>
      </trkpt>
      <trkpt lat="46.87444" lon="8.49693">
        <ele>1584</ele>
        <time>2021-08-11T11:07:43.610Z</time>
      </trkpt>
      <trkpt lat="46.87443" lon="8.49695">
        <ele>1587</ele>
        <time>2021-08-11T11:07:44.612Z</time>
      </trkpt>
      <trkpt lat="46.87443" lon="8.49695">
        <ele>1587</ele>
        <time>2021-08-11T11:07:45.611Z</time>
      </trkpt>
      <trkpt lat="46.87444" lon="8.49697">
        <ele>1584</ele>
        <time>2021-08-11T11:07:46.612Z</time>
      </trkpt>
      <trkpt lat="46.87444" lon="8.49697">
        <ele>1583</ele>
        <time>2021-08-11T11:07:47.612Z</time>
      </trkpt>
      <trkpt lat="46.87443" lon="8.49699">
        <ele>1584</ele>
        <time>2021-08-11T11:07:48.612Z</time>
      </trkpt>
      <trkpt lat="46.87442" lon="8.497">
        <ele>1587</ele>
        <time>2021-08-11T11:07:49.613Z</time>
      </trkpt>
      <trkpt lat="46.87442" lon="8.497">
        <ele>1587</ele>
        <time>2021-08-11T11:07:50.613Z</time>
      </trkpt>
      <trkpt lat="46.87442" lon="8.49699">
        <ele>1587</ele>
        <time>2021-08-11T11:07:51.612Z</time>
      </trkpt>
      <trkpt lat="46.87443" lon="8.49699">
        <ele>1586</ele>
        <time>2021-08-11T11:07:52.612Z</time>
      </trkpt>
      <trkpt lat="46.87443" lon="8.49699">
        <ele>1586</ele>
        <time>2021-08-11T11:07:53.613Z</time>
      </trkpt>
      <trkpt lat="46.87442" lon="8.49699">
        <ele>1586</ele>
        <time>2021-08-11T11:07:54.612Z</time>
      </trkpt>
      <trkpt lat="46.87441" lon="8.49699">
        <ele>1586</ele>
        <time>2021-08-11T11:07:55.613Z</time>
      </trkpt>
      <trkpt lat="46.87441" lon="8.49699">
        <ele>1585</ele>
        <time>2021-08-11T11:07:56.612Z</time>
      </trkpt>
      <trkpt lat="46.87441" lon="8.49698">
        <ele>1585</ele>
        <time>2021-08-11T11:07:57.613Z</time>
      </trkpt>
      <trkpt lat="46.8744" lon="8.49687">
        <ele>1562</ele>
        <time>2021-08-11T11:07:58.613Z</time>
      </trkpt>
      <trkpt lat="46.8744" lon="8.49688">
        <ele>1562</ele>
        <time>2021-08-11T11:07:59.613Z</time>
      </trkpt>
      <trkpt lat="46.87439" lon="8.49687">
        <ele>1561</ele>
        <time>2021-08-11T11:08:00.613Z</time>
      </trkpt>
      <trkpt lat="46.8744" lon="8.49687">
        <ele>1561</ele>
        <time>2021-08-11T11:08:01.612Z</time>
      </trkpt>
      <trkpt lat="46.87435" lon="8.49688">
        <ele>1560</ele>
        <time>2021-08-11T11:08:02.614Z</time>
      </trkpt>
      <trkpt lat="46.87435" lon="8.49687">
        <ele>1559</ele>
        <time>2021-08-11T11:08:03.614Z</time>
      </trkpt>
      <trkpt lat="46.87435" lon="8.49686">
        <ele>1559</ele>
        <time>2021-08-11T11:08:04.613Z</time>
      </trkpt>
      <trkpt lat="46.87438" lon="8.49683">
        <ele>1558</ele>
        <time>2021-08-11T11:08:05.614Z</time>
      </trkpt>
      <trkpt lat="46.87437" lon="8.49683">
        <ele>1558</ele>
        <time>2021-08-11T11:08:06.613Z</time>
      </trkpt>
      <trkpt lat="46.87437" lon="8.49682">
        <ele>1558</ele>
        <time>2021-08-11T11:08:07.614Z</time>
      </trkpt>
      <trkpt lat="46.87437" lon="8.49682">
        <ele>1558</ele>
        <time>2021-08-11T11:08:08.614Z</time>
      </trkpt>
      <trkpt lat="46.87437" lon="8.49681">
        <ele>1559</ele>
        <time>2021-08-11T11:08:10.719Z</time>
      </trkpt>
      <trkpt lat="46.87438" lon="8.49681">
        <ele>1558</ele>
        <time>2021-08-11T11:08:11.719Z</time>
      </trkpt>
      <trkpt lat="46.87439" lon="8.4968">
        <ele>1558</ele>
        <time>2021-08-11T11:08:12.719Z</time>
      </trkpt>
      <trkpt lat="46.8744" lon="8.49679">
        <ele>1558</ele>
        <time>2021-08-11T11:08:13.718Z</time>
      </trkpt>
      <trkpt lat="46.8744" lon="8.49678">
        <ele>1558</ele>
        <time>2021-08-11T11:08:14.719Z</time>
      </trkpt>
      <trkpt lat="46.8744" lon="8.49677">
        <ele>1558</ele>
        <time>2021-08-11T11:08:15.719Z</time>
      </trkpt>
      <trkpt lat="46.87441" lon="8.49679">
        <ele>1557</ele>
        <time>2021-08-11T11:08:16.719Z</time>
      </trkpt>
      <trkpt lat="46.8744" lon="8.49679">
        <ele>1557</ele>
        <time>2021-08-11T11:08:17.721Z</time>
      </trkpt>
      <trkpt lat="46.87441" lon="8.49679">
        <ele>1556</ele>
        <time>2021-08-11T11:08:18.720Z</time>
      </trkpt>
      <trkpt lat="46.8744" lon="8.4968">
        <ele>1556</ele>
        <time>2021-08-11T11:08:19.721Z</time>
      </trkpt>
      <trkpt lat="46.8744" lon="8.4968">
        <ele>1556</ele>
        <time>2021-08-11T11:08:20.720Z</time>
      </trkpt>
      <trkpt lat="46.87441" lon="8.4968">
        <ele>1556</ele>
        <time>2021-08-11T11:08:21.721Z</time>
      </trkpt>
      <trkpt lat="46.87441" lon="8.4968">
        <ele>1557</ele>
        <time>2021-08-11T11:08:22.721Z</time>
      </trkpt>
      <trkpt lat="46.87441" lon="8.49681">
        <ele>1553</ele>
        <time>2021-08-11T11:08:23.722Z</time>
      </trkpt>
      <trkpt lat="46.87441" lon="8.49681">
        <ele>1554</ele>
        <time>2021-08-11T11:08:24.722Z</time>
      </trkpt>
      <trkpt lat="46.87441" lon="8.49682">
        <ele>1554</ele>
        <time>2021-08-11T11:08:25.723Z</time>
      </trkpt>
      <trkpt lat="46.87441" lon="8.49682">
        <ele>1554</ele>
        <time>2021-08-11T11:08:26.722Z</time>
      </trkpt>
      <trkpt lat="46.87441" lon="8.49682">
        <ele>1554</ele>
        <time>2021-08-11T11:08:27.722Z</time>
      </trkpt>
      <trkpt lat="46.87442" lon="8.49682">
        <ele>1554</ele>
        <time>2021-08-11T11:08:28.724Z</time>
      </trkpt>
      <trkpt lat="46.87441" lon="8.49682">
        <ele>1554</ele>
        <time>2021-08-11T11:08:29.724Z</time>
      </trkpt>
      <trkpt lat="46.87442" lon="8.49682">
        <ele>1554</ele>
        <time>2021-08-11T11:08:30.723Z</time>
      </trkpt>
      <trkpt lat="46.87441" lon="8.49682">
        <ele>1555</ele>
        <time>2021-08-11T11:08:31.723Z</time>
      </trkpt>
      <trkpt lat="46.87442" lon="8.49682">
        <ele>1556</ele>
        <time>2021-08-11T11:08:32.724Z</time>
      </trkpt>
      <trkpt lat="46.87443" lon="8.49682">
        <ele>1556</ele>
        <time>2021-08-11T11:08:33.723Z</time>
      </trkpt>
      <trkpt lat="46.87443" lon="8.49682">
        <ele>1557</ele>
        <time>2021-08-11T11:08:34.724Z</time>
      </trkpt>
      <trkpt lat="46.87444" lon="8.49682">
        <ele>1557</ele>
        <time>2021-08-11T11:08:38.738Z</time>
      </trkpt>
      <trkpt lat="46.87443" lon="8.49682">
        <ele>1557</ele>
        <time>2021-08-11T11:08:40.475Z</time>
      </trkpt>
      <trkpt lat="46.87443" lon="8.49684">
        <ele>1558</ele>
        <time>2021-08-11T11:08:41.477Z</time>
      </trkpt>
      <trkpt lat="46.87443" lon="8.49683">
        <ele>1555</ele>
        <time>2021-08-11T11:08:42.479Z</time>
      </trkpt>
      <trkpt lat="46.87443" lon="8.49683">
        <ele>1555</ele>
        <time>2021-08-11T11:08:43.478Z</time>
      </trkpt>
      <trkpt lat="46.87443" lon="8.49683">
        <ele>1554</ele>
        <time>2021-08-11T11:08:59.495Z</time>
      </trkpt>
      <trkpt lat="46.87442" lon="8.49683">
        <ele>1554</ele>
        <time>2021-08-11T11:09:00.496Z</time>
      </trkpt>
      <trkpt lat="46.87443" lon="8.49681">
        <ele>1550</ele>
        <time>2021-08-11T11:09:01.496Z</time>
      </trkpt>
      <trkpt lat="46.87444" lon="8.4968">
        <ele>1550</ele>
        <time>2021-08-11T11:09:02.496Z</time>
      </trkpt>
      <trkpt lat="46.87444" lon="8.49681">
        <ele>1550</ele>
        <time>2021-08-11T11:09:15.645Z</time>
      </trkpt>
      <trkpt lat="46.87444" lon="8.49681">
        <ele>1550</ele>
        <time>2021-08-11T11:09:16.646Z</time>
      </trkpt>
      <trkpt lat="46.87444" lon="8.49681">
        <ele>1551</ele>
        <time>2021-08-11T11:09:17.646Z</time>
      </trkpt>
      <trkpt lat="46.87445" lon="8.49678">
        <ele>1552</ele>
        <time>2021-08-11T11:09:18.522Z</time>
      </trkpt>
      <trkpt lat="46.87445" lon="8.49678">
        <ele>1553</ele>
        <time>2021-08-11T11:09:19.522Z</time>
      </trkpt>
      <trkpt lat="46.87445" lon="8.49677">
        <ele>1557</ele>
        <time>2021-08-11T11:09:20.523Z</time>
      </trkpt>
      <trkpt lat="46.87445" lon="8.49677">
        <ele>1557</ele>
        <time>2021-08-11T11:09:21.522Z</time>
      </trkpt>
      <trkpt lat="46.87444" lon="8.49678">
        <ele>1557</ele>
        <time>2021-08-11T11:09:22.524Z</time>
      </trkpt>
      <trkpt lat="46.87443" lon="8.49681">
        <ele>1557</ele>
        <time>2021-08-11T11:09:23.525Z</time>
      </trkpt>
      <trkpt lat="46.87442" lon="8.49681">
        <ele>1557</ele>
        <time>2021-08-11T11:09:30.667Z</time>
      </trkpt>
      <trkpt lat="46.87442" lon="8.4968">
        <ele>1557</ele>
        <time>2021-08-11T11:09:31.666Z</time>
      </trkpt>
      <trkpt lat="46.87442" lon="8.4968">
        <ele>1560</ele>
        <time>2021-08-11T11:09:33.510Z</time>
      </trkpt>
      <trkpt lat="46.87443" lon="8.49679">
        <ele>1559</ele>
        <time>2021-08-11T11:09:34.510Z</time>
      </trkpt>
      <trkpt lat="46.87443" lon="8.49679">
        <ele>1559</ele>
        <time>2021-08-11T11:09:35.510Z</time>
      </trkpt>
      <trkpt lat="46.87444" lon="8.49679">
        <ele>1559</ele>
        <time>2021-08-11T11:09:36.511Z</time>
      </trkpt>
      <trkpt lat="46.87444" lon="8.49679">
        <ele>1559</ele>
        <time>2021-08-11T11:09:37.510Z</time>
      </trkpt>
      <trkpt lat="46.87444" lon="8.49679">
        <ele>1559</ele>
        <time>2021-08-11T11:09:38.511Z</time>
      </trkpt>
      <trkpt lat="46.87445" lon="8.49679">
        <ele>1558</ele>
        <time>2021-08-11T11:09:39.511Z</time>
      </trkpt>
      <trkpt lat="46.87445" lon="8.49678">
        <ele>1558</ele>
        <time>2021-08-11T11:09:40.511Z</time>
      </trkpt>
      <trkpt lat="46.87445" lon="8.49678">
        <ele>1558</ele>
        <time>2021-08-11T11:09:41.511Z</time>
      </trkpt>
      <trkpt lat="46.87443" lon="8.49679">
        <ele>1557</ele>
        <time>2021-08-11T11:09:42.510Z</time>
      </trkpt>
      <trkpt lat="46.87443" lon="8.49679">
        <ele>1557</ele>
        <time>2021-08-11T11:09:43.511Z</time>
      </trkpt>
      <trkpt lat="46.87443" lon="8.49679">
        <ele>1557</ele>
        <time>2021-08-11T11:09:44.511Z</time>
      </trkpt>
      <trkpt lat="46.87443" lon="8.49678">
        <ele>1557</ele>
        <time>2021-08-11T11:09:45.511Z</time>
      </trkpt>
      <trkpt lat="46.87442" lon="8.49679">
        <ele>1556</ele>
        <time>2021-08-11T11:09:46.511Z</time>
      </trkpt>
      <trkpt lat="46.87442" lon="8.4968">
        <ele>1556</ele>
        <time>2021-08-11T11:09:47.511Z</time>
      </trkpt>
      <trkpt lat="46.87442" lon="8.49682">
        <ele>1554</ele>
        <time>2021-08-11T11:09:48.511Z</time>
      </trkpt>
      <trkpt lat="46.87441" lon="8.49682">
        <ele>1554</ele>
        <time>2021-08-11T11:09:49.510Z</time>
      </trkpt>
      <trkpt lat="46.87441" lon="8.49683">
        <ele>1554</ele>
        <time>2021-08-11T11:09:50.511Z</time>
      </trkpt>
      <trkpt lat="46.8744" lon="8.49682">
        <ele>1557</ele>
        <time>2021-08-11T11:09:51.512Z</time>
      </trkpt>
      <trkpt lat="46.8744" lon="8.49682">
        <ele>1557</ele>
        <time>2021-08-11T11:09:52.511Z</time>
      </trkpt>
      <trkpt lat="46.87441" lon="8.49682">
        <ele>1556</ele>
        <time>2021-08-11T11:09:53.511Z</time>
      </trkpt>
      <trkpt lat="46.87439" lon="8.49684">
        <ele>1561</ele>
        <time>2021-08-11T11:09:54.511Z</time>
      </trkpt>
      <trkpt lat="46.8744" lon="8.49685">
        <ele>1560</ele>
        <time>2021-08-11T11:09:55.511Z</time>
      </trkpt>
      <trkpt lat="46.8744" lon="8.49685">
        <ele>1560</ele>
        <time>2021-08-11T11:09:56.511Z</time>
      </trkpt>
      <trkpt lat="46.87441" lon="8.49685">
        <ele>1560</ele>
        <time>2021-08-11T11:09:57.512Z</time>
      </trkpt>
      <trkpt lat="46.87441" lon="8.49684">
        <ele>1560</ele>
        <time>2021-08-11T11:09:58.514Z</time>
      </trkpt>
      <trkpt lat="46.87441" lon="8.49684">
        <ele>1560</ele>
        <time>2021-08-11T11:09:59.513Z</time>
      </trkpt>
      <trkpt lat="46.87442" lon="8.49683">
        <ele>1559</ele>
        <time>2021-08-11T11:10:00.515Z</time>
      </trkpt>
      <trkpt lat="46.87442" lon="8.49683">
        <ele>1559</ele>
        <time>2021-08-11T11:10:01.515Z</time>
      </trkpt>
      <trkpt lat="46.87443" lon="8.49683">
        <ele>1558</ele>
        <time>2021-08-11T11:10:02.514Z</time>
      </trkpt>
      <trkpt lat="46.87442" lon="8.4968">
        <ele>1551</ele>
        <time>2021-08-11T11:10:03.515Z</time>
      </trkpt>
      <trkpt lat="46.87442" lon="8.49679">
        <ele>1551</ele>
        <time>2021-08-11T11:10:04.516Z</time>
      </trkpt>
      <trkpt lat="46.87443" lon="8.49679">
        <ele>1551</ele>
        <time>2021-08-11T11:10:05.515Z</time>
      </trkpt>
      <trkpt lat="46.87443" lon="8.49679">
        <ele>1551</ele>
        <time>2021-08-11T11:10:06.516Z</time>
      </trkpt>
      <trkpt lat="46.87443" lon="8.49679">
        <ele>1552</ele>
        <time>2021-08-11T11:10:07.516Z</time>
      </trkpt>
      <trkpt lat="46.87442" lon="8.4968">
        <ele>1552</ele>
        <time>2021-08-11T11:10:08.516Z</time>
      </trkpt>
      <trkpt lat="46.87442" lon="8.4968">
        <ele>1552</ele>
        <time>2021-08-11T11:10:09.516Z</time>
      </trkpt>
      <trkpt lat="46.87439" lon="8.49685">
        <ele>1558</ele>
        <time>2021-08-11T11:10:16.505Z</time>
      </trkpt>
      <trkpt lat="46.87442" lon="8.4968">
        <ele>1556</ele>
        <time>2021-08-11T11:10:17.505Z</time>
      </trkpt>
      <trkpt lat="46.87442" lon="8.4968">
        <ele>1556</ele>
        <time>2021-08-11T11:10:24.276Z</time>
      </trkpt>
      <trkpt lat="46.87442" lon="8.4968">
        <ele>1555</ele>
        <time>2021-08-11T11:10:25.275Z</time>
      </trkpt>
      <trkpt lat="46.87442" lon="8.4968">
        <ele>1555</ele>
        <time>2021-08-11T11:10:26.276Z</time>
      </trkpt>
      <trkpt lat="46.87442" lon="8.4968">
        <ele>1555</ele>
        <time>2021-08-11T11:10:27.276Z</time>
      </trkpt>
      <trkpt lat="46.87442" lon="8.49681">
        <ele>1556</ele>
        <time>2021-08-11T11:10:31.404Z</time>
      </trkpt>
      <trkpt lat="46.87441" lon="8.49681">
        <ele>1556</ele>
        <time>2021-08-11T11:10:32.404Z</time>
      </trkpt>
      <trkpt lat="46.87441" lon="8.49681">
        <ele>1556</ele>
        <time>2021-08-11T11:10:33.404Z</time>
      </trkpt>
      <trkpt lat="46.87441" lon="8.49681">
        <ele>1556</ele>
        <time>2021-08-11T11:10:34.405Z</time>
      </trkpt>
      <trkpt lat="46.87441" lon="8.49682">
        <ele>1555</ele>
        <time>2021-08-11T11:10:35.404Z</time>
      </trkpt>
      <trkpt lat="46.8744" lon="8.49682">
        <ele>1555</ele>
        <time>2021-08-11T11:10:36.405Z</time>
      </trkpt>
      <trkpt lat="46.8744" lon="8.49682">
        <ele>1555</ele>
        <time>2021-08-11T11:10:37.405Z</time>
      </trkpt>
      <trkpt lat="46.8744" lon="8.49683">
        <ele>1553</ele>
        <time>2021-08-11T11:10:38.405Z</time>
      </trkpt>
      <trkpt lat="46.87439" lon="8.49684">
        <ele>1553</ele>
        <time>2021-08-11T11:10:39.406Z</time>
      </trkpt>
      <trkpt lat="46.87439" lon="8.49684">
        <ele>1556</ele>
        <time>2021-08-11T11:10:40.406Z</time>
      </trkpt>
      <trkpt lat="46.87439" lon="8.49683">
        <ele>1556</ele>
        <time>2021-08-11T11:10:41.406Z</time>
      </trkpt>
      <trkpt lat="46.87437" lon="8.49684">
        <ele>1558</ele>
        <time>2021-08-11T11:10:42.406Z</time>
      </trkpt>
      <trkpt lat="46.87437" lon="8.49685">
        <ele>1558</ele>
        <time>2021-08-11T11:10:43.406Z</time>
      </trkpt>
      <trkpt lat="46.87436" lon="8.49685">
        <ele>1559</ele>
        <time>2021-08-11T11:10:44.407Z</time>
      </trkpt>
      <trkpt lat="46.87436" lon="8.49685">
        <ele>1559</ele>
        <time>2021-08-11T11:10:45.406Z</time>
      </trkpt>
      <trkpt lat="46.87437" lon="8.49687">
        <ele>1558</ele>
        <time>2021-08-11T11:10:46.406Z</time>
      </trkpt>
      <trkpt lat="46.87437" lon="8.49686">
        <ele>1558</ele>
        <time>2021-08-11T11:10:47.406Z</time>
      </trkpt>
      <trkpt lat="46.87441" lon="8.49681">
        <ele>1558</ele>
        <time>2021-08-11T11:10:48.407Z</time>
      </trkpt>
      <trkpt lat="46.87441" lon="8.49681">
        <ele>1558</ele>
        <time>2021-08-11T11:10:49.407Z</time>
      </trkpt>
      <trkpt lat="46.87442" lon="8.4968">
        <ele>1558</ele>
        <time>2021-08-11T11:10:50.406Z</time>
      </trkpt>
      <trkpt lat="46.87441" lon="8.49683">
        <ele>1560</ele>
        <time>2021-08-11T11:10:51.407Z</time>
      </trkpt>
      <trkpt lat="46.8744" lon="8.49684">
        <ele>1561</ele>
        <time>2021-08-11T11:10:52.407Z</time>
      </trkpt>
      <trkpt lat="46.87439" lon="8.49684">
        <ele>1562</ele>
        <time>2021-08-11T11:10:53.406Z</time>
      </trkpt>
      <trkpt lat="46.87438" lon="8.49685">
        <ele>1563</ele>
        <time>2021-08-11T11:10:54.407Z</time>
      </trkpt>
      <trkpt lat="46.87438" lon="8.49686">
        <ele>1564</ele>
        <time>2021-08-11T11:10:55.407Z</time>
      </trkpt>
      <trkpt lat="46.8744" lon="8.49683">
        <ele>1565</ele>
        <time>2021-08-11T11:10:56.407Z</time>
      </trkpt>
      <trkpt lat="46.8744" lon="8.49682">
        <ele>1564</ele>
        <time>2021-08-11T11:10:57.407Z</time>
      </trkpt>
      <trkpt lat="46.87441" lon="8.49682">
        <ele>1564</ele>
        <time>2021-08-11T11:10:58.407Z</time>
      </trkpt>
      <trkpt lat="46.87441" lon="8.49681">
        <ele>1564</ele>
        <time>2021-08-11T11:11:03.531Z</time>
      </trkpt>
      <trkpt lat="46.87441" lon="8.49681">
        <ele>1564</ele>
        <time>2021-08-11T11:11:04.530Z</time>
      </trkpt>
      <trkpt lat="46.87442" lon="8.49681">
        <ele>1564</ele>
        <time>2021-08-11T11:11:05.530Z</time>
      </trkpt>
      <trkpt lat="46.87441" lon="8.49682">
        <ele>1561</ele>
        <time>2021-08-11T11:11:06.531Z</time>
      </trkpt>
      <trkpt lat="46.8744" lon="8.49682">
        <ele>1561</ele>
        <time>2021-08-11T11:11:07.531Z</time>
      </trkpt>
      <trkpt lat="46.8744" lon="8.49682">
        <ele>1561</ele>
        <time>2021-08-11T11:11:08.531Z</time>
      </trkpt>
      <trkpt lat="46.8744" lon="8.49683">
        <ele>1561</ele>
        <time>2021-08-11T11:11:09.531Z</time>
      </trkpt>
      <trkpt lat="46.87439" lon="8.49683">
        <ele>1560</ele>
        <time>2021-08-11T11:11:10.530Z</time>
      </trkpt>
      <trkpt lat="46.87439" lon="8.49683">
        <ele>1560</ele>
        <time>2021-08-11T11:11:11.531Z</time>
      </trkpt>
      <trkpt lat="46.87441" lon="8.49685">
        <ele>1554</ele>
        <time>2021-08-11T11:11:12.531Z</time>
      </trkpt>
      <trkpt lat="46.8744" lon="8.49683">
        <ele>1553</ele>
        <time>2021-08-11T11:11:13.532Z</time>
      </trkpt>
      <trkpt lat="46.8744" lon="8.49683">
        <ele>1553</ele>
        <time>2021-08-11T11:11:14.532Z</time>
      </trkpt>
      <trkpt lat="46.8744" lon="8.49682">
        <ele>1553</ele>
        <time>2021-08-11T11:11:15.531Z</time>
      </trkpt>
      <trkpt lat="46.87442" lon="8.49683">
        <ele>1556</ele>
        <time>2021-08-11T11:11:23.634Z</time>
      </trkpt>
      <trkpt lat="46.87442" lon="8.49683">
        <ele>1557</ele>
        <time>2021-08-11T11:11:24.634Z</time>
      </trkpt>
      <trkpt lat="46.87441" lon="8.49683">
        <ele>1557</ele>
        <time>2021-08-11T11:11:26.370Z</time>
      </trkpt>
      <trkpt lat="46.87443" lon="8.49683">
        <ele>1558</ele>
        <time>2021-08-11T11:11:27.371Z</time>
      </trkpt>
      <trkpt lat="46.87444" lon="8.49682">
        <ele>1559</ele>
        <time>2021-08-11T11:11:28.370Z</time>
      </trkpt>
      <trkpt lat="46.87443" lon="8.49682">
        <ele>1559</ele>
        <time>2021-08-11T11:11:29.370Z</time>
      </trkpt>
      <trkpt lat="46.87443" lon="8.49682">
        <ele>1559</ele>
        <time>2021-08-11T11:11:30.370Z</time>
      </trkpt>
      <trkpt lat="46.87443" lon="8.49682">
        <ele>1559</ele>
        <time>2021-08-11T11:11:31.371Z</time>
      </trkpt>
      <trkpt lat="46.87443" lon="8.49682">
        <ele>1559</ele>
        <time>2021-08-11T11:11:32.371Z</time>
      </trkpt>
      <trkpt lat="46.87441" lon="8.49683">
        <ele>1561</ele>
        <time>2021-08-11T11:11:33.373Z</time>
      </trkpt>
      <trkpt lat="46.87441" lon="8.49683">
        <ele>1561</ele>
        <time>2021-08-11T11:11:34.373Z</time>
      </trkpt>
      <trkpt lat="46.87441" lon="8.49683">
        <ele>1561</ele>
        <time>2021-08-11T11:11:35.373Z</time>
      </trkpt>
      <trkpt lat="46.87442" lon="8.49682">
        <ele>1561</ele>
        <time>2021-08-11T11:11:36.373Z</time>
      </trkpt>
      <trkpt lat="46.87442" lon="8.49682">
        <ele>1560</ele>
        <time>2021-08-11T11:11:37.373Z</time>
      </trkpt>
      <trkpt lat="46.8744" lon="8.49683">
        <ele>1560</ele>
        <time>2021-08-11T11:11:38.372Z</time>
      </trkpt>
      <trkpt lat="46.8744" lon="8.49683">
        <ele>1560</ele>
        <time>2021-08-11T11:11:39.372Z</time>
      </trkpt>
      <trkpt lat="46.8744" lon="8.49683">
        <ele>1560</ele>
        <time>2021-08-11T11:11:40.372Z</time>
      </trkpt>
      <trkpt lat="46.8744" lon="8.49683">
        <ele>1559</ele>
        <time>2021-08-11T11:11:41.372Z</time>
      </trkpt>
      <trkpt lat="46.8744" lon="8.49682">
        <ele>1557</ele>
        <time>2021-08-11T11:11:45.408Z</time>
      </trkpt>
      <trkpt lat="46.87441" lon="8.49682">
        <ele>1556</ele>
        <time>2021-08-11T11:11:46.409Z</time>
      </trkpt>
      <trkpt lat="46.87444" lon="8.4968">
        <ele>1554</ele>
        <time>2021-08-11T11:11:48.270Z</time>
      </trkpt>
      <trkpt lat="46.87444" lon="8.49679">
        <ele>1554</ele>
        <time>2021-08-11T11:11:49.270Z</time>
      </trkpt>
      <trkpt lat="46.87444" lon="8.4968">
        <ele>1554</ele>
        <time>2021-08-11T11:11:50.270Z</time>
      </trkpt>
      <trkpt lat="46.87444" lon="8.4968">
        <ele>1553</ele>
        <time>2021-08-11T11:11:56.281Z</time>
      </trkpt>
      <trkpt lat="46.87443" lon="8.4968">
        <ele>1554</ele>
        <time>2021-08-11T11:11:57.282Z</time>
      </trkpt>
      <trkpt lat="46.87443" lon="8.4968">
        <ele>1555</ele>
        <time>2021-08-11T11:11:58.282Z</time>
      </trkpt>
      <trkpt lat="46.87443" lon="8.49679">
        <ele>1557</ele>
        <time>2021-08-11T11:11:59.283Z</time>
      </trkpt>
      <trkpt lat="46.87443" lon="8.49679">
        <ele>1557</ele>
        <time>2021-08-11T11:12:00.283Z</time>
      </trkpt>
      <trkpt lat="46.87442" lon="8.4968">
        <ele>1558</ele>
        <time>2021-08-11T11:12:01.283Z</time>
      </trkpt>
      <trkpt lat="46.87442" lon="8.4968">
        <ele>1558</ele>
        <time>2021-08-11T11:12:02.282Z</time>
      </trkpt>
      <trkpt lat="46.87442" lon="8.4968">
        <ele>1558</ele>
        <time>2021-08-11T11:12:03.282Z</time>
      </trkpt>
      <trkpt lat="46.87441" lon="8.49681">
        <ele>1558</ele>
        <time>2021-08-11T11:12:04.283Z</time>
      </trkpt>
      <trkpt lat="46.8744" lon="8.49681">
        <ele>1558</ele>
        <time>2021-08-11T11:12:05.284Z</time>
      </trkpt>
      <trkpt lat="46.8744" lon="8.49681">
        <ele>1559</ele>
        <time>2021-08-11T11:12:06.283Z</time>
      </trkpt>
      <trkpt lat="46.87438" lon="8.49682">
        <ele>1561</ele>
        <time>2021-08-11T11:12:07.284Z</time>
      </trkpt>
      <trkpt lat="46.87437" lon="8.49683">
        <ele>1561</ele>
        <time>2021-08-11T11:12:08.284Z</time>
      </trkpt>
      <trkpt lat="46.87437" lon="8.49683">
        <ele>1561</ele>
        <time>2021-08-11T11:12:09.283Z</time>
      </trkpt>
      <trkpt lat="46.87436" lon="8.49683">
        <ele>1561</ele>
        <time>2021-08-11T11:12:10.283Z</time>
      </trkpt>
      <trkpt lat="46.87436" lon="8.49684">
        <ele>1561</ele>
        <time>2021-08-11T11:12:11.284Z</time>
      </trkpt>
      <trkpt lat="46.87436" lon="8.49684">
        <ele>1561</ele>
        <time>2021-08-11T11:12:12.284Z</time>
      </trkpt>
      <trkpt lat="46.87436" lon="8.49684">
        <ele>1561</ele>
        <time>2021-08-11T11:12:13.283Z</time>
      </trkpt>
      <trkpt lat="46.87436" lon="8.49684">
        <ele>1561</ele>
        <time>2021-08-11T11:12:14.283Z</time>
      </trkpt>
      <trkpt lat="46.87436" lon="8.49684">
        <ele>1562</ele>
        <time>2021-08-11T11:12:15.284Z</time>
      </trkpt>
      <trkpt lat="46.87436" lon="8.49685">
        <ele>1562</ele>
        <time>2021-08-11T11:12:16.283Z</time>
      </trkpt>
      <trkpt lat="46.87436" lon="8.49686">
        <ele>1562</ele>
        <time>2021-08-11T11:12:17.284Z</time>
      </trkpt>
      <trkpt lat="46.87436" lon="8.49686">
        <ele>1562</ele>
        <time>2021-08-11T11:12:18.284Z</time>
      </trkpt>
      <trkpt lat="46.87437" lon="8.49685">
        <ele>1562</ele>
        <time>2021-08-11T11:12:19.284Z</time>
      </trkpt>
      <trkpt lat="46.87435" lon="8.49687">
        <ele>1563</ele>
        <time>2021-08-11T11:12:20.284Z</time>
      </trkpt>
      <trkpt lat="46.87438" lon="8.49684">
        <ele>1564</ele>
        <time>2021-08-11T11:12:21.284Z</time>
      </trkpt>
      <trkpt lat="46.87437" lon="8.49684">
        <ele>1563</ele>
        <time>2021-08-11T11:12:22.285Z</time>
      </trkpt>
      <trkpt lat="46.87437" lon="8.49684">
        <ele>1563</ele>
        <time>2021-08-11T11:12:23.284Z</time>
      </trkpt>
      <trkpt lat="46.87438" lon="8.49684">
        <ele>1562</ele>
        <time>2021-08-11T11:12:29.391Z</time>
      </trkpt>
      <trkpt lat="46.87438" lon="8.49684">
        <ele>1562</ele>
        <time>2021-08-11T11:12:30.392Z</time>
      </trkpt>
      <trkpt lat="46.87439" lon="8.49684">
        <ele>1561</ele>
        <time>2021-08-11T11:12:31.393Z</time>
      </trkpt>
      <trkpt lat="46.8744" lon="8.49681">
        <ele>1565</ele>
        <time>2021-08-11T11:12:32.392Z</time>
      </trkpt>
      <trkpt lat="46.8744" lon="8.49681">
        <ele>1565</ele>
        <time>2021-08-11T11:12:33.393Z</time>
      </trkpt>
      <trkpt lat="46.8744" lon="8.49681">
        <ele>1565</ele>
        <time>2021-08-11T11:12:34.392Z</time>
      </trkpt>
      <trkpt lat="46.8744" lon="8.4968">
        <ele>1565</ele>
        <time>2021-08-11T11:12:35.392Z</time>
      </trkpt>
      <trkpt lat="46.8744" lon="8.4968">
        <ele>1565</ele>
        <time>2021-08-11T11:12:36.392Z</time>
      </trkpt>
      <trkpt lat="46.8744" lon="8.4968">
        <ele>1565</ele>
        <time>2021-08-11T11:12:43.388Z</time>
      </trkpt>
      <trkpt lat="46.8744" lon="8.49679">
        <ele>1565</ele>
        <time>2021-08-11T11:12:44.388Z</time>
      </trkpt>
      <trkpt lat="46.87441" lon="8.49679">
        <ele>1565</ele>
        <time>2021-08-11T11:12:45.390Z</time>
      </trkpt>
      <trkpt lat="46.87441" lon="8.49678">
        <ele>1565</ele>
        <time>2021-08-11T11:12:46.389Z</time>
      </trkpt>
      <trkpt lat="46.87441" lon="8.49678">
        <ele>1565</ele>
        <time>2021-08-11T11:12:47.389Z</time>
      </trkpt>
      <trkpt lat="46.87442" lon="8.49678">
        <ele>1565</ele>
        <time>2021-08-11T11:12:48.390Z</time>
      </trkpt>
      <trkpt lat="46.87442" lon="8.49678">
        <ele>1565</ele>
        <time>2021-08-11T11:13:08.534Z</time>
      </trkpt>
      <trkpt lat="46.87441" lon="8.49679">
        <ele>1565</ele>
        <time>2021-08-11T11:13:09.535Z</time>
      </trkpt>
      <trkpt lat="46.87441" lon="8.4968">
        <ele>1566</ele>
        <time>2021-08-11T11:13:10.535Z</time>
      </trkpt>
      <trkpt lat="46.87441" lon="8.4968">
        <ele>1566</ele>
        <time>2021-08-11T11:13:15.563Z</time>
      </trkpt>
      <trkpt lat="46.87441" lon="8.4968">
        <ele>1565</ele>
        <time>2021-08-11T11:13:16.564Z</time>
      </trkpt>
      <trkpt lat="46.8744" lon="8.49681">
        <ele>1565</ele>
        <time>2021-08-11T11:13:17.564Z</time>
      </trkpt>
      <trkpt lat="46.87439" lon="8.4968">
        <ele>1562</ele>
        <time>2021-08-11T11:13:18.564Z</time>
      </trkpt>
      <trkpt lat="46.87439" lon="8.4968">
        <ele>1562</ele>
        <time>2021-08-11T11:13:19.563Z</time>
      </trkpt>
      <trkpt lat="46.8744" lon="8.4968">
        <ele>1562</ele>
        <time>2021-08-11T11:13:32.665Z</time>
      </trkpt>
      <trkpt lat="46.87441" lon="8.49679">
        <ele>1562</ele>
        <time>2021-08-11T11:13:33.665Z</time>
      </trkpt>
      <trkpt lat="46.87441" lon="8.49679">
        <ele>1561</ele>
        <time>2021-08-11T11:13:34.666Z</time>
      </trkpt>
      <trkpt lat="46.87442" lon="8.49679">
        <ele>1561</ele>
        <time>2021-08-11T11:13:36.752Z</time>
      </trkpt>
      <trkpt lat="46.87441" lon="8.49679">
        <ele>1561</ele>
        <time>2021-08-11T11:13:37.752Z</time>
      </trkpt>
      <trkpt lat="46.87441" lon="8.4968">
        <ele>1560</ele>
        <time>2021-08-11T11:13:38.752Z</time>
      </trkpt>
      <trkpt lat="46.87441" lon="8.4968">
        <ele>1560</ele>
        <time>2021-08-11T11:13:39.752Z</time>
      </trkpt>
      <trkpt lat="46.8744" lon="8.49679">
        <ele>1559</ele>
        <time>2021-08-11T11:13:40.752Z</time>
      </trkpt>
      <trkpt lat="46.8744" lon="8.49679">
        <ele>1560</ele>
        <time>2021-08-11T11:13:41.753Z</time>
      </trkpt>
      <trkpt lat="46.8744" lon="8.4968">
        <ele>1561</ele>
        <time>2021-08-11T11:13:42.753Z</time>
      </trkpt>
      <trkpt lat="46.87439" lon="8.4968">
        <ele>1561</ele>
        <time>2021-08-11T11:13:43.752Z</time>
      </trkpt>
      <trkpt lat="46.87439" lon="8.49681">
        <ele>1561</ele>
        <time>2021-08-11T11:13:44.752Z</time>
      </trkpt>
      <trkpt lat="46.87439" lon="8.49684">
        <ele>1559</ele>
        <time>2021-08-11T11:13:46.751Z</time>
      </trkpt>
      <trkpt lat="46.87439" lon="8.49684">
        <ele>1558</ele>
        <time>2021-08-11T11:13:47.750Z</time>
      </trkpt>
      <trkpt lat="46.87438" lon="8.49684">
        <ele>1558</ele>
        <time>2021-08-11T11:13:48.751Z</time>
      </trkpt>
      <trkpt lat="46.87438" lon="8.49684">
        <ele>1558</ele>
        <time>2021-08-11T11:13:49.750Z</time>
      </trkpt>
      <trkpt lat="46.87438" lon="8.49684">
        <ele>1558</ele>
        <time>2021-08-11T11:13:50.751Z</time>
      </trkpt>
      <trkpt lat="46.87438" lon="8.49684">
        <ele>1558</ele>
        <time>2021-08-11T11:13:55.788Z</time>
      </trkpt>
      <trkpt lat="46.87439" lon="8.49684">
        <ele>1559</ele>
        <time>2021-08-11T11:13:56.788Z</time>
      </trkpt>
      <trkpt lat="46.87439" lon="8.49684">
        <ele>1559</ele>
        <time>2021-08-11T11:13:57.787Z</time>
      </trkpt>
      <trkpt lat="46.87439" lon="8.49684">
        <ele>1559</ele>
        <time>2021-08-11T11:13:58.788Z</time>
      </trkpt>
      <trkpt lat="46.8744" lon="8.49684">
        <ele>1563</ele>
        <time>2021-08-11T11:13:59.788Z</time>
      </trkpt>
      <trkpt lat="46.8744" lon="8.49683">
        <ele>1563</ele>
        <time>2021-08-11T11:14:00.787Z</time>
      </trkpt>
      <trkpt lat="46.87441" lon="8.49682">
        <ele>1563</ele>
        <time>2021-08-11T11:14:01.787Z</time>
      </trkpt>
      <trkpt lat="46.87441" lon="8.49681">
        <ele>1563</ele>
        <time>2021-08-11T11:14:02.788Z</time>
      </trkpt>
      <trkpt lat="46.87441" lon="8.49681">
        <ele>1564</ele>
        <time>2021-08-11T11:14:03.788Z</time>
      </trkpt>
      <trkpt lat="46.8744" lon="8.49681">
        <ele>1564</ele>
        <time>2021-08-11T11:14:04.788Z</time>
      </trkpt>
      <trkpt lat="46.87439" lon="8.49682">
        <ele>1564</ele>
        <time>2021-08-11T11:14:05.787Z</time>
      </trkpt>
      <trkpt lat="46.87438" lon="8.49683">
        <ele>1564</ele>
        <time>2021-08-11T11:14:06.787Z</time>
      </trkpt>
      <trkpt lat="46.87438" lon="8.49684">
        <ele>1564</ele>
        <time>2021-08-11T11:14:07.788Z</time>
      </trkpt>
      <trkpt lat="46.87438" lon="8.49684">
        <ele>1564</ele>
        <time>2021-08-11T11:14:08.787Z</time>
      </trkpt>
      <trkpt lat="46.87437" lon="8.49684">
        <ele>1564</ele>
        <time>2021-08-11T11:14:09.788Z</time>
      </trkpt>
      <trkpt lat="46.87437" lon="8.49685">
        <ele>1564</ele>
        <time>2021-08-11T11:14:10.787Z</time>
      </trkpt>
      <trkpt lat="46.87436" lon="8.49685">
        <ele>1564</ele>
        <time>2021-08-11T11:14:11.788Z</time>
      </trkpt>
      <trkpt lat="46.87436" lon="8.49685">
        <ele>1564</ele>
        <time>2021-08-11T11:14:12.787Z</time>
      </trkpt>
      <trkpt lat="46.87437" lon="8.49685">
        <ele>1564</ele>
        <time>2021-08-11T11:14:13.788Z</time>
      </trkpt>
      <trkpt lat="46.87437" lon="8.49685">
        <ele>1564</ele>
        <time>2021-08-11T11:14:14.788Z</time>
      </trkpt>
      <trkpt lat="46.87437" lon="8.49684">
        <ele>1564</ele>
        <time>2021-08-11T11:14:18.889Z</time>
      </trkpt>
      <trkpt lat="46.87437" lon="8.49684">
        <ele>1563</ele>
        <time>2021-08-11T11:14:19.889Z</time>
      </trkpt>
      <trkpt lat="46.87436" lon="8.49685">
        <ele>1564</ele>
        <time>2021-08-11T11:14:20.888Z</time>
      </trkpt>
      <trkpt lat="46.87435" lon="8.49686">
        <ele>1564</ele>
        <time>2021-08-11T11:14:21.890Z</time>
      </trkpt>
      <trkpt lat="46.87435" lon="8.49686">
        <ele>1564</ele>
        <time>2021-08-11T11:14:22.890Z</time>
      </trkpt>
      <trkpt lat="46.87435" lon="8.49686">
        <ele>1565</ele>
        <time>2021-08-11T11:14:23.889Z</time>
      </trkpt>
      <trkpt lat="46.87436" lon="8.49686">
        <ele>1565</ele>
        <time>2021-08-11T11:14:24.890Z</time>
      </trkpt>
      <trkpt lat="46.87437" lon="8.49684">
        <ele>1564</ele>
        <time>2021-08-11T11:14:25.890Z</time>
      </trkpt>
      <trkpt lat="46.87437" lon="8.49685">
        <ele>1564</ele>
        <time>2021-08-11T11:14:26.889Z</time>
      </trkpt>
      <trkpt lat="46.87436" lon="8.49685">
        <ele>1564</ele>
        <time>2021-08-11T11:14:27.890Z</time>
      </trkpt>
      <trkpt lat="46.87438" lon="8.49682">
        <ele>1561</ele>
        <time>2021-08-11T11:14:28.890Z</time>
      </trkpt>
      <trkpt lat="46.87438" lon="8.49682">
        <ele>1561</ele>
        <time>2021-08-11T11:14:29.889Z</time>
      </trkpt>
      <trkpt lat="46.87437" lon="8.49683">
        <ele>1561</ele>
        <time>2021-08-11T11:14:30.889Z</time>
      </trkpt>
      <trkpt lat="46.87437" lon="8.49683">
        <ele>1561</ele>
        <time>2021-08-11T11:14:31.889Z</time>
      </trkpt>
      <trkpt lat="46.87436" lon="8.49683">
        <ele>1561</ele>
        <time>2021-08-11T11:14:32.889Z</time>
      </trkpt>
      <trkpt lat="46.87436" lon="8.49684">
        <ele>1560</ele>
        <time>2021-08-11T11:14:33.889Z</time>
      </trkpt>
      <trkpt lat="46.87436" lon="8.49684">
        <ele>1560</ele>
        <time>2021-08-11T11:14:41.020Z</time>
      </trkpt>
      <trkpt lat="46.87435" lon="8.49684">
        <ele>1559</ele>
        <time>2021-08-11T11:14:48.768Z</time>
      </trkpt>
      <trkpt lat="46.87435" lon="8.49685">
        <ele>1559</ele>
        <time>2021-08-11T11:14:49.768Z</time>
      </trkpt>
      <trkpt lat="46.87435" lon="8.49685">
        <ele>1559</ele>
        <time>2021-08-11T11:14:55.539Z</time>
      </trkpt>
      <trkpt lat="46.87435" lon="8.49685">
        <ele>1559</ele>
        <time>2021-08-11T11:14:56.539Z</time>
      </trkpt>
      <trkpt lat="46.87434" lon="8.49686">
        <ele>1559</ele>
        <time>2021-08-11T11:14:57.539Z</time>
      </trkpt>
      <trkpt lat="46.87435" lon="8.49686">
        <ele>1559</ele>
        <time>2021-08-11T11:14:58.540Z</time>
      </trkpt>
      <trkpt lat="46.87435" lon="8.49686">
        <ele>1560</ele>
        <time>2021-08-11T11:14:59.539Z</time>
      </trkpt>
      <trkpt lat="46.87435" lon="8.49686">
        <ele>1560</ele>
        <time>2021-08-11T11:15:00.539Z</time>
      </trkpt>
      <trkpt lat="46.87436" lon="8.49686">
        <ele>1560</ele>
        <time>2021-08-11T11:15:01.540Z</time>
      </trkpt>
      <trkpt lat="46.87436" lon="8.49686">
        <ele>1561</ele>
        <time>2021-08-11T11:15:02.540Z</time>
      </trkpt>
      <trkpt lat="46.87436" lon="8.49686">
        <ele>1561</ele>
        <time>2021-08-11T11:15:03.540Z</time>
      </trkpt>
      <trkpt lat="46.87436" lon="8.49686">
        <ele>1561</ele>
        <time>2021-08-11T11:15:04.539Z</time>
      </trkpt>
      <trkpt lat="46.87442" lon="8.49681">
        <ele>1564</ele>
        <time>2021-08-11T11:15:05.540Z</time>
      </trkpt>
      <trkpt lat="46.87446" lon="8.49677">
        <ele>1561</ele>
        <time>2021-08-11T11:15:06.540Z</time>
      </trkpt>
      <trkpt lat="46.87446" lon="8.49678">
        <ele>1561</ele>
        <time>2021-08-11T11:15:07.540Z</time>
      </trkpt>
      <trkpt lat="46.87447" lon="8.49678">
        <ele>1560</ele>
        <time>2021-08-11T11:15:08.540Z</time>
      </trkpt>
      <trkpt lat="46.87447" lon="8.49678">
        <ele>1560</ele>
        <time>2021-08-11T11:15:09.540Z</time>
      </trkpt>
      <trkpt lat="46.87446" lon="8.49678">
        <ele>1560</ele>
        <time>2021-08-11T11:15:10.539Z</time>
      </trkpt>
      <trkpt lat="46.87444" lon="8.4968">
        <ele>1559</ele>
        <time>2021-08-11T11:15:11.539Z</time>
      </trkpt>
      <trkpt lat="46.87443" lon="8.4968">
        <ele>1559</ele>
        <time>2021-08-11T11:15:12.540Z</time>
      </trkpt>
      <trkpt lat="46.87441" lon="8.49682">
        <ele>1564</ele>
        <time>2021-08-11T11:15:13.540Z</time>
      </trkpt>
      <trkpt lat="46.87441" lon="8.49682">
        <ele>1563</ele>
        <time>2021-08-11T11:15:14.541Z</time>
      </trkpt>
      <trkpt lat="46.8744" lon="8.49684">
        <ele>1560</ele>
        <time>2021-08-11T11:15:15.541Z</time>
      </trkpt>
      <trkpt lat="46.8744" lon="8.49684">
        <ele>1559</ele>
        <time>2021-08-11T11:15:16.541Z</time>
      </trkpt>
      <trkpt lat="46.8744" lon="8.49684">
        <ele>1559</ele>
        <time>2021-08-11T11:15:17.540Z</time>
      </trkpt>
      <trkpt lat="46.87439" lon="8.49684">
        <ele>1559</ele>
        <time>2021-08-11T11:15:18.541Z</time>
      </trkpt>
      <trkpt lat="46.87436" lon="8.49686">
        <ele>1561</ele>
        <time>2021-08-11T11:15:19.541Z</time>
      </trkpt>
      <trkpt lat="46.87436" lon="8.49685">
        <ele>1561</ele>
        <time>2021-08-11T11:15:20.541Z</time>
      </trkpt>
      <trkpt lat="46.87436" lon="8.49685">
        <ele>1561</ele>
        <time>2021-08-11T11:15:21.540Z</time>
      </trkpt>
      <trkpt lat="46.87436" lon="8.49686">
        <ele>1561</ele>
        <time>2021-08-11T11:15:22.541Z</time>
      </trkpt>
      <trkpt lat="46.87436" lon="8.49686">
        <ele>1561</ele>
        <time>2021-08-11T11:15:23.540Z</time>
      </trkpt>
      <trkpt lat="46.87437" lon="8.49686">
        <ele>1560</ele>
        <time>2021-08-11T11:15:24.541Z</time>
      </trkpt>
      <trkpt lat="46.87437" lon="8.49685">
        <ele>1559</ele>
        <time>2021-08-11T11:15:25.541Z</time>
      </trkpt>
      <trkpt lat="46.87437" lon="8.49685">
        <ele>1559</ele>
        <time>2021-08-11T11:15:26.541Z</time>
      </trkpt>
      <trkpt lat="46.87437" lon="8.49686">
        <ele>1558</ele>
        <time>2021-08-11T11:15:27.541Z</time>
      </trkpt>
      <trkpt lat="46.8744" lon="8.49681">
        <ele>1558</ele>
        <time>2021-08-11T11:15:28.543Z</time>
      </trkpt>
      <trkpt lat="46.8744" lon="8.4968">
        <ele>1559</ele>
        <time>2021-08-11T11:15:40.671Z</time>
      </trkpt>
      <trkpt lat="46.8744" lon="8.4968">
        <ele>1559</ele>
        <time>2021-08-11T11:15:41.671Z</time>
      </trkpt>
      <trkpt lat="46.87441" lon="8.49682">
        <ele>1560</ele>
        <time>2021-08-11T11:15:42.673Z</time>
      </trkpt>
      <trkpt lat="46.87441" lon="8.49682">
        <ele>1560</ele>
        <time>2021-08-11T11:15:43.672Z</time>
      </trkpt>
      <trkpt lat="46.87441" lon="8.49682">
        <ele>1560</ele>
        <time>2021-08-11T11:15:44.672Z</time>
      </trkpt>
      <trkpt lat="46.87442" lon="8.49681">
        <ele>1556</ele>
        <time>2021-08-11T11:15:45.675Z</time>
      </trkpt>
      <trkpt lat="46.87442" lon="8.49681">
        <ele>1555</ele>
        <time>2021-08-11T11:15:46.675Z</time>
      </trkpt>
      <trkpt lat="46.87443" lon="8.49681">
        <ele>1555</ele>
        <time>2021-08-11T11:15:47.675Z</time>
      </trkpt>
      <trkpt lat="46.87443" lon="8.4968">
        <ele>1555</ele>
        <time>2021-08-11T11:15:48.675Z</time>
      </trkpt>
      <trkpt lat="46.87442" lon="8.49681">
        <ele>1555</ele>
        <time>2021-08-11T11:15:49.675Z</time>
      </trkpt>
      <trkpt lat="46.87442" lon="8.49681">
        <ele>1555</ele>
        <time>2021-08-11T11:15:50.675Z</time>
      </trkpt>
      <trkpt lat="46.87442" lon="8.49682">
        <ele>1555</ele>
        <time>2021-08-11T11:15:51.675Z</time>
      </trkpt>
      <trkpt lat="46.87443" lon="8.49682">
        <ele>1555</ele>
        <time>2021-08-11T11:15:52.675Z</time>
      </trkpt>
      <trkpt lat="46.87441" lon="8.49683">
        <ele>1556</ele>
        <time>2021-08-11T11:15:53.677Z</time>
      </trkpt>
      <trkpt lat="46.87441" lon="8.49683">
        <ele>1556</ele>
        <time>2021-08-11T11:15:54.676Z</time>
      </trkpt>
      <trkpt lat="46.87441" lon="8.49684">
        <ele>1556</ele>
        <time>2021-08-11T11:15:55.676Z</time>
      </trkpt>
      <trkpt lat="46.87441" lon="8.49685">
        <ele>1557</ele>
        <time>2021-08-11T11:15:56.676Z</time>
      </trkpt>
      <trkpt lat="46.87441" lon="8.49685">
        <ele>1558</ele>
        <time>2021-08-11T11:15:57.676Z</time>
      </trkpt>
      <trkpt lat="46.87439" lon="8.49686">
        <ele>1559</ele>
        <time>2021-08-11T11:15:58.677Z</time>
      </trkpt>
      <trkpt lat="46.87439" lon="8.49687">
        <ele>1559</ele>
        <time>2021-08-11T11:15:59.677Z</time>
      </trkpt>
      <trkpt lat="46.87438" lon="8.49687">
        <ele>1559</ele>
        <time>2021-08-11T11:16:00.676Z</time>
      </trkpt>
      <trkpt lat="46.87438" lon="8.49688">
        <ele>1559</ele>
        <time>2021-08-11T11:16:01.677Z</time>
      </trkpt>
      <trkpt lat="46.87438" lon="8.49688">
        <ele>1560</ele>
        <time>2021-08-11T11:16:02.677Z</time>
      </trkpt>
      <trkpt lat="46.87437" lon="8.49688">
        <ele>1560</ele>
        <time>2021-08-11T11:16:03.678Z</time>
      </trkpt>
      <trkpt lat="46.87437" lon="8.49688">
        <ele>1560</ele>
        <time>2021-08-11T11:16:04.678Z</time>
      </trkpt>
      <trkpt lat="46.87436" lon="8.49688">
        <ele>1561</ele>
        <time>2021-08-11T11:16:05.677Z</time>
      </trkpt>
      <trkpt lat="46.87435" lon="8.49689">
        <ele>1561</ele>
        <time>2021-08-11T11:16:06.678Z</time>
      </trkpt>
      <trkpt lat="46.87435" lon="8.49689">
        <ele>1561</ele>
        <time>2021-08-11T11:16:07.677Z</time>
      </trkpt>
      <trkpt lat="46.87435" lon="8.49689">
        <ele>1561</ele>
        <time>2021-08-11T11:16:08.678Z</time>
      </trkpt>
      <trkpt lat="46.87435" lon="8.49688">
        <ele>1561</ele>
        <time>2021-08-11T11:16:09.677Z</time>
      </trkpt>
      <trkpt lat="46.87435" lon="8.49688">
        <ele>1561</ele>
        <time>2021-08-11T11:16:10.678Z</time>
      </trkpt>
      <trkpt lat="46.87436" lon="8.49688">
        <ele>1560</ele>
        <time>2021-08-11T11:16:11.678Z</time>
      </trkpt>
      <trkpt lat="46.87436" lon="8.49688">
        <ele>1560</ele>
        <time>2021-08-11T11:16:12.678Z</time>
      </trkpt>
      <trkpt lat="46.87437" lon="8.49688">
        <ele>1560</ele>
        <time>2021-08-11T11:16:13.677Z</time>
      </trkpt>
      <trkpt lat="46.87438" lon="8.49685">
        <ele>1558</ele>
        <time>2021-08-11T11:16:14.677Z</time>
      </trkpt>
      <trkpt lat="46.87438" lon="8.49685">
        <ele>1558</ele>
        <time>2021-08-11T11:16:15.677Z</time>
      </trkpt>
      <trkpt lat="46.87439" lon="8.49684">
        <ele>1556</ele>
        <time>2021-08-11T11:16:16.679Z</time>
      </trkpt>
      <trkpt lat="46.87439" lon="8.49684">
        <ele>1556</ele>
        <time>2021-08-11T11:16:17.679Z</time>
      </trkpt>
      <trkpt lat="46.87439" lon="8.49685">
        <ele>1556</ele>
        <time>2021-08-11T11:16:18.678Z</time>
      </trkpt>
      <trkpt lat="46.87439" lon="8.49686">
        <ele>1557</ele>
        <time>2021-08-11T11:16:19.679Z</time>
      </trkpt>
      <trkpt lat="46.87439" lon="8.49686">
        <ele>1557</ele>
        <time>2021-08-11T11:16:20.678Z</time>
      </trkpt>
      <trkpt lat="46.87438" lon="8.49687">
        <ele>1557</ele>
        <time>2021-08-11T11:16:21.679Z</time>
      </trkpt>
      <trkpt lat="46.87437" lon="8.49688">
        <ele>1557</ele>
        <time>2021-08-11T11:16:22.678Z</time>
      </trkpt>
      <trkpt lat="46.87436" lon="8.49689">
        <ele>1557</ele>
        <time>2021-08-11T11:16:23.679Z</time>
      </trkpt>
      <trkpt lat="46.87436" lon="8.49689">
        <ele>1558</ele>
        <time>2021-08-11T11:16:24.679Z</time>
      </trkpt>
      <trkpt lat="46.87436" lon="8.49689">
        <ele>1558</ele>
        <time>2021-08-11T11:16:25.679Z</time>
      </trkpt>
      <trkpt lat="46.87436" lon="8.49688">
        <ele>1558</ele>
        <time>2021-08-11T11:16:26.680Z</time>
      </trkpt>
      <trkpt lat="46.87436" lon="8.49688">
        <ele>1558</ele>
        <time>2021-08-11T11:16:27.680Z</time>
      </trkpt>
      <trkpt lat="46.87437" lon="8.49688">
        <ele>1559</ele>
        <time>2021-08-11T11:16:38.698Z</time>
      </trkpt>
      <trkpt lat="46.87437" lon="8.49688">
        <ele>1559</ele>
        <time>2021-08-11T11:16:39.698Z</time>
      </trkpt>
      <trkpt lat="46.87437" lon="8.49689">
        <ele>1559</ele>
        <time>2021-08-11T11:16:40.699Z</time>
      </trkpt>
      <trkpt lat="46.87437" lon="8.4969">
        <ele>1559</ele>
        <time>2021-08-11T11:16:41.698Z</time>
      </trkpt>
      <trkpt lat="46.87438" lon="8.49692">
        <ele>1566</ele>
        <time>2021-08-11T11:16:42.699Z</time>
      </trkpt>
      <trkpt lat="46.87438" lon="8.49693">
        <ele>1566</ele>
        <time>2021-08-11T11:16:43.699Z</time>
      </trkpt>
      <trkpt lat="46.87439" lon="8.49693">
        <ele>1567</ele>
        <time>2021-08-11T11:16:44.698Z</time>
      </trkpt>
      <trkpt lat="46.87439" lon="8.49693">
        <ele>1567</ele>
        <time>2021-08-11T11:16:45.699Z</time>
      </trkpt>
      <trkpt lat="46.87438" lon="8.49694">
        <ele>1567</ele>
        <time>2021-08-11T11:16:46.699Z</time>
      </trkpt>
      <trkpt lat="46.87439" lon="8.49694">
        <ele>1567</ele>
        <time>2021-08-11T11:16:47.699Z</time>
      </trkpt>
      <trkpt lat="46.87438" lon="8.49694">
        <ele>1569</ele>
        <time>2021-08-11T11:16:48.699Z</time>
      </trkpt>
      <trkpt lat="46.87438" lon="8.49694">
        <ele>1569</ele>
        <time>2021-08-11T11:16:49.700Z</time>
      </trkpt>
      <trkpt lat="46.87438" lon="8.49694">
        <ele>1569</ele>
        <time>2021-08-11T11:16:50.699Z</time>
      </trkpt>
      <trkpt lat="46.87438" lon="8.49694">
        <ele>1568</ele>
        <time>2021-08-11T11:16:51.699Z</time>
      </trkpt>
      <trkpt lat="46.87439" lon="8.49694">
        <ele>1568</ele>
        <time>2021-08-11T11:16:52.700Z</time>
      </trkpt>
      <trkpt lat="46.87439" lon="8.49695">
        <ele>1568</ele>
        <time>2021-08-11T11:16:53.700Z</time>
      </trkpt>
      <trkpt lat="46.87439" lon="8.49695">
        <ele>1568</ele>
        <time>2021-08-11T11:16:54.700Z</time>
      </trkpt>
      <trkpt lat="46.87439" lon="8.49695">
        <ele>1568</ele>
        <time>2021-08-11T11:16:55.699Z</time>
      </trkpt>
      <trkpt lat="46.87439" lon="8.49696">
        <ele>1568</ele>
        <time>2021-08-11T11:16:56.700Z</time>
      </trkpt>
      <trkpt lat="46.87439" lon="8.49696">
        <ele>1568</ele>
        <time>2021-08-11T11:16:57.700Z</time>
      </trkpt>
      <trkpt lat="46.87439" lon="8.49696">
        <ele>1568</ele>
        <time>2021-08-11T11:16:58.701Z</time>
      </trkpt>
      <trkpt lat="46.87439" lon="8.49695">
        <ele>1568</ele>
        <time>2021-08-11T11:16:59.701Z</time>
      </trkpt>
      <trkpt lat="46.87439" lon="8.49695">
        <ele>1567</ele>
        <time>2021-08-11T11:17:00.700Z</time>
      </trkpt>
      <trkpt lat="46.87439" lon="8.49694">
        <ele>1567</ele>
        <time>2021-08-11T11:17:01.701Z</time>
      </trkpt>
      <trkpt lat="46.8744" lon="8.4969">
        <ele>1565</ele>
        <time>2021-08-11T11:17:02.702Z</time>
      </trkpt>
      <trkpt lat="46.8744" lon="8.4969">
        <ele>1564</ele>
        <time>2021-08-11T11:17:03.702Z</time>
      </trkpt>
      <trkpt lat="46.8744" lon="8.4969">
        <ele>1563</ele>
        <time>2021-08-11T11:17:04.702Z</time>
      </trkpt>
      <trkpt lat="46.8744" lon="8.4969">
        <ele>1563</ele>
        <time>2021-08-11T11:17:05.702Z</time>
      </trkpt>
      <trkpt lat="46.8744" lon="8.4969">
        <ele>1562</ele>
        <time>2021-08-11T11:17:06.702Z</time>
      </trkpt>
      <trkpt lat="46.87439" lon="8.49688">
        <ele>1560</ele>
        <time>2021-08-11T11:17:07.703Z</time>
      </trkpt>
      <trkpt lat="46.87439" lon="8.49686">
        <ele>1562</ele>
        <time>2021-08-11T11:17:08.702Z</time>
      </trkpt>
      <trkpt lat="46.8744" lon="8.49686">
        <ele>1563</ele>
        <time>2021-08-11T11:17:09.703Z</time>
      </trkpt>
      <trkpt lat="46.87443" lon="8.49687">
        <ele>1563</ele>
        <time>2021-08-11T11:17:10.704Z</time>
      </trkpt>
      <trkpt lat="46.87444" lon="8.49686">
        <ele>1564</ele>
        <time>2021-08-11T11:17:11.704Z</time>
      </trkpt>
      <trkpt lat="46.87444" lon="8.49686">
        <ele>1564</ele>
        <time>2021-08-11T11:17:12.703Z</time>
      </trkpt>
      <trkpt lat="46.87444" lon="8.49685">
        <ele>1565</ele>
        <time>2021-08-11T11:17:13.704Z</time>
      </trkpt>
      <trkpt lat="46.87443" lon="8.49687">
        <ele>1565</ele>
        <time>2021-08-11T11:17:14.705Z</time>
      </trkpt>
      <trkpt lat="46.87443" lon="8.49687">
        <ele>1565</ele>
        <time>2021-08-11T11:17:15.704Z</time>
      </trkpt>
      <trkpt lat="46.87438" lon="8.49686">
        <ele>1560</ele>
        <time>2021-08-11T11:17:16.705Z</time>
      </trkpt>
      <trkpt lat="46.87439" lon="8.49688">
        <ele>1561</ele>
        <time>2021-08-11T11:17:17.706Z</time>
      </trkpt>
      <trkpt lat="46.87439" lon="8.49688">
        <ele>1561</ele>
        <time>2021-08-11T11:17:18.705Z</time>
      </trkpt>
      <trkpt lat="46.87437" lon="8.49685">
        <ele>1560</ele>
        <time>2021-08-11T11:17:19.706Z</time>
      </trkpt>
      <trkpt lat="46.87437" lon="8.49686">
        <ele>1560</ele>
        <time>2021-08-11T11:17:20.705Z</time>
      </trkpt>
      <trkpt lat="46.87437" lon="8.49686">
        <ele>1561</ele>
        <time>2021-08-11T11:17:21.705Z</time>
      </trkpt>
      <trkpt lat="46.87437" lon="8.49686">
        <ele>1561</ele>
        <time>2021-08-11T11:17:22.706Z</time>
      </trkpt>
      <trkpt lat="46.87433" lon="8.49681">
        <ele>1563</ele>
        <time>2021-08-11T11:17:23.705Z</time>
      </trkpt>
      <trkpt lat="46.87433" lon="8.49681">
        <ele>1563</ele>
        <time>2021-08-11T11:17:24.705Z</time>
      </trkpt>
      <trkpt lat="46.87432" lon="8.49682">
        <ele>1562</ele>
        <time>2021-08-11T11:17:25.705Z</time>
      </trkpt>
      <trkpt lat="46.87432" lon="8.49683">
        <ele>1562</ele>
        <time>2021-08-11T11:17:26.705Z</time>
      </trkpt>
      <trkpt lat="46.87432" lon="8.49683">
        <ele>1562</ele>
        <time>2021-08-11T11:17:27.706Z</time>
      </trkpt>
      <trkpt lat="46.87432" lon="8.49683">
        <ele>1562</ele>
        <time>2021-08-11T11:17:28.706Z</time>
      </trkpt>
      <trkpt lat="46.87433" lon="8.49682">
        <ele>1561</ele>
        <time>2021-08-11T11:17:29.706Z</time>
      </trkpt>
      <trkpt lat="46.87434" lon="8.49682">
        <ele>1561</ele>
        <time>2021-08-11T11:17:30.706Z</time>
      </trkpt>
      <trkpt lat="46.87434" lon="8.49682">
        <ele>1561</ele>
        <time>2021-08-11T11:17:34.830Z</time>
      </trkpt>
      <trkpt lat="46.87435" lon="8.4968">
        <ele>1559</ele>
        <time>2021-08-11T11:17:35.832Z</time>
      </trkpt>
      <trkpt lat="46.87435" lon="8.4968">
        <ele>1558</ele>
        <time>2021-08-11T11:17:36.832Z</time>
      </trkpt>
      <trkpt lat="46.87436" lon="8.49679">
        <ele>1558</ele>
        <time>2021-08-11T11:17:37.831Z</time>
      </trkpt>
      <trkpt lat="46.87436" lon="8.49679">
        <ele>1557</ele>
        <time>2021-08-11T11:17:40.922Z</time>
      </trkpt>
      <trkpt lat="46.87437" lon="8.49679">
        <ele>1557</ele>
        <time>2021-08-11T11:17:41.922Z</time>
      </trkpt>
      <trkpt lat="46.87437" lon="8.49679">
        <ele>1556</ele>
        <time>2021-08-11T11:17:42.923Z</time>
      </trkpt>
      <trkpt lat="46.87437" lon="8.49679">
        <ele>1556</ele>
        <time>2021-08-11T11:17:43.923Z</time>
      </trkpt>
      <trkpt lat="46.87438" lon="8.49678">
        <ele>1556</ele>
        <time>2021-08-11T11:17:44.922Z</time>
      </trkpt>
      <trkpt lat="46.87438" lon="8.49679">
        <ele>1556</ele>
        <time>2021-08-11T11:17:45.922Z</time>
      </trkpt>
      <trkpt lat="46.87439" lon="8.49679">
        <ele>1556</ele>
        <time>2021-08-11T11:17:46.923Z</time>
      </trkpt>
      <trkpt lat="46.87439" lon="8.4968">
        <ele>1557</ele>
        <time>2021-08-11T11:17:47.923Z</time>
      </trkpt>
      <trkpt lat="46.8744" lon="8.4968">
        <ele>1557</ele>
        <time>2021-08-11T11:17:48.923Z</time>
      </trkpt>
      <trkpt lat="46.87439" lon="8.49683">
        <ele>1563</ele>
        <time>2021-08-11T11:17:49.924Z</time>
      </trkpt>
      <trkpt lat="46.8744" lon="8.49683">
        <ele>1563</ele>
        <time>2021-08-11T11:17:50.923Z</time>
      </trkpt>
      <trkpt lat="46.8744" lon="8.49683">
        <ele>1565</ele>
        <time>2021-08-11T11:17:51.924Z</time>
      </trkpt>
      <trkpt lat="46.8744" lon="8.49682">
        <ele>1565</ele>
        <time>2021-08-11T11:17:52.925Z</time>
      </trkpt>
      <trkpt lat="46.8744" lon="8.49682">
        <ele>1565</ele>
        <time>2021-08-11T11:17:53.925Z</time>
      </trkpt>
      <trkpt lat="46.87441" lon="8.49683">
        <ele>1569</ele>
        <time>2021-08-11T11:17:54.926Z</time>
      </trkpt>
      <trkpt lat="46.87441" lon="8.49683">
        <ele>1569</ele>
        <time>2021-08-11T11:17:56.900Z</time>
      </trkpt>
      <trkpt lat="46.87441" lon="8.49682">
        <ele>1569</ele>
        <time>2021-08-11T11:17:57.899Z</time>
      </trkpt>
      <trkpt lat="46.87438" lon="8.49683">
        <ele>1562</ele>
        <time>2021-08-11T11:17:58.900Z</time>
      </trkpt>
      <trkpt lat="46.87438" lon="8.49683">
        <ele>1562</ele>
        <time>2021-08-11T11:18:05.917Z</time>
      </trkpt>
      <trkpt lat="46.87438" lon="8.49684">
        <ele>1560</ele>
        <time>2021-08-11T11:18:06.918Z</time>
      </trkpt>
      <trkpt lat="46.87439" lon="8.49684">
        <ele>1560</ele>
        <time>2021-08-11T11:18:10.689Z</time>
      </trkpt>
      <trkpt lat="46.87439" lon="8.49684">
        <ele>1560</ele>
        <time>2021-08-11T11:18:11.688Z</time>
      </trkpt>
      <trkpt lat="46.87439" lon="8.49683">
        <ele>1561</ele>
        <time>2021-08-11T11:18:12.688Z</time>
      </trkpt>
      <trkpt lat="46.87439" lon="8.49683">
        <ele>1561</ele>
        <time>2021-08-11T11:18:13.689Z</time>
      </trkpt>
      <trkpt lat="46.87439" lon="8.49683">
        <ele>1561</ele>
        <time>2021-08-11T11:18:14.688Z</time>
      </trkpt>
      <trkpt lat="46.87439" lon="8.49683">
        <ele>1561</ele>
        <time>2021-08-11T11:18:40.662Z</time>
      </trkpt>
      <trkpt lat="46.8744" lon="8.49684">
        <ele>1562</ele>
        <time>2021-08-11T11:18:50.441Z</time>
      </trkpt>
      <trkpt lat="46.87439" lon="8.49683">
        <ele>1564</ele>
        <time>2021-08-11T11:18:51.441Z</time>
      </trkpt>
      <trkpt lat="46.87439" lon="8.49684">
        <ele>1564</ele>
        <time>2021-08-11T11:18:52.441Z</time>
      </trkpt>
      <trkpt lat="46.87437" lon="8.49685">
        <ele>1561</ele>
        <time>2021-08-11T11:18:53.442Z</time>
      </trkpt>
      <trkpt lat="46.87437" lon="8.49688">
        <ele>1560</ele>
        <time>2021-08-11T11:18:54.442Z</time>
      </trkpt>
      <trkpt lat="46.87437" lon="8.49689">
        <ele>1560</ele>
        <time>2021-08-11T11:18:55.441Z</time>
      </trkpt>
      <trkpt lat="46.87437" lon="8.49688">
        <ele>1560</ele>
        <time>2021-08-11T11:18:56.441Z</time>
      </trkpt>
      <trkpt lat="46.87436" lon="8.49689">
        <ele>1560</ele>
        <time>2021-08-11T11:18:57.443Z</time>
      </trkpt>
      <trkpt lat="46.87436" lon="8.49688">
        <ele>1557</ele>
        <time>2021-08-11T11:18:58.442Z</time>
      </trkpt>
      <trkpt lat="46.87437" lon="8.49688">
        <ele>1557</ele>
        <time>2021-08-11T11:18:59.443Z</time>
      </trkpt>
      <trkpt lat="46.87437" lon="8.49687">
        <ele>1557</ele>
        <time>2021-08-11T11:19:00.442Z</time>
      </trkpt>
      <trkpt lat="46.87437" lon="8.49686">
        <ele>1556</ele>
        <time>2021-08-11T11:19:01.443Z</time>
      </trkpt>
      <trkpt lat="46.87437" lon="8.49687">
        <ele>1556</ele>
        <time>2021-08-11T11:19:02.443Z</time>
      </trkpt>
      <trkpt lat="46.87436" lon="8.49687">
        <ele>1556</ele>
        <time>2021-08-11T11:19:03.443Z</time>
      </trkpt>
      <trkpt lat="46.87436" lon="8.49687">
        <ele>1556</ele>
        <time>2021-08-11T11:19:04.442Z</time>
      </trkpt>
      <trkpt lat="46.87437" lon="8.49686">
        <ele>1555</ele>
        <time>2021-08-11T11:19:05.442Z</time>
      </trkpt>
      <trkpt lat="46.87434" lon="8.49686">
        <ele>1551</ele>
        <time>2021-08-11T11:19:06.442Z</time>
      </trkpt>
      <trkpt lat="46.87433" lon="8.49685">
        <ele>1550</ele>
        <time>2021-08-11T11:19:07.442Z</time>
      </trkpt>
      <trkpt lat="46.87433" lon="8.49685">
        <ele>1549</ele>
        <time>2021-08-11T11:19:08.442Z</time>
      </trkpt>
      <trkpt lat="46.87433" lon="8.49685">
        <ele>1548</ele>
        <time>2021-08-11T11:19:09.444Z</time>
      </trkpt>
      <trkpt lat="46.87433" lon="8.49685">
        <ele>1548</ele>
        <time>2021-08-11T11:19:10.444Z</time>
      </trkpt>
      <trkpt lat="46.87433" lon="8.49685">
        <ele>1549</ele>
        <time>2021-08-11T11:19:11.443Z</time>
      </trkpt>
      <trkpt lat="46.87436" lon="8.49684">
        <ele>1554</ele>
        <time>2021-08-11T11:19:12.444Z</time>
      </trkpt>
      <trkpt lat="46.87436" lon="8.49685">
        <ele>1555</ele>
        <time>2021-08-11T11:19:13.443Z</time>
      </trkpt>
      <trkpt lat="46.87437" lon="8.49685">
        <ele>1558</ele>
        <time>2021-08-11T11:19:14.443Z</time>
      </trkpt>
      <trkpt lat="46.87437" lon="8.49685">
        <ele>1558</ele>
        <time>2021-08-11T11:19:15.443Z</time>
      </trkpt>
      <trkpt lat="46.87437" lon="8.49685">
        <ele>1558</ele>
        <time>2021-08-11T11:19:16.443Z</time>
      </trkpt>
      <trkpt lat="46.87436" lon="8.49685">
        <ele>1556</ele>
        <time>2021-08-11T11:19:17.443Z</time>
      </trkpt>
      <trkpt lat="46.87436" lon="8.49685">
        <ele>1556</ele>
        <time>2021-08-11T11:19:18.443Z</time>
      </trkpt>
      <trkpt lat="46.87438" lon="8.49684">
        <ele>1557</ele>
        <time>2021-08-11T11:19:19.445Z</time>
      </trkpt>
      <trkpt lat="46.87438" lon="8.49685">
        <ele>1557</ele>
        <time>2021-08-11T11:19:20.445Z</time>
      </trkpt>
      <trkpt lat="46.87437" lon="8.49686">
        <ele>1557</ele>
        <time>2021-08-11T11:19:21.444Z</time>
      </trkpt>
      <trkpt lat="46.87437" lon="8.49686">
        <ele>1556</ele>
        <time>2021-08-11T11:19:29.594Z</time>
      </trkpt>
      <trkpt lat="46.87437" lon="8.49686">
        <ele>1556</ele>
        <time>2021-08-11T11:19:30.594Z</time>
      </trkpt>
      <trkpt lat="46.87437" lon="8.49686">
        <ele>1557</ele>
        <time>2021-08-11T11:19:31.595Z</time>
      </trkpt>
      <trkpt lat="46.87437" lon="8.49687">
        <ele>1557</ele>
        <time>2021-08-11T11:19:32.596Z</time>
      </trkpt>
      <trkpt lat="46.87437" lon="8.49687">
        <ele>1557</ele>
        <time>2021-08-11T11:19:33.596Z</time>
      </trkpt>
      <trkpt lat="46.87437" lon="8.49687">
        <ele>1556</ele>
        <time>2021-08-11T11:19:34.596Z</time>
      </trkpt>
      <trkpt lat="46.87437" lon="8.49687">
        <ele>1556</ele>
        <time>2021-08-11T11:19:35.596Z</time>
      </trkpt>
      <trkpt lat="46.87436" lon="8.49688">
        <ele>1554</ele>
        <time>2021-08-11T11:19:36.596Z</time>
      </trkpt>
      <trkpt lat="46.87435" lon="8.49688">
        <ele>1554</ele>
        <time>2021-08-11T11:19:37.597Z</time>
      </trkpt>
      <trkpt lat="46.87434" lon="8.49688">
        <ele>1553</ele>
        <time>2021-08-11T11:19:38.596Z</time>
      </trkpt>
      <trkpt lat="46.87434" lon="8.49688">
        <ele>1552</ele>
        <time>2021-08-11T11:19:39.597Z</time>
      </trkpt>
      <trkpt lat="46.87437" lon="8.49688">
        <ele>1556</ele>
        <time>2021-08-11T11:19:40.597Z</time>
      </trkpt>
      <trkpt lat="46.87439" lon="8.49688">
        <ele>1563</ele>
        <time>2021-08-11T11:19:41.599Z</time>
      </trkpt>
      <trkpt lat="46.87439" lon="8.49688">
        <ele>1563</ele>
        <time>2021-08-11T11:19:42.598Z</time>
      </trkpt>
      <trkpt lat="46.87439" lon="8.49686">
        <ele>1563</ele>
        <time>2021-08-11T11:19:43.599Z</time>
      </trkpt>
      <trkpt lat="46.87439" lon="8.49685">
        <ele>1563</ele>
        <time>2021-08-11T11:19:45.655Z</time>
      </trkpt>
      <trkpt lat="46.87438" lon="8.49684">
        <ele>1563</ele>
        <time>2021-08-11T11:19:46.654Z</time>
      </trkpt>
      <trkpt lat="46.87439" lon="8.49683">
        <ele>1563</ele>
        <time>2021-08-11T11:19:47.654Z</time>
      </trkpt>
      <trkpt lat="46.8744" lon="8.49683">
        <ele>1563</ele>
        <time>2021-08-11T11:19:48.654Z</time>
      </trkpt>
      <trkpt lat="46.8744" lon="8.49683">
        <ele>1564</ele>
        <time>2021-08-11T11:19:49.655Z</time>
      </trkpt>
      <trkpt lat="46.8744" lon="8.49683">
        <ele>1564</ele>
        <time>2021-08-11T11:19:50.655Z</time>
      </trkpt>
      <trkpt lat="46.87441" lon="8.49685">
        <ele>1561</ele>
        <time>2021-08-11T11:19:51.656Z</time>
      </trkpt>
      <trkpt lat="46.87441" lon="8.49685">
        <ele>1562</ele>
        <time>2021-08-11T11:19:52.656Z</time>
      </trkpt>
      <trkpt lat="46.87441" lon="8.49686">
        <ele>1563</ele>
        <time>2021-08-11T11:19:53.656Z</time>
      </trkpt>
      <trkpt lat="46.87441" lon="8.49687">
        <ele>1563</ele>
        <time>2021-08-11T11:19:54.655Z</time>
      </trkpt>
      <trkpt lat="46.87441" lon="8.49687">
        <ele>1563</ele>
        <time>2021-08-11T11:19:55.655Z</time>
      </trkpt>
      <trkpt lat="46.87444" lon="8.49688">
        <ele>1566</ele>
        <time>2021-08-11T11:19:56.655Z</time>
      </trkpt>
      <trkpt lat="46.87443" lon="8.49687">
        <ele>1566</ele>
        <time>2021-08-11T11:19:57.656Z</time>
      </trkpt>
      <trkpt lat="46.87442" lon="8.49687">
        <ele>1566</ele>
        <time>2021-08-11T11:19:58.656Z</time>
      </trkpt>
      <trkpt lat="46.87442" lon="8.49687">
        <ele>1566</ele>
        <time>2021-08-11T11:19:59.655Z</time>
      </trkpt>
      <trkpt lat="46.87441" lon="8.49687">
        <ele>1563</ele>
        <time>2021-08-11T11:20:05.675Z</time>
      </trkpt>
      <trkpt lat="46.87441" lon="8.49686">
        <ele>1562</ele>
        <time>2021-08-11T11:20:06.675Z</time>
      </trkpt>
      <trkpt lat="46.87442" lon="8.49685">
        <ele>1562</ele>
        <time>2021-08-11T11:20:07.675Z</time>
      </trkpt>
      <trkpt lat="46.8744" lon="8.49687">
        <ele>1564</ele>
        <time>2021-08-11T11:20:08.675Z</time>
      </trkpt>
      <trkpt lat="46.8744" lon="8.49688">
        <ele>1564</ele>
        <time>2021-08-11T11:20:21.679Z</time>
      </trkpt>
      <trkpt lat="46.8744" lon="8.49688">
        <ele>1564</ele>
        <time>2021-08-11T11:20:22.679Z</time>
      </trkpt>
      <trkpt lat="46.8744" lon="8.49688">
        <ele>1564</ele>
        <time>2021-08-11T11:20:23.679Z</time>
      </trkpt>
      <trkpt lat="46.8744" lon="8.49687">
        <ele>1563</ele>
        <time>2021-08-11T11:20:24.680Z</time>
      </trkpt>
      <trkpt lat="46.8744" lon="8.49687">
        <ele>1563</ele>
        <time>2021-08-11T11:20:25.679Z</time>
      </trkpt>
      <trkpt lat="46.8744" lon="8.49687">
        <ele>1563</ele>
        <time>2021-08-11T11:20:26.679Z</time>
      </trkpt>
      <trkpt lat="46.8744" lon="8.49687">
        <ele>1563</ele>
        <time>2021-08-11T11:20:27.680Z</time>
      </trkpt>
      <trkpt lat="46.87439" lon="8.49689">
        <ele>1562</ele>
        <time>2021-08-11T11:20:28.679Z</time>
      </trkpt>
      <trkpt lat="46.8744" lon="8.49689">
        <ele>1562</ele>
        <time>2021-08-11T11:20:29.679Z</time>
      </trkpt>
      <trkpt lat="46.8744" lon="8.49689">
        <ele>1562</ele>
        <time>2021-08-11T11:20:30.679Z</time>
      </trkpt>
      <trkpt lat="46.87441" lon="8.49689">
        <ele>1562</ele>
        <time>2021-08-11T11:20:38.720Z</time>
      </trkpt>
      <trkpt lat="46.87441" lon="8.49689">
        <ele>1563</ele>
        <time>2021-08-11T11:20:39.720Z</time>
      </trkpt>
      <trkpt lat="46.87441" lon="8.49689">
        <ele>1564</ele>
        <time>2021-08-11T11:20:40.720Z</time>
      </trkpt>
      <trkpt lat="46.87441" lon="8.49689">
        <ele>1564</ele>
        <time>2021-08-11T11:20:41.720Z</time>
      </trkpt>
      <trkpt lat="46.87441" lon="8.49689">
        <ele>1565</ele>
        <time>2021-08-11T11:20:43.840Z</time>
      </trkpt>
      <trkpt lat="46.87441" lon="8.49689">
        <ele>1565</ele>
        <time>2021-08-11T11:20:44.840Z</time>
      </trkpt>
      <trkpt lat="46.87441" lon="8.49689">
        <ele>1565</ele>
        <time>2021-08-11T11:20:45.840Z</time>
      </trkpt>
      <trkpt lat="46.87441" lon="8.49688">
        <ele>1565</ele>
        <time>2021-08-11T11:20:46.840Z</time>
      </trkpt>
      <trkpt lat="46.87442" lon="8.49687">
        <ele>1564</ele>
        <time>2021-08-11T11:20:47.840Z</time>
      </trkpt>
      <trkpt lat="46.87438" lon="8.49689">
        <ele>1565</ele>
        <time>2021-08-11T11:20:48.841Z</time>
      </trkpt>
      <trkpt lat="46.87437" lon="8.49688">
        <ele>1564</ele>
        <time>2021-08-11T11:20:50.910Z</time>
      </trkpt>
      <trkpt lat="46.87437" lon="8.49688">
        <ele>1563</ele>
        <time>2021-08-11T11:20:51.909Z</time>
      </trkpt>
      <trkpt lat="46.87439" lon="8.4969">
        <ele>1558</ele>
        <time>2021-08-11T11:20:52.911Z</time>
      </trkpt>
      <trkpt lat="46.87438" lon="8.49689">
        <ele>1557</ele>
        <time>2021-08-11T11:20:53.910Z</time>
      </trkpt>
      <trkpt lat="46.87439" lon="8.49689">
        <ele>1557</ele>
        <time>2021-08-11T11:20:54.910Z</time>
      </trkpt>
      <trkpt lat="46.8744" lon="8.49686">
        <ele>1560</ele>
        <time>2021-08-11T11:20:55.911Z</time>
      </trkpt>
      <trkpt lat="46.87441" lon="8.49686">
        <ele>1560</ele>
        <time>2021-08-11T11:20:56.911Z</time>
      </trkpt>
      <trkpt lat="46.87441" lon="8.49685">
        <ele>1561</ele>
        <time>2021-08-11T11:20:57.910Z</time>
      </trkpt>
      <trkpt lat="46.87441" lon="8.49685">
        <ele>1561</ele>
        <time>2021-08-11T11:20:58.911Z</time>
      </trkpt>
      <trkpt lat="46.87442" lon="8.49685">
        <ele>1562</ele>
        <time>2021-08-11T11:20:59.912Z</time>
      </trkpt>
      <trkpt lat="46.87443" lon="8.49685">
        <ele>1562</ele>
        <time>2021-08-11T11:21:00.913Z</time>
      </trkpt>
      <trkpt lat="46.87443" lon="8.49685">
        <ele>1562</ele>
        <time>2021-08-11T11:21:01.912Z</time>
      </trkpt>
      <trkpt lat="46.87443" lon="8.49684">
        <ele>1563</ele>
        <time>2021-08-11T11:21:44.922Z</time>
      </trkpt>
      <trkpt lat="46.87442" lon="8.49684">
        <ele>1563</ele>
        <time>2021-08-11T11:21:50.674Z</time>
      </trkpt>
      <trkpt lat="46.87442" lon="8.49684">
        <ele>1563</ele>
        <time>2021-08-11T11:21:51.674Z</time>
      </trkpt>
      <trkpt lat="46.87442" lon="8.49683">
        <ele>1563</ele>
        <time>2021-08-11T11:23:12.445Z</time>
      </trkpt>
      <trkpt lat="46.87443" lon="8.49682">
        <ele>1564</ele>
        <time>2021-08-11T11:23:13.446Z</time>
      </trkpt>
      <trkpt lat="46.87443" lon="8.49682">
        <ele>1564</ele>
        <time>2021-08-11T11:23:17.320Z</time>
      </trkpt>
      <trkpt lat="46.87443" lon="8.49681">
        <ele>1564</ele>
        <time>2021-08-11T11:23:18.320Z</time>
      </trkpt>
      <trkpt lat="46.87442" lon="8.49681">
        <ele>1564</ele>
        <time>2021-08-11T11:23:19.320Z</time>
      </trkpt>
      <trkpt lat="46.87442" lon="8.4968">
        <ele>1563</ele>
        <time>2021-08-11T11:23:20.320Z</time>
      </trkpt>
      <trkpt lat="46.87442" lon="8.4968">
        <ele>1563</ele>
        <time>2021-08-11T11:23:21.321Z</time>
      </trkpt>
      <trkpt lat="46.87443" lon="8.49679">
        <ele>1563</ele>
        <time>2021-08-11T11:23:22.321Z</time>
      </trkpt>
      <trkpt lat="46.87442" lon="8.49679">
        <ele>1562</ele>
        <time>2021-08-11T11:23:23.321Z</time>
      </trkpt>
      <trkpt lat="46.87442" lon="8.49678">
        <ele>1562</ele>
        <time>2021-08-11T11:23:24.321Z</time>
      </trkpt>
      <trkpt lat="46.87442" lon="8.49678">
        <ele>1562</ele>
        <time>2021-08-11T11:23:25.320Z</time>
      </trkpt>
      <trkpt lat="46.87443" lon="8.49678">
        <ele>1561</ele>
        <time>2021-08-11T11:23:26.321Z</time>
      </trkpt>
      <trkpt lat="46.87443" lon="8.49677">
        <ele>1561</ele>
        <time>2021-08-11T11:23:27.321Z</time>
      </trkpt>
      <trkpt lat="46.87444" lon="8.49677">
        <ele>1561</ele>
        <time>2021-08-11T11:23:28.321Z</time>
      </trkpt>
      <trkpt lat="46.87444" lon="8.49677">
        <ele>1562</ele>
        <time>2021-08-11T11:23:29.321Z</time>
      </trkpt>
      <trkpt lat="46.87445" lon="8.49676">
        <ele>1562</ele>
        <time>2021-08-11T11:23:30.321Z</time>
      </trkpt>
      <trkpt lat="46.87444" lon="8.49676">
        <ele>1563</ele>
        <time>2021-08-11T11:23:31.320Z</time>
      </trkpt>
      <trkpt lat="46.87444" lon="8.49676">
        <ele>1564</ele>
        <time>2021-08-11T11:23:32.320Z</time>
      </trkpt>
      <trkpt lat="46.87442" lon="8.49676">
        <ele>1563</ele>
        <time>2021-08-11T11:23:33.321Z</time>
      </trkpt>
      <trkpt lat="46.87443" lon="8.49676">
        <ele>1563</ele>
        <time>2021-08-11T11:23:34.322Z</time>
      </trkpt>
      <trkpt lat="46.87444" lon="8.49674">
        <ele>1568</ele>
        <time>2021-08-11T11:23:35.321Z</time>
      </trkpt>
      <trkpt lat="46.87444" lon="8.49673">
        <ele>1568</ele>
        <time>2021-08-11T11:23:36.322Z</time>
      </trkpt>
      <trkpt lat="46.87444" lon="8.49672">
        <ele>1567</ele>
        <time>2021-08-11T11:23:37.322Z</time>
      </trkpt>
      <trkpt lat="46.87444" lon="8.49671">
        <ele>1567</ele>
        <time>2021-08-11T11:23:38.322Z</time>
      </trkpt>
      <trkpt lat="46.87444" lon="8.49671">
        <ele>1567</ele>
        <time>2021-08-11T11:23:39.322Z</time>
      </trkpt>
      <trkpt lat="46.87444" lon="8.4967">
        <ele>1567</ele>
        <time>2021-08-11T11:23:40.322Z</time>
      </trkpt>
      <trkpt lat="46.87444" lon="8.49669">
        <ele>1566</ele>
        <time>2021-08-11T11:23:41.323Z</time>
      </trkpt>
      <trkpt lat="46.87445" lon="8.49669">
        <ele>1566</ele>
        <time>2021-08-11T11:23:42.323Z</time>
      </trkpt>
      <trkpt lat="46.87445" lon="8.49668">
        <ele>1566</ele>
        <time>2021-08-11T11:23:46.319Z</time>
      </trkpt>
      <trkpt lat="46.87445" lon="8.49668">
        <ele>1566</ele>
        <time>2021-08-11T11:23:47.320Z</time>
      </trkpt>
      <trkpt lat="46.87445" lon="8.49667">
        <ele>1566</ele>
        <time>2021-08-11T11:23:48.320Z</time>
      </trkpt>
      <trkpt lat="46.87446" lon="8.49667">
        <ele>1567</ele>
        <time>2021-08-11T11:23:49.320Z</time>
      </trkpt>
      <trkpt lat="46.87447" lon="8.49666">
        <ele>1567</ele>
        <time>2021-08-11T11:23:50.319Z</time>
      </trkpt>
      <trkpt lat="46.87447" lon="8.49666">
        <ele>1567</ele>
        <time>2021-08-11T11:23:51.320Z</time>
      </trkpt>
      <trkpt lat="46.87447" lon="8.49665">
        <ele>1567</ele>
        <time>2021-08-11T11:23:52.320Z</time>
      </trkpt>
      <trkpt lat="46.87448" lon="8.49665">
        <ele>1567</ele>
        <time>2021-08-11T11:23:53.319Z</time>
      </trkpt>
      <trkpt lat="46.87448" lon="8.49664">
        <ele>1566</ele>
        <time>2021-08-11T11:23:54.320Z</time>
      </trkpt>
      <trkpt lat="46.87448" lon="8.49664">
        <ele>1566</ele>
        <time>2021-08-11T11:23:55.320Z</time>
      </trkpt>
      <trkpt lat="46.87448" lon="8.49663">
        <ele>1565</ele>
        <time>2021-08-11T11:23:56.320Z</time>
      </trkpt>
      <trkpt lat="46.87448" lon="8.49663">
        <ele>1565</ele>
        <time>2021-08-11T11:23:57.319Z</time>
      </trkpt>
      <trkpt lat="46.87448" lon="8.49662">
        <ele>1565</ele>
        <time>2021-08-11T11:23:58.319Z</time>
      </trkpt>
      <trkpt lat="46.87449" lon="8.49662">
        <ele>1565</ele>
        <time>2021-08-11T11:23:59.319Z</time>
      </trkpt>
      <trkpt lat="46.87449" lon="8.49661">
        <ele>1565</ele>
        <time>2021-08-11T11:24:00.319Z</time>
      </trkpt>
      <trkpt lat="46.8745" lon="8.49661">
        <ele>1565</ele>
        <time>2021-08-11T11:24:01.319Z</time>
      </trkpt>
      <trkpt lat="46.87449" lon="8.49661">
        <ele>1565</ele>
        <time>2021-08-11T11:24:05.345Z</time>
      </trkpt>
      <trkpt lat="46.87449" lon="8.4966">
        <ele>1566</ele>
        <time>2021-08-11T11:24:06.346Z</time>
      </trkpt>
      <trkpt lat="46.87449" lon="8.49659">
        <ele>1566</ele>
        <time>2021-08-11T11:24:11.073Z</time>
      </trkpt>
      <trkpt lat="46.87449" lon="8.49659">
        <ele>1566</ele>
        <time>2021-08-11T11:24:12.072Z</time>
      </trkpt>
      <trkpt lat="46.87449" lon="8.49658">
        <ele>1566</ele>
        <time>2021-08-11T11:24:13.073Z</time>
      </trkpt>
      <trkpt lat="46.8745" lon="8.49658">
        <ele>1566</ele>
        <time>2021-08-11T11:24:16.181Z</time>
      </trkpt>
      <trkpt lat="46.87449" lon="8.49657">
        <ele>1566</ele>
        <time>2021-08-11T11:24:17.181Z</time>
      </trkpt>
      <trkpt lat="46.87449" lon="8.49657">
        <ele>1565</ele>
        <time>2021-08-11T11:24:18.181Z</time>
      </trkpt>
      <trkpt lat="46.87449" lon="8.49656">
        <ele>1564</ele>
        <time>2021-08-11T11:24:22.340Z</time>
      </trkpt>
      <trkpt lat="46.87448" lon="8.49655">
        <ele>1564</ele>
        <time>2021-08-11T11:24:26.076Z</time>
      </trkpt>
      <trkpt lat="46.87449" lon="8.49655">
        <ele>1563</ele>
        <time>2021-08-11T11:24:27.076Z</time>
      </trkpt>
      <trkpt lat="46.87449" lon="8.49654">
        <ele>1563</ele>
        <time>2021-08-11T11:24:35.825Z</time>
      </trkpt>
      <trkpt lat="46.87448" lon="8.49654">
        <ele>1562</ele>
        <time>2021-08-11T11:24:36.825Z</time>
      </trkpt>
      <trkpt lat="46.87448" lon="8.49653">
        <ele>1562</ele>
        <time>2021-08-11T11:24:37.825Z</time>
      </trkpt>
      <trkpt lat="46.87449" lon="8.49652">
        <ele>1562</ele>
        <time>2021-08-11T11:24:38.824Z</time>
      </trkpt>
      <trkpt lat="46.87449" lon="8.49652">
        <ele>1562</ele>
        <time>2021-08-11T11:24:39.825Z</time>
      </trkpt>
      <trkpt lat="46.87449" lon="8.49651">
        <ele>1562</ele>
        <time>2021-08-11T11:24:40.825Z</time>
      </trkpt>
      <trkpt lat="46.87449" lon="8.49651">
        <ele>1562</ele>
        <time>2021-08-11T11:24:41.825Z</time>
      </trkpt>
      <trkpt lat="46.87449" lon="8.4965">
        <ele>1563</ele>
        <time>2021-08-11T11:24:51.794Z</time>
      </trkpt>
      <trkpt lat="46.87449" lon="8.4965">
        <ele>1563</ele>
        <time>2021-08-11T11:24:52.793Z</time>
      </trkpt>
      <trkpt lat="46.8745" lon="8.49649">
        <ele>1564</ele>
        <time>2021-08-11T11:24:53.793Z</time>
      </trkpt>
      <trkpt lat="46.87451" lon="8.49648">
        <ele>1564</ele>
        <time>2021-08-11T11:24:54.793Z</time>
      </trkpt>
      <trkpt lat="46.87451" lon="8.49647">
        <ele>1563</ele>
        <time>2021-08-11T11:24:55.794Z</time>
      </trkpt>
      <trkpt lat="46.87451" lon="8.49647">
        <ele>1563</ele>
        <time>2021-08-11T11:24:56.794Z</time>
      </trkpt>
      <trkpt lat="46.87451" lon="8.49646">
        <ele>1563</ele>
        <time>2021-08-11T11:24:57.794Z</time>
      </trkpt>
      <trkpt lat="46.87451" lon="8.49645">
        <ele>1563</ele>
        <time>2021-08-11T11:24:58.794Z</time>
      </trkpt>
      <trkpt lat="46.87451" lon="8.49645">
        <ele>1564</ele>
        <time>2021-08-11T11:24:59.793Z</time>
      </trkpt>
      <trkpt lat="46.87451" lon="8.49644">
        <ele>1564</ele>
        <time>2021-08-11T11:25:00.794Z</time>
      </trkpt>
      <trkpt lat="46.87452" lon="8.49643">
        <ele>1564</ele>
        <time>2021-08-11T11:25:01.794Z</time>
      </trkpt>
      <trkpt lat="46.87452" lon="8.49643">
        <ele>1564</ele>
        <time>2021-08-11T11:25:02.793Z</time>
      </trkpt>
      <trkpt lat="46.87452" lon="8.49643">
        <ele>1564</ele>
        <time>2021-08-11T11:25:24.799Z</time>
      </trkpt>
      <trkpt lat="46.87453" lon="8.49642">
        <ele>1564</ele>
        <time>2021-08-11T11:25:25.799Z</time>
      </trkpt>
      <trkpt lat="46.87454" lon="8.49641">
        <ele>1565</ele>
        <time>2021-08-11T11:25:26.798Z</time>
      </trkpt>
      <trkpt lat="46.87455" lon="8.4964">
        <ele>1565</ele>
        <time>2021-08-11T11:25:27.799Z</time>
      </trkpt>
      <trkpt lat="46.87456" lon="8.4964">
        <ele>1566</ele>
        <time>2021-08-11T11:25:28.798Z</time>
      </trkpt>
      <trkpt lat="46.87456" lon="8.49639">
        <ele>1567</ele>
        <time>2021-08-11T11:25:45.927Z</time>
      </trkpt>
      <trkpt lat="46.87456" lon="8.49639">
        <ele>1567</ele>
        <time>2021-08-11T11:25:46.927Z</time>
      </trkpt>
      <trkpt lat="46.87456" lon="8.49638">
        <ele>1567</ele>
        <time>2021-08-11T11:25:47.926Z</time>
      </trkpt>
      <trkpt lat="46.87455" lon="8.49637">
        <ele>1567</ele>
        <time>2021-08-11T11:25:48.927Z</time>
      </trkpt>
      <trkpt lat="46.87455" lon="8.49636">
        <ele>1568</ele>
        <time>2021-08-11T11:25:49.927Z</time>
      </trkpt>
      <trkpt lat="46.87455" lon="8.49635">
        <ele>1568</ele>
        <time>2021-08-11T11:25:50.927Z</time>
      </trkpt>
      <trkpt lat="46.87456" lon="8.49634">
        <ele>1569</ele>
        <time>2021-08-11T11:25:51.927Z</time>
      </trkpt>
      <trkpt lat="46.87457" lon="8.49633">
        <ele>1570</ele>
        <time>2021-08-11T11:25:52.927Z</time>
      </trkpt>
      <trkpt lat="46.87458" lon="8.49633">
        <ele>1570</ele>
        <time>2021-08-11T11:25:53.927Z</time>
      </trkpt>
      <trkpt lat="46.87458" lon="8.49632">
        <ele>1571</ele>
        <time>2021-08-11T11:25:54.927Z</time>
      </trkpt>
      <trkpt lat="46.87458" lon="8.49632">
        <ele>1571</ele>
        <time>2021-08-11T11:25:55.927Z</time>
      </trkpt>
      <trkpt lat="46.87458" lon="8.49631">
        <ele>1571</ele>
        <time>2021-08-11T11:25:56.926Z</time>
      </trkpt>
      <trkpt lat="46.87458" lon="8.49631">
        <ele>1571</ele>
        <time>2021-08-11T11:25:57.926Z</time>
      </trkpt>
      <trkpt lat="46.87458" lon="8.4963">
        <ele>1571</ele>
        <time>2021-08-11T11:25:58.927Z</time>
      </trkpt>
      <trkpt lat="46.87458" lon="8.49629">
        <ele>1570</ele>
        <time>2021-08-11T11:25:59.927Z</time>
      </trkpt>
      <trkpt lat="46.87458" lon="8.49629">
        <ele>1570</ele>
        <time>2021-08-11T11:26:00.927Z</time>
      </trkpt>
      <trkpt lat="46.87459" lon="8.49628">
        <ele>1570</ele>
        <time>2021-08-11T11:26:02.910Z</time>
      </trkpt>
      <trkpt lat="46.87459" lon="8.49628">
        <ele>1570</ele>
        <time>2021-08-11T11:26:03.910Z</time>
      </trkpt>
      <trkpt lat="46.8746" lon="8.49627">
        <ele>1570</ele>
        <time>2021-08-11T11:26:04.910Z</time>
      </trkpt>
      <trkpt lat="46.8746" lon="8.49627">
        <ele>1570</ele>
        <time>2021-08-11T11:26:05.910Z</time>
      </trkpt>
      <trkpt lat="46.8746" lon="8.49626">
        <ele>1570</ele>
        <time>2021-08-11T11:26:06.910Z</time>
      </trkpt>
      <trkpt lat="46.87459" lon="8.49625">
        <ele>1570</ele>
        <time>2021-08-11T11:26:10.944Z</time>
      </trkpt>
      <trkpt lat="46.87458" lon="8.49625">
        <ele>1569</ele>
        <time>2021-08-11T11:26:11.944Z</time>
      </trkpt>
      <trkpt lat="46.87458" lon="8.49624">
        <ele>1569</ele>
        <time>2021-08-11T11:26:12.945Z</time>
      </trkpt>
      <trkpt lat="46.87459" lon="8.49623">
        <ele>1569</ele>
        <time>2021-08-11T11:26:18.087Z</time>
      </trkpt>
      <trkpt lat="46.87459" lon="8.49622">
        <ele>1569</ele>
        <time>2021-08-11T11:26:19.088Z</time>
      </trkpt>
      <trkpt lat="46.87459" lon="8.49622">
        <ele>1569</ele>
        <time>2021-08-11T11:26:21.818Z</time>
      </trkpt>
      <trkpt lat="46.8746" lon="8.49621">
        <ele>1568</ele>
        <time>2021-08-11T11:26:22.818Z</time>
      </trkpt>
      <trkpt lat="46.8746" lon="8.49621">
        <ele>1568</ele>
        <time>2021-08-11T11:26:23.818Z</time>
      </trkpt>
      <trkpt lat="46.8746" lon="8.4962">
        <ele>1569</ele>
        <time>2021-08-11T11:26:24.818Z</time>
      </trkpt>
      <trkpt lat="46.8746" lon="8.4962">
        <ele>1569</ele>
        <time>2021-08-11T11:26:25.817Z</time>
      </trkpt>
      <trkpt lat="46.8746" lon="8.4962">
        <ele>1569</ele>
        <time>2021-08-11T11:26:26.818Z</time>
      </trkpt>
      <trkpt lat="46.8746" lon="8.49619">
        <ele>1570</ele>
        <time>2021-08-11T11:26:27.818Z</time>
      </trkpt>
      <trkpt lat="46.8746" lon="8.49618">
        <ele>1570</ele>
        <time>2021-08-11T11:26:28.817Z</time>
      </trkpt>
      <trkpt lat="46.87459" lon="8.49618">
        <ele>1569</ele>
        <time>2021-08-11T11:26:29.818Z</time>
      </trkpt>
      <trkpt lat="46.87458" lon="8.49617">
        <ele>1569</ele>
        <time>2021-08-11T11:26:30.817Z</time>
      </trkpt>
      <trkpt lat="46.87458" lon="8.49616">
        <ele>1568</ele>
        <time>2021-08-11T11:26:31.818Z</time>
      </trkpt>
      <trkpt lat="46.87458" lon="8.49615">
        <ele>1568</ele>
        <time>2021-08-11T11:26:32.818Z</time>
      </trkpt>
      <trkpt lat="46.87458" lon="8.49614">
        <ele>1568</ele>
        <time>2021-08-11T11:26:33.818Z</time>
      </trkpt>
      <trkpt lat="46.87459" lon="8.49614">
        <ele>1568</ele>
        <time>2021-08-11T11:26:34.818Z</time>
      </trkpt>
      <trkpt lat="46.87459" lon="8.49613">
        <ele>1569</ele>
        <time>2021-08-11T11:26:35.818Z</time>
      </trkpt>
      <trkpt lat="46.87459" lon="8.49612">
        <ele>1569</ele>
        <time>2021-08-11T11:26:36.818Z</time>
      </trkpt>
      <trkpt lat="46.8746" lon="8.49612">
        <ele>1570</ele>
        <time>2021-08-11T11:26:37.817Z</time>
      </trkpt>
      <trkpt lat="46.8746" lon="8.49612">
        <ele>1571</ele>
        <time>2021-08-11T11:26:38.818Z</time>
      </trkpt>
      <trkpt lat="46.8746" lon="8.49611">
        <ele>1571</ele>
        <time>2021-08-11T11:26:39.818Z</time>
      </trkpt>
      <trkpt lat="46.87461" lon="8.49611">
        <ele>1572</ele>
        <time>2021-08-11T11:26:40.817Z</time>
      </trkpt>
      <trkpt lat="46.87461" lon="8.4961">
        <ele>1572</ele>
        <time>2021-08-11T11:26:41.818Z</time>
      </trkpt>
      <trkpt lat="46.87461" lon="8.49609">
        <ele>1572</ele>
        <time>2021-08-11T11:26:42.818Z</time>
      </trkpt>
      <trkpt lat="46.87461" lon="8.49609">
        <ele>1572</ele>
        <time>2021-08-11T11:26:43.817Z</time>
      </trkpt>
      <trkpt lat="46.87462" lon="8.49608">
        <ele>1573</ele>
        <time>2021-08-11T11:26:50.829Z</time>
      </trkpt>
      <trkpt lat="46.87462" lon="8.49607">
        <ele>1573</ele>
        <time>2021-08-11T11:26:51.829Z</time>
      </trkpt>
      <trkpt lat="46.87462" lon="8.49607">
        <ele>1573</ele>
        <time>2021-08-11T11:26:52.829Z</time>
      </trkpt>
      <trkpt lat="46.87462" lon="8.49606">
        <ele>1573</ele>
        <time>2021-08-11T11:26:53.829Z</time>
      </trkpt>
      <trkpt lat="46.87463" lon="8.49606">
        <ele>1574</ele>
        <time>2021-08-11T11:26:54.828Z</time>
      </trkpt>
      <trkpt lat="46.87463" lon="8.49605">
        <ele>1574</ele>
        <time>2021-08-11T11:26:55.829Z</time>
      </trkpt>
      <trkpt lat="46.87463" lon="8.49605">
        <ele>1574</ele>
        <time>2021-08-11T11:26:56.828Z</time>
      </trkpt>
      <trkpt lat="46.87463" lon="8.49604">
        <ele>1574</ele>
        <time>2021-08-11T11:26:57.829Z</time>
      </trkpt>
      <trkpt lat="46.87463" lon="8.49603">
        <ele>1575</ele>
        <time>2021-08-11T11:26:58.829Z</time>
      </trkpt>
      <trkpt lat="46.87464" lon="8.49603">
        <ele>1575</ele>
        <time>2021-08-11T11:26:59.829Z</time>
      </trkpt>
      <trkpt lat="46.87464" lon="8.49602">
        <ele>1575</ele>
        <time>2021-08-11T11:27:00.829Z</time>
      </trkpt>
      <trkpt lat="46.87465" lon="8.49602">
        <ele>1575</ele>
        <time>2021-08-11T11:27:01.828Z</time>
      </trkpt>
      <trkpt lat="46.87465" lon="8.49601">
        <ele>1575</ele>
        <time>2021-08-11T11:27:02.828Z</time>
      </trkpt>
      <trkpt lat="46.87465" lon="8.496">
        <ele>1575</ele>
        <time>2021-08-11T11:27:03.829Z</time>
      </trkpt>
      <trkpt lat="46.87465" lon="8.496">
        <ele>1574</ele>
        <time>2021-08-11T11:27:04.828Z</time>
      </trkpt>
      <trkpt lat="46.87466" lon="8.49599">
        <ele>1575</ele>
        <time>2021-08-11T11:27:05.829Z</time>
      </trkpt>
      <trkpt lat="46.87466" lon="8.49598">
        <ele>1575</ele>
        <time>2021-08-11T11:27:06.829Z</time>
      </trkpt>
      <trkpt lat="46.87467" lon="8.49597">
        <ele>1576</ele>
        <time>2021-08-11T11:27:07.829Z</time>
      </trkpt>
      <trkpt lat="46.87467" lon="8.49596">
        <ele>1576</ele>
        <time>2021-08-11T11:27:08.829Z</time>
      </trkpt>
      <trkpt lat="46.87467" lon="8.49596">
        <ele>1576</ele>
        <time>2021-08-11T11:27:09.829Z</time>
      </trkpt>
      <trkpt lat="46.87467" lon="8.49595">
        <ele>1576</ele>
        <time>2021-08-11T11:27:10.829Z</time>
      </trkpt>
      <trkpt lat="46.87467" lon="8.49595">
        <ele>1575</ele>
        <time>2021-08-11T11:27:11.829Z</time>
      </trkpt>
      <trkpt lat="46.87467" lon="8.49594">
        <ele>1575</ele>
        <time>2021-08-11T11:27:12.829Z</time>
      </trkpt>
      <trkpt lat="46.87466" lon="8.49593">
        <ele>1575</ele>
        <time>2021-08-11T11:27:13.829Z</time>
      </trkpt>
      <trkpt lat="46.87466" lon="8.49593">
        <ele>1575</ele>
        <time>2021-08-11T11:27:14.829Z</time>
      </trkpt>
      <trkpt lat="46.87466" lon="8.49592">
        <ele>1575</ele>
        <time>2021-08-11T11:27:15.829Z</time>
      </trkpt>
      <trkpt lat="46.87467" lon="8.49591">
        <ele>1574</ele>
        <time>2021-08-11T11:27:16.829Z</time>
      </trkpt>
      <trkpt lat="46.87467" lon="8.49591">
        <ele>1574</ele>
        <time>2021-08-11T11:27:17.829Z</time>
      </trkpt>
      <trkpt lat="46.87467" lon="8.4959">
        <ele>1574</ele>
        <time>2021-08-11T11:27:18.829Z</time>
      </trkpt>
      <trkpt lat="46.87467" lon="8.4959">
        <ele>1574</ele>
        <time>2021-08-11T11:27:19.828Z</time>
      </trkpt>
      <trkpt lat="46.87467" lon="8.49589">
        <ele>1574</ele>
        <time>2021-08-11T11:27:20.828Z</time>
      </trkpt>
      <trkpt lat="46.87466" lon="8.49588">
        <ele>1574</ele>
        <time>2021-08-11T11:27:22.912Z</time>
      </trkpt>
      <trkpt lat="46.87467" lon="8.49588">
        <ele>1574</ele>
        <time>2021-08-11T11:27:23.911Z</time>
      </trkpt>
      <trkpt lat="46.87465" lon="8.49587">
        <ele>1574</ele>
        <time>2021-08-11T11:27:24.912Z</time>
      </trkpt>
      <trkpt lat="46.87466" lon="8.49587">
        <ele>1574</ele>
        <time>2021-08-11T11:27:25.912Z</time>
      </trkpt>
      <trkpt lat="46.87466" lon="8.49586">
        <ele>1575</ele>
        <time>2021-08-11T11:27:26.912Z</time>
      </trkpt>
      <trkpt lat="46.87467" lon="8.49585">
        <ele>1575</ele>
        <time>2021-08-11T11:27:27.912Z</time>
      </trkpt>
      <trkpt lat="46.87468" lon="8.49585">
        <ele>1576</ele>
        <time>2021-08-11T11:27:28.912Z</time>
      </trkpt>
      <trkpt lat="46.87468" lon="8.49584">
        <ele>1576</ele>
        <time>2021-08-11T11:27:29.912Z</time>
      </trkpt>
      <trkpt lat="46.87469" lon="8.49584">
        <ele>1576</ele>
        <time>2021-08-11T11:27:30.912Z</time>
      </trkpt>
      <trkpt lat="46.87469" lon="8.49583">
        <ele>1577</ele>
        <time>2021-08-11T11:27:32.907Z</time>
      </trkpt>
      <trkpt lat="46.87469" lon="8.49582">
        <ele>1577</ele>
        <time>2021-08-11T11:27:33.907Z</time>
      </trkpt>
      <trkpt lat="46.87469" lon="8.49581">
        <ele>1577</ele>
        <time>2021-08-11T11:27:37.697Z</time>
      </trkpt>
      <trkpt lat="46.8747" lon="8.49581">
        <ele>1578</ele>
        <time>2021-08-11T11:27:38.698Z</time>
      </trkpt>
      <trkpt lat="46.8747" lon="8.4958">
        <ele>1578</ele>
        <time>2021-08-11T11:27:39.698Z</time>
      </trkpt>
      <trkpt lat="46.87471" lon="8.49579">
        <ele>1579</ele>
        <time>2021-08-11T11:27:40.698Z</time>
      </trkpt>
      <trkpt lat="46.87472" lon="8.49578">
        <ele>1579</ele>
        <time>2021-08-11T11:27:41.698Z</time>
      </trkpt>
      <trkpt lat="46.87471" lon="8.49578">
        <ele>1579</ele>
        <time>2021-08-11T11:27:42.697Z</time>
      </trkpt>
      <trkpt lat="46.8747" lon="8.49577">
        <ele>1579</ele>
        <time>2021-08-11T11:27:43.698Z</time>
      </trkpt>
      <trkpt lat="46.87469" lon="8.49576">
        <ele>1579</ele>
        <time>2021-08-11T11:28:08.798Z</time>
      </trkpt>
      <trkpt lat="46.87469" lon="8.49575">
        <ele>1579</ele>
        <time>2021-08-11T11:28:09.798Z</time>
      </trkpt>
      <trkpt lat="46.8747" lon="8.49574">
        <ele>1579</ele>
        <time>2021-08-11T11:28:10.797Z</time>
      </trkpt>
      <trkpt lat="46.8747" lon="8.49573">
        <ele>1579</ele>
        <time>2021-08-11T11:28:11.798Z</time>
      </trkpt>
      <trkpt lat="46.8747" lon="8.49572">
        <ele>1579</ele>
        <time>2021-08-11T11:28:12.797Z</time>
      </trkpt>
      <trkpt lat="46.8747" lon="8.49571">
        <ele>1579</ele>
        <time>2021-08-11T11:28:13.797Z</time>
      </trkpt>
      <trkpt lat="46.8747" lon="8.49571">
        <ele>1579</ele>
        <time>2021-08-11T11:28:14.798Z</time>
      </trkpt>
      <trkpt lat="46.87471" lon="8.4957">
        <ele>1579</ele>
        <time>2021-08-11T11:28:15.798Z</time>
      </trkpt>
      <trkpt lat="46.87472" lon="8.49569">
        <ele>1579</ele>
        <time>2021-08-11T11:28:16.798Z</time>
      </trkpt>
      <trkpt lat="46.87472" lon="8.49568">
        <ele>1579</ele>
        <time>2021-08-11T11:28:17.798Z</time>
      </trkpt>
      <trkpt lat="46.87473" lon="8.49567">
        <ele>1580</ele>
        <time>2021-08-11T11:28:18.797Z</time>
      </trkpt>
      <trkpt lat="46.87473" lon="8.49566">
        <ele>1580</ele>
        <time>2021-08-11T11:28:19.798Z</time>
      </trkpt>
      <trkpt lat="46.87474" lon="8.49566">
        <ele>1580</ele>
        <time>2021-08-11T11:28:20.798Z</time>
      </trkpt>
      <trkpt lat="46.87474" lon="8.49565">
        <ele>1581</ele>
        <time>2021-08-11T11:28:21.798Z</time>
      </trkpt>
      <trkpt lat="46.87475" lon="8.49564">
        <ele>1581</ele>
        <time>2021-08-11T11:28:22.798Z</time>
      </trkpt>
      <trkpt lat="46.87475" lon="8.49564">
        <ele>1581</ele>
        <time>2021-08-11T11:28:23.798Z</time>
      </trkpt>
      <trkpt lat="46.87476" lon="8.49563">
        <ele>1582</ele>
        <time>2021-08-11T11:28:24.798Z</time>
      </trkpt>
      <trkpt lat="46.87477" lon="8.49562">
        <ele>1583</ele>
        <time>2021-08-11T11:28:25.797Z</time>
      </trkpt>
      <trkpt lat="46.87478" lon="8.49561">
        <ele>1583</ele>
        <time>2021-08-11T11:28:26.797Z</time>
      </trkpt>
      <trkpt lat="46.87478" lon="8.4956">
        <ele>1584</ele>
        <time>2021-08-11T11:28:27.797Z</time>
      </trkpt>
      <trkpt lat="46.87478" lon="8.49559">
        <ele>1584</ele>
        <time>2021-08-11T11:28:28.797Z</time>
      </trkpt>
      <trkpt lat="46.87478" lon="8.49558">
        <ele>1584</ele>
        <time>2021-08-11T11:28:29.797Z</time>
      </trkpt>
      <trkpt lat="46.87479" lon="8.49558">
        <ele>1584</ele>
        <time>2021-08-11T11:28:30.798Z</time>
      </trkpt>
      <trkpt lat="46.8748" lon="8.49557">
        <ele>1585</ele>
        <time>2021-08-11T11:28:31.798Z</time>
      </trkpt>
      <trkpt lat="46.8748" lon="8.49556">
        <ele>1585</ele>
        <time>2021-08-11T11:28:32.798Z</time>
      </trkpt>
      <trkpt lat="46.8748" lon="8.49555">
        <ele>1585</ele>
        <time>2021-08-11T11:28:33.797Z</time>
      </trkpt>
      <trkpt lat="46.8748" lon="8.49554">
        <ele>1585</ele>
        <time>2021-08-11T11:28:34.798Z</time>
      </trkpt>
      <trkpt lat="46.87481" lon="8.49553">
        <ele>1586</ele>
        <time>2021-08-11T11:28:35.798Z</time>
      </trkpt>
      <trkpt lat="46.87481" lon="8.49552">
        <ele>1586</ele>
        <time>2021-08-11T11:28:36.798Z</time>
      </trkpt>
      <trkpt lat="46.87482" lon="8.49551">
        <ele>1586</ele>
        <time>2021-08-11T11:28:37.798Z</time>
      </trkpt>
      <trkpt lat="46.87483" lon="8.4955">
        <ele>1587</ele>
        <time>2021-08-11T11:28:38.798Z</time>
      </trkpt>
      <trkpt lat="46.87483" lon="8.49549">
        <ele>1588</ele>
        <time>2021-08-11T11:28:39.798Z</time>
      </trkpt>
      <trkpt lat="46.87483" lon="8.49549">
        <ele>1588</ele>
        <time>2021-08-11T11:28:50.800Z</time>
      </trkpt>
      <trkpt lat="46.87483" lon="8.49548">
        <ele>1588</ele>
        <time>2021-08-11T11:28:51.801Z</time>
      </trkpt>
      <trkpt lat="46.87484" lon="8.49547">
        <ele>1589</ele>
        <time>2021-08-11T11:28:52.801Z</time>
      </trkpt>
      <trkpt lat="46.87484" lon="8.49546">
        <ele>1589</ele>
        <time>2021-08-11T11:28:53.801Z</time>
      </trkpt>
      <trkpt lat="46.87483" lon="8.49545">
        <ele>1589</ele>
        <time>2021-08-11T11:28:54.801Z</time>
      </trkpt>
      <trkpt lat="46.87483" lon="8.49544">
        <ele>1588</ele>
        <time>2021-08-11T11:28:55.800Z</time>
      </trkpt>
      <trkpt lat="46.87482" lon="8.49544">
        <ele>1587</ele>
        <time>2021-08-11T11:28:56.800Z</time>
      </trkpt>
      <trkpt lat="46.87482" lon="8.49543">
        <ele>1587</ele>
        <time>2021-08-11T11:28:57.801Z</time>
      </trkpt>
      <trkpt lat="46.87482" lon="8.49542">
        <ele>1586</ele>
        <time>2021-08-11T11:29:02.960Z</time>
      </trkpt>
      <trkpt lat="46.87482" lon="8.49541">
        <ele>1586</ele>
        <time>2021-08-11T11:29:03.961Z</time>
      </trkpt>
      <trkpt lat="46.87481" lon="8.4954">
        <ele>1586</ele>
        <time>2021-08-11T11:29:04.961Z</time>
      </trkpt>
      <trkpt lat="46.87481" lon="8.49539">
        <ele>1586</ele>
        <time>2021-08-11T11:29:05.961Z</time>
      </trkpt>
      <trkpt lat="46.87481" lon="8.49538">
        <ele>1586</ele>
        <time>2021-08-11T11:29:06.961Z</time>
      </trkpt>
      <trkpt lat="46.8748" lon="8.49537">
        <ele>1585</ele>
        <time>2021-08-11T11:29:07.961Z</time>
      </trkpt>
      <trkpt lat="46.87481" lon="8.49537">
        <ele>1585</ele>
        <time>2021-08-11T11:29:08.961Z</time>
      </trkpt>
      <trkpt lat="46.87481" lon="8.49536">
        <ele>1585</ele>
        <time>2021-08-11T11:29:09.961Z</time>
      </trkpt>
      <trkpt lat="46.87481" lon="8.49535">
        <ele>1585</ele>
        <time>2021-08-11T11:29:10.961Z</time>
      </trkpt>
      <trkpt lat="46.87482" lon="8.49534">
        <ele>1585</ele>
        <time>2021-08-11T11:29:11.961Z</time>
      </trkpt>
      <trkpt lat="46.87482" lon="8.49533">
        <ele>1585</ele>
        <time>2021-08-11T11:29:12.961Z</time>
      </trkpt>
      <trkpt lat="46.87482" lon="8.49532">
        <ele>1585</ele>
        <time>2021-08-11T11:29:13.961Z</time>
      </trkpt>
      <trkpt lat="46.87482" lon="8.49531">
        <ele>1586</ele>
        <time>2021-08-11T11:29:14.960Z</time>
      </trkpt>
      <trkpt lat="46.87483" lon="8.49531">
        <ele>1586</ele>
        <time>2021-08-11T11:29:15.960Z</time>
      </trkpt>
      <trkpt lat="46.87483" lon="8.4953">
        <ele>1587</ele>
        <time>2021-08-11T11:29:16.961Z</time>
      </trkpt>
      <trkpt lat="46.87483" lon="8.49529">
        <ele>1587</ele>
        <time>2021-08-11T11:29:17.961Z</time>
      </trkpt>
      <trkpt lat="46.87483" lon="8.49528">
        <ele>1587</ele>
        <time>2021-08-11T11:29:18.961Z</time>
      </trkpt>
      <trkpt lat="46.87483" lon="8.49527">
        <ele>1587</ele>
        <time>2021-08-11T11:29:21.049Z</time>
      </trkpt>
      <trkpt lat="46.87482" lon="8.49526">
        <ele>1587</ele>
        <time>2021-08-11T11:29:22.050Z</time>
      </trkpt>
      <trkpt lat="46.87481" lon="8.49525">
        <ele>1587</ele>
        <time>2021-08-11T11:29:23.050Z</time>
      </trkpt>
      <trkpt lat="46.87479" lon="8.49524">
        <ele>1587</ele>
        <time>2021-08-11T11:29:24.050Z</time>
      </trkpt>
      <trkpt lat="46.87479" lon="8.49523">
        <ele>1587</ele>
        <time>2021-08-11T11:29:25.050Z</time>
      </trkpt>
      <trkpt lat="46.87479" lon="8.49522">
        <ele>1587</ele>
        <time>2021-08-11T11:29:26.049Z</time>
      </trkpt>
      <trkpt lat="46.87479" lon="8.49521">
        <ele>1586</ele>
        <time>2021-08-11T11:29:27.050Z</time>
      </trkpt>
      <trkpt lat="46.87479" lon="8.4952">
        <ele>1586</ele>
        <time>2021-08-11T11:29:28.050Z</time>
      </trkpt>
      <trkpt lat="46.87479" lon="8.4952">
        <ele>1585</ele>
        <time>2021-08-11T11:29:29.049Z</time>
      </trkpt>
      <trkpt lat="46.87478" lon="8.49519">
        <ele>1585</ele>
        <time>2021-08-11T11:29:30.050Z</time>
      </trkpt>
      <trkpt lat="46.87478" lon="8.49518">
        <ele>1584</ele>
        <time>2021-08-11T11:29:31.050Z</time>
      </trkpt>
      <trkpt lat="46.87477" lon="8.49517">
        <ele>1583</ele>
        <time>2021-08-11T11:29:32.050Z</time>
      </trkpt>
      <trkpt lat="46.87476" lon="8.49517">
        <ele>1583</ele>
        <time>2021-08-11T11:29:33.050Z</time>
      </trkpt>
      <trkpt lat="46.87476" lon="8.49516">
        <ele>1582</ele>
        <time>2021-08-11T11:29:34.049Z</time>
      </trkpt>
      <trkpt lat="46.87475" lon="8.49515">
        <ele>1581</ele>
        <time>2021-08-11T11:29:35.049Z</time>
      </trkpt>
      <trkpt lat="46.87474" lon="8.49515">
        <ele>1581</ele>
        <time>2021-08-11T11:29:36.050Z</time>
      </trkpt>
      <trkpt lat="46.87474" lon="8.49514">
        <ele>1580</ele>
        <time>2021-08-11T11:29:37.050Z</time>
      </trkpt>
      <trkpt lat="46.87472" lon="8.49513">
        <ele>1579</ele>
        <time>2021-08-11T11:29:38.050Z</time>
      </trkpt>
      <trkpt lat="46.87472" lon="8.49512">
        <ele>1579</ele>
        <time>2021-08-11T11:29:39.049Z</time>
      </trkpt>
      <trkpt lat="46.87471" lon="8.49511">
        <ele>1578</ele>
        <time>2021-08-11T11:29:40.050Z</time>
      </trkpt>
      <trkpt lat="46.87471" lon="8.4951">
        <ele>1578</ele>
        <time>2021-08-11T11:29:41.050Z</time>
      </trkpt>
      <trkpt lat="46.87472" lon="8.4951">
        <ele>1578</ele>
        <time>2021-08-11T11:29:42.050Z</time>
      </trkpt>
      <trkpt lat="46.8747" lon="8.49509">
        <ele>1578</ele>
        <time>2021-08-11T11:29:43.050Z</time>
      </trkpt>
      <trkpt lat="46.87469" lon="8.49508">
        <ele>1578</ele>
        <time>2021-08-11T11:29:50.197Z</time>
      </trkpt>
      <trkpt lat="46.87468" lon="8.49506">
        <ele>1577</ele>
        <time>2021-08-11T11:29:51.197Z</time>
      </trkpt>
      <trkpt lat="46.87467" lon="8.49505">
        <ele>1576</ele>
        <time>2021-08-11T11:29:52.196Z</time>
      </trkpt>
      <trkpt lat="46.87467" lon="8.49504">
        <ele>1576</ele>
        <time>2021-08-11T11:29:57.095Z</time>
      </trkpt>
      <trkpt lat="46.87467" lon="8.49503">
        <ele>1576</ele>
        <time>2021-08-11T11:29:58.095Z</time>
      </trkpt>
      <trkpt lat="46.87467" lon="8.49502">
        <ele>1576</ele>
        <time>2021-08-11T11:29:59.095Z</time>
      </trkpt>
      <trkpt lat="46.87467" lon="8.49501">
        <ele>1576</ele>
        <time>2021-08-11T11:30:00.095Z</time>
      </trkpt>
      <trkpt lat="46.87467" lon="8.49501">
        <ele>1576</ele>
        <time>2021-08-11T11:30:01.095Z</time>
      </trkpt>
      <trkpt lat="46.87467" lon="8.49499">
        <ele>1577</ele>
        <time>2021-08-11T11:30:02.094Z</time>
      </trkpt>
      <trkpt lat="46.87467" lon="8.49498">
        <ele>1577</ele>
        <time>2021-08-11T11:30:03.095Z</time>
      </trkpt>
      <trkpt lat="46.87467" lon="8.49497">
        <ele>1578</ele>
        <time>2021-08-11T11:30:06.159Z</time>
      </trkpt>
      <trkpt lat="46.87467" lon="8.49496">
        <ele>1578</ele>
        <time>2021-08-11T11:30:07.159Z</time>
      </trkpt>
      <trkpt lat="46.87467" lon="8.49496">
        <ele>1578</ele>
        <time>2021-08-11T11:30:08.158Z</time>
      </trkpt>
      <trkpt lat="46.87467" lon="8.49495">
        <ele>1578</ele>
        <time>2021-08-11T11:30:09.159Z</time>
      </trkpt>
      <trkpt lat="46.87467" lon="8.49495">
        <ele>1578</ele>
        <time>2021-08-11T11:30:10.159Z</time>
      </trkpt>
      <trkpt lat="46.87468" lon="8.49494">
        <ele>1578</ele>
        <time>2021-08-11T11:30:11.158Z</time>
      </trkpt>
      <trkpt lat="46.87468" lon="8.49493">
        <ele>1577</ele>
        <time>2021-08-11T11:30:12.159Z</time>
      </trkpt>
      <trkpt lat="46.87468" lon="8.49492">
        <ele>1577</ele>
        <time>2021-08-11T11:30:13.159Z</time>
      </trkpt>
      <trkpt lat="46.87468" lon="8.49491">
        <ele>1577</ele>
        <time>2021-08-11T11:30:14.159Z</time>
      </trkpt>
      <trkpt lat="46.87468" lon="8.49491">
        <ele>1577</ele>
        <time>2021-08-11T11:30:15.159Z</time>
      </trkpt>
      <trkpt lat="46.87468" lon="8.4949">
        <ele>1577</ele>
        <time>2021-08-11T11:30:16.159Z</time>
      </trkpt>
      <trkpt lat="46.87468" lon="8.49489">
        <ele>1577</ele>
        <time>2021-08-11T11:30:23.317Z</time>
      </trkpt>
      <trkpt lat="46.87468" lon="8.49488">
        <ele>1577</ele>
        <time>2021-08-11T11:30:24.317Z</time>
      </trkpt>
      <trkpt lat="46.87469" lon="8.49487">
        <ele>1578</ele>
        <time>2021-08-11T11:30:25.317Z</time>
      </trkpt>
      <trkpt lat="46.8747" lon="8.49486">
        <ele>1578</ele>
        <time>2021-08-11T11:30:26.317Z</time>
      </trkpt>
      <trkpt lat="46.87471" lon="8.49486">
        <ele>1579</ele>
        <time>2021-08-11T11:30:27.317Z</time>
      </trkpt>
      <trkpt lat="46.87472" lon="8.49485">
        <ele>1579</ele>
        <time>2021-08-11T11:30:30.406Z</time>
      </trkpt>
      <trkpt lat="46.87472" lon="8.49484">
        <ele>1580</ele>
        <time>2021-08-11T11:30:33.320Z</time>
      </trkpt>
      <trkpt lat="46.87473" lon="8.49483">
        <ele>1582</ele>
        <time>2021-08-11T11:30:34.321Z</time>
      </trkpt>
      <trkpt lat="46.87473" lon="8.49482">
        <ele>1583</ele>
        <time>2021-08-11T11:30:35.321Z</time>
      </trkpt>
      <trkpt lat="46.87473" lon="8.49481">
        <ele>1583</ele>
        <time>2021-08-11T11:30:36.321Z</time>
      </trkpt>
      <trkpt lat="46.87473" lon="8.4948">
        <ele>1583</ele>
        <time>2021-08-11T11:30:37.321Z</time>
      </trkpt>
      <trkpt lat="46.87474" lon="8.4948">
        <ele>1583</ele>
        <time>2021-08-11T11:30:38.321Z</time>
      </trkpt>
      <trkpt lat="46.87474" lon="8.49479">
        <ele>1583</ele>
        <time>2021-08-11T11:30:39.321Z</time>
      </trkpt>
      <trkpt lat="46.87474" lon="8.49478">
        <ele>1583</ele>
        <time>2021-08-11T11:30:40.321Z</time>
      </trkpt>
      <trkpt lat="46.87475" lon="8.49477">
        <ele>1583</ele>
        <time>2021-08-11T11:30:42.403Z</time>
      </trkpt>
      <trkpt lat="46.87475" lon="8.49476">
        <ele>1583</ele>
        <time>2021-08-11T11:30:43.402Z</time>
      </trkpt>
      <trkpt lat="46.87475" lon="8.49475">
        <ele>1584</ele>
        <time>2021-08-11T11:30:46.308Z</time>
      </trkpt>
      <trkpt lat="46.87475" lon="8.49474">
        <ele>1584</ele>
        <time>2021-08-11T11:30:47.308Z</time>
      </trkpt>
      <trkpt lat="46.87475" lon="8.49473">
        <ele>1584</ele>
        <time>2021-08-11T11:30:48.309Z</time>
      </trkpt>
      <trkpt lat="46.87474" lon="8.49472">
        <ele>1584</ele>
        <time>2021-08-11T11:30:49.309Z</time>
      </trkpt>
      <trkpt lat="46.87474" lon="8.49471">
        <ele>1583</ele>
        <time>2021-08-11T11:30:50.309Z</time>
      </trkpt>
      <trkpt lat="46.87474" lon="8.4947">
        <ele>1583</ele>
        <time>2021-08-11T11:30:51.308Z</time>
      </trkpt>
      <trkpt lat="46.87474" lon="8.49469">
        <ele>1583</ele>
        <time>2021-08-11T11:30:52.309Z</time>
      </trkpt>
      <trkpt lat="46.87474" lon="8.49469">
        <ele>1583</ele>
        <time>2021-08-11T11:30:53.308Z</time>
      </trkpt>
      <trkpt lat="46.87474" lon="8.49468">
        <ele>1582</ele>
        <time>2021-08-11T11:30:54.309Z</time>
      </trkpt>
      <trkpt lat="46.87474" lon="8.49467">
        <ele>1582</ele>
        <time>2021-08-11T11:30:55.308Z</time>
      </trkpt>
      <trkpt lat="46.87474" lon="8.49466">
        <ele>1582</ele>
        <time>2021-08-11T11:30:56.308Z</time>
      </trkpt>
      <trkpt lat="46.87475" lon="8.49465">
        <ele>1582</ele>
        <time>2021-08-11T11:30:57.309Z</time>
      </trkpt>
      <trkpt lat="46.87475" lon="8.49464">
        <ele>1583</ele>
        <time>2021-08-11T11:30:58.308Z</time>
      </trkpt>
      <trkpt lat="46.87476" lon="8.49463">
        <ele>1583</ele>
        <time>2021-08-11T11:30:59.309Z</time>
      </trkpt>
      <trkpt lat="46.87476" lon="8.49462">
        <ele>1584</ele>
        <time>2021-08-11T11:31:03.419Z</time>
      </trkpt>
      <trkpt lat="46.87476" lon="8.49461">
        <ele>1584</ele>
        <time>2021-08-11T11:31:04.419Z</time>
      </trkpt>
      <trkpt lat="46.87476" lon="8.4946">
        <ele>1584</ele>
        <time>2021-08-11T11:31:05.418Z</time>
      </trkpt>
      <trkpt lat="46.87477" lon="8.49459">
        <ele>1585</ele>
        <time>2021-08-11T11:31:06.418Z</time>
      </trkpt>
      <trkpt lat="46.87477" lon="8.49458">
        <ele>1586</ele>
        <time>2021-08-11T11:31:07.419Z</time>
      </trkpt>
      <trkpt lat="46.87478" lon="8.49457">
        <ele>1587</ele>
        <time>2021-08-11T11:31:08.418Z</time>
      </trkpt>
      <trkpt lat="46.87479" lon="8.49457">
        <ele>1588</ele>
        <time>2021-08-11T11:31:09.419Z</time>
      </trkpt>
      <trkpt lat="46.8748" lon="8.49455">
        <ele>1589</ele>
        <time>2021-08-11T11:31:10.419Z</time>
      </trkpt>
      <trkpt lat="46.8748" lon="8.49454">
        <ele>1590</ele>
        <time>2021-08-11T11:31:11.418Z</time>
      </trkpt>
      <trkpt lat="46.87479" lon="8.49452">
        <ele>1590</ele>
        <time>2021-08-11T11:31:12.419Z</time>
      </trkpt>
      <trkpt lat="46.87479" lon="8.49452">
        <ele>1590</ele>
        <time>2021-08-11T11:31:13.418Z</time>
      </trkpt>
      <trkpt lat="46.87479" lon="8.49451">
        <ele>1591</ele>
        <time>2021-08-11T11:31:15.552Z</time>
      </trkpt>
      <trkpt lat="46.8748" lon="8.4945">
        <ele>1591</ele>
        <time>2021-08-11T11:31:16.552Z</time>
      </trkpt>
      <trkpt lat="46.8748" lon="8.49449">
        <ele>1591</ele>
        <time>2021-08-11T11:31:17.551Z</time>
      </trkpt>
      <trkpt lat="46.87481" lon="8.49448">
        <ele>1592</ele>
        <time>2021-08-11T11:31:18.551Z</time>
      </trkpt>
      <trkpt lat="46.87481" lon="8.49447">
        <ele>1591</ele>
        <time>2021-08-11T11:31:19.552Z</time>
      </trkpt>
      <trkpt lat="46.87482" lon="8.49446">
        <ele>1591</ele>
        <time>2021-08-11T11:31:20.552Z</time>
      </trkpt>
      <trkpt lat="46.87482" lon="8.49445">
        <ele>1591</ele>
        <time>2021-08-11T11:31:21.552Z</time>
      </trkpt>
      <trkpt lat="46.87482" lon="8.49444">
        <ele>1592</ele>
        <time>2021-08-11T11:31:22.552Z</time>
      </trkpt>
      <trkpt lat="46.87482" lon="8.49442">
        <ele>1592</ele>
        <time>2021-08-11T11:31:23.551Z</time>
      </trkpt>
      <trkpt lat="46.87482" lon="8.49441">
        <ele>1592</ele>
        <time>2021-08-11T11:31:24.551Z</time>
      </trkpt>
      <trkpt lat="46.87482" lon="8.4944">
        <ele>1592</ele>
        <time>2021-08-11T11:31:25.551Z</time>
      </trkpt>
      <trkpt lat="46.87482" lon="8.49439">
        <ele>1592</ele>
        <time>2021-08-11T11:31:26.551Z</time>
      </trkpt>
      <trkpt lat="46.87482" lon="8.49438">
        <ele>1592</ele>
        <time>2021-08-11T11:31:27.551Z</time>
      </trkpt>
      <trkpt lat="46.87483" lon="8.49438">
        <ele>1592</ele>
        <time>2021-08-11T11:31:28.551Z</time>
      </trkpt>
      <trkpt lat="46.87483" lon="8.49437">
        <ele>1592</ele>
        <time>2021-08-11T11:31:29.552Z</time>
      </trkpt>
      <trkpt lat="46.87483" lon="8.49436">
        <ele>1592</ele>
        <time>2021-08-11T11:31:30.551Z</time>
      </trkpt>
      <trkpt lat="46.87483" lon="8.49435">
        <ele>1592</ele>
        <time>2021-08-11T11:31:35.690Z</time>
      </trkpt>
      <trkpt lat="46.87483" lon="8.49434">
        <ele>1592</ele>
        <time>2021-08-11T11:31:36.689Z</time>
      </trkpt>
      <trkpt lat="46.87482" lon="8.49433">
        <ele>1591</ele>
        <time>2021-08-11T11:31:39.527Z</time>
      </trkpt>
      <trkpt lat="46.87483" lon="8.49432">
        <ele>1591</ele>
        <time>2021-08-11T11:31:40.526Z</time>
      </trkpt>
      <trkpt lat="46.87483" lon="8.49431">
        <ele>1591</ele>
        <time>2021-08-11T11:31:41.526Z</time>
      </trkpt>
      <trkpt lat="46.87484" lon="8.49431">
        <ele>1591</ele>
        <time>2021-08-11T11:31:42.526Z</time>
      </trkpt>
      <trkpt lat="46.87484" lon="8.4943">
        <ele>1591</ele>
        <time>2021-08-11T11:31:43.526Z</time>
      </trkpt>
      <trkpt lat="46.87484" lon="8.49429">
        <ele>1591</ele>
        <time>2021-08-11T11:31:44.527Z</time>
      </trkpt>
      <trkpt lat="46.87484" lon="8.49428">
        <ele>1591</ele>
        <time>2021-08-11T11:31:45.526Z</time>
      </trkpt>
      <trkpt lat="46.87484" lon="8.49428">
        <ele>1591</ele>
        <time>2021-08-11T11:31:46.527Z</time>
      </trkpt>
      <trkpt lat="46.87484" lon="8.49427">
        <ele>1590</ele>
        <time>2021-08-11T11:31:47.526Z</time>
      </trkpt>
      <trkpt lat="46.87484" lon="8.49426">
        <ele>1590</ele>
        <time>2021-08-11T11:31:48.526Z</time>
      </trkpt>
      <trkpt lat="46.87483" lon="8.49425">
        <ele>1590</ele>
        <time>2021-08-11T11:31:49.527Z</time>
      </trkpt>
      <trkpt lat="46.87483" lon="8.49424">
        <ele>1589</ele>
        <time>2021-08-11T11:31:50.527Z</time>
      </trkpt>
      <trkpt lat="46.87483" lon="8.49423">
        <ele>1589</ele>
        <time>2021-08-11T11:31:51.527Z</time>
      </trkpt>
      <trkpt lat="46.87483" lon="8.49423">
        <ele>1588</ele>
        <time>2021-08-11T11:31:52.526Z</time>
      </trkpt>
      <trkpt lat="46.87482" lon="8.49422">
        <ele>1588</ele>
        <time>2021-08-11T11:31:53.527Z</time>
      </trkpt>
      <trkpt lat="46.87482" lon="8.49421">
        <ele>1587</ele>
        <time>2021-08-11T11:31:54.527Z</time>
      </trkpt>
      <trkpt lat="46.87482" lon="8.4942">
        <ele>1587</ele>
        <time>2021-08-11T11:31:55.527Z</time>
      </trkpt>
      <trkpt lat="46.87482" lon="8.49419">
        <ele>1588</ele>
        <time>2021-08-11T11:31:56.526Z</time>
      </trkpt>
      <trkpt lat="46.87482" lon="8.49418">
        <ele>1588</ele>
        <time>2021-08-11T11:31:57.527Z</time>
      </trkpt>
      <trkpt lat="46.87481" lon="8.49417">
        <ele>1588</ele>
        <time>2021-08-11T11:31:58.526Z</time>
      </trkpt>
      <trkpt lat="46.87482" lon="8.49415">
        <ele>1587</ele>
        <time>2021-08-11T11:31:59.527Z</time>
      </trkpt>
      <trkpt lat="46.87482" lon="8.49414">
        <ele>1587</ele>
        <time>2021-08-11T11:32:00.526Z</time>
      </trkpt>
      <trkpt lat="46.87482" lon="8.49413">
        <ele>1587</ele>
        <time>2021-08-11T11:32:01.526Z</time>
      </trkpt>
      <trkpt lat="46.87482" lon="8.49412">
        <ele>1587</ele>
        <time>2021-08-11T11:32:02.527Z</time>
      </trkpt>
      <trkpt lat="46.87482" lon="8.49411">
        <ele>1587</ele>
        <time>2021-08-11T11:32:03.527Z</time>
      </trkpt>
      <trkpt lat="46.87481" lon="8.49411">
        <ele>1587</ele>
        <time>2021-08-11T11:32:04.527Z</time>
      </trkpt>
      <trkpt lat="46.8748" lon="8.4941">
        <ele>1586</ele>
        <time>2021-08-11T11:32:05.526Z</time>
      </trkpt>
      <trkpt lat="46.87479" lon="8.49409">
        <ele>1586</ele>
        <time>2021-08-11T11:32:06.527Z</time>
      </trkpt>
      <trkpt lat="46.87478" lon="8.49408">
        <ele>1585</ele>
        <time>2021-08-11T11:32:07.527Z</time>
      </trkpt>
      <trkpt lat="46.87478" lon="8.49407">
        <ele>1585</ele>
        <time>2021-08-11T11:32:08.527Z</time>
      </trkpt>
      <trkpt lat="46.87478" lon="8.49406">
        <ele>1584</ele>
        <time>2021-08-11T11:32:09.527Z</time>
      </trkpt>
      <trkpt lat="46.87479" lon="8.49405">
        <ele>1584</ele>
        <time>2021-08-11T11:32:10.527Z</time>
      </trkpt>
      <trkpt lat="46.8748" lon="8.49404">
        <ele>1584</ele>
        <time>2021-08-11T11:32:11.527Z</time>
      </trkpt>
      <trkpt lat="46.87481" lon="8.49403">
        <ele>1584</ele>
        <time>2021-08-11T11:32:12.526Z</time>
      </trkpt>
      <trkpt lat="46.87482" lon="8.49402">
        <ele>1585</ele>
        <time>2021-08-11T11:32:15.652Z</time>
      </trkpt>
      <trkpt lat="46.87482" lon="8.49401">
        <ele>1585</ele>
        <time>2021-08-11T11:32:16.651Z</time>
      </trkpt>
      <trkpt lat="46.87483" lon="8.49401">
        <ele>1586</ele>
        <time>2021-08-11T11:32:17.652Z</time>
      </trkpt>
      <trkpt lat="46.87484" lon="8.494">
        <ele>1587</ele>
        <time>2021-08-11T11:32:18.652Z</time>
      </trkpt>
      <trkpt lat="46.87485" lon="8.49399">
        <ele>1588</ele>
        <time>2021-08-11T11:32:19.651Z</time>
      </trkpt>
      <trkpt lat="46.87486" lon="8.49398">
        <ele>1589</ele>
        <time>2021-08-11T11:32:20.652Z</time>
      </trkpt>
      <trkpt lat="46.87486" lon="8.49397">
        <ele>1590</ele>
        <time>2021-08-11T11:32:21.652Z</time>
      </trkpt>
      <trkpt lat="46.87487" lon="8.49396">
        <ele>1591</ele>
        <time>2021-08-11T11:32:22.652Z</time>
      </trkpt>
      <trkpt lat="46.87487" lon="8.49395">
        <ele>1592</ele>
        <time>2021-08-11T11:32:23.652Z</time>
      </trkpt>
      <trkpt lat="46.87487" lon="8.49394">
        <ele>1592</ele>
        <time>2021-08-11T11:32:24.652Z</time>
      </trkpt>
      <trkpt lat="46.87488" lon="8.49393">
        <ele>1592</ele>
        <time>2021-08-11T11:32:25.652Z</time>
      </trkpt>
      <trkpt lat="46.87488" lon="8.49392">
        <ele>1592</ele>
        <time>2021-08-11T11:32:26.651Z</time>
      </trkpt>
      <trkpt lat="46.87489" lon="8.49391">
        <ele>1592</ele>
        <time>2021-08-11T11:32:27.652Z</time>
      </trkpt>
      <trkpt lat="46.87489" lon="8.49391">
        <ele>1593</ele>
        <time>2021-08-11T11:32:28.652Z</time>
      </trkpt>
      <trkpt lat="46.8749" lon="8.4939">
        <ele>1593</ele>
        <time>2021-08-11T11:32:29.652Z</time>
      </trkpt>
      <trkpt lat="46.8749" lon="8.49389">
        <ele>1594</ele>
        <time>2021-08-11T11:32:30.651Z</time>
      </trkpt>
      <trkpt lat="46.8749" lon="8.49388">
        <ele>1594</ele>
        <time>2021-08-11T11:32:31.652Z</time>
      </trkpt>
      <trkpt lat="46.87491" lon="8.49387">
        <ele>1594</ele>
        <time>2021-08-11T11:32:32.652Z</time>
      </trkpt>
      <trkpt lat="46.8749" lon="8.49386">
        <ele>1594</ele>
        <time>2021-08-11T11:32:33.651Z</time>
      </trkpt>
      <trkpt lat="46.8749" lon="8.49384">
        <ele>1593</ele>
        <time>2021-08-11T11:32:34.652Z</time>
      </trkpt>
      <trkpt lat="46.8749" lon="8.49383">
        <ele>1593</ele>
        <time>2021-08-11T11:32:35.652Z</time>
      </trkpt>
      <trkpt lat="46.8749" lon="8.49382">
        <ele>1592</ele>
        <time>2021-08-11T11:32:36.652Z</time>
      </trkpt>
      <trkpt lat="46.87491" lon="8.49381">
        <ele>1592</ele>
        <time>2021-08-11T11:32:37.652Z</time>
      </trkpt>
      <trkpt lat="46.87491" lon="8.4938">
        <ele>1591</ele>
        <time>2021-08-11T11:32:38.651Z</time>
      </trkpt>
      <trkpt lat="46.87491" lon="8.49379">
        <ele>1591</ele>
        <time>2021-08-11T11:32:39.651Z</time>
      </trkpt>
      <trkpt lat="46.87491" lon="8.49378">
        <ele>1591</ele>
        <time>2021-08-11T11:32:40.652Z</time>
      </trkpt>
      <trkpt lat="46.87491" lon="8.49377">
        <ele>1592</ele>
        <time>2021-08-11T11:32:41.652Z</time>
      </trkpt>
      <trkpt lat="46.87492" lon="8.49376">
        <ele>1592</ele>
        <time>2021-08-11T11:32:42.651Z</time>
      </trkpt>
      <trkpt lat="46.87492" lon="8.49374">
        <ele>1593</ele>
        <time>2021-08-11T11:32:43.651Z</time>
      </trkpt>
      <trkpt lat="46.87492" lon="8.49373">
        <ele>1594</ele>
        <time>2021-08-11T11:32:44.652Z</time>
      </trkpt>
      <trkpt lat="46.87492" lon="8.49372">
        <ele>1594</ele>
        <time>2021-08-11T11:32:45.652Z</time>
      </trkpt>
      <trkpt lat="46.87492" lon="8.49372">
        <ele>1595</ele>
        <time>2021-08-11T11:32:46.651Z</time>
      </trkpt>
      <trkpt lat="46.87492" lon="8.49371">
        <ele>1595</ele>
        <time>2021-08-11T11:32:47.651Z</time>
      </trkpt>
      <trkpt lat="46.87493" lon="8.4937">
        <ele>1596</ele>
        <time>2021-08-11T11:32:48.652Z</time>
      </trkpt>
      <trkpt lat="46.87494" lon="8.49369">
        <ele>1597</ele>
        <time>2021-08-11T11:32:51.677Z</time>
      </trkpt>
      <trkpt lat="46.87494" lon="8.49368">
        <ele>1597</ele>
        <time>2021-08-11T11:32:52.677Z</time>
      </trkpt>
      <trkpt lat="46.87494" lon="8.49367">
        <ele>1597</ele>
        <time>2021-08-11T11:32:53.677Z</time>
      </trkpt>
      <trkpt lat="46.87494" lon="8.49366">
        <ele>1597</ele>
        <time>2021-08-11T11:32:57.810Z</time>
      </trkpt>
      <trkpt lat="46.87495" lon="8.49365">
        <ele>1597</ele>
        <time>2021-08-11T11:32:58.810Z</time>
      </trkpt>
      <trkpt lat="46.87495" lon="8.49364">
        <ele>1597</ele>
        <time>2021-08-11T11:33:01.773Z</time>
      </trkpt>
      <trkpt lat="46.87496" lon="8.49363">
        <ele>1598</ele>
        <time>2021-08-11T11:33:02.774Z</time>
      </trkpt>
      <trkpt lat="46.87496" lon="8.49362">
        <ele>1598</ele>
        <time>2021-08-11T11:33:03.774Z</time>
      </trkpt>
      <trkpt lat="46.87496" lon="8.49361">
        <ele>1598</ele>
        <time>2021-08-11T11:33:04.774Z</time>
      </trkpt>
      <trkpt lat="46.87496" lon="8.4936">
        <ele>1598</ele>
        <time>2021-08-11T11:33:10.792Z</time>
      </trkpt>
      <trkpt lat="46.87496" lon="8.49359">
        <ele>1599</ele>
        <time>2021-08-11T11:33:11.791Z</time>
      </trkpt>
      <trkpt lat="46.87496" lon="8.49357">
        <ele>1599</ele>
        <time>2021-08-11T11:33:12.792Z</time>
      </trkpt>
      <trkpt lat="46.87496" lon="8.49356">
        <ele>1598</ele>
        <time>2021-08-11T11:33:13.792Z</time>
      </trkpt>
      <trkpt lat="46.87495" lon="8.49355">
        <ele>1598</ele>
        <time>2021-08-11T11:33:14.792Z</time>
      </trkpt>
      <trkpt lat="46.87493" lon="8.49353">
        <ele>1598</ele>
        <time>2021-08-11T11:33:22.936Z</time>
      </trkpt>
      <trkpt lat="46.87493" lon="8.49352">
        <ele>1597</ele>
        <time>2021-08-11T11:33:23.935Z</time>
      </trkpt>
      <trkpt lat="46.87493" lon="8.49352">
        <ele>1597</ele>
        <time>2021-08-11T11:33:24.935Z</time>
      </trkpt>
      <trkpt lat="46.87494" lon="8.49351">
        <ele>1597</ele>
        <time>2021-08-11T11:33:25.936Z</time>
      </trkpt>
      <trkpt lat="46.87494" lon="8.4935">
        <ele>1597</ele>
        <time>2021-08-11T11:33:34.059Z</time>
      </trkpt>
      <trkpt lat="46.87494" lon="8.49349">
        <ele>1597</ele>
        <time>2021-08-11T11:33:35.059Z</time>
      </trkpt>
      <trkpt lat="46.87495" lon="8.49348">
        <ele>1598</ele>
        <time>2021-08-11T11:33:36.059Z</time>
      </trkpt>
      <trkpt lat="46.87494" lon="8.49347">
        <ele>1597</ele>
        <time>2021-08-11T11:33:37.059Z</time>
      </trkpt>
      <trkpt lat="46.87494" lon="8.49347">
        <ele>1597</ele>
        <time>2021-08-11T11:33:38.059Z</time>
      </trkpt>
      <trkpt lat="46.87494" lon="8.49346">
        <ele>1597</ele>
        <time>2021-08-11T11:33:39.059Z</time>
      </trkpt>
      <trkpt lat="46.87494" lon="8.49345">
        <ele>1597</ele>
        <time>2021-08-11T11:33:40.059Z</time>
      </trkpt>
      <trkpt lat="46.87494" lon="8.49344">
        <ele>1597</ele>
        <time>2021-08-11T11:33:41.059Z</time>
      </trkpt>
      <trkpt lat="46.87494" lon="8.49343">
        <ele>1597</ele>
        <time>2021-08-11T11:33:42.059Z</time>
      </trkpt>
      <trkpt lat="46.87495" lon="8.49343">
        <ele>1597</ele>
        <time>2021-08-11T11:33:43.058Z</time>
      </trkpt>
      <trkpt lat="46.87496" lon="8.49342">
        <ele>1597</ele>
        <time>2021-08-11T11:33:44.058Z</time>
      </trkpt>
      <trkpt lat="46.87496" lon="8.49341">
        <ele>1597</ele>
        <time>2021-08-11T11:33:45.058Z</time>
      </trkpt>
      <trkpt lat="46.87497" lon="8.49341">
        <ele>1597</ele>
        <time>2021-08-11T11:33:46.058Z</time>
      </trkpt>
      <trkpt lat="46.87497" lon="8.4934">
        <ele>1597</ele>
        <time>2021-08-11T11:33:47.059Z</time>
      </trkpt>
      <trkpt lat="46.87498" lon="8.49339">
        <ele>1597</ele>
        <time>2021-08-11T11:33:48.059Z</time>
      </trkpt>
      <trkpt lat="46.87498" lon="8.49338">
        <ele>1597</ele>
        <time>2021-08-11T11:33:49.059Z</time>
      </trkpt>
      <trkpt lat="46.87499" lon="8.49338">
        <ele>1597</ele>
        <time>2021-08-11T11:33:50.059Z</time>
      </trkpt>
      <trkpt lat="46.87499" lon="8.49337">
        <ele>1597</ele>
        <time>2021-08-11T11:33:51.058Z</time>
      </trkpt>
      <trkpt lat="46.87499" lon="8.49336">
        <ele>1597</ele>
        <time>2021-08-11T11:33:52.059Z</time>
      </trkpt>
      <trkpt lat="46.87499" lon="8.49335">
        <ele>1597</ele>
        <time>2021-08-11T11:33:53.058Z</time>
      </trkpt>
      <trkpt lat="46.87498" lon="8.49335">
        <ele>1597</ele>
        <time>2021-08-11T11:33:54.059Z</time>
      </trkpt>
      <trkpt lat="46.87499" lon="8.49334">
        <ele>1596</ele>
        <time>2021-08-11T11:33:55.059Z</time>
      </trkpt>
      <trkpt lat="46.87499" lon="8.49333">
        <ele>1596</ele>
        <time>2021-08-11T11:33:56.058Z</time>
      </trkpt>
      <trkpt lat="46.87499" lon="8.49332">
        <ele>1596</ele>
        <time>2021-08-11T11:33:57.059Z</time>
      </trkpt>
      <trkpt lat="46.875" lon="8.49331">
        <ele>1596</ele>
        <time>2021-08-11T11:33:58.059Z</time>
      </trkpt>
      <trkpt lat="46.875" lon="8.4933">
        <ele>1596</ele>
        <time>2021-08-11T11:33:59.059Z</time>
      </trkpt>
      <trkpt lat="46.875" lon="8.4933">
        <ele>1596</ele>
        <time>2021-08-11T11:34:00.059Z</time>
      </trkpt>
      <trkpt lat="46.87501" lon="8.49329">
        <ele>1596</ele>
        <time>2021-08-11T11:34:01.058Z</time>
      </trkpt>
      <trkpt lat="46.87501" lon="8.49328">
        <ele>1596</ele>
        <time>2021-08-11T11:34:02.058Z</time>
      </trkpt>
      <trkpt lat="46.87501" lon="8.49327">
        <ele>1596</ele>
        <time>2021-08-11T11:34:03.059Z</time>
      </trkpt>
      <trkpt lat="46.87501" lon="8.49326">
        <ele>1595</ele>
        <time>2021-08-11T11:34:04.058Z</time>
      </trkpt>
      <trkpt lat="46.875" lon="8.49325">
        <ele>1595</ele>
        <time>2021-08-11T11:34:05.059Z</time>
      </trkpt>
      <trkpt lat="46.875" lon="8.49323">
        <ele>1595</ele>
        <time>2021-08-11T11:34:06.059Z</time>
      </trkpt>
      <trkpt lat="46.875" lon="8.49323">
        <ele>1594</ele>
        <time>2021-08-11T11:34:07.059Z</time>
      </trkpt>
      <trkpt lat="46.875" lon="8.49322">
        <ele>1594</ele>
        <time>2021-08-11T11:34:15.207Z</time>
      </trkpt>
      <trkpt lat="46.87499" lon="8.49321">
        <ele>1594</ele>
        <time>2021-08-11T11:34:16.206Z</time>
      </trkpt>
      <trkpt lat="46.87499" lon="8.49319">
        <ele>1594</ele>
        <time>2021-08-11T11:34:18.026Z</time>
      </trkpt>
      <trkpt lat="46.875" lon="8.49319">
        <ele>1594</ele>
        <time>2021-08-11T11:34:19.026Z</time>
      </trkpt>
      <trkpt lat="46.87501" lon="8.49318">
        <ele>1594</ele>
        <time>2021-08-11T11:34:20.026Z</time>
      </trkpt>
      <trkpt lat="46.87501" lon="8.49317">
        <ele>1594</ele>
        <time>2021-08-11T11:34:21.026Z</time>
      </trkpt>
      <trkpt lat="46.87501" lon="8.49317">
        <ele>1594</ele>
        <time>2021-08-11T11:34:22.026Z</time>
      </trkpt>
      <trkpt lat="46.87502" lon="8.49316">
        <ele>1595</ele>
        <time>2021-08-11T11:34:23.025Z</time>
      </trkpt>
      <trkpt lat="46.87502" lon="8.49314">
        <ele>1595</ele>
        <time>2021-08-11T11:34:24.025Z</time>
      </trkpt>
      <trkpt lat="46.87503" lon="8.49313">
        <ele>1595</ele>
        <time>2021-08-11T11:34:25.026Z</time>
      </trkpt>
      <trkpt lat="46.87503" lon="8.49312">
        <ele>1595</ele>
        <time>2021-08-11T11:34:27.183Z</time>
      </trkpt>
      <trkpt lat="46.87503" lon="8.49311">
        <ele>1595</ele>
        <time>2021-08-11T11:34:31.203Z</time>
      </trkpt>
      <trkpt lat="46.87502" lon="8.49311">
        <ele>1595</ele>
        <time>2021-08-11T11:34:32.203Z</time>
      </trkpt>
      <trkpt lat="46.87502" lon="8.49311">
        <ele>1596</ele>
        <time>2021-08-11T11:34:41.182Z</time>
      </trkpt>
      <trkpt lat="46.87502" lon="8.49311">
        <ele>1596</ele>
        <time>2021-08-11T11:34:42.183Z</time>
      </trkpt>
      <trkpt lat="46.87503" lon="8.49311">
        <ele>1596</ele>
        <time>2021-08-11T11:34:43.182Z</time>
      </trkpt>
      <trkpt lat="46.87503" lon="8.49311">
        <ele>1597</ele>
        <time>2021-08-11T11:34:44.182Z</time>
      </trkpt>
      <trkpt lat="46.87503" lon="8.49311">
        <ele>1597</ele>
        <time>2021-08-11T11:34:45.183Z</time>
      </trkpt>
      <trkpt lat="46.87504" lon="8.49311">
        <ele>1598</ele>
        <time>2021-08-11T11:34:46.183Z</time>
      </trkpt>
      <trkpt lat="46.87503" lon="8.49312">
        <ele>1598</ele>
        <time>2021-08-11T11:34:47.183Z</time>
      </trkpt>
      <trkpt lat="46.87503" lon="8.49312">
        <ele>1598</ele>
        <time>2021-08-11T11:34:48.183Z</time>
      </trkpt>
      <trkpt lat="46.87504" lon="8.49311">
        <ele>1598</ele>
        <time>2021-08-11T11:34:49.182Z</time>
      </trkpt>
      <trkpt lat="46.87505" lon="8.49311">
        <ele>1598</ele>
        <time>2021-08-11T11:34:50.183Z</time>
      </trkpt>
      <trkpt lat="46.87505" lon="8.49311">
        <ele>1599</ele>
        <time>2021-08-11T11:34:51.183Z</time>
      </trkpt>
      <trkpt lat="46.87506" lon="8.49311">
        <ele>1599</ele>
        <time>2021-08-11T11:34:52.183Z</time>
      </trkpt>
      <trkpt lat="46.87507" lon="8.49311">
        <ele>1599</ele>
        <time>2021-08-11T11:34:53.183Z</time>
      </trkpt>
      <trkpt lat="46.87508" lon="8.49311">
        <ele>1599</ele>
        <time>2021-08-11T11:35:00.286Z</time>
      </trkpt>
      <trkpt lat="46.87509" lon="8.49311">
        <ele>1599</ele>
        <time>2021-08-11T11:35:01.286Z</time>
      </trkpt>
      <trkpt lat="46.8751" lon="8.49311">
        <ele>1600</ele>
        <time>2021-08-11T11:35:02.286Z</time>
      </trkpt>
      <trkpt lat="46.8751" lon="8.49311">
        <ele>1600</ele>
        <time>2021-08-11T11:35:03.286Z</time>
      </trkpt>
      <trkpt lat="46.8751" lon="8.49311">
        <ele>1600</ele>
        <time>2021-08-11T11:35:04.285Z</time>
      </trkpt>
      <trkpt lat="46.87511" lon="8.49311">
        <ele>1599</ele>
        <time>2021-08-11T11:35:05.286Z</time>
      </trkpt>
      <trkpt lat="46.87512" lon="8.49312">
        <ele>1600</ele>
        <time>2021-08-11T11:35:06.286Z</time>
      </trkpt>
      <trkpt lat="46.87513" lon="8.49313">
        <ele>1600</ele>
        <time>2021-08-11T11:35:07.286Z</time>
      </trkpt>
      <trkpt lat="46.87512" lon="8.49314">
        <ele>1600</ele>
        <time>2021-08-11T11:35:09.433Z</time>
      </trkpt>
      <trkpt lat="46.87512" lon="8.49314">
        <ele>1600</ele>
        <time>2021-08-11T11:35:10.432Z</time>
      </trkpt>
      <trkpt lat="46.87514" lon="8.49314">
        <ele>1600</ele>
        <time>2021-08-11T11:35:11.433Z</time>
      </trkpt>
      <trkpt lat="46.87514" lon="8.49314">
        <ele>1601</ele>
        <time>2021-08-11T11:35:12.433Z</time>
      </trkpt>
      <trkpt lat="46.87515" lon="8.49315">
        <ele>1601</ele>
        <time>2021-08-11T11:35:27.537Z</time>
      </trkpt>
      <trkpt lat="46.87515" lon="8.49315">
        <ele>1602</ele>
        <time>2021-08-11T11:35:28.538Z</time>
      </trkpt>
      <trkpt lat="46.87517" lon="8.49316">
        <ele>1602</ele>
        <time>2021-08-11T11:35:29.538Z</time>
      </trkpt>
      <trkpt lat="46.87517" lon="8.49316">
        <ele>1603</ele>
        <time>2021-08-11T11:35:30.538Z</time>
      </trkpt>
      <trkpt lat="46.87518" lon="8.49316">
        <ele>1604</ele>
        <time>2021-08-11T11:35:31.538Z</time>
      </trkpt>
      <trkpt lat="46.87519" lon="8.49316">
        <ele>1604</ele>
        <time>2021-08-11T11:35:32.538Z</time>
      </trkpt>
      <trkpt lat="46.8752" lon="8.49317">
        <ele>1605</ele>
        <time>2021-08-11T11:35:33.537Z</time>
      </trkpt>
      <trkpt lat="46.8752" lon="8.49317">
        <ele>1605</ele>
        <time>2021-08-11T11:35:34.538Z</time>
      </trkpt>
      <trkpt lat="46.8752" lon="8.49319">
        <ele>1605</ele>
        <time>2021-08-11T11:35:35.538Z</time>
      </trkpt>
      <trkpt lat="46.87521" lon="8.4932">
        <ele>1606</ele>
        <time>2021-08-11T11:35:36.538Z</time>
      </trkpt>
      <trkpt lat="46.87521" lon="8.4932">
        <ele>1606</ele>
        <time>2021-08-11T11:35:40.659Z</time>
      </trkpt>
      <trkpt lat="46.87522" lon="8.49321">
        <ele>1606</ele>
        <time>2021-08-11T11:35:41.658Z</time>
      </trkpt>
      <trkpt lat="46.87523" lon="8.49321">
        <ele>1606</ele>
        <time>2021-08-11T11:35:42.659Z</time>
      </trkpt>
      <trkpt lat="46.87523" lon="8.49322">
        <ele>1606</ele>
        <time>2021-08-11T11:35:43.659Z</time>
      </trkpt>
      <trkpt lat="46.87524" lon="8.49322">
        <ele>1606</ele>
        <time>2021-08-11T11:35:44.659Z</time>
      </trkpt>
      <trkpt lat="46.87525" lon="8.49323">
        <ele>1607</ele>
        <time>2021-08-11T11:35:45.659Z</time>
      </trkpt>
      <trkpt lat="46.87525" lon="8.49324">
        <ele>1608</ele>
        <time>2021-08-11T11:35:46.659Z</time>
      </trkpt>
      <trkpt lat="46.87526" lon="8.49325">
        <ele>1609</ele>
        <time>2021-08-11T11:35:47.659Z</time>
      </trkpt>
      <trkpt lat="46.87527" lon="8.49326">
        <ele>1609</ele>
        <time>2021-08-11T11:35:48.658Z</time>
      </trkpt>
      <trkpt lat="46.87527" lon="8.49326">
        <ele>1610</ele>
        <time>2021-08-11T11:35:49.658Z</time>
      </trkpt>
      <trkpt lat="46.87528" lon="8.49327">
        <ele>1610</ele>
        <time>2021-08-11T11:35:50.659Z</time>
      </trkpt>
      <trkpt lat="46.87529" lon="8.49328">
        <ele>1611</ele>
        <time>2021-08-11T11:35:51.659Z</time>
      </trkpt>
      <trkpt lat="46.8753" lon="8.49328">
        <ele>1611</ele>
        <time>2021-08-11T11:35:52.659Z</time>
      </trkpt>
      <trkpt lat="46.87531" lon="8.49329">
        <ele>1612</ele>
        <time>2021-08-11T11:35:53.659Z</time>
      </trkpt>
      <trkpt lat="46.87531" lon="8.4933">
        <ele>1612</ele>
        <time>2021-08-11T11:35:54.658Z</time>
      </trkpt>
      <trkpt lat="46.87533" lon="8.4933">
        <ele>1613</ele>
        <time>2021-08-11T11:35:55.659Z</time>
      </trkpt>
      <trkpt lat="46.87534" lon="8.4933">
        <ele>1614</ele>
        <time>2021-08-11T11:35:56.659Z</time>
      </trkpt>
      <trkpt lat="46.87536" lon="8.49329">
        <ele>1614</ele>
        <time>2021-08-11T11:35:57.659Z</time>
      </trkpt>
      <trkpt lat="46.87537" lon="8.49329">
        <ele>1615</ele>
        <time>2021-08-11T11:36:01.784Z</time>
      </trkpt>
      <trkpt lat="46.87538" lon="8.49329">
        <ele>1616</ele>
        <time>2021-08-11T11:36:02.784Z</time>
      </trkpt>
      <trkpt lat="46.87539" lon="8.49328">
        <ele>1617</ele>
        <time>2021-08-11T11:36:03.783Z</time>
      </trkpt>
      <trkpt lat="46.8754" lon="8.49328">
        <ele>1618</ele>
        <time>2021-08-11T11:36:13.906Z</time>
      </trkpt>
      <trkpt lat="46.87542" lon="8.49326">
        <ele>1618</ele>
        <time>2021-08-11T11:36:14.906Z</time>
      </trkpt>
      <trkpt lat="46.87543" lon="8.49325">
        <ele>1619</ele>
        <time>2021-08-11T11:36:15.906Z</time>
      </trkpt>
      <trkpt lat="46.87543" lon="8.49323">
        <ele>1619</ele>
        <time>2021-08-11T11:36:16.906Z</time>
      </trkpt>
      <trkpt lat="46.87544" lon="8.4932">
        <ele>1619</ele>
        <time>2021-08-11T11:36:17.905Z</time>
      </trkpt>
      <trkpt lat="46.87545" lon="8.49319">
        <ele>1619</ele>
        <time>2021-08-11T11:36:18.905Z</time>
      </trkpt>
      <trkpt lat="46.87545" lon="8.49318">
        <ele>1619</ele>
        <time>2021-08-11T11:36:19.906Z</time>
      </trkpt>
      <trkpt lat="46.87546" lon="8.49317">
        <ele>1619</ele>
        <time>2021-08-11T11:36:20.906Z</time>
      </trkpt>
      <trkpt lat="46.87547" lon="8.49315">
        <ele>1619</ele>
        <time>2021-08-11T11:36:21.905Z</time>
      </trkpt>
      <trkpt lat="46.87548" lon="8.49314">
        <ele>1619</ele>
        <time>2021-08-11T11:36:22.905Z</time>
      </trkpt>
      <trkpt lat="46.87548" lon="8.49313">
        <ele>1619</ele>
        <time>2021-08-11T11:36:23.906Z</time>
      </trkpt>
      <trkpt lat="46.87549" lon="8.49313">
        <ele>1619</ele>
        <time>2021-08-11T11:36:24.906Z</time>
      </trkpt>
      <trkpt lat="46.8755" lon="8.49311">
        <ele>1619</ele>
        <time>2021-08-11T11:36:25.906Z</time>
      </trkpt>
      <trkpt lat="46.87551" lon="8.4931">
        <ele>1619</ele>
        <time>2021-08-11T11:36:26.906Z</time>
      </trkpt>
      <trkpt lat="46.87551" lon="8.49309">
        <ele>1619</ele>
        <time>2021-08-11T11:36:27.906Z</time>
      </trkpt>
      <trkpt lat="46.8755" lon="8.49308">
        <ele>1618</ele>
        <time>2021-08-11T11:36:28.905Z</time>
      </trkpt>
      <trkpt lat="46.8755" lon="8.49308">
        <ele>1617</ele>
        <time>2021-08-11T11:36:29.906Z</time>
      </trkpt>
      <trkpt lat="46.8755" lon="8.49307">
        <ele>1617</ele>
        <time>2021-08-11T11:36:30.906Z</time>
      </trkpt>
      <trkpt lat="46.87552" lon="8.49305">
        <ele>1616</ele>
        <time>2021-08-11T11:36:40.056Z</time>
      </trkpt>
      <trkpt lat="46.87552" lon="8.49305">
        <ele>1616</ele>
        <time>2021-08-11T11:36:41.056Z</time>
      </trkpt>
      <trkpt lat="46.87552" lon="8.49305">
        <ele>1616</ele>
        <time>2021-08-11T11:36:44.926Z</time>
      </trkpt>
      <trkpt lat="46.87553" lon="8.49304">
        <ele>1616</ele>
        <time>2021-08-11T11:36:45.926Z</time>
      </trkpt>
      <trkpt lat="46.87553" lon="8.49304">
        <ele>1616</ele>
        <time>2021-08-11T11:36:50.807Z</time>
      </trkpt>
      <trkpt lat="46.87554" lon="8.49303">
        <ele>1616</ele>
        <time>2021-08-11T11:36:51.806Z</time>
      </trkpt>
      <trkpt lat="46.87553" lon="8.49303">
        <ele>1617</ele>
        <time>2021-08-11T11:36:52.806Z</time>
      </trkpt>
      <trkpt lat="46.87553" lon="8.49303">
        <ele>1617</ele>
        <time>2021-08-11T11:36:53.807Z</time>
      </trkpt>
      <trkpt lat="46.87552" lon="8.49304">
        <ele>1617</ele>
        <time>2021-08-11T11:36:54.807Z</time>
      </trkpt>
      <trkpt lat="46.87552" lon="8.49303">
        <ele>1617</ele>
        <time>2021-08-11T11:36:55.807Z</time>
      </trkpt>
      <trkpt lat="46.87553" lon="8.49301">
        <ele>1617</ele>
        <time>2021-08-11T11:36:56.807Z</time>
      </trkpt>
      <trkpt lat="46.87554" lon="8.493">
        <ele>1617</ele>
        <time>2021-08-11T11:36:57.806Z</time>
      </trkpt>
      <trkpt lat="46.87554" lon="8.49299">
        <ele>1617</ele>
        <time>2021-08-11T11:36:58.806Z</time>
      </trkpt>
      <trkpt lat="46.87554" lon="8.49299">
        <ele>1618</ele>
        <time>2021-08-11T11:36:59.807Z</time>
      </trkpt>
      <trkpt lat="46.87555" lon="8.49298">
        <ele>1618</ele>
        <time>2021-08-11T11:37:00.807Z</time>
      </trkpt>
      <trkpt lat="46.87555" lon="8.49298">
        <ele>1619</ele>
        <time>2021-08-11T11:37:01.807Z</time>
      </trkpt>
      <trkpt lat="46.87556" lon="8.49297">
        <ele>1619</ele>
        <time>2021-08-11T11:37:02.807Z</time>
      </trkpt>
      <trkpt lat="46.87556" lon="8.49296">
        <ele>1619</ele>
        <time>2021-08-11T11:37:03.807Z</time>
      </trkpt>
      <trkpt lat="46.87557" lon="8.49296">
        <ele>1619</ele>
        <time>2021-08-11T11:37:04.807Z</time>
      </trkpt>
      <trkpt lat="46.87557" lon="8.49295">
        <ele>1619</ele>
        <time>2021-08-11T11:37:05.807Z</time>
      </trkpt>
      <trkpt lat="46.87557" lon="8.49294">
        <ele>1619</ele>
        <time>2021-08-11T11:37:06.806Z</time>
      </trkpt>
      <trkpt lat="46.87557" lon="8.49293">
        <ele>1619</ele>
        <time>2021-08-11T11:37:07.807Z</time>
      </trkpt>
      <trkpt lat="46.87557" lon="8.49292">
        <ele>1619</ele>
        <time>2021-08-11T11:37:08.807Z</time>
      </trkpt>
      <trkpt lat="46.87557" lon="8.49292">
        <ele>1619</ele>
        <time>2021-08-11T11:37:09.807Z</time>
      </trkpt>
      <trkpt lat="46.87557" lon="8.49291">
        <ele>1619</ele>
        <time>2021-08-11T11:37:10.806Z</time>
      </trkpt>
      <trkpt lat="46.87557" lon="8.4929">
        <ele>1619</ele>
        <time>2021-08-11T11:37:11.807Z</time>
      </trkpt>
      <trkpt lat="46.87557" lon="8.4929">
        <ele>1618</ele>
        <time>2021-08-11T11:37:12.807Z</time>
      </trkpt>
      <trkpt lat="46.87558" lon="8.49289">
        <ele>1618</ele>
        <time>2021-08-11T11:37:13.807Z</time>
      </trkpt>
      <trkpt lat="46.87558" lon="8.49288">
        <ele>1617</ele>
        <time>2021-08-11T11:37:14.807Z</time>
      </trkpt>
      <trkpt lat="46.87558" lon="8.49288">
        <ele>1616</ele>
        <time>2021-08-11T11:37:15.807Z</time>
      </trkpt>
      <trkpt lat="46.87559" lon="8.49288">
        <ele>1616</ele>
        <time>2021-08-11T11:37:16.807Z</time>
      </trkpt>
      <trkpt lat="46.87559" lon="8.49287">
        <ele>1615</ele>
        <time>2021-08-11T11:37:17.806Z</time>
      </trkpt>
      <trkpt lat="46.87559" lon="8.49287">
        <ele>1614</ele>
        <time>2021-08-11T11:37:18.807Z</time>
      </trkpt>
      <trkpt lat="46.8756" lon="8.49286">
        <ele>1614</ele>
        <time>2021-08-11T11:37:19.807Z</time>
      </trkpt>
      <trkpt lat="46.87561" lon="8.49285">
        <ele>1614</ele>
        <time>2021-08-11T11:37:20.807Z</time>
      </trkpt>
      <trkpt lat="46.8756" lon="8.49285">
        <ele>1614</ele>
        <time>2021-08-11T11:37:21.807Z</time>
      </trkpt>
      <trkpt lat="46.8756" lon="8.49285">
        <ele>1614</ele>
        <time>2021-08-11T11:37:22.806Z</time>
      </trkpt>
      <trkpt lat="46.87561" lon="8.49284">
        <ele>1614</ele>
        <time>2021-08-11T11:37:23.806Z</time>
      </trkpt>
      <trkpt lat="46.87561" lon="8.49283">
        <ele>1614</ele>
        <time>2021-08-11T11:37:24.807Z</time>
      </trkpt>
      <trkpt lat="46.87562" lon="8.49282">
        <ele>1614</ele>
        <time>2021-08-11T11:37:25.807Z</time>
      </trkpt>
      <trkpt lat="46.87563" lon="8.49282">
        <ele>1614</ele>
        <time>2021-08-11T11:37:26.807Z</time>
      </trkpt>
      <trkpt lat="46.87564" lon="8.49281">
        <ele>1615</ele>
        <time>2021-08-11T11:37:27.806Z</time>
      </trkpt>
      <trkpt lat="46.87565" lon="8.49278">
        <ele>1615</ele>
        <time>2021-08-11T11:37:28.806Z</time>
      </trkpt>
      <trkpt lat="46.87566" lon="8.49276">
        <ele>1615</ele>
        <time>2021-08-11T11:37:29.807Z</time>
      </trkpt>
      <trkpt lat="46.87566" lon="8.49275">
        <ele>1615</ele>
        <time>2021-08-11T11:37:30.807Z</time>
      </trkpt>
      <trkpt lat="46.87566" lon="8.49274">
        <ele>1616</ele>
        <time>2021-08-11T11:37:31.807Z</time>
      </trkpt>
      <trkpt lat="46.87567" lon="8.49272">
        <ele>1616</ele>
        <time>2021-08-11T11:37:32.807Z</time>
      </trkpt>
      <trkpt lat="46.87567" lon="8.49271">
        <ele>1616</ele>
        <time>2021-08-11T11:37:33.806Z</time>
      </trkpt>
      <trkpt lat="46.87568" lon="8.4927">
        <ele>1617</ele>
        <time>2021-08-11T11:37:34.806Z</time>
      </trkpt>
      <trkpt lat="46.87568" lon="8.49268">
        <ele>1617</ele>
        <time>2021-08-11T11:37:35.806Z</time>
      </trkpt>
      <trkpt lat="46.87567" lon="8.49268">
        <ele>1617</ele>
        <time>2021-08-11T11:37:36.807Z</time>
      </trkpt>
      <trkpt lat="46.87565" lon="8.49268">
        <ele>1617</ele>
        <time>2021-08-11T11:37:43.926Z</time>
      </trkpt>
      <trkpt lat="46.87564" lon="8.49268">
        <ele>1617</ele>
        <time>2021-08-11T11:37:44.926Z</time>
      </trkpt>
      <trkpt lat="46.87564" lon="8.49268">
        <ele>1618</ele>
        <time>2021-08-11T11:37:45.926Z</time>
      </trkpt>
      <trkpt lat="46.87563" lon="8.49268">
        <ele>1618</ele>
        <time>2021-08-11T11:37:46.926Z</time>
      </trkpt>
      <trkpt lat="46.87563" lon="8.49267">
        <ele>1618</ele>
        <time>2021-08-11T11:37:50.035Z</time>
      </trkpt>
      <trkpt lat="46.87563" lon="8.49266">
        <ele>1618</ele>
        <time>2021-08-11T11:37:51.034Z</time>
      </trkpt>
      <trkpt lat="46.87563" lon="8.49266">
        <ele>1618</ele>
        <time>2021-08-11T11:38:08.924Z</time>
      </trkpt>
      <trkpt lat="46.87563" lon="8.49265">
        <ele>1618</ele>
        <time>2021-08-11T11:38:09.924Z</time>
      </trkpt>
      <trkpt lat="46.87563" lon="8.49265">
        <ele>1618</ele>
        <time>2021-08-11T11:38:10.925Z</time>
      </trkpt>
      <trkpt lat="46.87562" lon="8.49264">
        <ele>1618</ele>
        <time>2021-08-11T11:38:11.925Z</time>
      </trkpt>
      <trkpt lat="46.87561" lon="8.49264">
        <ele>1619</ele>
        <time>2021-08-11T11:38:56.055Z</time>
      </trkpt>
      <trkpt lat="46.8756" lon="8.49264">
        <ele>1619</ele>
        <time>2021-08-11T11:38:57.055Z</time>
      </trkpt>
      <trkpt lat="46.8756" lon="8.49262">
        <ele>1619</ele>
        <time>2021-08-11T11:40:10.178Z</time>
      </trkpt>
      <trkpt lat="46.87559" lon="8.49262">
        <ele>1620</ele>
        <time>2021-08-11T11:40:11.178Z</time>
      </trkpt>
      <trkpt lat="46.87559" lon="8.49261">
        <ele>1620</ele>
        <time>2021-08-11T11:40:12.177Z</time>
      </trkpt>
      <trkpt lat="46.87559" lon="8.49261">
        <ele>1620</ele>
        <time>2021-08-11T11:40:30.054Z</time>
      </trkpt>
      <trkpt lat="46.87559" lon="8.4926">
        <ele>1620</ele>
        <time>2021-08-11T11:40:31.055Z</time>
      </trkpt>
      <trkpt lat="46.87559" lon="8.49259">
        <ele>1620</ele>
        <time>2021-08-11T11:41:05.028Z</time>
      </trkpt>
      <trkpt lat="46.87559" lon="8.49258">
        <ele>1621</ele>
        <time>2021-08-11T11:41:06.028Z</time>
      </trkpt>
      <trkpt lat="46.87558" lon="8.49257">
        <ele>1621</ele>
        <time>2021-08-11T11:41:45.921Z</time>
      </trkpt>
      <trkpt lat="46.87557" lon="8.49257">
        <ele>1621</ele>
        <time>2021-08-11T11:41:46.920Z</time>
      </trkpt>
      <trkpt lat="46.87557" lon="8.49256">
        <ele>1622</ele>
        <time>2021-08-11T11:41:47.921Z</time>
      </trkpt>
      <trkpt lat="46.87556" lon="8.49256">
        <ele>1622</ele>
        <time>2021-08-11T11:42:11.067Z</time>
      </trkpt>
      <trkpt lat="46.87556" lon="8.49255">
        <ele>1622</ele>
        <time>2021-08-11T11:42:22.033Z</time>
      </trkpt>
      <trkpt lat="46.87556" lon="8.49255">
        <ele>1622</ele>
        <time>2021-08-11T11:42:23.033Z</time>
      </trkpt>
      <trkpt lat="46.87555" lon="8.49253">
        <ele>1622</ele>
        <time>2021-08-11T11:42:26.158Z</time>
      </trkpt>
      <trkpt lat="46.87555" lon="8.49251">
        <ele>1622</ele>
        <time>2021-08-11T11:42:27.159Z</time>
      </trkpt>
      <trkpt lat="46.87556" lon="8.49249">
        <ele>1622</ele>
        <time>2021-08-11T11:42:28.159Z</time>
      </trkpt>
      <trkpt lat="46.87555" lon="8.49249">
        <ele>1622</ele>
        <time>2021-08-11T11:42:29.159Z</time>
      </trkpt>
      <trkpt lat="46.87554" lon="8.49249">
        <ele>1622</ele>
        <time>2021-08-11T11:42:58.166Z</time>
      </trkpt>
      <trkpt lat="46.87554" lon="8.49248">
        <ele>1622</ele>
        <time>2021-08-11T11:42:59.165Z</time>
      </trkpt>
      <trkpt lat="46.87555" lon="8.49246">
        <ele>1622</ele>
        <time>2021-08-11T11:43:29.052Z</time>
      </trkpt>
      <trkpt lat="46.87556" lon="8.49243">
        <ele>1622</ele>
        <time>2021-08-11T11:44:20.924Z</time>
      </trkpt>
      <trkpt lat="46.87555" lon="8.49243">
        <ele>1622</ele>
        <time>2021-08-11T11:44:21.924Z</time>
      </trkpt>
      <trkpt lat="46.87554" lon="8.49242">
        <ele>1622</ele>
        <time>2021-08-11T11:44:40.928Z</time>
      </trkpt>
      <trkpt lat="46.87554" lon="8.49241">
        <ele>1622</ele>
        <time>2021-08-11T11:44:41.929Z</time>
      </trkpt>
      <trkpt lat="46.87554" lon="8.49239">
        <ele>1622</ele>
        <time>2021-08-11T11:44:42.929Z</time>
      </trkpt>
      <trkpt lat="46.87554" lon="8.49238">
        <ele>1622</ele>
        <time>2021-08-11T11:44:43.928Z</time>
      </trkpt>
      <trkpt lat="46.87554" lon="8.49237">
        <ele>1622</ele>
        <time>2021-08-11T11:44:44.929Z</time>
      </trkpt>
      <trkpt lat="46.87553" lon="8.49236">
        <ele>1622</ele>
        <time>2021-08-11T11:44:50.956Z</time>
      </trkpt>
      <trkpt lat="46.87553" lon="8.49235">
        <ele>1622</ele>
        <time>2021-08-11T11:44:51.957Z</time>
      </trkpt>
      <trkpt lat="46.87552" lon="8.49235">
        <ele>1621</ele>
        <time>2021-08-11T11:44:52.957Z</time>
      </trkpt>
      <trkpt lat="46.87552" lon="8.49235">
        <ele>1621</ele>
        <time>2021-08-11T11:45:12.026Z</time>
      </trkpt>
      <trkpt lat="46.87552" lon="8.49235">
        <ele>1621</ele>
        <time>2021-08-11T11:45:13.026Z</time>
      </trkpt>
      <trkpt lat="46.87552" lon="8.49235">
        <ele>1621</ele>
        <time>2021-08-11T11:45:14.025Z</time>
      </trkpt>
      <trkpt lat="46.87551" lon="8.49235">
        <ele>1621</ele>
        <time>2021-08-11T11:45:15.026Z</time>
      </trkpt>
      <trkpt lat="46.8755" lon="8.49237">
        <ele>1621</ele>
        <time>2021-08-11T11:45:16.025Z</time>
      </trkpt>
      <trkpt lat="46.87549" lon="8.49237">
        <ele>1621</ele>
        <time>2021-08-11T11:45:17.025Z</time>
      </trkpt>
      <trkpt lat="46.87548" lon="8.49237">
        <ele>1621</ele>
        <time>2021-08-11T11:45:18.026Z</time>
      </trkpt>
      <trkpt lat="46.87548" lon="8.49237">
        <ele>1621</ele>
        <time>2021-08-11T11:45:19.026Z</time>
      </trkpt>
      <trkpt lat="46.87548" lon="8.49236">
        <ele>1622</ele>
        <time>2021-08-11T11:45:20.025Z</time>
      </trkpt>
      <trkpt lat="46.87548" lon="8.49236">
        <ele>1622</ele>
        <time>2021-08-11T11:45:34.066Z</time>
      </trkpt>
      <trkpt lat="46.87546" lon="8.49236">
        <ele>1622</ele>
        <time>2021-08-11T11:45:35.066Z</time>
      </trkpt>
      <trkpt lat="46.87546" lon="8.49236">
        <ele>1622</ele>
        <time>2021-08-11T11:45:40.931Z</time>
      </trkpt>
      <trkpt lat="46.87545" lon="8.49236">
        <ele>1622</ele>
        <time>2021-08-11T11:45:41.931Z</time>
      </trkpt>
      <trkpt lat="46.87544" lon="8.49236">
        <ele>1623</ele>
        <time>2021-08-11T11:45:42.931Z</time>
      </trkpt>
      <trkpt lat="46.87543" lon="8.49235">
        <ele>1623</ele>
        <time>2021-08-11T11:45:43.931Z</time>
      </trkpt>
      <trkpt lat="46.87543" lon="8.49235">
        <ele>1623</ele>
        <time>2021-08-11T11:45:44.931Z</time>
      </trkpt>
      <trkpt lat="46.87543" lon="8.49235">
        <ele>1623</ele>
        <time>2021-08-11T11:45:45.931Z</time>
      </trkpt>
      <trkpt lat="46.87542" lon="8.49234">
        <ele>1623</ele>
        <time>2021-08-11T11:45:46.931Z</time>
      </trkpt>
      <trkpt lat="46.87542" lon="8.49234">
        <ele>1623</ele>
        <time>2021-08-11T11:45:53.073Z</time>
      </trkpt>
      <trkpt lat="46.87542" lon="8.49235">
        <ele>1623</ele>
        <time>2021-08-11T11:45:54.073Z</time>
      </trkpt>
      <trkpt lat="46.87541" lon="8.49235">
        <ele>1623</ele>
        <time>2021-08-11T11:46:01.901Z</time>
      </trkpt>
      <trkpt lat="46.87541" lon="8.49236">
        <ele>1623</ele>
        <time>2021-08-11T11:46:02.900Z</time>
      </trkpt>
      <trkpt lat="46.8754" lon="8.49236">
        <ele>1623</ele>
        <time>2021-08-11T11:46:08.813Z</time>
      </trkpt>
      <trkpt lat="46.8754" lon="8.49236">
        <ele>1623</ele>
        <time>2021-08-11T11:46:09.813Z</time>
      </trkpt>
      <trkpt lat="46.87539" lon="8.49236">
        <ele>1624</ele>
        <time>2021-08-11T11:46:10.813Z</time>
      </trkpt>
      <trkpt lat="46.87539" lon="8.49235">
        <ele>1624</ele>
        <time>2021-08-11T11:46:21.897Z</time>
      </trkpt>
      <trkpt lat="46.87539" lon="8.49235">
        <ele>1624</ele>
        <time>2021-08-11T11:46:22.896Z</time>
      </trkpt>
      <trkpt lat="46.87538" lon="8.49235">
        <ele>1624</ele>
        <time>2021-08-11T11:46:28.776Z</time>
      </trkpt>
      <trkpt lat="46.87537" lon="8.49235">
        <ele>1624</ele>
        <time>2021-08-11T11:46:29.776Z</time>
      </trkpt>
      <trkpt lat="46.87537" lon="8.49236">
        <ele>1624</ele>
        <time>2021-08-11T11:46:30.776Z</time>
      </trkpt>
      <trkpt lat="46.87536" lon="8.49236">
        <ele>1625</ele>
        <time>2021-08-11T11:46:31.776Z</time>
      </trkpt>
      <trkpt lat="46.87536" lon="8.49235">
        <ele>1625</ele>
        <time>2021-08-11T11:46:32.776Z</time>
      </trkpt>
      <trkpt lat="46.87536" lon="8.49234">
        <ele>1625</ele>
        <time>2021-08-11T11:46:33.775Z</time>
      </trkpt>
      <trkpt lat="46.87536" lon="8.49234">
        <ele>1625</ele>
        <time>2021-08-11T11:46:34.776Z</time>
      </trkpt>
      <trkpt lat="46.87535" lon="8.49233">
        <ele>1625</ele>
        <time>2021-08-11T11:46:35.776Z</time>
      </trkpt>
      <trkpt lat="46.87534" lon="8.49232">
        <ele>1625</ele>
        <time>2021-08-11T11:46:36.776Z</time>
      </trkpt>
      <trkpt lat="46.87533" lon="8.49231">
        <ele>1625</ele>
        <time>2021-08-11T11:46:45.895Z</time>
      </trkpt>
      <trkpt lat="46.87533" lon="8.49231">
        <ele>1625</ele>
        <time>2021-08-11T11:46:46.894Z</time>
      </trkpt>
      <trkpt lat="46.87532" lon="8.4923">
        <ele>1625</ele>
        <time>2021-08-11T11:46:47.895Z</time>
      </trkpt>
      <trkpt lat="46.87531" lon="8.4923">
        <ele>1625</ele>
        <time>2021-08-11T11:46:48.895Z</time>
      </trkpt>
      <trkpt lat="46.87531" lon="8.4923">
        <ele>1625</ele>
        <time>2021-08-11T11:46:49.895Z</time>
      </trkpt>
      <trkpt lat="46.87531" lon="8.49229">
        <ele>1626</ele>
        <time>2021-08-11T11:46:50.895Z</time>
      </trkpt>
      <trkpt lat="46.8753" lon="8.49228">
        <ele>1626</ele>
        <time>2021-08-11T11:46:51.895Z</time>
      </trkpt>
      <trkpt lat="46.8753" lon="8.49228">
        <ele>1626</ele>
        <time>2021-08-11T11:46:52.894Z</time>
      </trkpt>
      <trkpt lat="46.87529" lon="8.49227">
        <ele>1626</ele>
        <time>2021-08-11T11:46:53.895Z</time>
      </trkpt>
      <trkpt lat="46.87528" lon="8.49227">
        <ele>1626</ele>
        <time>2021-08-11T11:46:54.895Z</time>
      </trkpt>
      <trkpt lat="46.87526" lon="8.49227">
        <ele>1626</ele>
        <time>2021-08-11T11:46:55.895Z</time>
      </trkpt>
      <trkpt lat="46.87525" lon="8.49227">
        <ele>1626</ele>
        <time>2021-08-11T11:46:56.894Z</time>
      </trkpt>
      <trkpt lat="46.87525" lon="8.49224">
        <ele>1626</ele>
        <time>2021-08-11T11:46:57.894Z</time>
      </trkpt>
      <trkpt lat="46.87525" lon="8.49223">
        <ele>1626</ele>
        <time>2021-08-11T11:46:58.894Z</time>
      </trkpt>
      <trkpt lat="46.87524" lon="8.49223">
        <ele>1626</ele>
        <time>2021-08-11T11:46:59.895Z</time>
      </trkpt>
      <trkpt lat="46.87524" lon="8.49222">
        <ele>1626</ele>
        <time>2021-08-11T11:47:00.895Z</time>
      </trkpt>
      <trkpt lat="46.87524" lon="8.49222">
        <ele>1626</ele>
        <time>2021-08-11T11:47:04.897Z</time>
      </trkpt>
      <trkpt lat="46.87523" lon="8.49223">
        <ele>1627</ele>
        <time>2021-08-11T11:47:05.898Z</time>
      </trkpt>
      <trkpt lat="46.87522" lon="8.49224">
        <ele>1627</ele>
        <time>2021-08-11T11:47:06.898Z</time>
      </trkpt>
      <trkpt lat="46.87521" lon="8.49225">
        <ele>1628</ele>
        <time>2021-08-11T11:47:07.898Z</time>
      </trkpt>
      <trkpt lat="46.8752" lon="8.49225">
        <ele>1628</ele>
        <time>2021-08-11T11:47:08.898Z</time>
      </trkpt>
      <trkpt lat="46.8752" lon="8.49225">
        <ele>1629</ele>
        <time>2021-08-11T11:47:09.897Z</time>
      </trkpt>
      <trkpt lat="46.8752" lon="8.49225">
        <ele>1629</ele>
        <time>2021-08-11T11:47:10.897Z</time>
      </trkpt>
      <trkpt lat="46.87519" lon="8.49224">
        <ele>1630</ele>
        <time>2021-08-11T11:47:11.898Z</time>
      </trkpt>
      <trkpt lat="46.87519" lon="8.49223">
        <ele>1630</ele>
        <time>2021-08-11T11:47:12.898Z</time>
      </trkpt>
      <trkpt lat="46.87518" lon="8.49223">
        <ele>1631</ele>
        <time>2021-08-11T11:47:13.898Z</time>
      </trkpt>
      <trkpt lat="46.87518" lon="8.49222">
        <ele>1631</ele>
        <time>2021-08-11T11:47:14.898Z</time>
      </trkpt>
      <trkpt lat="46.87518" lon="8.49222">
        <ele>1631</ele>
        <time>2021-08-11T11:47:15.897Z</time>
      </trkpt>
      <trkpt lat="46.87517" lon="8.49222">
        <ele>1632</ele>
        <time>2021-08-11T11:47:16.898Z</time>
      </trkpt>
      <trkpt lat="46.87517" lon="8.49221">
        <ele>1632</ele>
        <time>2021-08-11T11:47:17.898Z</time>
      </trkpt>
      <trkpt lat="46.87517" lon="8.49221">
        <ele>1632</ele>
        <time>2021-08-11T11:47:18.898Z</time>
      </trkpt>
      <trkpt lat="46.87516" lon="8.49221">
        <ele>1632</ele>
        <time>2021-08-11T11:47:19.898Z</time>
      </trkpt>
      <trkpt lat="46.87516" lon="8.4922">
        <ele>1632</ele>
        <time>2021-08-11T11:47:20.897Z</time>
      </trkpt>
      <trkpt lat="46.87516" lon="8.4922">
        <ele>1632</ele>
        <time>2021-08-11T11:47:21.897Z</time>
      </trkpt>
      <trkpt lat="46.87516" lon="8.4922">
        <ele>1632</ele>
        <time>2021-08-11T11:47:33.043Z</time>
      </trkpt>
      <trkpt lat="46.87515" lon="8.4922">
        <ele>1632</ele>
        <time>2021-08-11T11:47:34.905Z</time>
      </trkpt>
      <trkpt lat="46.87514" lon="8.49221">
        <ele>1633</ele>
        <time>2021-08-11T11:47:35.905Z</time>
      </trkpt>
      <trkpt lat="46.87513" lon="8.49223">
        <ele>1633</ele>
        <time>2021-08-11T11:47:40.772Z</time>
      </trkpt>
      <trkpt lat="46.87513" lon="8.49223">
        <ele>1633</ele>
        <time>2021-08-11T11:47:41.771Z</time>
      </trkpt>
      <trkpt lat="46.87513" lon="8.49223">
        <ele>1634</ele>
        <time>2021-08-11T11:47:42.772Z</time>
      </trkpt>
      <trkpt lat="46.87512" lon="8.49223">
        <ele>1634</ele>
        <time>2021-08-11T11:47:46.937Z</time>
      </trkpt>
      <trkpt lat="46.87511" lon="8.49224">
        <ele>1634</ele>
        <time>2021-08-11T11:47:47.937Z</time>
      </trkpt>
      <trkpt lat="46.87511" lon="8.49224">
        <ele>1635</ele>
        <time>2021-08-11T11:47:48.937Z</time>
      </trkpt>
      <trkpt lat="46.8751" lon="8.49224">
        <ele>1635</ele>
        <time>2021-08-11T11:47:49.936Z</time>
      </trkpt>
      <trkpt lat="46.87509" lon="8.49223">
        <ele>1635</ele>
        <time>2021-08-11T11:47:50.937Z</time>
      </trkpt>
      <trkpt lat="46.87508" lon="8.49223">
        <ele>1635</ele>
        <time>2021-08-11T11:47:51.937Z</time>
      </trkpt>
      <trkpt lat="46.87508" lon="8.49222">
        <ele>1636</ele>
        <time>2021-08-11T11:47:52.937Z</time>
      </trkpt>
      <trkpt lat="46.87507" lon="8.49222">
        <ele>1636</ele>
        <time>2021-08-11T11:47:53.937Z</time>
      </trkpt>
      <trkpt lat="46.87507" lon="8.4922">
        <ele>1637</ele>
        <time>2021-08-11T11:47:54.936Z</time>
      </trkpt>
      <trkpt lat="46.87506" lon="8.4922">
        <ele>1637</ele>
        <time>2021-08-11T11:47:55.937Z</time>
      </trkpt>
      <trkpt lat="46.87506" lon="8.4922">
        <ele>1638</ele>
        <time>2021-08-11T11:47:56.937Z</time>
      </trkpt>
      <trkpt lat="46.87505" lon="8.4922">
        <ele>1638</ele>
        <time>2021-08-11T11:47:57.937Z</time>
      </trkpt>
      <trkpt lat="46.87503" lon="8.49221">
        <ele>1639</ele>
        <time>2021-08-11T11:47:58.936Z</time>
      </trkpt>
      <trkpt lat="46.87502" lon="8.49221">
        <ele>1639</ele>
        <time>2021-08-11T11:47:59.936Z</time>
      </trkpt>
      <trkpt lat="46.87501" lon="8.49221">
        <ele>1639</ele>
        <time>2021-08-11T11:48:00.936Z</time>
      </trkpt>
      <trkpt lat="46.87501" lon="8.49221">
        <ele>1640</ele>
        <time>2021-08-11T11:48:01.937Z</time>
      </trkpt>
      <trkpt lat="46.875" lon="8.4922">
        <ele>1641</ele>
        <time>2021-08-11T11:48:02.937Z</time>
      </trkpt>
      <trkpt lat="46.87499" lon="8.49219">
        <ele>1641</ele>
        <time>2021-08-11T11:48:03.937Z</time>
      </trkpt>
      <trkpt lat="46.87499" lon="8.49219">
        <ele>1642</ele>
        <time>2021-08-11T11:48:04.937Z</time>
      </trkpt>
      <trkpt lat="46.87498" lon="8.49219">
        <ele>1642</ele>
        <time>2021-08-11T11:48:09.021Z</time>
      </trkpt>
      <trkpt lat="46.87498" lon="8.4922">
        <ele>1642</ele>
        <time>2021-08-11T11:48:10.021Z</time>
      </trkpt>
      <trkpt lat="46.87498" lon="8.4922">
        <ele>1642</ele>
        <time>2021-08-11T11:48:11.021Z</time>
      </trkpt>
      <trkpt lat="46.87497" lon="8.49219">
        <ele>1643</ele>
        <time>2021-08-11T11:48:15.040Z</time>
      </trkpt>
      <trkpt lat="46.87496" lon="8.49218">
        <ele>1643</ele>
        <time>2021-08-11T11:48:16.040Z</time>
      </trkpt>
      <trkpt lat="46.87496" lon="8.49218">
        <ele>1644</ele>
        <time>2021-08-11T11:48:17.040Z</time>
      </trkpt>
      <trkpt lat="46.87495" lon="8.49217">
        <ele>1644</ele>
        <time>2021-08-11T11:48:18.040Z</time>
      </trkpt>
      <trkpt lat="46.87494" lon="8.49218">
        <ele>1644</ele>
        <time>2021-08-11T11:48:19.040Z</time>
      </trkpt>
      <trkpt lat="46.87493" lon="8.49218">
        <ele>1644</ele>
        <time>2021-08-11T11:48:20.040Z</time>
      </trkpt>
      <trkpt lat="46.87492" lon="8.49218">
        <ele>1644</ele>
        <time>2021-08-11T11:48:21.039Z</time>
      </trkpt>
      <trkpt lat="46.87492" lon="8.49219">
        <ele>1644</ele>
        <time>2021-08-11T11:48:22.040Z</time>
      </trkpt>
      <trkpt lat="46.87492" lon="8.49219">
        <ele>1644</ele>
        <time>2021-08-11T11:48:23.040Z</time>
      </trkpt>
      <trkpt lat="46.87491" lon="8.49219">
        <ele>1644</ele>
        <time>2021-08-11T11:48:24.040Z</time>
      </trkpt>
      <trkpt lat="46.87491" lon="8.4922">
        <ele>1644</ele>
        <time>2021-08-11T11:48:25.039Z</time>
      </trkpt>
      <trkpt lat="46.87489" lon="8.49221">
        <ele>1644</ele>
        <time>2021-08-11T11:48:26.039Z</time>
      </trkpt>
      <trkpt lat="46.87488" lon="8.49221">
        <ele>1644</ele>
        <time>2021-08-11T11:48:27.039Z</time>
      </trkpt>
      <trkpt lat="46.87488" lon="8.49222">
        <ele>1644</ele>
        <time>2021-08-11T11:48:39.158Z</time>
      </trkpt>
      <trkpt lat="46.87487" lon="8.49223">
        <ele>1644</ele>
        <time>2021-08-11T11:48:40.158Z</time>
      </trkpt>
      <trkpt lat="46.87486" lon="8.49223">
        <ele>1644</ele>
        <time>2021-08-11T11:48:48.037Z</time>
      </trkpt>
      <trkpt lat="46.87486" lon="8.49224">
        <ele>1644</ele>
        <time>2021-08-11T11:48:49.036Z</time>
      </trkpt>
      <trkpt lat="46.87485" lon="8.49225">
        <ele>1644</ele>
        <time>2021-08-11T11:48:53.159Z</time>
      </trkpt>
      <trkpt lat="46.87484" lon="8.49225">
        <ele>1644</ele>
        <time>2021-08-11T11:48:54.159Z</time>
      </trkpt>
      <trkpt lat="46.87483" lon="8.49224">
        <ele>1644</ele>
        <time>2021-08-11T11:48:55.160Z</time>
      </trkpt>
      <trkpt lat="46.87483" lon="8.49224">
        <ele>1644</ele>
        <time>2021-08-11T11:48:56.160Z</time>
      </trkpt>
      <trkpt lat="46.87483" lon="8.49224">
        <ele>1643</ele>
        <time>2021-08-11T11:48:57.160Z</time>
      </trkpt>
      <trkpt lat="46.87482" lon="8.49224">
        <ele>1643</ele>
        <time>2021-08-11T11:48:58.159Z</time>
      </trkpt>
      <trkpt lat="46.87482" lon="8.49225">
        <ele>1642</ele>
        <time>2021-08-11T11:48:59.160Z</time>
      </trkpt>
      <trkpt lat="46.87481" lon="8.49224">
        <ele>1642</ele>
        <time>2021-08-11T11:49:00.160Z</time>
      </trkpt>
      <trkpt lat="46.8748" lon="8.49224">
        <ele>1642</ele>
        <time>2021-08-11T11:49:01.160Z</time>
      </trkpt>
      <trkpt lat="46.87481" lon="8.49223">
        <ele>1642</ele>
        <time>2021-08-11T11:49:02.160Z</time>
      </trkpt>
      <trkpt lat="46.87481" lon="8.49223">
        <ele>1642</ele>
        <time>2021-08-11T11:49:03.159Z</time>
      </trkpt>
      <trkpt lat="46.8748" lon="8.49224">
        <ele>1642</ele>
        <time>2021-08-11T11:49:04.159Z</time>
      </trkpt>
      <trkpt lat="46.87479" lon="8.49224">
        <ele>1642</ele>
        <time>2021-08-11T11:49:05.159Z</time>
      </trkpt>
      <trkpt lat="46.87478" lon="8.49224">
        <ele>1642</ele>
        <time>2021-08-11T11:49:06.160Z</time>
      </trkpt>
      <trkpt lat="46.87477" lon="8.49224">
        <ele>1642</ele>
        <time>2021-08-11T11:49:07.160Z</time>
      </trkpt>
      <trkpt lat="46.87476" lon="8.49224">
        <ele>1642</ele>
        <time>2021-08-11T11:49:08.159Z</time>
      </trkpt>
      <trkpt lat="46.87476" lon="8.49225">
        <ele>1641</ele>
        <time>2021-08-11T11:49:09.160Z</time>
      </trkpt>
      <trkpt lat="46.87475" lon="8.49225">
        <ele>1641</ele>
        <time>2021-08-11T11:49:11.268Z</time>
      </trkpt>
      <trkpt lat="46.87474" lon="8.49225">
        <ele>1640</ele>
        <time>2021-08-11T11:49:12.268Z</time>
      </trkpt>
      <trkpt lat="46.87474" lon="8.49225">
        <ele>1640</ele>
        <time>2021-08-11T11:49:13.268Z</time>
      </trkpt>
      <trkpt lat="46.87474" lon="8.49225">
        <ele>1639</ele>
        <time>2021-08-11T11:49:14.268Z</time>
      </trkpt>
      <trkpt lat="46.87473" lon="8.49224">
        <ele>1634</ele>
        <time>2021-08-11T11:49:15.267Z</time>
      </trkpt>
      <trkpt lat="46.87473" lon="8.49224">
        <ele>1633</ele>
        <time>2021-08-11T11:49:16.267Z</time>
      </trkpt>
      <trkpt lat="46.87473" lon="8.49224">
        <ele>1633</ele>
        <time>2021-08-11T11:49:17.267Z</time>
      </trkpt>
      <trkpt lat="46.87473" lon="8.49224">
        <ele>1632</ele>
        <time>2021-08-11T11:49:18.267Z</time>
      </trkpt>
      <trkpt lat="46.87473" lon="8.49224">
        <ele>1632</ele>
        <time>2021-08-11T11:49:19.268Z</time>
      </trkpt>
      <trkpt lat="46.87473" lon="8.49224">
        <ele>1632</ele>
        <time>2021-08-11T11:49:20.268Z</time>
      </trkpt>
      <trkpt lat="46.87473" lon="8.49224">
        <ele>1632</ele>
        <time>2021-08-11T11:49:21.268Z</time>
      </trkpt>
      <trkpt lat="46.87472" lon="8.49224">
        <ele>1632</ele>
        <time>2021-08-11T11:49:22.268Z</time>
      </trkpt>
      <trkpt lat="46.87472" lon="8.49223">
        <ele>1632</ele>
        <time>2021-08-11T11:49:23.268Z</time>
      </trkpt>
      <trkpt lat="46.87472" lon="8.49223">
        <ele>1633</ele>
        <time>2021-08-11T11:49:24.267Z</time>
      </trkpt>
      <trkpt lat="46.87473" lon="8.49222">
        <ele>1633</ele>
        <time>2021-08-11T11:49:25.268Z</time>
      </trkpt>
      <trkpt lat="46.87473" lon="8.49222">
        <ele>1634</ele>
        <time>2021-08-11T11:49:26.268Z</time>
      </trkpt>
      <trkpt lat="46.87473" lon="8.49221">
        <ele>1634</ele>
        <time>2021-08-11T11:49:28.368Z</time>
      </trkpt>
      <trkpt lat="46.87473" lon="8.4922">
        <ele>1635</ele>
        <time>2021-08-11T11:49:29.368Z</time>
      </trkpt>
      <trkpt lat="46.87473" lon="8.49219">
        <ele>1635</ele>
        <time>2021-08-11T11:49:30.368Z</time>
      </trkpt>
      <trkpt lat="46.87474" lon="8.49219">
        <ele>1635</ele>
        <time>2021-08-11T11:49:37.386Z</time>
      </trkpt>
      <trkpt lat="46.87475" lon="8.49219">
        <ele>1636</ele>
        <time>2021-08-11T11:49:38.386Z</time>
      </trkpt>
      <trkpt lat="46.87476" lon="8.49219">
        <ele>1636</ele>
        <time>2021-08-11T11:49:39.386Z</time>
      </trkpt>
      <trkpt lat="46.87476" lon="8.49219">
        <ele>1636</ele>
        <time>2021-08-11T11:49:40.385Z</time>
      </trkpt>
      <trkpt lat="46.87478" lon="8.49218">
        <ele>1637</ele>
        <time>2021-08-11T11:49:41.387Z</time>
      </trkpt>
      <trkpt lat="46.87479" lon="8.49217">
        <ele>1637</ele>
        <time>2021-08-11T11:49:42.386Z</time>
      </trkpt>
      <trkpt lat="46.87481" lon="8.49216">
        <ele>1637</ele>
        <time>2021-08-11T11:49:43.386Z</time>
      </trkpt>
      <trkpt lat="46.87482" lon="8.49216">
        <ele>1637</ele>
        <time>2021-08-11T11:49:44.387Z</time>
      </trkpt>
      <trkpt lat="46.87484" lon="8.49215">
        <ele>1638</ele>
        <time>2021-08-11T11:49:45.387Z</time>
      </trkpt>
      <trkpt lat="46.87485" lon="8.49215">
        <ele>1639</ele>
        <time>2021-08-11T11:49:53.512Z</time>
      </trkpt>
      <trkpt lat="46.87486" lon="8.49215">
        <ele>1639</ele>
        <time>2021-08-11T11:49:54.513Z</time>
      </trkpt>
      <trkpt lat="46.87487" lon="8.49214">
        <ele>1640</ele>
        <time>2021-08-11T11:49:55.513Z</time>
      </trkpt>
      <trkpt lat="46.87488" lon="8.49214">
        <ele>1640</ele>
        <time>2021-08-11T11:49:56.513Z</time>
      </trkpt>
      <trkpt lat="46.87489" lon="8.49213">
        <ele>1640</ele>
        <time>2021-08-11T11:49:57.513Z</time>
      </trkpt>
      <trkpt lat="46.87489" lon="8.49212">
        <ele>1640</ele>
        <time>2021-08-11T11:49:58.512Z</time>
      </trkpt>
      <trkpt lat="46.87489" lon="8.49211">
        <ele>1640</ele>
        <time>2021-08-11T11:49:59.513Z</time>
      </trkpt>
      <trkpt lat="46.8749" lon="8.49211">
        <ele>1640</ele>
        <time>2021-08-11T11:50:00.512Z</time>
      </trkpt>
      <trkpt lat="46.87491" lon="8.4921">
        <ele>1640</ele>
        <time>2021-08-11T11:50:01.512Z</time>
      </trkpt>
      <trkpt lat="46.87492" lon="8.49209">
        <ele>1639</ele>
        <time>2021-08-11T11:50:13.652Z</time>
      </trkpt>
      <trkpt lat="46.87493" lon="8.49209">
        <ele>1639</ele>
        <time>2021-08-11T11:50:14.652Z</time>
      </trkpt>
      <trkpt lat="46.87493" lon="8.49208">
        <ele>1640</ele>
        <time>2021-08-11T11:50:15.653Z</time>
      </trkpt>
      <trkpt lat="46.87495" lon="8.49207">
        <ele>1640</ele>
        <time>2021-08-11T11:50:16.653Z</time>
      </trkpt>
      <trkpt lat="46.87497" lon="8.49207">
        <ele>1641</ele>
        <time>2021-08-11T11:50:17.652Z</time>
      </trkpt>
      <trkpt lat="46.87497" lon="8.49206">
        <ele>1641</ele>
        <time>2021-08-11T11:50:18.652Z</time>
      </trkpt>
      <trkpt lat="46.87498" lon="8.49205">
        <ele>1642</ele>
        <time>2021-08-11T11:50:19.653Z</time>
      </trkpt>
      <trkpt lat="46.87499" lon="8.49204">
        <ele>1642</ele>
        <time>2021-08-11T11:50:24.797Z</time>
      </trkpt>
      <trkpt lat="46.87499" lon="8.49203">
        <ele>1643</ele>
        <time>2021-08-11T11:50:25.796Z</time>
      </trkpt>
      <trkpt lat="46.875" lon="8.49203">
        <ele>1643</ele>
        <time>2021-08-11T11:50:26.797Z</time>
      </trkpt>
      <trkpt lat="46.875" lon="8.49203">
        <ele>1644</ele>
        <time>2021-08-11T11:50:36.905Z</time>
      </trkpt>
      <trkpt lat="46.87501" lon="8.49202">
        <ele>1645</ele>
        <time>2021-08-11T11:50:37.905Z</time>
      </trkpt>
      <trkpt lat="46.87501" lon="8.49202">
        <ele>1646</ele>
        <time>2021-08-11T11:50:38.904Z</time>
      </trkpt>
      <trkpt lat="46.87501" lon="8.49201">
        <ele>1646</ele>
        <time>2021-08-11T11:50:39.905Z</time>
      </trkpt>
      <trkpt lat="46.87501" lon="8.492">
        <ele>1647</ele>
        <time>2021-08-11T11:50:40.904Z</time>
      </trkpt>
      <trkpt lat="46.87502" lon="8.49199">
        <ele>1648</ele>
        <time>2021-08-11T11:50:41.905Z</time>
      </trkpt>
      <trkpt lat="46.87502" lon="8.49198">
        <ele>1649</ele>
        <time>2021-08-11T11:50:47.008Z</time>
      </trkpt>
      <trkpt lat="46.87503" lon="8.49197">
        <ele>1649</ele>
        <time>2021-08-11T11:50:48.007Z</time>
      </trkpt>
      <trkpt lat="46.87503" lon="8.49197">
        <ele>1650</ele>
        <time>2021-08-11T11:51:04.132Z</time>
      </trkpt>
      <trkpt lat="46.87503" lon="8.49196">
        <ele>1651</ele>
        <time>2021-08-11T11:51:05.132Z</time>
      </trkpt>
      <trkpt lat="46.87504" lon="8.49195">
        <ele>1652</ele>
        <time>2021-08-11T11:51:06.132Z</time>
      </trkpt>
      <trkpt lat="46.87505" lon="8.49195">
        <ele>1653</ele>
        <time>2021-08-11T11:51:14.256Z</time>
      </trkpt>
      <trkpt lat="46.87505" lon="8.49195">
        <ele>1653</ele>
        <time>2021-08-11T11:51:15.256Z</time>
      </trkpt>
      <trkpt lat="46.87506" lon="8.49194">
        <ele>1654</ele>
        <time>2021-08-11T11:51:16.255Z</time>
      </trkpt>
      <trkpt lat="46.87507" lon="8.49194">
        <ele>1655</ele>
        <time>2021-08-11T11:51:19.364Z</time>
      </trkpt>
      <trkpt lat="46.87507" lon="8.49193">
        <ele>1655</ele>
        <time>2021-08-11T11:51:20.364Z</time>
      </trkpt>
      <trkpt lat="46.87506" lon="8.49193">
        <ele>1656</ele>
        <time>2021-08-11T11:51:21.364Z</time>
      </trkpt>
      <trkpt lat="46.87507" lon="8.49193">
        <ele>1656</ele>
        <time>2021-08-11T11:51:22.364Z</time>
      </trkpt>
      <trkpt lat="46.87507" lon="8.49192">
        <ele>1656</ele>
        <time>2021-08-11T11:51:23.363Z</time>
      </trkpt>
      <trkpt lat="46.87507" lon="8.49191">
        <ele>1656</ele>
        <time>2021-08-11T11:51:24.363Z</time>
      </trkpt>
      <trkpt lat="46.87508" lon="8.49191">
        <ele>1656</ele>
        <time>2021-08-11T11:51:25.364Z</time>
      </trkpt>
      <trkpt lat="46.87509" lon="8.4919">
        <ele>1656</ele>
        <time>2021-08-11T11:51:26.363Z</time>
      </trkpt>
      <trkpt lat="46.8751" lon="8.49189">
        <ele>1656</ele>
        <time>2021-08-11T11:51:27.363Z</time>
      </trkpt>
      <trkpt lat="46.87511" lon="8.49188">
        <ele>1656</ele>
        <time>2021-08-11T11:51:28.364Z</time>
      </trkpt>
      <trkpt lat="46.87512" lon="8.49188">
        <ele>1657</ele>
        <time>2021-08-11T11:51:29.364Z</time>
      </trkpt>
      <trkpt lat="46.87512" lon="8.49187">
        <ele>1657</ele>
        <time>2021-08-11T11:51:31.513Z</time>
      </trkpt>
      <trkpt lat="46.87512" lon="8.49187">
        <ele>1657</ele>
        <time>2021-08-11T11:51:32.513Z</time>
      </trkpt>
      <trkpt lat="46.87512" lon="8.49186">
        <ele>1657</ele>
        <time>2021-08-11T11:51:33.512Z</time>
      </trkpt>
      <trkpt lat="46.87513" lon="8.49185">
        <ele>1657</ele>
        <time>2021-08-11T11:51:34.512Z</time>
      </trkpt>
      <trkpt lat="46.87513" lon="8.49185">
        <ele>1657</ele>
        <time>2021-08-11T11:51:56.657Z</time>
      </trkpt>
      <trkpt lat="46.87513" lon="8.49184">
        <ele>1657</ele>
        <time>2021-08-11T11:51:57.658Z</time>
      </trkpt>
      <trkpt lat="46.87513" lon="8.49184">
        <ele>1657</ele>
        <time>2021-08-11T11:51:58.658Z</time>
      </trkpt>
      <trkpt lat="46.87513" lon="8.49183">
        <ele>1657</ele>
        <time>2021-08-11T11:51:59.658Z</time>
      </trkpt>
      <trkpt lat="46.87514" lon="8.49182">
        <ele>1658</ele>
        <time>2021-08-11T11:52:00.658Z</time>
      </trkpt>
      <trkpt lat="46.87514" lon="8.49181">
        <ele>1658</ele>
        <time>2021-08-11T11:52:01.658Z</time>
      </trkpt>
      <trkpt lat="46.87514" lon="8.49181">
        <ele>1658</ele>
        <time>2021-08-11T11:52:02.658Z</time>
      </trkpt>
      <trkpt lat="46.87515" lon="8.4918">
        <ele>1658</ele>
        <time>2021-08-11T11:52:03.658Z</time>
      </trkpt>
      <trkpt lat="46.87515" lon="8.4918">
        <ele>1658</ele>
        <time>2021-08-11T11:52:05.737Z</time>
      </trkpt>
      <trkpt lat="46.87516" lon="8.49179">
        <ele>1658</ele>
        <time>2021-08-11T11:52:13.628Z</time>
      </trkpt>
      <trkpt lat="46.87516" lon="8.49178">
        <ele>1658</ele>
        <time>2021-08-11T11:52:27.508Z</time>
      </trkpt>
      <trkpt lat="46.87516" lon="8.49178">
        <ele>1658</ele>
        <time>2021-08-11T11:53:15.397Z</time>
      </trkpt>
      <trkpt lat="46.87516" lon="8.49177">
        <ele>1658</ele>
        <time>2021-08-11T11:53:32.371Z</time>
      </trkpt>
      <trkpt lat="46.87516" lon="8.49177">
        <ele>1658</ele>
        <time>2021-08-11T11:53:33.372Z</time>
      </trkpt>
      <trkpt lat="46.87517" lon="8.49176">
        <ele>1658</ele>
        <time>2021-08-11T11:53:34.372Z</time>
      </trkpt>
      <trkpt lat="46.87518" lon="8.49176">
        <ele>1658</ele>
        <time>2021-08-11T11:53:35.372Z</time>
      </trkpt>
      <trkpt lat="46.87518" lon="8.49176">
        <ele>1658</ele>
        <time>2021-08-11T11:53:36.371Z</time>
      </trkpt>
      <trkpt lat="46.87519" lon="8.49175">
        <ele>1658</ele>
        <time>2021-08-11T11:53:37.372Z</time>
      </trkpt>
      <trkpt lat="46.8752" lon="8.49174">
        <ele>1658</ele>
        <time>2021-08-11T11:53:38.372Z</time>
      </trkpt>
      <trkpt lat="46.87521" lon="8.49172">
        <ele>1658</ele>
        <time>2021-08-11T11:53:40.359Z</time>
      </trkpt>
      <trkpt lat="46.87521" lon="8.49172">
        <ele>1658</ele>
        <time>2021-08-11T11:53:41.358Z</time>
      </trkpt>
      <trkpt lat="46.87522" lon="8.4917">
        <ele>1658</ele>
        <time>2021-08-11T11:53:42.359Z</time>
      </trkpt>
      <trkpt lat="46.87523" lon="8.49169">
        <ele>1659</ele>
        <time>2021-08-11T11:53:43.359Z</time>
      </trkpt>
      <trkpt lat="46.87523" lon="8.49168">
        <ele>1659</ele>
        <time>2021-08-11T11:53:46.360Z</time>
      </trkpt>
      <trkpt lat="46.87523" lon="8.49168">
        <ele>1658</ele>
        <time>2021-08-11T11:53:50.271Z</time>
      </trkpt>
      <trkpt lat="46.87523" lon="8.49167">
        <ele>1658</ele>
        <time>2021-08-11T11:53:51.270Z</time>
      </trkpt>
      <trkpt lat="46.87523" lon="8.49167">
        <ele>1658</ele>
        <time>2021-08-11T11:53:52.271Z</time>
      </trkpt>
      <trkpt lat="46.87524" lon="8.49166">
        <ele>1658</ele>
        <time>2021-08-11T11:53:55.359Z</time>
      </trkpt>
      <trkpt lat="46.87524" lon="8.49165">
        <ele>1659</ele>
        <time>2021-08-11T11:53:56.359Z</time>
      </trkpt>
      <trkpt lat="46.87525" lon="8.49165">
        <ele>1659</ele>
        <time>2021-08-11T11:54:01.251Z</time>
      </trkpt>
      <trkpt lat="46.87525" lon="8.49164">
        <ele>1659</ele>
        <time>2021-08-11T11:54:02.251Z</time>
      </trkpt>
      <trkpt lat="46.87525" lon="8.49164">
        <ele>1660</ele>
        <time>2021-08-11T11:54:14.122Z</time>
      </trkpt>
      <trkpt lat="46.87525" lon="8.49164">
        <ele>1660</ele>
        <time>2021-08-11T11:54:15.122Z</time>
      </trkpt>
      <trkpt lat="46.87526" lon="8.49163">
        <ele>1661</ele>
        <time>2021-08-11T11:54:16.122Z</time>
      </trkpt>
      <trkpt lat="46.87526" lon="8.49162">
        <ele>1661</ele>
        <time>2021-08-11T11:54:17.121Z</time>
      </trkpt>
      <trkpt lat="46.87526" lon="8.49162">
        <ele>1662</ele>
        <time>2021-08-11T11:54:19.272Z</time>
      </trkpt>
      <trkpt lat="46.87527" lon="8.49161">
        <ele>1662</ele>
        <time>2021-08-11T11:54:27.272Z</time>
      </trkpt>
      <trkpt lat="46.87527" lon="8.49161">
        <ele>1662</ele>
        <time>2021-08-11T11:54:28.271Z</time>
      </trkpt>
      <trkpt lat="46.87528" lon="8.4916">
        <ele>1663</ele>
        <time>2021-08-11T11:54:29.271Z</time>
      </trkpt>
      <trkpt lat="46.87528" lon="8.4916">
        <ele>1663</ele>
        <time>2021-08-11T11:54:30.271Z</time>
      </trkpt>
      <trkpt lat="46.87528" lon="8.49159">
        <ele>1663</ele>
        <time>2021-08-11T11:54:31.272Z</time>
      </trkpt>
      <trkpt lat="46.87528" lon="8.49159">
        <ele>1663</ele>
        <time>2021-08-11T11:54:32.272Z</time>
      </trkpt>
      <trkpt lat="46.87528" lon="8.4916">
        <ele>1664</ele>
        <time>2021-08-11T11:54:40.371Z</time>
      </trkpt>
      <trkpt lat="46.87528" lon="8.4916">
        <ele>1664</ele>
        <time>2021-08-11T11:54:41.371Z</time>
      </trkpt>
      <trkpt lat="46.87528" lon="8.4916">
        <ele>1664</ele>
        <time>2021-08-11T11:54:42.370Z</time>
      </trkpt>
      <trkpt lat="46.87529" lon="8.4916">
        <ele>1664</ele>
        <time>2021-08-11T11:54:46.493Z</time>
      </trkpt>
      <trkpt lat="46.8753" lon="8.4916">
        <ele>1666</ele>
        <time>2021-08-11T11:54:47.494Z</time>
      </trkpt>
      <trkpt lat="46.87532" lon="8.4916">
        <ele>1666</ele>
        <time>2021-08-11T11:54:48.494Z</time>
      </trkpt>
      <trkpt lat="46.87533" lon="8.4916">
        <ele>1666</ele>
        <time>2021-08-11T11:54:51.603Z</time>
      </trkpt>
      <trkpt lat="46.87535" lon="8.49159">
        <ele>1666</ele>
        <time>2021-08-11T11:54:52.604Z</time>
      </trkpt>
      <trkpt lat="46.87536" lon="8.49158">
        <ele>1667</ele>
        <time>2021-08-11T11:54:53.604Z</time>
      </trkpt>
      <trkpt lat="46.87538" lon="8.49157">
        <ele>1667</ele>
        <time>2021-08-11T11:54:54.604Z</time>
      </trkpt>
      <trkpt lat="46.87538" lon="8.49157">
        <ele>1667</ele>
        <time>2021-08-11T11:54:55.603Z</time>
      </trkpt>
      <trkpt lat="46.87537" lon="8.49156">
        <ele>1667</ele>
        <time>2021-08-11T11:54:56.603Z</time>
      </trkpt>
      <trkpt lat="46.87535" lon="8.49157">
        <ele>1667</ele>
        <time>2021-08-11T11:54:57.604Z</time>
      </trkpt>
      <trkpt lat="46.87534" lon="8.49159">
        <ele>1666</ele>
        <time>2021-08-11T11:54:58.604Z</time>
      </trkpt>
      <trkpt lat="46.87534" lon="8.4916">
        <ele>1666</ele>
        <time>2021-08-11T11:54:59.604Z</time>
      </trkpt>
      <trkpt lat="46.87534" lon="8.4916">
        <ele>1666</ele>
        <time>2021-08-11T11:55:00.603Z</time>
      </trkpt>
      <trkpt lat="46.87534" lon="8.4916">
        <ele>1666</ele>
        <time>2021-08-11T11:55:01.604Z</time>
      </trkpt>
      <trkpt lat="46.87535" lon="8.49159">
        <ele>1665</ele>
        <time>2021-08-11T11:55:02.605Z</time>
      </trkpt>
      <trkpt lat="46.87535" lon="8.49159">
        <ele>1664</ele>
        <time>2021-08-11T11:55:10.744Z</time>
      </trkpt>
      <trkpt lat="46.87535" lon="8.49159">
        <ele>1664</ele>
        <time>2021-08-11T11:55:11.743Z</time>
      </trkpt>
      <trkpt lat="46.87535" lon="8.49159">
        <ele>1664</ele>
        <time>2021-08-11T11:55:12.744Z</time>
      </trkpt>
      <trkpt lat="46.87535" lon="8.49159">
        <ele>1663</ele>
        <time>2021-08-11T11:55:13.743Z</time>
      </trkpt>
      <trkpt lat="46.87536" lon="8.49158">
        <ele>1663</ele>
        <time>2021-08-11T11:55:14.744Z</time>
      </trkpt>
      <trkpt lat="46.87536" lon="8.49158">
        <ele>1663</ele>
        <time>2021-08-11T11:55:15.744Z</time>
      </trkpt>
      <trkpt lat="46.87536" lon="8.49159">
        <ele>1663</ele>
        <time>2021-08-11T11:55:16.743Z</time>
      </trkpt>
      <trkpt lat="46.87537" lon="8.4916">
        <ele>1663</ele>
        <time>2021-08-11T11:55:17.744Z</time>
      </trkpt>
      <trkpt lat="46.87537" lon="8.4916">
        <ele>1664</ele>
        <time>2021-08-11T11:55:20.874Z</time>
      </trkpt>
      <trkpt lat="46.87538" lon="8.4916">
        <ele>1664</ele>
        <time>2021-08-11T11:55:21.873Z</time>
      </trkpt>
      <trkpt lat="46.87536" lon="8.49161">
        <ele>1664</ele>
        <time>2021-08-11T11:55:22.874Z</time>
      </trkpt>
      <trkpt lat="46.87536" lon="8.4916">
        <ele>1664</ele>
        <time>2021-08-11T11:55:23.874Z</time>
      </trkpt>
      <trkpt lat="46.87537" lon="8.4916">
        <ele>1664</ele>
        <time>2021-08-11T11:55:24.873Z</time>
      </trkpt>
      <trkpt lat="46.87537" lon="8.4916">
        <ele>1664</ele>
        <time>2021-08-11T11:55:25.873Z</time>
      </trkpt>
      <trkpt lat="46.87537" lon="8.4916">
        <ele>1664</ele>
        <time>2021-08-11T11:55:26.873Z</time>
      </trkpt>
      <trkpt lat="46.87536" lon="8.49161">
        <ele>1664</ele>
        <time>2021-08-11T11:55:27.874Z</time>
      </trkpt>
      <trkpt lat="46.87535" lon="8.49162">
        <ele>1664</ele>
        <time>2021-08-11T11:55:28.874Z</time>
      </trkpt>
      <trkpt lat="46.87535" lon="8.49162">
        <ele>1664</ele>
        <time>2021-08-11T11:55:29.874Z</time>
      </trkpt>
      <trkpt lat="46.87536" lon="8.49162">
        <ele>1664</ele>
        <time>2021-08-11T11:55:38.015Z</time>
      </trkpt>
      <trkpt lat="46.87536" lon="8.49162">
        <ele>1663</ele>
        <time>2021-08-11T11:55:39.014Z</time>
      </trkpt>
      <trkpt lat="46.87536" lon="8.49161">
        <ele>1663</ele>
        <time>2021-08-11T11:55:40.015Z</time>
      </trkpt>
      <trkpt lat="46.87536" lon="8.49161">
        <ele>1663</ele>
        <time>2021-08-11T11:55:41.015Z</time>
      </trkpt>
      <trkpt lat="46.87536" lon="8.49162">
        <ele>1663</ele>
        <time>2021-08-11T11:55:42.015Z</time>
      </trkpt>
      <trkpt lat="46.87536" lon="8.49162">
        <ele>1662</ele>
        <time>2021-08-11T11:55:43.015Z</time>
      </trkpt>
      <trkpt lat="46.87537" lon="8.49161">
        <ele>1662</ele>
        <time>2021-08-11T11:55:44.015Z</time>
      </trkpt>
      <trkpt lat="46.87538" lon="8.4916">
        <ele>1662</ele>
        <time>2021-08-11T11:55:45.014Z</time>
      </trkpt>
      <trkpt lat="46.8754" lon="8.49158">
        <ele>1662</ele>
        <time>2021-08-11T11:55:46.014Z</time>
      </trkpt>
      <trkpt lat="46.8754" lon="8.49157">
        <ele>1662</ele>
        <time>2021-08-11T11:55:47.015Z</time>
      </trkpt>
      <trkpt lat="46.87541" lon="8.49157">
        <ele>1662</ele>
        <time>2021-08-11T11:55:48.015Z</time>
      </trkpt>
      <trkpt lat="46.87542" lon="8.49157">
        <ele>1662</ele>
        <time>2021-08-11T11:55:49.014Z</time>
      </trkpt>
      <trkpt lat="46.87542" lon="8.49156">
        <ele>1662</ele>
        <time>2021-08-11T11:55:50.015Z</time>
      </trkpt>
      <trkpt lat="46.87542" lon="8.49156">
        <ele>1662</ele>
        <time>2021-08-11T11:55:51.015Z</time>
      </trkpt>
      <trkpt lat="46.87542" lon="8.49154">
        <ele>1662</ele>
        <time>2021-08-11T11:55:52.014Z</time>
      </trkpt>
      <trkpt lat="46.87542" lon="8.49153">
        <ele>1662</ele>
        <time>2021-08-11T11:55:53.015Z</time>
      </trkpt>
      <trkpt lat="46.87542" lon="8.49153">
        <ele>1662</ele>
        <time>2021-08-11T11:55:54.015Z</time>
      </trkpt>
      <trkpt lat="46.87543" lon="8.49153">
        <ele>1662</ele>
        <time>2021-08-11T11:55:55.015Z</time>
      </trkpt>
      <trkpt lat="46.87543" lon="8.49152">
        <ele>1662</ele>
        <time>2021-08-11T11:55:56.015Z</time>
      </trkpt>
      <trkpt lat="46.87543" lon="8.49151">
        <ele>1662</ele>
        <time>2021-08-11T11:55:57.015Z</time>
      </trkpt>
      <trkpt lat="46.87543" lon="8.4915">
        <ele>1662</ele>
        <time>2021-08-11T11:55:58.015Z</time>
      </trkpt>
      <trkpt lat="46.87543" lon="8.49148">
        <ele>1662</ele>
        <time>2021-08-11T11:55:59.015Z</time>
      </trkpt>
      <trkpt lat="46.87543" lon="8.49146">
        <ele>1662</ele>
        <time>2021-08-11T11:56:00.015Z</time>
      </trkpt>
      <trkpt lat="46.87543" lon="8.49145">
        <ele>1662</ele>
        <time>2021-08-11T11:56:01.015Z</time>
      </trkpt>
      <trkpt lat="46.87543" lon="8.49145">
        <ele>1662</ele>
        <time>2021-08-11T11:56:02.015Z</time>
      </trkpt>
      <trkpt lat="46.87543" lon="8.49144">
        <ele>1662</ele>
        <time>2021-08-11T11:56:03.014Z</time>
      </trkpt>
      <trkpt lat="46.87543" lon="8.49143">
        <ele>1663</ele>
        <time>2021-08-11T11:56:04.015Z</time>
      </trkpt>
      <trkpt lat="46.87543" lon="8.49141">
        <ele>1663</ele>
        <time>2021-08-11T11:56:05.015Z</time>
      </trkpt>
      <trkpt lat="46.87542" lon="8.49141">
        <ele>1663</ele>
        <time>2021-08-11T11:56:06.014Z</time>
      </trkpt>
      <trkpt lat="46.87541" lon="8.4914">
        <ele>1664</ele>
        <time>2021-08-11T11:56:07.014Z</time>
      </trkpt>
      <trkpt lat="46.8754" lon="8.49141">
        <ele>1664</ele>
        <time>2021-08-11T11:56:08.014Z</time>
      </trkpt>
      <trkpt lat="46.8754" lon="8.49141">
        <ele>1665</ele>
        <time>2021-08-11T11:56:09.014Z</time>
      </trkpt>
      <trkpt lat="46.8754" lon="8.4914">
        <ele>1665</ele>
        <time>2021-08-11T11:56:10.015Z</time>
      </trkpt>
      <trkpt lat="46.8754" lon="8.49139">
        <ele>1665</ele>
        <time>2021-08-11T11:56:11.015Z</time>
      </trkpt>
      <trkpt lat="46.87539" lon="8.49138">
        <ele>1666</ele>
        <time>2021-08-11T11:56:12.014Z</time>
      </trkpt>
      <trkpt lat="46.87539" lon="8.49137">
        <ele>1666</ele>
        <time>2021-08-11T11:56:13.015Z</time>
      </trkpt>
      <trkpt lat="46.87539" lon="8.49136">
        <ele>1666</ele>
        <time>2021-08-11T11:56:14.015Z</time>
      </trkpt>
      <trkpt lat="46.87538" lon="8.49136">
        <ele>1666</ele>
        <time>2021-08-11T11:56:15.015Z</time>
      </trkpt>
      <trkpt lat="46.87538" lon="8.49135">
        <ele>1666</ele>
        <time>2021-08-11T11:56:16.015Z</time>
      </trkpt>
      <trkpt lat="46.87538" lon="8.49134">
        <ele>1666</ele>
        <time>2021-08-11T11:56:17.015Z</time>
      </trkpt>
      <trkpt lat="46.87538" lon="8.49133">
        <ele>1666</ele>
        <time>2021-08-11T11:56:18.015Z</time>
      </trkpt>
      <trkpt lat="46.87538" lon="8.49132">
        <ele>1666</ele>
        <time>2021-08-11T11:56:19.015Z</time>
      </trkpt>
      <trkpt lat="46.87537" lon="8.49132">
        <ele>1666</ele>
        <time>2021-08-11T11:56:20.015Z</time>
      </trkpt>
      <trkpt lat="46.87537" lon="8.49131">
        <ele>1666</ele>
        <time>2021-08-11T11:56:21.014Z</time>
      </trkpt>
      <trkpt lat="46.87536" lon="8.49131">
        <ele>1666</ele>
        <time>2021-08-11T11:56:22.014Z</time>
      </trkpt>
      <trkpt lat="46.87536" lon="8.4913">
        <ele>1666</ele>
        <time>2021-08-11T11:56:23.015Z</time>
      </trkpt>
      <trkpt lat="46.87536" lon="8.49129">
        <ele>1667</ele>
        <time>2021-08-11T11:56:24.014Z</time>
      </trkpt>
      <trkpt lat="46.87536" lon="8.49128">
        <ele>1667</ele>
        <time>2021-08-11T11:56:25.015Z</time>
      </trkpt>
      <trkpt lat="46.87536" lon="8.49126">
        <ele>1667</ele>
        <time>2021-08-11T11:56:26.015Z</time>
      </trkpt>
      <trkpt lat="46.87535" lon="8.49125">
        <ele>1667</ele>
        <time>2021-08-11T11:56:27.014Z</time>
      </trkpt>
      <trkpt lat="46.87534" lon="8.49124">
        <ele>1667</ele>
        <time>2021-08-11T11:56:28.015Z</time>
      </trkpt>
      <trkpt lat="46.87534" lon="8.49122">
        <ele>1667</ele>
        <time>2021-08-11T11:56:29.015Z</time>
      </trkpt>
      <trkpt lat="46.87534" lon="8.49121">
        <ele>1667</ele>
        <time>2021-08-11T11:56:30.014Z</time>
      </trkpt>
      <trkpt lat="46.87533" lon="8.49122">
        <ele>1667</ele>
        <time>2021-08-11T11:56:55.114Z</time>
      </trkpt>
      <trkpt lat="46.8753" lon="8.49124">
        <ele>1667</ele>
        <time>2021-08-11T11:56:56.114Z</time>
      </trkpt>
      <trkpt lat="46.87528" lon="8.49127">
        <ele>1666</ele>
        <time>2021-08-11T11:56:57.113Z</time>
      </trkpt>
      <trkpt lat="46.87527" lon="8.49128">
        <ele>1666</ele>
        <time>2021-08-11T11:56:58.114Z</time>
      </trkpt>
      <trkpt lat="46.87526" lon="8.49128">
        <ele>1666</ele>
        <time>2021-08-11T11:56:59.114Z</time>
      </trkpt>
      <trkpt lat="46.87525" lon="8.49128">
        <ele>1666</ele>
        <time>2021-08-11T11:57:22.265Z</time>
      </trkpt>
      <trkpt lat="46.87525" lon="8.49127">
        <ele>1666</ele>
        <time>2021-08-11T11:57:23.265Z</time>
      </trkpt>
      <trkpt lat="46.87524" lon="8.49127">
        <ele>1666</ele>
        <time>2021-08-11T11:57:24.265Z</time>
      </trkpt>
      <trkpt lat="46.87523" lon="8.49127">
        <ele>1666</ele>
        <time>2021-08-11T11:57:25.266Z</time>
      </trkpt>
      <trkpt lat="46.87523" lon="8.49127">
        <ele>1666</ele>
        <time>2021-08-11T11:57:26.265Z</time>
      </trkpt>
      <trkpt lat="46.87522" lon="8.49127">
        <ele>1666</ele>
        <time>2021-08-11T11:57:27.266Z</time>
      </trkpt>
      <trkpt lat="46.87521" lon="8.49128">
        <ele>1666</ele>
        <time>2021-08-11T11:57:28.266Z</time>
      </trkpt>
      <trkpt lat="46.87521" lon="8.49128">
        <ele>1666</ele>
        <time>2021-08-11T11:57:29.265Z</time>
      </trkpt>
      <trkpt lat="46.87519" lon="8.49128">
        <ele>1666</ele>
        <time>2021-08-11T11:57:30.266Z</time>
      </trkpt>
      <trkpt lat="46.87518" lon="8.49128">
        <ele>1666</ele>
        <time>2021-08-11T11:57:31.266Z</time>
      </trkpt>
      <trkpt lat="46.87518" lon="8.49127">
        <ele>1666</ele>
        <time>2021-08-11T11:57:32.265Z</time>
      </trkpt>
      <trkpt lat="46.87517" lon="8.49127">
        <ele>1667</ele>
        <time>2021-08-11T11:57:33.266Z</time>
      </trkpt>
      <trkpt lat="46.87516" lon="8.49127">
        <ele>1667</ele>
        <time>2021-08-11T11:57:34.266Z</time>
      </trkpt>
      <trkpt lat="46.87515" lon="8.49128">
        <ele>1667</ele>
        <time>2021-08-11T11:57:35.265Z</time>
      </trkpt>
      <trkpt lat="46.87513" lon="8.49128">
        <ele>1667</ele>
        <time>2021-08-11T11:57:36.266Z</time>
      </trkpt>
      <trkpt lat="46.87513" lon="8.49128">
        <ele>1667</ele>
        <time>2021-08-11T11:57:44.365Z</time>
      </trkpt>
      <trkpt lat="46.87512" lon="8.49128">
        <ele>1667</ele>
        <time>2021-08-11T11:57:46.230Z</time>
      </trkpt>
      <trkpt lat="46.87511" lon="8.49128">
        <ele>1667</ele>
        <time>2021-08-11T11:57:47.230Z</time>
      </trkpt>
      <trkpt lat="46.8751" lon="8.49128">
        <ele>1667</ele>
        <time>2021-08-11T11:57:48.230Z</time>
      </trkpt>
      <trkpt lat="46.8751" lon="8.49127">
        <ele>1667</ele>
        <time>2021-08-11T11:57:51.351Z</time>
      </trkpt>
      <trkpt lat="46.87509" lon="8.49126">
        <ele>1667</ele>
        <time>2021-08-11T11:57:52.351Z</time>
      </trkpt>
      <trkpt lat="46.87509" lon="8.49124">
        <ele>1667</ele>
        <time>2021-08-11T11:57:53.352Z</time>
      </trkpt>
      <trkpt lat="46.87509" lon="8.49124">
        <ele>1667</ele>
        <time>2021-08-11T11:57:54.351Z</time>
      </trkpt>
      <trkpt lat="46.87508" lon="8.49124">
        <ele>1667</ele>
        <time>2021-08-11T11:57:55.352Z</time>
      </trkpt>
      <trkpt lat="46.87508" lon="8.49125">
        <ele>1667</ele>
        <time>2021-08-11T11:57:56.352Z</time>
      </trkpt>
      <trkpt lat="46.87507" lon="8.49125">
        <ele>1667</ele>
        <time>2021-08-11T11:57:57.351Z</time>
      </trkpt>
      <trkpt lat="46.87506" lon="8.49125">
        <ele>1668</ele>
        <time>2021-08-11T11:57:58.352Z</time>
      </trkpt>
      <trkpt lat="46.87505" lon="8.49125">
        <ele>1668</ele>
        <time>2021-08-11T11:57:59.352Z</time>
      </trkpt>
      <trkpt lat="46.87505" lon="8.49125">
        <ele>1668</ele>
        <time>2021-08-11T11:58:00.351Z</time>
      </trkpt>
      <trkpt lat="46.87504" lon="8.49125">
        <ele>1668</ele>
        <time>2021-08-11T11:58:03.349Z</time>
      </trkpt>
      <trkpt lat="46.87503" lon="8.49125">
        <ele>1668</ele>
        <time>2021-08-11T11:58:04.349Z</time>
      </trkpt>
      <trkpt lat="46.87503" lon="8.49125">
        <ele>1669</ele>
        <time>2021-08-11T11:58:05.348Z</time>
      </trkpt>
      <trkpt lat="46.87502" lon="8.49126">
        <ele>1669</ele>
        <time>2021-08-11T11:58:06.349Z</time>
      </trkpt>
      <trkpt lat="46.87501" lon="8.49125">
        <ele>1669</ele>
        <time>2021-08-11T11:58:07.349Z</time>
      </trkpt>
      <trkpt lat="46.87501" lon="8.49125">
        <ele>1669</ele>
        <time>2021-08-11T11:58:08.349Z</time>
      </trkpt>
      <trkpt lat="46.87501" lon="8.49124">
        <ele>1669</ele>
        <time>2021-08-11T11:58:09.349Z</time>
      </trkpt>
      <trkpt lat="46.87501" lon="8.49124">
        <ele>1670</ele>
        <time>2021-08-11T11:58:10.349Z</time>
      </trkpt>
      <trkpt lat="46.87501" lon="8.49123">
        <ele>1670</ele>
        <time>2021-08-11T11:58:11.348Z</time>
      </trkpt>
      <trkpt lat="46.875" lon="8.49124">
        <ele>1671</ele>
        <time>2021-08-11T11:58:12.349Z</time>
      </trkpt>
      <trkpt lat="46.875" lon="8.49124">
        <ele>1671</ele>
        <time>2021-08-11T11:58:13.349Z</time>
      </trkpt>
      <trkpt lat="46.87499" lon="8.49125">
        <ele>1671</ele>
        <time>2021-08-11T11:58:14.348Z</time>
      </trkpt>
      <trkpt lat="46.875" lon="8.49124">
        <ele>1672</ele>
        <time>2021-08-11T11:58:15.349Z</time>
      </trkpt>
      <trkpt lat="46.87498" lon="8.49125">
        <ele>1672</ele>
        <time>2021-08-11T11:58:16.348Z</time>
      </trkpt>
      <trkpt lat="46.87498" lon="8.49126">
        <ele>1672</ele>
        <time>2021-08-11T11:58:17.348Z</time>
      </trkpt>
      <trkpt lat="46.87497" lon="8.49126">
        <ele>1672</ele>
        <time>2021-08-11T11:58:18.349Z</time>
      </trkpt>
      <trkpt lat="46.87497" lon="8.49127">
        <ele>1673</ele>
        <time>2021-08-11T11:58:19.349Z</time>
      </trkpt>
      <trkpt lat="46.87496" lon="8.49127">
        <ele>1673</ele>
        <time>2021-08-11T11:58:20.349Z</time>
      </trkpt>
      <trkpt lat="46.87495" lon="8.49127">
        <ele>1673</ele>
        <time>2021-08-11T11:58:26.384Z</time>
      </trkpt>
      <trkpt lat="46.87495" lon="8.49127">
        <ele>1673</ele>
        <time>2021-08-11T11:58:36.393Z</time>
      </trkpt>
      <trkpt lat="46.87494" lon="8.49128">
        <ele>1673</ele>
        <time>2021-08-11T11:58:37.392Z</time>
      </trkpt>
      <trkpt lat="46.87494" lon="8.49128">
        <ele>1674</ele>
        <time>2021-08-11T11:58:38.393Z</time>
      </trkpt>
      <trkpt lat="46.87494" lon="8.49128">
        <ele>1674</ele>
        <time>2021-08-11T11:58:39.393Z</time>
      </trkpt>
      <trkpt lat="46.87493" lon="8.49129">
        <ele>1674</ele>
        <time>2021-08-11T11:58:40.392Z</time>
      </trkpt>
      <trkpt lat="46.87492" lon="8.49128">
        <ele>1674</ele>
        <time>2021-08-11T11:58:41.393Z</time>
      </trkpt>
      <trkpt lat="46.87492" lon="8.49128">
        <ele>1674</ele>
        <time>2021-08-11T11:58:42.393Z</time>
      </trkpt>
      <trkpt lat="46.8749" lon="8.49128">
        <ele>1673</ele>
        <time>2021-08-11T11:58:43.392Z</time>
      </trkpt>
      <trkpt lat="46.87489" lon="8.49128">
        <ele>1673</ele>
        <time>2021-08-11T11:58:44.393Z</time>
      </trkpt>
      <trkpt lat="46.87488" lon="8.49128">
        <ele>1673</ele>
        <time>2021-08-11T11:58:45.393Z</time>
      </trkpt>
      <trkpt lat="46.87487" lon="8.49128">
        <ele>1672</ele>
        <time>2021-08-11T11:58:46.392Z</time>
      </trkpt>
      <trkpt lat="46.87487" lon="8.49129">
        <ele>1672</ele>
        <time>2021-08-11T11:58:47.393Z</time>
      </trkpt>
      <trkpt lat="46.87487" lon="8.49129">
        <ele>1672</ele>
        <time>2021-08-11T11:58:48.393Z</time>
      </trkpt>
      <trkpt lat="46.87486" lon="8.49129">
        <ele>1671</ele>
        <time>2021-08-11T11:58:49.392Z</time>
      </trkpt>
      <trkpt lat="46.87486" lon="8.49128">
        <ele>1671</ele>
        <time>2021-08-11T11:58:50.393Z</time>
      </trkpt>
      <trkpt lat="46.87485" lon="8.49129">
        <ele>1672</ele>
        <time>2021-08-11T11:58:51.393Z</time>
      </trkpt>
      <trkpt lat="46.87485" lon="8.49129">
        <ele>1672</ele>
        <time>2021-08-11T11:58:52.392Z</time>
      </trkpt>
      <trkpt lat="46.87484" lon="8.49128">
        <ele>1672</ele>
        <time>2021-08-11T11:58:53.392Z</time>
      </trkpt>
      <trkpt lat="46.87483" lon="8.49129">
        <ele>1672</ele>
        <time>2021-08-11T11:58:54.392Z</time>
      </trkpt>
      <trkpt lat="46.87483" lon="8.49129">
        <ele>1673</ele>
        <time>2021-08-11T11:58:55.392Z</time>
      </trkpt>
      <trkpt lat="46.87482" lon="8.4913">
        <ele>1673</ele>
        <time>2021-08-11T11:58:56.393Z</time>
      </trkpt>
      <trkpt lat="46.87482" lon="8.49131">
        <ele>1673</ele>
        <time>2021-08-11T11:58:57.392Z</time>
      </trkpt>
      <trkpt lat="46.87482" lon="8.49132">
        <ele>1673</ele>
        <time>2021-08-11T11:58:58.393Z</time>
      </trkpt>
      <trkpt lat="46.87481" lon="8.49132">
        <ele>1674</ele>
        <time>2021-08-11T11:58:59.393Z</time>
      </trkpt>
      <trkpt lat="46.87481" lon="8.49132">
        <ele>1674</ele>
        <time>2021-08-11T11:59:00.392Z</time>
      </trkpt>
      <trkpt lat="46.8748" lon="8.49133">
        <ele>1674</ele>
        <time>2021-08-11T11:59:20.511Z</time>
      </trkpt>
      <trkpt lat="46.87479" lon="8.49134">
        <ele>1674</ele>
        <time>2021-08-11T11:59:21.511Z</time>
      </trkpt>
      <trkpt lat="46.87476" lon="8.49136">
        <ele>1672</ele>
        <time>2021-08-11T11:59:22.511Z</time>
      </trkpt>
      <trkpt lat="46.87478" lon="8.49136">
        <ele>1672</ele>
        <time>2021-08-11T11:59:23.511Z</time>
      </trkpt>
      <trkpt lat="46.87478" lon="8.49136">
        <ele>1673</ele>
        <time>2021-08-11T11:59:24.510Z</time>
      </trkpt>
      <trkpt lat="46.87479" lon="8.49136">
        <ele>1673</ele>
        <time>2021-08-11T11:59:25.511Z</time>
      </trkpt>
      <trkpt lat="46.8748" lon="8.49136">
        <ele>1673</ele>
        <time>2021-08-11T11:59:26.510Z</time>
      </trkpt>
      <trkpt lat="46.8748" lon="8.49137">
        <ele>1674</ele>
        <time>2021-08-11T11:59:27.510Z</time>
      </trkpt>
      <trkpt lat="46.8748" lon="8.49137">
        <ele>1674</ele>
        <time>2021-08-11T11:59:28.510Z</time>
      </trkpt>
      <trkpt lat="46.8748" lon="8.49138">
        <ele>1676</ele>
        <time>2021-08-11T11:59:30.510Z</time>
      </trkpt>
      <trkpt lat="46.87481" lon="8.4914">
        <ele>1677</ele>
        <time>2021-08-11T11:59:38.510Z</time>
      </trkpt>
      <trkpt lat="46.8748" lon="8.4914">
        <ele>1678</ele>
        <time>2021-08-11T11:59:39.510Z</time>
      </trkpt>
      <trkpt lat="46.8748" lon="8.4914">
        <ele>1678</ele>
        <time>2021-08-11T11:59:40.511Z</time>
      </trkpt>
      <trkpt lat="46.87479" lon="8.49139">
        <ele>1679</ele>
        <time>2021-08-11T11:59:41.511Z</time>
      </trkpt>
      <trkpt lat="46.87478" lon="8.49138">
        <ele>1680</ele>
        <time>2021-08-11T11:59:42.510Z</time>
      </trkpt>
      <trkpt lat="46.87477" lon="8.49138">
        <ele>1680</ele>
        <time>2021-08-11T11:59:43.510Z</time>
      </trkpt>
      <trkpt lat="46.87476" lon="8.49138">
        <ele>1681</ele>
        <time>2021-08-11T11:59:44.511Z</time>
      </trkpt>
      <trkpt lat="46.87476" lon="8.49137">
        <ele>1682</ele>
        <time>2021-08-11T11:59:45.511Z</time>
      </trkpt>
      <trkpt lat="46.87476" lon="8.49137">
        <ele>1682</ele>
        <time>2021-08-11T11:59:46.511Z</time>
      </trkpt>
      <trkpt lat="46.87475" lon="8.49137">
        <ele>1683</ele>
        <time>2021-08-11T11:59:47.510Z</time>
      </trkpt>
      <trkpt lat="46.87474" lon="8.49138">
        <ele>1684</ele>
        <time>2021-08-11T11:59:48.512Z</time>
      </trkpt>
      <trkpt lat="46.87473" lon="8.4914">
        <ele>1684</ele>
        <time>2021-08-11T11:59:49.512Z</time>
      </trkpt>
      <trkpt lat="46.87473" lon="8.49141">
        <ele>1684</ele>
        <time>2021-08-11T11:59:50.511Z</time>
      </trkpt>
      <trkpt lat="46.87472" lon="8.49143">
        <ele>1684</ele>
        <time>2021-08-11T11:59:52.597Z</time>
      </trkpt>
      <trkpt lat="46.87472" lon="8.49144">
        <ele>1685</ele>
        <time>2021-08-11T11:59:53.596Z</time>
      </trkpt>
      <trkpt lat="46.87472" lon="8.49145">
        <ele>1685</ele>
        <time>2021-08-11T11:59:54.597Z</time>
      </trkpt>
      <trkpt lat="46.8747" lon="8.49146">
        <ele>1685</ele>
        <time>2021-08-11T11:59:55.597Z</time>
      </trkpt>
      <trkpt lat="46.8747" lon="8.49146">
        <ele>1684</ele>
        <time>2021-08-11T11:59:56.597Z</time>
      </trkpt>
      <trkpt lat="46.87469" lon="8.49145">
        <ele>1684</ele>
        <time>2021-08-11T11:59:57.597Z</time>
      </trkpt>
      <trkpt lat="46.87469" lon="8.49145">
        <ele>1684</ele>
        <time>2021-08-11T11:59:58.597Z</time>
      </trkpt>
      <trkpt lat="46.87469" lon="8.49145">
        <ele>1684</ele>
        <time>2021-08-11T11:59:59.596Z</time>
      </trkpt>
      <trkpt lat="46.87469" lon="8.49146">
        <ele>1684</ele>
        <time>2021-08-11T12:00:00.597Z</time>
      </trkpt>
      <trkpt lat="46.87468" lon="8.49147">
        <ele>1684</ele>
        <time>2021-08-11T12:00:01.597Z</time>
      </trkpt>
      <trkpt lat="46.87468" lon="8.49148">
        <ele>1683</ele>
        <time>2021-08-11T12:00:02.597Z</time>
      </trkpt>
      <trkpt lat="46.87468" lon="8.49148">
        <ele>1683</ele>
        <time>2021-08-11T12:00:03.597Z</time>
      </trkpt>
      <trkpt lat="46.87467" lon="8.49146">
        <ele>1683</ele>
        <time>2021-08-11T12:00:04.597Z</time>
      </trkpt>
      <trkpt lat="46.87467" lon="8.49146">
        <ele>1683</ele>
        <time>2021-08-11T12:00:05.596Z</time>
      </trkpt>
      <trkpt lat="46.87467" lon="8.49145">
        <ele>1683</ele>
        <time>2021-08-11T12:00:06.596Z</time>
      </trkpt>
      <trkpt lat="46.87468" lon="8.49142">
        <ele>1684</ele>
        <time>2021-08-11T12:00:07.597Z</time>
      </trkpt>
      <trkpt lat="46.87468" lon="8.4914">
        <ele>1684</ele>
        <time>2021-08-11T12:00:08.597Z</time>
      </trkpt>
      <trkpt lat="46.8747" lon="8.49137">
        <ele>1684</ele>
        <time>2021-08-11T12:00:09.597Z</time>
      </trkpt>
      <trkpt lat="46.8747" lon="8.49136">
        <ele>1684</ele>
        <time>2021-08-11T12:00:14.776Z</time>
      </trkpt>
      <trkpt lat="46.87471" lon="8.49135">
        <ele>1685</ele>
        <time>2021-08-11T12:00:15.776Z</time>
      </trkpt>
      <trkpt lat="46.87471" lon="8.49134">
        <ele>1685</ele>
        <time>2021-08-11T12:00:16.776Z</time>
      </trkpt>
      <trkpt lat="46.87471" lon="8.49134">
        <ele>1686</ele>
        <time>2021-08-11T12:00:22.886Z</time>
      </trkpt>
      <trkpt lat="46.8747" lon="8.49136">
        <ele>1686</ele>
        <time>2021-08-11T12:00:23.886Z</time>
      </trkpt>
      <trkpt lat="46.87469" lon="8.49137">
        <ele>1685</ele>
        <time>2021-08-11T12:00:24.886Z</time>
      </trkpt>
      <trkpt lat="46.87469" lon="8.49137">
        <ele>1685</ele>
        <time>2021-08-11T12:00:25.886Z</time>
      </trkpt>
      <trkpt lat="46.87467" lon="8.49138">
        <ele>1685</ele>
        <time>2021-08-11T12:00:27.972Z</time>
      </trkpt>
      <trkpt lat="46.87466" lon="8.4914">
        <ele>1685</ele>
        <time>2021-08-11T12:00:28.972Z</time>
      </trkpt>
      <trkpt lat="46.87465" lon="8.49141">
        <ele>1685</ele>
        <time>2021-08-11T12:00:29.973Z</time>
      </trkpt>
      <trkpt lat="46.87463" lon="8.49142">
        <ele>1684</ele>
        <time>2021-08-11T12:00:30.973Z</time>
      </trkpt>
      <trkpt lat="46.87462" lon="8.49143">
        <ele>1684</ele>
        <time>2021-08-11T12:00:31.973Z</time>
      </trkpt>
      <trkpt lat="46.87461" lon="8.49145">
        <ele>1684</ele>
        <time>2021-08-11T12:00:34.099Z</time>
      </trkpt>
      <trkpt lat="46.87461" lon="8.49146">
        <ele>1684</ele>
        <time>2021-08-11T12:00:35.098Z</time>
      </trkpt>
      <trkpt lat="46.8746" lon="8.49145">
        <ele>1684</ele>
        <time>2021-08-11T12:00:36.099Z</time>
      </trkpt>
      <trkpt lat="46.87459" lon="8.49144">
        <ele>1684</ele>
        <time>2021-08-11T12:00:58.133Z</time>
      </trkpt>
      <trkpt lat="46.87458" lon="8.49144">
        <ele>1684</ele>
        <time>2021-08-11T12:00:59.133Z</time>
      </trkpt>
      <trkpt lat="46.87457" lon="8.49143">
        <ele>1684</ele>
        <time>2021-08-11T12:01:00.133Z</time>
      </trkpt>
      <trkpt lat="46.87455" lon="8.49142">
        <ele>1684</ele>
        <time>2021-08-11T12:01:05.987Z</time>
      </trkpt>
      <trkpt lat="46.87454" lon="8.4914">
        <ele>1683</ele>
        <time>2021-08-11T12:01:06.988Z</time>
      </trkpt>
      <trkpt lat="46.87453" lon="8.49139">
        <ele>1683</ele>
        <time>2021-08-11T12:01:20.109Z</time>
      </trkpt>
      <trkpt lat="46.87452" lon="8.49138">
        <ele>1683</ele>
        <time>2021-08-11T12:01:21.109Z</time>
      </trkpt>
      <trkpt lat="46.87452" lon="8.49138">
        <ele>1682</ele>
        <time>2021-08-11T12:01:22.108Z</time>
      </trkpt>
      <trkpt lat="46.87452" lon="8.49138">
        <ele>1682</ele>
        <time>2021-08-11T12:01:23.109Z</time>
      </trkpt>
      <trkpt lat="46.87453" lon="8.49138">
        <ele>1682</ele>
        <time>2021-08-11T12:01:24.109Z</time>
      </trkpt>
      <trkpt lat="46.87453" lon="8.49138">
        <ele>1683</ele>
        <time>2021-08-11T12:01:25.109Z</time>
      </trkpt>
      <trkpt lat="46.87454" lon="8.49137">
        <ele>1683</ele>
        <time>2021-08-11T12:01:30.235Z</time>
      </trkpt>
      <trkpt lat="46.87455" lon="8.49137">
        <ele>1683</ele>
        <time>2021-08-11T12:01:39.136Z</time>
      </trkpt>
      <trkpt lat="46.87455" lon="8.49136">
        <ele>1683</ele>
        <time>2021-08-11T12:01:40.135Z</time>
      </trkpt>
      <trkpt lat="46.87456" lon="8.49135">
        <ele>1684</ele>
        <time>2021-08-11T12:01:41.136Z</time>
      </trkpt>
      <trkpt lat="46.87456" lon="8.49135">
        <ele>1684</ele>
        <time>2021-08-11T12:01:49.255Z</time>
      </trkpt>
      <trkpt lat="46.87457" lon="8.49134">
        <ele>1684</ele>
        <time>2021-08-11T12:01:50.254Z</time>
      </trkpt>
      <trkpt lat="46.87457" lon="8.49134">
        <ele>1684</ele>
        <time>2021-08-11T12:01:51.255Z</time>
      </trkpt>
      <trkpt lat="46.87457" lon="8.49134">
        <ele>1684</ele>
        <time>2021-08-11T12:01:52.254Z</time>
      </trkpt>
      <trkpt lat="46.87459" lon="8.49131">
        <ele>1685</ele>
        <time>2021-08-11T12:02:23.378Z</time>
      </trkpt>
      <trkpt lat="46.87461" lon="8.49129">
        <ele>1685</ele>
        <time>2021-08-11T12:02:24.378Z</time>
      </trkpt>
      <trkpt lat="46.87461" lon="8.49128">
        <ele>1685</ele>
        <time>2021-08-11T12:02:25.378Z</time>
      </trkpt>
      <trkpt lat="46.87461" lon="8.49128">
        <ele>1685</ele>
        <time>2021-08-11T12:02:31.484Z</time>
      </trkpt>
      <trkpt lat="46.87462" lon="8.49128">
        <ele>1686</ele>
        <time>2021-08-11T12:02:32.484Z</time>
      </trkpt>
      <trkpt lat="46.87463" lon="8.49127">
        <ele>1686</ele>
        <time>2021-08-11T12:02:33.484Z</time>
      </trkpt>
      <trkpt lat="46.87463" lon="8.49127">
        <ele>1686</ele>
        <time>2021-08-11T12:02:34.484Z</time>
      </trkpt>
      <trkpt lat="46.87463" lon="8.49127">
        <ele>1686</ele>
        <time>2021-08-11T12:02:35.483Z</time>
      </trkpt>
      <trkpt lat="46.87463" lon="8.49128">
        <ele>1686</ele>
        <time>2021-08-11T12:02:51.486Z</time>
      </trkpt>
      <trkpt lat="46.87463" lon="8.49127">
        <ele>1686</ele>
        <time>2021-08-11T12:02:52.487Z</time>
      </trkpt>
      <trkpt lat="46.87463" lon="8.49126">
        <ele>1686</ele>
        <time>2021-08-11T12:02:53.487Z</time>
      </trkpt>
      <trkpt lat="46.87463" lon="8.49126">
        <ele>1686</ele>
        <time>2021-08-11T12:02:54.486Z</time>
      </trkpt>
      <trkpt lat="46.87462" lon="8.49125">
        <ele>1686</ele>
        <time>2021-08-11T12:02:55.487Z</time>
      </trkpt>
      <trkpt lat="46.87463" lon="8.49126">
        <ele>1686</ele>
        <time>2021-08-11T12:02:56.487Z</time>
      </trkpt>
      <trkpt lat="46.87463" lon="8.49125">
        <ele>1685</ele>
        <time>2021-08-11T12:02:57.487Z</time>
      </trkpt>
      <trkpt lat="46.87463" lon="8.49125">
        <ele>1685</ele>
        <time>2021-08-11T12:03:01.650Z</time>
      </trkpt>
      <trkpt lat="46.87462" lon="8.49127">
        <ele>1685</ele>
        <time>2021-08-11T12:03:02.649Z</time>
      </trkpt>
      <trkpt lat="46.87461" lon="8.49127">
        <ele>1685</ele>
        <time>2021-08-11T12:03:03.650Z</time>
      </trkpt>
      <trkpt lat="46.87461" lon="8.49128">
        <ele>1685</ele>
        <time>2021-08-11T12:03:26.731Z</time>
      </trkpt>
      <trkpt lat="46.87462" lon="8.49129">
        <ele>1685</ele>
        <time>2021-08-11T12:03:27.731Z</time>
      </trkpt>
      <trkpt lat="46.87462" lon="8.4913">
        <ele>1686</ele>
        <time>2021-08-11T12:03:28.731Z</time>
      </trkpt>
      <trkpt lat="46.87462" lon="8.4913">
        <ele>1687</ele>
        <time>2021-08-11T12:03:29.731Z</time>
      </trkpt>
      <trkpt lat="46.87462" lon="8.4913">
        <ele>1687</ele>
        <time>2021-08-11T12:03:30.730Z</time>
      </trkpt>
      <trkpt lat="46.8746" lon="8.49129">
        <ele>1685</ele>
        <time>2021-08-11T12:03:31.732Z</time>
      </trkpt>
      <trkpt lat="46.8746" lon="8.49128">
        <ele>1684</ele>
        <time>2021-08-11T12:03:32.732Z</time>
      </trkpt>
      <trkpt lat="46.8746" lon="8.49129">
        <ele>1683</ele>
        <time>2021-08-11T12:03:35.843Z</time>
      </trkpt>
      <trkpt lat="46.8746" lon="8.49129">
        <ele>1683</ele>
        <time>2021-08-11T12:03:36.843Z</time>
      </trkpt>
      <trkpt lat="46.87459" lon="8.49129">
        <ele>1682</ele>
        <time>2021-08-11T12:03:37.843Z</time>
      </trkpt>
      <trkpt lat="46.87459" lon="8.49129">
        <ele>1681</ele>
        <time>2021-08-11T12:03:38.843Z</time>
      </trkpt>
      <trkpt lat="46.87459" lon="8.49128">
        <ele>1680</ele>
        <time>2021-08-11T12:03:39.844Z</time>
      </trkpt>
      <trkpt lat="46.87458" lon="8.49128">
        <ele>1680</ele>
        <time>2021-08-11T12:03:40.844Z</time>
      </trkpt>
      <trkpt lat="46.87458" lon="8.49128">
        <ele>1680</ele>
        <time>2021-08-11T12:03:41.843Z</time>
      </trkpt>
      <trkpt lat="46.87458" lon="8.49128">
        <ele>1679</ele>
        <time>2021-08-11T12:03:51.983Z</time>
      </trkpt>
      <trkpt lat="46.87458" lon="8.49128">
        <ele>1679</ele>
        <time>2021-08-11T12:03:52.984Z</time>
      </trkpt>
      <trkpt lat="46.87458" lon="8.49128">
        <ele>1679</ele>
        <time>2021-08-11T12:03:53.983Z</time>
      </trkpt>
      <trkpt lat="46.87457" lon="8.49128">
        <ele>1684</ele>
        <time>2021-08-11T12:03:54.985Z</time>
      </trkpt>
      <trkpt lat="46.87455" lon="8.49131">
        <ele>1685</ele>
        <time>2021-08-11T12:03:55.984Z</time>
      </trkpt>
      <trkpt lat="46.87455" lon="8.49132">
        <ele>1686</ele>
        <time>2021-08-11T12:03:56.985Z</time>
      </trkpt>
      <trkpt lat="46.87454" lon="8.49133">
        <ele>1686</ele>
        <time>2021-08-11T12:03:57.984Z</time>
      </trkpt>
      <trkpt lat="46.87454" lon="8.49133">
        <ele>1686</ele>
        <time>2021-08-11T12:03:58.985Z</time>
      </trkpt>
      <trkpt lat="46.87455" lon="8.49134">
        <ele>1686</ele>
        <time>2021-08-11T12:03:59.984Z</time>
      </trkpt>
      <trkpt lat="46.87455" lon="8.49134">
        <ele>1687</ele>
        <time>2021-08-11T12:04:00.984Z</time>
      </trkpt>
      <trkpt lat="46.87454" lon="8.49135">
        <ele>1687</ele>
        <time>2021-08-11T12:04:01.985Z</time>
      </trkpt>
      <trkpt lat="46.87454" lon="8.49135">
        <ele>1686</ele>
        <time>2021-08-11T12:04:04.136Z</time>
      </trkpt>
      <trkpt lat="46.87453" lon="8.49134">
        <ele>1685</ele>
        <time>2021-08-11T12:04:05.135Z</time>
      </trkpt>
      <trkpt lat="46.87452" lon="8.49133">
        <ele>1684</ele>
        <time>2021-08-11T12:04:06.135Z</time>
      </trkpt>
      <trkpt lat="46.87451" lon="8.49133">
        <ele>1683</ele>
        <time>2021-08-11T12:04:07.136Z</time>
      </trkpt>
      <trkpt lat="46.87451" lon="8.49133">
        <ele>1682</ele>
        <time>2021-08-11T12:04:17.232Z</time>
      </trkpt>
      <trkpt lat="46.87451" lon="8.49133">
        <ele>1681</ele>
        <time>2021-08-11T12:04:18.233Z</time>
      </trkpt>
      <trkpt lat="46.87451" lon="8.49131">
        <ele>1678</ele>
        <time>2021-08-11T12:04:19.234Z</time>
      </trkpt>
      <trkpt lat="46.87452" lon="8.49131">
        <ele>1678</ele>
        <time>2021-08-11T12:04:20.235Z</time>
      </trkpt>
      <trkpt lat="46.87452" lon="8.49131">
        <ele>1678</ele>
        <time>2021-08-11T12:04:21.234Z</time>
      </trkpt>
      <trkpt lat="46.87452" lon="8.4913">
        <ele>1677</ele>
        <time>2021-08-11T12:04:22.236Z</time>
      </trkpt>
      <trkpt lat="46.8745" lon="8.49131">
        <ele>1679</ele>
        <time>2021-08-11T12:04:23.235Z</time>
      </trkpt>
      <trkpt lat="46.8745" lon="8.49131">
        <ele>1679</ele>
        <time>2021-08-11T12:04:24.235Z</time>
      </trkpt>
      <trkpt lat="46.87451" lon="8.49131">
        <ele>1680</ele>
        <time>2021-08-11T12:04:25.235Z</time>
      </trkpt>
      <trkpt lat="46.87451" lon="8.4913">
        <ele>1681</ele>
        <time>2021-08-11T12:04:26.235Z</time>
      </trkpt>
      <trkpt lat="46.87453" lon="8.49128">
        <ele>1681</ele>
        <time>2021-08-11T12:04:27.235Z</time>
      </trkpt>
      <trkpt lat="46.87453" lon="8.49128">
        <ele>1680</ele>
        <time>2021-08-11T12:04:28.236Z</time>
      </trkpt>
      <trkpt lat="46.87453" lon="8.49127">
        <ele>1680</ele>
        <time>2021-08-11T12:04:29.235Z</time>
      </trkpt>
      <trkpt lat="46.87452" lon="8.49127">
        <ele>1680</ele>
        <time>2021-08-11T12:04:30.236Z</time>
      </trkpt>
      <trkpt lat="46.87452" lon="8.49125">
        <ele>1676</ele>
        <time>2021-08-11T12:04:33.346Z</time>
      </trkpt>
      <trkpt lat="46.87452" lon="8.49126">
        <ele>1676</ele>
        <time>2021-08-11T12:04:34.347Z</time>
      </trkpt>
      <trkpt lat="46.87451" lon="8.49126">
        <ele>1675</ele>
        <time>2021-08-11T12:04:35.347Z</time>
      </trkpt>
      <trkpt lat="46.87451" lon="8.49126">
        <ele>1675</ele>
        <time>2021-08-11T12:04:36.347Z</time>
      </trkpt>
      <trkpt lat="46.8745" lon="8.49126">
        <ele>1674</ele>
        <time>2021-08-11T12:04:37.347Z</time>
      </trkpt>
      <trkpt lat="46.87451" lon="8.49128">
        <ele>1675</ele>
        <time>2021-08-11T12:04:38.348Z</time>
      </trkpt>
      <trkpt lat="46.87451" lon="8.49128">
        <ele>1675</ele>
        <time>2021-08-11T12:04:39.348Z</time>
      </trkpt>
      <trkpt lat="46.87451" lon="8.49129">
        <ele>1675</ele>
        <time>2021-08-11T12:04:40.347Z</time>
      </trkpt>
      <trkpt lat="46.87451" lon="8.49129">
        <ele>1675</ele>
        <time>2021-08-11T12:04:41.348Z</time>
      </trkpt>
      <trkpt lat="46.87452" lon="8.49129">
        <ele>1676</ele>
        <time>2021-08-11T12:04:46.485Z</time>
      </trkpt>
      <trkpt lat="46.87457" lon="8.49128">
        <ele>1688</ele>
        <time>2021-08-11T12:04:47.487Z</time>
      </trkpt>
      <trkpt lat="46.87458" lon="8.49128">
        <ele>1688</ele>
        <time>2021-08-11T12:04:48.486Z</time>
      </trkpt>
      <trkpt lat="46.87458" lon="8.49128">
        <ele>1689</ele>
        <time>2021-08-11T12:04:49.486Z</time>
      </trkpt>
      <trkpt lat="46.87462" lon="8.49127">
        <ele>1690</ele>
        <time>2021-08-11T12:04:50.487Z</time>
      </trkpt>
      <trkpt lat="46.87463" lon="8.49125">
        <ele>1690</ele>
        <time>2021-08-11T12:04:51.487Z</time>
      </trkpt>
      <trkpt lat="46.87463" lon="8.49124">
        <ele>1690</ele>
        <time>2021-08-11T12:04:52.487Z</time>
      </trkpt>
      <trkpt lat="46.87463" lon="8.49123">
        <ele>1690</ele>
        <time>2021-08-11T12:04:53.487Z</time>
      </trkpt>
      <trkpt lat="46.87464" lon="8.49123">
        <ele>1690</ele>
        <time>2021-08-11T12:04:54.488Z</time>
      </trkpt>
      <trkpt lat="46.87466" lon="8.49123">
        <ele>1690</ele>
        <time>2021-08-11T12:04:55.488Z</time>
      </trkpt>
      <trkpt lat="46.87467" lon="8.49123">
        <ele>1690</ele>
        <time>2021-08-11T12:04:56.488Z</time>
      </trkpt>
      <trkpt lat="46.87467" lon="8.49122">
        <ele>1691</ele>
        <time>2021-08-11T12:04:57.487Z</time>
      </trkpt>
      <trkpt lat="46.87468" lon="8.49121">
        <ele>1691</ele>
        <time>2021-08-11T12:05:02.612Z</time>
      </trkpt>
      <trkpt lat="46.87468" lon="8.49121">
        <ele>1692</ele>
        <time>2021-08-11T12:05:03.612Z</time>
      </trkpt>
      <trkpt lat="46.87469" lon="8.4912">
        <ele>1692</ele>
        <time>2021-08-11T12:05:04.612Z</time>
      </trkpt>
      <trkpt lat="46.87469" lon="8.4912">
        <ele>1692</ele>
        <time>2021-08-11T12:05:08.735Z</time>
      </trkpt>
      <trkpt lat="46.87469" lon="8.49119">
        <ele>1692</ele>
        <time>2021-08-11T12:05:09.735Z</time>
      </trkpt>
      <trkpt lat="46.8747" lon="8.49119">
        <ele>1692</ele>
        <time>2021-08-11T12:05:10.736Z</time>
      </trkpt>
      <trkpt lat="46.87471" lon="8.49118">
        <ele>1693</ele>
        <time>2021-08-11T12:05:11.736Z</time>
      </trkpt>
      <trkpt lat="46.87471" lon="8.49118">
        <ele>1693</ele>
        <time>2021-08-11T12:05:12.735Z</time>
      </trkpt>
      <trkpt lat="46.87472" lon="8.49117">
        <ele>1694</ele>
        <time>2021-08-11T12:05:13.736Z</time>
      </trkpt>
      <trkpt lat="46.87472" lon="8.49116">
        <ele>1694</ele>
        <time>2021-08-11T12:05:14.735Z</time>
      </trkpt>
      <trkpt lat="46.87472" lon="8.49116">
        <ele>1694</ele>
        <time>2021-08-11T12:05:15.736Z</time>
      </trkpt>
      <trkpt lat="46.87473" lon="8.49115">
        <ele>1694</ele>
        <time>2021-08-11T12:05:16.735Z</time>
      </trkpt>
      <trkpt lat="46.87473" lon="8.49115">
        <ele>1693</ele>
        <time>2021-08-11T12:05:20.881Z</time>
      </trkpt>
      <trkpt lat="46.87472" lon="8.49114">
        <ele>1693</ele>
        <time>2021-08-11T12:05:21.881Z</time>
      </trkpt>
      <trkpt lat="46.87472" lon="8.49113">
        <ele>1693</ele>
        <time>2021-08-11T12:05:22.880Z</time>
      </trkpt>
      <trkpt lat="46.87473" lon="8.49113">
        <ele>1693</ele>
        <time>2021-08-11T12:05:23.880Z</time>
      </trkpt>
      <trkpt lat="46.87474" lon="8.49112">
        <ele>1693</ele>
        <time>2021-08-11T12:05:24.881Z</time>
      </trkpt>
      <trkpt lat="46.87474" lon="8.49112">
        <ele>1693</ele>
        <time>2021-08-11T12:05:25.881Z</time>
      </trkpt>
      <trkpt lat="46.87474" lon="8.49111">
        <ele>1694</ele>
        <time>2021-08-11T12:05:26.881Z</time>
      </trkpt>
      <trkpt lat="46.87475" lon="8.4911">
        <ele>1694</ele>
        <time>2021-08-11T12:05:27.880Z</time>
      </trkpt>
      <trkpt lat="46.87476" lon="8.49109">
        <ele>1695</ele>
        <time>2021-08-11T12:05:28.880Z</time>
      </trkpt>
      <trkpt lat="46.87477" lon="8.49109">
        <ele>1695</ele>
        <time>2021-08-11T12:05:29.881Z</time>
      </trkpt>
      <trkpt lat="46.87478" lon="8.49108">
        <ele>1696</ele>
        <time>2021-08-11T12:05:30.881Z</time>
      </trkpt>
      <trkpt lat="46.87479" lon="8.49107">
        <ele>1697</ele>
        <time>2021-08-11T12:05:31.881Z</time>
      </trkpt>
      <trkpt lat="46.87479" lon="8.49107">
        <ele>1697</ele>
        <time>2021-08-11T12:05:32.880Z</time>
      </trkpt>
      <trkpt lat="46.8748" lon="8.49106">
        <ele>1698</ele>
        <time>2021-08-11T12:05:33.880Z</time>
      </trkpt>
      <trkpt lat="46.87481" lon="8.49105">
        <ele>1698</ele>
        <time>2021-08-11T12:05:34.881Z</time>
      </trkpt>
      <trkpt lat="46.87482" lon="8.49104">
        <ele>1699</ele>
        <time>2021-08-11T12:05:35.880Z</time>
      </trkpt>
      <trkpt lat="46.87482" lon="8.49103">
        <ele>1699</ele>
        <time>2021-08-11T12:05:36.881Z</time>
      </trkpt>
      <trkpt lat="46.87482" lon="8.49102">
        <ele>1699</ele>
        <time>2021-08-11T12:05:37.881Z</time>
      </trkpt>
      <trkpt lat="46.87482" lon="8.49102">
        <ele>1699</ele>
        <time>2021-08-11T12:05:38.880Z</time>
      </trkpt>
      <trkpt lat="46.87482" lon="8.49101">
        <ele>1699</ele>
        <time>2021-08-11T12:05:39.881Z</time>
      </trkpt>
      <trkpt lat="46.87482" lon="8.49101">
        <ele>1698</ele>
        <time>2021-08-11T12:05:40.881Z</time>
      </trkpt>
      <trkpt lat="46.87481" lon="8.491">
        <ele>1698</ele>
        <time>2021-08-11T12:05:41.881Z</time>
      </trkpt>
      <trkpt lat="46.87481" lon="8.49099">
        <ele>1698</ele>
        <time>2021-08-11T12:05:54.990Z</time>
      </trkpt>
      <trkpt lat="46.8748" lon="8.49098">
        <ele>1697</ele>
        <time>2021-08-11T12:05:55.989Z</time>
      </trkpt>
      <trkpt lat="46.8748" lon="8.49098">
        <ele>1696</ele>
        <time>2021-08-11T12:05:56.990Z</time>
      </trkpt>
      <trkpt lat="46.87479" lon="8.49097">
        <ele>1696</ele>
        <time>2021-08-11T12:05:57.989Z</time>
      </trkpt>
      <trkpt lat="46.8748" lon="8.49097">
        <ele>1695</ele>
        <time>2021-08-11T12:05:58.990Z</time>
      </trkpt>
      <trkpt lat="46.87481" lon="8.49097">
        <ele>1695</ele>
        <time>2021-08-11T12:05:59.990Z</time>
      </trkpt>
      <trkpt lat="46.87481" lon="8.49096">
        <ele>1695</ele>
        <time>2021-08-11T12:06:00.990Z</time>
      </trkpt>
      <trkpt lat="46.87482" lon="8.49096">
        <ele>1695</ele>
        <time>2021-08-11T12:06:01.990Z</time>
      </trkpt>
      <trkpt lat="46.87483" lon="8.49095">
        <ele>1695</ele>
        <time>2021-08-11T12:06:02.990Z</time>
      </trkpt>
      <trkpt lat="46.87483" lon="8.49095">
        <ele>1694</ele>
        <time>2021-08-11T12:06:03.990Z</time>
      </trkpt>
      <trkpt lat="46.87483" lon="8.49094">
        <ele>1694</ele>
        <time>2021-08-11T12:06:04.989Z</time>
      </trkpt>
      <trkpt lat="46.87483" lon="8.49094">
        <ele>1693</ele>
        <time>2021-08-11T12:06:05.990Z</time>
      </trkpt>
      <trkpt lat="46.87482" lon="8.49093">
        <ele>1693</ele>
        <time>2021-08-11T12:06:06.989Z</time>
      </trkpt>
      <trkpt lat="46.87482" lon="8.49093">
        <ele>1693</ele>
        <time>2021-08-11T12:06:40.010Z</time>
      </trkpt>
      <trkpt lat="46.87482" lon="8.49093">
        <ele>1693</ele>
        <time>2021-08-11T12:06:44.864Z</time>
      </trkpt>
      <trkpt lat="46.87482" lon="8.49092">
        <ele>1693</ele>
        <time>2021-08-11T12:06:45.863Z</time>
      </trkpt>
      <trkpt lat="46.87482" lon="8.49091">
        <ele>1692</ele>
        <time>2021-08-11T12:06:53.614Z</time>
      </trkpt>
      <trkpt lat="46.87482" lon="8.49091">
        <ele>1692</ele>
        <time>2021-08-11T12:06:54.613Z</time>
      </trkpt>
      <trkpt lat="46.87482" lon="8.4909">
        <ele>1692</ele>
        <time>2021-08-11T12:06:55.614Z</time>
      </trkpt>
      <trkpt lat="46.87482" lon="8.49089">
        <ele>1692</ele>
        <time>2021-08-11T12:06:56.613Z</time>
      </trkpt>
      <trkpt lat="46.87483" lon="8.49089">
        <ele>1692</ele>
        <time>2021-08-11T12:06:57.613Z</time>
      </trkpt>
      <trkpt lat="46.87483" lon="8.49089">
        <ele>1693</ele>
        <time>2021-08-11T12:06:58.613Z</time>
      </trkpt>
      <trkpt lat="46.87484" lon="8.49089">
        <ele>1693</ele>
        <time>2021-08-11T12:07:05.738Z</time>
      </trkpt>
      <trkpt lat="46.87484" lon="8.49088">
        <ele>1694</ele>
        <time>2021-08-11T12:07:06.738Z</time>
      </trkpt>
      <trkpt lat="46.87484" lon="8.49087">
        <ele>1694</ele>
        <time>2021-08-11T12:07:07.738Z</time>
      </trkpt>
      <trkpt lat="46.87485" lon="8.49086">
        <ele>1695</ele>
        <time>2021-08-11T12:07:14.870Z</time>
      </trkpt>
      <trkpt lat="46.87485" lon="8.49085">
        <ele>1696</ele>
        <time>2021-08-11T12:07:15.871Z</time>
      </trkpt>
      <trkpt lat="46.87485" lon="8.49085">
        <ele>1696</ele>
        <time>2021-08-11T12:07:18.599Z</time>
      </trkpt>
      <trkpt lat="46.87486" lon="8.49085">
        <ele>1697</ele>
        <time>2021-08-11T12:07:19.598Z</time>
      </trkpt>
      <trkpt lat="46.87486" lon="8.49085">
        <ele>1697</ele>
        <time>2021-08-11T12:07:20.599Z</time>
      </trkpt>
      <trkpt lat="46.87486" lon="8.49085">
        <ele>1697</ele>
        <time>2021-08-11T12:07:21.598Z</time>
      </trkpt>
      <trkpt lat="46.87487" lon="8.49084">
        <ele>1698</ele>
        <time>2021-08-11T12:07:22.599Z</time>
      </trkpt>
      <trkpt lat="46.87487" lon="8.49084">
        <ele>1698</ele>
        <time>2021-08-11T12:07:23.599Z</time>
      </trkpt>
      <trkpt lat="46.87487" lon="8.49084">
        <ele>1698</ele>
        <time>2021-08-11T12:07:25.613Z</time>
      </trkpt>
      <trkpt lat="46.87488" lon="8.49083">
        <ele>1698</ele>
        <time>2021-08-11T12:07:26.612Z</time>
      </trkpt>
      <trkpt lat="46.87488" lon="8.49083">
        <ele>1698</ele>
        <time>2021-08-11T12:07:27.613Z</time>
      </trkpt>
      <trkpt lat="46.87488" lon="8.49082">
        <ele>1698</ele>
        <time>2021-08-11T12:07:28.613Z</time>
      </trkpt>
      <trkpt lat="46.87489" lon="8.49082">
        <ele>1698</ele>
        <time>2021-08-11T12:07:29.613Z</time>
      </trkpt>
      <trkpt lat="46.8749" lon="8.49081">
        <ele>1698</ele>
        <time>2021-08-11T12:07:30.613Z</time>
      </trkpt>
      <trkpt lat="46.8749" lon="8.49081">
        <ele>1698</ele>
        <time>2021-08-11T12:07:31.612Z</time>
      </trkpt>
      <trkpt lat="46.87491" lon="8.49081">
        <ele>1698</ele>
        <time>2021-08-11T12:07:32.613Z</time>
      </trkpt>
      <trkpt lat="46.87492" lon="8.4908">
        <ele>1698</ele>
        <time>2021-08-11T12:07:33.613Z</time>
      </trkpt>
      <trkpt lat="46.87492" lon="8.49079">
        <ele>1698</ele>
        <time>2021-08-11T12:07:34.612Z</time>
      </trkpt>
      <trkpt lat="46.87493" lon="8.49078">
        <ele>1698</ele>
        <time>2021-08-11T12:07:35.612Z</time>
      </trkpt>
      <trkpt lat="46.87494" lon="8.49078">
        <ele>1698</ele>
        <time>2021-08-11T12:07:36.612Z</time>
      </trkpt>
      <trkpt lat="46.87495" lon="8.49077">
        <ele>1699</ele>
        <time>2021-08-11T12:07:38.738Z</time>
      </trkpt>
      <trkpt lat="46.87496" lon="8.49077">
        <ele>1699</ele>
        <time>2021-08-11T12:07:39.739Z</time>
      </trkpt>
      <trkpt lat="46.87498" lon="8.49077">
        <ele>1700</ele>
        <time>2021-08-11T12:07:40.739Z</time>
      </trkpt>
      <trkpt lat="46.87498" lon="8.49076">
        <ele>1700</ele>
        <time>2021-08-11T12:07:41.739Z</time>
      </trkpt>
      <trkpt lat="46.87498" lon="8.49075">
        <ele>1700</ele>
        <time>2021-08-11T12:07:42.738Z</time>
      </trkpt>
      <trkpt lat="46.87498" lon="8.49074">
        <ele>1700</ele>
        <time>2021-08-11T12:07:43.739Z</time>
      </trkpt>
      <trkpt lat="46.87497" lon="8.49072">
        <ele>1701</ele>
        <time>2021-08-11T12:07:44.739Z</time>
      </trkpt>
      <trkpt lat="46.87497" lon="8.4907">
        <ele>1701</ele>
        <time>2021-08-11T12:07:45.739Z</time>
      </trkpt>
      <trkpt lat="46.87497" lon="8.4907">
        <ele>1701</ele>
        <time>2021-08-11T12:07:46.739Z</time>
      </trkpt>
      <trkpt lat="46.87497" lon="8.49068">
        <ele>1702</ele>
        <time>2021-08-11T12:07:47.738Z</time>
      </trkpt>
      <trkpt lat="46.87497" lon="8.49067">
        <ele>1702</ele>
        <time>2021-08-11T12:07:48.739Z</time>
      </trkpt>
      <trkpt lat="46.87497" lon="8.49067">
        <ele>1702</ele>
        <time>2021-08-11T12:07:49.739Z</time>
      </trkpt>
      <trkpt lat="46.87498" lon="8.49066">
        <ele>1702</ele>
        <time>2021-08-11T12:07:50.738Z</time>
      </trkpt>
      <trkpt lat="46.87498" lon="8.49066">
        <ele>1703</ele>
        <time>2021-08-11T12:07:51.739Z</time>
      </trkpt>
      <trkpt lat="46.87499" lon="8.49065">
        <ele>1703</ele>
        <time>2021-08-11T12:07:52.739Z</time>
      </trkpt>
      <trkpt lat="46.87499" lon="8.49065">
        <ele>1703</ele>
        <time>2021-08-11T12:07:53.739Z</time>
      </trkpt>
      <trkpt lat="46.87499" lon="8.49064">
        <ele>1703</ele>
        <time>2021-08-11T12:07:54.739Z</time>
      </trkpt>
      <trkpt lat="46.875" lon="8.49064">
        <ele>1704</ele>
        <time>2021-08-11T12:07:55.739Z</time>
      </trkpt>
      <trkpt lat="46.875" lon="8.49063">
        <ele>1704</ele>
        <time>2021-08-11T12:07:56.739Z</time>
      </trkpt>
      <trkpt lat="46.87501" lon="8.49063">
        <ele>1705</ele>
        <time>2021-08-11T12:08:02.857Z</time>
      </trkpt>
      <trkpt lat="46.87501" lon="8.49062">
        <ele>1705</ele>
        <time>2021-08-11T12:08:03.856Z</time>
      </trkpt>
      <trkpt lat="46.87502" lon="8.49061">
        <ele>1706</ele>
        <time>2021-08-11T12:08:04.857Z</time>
      </trkpt>
      <trkpt lat="46.87502" lon="8.4906">
        <ele>1706</ele>
        <time>2021-08-11T12:08:05.857Z</time>
      </trkpt>
      <trkpt lat="46.87502" lon="8.49059">
        <ele>1707</ele>
        <time>2021-08-11T12:08:06.857Z</time>
      </trkpt>
      <trkpt lat="46.87503" lon="8.49059">
        <ele>1707</ele>
        <time>2021-08-11T12:08:07.857Z</time>
      </trkpt>
      <trkpt lat="46.87503" lon="8.49058">
        <ele>1707</ele>
        <time>2021-08-11T12:08:08.857Z</time>
      </trkpt>
      <trkpt lat="46.87503" lon="8.49057">
        <ele>1708</ele>
        <time>2021-08-11T12:08:09.857Z</time>
      </trkpt>
      <trkpt lat="46.875" lon="8.4905">
        <ele>1715</ele>
        <time>2021-08-11T12:08:15.895Z</time>
      </trkpt>
      <trkpt lat="46.87501" lon="8.4905">
        <ele>1715</ele>
        <time>2021-08-11T12:08:16.895Z</time>
      </trkpt>
      <trkpt lat="46.87501" lon="8.49046">
        <ele>1719</ele>
        <time>2021-08-11T12:08:17.895Z</time>
      </trkpt>
      <trkpt lat="46.87501" lon="8.49046">
        <ele>1720</ele>
        <time>2021-08-11T12:08:34.997Z</time>
      </trkpt>
      <trkpt lat="46.87502" lon="8.49046">
        <ele>1720</ele>
        <time>2021-08-11T12:08:35.996Z</time>
      </trkpt>
      <trkpt lat="46.87502" lon="8.49046">
        <ele>1720</ele>
        <time>2021-08-11T12:08:56.875Z</time>
      </trkpt>
      <trkpt lat="46.87502" lon="8.49047">
        <ele>1719</ele>
        <time>2021-08-11T12:08:57.876Z</time>
      </trkpt>
      <trkpt lat="46.87503" lon="8.49047">
        <ele>1719</ele>
        <time>2021-08-11T12:08:58.875Z</time>
      </trkpt>
      <trkpt lat="46.87503" lon="8.49047">
        <ele>1718</ele>
        <time>2021-08-11T12:09:04.874Z</time>
      </trkpt>
      <trkpt lat="46.87503" lon="8.49046">
        <ele>1718</ele>
        <time>2021-08-11T12:09:05.873Z</time>
      </trkpt>
      <trkpt lat="46.87502" lon="8.49046">
        <ele>1717</ele>
        <time>2021-08-11T12:09:06.873Z</time>
      </trkpt>
      <trkpt lat="46.87502" lon="8.49046">
        <ele>1717</ele>
        <time>2021-08-11T12:09:07.873Z</time>
      </trkpt>
      <trkpt lat="46.87502" lon="8.49045">
        <ele>1716</ele>
        <time>2021-08-11T12:09:08.874Z</time>
      </trkpt>
      <trkpt lat="46.87503" lon="8.49045">
        <ele>1716</ele>
        <time>2021-08-11T12:09:12.877Z</time>
      </trkpt>
      <trkpt lat="46.87503" lon="8.49045">
        <ele>1716</ele>
        <time>2021-08-11T12:09:13.877Z</time>
      </trkpt>
      <trkpt lat="46.87504" lon="8.49044">
        <ele>1716</ele>
        <time>2021-08-11T12:09:14.877Z</time>
      </trkpt>
      <trkpt lat="46.87504" lon="8.49044">
        <ele>1716</ele>
        <time>2021-08-11T12:09:38.880Z</time>
      </trkpt>
      <trkpt lat="46.87504" lon="8.49045">
        <ele>1716</ele>
        <time>2021-08-11T12:09:39.879Z</time>
      </trkpt>
      <trkpt lat="46.87505" lon="8.49044">
        <ele>1716</ele>
        <time>2021-08-11T12:09:40.879Z</time>
      </trkpt>
      <trkpt lat="46.87505" lon="8.49045">
        <ele>1716</ele>
        <time>2021-08-11T12:09:41.880Z</time>
      </trkpt>
      <trkpt lat="46.87505" lon="8.49045">
        <ele>1716</ele>
        <time>2021-08-11T12:09:42.880Z</time>
      </trkpt>
      <trkpt lat="46.87505" lon="8.49045">
        <ele>1715</ele>
        <time>2021-08-11T12:09:49.898Z</time>
      </trkpt>
      <trkpt lat="46.87505" lon="8.49046">
        <ele>1712</ele>
        <time>2021-08-11T12:09:50.900Z</time>
      </trkpt>
      <trkpt lat="46.87506" lon="8.49047">
        <ele>1712</ele>
        <time>2021-08-11T12:09:51.900Z</time>
      </trkpt>
      <trkpt lat="46.87506" lon="8.49047">
        <ele>1711</ele>
        <time>2021-08-11T12:09:52.899Z</time>
      </trkpt>
      <trkpt lat="46.87506" lon="8.49048">
        <ele>1710</ele>
        <time>2021-08-11T12:09:53.900Z</time>
      </trkpt>
      <trkpt lat="46.87507" lon="8.49048">
        <ele>1709</ele>
        <time>2021-08-11T12:09:54.900Z</time>
      </trkpt>
      <trkpt lat="46.87507" lon="8.49048">
        <ele>1709</ele>
        <time>2021-08-11T12:09:55.900Z</time>
      </trkpt>
      <trkpt lat="46.87507" lon="8.49048">
        <ele>1709</ele>
        <time>2021-08-11T12:09:56.900Z</time>
      </trkpt>
      <trkpt lat="46.87508" lon="8.49049">
        <ele>1709</ele>
        <time>2021-08-11T12:09:57.899Z</time>
      </trkpt>
      <trkpt lat="46.87508" lon="8.49049">
        <ele>1709</ele>
        <time>2021-08-11T12:09:58.899Z</time>
      </trkpt>
      <trkpt lat="46.87508" lon="8.49049">
        <ele>1708</ele>
        <time>2021-08-11T12:09:59.900Z</time>
      </trkpt>
      <trkpt lat="46.87509" lon="8.49049">
        <ele>1708</ele>
        <time>2021-08-11T12:10:00.900Z</time>
      </trkpt>
      <trkpt lat="46.8751" lon="8.4905">
        <ele>1708</ele>
        <time>2021-08-11T12:10:01.900Z</time>
      </trkpt>
      <trkpt lat="46.8751" lon="8.4905">
        <ele>1708</ele>
        <time>2021-08-11T12:10:02.900Z</time>
      </trkpt>
      <trkpt lat="46.8751" lon="8.49049">
        <ele>1708</ele>
        <time>2021-08-11T12:10:03.899Z</time>
      </trkpt>
      <trkpt lat="46.8751" lon="8.49048">
        <ele>1709</ele>
        <time>2021-08-11T12:10:04.900Z</time>
      </trkpt>
      <trkpt lat="46.8751" lon="8.49048">
        <ele>1710</ele>
        <time>2021-08-11T12:10:05.899Z</time>
      </trkpt>
      <trkpt lat="46.87511" lon="8.49047">
        <ele>1710</ele>
        <time>2021-08-11T12:10:06.900Z</time>
      </trkpt>
      <trkpt lat="46.87512" lon="8.49047">
        <ele>1711</ele>
        <time>2021-08-11T12:10:07.900Z</time>
      </trkpt>
      <trkpt lat="46.87512" lon="8.49047">
        <ele>1712</ele>
        <time>2021-08-11T12:10:08.900Z</time>
      </trkpt>
      <trkpt lat="46.87513" lon="8.49046">
        <ele>1712</ele>
        <time>2021-08-11T12:10:09.900Z</time>
      </trkpt>
      <trkpt lat="46.87513" lon="8.49046">
        <ele>1712</ele>
        <time>2021-08-11T12:10:10.899Z</time>
      </trkpt>
      <trkpt lat="46.87513" lon="8.49045">
        <ele>1713</ele>
        <time>2021-08-11T12:10:11.900Z</time>
      </trkpt>
      <trkpt lat="46.87514" lon="8.49045">
        <ele>1713</ele>
        <time>2021-08-11T12:10:12.900Z</time>
      </trkpt>
      <trkpt lat="46.87514" lon="8.49044">
        <ele>1714</ele>
        <time>2021-08-11T12:10:13.900Z</time>
      </trkpt>
      <trkpt lat="46.87515" lon="8.49044">
        <ele>1714</ele>
        <time>2021-08-11T12:10:14.900Z</time>
      </trkpt>
      <trkpt lat="46.87516" lon="8.49044">
        <ele>1714</ele>
        <time>2021-08-11T12:10:15.899Z</time>
      </trkpt>
      <trkpt lat="46.87517" lon="8.49043">
        <ele>1714</ele>
        <time>2021-08-11T12:10:16.899Z</time>
      </trkpt>
      <trkpt lat="46.87517" lon="8.49042">
        <ele>1715</ele>
        <time>2021-08-11T12:10:17.900Z</time>
      </trkpt>
      <trkpt lat="46.87518" lon="8.49041">
        <ele>1715</ele>
        <time>2021-08-11T12:10:18.900Z</time>
      </trkpt>
      <trkpt lat="46.87518" lon="8.49041">
        <ele>1715</ele>
        <time>2021-08-11T12:10:19.899Z</time>
      </trkpt>
      <trkpt lat="46.87519" lon="8.49041">
        <ele>1715</ele>
        <time>2021-08-11T12:10:20.899Z</time>
      </trkpt>
      <trkpt lat="46.87519" lon="8.49041">
        <ele>1716</ele>
        <time>2021-08-11T12:10:21.900Z</time>
      </trkpt>
      <trkpt lat="46.8752" lon="8.49041">
        <ele>1716</ele>
        <time>2021-08-11T12:10:22.900Z</time>
      </trkpt>
      <trkpt lat="46.8752" lon="8.49041">
        <ele>1716</ele>
        <time>2021-08-11T12:10:23.900Z</time>
      </trkpt>
      <trkpt lat="46.87519" lon="8.4904">
        <ele>1716</ele>
        <time>2021-08-11T12:10:24.899Z</time>
      </trkpt>
      <trkpt lat="46.87519" lon="8.49039">
        <ele>1716</ele>
        <time>2021-08-11T12:10:25.900Z</time>
      </trkpt>
      <trkpt lat="46.87518" lon="8.49038">
        <ele>1716</ele>
        <time>2021-08-11T12:10:26.900Z</time>
      </trkpt>
      <trkpt lat="46.87518" lon="8.49038">
        <ele>1716</ele>
        <time>2021-08-11T12:10:27.900Z</time>
      </trkpt>
      <trkpt lat="46.87517" lon="8.49037">
        <ele>1715</ele>
        <time>2021-08-11T12:10:28.900Z</time>
      </trkpt>
      <trkpt lat="46.87516" lon="8.49037">
        <ele>1715</ele>
        <time>2021-08-11T12:10:29.899Z</time>
      </trkpt>
      <trkpt lat="46.87517" lon="8.49037">
        <ele>1715</ele>
        <time>2021-08-11T12:10:30.899Z</time>
      </trkpt>
      <trkpt lat="46.87517" lon="8.49036">
        <ele>1714</ele>
        <time>2021-08-11T12:10:31.900Z</time>
      </trkpt>
      <trkpt lat="46.87517" lon="8.49035">
        <ele>1714</ele>
        <time>2021-08-11T12:10:32.900Z</time>
      </trkpt>
      <trkpt lat="46.87517" lon="8.49034">
        <ele>1714</ele>
        <time>2021-08-11T12:10:33.899Z</time>
      </trkpt>
      <trkpt lat="46.87517" lon="8.49033">
        <ele>1714</ele>
        <time>2021-08-11T12:10:34.900Z</time>
      </trkpt>
      <trkpt lat="46.87517" lon="8.49033">
        <ele>1714</ele>
        <time>2021-08-11T12:10:35.899Z</time>
      </trkpt>
      <trkpt lat="46.87516" lon="8.49032">
        <ele>1714</ele>
        <time>2021-08-11T12:10:36.900Z</time>
      </trkpt>
      <trkpt lat="46.87516" lon="8.49032">
        <ele>1714</ele>
        <time>2021-08-11T12:10:37.900Z</time>
      </trkpt>
      <trkpt lat="46.87517" lon="8.49032">
        <ele>1714</ele>
        <time>2021-08-11T12:10:38.899Z</time>
      </trkpt>
      <trkpt lat="46.87518" lon="8.49032">
        <ele>1715</ele>
        <time>2021-08-11T12:10:39.900Z</time>
      </trkpt>
      <trkpt lat="46.87518" lon="8.49031">
        <ele>1715</ele>
        <time>2021-08-11T12:10:40.899Z</time>
      </trkpt>
      <trkpt lat="46.87519" lon="8.49031">
        <ele>1715</ele>
        <time>2021-08-11T12:10:41.900Z</time>
      </trkpt>
      <trkpt lat="46.87519" lon="8.4903">
        <ele>1715</ele>
        <time>2021-08-11T12:10:42.899Z</time>
      </trkpt>
      <trkpt lat="46.87519" lon="8.49029">
        <ele>1716</ele>
        <time>2021-08-11T12:10:43.900Z</time>
      </trkpt>
      <trkpt lat="46.87518" lon="8.49028">
        <ele>1716</ele>
        <time>2021-08-11T12:10:44.899Z</time>
      </trkpt>
      <trkpt lat="46.87518" lon="8.49028">
        <ele>1716</ele>
        <time>2021-08-11T12:10:45.899Z</time>
      </trkpt>
      <trkpt lat="46.87518" lon="8.49027">
        <ele>1716</ele>
        <time>2021-08-11T12:10:46.900Z</time>
      </trkpt>
      <trkpt lat="46.87518" lon="8.49027">
        <ele>1716</ele>
        <time>2021-08-11T12:10:47.899Z</time>
      </trkpt>
      <trkpt lat="46.87518" lon="8.49027">
        <ele>1716</ele>
        <time>2021-08-11T12:10:48.900Z</time>
      </trkpt>
      <trkpt lat="46.87518" lon="8.49026">
        <ele>1716</ele>
        <time>2021-08-11T12:10:49.899Z</time>
      </trkpt>
      <trkpt lat="46.87519" lon="8.49026">
        <ele>1716</ele>
        <time>2021-08-11T12:10:50.900Z</time>
      </trkpt>
      <trkpt lat="46.87519" lon="8.49026">
        <ele>1716</ele>
        <time>2021-08-11T12:10:51.900Z</time>
      </trkpt>
      <trkpt lat="46.87519" lon="8.49025">
        <ele>1717</ele>
        <time>2021-08-11T12:10:52.899Z</time>
      </trkpt>
      <trkpt lat="46.87519" lon="8.49024">
        <ele>1717</ele>
        <time>2021-08-11T12:10:53.900Z</time>
      </trkpt>
      <trkpt lat="46.8752" lon="8.49023">
        <ele>1717</ele>
        <time>2021-08-11T12:10:54.900Z</time>
      </trkpt>
      <trkpt lat="46.8752" lon="8.49022">
        <ele>1718</ele>
        <time>2021-08-11T12:10:55.899Z</time>
      </trkpt>
      <trkpt lat="46.8752" lon="8.49022">
        <ele>1718</ele>
        <time>2021-08-11T12:10:56.900Z</time>
      </trkpt>
      <trkpt lat="46.8752" lon="8.49021">
        <ele>1718</ele>
        <time>2021-08-11T12:10:57.899Z</time>
      </trkpt>
      <trkpt lat="46.87521" lon="8.4902">
        <ele>1718</ele>
        <time>2021-08-11T12:10:58.899Z</time>
      </trkpt>
      <trkpt lat="46.87521" lon="8.4902">
        <ele>1718</ele>
        <time>2021-08-11T12:10:59.899Z</time>
      </trkpt>
      <trkpt lat="46.87521" lon="8.4902">
        <ele>1718</ele>
        <time>2021-08-11T12:11:00.900Z</time>
      </trkpt>
      <trkpt lat="46.87521" lon="8.49019">
        <ele>1718</ele>
        <time>2021-08-11T12:11:01.900Z</time>
      </trkpt>
      <trkpt lat="46.87521" lon="8.49017">
        <ele>1718</ele>
        <time>2021-08-11T12:11:06.014Z</time>
      </trkpt>
      <trkpt lat="46.87521" lon="8.49015">
        <ele>1718</ele>
        <time>2021-08-11T12:11:07.015Z</time>
      </trkpt>
      <trkpt lat="46.87521" lon="8.49012">
        <ele>1717</ele>
        <time>2021-08-11T12:11:08.014Z</time>
      </trkpt>
      <trkpt lat="46.87521" lon="8.49011">
        <ele>1717</ele>
        <time>2021-08-11T12:11:09.014Z</time>
      </trkpt>
      <trkpt lat="46.8752" lon="8.4901">
        <ele>1717</ele>
        <time>2021-08-11T12:11:10.014Z</time>
      </trkpt>
      <trkpt lat="46.8752" lon="8.49011">
        <ele>1717</ele>
        <time>2021-08-11T12:11:11.015Z</time>
      </trkpt>
      <trkpt lat="46.87519" lon="8.49011">
        <ele>1716</ele>
        <time>2021-08-11T12:11:12.015Z</time>
      </trkpt>
      <trkpt lat="46.87518" lon="8.4901">
        <ele>1716</ele>
        <time>2021-08-11T12:11:13.015Z</time>
      </trkpt>
      <trkpt lat="46.87517" lon="8.49011">
        <ele>1715</ele>
        <time>2021-08-11T12:11:14.015Z</time>
      </trkpt>
      <trkpt lat="46.87516" lon="8.49011">
        <ele>1715</ele>
        <time>2021-08-11T12:11:15.015Z</time>
      </trkpt>
      <trkpt lat="46.87515" lon="8.49011">
        <ele>1715</ele>
        <time>2021-08-11T12:11:16.014Z</time>
      </trkpt>
      <trkpt lat="46.87515" lon="8.49011">
        <ele>1715</ele>
        <time>2021-08-11T12:11:17.014Z</time>
      </trkpt>
      <trkpt lat="46.87515" lon="8.4901">
        <ele>1714</ele>
        <time>2021-08-11T12:11:18.015Z</time>
      </trkpt>
      <trkpt lat="46.87514" lon="8.49009">
        <ele>1714</ele>
        <time>2021-08-11T12:11:19.014Z</time>
      </trkpt>
      <trkpt lat="46.87515" lon="8.49008">
        <ele>1714</ele>
        <time>2021-08-11T12:11:23.011Z</time>
      </trkpt>
      <trkpt lat="46.87514" lon="8.49007">
        <ele>1714</ele>
        <time>2021-08-11T12:11:24.011Z</time>
      </trkpt>
      <trkpt lat="46.87514" lon="8.49006">
        <ele>1714</ele>
        <time>2021-08-11T12:11:25.012Z</time>
      </trkpt>
      <trkpt lat="46.87514" lon="8.49006">
        <ele>1714</ele>
        <time>2021-08-11T12:11:26.012Z</time>
      </trkpt>
      <trkpt lat="46.87514" lon="8.49005">
        <ele>1714</ele>
        <time>2021-08-11T12:11:31.139Z</time>
      </trkpt>
      <trkpt lat="46.87513" lon="8.49004">
        <ele>1715</ele>
        <time>2021-08-11T12:11:32.140Z</time>
      </trkpt>
      <trkpt lat="46.87513" lon="8.49003">
        <ele>1715</ele>
        <time>2021-08-11T12:11:33.139Z</time>
      </trkpt>
      <trkpt lat="46.87512" lon="8.49003">
        <ele>1715</ele>
        <time>2021-08-11T12:11:34.140Z</time>
      </trkpt>
      <trkpt lat="46.87512" lon="8.49002">
        <ele>1715</ele>
        <time>2021-08-11T12:11:35.140Z</time>
      </trkpt>
      <trkpt lat="46.87512" lon="8.49001">
        <ele>1715</ele>
        <time>2021-08-11T12:11:36.140Z</time>
      </trkpt>
      <trkpt lat="46.87511" lon="8.49">
        <ele>1715</ele>
        <time>2021-08-11T12:11:37.140Z</time>
      </trkpt>
      <trkpt lat="46.8751" lon="8.48999">
        <ele>1715</ele>
        <time>2021-08-11T12:11:38.140Z</time>
      </trkpt>
      <trkpt lat="46.8751" lon="8.48999">
        <ele>1716</ele>
        <time>2021-08-11T12:11:39.140Z</time>
      </trkpt>
      <trkpt lat="46.8751" lon="8.48998">
        <ele>1716</ele>
        <time>2021-08-11T12:11:40.140Z</time>
      </trkpt>
      <trkpt lat="46.8751" lon="8.48998">
        <ele>1716</ele>
        <time>2021-08-11T12:11:41.139Z</time>
      </trkpt>
      <trkpt lat="46.87509" lon="8.48997">
        <ele>1717</ele>
        <time>2021-08-11T12:11:42.140Z</time>
      </trkpt>
      <trkpt lat="46.87509" lon="8.48997">
        <ele>1717</ele>
        <time>2021-08-11T12:11:43.139Z</time>
      </trkpt>
      <trkpt lat="46.87508" lon="8.48996">
        <ele>1717</ele>
        <time>2021-08-11T12:11:44.140Z</time>
      </trkpt>
      <trkpt lat="46.87508" lon="8.48995">
        <ele>1718</ele>
        <time>2021-08-11T12:11:45.139Z</time>
      </trkpt>
      <trkpt lat="46.87509" lon="8.48995">
        <ele>1718</ele>
        <time>2021-08-11T12:11:46.139Z</time>
      </trkpt>
      <trkpt lat="46.87509" lon="8.48995">
        <ele>1718</ele>
        <time>2021-08-11T12:11:47.140Z</time>
      </trkpt>
      <trkpt lat="46.87509" lon="8.48995">
        <ele>1718</ele>
        <time>2021-08-11T12:11:48.139Z</time>
      </trkpt>
      <trkpt lat="46.87509" lon="8.48994">
        <ele>1718</ele>
        <time>2021-08-11T12:11:49.140Z</time>
      </trkpt>
      <trkpt lat="46.87509" lon="8.48994">
        <ele>1719</ele>
        <time>2021-08-11T12:11:50.140Z</time>
      </trkpt>
      <trkpt lat="46.87509" lon="8.48993">
        <ele>1719</ele>
        <time>2021-08-11T12:11:51.140Z</time>
      </trkpt>
      <trkpt lat="46.87509" lon="8.48992">
        <ele>1720</ele>
        <time>2021-08-11T12:11:52.140Z</time>
      </trkpt>
      <trkpt lat="46.87509" lon="8.48992">
        <ele>1720</ele>
        <time>2021-08-11T12:11:53.140Z</time>
      </trkpt>
      <trkpt lat="46.87508" lon="8.48991">
        <ele>1721</ele>
        <time>2021-08-11T12:11:54.140Z</time>
      </trkpt>
      <trkpt lat="46.87508" lon="8.4899">
        <ele>1721</ele>
        <time>2021-08-11T12:11:55.140Z</time>
      </trkpt>
      <trkpt lat="46.87507" lon="8.48989">
        <ele>1722</ele>
        <time>2021-08-11T12:11:56.140Z</time>
      </trkpt>
      <trkpt lat="46.87507" lon="8.48988">
        <ele>1722</ele>
        <time>2021-08-11T12:11:57.139Z</time>
      </trkpt>
      <trkpt lat="46.87507" lon="8.48988">
        <ele>1722</ele>
        <time>2021-08-11T12:11:58.139Z</time>
      </trkpt>
      <trkpt lat="46.87508" lon="8.48988">
        <ele>1723</ele>
        <time>2021-08-11T12:11:59.140Z</time>
      </trkpt>
      <trkpt lat="46.87508" lon="8.48988">
        <ele>1723</ele>
        <time>2021-08-11T12:12:00.140Z</time>
      </trkpt>
      <trkpt lat="46.87507" lon="8.48988">
        <ele>1723</ele>
        <time>2021-08-11T12:12:01.139Z</time>
      </trkpt>
      <trkpt lat="46.87507" lon="8.48987">
        <ele>1723</ele>
        <time>2021-08-11T12:12:07.262Z</time>
      </trkpt>
      <trkpt lat="46.87507" lon="8.48987">
        <ele>1724</ele>
        <time>2021-08-11T12:12:08.261Z</time>
      </trkpt>
      <trkpt lat="46.87507" lon="8.48986">
        <ele>1724</ele>
        <time>2021-08-11T12:12:09.262Z</time>
      </trkpt>
      <trkpt lat="46.87507" lon="8.48985">
        <ele>1725</ele>
        <time>2021-08-11T12:12:10.261Z</time>
      </trkpt>
      <trkpt lat="46.87508" lon="8.48984">
        <ele>1725</ele>
        <time>2021-08-11T12:12:11.261Z</time>
      </trkpt>
      <trkpt lat="46.87507" lon="8.48984">
        <ele>1725</ele>
        <time>2021-08-11T12:12:12.262Z</time>
      </trkpt>
      <trkpt lat="46.87507" lon="8.48983">
        <ele>1725</ele>
        <time>2021-08-11T12:12:13.261Z</time>
      </trkpt>
      <trkpt lat="46.87507" lon="8.48982">
        <ele>1725</ele>
        <time>2021-08-11T12:12:14.261Z</time>
      </trkpt>
      <trkpt lat="46.87507" lon="8.48982">
        <ele>1726</ele>
        <time>2021-08-11T12:12:15.262Z</time>
      </trkpt>
      <trkpt lat="46.87508" lon="8.48981">
        <ele>1726</ele>
        <time>2021-08-11T12:12:16.262Z</time>
      </trkpt>
      <trkpt lat="46.87508" lon="8.48981">
        <ele>1726</ele>
        <time>2021-08-11T12:12:23.259Z</time>
      </trkpt>
      <trkpt lat="46.87508" lon="8.4898">
        <ele>1726</ele>
        <time>2021-08-11T12:12:24.260Z</time>
      </trkpt>
      <trkpt lat="46.87508" lon="8.48979">
        <ele>1726</ele>
        <time>2021-08-11T12:12:25.260Z</time>
      </trkpt>
      <trkpt lat="46.87509" lon="8.48978">
        <ele>1726</ele>
        <time>2021-08-11T12:12:26.260Z</time>
      </trkpt>
      <trkpt lat="46.87509" lon="8.48978">
        <ele>1727</ele>
        <time>2021-08-11T12:12:27.260Z</time>
      </trkpt>
      <trkpt lat="46.8751" lon="8.48978">
        <ele>1727</ele>
        <time>2021-08-11T12:12:30.357Z</time>
      </trkpt>
      <trkpt lat="46.87509" lon="8.48977">
        <ele>1728</ele>
        <time>2021-08-11T12:12:31.358Z</time>
      </trkpt>
      <trkpt lat="46.87509" lon="8.48976">
        <ele>1728</ele>
        <time>2021-08-11T12:12:32.357Z</time>
      </trkpt>
      <trkpt lat="46.8751" lon="8.48975">
        <ele>1728</ele>
        <time>2021-08-11T12:12:33.358Z</time>
      </trkpt>
      <trkpt lat="46.8751" lon="8.48975">
        <ele>1729</ele>
        <time>2021-08-11T12:12:34.357Z</time>
      </trkpt>
      <trkpt lat="46.8751" lon="8.48974">
        <ele>1729</ele>
        <time>2021-08-11T12:12:35.358Z</time>
      </trkpt>
      <trkpt lat="46.87509" lon="8.48973">
        <ele>1730</ele>
        <time>2021-08-11T12:12:36.358Z</time>
      </trkpt>
      <trkpt lat="46.87509" lon="8.48972">
        <ele>1730</ele>
        <time>2021-08-11T12:12:38.490Z</time>
      </trkpt>
      <trkpt lat="46.87509" lon="8.48971">
        <ele>1730</ele>
        <time>2021-08-11T12:12:39.490Z</time>
      </trkpt>
      <trkpt lat="46.8751" lon="8.48971">
        <ele>1730</ele>
        <time>2021-08-11T12:12:40.489Z</time>
      </trkpt>
      <trkpt lat="46.8751" lon="8.4897">
        <ele>1729</ele>
        <time>2021-08-11T12:12:41.490Z</time>
      </trkpt>
      <trkpt lat="46.8751" lon="8.4897">
        <ele>1729</ele>
        <time>2021-08-11T12:12:42.490Z</time>
      </trkpt>
      <trkpt lat="46.8751" lon="8.48969">
        <ele>1729</ele>
        <time>2021-08-11T12:12:43.490Z</time>
      </trkpt>
      <trkpt lat="46.8751" lon="8.48968">
        <ele>1729</ele>
        <time>2021-08-11T12:12:44.489Z</time>
      </trkpt>
      <trkpt lat="46.8751" lon="8.48968">
        <ele>1728</ele>
        <time>2021-08-11T12:12:45.490Z</time>
      </trkpt>
      <trkpt lat="46.8751" lon="8.48967">
        <ele>1728</ele>
        <time>2021-08-11T12:12:46.489Z</time>
      </trkpt>
      <trkpt lat="46.8751" lon="8.48967">
        <ele>1728</ele>
        <time>2021-08-11T12:12:47.490Z</time>
      </trkpt>
      <trkpt lat="46.87511" lon="8.48967">
        <ele>1728</ele>
        <time>2021-08-11T12:12:48.489Z</time>
      </trkpt>
      <trkpt lat="46.87511" lon="8.48966">
        <ele>1729</ele>
        <time>2021-08-11T12:12:56.604Z</time>
      </trkpt>
      <trkpt lat="46.87511" lon="8.48966">
        <ele>1729</ele>
        <time>2021-08-11T12:12:57.605Z</time>
      </trkpt>
      <trkpt lat="46.87512" lon="8.48965">
        <ele>1729</ele>
        <time>2021-08-11T12:12:58.605Z</time>
      </trkpt>
      <trkpt lat="46.87513" lon="8.48964">
        <ele>1729</ele>
        <time>2021-08-11T12:12:59.605Z</time>
      </trkpt>
      <trkpt lat="46.87513" lon="8.48964">
        <ele>1729</ele>
        <time>2021-08-11T12:13:04.726Z</time>
      </trkpt>
      <trkpt lat="46.87513" lon="8.48963">
        <ele>1729</ele>
        <time>2021-08-11T12:13:05.725Z</time>
      </trkpt>
      <trkpt lat="46.87513" lon="8.48962">
        <ele>1729</ele>
        <time>2021-08-11T12:13:06.726Z</time>
      </trkpt>
      <trkpt lat="46.87513" lon="8.48961">
        <ele>1729</ele>
        <time>2021-08-11T12:13:07.725Z</time>
      </trkpt>
      <trkpt lat="46.87513" lon="8.4896">
        <ele>1730</ele>
        <time>2021-08-11T12:13:08.726Z</time>
      </trkpt>
      <trkpt lat="46.87513" lon="8.4896">
        <ele>1730</ele>
        <time>2021-08-11T12:13:09.725Z</time>
      </trkpt>
      <trkpt lat="46.87513" lon="8.48959">
        <ele>1730</ele>
        <time>2021-08-11T12:13:10.725Z</time>
      </trkpt>
      <trkpt lat="46.87513" lon="8.48958">
        <ele>1730</ele>
        <time>2021-08-11T12:13:11.726Z</time>
      </trkpt>
      <trkpt lat="46.87514" lon="8.48958">
        <ele>1730</ele>
        <time>2021-08-11T12:13:12.726Z</time>
      </trkpt>
      <trkpt lat="46.87514" lon="8.48958">
        <ele>1730</ele>
        <time>2021-08-11T12:13:13.726Z</time>
      </trkpt>
      <trkpt lat="46.87514" lon="8.48958">
        <ele>1730</ele>
        <time>2021-08-11T12:13:14.725Z</time>
      </trkpt>
      <trkpt lat="46.87514" lon="8.48958">
        <ele>1730</ele>
        <time>2021-08-11T12:13:15.726Z</time>
      </trkpt>
      <trkpt lat="46.87515" lon="8.48958">
        <ele>1729</ele>
        <time>2021-08-11T12:13:16.726Z</time>
      </trkpt>
      <trkpt lat="46.87515" lon="8.48957">
        <ele>1729</ele>
        <time>2021-08-11T12:13:17.726Z</time>
      </trkpt>
      <trkpt lat="46.87514" lon="8.48956">
        <ele>1729</ele>
        <time>2021-08-11T12:13:18.725Z</time>
      </trkpt>
      <trkpt lat="46.87514" lon="8.48955">
        <ele>1729</ele>
        <time>2021-08-11T12:13:19.726Z</time>
      </trkpt>
      <trkpt lat="46.87515" lon="8.48955">
        <ele>1729</ele>
        <time>2021-08-11T12:13:20.726Z</time>
      </trkpt>
      <trkpt lat="46.87515" lon="8.48954">
        <ele>1729</ele>
        <time>2021-08-11T12:13:21.726Z</time>
      </trkpt>
      <trkpt lat="46.87515" lon="8.48954">
        <ele>1730</ele>
        <time>2021-08-11T12:13:22.726Z</time>
      </trkpt>
      <trkpt lat="46.87516" lon="8.48954">
        <ele>1730</ele>
        <time>2021-08-11T12:13:23.725Z</time>
      </trkpt>
      <trkpt lat="46.87516" lon="8.48955">
        <ele>1730</ele>
        <time>2021-08-11T12:13:24.725Z</time>
      </trkpt>
      <trkpt lat="46.87516" lon="8.48954">
        <ele>1731</ele>
        <time>2021-08-11T12:13:25.725Z</time>
      </trkpt>
      <trkpt lat="46.87516" lon="8.48954">
        <ele>1731</ele>
        <time>2021-08-11T12:13:26.725Z</time>
      </trkpt>
      <trkpt lat="46.87515" lon="8.48953">
        <ele>1728</ele>
        <time>2021-08-11T12:13:27.726Z</time>
      </trkpt>
      <trkpt lat="46.87515" lon="8.48952">
        <ele>1728</ele>
        <time>2021-08-11T12:13:28.726Z</time>
      </trkpt>
      <trkpt lat="46.87515" lon="8.48952">
        <ele>1727</ele>
        <time>2021-08-11T12:13:29.725Z</time>
      </trkpt>
      <trkpt lat="46.87515" lon="8.48952">
        <ele>1726</ele>
        <time>2021-08-11T12:13:30.727Z</time>
      </trkpt>
      <trkpt lat="46.87515" lon="8.48951">
        <ele>1725</ele>
        <time>2021-08-11T12:13:31.726Z</time>
      </trkpt>
      <trkpt lat="46.87515" lon="8.48949">
        <ele>1725</ele>
        <time>2021-08-11T12:13:32.728Z</time>
      </trkpt>
      <trkpt lat="46.87515" lon="8.48949">
        <ele>1725</ele>
        <time>2021-08-11T12:13:33.728Z</time>
      </trkpt>
      <trkpt lat="46.87513" lon="8.48946">
        <ele>1728</ele>
        <time>2021-08-11T12:13:34.728Z</time>
      </trkpt>
      <trkpt lat="46.87513" lon="8.48945">
        <ele>1729</ele>
        <time>2021-08-11T12:13:35.727Z</time>
      </trkpt>
      <trkpt lat="46.87514" lon="8.48945">
        <ele>1730</ele>
        <time>2021-08-11T12:13:36.727Z</time>
      </trkpt>
      <trkpt lat="46.87514" lon="8.48944">
        <ele>1731</ele>
        <time>2021-08-11T12:13:37.727Z</time>
      </trkpt>
      <trkpt lat="46.87513" lon="8.48944">
        <ele>1732</ele>
        <time>2021-08-11T12:13:38.728Z</time>
      </trkpt>
      <trkpt lat="46.87513" lon="8.48943">
        <ele>1733</ele>
        <time>2021-08-11T12:13:39.728Z</time>
      </trkpt>
      <trkpt lat="46.87513" lon="8.48942">
        <ele>1733</ele>
        <time>2021-08-11T12:13:40.728Z</time>
      </trkpt>
      <trkpt lat="46.87513" lon="8.48941">
        <ele>1734</ele>
        <time>2021-08-11T12:13:41.727Z</time>
      </trkpt>
      <trkpt lat="46.87512" lon="8.4894">
        <ele>1735</ele>
        <time>2021-08-11T12:13:42.728Z</time>
      </trkpt>
      <trkpt lat="46.87512" lon="8.48939">
        <ele>1735</ele>
        <time>2021-08-11T12:13:43.728Z</time>
      </trkpt>
      <trkpt lat="46.87512" lon="8.48938">
        <ele>1736</ele>
        <time>2021-08-11T12:13:44.728Z</time>
      </trkpt>
      <trkpt lat="46.87512" lon="8.48938">
        <ele>1736</ele>
        <time>2021-08-11T12:13:45.728Z</time>
      </trkpt>
      <trkpt lat="46.87512" lon="8.48937">
        <ele>1736</ele>
        <time>2021-08-11T12:13:46.727Z</time>
      </trkpt>
      <trkpt lat="46.87513" lon="8.48937">
        <ele>1736</ele>
        <time>2021-08-11T12:13:47.728Z</time>
      </trkpt>
      <trkpt lat="46.87513" lon="8.48936">
        <ele>1736</ele>
        <time>2021-08-11T12:13:48.728Z</time>
      </trkpt>
      <trkpt lat="46.87513" lon="8.48936">
        <ele>1735</ele>
        <time>2021-08-11T12:13:49.728Z</time>
      </trkpt>
      <trkpt lat="46.87512" lon="8.48935">
        <ele>1735</ele>
        <time>2021-08-11T12:13:50.728Z</time>
      </trkpt>
      <trkpt lat="46.87512" lon="8.48934">
        <ele>1735</ele>
        <time>2021-08-11T12:13:51.728Z</time>
      </trkpt>
      <trkpt lat="46.87511" lon="8.48933">
        <ele>1735</ele>
        <time>2021-08-11T12:13:52.728Z</time>
      </trkpt>
      <trkpt lat="46.87511" lon="8.48932">
        <ele>1734</ele>
        <time>2021-08-11T12:13:53.728Z</time>
      </trkpt>
      <trkpt lat="46.87511" lon="8.48931">
        <ele>1734</ele>
        <time>2021-08-11T12:13:54.728Z</time>
      </trkpt>
      <trkpt lat="46.87511" lon="8.4893">
        <ele>1735</ele>
        <time>2021-08-11T12:13:55.727Z</time>
      </trkpt>
      <trkpt lat="46.8751" lon="8.48929">
        <ele>1735</ele>
        <time>2021-08-11T12:13:56.728Z</time>
      </trkpt>
      <trkpt lat="46.8751" lon="8.48929">
        <ele>1735</ele>
        <time>2021-08-11T12:13:57.728Z</time>
      </trkpt>
      <trkpt lat="46.87506" lon="8.48931">
        <ele>1732</ele>
        <time>2021-08-11T12:13:58.728Z</time>
      </trkpt>
      <trkpt lat="46.87506" lon="8.4893">
        <ele>1732</ele>
        <time>2021-08-11T12:13:59.727Z</time>
      </trkpt>
      <trkpt lat="46.87507" lon="8.4893">
        <ele>1731</ele>
        <time>2021-08-11T12:14:00.727Z</time>
      </trkpt>
      <trkpt lat="46.87507" lon="8.48929">
        <ele>1730</ele>
        <time>2021-08-11T12:14:01.729Z</time>
      </trkpt>
      <trkpt lat="46.87507" lon="8.48928">
        <ele>1731</ele>
        <time>2021-08-11T12:14:02.729Z</time>
      </trkpt>
      <trkpt lat="46.87507" lon="8.48928">
        <ele>1731</ele>
        <time>2021-08-11T12:14:03.728Z</time>
      </trkpt>
      <trkpt lat="46.87507" lon="8.48927">
        <ele>1731</ele>
        <time>2021-08-11T12:14:04.729Z</time>
      </trkpt>
      <trkpt lat="46.87507" lon="8.48927">
        <ele>1731</ele>
        <time>2021-08-11T12:14:05.728Z</time>
      </trkpt>
      <trkpt lat="46.87506" lon="8.48926">
        <ele>1731</ele>
        <time>2021-08-11T12:14:06.729Z</time>
      </trkpt>
      <trkpt lat="46.87506" lon="8.48926">
        <ele>1731</ele>
        <time>2021-08-11T12:14:07.728Z</time>
      </trkpt>
      <trkpt lat="46.87506" lon="8.48925">
        <ele>1731</ele>
        <time>2021-08-11T12:14:08.728Z</time>
      </trkpt>
      <trkpt lat="46.87506" lon="8.48924">
        <ele>1731</ele>
        <time>2021-08-11T12:14:09.728Z</time>
      </trkpt>
      <trkpt lat="46.87506" lon="8.48924">
        <ele>1731</ele>
        <time>2021-08-11T12:14:10.729Z</time>
      </trkpt>
      <trkpt lat="46.87506" lon="8.48923">
        <ele>1731</ele>
        <time>2021-08-11T12:14:11.729Z</time>
      </trkpt>
      <trkpt lat="46.87505" lon="8.48922">
        <ele>1731</ele>
        <time>2021-08-11T12:14:12.729Z</time>
      </trkpt>
      <trkpt lat="46.87505" lon="8.48921">
        <ele>1730</ele>
        <time>2021-08-11T12:14:13.729Z</time>
      </trkpt>
      <trkpt lat="46.87505" lon="8.4892">
        <ele>1730</ele>
        <time>2021-08-11T12:14:14.728Z</time>
      </trkpt>
      <trkpt lat="46.87506" lon="8.4892">
        <ele>1730</ele>
        <time>2021-08-11T12:14:15.729Z</time>
      </trkpt>
      <trkpt lat="46.87506" lon="8.48919">
        <ele>1730</ele>
        <time>2021-08-11T12:14:16.729Z</time>
      </trkpt>
      <trkpt lat="46.87507" lon="8.48919">
        <ele>1731</ele>
        <time>2021-08-11T12:14:17.729Z</time>
      </trkpt>
      <trkpt lat="46.87507" lon="8.48918">
        <ele>1731</ele>
        <time>2021-08-11T12:14:18.728Z</time>
      </trkpt>
      <trkpt lat="46.87507" lon="8.48917">
        <ele>1731</ele>
        <time>2021-08-11T12:14:19.729Z</time>
      </trkpt>
      <trkpt lat="46.87507" lon="8.48917">
        <ele>1731</ele>
        <time>2021-08-11T12:14:20.729Z</time>
      </trkpt>
      <trkpt lat="46.87508" lon="8.48917">
        <ele>1732</ele>
        <time>2021-08-11T12:14:21.728Z</time>
      </trkpt>
      <trkpt lat="46.87507" lon="8.48916">
        <ele>1732</ele>
        <time>2021-08-11T12:14:22.728Z</time>
      </trkpt>
      <trkpt lat="46.87507" lon="8.48915">
        <ele>1732</ele>
        <time>2021-08-11T12:14:23.728Z</time>
      </trkpt>
      <trkpt lat="46.87507" lon="8.48914">
        <ele>1733</ele>
        <time>2021-08-11T12:14:24.729Z</time>
      </trkpt>
      <trkpt lat="46.87507" lon="8.48913">
        <ele>1733</ele>
        <time>2021-08-11T12:14:25.729Z</time>
      </trkpt>
      <trkpt lat="46.87508" lon="8.48913">
        <ele>1733</ele>
        <time>2021-08-11T12:14:26.728Z</time>
      </trkpt>
      <trkpt lat="46.87508" lon="8.48913">
        <ele>1733</ele>
        <time>2021-08-11T12:14:27.728Z</time>
      </trkpt>
      <trkpt lat="46.87508" lon="8.48912">
        <ele>1734</ele>
        <time>2021-08-11T12:14:28.728Z</time>
      </trkpt>
      <trkpt lat="46.87508" lon="8.48912">
        <ele>1734</ele>
        <time>2021-08-11T12:14:29.728Z</time>
      </trkpt>
      <trkpt lat="46.87507" lon="8.48911">
        <ele>1735</ele>
        <time>2021-08-11T12:14:30.729Z</time>
      </trkpt>
      <trkpt lat="46.87507" lon="8.4891">
        <ele>1735</ele>
        <time>2021-08-11T12:14:31.728Z</time>
      </trkpt>
      <trkpt lat="46.87508" lon="8.4891">
        <ele>1735</ele>
        <time>2021-08-11T12:14:32.729Z</time>
      </trkpt>
      <trkpt lat="46.87508" lon="8.48909">
        <ele>1736</ele>
        <time>2021-08-11T12:14:33.728Z</time>
      </trkpt>
      <trkpt lat="46.87508" lon="8.48908">
        <ele>1736</ele>
        <time>2021-08-11T12:14:34.729Z</time>
      </trkpt>
      <trkpt lat="46.87507" lon="8.48907">
        <ele>1736</ele>
        <time>2021-08-11T12:14:35.729Z</time>
      </trkpt>
      <trkpt lat="46.87507" lon="8.48906">
        <ele>1736</ele>
        <time>2021-08-11T12:14:36.729Z</time>
      </trkpt>
      <trkpt lat="46.87507" lon="8.48904">
        <ele>1736</ele>
        <time>2021-08-11T12:14:37.728Z</time>
      </trkpt>
      <trkpt lat="46.87507" lon="8.48903">
        <ele>1736</ele>
        <time>2021-08-11T12:14:38.728Z</time>
      </trkpt>
      <trkpt lat="46.87506" lon="8.48901">
        <ele>1736</ele>
        <time>2021-08-11T12:14:39.729Z</time>
      </trkpt>
      <trkpt lat="46.87506" lon="8.489">
        <ele>1737</ele>
        <time>2021-08-11T12:14:43.876Z</time>
      </trkpt>
      <trkpt lat="46.87506" lon="8.48899">
        <ele>1737</ele>
        <time>2021-08-11T12:14:56.605Z</time>
      </trkpt>
      <trkpt lat="46.87506" lon="8.48899">
        <ele>1737</ele>
        <time>2021-08-11T12:14:57.604Z</time>
      </trkpt>
      <trkpt lat="46.87505" lon="8.48897">
        <ele>1738</ele>
        <time>2021-08-11T12:14:58.604Z</time>
      </trkpt>
      <trkpt lat="46.87505" lon="8.48896">
        <ele>1738</ele>
        <time>2021-08-11T12:14:59.605Z</time>
      </trkpt>
      <trkpt lat="46.87505" lon="8.48894">
        <ele>1738</ele>
        <time>2021-08-11T12:15:00.604Z</time>
      </trkpt>
      <trkpt lat="46.87506" lon="8.48894">
        <ele>1739</ele>
        <time>2021-08-11T12:15:01.604Z</time>
      </trkpt>
      <trkpt lat="46.87506" lon="8.48893">
        <ele>1739</ele>
        <time>2021-08-11T12:15:03.707Z</time>
      </trkpt>
      <trkpt lat="46.87507" lon="8.48893">
        <ele>1739</ele>
        <time>2021-08-11T12:15:04.707Z</time>
      </trkpt>
      <trkpt lat="46.87507" lon="8.48893">
        <ele>1740</ele>
        <time>2021-08-11T12:15:31.475Z</time>
      </trkpt>
      <trkpt lat="46.87507" lon="8.48893">
        <ele>1740</ele>
        <time>2021-08-11T12:15:33.213Z</time>
      </trkpt>
      <trkpt lat="46.87507" lon="8.48892">
        <ele>1740</ele>
        <time>2021-08-11T12:15:34.212Z</time>
      </trkpt>
      <trkpt lat="46.87506" lon="8.48891">
        <ele>1740</ele>
        <time>2021-08-11T12:15:35.213Z</time>
      </trkpt>
      <trkpt lat="46.87507" lon="8.48891">
        <ele>1739</ele>
        <time>2021-08-11T12:15:43.231Z</time>
      </trkpt>
      <trkpt lat="46.87507" lon="8.4889">
        <ele>1739</ele>
        <time>2021-08-11T12:15:44.232Z</time>
      </trkpt>
      <trkpt lat="46.87507" lon="8.4889">
        <ele>1739</ele>
        <time>2021-08-11T12:15:45.231Z</time>
      </trkpt>
      <trkpt lat="46.87507" lon="8.48889">
        <ele>1739</ele>
        <time>2021-08-11T12:15:46.232Z</time>
      </trkpt>
      <trkpt lat="46.87508" lon="8.48888">
        <ele>1738</ele>
        <time>2021-08-11T12:15:47.231Z</time>
      </trkpt>
      <trkpt lat="46.87508" lon="8.48888">
        <ele>1738</ele>
        <time>2021-08-11T12:15:48.231Z</time>
      </trkpt>
      <trkpt lat="46.87508" lon="8.48887">
        <ele>1738</ele>
        <time>2021-08-11T12:15:49.231Z</time>
      </trkpt>
      <trkpt lat="46.87507" lon="8.48886">
        <ele>1738</ele>
        <time>2021-08-11T12:15:50.232Z</time>
      </trkpt>
      <trkpt lat="46.87508" lon="8.48885">
        <ele>1738</ele>
        <time>2021-08-11T12:15:51.231Z</time>
      </trkpt>
      <trkpt lat="46.87508" lon="8.48885">
        <ele>1738</ele>
        <time>2021-08-11T12:15:52.231Z</time>
      </trkpt>
      <trkpt lat="46.87508" lon="8.48882">
        <ele>1738</ele>
        <time>2021-08-11T12:15:53.231Z</time>
      </trkpt>
      <trkpt lat="46.87506" lon="8.4888">
        <ele>1738</ele>
        <time>2021-08-11T12:15:54.231Z</time>
      </trkpt>
      <trkpt lat="46.87506" lon="8.48879">
        <ele>1738</ele>
        <time>2021-08-11T12:15:55.231Z</time>
      </trkpt>
      <trkpt lat="46.87506" lon="8.48878">
        <ele>1738</ele>
        <time>2021-08-11T12:15:56.231Z</time>
      </trkpt>
      <trkpt lat="46.87506" lon="8.48877">
        <ele>1738</ele>
        <time>2021-08-11T12:15:57.232Z</time>
      </trkpt>
      <trkpt lat="46.87506" lon="8.48877">
        <ele>1738</ele>
        <time>2021-08-11T12:15:58.231Z</time>
      </trkpt>
      <trkpt lat="46.87506" lon="8.48876">
        <ele>1738</ele>
        <time>2021-08-11T12:15:59.231Z</time>
      </trkpt>
      <trkpt lat="46.87507" lon="8.48875">
        <ele>1738</ele>
        <time>2021-08-11T12:16:00.231Z</time>
      </trkpt>
      <trkpt lat="46.87507" lon="8.48874">
        <ele>1738</ele>
        <time>2021-08-11T12:16:01.231Z</time>
      </trkpt>
      <trkpt lat="46.87507" lon="8.48873">
        <ele>1738</ele>
        <time>2021-08-11T12:16:02.232Z</time>
      </trkpt>
      <trkpt lat="46.87507" lon="8.48873">
        <ele>1738</ele>
        <time>2021-08-11T12:16:03.231Z</time>
      </trkpt>
      <trkpt lat="46.87508" lon="8.48872">
        <ele>1739</ele>
        <time>2021-08-11T12:16:04.231Z</time>
      </trkpt>
      <trkpt lat="46.87508" lon="8.48871">
        <ele>1739</ele>
        <time>2021-08-11T12:16:05.231Z</time>
      </trkpt>
      <trkpt lat="46.87508" lon="8.48871">
        <ele>1739</ele>
        <time>2021-08-11T12:16:06.231Z</time>
      </trkpt>
      <trkpt lat="46.87508" lon="8.4887">
        <ele>1740</ele>
        <time>2021-08-11T12:16:07.231Z</time>
      </trkpt>
      <trkpt lat="46.87508" lon="8.4887">
        <ele>1740</ele>
        <time>2021-08-11T12:16:08.231Z</time>
      </trkpt>
      <trkpt lat="46.87507" lon="8.48869">
        <ele>1741</ele>
        <time>2021-08-11T12:16:09.231Z</time>
      </trkpt>
      <trkpt lat="46.87507" lon="8.48868">
        <ele>1742</ele>
        <time>2021-08-11T12:16:10.231Z</time>
      </trkpt>
      <trkpt lat="46.87507" lon="8.48868">
        <ele>1742</ele>
        <time>2021-08-11T12:16:11.231Z</time>
      </trkpt>
      <trkpt lat="46.87508" lon="8.48867">
        <ele>1742</ele>
        <time>2021-08-11T12:16:12.231Z</time>
      </trkpt>
      <trkpt lat="46.87508" lon="8.48866">
        <ele>1743</ele>
        <time>2021-08-11T12:16:13.231Z</time>
      </trkpt>
      <trkpt lat="46.87508" lon="8.48865">
        <ele>1743</ele>
        <time>2021-08-11T12:16:14.231Z</time>
      </trkpt>
      <trkpt lat="46.87507" lon="8.48863">
        <ele>1743</ele>
        <time>2021-08-11T12:16:15.231Z</time>
      </trkpt>
      <trkpt lat="46.87507" lon="8.48862">
        <ele>1743</ele>
        <time>2021-08-11T12:16:16.231Z</time>
      </trkpt>
      <trkpt lat="46.87507" lon="8.48861">
        <ele>1744</ele>
        <time>2021-08-11T12:16:22.264Z</time>
      </trkpt>
      <trkpt lat="46.87507" lon="8.4886">
        <ele>1744</ele>
        <time>2021-08-11T12:16:23.264Z</time>
      </trkpt>
      <trkpt lat="46.87507" lon="8.48859">
        <ele>1744</ele>
        <time>2021-08-11T12:16:24.264Z</time>
      </trkpt>
      <trkpt lat="46.87507" lon="8.48858">
        <ele>1745</ele>
        <time>2021-08-11T12:16:25.263Z</time>
      </trkpt>
      <trkpt lat="46.87507" lon="8.48857">
        <ele>1745</ele>
        <time>2021-08-11T12:16:30.376Z</time>
      </trkpt>
      <trkpt lat="46.87507" lon="8.48856">
        <ele>1745</ele>
        <time>2021-08-11T12:16:31.376Z</time>
      </trkpt>
      <trkpt lat="46.87506" lon="8.48856">
        <ele>1745</ele>
        <time>2021-08-11T12:16:32.375Z</time>
      </trkpt>
      <trkpt lat="46.87506" lon="8.48855">
        <ele>1745</ele>
        <time>2021-08-11T12:16:33.376Z</time>
      </trkpt>
      <trkpt lat="46.87506" lon="8.48854">
        <ele>1745</ele>
        <time>2021-08-11T12:16:34.375Z</time>
      </trkpt>
      <trkpt lat="46.87506" lon="8.48853">
        <ele>1746</ele>
        <time>2021-08-11T12:16:35.376Z</time>
      </trkpt>
      <trkpt lat="46.87506" lon="8.48852">
        <ele>1746</ele>
        <time>2021-08-11T12:16:36.375Z</time>
      </trkpt>
      <trkpt lat="46.87506" lon="8.48851">
        <ele>1746</ele>
        <time>2021-08-11T12:16:37.375Z</time>
      </trkpt>
      <trkpt lat="46.87505" lon="8.4885">
        <ele>1746</ele>
        <time>2021-08-11T12:16:38.375Z</time>
      </trkpt>
      <trkpt lat="46.87505" lon="8.48849">
        <ele>1746</ele>
        <time>2021-08-11T12:16:39.376Z</time>
      </trkpt>
      <trkpt lat="46.87505" lon="8.48848">
        <ele>1746</ele>
        <time>2021-08-11T12:16:40.376Z</time>
      </trkpt>
      <trkpt lat="46.87505" lon="8.48848">
        <ele>1747</ele>
        <time>2021-08-11T12:16:41.375Z</time>
      </trkpt>
      <trkpt lat="46.87505" lon="8.48847">
        <ele>1747</ele>
        <time>2021-08-11T12:16:42.375Z</time>
      </trkpt>
      <trkpt lat="46.87505" lon="8.48846">
        <ele>1747</ele>
        <time>2021-08-11T12:16:43.375Z</time>
      </trkpt>
      <trkpt lat="46.87505" lon="8.48845">
        <ele>1748</ele>
        <time>2021-08-11T12:16:44.376Z</time>
      </trkpt>
      <trkpt lat="46.87504" lon="8.48843">
        <ele>1748</ele>
        <time>2021-08-11T12:16:45.376Z</time>
      </trkpt>
      <trkpt lat="46.87504" lon="8.48843">
        <ele>1748</ele>
        <time>2021-08-11T12:16:46.375Z</time>
      </trkpt>
      <trkpt lat="46.87505" lon="8.48842">
        <ele>1749</ele>
        <time>2021-08-11T12:16:47.375Z</time>
      </trkpt>
      <trkpt lat="46.87505" lon="8.48841">
        <ele>1749</ele>
        <time>2021-08-11T12:16:48.376Z</time>
      </trkpt>
      <trkpt lat="46.87505" lon="8.48841">
        <ele>1750</ele>
        <time>2021-08-11T12:16:49.376Z</time>
      </trkpt>
      <trkpt lat="46.87505" lon="8.48839">
        <ele>1750</ele>
        <time>2021-08-11T12:16:50.376Z</time>
      </trkpt>
      <trkpt lat="46.87504" lon="8.48838">
        <ele>1750</ele>
        <time>2021-08-11T12:16:51.376Z</time>
      </trkpt>
      <trkpt lat="46.87503" lon="8.48837">
        <ele>1751</ele>
        <time>2021-08-11T12:16:52.375Z</time>
      </trkpt>
      <trkpt lat="46.87503" lon="8.48836">
        <ele>1751</ele>
        <time>2021-08-11T12:16:53.376Z</time>
      </trkpt>
      <trkpt lat="46.87503" lon="8.48835">
        <ele>1751</ele>
        <time>2021-08-11T12:16:54.376Z</time>
      </trkpt>
      <trkpt lat="46.87503" lon="8.48835">
        <ele>1751</ele>
        <time>2021-08-11T12:16:55.376Z</time>
      </trkpt>
      <trkpt lat="46.87503" lon="8.48834">
        <ele>1751</ele>
        <time>2021-08-11T12:16:56.375Z</time>
      </trkpt>
      <trkpt lat="46.87503" lon="8.48833">
        <ele>1751</ele>
        <time>2021-08-11T12:16:57.376Z</time>
      </trkpt>
      <trkpt lat="46.87503" lon="8.48832">
        <ele>1751</ele>
        <time>2021-08-11T12:16:58.376Z</time>
      </trkpt>
      <trkpt lat="46.87503" lon="8.48831">
        <ele>1751</ele>
        <time>2021-08-11T12:16:59.376Z</time>
      </trkpt>
      <trkpt lat="46.87504" lon="8.4883">
        <ele>1751</ele>
        <time>2021-08-11T12:17:00.376Z</time>
      </trkpt>
      <trkpt lat="46.87503" lon="8.48829">
        <ele>1752</ele>
        <time>2021-08-11T12:17:01.375Z</time>
      </trkpt>
      <trkpt lat="46.87503" lon="8.48829">
        <ele>1752</ele>
        <time>2021-08-11T12:17:02.375Z</time>
      </trkpt>
      <trkpt lat="46.87503" lon="8.48828">
        <ele>1752</ele>
        <time>2021-08-11T12:17:03.376Z</time>
      </trkpt>
      <trkpt lat="46.87503" lon="8.48827">
        <ele>1752</ele>
        <time>2021-08-11T12:17:04.376Z</time>
      </trkpt>
      <trkpt lat="46.87503" lon="8.48826">
        <ele>1752</ele>
        <time>2021-08-11T12:17:05.376Z</time>
      </trkpt>
      <trkpt lat="46.87503" lon="8.48826">
        <ele>1752</ele>
        <time>2021-08-11T12:17:06.375Z</time>
      </trkpt>
      <trkpt lat="46.87503" lon="8.48825">
        <ele>1752</ele>
        <time>2021-08-11T12:17:07.375Z</time>
      </trkpt>
      <trkpt lat="46.87503" lon="8.48825">
        <ele>1752</ele>
        <time>2021-08-11T12:17:08.376Z</time>
      </trkpt>
      <trkpt lat="46.87504" lon="8.48824">
        <ele>1752</ele>
        <time>2021-08-11T12:17:09.376Z</time>
      </trkpt>
      <trkpt lat="46.87504" lon="8.48824">
        <ele>1752</ele>
        <time>2021-08-11T12:17:10.375Z</time>
      </trkpt>
      <trkpt lat="46.87504" lon="8.48823">
        <ele>1752</ele>
        <time>2021-08-11T12:17:11.375Z</time>
      </trkpt>
      <trkpt lat="46.87504" lon="8.48822">
        <ele>1752</ele>
        <time>2021-08-11T12:17:12.376Z</time>
      </trkpt>
      <trkpt lat="46.87504" lon="8.48822">
        <ele>1752</ele>
        <time>2021-08-11T12:17:13.376Z</time>
      </trkpt>
      <trkpt lat="46.87504" lon="8.48822">
        <ele>1752</ele>
        <time>2021-08-11T12:17:14.376Z</time>
      </trkpt>
      <trkpt lat="46.87505" lon="8.48822">
        <ele>1752</ele>
        <time>2021-08-11T12:17:15.375Z</time>
      </trkpt>
      <trkpt lat="46.87505" lon="8.48823">
        <ele>1752</ele>
        <time>2021-08-11T12:17:16.376Z</time>
      </trkpt>
      <trkpt lat="46.87506" lon="8.48823">
        <ele>1753</ele>
        <time>2021-08-11T12:17:17.376Z</time>
      </trkpt>
      <trkpt lat="46.87506" lon="8.48824">
        <ele>1753</ele>
        <time>2021-08-11T12:17:18.376Z</time>
      </trkpt>
      <trkpt lat="46.87507" lon="8.48824">
        <ele>1753</ele>
        <time>2021-08-11T12:17:38.374Z</time>
      </trkpt>
      <trkpt lat="46.87508" lon="8.48825">
        <ele>1754</ele>
        <time>2021-08-11T12:17:39.375Z</time>
      </trkpt>
      <trkpt lat="46.87508" lon="8.48825">
        <ele>1754</ele>
        <time>2021-08-11T12:17:40.375Z</time>
      </trkpt>
      <trkpt lat="46.87508" lon="8.48826">
        <ele>1754</ele>
        <time>2021-08-11T12:17:41.374Z</time>
      </trkpt>
      <trkpt lat="46.87509" lon="8.48826">
        <ele>1754</ele>
        <time>2021-08-11T12:17:42.375Z</time>
      </trkpt>
      <trkpt lat="46.87509" lon="8.48828">
        <ele>1754</ele>
        <time>2021-08-11T12:17:43.374Z</time>
      </trkpt>
      <trkpt lat="46.87509" lon="8.48829">
        <ele>1754</ele>
        <time>2021-08-11T12:17:44.375Z</time>
      </trkpt>
      <trkpt lat="46.8751" lon="8.4883">
        <ele>1754</ele>
        <time>2021-08-11T12:17:45.374Z</time>
      </trkpt>
      <trkpt lat="46.87511" lon="8.48831">
        <ele>1754</ele>
        <time>2021-08-11T12:17:46.375Z</time>
      </trkpt>
      <trkpt lat="46.87511" lon="8.48833">
        <ele>1754</ele>
        <time>2021-08-11T12:17:47.374Z</time>
      </trkpt>
      <trkpt lat="46.87512" lon="8.48834">
        <ele>1754</ele>
        <time>2021-08-11T12:17:48.374Z</time>
      </trkpt>
      <trkpt lat="46.87512" lon="8.48834">
        <ele>1754</ele>
        <time>2021-08-11T12:17:49.374Z</time>
      </trkpt>
      <trkpt lat="46.87512" lon="8.48834">
        <ele>1754</ele>
        <time>2021-08-11T12:17:50.374Z</time>
      </trkpt>
      <trkpt lat="46.87512" lon="8.48834">
        <ele>1754</ele>
        <time>2021-08-11T12:17:51.374Z</time>
      </trkpt>
      <trkpt lat="46.87512" lon="8.48835">
        <ele>1754</ele>
        <time>2021-08-11T12:17:52.374Z</time>
      </trkpt>
      <trkpt lat="46.87513" lon="8.48836">
        <ele>1754</ele>
        <time>2021-08-11T12:17:53.375Z</time>
      </trkpt>
      <trkpt lat="46.87513" lon="8.48838">
        <ele>1754</ele>
        <time>2021-08-11T12:17:54.375Z</time>
      </trkpt>
      <trkpt lat="46.87514" lon="8.48839">
        <ele>1754</ele>
        <time>2021-08-11T12:17:55.375Z</time>
      </trkpt>
      <trkpt lat="46.87515" lon="8.4884">
        <ele>1754</ele>
        <time>2021-08-11T12:17:56.374Z</time>
      </trkpt>
      <trkpt lat="46.87516" lon="8.48841">
        <ele>1754</ele>
        <time>2021-08-11T12:17:57.374Z</time>
      </trkpt>
      <trkpt lat="46.87516" lon="8.48842">
        <ele>1753</ele>
        <time>2021-08-11T12:17:58.375Z</time>
      </trkpt>
      <trkpt lat="46.87516" lon="8.48842">
        <ele>1753</ele>
        <time>2021-08-11T12:17:59.374Z</time>
      </trkpt>
      <trkpt lat="46.87517" lon="8.48843">
        <ele>1753</ele>
        <time>2021-08-11T12:18:00.375Z</time>
      </trkpt>
      <trkpt lat="46.87516" lon="8.48843">
        <ele>1753</ele>
        <time>2021-08-11T12:18:01.374Z</time>
      </trkpt>
      <trkpt lat="46.87516" lon="8.48844">
        <ele>1753</ele>
        <time>2021-08-11T12:18:02.375Z</time>
      </trkpt>
      <trkpt lat="46.87517" lon="8.48844">
        <ele>1753</ele>
        <time>2021-08-11T12:18:03.375Z</time>
      </trkpt>
      <trkpt lat="46.87518" lon="8.48845">
        <ele>1753</ele>
        <time>2021-08-11T12:18:04.375Z</time>
      </trkpt>
      <trkpt lat="46.87518" lon="8.48845">
        <ele>1753</ele>
        <time>2021-08-11T12:18:05.375Z</time>
      </trkpt>
      <trkpt lat="46.87518" lon="8.48846">
        <ele>1753</ele>
        <time>2021-08-11T12:18:06.374Z</time>
      </trkpt>
      <trkpt lat="46.87519" lon="8.48847">
        <ele>1753</ele>
        <time>2021-08-11T12:18:07.375Z</time>
      </trkpt>
      <trkpt lat="46.87519" lon="8.48848">
        <ele>1753</ele>
        <time>2021-08-11T12:18:08.375Z</time>
      </trkpt>
      <trkpt lat="46.87519" lon="8.48849">
        <ele>1753</ele>
        <time>2021-08-11T12:18:09.375Z</time>
      </trkpt>
      <trkpt lat="46.87519" lon="8.4885">
        <ele>1753</ele>
        <time>2021-08-11T12:18:10.374Z</time>
      </trkpt>
      <trkpt lat="46.87519" lon="8.4885">
        <ele>1752</ele>
        <time>2021-08-11T12:18:11.374Z</time>
      </trkpt>
      <trkpt lat="46.87519" lon="8.4885">
        <ele>1752</ele>
        <time>2021-08-11T12:18:12.375Z</time>
      </trkpt>
      <trkpt lat="46.87519" lon="8.48851">
        <ele>1752</ele>
        <time>2021-08-11T12:18:13.375Z</time>
      </trkpt>
      <trkpt lat="46.87519" lon="8.4885">
        <ele>1751</ele>
        <time>2021-08-11T12:18:14.375Z</time>
      </trkpt>
      <trkpt lat="46.87519" lon="8.48851">
        <ele>1751</ele>
        <time>2021-08-11T12:18:15.374Z</time>
      </trkpt>
      <trkpt lat="46.87519" lon="8.48852">
        <ele>1750</ele>
        <time>2021-08-11T12:18:16.375Z</time>
      </trkpt>
      <trkpt lat="46.8752" lon="8.48853">
        <ele>1750</ele>
        <time>2021-08-11T12:18:17.375Z</time>
      </trkpt>
      <trkpt lat="46.8752" lon="8.48854">
        <ele>1750</ele>
        <time>2021-08-11T12:18:18.375Z</time>
      </trkpt>
      <trkpt lat="46.8752" lon="8.48855">
        <ele>1749</ele>
        <time>2021-08-11T12:18:19.374Z</time>
      </trkpt>
      <trkpt lat="46.8752" lon="8.48855">
        <ele>1749</ele>
        <time>2021-08-11T12:18:20.375Z</time>
      </trkpt>
      <trkpt lat="46.87521" lon="8.48856">
        <ele>1750</ele>
        <time>2021-08-11T12:18:21.375Z</time>
      </trkpt>
      <trkpt lat="46.87522" lon="8.48858">
        <ele>1750</ele>
        <time>2021-08-11T12:18:22.375Z</time>
      </trkpt>
      <trkpt lat="46.87522" lon="8.48859">
        <ele>1750</ele>
        <time>2021-08-11T12:18:23.375Z</time>
      </trkpt>
      <trkpt lat="46.87522" lon="8.48861">
        <ele>1750</ele>
        <time>2021-08-11T12:18:24.374Z</time>
      </trkpt>
      <trkpt lat="46.87522" lon="8.48862">
        <ele>1751</ele>
        <time>2021-08-11T12:18:25.375Z</time>
      </trkpt>
      <trkpt lat="46.87523" lon="8.48864">
        <ele>1751</ele>
        <time>2021-08-11T12:18:26.374Z</time>
      </trkpt>
      <trkpt lat="46.87524" lon="8.48865">
        <ele>1751</ele>
        <time>2021-08-11T12:18:27.375Z</time>
      </trkpt>
      <trkpt lat="46.87525" lon="8.48866">
        <ele>1752</ele>
        <time>2021-08-11T12:18:28.374Z</time>
      </trkpt>
      <trkpt lat="46.87525" lon="8.48868">
        <ele>1752</ele>
        <time>2021-08-11T12:18:29.374Z</time>
      </trkpt>
      <trkpt lat="46.87526" lon="8.4887">
        <ele>1752</ele>
        <time>2021-08-11T12:18:30.375Z</time>
      </trkpt>
      <trkpt lat="46.87526" lon="8.48871">
        <ele>1753</ele>
        <time>2021-08-11T12:18:31.374Z</time>
      </trkpt>
      <trkpt lat="46.87526" lon="8.48871">
        <ele>1753</ele>
        <time>2021-08-11T12:18:32.375Z</time>
      </trkpt>
      <trkpt lat="46.87527" lon="8.48872">
        <ele>1753</ele>
        <time>2021-08-11T12:18:33.375Z</time>
      </trkpt>
      <trkpt lat="46.87527" lon="8.48873">
        <ele>1753</ele>
        <time>2021-08-11T12:18:34.375Z</time>
      </trkpt>
      <trkpt lat="46.87527" lon="8.48875">
        <ele>1753</ele>
        <time>2021-08-11T12:18:35.374Z</time>
      </trkpt>
      <trkpt lat="46.87528" lon="8.48877">
        <ele>1753</ele>
        <time>2021-08-11T12:18:36.374Z</time>
      </trkpt>
      <trkpt lat="46.87528" lon="8.48879">
        <ele>1753</ele>
        <time>2021-08-11T12:18:37.375Z</time>
      </trkpt>
      <trkpt lat="46.87528" lon="8.48881">
        <ele>1753</ele>
        <time>2021-08-11T12:18:38.374Z</time>
      </trkpt>
      <trkpt lat="46.87527" lon="8.48882">
        <ele>1753</ele>
        <time>2021-08-11T12:18:39.375Z</time>
      </trkpt>
      <trkpt lat="46.87529" lon="8.48884">
        <ele>1753</ele>
        <time>2021-08-11T12:18:40.374Z</time>
      </trkpt>
      <trkpt lat="46.8753" lon="8.48885">
        <ele>1753</ele>
        <time>2021-08-11T12:18:41.375Z</time>
      </trkpt>
      <trkpt lat="46.87531" lon="8.48886">
        <ele>1753</ele>
        <time>2021-08-11T12:18:42.375Z</time>
      </trkpt>
      <trkpt lat="46.87531" lon="8.48888">
        <ele>1754</ele>
        <time>2021-08-11T12:18:43.375Z</time>
      </trkpt>
      <trkpt lat="46.87532" lon="8.4889">
        <ele>1754</ele>
        <time>2021-08-11T12:18:44.375Z</time>
      </trkpt>
      <trkpt lat="46.87534" lon="8.48893">
        <ele>1754</ele>
        <time>2021-08-11T12:18:45.375Z</time>
      </trkpt>
      <trkpt lat="46.87536" lon="8.48894">
        <ele>1755</ele>
        <time>2021-08-11T12:18:46.375Z</time>
      </trkpt>
      <trkpt lat="46.87536" lon="8.48895">
        <ele>1755</ele>
        <time>2021-08-11T12:18:47.374Z</time>
      </trkpt>
      <trkpt lat="46.87536" lon="8.48895">
        <ele>1755</ele>
        <time>2021-08-11T12:18:48.375Z</time>
      </trkpt>
      <trkpt lat="46.87537" lon="8.48896">
        <ele>1756</ele>
        <time>2021-08-11T12:18:49.375Z</time>
      </trkpt>
      <trkpt lat="46.87537" lon="8.48897">
        <ele>1756</ele>
        <time>2021-08-11T12:18:50.375Z</time>
      </trkpt>
      <trkpt lat="46.87537" lon="8.48897">
        <ele>1756</ele>
        <time>2021-08-11T12:18:51.374Z</time>
      </trkpt>
      <trkpt lat="46.87537" lon="8.48898">
        <ele>1757</ele>
        <time>2021-08-11T12:18:52.375Z</time>
      </trkpt>
      <trkpt lat="46.87537" lon="8.48899">
        <ele>1757</ele>
        <time>2021-08-11T12:18:53.375Z</time>
      </trkpt>
      <trkpt lat="46.87538" lon="8.489">
        <ele>1758</ele>
        <time>2021-08-11T12:18:54.374Z</time>
      </trkpt>
      <trkpt lat="46.87538" lon="8.489">
        <ele>1758</ele>
        <time>2021-08-11T12:18:55.375Z</time>
      </trkpt>
      <trkpt lat="46.87538" lon="8.48901">
        <ele>1758</ele>
        <time>2021-08-11T12:18:56.374Z</time>
      </trkpt>
      <trkpt lat="46.87539" lon="8.48902">
        <ele>1759</ele>
        <time>2021-08-11T12:18:57.375Z</time>
      </trkpt>
      <trkpt lat="46.87539" lon="8.48903">
        <ele>1759</ele>
        <time>2021-08-11T12:18:58.375Z</time>
      </trkpt>
      <trkpt lat="46.8754" lon="8.48904">
        <ele>1760</ele>
        <time>2021-08-11T12:18:59.375Z</time>
      </trkpt>
      <trkpt lat="46.87541" lon="8.48905">
        <ele>1760</ele>
        <time>2021-08-11T12:19:00.374Z</time>
      </trkpt>
      <trkpt lat="46.87542" lon="8.48906">
        <ele>1760</ele>
        <time>2021-08-11T12:19:01.375Z</time>
      </trkpt>
      <trkpt lat="46.87543" lon="8.48907">
        <ele>1761</ele>
        <time>2021-08-11T12:19:02.375Z</time>
      </trkpt>
      <trkpt lat="46.87543" lon="8.48908">
        <ele>1761</ele>
        <time>2021-08-11T12:19:03.375Z</time>
      </trkpt>
      <trkpt lat="46.87543" lon="8.48909">
        <ele>1761</ele>
        <time>2021-08-11T12:19:04.375Z</time>
      </trkpt>
      <trkpt lat="46.87543" lon="8.48909">
        <ele>1762</ele>
        <time>2021-08-11T12:19:05.374Z</time>
      </trkpt>
      <trkpt lat="46.87543" lon="8.4891">
        <ele>1762</ele>
        <time>2021-08-11T12:19:06.375Z</time>
      </trkpt>
      <trkpt lat="46.87544" lon="8.48911">
        <ele>1763</ele>
        <time>2021-08-11T12:19:07.375Z</time>
      </trkpt>
      <trkpt lat="46.87545" lon="8.48912">
        <ele>1763</ele>
        <time>2021-08-11T12:19:08.375Z</time>
      </trkpt>
      <trkpt lat="46.87545" lon="8.48913">
        <ele>1764</ele>
        <time>2021-08-11T12:19:09.374Z</time>
      </trkpt>
      <trkpt lat="46.87546" lon="8.48914">
        <ele>1765</ele>
        <time>2021-08-11T12:19:10.375Z</time>
      </trkpt>
      <trkpt lat="46.87547" lon="8.48915">
        <ele>1765</ele>
        <time>2021-08-11T12:19:11.375Z</time>
      </trkpt>
      <trkpt lat="46.87547" lon="8.48915">
        <ele>1765</ele>
        <time>2021-08-11T12:19:12.375Z</time>
      </trkpt>
      <trkpt lat="46.87548" lon="8.48916">
        <ele>1765</ele>
        <time>2021-08-11T12:19:13.374Z</time>
      </trkpt>
      <trkpt lat="46.87548" lon="8.48917">
        <ele>1765</ele>
        <time>2021-08-11T12:19:14.375Z</time>
      </trkpt>
      <trkpt lat="46.87549" lon="8.48918">
        <ele>1765</ele>
        <time>2021-08-11T12:19:15.375Z</time>
      </trkpt>
      <trkpt lat="46.8755" lon="8.48918">
        <ele>1765</ele>
        <time>2021-08-11T12:19:16.375Z</time>
      </trkpt>
      <trkpt lat="46.8755" lon="8.48919">
        <ele>1765</ele>
        <time>2021-08-11T12:19:17.374Z</time>
      </trkpt>
      <trkpt lat="46.8755" lon="8.48919">
        <ele>1765</ele>
        <time>2021-08-11T12:19:18.374Z</time>
      </trkpt>
      <trkpt lat="46.87551" lon="8.4892">
        <ele>1765</ele>
        <time>2021-08-11T12:19:19.375Z</time>
      </trkpt>
      <trkpt lat="46.87551" lon="8.4892">
        <ele>1765</ele>
        <time>2021-08-11T12:19:20.374Z</time>
      </trkpt>
      <trkpt lat="46.87552" lon="8.4892">
        <ele>1765</ele>
        <time>2021-08-11T12:19:21.375Z</time>
      </trkpt>
      <trkpt lat="46.87553" lon="8.48921">
        <ele>1764</ele>
        <time>2021-08-11T12:19:22.375Z</time>
      </trkpt>
      <trkpt lat="46.87553" lon="8.48922">
        <ele>1764</ele>
        <time>2021-08-11T12:19:23.375Z</time>
      </trkpt>
      <trkpt lat="46.87554" lon="8.48924">
        <ele>1764</ele>
        <time>2021-08-11T12:19:24.374Z</time>
      </trkpt>
      <trkpt lat="46.87555" lon="8.48925">
        <ele>1764</ele>
        <time>2021-08-11T12:19:25.375Z</time>
      </trkpt>
      <trkpt lat="46.87556" lon="8.48925">
        <ele>1763</ele>
        <time>2021-08-11T12:19:26.375Z</time>
      </trkpt>
      <trkpt lat="46.87557" lon="8.48926">
        <ele>1763</ele>
        <time>2021-08-11T12:19:27.375Z</time>
      </trkpt>
      <trkpt lat="46.87558" lon="8.48927">
        <ele>1763</ele>
        <time>2021-08-11T12:19:28.374Z</time>
      </trkpt>
      <trkpt lat="46.87558" lon="8.48928">
        <ele>1763</ele>
        <time>2021-08-11T12:19:29.374Z</time>
      </trkpt>
      <trkpt lat="46.87559" lon="8.48929">
        <ele>1763</ele>
        <time>2021-08-11T12:19:30.374Z</time>
      </trkpt>
      <trkpt lat="46.8756" lon="8.4893">
        <ele>1762</ele>
        <time>2021-08-11T12:19:31.375Z</time>
      </trkpt>
      <trkpt lat="46.8756" lon="8.48931">
        <ele>1762</ele>
        <time>2021-08-11T12:19:32.374Z</time>
      </trkpt>
      <trkpt lat="46.87561" lon="8.48932">
        <ele>1762</ele>
        <time>2021-08-11T12:19:33.375Z</time>
      </trkpt>
      <trkpt lat="46.87561" lon="8.48932">
        <ele>1761</ele>
        <time>2021-08-11T12:19:34.375Z</time>
      </trkpt>
      <trkpt lat="46.87562" lon="8.48933">
        <ele>1761</ele>
        <time>2021-08-11T12:19:35.375Z</time>
      </trkpt>
      <trkpt lat="46.87562" lon="8.48934">
        <ele>1761</ele>
        <time>2021-08-11T12:19:36.374Z</time>
      </trkpt>
      <trkpt lat="46.87562" lon="8.48934">
        <ele>1761</ele>
        <time>2021-08-11T12:19:37.375Z</time>
      </trkpt>
      <trkpt lat="46.87562" lon="8.48934">
        <ele>1761</ele>
        <time>2021-08-11T12:19:38.375Z</time>
      </trkpt>
      <trkpt lat="46.87563" lon="8.48935">
        <ele>1761</ele>
        <time>2021-08-11T12:19:39.375Z</time>
      </trkpt>
      <trkpt lat="46.87564" lon="8.48936">
        <ele>1761</ele>
        <time>2021-08-11T12:19:40.375Z</time>
      </trkpt>
      <trkpt lat="46.87565" lon="8.48938">
        <ele>1761</ele>
        <time>2021-08-11T12:19:41.375Z</time>
      </trkpt>
      <trkpt lat="46.87567" lon="8.48939">
        <ele>1761</ele>
        <time>2021-08-11T12:19:42.375Z</time>
      </trkpt>
      <trkpt lat="46.87568" lon="8.48939">
        <ele>1762</ele>
        <time>2021-08-11T12:19:43.375Z</time>
      </trkpt>
      <trkpt lat="46.87569" lon="8.48939">
        <ele>1762</ele>
        <time>2021-08-11T12:19:44.374Z</time>
      </trkpt>
      <trkpt lat="46.8757" lon="8.48938">
        <ele>1763</ele>
        <time>2021-08-11T12:19:45.375Z</time>
      </trkpt>
      <trkpt lat="46.8757" lon="8.48938">
        <ele>1763</ele>
        <time>2021-08-11T12:19:46.375Z</time>
      </trkpt>
      <trkpt lat="46.87571" lon="8.48938">
        <ele>1763</ele>
        <time>2021-08-11T12:19:47.375Z</time>
      </trkpt>
      <trkpt lat="46.87572" lon="8.48937">
        <ele>1763</ele>
        <time>2021-08-11T12:19:48.374Z</time>
      </trkpt>
      <trkpt lat="46.87573" lon="8.48937">
        <ele>1763</ele>
        <time>2021-08-11T12:19:49.375Z</time>
      </trkpt>
      <trkpt lat="46.87573" lon="8.48937">
        <ele>1763</ele>
        <time>2021-08-11T12:19:50.374Z</time>
      </trkpt>
      <trkpt lat="46.87574" lon="8.48936">
        <ele>1763</ele>
        <time>2021-08-11T12:19:51.374Z</time>
      </trkpt>
      <trkpt lat="46.87574" lon="8.48935">
        <ele>1763</ele>
        <time>2021-08-11T12:19:52.375Z</time>
      </trkpt>
      <trkpt lat="46.87574" lon="8.48934">
        <ele>1763</ele>
        <time>2021-08-11T12:19:53.375Z</time>
      </trkpt>
      <trkpt lat="46.87574" lon="8.48933">
        <ele>1763</ele>
        <time>2021-08-11T12:19:54.375Z</time>
      </trkpt>
      <trkpt lat="46.87574" lon="8.48932">
        <ele>1763</ele>
        <time>2021-08-11T12:19:55.375Z</time>
      </trkpt>
      <trkpt lat="46.87574" lon="8.48931">
        <ele>1763</ele>
        <time>2021-08-11T12:19:56.375Z</time>
      </trkpt>
      <trkpt lat="46.87574" lon="8.48929">
        <ele>1763</ele>
        <time>2021-08-11T12:19:57.374Z</time>
      </trkpt>
      <trkpt lat="46.87574" lon="8.48928">
        <ele>1764</ele>
        <time>2021-08-11T12:19:58.374Z</time>
      </trkpt>
      <trkpt lat="46.87574" lon="8.48927">
        <ele>1764</ele>
        <time>2021-08-11T12:19:59.375Z</time>
      </trkpt>
      <trkpt lat="46.87574" lon="8.48925">
        <ele>1765</ele>
        <time>2021-08-11T12:20:00.374Z</time>
      </trkpt>
      <trkpt lat="46.87573" lon="8.48924">
        <ele>1765</ele>
        <time>2021-08-11T12:20:01.374Z</time>
      </trkpt>
      <trkpt lat="46.87572" lon="8.48921">
        <ele>1765</ele>
        <time>2021-08-11T12:20:02.374Z</time>
      </trkpt>
      <trkpt lat="46.87572" lon="8.4892">
        <ele>1766</ele>
        <time>2021-08-11T12:20:03.374Z</time>
      </trkpt>
      <trkpt lat="46.87572" lon="8.48918">
        <ele>1766</ele>
        <time>2021-08-11T12:20:04.375Z</time>
      </trkpt>
      <trkpt lat="46.87572" lon="8.48917">
        <ele>1766</ele>
        <time>2021-08-11T12:20:05.375Z</time>
      </trkpt>
      <trkpt lat="46.87571" lon="8.48915">
        <ele>1767</ele>
        <time>2021-08-11T12:20:06.375Z</time>
      </trkpt>
      <trkpt lat="46.8757" lon="8.48913">
        <ele>1767</ele>
        <time>2021-08-11T12:20:07.375Z</time>
      </trkpt>
      <trkpt lat="46.87569" lon="8.48911">
        <ele>1767</ele>
        <time>2021-08-11T12:20:08.375Z</time>
      </trkpt>
      <trkpt lat="46.87569" lon="8.4891">
        <ele>1767</ele>
        <time>2021-08-11T12:20:09.375Z</time>
      </trkpt>
      <trkpt lat="46.8757" lon="8.48909">
        <ele>1767</ele>
        <time>2021-08-11T12:20:10.374Z</time>
      </trkpt>
      <trkpt lat="46.87571" lon="8.48907">
        <ele>1768</ele>
        <time>2021-08-11T12:20:11.375Z</time>
      </trkpt>
      <trkpt lat="46.87572" lon="8.48906">
        <ele>1768</ele>
        <time>2021-08-11T12:20:12.374Z</time>
      </trkpt>
      <trkpt lat="46.87572" lon="8.48905">
        <ele>1769</ele>
        <time>2021-08-11T12:20:13.375Z</time>
      </trkpt>
      <trkpt lat="46.87571" lon="8.48904">
        <ele>1769</ele>
        <time>2021-08-11T12:20:14.374Z</time>
      </trkpt>
      <trkpt lat="46.87571" lon="8.48903">
        <ele>1770</ele>
        <time>2021-08-11T12:20:15.374Z</time>
      </trkpt>
      <trkpt lat="46.87571" lon="8.48901">
        <ele>1770</ele>
        <time>2021-08-11T12:20:16.375Z</time>
      </trkpt>
      <trkpt lat="46.8757" lon="8.489">
        <ele>1771</ele>
        <time>2021-08-11T12:20:17.375Z</time>
      </trkpt>
      <trkpt lat="46.8757" lon="8.48899">
        <ele>1771</ele>
        <time>2021-08-11T12:20:18.374Z</time>
      </trkpt>
      <trkpt lat="46.8757" lon="8.48898">
        <ele>1771</ele>
        <time>2021-08-11T12:20:19.374Z</time>
      </trkpt>
      <trkpt lat="46.87569" lon="8.48897">
        <ele>1771</ele>
        <time>2021-08-11T12:20:20.375Z</time>
      </trkpt>
      <trkpt lat="46.8757" lon="8.48896">
        <ele>1771</ele>
        <time>2021-08-11T12:20:21.375Z</time>
      </trkpt>
      <trkpt lat="46.87569" lon="8.48894">
        <ele>1771</ele>
        <time>2021-08-11T12:20:22.375Z</time>
      </trkpt>
      <trkpt lat="46.87569" lon="8.48893">
        <ele>1771</ele>
        <time>2021-08-11T12:20:23.375Z</time>
      </trkpt>
      <trkpt lat="46.87568" lon="8.48891">
        <ele>1772</ele>
        <time>2021-08-11T12:20:24.374Z</time>
      </trkpt>
      <trkpt lat="46.87568" lon="8.4889">
        <ele>1772</ele>
        <time>2021-08-11T12:20:25.375Z</time>
      </trkpt>
      <trkpt lat="46.87568" lon="8.48889">
        <ele>1773</ele>
        <time>2021-08-11T12:20:26.375Z</time>
      </trkpt>
      <trkpt lat="46.87568" lon="8.48887">
        <ele>1773</ele>
        <time>2021-08-11T12:20:27.374Z</time>
      </trkpt>
      <trkpt lat="46.87568" lon="8.48886">
        <ele>1774</ele>
        <time>2021-08-11T12:20:28.375Z</time>
      </trkpt>
      <trkpt lat="46.87568" lon="8.48885">
        <ele>1774</ele>
        <time>2021-08-11T12:20:29.374Z</time>
      </trkpt>
      <trkpt lat="46.87568" lon="8.48884">
        <ele>1774</ele>
        <time>2021-08-11T12:20:30.375Z</time>
      </trkpt>
      <trkpt lat="46.87568" lon="8.48884">
        <ele>1774</ele>
        <time>2021-08-11T12:20:31.375Z</time>
      </trkpt>
      <trkpt lat="46.87568" lon="8.48882">
        <ele>1774</ele>
        <time>2021-08-11T12:20:32.375Z</time>
      </trkpt>
      <trkpt lat="46.87568" lon="8.48881">
        <ele>1774</ele>
        <time>2021-08-11T12:20:33.375Z</time>
      </trkpt>
      <trkpt lat="46.87568" lon="8.48881">
        <ele>1774</ele>
        <time>2021-08-11T12:20:34.375Z</time>
      </trkpt>
      <trkpt lat="46.87568" lon="8.4888">
        <ele>1774</ele>
        <time>2021-08-11T12:20:35.375Z</time>
      </trkpt>
      <trkpt lat="46.87568" lon="8.48879">
        <ele>1774</ele>
        <time>2021-08-11T12:20:36.375Z</time>
      </trkpt>
      <trkpt lat="46.87568" lon="8.48879">
        <ele>1773</ele>
        <time>2021-08-11T12:20:37.375Z</time>
      </trkpt>
      <trkpt lat="46.87568" lon="8.48879">
        <ele>1774</ele>
        <time>2021-08-11T12:20:38.375Z</time>
      </trkpt>
      <trkpt lat="46.87567" lon="8.48878">
        <ele>1773</ele>
        <time>2021-08-11T12:20:39.375Z</time>
      </trkpt>
      <trkpt lat="46.87567" lon="8.48878">
        <ele>1773</ele>
        <time>2021-08-11T12:20:40.375Z</time>
      </trkpt>
      <trkpt lat="46.87566" lon="8.48877">
        <ele>1773</ele>
        <time>2021-08-11T12:20:41.374Z</time>
      </trkpt>
      <trkpt lat="46.87566" lon="8.48877">
        <ele>1772</ele>
        <time>2021-08-11T12:20:42.375Z</time>
      </trkpt>
      <trkpt lat="46.87565" lon="8.48876">
        <ele>1772</ele>
        <time>2021-08-11T12:20:43.374Z</time>
      </trkpt>
      <trkpt lat="46.87565" lon="8.48875">
        <ele>1771</ele>
        <time>2021-08-11T12:20:44.374Z</time>
      </trkpt>
      <trkpt lat="46.87565" lon="8.48873">
        <ele>1771</ele>
        <time>2021-08-11T12:20:45.374Z</time>
      </trkpt>
      <trkpt lat="46.87564" lon="8.48871">
        <ele>1771</ele>
        <time>2021-08-11T12:20:46.374Z</time>
      </trkpt>
      <trkpt lat="46.87564" lon="8.4887">
        <ele>1771</ele>
        <time>2021-08-11T12:20:47.374Z</time>
      </trkpt>
      <trkpt lat="46.87564" lon="8.48869">
        <ele>1770</ele>
        <time>2021-08-11T12:20:48.374Z</time>
      </trkpt>
      <trkpt lat="46.87564" lon="8.48868">
        <ele>1770</ele>
        <time>2021-08-11T12:20:49.374Z</time>
      </trkpt>
      <trkpt lat="46.87564" lon="8.48868">
        <ele>1770</ele>
        <time>2021-08-11T12:20:50.374Z</time>
      </trkpt>
      <trkpt lat="46.87564" lon="8.48866">
        <ele>1769</ele>
        <time>2021-08-11T12:20:51.374Z</time>
      </trkpt>
      <trkpt lat="46.87564" lon="8.48865">
        <ele>1769</ele>
        <time>2021-08-11T12:20:52.375Z</time>
      </trkpt>
      <trkpt lat="46.87564" lon="8.48864">
        <ele>1769</ele>
        <time>2021-08-11T12:20:53.374Z</time>
      </trkpt>
      <trkpt lat="46.87564" lon="8.48863">
        <ele>1769</ele>
        <time>2021-08-11T12:20:54.374Z</time>
      </trkpt>
      <trkpt lat="46.87564" lon="8.48861">
        <ele>1769</ele>
        <time>2021-08-11T12:20:55.374Z</time>
      </trkpt>
      <trkpt lat="46.87564" lon="8.48859">
        <ele>1770</ele>
        <time>2021-08-11T12:20:56.374Z</time>
      </trkpt>
      <trkpt lat="46.87564" lon="8.48858">
        <ele>1770</ele>
        <time>2021-08-11T12:20:57.375Z</time>
      </trkpt>
      <trkpt lat="46.87564" lon="8.48856">
        <ele>1770</ele>
        <time>2021-08-11T12:20:58.375Z</time>
      </trkpt>
      <trkpt lat="46.87565" lon="8.48855">
        <ele>1770</ele>
        <time>2021-08-11T12:20:59.375Z</time>
      </trkpt>
      <trkpt lat="46.87565" lon="8.48853">
        <ele>1771</ele>
        <time>2021-08-11T12:21:00.375Z</time>
      </trkpt>
      <trkpt lat="46.87564" lon="8.48851">
        <ele>1772</ele>
        <time>2021-08-11T12:21:01.375Z</time>
      </trkpt>
      <trkpt lat="46.87564" lon="8.48849">
        <ele>1772</ele>
        <time>2021-08-11T12:21:02.375Z</time>
      </trkpt>
      <trkpt lat="46.87564" lon="8.48847">
        <ele>1772</ele>
        <time>2021-08-11T12:21:03.375Z</time>
      </trkpt>
      <trkpt lat="46.87564" lon="8.48846">
        <ele>1772</ele>
        <time>2021-08-11T12:21:04.375Z</time>
      </trkpt>
      <trkpt lat="46.87564" lon="8.48844">
        <ele>1773</ele>
        <time>2021-08-11T12:21:05.374Z</time>
      </trkpt>
      <trkpt lat="46.87564" lon="8.48843">
        <ele>1773</ele>
        <time>2021-08-11T12:21:06.375Z</time>
      </trkpt>
      <trkpt lat="46.87563" lon="8.48841">
        <ele>1773</ele>
        <time>2021-08-11T12:21:07.375Z</time>
      </trkpt>
      <trkpt lat="46.87563" lon="8.48839">
        <ele>1774</ele>
        <time>2021-08-11T12:21:08.375Z</time>
      </trkpt>
      <trkpt lat="46.87564" lon="8.48838">
        <ele>1774</ele>
        <time>2021-08-11T12:21:09.375Z</time>
      </trkpt>
      <trkpt lat="46.87564" lon="8.48837">
        <ele>1774</ele>
        <time>2021-08-11T12:21:10.374Z</time>
      </trkpt>
      <trkpt lat="46.87564" lon="8.48836">
        <ele>1773</ele>
        <time>2021-08-11T12:21:11.375Z</time>
      </trkpt>
      <trkpt lat="46.87564" lon="8.48835">
        <ele>1773</ele>
        <time>2021-08-11T12:21:12.374Z</time>
      </trkpt>
      <trkpt lat="46.87565" lon="8.48834">
        <ele>1773</ele>
        <time>2021-08-11T12:21:13.375Z</time>
      </trkpt>
      <trkpt lat="46.87565" lon="8.48833">
        <ele>1772</ele>
        <time>2021-08-11T12:21:14.375Z</time>
      </trkpt>
      <trkpt lat="46.87565" lon="8.48832">
        <ele>1771</ele>
        <time>2021-08-11T12:21:15.375Z</time>
      </trkpt>
      <trkpt lat="46.87566" lon="8.48831">
        <ele>1771</ele>
        <time>2021-08-11T12:21:16.375Z</time>
      </trkpt>
      <trkpt lat="46.87566" lon="8.4883">
        <ele>1770</ele>
        <time>2021-08-11T12:21:17.375Z</time>
      </trkpt>
      <trkpt lat="46.87566" lon="8.48828">
        <ele>1770</ele>
        <time>2021-08-11T12:21:18.375Z</time>
      </trkpt>
      <trkpt lat="46.87567" lon="8.48827">
        <ele>1769</ele>
        <time>2021-08-11T12:21:19.375Z</time>
      </trkpt>
      <trkpt lat="46.87568" lon="8.48826">
        <ele>1769</ele>
        <time>2021-08-11T12:21:20.375Z</time>
      </trkpt>
      <trkpt lat="46.87569" lon="8.48825">
        <ele>1769</ele>
        <time>2021-08-11T12:21:21.374Z</time>
      </trkpt>
      <trkpt lat="46.87569" lon="8.48824">
        <ele>1769</ele>
        <time>2021-08-11T12:21:22.374Z</time>
      </trkpt>
      <trkpt lat="46.87569" lon="8.48823">
        <ele>1769</ele>
        <time>2021-08-11T12:21:23.375Z</time>
      </trkpt>
      <trkpt lat="46.8757" lon="8.48823">
        <ele>1769</ele>
        <time>2021-08-11T12:21:24.374Z</time>
      </trkpt>
      <trkpt lat="46.8757" lon="8.48822">
        <ele>1768</ele>
        <time>2021-08-11T12:21:25.375Z</time>
      </trkpt>
      <trkpt lat="46.87571" lon="8.48821">
        <ele>1768</ele>
        <time>2021-08-11T12:21:26.374Z</time>
      </trkpt>
      <trkpt lat="46.87571" lon="8.48821">
        <ele>1768</ele>
        <time>2021-08-11T12:21:27.375Z</time>
      </trkpt>
      <trkpt lat="46.87572" lon="8.48819">
        <ele>1768</ele>
        <time>2021-08-11T12:21:28.374Z</time>
      </trkpt>
      <trkpt lat="46.87572" lon="8.48818">
        <ele>1768</ele>
        <time>2021-08-11T12:21:29.375Z</time>
      </trkpt>
      <trkpt lat="46.87574" lon="8.48819">
        <ele>1769</ele>
        <time>2021-08-11T12:21:30.375Z</time>
      </trkpt>
      <trkpt lat="46.87575" lon="8.48818">
        <ele>1769</ele>
        <time>2021-08-11T12:21:31.374Z</time>
      </trkpt>
      <trkpt lat="46.87576" lon="8.48817">
        <ele>1769</ele>
        <time>2021-08-11T12:21:32.375Z</time>
      </trkpt>
      <trkpt lat="46.87576" lon="8.48817">
        <ele>1769</ele>
        <time>2021-08-11T12:21:33.374Z</time>
      </trkpt>
      <trkpt lat="46.87576" lon="8.48816">
        <ele>1768</ele>
        <time>2021-08-11T12:21:34.375Z</time>
      </trkpt>
      <trkpt lat="46.87577" lon="8.48816">
        <ele>1768</ele>
        <time>2021-08-11T12:21:35.375Z</time>
      </trkpt>
      <trkpt lat="46.87578" lon="8.48815">
        <ele>1768</ele>
        <time>2021-08-11T12:21:36.374Z</time>
      </trkpt>
      <trkpt lat="46.87578" lon="8.48815">
        <ele>1767</ele>
        <time>2021-08-11T12:21:37.375Z</time>
      </trkpt>
      <trkpt lat="46.87578" lon="8.48815">
        <ele>1767</ele>
        <time>2021-08-11T12:21:38.375Z</time>
      </trkpt>
      <trkpt lat="46.87579" lon="8.48816">
        <ele>1766</ele>
        <time>2021-08-11T12:21:39.375Z</time>
      </trkpt>
      <trkpt lat="46.87579" lon="8.48816">
        <ele>1765</ele>
        <time>2021-08-11T12:21:40.376Z</time>
      </trkpt>
      <trkpt lat="46.8758" lon="8.48817">
        <ele>1765</ele>
        <time>2021-08-11T12:21:41.377Z</time>
      </trkpt>
      <trkpt lat="46.87581" lon="8.48817">
        <ele>1765</ele>
        <time>2021-08-11T12:21:42.377Z</time>
      </trkpt>
      <trkpt lat="46.87581" lon="8.48818">
        <ele>1765</ele>
        <time>2021-08-11T12:21:43.376Z</time>
      </trkpt>
      <trkpt lat="46.87581" lon="8.48821">
        <ele>1768</ele>
        <time>2021-08-11T12:21:44.378Z</time>
      </trkpt>
      <trkpt lat="46.87581" lon="8.48821">
        <ele>1768</ele>
        <time>2021-08-11T12:21:45.377Z</time>
      </trkpt>
      <trkpt lat="46.87579" lon="8.48822">
        <ele>1770</ele>
        <time>2021-08-11T12:21:46.377Z</time>
      </trkpt>
      <trkpt lat="46.87578" lon="8.48823">
        <ele>1770</ele>
        <time>2021-08-11T12:21:47.378Z</time>
      </trkpt>
      <trkpt lat="46.87579" lon="8.48823">
        <ele>1769</ele>
        <time>2021-08-11T12:21:48.378Z</time>
      </trkpt>
      <trkpt lat="46.87579" lon="8.48822">
        <ele>1769</ele>
        <time>2021-08-11T12:21:49.378Z</time>
      </trkpt>
      <trkpt lat="46.87579" lon="8.48822">
        <ele>1769</ele>
        <time>2021-08-11T12:21:50.378Z</time>
      </trkpt>
      <trkpt lat="46.87579" lon="8.48821">
        <ele>1769</ele>
        <time>2021-08-11T12:21:51.377Z</time>
      </trkpt>
      <trkpt lat="46.87579" lon="8.48822">
        <ele>1768</ele>
        <time>2021-08-11T12:21:52.378Z</time>
      </trkpt>
      <trkpt lat="46.87579" lon="8.48822">
        <ele>1768</ele>
        <time>2021-08-11T12:21:53.378Z</time>
      </trkpt>
      <trkpt lat="46.87578" lon="8.48822">
        <ele>1768</ele>
        <time>2021-08-11T12:21:54.378Z</time>
      </trkpt>
      <trkpt lat="46.87578" lon="8.48821">
        <ele>1768</ele>
        <time>2021-08-11T12:21:55.377Z</time>
      </trkpt>
      <trkpt lat="46.87577" lon="8.4882">
        <ele>1767</ele>
        <time>2021-08-11T12:21:56.378Z</time>
      </trkpt>
      <trkpt lat="46.87577" lon="8.4882">
        <ele>1767</ele>
        <time>2021-08-11T12:21:57.378Z</time>
      </trkpt>
      <trkpt lat="46.87576" lon="8.4882">
        <ele>1767</ele>
        <time>2021-08-11T12:21:58.377Z</time>
      </trkpt>
      <trkpt lat="46.87576" lon="8.4882">
        <ele>1767</ele>
        <time>2021-08-11T12:21:59.378Z</time>
      </trkpt>
      <trkpt lat="46.87574" lon="8.48821">
        <ele>1766</ele>
        <time>2021-08-11T12:22:00.378Z</time>
      </trkpt>
      <trkpt lat="46.87573" lon="8.48816">
        <ele>1766</ele>
        <time>2021-08-11T12:22:01.378Z</time>
      </trkpt>
      <trkpt lat="46.87574" lon="8.48817">
        <ele>1765</ele>
        <time>2021-08-11T12:22:02.378Z</time>
      </trkpt>
      <trkpt lat="46.87574" lon="8.48814">
        <ele>1765</ele>
        <time>2021-08-11T12:22:03.378Z</time>
      </trkpt>
      <trkpt lat="46.87575" lon="8.4881">
        <ele>1764</ele>
        <time>2021-08-11T12:22:04.378Z</time>
      </trkpt>
      <trkpt lat="46.87575" lon="8.48809">
        <ele>1764</ele>
        <time>2021-08-11T12:22:05.377Z</time>
      </trkpt>
      <trkpt lat="46.87576" lon="8.48809">
        <ele>1764</ele>
        <time>2021-08-11T12:22:06.377Z</time>
      </trkpt>
      <trkpt lat="46.87577" lon="8.48808">
        <ele>1764</ele>
        <time>2021-08-11T12:22:07.378Z</time>
      </trkpt>
      <trkpt lat="46.87577" lon="8.48806">
        <ele>1764</ele>
        <time>2021-08-11T12:22:08.378Z</time>
      </trkpt>
      <trkpt lat="46.87577" lon="8.48804">
        <ele>1764</ele>
        <time>2021-08-11T12:22:09.378Z</time>
      </trkpt>
      <trkpt lat="46.87577" lon="8.48804">
        <ele>1764</ele>
        <time>2021-08-11T12:22:10.377Z</time>
      </trkpt>
      <trkpt lat="46.87577" lon="8.48805">
        <ele>1764</ele>
        <time>2021-08-11T12:22:11.378Z</time>
      </trkpt>
      <trkpt lat="46.87577" lon="8.48807">
        <ele>1764</ele>
        <time>2021-08-11T12:22:12.378Z</time>
      </trkpt>
      <trkpt lat="46.87577" lon="8.48811">
        <ele>1767</ele>
        <time>2021-08-11T12:22:13.378Z</time>
      </trkpt>
      <trkpt lat="46.87576" lon="8.4881">
        <ele>1767</ele>
        <time>2021-08-11T12:22:14.378Z</time>
      </trkpt>
      <trkpt lat="46.87576" lon="8.4881">
        <ele>1767</ele>
        <time>2021-08-11T12:22:15.377Z</time>
      </trkpt>
      <trkpt lat="46.87575" lon="8.48809">
        <ele>1769</ele>
        <time>2021-08-11T12:22:16.378Z</time>
      </trkpt>
      <trkpt lat="46.87574" lon="8.48809">
        <ele>1769</ele>
        <time>2021-08-11T12:22:17.377Z</time>
      </trkpt>
      <trkpt lat="46.87574" lon="8.4881">
        <ele>1769</ele>
        <time>2021-08-11T12:22:18.378Z</time>
      </trkpt>
      <trkpt lat="46.87574" lon="8.4881">
        <ele>1769</ele>
        <time>2021-08-11T12:22:19.378Z</time>
      </trkpt>
      <trkpt lat="46.87574" lon="8.48811">
        <ele>1770</ele>
        <time>2021-08-11T12:22:20.377Z</time>
      </trkpt>
      <trkpt lat="46.87576" lon="8.48811">
        <ele>1771</ele>
        <time>2021-08-11T12:22:21.378Z</time>
      </trkpt>
      <trkpt lat="46.87576" lon="8.48811">
        <ele>1771</ele>
        <time>2021-08-11T12:22:22.377Z</time>
      </trkpt>
      <trkpt lat="46.87577" lon="8.48811">
        <ele>1771</ele>
        <time>2021-08-11T12:22:23.378Z</time>
      </trkpt>
      <trkpt lat="46.87577" lon="8.4881">
        <ele>1771</ele>
        <time>2021-08-11T12:22:24.379Z</time>
      </trkpt>
      <trkpt lat="46.87577" lon="8.4881">
        <ele>1771</ele>
        <time>2021-08-11T12:22:25.378Z</time>
      </trkpt>
      <trkpt lat="46.87577" lon="8.48811">
        <ele>1771</ele>
        <time>2021-08-11T12:22:26.378Z</time>
      </trkpt>
      <trkpt lat="46.87577" lon="8.48812">
        <ele>1770</ele>
        <time>2021-08-11T12:22:27.379Z</time>
      </trkpt>
      <trkpt lat="46.87577" lon="8.48813">
        <ele>1768</ele>
        <time>2021-08-11T12:22:28.379Z</time>
      </trkpt>
      <trkpt lat="46.87578" lon="8.48812">
        <ele>1768</ele>
        <time>2021-08-11T12:22:29.379Z</time>
      </trkpt>
      <trkpt lat="46.87578" lon="8.48812">
        <ele>1768</ele>
        <time>2021-08-11T12:22:30.378Z</time>
      </trkpt>
      <trkpt lat="46.87577" lon="8.48814">
        <ele>1767</ele>
        <time>2021-08-11T12:22:31.378Z</time>
      </trkpt>
      <trkpt lat="46.87577" lon="8.48813">
        <ele>1767</ele>
        <time>2021-08-11T12:22:32.379Z</time>
      </trkpt>
      <trkpt lat="46.87576" lon="8.48815">
        <ele>1767</ele>
        <time>2021-08-11T12:22:33.379Z</time>
      </trkpt>
      <trkpt lat="46.87577" lon="8.48815">
        <ele>1767</ele>
        <time>2021-08-11T12:22:34.379Z</time>
      </trkpt>
      <trkpt lat="46.87577" lon="8.48816">
        <ele>1767</ele>
        <time>2021-08-11T12:22:35.378Z</time>
      </trkpt>
      <trkpt lat="46.87578" lon="8.48816">
        <ele>1767</ele>
        <time>2021-08-11T12:22:36.379Z</time>
      </trkpt>
      <trkpt lat="46.87579" lon="8.48817">
        <ele>1767</ele>
        <time>2021-08-11T12:22:37.378Z</time>
      </trkpt>
      <trkpt lat="46.87579" lon="8.48817">
        <ele>1767</ele>
        <time>2021-08-11T12:22:38.378Z</time>
      </trkpt>
      <trkpt lat="46.87578" lon="8.48818">
        <ele>1766</ele>
        <time>2021-08-11T12:22:39.379Z</time>
      </trkpt>
      <trkpt lat="46.87578" lon="8.48817">
        <ele>1766</ele>
        <time>2021-08-11T12:22:40.379Z</time>
      </trkpt>
      <trkpt lat="46.87577" lon="8.48817">
        <ele>1767</ele>
        <time>2021-08-11T12:22:41.379Z</time>
      </trkpt>
      <trkpt lat="46.87577" lon="8.48817">
        <ele>1767</ele>
        <time>2021-08-11T12:22:42.379Z</time>
      </trkpt>
      <trkpt lat="46.87577" lon="8.48817">
        <ele>1767</ele>
        <time>2021-08-11T12:22:43.379Z</time>
      </trkpt>
      <trkpt lat="46.87577" lon="8.48815">
        <ele>1767</ele>
        <time>2021-08-11T12:22:44.379Z</time>
      </trkpt>
      <trkpt lat="46.87577" lon="8.48815">
        <ele>1767</ele>
        <time>2021-08-11T12:22:45.380Z</time>
      </trkpt>
      <trkpt lat="46.87577" lon="8.48814">
        <ele>1767</ele>
        <time>2021-08-11T12:22:48.482Z</time>
      </trkpt>
      <trkpt lat="46.87577" lon="8.48814">
        <ele>1767</ele>
        <time>2021-08-11T12:22:49.483Z</time>
      </trkpt>
      <trkpt lat="46.87576" lon="8.48814">
        <ele>1767</ele>
        <time>2021-08-11T12:22:50.483Z</time>
      </trkpt>
      <trkpt lat="46.87576" lon="8.48813">
        <ele>1768</ele>
        <time>2021-08-11T12:22:51.482Z</time>
      </trkpt>
      <trkpt lat="46.87573" lon="8.48818">
        <ele>1767</ele>
        <time>2021-08-11T12:22:52.483Z</time>
      </trkpt>
      <trkpt lat="46.87572" lon="8.48819">
        <ele>1767</ele>
        <time>2021-08-11T12:22:53.483Z</time>
      </trkpt>
      <trkpt lat="46.87571" lon="8.4882">
        <ele>1767</ele>
        <time>2021-08-11T12:22:54.482Z</time>
      </trkpt>
      <trkpt lat="46.87571" lon="8.48822">
        <ele>1767</ele>
        <time>2021-08-11T12:22:55.483Z</time>
      </trkpt>
      <trkpt lat="46.87571" lon="8.48823">
        <ele>1767</ele>
        <time>2021-08-11T12:22:56.483Z</time>
      </trkpt>
      <trkpt lat="46.87571" lon="8.48824">
        <ele>1767</ele>
        <time>2021-08-11T12:22:57.483Z</time>
      </trkpt>
      <trkpt lat="46.87572" lon="8.48824">
        <ele>1767</ele>
        <time>2021-08-11T12:22:58.483Z</time>
      </trkpt>
      <trkpt lat="46.87572" lon="8.48824">
        <ele>1767</ele>
        <time>2021-08-11T12:22:59.482Z</time>
      </trkpt>
      <trkpt lat="46.87572" lon="8.48823">
        <ele>1767</ele>
        <time>2021-08-11T12:23:03.500Z</time>
      </trkpt>
      <trkpt lat="46.87573" lon="8.48824">
        <ele>1767</ele>
        <time>2021-08-11T12:23:04.500Z</time>
      </trkpt>
      <trkpt lat="46.87574" lon="8.48825">
        <ele>1767</ele>
        <time>2021-08-11T12:23:05.499Z</time>
      </trkpt>
      <trkpt lat="46.87573" lon="8.48827">
        <ele>1768</ele>
        <time>2021-08-11T12:23:06.502Z</time>
      </trkpt>
      <trkpt lat="46.87573" lon="8.48828">
        <ele>1768</ele>
        <time>2021-08-11T12:23:07.502Z</time>
      </trkpt>
      <trkpt lat="46.87573" lon="8.48828">
        <ele>1768</ele>
        <time>2021-08-11T12:23:08.501Z</time>
      </trkpt>
      <trkpt lat="46.87573" lon="8.48828">
        <ele>1768</ele>
        <time>2021-08-11T12:23:09.502Z</time>
      </trkpt>
      <trkpt lat="46.87573" lon="8.48828">
        <ele>1768</ele>
        <time>2021-08-11T12:23:10.502Z</time>
      </trkpt>
      <trkpt lat="46.87574" lon="8.48828">
        <ele>1768</ele>
        <time>2021-08-11T12:23:11.502Z</time>
      </trkpt>
      <trkpt lat="46.87574" lon="8.48829">
        <ele>1769</ele>
        <time>2021-08-11T12:23:12.502Z</time>
      </trkpt>
      <trkpt lat="46.87575" lon="8.4883">
        <ele>1769</ele>
        <time>2021-08-11T12:23:13.502Z</time>
      </trkpt>
      <trkpt lat="46.87576" lon="8.4883">
        <ele>1770</ele>
        <time>2021-08-11T12:23:14.502Z</time>
      </trkpt>
      <trkpt lat="46.87576" lon="8.48832">
        <ele>1770</ele>
        <time>2021-08-11T12:23:15.501Z</time>
      </trkpt>
      <trkpt lat="46.87575" lon="8.48834">
        <ele>1770</ele>
        <time>2021-08-11T12:23:16.502Z</time>
      </trkpt>
      <trkpt lat="46.87575" lon="8.48834">
        <ele>1771</ele>
        <time>2021-08-11T12:23:17.502Z</time>
      </trkpt>
      <trkpt lat="46.87574" lon="8.48834">
        <ele>1771</ele>
        <time>2021-08-11T12:23:18.502Z</time>
      </trkpt>
      <trkpt lat="46.87573" lon="8.48834">
        <ele>1771</ele>
        <time>2021-08-11T12:23:19.502Z</time>
      </trkpt>
      <trkpt lat="46.87572" lon="8.48834">
        <ele>1771</ele>
        <time>2021-08-11T12:23:20.502Z</time>
      </trkpt>
      <trkpt lat="46.87572" lon="8.48834">
        <ele>1772</ele>
        <time>2021-08-11T12:23:21.501Z</time>
      </trkpt>
      <trkpt lat="46.87572" lon="8.48834">
        <ele>1772</ele>
        <time>2021-08-11T12:23:22.502Z</time>
      </trkpt>
      <trkpt lat="46.87572" lon="8.48834">
        <ele>1772</ele>
        <time>2021-08-11T12:23:23.502Z</time>
      </trkpt>
      <trkpt lat="46.8757" lon="8.48835">
        <ele>1771</ele>
        <time>2021-08-11T12:23:24.501Z</time>
      </trkpt>
      <trkpt lat="46.87569" lon="8.48835">
        <ele>1771</ele>
        <time>2021-08-11T12:23:25.501Z</time>
      </trkpt>
      <trkpt lat="46.87572" lon="8.48836">
        <ele>1770</ele>
        <time>2021-08-11T12:23:26.502Z</time>
      </trkpt>
      <trkpt lat="46.87573" lon="8.48835">
        <ele>1770</ele>
        <time>2021-08-11T12:23:27.502Z</time>
      </trkpt>
      <trkpt lat="46.87574" lon="8.48835">
        <ele>1771</ele>
        <time>2021-08-11T12:23:28.502Z</time>
      </trkpt>
      <trkpt lat="46.87574" lon="8.48835">
        <ele>1771</ele>
        <time>2021-08-11T12:23:29.501Z</time>
      </trkpt>
      <trkpt lat="46.87574" lon="8.48834">
        <ele>1771</ele>
        <time>2021-08-11T12:23:30.501Z</time>
      </trkpt>
      <trkpt lat="46.87576" lon="8.4883">
        <ele>1772</ele>
        <time>2021-08-11T12:23:31.502Z</time>
      </trkpt>
      <trkpt lat="46.87577" lon="8.4883">
        <ele>1773</ele>
        <time>2021-08-11T12:23:32.502Z</time>
      </trkpt>
      <trkpt lat="46.87577" lon="8.48829">
        <ele>1773</ele>
        <time>2021-08-11T12:23:33.501Z</time>
      </trkpt>
      <trkpt lat="46.87577" lon="8.48827">
        <ele>1773</ele>
        <time>2021-08-11T12:23:34.501Z</time>
      </trkpt>
      <trkpt lat="46.87577" lon="8.48827">
        <ele>1774</ele>
        <time>2021-08-11T12:23:35.502Z</time>
      </trkpt>
      <trkpt lat="46.87577" lon="8.48826">
        <ele>1774</ele>
        <time>2021-08-11T12:23:36.502Z</time>
      </trkpt>
      <trkpt lat="46.87577" lon="8.48825">
        <ele>1774</ele>
        <time>2021-08-11T12:23:37.501Z</time>
      </trkpt>
      <trkpt lat="46.87576" lon="8.48824">
        <ele>1774</ele>
        <time>2021-08-11T12:23:38.501Z</time>
      </trkpt>
      <trkpt lat="46.87575" lon="8.48825">
        <ele>1775</ele>
        <time>2021-08-11T12:23:39.502Z</time>
      </trkpt>
      <trkpt lat="46.87574" lon="8.48825">
        <ele>1775</ele>
        <time>2021-08-11T12:23:40.501Z</time>
      </trkpt>
      <trkpt lat="46.87578" lon="8.4882">
        <ele>1769</ele>
        <time>2021-08-11T12:23:41.502Z</time>
      </trkpt>
      <trkpt lat="46.87579" lon="8.48821">
        <ele>1770</ele>
        <time>2021-08-11T12:23:42.502Z</time>
      </trkpt>
      <trkpt lat="46.87579" lon="8.48821">
        <ele>1770</ele>
        <time>2021-08-11T12:23:43.502Z</time>
      </trkpt>
      <trkpt lat="46.87579" lon="8.48821">
        <ele>1770</ele>
        <time>2021-08-11T12:23:44.501Z</time>
      </trkpt>
      <trkpt lat="46.87579" lon="8.48821">
        <ele>1770</ele>
        <time>2021-08-11T12:23:45.502Z</time>
      </trkpt>
      <trkpt lat="46.8758" lon="8.48816">
        <ele>1766</ele>
        <time>2021-08-11T12:23:46.502Z</time>
      </trkpt>
      <trkpt lat="46.87581" lon="8.48816">
        <ele>1766</ele>
        <time>2021-08-11T12:23:47.502Z</time>
      </trkpt>
      <trkpt lat="46.87581" lon="8.48816">
        <ele>1765</ele>
        <time>2021-08-11T12:23:48.501Z</time>
      </trkpt>
      <trkpt lat="46.87582" lon="8.48817">
        <ele>1762</ele>
        <time>2021-08-11T12:23:49.501Z</time>
      </trkpt>
      <trkpt lat="46.87582" lon="8.48816">
        <ele>1763</ele>
        <time>2021-08-11T12:23:50.501Z</time>
      </trkpt>
      <trkpt lat="46.87582" lon="8.48818">
        <ele>1762</ele>
        <time>2021-08-11T12:23:51.502Z</time>
      </trkpt>
      <trkpt lat="46.87583" lon="8.48819">
        <ele>1762</ele>
        <time>2021-08-11T12:23:52.501Z</time>
      </trkpt>
      <trkpt lat="46.87583" lon="8.48819">
        <ele>1762</ele>
        <time>2021-08-11T12:23:53.502Z</time>
      </trkpt>
      <trkpt lat="46.87582" lon="8.48819">
        <ele>1761</ele>
        <time>2021-08-11T12:23:54.501Z</time>
      </trkpt>
      <trkpt lat="46.87581" lon="8.48822">
        <ele>1761</ele>
        <time>2021-08-11T12:23:55.502Z</time>
      </trkpt>
      <trkpt lat="46.87581" lon="8.48821">
        <ele>1760</ele>
        <time>2021-08-11T12:23:56.501Z</time>
      </trkpt>
      <trkpt lat="46.87581" lon="8.4882">
        <ele>1761</ele>
        <time>2021-08-11T12:23:57.501Z</time>
      </trkpt>
      <trkpt lat="46.87581" lon="8.4882">
        <ele>1761</ele>
        <time>2021-08-11T12:23:58.502Z</time>
      </trkpt>
      <trkpt lat="46.87581" lon="8.4882">
        <ele>1761</ele>
        <time>2021-08-11T12:23:59.502Z</time>
      </trkpt>
      <trkpt lat="46.87581" lon="8.4882">
        <ele>1762</ele>
        <time>2021-08-11T12:24:00.502Z</time>
      </trkpt>
      <trkpt lat="46.87581" lon="8.4882">
        <ele>1762</ele>
        <time>2021-08-11T12:24:01.501Z</time>
      </trkpt>
      <trkpt lat="46.87581" lon="8.4882">
        <ele>1762</ele>
        <time>2021-08-11T12:24:02.502Z</time>
      </trkpt>
      <trkpt lat="46.8758" lon="8.48819">
        <ele>1761</ele>
        <time>2021-08-11T12:24:03.503Z</time>
      </trkpt>
      <trkpt lat="46.8758" lon="8.48819">
        <ele>1763</ele>
        <time>2021-08-11T12:24:04.503Z</time>
      </trkpt>
      <trkpt lat="46.8758" lon="8.48818">
        <ele>1763</ele>
        <time>2021-08-11T12:24:05.503Z</time>
      </trkpt>
      <trkpt lat="46.8758" lon="8.48817">
        <ele>1763</ele>
        <time>2021-08-11T12:24:06.503Z</time>
      </trkpt>
      <trkpt lat="46.8758" lon="8.48815">
        <ele>1762</ele>
        <time>2021-08-11T12:24:07.503Z</time>
      </trkpt>
      <trkpt lat="46.8758" lon="8.48814">
        <ele>1762</ele>
        <time>2021-08-11T12:24:08.503Z</time>
      </trkpt>
      <trkpt lat="46.8758" lon="8.48813">
        <ele>1762</ele>
        <time>2021-08-11T12:24:09.502Z</time>
      </trkpt>
      <trkpt lat="46.8758" lon="8.48812">
        <ele>1762</ele>
        <time>2021-08-11T12:24:10.503Z</time>
      </trkpt>
      <trkpt lat="46.8758" lon="8.48811">
        <ele>1762</ele>
        <time>2021-08-11T12:24:11.503Z</time>
      </trkpt>
      <trkpt lat="46.87581" lon="8.4881">
        <ele>1762</ele>
        <time>2021-08-11T12:24:12.502Z</time>
      </trkpt>
      <trkpt lat="46.87581" lon="8.48808">
        <ele>1762</ele>
        <time>2021-08-11T12:24:13.502Z</time>
      </trkpt>
      <trkpt lat="46.87582" lon="8.48807">
        <ele>1762</ele>
        <time>2021-08-11T12:24:14.503Z</time>
      </trkpt>
      <trkpt lat="46.87582" lon="8.48805">
        <ele>1762</ele>
        <time>2021-08-11T12:24:15.503Z</time>
      </trkpt>
      <trkpt lat="46.87582" lon="8.48804">
        <ele>1762</ele>
        <time>2021-08-11T12:24:16.502Z</time>
      </trkpt>
      <trkpt lat="46.87582" lon="8.48802">
        <ele>1762</ele>
        <time>2021-08-11T12:24:17.503Z</time>
      </trkpt>
      <trkpt lat="46.87582" lon="8.48801">
        <ele>1762</ele>
        <time>2021-08-11T12:24:18.503Z</time>
      </trkpt>
      <trkpt lat="46.87582" lon="8.488">
        <ele>1762</ele>
        <time>2021-08-11T12:24:19.503Z</time>
      </trkpt>
      <trkpt lat="46.87582" lon="8.48799">
        <ele>1762</ele>
        <time>2021-08-11T12:24:20.503Z</time>
      </trkpt>
      <trkpt lat="46.87583" lon="8.48798">
        <ele>1762</ele>
        <time>2021-08-11T12:24:21.503Z</time>
      </trkpt>
      <trkpt lat="46.87584" lon="8.48797">
        <ele>1762</ele>
        <time>2021-08-11T12:24:22.503Z</time>
      </trkpt>
      <trkpt lat="46.87584" lon="8.48796">
        <ele>1762</ele>
        <time>2021-08-11T12:24:23.502Z</time>
      </trkpt>
      <trkpt lat="46.87585" lon="8.48794">
        <ele>1763</ele>
        <time>2021-08-11T12:24:24.503Z</time>
      </trkpt>
      <trkpt lat="46.87585" lon="8.48792">
        <ele>1763</ele>
        <time>2021-08-11T12:24:25.503Z</time>
      </trkpt>
      <trkpt lat="46.87586" lon="8.48791">
        <ele>1763</ele>
        <time>2021-08-11T12:24:26.502Z</time>
      </trkpt>
      <trkpt lat="46.87587" lon="8.4879">
        <ele>1763</ele>
        <time>2021-08-11T12:24:27.502Z</time>
      </trkpt>
      <trkpt lat="46.87588" lon="8.48789">
        <ele>1764</ele>
        <time>2021-08-11T12:24:28.503Z</time>
      </trkpt>
      <trkpt lat="46.87589" lon="8.48788">
        <ele>1764</ele>
        <time>2021-08-11T12:24:29.502Z</time>
      </trkpt>
      <trkpt lat="46.87589" lon="8.48787">
        <ele>1764</ele>
        <time>2021-08-11T12:24:30.503Z</time>
      </trkpt>
      <trkpt lat="46.87589" lon="8.48785">
        <ele>1764</ele>
        <time>2021-08-11T12:24:31.503Z</time>
      </trkpt>
      <trkpt lat="46.87589" lon="8.48784">
        <ele>1765</ele>
        <time>2021-08-11T12:24:38.626Z</time>
      </trkpt>
      <trkpt lat="46.87589" lon="8.48782">
        <ele>1765</ele>
        <time>2021-08-11T12:24:54.399Z</time>
      </trkpt>
      <trkpt lat="46.8759" lon="8.48781">
        <ele>1765</ele>
        <time>2021-08-11T12:24:55.400Z</time>
      </trkpt>
      <trkpt lat="46.8759" lon="8.48779">
        <ele>1765</ele>
        <time>2021-08-11T12:25:05.231Z</time>
      </trkpt>
      <trkpt lat="46.8759" lon="8.48778">
        <ele>1765</ele>
        <time>2021-08-11T12:25:06.231Z</time>
      </trkpt>
      <trkpt lat="46.87591" lon="8.48777">
        <ele>1766</ele>
        <time>2021-08-11T12:25:18.107Z</time>
      </trkpt>
      <trkpt lat="46.87591" lon="8.48775">
        <ele>1766</ele>
        <time>2021-08-11T12:25:19.108Z</time>
      </trkpt>
      <trkpt lat="46.87591" lon="8.48775">
        <ele>1766</ele>
        <time>2021-08-11T12:25:20.108Z</time>
      </trkpt>
      <trkpt lat="46.87592" lon="8.48774">
        <ele>1767</ele>
        <time>2021-08-11T12:25:21.107Z</time>
      </trkpt>
      <trkpt lat="46.87592" lon="8.48773">
        <ele>1767</ele>
        <time>2021-08-11T12:25:42.103Z</time>
      </trkpt>
      <trkpt lat="46.87592" lon="8.48772">
        <ele>1767</ele>
        <time>2021-08-11T12:25:43.103Z</time>
      </trkpt>
      <trkpt lat="46.87593" lon="8.48771">
        <ele>1768</ele>
        <time>2021-08-11T12:25:44.103Z</time>
      </trkpt>
      <trkpt lat="46.87593" lon="8.4877">
        <ele>1768</ele>
        <time>2021-08-11T12:25:46.841Z</time>
      </trkpt>
      <trkpt lat="46.87594" lon="8.48769">
        <ele>1768</ele>
        <time>2021-08-11T12:25:47.840Z</time>
      </trkpt>
      <trkpt lat="46.87595" lon="8.48768">
        <ele>1769</ele>
        <time>2021-08-11T12:25:48.841Z</time>
      </trkpt>
      <trkpt lat="46.87596" lon="8.48767">
        <ele>1769</ele>
        <time>2021-08-11T12:25:49.841Z</time>
      </trkpt>
      <trkpt lat="46.87596" lon="8.48766">
        <ele>1769</ele>
        <time>2021-08-11T12:25:50.841Z</time>
      </trkpt>
      <trkpt lat="46.87597" lon="8.48766">
        <ele>1769</ele>
        <time>2021-08-11T12:25:51.841Z</time>
      </trkpt>
      <trkpt lat="46.87598" lon="8.48765">
        <ele>1769</ele>
        <time>2021-08-11T12:25:52.841Z</time>
      </trkpt>
      <trkpt lat="46.87598" lon="8.48764">
        <ele>1769</ele>
        <time>2021-08-11T12:25:53.841Z</time>
      </trkpt>
      <trkpt lat="46.87598" lon="8.48763">
        <ele>1769</ele>
        <time>2021-08-11T12:25:54.841Z</time>
      </trkpt>
      <trkpt lat="46.87599" lon="8.48762">
        <ele>1769</ele>
        <time>2021-08-11T12:25:55.840Z</time>
      </trkpt>
      <trkpt lat="46.876" lon="8.48761">
        <ele>1769</ele>
        <time>2021-08-11T12:25:56.841Z</time>
      </trkpt>
      <trkpt lat="46.876" lon="8.4876">
        <ele>1769</ele>
        <time>2021-08-11T12:25:57.841Z</time>
      </trkpt>
      <trkpt lat="46.87601" lon="8.48759">
        <ele>1769</ele>
        <time>2021-08-11T12:25:58.840Z</time>
      </trkpt>
      <trkpt lat="46.87602" lon="8.48758">
        <ele>1769</ele>
        <time>2021-08-11T12:25:59.841Z</time>
      </trkpt>
      <trkpt lat="46.87603" lon="8.48758">
        <ele>1769</ele>
        <time>2021-08-11T12:26:00.841Z</time>
      </trkpt>
      <trkpt lat="46.87603" lon="8.48757">
        <ele>1769</ele>
        <time>2021-08-11T12:26:01.841Z</time>
      </trkpt>
      <trkpt lat="46.87604" lon="8.48756">
        <ele>1769</ele>
        <time>2021-08-11T12:26:02.841Z</time>
      </trkpt>
      <trkpt lat="46.87604" lon="8.48754">
        <ele>1769</ele>
        <time>2021-08-11T12:26:03.840Z</time>
      </trkpt>
      <trkpt lat="46.87605" lon="8.48752">
        <ele>1769</ele>
        <time>2021-08-11T12:26:04.841Z</time>
      </trkpt>
      <trkpt lat="46.87605" lon="8.48751">
        <ele>1770</ele>
        <time>2021-08-11T12:26:05.841Z</time>
      </trkpt>
      <trkpt lat="46.87606" lon="8.4875">
        <ele>1770</ele>
        <time>2021-08-11T12:26:06.841Z</time>
      </trkpt>
      <trkpt lat="46.87606" lon="8.48749">
        <ele>1770</ele>
        <time>2021-08-11T12:26:07.841Z</time>
      </trkpt>
      <trkpt lat="46.87606" lon="8.48747">
        <ele>1770</ele>
        <time>2021-08-11T12:26:08.841Z</time>
      </trkpt>
      <trkpt lat="46.87607" lon="8.48746">
        <ele>1770</ele>
        <time>2021-08-11T12:26:09.841Z</time>
      </trkpt>
      <trkpt lat="46.87607" lon="8.48745">
        <ele>1770</ele>
        <time>2021-08-11T12:26:10.841Z</time>
      </trkpt>
      <trkpt lat="46.87607" lon="8.48744">
        <ele>1770</ele>
        <time>2021-08-11T12:26:21.856Z</time>
      </trkpt>
      <trkpt lat="46.87608" lon="8.48743">
        <ele>1770</ele>
        <time>2021-08-11T12:26:22.856Z</time>
      </trkpt>
      <trkpt lat="46.87608" lon="8.48741">
        <ele>1771</ele>
        <time>2021-08-11T12:26:23.856Z</time>
      </trkpt>
      <trkpt lat="46.87608" lon="8.4874">
        <ele>1771</ele>
        <time>2021-08-11T12:26:24.856Z</time>
      </trkpt>
      <trkpt lat="46.87608" lon="8.48739">
        <ele>1772</ele>
        <time>2021-08-11T12:26:25.856Z</time>
      </trkpt>
      <trkpt lat="46.87609" lon="8.48738">
        <ele>1772</ele>
        <time>2021-08-11T12:26:26.856Z</time>
      </trkpt>
      <trkpt lat="46.87609" lon="8.48737">
        <ele>1773</ele>
        <time>2021-08-11T12:26:27.855Z</time>
      </trkpt>
      <trkpt lat="46.8761" lon="8.48736">
        <ele>1772</ele>
        <time>2021-08-11T12:26:28.855Z</time>
      </trkpt>
      <trkpt lat="46.8761" lon="8.48735">
        <ele>1772</ele>
        <time>2021-08-11T12:26:29.856Z</time>
      </trkpt>
      <trkpt lat="46.8761" lon="8.48733">
        <ele>1772</ele>
        <time>2021-08-11T12:26:30.856Z</time>
      </trkpt>
      <trkpt lat="46.8761" lon="8.48732">
        <ele>1772</ele>
        <time>2021-08-11T12:26:32.966Z</time>
      </trkpt>
      <trkpt lat="46.8761" lon="8.4873">
        <ele>1772</ele>
        <time>2021-08-11T12:26:40.730Z</time>
      </trkpt>
      <trkpt lat="46.8761" lon="8.48729">
        <ele>1772</ele>
        <time>2021-08-11T12:26:41.730Z</time>
      </trkpt>
      <trkpt lat="46.8761" lon="8.48727">
        <ele>1772</ele>
        <time>2021-08-11T12:26:42.730Z</time>
      </trkpt>
      <trkpt lat="46.8761" lon="8.48726">
        <ele>1772</ele>
        <time>2021-08-11T12:26:43.729Z</time>
      </trkpt>
      <trkpt lat="46.8761" lon="8.48725">
        <ele>1772</ele>
        <time>2021-08-11T12:26:45.713Z</time>
      </trkpt>
      <trkpt lat="46.87611" lon="8.48724">
        <ele>1772</ele>
        <time>2021-08-11T12:26:53.484Z</time>
      </trkpt>
      <trkpt lat="46.87611" lon="8.48723">
        <ele>1772</ele>
        <time>2021-08-11T12:26:54.484Z</time>
      </trkpt>
      <trkpt lat="46.8761" lon="8.48721">
        <ele>1771</ele>
        <time>2021-08-11T12:26:55.484Z</time>
      </trkpt>
      <trkpt lat="46.87609" lon="8.48719">
        <ele>1771</ele>
        <time>2021-08-11T12:26:56.483Z</time>
      </trkpt>
      <trkpt lat="46.87609" lon="8.48719">
        <ele>1771</ele>
        <time>2021-08-11T12:26:57.484Z</time>
      </trkpt>
      <trkpt lat="46.87608" lon="8.48717">
        <ele>1771</ele>
        <time>2021-08-11T12:26:58.484Z</time>
      </trkpt>
      <trkpt lat="46.87607" lon="8.48715">
        <ele>1772</ele>
        <time>2021-08-11T12:27:23.622Z</time>
      </trkpt>
      <trkpt lat="46.87607" lon="8.48714">
        <ele>1772</ele>
        <time>2021-08-11T12:27:24.621Z</time>
      </trkpt>
      <trkpt lat="46.87607" lon="8.48713">
        <ele>1773</ele>
        <time>2021-08-11T12:27:25.621Z</time>
      </trkpt>
      <trkpt lat="46.87606" lon="8.48711">
        <ele>1773</ele>
        <time>2021-08-11T12:27:26.622Z</time>
      </trkpt>
      <trkpt lat="46.87606" lon="8.48709">
        <ele>1774</ele>
        <time>2021-08-11T12:27:27.621Z</time>
      </trkpt>
      <trkpt lat="46.87605" lon="8.48707">
        <ele>1774</ele>
        <time>2021-08-11T12:27:28.622Z</time>
      </trkpt>
      <trkpt lat="46.87604" lon="8.48706">
        <ele>1775</ele>
        <time>2021-08-11T12:27:36.602Z</time>
      </trkpt>
      <trkpt lat="46.87603" lon="8.48705">
        <ele>1775</ele>
        <time>2021-08-11T12:27:37.602Z</time>
      </trkpt>
      <trkpt lat="46.87603" lon="8.48705">
        <ele>1775</ele>
        <time>2021-08-11T12:27:38.602Z</time>
      </trkpt>
      <trkpt lat="46.87603" lon="8.48705">
        <ele>1775</ele>
        <time>2021-08-11T12:28:00.725Z</time>
      </trkpt>
      <trkpt lat="46.87602" lon="8.48705">
        <ele>1775</ele>
        <time>2021-08-11T12:28:01.725Z</time>
      </trkpt>
      <trkpt lat="46.87602" lon="8.48705">
        <ele>1774</ele>
        <time>2021-08-11T12:28:02.725Z</time>
      </trkpt>
      <trkpt lat="46.87603" lon="8.48705">
        <ele>1774</ele>
        <time>2021-08-11T12:28:03.725Z</time>
      </trkpt>
      <trkpt lat="46.87603" lon="8.4871">
        <ele>1770</ele>
        <time>2021-08-11T12:28:04.725Z</time>
      </trkpt>
      <trkpt lat="46.87603" lon="8.4871">
        <ele>1769</ele>
        <time>2021-08-11T12:28:11.745Z</time>
      </trkpt>
      <trkpt lat="46.87603" lon="8.48711">
        <ele>1769</ele>
        <time>2021-08-11T12:28:12.744Z</time>
      </trkpt>
      <trkpt lat="46.87603" lon="8.48711">
        <ele>1769</ele>
        <time>2021-08-11T12:28:13.744Z</time>
      </trkpt>
      <trkpt lat="46.87604" lon="8.48711">
        <ele>1769</ele>
        <time>2021-08-11T12:28:24.749Z</time>
      </trkpt>
      <trkpt lat="46.87604" lon="8.48711">
        <ele>1769</ele>
        <time>2021-08-11T12:28:37.600Z</time>
      </trkpt>
      <trkpt lat="46.87605" lon="8.48712">
        <ele>1767</ele>
        <time>2021-08-11T12:28:38.601Z</time>
      </trkpt>
      <trkpt lat="46.87605" lon="8.48713">
        <ele>1767</ele>
        <time>2021-08-11T12:28:45.475Z</time>
      </trkpt>
      <trkpt lat="46.87605" lon="8.48714">
        <ele>1767</ele>
        <time>2021-08-11T12:28:52.373Z</time>
      </trkpt>
      <trkpt lat="46.87606" lon="8.48715">
        <ele>1767</ele>
        <time>2021-08-11T12:28:53.373Z</time>
      </trkpt>
      <trkpt lat="46.87607" lon="8.48716">
        <ele>1767</ele>
        <time>2021-08-11T12:28:54.373Z</time>
      </trkpt>
      <trkpt lat="46.87609" lon="8.48717">
        <ele>1768</ele>
        <time>2021-08-11T12:28:55.373Z</time>
      </trkpt>
      <trkpt lat="46.8761" lon="8.48718">
        <ele>1768</ele>
        <time>2021-08-11T12:29:36.348Z</time>
      </trkpt>
      <trkpt lat="46.87611" lon="8.48719">
        <ele>1768</ele>
        <time>2021-08-11T12:29:37.348Z</time>
      </trkpt>
      <trkpt lat="46.87611" lon="8.48719">
        <ele>1768</ele>
        <time>2021-08-11T12:29:38.348Z</time>
      </trkpt>
      <trkpt lat="46.87612" lon="8.48719">
        <ele>1768</ele>
        <time>2021-08-11T12:29:39.347Z</time>
      </trkpt>
      <trkpt lat="46.87612" lon="8.48718">
        <ele>1768</ele>
        <time>2021-08-11T12:29:40.348Z</time>
      </trkpt>
      <trkpt lat="46.87612" lon="8.48717">
        <ele>1768</ele>
        <time>2021-08-11T12:29:45.352Z</time>
      </trkpt>
      <trkpt lat="46.87613" lon="8.48716">
        <ele>1769</ele>
        <time>2021-08-11T12:29:46.352Z</time>
      </trkpt>
      <trkpt lat="46.87613" lon="8.48716">
        <ele>1769</ele>
        <time>2021-08-11T12:29:47.352Z</time>
      </trkpt>
      <trkpt lat="46.87613" lon="8.48716">
        <ele>1769</ele>
        <time>2021-08-11T12:29:59.482Z</time>
      </trkpt>
      <trkpt lat="46.87614" lon="8.48716">
        <ele>1770</ele>
        <time>2021-08-11T12:30:00.481Z</time>
      </trkpt>
      <trkpt lat="46.87614" lon="8.48716">
        <ele>1770</ele>
        <time>2021-08-11T12:30:01.481Z</time>
      </trkpt>
      <trkpt lat="46.87615" lon="8.48716">
        <ele>1771</ele>
        <time>2021-08-11T12:30:02.482Z</time>
      </trkpt>
      <trkpt lat="46.87616" lon="8.48717">
        <ele>1772</ele>
        <time>2021-08-11T12:30:03.481Z</time>
      </trkpt>
      <trkpt lat="46.87617" lon="8.48717">
        <ele>1772</ele>
        <time>2021-08-11T12:30:04.482Z</time>
      </trkpt>
      <trkpt lat="46.87617" lon="8.48718">
        <ele>1773</ele>
        <time>2021-08-11T12:30:05.482Z</time>
      </trkpt>
      <trkpt lat="46.87617" lon="8.48719">
        <ele>1774</ele>
        <time>2021-08-11T12:30:06.482Z</time>
      </trkpt>
      <trkpt lat="46.87617" lon="8.4872">
        <ele>1774</ele>
        <time>2021-08-11T12:30:07.482Z</time>
      </trkpt>
      <trkpt lat="46.87617" lon="8.4872">
        <ele>1775</ele>
        <time>2021-08-11T12:30:08.481Z</time>
      </trkpt>
      <trkpt lat="46.87617" lon="8.4872">
        <ele>1775</ele>
        <time>2021-08-11T12:30:10.581Z</time>
      </trkpt>
      <trkpt lat="46.87617" lon="8.48721">
        <ele>1775</ele>
        <time>2021-08-11T12:30:11.582Z</time>
      </trkpt>
      <trkpt lat="46.87617" lon="8.48721">
        <ele>1776</ele>
        <time>2021-08-11T12:30:12.582Z</time>
      </trkpt>
      <trkpt lat="46.87617" lon="8.48721">
        <ele>1776</ele>
        <time>2021-08-11T12:30:13.582Z</time>
      </trkpt>
      <trkpt lat="46.87617" lon="8.4872">
        <ele>1776</ele>
        <time>2021-08-11T12:30:14.582Z</time>
      </trkpt>
      <trkpt lat="46.87617" lon="8.48718">
        <ele>1777</ele>
        <time>2021-08-11T12:30:15.581Z</time>
      </trkpt>
      <trkpt lat="46.87616" lon="8.48717">
        <ele>1777</ele>
        <time>2021-08-11T12:30:16.581Z</time>
      </trkpt>
      <trkpt lat="46.87616" lon="8.48717">
        <ele>1777</ele>
        <time>2021-08-11T12:30:17.582Z</time>
      </trkpt>
      <trkpt lat="46.87617" lon="8.48716">
        <ele>1777</ele>
        <time>2021-08-11T12:30:18.581Z</time>
      </trkpt>
      <trkpt lat="46.87617" lon="8.48716">
        <ele>1777</ele>
        <time>2021-08-11T12:30:19.582Z</time>
      </trkpt>
      <trkpt lat="46.87618" lon="8.48716">
        <ele>1778</ele>
        <time>2021-08-11T12:30:20.581Z</time>
      </trkpt>
      <trkpt lat="46.87619" lon="8.48716">
        <ele>1778</ele>
        <time>2021-08-11T12:30:21.582Z</time>
      </trkpt>
      <trkpt lat="46.87619" lon="8.48716">
        <ele>1777</ele>
        <time>2021-08-11T12:30:22.582Z</time>
      </trkpt>
      <trkpt lat="46.87619" lon="8.48716">
        <ele>1777</ele>
        <time>2021-08-11T12:30:23.582Z</time>
      </trkpt>
      <trkpt lat="46.87619" lon="8.48715">
        <ele>1778</ele>
        <time>2021-08-11T12:30:28.643Z</time>
      </trkpt>
      <trkpt lat="46.87618" lon="8.48715">
        <ele>1778</ele>
        <time>2021-08-11T12:30:29.644Z</time>
      </trkpt>
      <trkpt lat="46.87618" lon="8.48714">
        <ele>1778</ele>
        <time>2021-08-11T12:30:30.643Z</time>
      </trkpt>
      <trkpt lat="46.87618" lon="8.48713">
        <ele>1779</ele>
        <time>2021-08-11T12:30:31.644Z</time>
      </trkpt>
      <trkpt lat="46.87617" lon="8.48711">
        <ele>1779</ele>
        <time>2021-08-11T12:30:32.643Z</time>
      </trkpt>
      <trkpt lat="46.87617" lon="8.4871">
        <ele>1779</ele>
        <time>2021-08-11T12:30:33.643Z</time>
      </trkpt>
      <trkpt lat="46.87616" lon="8.4871">
        <ele>1779</ele>
        <time>2021-08-11T12:30:34.643Z</time>
      </trkpt>
      <trkpt lat="46.87614" lon="8.48705">
        <ele>1786</ele>
        <time>2021-08-11T12:30:35.644Z</time>
      </trkpt>
      <trkpt lat="46.87612" lon="8.48706">
        <ele>1786</ele>
        <time>2021-08-11T12:30:36.644Z</time>
      </trkpt>
      <trkpt lat="46.87612" lon="8.48706">
        <ele>1787</ele>
        <time>2021-08-11T12:30:37.645Z</time>
      </trkpt>
      <trkpt lat="46.87612" lon="8.48706">
        <ele>1787</ele>
        <time>2021-08-11T12:30:38.644Z</time>
      </trkpt>
      <trkpt lat="46.87611" lon="8.48705">
        <ele>1787</ele>
        <time>2021-08-11T12:30:39.645Z</time>
      </trkpt>
      <trkpt lat="46.87611" lon="8.48705">
        <ele>1787</ele>
        <time>2021-08-11T12:30:40.644Z</time>
      </trkpt>
      <trkpt lat="46.87613" lon="8.48704">
        <ele>1788</ele>
        <time>2021-08-11T12:30:41.646Z</time>
      </trkpt>
      <trkpt lat="46.87612" lon="8.48703">
        <ele>1788</ele>
        <time>2021-08-11T12:30:42.645Z</time>
      </trkpt>
      <trkpt lat="46.87612" lon="8.48702">
        <ele>1788</ele>
        <time>2021-08-11T12:30:43.646Z</time>
      </trkpt>
      <trkpt lat="46.87613" lon="8.487">
        <ele>1788</ele>
        <time>2021-08-11T12:30:44.646Z</time>
      </trkpt>
      <trkpt lat="46.87613" lon="8.487">
        <ele>1788</ele>
        <time>2021-08-11T12:30:45.646Z</time>
      </trkpt>
      <trkpt lat="46.87613" lon="8.48699">
        <ele>1788</ele>
        <time>2021-08-11T12:30:46.645Z</time>
      </trkpt>
      <trkpt lat="46.87613" lon="8.48698">
        <ele>1787</ele>
        <time>2021-08-11T12:30:47.646Z</time>
      </trkpt>
      <trkpt lat="46.87613" lon="8.48697">
        <ele>1786</ele>
        <time>2021-08-11T12:30:48.646Z</time>
      </trkpt>
      <trkpt lat="46.87613" lon="8.48696">
        <ele>1785</ele>
        <time>2021-08-11T12:30:49.645Z</time>
      </trkpt>
      <trkpt lat="46.87613" lon="8.48695">
        <ele>1785</ele>
        <time>2021-08-11T12:30:50.646Z</time>
      </trkpt>
      <trkpt lat="46.87613" lon="8.48694">
        <ele>1784</ele>
        <time>2021-08-11T12:30:51.646Z</time>
      </trkpt>
      <trkpt lat="46.87613" lon="8.48693">
        <ele>1784</ele>
        <time>2021-08-11T12:30:52.645Z</time>
      </trkpt>
      <trkpt lat="46.87614" lon="8.48692">
        <ele>1783</ele>
        <time>2021-08-11T12:30:53.646Z</time>
      </trkpt>
      <trkpt lat="46.87613" lon="8.48691">
        <ele>1783</ele>
        <time>2021-08-11T12:30:54.646Z</time>
      </trkpt>
      <trkpt lat="46.87613" lon="8.4869">
        <ele>1782</ele>
        <time>2021-08-11T12:30:59.723Z</time>
      </trkpt>
      <trkpt lat="46.87614" lon="8.48689">
        <ele>1782</ele>
        <time>2021-08-11T12:31:00.722Z</time>
      </trkpt>
      <trkpt lat="46.87614" lon="8.48688">
        <ele>1782</ele>
        <time>2021-08-11T12:31:37.473Z</time>
      </trkpt>
      <trkpt lat="46.87615" lon="8.48687">
        <ele>1781</ele>
        <time>2021-08-11T12:31:38.473Z</time>
      </trkpt>
      <trkpt lat="46.87614" lon="8.48686">
        <ele>1781</ele>
        <time>2021-08-11T12:31:39.472Z</time>
      </trkpt>
      <trkpt lat="46.87614" lon="8.48684">
        <ele>1782</ele>
        <time>2021-08-11T12:31:40.473Z</time>
      </trkpt>
      <trkpt lat="46.87614" lon="8.48684">
        <ele>1782</ele>
        <time>2021-08-11T12:32:20.476Z</time>
      </trkpt>
      <trkpt lat="46.87615" lon="8.48683">
        <ele>1782</ele>
        <time>2021-08-11T12:32:21.475Z</time>
      </trkpt>
      <trkpt lat="46.87615" lon="8.48682">
        <ele>1782</ele>
        <time>2021-08-11T12:32:22.476Z</time>
      </trkpt>
      <trkpt lat="46.87616" lon="8.48681">
        <ele>1783</ele>
        <time>2021-08-11T12:32:23.476Z</time>
      </trkpt>
      <trkpt lat="46.87616" lon="8.48681">
        <ele>1783</ele>
        <time>2021-08-11T12:32:24.476Z</time>
      </trkpt>
      <trkpt lat="46.87617" lon="8.4868">
        <ele>1783</ele>
        <time>2021-08-11T12:32:25.475Z</time>
      </trkpt>
      <trkpt lat="46.87617" lon="8.4868">
        <ele>1782</ele>
        <time>2021-08-11T12:32:26.476Z</time>
      </trkpt>
      <trkpt lat="46.87617" lon="8.48679">
        <ele>1781</ele>
        <time>2021-08-11T12:32:27.476Z</time>
      </trkpt>
      <trkpt lat="46.87618" lon="8.48678">
        <ele>1781</ele>
        <time>2021-08-11T12:32:28.475Z</time>
      </trkpt>
      <trkpt lat="46.87618" lon="8.48677">
        <ele>1780</ele>
        <time>2021-08-11T12:32:29.476Z</time>
      </trkpt>
      <trkpt lat="46.87618" lon="8.48676">
        <ele>1780</ele>
        <time>2021-08-11T12:32:30.476Z</time>
      </trkpt>
      <trkpt lat="46.87619" lon="8.48675">
        <ele>1779</ele>
        <time>2021-08-11T12:32:31.475Z</time>
      </trkpt>
      <trkpt lat="46.87619" lon="8.48674">
        <ele>1779</ele>
        <time>2021-08-11T12:32:32.475Z</time>
      </trkpt>
      <trkpt lat="46.87619" lon="8.48674">
        <ele>1778</ele>
        <time>2021-08-11T12:32:33.476Z</time>
      </trkpt>
      <trkpt lat="46.87619" lon="8.48673">
        <ele>1777</ele>
        <time>2021-08-11T12:32:34.475Z</time>
      </trkpt>
      <trkpt lat="46.87619" lon="8.48673">
        <ele>1777</ele>
        <time>2021-08-11T12:32:35.476Z</time>
      </trkpt>
      <trkpt lat="46.87622" lon="8.48674">
        <ele>1773</ele>
        <time>2021-08-11T12:32:36.476Z</time>
      </trkpt>
      <trkpt lat="46.87623" lon="8.48673">
        <ele>1773</ele>
        <time>2021-08-11T12:32:37.477Z</time>
      </trkpt>
      <trkpt lat="46.87623" lon="8.48672">
        <ele>1773</ele>
        <time>2021-08-11T12:32:38.476Z</time>
      </trkpt>
      <trkpt lat="46.87623" lon="8.48671">
        <ele>1773</ele>
        <time>2021-08-11T12:32:39.477Z</time>
      </trkpt>
      <trkpt lat="46.87623" lon="8.4867">
        <ele>1773</ele>
        <time>2021-08-11T12:32:40.477Z</time>
      </trkpt>
      <trkpt lat="46.87623" lon="8.48669">
        <ele>1773</ele>
        <time>2021-08-11T12:32:41.476Z</time>
      </trkpt>
      <trkpt lat="46.87623" lon="8.48667">
        <ele>1773</ele>
        <time>2021-08-11T12:32:42.477Z</time>
      </trkpt>
      <trkpt lat="46.87622" lon="8.48665">
        <ele>1773</ele>
        <time>2021-08-11T12:32:43.477Z</time>
      </trkpt>
      <trkpt lat="46.87622" lon="8.48664">
        <ele>1773</ele>
        <time>2021-08-11T12:32:44.476Z</time>
      </trkpt>
      <trkpt lat="46.87621" lon="8.48663">
        <ele>1772</ele>
        <time>2021-08-11T12:32:45.477Z</time>
      </trkpt>
      <trkpt lat="46.8762" lon="8.48663">
        <ele>1772</ele>
        <time>2021-08-11T12:32:46.477Z</time>
      </trkpt>
      <trkpt lat="46.87619" lon="8.48662">
        <ele>1772</ele>
        <time>2021-08-11T12:32:47.477Z</time>
      </trkpt>
      <trkpt lat="46.87619" lon="8.48662">
        <ele>1772</ele>
        <time>2021-08-11T12:32:48.476Z</time>
      </trkpt>
      <trkpt lat="46.87618" lon="8.48662">
        <ele>1772</ele>
        <time>2021-08-11T12:32:49.476Z</time>
      </trkpt>
      <trkpt lat="46.87617" lon="8.48662">
        <ele>1771</ele>
        <time>2021-08-11T12:32:50.476Z</time>
      </trkpt>
      <trkpt lat="46.87617" lon="8.48661">
        <ele>1771</ele>
        <time>2021-08-11T12:32:51.476Z</time>
      </trkpt>
      <trkpt lat="46.87616" lon="8.48661">
        <ele>1770</ele>
        <time>2021-08-11T12:32:52.477Z</time>
      </trkpt>
      <trkpt lat="46.87616" lon="8.4866">
        <ele>1770</ele>
        <time>2021-08-11T12:32:53.477Z</time>
      </trkpt>
      <trkpt lat="46.87615" lon="8.4866">
        <ele>1770</ele>
        <time>2021-08-11T12:32:54.477Z</time>
      </trkpt>
      <trkpt lat="46.87615" lon="8.4866">
        <ele>1770</ele>
        <time>2021-08-11T12:32:55.476Z</time>
      </trkpt>
      <trkpt lat="46.87614" lon="8.4866">
        <ele>1770</ele>
        <time>2021-08-11T12:32:56.477Z</time>
      </trkpt>
      <trkpt lat="46.87615" lon="8.48664">
        <ele>1770</ele>
        <time>2021-08-11T12:32:57.478Z</time>
      </trkpt>
      <trkpt lat="46.87615" lon="8.48664">
        <ele>1770</ele>
        <time>2021-08-11T12:32:58.477Z</time>
      </trkpt>
      <trkpt lat="46.87615" lon="8.48664">
        <ele>1770</ele>
        <time>2021-08-11T12:32:59.478Z</time>
      </trkpt>
      <trkpt lat="46.87614" lon="8.48664">
        <ele>1774</ele>
        <time>2021-08-11T12:33:00.479Z</time>
      </trkpt>
      <trkpt lat="46.87615" lon="8.48664">
        <ele>1774</ele>
        <time>2021-08-11T12:33:01.478Z</time>
      </trkpt>
      <trkpt lat="46.87615" lon="8.48664">
        <ele>1774</ele>
        <time>2021-08-11T12:33:02.479Z</time>
      </trkpt>
      <trkpt lat="46.87615" lon="8.48665">
        <ele>1775</ele>
        <time>2021-08-11T12:33:03.478Z</time>
      </trkpt>
      <trkpt lat="46.87615" lon="8.48665">
        <ele>1775</ele>
        <time>2021-08-11T12:33:04.479Z</time>
      </trkpt>
      <trkpt lat="46.87616" lon="8.48665">
        <ele>1775</ele>
        <time>2021-08-11T12:33:05.479Z</time>
      </trkpt>
      <trkpt lat="46.87615" lon="8.48663">
        <ele>1778</ele>
        <time>2021-08-11T12:33:06.479Z</time>
      </trkpt>
      <trkpt lat="46.87615" lon="8.48663">
        <ele>1778</ele>
        <time>2021-08-11T12:33:07.479Z</time>
      </trkpt>
      <trkpt lat="46.87612" lon="8.48658">
        <ele>1776</ele>
        <time>2021-08-11T12:33:08.480Z</time>
      </trkpt>
      <trkpt lat="46.87611" lon="8.48657">
        <ele>1776</ele>
        <time>2021-08-11T12:33:09.480Z</time>
      </trkpt>
      <trkpt lat="46.87611" lon="8.48657">
        <ele>1775</ele>
        <time>2021-08-11T12:33:10.479Z</time>
      </trkpt>
      <trkpt lat="46.8761" lon="8.48656">
        <ele>1775</ele>
        <time>2021-08-11T12:33:11.479Z</time>
      </trkpt>
      <trkpt lat="46.87609" lon="8.48655">
        <ele>1775</ele>
        <time>2021-08-11T12:33:12.479Z</time>
      </trkpt>
      <trkpt lat="46.87608" lon="8.48655">
        <ele>1775</ele>
        <time>2021-08-11T12:33:13.479Z</time>
      </trkpt>
      <trkpt lat="46.87607" lon="8.48654">
        <ele>1775</ele>
        <time>2021-08-11T12:33:14.479Z</time>
      </trkpt>
      <trkpt lat="46.87606" lon="8.48654">
        <ele>1775</ele>
        <time>2021-08-11T12:33:15.479Z</time>
      </trkpt>
      <trkpt lat="46.87606" lon="8.48653">
        <ele>1774</ele>
        <time>2021-08-11T12:33:16.479Z</time>
      </trkpt>
      <trkpt lat="46.87606" lon="8.48652">
        <ele>1774</ele>
        <time>2021-08-11T12:33:17.480Z</time>
      </trkpt>
      <trkpt lat="46.87605" lon="8.48652">
        <ele>1774</ele>
        <time>2021-08-11T12:33:18.479Z</time>
      </trkpt>
      <trkpt lat="46.87605" lon="8.48652">
        <ele>1774</ele>
        <time>2021-08-11T12:33:19.479Z</time>
      </trkpt>
      <trkpt lat="46.87604" lon="8.48651">
        <ele>1774</ele>
        <time>2021-08-11T12:33:20.480Z</time>
      </trkpt>
      <trkpt lat="46.87603" lon="8.4865">
        <ele>1774</ele>
        <time>2021-08-11T12:33:21.479Z</time>
      </trkpt>
      <trkpt lat="46.87602" lon="8.48649">
        <ele>1774</ele>
        <time>2021-08-11T12:33:22.480Z</time>
      </trkpt>
      <trkpt lat="46.87601" lon="8.48648">
        <ele>1774</ele>
        <time>2021-08-11T12:33:23.479Z</time>
      </trkpt>
      <trkpt lat="46.87601" lon="8.48647">
        <ele>1774</ele>
        <time>2021-08-11T12:33:24.479Z</time>
      </trkpt>
      <trkpt lat="46.87601" lon="8.48646">
        <ele>1774</ele>
        <time>2021-08-11T12:33:25.479Z</time>
      </trkpt>
      <trkpt lat="46.876" lon="8.48646">
        <ele>1774</ele>
        <time>2021-08-11T12:33:26.480Z</time>
      </trkpt>
      <trkpt lat="46.876" lon="8.48646">
        <ele>1773</ele>
        <time>2021-08-11T12:33:27.479Z</time>
      </trkpt>
      <trkpt lat="46.87599" lon="8.48646">
        <ele>1773</ele>
        <time>2021-08-11T12:33:28.480Z</time>
      </trkpt>
      <trkpt lat="46.87599" lon="8.48645">
        <ele>1773</ele>
        <time>2021-08-11T12:33:29.479Z</time>
      </trkpt>
      <trkpt lat="46.87598" lon="8.48644">
        <ele>1774</ele>
        <time>2021-08-11T12:33:30.479Z</time>
      </trkpt>
      <trkpt lat="46.87596" lon="8.48644">
        <ele>1774</ele>
        <time>2021-08-11T12:33:31.480Z</time>
      </trkpt>
      <trkpt lat="46.87596" lon="8.48644">
        <ele>1774</ele>
        <time>2021-08-11T12:33:32.479Z</time>
      </trkpt>
      <trkpt lat="46.87595" lon="8.48644">
        <ele>1775</ele>
        <time>2021-08-11T12:33:33.479Z</time>
      </trkpt>
      <trkpt lat="46.87594" lon="8.48643">
        <ele>1775</ele>
        <time>2021-08-11T12:33:34.479Z</time>
      </trkpt>
      <trkpt lat="46.87593" lon="8.48641">
        <ele>1775</ele>
        <time>2021-08-11T12:33:35.479Z</time>
      </trkpt>
      <trkpt lat="46.87593" lon="8.4864">
        <ele>1776</ele>
        <time>2021-08-11T12:33:36.479Z</time>
      </trkpt>
      <trkpt lat="46.87592" lon="8.48639">
        <ele>1776</ele>
        <time>2021-08-11T12:33:37.479Z</time>
      </trkpt>
      <trkpt lat="46.87592" lon="8.48638">
        <ele>1776</ele>
        <time>2021-08-11T12:33:38.479Z</time>
      </trkpt>
      <trkpt lat="46.87591" lon="8.48637">
        <ele>1777</ele>
        <time>2021-08-11T12:33:39.479Z</time>
      </trkpt>
      <trkpt lat="46.87591" lon="8.48637">
        <ele>1777</ele>
        <time>2021-08-11T12:33:40.480Z</time>
      </trkpt>
      <trkpt lat="46.87591" lon="8.48636">
        <ele>1777</ele>
        <time>2021-08-11T12:33:41.479Z</time>
      </trkpt>
      <trkpt lat="46.87591" lon="8.48634">
        <ele>1777</ele>
        <time>2021-08-11T12:33:42.479Z</time>
      </trkpt>
      <trkpt lat="46.87591" lon="8.48633">
        <ele>1777</ele>
        <time>2021-08-11T12:33:43.479Z</time>
      </trkpt>
      <trkpt lat="46.8759" lon="8.48632">
        <ele>1777</ele>
        <time>2021-08-11T12:33:44.479Z</time>
      </trkpt>
      <trkpt lat="46.8759" lon="8.48632">
        <ele>1777</ele>
        <time>2021-08-11T12:33:45.480Z</time>
      </trkpt>
      <trkpt lat="46.8759" lon="8.48631">
        <ele>1777</ele>
        <time>2021-08-11T12:33:46.479Z</time>
      </trkpt>
      <trkpt lat="46.87591" lon="8.4863">
        <ele>1777</ele>
        <time>2021-08-11T12:33:47.479Z</time>
      </trkpt>
      <trkpt lat="46.87591" lon="8.4863">
        <ele>1777</ele>
        <time>2021-08-11T12:33:48.479Z</time>
      </trkpt>
      <trkpt lat="46.87591" lon="8.48628">
        <ele>1777</ele>
        <time>2021-08-11T12:33:49.479Z</time>
      </trkpt>
      <trkpt lat="46.8759" lon="8.48628">
        <ele>1778</ele>
        <time>2021-08-11T12:33:50.479Z</time>
      </trkpt>
      <trkpt lat="46.87591" lon="8.48627">
        <ele>1778</ele>
        <time>2021-08-11T12:33:51.479Z</time>
      </trkpt>
      <trkpt lat="46.87591" lon="8.48626">
        <ele>1778</ele>
        <time>2021-08-11T12:33:52.479Z</time>
      </trkpt>
      <trkpt lat="46.8759" lon="8.48625">
        <ele>1778</ele>
        <time>2021-08-11T12:33:53.479Z</time>
      </trkpt>
      <trkpt lat="46.87591" lon="8.48625">
        <ele>1778</ele>
        <time>2021-08-11T12:33:54.480Z</time>
      </trkpt>
      <trkpt lat="46.87591" lon="8.48624">
        <ele>1778</ele>
        <time>2021-08-11T12:33:55.479Z</time>
      </trkpt>
      <trkpt lat="46.87591" lon="8.48623">
        <ele>1778</ele>
        <time>2021-08-11T12:33:56.480Z</time>
      </trkpt>
      <trkpt lat="46.87591" lon="8.48622">
        <ele>1778</ele>
        <time>2021-08-11T12:33:57.479Z</time>
      </trkpt>
      <trkpt lat="46.87591" lon="8.48621">
        <ele>1778</ele>
        <time>2021-08-11T12:33:58.479Z</time>
      </trkpt>
      <trkpt lat="46.87591" lon="8.48619">
        <ele>1778</ele>
        <time>2021-08-11T12:33:59.479Z</time>
      </trkpt>
      <trkpt lat="46.8759" lon="8.48617">
        <ele>1778</ele>
        <time>2021-08-11T12:34:00.479Z</time>
      </trkpt>
      <trkpt lat="46.8759" lon="8.48615">
        <ele>1778</ele>
        <time>2021-08-11T12:34:01.479Z</time>
      </trkpt>
      <trkpt lat="46.87589" lon="8.48613">
        <ele>1778</ele>
        <time>2021-08-11T12:34:02.479Z</time>
      </trkpt>
      <trkpt lat="46.87589" lon="8.48612">
        <ele>1778</ele>
        <time>2021-08-11T12:34:03.479Z</time>
      </trkpt>
      <trkpt lat="46.87588" lon="8.4861">
        <ele>1778</ele>
        <time>2021-08-11T12:34:04.480Z</time>
      </trkpt>
      <trkpt lat="46.87587" lon="8.48607">
        <ele>1779</ele>
        <time>2021-08-11T12:34:05.479Z</time>
      </trkpt>
      <trkpt lat="46.87586" lon="8.48605">
        <ele>1779</ele>
        <time>2021-08-11T12:34:06.479Z</time>
      </trkpt>
      <trkpt lat="46.87585" lon="8.48603">
        <ele>1779</ele>
        <time>2021-08-11T12:34:07.479Z</time>
      </trkpt>
      <trkpt lat="46.87585" lon="8.48601">
        <ele>1779</ele>
        <time>2021-08-11T12:34:08.479Z</time>
      </trkpt>
      <trkpt lat="46.87584" lon="8.48599">
        <ele>1779</ele>
        <time>2021-08-11T12:34:09.479Z</time>
      </trkpt>
      <trkpt lat="46.87583" lon="8.48598">
        <ele>1779</ele>
        <time>2021-08-11T12:34:10.479Z</time>
      </trkpt>
      <trkpt lat="46.87583" lon="8.48597">
        <ele>1779</ele>
        <time>2021-08-11T12:34:11.479Z</time>
      </trkpt>
      <trkpt lat="46.87582" lon="8.48596">
        <ele>1779</ele>
        <time>2021-08-11T12:34:12.479Z</time>
      </trkpt>
      <trkpt lat="46.87581" lon="8.48595">
        <ele>1779</ele>
        <time>2021-08-11T12:34:13.479Z</time>
      </trkpt>
      <trkpt lat="46.87581" lon="8.48593">
        <ele>1779</ele>
        <time>2021-08-11T12:34:14.479Z</time>
      </trkpt>
      <trkpt lat="46.87581" lon="8.48591">
        <ele>1779</ele>
        <time>2021-08-11T12:34:15.479Z</time>
      </trkpt>
      <trkpt lat="46.8758" lon="8.4859">
        <ele>1779</ele>
        <time>2021-08-11T12:34:16.479Z</time>
      </trkpt>
      <trkpt lat="46.8758" lon="8.48588">
        <ele>1779</ele>
        <time>2021-08-11T12:34:17.479Z</time>
      </trkpt>
      <trkpt lat="46.87579" lon="8.48587">
        <ele>1779</ele>
        <time>2021-08-11T12:34:18.479Z</time>
      </trkpt>
      <trkpt lat="46.87577" lon="8.48585">
        <ele>1779</ele>
        <time>2021-08-11T12:34:19.479Z</time>
      </trkpt>
      <trkpt lat="46.87576" lon="8.48584">
        <ele>1778</ele>
        <time>2021-08-11T12:34:20.479Z</time>
      </trkpt>
      <trkpt lat="46.87574" lon="8.48583">
        <ele>1778</ele>
        <time>2021-08-11T12:34:21.479Z</time>
      </trkpt>
      <trkpt lat="46.87573" lon="8.48581">
        <ele>1778</ele>
        <time>2021-08-11T12:34:22.479Z</time>
      </trkpt>
      <trkpt lat="46.87572" lon="8.4858">
        <ele>1778</ele>
        <time>2021-08-11T12:34:23.480Z</time>
      </trkpt>
      <trkpt lat="46.87572" lon="8.48579">
        <ele>1778</ele>
        <time>2021-08-11T12:34:24.479Z</time>
      </trkpt>
      <trkpt lat="46.87571" lon="8.48578">
        <ele>1777</ele>
        <time>2021-08-11T12:34:25.480Z</time>
      </trkpt>
      <trkpt lat="46.87571" lon="8.48577">
        <ele>1777</ele>
        <time>2021-08-11T12:34:26.480Z</time>
      </trkpt>
      <trkpt lat="46.87572" lon="8.48576">
        <ele>1777</ele>
        <time>2021-08-11T12:34:27.479Z</time>
      </trkpt>
      <trkpt lat="46.87572" lon="8.48576">
        <ele>1777</ele>
        <time>2021-08-11T12:34:28.479Z</time>
      </trkpt>
      <trkpt lat="46.87572" lon="8.48574">
        <ele>1777</ele>
        <time>2021-08-11T12:34:29.479Z</time>
      </trkpt>
      <trkpt lat="46.87572" lon="8.48573">
        <ele>1777</ele>
        <time>2021-08-11T12:34:30.479Z</time>
      </trkpt>
      <trkpt lat="46.87572" lon="8.48571">
        <ele>1777</ele>
        <time>2021-08-11T12:34:31.479Z</time>
      </trkpt>
      <trkpt lat="46.87572" lon="8.4857">
        <ele>1777</ele>
        <time>2021-08-11T12:34:32.480Z</time>
      </trkpt>
      <trkpt lat="46.87571" lon="8.48568">
        <ele>1777</ele>
        <time>2021-08-11T12:34:33.479Z</time>
      </trkpt>
      <trkpt lat="46.87571" lon="8.48566">
        <ele>1777</ele>
        <time>2021-08-11T12:34:34.479Z</time>
      </trkpt>
      <trkpt lat="46.87569" lon="8.48565">
        <ele>1777</ele>
        <time>2021-08-11T12:34:35.479Z</time>
      </trkpt>
      <trkpt lat="46.87569" lon="8.48564">
        <ele>1777</ele>
        <time>2021-08-11T12:34:36.479Z</time>
      </trkpt>
      <trkpt lat="46.87569" lon="8.48563">
        <ele>1777</ele>
        <time>2021-08-11T12:34:37.479Z</time>
      </trkpt>
      <trkpt lat="46.87568" lon="8.48561">
        <ele>1777</ele>
        <time>2021-08-11T12:34:38.479Z</time>
      </trkpt>
      <trkpt lat="46.87567" lon="8.48559">
        <ele>1777</ele>
        <time>2021-08-11T12:34:39.480Z</time>
      </trkpt>
      <trkpt lat="46.87564" lon="8.48556">
        <ele>1777</ele>
        <time>2021-08-11T12:34:40.479Z</time>
      </trkpt>
      <trkpt lat="46.87561" lon="8.48552">
        <ele>1777</ele>
        <time>2021-08-11T12:34:41.479Z</time>
      </trkpt>
      <trkpt lat="46.87558" lon="8.4855">
        <ele>1777</ele>
        <time>2021-08-11T12:34:42.479Z</time>
      </trkpt>
      <trkpt lat="46.87557" lon="8.48547">
        <ele>1777</ele>
        <time>2021-08-11T12:34:43.479Z</time>
      </trkpt>
      <trkpt lat="46.87555" lon="8.48546">
        <ele>1777</ele>
        <time>2021-08-11T12:34:44.479Z</time>
      </trkpt>
      <trkpt lat="46.87554" lon="8.48544">
        <ele>1777</ele>
        <time>2021-08-11T12:34:45.479Z</time>
      </trkpt>
      <trkpt lat="46.87553" lon="8.48542">
        <ele>1777</ele>
        <time>2021-08-11T12:34:46.479Z</time>
      </trkpt>
      <trkpt lat="46.87552" lon="8.4854">
        <ele>1777</ele>
        <time>2021-08-11T12:34:47.479Z</time>
      </trkpt>
      <trkpt lat="46.87552" lon="8.48539">
        <ele>1777</ele>
        <time>2021-08-11T12:34:48.479Z</time>
      </trkpt>
      <trkpt lat="46.87552" lon="8.48538">
        <ele>1777</ele>
        <time>2021-08-11T12:34:49.480Z</time>
      </trkpt>
      <trkpt lat="46.87552" lon="8.48536">
        <ele>1778</ele>
        <time>2021-08-11T12:34:50.479Z</time>
      </trkpt>
      <trkpt lat="46.87552" lon="8.48535">
        <ele>1778</ele>
        <time>2021-08-11T12:34:51.479Z</time>
      </trkpt>
      <trkpt lat="46.87551" lon="8.48533">
        <ele>1778</ele>
        <time>2021-08-11T12:34:52.480Z</time>
      </trkpt>
      <trkpt lat="46.87551" lon="8.48532">
        <ele>1778</ele>
        <time>2021-08-11T12:34:53.479Z</time>
      </trkpt>
      <trkpt lat="46.87552" lon="8.4853">
        <ele>1778</ele>
        <time>2021-08-11T12:34:54.479Z</time>
      </trkpt>
      <trkpt lat="46.87552" lon="8.48529">
        <ele>1778</ele>
        <time>2021-08-11T12:34:55.479Z</time>
      </trkpt>
      <trkpt lat="46.87553" lon="8.48528">
        <ele>1778</ele>
        <time>2021-08-11T12:34:56.479Z</time>
      </trkpt>
      <trkpt lat="46.87553" lon="8.48527">
        <ele>1777</ele>
        <time>2021-08-11T12:34:57.479Z</time>
      </trkpt>
      <trkpt lat="46.87554" lon="8.48526">
        <ele>1777</ele>
        <time>2021-08-11T12:34:58.479Z</time>
      </trkpt>
      <trkpt lat="46.87555" lon="8.48525">
        <ele>1777</ele>
        <time>2021-08-11T12:34:59.479Z</time>
      </trkpt>
      <trkpt lat="46.87555" lon="8.48523">
        <ele>1777</ele>
        <time>2021-08-11T12:35:00.479Z</time>
      </trkpt>
      <trkpt lat="46.87555" lon="8.48522">
        <ele>1777</ele>
        <time>2021-08-11T12:35:01.479Z</time>
      </trkpt>
      <trkpt lat="46.87555" lon="8.4852">
        <ele>1777</ele>
        <time>2021-08-11T12:35:02.479Z</time>
      </trkpt>
      <trkpt lat="46.87555" lon="8.48519">
        <ele>1777</ele>
        <time>2021-08-11T12:35:03.479Z</time>
      </trkpt>
      <trkpt lat="46.87555" lon="8.48517">
        <ele>1777</ele>
        <time>2021-08-11T12:35:04.479Z</time>
      </trkpt>
      <trkpt lat="46.87556" lon="8.48517">
        <ele>1776</ele>
        <time>2021-08-11T12:35:05.479Z</time>
      </trkpt>
      <trkpt lat="46.87557" lon="8.48516">
        <ele>1776</ele>
        <time>2021-08-11T12:35:06.480Z</time>
      </trkpt>
      <trkpt lat="46.87559" lon="8.48515">
        <ele>1776</ele>
        <time>2021-08-11T12:35:07.479Z</time>
      </trkpt>
      <trkpt lat="46.87561" lon="8.48513">
        <ele>1776</ele>
        <time>2021-08-11T12:35:08.480Z</time>
      </trkpt>
      <trkpt lat="46.87561" lon="8.48512">
        <ele>1776</ele>
        <time>2021-08-11T12:35:09.479Z</time>
      </trkpt>
      <trkpt lat="46.87562" lon="8.48511">
        <ele>1776</ele>
        <time>2021-08-11T12:35:10.479Z</time>
      </trkpt>
      <trkpt lat="46.87563" lon="8.48509">
        <ele>1776</ele>
        <time>2021-08-11T12:35:11.479Z</time>
      </trkpt>
      <trkpt lat="46.87565" lon="8.48508">
        <ele>1776</ele>
        <time>2021-08-11T12:35:12.480Z</time>
      </trkpt>
      <trkpt lat="46.87566" lon="8.48508">
        <ele>1776</ele>
        <time>2021-08-11T12:35:13.479Z</time>
      </trkpt>
      <trkpt lat="46.87568" lon="8.48507">
        <ele>1776</ele>
        <time>2021-08-11T12:35:14.479Z</time>
      </trkpt>
      <trkpt lat="46.87569" lon="8.48506">
        <ele>1776</ele>
        <time>2021-08-11T12:35:15.479Z</time>
      </trkpt>
      <trkpt lat="46.87571" lon="8.48505">
        <ele>1775</ele>
        <time>2021-08-11T12:35:28.475Z</time>
      </trkpt>
      <trkpt lat="46.87572" lon="8.48503">
        <ele>1775</ele>
        <time>2021-08-11T12:35:29.475Z</time>
      </trkpt>
      <trkpt lat="46.87572" lon="8.48501">
        <ele>1775</ele>
        <time>2021-08-11T12:35:30.476Z</time>
      </trkpt>
      <trkpt lat="46.87572" lon="8.48499">
        <ele>1775</ele>
        <time>2021-08-11T12:35:31.476Z</time>
      </trkpt>
      <trkpt lat="46.87571" lon="8.48497">
        <ele>1775</ele>
        <time>2021-08-11T12:35:32.475Z</time>
      </trkpt>
      <trkpt lat="46.87571" lon="8.48496">
        <ele>1775</ele>
        <time>2021-08-11T12:35:33.475Z</time>
      </trkpt>
      <trkpt lat="46.87571" lon="8.48495">
        <ele>1775</ele>
        <time>2021-08-11T12:35:34.476Z</time>
      </trkpt>
      <trkpt lat="46.8757" lon="8.48493">
        <ele>1775</ele>
        <time>2021-08-11T12:35:35.475Z</time>
      </trkpt>
      <trkpt lat="46.87571" lon="8.48492">
        <ele>1775</ele>
        <time>2021-08-11T12:35:36.475Z</time>
      </trkpt>
      <trkpt lat="46.87571" lon="8.4849">
        <ele>1775</ele>
        <time>2021-08-11T12:35:37.475Z</time>
      </trkpt>
      <trkpt lat="46.8757" lon="8.48489">
        <ele>1775</ele>
        <time>2021-08-11T12:35:38.475Z</time>
      </trkpt>
      <trkpt lat="46.87569" lon="8.48489">
        <ele>1775</ele>
        <time>2021-08-11T12:35:39.475Z</time>
      </trkpt>
      <trkpt lat="46.87567" lon="8.48488">
        <ele>1774</ele>
        <time>2021-08-11T12:35:40.475Z</time>
      </trkpt>
      <trkpt lat="46.87565" lon="8.48486">
        <ele>1774</ele>
        <time>2021-08-11T12:35:41.475Z</time>
      </trkpt>
      <trkpt lat="46.87563" lon="8.48485">
        <ele>1774</ele>
        <time>2021-08-11T12:35:42.475Z</time>
      </trkpt>
      <trkpt lat="46.87563" lon="8.48484">
        <ele>1774</ele>
        <time>2021-08-11T12:35:43.475Z</time>
      </trkpt>
      <trkpt lat="46.87564" lon="8.48482">
        <ele>1774</ele>
        <time>2021-08-11T12:35:44.475Z</time>
      </trkpt>
      <trkpt lat="46.87565" lon="8.48482">
        <ele>1774</ele>
        <time>2021-08-11T12:35:45.475Z</time>
      </trkpt>
      <trkpt lat="46.87567" lon="8.48482">
        <ele>1774</ele>
        <time>2021-08-11T12:35:46.475Z</time>
      </trkpt>
      <trkpt lat="46.8757" lon="8.48481">
        <ele>1774</ele>
        <time>2021-08-11T12:35:47.476Z</time>
      </trkpt>
      <trkpt lat="46.87571" lon="8.4848">
        <ele>1774</ele>
        <time>2021-08-11T12:35:48.475Z</time>
      </trkpt>
      <trkpt lat="46.87573" lon="8.48479">
        <ele>1774</ele>
        <time>2021-08-11T12:35:49.475Z</time>
      </trkpt>
      <trkpt lat="46.87574" lon="8.48477">
        <ele>1774</ele>
        <time>2021-08-11T12:35:50.475Z</time>
      </trkpt>
      <trkpt lat="46.87575" lon="8.48475">
        <ele>1774</ele>
        <time>2021-08-11T12:35:51.475Z</time>
      </trkpt>
      <trkpt lat="46.87575" lon="8.48473">
        <ele>1774</ele>
        <time>2021-08-11T12:35:52.475Z</time>
      </trkpt>
      <trkpt lat="46.87575" lon="8.48472">
        <ele>1773</ele>
        <time>2021-08-11T12:35:53.475Z</time>
      </trkpt>
      <trkpt lat="46.87576" lon="8.48472">
        <ele>1773</ele>
        <time>2021-08-11T12:35:54.476Z</time>
      </trkpt>
      <trkpt lat="46.87577" lon="8.4847">
        <ele>1773</ele>
        <time>2021-08-11T12:35:55.475Z</time>
      </trkpt>
      <trkpt lat="46.87579" lon="8.4847">
        <ele>1773</ele>
        <time>2021-08-11T12:35:56.475Z</time>
      </trkpt>
      <trkpt lat="46.87579" lon="8.48469">
        <ele>1773</ele>
        <time>2021-08-11T12:35:57.476Z</time>
      </trkpt>
      <trkpt lat="46.87579" lon="8.48468">
        <ele>1773</ele>
        <time>2021-08-11T12:35:58.476Z</time>
      </trkpt>
      <trkpt lat="46.87579" lon="8.48467">
        <ele>1773</ele>
        <time>2021-08-11T12:35:59.475Z</time>
      </trkpt>
      <trkpt lat="46.87578" lon="8.48466">
        <ele>1773</ele>
        <time>2021-08-11T12:36:00.475Z</time>
      </trkpt>
      <trkpt lat="46.87578" lon="8.48464">
        <ele>1773</ele>
        <time>2021-08-11T12:36:01.475Z</time>
      </trkpt>
      <trkpt lat="46.87576" lon="8.48463">
        <ele>1773</ele>
        <time>2021-08-11T12:36:10.491Z</time>
      </trkpt>
      <trkpt lat="46.87577" lon="8.48461">
        <ele>1773</ele>
        <time>2021-08-11T12:36:11.492Z</time>
      </trkpt>
      <trkpt lat="46.87576" lon="8.4846">
        <ele>1773</ele>
        <time>2021-08-11T12:36:21.242Z</time>
      </trkpt>
      <trkpt lat="46.87577" lon="8.48459">
        <ele>1773</ele>
        <time>2021-08-11T12:36:28.108Z</time>
      </trkpt>
      <trkpt lat="46.87576" lon="8.48458">
        <ele>1773</ele>
        <time>2021-08-11T12:36:29.108Z</time>
      </trkpt>
      <trkpt lat="46.87576" lon="8.48456">
        <ele>1773</ele>
        <time>2021-08-11T12:36:30.108Z</time>
      </trkpt>
      <trkpt lat="46.87575" lon="8.48454">
        <ele>1773</ele>
        <time>2021-08-11T12:36:31.108Z</time>
      </trkpt>
      <trkpt lat="46.87577" lon="8.48453">
        <ele>1773</ele>
        <time>2021-08-11T12:36:32.108Z</time>
      </trkpt>
      <trkpt lat="46.87578" lon="8.48451">
        <ele>1773</ele>
        <time>2021-08-11T12:36:33.109Z</time>
      </trkpt>
      <trkpt lat="46.87579" lon="8.48451">
        <ele>1773</ele>
        <time>2021-08-11T12:36:34.108Z</time>
      </trkpt>
      <trkpt lat="46.8758" lon="8.4845">
        <ele>1774</ele>
        <time>2021-08-11T12:36:35.109Z</time>
      </trkpt>
      <trkpt lat="46.87578" lon="8.48449">
        <ele>1774</ele>
        <time>2021-08-11T12:36:36.108Z</time>
      </trkpt>
      <trkpt lat="46.87576" lon="8.48447">
        <ele>1774</ele>
        <time>2021-08-11T12:36:37.108Z</time>
      </trkpt>
      <trkpt lat="46.87576" lon="8.48445">
        <ele>1774</ele>
        <time>2021-08-11T12:36:38.108Z</time>
      </trkpt>
      <trkpt lat="46.87575" lon="8.48444">
        <ele>1774</ele>
        <time>2021-08-11T12:36:39.109Z</time>
      </trkpt>
      <trkpt lat="46.87574" lon="8.48442">
        <ele>1774</ele>
        <time>2021-08-11T12:36:40.108Z</time>
      </trkpt>
      <trkpt lat="46.87574" lon="8.4844">
        <ele>1775</ele>
        <time>2021-08-11T12:36:41.108Z</time>
      </trkpt>
      <trkpt lat="46.87575" lon="8.4844">
        <ele>1775</ele>
        <time>2021-08-11T12:36:42.108Z</time>
      </trkpt>
      <trkpt lat="46.87577" lon="8.4844">
        <ele>1775</ele>
        <time>2021-08-11T12:36:43.108Z</time>
      </trkpt>
      <trkpt lat="46.87578" lon="8.4844">
        <ele>1775</ele>
        <time>2021-08-11T12:36:44.108Z</time>
      </trkpt>
      <trkpt lat="46.87579" lon="8.4844">
        <ele>1775</ele>
        <time>2021-08-11T12:36:45.108Z</time>
      </trkpt>
      <trkpt lat="46.87579" lon="8.4844">
        <ele>1775</ele>
        <time>2021-08-11T12:36:46.108Z</time>
      </trkpt>
      <trkpt lat="46.87578" lon="8.48439">
        <ele>1775</ele>
        <time>2021-08-11T12:36:47.108Z</time>
      </trkpt>
      <trkpt lat="46.87576" lon="8.48438">
        <ele>1775</ele>
        <time>2021-08-11T12:36:48.108Z</time>
      </trkpt>
      <trkpt lat="46.87576" lon="8.48437">
        <ele>1775</ele>
        <time>2021-08-11T12:36:49.108Z</time>
      </trkpt>
      <trkpt lat="46.87575" lon="8.48436">
        <ele>1775</ele>
        <time>2021-08-11T12:36:50.108Z</time>
      </trkpt>
      <trkpt lat="46.87571" lon="8.48434">
        <ele>1774</ele>
        <time>2021-08-11T12:36:51.108Z</time>
      </trkpt>
      <trkpt lat="46.87568" lon="8.48432">
        <ele>1774</ele>
        <time>2021-08-11T12:36:52.108Z</time>
      </trkpt>
      <trkpt lat="46.87565" lon="8.48429">
        <ele>1774</ele>
        <time>2021-08-11T12:36:53.108Z</time>
      </trkpt>
      <trkpt lat="46.87564" lon="8.48428">
        <ele>1774</ele>
        <time>2021-08-11T12:36:54.108Z</time>
      </trkpt>
      <trkpt lat="46.87561" lon="8.48424">
        <ele>1774</ele>
        <time>2021-08-11T12:36:55.108Z</time>
      </trkpt>
      <trkpt lat="46.87561" lon="8.48423">
        <ele>1774</ele>
        <time>2021-08-11T12:36:56.108Z</time>
      </trkpt>
      <trkpt lat="46.87561" lon="8.48422">
        <ele>1774</ele>
        <time>2021-08-11T12:36:57.108Z</time>
      </trkpt>
      <trkpt lat="46.87564" lon="8.48422">
        <ele>1774</ele>
        <time>2021-08-11T12:36:58.108Z</time>
      </trkpt>
      <trkpt lat="46.87566" lon="8.48422">
        <ele>1774</ele>
        <time>2021-08-11T12:36:59.108Z</time>
      </trkpt>
      <trkpt lat="46.87571" lon="8.48421">
        <ele>1774</ele>
        <time>2021-08-11T12:37:00.108Z</time>
      </trkpt>
      <trkpt lat="46.87571" lon="8.4842">
        <ele>1773</ele>
        <time>2021-08-11T12:37:01.108Z</time>
      </trkpt>
      <trkpt lat="46.87572" lon="8.48419">
        <ele>1773</ele>
        <time>2021-08-11T12:37:02.108Z</time>
      </trkpt>
      <trkpt lat="46.87572" lon="8.48418">
        <ele>1774</ele>
        <time>2021-08-11T12:37:03.108Z</time>
      </trkpt>
      <trkpt lat="46.87573" lon="8.48417">
        <ele>1774</ele>
        <time>2021-08-11T12:37:04.108Z</time>
      </trkpt>
      <trkpt lat="46.87574" lon="8.48416">
        <ele>1774</ele>
        <time>2021-08-11T12:37:05.108Z</time>
      </trkpt>
      <trkpt lat="46.87576" lon="8.48415">
        <ele>1774</ele>
        <time>2021-08-11T12:37:06.108Z</time>
      </trkpt>
      <trkpt lat="46.87578" lon="8.48414">
        <ele>1774</ele>
        <time>2021-08-11T12:37:07.108Z</time>
      </trkpt>
      <trkpt lat="46.87579" lon="8.48413">
        <ele>1773</ele>
        <time>2021-08-11T12:37:08.108Z</time>
      </trkpt>
      <trkpt lat="46.8758" lon="8.48412">
        <ele>1773</ele>
        <time>2021-08-11T12:37:09.108Z</time>
      </trkpt>
      <trkpt lat="46.87581" lon="8.48411">
        <ele>1773</ele>
        <time>2021-08-11T12:37:10.109Z</time>
      </trkpt>
      <trkpt lat="46.87582" lon="8.4841">
        <ele>1773</ele>
        <time>2021-08-11T12:37:11.108Z</time>
      </trkpt>
      <trkpt lat="46.87583" lon="8.48409">
        <ele>1773</ele>
        <time>2021-08-11T12:37:12.108Z</time>
      </trkpt>
      <trkpt lat="46.87585" lon="8.48408">
        <ele>1773</ele>
        <time>2021-08-11T12:37:17.250Z</time>
      </trkpt>
      <trkpt lat="46.87587" lon="8.48406">
        <ele>1773</ele>
        <time>2021-08-11T12:37:18.250Z</time>
      </trkpt>
      <trkpt lat="46.87587" lon="8.48405">
        <ele>1773</ele>
        <time>2021-08-11T12:37:23.104Z</time>
      </trkpt>
      <trkpt lat="46.87588" lon="8.48404">
        <ele>1774</ele>
        <time>2021-08-11T12:37:24.104Z</time>
      </trkpt>
      <trkpt lat="46.87591" lon="8.48403">
        <ele>1774</ele>
        <time>2021-08-11T12:37:25.104Z</time>
      </trkpt>
      <trkpt lat="46.87593" lon="8.48403">
        <ele>1774</ele>
        <time>2021-08-11T12:37:53.852Z</time>
      </trkpt>
      <trkpt lat="46.87593" lon="8.48404">
        <ele>1774</ele>
        <time>2021-08-11T12:37:56.634Z</time>
      </trkpt>
      <trkpt lat="46.87594" lon="8.48403">
        <ele>1774</ele>
        <time>2021-08-11T12:37:57.635Z</time>
      </trkpt>
      <trkpt lat="46.87594" lon="8.48402">
        <ele>1774</ele>
        <time>2021-08-11T12:38:01.494Z</time>
      </trkpt>
      <trkpt lat="46.87594" lon="8.484">
        <ele>1774</ele>
        <time>2021-08-11T12:38:02.493Z</time>
      </trkpt>
      <trkpt lat="46.87595" lon="8.48397">
        <ele>1774</ele>
        <time>2021-08-11T12:38:03.493Z</time>
      </trkpt>
      <trkpt lat="46.87596" lon="8.48396">
        <ele>1774</ele>
        <time>2021-08-11T12:38:04.493Z</time>
      </trkpt>
      <trkpt lat="46.87598" lon="8.48395">
        <ele>1774</ele>
        <time>2021-08-11T12:38:05.493Z</time>
      </trkpt>
      <trkpt lat="46.876" lon="8.48394">
        <ele>1775</ele>
        <time>2021-08-11T12:38:06.493Z</time>
      </trkpt>
      <trkpt lat="46.87602" lon="8.48393">
        <ele>1775</ele>
        <time>2021-08-11T12:38:07.493Z</time>
      </trkpt>
      <trkpt lat="46.87604" lon="8.48393">
        <ele>1775</ele>
        <time>2021-08-11T12:38:08.493Z</time>
      </trkpt>
      <trkpt lat="46.87606" lon="8.48392">
        <ele>1776</ele>
        <time>2021-08-11T12:38:09.493Z</time>
      </trkpt>
      <trkpt lat="46.87607" lon="8.4839">
        <ele>1776</ele>
        <time>2021-08-11T12:38:10.493Z</time>
      </trkpt>
      <trkpt lat="46.87607" lon="8.48388">
        <ele>1776</ele>
        <time>2021-08-11T12:38:11.493Z</time>
      </trkpt>
      <trkpt lat="46.87607" lon="8.48386">
        <ele>1776</ele>
        <time>2021-08-11T12:38:12.493Z</time>
      </trkpt>
      <trkpt lat="46.87608" lon="8.48385">
        <ele>1776</ele>
        <time>2021-08-11T12:38:13.493Z</time>
      </trkpt>
      <trkpt lat="46.87609" lon="8.48384">
        <ele>1776</ele>
        <time>2021-08-11T12:38:14.494Z</time>
      </trkpt>
      <trkpt lat="46.87609" lon="8.48383">
        <ele>1776</ele>
        <time>2021-08-11T12:38:15.493Z</time>
      </trkpt>
      <trkpt lat="46.8761" lon="8.48382">
        <ele>1776</ele>
        <time>2021-08-11T12:38:16.493Z</time>
      </trkpt>
      <trkpt lat="46.87611" lon="8.48382">
        <ele>1776</ele>
        <time>2021-08-11T12:38:17.493Z</time>
      </trkpt>
      <trkpt lat="46.87612" lon="8.48381">
        <ele>1776</ele>
        <time>2021-08-11T12:38:18.494Z</time>
      </trkpt>
      <trkpt lat="46.87613" lon="8.4838">
        <ele>1776</ele>
        <time>2021-08-11T12:38:19.493Z</time>
      </trkpt>
      <trkpt lat="46.87614" lon="8.48379">
        <ele>1776</ele>
        <time>2021-08-11T12:38:20.493Z</time>
      </trkpt>
      <trkpt lat="46.87616" lon="8.48378">
        <ele>1776</ele>
        <time>2021-08-11T12:38:21.493Z</time>
      </trkpt>
      <trkpt lat="46.87617" lon="8.48376">
        <ele>1777</ele>
        <time>2021-08-11T12:38:22.493Z</time>
      </trkpt>
      <trkpt lat="46.87617" lon="8.48375">
        <ele>1777</ele>
        <time>2021-08-11T12:38:23.493Z</time>
      </trkpt>
      <trkpt lat="46.87617" lon="8.48374">
        <ele>1777</ele>
        <time>2021-08-11T12:38:24.494Z</time>
      </trkpt>
      <trkpt lat="46.87616" lon="8.48373">
        <ele>1777</ele>
        <time>2021-08-11T12:38:25.493Z</time>
      </trkpt>
      <trkpt lat="46.87617" lon="8.48372">
        <ele>1778</ele>
        <time>2021-08-11T12:38:26.493Z</time>
      </trkpt>
      <trkpt lat="46.87617" lon="8.48371">
        <ele>1778</ele>
        <time>2021-08-11T12:38:27.493Z</time>
      </trkpt>
      <trkpt lat="46.87619" lon="8.4837">
        <ele>1778</ele>
        <time>2021-08-11T12:38:28.493Z</time>
      </trkpt>
      <trkpt lat="46.8762" lon="8.4837">
        <ele>1778</ele>
        <time>2021-08-11T12:38:29.493Z</time>
      </trkpt>
      <trkpt lat="46.87618" lon="8.48369">
        <ele>1779</ele>
        <time>2021-08-11T12:38:30.493Z</time>
      </trkpt>
      <trkpt lat="46.87618" lon="8.48367">
        <ele>1779</ele>
        <time>2021-08-11T12:38:31.494Z</time>
      </trkpt>
      <trkpt lat="46.8762" lon="8.48368">
        <ele>1779</ele>
        <time>2021-08-11T12:38:32.493Z</time>
      </trkpt>
      <trkpt lat="46.87621" lon="8.48368">
        <ele>1779</ele>
        <time>2021-08-11T12:38:35.518Z</time>
      </trkpt>
      <trkpt lat="46.87623" lon="8.48368">
        <ele>1779</ele>
        <time>2021-08-11T12:38:36.518Z</time>
      </trkpt>
      <trkpt lat="46.87624" lon="8.48368">
        <ele>1780</ele>
        <time>2021-08-11T12:38:37.519Z</time>
      </trkpt>
      <trkpt lat="46.87624" lon="8.48367">
        <ele>1780</ele>
        <time>2021-08-11T12:38:38.519Z</time>
      </trkpt>
      <trkpt lat="46.87624" lon="8.48366">
        <ele>1780</ele>
        <time>2021-08-11T12:38:39.518Z</time>
      </trkpt>
      <trkpt lat="46.87624" lon="8.48365">
        <ele>1781</ele>
        <time>2021-08-11T12:38:40.518Z</time>
      </trkpt>
      <trkpt lat="46.87626" lon="8.48365">
        <ele>1781</ele>
        <time>2021-08-11T12:38:41.518Z</time>
      </trkpt>
      <trkpt lat="46.87626" lon="8.48364">
        <ele>1781</ele>
        <time>2021-08-11T12:38:42.518Z</time>
      </trkpt>
      <trkpt lat="46.87627" lon="8.48363">
        <ele>1782</ele>
        <time>2021-08-11T12:38:43.518Z</time>
      </trkpt>
      <trkpt lat="46.87627" lon="8.48363">
        <ele>1782</ele>
        <time>2021-08-11T12:38:44.518Z</time>
      </trkpt>
      <trkpt lat="46.87627" lon="8.48362">
        <ele>1782</ele>
        <time>2021-08-11T12:38:45.518Z</time>
      </trkpt>
      <trkpt lat="46.87627" lon="8.48362">
        <ele>1782</ele>
        <time>2021-08-11T12:38:46.519Z</time>
      </trkpt>
      <trkpt lat="46.87627" lon="8.48361">
        <ele>1782</ele>
        <time>2021-08-11T12:38:47.519Z</time>
      </trkpt>
      <trkpt lat="46.87627" lon="8.4836">
        <ele>1782</ele>
        <time>2021-08-11T12:38:48.520Z</time>
      </trkpt>
      <trkpt lat="46.87629" lon="8.4836">
        <ele>1782</ele>
        <time>2021-08-11T12:38:49.520Z</time>
      </trkpt>
      <trkpt lat="46.8763" lon="8.48359">
        <ele>1782</ele>
        <time>2021-08-11T12:38:50.520Z</time>
      </trkpt>
      <trkpt lat="46.87631" lon="8.48358">
        <ele>1782</ele>
        <time>2021-08-11T12:38:51.520Z</time>
      </trkpt>
      <trkpt lat="46.87632" lon="8.48357">
        <ele>1782</ele>
        <time>2021-08-11T12:38:52.520Z</time>
      </trkpt>
      <trkpt lat="46.87633" lon="8.48356">
        <ele>1781</ele>
        <time>2021-08-11T12:38:53.520Z</time>
      </trkpt>
      <trkpt lat="46.87633" lon="8.48355">
        <ele>1781</ele>
        <time>2021-08-11T12:38:54.520Z</time>
      </trkpt>
      <trkpt lat="46.87633" lon="8.48354">
        <ele>1781</ele>
        <time>2021-08-11T12:38:55.519Z</time>
      </trkpt>
      <trkpt lat="46.87632" lon="8.48353">
        <ele>1781</ele>
        <time>2021-08-11T12:38:56.519Z</time>
      </trkpt>
      <trkpt lat="46.87632" lon="8.48352">
        <ele>1780</ele>
        <time>2021-08-11T12:38:57.520Z</time>
      </trkpt>
      <trkpt lat="46.87633" lon="8.48351">
        <ele>1780</ele>
        <time>2021-08-11T12:38:58.519Z</time>
      </trkpt>
      <trkpt lat="46.87632" lon="8.4835">
        <ele>1780</ele>
        <time>2021-08-11T12:38:59.520Z</time>
      </trkpt>
      <trkpt lat="46.87633" lon="8.48349">
        <ele>1780</ele>
        <time>2021-08-11T12:39:00.520Z</time>
      </trkpt>
      <trkpt lat="46.87633" lon="8.48348">
        <ele>1780</ele>
        <time>2021-08-11T12:39:01.520Z</time>
      </trkpt>
      <trkpt lat="46.87634" lon="8.48347">
        <ele>1780</ele>
        <time>2021-08-11T12:39:02.520Z</time>
      </trkpt>
      <trkpt lat="46.87635" lon="8.48347">
        <ele>1780</ele>
        <time>2021-08-11T12:39:03.520Z</time>
      </trkpt>
      <trkpt lat="46.87635" lon="8.48346">
        <ele>1780</ele>
        <time>2021-08-11T12:39:04.520Z</time>
      </trkpt>
      <trkpt lat="46.87635" lon="8.48345">
        <ele>1780</ele>
        <time>2021-08-11T12:39:05.520Z</time>
      </trkpt>
      <trkpt lat="46.87635" lon="8.48343">
        <ele>1780</ele>
        <time>2021-08-11T12:39:06.520Z</time>
      </trkpt>
      <trkpt lat="46.87635" lon="8.48342">
        <ele>1780</ele>
        <time>2021-08-11T12:39:07.519Z</time>
      </trkpt>
      <trkpt lat="46.87636" lon="8.48341">
        <ele>1780</ele>
        <time>2021-08-11T12:39:08.519Z</time>
      </trkpt>
      <trkpt lat="46.87636" lon="8.4834">
        <ele>1780</ele>
        <time>2021-08-11T12:39:09.520Z</time>
      </trkpt>
      <trkpt lat="46.87636" lon="8.48339">
        <ele>1780</ele>
        <time>2021-08-11T12:39:10.519Z</time>
      </trkpt>
      <trkpt lat="46.87636" lon="8.48338">
        <ele>1781</ele>
        <time>2021-08-11T12:39:11.519Z</time>
      </trkpt>
      <trkpt lat="46.87637" lon="8.48337">
        <ele>1781</ele>
        <time>2021-08-11T12:39:12.519Z</time>
      </trkpt>
      <trkpt lat="46.87638" lon="8.48335">
        <ele>1781</ele>
        <time>2021-08-11T12:39:13.520Z</time>
      </trkpt>
      <trkpt lat="46.87639" lon="8.48334">
        <ele>1781</ele>
        <time>2021-08-11T12:39:14.520Z</time>
      </trkpt>
      <trkpt lat="46.87639" lon="8.48333">
        <ele>1781</ele>
        <time>2021-08-11T12:39:15.520Z</time>
      </trkpt>
      <trkpt lat="46.87639" lon="8.48332">
        <ele>1781</ele>
        <time>2021-08-11T12:39:17.636Z</time>
      </trkpt>
      <trkpt lat="46.87639" lon="8.48331">
        <ele>1781</ele>
        <time>2021-08-11T12:39:18.636Z</time>
      </trkpt>
      <trkpt lat="46.87639" lon="8.4833">
        <ele>1781</ele>
        <time>2021-08-11T12:39:19.637Z</time>
      </trkpt>
      <trkpt lat="46.87639" lon="8.48329">
        <ele>1781</ele>
        <time>2021-08-11T12:39:20.637Z</time>
      </trkpt>
      <trkpt lat="46.8764" lon="8.48328">
        <ele>1781</ele>
        <time>2021-08-11T12:39:21.636Z</time>
      </trkpt>
      <trkpt lat="46.87641" lon="8.48327">
        <ele>1781</ele>
        <time>2021-08-11T12:39:22.637Z</time>
      </trkpt>
      <trkpt lat="46.87641" lon="8.48326">
        <ele>1782</ele>
        <time>2021-08-11T12:39:23.637Z</time>
      </trkpt>
      <trkpt lat="46.87643" lon="8.48325">
        <ele>1782</ele>
        <time>2021-08-11T12:39:24.637Z</time>
      </trkpt>
      <trkpt lat="46.87644" lon="8.48325">
        <ele>1782</ele>
        <time>2021-08-11T12:39:25.637Z</time>
      </trkpt>
      <trkpt lat="46.87645" lon="8.48324">
        <ele>1782</ele>
        <time>2021-08-11T12:39:26.637Z</time>
      </trkpt>
      <trkpt lat="46.87646" lon="8.48322">
        <ele>1782</ele>
        <time>2021-08-11T12:39:27.636Z</time>
      </trkpt>
      <trkpt lat="46.87648" lon="8.48321">
        <ele>1782</ele>
        <time>2021-08-11T12:39:28.636Z</time>
      </trkpt>
      <trkpt lat="46.8765" lon="8.4832">
        <ele>1783</ele>
        <time>2021-08-11T12:39:29.636Z</time>
      </trkpt>
      <trkpt lat="46.87651" lon="8.48319">
        <ele>1783</ele>
        <time>2021-08-11T12:39:30.637Z</time>
      </trkpt>
      <trkpt lat="46.87649" lon="8.48317">
        <ele>1783</ele>
        <time>2021-08-11T12:39:31.636Z</time>
      </trkpt>
      <trkpt lat="46.87647" lon="8.48316">
        <ele>1783</ele>
        <time>2021-08-11T12:39:32.636Z</time>
      </trkpt>
      <trkpt lat="46.87646" lon="8.48314">
        <ele>1783</ele>
        <time>2021-08-11T12:39:33.637Z</time>
      </trkpt>
      <trkpt lat="46.87647" lon="8.48312">
        <ele>1782</ele>
        <time>2021-08-11T12:39:34.636Z</time>
      </trkpt>
      <trkpt lat="46.87647" lon="8.48311">
        <ele>1782</ele>
        <time>2021-08-11T12:39:35.636Z</time>
      </trkpt>
      <trkpt lat="46.87647" lon="8.4831">
        <ele>1782</ele>
        <time>2021-08-11T12:39:36.636Z</time>
      </trkpt>
      <trkpt lat="46.87647" lon="8.48308">
        <ele>1782</ele>
        <time>2021-08-11T12:39:37.637Z</time>
      </trkpt>
      <trkpt lat="46.87648" lon="8.48307">
        <ele>1782</ele>
        <time>2021-08-11T12:39:38.637Z</time>
      </trkpt>
      <trkpt lat="46.87647" lon="8.48305">
        <ele>1782</ele>
        <time>2021-08-11T12:39:39.637Z</time>
      </trkpt>
      <trkpt lat="46.87647" lon="8.48303">
        <ele>1782</ele>
        <time>2021-08-11T12:39:40.637Z</time>
      </trkpt>
      <trkpt lat="46.87648" lon="8.48302">
        <ele>1782</ele>
        <time>2021-08-11T12:39:41.636Z</time>
      </trkpt>
      <trkpt lat="46.87649" lon="8.48302">
        <ele>1781</ele>
        <time>2021-08-11T12:39:42.636Z</time>
      </trkpt>
      <trkpt lat="46.8765" lon="8.48301">
        <ele>1781</ele>
        <time>2021-08-11T12:39:43.637Z</time>
      </trkpt>
      <trkpt lat="46.87652" lon="8.48301">
        <ele>1781</ele>
        <time>2021-08-11T12:39:44.637Z</time>
      </trkpt>
      <trkpt lat="46.87652" lon="8.483">
        <ele>1781</ele>
        <time>2021-08-11T12:39:45.636Z</time>
      </trkpt>
      <trkpt lat="46.87653" lon="8.48299">
        <ele>1781</ele>
        <time>2021-08-11T12:39:46.636Z</time>
      </trkpt>
      <trkpt lat="46.87653" lon="8.48299">
        <ele>1781</ele>
        <time>2021-08-11T12:39:47.636Z</time>
      </trkpt>
      <trkpt lat="46.87653" lon="8.48299">
        <ele>1781</ele>
        <time>2021-08-11T12:39:48.637Z</time>
      </trkpt>
      <trkpt lat="46.87654" lon="8.48299">
        <ele>1781</ele>
        <time>2021-08-11T12:39:49.637Z</time>
      </trkpt>
      <trkpt lat="46.87654" lon="8.48299">
        <ele>1782</ele>
        <time>2021-08-11T12:39:50.637Z</time>
      </trkpt>
      <trkpt lat="46.87654" lon="8.48299">
        <ele>1782</ele>
        <time>2021-08-11T12:39:51.637Z</time>
      </trkpt>
      <trkpt lat="46.87654" lon="8.48299">
        <ele>1784</ele>
        <time>2021-08-11T12:39:52.637Z</time>
      </trkpt>
      <trkpt lat="46.87654" lon="8.48299">
        <ele>1785</ele>
        <time>2021-08-11T12:39:53.636Z</time>
      </trkpt>
      <trkpt lat="46.87653" lon="8.48298">
        <ele>1785</ele>
        <time>2021-08-11T12:39:54.636Z</time>
      </trkpt>
      <trkpt lat="46.87653" lon="8.48297">
        <ele>1785</ele>
        <time>2021-08-11T12:39:55.636Z</time>
      </trkpt>
      <trkpt lat="46.87652" lon="8.48297">
        <ele>1785</ele>
        <time>2021-08-11T12:39:56.636Z</time>
      </trkpt>
      <trkpt lat="46.87651" lon="8.48296">
        <ele>1785</ele>
        <time>2021-08-11T12:39:57.636Z</time>
      </trkpt>
      <trkpt lat="46.87651" lon="8.48296">
        <ele>1785</ele>
        <time>2021-08-11T12:39:58.636Z</time>
      </trkpt>
      <trkpt lat="46.87651" lon="8.48296">
        <ele>1785</ele>
        <time>2021-08-11T12:39:59.636Z</time>
      </trkpt>
      <trkpt lat="46.87652" lon="8.48295">
        <ele>1786</ele>
        <time>2021-08-11T12:40:00.636Z</time>
      </trkpt>
      <trkpt lat="46.87652" lon="8.48295">
        <ele>1786</ele>
        <time>2021-08-11T12:40:01.637Z</time>
      </trkpt>
      <trkpt lat="46.87653" lon="8.48295">
        <ele>1786</ele>
        <time>2021-08-11T12:40:02.636Z</time>
      </trkpt>
      <trkpt lat="46.87651" lon="8.48297">
        <ele>1787</ele>
        <time>2021-08-11T12:40:03.636Z</time>
      </trkpt>
      <trkpt lat="46.87651" lon="8.48298">
        <ele>1786</ele>
        <time>2021-08-11T12:40:04.636Z</time>
      </trkpt>
      <trkpt lat="46.87651" lon="8.48298">
        <ele>1785</ele>
        <time>2021-08-11T12:40:05.636Z</time>
      </trkpt>
      <trkpt lat="46.87653" lon="8.48297">
        <ele>1785</ele>
        <time>2021-08-11T12:40:06.636Z</time>
      </trkpt>
      <trkpt lat="46.87653" lon="8.48298">
        <ele>1786</ele>
        <time>2021-08-11T12:40:07.636Z</time>
      </trkpt>
      <trkpt lat="46.87651" lon="8.48296">
        <ele>1785</ele>
        <time>2021-08-11T12:40:08.637Z</time>
      </trkpt>
      <trkpt lat="46.87651" lon="8.48296">
        <ele>1785</ele>
        <time>2021-08-11T12:40:09.636Z</time>
      </trkpt>
      <trkpt lat="46.87649" lon="8.48295">
        <ele>1785</ele>
        <time>2021-08-11T12:40:10.637Z</time>
      </trkpt>
      <trkpt lat="46.87649" lon="8.48295">
        <ele>1785</ele>
        <time>2021-08-11T12:40:11.637Z</time>
      </trkpt>
      <trkpt lat="46.87651" lon="8.48295">
        <ele>1785</ele>
        <time>2021-08-11T12:40:12.637Z</time>
      </trkpt>
      <trkpt lat="46.8765" lon="8.48295">
        <ele>1785</ele>
        <time>2021-08-11T12:40:13.637Z</time>
      </trkpt>
      <trkpt lat="46.87649" lon="8.48295">
        <ele>1785</ele>
        <time>2021-08-11T12:40:14.636Z</time>
      </trkpt>
      <trkpt lat="46.87649" lon="8.48295">
        <ele>1785</ele>
        <time>2021-08-11T12:40:15.637Z</time>
      </trkpt>
      <trkpt lat="46.87648" lon="8.48296">
        <ele>1784</ele>
        <time>2021-08-11T12:40:16.637Z</time>
      </trkpt>
      <trkpt lat="46.87649" lon="8.48296">
        <ele>1784</ele>
        <time>2021-08-11T12:40:17.638Z</time>
      </trkpt>
      <trkpt lat="46.87649" lon="8.48296">
        <ele>1784</ele>
        <time>2021-08-11T12:40:18.638Z</time>
      </trkpt>
      <trkpt lat="46.87647" lon="8.48296">
        <ele>1785</ele>
        <time>2021-08-11T12:40:19.638Z</time>
      </trkpt>
      <trkpt lat="46.87646" lon="8.48296">
        <ele>1785</ele>
        <time>2021-08-11T12:40:20.638Z</time>
      </trkpt>
      <trkpt lat="46.87646" lon="8.48296">
        <ele>1785</ele>
        <time>2021-08-11T12:40:21.638Z</time>
      </trkpt>
      <trkpt lat="46.87645" lon="8.48295">
        <ele>1785</ele>
        <time>2021-08-11T12:40:22.637Z</time>
      </trkpt>
      <trkpt lat="46.87645" lon="8.48296">
        <ele>1785</ele>
        <time>2021-08-11T12:40:23.637Z</time>
      </trkpt>
      <trkpt lat="46.87644" lon="8.48296">
        <ele>1785</ele>
        <time>2021-08-11T12:40:24.638Z</time>
      </trkpt>
      <trkpt lat="46.87645" lon="8.48297">
        <ele>1785</ele>
        <time>2021-08-11T12:40:25.638Z</time>
      </trkpt>
      <trkpt lat="46.87645" lon="8.48296">
        <ele>1785</ele>
        <time>2021-08-11T12:40:26.638Z</time>
      </trkpt>
      <trkpt lat="46.87645" lon="8.48296">
        <ele>1785</ele>
        <time>2021-08-11T12:40:27.638Z</time>
      </trkpt>
      <trkpt lat="46.87646" lon="8.48297">
        <ele>1785</ele>
        <time>2021-08-11T12:40:28.637Z</time>
      </trkpt>
      <trkpt lat="46.87644" lon="8.48296">
        <ele>1785</ele>
        <time>2021-08-11T12:40:29.638Z</time>
      </trkpt>
      <trkpt lat="46.87643" lon="8.48295">
        <ele>1785</ele>
        <time>2021-08-11T12:40:30.638Z</time>
      </trkpt>
      <trkpt lat="46.87649" lon="8.48299">
        <ele>1782</ele>
        <time>2021-08-11T12:40:31.639Z</time>
      </trkpt>
      <trkpt lat="46.87648" lon="8.483">
        <ele>1782</ele>
        <time>2021-08-11T12:40:32.638Z</time>
      </trkpt>
      <trkpt lat="46.87649" lon="8.48301">
        <ele>1781</ele>
        <time>2021-08-11T12:40:33.638Z</time>
      </trkpt>
      <trkpt lat="46.8765" lon="8.48299">
        <ele>1782</ele>
        <time>2021-08-11T12:40:34.639Z</time>
      </trkpt>
      <trkpt lat="46.8765" lon="8.48297">
        <ele>1783</ele>
        <time>2021-08-11T12:40:35.639Z</time>
      </trkpt>
      <trkpt lat="46.87649" lon="8.48297">
        <ele>1783</ele>
        <time>2021-08-11T12:40:36.638Z</time>
      </trkpt>
      <trkpt lat="46.87651" lon="8.48298">
        <ele>1785</ele>
        <time>2021-08-11T12:40:37.639Z</time>
      </trkpt>
      <trkpt lat="46.8765" lon="8.48299">
        <ele>1785</ele>
        <time>2021-08-11T12:40:38.638Z</time>
      </trkpt>
      <trkpt lat="46.8765" lon="8.48299">
        <ele>1785</ele>
        <time>2021-08-11T12:40:39.639Z</time>
      </trkpt>
      <trkpt lat="46.87649" lon="8.483">
        <ele>1785</ele>
        <time>2021-08-11T12:40:40.639Z</time>
      </trkpt>
      <trkpt lat="46.8765" lon="8.483">
        <ele>1786</ele>
        <time>2021-08-11T12:40:41.639Z</time>
      </trkpt>
      <trkpt lat="46.8765" lon="8.48301">
        <ele>1786</ele>
        <time>2021-08-11T12:40:42.638Z</time>
      </trkpt>
      <trkpt lat="46.87649" lon="8.483">
        <ele>1787</ele>
        <time>2021-08-11T12:40:43.640Z</time>
      </trkpt>
      <trkpt lat="46.8765" lon="8.483">
        <ele>1787</ele>
        <time>2021-08-11T12:40:44.639Z</time>
      </trkpt>
      <trkpt lat="46.8765" lon="8.483">
        <ele>1788</ele>
        <time>2021-08-11T12:40:45.639Z</time>
      </trkpt>
      <trkpt lat="46.87651" lon="8.483">
        <ele>1788</ele>
        <time>2021-08-11T12:40:46.639Z</time>
      </trkpt>
      <trkpt lat="46.87652" lon="8.48299">
        <ele>1788</ele>
        <time>2021-08-11T12:40:47.640Z</time>
      </trkpt>
      <trkpt lat="46.87652" lon="8.48298">
        <ele>1789</ele>
        <time>2021-08-11T12:40:48.640Z</time>
      </trkpt>
      <trkpt lat="46.87652" lon="8.48297">
        <ele>1789</ele>
        <time>2021-08-11T12:40:49.639Z</time>
      </trkpt>
      <trkpt lat="46.87652" lon="8.48297">
        <ele>1789</ele>
        <time>2021-08-11T12:40:50.640Z</time>
      </trkpt>
      <trkpt lat="46.87653" lon="8.48296">
        <ele>1789</ele>
        <time>2021-08-11T12:40:51.640Z</time>
      </trkpt>
      <trkpt lat="46.87653" lon="8.48296">
        <ele>1789</ele>
        <time>2021-08-11T12:40:52.639Z</time>
      </trkpt>
      <trkpt lat="46.87653" lon="8.48295">
        <ele>1790</ele>
        <time>2021-08-11T12:40:53.640Z</time>
      </trkpt>
      <trkpt lat="46.87652" lon="8.48294">
        <ele>1790</ele>
        <time>2021-08-11T12:40:54.639Z</time>
      </trkpt>
      <trkpt lat="46.87652" lon="8.48293">
        <ele>1789</ele>
        <time>2021-08-11T12:40:55.640Z</time>
      </trkpt>
      <trkpt lat="46.87652" lon="8.48293">
        <ele>1789</ele>
        <time>2021-08-11T12:40:56.640Z</time>
      </trkpt>
      <trkpt lat="46.87651" lon="8.4829">
        <ele>1792</ele>
        <time>2021-08-11T12:40:57.639Z</time>
      </trkpt>
      <trkpt lat="46.87651" lon="8.4829">
        <ele>1792</ele>
        <time>2021-08-11T12:40:58.640Z</time>
      </trkpt>
      <trkpt lat="46.87651" lon="8.4829">
        <ele>1792</ele>
        <time>2021-08-11T12:40:59.639Z</time>
      </trkpt>
      <trkpt lat="46.87655" lon="8.48292">
        <ele>1789</ele>
        <time>2021-08-11T12:41:00.641Z</time>
      </trkpt>
      <trkpt lat="46.87656" lon="8.48292">
        <ele>1789</ele>
        <time>2021-08-11T12:41:01.640Z</time>
      </trkpt>
      <trkpt lat="46.87657" lon="8.48292">
        <ele>1789</ele>
        <time>2021-08-11T12:41:02.640Z</time>
      </trkpt>
      <trkpt lat="46.87658" lon="8.48292">
        <ele>1788</ele>
        <time>2021-08-11T12:41:03.641Z</time>
      </trkpt>
      <trkpt lat="46.87659" lon="8.48291">
        <ele>1788</ele>
        <time>2021-08-11T12:41:04.641Z</time>
      </trkpt>
      <trkpt lat="46.8766" lon="8.4829">
        <ele>1788</ele>
        <time>2021-08-11T12:41:05.640Z</time>
      </trkpt>
      <trkpt lat="46.87661" lon="8.48289">
        <ele>1788</ele>
        <time>2021-08-11T12:41:06.641Z</time>
      </trkpt>
      <trkpt lat="46.87661" lon="8.48287">
        <ele>1787</ele>
        <time>2021-08-11T12:41:07.640Z</time>
      </trkpt>
      <trkpt lat="46.87661" lon="8.48286">
        <ele>1787</ele>
        <time>2021-08-11T12:41:08.640Z</time>
      </trkpt>
      <trkpt lat="46.87661" lon="8.48285">
        <ele>1787</ele>
        <time>2021-08-11T12:41:09.641Z</time>
      </trkpt>
      <trkpt lat="46.87662" lon="8.48284">
        <ele>1787</ele>
        <time>2021-08-11T12:41:10.641Z</time>
      </trkpt>
      <trkpt lat="46.87663" lon="8.48283">
        <ele>1787</ele>
        <time>2021-08-11T12:41:11.640Z</time>
      </trkpt>
      <trkpt lat="46.87665" lon="8.48282">
        <ele>1787</ele>
        <time>2021-08-11T12:41:12.641Z</time>
      </trkpt>
      <trkpt lat="46.87666" lon="8.48281">
        <ele>1787</ele>
        <time>2021-08-11T12:41:13.641Z</time>
      </trkpt>
      <trkpt lat="46.87667" lon="8.4828">
        <ele>1787</ele>
        <time>2021-08-11T12:41:14.640Z</time>
      </trkpt>
      <trkpt lat="46.87668" lon="8.4828">
        <ele>1786</ele>
        <time>2021-08-11T12:41:15.641Z</time>
      </trkpt>
      <trkpt lat="46.87668" lon="8.48279">
        <ele>1786</ele>
        <time>2021-08-11T12:41:16.641Z</time>
      </trkpt>
      <trkpt lat="46.87669" lon="8.48278">
        <ele>1786</ele>
        <time>2021-08-11T12:41:17.641Z</time>
      </trkpt>
      <trkpt lat="46.8767" lon="8.48277">
        <ele>1786</ele>
        <time>2021-08-11T12:41:18.640Z</time>
      </trkpt>
      <trkpt lat="46.87671" lon="8.48276">
        <ele>1786</ele>
        <time>2021-08-11T12:41:19.640Z</time>
      </trkpt>
      <trkpt lat="46.87672" lon="8.48276">
        <ele>1786</ele>
        <time>2021-08-11T12:41:20.640Z</time>
      </trkpt>
      <trkpt lat="46.87673" lon="8.48275">
        <ele>1785</ele>
        <time>2021-08-11T12:41:21.640Z</time>
      </trkpt>
      <trkpt lat="46.87674" lon="8.48274">
        <ele>1786</ele>
        <time>2021-08-11T12:41:22.641Z</time>
      </trkpt>
      <trkpt lat="46.87674" lon="8.48274">
        <ele>1786</ele>
        <time>2021-08-11T12:41:23.641Z</time>
      </trkpt>
      <trkpt lat="46.87675" lon="8.48274">
        <ele>1786</ele>
        <time>2021-08-11T12:41:24.641Z</time>
      </trkpt>
      <trkpt lat="46.87676" lon="8.48273">
        <ele>1786</ele>
        <time>2021-08-11T12:41:25.641Z</time>
      </trkpt>
      <trkpt lat="46.87676" lon="8.48272">
        <ele>1787</ele>
        <time>2021-08-11T12:41:26.641Z</time>
      </trkpt>
      <trkpt lat="46.87677" lon="8.48272">
        <ele>1787</ele>
        <time>2021-08-11T12:41:27.641Z</time>
      </trkpt>
      <trkpt lat="46.87677" lon="8.48271">
        <ele>1787</ele>
        <time>2021-08-11T12:41:28.641Z</time>
      </trkpt>
      <trkpt lat="46.87677" lon="8.4827">
        <ele>1787</ele>
        <time>2021-08-11T12:41:29.641Z</time>
      </trkpt>
      <trkpt lat="46.87678" lon="8.48269">
        <ele>1787</ele>
        <time>2021-08-11T12:41:30.641Z</time>
      </trkpt>
      <trkpt lat="46.87678" lon="8.48268">
        <ele>1787</ele>
        <time>2021-08-11T12:41:31.641Z</time>
      </trkpt>
      <trkpt lat="46.87679" lon="8.48268">
        <ele>1786</ele>
        <time>2021-08-11T12:41:32.641Z</time>
      </trkpt>
      <trkpt lat="46.87679" lon="8.48267">
        <ele>1786</ele>
        <time>2021-08-11T12:41:33.640Z</time>
      </trkpt>
      <trkpt lat="46.8768" lon="8.48266">
        <ele>1785</ele>
        <time>2021-08-11T12:41:34.640Z</time>
      </trkpt>
      <trkpt lat="46.87681" lon="8.48265">
        <ele>1785</ele>
        <time>2021-08-11T12:41:35.641Z</time>
      </trkpt>
      <trkpt lat="46.87681" lon="8.48264">
        <ele>1785</ele>
        <time>2021-08-11T12:41:36.640Z</time>
      </trkpt>
      <trkpt lat="46.87683" lon="8.48264">
        <ele>1785</ele>
        <time>2021-08-11T12:41:37.641Z</time>
      </trkpt>
      <trkpt lat="46.87684" lon="8.48265">
        <ele>1785</ele>
        <time>2021-08-11T12:41:38.641Z</time>
      </trkpt>
      <trkpt lat="46.87684" lon="8.48264">
        <ele>1785</ele>
        <time>2021-08-11T12:41:39.640Z</time>
      </trkpt>
      <trkpt lat="46.87685" lon="8.48264">
        <ele>1785</ele>
        <time>2021-08-11T12:41:40.641Z</time>
      </trkpt>
      <trkpt lat="46.87685" lon="8.48264">
        <ele>1785</ele>
        <time>2021-08-11T12:41:41.641Z</time>
      </trkpt>
      <trkpt lat="46.87686" lon="8.48264">
        <ele>1786</ele>
        <time>2021-08-11T12:41:42.642Z</time>
      </trkpt>
      <trkpt lat="46.87687" lon="8.48264">
        <ele>1786</ele>
        <time>2021-08-11T12:41:43.642Z</time>
      </trkpt>
      <trkpt lat="46.87688" lon="8.48264">
        <ele>1786</ele>
        <time>2021-08-11T12:41:44.642Z</time>
      </trkpt>
      <trkpt lat="46.87688" lon="8.48264">
        <ele>1785</ele>
        <time>2021-08-11T12:41:45.642Z</time>
      </trkpt>
      <trkpt lat="46.87688" lon="8.48263">
        <ele>1785</ele>
        <time>2021-08-11T12:41:46.641Z</time>
      </trkpt>
      <trkpt lat="46.87688" lon="8.48262">
        <ele>1785</ele>
        <time>2021-08-11T12:41:47.642Z</time>
      </trkpt>
      <trkpt lat="46.87688" lon="8.4826">
        <ele>1784</ele>
        <time>2021-08-11T12:41:48.641Z</time>
      </trkpt>
      <trkpt lat="46.87688" lon="8.48258">
        <ele>1784</ele>
        <time>2021-08-11T12:41:49.642Z</time>
      </trkpt>
      <trkpt lat="46.87689" lon="8.48258">
        <ele>1784</ele>
        <time>2021-08-11T12:41:50.642Z</time>
      </trkpt>
      <trkpt lat="46.87688" lon="8.48258">
        <ele>1784</ele>
        <time>2021-08-11T12:41:51.642Z</time>
      </trkpt>
      <trkpt lat="46.87688" lon="8.48257">
        <ele>1784</ele>
        <time>2021-08-11T12:41:52.642Z</time>
      </trkpt>
      <trkpt lat="46.87688" lon="8.48256">
        <ele>1783</ele>
        <time>2021-08-11T12:41:53.642Z</time>
      </trkpt>
      <trkpt lat="46.87688" lon="8.48255">
        <ele>1783</ele>
        <time>2021-08-11T12:41:54.641Z</time>
      </trkpt>
      <trkpt lat="46.87685" lon="8.48252">
        <ele>1789</ele>
        <time>2021-08-11T12:41:55.642Z</time>
      </trkpt>
      <trkpt lat="46.87685" lon="8.4825">
        <ele>1789</ele>
        <time>2021-08-11T12:41:56.642Z</time>
      </trkpt>
      <trkpt lat="46.87684" lon="8.48249">
        <ele>1789</ele>
        <time>2021-08-11T12:41:57.641Z</time>
      </trkpt>
      <trkpt lat="46.87683" lon="8.48248">
        <ele>1789</ele>
        <time>2021-08-11T12:41:58.642Z</time>
      </trkpt>
      <trkpt lat="46.87683" lon="8.48248">
        <ele>1790</ele>
        <time>2021-08-11T12:41:59.642Z</time>
      </trkpt>
      <trkpt lat="46.87683" lon="8.48248">
        <ele>1790</ele>
        <time>2021-08-11T12:42:00.642Z</time>
      </trkpt>
      <trkpt lat="46.87682" lon="8.48248">
        <ele>1791</ele>
        <time>2021-08-11T12:42:01.642Z</time>
      </trkpt>
      <trkpt lat="46.87682" lon="8.48249">
        <ele>1791</ele>
        <time>2021-08-11T12:42:02.641Z</time>
      </trkpt>
      <trkpt lat="46.87682" lon="8.48249">
        <ele>1791</ele>
        <time>2021-08-11T12:42:03.642Z</time>
      </trkpt>
      <trkpt lat="46.87682" lon="8.48248">
        <ele>1791</ele>
        <time>2021-08-11T12:42:04.642Z</time>
      </trkpt>
      <trkpt lat="46.87682" lon="8.48248">
        <ele>1791</ele>
        <time>2021-08-11T12:42:05.642Z</time>
      </trkpt>
      <trkpt lat="46.87682" lon="8.48247">
        <ele>1790</ele>
        <time>2021-08-11T12:42:06.642Z</time>
      </trkpt>
      <trkpt lat="46.87681" lon="8.48247">
        <ele>1790</ele>
        <time>2021-08-11T12:42:07.641Z</time>
      </trkpt>
      <trkpt lat="46.87681" lon="8.48246">
        <ele>1789</ele>
        <time>2021-08-11T12:42:08.642Z</time>
      </trkpt>
      <trkpt lat="46.87681" lon="8.48246">
        <ele>1789</ele>
        <time>2021-08-11T12:42:09.642Z</time>
      </trkpt>
      <trkpt lat="46.8768" lon="8.48247">
        <ele>1789</ele>
        <time>2021-08-11T12:42:10.642Z</time>
      </trkpt>
      <trkpt lat="46.8768" lon="8.48247">
        <ele>1789</ele>
        <time>2021-08-11T12:42:11.642Z</time>
      </trkpt>
      <trkpt lat="46.8768" lon="8.48246">
        <ele>1789</ele>
        <time>2021-08-11T12:42:12.641Z</time>
      </trkpt>
      <trkpt lat="46.8768" lon="8.4825">
        <ele>1789</ele>
        <time>2021-08-11T12:42:13.642Z</time>
      </trkpt>
      <trkpt lat="46.87683" lon="8.48255">
        <ele>1780</ele>
        <time>2021-08-11T12:42:14.642Z</time>
      </trkpt>
      <trkpt lat="46.87681" lon="8.48254">
        <ele>1783</ele>
        <time>2021-08-11T12:42:15.643Z</time>
      </trkpt>
      <trkpt lat="46.87681" lon="8.48254">
        <ele>1784</ele>
        <time>2021-08-11T12:42:16.643Z</time>
      </trkpt>
      <trkpt lat="46.87681" lon="8.48254">
        <ele>1785</ele>
        <time>2021-08-11T12:42:17.643Z</time>
      </trkpt>
      <trkpt lat="46.87682" lon="8.48254">
        <ele>1785</ele>
        <time>2021-08-11T12:42:18.643Z</time>
      </trkpt>
      <trkpt lat="46.87682" lon="8.48254">
        <ele>1786</ele>
        <time>2021-08-11T12:42:19.643Z</time>
      </trkpt>
      <trkpt lat="46.87683" lon="8.48256">
        <ele>1787</ele>
        <time>2021-08-11T12:42:20.644Z</time>
      </trkpt>
      <trkpt lat="46.87683" lon="8.48256">
        <ele>1787</ele>
        <time>2021-08-11T12:42:21.643Z</time>
      </trkpt>
      <trkpt lat="46.87683" lon="8.48257">
        <ele>1787</ele>
        <time>2021-08-11T12:42:22.644Z</time>
      </trkpt>
      <trkpt lat="46.87683" lon="8.48258">
        <ele>1787</ele>
        <time>2021-08-11T12:42:23.643Z</time>
      </trkpt>
      <trkpt lat="46.87683" lon="8.48259">
        <ele>1791</ele>
        <time>2021-08-11T12:42:24.644Z</time>
      </trkpt>
      <trkpt lat="46.87683" lon="8.48259">
        <ele>1791</ele>
        <time>2021-08-11T12:42:25.643Z</time>
      </trkpt>
      <trkpt lat="46.87683" lon="8.48259">
        <ele>1791</ele>
        <time>2021-08-11T12:42:26.643Z</time>
      </trkpt>
      <trkpt lat="46.87682" lon="8.4826">
        <ele>1791</ele>
        <time>2021-08-11T12:42:27.643Z</time>
      </trkpt>
      <trkpt lat="46.87682" lon="8.4826">
        <ele>1791</ele>
        <time>2021-08-11T12:42:28.644Z</time>
      </trkpt>
      <trkpt lat="46.87682" lon="8.4826">
        <ele>1791</ele>
        <time>2021-08-11T12:42:29.644Z</time>
      </trkpt>
      <trkpt lat="46.87683" lon="8.48257">
        <ele>1789</ele>
        <time>2021-08-11T12:42:30.645Z</time>
      </trkpt>
      <trkpt lat="46.87683" lon="8.48257">
        <ele>1790</ele>
        <time>2021-08-11T12:42:31.644Z</time>
      </trkpt>
      <trkpt lat="46.87683" lon="8.48257">
        <ele>1790</ele>
        <time>2021-08-11T12:42:32.644Z</time>
      </trkpt>
      <trkpt lat="46.87683" lon="8.48257">
        <ele>1790</ele>
        <time>2021-08-11T12:42:33.644Z</time>
      </trkpt>
      <trkpt lat="46.87682" lon="8.48257">
        <ele>1790</ele>
        <time>2021-08-11T12:42:34.644Z</time>
      </trkpt>
      <trkpt lat="46.87682" lon="8.48256">
        <ele>1790</ele>
        <time>2021-08-11T12:42:35.645Z</time>
      </trkpt>
      <trkpt lat="46.87682" lon="8.48256">
        <ele>1790</ele>
        <time>2021-08-11T12:42:36.644Z</time>
      </trkpt>
      <trkpt lat="46.87682" lon="8.48255">
        <ele>1790</ele>
        <time>2021-08-11T12:42:37.645Z</time>
      </trkpt>
      <trkpt lat="46.87681" lon="8.48254">
        <ele>1790</ele>
        <time>2021-08-11T12:42:38.645Z</time>
      </trkpt>
      <trkpt lat="46.87683" lon="8.48253">
        <ele>1786</ele>
        <time>2021-08-11T12:42:39.645Z</time>
      </trkpt>
      <trkpt lat="46.87682" lon="8.48254">
        <ele>1786</ele>
        <time>2021-08-11T12:42:40.645Z</time>
      </trkpt>
      <trkpt lat="46.87682" lon="8.48254">
        <ele>1786</ele>
        <time>2021-08-11T12:42:41.644Z</time>
      </trkpt>
      <trkpt lat="46.87682" lon="8.48253">
        <ele>1783</ele>
        <time>2021-08-11T12:42:42.647Z</time>
      </trkpt>
      <trkpt lat="46.87682" lon="8.48252">
        <ele>1783</ele>
        <time>2021-08-11T12:42:43.647Z</time>
      </trkpt>
      <trkpt lat="46.8768" lon="8.48253">
        <ele>1790</ele>
        <time>2021-08-11T12:42:44.647Z</time>
      </trkpt>
      <trkpt lat="46.8768" lon="8.48252">
        <ele>1790</ele>
        <time>2021-08-11T12:42:45.647Z</time>
      </trkpt>
      <trkpt lat="46.8768" lon="8.4825">
        <ele>1790</ele>
        <time>2021-08-11T12:42:46.646Z</time>
      </trkpt>
      <trkpt lat="46.8768" lon="8.48249">
        <ele>1791</ele>
        <time>2021-08-11T12:42:47.648Z</time>
      </trkpt>
      <trkpt lat="46.8768" lon="8.4825">
        <ele>1791</ele>
        <time>2021-08-11T12:42:48.647Z</time>
      </trkpt>
      <trkpt lat="46.8768" lon="8.4825">
        <ele>1790</ele>
        <time>2021-08-11T12:42:49.647Z</time>
      </trkpt>
      <trkpt lat="46.8768" lon="8.48251">
        <ele>1789</ele>
        <time>2021-08-11T12:42:50.648Z</time>
      </trkpt>
      <trkpt lat="46.8768" lon="8.4825">
        <ele>1789</ele>
        <time>2021-08-11T12:42:51.647Z</time>
      </trkpt>
      <trkpt lat="46.87681" lon="8.48251">
        <ele>1787</ele>
        <time>2021-08-11T12:42:52.648Z</time>
      </trkpt>
      <trkpt lat="46.8768" lon="8.48251">
        <ele>1787</ele>
        <time>2021-08-11T12:42:53.648Z</time>
      </trkpt>
      <trkpt lat="46.8768" lon="8.4825">
        <ele>1787</ele>
        <time>2021-08-11T12:42:54.647Z</time>
      </trkpt>
      <trkpt lat="46.87679" lon="8.48249">
        <ele>1787</ele>
        <time>2021-08-11T12:42:55.648Z</time>
      </trkpt>
      <trkpt lat="46.87679" lon="8.48249">
        <ele>1787</ele>
        <time>2021-08-11T12:42:56.647Z</time>
      </trkpt>
      <trkpt lat="46.87678" lon="8.48249">
        <ele>1786</ele>
        <time>2021-08-11T12:42:57.648Z</time>
      </trkpt>
      <trkpt lat="46.87678" lon="8.48249">
        <ele>1786</ele>
        <time>2021-08-11T12:42:58.648Z</time>
      </trkpt>
      <trkpt lat="46.87677" lon="8.48249">
        <ele>1786</ele>
        <time>2021-08-11T12:42:59.647Z</time>
      </trkpt>
      <trkpt lat="46.87678" lon="8.48248">
        <ele>1786</ele>
        <time>2021-08-11T12:43:00.648Z</time>
      </trkpt>
      <trkpt lat="46.87677" lon="8.48247">
        <ele>1786</ele>
        <time>2021-08-11T12:43:01.648Z</time>
      </trkpt>
      <trkpt lat="46.87677" lon="8.48247">
        <ele>1786</ele>
        <time>2021-08-11T12:43:02.647Z</time>
      </trkpt>
      <trkpt lat="46.87676" lon="8.48246">
        <ele>1786</ele>
        <time>2021-08-11T12:43:03.647Z</time>
      </trkpt>
      <trkpt lat="46.87676" lon="8.48247">
        <ele>1786</ele>
        <time>2021-08-11T12:43:04.648Z</time>
      </trkpt>
      <trkpt lat="46.87677" lon="8.48247">
        <ele>1785</ele>
        <time>2021-08-11T12:43:05.650Z</time>
      </trkpt>
      <trkpt lat="46.87677" lon="8.48247">
        <ele>1783</ele>
        <time>2021-08-11T12:43:06.651Z</time>
      </trkpt>
      <trkpt lat="46.87678" lon="8.48248">
        <ele>1782</ele>
        <time>2021-08-11T12:43:07.650Z</time>
      </trkpt>
      <trkpt lat="46.87678" lon="8.48248">
        <ele>1783</ele>
        <time>2021-08-11T12:43:08.651Z</time>
      </trkpt>
      <trkpt lat="46.87679" lon="8.48248">
        <ele>1788</ele>
        <time>2021-08-11T12:43:09.651Z</time>
      </trkpt>
      <trkpt lat="46.87679" lon="8.48248">
        <ele>1788</ele>
        <time>2021-08-11T12:43:10.650Z</time>
      </trkpt>
      <trkpt lat="46.87684" lon="8.48253">
        <ele>1786</ele>
        <time>2021-08-11T12:43:11.651Z</time>
      </trkpt>
      <trkpt lat="46.87684" lon="8.48253">
        <ele>1786</ele>
        <time>2021-08-11T12:43:12.651Z</time>
      </trkpt>
      <trkpt lat="46.87684" lon="8.48253">
        <ele>1785</ele>
        <time>2021-08-11T12:43:13.650Z</time>
      </trkpt>
      <trkpt lat="46.87686" lon="8.48249">
        <ele>1783</ele>
        <time>2021-08-11T12:43:14.652Z</time>
      </trkpt>
      <trkpt lat="46.87687" lon="8.48249">
        <ele>1783</ele>
        <time>2021-08-11T12:43:15.652Z</time>
      </trkpt>
      <trkpt lat="46.87686" lon="8.4825">
        <ele>1782</ele>
        <time>2021-08-11T12:43:16.652Z</time>
      </trkpt>
      <trkpt lat="46.87686" lon="8.4825">
        <ele>1781</ele>
        <time>2021-08-11T12:43:17.652Z</time>
      </trkpt>
      <trkpt lat="46.87686" lon="8.4825">
        <ele>1780</ele>
        <time>2021-08-11T12:43:18.651Z</time>
      </trkpt>
      <trkpt lat="46.87687" lon="8.4825">
        <ele>1780</ele>
        <time>2021-08-11T12:43:19.652Z</time>
      </trkpt>
      <trkpt lat="46.87686" lon="8.48251">
        <ele>1775</ele>
        <time>2021-08-11T12:43:20.653Z</time>
      </trkpt>
      <trkpt lat="46.87686" lon="8.48251">
        <ele>1775</ele>
        <time>2021-08-11T12:43:21.653Z</time>
      </trkpt>
      <trkpt lat="46.87686" lon="8.48251">
        <ele>1775</ele>
        <time>2021-08-11T12:43:22.652Z</time>
      </trkpt>
      <trkpt lat="46.87686" lon="8.48251">
        <ele>1775</ele>
        <time>2021-08-11T12:43:23.654Z</time>
      </trkpt>
      <trkpt lat="46.87684" lon="8.48249">
        <ele>1779</ele>
        <time>2021-08-11T12:43:24.654Z</time>
      </trkpt>
      <trkpt lat="46.87684" lon="8.4825">
        <ele>1779</ele>
        <time>2021-08-11T12:43:25.654Z</time>
      </trkpt>
      <trkpt lat="46.87684" lon="8.48251">
        <ele>1779</ele>
        <time>2021-08-11T12:43:26.653Z</time>
      </trkpt>
      <trkpt lat="46.87683" lon="8.48252">
        <ele>1782</ele>
        <time>2021-08-11T12:43:27.653Z</time>
      </trkpt>
      <trkpt lat="46.87682" lon="8.48252">
        <ele>1782</ele>
        <time>2021-08-11T12:43:28.653Z</time>
      </trkpt>
      <trkpt lat="46.87683" lon="8.48256">
        <ele>1786</ele>
        <time>2021-08-11T12:43:29.655Z</time>
      </trkpt>
      <trkpt lat="46.87683" lon="8.48257">
        <ele>1786</ele>
        <time>2021-08-11T12:43:30.655Z</time>
      </trkpt>
      <trkpt lat="46.87682" lon="8.48257">
        <ele>1786</ele>
        <time>2021-08-11T12:43:31.655Z</time>
      </trkpt>
      <trkpt lat="46.87682" lon="8.4826">
        <ele>1786</ele>
        <time>2021-08-11T12:43:32.654Z</time>
      </trkpt>
      <trkpt lat="46.87683" lon="8.4826">
        <ele>1786</ele>
        <time>2021-08-11T12:43:33.654Z</time>
      </trkpt>
      <trkpt lat="46.87684" lon="8.48261">
        <ele>1785</ele>
        <time>2021-08-11T12:43:34.655Z</time>
      </trkpt>
      <trkpt lat="46.87684" lon="8.48262">
        <ele>1785</ele>
        <time>2021-08-11T12:43:35.654Z</time>
      </trkpt>
      <trkpt lat="46.87684" lon="8.48262">
        <ele>1786</ele>
        <time>2021-08-11T12:43:36.654Z</time>
      </trkpt>
      <trkpt lat="46.87683" lon="8.48263">
        <ele>1786</ele>
        <time>2021-08-11T12:43:37.654Z</time>
      </trkpt>
      <trkpt lat="46.87683" lon="8.48264">
        <ele>1786</ele>
        <time>2021-08-11T12:43:38.654Z</time>
      </trkpt>
      <trkpt lat="46.87683" lon="8.48263">
        <ele>1785</ele>
        <time>2021-08-11T12:43:39.655Z</time>
      </trkpt>
      <trkpt lat="46.87683" lon="8.48262">
        <ele>1785</ele>
        <time>2021-08-11T12:43:40.655Z</time>
      </trkpt>
      <trkpt lat="46.87683" lon="8.48261">
        <ele>1785</ele>
        <time>2021-08-11T12:43:41.654Z</time>
      </trkpt>
      <trkpt lat="46.87688" lon="8.48264">
        <ele>1782</ele>
        <time>2021-08-11T12:43:42.654Z</time>
      </trkpt>
      <trkpt lat="46.87688" lon="8.48264">
        <ele>1782</ele>
        <time>2021-08-11T12:43:43.654Z</time>
      </trkpt>
      <trkpt lat="46.87688" lon="8.48263">
        <ele>1782</ele>
        <time>2021-08-11T12:43:52.770Z</time>
      </trkpt>
      <trkpt lat="46.87685" lon="8.48262">
        <ele>1789</ele>
        <time>2021-08-11T12:43:53.771Z</time>
      </trkpt>
      <trkpt lat="46.87685" lon="8.48261">
        <ele>1787</ele>
        <time>2021-08-11T12:43:54.772Z</time>
      </trkpt>
      <trkpt lat="46.87686" lon="8.48261">
        <ele>1782</ele>
        <time>2021-08-11T12:43:55.772Z</time>
      </trkpt>
      <trkpt lat="46.87687" lon="8.48261">
        <ele>1782</ele>
        <time>2021-08-11T12:43:56.771Z</time>
      </trkpt>
      <trkpt lat="46.87687" lon="8.48261">
        <ele>1783</ele>
        <time>2021-08-11T12:43:57.771Z</time>
      </trkpt>
      <trkpt lat="46.87686" lon="8.48259">
        <ele>1782</ele>
        <time>2021-08-11T12:43:58.773Z</time>
      </trkpt>
      <trkpt lat="46.87686" lon="8.4826">
        <ele>1781</ele>
        <time>2021-08-11T12:43:59.772Z</time>
      </trkpt>
      <trkpt lat="46.87686" lon="8.4826">
        <ele>1781</ele>
        <time>2021-08-11T12:44:00.773Z</time>
      </trkpt>
      <trkpt lat="46.87687" lon="8.48261">
        <ele>1780</ele>
        <time>2021-08-11T12:44:01.773Z</time>
      </trkpt>
      <trkpt lat="46.87687" lon="8.4826">
        <ele>1782</ele>
        <time>2021-08-11T12:44:02.773Z</time>
      </trkpt>
      <trkpt lat="46.87687" lon="8.4826">
        <ele>1783</ele>
        <time>2021-08-11T12:44:03.773Z</time>
      </trkpt>
      <trkpt lat="46.87688" lon="8.4826">
        <ele>1783</ele>
        <time>2021-08-11T12:44:04.773Z</time>
      </trkpt>
      <trkpt lat="46.87691" lon="8.48259">
        <ele>1786</ele>
        <time>2021-08-11T12:44:05.774Z</time>
      </trkpt>
      <trkpt lat="46.8769" lon="8.48258">
        <ele>1786</ele>
        <time>2021-08-11T12:44:06.773Z</time>
      </trkpt>
      <trkpt lat="46.8769" lon="8.48258">
        <ele>1787</ele>
        <time>2021-08-11T12:44:07.774Z</time>
      </trkpt>
      <trkpt lat="46.87691" lon="8.48257">
        <ele>1788</ele>
        <time>2021-08-11T12:44:08.775Z</time>
      </trkpt>
      <trkpt lat="46.87691" lon="8.48257">
        <ele>1788</ele>
        <time>2021-08-11T12:44:09.775Z</time>
      </trkpt>
      <trkpt lat="46.8769" lon="8.48257">
        <ele>1788</ele>
        <time>2021-08-11T12:44:10.774Z</time>
      </trkpt>
      <trkpt lat="46.8769" lon="8.48256">
        <ele>1788</ele>
        <time>2021-08-11T12:44:11.775Z</time>
      </trkpt>
      <trkpt lat="46.8769" lon="8.48256">
        <ele>1788</ele>
        <time>2021-08-11T12:44:12.775Z</time>
      </trkpt>
      <trkpt lat="46.8769" lon="8.48258">
        <ele>1782</ele>
        <time>2021-08-11T12:44:13.775Z</time>
      </trkpt>
      <trkpt lat="46.8769" lon="8.48258">
        <ele>1782</ele>
        <time>2021-08-11T12:44:14.776Z</time>
      </trkpt>
      <trkpt lat="46.87691" lon="8.48258">
        <ele>1782</ele>
        <time>2021-08-11T12:44:15.775Z</time>
      </trkpt>
      <trkpt lat="46.87691" lon="8.48259">
        <ele>1779</ele>
        <time>2021-08-11T12:44:16.651Z</time>
      </trkpt>
      <trkpt lat="46.87691" lon="8.48259">
        <ele>1779</ele>
        <time>2021-08-11T12:44:17.651Z</time>
      </trkpt>
      <trkpt lat="46.87691" lon="8.48259">
        <ele>1778</ele>
        <time>2021-08-11T12:44:18.651Z</time>
      </trkpt>
      <trkpt lat="46.8769" lon="8.48258">
        <ele>1778</ele>
        <time>2021-08-11T12:44:19.651Z</time>
      </trkpt>
      <trkpt lat="46.87691" lon="8.48259">
        <ele>1778</ele>
        <time>2021-08-11T12:44:20.775Z</time>
      </trkpt>
      <trkpt lat="46.87691" lon="8.48259">
        <ele>1778</ele>
        <time>2021-08-11T12:44:21.651Z</time>
      </trkpt>
      <trkpt lat="46.87692" lon="8.48259">
        <ele>1778</ele>
        <time>2021-08-11T12:44:22.651Z</time>
      </trkpt>
      <trkpt lat="46.87692" lon="8.48259">
        <ele>1779</ele>
        <time>2021-08-11T12:44:23.651Z</time>
      </trkpt>
      <trkpt lat="46.87693" lon="8.48259">
        <ele>1779</ele>
        <time>2021-08-11T12:44:24.775Z</time>
      </trkpt>
      <trkpt lat="46.87693" lon="8.48259">
        <ele>1779</ele>
        <time>2021-08-11T12:44:25.651Z</time>
      </trkpt>
      <trkpt lat="46.87694" lon="8.48259">
        <ele>1780</ele>
        <time>2021-08-11T12:44:26.775Z</time>
      </trkpt>
      <trkpt lat="46.87694" lon="8.48259">
        <ele>1781</ele>
        <time>2021-08-11T12:44:27.775Z</time>
      </trkpt>
      <trkpt lat="46.87695" lon="8.48259">
        <ele>1781</ele>
        <time>2021-08-11T12:44:28.775Z</time>
      </trkpt>
      <trkpt lat="46.87695" lon="8.48258">
        <ele>1781</ele>
        <time>2021-08-11T12:44:29.775Z</time>
      </trkpt>
      <trkpt lat="46.87695" lon="8.48258">
        <ele>1781</ele>
        <time>2021-08-11T12:44:30.775Z</time>
      </trkpt>
      <trkpt lat="46.87695" lon="8.48257">
        <ele>1781</ele>
        <time>2021-08-11T12:44:31.775Z</time>
      </trkpt>
      <trkpt lat="46.87696" lon="8.48256">
        <ele>1780</ele>
        <time>2021-08-11T12:44:32.775Z</time>
      </trkpt>
      <trkpt lat="46.87697" lon="8.48254">
        <ele>1780</ele>
        <time>2021-08-11T12:44:33.776Z</time>
      </trkpt>
      <trkpt lat="46.87697" lon="8.48253">
        <ele>1780</ele>
        <time>2021-08-11T12:44:34.775Z</time>
      </trkpt>
      <trkpt lat="46.87697" lon="8.48253">
        <ele>1780</ele>
        <time>2021-08-11T12:44:35.651Z</time>
      </trkpt>
      <trkpt lat="46.87698" lon="8.48252">
        <ele>1780</ele>
        <time>2021-08-11T12:44:36.776Z</time>
      </trkpt>
      <trkpt lat="46.87698" lon="8.48252">
        <ele>1780</ele>
        <time>2021-08-11T12:44:37.651Z</time>
      </trkpt>
      <trkpt lat="46.87698" lon="8.48251">
        <ele>1779</ele>
        <time>2021-08-11T12:44:38.651Z</time>
      </trkpt>
      <trkpt lat="46.87698" lon="8.48251">
        <ele>1779</ele>
        <time>2021-08-11T12:44:39.651Z</time>
      </trkpt>
      <trkpt lat="46.87698" lon="8.4825">
        <ele>1779</ele>
        <time>2021-08-11T12:44:40.776Z</time>
      </trkpt>
      <trkpt lat="46.87698" lon="8.4825">
        <ele>1779</ele>
        <time>2021-08-11T12:44:41.651Z</time>
      </trkpt>
      <trkpt lat="46.87699" lon="8.48249">
        <ele>1778</ele>
        <time>2021-08-11T12:44:42.775Z</time>
      </trkpt>
      <trkpt lat="46.87699" lon="8.48249">
        <ele>1778</ele>
        <time>2021-08-11T12:44:43.651Z</time>
      </trkpt>
      <trkpt lat="46.87699" lon="8.48248">
        <ele>1778</ele>
        <time>2021-08-11T12:44:44.651Z</time>
      </trkpt>
      <trkpt lat="46.877" lon="8.48247">
        <ele>1778</ele>
        <time>2021-08-11T12:44:45.651Z</time>
      </trkpt>
      <trkpt lat="46.877" lon="8.48245">
        <ele>1777</ele>
        <time>2021-08-11T12:44:46.651Z</time>
      </trkpt>
      <trkpt lat="46.877" lon="8.48244">
        <ele>1776</ele>
        <time>2021-08-11T12:44:47.775Z</time>
      </trkpt>
      <trkpt lat="46.877" lon="8.48242">
        <ele>1776</ele>
        <time>2021-08-11T12:44:48.775Z</time>
      </trkpt>
      <trkpt lat="46.877" lon="8.48242">
        <ele>1776</ele>
        <time>2021-08-11T12:44:49.651Z</time>
      </trkpt>
      <trkpt lat="46.877" lon="8.48242">
        <ele>1775</ele>
        <time>2021-08-11T12:44:50.651Z</time>
      </trkpt>
      <trkpt lat="46.877" lon="8.48242">
        <ele>1775</ele>
        <time>2021-08-11T12:44:51.651Z</time>
      </trkpt>
      <trkpt lat="46.87701" lon="8.48242">
        <ele>1775</ele>
        <time>2021-08-11T12:44:52.651Z</time>
      </trkpt>
      <trkpt lat="46.87701" lon="8.4824">
        <ele>1775</ele>
        <time>2021-08-11T12:44:53.776Z</time>
      </trkpt>
      <trkpt lat="46.87701" lon="8.4824">
        <ele>1775</ele>
        <time>2021-08-11T12:44:54.651Z</time>
      </trkpt>
      <trkpt lat="46.87702" lon="8.48239">
        <ele>1776</ele>
        <time>2021-08-11T12:44:55.651Z</time>
      </trkpt>
      <trkpt lat="46.87703" lon="8.48238">
        <ele>1776</ele>
        <time>2021-08-11T12:44:56.651Z</time>
      </trkpt>
      <trkpt lat="46.87704" lon="8.48235">
        <ele>1777</ele>
        <time>2021-08-11T12:44:57.775Z</time>
      </trkpt>
      <trkpt lat="46.87704" lon="8.48234">
        <ele>1777</ele>
        <time>2021-08-11T12:44:58.775Z</time>
      </trkpt>
      <trkpt lat="46.87704" lon="8.48234">
        <ele>1777</ele>
        <time>2021-08-11T12:44:59.651Z</time>
      </trkpt>
      <trkpt lat="46.87703" lon="8.48233">
        <ele>1777</ele>
        <time>2021-08-11T12:45:00.651Z</time>
      </trkpt>
      <trkpt lat="46.87704" lon="8.48232">
        <ele>1777</ele>
        <time>2021-08-11T12:45:01.651Z</time>
      </trkpt>
      <trkpt lat="46.87704" lon="8.48231">
        <ele>1777</ele>
        <time>2021-08-11T12:45:02.651Z</time>
      </trkpt>
      <trkpt lat="46.87704" lon="8.4823">
        <ele>1778</ele>
        <time>2021-08-11T12:45:03.651Z</time>
      </trkpt>
      <trkpt lat="46.87704" lon="8.48229">
        <ele>1778</ele>
        <time>2021-08-11T12:45:04.651Z</time>
      </trkpt>
      <trkpt lat="46.87704" lon="8.48228">
        <ele>1778</ele>
        <time>2021-08-11T12:45:05.651Z</time>
      </trkpt>
      <trkpt lat="46.87704" lon="8.48227">
        <ele>1778</ele>
        <time>2021-08-11T12:45:06.775Z</time>
      </trkpt>
      <trkpt lat="46.87704" lon="8.48227">
        <ele>1778</ele>
        <time>2021-08-11T12:45:07.651Z</time>
      </trkpt>
      <trkpt lat="46.87704" lon="8.48226">
        <ele>1778</ele>
        <time>2021-08-11T12:45:08.651Z</time>
      </trkpt>
      <trkpt lat="46.87706" lon="8.48225">
        <ele>1779</ele>
        <time>2021-08-11T12:45:09.776Z</time>
      </trkpt>
      <trkpt lat="46.87706" lon="8.48225">
        <ele>1779</ele>
        <time>2021-08-11T12:45:10.651Z</time>
      </trkpt>
      <trkpt lat="46.87707" lon="8.48224">
        <ele>1780</ele>
        <time>2021-08-11T12:45:11.775Z</time>
      </trkpt>
      <trkpt lat="46.87707" lon="8.48223">
        <ele>1781</ele>
        <time>2021-08-11T12:45:12.775Z</time>
      </trkpt>
      <trkpt lat="46.87707" lon="8.48223">
        <ele>1781</ele>
        <time>2021-08-11T12:45:13.651Z</time>
      </trkpt>
      <trkpt lat="46.87707" lon="8.48222">
        <ele>1781</ele>
        <time>2021-08-11T12:45:14.651Z</time>
      </trkpt>
      <trkpt lat="46.87707" lon="8.48221">
        <ele>1781</ele>
        <time>2021-08-11T12:45:15.651Z</time>
      </trkpt>
      <trkpt lat="46.87708" lon="8.48221">
        <ele>1781</ele>
        <time>2021-08-11T12:45:16.651Z</time>
      </trkpt>
      <trkpt lat="46.87708" lon="8.4822">
        <ele>1781</ele>
        <time>2021-08-11T12:45:17.651Z</time>
      </trkpt>
      <trkpt lat="46.87708" lon="8.48219">
        <ele>1781</ele>
        <time>2021-08-11T12:45:18.651Z</time>
      </trkpt>
      <trkpt lat="46.87709" lon="8.48217">
        <ele>1780</ele>
        <time>2021-08-11T12:45:19.775Z</time>
      </trkpt>
      <trkpt lat="46.87709" lon="8.48216">
        <ele>1779</ele>
        <time>2021-08-11T12:45:20.776Z</time>
      </trkpt>
      <trkpt lat="46.87709" lon="8.48216">
        <ele>1779</ele>
        <time>2021-08-11T12:45:21.651Z</time>
      </trkpt>
      <trkpt lat="46.87708" lon="8.48216">
        <ele>1779</ele>
        <time>2021-08-11T12:45:22.651Z</time>
      </trkpt>
      <trkpt lat="46.87708" lon="8.48215">
        <ele>1779</ele>
        <time>2021-08-11T12:45:23.651Z</time>
      </trkpt>
      <trkpt lat="46.87708" lon="8.48215">
        <ele>1779</ele>
        <time>2021-08-11T12:45:24.651Z</time>
      </trkpt>
      <trkpt lat="46.87709" lon="8.48214">
        <ele>1778</ele>
        <time>2021-08-11T12:45:25.775Z</time>
      </trkpt>
      <trkpt lat="46.87709" lon="8.48214">
        <ele>1778</ele>
        <time>2021-08-11T12:45:26.651Z</time>
      </trkpt>
      <trkpt lat="46.87709" lon="8.48213">
        <ele>1778</ele>
        <time>2021-08-11T12:45:27.651Z</time>
      </trkpt>
      <trkpt lat="46.87709" lon="8.48212">
        <ele>1779</ele>
        <time>2021-08-11T12:45:28.651Z</time>
      </trkpt>
      <trkpt lat="46.87708" lon="8.48211">
        <ele>1779</ele>
        <time>2021-08-11T12:45:29.651Z</time>
      </trkpt>
      <trkpt lat="46.87707" lon="8.4821">
        <ele>1779</ele>
        <time>2021-08-11T12:45:30.775Z</time>
      </trkpt>
      <trkpt lat="46.87707" lon="8.48208">
        <ele>1779</ele>
        <time>2021-08-11T12:45:31.775Z</time>
      </trkpt>
      <trkpt lat="46.87707" lon="8.48208">
        <ele>1779</ele>
        <time>2021-08-11T12:45:32.651Z</time>
      </trkpt>
      <trkpt lat="46.87707" lon="8.48208">
        <ele>1779</ele>
        <time>2021-08-11T12:45:33.651Z</time>
      </trkpt>
      <trkpt lat="46.87707" lon="8.48207">
        <ele>1779</ele>
        <time>2021-08-11T12:45:34.651Z</time>
      </trkpt>
      <trkpt lat="46.87707" lon="8.48205">
        <ele>1779</ele>
        <time>2021-08-11T12:45:35.775Z</time>
      </trkpt>
      <trkpt lat="46.87707" lon="8.48204">
        <ele>1779</ele>
        <time>2021-08-11T12:45:36.775Z</time>
      </trkpt>
      <trkpt lat="46.87707" lon="8.48204">
        <ele>1779</ele>
        <time>2021-08-11T12:45:37.651Z</time>
      </trkpt>
      <trkpt lat="46.87709" lon="8.48202">
        <ele>1780</ele>
        <time>2021-08-11T12:45:38.775Z</time>
      </trkpt>
      <trkpt lat="46.8771" lon="8.48201">
        <ele>1781</ele>
        <time>2021-08-11T12:45:39.775Z</time>
      </trkpt>
      <trkpt lat="46.8771" lon="8.48201">
        <ele>1781</ele>
        <time>2021-08-11T12:45:40.775Z</time>
      </trkpt>
      <trkpt lat="46.8771" lon="8.48201">
        <ele>1781</ele>
        <time>2021-08-11T12:45:41.651Z</time>
      </trkpt>
      <trkpt lat="46.8771" lon="8.48199">
        <ele>1781</ele>
        <time>2021-08-11T12:45:42.651Z</time>
      </trkpt>
      <trkpt lat="46.87711" lon="8.48198">
        <ele>1780</ele>
        <time>2021-08-11T12:45:43.651Z</time>
      </trkpt>
      <trkpt lat="46.8771" lon="8.48197">
        <ele>1781</ele>
        <time>2021-08-11T12:45:44.651Z</time>
      </trkpt>
      <trkpt lat="46.8771" lon="8.48196">
        <ele>1781</ele>
        <time>2021-08-11T12:45:45.651Z</time>
      </trkpt>
      <trkpt lat="46.8771" lon="8.48195">
        <ele>1781</ele>
        <time>2021-08-11T12:45:46.651Z</time>
      </trkpt>
      <trkpt lat="46.87711" lon="8.48196">
        <ele>1781</ele>
        <time>2021-08-11T12:45:47.776Z</time>
      </trkpt>
      <trkpt lat="46.87711" lon="8.48196">
        <ele>1781</ele>
        <time>2021-08-11T12:45:48.651Z</time>
      </trkpt>
      <trkpt lat="46.87711" lon="8.48196">
        <ele>1782</ele>
        <time>2021-08-11T12:45:49.651Z</time>
      </trkpt>
      <trkpt lat="46.87711" lon="8.48197">
        <ele>1783</ele>
        <time>2021-08-11T12:45:50.651Z</time>
      </trkpt>
      <trkpt lat="46.87711" lon="8.48199">
        <ele>1784</ele>
        <time>2021-08-11T12:45:51.651Z</time>
      </trkpt>
      <trkpt lat="46.87712" lon="8.48201">
        <ele>1786</ele>
        <time>2021-08-11T12:45:52.775Z</time>
      </trkpt>
      <trkpt lat="46.87712" lon="8.48202">
        <ele>1787</ele>
        <time>2021-08-11T12:45:53.775Z</time>
      </trkpt>
      <trkpt lat="46.87712" lon="8.48202">
        <ele>1787</ele>
        <time>2021-08-11T12:45:54.651Z</time>
      </trkpt>
      <trkpt lat="46.87713" lon="8.48202">
        <ele>1787</ele>
        <time>2021-08-11T12:45:59.775Z</time>
      </trkpt>
      <trkpt lat="46.87713" lon="8.48201">
        <ele>1788</ele>
        <time>2021-08-11T12:46:00.775Z</time>
      </trkpt>
      <trkpt lat="46.87713" lon="8.48201">
        <ele>1788</ele>
        <time>2021-08-11T12:46:01.775Z</time>
      </trkpt>
      <trkpt lat="46.87714" lon="8.482">
        <ele>1789</ele>
        <time>2021-08-11T12:46:02.775Z</time>
      </trkpt>
      <trkpt lat="46.87714" lon="8.482">
        <ele>1789</ele>
        <time>2021-08-11T12:46:03.775Z</time>
      </trkpt>
      <trkpt lat="46.87715" lon="8.48198">
        <ele>1790</ele>
        <time>2021-08-11T12:46:04.899Z</time>
      </trkpt>
      <trkpt lat="46.87715" lon="8.48198">
        <ele>1790</ele>
        <time>2021-08-11T12:46:05.775Z</time>
      </trkpt>
      <trkpt lat="46.87716" lon="8.48196">
        <ele>1790</ele>
        <time>2021-08-11T12:46:06.900Z</time>
      </trkpt>
      <trkpt lat="46.87716" lon="8.48196">
        <ele>1790</ele>
        <time>2021-08-11T12:46:07.775Z</time>
      </trkpt>
      <trkpt lat="46.87716" lon="8.48197">
        <ele>1790</ele>
        <time>2021-08-11T12:46:08.899Z</time>
      </trkpt>
      <trkpt lat="46.87716" lon="8.48197">
        <ele>1790</ele>
        <time>2021-08-11T12:46:09.775Z</time>
      </trkpt>
      <trkpt lat="46.87717" lon="8.48197">
        <ele>1790</ele>
        <time>2021-08-11T12:46:10.775Z</time>
      </trkpt>
      <trkpt lat="46.87718" lon="8.48198">
        <ele>1791</ele>
        <time>2021-08-11T12:46:11.775Z</time>
      </trkpt>
      <trkpt lat="46.87718" lon="8.48198">
        <ele>1791</ele>
        <time>2021-08-11T12:46:12.775Z</time>
      </trkpt>
      <trkpt lat="46.87718" lon="8.48197">
        <ele>1791</ele>
        <time>2021-08-11T12:46:13.775Z</time>
      </trkpt>
      <trkpt lat="46.87719" lon="8.48197">
        <ele>1791</ele>
        <time>2021-08-11T12:46:14.775Z</time>
      </trkpt>
      <trkpt lat="46.87719" lon="8.48196">
        <ele>1791</ele>
        <time>2021-08-11T12:46:15.775Z</time>
      </trkpt>
      <trkpt lat="46.87719" lon="8.48195">
        <ele>1791</ele>
        <time>2021-08-11T12:46:16.900Z</time>
      </trkpt>
      <trkpt lat="46.87719" lon="8.48195">
        <ele>1791</ele>
        <time>2021-08-11T12:46:17.775Z</time>
      </trkpt>
      <trkpt lat="46.87719" lon="8.48194">
        <ele>1791</ele>
        <time>2021-08-11T12:46:18.775Z</time>
      </trkpt>
      <trkpt lat="46.87719" lon="8.48194">
        <ele>1791</ele>
        <time>2021-08-11T12:46:19.775Z</time>
      </trkpt>
      <trkpt lat="46.8772" lon="8.48193">
        <ele>1791</ele>
        <time>2021-08-11T12:46:20.775Z</time>
      </trkpt>
      <trkpt lat="46.87722" lon="8.4819">
        <ele>1792</ele>
        <time>2021-08-11T12:46:21.900Z</time>
      </trkpt>
      <trkpt lat="46.87722" lon="8.4819">
        <ele>1792</ele>
        <time>2021-08-11T12:46:22.775Z</time>
      </trkpt>
      <trkpt lat="46.87722" lon="8.48189">
        <ele>1792</ele>
        <time>2021-08-11T12:46:23.775Z</time>
      </trkpt>
      <trkpt lat="46.87722" lon="8.48189">
        <ele>1792</ele>
        <time>2021-08-11T12:46:24.775Z</time>
      </trkpt>
      <trkpt lat="46.87722" lon="8.48188">
        <ele>1792</ele>
        <time>2021-08-11T12:46:25.775Z</time>
      </trkpt>
      <trkpt lat="46.87721" lon="8.48186">
        <ele>1793</ele>
        <time>2021-08-11T12:46:26.900Z</time>
      </trkpt>
      <trkpt lat="46.87721" lon="8.48185">
        <ele>1793</ele>
        <time>2021-08-11T12:46:27.899Z</time>
      </trkpt>
      <trkpt lat="46.87721" lon="8.48185">
        <ele>1793</ele>
        <time>2021-08-11T12:46:28.775Z</time>
      </trkpt>
      <trkpt lat="46.8772" lon="8.48185">
        <ele>1793</ele>
        <time>2021-08-11T12:46:29.775Z</time>
      </trkpt>
      <trkpt lat="46.87721" lon="8.48184">
        <ele>1793</ele>
        <time>2021-08-11T12:46:30.775Z</time>
      </trkpt>
      <trkpt lat="46.87721" lon="8.48183">
        <ele>1794</ele>
        <time>2021-08-11T12:46:31.775Z</time>
      </trkpt>
      <trkpt lat="46.87721" lon="8.48181">
        <ele>1794</ele>
        <time>2021-08-11T12:46:32.900Z</time>
      </trkpt>
      <trkpt lat="46.87721" lon="8.48179">
        <ele>1794</ele>
        <time>2021-08-11T12:46:33.899Z</time>
      </trkpt>
      <trkpt lat="46.87721" lon="8.48179">
        <ele>1794</ele>
        <time>2021-08-11T12:46:34.775Z</time>
      </trkpt>
      <trkpt lat="46.87722" lon="8.48178">
        <ele>1794</ele>
        <time>2021-08-11T12:46:54.898Z</time>
      </trkpt>
      <trkpt lat="46.87721" lon="8.48178">
        <ele>1794</ele>
        <time>2021-08-11T12:46:55.898Z</time>
      </trkpt>
      <trkpt lat="46.87721" lon="8.48178">
        <ele>1794</ele>
        <time>2021-08-11T12:46:56.898Z</time>
      </trkpt>
      <trkpt lat="46.87721" lon="8.48178">
        <ele>1794</ele>
        <time>2021-08-11T12:47:05.002Z</time>
      </trkpt>
      <trkpt lat="46.87721" lon="8.48177">
        <ele>1794</ele>
        <time>2021-08-11T12:47:06.002Z</time>
      </trkpt>
      <trkpt lat="46.87721" lon="8.48176">
        <ele>1793</ele>
        <time>2021-08-11T12:47:07.126Z</time>
      </trkpt>
      <trkpt lat="46.87722" lon="8.48176">
        <ele>1793</ele>
        <time>2021-08-11T12:47:08.126Z</time>
      </trkpt>
      <trkpt lat="46.87722" lon="8.48176">
        <ele>1793</ele>
        <time>2021-08-11T12:47:09.002Z</time>
      </trkpt>
      <trkpt lat="46.87722" lon="8.48176">
        <ele>1793</ele>
        <time>2021-08-11T12:47:10.002Z</time>
      </trkpt>
      <trkpt lat="46.87722" lon="8.48175">
        <ele>1793</ele>
        <time>2021-08-11T12:47:11.002Z</time>
      </trkpt>
      <trkpt lat="46.87722" lon="8.48175">
        <ele>1792</ele>
        <time>2021-08-11T12:47:12.002Z</time>
      </trkpt>
      <trkpt lat="46.87722" lon="8.48174">
        <ele>1791</ele>
        <time>2021-08-11T12:47:13.127Z</time>
      </trkpt>
      <trkpt lat="46.87722" lon="8.48173">
        <ele>1791</ele>
        <time>2021-08-11T12:47:14.127Z</time>
      </trkpt>
      <trkpt lat="46.87722" lon="8.48173">
        <ele>1791</ele>
        <time>2021-08-11T12:47:15.002Z</time>
      </trkpt>
      <trkpt lat="46.87723" lon="8.48173">
        <ele>1791</ele>
        <time>2021-08-11T12:47:16.002Z</time>
      </trkpt>
      <trkpt lat="46.87723" lon="8.48172">
        <ele>1791</ele>
        <time>2021-08-11T12:47:17.126Z</time>
      </trkpt>
      <trkpt lat="46.87724" lon="8.48172">
        <ele>1791</ele>
        <time>2021-08-11T12:47:18.127Z</time>
      </trkpt>
      <trkpt lat="46.87724" lon="8.48172">
        <ele>1791</ele>
        <time>2021-08-11T12:47:19.002Z</time>
      </trkpt>
      <trkpt lat="46.87724" lon="8.48172">
        <ele>1791</ele>
        <time>2021-08-11T12:47:20.002Z</time>
      </trkpt>
      <trkpt lat="46.87723" lon="8.48173">
        <ele>1791</ele>
        <time>2021-08-11T12:47:21.002Z</time>
      </trkpt>
      <trkpt lat="46.87723" lon="8.48172">
        <ele>1791</ele>
        <time>2021-08-11T12:47:22.002Z</time>
      </trkpt>
      <trkpt lat="46.87724" lon="8.48172">
        <ele>1791</ele>
        <time>2021-08-11T12:47:23.002Z</time>
      </trkpt>
      <trkpt lat="46.87725" lon="8.48173">
        <ele>1792</ele>
        <time>2021-08-11T12:47:24.002Z</time>
      </trkpt>
      <trkpt lat="46.87726" lon="8.48172">
        <ele>1792</ele>
        <time>2021-08-11T12:47:25.002Z</time>
      </trkpt>
      <trkpt lat="46.87726" lon="8.48172">
        <ele>1792</ele>
        <time>2021-08-11T12:47:26.002Z</time>
      </trkpt>
      <trkpt lat="46.87727" lon="8.48172">
        <ele>1792</ele>
        <time>2021-08-11T12:47:27.126Z</time>
      </trkpt>
      <trkpt lat="46.87727" lon="8.48172">
        <ele>1792</ele>
        <time>2021-08-11T12:47:28.002Z</time>
      </trkpt>
      <trkpt lat="46.87727" lon="8.48172">
        <ele>1793</ele>
        <time>2021-08-11T12:47:29.002Z</time>
      </trkpt>
      <trkpt lat="46.87728" lon="8.48173">
        <ele>1793</ele>
        <time>2021-08-11T12:47:30.002Z</time>
      </trkpt>
      <trkpt lat="46.87728" lon="8.48173">
        <ele>1794</ele>
        <time>2021-08-11T12:47:31.002Z</time>
      </trkpt>
      <trkpt lat="46.87729" lon="8.48174">
        <ele>1794</ele>
        <time>2021-08-11T12:47:32.126Z</time>
      </trkpt>
      <trkpt lat="46.87729" lon="8.48174">
        <ele>1794</ele>
        <time>2021-08-11T12:47:33.002Z</time>
      </trkpt>
      <trkpt lat="46.87729" lon="8.48175">
        <ele>1794</ele>
        <time>2021-08-11T12:47:34.002Z</time>
      </trkpt>
      <trkpt lat="46.87729" lon="8.48175">
        <ele>1794</ele>
        <time>2021-08-11T12:47:35.002Z</time>
      </trkpt>
      <trkpt lat="46.8773" lon="8.48176">
        <ele>1794</ele>
        <time>2021-08-11T12:47:36.127Z</time>
      </trkpt>
      <trkpt lat="46.8773" lon="8.48176">
        <ele>1794</ele>
        <time>2021-08-11T12:47:37.002Z</time>
      </trkpt>
      <trkpt lat="46.8773" lon="8.48177">
        <ele>1793</ele>
        <time>2021-08-11T12:47:38.002Z</time>
      </trkpt>
      <trkpt lat="46.87731" lon="8.48177">
        <ele>1793</ele>
        <time>2021-08-11T12:47:39.002Z</time>
      </trkpt>
      <trkpt lat="46.87731" lon="8.48178">
        <ele>1793</ele>
        <time>2021-08-11T12:47:40.002Z</time>
      </trkpt>
      <trkpt lat="46.87732" lon="8.48178">
        <ele>1793</ele>
        <time>2021-08-11T12:47:41.002Z</time>
      </trkpt>
      <trkpt lat="46.87733" lon="8.48179">
        <ele>1794</ele>
        <time>2021-08-11T12:47:56.267Z</time>
      </trkpt>
      <trkpt lat="46.87733" lon="8.48179">
        <ele>1794</ele>
        <time>2021-08-11T12:47:57.143Z</time>
      </trkpt>
      <trkpt lat="46.87733" lon="8.4818">
        <ele>1794</ele>
        <time>2021-08-11T12:48:01.016Z</time>
      </trkpt>
      <trkpt lat="46.87733" lon="8.48181">
        <ele>1795</ele>
        <time>2021-08-11T12:48:02.016Z</time>
      </trkpt>
      <trkpt lat="46.87734" lon="8.48182">
        <ele>1796</ele>
        <time>2021-08-11T12:48:03.016Z</time>
      </trkpt>
      <trkpt lat="46.87735" lon="8.48183">
        <ele>1796</ele>
        <time>2021-08-11T12:48:04.016Z</time>
      </trkpt>
      <trkpt lat="46.87735" lon="8.48183">
        <ele>1797</ele>
        <time>2021-08-11T12:48:05.016Z</time>
      </trkpt>
      <trkpt lat="46.87736" lon="8.48184">
        <ele>1797</ele>
        <time>2021-08-11T12:48:06.016Z</time>
      </trkpt>
      <trkpt lat="46.87737" lon="8.48184">
        <ele>1797</ele>
        <time>2021-08-11T12:48:07.140Z</time>
      </trkpt>
      <trkpt lat="46.87737" lon="8.48184">
        <ele>1797</ele>
        <time>2021-08-11T12:48:08.016Z</time>
      </trkpt>
      <trkpt lat="46.87738" lon="8.48184">
        <ele>1797</ele>
        <time>2021-08-11T12:48:09.016Z</time>
      </trkpt>
      <trkpt lat="46.87738" lon="8.48185">
        <ele>1797</ele>
        <time>2021-08-11T12:48:10.016Z</time>
      </trkpt>
      <trkpt lat="46.87739" lon="8.48185">
        <ele>1798</ele>
        <time>2021-08-11T12:48:11.016Z</time>
      </trkpt>
      <trkpt lat="46.8774" lon="8.48186">
        <ele>1798</ele>
        <time>2021-08-11T12:48:12.140Z</time>
      </trkpt>
      <trkpt lat="46.8774" lon="8.48186">
        <ele>1798</ele>
        <time>2021-08-11T12:48:13.016Z</time>
      </trkpt>
      <trkpt lat="46.8774" lon="8.48187">
        <ele>1798</ele>
        <time>2021-08-11T12:48:30.142Z</time>
      </trkpt>
      <trkpt lat="46.8774" lon="8.48188">
        <ele>1798</ele>
        <time>2021-08-11T12:48:31.142Z</time>
      </trkpt>
      <trkpt lat="46.87741" lon="8.48188">
        <ele>1797</ele>
        <time>2021-08-11T12:48:32.266Z</time>
      </trkpt>
      <trkpt lat="46.87741" lon="8.48188">
        <ele>1797</ele>
        <time>2021-08-11T12:48:33.142Z</time>
      </trkpt>
      <trkpt lat="46.87742" lon="8.48188">
        <ele>1797</ele>
        <time>2021-08-11T12:48:34.142Z</time>
      </trkpt>
      <trkpt lat="46.87742" lon="8.48189">
        <ele>1798</ele>
        <time>2021-08-11T12:48:35.142Z</time>
      </trkpt>
      <trkpt lat="46.87744" lon="8.4819">
        <ele>1799</ele>
        <time>2021-08-11T12:48:36.267Z</time>
      </trkpt>
      <trkpt lat="46.87744" lon="8.4819">
        <ele>1799</ele>
        <time>2021-08-11T12:48:37.266Z</time>
      </trkpt>
      <trkpt lat="46.87744" lon="8.4819">
        <ele>1799</ele>
        <time>2021-08-11T12:48:38.142Z</time>
      </trkpt>
      <trkpt lat="46.87745" lon="8.4819">
        <ele>1799</ele>
        <time>2021-08-11T12:48:39.142Z</time>
      </trkpt>
      <trkpt lat="46.87745" lon="8.48191">
        <ele>1799</ele>
        <time>2021-08-11T12:48:40.142Z</time>
      </trkpt>
      <trkpt lat="46.87746" lon="8.48192">
        <ele>1800</ele>
        <time>2021-08-11T12:48:41.266Z</time>
      </trkpt>
      <trkpt lat="46.87746" lon="8.48192">
        <ele>1800</ele>
        <time>2021-08-11T12:48:42.142Z</time>
      </trkpt>
      <trkpt lat="46.87747" lon="8.48191">
        <ele>1800</ele>
        <time>2021-08-11T12:48:43.142Z</time>
      </trkpt>
      <trkpt lat="46.87747" lon="8.48191">
        <ele>1800</ele>
        <time>2021-08-11T12:48:44.142Z</time>
      </trkpt>
      <trkpt lat="46.87747" lon="8.48191">
        <ele>1800</ele>
        <time>2021-08-11T12:48:45.142Z</time>
      </trkpt>
      <trkpt lat="46.87749" lon="8.48191">
        <ele>1799</ele>
        <time>2021-08-11T12:48:46.266Z</time>
      </trkpt>
      <trkpt lat="46.87749" lon="8.4819">
        <ele>1804</ele>
        <time>2021-08-11T12:48:47.142Z</time>
      </trkpt>
      <trkpt lat="46.87749" lon="8.4819">
        <ele>1805</ele>
        <time>2021-08-11T12:48:48.142Z</time>
      </trkpt>
      <trkpt lat="46.87748" lon="8.48192">
        <ele>1810</ele>
        <time>2021-08-11T12:48:49.143Z</time>
      </trkpt>
      <trkpt lat="46.87748" lon="8.48193">
        <ele>1810</ele>
        <time>2021-08-11T12:48:50.142Z</time>
      </trkpt>
      <trkpt lat="46.87749" lon="8.48194">
        <ele>1811</ele>
        <time>2021-08-11T12:48:51.143Z</time>
      </trkpt>
      <trkpt lat="46.87749" lon="8.48194">
        <ele>1811</ele>
        <time>2021-08-11T12:48:52.143Z</time>
      </trkpt>
      <trkpt lat="46.8775" lon="8.48194">
        <ele>1811</ele>
        <time>2021-08-11T12:48:53.142Z</time>
      </trkpt>
      <trkpt lat="46.8775" lon="8.48193">
        <ele>1811</ele>
        <time>2021-08-11T12:48:54.143Z</time>
      </trkpt>
      <trkpt lat="46.87751" lon="8.48193">
        <ele>1811</ele>
        <time>2021-08-11T12:48:55.143Z</time>
      </trkpt>
      <trkpt lat="46.87751" lon="8.48194">
        <ele>1811</ele>
        <time>2021-08-11T12:48:56.142Z</time>
      </trkpt>
      <trkpt lat="46.87751" lon="8.48195">
        <ele>1811</ele>
        <time>2021-08-11T12:48:57.143Z</time>
      </trkpt>
      <trkpt lat="46.87751" lon="8.48195">
        <ele>1812</ele>
        <time>2021-08-11T12:48:58.142Z</time>
      </trkpt>
      <trkpt lat="46.87752" lon="8.48197">
        <ele>1812</ele>
        <time>2021-08-11T12:48:59.143Z</time>
      </trkpt>
      <trkpt lat="46.87753" lon="8.48197">
        <ele>1813</ele>
        <time>2021-08-11T12:49:00.142Z</time>
      </trkpt>
      <trkpt lat="46.87753" lon="8.48197">
        <ele>1814</ele>
        <time>2021-08-11T12:49:01.143Z</time>
      </trkpt>
      <trkpt lat="46.87753" lon="8.48198">
        <ele>1814</ele>
        <time>2021-08-11T12:49:02.143Z</time>
      </trkpt>
      <trkpt lat="46.87754" lon="8.48199">
        <ele>1814</ele>
        <time>2021-08-11T12:49:03.143Z</time>
      </trkpt>
      <trkpt lat="46.87754" lon="8.48199">
        <ele>1815</ele>
        <time>2021-08-11T12:49:04.143Z</time>
      </trkpt>
      <trkpt lat="46.87756" lon="8.48201">
        <ele>1815</ele>
        <time>2021-08-11T12:49:05.142Z</time>
      </trkpt>
      <trkpt lat="46.87757" lon="8.48203">
        <ele>1815</ele>
        <time>2021-08-11T12:49:06.142Z</time>
      </trkpt>
      <trkpt lat="46.87757" lon="8.48203">
        <ele>1815</ele>
        <time>2021-08-11T12:49:07.143Z</time>
      </trkpt>
      <trkpt lat="46.87757" lon="8.48204">
        <ele>1815</ele>
        <time>2021-08-11T12:49:08.143Z</time>
      </trkpt>
      <trkpt lat="46.87757" lon="8.48205">
        <ele>1814</ele>
        <time>2021-08-11T12:49:09.143Z</time>
      </trkpt>
      <trkpt lat="46.87757" lon="8.48205">
        <ele>1814</ele>
        <time>2021-08-11T12:49:10.142Z</time>
      </trkpt>
      <trkpt lat="46.87758" lon="8.48205">
        <ele>1813</ele>
        <time>2021-08-11T12:49:11.142Z</time>
      </trkpt>
      <trkpt lat="46.87758" lon="8.48205">
        <ele>1813</ele>
        <time>2021-08-11T12:49:12.142Z</time>
      </trkpt>
      <trkpt lat="46.87759" lon="8.48205">
        <ele>1812</ele>
        <time>2021-08-11T12:49:13.143Z</time>
      </trkpt>
      <trkpt lat="46.8776" lon="8.48205">
        <ele>1812</ele>
        <time>2021-08-11T12:49:14.142Z</time>
      </trkpt>
      <trkpt lat="46.87761" lon="8.48206">
        <ele>1812</ele>
        <time>2021-08-11T12:49:15.142Z</time>
      </trkpt>
      <trkpt lat="46.87761" lon="8.48207">
        <ele>1811</ele>
        <time>2021-08-11T12:49:16.143Z</time>
      </trkpt>
      <trkpt lat="46.87761" lon="8.48207">
        <ele>1811</ele>
        <time>2021-08-11T12:49:17.142Z</time>
      </trkpt>
      <trkpt lat="46.87762" lon="8.48206">
        <ele>1811</ele>
        <time>2021-08-11T12:49:18.143Z</time>
      </trkpt>
      <trkpt lat="46.87763" lon="8.48206">
        <ele>1811</ele>
        <time>2021-08-11T12:49:19.143Z</time>
      </trkpt>
      <trkpt lat="46.87763" lon="8.48206">
        <ele>1810</ele>
        <time>2021-08-11T12:49:20.142Z</time>
      </trkpt>
      <trkpt lat="46.87764" lon="8.48206">
        <ele>1810</ele>
        <time>2021-08-11T12:49:21.143Z</time>
      </trkpt>
      <trkpt lat="46.87764" lon="8.48206">
        <ele>1809</ele>
        <time>2021-08-11T12:49:22.142Z</time>
      </trkpt>
      <trkpt lat="46.87765" lon="8.48206">
        <ele>1809</ele>
        <time>2021-08-11T12:49:23.143Z</time>
      </trkpt>
      <trkpt lat="46.87766" lon="8.48206">
        <ele>1809</ele>
        <time>2021-08-11T12:49:24.143Z</time>
      </trkpt>
      <trkpt lat="46.87766" lon="8.48205">
        <ele>1808</ele>
        <time>2021-08-11T12:49:25.142Z</time>
      </trkpt>
      <trkpt lat="46.87767" lon="8.48206">
        <ele>1808</ele>
        <time>2021-08-11T12:49:26.142Z</time>
      </trkpt>
      <trkpt lat="46.87767" lon="8.48206">
        <ele>1808</ele>
        <time>2021-08-11T12:49:27.142Z</time>
      </trkpt>
      <trkpt lat="46.87768" lon="8.48206">
        <ele>1807</ele>
        <time>2021-08-11T12:49:28.143Z</time>
      </trkpt>
      <trkpt lat="46.87768" lon="8.48206">
        <ele>1806</ele>
        <time>2021-08-11T12:49:29.143Z</time>
      </trkpt>
      <trkpt lat="46.87769" lon="8.48206">
        <ele>1806</ele>
        <time>2021-08-11T12:49:30.143Z</time>
      </trkpt>
      <trkpt lat="46.8777" lon="8.48206">
        <ele>1805</ele>
        <time>2021-08-11T12:49:31.143Z</time>
      </trkpt>
      <trkpt lat="46.87771" lon="8.48206">
        <ele>1805</ele>
        <time>2021-08-11T12:49:32.143Z</time>
      </trkpt>
      <trkpt lat="46.87771" lon="8.48206">
        <ele>1804</ele>
        <time>2021-08-11T12:49:33.142Z</time>
      </trkpt>
      <trkpt lat="46.87772" lon="8.48206">
        <ele>1804</ele>
        <time>2021-08-11T12:49:34.143Z</time>
      </trkpt>
      <trkpt lat="46.87773" lon="8.48206">
        <ele>1803</ele>
        <time>2021-08-11T12:49:35.143Z</time>
      </trkpt>
      <trkpt lat="46.87774" lon="8.48206">
        <ele>1802</ele>
        <time>2021-08-11T12:49:36.143Z</time>
      </trkpt>
      <trkpt lat="46.87774" lon="8.48206">
        <ele>1802</ele>
        <time>2021-08-11T12:49:37.143Z</time>
      </trkpt>
      <trkpt lat="46.87775" lon="8.48205">
        <ele>1801</ele>
        <time>2021-08-11T12:49:38.142Z</time>
      </trkpt>
      <trkpt lat="46.87776" lon="8.48204">
        <ele>1801</ele>
        <time>2021-08-11T12:49:39.143Z</time>
      </trkpt>
      <trkpt lat="46.87777" lon="8.48204">
        <ele>1800</ele>
        <time>2021-08-11T12:49:40.143Z</time>
      </trkpt>
      <trkpt lat="46.87778" lon="8.48203">
        <ele>1800</ele>
        <time>2021-08-11T12:49:41.143Z</time>
      </trkpt>
      <trkpt lat="46.87779" lon="8.48203">
        <ele>1800</ele>
        <time>2021-08-11T12:49:42.143Z</time>
      </trkpt>
      <trkpt lat="46.8778" lon="8.48203">
        <ele>1800</ele>
        <time>2021-08-11T12:49:43.143Z</time>
      </trkpt>
      <trkpt lat="46.8778" lon="8.48203">
        <ele>1800</ele>
        <time>2021-08-11T12:49:44.143Z</time>
      </trkpt>
      <trkpt lat="46.87781" lon="8.48203">
        <ele>1800</ele>
        <time>2021-08-11T12:49:45.143Z</time>
      </trkpt>
      <trkpt lat="46.87782" lon="8.48203">
        <ele>1800</ele>
        <time>2021-08-11T12:49:46.142Z</time>
      </trkpt>
      <trkpt lat="46.87783" lon="8.48204">
        <ele>1799</ele>
        <time>2021-08-11T12:49:47.143Z</time>
      </trkpt>
      <trkpt lat="46.87784" lon="8.48204">
        <ele>1799</ele>
        <time>2021-08-11T12:49:48.142Z</time>
      </trkpt>
      <trkpt lat="46.87785" lon="8.48205">
        <ele>1800</ele>
        <time>2021-08-11T12:49:49.143Z</time>
      </trkpt>
      <trkpt lat="46.87785" lon="8.48206">
        <ele>1800</ele>
        <time>2021-08-11T12:49:50.143Z</time>
      </trkpt>
      <trkpt lat="46.87786" lon="8.48206">
        <ele>1800</ele>
        <time>2021-08-11T12:49:51.143Z</time>
      </trkpt>
      <trkpt lat="46.87787" lon="8.48207">
        <ele>1801</ele>
        <time>2021-08-11T12:49:52.143Z</time>
      </trkpt>
      <trkpt lat="46.87787" lon="8.48207">
        <ele>1801</ele>
        <time>2021-08-11T12:49:53.142Z</time>
      </trkpt>
      <trkpt lat="46.87788" lon="8.48207">
        <ele>1801</ele>
        <time>2021-08-11T12:49:54.143Z</time>
      </trkpt>
      <trkpt lat="46.87789" lon="8.48207">
        <ele>1801</ele>
        <time>2021-08-11T12:49:55.143Z</time>
      </trkpt>
      <trkpt lat="46.8779" lon="8.48207">
        <ele>1801</ele>
        <time>2021-08-11T12:49:56.143Z</time>
      </trkpt>
      <trkpt lat="46.8779" lon="8.48208">
        <ele>1801</ele>
        <time>2021-08-11T12:49:57.143Z</time>
      </trkpt>
      <trkpt lat="46.87791" lon="8.48209">
        <ele>1801</ele>
        <time>2021-08-11T12:49:58.143Z</time>
      </trkpt>
      <trkpt lat="46.87792" lon="8.4821">
        <ele>1800</ele>
        <time>2021-08-11T12:49:59.143Z</time>
      </trkpt>
      <trkpt lat="46.87793" lon="8.48211">
        <ele>1801</ele>
        <time>2021-08-11T12:50:00.143Z</time>
      </trkpt>
      <trkpt lat="46.87792" lon="8.48212">
        <ele>1801</ele>
        <time>2021-08-11T12:50:01.143Z</time>
      </trkpt>
      <trkpt lat="46.87792" lon="8.48213">
        <ele>1801</ele>
        <time>2021-08-11T12:50:02.143Z</time>
      </trkpt>
      <trkpt lat="46.87792" lon="8.48213">
        <ele>1801</ele>
        <time>2021-08-11T12:50:03.142Z</time>
      </trkpt>
      <trkpt lat="46.87793" lon="8.48214">
        <ele>1801</ele>
        <time>2021-08-11T12:50:04.143Z</time>
      </trkpt>
      <trkpt lat="46.87793" lon="8.48214">
        <ele>1801</ele>
        <time>2021-08-11T12:50:05.142Z</time>
      </trkpt>
      <trkpt lat="46.87793" lon="8.48214">
        <ele>1801</ele>
        <time>2021-08-11T12:50:06.142Z</time>
      </trkpt>
      <trkpt lat="46.87794" lon="8.48214">
        <ele>1801</ele>
        <time>2021-08-11T12:50:07.142Z</time>
      </trkpt>
      <trkpt lat="46.87795" lon="8.48214">
        <ele>1801</ele>
        <time>2021-08-11T12:50:08.143Z</time>
      </trkpt>
      <trkpt lat="46.87795" lon="8.48214">
        <ele>1801</ele>
        <time>2021-08-11T12:50:09.142Z</time>
      </trkpt>
      <trkpt lat="46.87796" lon="8.48214">
        <ele>1802</ele>
        <time>2021-08-11T12:50:10.143Z</time>
      </trkpt>
      <trkpt lat="46.87797" lon="8.48214">
        <ele>1802</ele>
        <time>2021-08-11T12:50:11.142Z</time>
      </trkpt>
      <trkpt lat="46.87798" lon="8.48215">
        <ele>1802</ele>
        <time>2021-08-11T12:50:12.143Z</time>
      </trkpt>
      <trkpt lat="46.87799" lon="8.48215">
        <ele>1802</ele>
        <time>2021-08-11T12:50:13.142Z</time>
      </trkpt>
      <trkpt lat="46.878" lon="8.48215">
        <ele>1803</ele>
        <time>2021-08-11T12:50:14.142Z</time>
      </trkpt>
      <trkpt lat="46.878" lon="8.48215">
        <ele>1803</ele>
        <time>2021-08-11T12:50:27.269Z</time>
      </trkpt>
      <trkpt lat="46.87801" lon="8.48215">
        <ele>1803</ele>
        <time>2021-08-11T12:50:28.269Z</time>
      </trkpt>
      <trkpt lat="46.87802" lon="8.48214">
        <ele>1803</ele>
        <time>2021-08-11T12:50:29.269Z</time>
      </trkpt>
      <trkpt lat="46.87803" lon="8.48214">
        <ele>1803</ele>
        <time>2021-08-11T12:50:41.392Z</time>
      </trkpt>
      <trkpt lat="46.87804" lon="8.48215">
        <ele>1804</ele>
        <time>2021-08-11T12:50:42.392Z</time>
      </trkpt>
      <trkpt lat="46.87805" lon="8.48215">
        <ele>1804</ele>
        <time>2021-08-11T12:50:59.246Z</time>
      </trkpt>
      <trkpt lat="46.87806" lon="8.48216">
        <ele>1804</ele>
        <time>2021-08-11T12:51:00.247Z</time>
      </trkpt>
      <trkpt lat="46.87807" lon="8.48216">
        <ele>1804</ele>
        <time>2021-08-11T12:51:01.247Z</time>
      </trkpt>
      <trkpt lat="46.87808" lon="8.48216">
        <ele>1804</ele>
        <time>2021-08-11T12:51:06.998Z</time>
      </trkpt>
      <trkpt lat="46.87809" lon="8.48216">
        <ele>1803</ele>
        <time>2021-08-11T12:51:07.998Z</time>
      </trkpt>
      <trkpt lat="46.87809" lon="8.48216">
        <ele>1803</ele>
        <time>2021-08-11T12:51:13.749Z</time>
      </trkpt>
      <trkpt lat="46.87809" lon="8.48217">
        <ele>1803</ele>
        <time>2021-08-11T12:51:14.749Z</time>
      </trkpt>
      <trkpt lat="46.8781" lon="8.48217">
        <ele>1803</ele>
        <time>2021-08-11T12:51:53.643Z</time>
      </trkpt>
      <trkpt lat="46.8781" lon="8.48218">
        <ele>1803</ele>
        <time>2021-08-11T12:51:54.642Z</time>
      </trkpt>
      <trkpt lat="46.87811" lon="8.48219">
        <ele>1803</ele>
        <time>2021-08-11T12:51:55.643Z</time>
      </trkpt>
      <trkpt lat="46.87811" lon="8.48219">
        <ele>1804</ele>
        <time>2021-08-11T12:51:56.643Z</time>
      </trkpt>
      <trkpt lat="46.87812" lon="8.48218">
        <ele>1804</ele>
        <time>2021-08-11T12:51:57.642Z</time>
      </trkpt>
      <trkpt lat="46.87812" lon="8.48218">
        <ele>1804</ele>
        <time>2021-08-11T12:51:58.643Z</time>
      </trkpt>
      <trkpt lat="46.87813" lon="8.48218">
        <ele>1804</ele>
        <time>2021-08-11T12:51:59.642Z</time>
      </trkpt>
      <trkpt lat="46.87813" lon="8.48218">
        <ele>1804</ele>
        <time>2021-08-11T12:52:00.642Z</time>
      </trkpt>
      <trkpt lat="46.87813" lon="8.48218">
        <ele>1804</ele>
        <time>2021-08-11T12:52:01.643Z</time>
      </trkpt>
      <trkpt lat="46.87814" lon="8.48219">
        <ele>1805</ele>
        <time>2021-08-11T12:52:02.643Z</time>
      </trkpt>
      <trkpt lat="46.87814" lon="8.4822">
        <ele>1805</ele>
        <time>2021-08-11T12:52:03.642Z</time>
      </trkpt>
      <trkpt lat="46.87814" lon="8.4822">
        <ele>1804</ele>
        <time>2021-08-11T12:52:04.642Z</time>
      </trkpt>
      <trkpt lat="46.87815" lon="8.48221">
        <ele>1804</ele>
        <time>2021-08-11T12:52:05.643Z</time>
      </trkpt>
      <trkpt lat="46.87815" lon="8.48224">
        <ele>1804</ele>
        <time>2021-08-11T12:52:06.643Z</time>
      </trkpt>
      <trkpt lat="46.87815" lon="8.48224">
        <ele>1804</ele>
        <time>2021-08-11T12:52:07.643Z</time>
      </trkpt>
      <trkpt lat="46.87816" lon="8.48225">
        <ele>1804</ele>
        <time>2021-08-11T12:52:08.642Z</time>
      </trkpt>
      <trkpt lat="46.87816" lon="8.48226">
        <ele>1804</ele>
        <time>2021-08-11T12:52:09.643Z</time>
      </trkpt>
      <trkpt lat="46.87817" lon="8.48226">
        <ele>1805</ele>
        <time>2021-08-11T12:52:10.643Z</time>
      </trkpt>
      <trkpt lat="46.87817" lon="8.48226">
        <ele>1805</ele>
        <time>2021-08-11T12:52:11.642Z</time>
      </trkpt>
      <trkpt lat="46.87818" lon="8.48226">
        <ele>1805</ele>
        <time>2021-08-11T12:52:12.643Z</time>
      </trkpt>
      <trkpt lat="46.87818" lon="8.48227">
        <ele>1805</ele>
        <time>2021-08-11T12:52:13.643Z</time>
      </trkpt>
      <trkpt lat="46.87818" lon="8.48227">
        <ele>1805</ele>
        <time>2021-08-11T12:52:14.642Z</time>
      </trkpt>
      <trkpt lat="46.87818" lon="8.48227">
        <ele>1805</ele>
        <time>2021-08-11T12:52:15.643Z</time>
      </trkpt>
      <trkpt lat="46.87819" lon="8.48228">
        <ele>1805</ele>
        <time>2021-08-11T12:52:16.643Z</time>
      </trkpt>
      <trkpt lat="46.87819" lon="8.48229">
        <ele>1805</ele>
        <time>2021-08-11T12:52:17.643Z</time>
      </trkpt>
      <trkpt lat="46.8782" lon="8.48229">
        <ele>1806</ele>
        <time>2021-08-11T12:52:18.643Z</time>
      </trkpt>
      <trkpt lat="46.87821" lon="8.4823">
        <ele>1806</ele>
        <time>2021-08-11T12:52:19.642Z</time>
      </trkpt>
      <trkpt lat="46.87821" lon="8.48231">
        <ele>1807</ele>
        <time>2021-08-11T12:52:20.643Z</time>
      </trkpt>
      <trkpt lat="46.87821" lon="8.48232">
        <ele>1807</ele>
        <time>2021-08-11T12:52:21.643Z</time>
      </trkpt>
      <trkpt lat="46.87822" lon="8.48232">
        <ele>1808</ele>
        <time>2021-08-11T12:52:22.643Z</time>
      </trkpt>
      <trkpt lat="46.87822" lon="8.48233">
        <ele>1808</ele>
        <time>2021-08-11T12:52:23.643Z</time>
      </trkpt>
      <trkpt lat="46.87822" lon="8.48233">
        <ele>1809</ele>
        <time>2021-08-11T12:52:24.643Z</time>
      </trkpt>
      <trkpt lat="46.87822" lon="8.48234">
        <ele>1809</ele>
        <time>2021-08-11T12:52:25.643Z</time>
      </trkpt>
      <trkpt lat="46.87822" lon="8.48234">
        <ele>1809</ele>
        <time>2021-08-11T12:52:26.642Z</time>
      </trkpt>
      <trkpt lat="46.87822" lon="8.48235">
        <ele>1809</ele>
        <time>2021-08-11T12:52:27.642Z</time>
      </trkpt>
      <trkpt lat="46.87823" lon="8.48236">
        <ele>1809</ele>
        <time>2021-08-11T12:52:28.643Z</time>
      </trkpt>
      <trkpt lat="46.87823" lon="8.48237">
        <ele>1809</ele>
        <time>2021-08-11T12:52:29.643Z</time>
      </trkpt>
      <trkpt lat="46.87823" lon="8.48238">
        <ele>1809</ele>
        <time>2021-08-11T12:52:30.643Z</time>
      </trkpt>
      <trkpt lat="46.87823" lon="8.48239">
        <ele>1809</ele>
        <time>2021-08-11T12:52:31.643Z</time>
      </trkpt>
      <trkpt lat="46.87824" lon="8.48239">
        <ele>1808</ele>
        <time>2021-08-11T12:52:32.643Z</time>
      </trkpt>
      <trkpt lat="46.87824" lon="8.4824">
        <ele>1808</ele>
        <time>2021-08-11T12:52:33.642Z</time>
      </trkpt>
      <trkpt lat="46.87824" lon="8.48241">
        <ele>1808</ele>
        <time>2021-08-11T12:52:34.643Z</time>
      </trkpt>
      <trkpt lat="46.87824" lon="8.48242">
        <ele>1808</ele>
        <time>2021-08-11T12:52:35.643Z</time>
      </trkpt>
      <trkpt lat="46.87825" lon="8.48242">
        <ele>1808</ele>
        <time>2021-08-11T12:52:36.643Z</time>
      </trkpt>
      <trkpt lat="46.87825" lon="8.48243">
        <ele>1808</ele>
        <time>2021-08-11T12:52:37.643Z</time>
      </trkpt>
      <trkpt lat="46.87825" lon="8.48244">
        <ele>1809</ele>
        <time>2021-08-11T12:52:38.643Z</time>
      </trkpt>
      <trkpt lat="46.87825" lon="8.48244">
        <ele>1809</ele>
        <time>2021-08-11T12:52:39.643Z</time>
      </trkpt>
      <trkpt lat="46.87825" lon="8.48245">
        <ele>1809</ele>
        <time>2021-08-11T12:52:40.642Z</time>
      </trkpt>
      <trkpt lat="46.87826" lon="8.48245">
        <ele>1809</ele>
        <time>2021-08-11T12:52:41.642Z</time>
      </trkpt>
      <trkpt lat="46.87826" lon="8.48246">
        <ele>1809</ele>
        <time>2021-08-11T12:52:42.642Z</time>
      </trkpt>
      <trkpt lat="46.87826" lon="8.48247">
        <ele>1810</ele>
        <time>2021-08-11T12:52:43.643Z</time>
      </trkpt>
      <trkpt lat="46.87826" lon="8.48247">
        <ele>1810</ele>
        <time>2021-08-11T12:52:44.643Z</time>
      </trkpt>
      <trkpt lat="46.87827" lon="8.48248">
        <ele>1810</ele>
        <time>2021-08-11T12:52:45.643Z</time>
      </trkpt>
      <trkpt lat="46.87827" lon="8.48249">
        <ele>1810</ele>
        <time>2021-08-11T12:52:46.643Z</time>
      </trkpt>
      <trkpt lat="46.87827" lon="8.4825">
        <ele>1810</ele>
        <time>2021-08-11T12:52:47.643Z</time>
      </trkpt>
      <trkpt lat="46.87827" lon="8.48251">
        <ele>1811</ele>
        <time>2021-08-11T12:52:48.643Z</time>
      </trkpt>
      <trkpt lat="46.87827" lon="8.48251">
        <ele>1810</ele>
        <time>2021-08-11T12:52:49.643Z</time>
      </trkpt>
      <trkpt lat="46.87828" lon="8.48251">
        <ele>1810</ele>
        <time>2021-08-11T12:52:50.642Z</time>
      </trkpt>
      <trkpt lat="46.87828" lon="8.48252">
        <ele>1810</ele>
        <time>2021-08-11T12:52:51.642Z</time>
      </trkpt>
      <trkpt lat="46.87829" lon="8.48253">
        <ele>1810</ele>
        <time>2021-08-11T12:52:52.642Z</time>
      </trkpt>
      <trkpt lat="46.87829" lon="8.48254">
        <ele>1810</ele>
        <time>2021-08-11T12:52:53.643Z</time>
      </trkpt>
      <trkpt lat="46.87829" lon="8.48254">
        <ele>1810</ele>
        <time>2021-08-11T12:52:54.643Z</time>
      </trkpt>
      <trkpt lat="46.8783" lon="8.48256">
        <ele>1810</ele>
        <time>2021-08-11T12:52:55.643Z</time>
      </trkpt>
      <trkpt lat="46.8783" lon="8.48257">
        <ele>1810</ele>
        <time>2021-08-11T12:52:56.643Z</time>
      </trkpt>
      <trkpt lat="46.8783" lon="8.48258">
        <ele>1810</ele>
        <time>2021-08-11T12:52:57.642Z</time>
      </trkpt>
      <trkpt lat="46.8783" lon="8.48259">
        <ele>1810</ele>
        <time>2021-08-11T12:52:58.643Z</time>
      </trkpt>
      <trkpt lat="46.8783" lon="8.4826">
        <ele>1810</ele>
        <time>2021-08-11T12:52:59.643Z</time>
      </trkpt>
      <trkpt lat="46.8783" lon="8.48261">
        <ele>1810</ele>
        <time>2021-08-11T12:53:00.643Z</time>
      </trkpt>
      <trkpt lat="46.8783" lon="8.48262">
        <ele>1810</ele>
        <time>2021-08-11T12:53:01.643Z</time>
      </trkpt>
      <trkpt lat="46.87831" lon="8.48262">
        <ele>1810</ele>
        <time>2021-08-11T12:53:02.643Z</time>
      </trkpt>
      <trkpt lat="46.87831" lon="8.48263">
        <ele>1811</ele>
        <time>2021-08-11T12:53:03.642Z</time>
      </trkpt>
      <trkpt lat="46.87831" lon="8.48264">
        <ele>1812</ele>
        <time>2021-08-11T12:53:04.643Z</time>
      </trkpt>
      <trkpt lat="46.87832" lon="8.48265">
        <ele>1812</ele>
        <time>2021-08-11T12:53:05.643Z</time>
      </trkpt>
      <trkpt lat="46.87832" lon="8.48266">
        <ele>1813</ele>
        <time>2021-08-11T12:53:06.643Z</time>
      </trkpt>
      <trkpt lat="46.87833" lon="8.48267">
        <ele>1813</ele>
        <time>2021-08-11T12:53:07.642Z</time>
      </trkpt>
      <trkpt lat="46.87833" lon="8.48268">
        <ele>1814</ele>
        <time>2021-08-11T12:53:08.643Z</time>
      </trkpt>
      <trkpt lat="46.87834" lon="8.48269">
        <ele>1814</ele>
        <time>2021-08-11T12:53:09.643Z</time>
      </trkpt>
      <trkpt lat="46.87834" lon="8.4827">
        <ele>1815</ele>
        <time>2021-08-11T12:53:10.642Z</time>
      </trkpt>
      <trkpt lat="46.87834" lon="8.4827">
        <ele>1815</ele>
        <time>2021-08-11T12:53:11.643Z</time>
      </trkpt>
      <trkpt lat="46.87835" lon="8.48271">
        <ele>1816</ele>
        <time>2021-08-11T12:53:12.642Z</time>
      </trkpt>
      <trkpt lat="46.87835" lon="8.48272">
        <ele>1816</ele>
        <time>2021-08-11T12:53:13.643Z</time>
      </trkpt>
      <trkpt lat="46.87835" lon="8.48272">
        <ele>1816</ele>
        <time>2021-08-11T12:53:14.643Z</time>
      </trkpt>
      <trkpt lat="46.87836" lon="8.48273">
        <ele>1816</ele>
        <time>2021-08-11T12:53:15.642Z</time>
      </trkpt>
      <trkpt lat="46.87836" lon="8.48274">
        <ele>1816</ele>
        <time>2021-08-11T12:53:16.643Z</time>
      </trkpt>
      <trkpt lat="46.87836" lon="8.48274">
        <ele>1817</ele>
        <time>2021-08-11T12:53:17.643Z</time>
      </trkpt>
      <trkpt lat="46.87836" lon="8.48275">
        <ele>1817</ele>
        <time>2021-08-11T12:53:18.643Z</time>
      </trkpt>
      <trkpt lat="46.87837" lon="8.48276">
        <ele>1817</ele>
        <time>2021-08-11T12:53:19.642Z</time>
      </trkpt>
      <trkpt lat="46.87837" lon="8.48276">
        <ele>1817</ele>
        <time>2021-08-11T12:53:20.643Z</time>
      </trkpt>
      <trkpt lat="46.87837" lon="8.48277">
        <ele>1817</ele>
        <time>2021-08-11T12:53:21.643Z</time>
      </trkpt>
      <trkpt lat="46.87837" lon="8.48278">
        <ele>1817</ele>
        <time>2021-08-11T12:53:22.643Z</time>
      </trkpt>
      <trkpt lat="46.87838" lon="8.48279">
        <ele>1817</ele>
        <time>2021-08-11T12:53:23.642Z</time>
      </trkpt>
      <trkpt lat="46.87838" lon="8.4828">
        <ele>1817</ele>
        <time>2021-08-11T12:53:24.643Z</time>
      </trkpt>
      <trkpt lat="46.87838" lon="8.48281">
        <ele>1817</ele>
        <time>2021-08-11T12:53:25.642Z</time>
      </trkpt>
      <trkpt lat="46.87838" lon="8.48281">
        <ele>1817</ele>
        <time>2021-08-11T12:53:26.643Z</time>
      </trkpt>
      <trkpt lat="46.87839" lon="8.48282">
        <ele>1817</ele>
        <time>2021-08-11T12:53:27.642Z</time>
      </trkpt>
      <trkpt lat="46.87839" lon="8.48282">
        <ele>1816</ele>
        <time>2021-08-11T12:53:28.643Z</time>
      </trkpt>
      <trkpt lat="46.87839" lon="8.48283">
        <ele>1816</ele>
        <time>2021-08-11T12:53:29.643Z</time>
      </trkpt>
      <trkpt lat="46.8784" lon="8.48283">
        <ele>1816</ele>
        <time>2021-08-11T12:53:30.643Z</time>
      </trkpt>
      <trkpt lat="46.8784" lon="8.48284">
        <ele>1816</ele>
        <time>2021-08-11T12:53:31.642Z</time>
      </trkpt>
      <trkpt lat="46.87841" lon="8.48285">
        <ele>1817</ele>
        <time>2021-08-11T12:53:32.643Z</time>
      </trkpt>
      <trkpt lat="46.87841" lon="8.48285">
        <ele>1817</ele>
        <time>2021-08-11T12:53:33.643Z</time>
      </trkpt>
      <trkpt lat="46.87841" lon="8.48286">
        <ele>1817</ele>
        <time>2021-08-11T12:53:34.642Z</time>
      </trkpt>
      <trkpt lat="46.87841" lon="8.48287">
        <ele>1817</ele>
        <time>2021-08-11T12:53:35.642Z</time>
      </trkpt>
      <trkpt lat="46.87842" lon="8.48288">
        <ele>1818</ele>
        <time>2021-08-11T12:53:36.643Z</time>
      </trkpt>
      <trkpt lat="46.87842" lon="8.48289">
        <ele>1818</ele>
        <time>2021-08-11T12:53:37.642Z</time>
      </trkpt>
      <trkpt lat="46.87842" lon="8.4829">
        <ele>1819</ele>
        <time>2021-08-11T12:53:38.642Z</time>
      </trkpt>
      <trkpt lat="46.87843" lon="8.4829">
        <ele>1819</ele>
        <time>2021-08-11T12:53:39.643Z</time>
      </trkpt>
      <trkpt lat="46.87843" lon="8.48292">
        <ele>1819</ele>
        <time>2021-08-11T12:53:40.643Z</time>
      </trkpt>
      <trkpt lat="46.87844" lon="8.48293">
        <ele>1819</ele>
        <time>2021-08-11T12:53:41.642Z</time>
      </trkpt>
      <trkpt lat="46.87845" lon="8.48293">
        <ele>1819</ele>
        <time>2021-08-11T12:53:42.642Z</time>
      </trkpt>
      <trkpt lat="46.87846" lon="8.48293">
        <ele>1820</ele>
        <time>2021-08-11T12:53:43.643Z</time>
      </trkpt>
      <trkpt lat="46.87846" lon="8.48293">
        <ele>1820</ele>
        <time>2021-08-11T12:53:44.643Z</time>
      </trkpt>
      <trkpt lat="46.87846" lon="8.48294">
        <ele>1820</ele>
        <time>2021-08-11T12:53:45.643Z</time>
      </trkpt>
      <trkpt lat="46.87847" lon="8.48295">
        <ele>1820</ele>
        <time>2021-08-11T12:53:46.643Z</time>
      </trkpt>
      <trkpt lat="46.87847" lon="8.48296">
        <ele>1821</ele>
        <time>2021-08-11T12:53:47.643Z</time>
      </trkpt>
      <trkpt lat="46.87847" lon="8.48298">
        <ele>1822</ele>
        <time>2021-08-11T12:53:48.643Z</time>
      </trkpt>
      <trkpt lat="46.87848" lon="8.48298">
        <ele>1822</ele>
        <time>2021-08-11T12:53:49.643Z</time>
      </trkpt>
      <trkpt lat="46.87848" lon="8.48299">
        <ele>1822</ele>
        <time>2021-08-11T12:53:50.643Z</time>
      </trkpt>
      <trkpt lat="46.87848" lon="8.48299">
        <ele>1822</ele>
        <time>2021-08-11T12:53:51.643Z</time>
      </trkpt>
      <trkpt lat="46.87848" lon="8.48299">
        <ele>1821</ele>
        <time>2021-08-11T12:53:52.643Z</time>
      </trkpt>
      <trkpt lat="46.87849" lon="8.48299">
        <ele>1821</ele>
        <time>2021-08-11T12:53:53.643Z</time>
      </trkpt>
      <trkpt lat="46.87849" lon="8.48299">
        <ele>1821</ele>
        <time>2021-08-11T12:53:54.643Z</time>
      </trkpt>
      <trkpt lat="46.8785" lon="8.48299">
        <ele>1821</ele>
        <time>2021-08-11T12:53:55.643Z</time>
      </trkpt>
      <trkpt lat="46.8785" lon="8.48299">
        <ele>1821</ele>
        <time>2021-08-11T12:53:56.643Z</time>
      </trkpt>
      <trkpt lat="46.87851" lon="8.483">
        <ele>1820</ele>
        <time>2021-08-11T12:53:57.642Z</time>
      </trkpt>
      <trkpt lat="46.87851" lon="8.483">
        <ele>1820</ele>
        <time>2021-08-11T12:53:58.643Z</time>
      </trkpt>
      <trkpt lat="46.87851" lon="8.48301">
        <ele>1820</ele>
        <time>2021-08-11T12:53:59.643Z</time>
      </trkpt>
      <trkpt lat="46.87852" lon="8.48302">
        <ele>1820</ele>
        <time>2021-08-11T12:54:00.642Z</time>
      </trkpt>
      <trkpt lat="46.87852" lon="8.48303">
        <ele>1821</ele>
        <time>2021-08-11T12:54:01.643Z</time>
      </trkpt>
      <trkpt lat="46.87852" lon="8.48304">
        <ele>1821</ele>
        <time>2021-08-11T12:54:02.643Z</time>
      </trkpt>
      <trkpt lat="46.87853" lon="8.48305">
        <ele>1822</ele>
        <time>2021-08-11T12:54:03.642Z</time>
      </trkpt>
      <trkpt lat="46.87853" lon="8.48305">
        <ele>1822</ele>
        <time>2021-08-11T12:54:04.643Z</time>
      </trkpt>
      <trkpt lat="46.87853" lon="8.48306">
        <ele>1822</ele>
        <time>2021-08-11T12:54:05.643Z</time>
      </trkpt>
      <trkpt lat="46.87853" lon="8.48307">
        <ele>1822</ele>
        <time>2021-08-11T12:54:06.642Z</time>
      </trkpt>
      <trkpt lat="46.87854" lon="8.48308">
        <ele>1822</ele>
        <time>2021-08-11T12:54:07.643Z</time>
      </trkpt>
      <trkpt lat="46.87854" lon="8.48309">
        <ele>1823</ele>
        <time>2021-08-11T12:54:08.643Z</time>
      </trkpt>
      <trkpt lat="46.87854" lon="8.4831">
        <ele>1823</ele>
        <time>2021-08-11T12:54:09.643Z</time>
      </trkpt>
      <trkpt lat="46.87854" lon="8.4831">
        <ele>1824</ele>
        <time>2021-08-11T12:54:10.643Z</time>
      </trkpt>
      <trkpt lat="46.87854" lon="8.48311">
        <ele>1824</ele>
        <time>2021-08-11T12:54:11.643Z</time>
      </trkpt>
      <trkpt lat="46.87854" lon="8.48312">
        <ele>1824</ele>
        <time>2021-08-11T12:54:12.642Z</time>
      </trkpt>
      <trkpt lat="46.87854" lon="8.48312">
        <ele>1824</ele>
        <time>2021-08-11T12:54:13.643Z</time>
      </trkpt>
      <trkpt lat="46.87855" lon="8.48313">
        <ele>1824</ele>
        <time>2021-08-11T12:54:14.643Z</time>
      </trkpt>
      <trkpt lat="46.87855" lon="8.48314">
        <ele>1824</ele>
        <time>2021-08-11T12:54:15.642Z</time>
      </trkpt>
      <trkpt lat="46.87855" lon="8.48314">
        <ele>1825</ele>
        <time>2021-08-11T12:54:16.642Z</time>
      </trkpt>
      <trkpt lat="46.87855" lon="8.48315">
        <ele>1824</ele>
        <time>2021-08-11T12:54:17.643Z</time>
      </trkpt>
      <trkpt lat="46.87855" lon="8.48316">
        <ele>1824</ele>
        <time>2021-08-11T12:54:18.642Z</time>
      </trkpt>
      <trkpt lat="46.87856" lon="8.48317">
        <ele>1824</ele>
        <time>2021-08-11T12:54:19.643Z</time>
      </trkpt>
      <trkpt lat="46.87856" lon="8.48317">
        <ele>1824</ele>
        <time>2021-08-11T12:54:20.642Z</time>
      </trkpt>
      <trkpt lat="46.87856" lon="8.48318">
        <ele>1825</ele>
        <time>2021-08-11T12:54:21.642Z</time>
      </trkpt>
      <trkpt lat="46.87856" lon="8.48318">
        <ele>1825</ele>
        <time>2021-08-11T12:54:22.643Z</time>
      </trkpt>
      <trkpt lat="46.87857" lon="8.48319">
        <ele>1825</ele>
        <time>2021-08-11T12:54:23.643Z</time>
      </trkpt>
      <trkpt lat="46.87857" lon="8.4832">
        <ele>1825</ele>
        <time>2021-08-11T12:54:24.642Z</time>
      </trkpt>
      <trkpt lat="46.87857" lon="8.48321">
        <ele>1825</ele>
        <time>2021-08-11T12:54:25.642Z</time>
      </trkpt>
      <trkpt lat="46.87858" lon="8.48321">
        <ele>1825</ele>
        <time>2021-08-11T12:54:26.643Z</time>
      </trkpt>
      <trkpt lat="46.87858" lon="8.48322">
        <ele>1825</ele>
        <time>2021-08-11T12:54:27.643Z</time>
      </trkpt>
      <trkpt lat="46.87859" lon="8.48322">
        <ele>1826</ele>
        <time>2021-08-11T12:54:28.643Z</time>
      </trkpt>
      <trkpt lat="46.87859" lon="8.48323">
        <ele>1826</ele>
        <time>2021-08-11T12:54:29.643Z</time>
      </trkpt>
      <trkpt lat="46.87859" lon="8.48323">
        <ele>1826</ele>
        <time>2021-08-11T12:54:30.643Z</time>
      </trkpt>
      <trkpt lat="46.87859" lon="8.48323">
        <ele>1826</ele>
        <time>2021-08-11T12:54:31.643Z</time>
      </trkpt>
      <trkpt lat="46.8786" lon="8.48324">
        <ele>1826</ele>
        <time>2021-08-11T12:54:32.643Z</time>
      </trkpt>
      <trkpt lat="46.8786" lon="8.48324">
        <ele>1827</ele>
        <time>2021-08-11T12:54:33.643Z</time>
      </trkpt>
      <trkpt lat="46.8786" lon="8.48324">
        <ele>1827</ele>
        <time>2021-08-11T12:54:34.643Z</time>
      </trkpt>
      <trkpt lat="46.87861" lon="8.48325">
        <ele>1827</ele>
        <time>2021-08-11T12:54:35.643Z</time>
      </trkpt>
      <trkpt lat="46.87861" lon="8.48325">
        <ele>1826</ele>
        <time>2021-08-11T12:54:36.643Z</time>
      </trkpt>
      <trkpt lat="46.87861" lon="8.48326">
        <ele>1826</ele>
        <time>2021-08-11T12:54:37.643Z</time>
      </trkpt>
      <trkpt lat="46.87861" lon="8.48327">
        <ele>1826</ele>
        <time>2021-08-11T12:54:38.643Z</time>
      </trkpt>
      <trkpt lat="46.87861" lon="8.48327">
        <ele>1826</ele>
        <time>2021-08-11T12:54:39.642Z</time>
      </trkpt>
      <trkpt lat="46.87861" lon="8.48328">
        <ele>1826</ele>
        <time>2021-08-11T12:54:40.643Z</time>
      </trkpt>
      <trkpt lat="46.87861" lon="8.48329">
        <ele>1826</ele>
        <time>2021-08-11T12:54:41.642Z</time>
      </trkpt>
      <trkpt lat="46.87862" lon="8.48329">
        <ele>1826</ele>
        <time>2021-08-11T12:54:42.643Z</time>
      </trkpt>
      <trkpt lat="46.87862" lon="8.4833">
        <ele>1826</ele>
        <time>2021-08-11T12:54:43.643Z</time>
      </trkpt>
      <trkpt lat="46.87862" lon="8.4833">
        <ele>1826</ele>
        <time>2021-08-11T12:54:44.643Z</time>
      </trkpt>
      <trkpt lat="46.87863" lon="8.4833">
        <ele>1826</ele>
        <time>2021-08-11T12:54:45.643Z</time>
      </trkpt>
      <trkpt lat="46.87863" lon="8.4833">
        <ele>1826</ele>
        <time>2021-08-11T12:54:46.643Z</time>
      </trkpt>
      <trkpt lat="46.87863" lon="8.48331">
        <ele>1827</ele>
        <time>2021-08-11T12:54:47.643Z</time>
      </trkpt>
      <trkpt lat="46.87864" lon="8.48332">
        <ele>1827</ele>
        <time>2021-08-11T12:54:48.643Z</time>
      </trkpt>
      <trkpt lat="46.87864" lon="8.48332">
        <ele>1827</ele>
        <time>2021-08-11T12:54:49.643Z</time>
      </trkpt>
      <trkpt lat="46.87865" lon="8.48333">
        <ele>1828</ele>
        <time>2021-08-11T12:54:50.643Z</time>
      </trkpt>
      <trkpt lat="46.87865" lon="8.48333">
        <ele>1828</ele>
        <time>2021-08-11T12:54:51.643Z</time>
      </trkpt>
      <trkpt lat="46.87866" lon="8.48333">
        <ele>1828</ele>
        <time>2021-08-11T12:54:52.642Z</time>
      </trkpt>
      <trkpt lat="46.87866" lon="8.48334">
        <ele>1829</ele>
        <time>2021-08-11T12:54:53.643Z</time>
      </trkpt>
      <trkpt lat="46.87867" lon="8.48334">
        <ele>1828</ele>
        <time>2021-08-11T12:54:54.643Z</time>
      </trkpt>
      <trkpt lat="46.87867" lon="8.48335">
        <ele>1828</ele>
        <time>2021-08-11T12:54:55.642Z</time>
      </trkpt>
      <trkpt lat="46.87867" lon="8.48335">
        <ele>1828</ele>
        <time>2021-08-11T12:54:56.642Z</time>
      </trkpt>
      <trkpt lat="46.87868" lon="8.48336">
        <ele>1828</ele>
        <time>2021-08-11T12:54:57.642Z</time>
      </trkpt>
      <trkpt lat="46.87868" lon="8.48336">
        <ele>1827</ele>
        <time>2021-08-11T12:54:58.643Z</time>
      </trkpt>
      <trkpt lat="46.87869" lon="8.48336">
        <ele>1827</ele>
        <time>2021-08-11T12:54:59.643Z</time>
      </trkpt>
      <trkpt lat="46.87869" lon="8.48336">
        <ele>1826</ele>
        <time>2021-08-11T12:55:00.642Z</time>
      </trkpt>
      <trkpt lat="46.87869" lon="8.48333">
        <ele>1826</ele>
        <time>2021-08-11T12:55:01.643Z</time>
      </trkpt>
      <trkpt lat="46.87869" lon="8.48333">
        <ele>1826</ele>
        <time>2021-08-11T12:55:02.643Z</time>
      </trkpt>
      <trkpt lat="46.87871" lon="8.48334">
        <ele>1828</ele>
        <time>2021-08-11T12:55:03.643Z</time>
      </trkpt>
      <trkpt lat="46.87871" lon="8.48334">
        <ele>1828</ele>
        <time>2021-08-11T12:55:04.643Z</time>
      </trkpt>
      <trkpt lat="46.87871" lon="8.48332">
        <ele>1828</ele>
        <time>2021-08-11T12:55:05.644Z</time>
      </trkpt>
      <trkpt lat="46.87871" lon="8.48331">
        <ele>1828</ele>
        <time>2021-08-11T12:55:06.644Z</time>
      </trkpt>
      <trkpt lat="46.8787" lon="8.48331">
        <ele>1827</ele>
        <time>2021-08-11T12:55:07.643Z</time>
      </trkpt>
      <trkpt lat="46.8787" lon="8.4833">
        <ele>1823</ele>
        <time>2021-08-11T12:55:08.645Z</time>
      </trkpt>
      <trkpt lat="46.8787" lon="8.4833">
        <ele>1823</ele>
        <time>2021-08-11T12:55:09.644Z</time>
      </trkpt>
      <trkpt lat="46.8787" lon="8.4833">
        <ele>1823</ele>
        <time>2021-08-11T12:55:10.645Z</time>
      </trkpt>
      <trkpt lat="46.8787" lon="8.48331">
        <ele>1823</ele>
        <time>2021-08-11T12:55:11.644Z</time>
      </trkpt>
      <trkpt lat="46.8787" lon="8.48331">
        <ele>1823</ele>
        <time>2021-08-11T12:55:12.644Z</time>
      </trkpt>
      <trkpt lat="46.87865" lon="8.48332">
        <ele>1820</ele>
        <time>2021-08-11T12:55:13.645Z</time>
      </trkpt>
      <trkpt lat="46.87865" lon="8.48332">
        <ele>1819</ele>
        <time>2021-08-11T12:55:14.645Z</time>
      </trkpt>
      <trkpt lat="46.87864" lon="8.48332">
        <ele>1819</ele>
        <time>2021-08-11T12:55:15.644Z</time>
      </trkpt>
      <trkpt lat="46.87861" lon="8.48333">
        <ele>1823</ele>
        <time>2021-08-11T12:55:16.644Z</time>
      </trkpt>
      <trkpt lat="46.87861" lon="8.48333">
        <ele>1824</ele>
        <time>2021-08-11T12:55:17.645Z</time>
      </trkpt>
      <trkpt lat="46.87862" lon="8.48333">
        <ele>1825</ele>
        <time>2021-08-11T12:55:18.645Z</time>
      </trkpt>
      <trkpt lat="46.87862" lon="8.48333">
        <ele>1825</ele>
        <time>2021-08-11T12:55:19.644Z</time>
      </trkpt>
      <trkpt lat="46.87862" lon="8.48333">
        <ele>1825</ele>
        <time>2021-08-11T12:55:20.644Z</time>
      </trkpt>
      <trkpt lat="46.87866" lon="8.48334">
        <ele>1828</ele>
        <time>2021-08-11T12:55:21.645Z</time>
      </trkpt>
      <trkpt lat="46.87867" lon="8.48333">
        <ele>1828</ele>
        <time>2021-08-11T12:55:22.644Z</time>
      </trkpt>
      <trkpt lat="46.87866" lon="8.48333">
        <ele>1828</ele>
        <time>2021-08-11T12:55:23.644Z</time>
      </trkpt>
      <trkpt lat="46.87866" lon="8.48333">
        <ele>1828</ele>
        <time>2021-08-11T12:55:24.644Z</time>
      </trkpt>
      <trkpt lat="46.87866" lon="8.48334">
        <ele>1829</ele>
        <time>2021-08-11T12:55:25.645Z</time>
      </trkpt>
      <trkpt lat="46.87866" lon="8.48335">
        <ele>1830</ele>
        <time>2021-08-11T12:55:26.646Z</time>
      </trkpt>
      <trkpt lat="46.87866" lon="8.48336">
        <ele>1830</ele>
        <time>2021-08-11T12:55:27.645Z</time>
      </trkpt>
      <trkpt lat="46.87867" lon="8.48337">
        <ele>1830</ele>
        <time>2021-08-11T12:55:28.646Z</time>
      </trkpt>
      <trkpt lat="46.87867" lon="8.48337">
        <ele>1830</ele>
        <time>2021-08-11T12:55:29.646Z</time>
      </trkpt>
      <trkpt lat="46.87867" lon="8.48337">
        <ele>1830</ele>
        <time>2021-08-11T12:55:30.645Z</time>
      </trkpt>
      <trkpt lat="46.87867" lon="8.48336">
        <ele>1831</ele>
        <time>2021-08-11T12:55:31.645Z</time>
      </trkpt>
      <trkpt lat="46.87867" lon="8.48336">
        <ele>1831</ele>
        <time>2021-08-11T12:55:32.646Z</time>
      </trkpt>
      <trkpt lat="46.87867" lon="8.48337">
        <ele>1831</ele>
        <time>2021-08-11T12:55:33.645Z</time>
      </trkpt>
      <trkpt lat="46.87867" lon="8.48338">
        <ele>1831</ele>
        <time>2021-08-11T12:55:34.646Z</time>
      </trkpt>
      <trkpt lat="46.87868" lon="8.48338">
        <ele>1832</ele>
        <time>2021-08-11T12:55:35.645Z</time>
      </trkpt>
      <trkpt lat="46.87868" lon="8.48338">
        <ele>1833</ele>
        <time>2021-08-11T12:55:36.646Z</time>
      </trkpt>
      <trkpt lat="46.87869" lon="8.48338">
        <ele>1833</ele>
        <time>2021-08-11T12:55:37.646Z</time>
      </trkpt>
      <trkpt lat="46.8787" lon="8.48338">
        <ele>1834</ele>
        <time>2021-08-11T12:55:38.646Z</time>
      </trkpt>
      <trkpt lat="46.8787" lon="8.48339">
        <ele>1834</ele>
        <time>2021-08-11T12:55:39.646Z</time>
      </trkpt>
      <trkpt lat="46.8787" lon="8.4834">
        <ele>1835</ele>
        <time>2021-08-11T12:55:40.646Z</time>
      </trkpt>
      <trkpt lat="46.87871" lon="8.4834">
        <ele>1835</ele>
        <time>2021-08-11T12:55:41.646Z</time>
      </trkpt>
      <trkpt lat="46.87872" lon="8.48341">
        <ele>1835</ele>
        <time>2021-08-11T12:55:42.646Z</time>
      </trkpt>
      <trkpt lat="46.87873" lon="8.4834">
        <ele>1835</ele>
        <time>2021-08-11T12:55:43.645Z</time>
      </trkpt>
      <trkpt lat="46.87874" lon="8.48339">
        <ele>1835</ele>
        <time>2021-08-11T12:55:44.645Z</time>
      </trkpt>
      <trkpt lat="46.87877" lon="8.48338">
        <ele>1836</ele>
        <time>2021-08-11T12:55:45.648Z</time>
      </trkpt>
      <trkpt lat="46.87878" lon="8.48338">
        <ele>1836</ele>
        <time>2021-08-11T12:55:46.648Z</time>
      </trkpt>
      <trkpt lat="46.87878" lon="8.48337">
        <ele>1837</ele>
        <time>2021-08-11T12:55:47.647Z</time>
      </trkpt>
      <trkpt lat="46.87878" lon="8.48337">
        <ele>1837</ele>
        <time>2021-08-11T12:55:48.648Z</time>
      </trkpt>
      <trkpt lat="46.87879" lon="8.48337">
        <ele>1837</ele>
        <time>2021-08-11T12:55:49.648Z</time>
      </trkpt>
      <trkpt lat="46.8788" lon="8.48338">
        <ele>1837</ele>
        <time>2021-08-11T12:55:50.649Z</time>
      </trkpt>
      <trkpt lat="46.8788" lon="8.48338">
        <ele>1837</ele>
        <time>2021-08-11T12:55:51.649Z</time>
      </trkpt>
      <trkpt lat="46.8788" lon="8.48338">
        <ele>1837</ele>
        <time>2021-08-11T12:55:52.649Z</time>
      </trkpt>
      <trkpt lat="46.87881" lon="8.48338">
        <ele>1836</ele>
        <time>2021-08-11T12:55:53.648Z</time>
      </trkpt>
      <trkpt lat="46.87882" lon="8.4834">
        <ele>1836</ele>
        <time>2021-08-11T12:55:54.648Z</time>
      </trkpt>
      <trkpt lat="46.87882" lon="8.4834">
        <ele>1836</ele>
        <time>2021-08-11T12:55:55.648Z</time>
      </trkpt>
      <trkpt lat="46.87883" lon="8.4834">
        <ele>1836</ele>
        <time>2021-08-11T12:55:56.648Z</time>
      </trkpt>
      <trkpt lat="46.87883" lon="8.4834">
        <ele>1836</ele>
        <time>2021-08-11T12:55:57.648Z</time>
      </trkpt>
      <trkpt lat="46.87884" lon="8.48339">
        <ele>1836</ele>
        <time>2021-08-11T12:55:58.648Z</time>
      </trkpt>
      <trkpt lat="46.87884" lon="8.48339">
        <ele>1836</ele>
        <time>2021-08-11T12:55:59.648Z</time>
      </trkpt>
      <trkpt lat="46.87884" lon="8.48339">
        <ele>1836</ele>
        <time>2021-08-11T12:56:00.648Z</time>
      </trkpt>
      <trkpt lat="46.87884" lon="8.48339">
        <ele>1836</ele>
        <time>2021-08-11T12:56:01.648Z</time>
      </trkpt>
      <trkpt lat="46.87884" lon="8.4834">
        <ele>1836</ele>
        <time>2021-08-11T12:56:02.649Z</time>
      </trkpt>
      <trkpt lat="46.87885" lon="8.4834">
        <ele>1835</ele>
        <time>2021-08-11T12:56:03.649Z</time>
      </trkpt>
      <trkpt lat="46.87885" lon="8.4834">
        <ele>1835</ele>
        <time>2021-08-11T12:56:04.649Z</time>
      </trkpt>
      <trkpt lat="46.87884" lon="8.48339">
        <ele>1835</ele>
        <time>2021-08-11T12:56:05.648Z</time>
      </trkpt>
      <trkpt lat="46.87884" lon="8.4834">
        <ele>1834</ele>
        <time>2021-08-11T12:56:06.649Z</time>
      </trkpt>
      <trkpt lat="46.87885" lon="8.48339">
        <ele>1834</ele>
        <time>2021-08-11T12:56:07.649Z</time>
      </trkpt>
      <trkpt lat="46.87885" lon="8.48339">
        <ele>1834</ele>
        <time>2021-08-11T12:56:08.648Z</time>
      </trkpt>
      <trkpt lat="46.87886" lon="8.48338">
        <ele>1834</ele>
        <time>2021-08-11T12:56:09.649Z</time>
      </trkpt>
      <trkpt lat="46.87886" lon="8.48338">
        <ele>1834</ele>
        <time>2021-08-11T12:56:10.648Z</time>
      </trkpt>
      <trkpt lat="46.87886" lon="8.48339">
        <ele>1834</ele>
        <time>2021-08-11T12:56:11.649Z</time>
      </trkpt>
      <trkpt lat="46.87887" lon="8.48339">
        <ele>1833</ele>
        <time>2021-08-11T12:56:12.649Z</time>
      </trkpt>
      <trkpt lat="46.87888" lon="8.48339">
        <ele>1833</ele>
        <time>2021-08-11T12:56:13.649Z</time>
      </trkpt>
      <trkpt lat="46.87889" lon="8.48339">
        <ele>1833</ele>
        <time>2021-08-11T12:56:14.649Z</time>
      </trkpt>
      <trkpt lat="46.87889" lon="8.4834">
        <ele>1833</ele>
        <time>2021-08-11T12:56:15.649Z</time>
      </trkpt>
      <trkpt lat="46.8789" lon="8.4834">
        <ele>1833</ele>
        <time>2021-08-11T12:56:16.648Z</time>
      </trkpt>
      <trkpt lat="46.8789" lon="8.4834">
        <ele>1833</ele>
        <time>2021-08-11T12:56:17.649Z</time>
      </trkpt>
      <trkpt lat="46.87891" lon="8.48341">
        <ele>1833</ele>
        <time>2021-08-11T12:56:18.648Z</time>
      </trkpt>
      <trkpt lat="46.87891" lon="8.48342">
        <ele>1833</ele>
        <time>2021-08-11T12:56:19.649Z</time>
      </trkpt>
      <trkpt lat="46.87891" lon="8.48342">
        <ele>1834</ele>
        <time>2021-08-11T12:56:20.648Z</time>
      </trkpt>
      <trkpt lat="46.87892" lon="8.48343">
        <ele>1834</ele>
        <time>2021-08-11T12:56:21.649Z</time>
      </trkpt>
      <trkpt lat="46.87892" lon="8.48343">
        <ele>1834</ele>
        <time>2021-08-11T12:56:22.649Z</time>
      </trkpt>
      <trkpt lat="46.87893" lon="8.48343">
        <ele>1835</ele>
        <time>2021-08-11T12:56:23.648Z</time>
      </trkpt>
      <trkpt lat="46.87893" lon="8.48343">
        <ele>1835</ele>
        <time>2021-08-11T12:56:24.649Z</time>
      </trkpt>
      <trkpt lat="46.87893" lon="8.48344">
        <ele>1836</ele>
        <time>2021-08-11T12:56:25.648Z</time>
      </trkpt>
      <trkpt lat="46.87894" lon="8.48343">
        <ele>1836</ele>
        <time>2021-08-11T12:56:26.649Z</time>
      </trkpt>
      <trkpt lat="46.87894" lon="8.48344">
        <ele>1836</ele>
        <time>2021-08-11T12:56:27.649Z</time>
      </trkpt>
      <trkpt lat="46.87894" lon="8.48344">
        <ele>1836</ele>
        <time>2021-08-11T12:56:28.649Z</time>
      </trkpt>
      <trkpt lat="46.87894" lon="8.48345">
        <ele>1836</ele>
        <time>2021-08-11T12:56:29.649Z</time>
      </trkpt>
      <trkpt lat="46.87895" lon="8.48345">
        <ele>1836</ele>
        <time>2021-08-11T12:56:30.649Z</time>
      </trkpt>
      <trkpt lat="46.87895" lon="8.48346">
        <ele>1836</ele>
        <time>2021-08-11T12:56:31.649Z</time>
      </trkpt>
      <trkpt lat="46.87895" lon="8.48347">
        <ele>1836</ele>
        <time>2021-08-11T12:56:32.649Z</time>
      </trkpt>
      <trkpt lat="46.87895" lon="8.48348">
        <ele>1836</ele>
        <time>2021-08-11T12:56:33.648Z</time>
      </trkpt>
      <trkpt lat="46.87896" lon="8.48349">
        <ele>1836</ele>
        <time>2021-08-11T12:56:34.649Z</time>
      </trkpt>
      <trkpt lat="46.87896" lon="8.4835">
        <ele>1836</ele>
        <time>2021-08-11T12:56:35.649Z</time>
      </trkpt>
      <trkpt lat="46.87896" lon="8.48351">
        <ele>1837</ele>
        <time>2021-08-11T12:56:36.649Z</time>
      </trkpt>
      <trkpt lat="46.87896" lon="8.48352">
        <ele>1837</ele>
        <time>2021-08-11T12:56:37.648Z</time>
      </trkpt>
      <trkpt lat="46.87896" lon="8.48352">
        <ele>1838</ele>
        <time>2021-08-11T12:56:38.648Z</time>
      </trkpt>
      <trkpt lat="46.87897" lon="8.48353">
        <ele>1838</ele>
        <time>2021-08-11T12:56:39.649Z</time>
      </trkpt>
      <trkpt lat="46.87897" lon="8.48353">
        <ele>1838</ele>
        <time>2021-08-11T12:56:40.648Z</time>
      </trkpt>
      <trkpt lat="46.87897" lon="8.48354">
        <ele>1839</ele>
        <time>2021-08-11T12:56:41.649Z</time>
      </trkpt>
      <trkpt lat="46.87897" lon="8.48355">
        <ele>1839</ele>
        <time>2021-08-11T12:56:42.649Z</time>
      </trkpt>
      <trkpt lat="46.87897" lon="8.48356">
        <ele>1839</ele>
        <time>2021-08-11T12:56:43.649Z</time>
      </trkpt>
      <trkpt lat="46.87897" lon="8.48357">
        <ele>1840</ele>
        <time>2021-08-11T12:56:44.649Z</time>
      </trkpt>
      <trkpt lat="46.87897" lon="8.48358">
        <ele>1840</ele>
        <time>2021-08-11T12:56:45.648Z</time>
      </trkpt>
      <trkpt lat="46.87898" lon="8.48358">
        <ele>1840</ele>
        <time>2021-08-11T12:56:46.649Z</time>
      </trkpt>
      <trkpt lat="46.87898" lon="8.48359">
        <ele>1840</ele>
        <time>2021-08-11T12:56:47.648Z</time>
      </trkpt>
      <trkpt lat="46.87898" lon="8.4836">
        <ele>1839</ele>
        <time>2021-08-11T12:56:48.649Z</time>
      </trkpt>
      <trkpt lat="46.87898" lon="8.4836">
        <ele>1839</ele>
        <time>2021-08-11T12:56:49.649Z</time>
      </trkpt>
      <trkpt lat="46.87898" lon="8.48361">
        <ele>1839</ele>
        <time>2021-08-11T12:56:50.649Z</time>
      </trkpt>
      <trkpt lat="46.87899" lon="8.48361">
        <ele>1839</ele>
        <time>2021-08-11T12:56:51.649Z</time>
      </trkpt>
      <trkpt lat="46.87899" lon="8.48362">
        <ele>1839</ele>
        <time>2021-08-11T12:56:52.648Z</time>
      </trkpt>
      <trkpt lat="46.87899" lon="8.48362">
        <ele>1839</ele>
        <time>2021-08-11T12:56:53.648Z</time>
      </trkpt>
      <trkpt lat="46.87899" lon="8.48363">
        <ele>1839</ele>
        <time>2021-08-11T12:56:54.649Z</time>
      </trkpt>
      <trkpt lat="46.879" lon="8.48365">
        <ele>1839</ele>
        <time>2021-08-11T12:56:55.649Z</time>
      </trkpt>
      <trkpt lat="46.87901" lon="8.48365">
        <ele>1840</ele>
        <time>2021-08-11T12:56:56.649Z</time>
      </trkpt>
      <trkpt lat="46.87901" lon="8.48366">
        <ele>1840</ele>
        <time>2021-08-11T12:56:57.648Z</time>
      </trkpt>
      <trkpt lat="46.87901" lon="8.48367">
        <ele>1841</ele>
        <time>2021-08-11T12:56:58.649Z</time>
      </trkpt>
      <trkpt lat="46.87902" lon="8.48368">
        <ele>1841</ele>
        <time>2021-08-11T12:56:59.648Z</time>
      </trkpt>
      <trkpt lat="46.87902" lon="8.4837">
        <ele>1842</ele>
        <time>2021-08-11T12:57:00.648Z</time>
      </trkpt>
      <trkpt lat="46.87902" lon="8.4837">
        <ele>1842</ele>
        <time>2021-08-11T12:57:01.649Z</time>
      </trkpt>
      <trkpt lat="46.87902" lon="8.4837">
        <ele>1842</ele>
        <time>2021-08-11T12:57:02.649Z</time>
      </trkpt>
      <trkpt lat="46.87903" lon="8.4837">
        <ele>1842</ele>
        <time>2021-08-11T12:57:03.649Z</time>
      </trkpt>
      <trkpt lat="46.87903" lon="8.48371">
        <ele>1842</ele>
        <time>2021-08-11T12:57:04.649Z</time>
      </trkpt>
      <trkpt lat="46.87903" lon="8.48372">
        <ele>1842</ele>
        <time>2021-08-11T12:57:05.648Z</time>
      </trkpt>
      <trkpt lat="46.87903" lon="8.48372">
        <ele>1842</ele>
        <time>2021-08-11T12:57:06.648Z</time>
      </trkpt>
      <trkpt lat="46.87904" lon="8.48372">
        <ele>1843</ele>
        <time>2021-08-11T12:57:07.649Z</time>
      </trkpt>
      <trkpt lat="46.87904" lon="8.48373">
        <ele>1843</ele>
        <time>2021-08-11T12:57:08.649Z</time>
      </trkpt>
      <trkpt lat="46.87904" lon="8.48373">
        <ele>1843</ele>
        <time>2021-08-11T12:57:09.649Z</time>
      </trkpt>
      <trkpt lat="46.87904" lon="8.48374">
        <ele>1844</ele>
        <time>2021-08-11T12:57:10.648Z</time>
      </trkpt>
      <trkpt lat="46.87904" lon="8.48375">
        <ele>1844</ele>
        <time>2021-08-11T12:57:11.648Z</time>
      </trkpt>
      <trkpt lat="46.87905" lon="8.48375">
        <ele>1844</ele>
        <time>2021-08-11T12:57:12.648Z</time>
      </trkpt>
      <trkpt lat="46.87905" lon="8.48375">
        <ele>1844</ele>
        <time>2021-08-11T12:57:13.649Z</time>
      </trkpt>
      <trkpt lat="46.87905" lon="8.48375">
        <ele>1843</ele>
        <time>2021-08-11T12:57:14.649Z</time>
      </trkpt>
      <trkpt lat="46.87906" lon="8.48376">
        <ele>1843</ele>
        <time>2021-08-11T12:57:15.649Z</time>
      </trkpt>
      <trkpt lat="46.87906" lon="8.48376">
        <ele>1843</ele>
        <time>2021-08-11T12:57:16.648Z</time>
      </trkpt>
      <trkpt lat="46.87907" lon="8.48376">
        <ele>1843</ele>
        <time>2021-08-11T12:57:17.649Z</time>
      </trkpt>
      <trkpt lat="46.87907" lon="8.48377">
        <ele>1843</ele>
        <time>2021-08-11T12:57:18.648Z</time>
      </trkpt>
      <trkpt lat="46.87907" lon="8.48377">
        <ele>1843</ele>
        <time>2021-08-11T12:57:19.649Z</time>
      </trkpt>
      <trkpt lat="46.87908" lon="8.48378">
        <ele>1843</ele>
        <time>2021-08-11T12:57:20.648Z</time>
      </trkpt>
      <trkpt lat="46.87908" lon="8.48378">
        <ele>1843</ele>
        <time>2021-08-11T12:57:21.648Z</time>
      </trkpt>
      <trkpt lat="46.87908" lon="8.48378">
        <ele>1844</ele>
        <time>2021-08-11T12:57:22.648Z</time>
      </trkpt>
      <trkpt lat="46.87909" lon="8.48379">
        <ele>1844</ele>
        <time>2021-08-11T12:57:23.649Z</time>
      </trkpt>
      <trkpt lat="46.87909" lon="8.48379">
        <ele>1844</ele>
        <time>2021-08-11T12:57:24.649Z</time>
      </trkpt>
      <trkpt lat="46.87909" lon="8.48379">
        <ele>1844</ele>
        <time>2021-08-11T12:57:25.649Z</time>
      </trkpt>
      <trkpt lat="46.8791" lon="8.48379">
        <ele>1844</ele>
        <time>2021-08-11T12:57:26.648Z</time>
      </trkpt>
      <trkpt lat="46.8791" lon="8.48379">
        <ele>1843</ele>
        <time>2021-08-11T12:57:27.648Z</time>
      </trkpt>
      <trkpt lat="46.8791" lon="8.4838">
        <ele>1843</ele>
        <time>2021-08-11T12:57:28.649Z</time>
      </trkpt>
      <trkpt lat="46.87911" lon="8.4838">
        <ele>1843</ele>
        <time>2021-08-11T12:57:29.649Z</time>
      </trkpt>
      <trkpt lat="46.87911" lon="8.48381">
        <ele>1844</ele>
        <time>2021-08-11T12:57:30.649Z</time>
      </trkpt>
      <trkpt lat="46.87911" lon="8.48381">
        <ele>1844</ele>
        <time>2021-08-11T12:57:31.649Z</time>
      </trkpt>
      <trkpt lat="46.87912" lon="8.48382">
        <ele>1845</ele>
        <time>2021-08-11T12:57:32.648Z</time>
      </trkpt>
      <trkpt lat="46.87912" lon="8.48383">
        <ele>1845</ele>
        <time>2021-08-11T12:57:33.648Z</time>
      </trkpt>
      <trkpt lat="46.87913" lon="8.48383">
        <ele>1845</ele>
        <time>2021-08-11T12:57:34.649Z</time>
      </trkpt>
      <trkpt lat="46.87913" lon="8.48384">
        <ele>1845</ele>
        <time>2021-08-11T12:57:35.648Z</time>
      </trkpt>
      <trkpt lat="46.87914" lon="8.48384">
        <ele>1845</ele>
        <time>2021-08-11T12:57:36.648Z</time>
      </trkpt>
      <trkpt lat="46.87914" lon="8.48384">
        <ele>1845</ele>
        <time>2021-08-11T12:57:37.649Z</time>
      </trkpt>
      <trkpt lat="46.87915" lon="8.48384">
        <ele>1845</ele>
        <time>2021-08-11T12:57:38.649Z</time>
      </trkpt>
      <trkpt lat="46.87915" lon="8.48384">
        <ele>1845</ele>
        <time>2021-08-11T12:57:39.649Z</time>
      </trkpt>
      <trkpt lat="46.87916" lon="8.48385">
        <ele>1846</ele>
        <time>2021-08-11T12:57:40.648Z</time>
      </trkpt>
      <trkpt lat="46.87916" lon="8.48385">
        <ele>1846</ele>
        <time>2021-08-11T12:57:41.649Z</time>
      </trkpt>
      <trkpt lat="46.87916" lon="8.48385">
        <ele>1846</ele>
        <time>2021-08-11T12:57:42.649Z</time>
      </trkpt>
      <trkpt lat="46.87917" lon="8.48386">
        <ele>1846</ele>
        <time>2021-08-11T12:57:43.649Z</time>
      </trkpt>
      <trkpt lat="46.87917" lon="8.48386">
        <ele>1846</ele>
        <time>2021-08-11T12:57:44.649Z</time>
      </trkpt>
      <trkpt lat="46.87918" lon="8.48387">
        <ele>1846</ele>
        <time>2021-08-11T12:57:45.649Z</time>
      </trkpt>
      <trkpt lat="46.87918" lon="8.48387">
        <ele>1846</ele>
        <time>2021-08-11T12:57:46.648Z</time>
      </trkpt>
      <trkpt lat="46.87918" lon="8.48387">
        <ele>1846</ele>
        <time>2021-08-11T12:57:47.649Z</time>
      </trkpt>
      <trkpt lat="46.87919" lon="8.48387">
        <ele>1846</ele>
        <time>2021-08-11T12:57:48.649Z</time>
      </trkpt>
      <trkpt lat="46.87919" lon="8.48388">
        <ele>1846</ele>
        <time>2021-08-11T12:57:49.649Z</time>
      </trkpt>
      <trkpt lat="46.8792" lon="8.48388">
        <ele>1846</ele>
        <time>2021-08-11T12:57:50.649Z</time>
      </trkpt>
      <trkpt lat="46.8792" lon="8.48389">
        <ele>1846</ele>
        <time>2021-08-11T12:57:51.649Z</time>
      </trkpt>
      <trkpt lat="46.87921" lon="8.48389">
        <ele>1846</ele>
        <time>2021-08-11T12:57:52.649Z</time>
      </trkpt>
      <trkpt lat="46.87921" lon="8.4839">
        <ele>1846</ele>
        <time>2021-08-11T12:57:53.649Z</time>
      </trkpt>
      <trkpt lat="46.87921" lon="8.4839">
        <ele>1846</ele>
        <time>2021-08-11T12:57:54.648Z</time>
      </trkpt>
      <trkpt lat="46.87922" lon="8.4839">
        <ele>1846</ele>
        <time>2021-08-11T12:57:55.648Z</time>
      </trkpt>
      <trkpt lat="46.87922" lon="8.48391">
        <ele>1846</ele>
        <time>2021-08-11T12:57:56.649Z</time>
      </trkpt>
      <trkpt lat="46.87923" lon="8.48391">
        <ele>1846</ele>
        <time>2021-08-11T12:57:57.648Z</time>
      </trkpt>
      <trkpt lat="46.87923" lon="8.48392">
        <ele>1847</ele>
        <time>2021-08-11T12:57:58.649Z</time>
      </trkpt>
      <trkpt lat="46.87923" lon="8.48393">
        <ele>1847</ele>
        <time>2021-08-11T12:57:59.649Z</time>
      </trkpt>
      <trkpt lat="46.87924" lon="8.48394">
        <ele>1847</ele>
        <time>2021-08-11T12:58:00.648Z</time>
      </trkpt>
      <trkpt lat="46.87924" lon="8.48395">
        <ele>1847</ele>
        <time>2021-08-11T12:58:01.649Z</time>
      </trkpt>
      <trkpt lat="46.87924" lon="8.48395">
        <ele>1846</ele>
        <time>2021-08-11T12:58:02.649Z</time>
      </trkpt>
      <trkpt lat="46.87925" lon="8.48396">
        <ele>1847</ele>
        <time>2021-08-11T12:58:03.649Z</time>
      </trkpt>
      <trkpt lat="46.87925" lon="8.48396">
        <ele>1847</ele>
        <time>2021-08-11T12:58:04.649Z</time>
      </trkpt>
      <trkpt lat="46.87926" lon="8.48397">
        <ele>1848</ele>
        <time>2021-08-11T12:58:05.649Z</time>
      </trkpt>
      <trkpt lat="46.87926" lon="8.48397">
        <ele>1848</ele>
        <time>2021-08-11T12:58:06.648Z</time>
      </trkpt>
      <trkpt lat="46.87926" lon="8.48398">
        <ele>1848</ele>
        <time>2021-08-11T12:58:07.649Z</time>
      </trkpt>
      <trkpt lat="46.87927" lon="8.48399">
        <ele>1849</ele>
        <time>2021-08-11T12:58:08.649Z</time>
      </trkpt>
      <trkpt lat="46.87927" lon="8.484">
        <ele>1849</ele>
        <time>2021-08-11T12:58:09.649Z</time>
      </trkpt>
      <trkpt lat="46.87928" lon="8.48401">
        <ele>1849</ele>
        <time>2021-08-11T12:58:10.649Z</time>
      </trkpt>
      <trkpt lat="46.87928" lon="8.48401">
        <ele>1849</ele>
        <time>2021-08-11T12:58:11.648Z</time>
      </trkpt>
      <trkpt lat="46.87929" lon="8.48402">
        <ele>1849</ele>
        <time>2021-08-11T12:58:15.631Z</time>
      </trkpt>
      <trkpt lat="46.87929" lon="8.48402">
        <ele>1849</ele>
        <time>2021-08-11T12:58:16.631Z</time>
      </trkpt>
      <trkpt lat="46.8793" lon="8.48402">
        <ele>1849</ele>
        <time>2021-08-11T12:58:17.631Z</time>
      </trkpt>
      <trkpt lat="46.87931" lon="8.48402">
        <ele>1849</ele>
        <time>2021-08-11T12:58:27.625Z</time>
      </trkpt>
      <trkpt lat="46.87931" lon="8.48402">
        <ele>1850</ele>
        <time>2021-08-11T12:58:28.624Z</time>
      </trkpt>
      <trkpt lat="46.87931" lon="8.48402">
        <ele>1850</ele>
        <time>2021-08-11T12:58:44.524Z</time>
      </trkpt>
      <trkpt lat="46.87932" lon="8.48403">
        <ele>1850</ele>
        <time>2021-08-11T12:58:59.295Z</time>
      </trkpt>
      <trkpt lat="46.87932" lon="8.48403">
        <ele>1851</ele>
        <time>2021-08-11T12:59:00.295Z</time>
      </trkpt>
      <trkpt lat="46.87933" lon="8.48403">
        <ele>1851</ele>
        <time>2021-08-11T12:59:07.138Z</time>
      </trkpt>
      <trkpt lat="46.87933" lon="8.48403">
        <ele>1851</ele>
        <time>2021-08-11T12:59:08.139Z</time>
      </trkpt>
      <trkpt lat="46.87934" lon="8.48402">
        <ele>1851</ele>
        <time>2021-08-11T12:59:09.139Z</time>
      </trkpt>
      <trkpt lat="46.87935" lon="8.48402">
        <ele>1851</ele>
        <time>2021-08-11T12:59:32.877Z</time>
      </trkpt>
      <trkpt lat="46.87936" lon="8.48402">
        <ele>1851</ele>
        <time>2021-08-11T12:59:33.876Z</time>
      </trkpt>
      <trkpt lat="46.87936" lon="8.48401">
        <ele>1852</ele>
        <time>2021-08-11T12:59:34.877Z</time>
      </trkpt>
      <trkpt lat="46.87936" lon="8.48401">
        <ele>1852</ele>
        <time>2021-08-11T12:59:35.877Z</time>
      </trkpt>
      <trkpt lat="46.87937" lon="8.484">
        <ele>1852</ele>
        <time>2021-08-11T13:00:02.002Z</time>
      </trkpt>
      <trkpt lat="46.87937" lon="8.48399">
        <ele>1852</ele>
        <time>2021-08-11T13:00:03.002Z</time>
      </trkpt>
      <trkpt lat="46.87938" lon="8.48398">
        <ele>1852</ele>
        <time>2021-08-11T13:00:04.001Z</time>
      </trkpt>
      <trkpt lat="46.87939" lon="8.48396">
        <ele>1853</ele>
        <time>2021-08-11T13:00:05.002Z</time>
      </trkpt>
      <trkpt lat="46.87938" lon="8.48395">
        <ele>1853</ele>
        <time>2021-08-11T13:00:06.002Z</time>
      </trkpt>
      <trkpt lat="46.87938" lon="8.48394">
        <ele>1853</ele>
        <time>2021-08-11T13:00:07.002Z</time>
      </trkpt>
      <trkpt lat="46.87937" lon="8.48393">
        <ele>1854</ele>
        <time>2021-08-11T13:00:08.001Z</time>
      </trkpt>
      <trkpt lat="46.87937" lon="8.48392">
        <ele>1854</ele>
        <time>2021-08-11T13:00:09.002Z</time>
      </trkpt>
      <trkpt lat="46.87937" lon="8.48391">
        <ele>1854</ele>
        <time>2021-08-11T13:00:10.002Z</time>
      </trkpt>
      <trkpt lat="46.87937" lon="8.4839">
        <ele>1853</ele>
        <time>2021-08-11T13:00:11.002Z</time>
      </trkpt>
      <trkpt lat="46.87936" lon="8.48389">
        <ele>1853</ele>
        <time>2021-08-11T13:00:12.002Z</time>
      </trkpt>
      <trkpt lat="46.87936" lon="8.48388">
        <ele>1853</ele>
        <time>2021-08-11T13:00:13.001Z</time>
      </trkpt>
      <trkpt lat="46.87936" lon="8.48387">
        <ele>1854</ele>
        <time>2021-08-11T13:00:14.002Z</time>
      </trkpt>
      <trkpt lat="46.87936" lon="8.48386">
        <ele>1854</ele>
        <time>2021-08-11T13:00:15.002Z</time>
      </trkpt>
      <trkpt lat="46.87936" lon="8.48384">
        <ele>1854</ele>
        <time>2021-08-11T13:00:16.002Z</time>
      </trkpt>
      <trkpt lat="46.87936" lon="8.48384">
        <ele>1854</ele>
        <time>2021-08-11T13:00:17.002Z</time>
      </trkpt>
      <trkpt lat="46.87935" lon="8.48383">
        <ele>1854</ele>
        <time>2021-08-11T13:00:18.001Z</time>
      </trkpt>
      <trkpt lat="46.87935" lon="8.48383">
        <ele>1855</ele>
        <time>2021-08-11T13:00:19.002Z</time>
      </trkpt>
      <trkpt lat="46.87935" lon="8.48382">
        <ele>1855</ele>
        <time>2021-08-11T13:00:20.002Z</time>
      </trkpt>
      <trkpt lat="46.87935" lon="8.48381">
        <ele>1855</ele>
        <time>2021-08-11T13:00:21.002Z</time>
      </trkpt>
      <trkpt lat="46.87935" lon="8.48379">
        <ele>1855</ele>
        <time>2021-08-11T13:00:22.002Z</time>
      </trkpt>
      <trkpt lat="46.87934" lon="8.48378">
        <ele>1855</ele>
        <time>2021-08-11T13:00:23.001Z</time>
      </trkpt>
      <trkpt lat="46.87934" lon="8.48378">
        <ele>1855</ele>
        <time>2021-08-11T13:00:24.002Z</time>
      </trkpt>
      <trkpt lat="46.87933" lon="8.48377">
        <ele>1855</ele>
        <time>2021-08-11T13:00:25.002Z</time>
      </trkpt>
      <trkpt lat="46.87933" lon="8.48376">
        <ele>1855</ele>
        <time>2021-08-11T13:00:26.002Z</time>
      </trkpt>
      <trkpt lat="46.87932" lon="8.48376">
        <ele>1854</ele>
        <time>2021-08-11T13:00:27.002Z</time>
      </trkpt>
      <trkpt lat="46.87932" lon="8.48375">
        <ele>1854</ele>
        <time>2021-08-11T13:00:28.001Z</time>
      </trkpt>
      <trkpt lat="46.87932" lon="8.48374">
        <ele>1854</ele>
        <time>2021-08-11T13:00:29.002Z</time>
      </trkpt>
      <trkpt lat="46.87931" lon="8.48373">
        <ele>1855</ele>
        <time>2021-08-11T13:00:30.002Z</time>
      </trkpt>
      <trkpt lat="46.87931" lon="8.48372">
        <ele>1855</ele>
        <time>2021-08-11T13:00:31.002Z</time>
      </trkpt>
      <trkpt lat="46.87931" lon="8.48372">
        <ele>1856</ele>
        <time>2021-08-11T13:00:32.002Z</time>
      </trkpt>
      <trkpt lat="46.87931" lon="8.48371">
        <ele>1856</ele>
        <time>2021-08-11T13:00:33.002Z</time>
      </trkpt>
      <trkpt lat="46.8793" lon="8.4837">
        <ele>1856</ele>
        <time>2021-08-11T13:00:34.001Z</time>
      </trkpt>
      <trkpt lat="46.8793" lon="8.48369">
        <ele>1856</ele>
        <time>2021-08-11T13:00:35.001Z</time>
      </trkpt>
      <trkpt lat="46.8793" lon="8.48368">
        <ele>1856</ele>
        <time>2021-08-11T13:00:36.001Z</time>
      </trkpt>
      <trkpt lat="46.8793" lon="8.48367">
        <ele>1856</ele>
        <time>2021-08-11T13:00:40.023Z</time>
      </trkpt>
      <trkpt lat="46.8793" lon="8.48366">
        <ele>1856</ele>
        <time>2021-08-11T13:00:41.023Z</time>
      </trkpt>
      <trkpt lat="46.87929" lon="8.48365">
        <ele>1856</ele>
        <time>2021-08-11T13:00:42.023Z</time>
      </trkpt>
      <trkpt lat="46.87929" lon="8.48364">
        <ele>1856</ele>
        <time>2021-08-11T13:00:43.023Z</time>
      </trkpt>
      <trkpt lat="46.87929" lon="8.48363">
        <ele>1856</ele>
        <time>2021-08-11T13:00:44.022Z</time>
      </trkpt>
      <trkpt lat="46.87929" lon="8.48362">
        <ele>1856</ele>
        <time>2021-08-11T13:00:45.023Z</time>
      </trkpt>
      <trkpt lat="46.8793" lon="8.48361">
        <ele>1856</ele>
        <time>2021-08-11T13:00:46.023Z</time>
      </trkpt>
      <trkpt lat="46.8793" lon="8.4836">
        <ele>1856</ele>
        <time>2021-08-11T13:00:47.023Z</time>
      </trkpt>
      <trkpt lat="46.8793" lon="8.48359">
        <ele>1856</ele>
        <time>2021-08-11T13:00:48.023Z</time>
      </trkpt>
      <trkpt lat="46.8793" lon="8.48358">
        <ele>1856</ele>
        <time>2021-08-11T13:00:49.022Z</time>
      </trkpt>
      <trkpt lat="46.8793" lon="8.48357">
        <ele>1856</ele>
        <time>2021-08-11T13:00:50.022Z</time>
      </trkpt>
      <trkpt lat="46.8793" lon="8.48356">
        <ele>1856</ele>
        <time>2021-08-11T13:00:51.023Z</time>
      </trkpt>
      <trkpt lat="46.8793" lon="8.48355">
        <ele>1856</ele>
        <time>2021-08-11T13:00:52.023Z</time>
      </trkpt>
      <trkpt lat="46.8793" lon="8.48354">
        <ele>1856</ele>
        <time>2021-08-11T13:00:53.023Z</time>
      </trkpt>
      <trkpt lat="46.8793" lon="8.48353">
        <ele>1857</ele>
        <time>2021-08-11T13:00:54.023Z</time>
      </trkpt>
      <trkpt lat="46.87929" lon="8.48352">
        <ele>1857</ele>
        <time>2021-08-11T13:00:55.022Z</time>
      </trkpt>
      <trkpt lat="46.87929" lon="8.48352">
        <ele>1858</ele>
        <time>2021-08-11T13:00:59.145Z</time>
      </trkpt>
      <trkpt lat="46.87928" lon="8.4835">
        <ele>1858</ele>
        <time>2021-08-11T13:01:00.145Z</time>
      </trkpt>
      <trkpt lat="46.87927" lon="8.48349">
        <ele>1859</ele>
        <time>2021-08-11T13:01:01.144Z</time>
      </trkpt>
      <trkpt lat="46.87926" lon="8.48348">
        <ele>1859</ele>
        <time>2021-08-11T13:01:11.247Z</time>
      </trkpt>
      <trkpt lat="46.87925" lon="8.48347">
        <ele>1860</ele>
        <time>2021-08-11T13:01:12.246Z</time>
      </trkpt>
      <trkpt lat="46.87925" lon="8.48346">
        <ele>1860</ele>
        <time>2021-08-11T13:01:13.247Z</time>
      </trkpt>
      <trkpt lat="46.87925" lon="8.48344">
        <ele>1860</ele>
        <time>2021-08-11T13:01:14.247Z</time>
      </trkpt>
      <trkpt lat="46.87925" lon="8.48343">
        <ele>1860</ele>
        <time>2021-08-11T13:01:15.247Z</time>
      </trkpt>
      <trkpt lat="46.87925" lon="8.48342">
        <ele>1860</ele>
        <time>2021-08-11T13:01:16.247Z</time>
      </trkpt>
      <trkpt lat="46.87924" lon="8.48342">
        <ele>1860</ele>
        <time>2021-08-11T13:01:17.247Z</time>
      </trkpt>
      <trkpt lat="46.87924" lon="8.48342">
        <ele>1860</ele>
        <time>2021-08-11T13:01:18.246Z</time>
      </trkpt>
      <trkpt lat="46.87924" lon="8.48342">
        <ele>1860</ele>
        <time>2021-08-11T13:01:19.247Z</time>
      </trkpt>
      <trkpt lat="46.87924" lon="8.48341">
        <ele>1861</ele>
        <time>2021-08-11T13:01:20.246Z</time>
      </trkpt>
      <trkpt lat="46.87924" lon="8.48342">
        <ele>1861</ele>
        <time>2021-08-11T13:01:21.247Z</time>
      </trkpt>
      <trkpt lat="46.87924" lon="8.48342">
        <ele>1861</ele>
        <time>2021-08-11T13:01:22.246Z</time>
      </trkpt>
      <trkpt lat="46.87924" lon="8.48343">
        <ele>1861</ele>
        <time>2021-08-11T13:01:23.247Z</time>
      </trkpt>
      <trkpt lat="46.87925" lon="8.48342">
        <ele>1861</ele>
        <time>2021-08-11T13:01:24.247Z</time>
      </trkpt>
      <trkpt lat="46.87924" lon="8.48342">
        <ele>1861</ele>
        <time>2021-08-11T13:01:25.248Z</time>
      </trkpt>
      <trkpt lat="46.87924" lon="8.48343">
        <ele>1860</ele>
        <time>2021-08-11T13:01:26.247Z</time>
      </trkpt>
      <trkpt lat="46.87923" lon="8.48343">
        <ele>1860</ele>
        <time>2021-08-11T13:01:27.248Z</time>
      </trkpt>
      <trkpt lat="46.87923" lon="8.48343">
        <ele>1860</ele>
        <time>2021-08-11T13:01:28.248Z</time>
      </trkpt>
      <trkpt lat="46.87923" lon="8.48342">
        <ele>1859</ele>
        <time>2021-08-11T13:01:29.248Z</time>
      </trkpt>
      <trkpt lat="46.87923" lon="8.48342">
        <ele>1858</ele>
        <time>2021-08-11T13:01:30.249Z</time>
      </trkpt>
      <trkpt lat="46.87924" lon="8.48342">
        <ele>1858</ele>
        <time>2021-08-11T13:01:31.248Z</time>
      </trkpt>
      <trkpt lat="46.87924" lon="8.48341">
        <ele>1858</ele>
        <time>2021-08-11T13:01:32.249Z</time>
      </trkpt>
      <trkpt lat="46.87924" lon="8.48341">
        <ele>1858</ele>
        <time>2021-08-11T13:01:33.249Z</time>
      </trkpt>
      <trkpt lat="46.87924" lon="8.48342">
        <ele>1857</ele>
        <time>2021-08-11T13:01:34.248Z</time>
      </trkpt>
      <trkpt lat="46.87924" lon="8.48342">
        <ele>1855</ele>
        <time>2021-08-11T13:01:35.249Z</time>
      </trkpt>
      <trkpt lat="46.87924" lon="8.48343">
        <ele>1855</ele>
        <time>2021-08-11T13:01:36.248Z</time>
      </trkpt>
      <trkpt lat="46.87924" lon="8.48343">
        <ele>1855</ele>
        <time>2021-08-11T13:01:37.248Z</time>
      </trkpt>
      <trkpt lat="46.87927" lon="8.48341">
        <ele>1861</ele>
        <time>2021-08-11T13:01:38.248Z</time>
      </trkpt>
      <trkpt lat="46.87927" lon="8.48341">
        <ele>1860</ele>
        <time>2021-08-11T13:01:39.249Z</time>
      </trkpt>
      <trkpt lat="46.87924" lon="8.4834">
        <ele>1860</ele>
        <time>2021-08-11T13:01:40.250Z</time>
      </trkpt>
      <trkpt lat="46.87924" lon="8.48339">
        <ele>1860</ele>
        <time>2021-08-11T13:01:41.250Z</time>
      </trkpt>
      <trkpt lat="46.87924" lon="8.48338">
        <ele>1860</ele>
        <time>2021-08-11T13:01:42.249Z</time>
      </trkpt>
      <trkpt lat="46.87925" lon="8.48337">
        <ele>1860</ele>
        <time>2021-08-11T13:01:43.250Z</time>
      </trkpt>
      <trkpt lat="46.87925" lon="8.48336">
        <ele>1859</ele>
        <time>2021-08-11T13:01:44.249Z</time>
      </trkpt>
      <trkpt lat="46.87925" lon="8.48335">
        <ele>1859</ele>
        <time>2021-08-11T13:01:45.250Z</time>
      </trkpt>
      <trkpt lat="46.87927" lon="8.48335">
        <ele>1859</ele>
        <time>2021-08-11T13:01:46.249Z</time>
      </trkpt>
      <trkpt lat="46.87928" lon="8.48335">
        <ele>1859</ele>
        <time>2021-08-11T13:01:47.249Z</time>
      </trkpt>
      <trkpt lat="46.87928" lon="8.48335">
        <ele>1859</ele>
        <time>2021-08-11T13:01:48.250Z</time>
      </trkpt>
      <trkpt lat="46.87929" lon="8.48334">
        <ele>1859</ele>
        <time>2021-08-11T13:01:49.250Z</time>
      </trkpt>
      <trkpt lat="46.87928" lon="8.48333">
        <ele>1859</ele>
        <time>2021-08-11T13:01:50.250Z</time>
      </trkpt>
      <trkpt lat="46.87928" lon="8.48332">
        <ele>1858</ele>
        <time>2021-08-11T13:01:51.249Z</time>
      </trkpt>
      <trkpt lat="46.87928" lon="8.48332">
        <ele>1858</ele>
        <time>2021-08-11T13:01:52.249Z</time>
      </trkpt>
      <trkpt lat="46.87928" lon="8.48331">
        <ele>1858</ele>
        <time>2021-08-11T13:01:53.250Z</time>
      </trkpt>
      <trkpt lat="46.87928" lon="8.4833">
        <ele>1858</ele>
        <time>2021-08-11T13:01:54.249Z</time>
      </trkpt>
      <trkpt lat="46.87927" lon="8.48329">
        <ele>1859</ele>
        <time>2021-08-11T13:01:55.250Z</time>
      </trkpt>
      <trkpt lat="46.87927" lon="8.48328">
        <ele>1859</ele>
        <time>2021-08-11T13:01:56.250Z</time>
      </trkpt>
      <trkpt lat="46.87925" lon="8.48328">
        <ele>1859</ele>
        <time>2021-08-11T13:01:57.249Z</time>
      </trkpt>
      <trkpt lat="46.87925" lon="8.48327">
        <ele>1860</ele>
        <time>2021-08-11T13:01:58.250Z</time>
      </trkpt>
      <trkpt lat="46.87925" lon="8.48327">
        <ele>1860</ele>
        <time>2021-08-11T13:01:59.249Z</time>
      </trkpt>
      <trkpt lat="46.87926" lon="8.48326">
        <ele>1860</ele>
        <time>2021-08-11T13:02:06.275Z</time>
      </trkpt>
      <trkpt lat="46.87925" lon="8.48325">
        <ele>1860</ele>
        <time>2021-08-11T13:02:07.276Z</time>
      </trkpt>
      <trkpt lat="46.87923" lon="8.48325">
        <ele>1860</ele>
        <time>2021-08-11T13:02:08.276Z</time>
      </trkpt>
      <trkpt lat="46.87922" lon="8.48324">
        <ele>1860</ele>
        <time>2021-08-11T13:02:09.276Z</time>
      </trkpt>
      <trkpt lat="46.87922" lon="8.48324">
        <ele>1860</ele>
        <time>2021-08-11T13:02:10.276Z</time>
      </trkpt>
      <trkpt lat="46.87921" lon="8.48323">
        <ele>1860</ele>
        <time>2021-08-11T13:02:11.276Z</time>
      </trkpt>
      <trkpt lat="46.87921" lon="8.48322">
        <ele>1860</ele>
        <time>2021-08-11T13:02:12.275Z</time>
      </trkpt>
      <trkpt lat="46.87921" lon="8.48321">
        <ele>1860</ele>
        <time>2021-08-11T13:02:13.275Z</time>
      </trkpt>
      <trkpt lat="46.87922" lon="8.4832">
        <ele>1860</ele>
        <time>2021-08-11T13:02:14.275Z</time>
      </trkpt>
      <trkpt lat="46.87923" lon="8.48319">
        <ele>1860</ele>
        <time>2021-08-11T13:02:15.275Z</time>
      </trkpt>
      <trkpt lat="46.87923" lon="8.48318">
        <ele>1860</ele>
        <time>2021-08-11T13:02:16.275Z</time>
      </trkpt>
      <trkpt lat="46.87923" lon="8.48318">
        <ele>1861</ele>
        <time>2021-08-11T13:02:17.275Z</time>
      </trkpt>
      <trkpt lat="46.87922" lon="8.48317">
        <ele>1861</ele>
        <time>2021-08-11T13:02:18.275Z</time>
      </trkpt>
      <trkpt lat="46.87922" lon="8.48316">
        <ele>1862</ele>
        <time>2021-08-11T13:02:19.275Z</time>
      </trkpt>
      <trkpt lat="46.87922" lon="8.48315">
        <ele>1862</ele>
        <time>2021-08-11T13:02:20.276Z</time>
      </trkpt>
      <trkpt lat="46.87922" lon="8.48314">
        <ele>1863</ele>
        <time>2021-08-11T13:02:21.275Z</time>
      </trkpt>
      <trkpt lat="46.87922" lon="8.48313">
        <ele>1863</ele>
        <time>2021-08-11T13:02:22.276Z</time>
      </trkpt>
      <trkpt lat="46.87921" lon="8.48312">
        <ele>1864</ele>
        <time>2021-08-11T13:02:23.276Z</time>
      </trkpt>
      <trkpt lat="46.87921" lon="8.48311">
        <ele>1864</ele>
        <time>2021-08-11T13:02:24.275Z</time>
      </trkpt>
      <trkpt lat="46.87921" lon="8.4831">
        <ele>1865</ele>
        <time>2021-08-11T13:02:25.275Z</time>
      </trkpt>
      <trkpt lat="46.8792" lon="8.48309">
        <ele>1865</ele>
        <time>2021-08-11T13:02:26.275Z</time>
      </trkpt>
      <trkpt lat="46.8792" lon="8.48307">
        <ele>1866</ele>
        <time>2021-08-11T13:02:27.276Z</time>
      </trkpt>
      <trkpt lat="46.8792" lon="8.48305">
        <ele>1866</ele>
        <time>2021-08-11T13:02:28.276Z</time>
      </trkpt>
      <trkpt lat="46.87919" lon="8.48304">
        <ele>1866</ele>
        <time>2021-08-11T13:02:29.276Z</time>
      </trkpt>
      <trkpt lat="46.87919" lon="8.48303">
        <ele>1867</ele>
        <time>2021-08-11T13:02:30.275Z</time>
      </trkpt>
      <trkpt lat="46.87919" lon="8.48303">
        <ele>1867</ele>
        <time>2021-08-11T13:02:31.276Z</time>
      </trkpt>
      <trkpt lat="46.87919" lon="8.48302">
        <ele>1868</ele>
        <time>2021-08-11T13:02:32.276Z</time>
      </trkpt>
      <trkpt lat="46.87919" lon="8.48301">
        <ele>1868</ele>
        <time>2021-08-11T13:02:33.276Z</time>
      </trkpt>
      <trkpt lat="46.87919" lon="8.483">
        <ele>1869</ele>
        <time>2021-08-11T13:02:34.276Z</time>
      </trkpt>
      <trkpt lat="46.87919" lon="8.48299">
        <ele>1869</ele>
        <time>2021-08-11T13:02:35.275Z</time>
      </trkpt>
      <trkpt lat="46.8792" lon="8.48298">
        <ele>1870</ele>
        <time>2021-08-11T13:02:36.275Z</time>
      </trkpt>
      <trkpt lat="46.8792" lon="8.48297">
        <ele>1870</ele>
        <time>2021-08-11T13:02:37.276Z</time>
      </trkpt>
      <trkpt lat="46.87919" lon="8.48296">
        <ele>1870</ele>
        <time>2021-08-11T13:02:38.276Z</time>
      </trkpt>
      <trkpt lat="46.87919" lon="8.48295">
        <ele>1870</ele>
        <time>2021-08-11T13:02:39.275Z</time>
      </trkpt>
      <trkpt lat="46.87919" lon="8.48293">
        <ele>1870</ele>
        <time>2021-08-11T13:02:40.275Z</time>
      </trkpt>
      <trkpt lat="46.8792" lon="8.48291">
        <ele>1870</ele>
        <time>2021-08-11T13:02:41.275Z</time>
      </trkpt>
      <trkpt lat="46.8792" lon="8.4829">
        <ele>1870</ele>
        <time>2021-08-11T13:02:42.276Z</time>
      </trkpt>
      <trkpt lat="46.87919" lon="8.48288">
        <ele>1870</ele>
        <time>2021-08-11T13:02:43.275Z</time>
      </trkpt>
      <trkpt lat="46.87919" lon="8.48288">
        <ele>1870</ele>
        <time>2021-08-11T13:02:44.276Z</time>
      </trkpt>
      <trkpt lat="46.87918" lon="8.48287">
        <ele>1870</ele>
        <time>2021-08-11T13:02:45.275Z</time>
      </trkpt>
      <trkpt lat="46.87916" lon="8.48286">
        <ele>1870</ele>
        <time>2021-08-11T13:02:46.275Z</time>
      </trkpt>
      <trkpt lat="46.87916" lon="8.48285">
        <ele>1870</ele>
        <time>2021-08-11T13:02:47.276Z</time>
      </trkpt>
      <trkpt lat="46.87914" lon="8.48285">
        <ele>1870</ele>
        <time>2021-08-11T13:02:48.275Z</time>
      </trkpt>
      <trkpt lat="46.87914" lon="8.48285">
        <ele>1870</ele>
        <time>2021-08-11T13:02:49.276Z</time>
      </trkpt>
      <trkpt lat="46.87914" lon="8.48284">
        <ele>1870</ele>
        <time>2021-08-11T13:02:50.275Z</time>
      </trkpt>
      <trkpt lat="46.87914" lon="8.48284">
        <ele>1870</ele>
        <time>2021-08-11T13:02:51.275Z</time>
      </trkpt>
      <trkpt lat="46.87915" lon="8.48284">
        <ele>1870</ele>
        <time>2021-08-11T13:02:52.276Z</time>
      </trkpt>
      <trkpt lat="46.87914" lon="8.48283">
        <ele>1869</ele>
        <time>2021-08-11T13:02:53.275Z</time>
      </trkpt>
      <trkpt lat="46.87913" lon="8.48282">
        <ele>1869</ele>
        <time>2021-08-11T13:02:54.276Z</time>
      </trkpt>
      <trkpt lat="46.87913" lon="8.48281">
        <ele>1868</ele>
        <time>2021-08-11T13:02:55.275Z</time>
      </trkpt>
      <trkpt lat="46.87913" lon="8.48279">
        <ele>1868</ele>
        <time>2021-08-11T13:02:56.276Z</time>
      </trkpt>
      <trkpt lat="46.87912" lon="8.48277">
        <ele>1867</ele>
        <time>2021-08-11T13:02:57.275Z</time>
      </trkpt>
      <trkpt lat="46.87912" lon="8.48276">
        <ele>1867</ele>
        <time>2021-08-11T13:02:58.276Z</time>
      </trkpt>
      <trkpt lat="46.87911" lon="8.48275">
        <ele>1866</ele>
        <time>2021-08-11T13:02:59.276Z</time>
      </trkpt>
      <trkpt lat="46.87911" lon="8.48273">
        <ele>1865</ele>
        <time>2021-08-11T13:03:00.276Z</time>
      </trkpt>
      <trkpt lat="46.87911" lon="8.48273">
        <ele>1865</ele>
        <time>2021-08-11T13:03:01.275Z</time>
      </trkpt>
      <trkpt lat="46.87911" lon="8.48272">
        <ele>1864</ele>
        <time>2021-08-11T13:03:02.275Z</time>
      </trkpt>
      <trkpt lat="46.87911" lon="8.48271">
        <ele>1864</ele>
        <time>2021-08-11T13:03:03.276Z</time>
      </trkpt>
      <trkpt lat="46.87911" lon="8.4827">
        <ele>1864</ele>
        <time>2021-08-11T13:03:04.276Z</time>
      </trkpt>
      <trkpt lat="46.87912" lon="8.48269">
        <ele>1863</ele>
        <time>2021-08-11T13:03:05.275Z</time>
      </trkpt>
      <trkpt lat="46.87912" lon="8.48267">
        <ele>1863</ele>
        <time>2021-08-11T13:03:06.275Z</time>
      </trkpt>
      <trkpt lat="46.87912" lon="8.48266">
        <ele>1864</ele>
        <time>2021-08-11T13:03:07.276Z</time>
      </trkpt>
      <trkpt lat="46.87912" lon="8.48265">
        <ele>1864</ele>
        <time>2021-08-11T13:03:08.275Z</time>
      </trkpt>
      <trkpt lat="46.87912" lon="8.48264">
        <ele>1864</ele>
        <time>2021-08-11T13:03:09.276Z</time>
      </trkpt>
      <trkpt lat="46.87912" lon="8.48263">
        <ele>1864</ele>
        <time>2021-08-11T13:03:10.275Z</time>
      </trkpt>
      <trkpt lat="46.87912" lon="8.48262">
        <ele>1864</ele>
        <time>2021-08-11T13:03:11.275Z</time>
      </trkpt>
      <trkpt lat="46.87912" lon="8.4826">
        <ele>1864</ele>
        <time>2021-08-11T13:03:12.275Z</time>
      </trkpt>
      <trkpt lat="46.87913" lon="8.48259">
        <ele>1865</ele>
        <time>2021-08-11T13:03:13.276Z</time>
      </trkpt>
      <trkpt lat="46.87913" lon="8.48258">
        <ele>1865</ele>
        <time>2021-08-11T13:03:14.275Z</time>
      </trkpt>
      <trkpt lat="46.87914" lon="8.48256">
        <ele>1866</ele>
        <time>2021-08-11T13:03:15.276Z</time>
      </trkpt>
      <trkpt lat="46.87914" lon="8.48255">
        <ele>1866</ele>
        <time>2021-08-11T13:03:16.275Z</time>
      </trkpt>
      <trkpt lat="46.87913" lon="8.48254">
        <ele>1867</ele>
        <time>2021-08-11T13:03:17.276Z</time>
      </trkpt>
      <trkpt lat="46.87913" lon="8.48253">
        <ele>1868</ele>
        <time>2021-08-11T13:03:18.275Z</time>
      </trkpt>
      <trkpt lat="46.87912" lon="8.48252">
        <ele>1869</ele>
        <time>2021-08-11T13:03:19.276Z</time>
      </trkpt>
      <trkpt lat="46.8791" lon="8.48251">
        <ele>1870</ele>
        <time>2021-08-11T13:03:20.275Z</time>
      </trkpt>
      <trkpt lat="46.87909" lon="8.4825">
        <ele>1870</ele>
        <time>2021-08-11T13:03:21.276Z</time>
      </trkpt>
      <trkpt lat="46.87908" lon="8.48249">
        <ele>1871</ele>
        <time>2021-08-11T13:03:22.275Z</time>
      </trkpt>
      <trkpt lat="46.87907" lon="8.48247">
        <ele>1871</ele>
        <time>2021-08-11T13:03:23.276Z</time>
      </trkpt>
      <trkpt lat="46.87907" lon="8.48246">
        <ele>1872</ele>
        <time>2021-08-11T13:03:24.276Z</time>
      </trkpt>
      <trkpt lat="46.87909" lon="8.48245">
        <ele>1873</ele>
        <time>2021-08-11T13:03:25.275Z</time>
      </trkpt>
      <trkpt lat="46.8791" lon="8.48244">
        <ele>1873</ele>
        <time>2021-08-11T13:03:26.276Z</time>
      </trkpt>
      <trkpt lat="46.8791" lon="8.48244">
        <ele>1874</ele>
        <time>2021-08-11T13:03:27.275Z</time>
      </trkpt>
      <trkpt lat="46.87909" lon="8.48243">
        <ele>1874</ele>
        <time>2021-08-11T13:03:28.275Z</time>
      </trkpt>
      <trkpt lat="46.8791" lon="8.48242">
        <ele>1874</ele>
        <time>2021-08-11T13:03:29.276Z</time>
      </trkpt>
      <trkpt lat="46.87909" lon="8.48241">
        <ele>1875</ele>
        <time>2021-08-11T13:03:30.276Z</time>
      </trkpt>
      <trkpt lat="46.87908" lon="8.4824">
        <ele>1875</ele>
        <time>2021-08-11T13:03:31.276Z</time>
      </trkpt>
      <trkpt lat="46.87908" lon="8.48239">
        <ele>1875</ele>
        <time>2021-08-11T13:03:32.276Z</time>
      </trkpt>
      <trkpt lat="46.87908" lon="8.48239">
        <ele>1874</ele>
        <time>2021-08-11T13:03:33.276Z</time>
      </trkpt>
      <trkpt lat="46.87908" lon="8.48238">
        <ele>1874</ele>
        <time>2021-08-11T13:03:34.276Z</time>
      </trkpt>
      <trkpt lat="46.87908" lon="8.48237">
        <ele>1874</ele>
        <time>2021-08-11T13:03:35.276Z</time>
      </trkpt>
      <trkpt lat="46.87907" lon="8.48237">
        <ele>1873</ele>
        <time>2021-08-11T13:03:36.275Z</time>
      </trkpt>
      <trkpt lat="46.87906" lon="8.48236">
        <ele>1873</ele>
        <time>2021-08-11T13:03:37.275Z</time>
      </trkpt>
      <trkpt lat="46.87906" lon="8.48236">
        <ele>1873</ele>
        <time>2021-08-11T13:03:38.275Z</time>
      </trkpt>
      <trkpt lat="46.87905" lon="8.48235">
        <ele>1873</ele>
        <time>2021-08-11T13:03:39.276Z</time>
      </trkpt>
      <trkpt lat="46.87904" lon="8.48235">
        <ele>1873</ele>
        <time>2021-08-11T13:03:40.276Z</time>
      </trkpt>
      <trkpt lat="46.87903" lon="8.48234">
        <ele>1873</ele>
        <time>2021-08-11T13:03:41.275Z</time>
      </trkpt>
      <trkpt lat="46.87902" lon="8.48233">
        <ele>1873</ele>
        <time>2021-08-11T13:03:42.276Z</time>
      </trkpt>
      <trkpt lat="46.87902" lon="8.48232">
        <ele>1873</ele>
        <time>2021-08-11T13:03:43.276Z</time>
      </trkpt>
      <trkpt lat="46.87902" lon="8.48231">
        <ele>1873</ele>
        <time>2021-08-11T13:03:44.276Z</time>
      </trkpt>
      <trkpt lat="46.87901" lon="8.4823">
        <ele>1873</ele>
        <time>2021-08-11T13:03:45.275Z</time>
      </trkpt>
      <trkpt lat="46.87902" lon="8.4823">
        <ele>1874</ele>
        <time>2021-08-11T13:03:46.275Z</time>
      </trkpt>
      <trkpt lat="46.87903" lon="8.48228">
        <ele>1874</ele>
        <time>2021-08-11T13:03:47.275Z</time>
      </trkpt>
      <trkpt lat="46.87903" lon="8.48227">
        <ele>1874</ele>
        <time>2021-08-11T13:03:48.276Z</time>
      </trkpt>
      <trkpt lat="46.87903" lon="8.48226">
        <ele>1874</ele>
        <time>2021-08-11T13:03:49.276Z</time>
      </trkpt>
      <trkpt lat="46.87903" lon="8.48225">
        <ele>1874</ele>
        <time>2021-08-11T13:03:50.275Z</time>
      </trkpt>
      <trkpt lat="46.87903" lon="8.48225">
        <ele>1874</ele>
        <time>2021-08-11T13:03:51.275Z</time>
      </trkpt>
      <trkpt lat="46.87902" lon="8.48224">
        <ele>1874</ele>
        <time>2021-08-11T13:03:52.276Z</time>
      </trkpt>
      <trkpt lat="46.87902" lon="8.48223">
        <ele>1874</ele>
        <time>2021-08-11T13:03:53.276Z</time>
      </trkpt>
      <trkpt lat="46.87901" lon="8.48222">
        <ele>1874</ele>
        <time>2021-08-11T13:03:54.276Z</time>
      </trkpt>
      <trkpt lat="46.87901" lon="8.48222">
        <ele>1874</ele>
        <time>2021-08-11T13:03:55.276Z</time>
      </trkpt>
      <trkpt lat="46.87902" lon="8.48221">
        <ele>1874</ele>
        <time>2021-08-11T13:03:56.276Z</time>
      </trkpt>
      <trkpt lat="46.87902" lon="8.4822">
        <ele>1874</ele>
        <time>2021-08-11T13:03:57.275Z</time>
      </trkpt>
      <trkpt lat="46.87901" lon="8.4822">
        <ele>1874</ele>
        <time>2021-08-11T13:03:58.276Z</time>
      </trkpt>
      <trkpt lat="46.87901" lon="8.48219">
        <ele>1874</ele>
        <time>2021-08-11T13:03:59.276Z</time>
      </trkpt>
      <trkpt lat="46.87902" lon="8.48218">
        <ele>1875</ele>
        <time>2021-08-11T13:04:00.276Z</time>
      </trkpt>
      <trkpt lat="46.87901" lon="8.48217">
        <ele>1875</ele>
        <time>2021-08-11T13:04:01.275Z</time>
      </trkpt>
      <trkpt lat="46.87901" lon="8.48216">
        <ele>1875</ele>
        <time>2021-08-11T13:04:02.275Z</time>
      </trkpt>
      <trkpt lat="46.87901" lon="8.48215">
        <ele>1874</ele>
        <time>2021-08-11T13:04:03.275Z</time>
      </trkpt>
      <trkpt lat="46.87901" lon="8.48215">
        <ele>1874</ele>
        <time>2021-08-11T13:04:04.276Z</time>
      </trkpt>
      <trkpt lat="46.87901" lon="8.48214">
        <ele>1874</ele>
        <time>2021-08-11T13:04:05.276Z</time>
      </trkpt>
      <trkpt lat="46.87901" lon="8.48213">
        <ele>1874</ele>
        <time>2021-08-11T13:04:06.275Z</time>
      </trkpt>
      <trkpt lat="46.879" lon="8.48212">
        <ele>1875</ele>
        <time>2021-08-11T13:04:07.275Z</time>
      </trkpt>
      <trkpt lat="46.879" lon="8.48211">
        <ele>1875</ele>
        <time>2021-08-11T13:04:08.275Z</time>
      </trkpt>
      <trkpt lat="46.87899" lon="8.48209">
        <ele>1875</ele>
        <time>2021-08-11T13:04:09.276Z</time>
      </trkpt>
      <trkpt lat="46.87899" lon="8.48208">
        <ele>1875</ele>
        <time>2021-08-11T13:04:10.275Z</time>
      </trkpt>
      <trkpt lat="46.87898" lon="8.48207">
        <ele>1875</ele>
        <time>2021-08-11T13:04:11.276Z</time>
      </trkpt>
      <trkpt lat="46.87898" lon="8.48206">
        <ele>1876</ele>
        <time>2021-08-11T13:04:12.276Z</time>
      </trkpt>
      <trkpt lat="46.87898" lon="8.48205">
        <ele>1876</ele>
        <time>2021-08-11T13:04:13.275Z</time>
      </trkpt>
      <trkpt lat="46.87897" lon="8.48204">
        <ele>1877</ele>
        <time>2021-08-11T13:04:14.276Z</time>
      </trkpt>
      <trkpt lat="46.87897" lon="8.48203">
        <ele>1877</ele>
        <time>2021-08-11T13:04:15.275Z</time>
      </trkpt>
      <trkpt lat="46.87898" lon="8.48202">
        <ele>1878</ele>
        <time>2021-08-11T13:04:16.276Z</time>
      </trkpt>
      <trkpt lat="46.87897" lon="8.48201">
        <ele>1878</ele>
        <time>2021-08-11T13:04:17.276Z</time>
      </trkpt>
      <trkpt lat="46.87898" lon="8.482">
        <ele>1878</ele>
        <time>2021-08-11T13:04:18.276Z</time>
      </trkpt>
      <trkpt lat="46.87898" lon="8.48199">
        <ele>1878</ele>
        <time>2021-08-11T13:04:19.276Z</time>
      </trkpt>
      <trkpt lat="46.87897" lon="8.48198">
        <ele>1878</ele>
        <time>2021-08-11T13:04:20.276Z</time>
      </trkpt>
      <trkpt lat="46.87897" lon="8.48197">
        <ele>1878</ele>
        <time>2021-08-11T13:04:21.276Z</time>
      </trkpt>
      <trkpt lat="46.87896" lon="8.48197">
        <ele>1878</ele>
        <time>2021-08-11T13:04:22.275Z</time>
      </trkpt>
      <trkpt lat="46.87896" lon="8.48196">
        <ele>1878</ele>
        <time>2021-08-11T13:04:23.275Z</time>
      </trkpt>
      <trkpt lat="46.87896" lon="8.48196">
        <ele>1878</ele>
        <time>2021-08-11T13:04:24.276Z</time>
      </trkpt>
      <trkpt lat="46.87896" lon="8.48195">
        <ele>1878</ele>
        <time>2021-08-11T13:04:25.276Z</time>
      </trkpt>
      <trkpt lat="46.87896" lon="8.48194">
        <ele>1878</ele>
        <time>2021-08-11T13:04:26.276Z</time>
      </trkpt>
      <trkpt lat="46.87896" lon="8.48194">
        <ele>1878</ele>
        <time>2021-08-11T13:04:27.276Z</time>
      </trkpt>
      <trkpt lat="46.87896" lon="8.48193">
        <ele>1878</ele>
        <time>2021-08-11T13:04:28.275Z</time>
      </trkpt>
      <trkpt lat="46.87896" lon="8.48193">
        <ele>1878</ele>
        <time>2021-08-11T13:04:29.276Z</time>
      </trkpt>
      <trkpt lat="46.87896" lon="8.48193">
        <ele>1879</ele>
        <time>2021-08-11T13:04:30.276Z</time>
      </trkpt>
      <trkpt lat="46.87896" lon="8.48193">
        <ele>1879</ele>
        <time>2021-08-11T13:04:31.276Z</time>
      </trkpt>
      <trkpt lat="46.87896" lon="8.48192">
        <ele>1879</ele>
        <time>2021-08-11T13:04:32.276Z</time>
      </trkpt>
      <trkpt lat="46.87897" lon="8.48192">
        <ele>1879</ele>
        <time>2021-08-11T13:04:33.275Z</time>
      </trkpt>
      <trkpt lat="46.87897" lon="8.48191">
        <ele>1879</ele>
        <time>2021-08-11T13:04:34.275Z</time>
      </trkpt>
      <trkpt lat="46.87897" lon="8.4819">
        <ele>1879</ele>
        <time>2021-08-11T13:04:35.276Z</time>
      </trkpt>
      <trkpt lat="46.87897" lon="8.48189">
        <ele>1880</ele>
        <time>2021-08-11T13:04:36.276Z</time>
      </trkpt>
      <trkpt lat="46.87898" lon="8.48188">
        <ele>1880</ele>
        <time>2021-08-11T13:04:37.276Z</time>
      </trkpt>
      <trkpt lat="46.87898" lon="8.48187">
        <ele>1880</ele>
        <time>2021-08-11T13:04:38.276Z</time>
      </trkpt>
      <trkpt lat="46.87898" lon="8.48186">
        <ele>1880</ele>
        <time>2021-08-11T13:04:39.275Z</time>
      </trkpt>
      <trkpt lat="46.87897" lon="8.48185">
        <ele>1879</ele>
        <time>2021-08-11T13:04:40.276Z</time>
      </trkpt>
      <trkpt lat="46.87897" lon="8.48184">
        <ele>1878</ele>
        <time>2021-08-11T13:04:41.276Z</time>
      </trkpt>
      <trkpt lat="46.87897" lon="8.48183">
        <ele>1877</ele>
        <time>2021-08-11T13:04:42.276Z</time>
      </trkpt>
      <trkpt lat="46.87898" lon="8.48182">
        <ele>1877</ele>
        <time>2021-08-11T13:04:43.275Z</time>
      </trkpt>
      <trkpt lat="46.87898" lon="8.48181">
        <ele>1876</ele>
        <time>2021-08-11T13:04:44.276Z</time>
      </trkpt>
      <trkpt lat="46.87898" lon="8.4818">
        <ele>1876</ele>
        <time>2021-08-11T13:04:45.276Z</time>
      </trkpt>
      <trkpt lat="46.87897" lon="8.4818">
        <ele>1875</ele>
        <time>2021-08-11T13:04:46.275Z</time>
      </trkpt>
      <trkpt lat="46.87897" lon="8.4818">
        <ele>1875</ele>
        <time>2021-08-11T13:04:47.275Z</time>
      </trkpt>
      <trkpt lat="46.87896" lon="8.48179">
        <ele>1875</ele>
        <time>2021-08-11T13:04:48.276Z</time>
      </trkpt>
      <trkpt lat="46.87896" lon="8.48178">
        <ele>1875</ele>
        <time>2021-08-11T13:04:49.275Z</time>
      </trkpt>
      <trkpt lat="46.87896" lon="8.48177">
        <ele>1875</ele>
        <time>2021-08-11T13:04:50.276Z</time>
      </trkpt>
      <trkpt lat="46.87895" lon="8.48176">
        <ele>1875</ele>
        <time>2021-08-11T13:04:51.276Z</time>
      </trkpt>
      <trkpt lat="46.87894" lon="8.48175">
        <ele>1875</ele>
        <time>2021-08-11T13:04:52.276Z</time>
      </trkpt>
      <trkpt lat="46.87893" lon="8.48174">
        <ele>1876</ele>
        <time>2021-08-11T13:04:53.276Z</time>
      </trkpt>
      <trkpt lat="46.87893" lon="8.48173">
        <ele>1876</ele>
        <time>2021-08-11T13:04:54.275Z</time>
      </trkpt>
      <trkpt lat="46.87893" lon="8.48172">
        <ele>1876</ele>
        <time>2021-08-11T13:04:55.275Z</time>
      </trkpt>
      <trkpt lat="46.87893" lon="8.48171">
        <ele>1876</ele>
        <time>2021-08-11T13:04:56.276Z</time>
      </trkpt>
      <trkpt lat="46.87893" lon="8.4817">
        <ele>1876</ele>
        <time>2021-08-11T13:04:57.276Z</time>
      </trkpt>
      <trkpt lat="46.87892" lon="8.48169">
        <ele>1876</ele>
        <time>2021-08-11T13:04:58.276Z</time>
      </trkpt>
      <trkpt lat="46.87892" lon="8.48168">
        <ele>1876</ele>
        <time>2021-08-11T13:04:59.275Z</time>
      </trkpt>
      <trkpt lat="46.87893" lon="8.48167">
        <ele>1876</ele>
        <time>2021-08-11T13:05:00.275Z</time>
      </trkpt>
      <trkpt lat="46.87893" lon="8.48166">
        <ele>1876</ele>
        <time>2021-08-11T13:05:01.276Z</time>
      </trkpt>
      <trkpt lat="46.87892" lon="8.48165">
        <ele>1876</ele>
        <time>2021-08-11T13:05:02.275Z</time>
      </trkpt>
      <trkpt lat="46.87892" lon="8.48164">
        <ele>1875</ele>
        <time>2021-08-11T13:05:03.276Z</time>
      </trkpt>
      <trkpt lat="46.87891" lon="8.48163">
        <ele>1875</ele>
        <time>2021-08-11T13:05:04.276Z</time>
      </trkpt>
      <trkpt lat="46.87891" lon="8.48163">
        <ele>1875</ele>
        <time>2021-08-11T13:05:05.276Z</time>
      </trkpt>
      <trkpt lat="46.87891" lon="8.48162">
        <ele>1875</ele>
        <time>2021-08-11T13:05:06.276Z</time>
      </trkpt>
      <trkpt lat="46.87891" lon="8.48161">
        <ele>1876</ele>
        <time>2021-08-11T13:05:07.275Z</time>
      </trkpt>
      <trkpt lat="46.87891" lon="8.4816">
        <ele>1876</ele>
        <time>2021-08-11T13:05:08.275Z</time>
      </trkpt>
      <trkpt lat="46.87891" lon="8.48159">
        <ele>1877</ele>
        <time>2021-08-11T13:05:09.276Z</time>
      </trkpt>
      <trkpt lat="46.87891" lon="8.48158">
        <ele>1877</ele>
        <time>2021-08-11T13:05:10.276Z</time>
      </trkpt>
      <trkpt lat="46.87891" lon="8.48157">
        <ele>1877</ele>
        <time>2021-08-11T13:05:11.276Z</time>
      </trkpt>
      <trkpt lat="46.87891" lon="8.48156">
        <ele>1877</ele>
        <time>2021-08-11T13:05:12.276Z</time>
      </trkpt>
      <trkpt lat="46.87891" lon="8.48155">
        <ele>1878</ele>
        <time>2021-08-11T13:05:13.275Z</time>
      </trkpt>
      <trkpt lat="46.87892" lon="8.48153">
        <ele>1878</ele>
        <time>2021-08-11T13:05:14.276Z</time>
      </trkpt>
      <trkpt lat="46.87892" lon="8.48153">
        <ele>1878</ele>
        <time>2021-08-11T13:05:15.275Z</time>
      </trkpt>
      <trkpt lat="46.87892" lon="8.48152">
        <ele>1879</ele>
        <time>2021-08-11T13:05:16.275Z</time>
      </trkpt>
      <trkpt lat="46.87892" lon="8.48151">
        <ele>1879</ele>
        <time>2021-08-11T13:05:17.276Z</time>
      </trkpt>
      <trkpt lat="46.87892" lon="8.48149">
        <ele>1879</ele>
        <time>2021-08-11T13:05:18.276Z</time>
      </trkpt>
      <trkpt lat="46.87892" lon="8.48148">
        <ele>1879</ele>
        <time>2021-08-11T13:05:19.276Z</time>
      </trkpt>
      <trkpt lat="46.87892" lon="8.48147">
        <ele>1879</ele>
        <time>2021-08-11T13:05:20.276Z</time>
      </trkpt>
      <trkpt lat="46.87892" lon="8.48146">
        <ele>1880</ele>
        <time>2021-08-11T13:05:21.275Z</time>
      </trkpt>
      <trkpt lat="46.87892" lon="8.48145">
        <ele>1881</ele>
        <time>2021-08-11T13:05:22.276Z</time>
      </trkpt>
      <trkpt lat="46.87892" lon="8.48145">
        <ele>1881</ele>
        <time>2021-08-11T13:05:23.276Z</time>
      </trkpt>
      <trkpt lat="46.87892" lon="8.48143">
        <ele>1881</ele>
        <time>2021-08-11T13:05:24.275Z</time>
      </trkpt>
      <trkpt lat="46.87892" lon="8.48142">
        <ele>1882</ele>
        <time>2021-08-11T13:05:25.276Z</time>
      </trkpt>
      <trkpt lat="46.87892" lon="8.48141">
        <ele>1882</ele>
        <time>2021-08-11T13:05:26.276Z</time>
      </trkpt>
      <trkpt lat="46.87892" lon="8.4814">
        <ele>1882</ele>
        <time>2021-08-11T13:05:27.276Z</time>
      </trkpt>
      <trkpt lat="46.87892" lon="8.48139">
        <ele>1882</ele>
        <time>2021-08-11T13:05:28.276Z</time>
      </trkpt>
      <trkpt lat="46.87892" lon="8.48138">
        <ele>1882</ele>
        <time>2021-08-11T13:05:29.276Z</time>
      </trkpt>
      <trkpt lat="46.87892" lon="8.48137">
        <ele>1882</ele>
        <time>2021-08-11T13:05:30.275Z</time>
      </trkpt>
      <trkpt lat="46.87892" lon="8.48137">
        <ele>1882</ele>
        <time>2021-08-11T13:05:31.276Z</time>
      </trkpt>
      <trkpt lat="46.87891" lon="8.48135">
        <ele>1882</ele>
        <time>2021-08-11T13:05:32.276Z</time>
      </trkpt>
      <trkpt lat="46.87891" lon="8.48134">
        <ele>1882</ele>
        <time>2021-08-11T13:05:33.276Z</time>
      </trkpt>
      <trkpt lat="46.87891" lon="8.48133">
        <ele>1881</ele>
        <time>2021-08-11T13:05:34.275Z</time>
      </trkpt>
      <trkpt lat="46.87892" lon="8.48132">
        <ele>1881</ele>
        <time>2021-08-11T13:05:35.275Z</time>
      </trkpt>
      <trkpt lat="46.87892" lon="8.4813">
        <ele>1881</ele>
        <time>2021-08-11T13:05:36.276Z</time>
      </trkpt>
      <trkpt lat="46.87893" lon="8.48129">
        <ele>1881</ele>
        <time>2021-08-11T13:05:37.275Z</time>
      </trkpt>
      <trkpt lat="46.87894" lon="8.48128">
        <ele>1881</ele>
        <time>2021-08-11T13:05:38.275Z</time>
      </trkpt>
      <trkpt lat="46.87894" lon="8.48127">
        <ele>1881</ele>
        <time>2021-08-11T13:05:39.276Z</time>
      </trkpt>
      <trkpt lat="46.87895" lon="8.48126">
        <ele>1881</ele>
        <time>2021-08-11T13:05:40.275Z</time>
      </trkpt>
      <trkpt lat="46.87895" lon="8.48124">
        <ele>1882</ele>
        <time>2021-08-11T13:05:41.275Z</time>
      </trkpt>
      <trkpt lat="46.87896" lon="8.48123">
        <ele>1882</ele>
        <time>2021-08-11T13:05:42.276Z</time>
      </trkpt>
      <trkpt lat="46.87896" lon="8.48122">
        <ele>1882</ele>
        <time>2021-08-11T13:05:43.275Z</time>
      </trkpt>
      <trkpt lat="46.87896" lon="8.48121">
        <ele>1883</ele>
        <time>2021-08-11T13:05:44.275Z</time>
      </trkpt>
      <trkpt lat="46.87896" lon="8.4812">
        <ele>1883</ele>
        <time>2021-08-11T13:05:45.275Z</time>
      </trkpt>
      <trkpt lat="46.87896" lon="8.4812">
        <ele>1884</ele>
        <time>2021-08-11T13:05:46.276Z</time>
      </trkpt>
      <trkpt lat="46.87896" lon="8.48119">
        <ele>1884</ele>
        <time>2021-08-11T13:05:47.276Z</time>
      </trkpt>
      <trkpt lat="46.87895" lon="8.48118">
        <ele>1884</ele>
        <time>2021-08-11T13:05:48.276Z</time>
      </trkpt>
      <trkpt lat="46.87895" lon="8.48118">
        <ele>1884</ele>
        <time>2021-08-11T13:05:49.275Z</time>
      </trkpt>
      <trkpt lat="46.87895" lon="8.48117">
        <ele>1884</ele>
        <time>2021-08-11T13:05:50.276Z</time>
      </trkpt>
      <trkpt lat="46.87894" lon="8.48117">
        <ele>1884</ele>
        <time>2021-08-11T13:05:51.276Z</time>
      </trkpt>
      <trkpt lat="46.87895" lon="8.48115">
        <ele>1884</ele>
        <time>2021-08-11T13:05:52.276Z</time>
      </trkpt>
      <trkpt lat="46.87895" lon="8.48114">
        <ele>1884</ele>
        <time>2021-08-11T13:05:53.276Z</time>
      </trkpt>
      <trkpt lat="46.87894" lon="8.48113">
        <ele>1884</ele>
        <time>2021-08-11T13:05:54.276Z</time>
      </trkpt>
      <trkpt lat="46.87895" lon="8.48112">
        <ele>1884</ele>
        <time>2021-08-11T13:05:55.276Z</time>
      </trkpt>
      <trkpt lat="46.87895" lon="8.48111">
        <ele>1885</ele>
        <time>2021-08-11T13:05:56.276Z</time>
      </trkpt>
      <trkpt lat="46.87895" lon="8.4811">
        <ele>1885</ele>
        <time>2021-08-11T13:05:57.276Z</time>
      </trkpt>
      <trkpt lat="46.87895" lon="8.48108">
        <ele>1885</ele>
        <time>2021-08-11T13:05:58.276Z</time>
      </trkpt>
      <trkpt lat="46.87895" lon="8.48108">
        <ele>1885</ele>
        <time>2021-08-11T13:05:59.276Z</time>
      </trkpt>
      <trkpt lat="46.87895" lon="8.48107">
        <ele>1885</ele>
        <time>2021-08-11T13:06:00.276Z</time>
      </trkpt>
      <trkpt lat="46.87895" lon="8.48106">
        <ele>1885</ele>
        <time>2021-08-11T13:06:01.275Z</time>
      </trkpt>
      <trkpt lat="46.87894" lon="8.48105">
        <ele>1885</ele>
        <time>2021-08-11T13:06:02.275Z</time>
      </trkpt>
      <trkpt lat="46.87893" lon="8.48105">
        <ele>1886</ele>
        <time>2021-08-11T13:06:03.275Z</time>
      </trkpt>
      <trkpt lat="46.87893" lon="8.48104">
        <ele>1886</ele>
        <time>2021-08-11T13:06:04.275Z</time>
      </trkpt>
      <trkpt lat="46.87893" lon="8.48104">
        <ele>1886</ele>
        <time>2021-08-11T13:06:05.276Z</time>
      </trkpt>
      <trkpt lat="46.87894" lon="8.48103">
        <ele>1886</ele>
        <time>2021-08-11T13:06:06.276Z</time>
      </trkpt>
      <trkpt lat="46.87894" lon="8.48102">
        <ele>1886</ele>
        <time>2021-08-11T13:06:07.276Z</time>
      </trkpt>
      <trkpt lat="46.87895" lon="8.48101">
        <ele>1886</ele>
        <time>2021-08-11T13:06:08.275Z</time>
      </trkpt>
      <trkpt lat="46.87895" lon="8.48101">
        <ele>1886</ele>
        <time>2021-08-11T13:06:09.276Z</time>
      </trkpt>
      <trkpt lat="46.87895" lon="8.48101">
        <ele>1886</ele>
        <time>2021-08-11T13:06:10.275Z</time>
      </trkpt>
      <trkpt lat="46.87895" lon="8.481">
        <ele>1885</ele>
        <time>2021-08-11T13:06:11.276Z</time>
      </trkpt>
      <trkpt lat="46.87896" lon="8.481">
        <ele>1885</ele>
        <time>2021-08-11T13:06:12.275Z</time>
      </trkpt>
      <trkpt lat="46.87896" lon="8.481">
        <ele>1885</ele>
        <time>2021-08-11T13:06:13.276Z</time>
      </trkpt>
      <trkpt lat="46.87896" lon="8.481">
        <ele>1885</ele>
        <time>2021-08-11T13:06:14.275Z</time>
      </trkpt>
      <trkpt lat="46.87896" lon="8.48101">
        <ele>1884</ele>
        <time>2021-08-11T13:06:15.277Z</time>
      </trkpt>
      <trkpt lat="46.87895" lon="8.48101">
        <ele>1885</ele>
        <time>2021-08-11T13:06:16.277Z</time>
      </trkpt>
      <trkpt lat="46.87895" lon="8.48101">
        <ele>1885</ele>
        <time>2021-08-11T13:06:17.276Z</time>
      </trkpt>
      <trkpt lat="46.87894" lon="8.48101">
        <ele>1886</ele>
        <time>2021-08-11T13:06:18.279Z</time>
      </trkpt>
      <trkpt lat="46.87894" lon="8.481">
        <ele>1887</ele>
        <time>2021-08-11T13:06:19.278Z</time>
      </trkpt>
      <trkpt lat="46.87894" lon="8.481">
        <ele>1887</ele>
        <time>2021-08-11T13:06:20.278Z</time>
      </trkpt>
      <trkpt lat="46.87894" lon="8.481">
        <ele>1887</ele>
        <time>2021-08-11T13:06:21.278Z</time>
      </trkpt>
      <trkpt lat="46.87893" lon="8.481">
        <ele>1888</ele>
        <time>2021-08-11T13:06:22.278Z</time>
      </trkpt>
      <trkpt lat="46.8789" lon="8.48099">
        <ele>1887</ele>
        <time>2021-08-11T13:06:23.279Z</time>
      </trkpt>
      <trkpt lat="46.87891" lon="8.48103">
        <ele>1891</ele>
        <time>2021-08-11T13:06:24.279Z</time>
      </trkpt>
      <trkpt lat="46.87891" lon="8.48103">
        <ele>1891</ele>
        <time>2021-08-11T13:06:25.279Z</time>
      </trkpt>
      <trkpt lat="46.87892" lon="8.48104">
        <ele>1891</ele>
        <time>2021-08-11T13:06:26.279Z</time>
      </trkpt>
      <trkpt lat="46.87892" lon="8.48104">
        <ele>1891</ele>
        <time>2021-08-11T13:06:27.279Z</time>
      </trkpt>
      <trkpt lat="46.87891" lon="8.48104">
        <ele>1891</ele>
        <time>2021-08-11T13:06:28.278Z</time>
      </trkpt>
      <trkpt lat="46.8789" lon="8.48105">
        <ele>1891</ele>
        <time>2021-08-11T13:06:29.279Z</time>
      </trkpt>
      <trkpt lat="46.87889" lon="8.48106">
        <ele>1890</ele>
        <time>2021-08-11T13:06:30.278Z</time>
      </trkpt>
      <trkpt lat="46.87889" lon="8.48106">
        <ele>1890</ele>
        <time>2021-08-11T13:06:31.278Z</time>
      </trkpt>
      <trkpt lat="46.87889" lon="8.48105">
        <ele>1890</ele>
        <time>2021-08-11T13:06:32.278Z</time>
      </trkpt>
      <trkpt lat="46.87889" lon="8.48102">
        <ele>1893</ele>
        <time>2021-08-11T13:06:33.279Z</time>
      </trkpt>
      <trkpt lat="46.8789" lon="8.48101">
        <ele>1893</ele>
        <time>2021-08-11T13:06:34.280Z</time>
      </trkpt>
      <trkpt lat="46.8789" lon="8.48099">
        <ele>1893</ele>
        <time>2021-08-11T13:06:35.280Z</time>
      </trkpt>
      <trkpt lat="46.87889" lon="8.48098">
        <ele>1893</ele>
        <time>2021-08-11T13:06:36.279Z</time>
      </trkpt>
      <trkpt lat="46.87889" lon="8.48097">
        <ele>1893</ele>
        <time>2021-08-11T13:06:37.280Z</time>
      </trkpt>
      <trkpt lat="46.87888" lon="8.48097">
        <ele>1893</ele>
        <time>2021-08-11T13:06:38.280Z</time>
      </trkpt>
      <trkpt lat="46.87888" lon="8.48097">
        <ele>1893</ele>
        <time>2021-08-11T13:06:39.280Z</time>
      </trkpt>
      <trkpt lat="46.87887" lon="8.48097">
        <ele>1893</ele>
        <time>2021-08-11T13:06:40.279Z</time>
      </trkpt>
      <trkpt lat="46.87887" lon="8.48096">
        <ele>1893</ele>
        <time>2021-08-11T13:06:41.279Z</time>
      </trkpt>
      <trkpt lat="46.87887" lon="8.48096">
        <ele>1894</ele>
        <time>2021-08-11T13:06:42.280Z</time>
      </trkpt>
      <trkpt lat="46.87887" lon="8.48095">
        <ele>1894</ele>
        <time>2021-08-11T13:06:44.244Z</time>
      </trkpt>
      <trkpt lat="46.87887" lon="8.48095">
        <ele>1895</ele>
        <time>2021-08-11T13:06:45.245Z</time>
      </trkpt>
      <trkpt lat="46.87887" lon="8.48094">
        <ele>1895</ele>
        <time>2021-08-11T13:06:46.244Z</time>
      </trkpt>
      <trkpt lat="46.87887" lon="8.48093">
        <ele>1895</ele>
        <time>2021-08-11T13:06:47.245Z</time>
      </trkpt>
      <trkpt lat="46.87887" lon="8.48092">
        <ele>1895</ele>
        <time>2021-08-11T13:06:48.245Z</time>
      </trkpt>
      <trkpt lat="46.87887" lon="8.48091">
        <ele>1896</ele>
        <time>2021-08-11T13:06:49.244Z</time>
      </trkpt>
      <trkpt lat="46.87887" lon="8.4809">
        <ele>1896</ele>
        <time>2021-08-11T13:06:50.244Z</time>
      </trkpt>
      <trkpt lat="46.87888" lon="8.48089">
        <ele>1896</ele>
        <time>2021-08-11T13:06:51.244Z</time>
      </trkpt>
      <trkpt lat="46.87888" lon="8.48088">
        <ele>1897</ele>
        <time>2021-08-11T13:06:52.244Z</time>
      </trkpt>
      <trkpt lat="46.87889" lon="8.48087">
        <ele>1897</ele>
        <time>2021-08-11T13:06:57.272Z</time>
      </trkpt>
      <trkpt lat="46.87889" lon="8.48087">
        <ele>1897</ele>
        <time>2021-08-11T13:06:58.272Z</time>
      </trkpt>
      <trkpt lat="46.8789" lon="8.48086">
        <ele>1897</ele>
        <time>2021-08-11T13:06:59.271Z</time>
      </trkpt>
      <trkpt lat="46.87891" lon="8.48085">
        <ele>1897</ele>
        <time>2021-08-11T13:07:00.271Z</time>
      </trkpt>
      <trkpt lat="46.87891" lon="8.48085">
        <ele>1897</ele>
        <time>2021-08-11T13:07:01.272Z</time>
      </trkpt>
      <trkpt lat="46.87892" lon="8.48084">
        <ele>1897</ele>
        <time>2021-08-11T13:07:02.272Z</time>
      </trkpt>
      <trkpt lat="46.87891" lon="8.48084">
        <ele>1897</ele>
        <time>2021-08-11T13:07:03.272Z</time>
      </trkpt>
      <trkpt lat="46.87892" lon="8.48083">
        <ele>1897</ele>
        <time>2021-08-11T13:07:21.428Z</time>
      </trkpt>
      <trkpt lat="46.87892" lon="8.48082">
        <ele>1896</ele>
        <time>2021-08-11T13:07:22.427Z</time>
      </trkpt>
      <trkpt lat="46.87892" lon="8.48081">
        <ele>1896</ele>
        <time>2021-08-11T13:07:23.428Z</time>
      </trkpt>
      <trkpt lat="46.87893" lon="8.48081">
        <ele>1895</ele>
        <time>2021-08-11T13:07:27.534Z</time>
      </trkpt>
      <trkpt lat="46.87892" lon="8.4808">
        <ele>1895</ele>
        <time>2021-08-11T13:07:28.534Z</time>
      </trkpt>
      <trkpt lat="46.87893" lon="8.48079">
        <ele>1895</ele>
        <time>2021-08-11T13:07:29.534Z</time>
      </trkpt>
      <trkpt lat="46.87893" lon="8.48078">
        <ele>1895</ele>
        <time>2021-08-11T13:07:30.533Z</time>
      </trkpt>
      <trkpt lat="46.87894" lon="8.48078">
        <ele>1895</ele>
        <time>2021-08-11T13:07:36.531Z</time>
      </trkpt>
      <trkpt lat="46.87893" lon="8.48078">
        <ele>1895</ele>
        <time>2021-08-11T13:07:37.532Z</time>
      </trkpt>
      <trkpt lat="46.87892" lon="8.48077">
        <ele>1894</ele>
        <time>2021-08-11T13:07:38.531Z</time>
      </trkpt>
      <trkpt lat="46.87892" lon="8.48076">
        <ele>1894</ele>
        <time>2021-08-11T13:08:00.505Z</time>
      </trkpt>
      <trkpt lat="46.87891" lon="8.48075">
        <ele>1894</ele>
        <time>2021-08-11T13:08:01.504Z</time>
      </trkpt>
      <trkpt lat="46.87891" lon="8.48074">
        <ele>1894</ele>
        <time>2021-08-11T13:08:10.256Z</time>
      </trkpt>
      <trkpt lat="46.87891" lon="8.48073">
        <ele>1894</ele>
        <time>2021-08-11T13:08:11.256Z</time>
      </trkpt>
      <trkpt lat="46.87892" lon="8.48073">
        <ele>1893</ele>
        <time>2021-08-11T13:08:12.255Z</time>
      </trkpt>
      <trkpt lat="46.87892" lon="8.48072">
        <ele>1893</ele>
        <time>2021-08-11T13:08:13.256Z</time>
      </trkpt>
      <trkpt lat="46.87892" lon="8.48071">
        <ele>1893</ele>
        <time>2021-08-11T13:08:14.255Z</time>
      </trkpt>
      <trkpt lat="46.87892" lon="8.4807">
        <ele>1893</ele>
        <time>2021-08-11T13:08:15.256Z</time>
      </trkpt>
      <trkpt lat="46.87892" lon="8.48069">
        <ele>1892</ele>
        <time>2021-08-11T13:08:16.256Z</time>
      </trkpt>
      <trkpt lat="46.87892" lon="8.48068">
        <ele>1892</ele>
        <time>2021-08-11T13:08:17.256Z</time>
      </trkpt>
      <trkpt lat="46.87892" lon="8.48068">
        <ele>1893</ele>
        <time>2021-08-11T13:08:18.255Z</time>
      </trkpt>
      <trkpt lat="46.87892" lon="8.48067">
        <ele>1893</ele>
        <time>2021-08-11T13:08:19.256Z</time>
      </trkpt>
      <trkpt lat="46.87892" lon="8.48066">
        <ele>1893</ele>
        <time>2021-08-11T13:08:20.256Z</time>
      </trkpt>
      <trkpt lat="46.87891" lon="8.48066">
        <ele>1894</ele>
        <time>2021-08-11T13:08:21.256Z</time>
      </trkpt>
      <trkpt lat="46.87891" lon="8.48065">
        <ele>1894</ele>
        <time>2021-08-11T13:08:22.256Z</time>
      </trkpt>
      <trkpt lat="46.87891" lon="8.48064">
        <ele>1894</ele>
        <time>2021-08-11T13:08:23.256Z</time>
      </trkpt>
      <trkpt lat="46.87891" lon="8.48064">
        <ele>1895</ele>
        <time>2021-08-11T13:08:24.256Z</time>
      </trkpt>
      <trkpt lat="46.87891" lon="8.48062">
        <ele>1895</ele>
        <time>2021-08-11T13:08:25.255Z</time>
      </trkpt>
      <trkpt lat="46.87891" lon="8.48061">
        <ele>1895</ele>
        <time>2021-08-11T13:08:26.256Z</time>
      </trkpt>
      <trkpt lat="46.8789" lon="8.48061">
        <ele>1894</ele>
        <time>2021-08-11T13:08:27.256Z</time>
      </trkpt>
      <trkpt lat="46.87889" lon="8.4806">
        <ele>1894</ele>
        <time>2021-08-11T13:08:28.255Z</time>
      </trkpt>
      <trkpt lat="46.87888" lon="8.48059">
        <ele>1894</ele>
        <time>2021-08-11T13:08:29.256Z</time>
      </trkpt>
      <trkpt lat="46.87887" lon="8.48059">
        <ele>1894</ele>
        <time>2021-08-11T13:08:30.256Z</time>
      </trkpt>
      <trkpt lat="46.87887" lon="8.48058">
        <ele>1894</ele>
        <time>2021-08-11T13:08:31.256Z</time>
      </trkpt>
      <trkpt lat="46.87887" lon="8.48056">
        <ele>1894</ele>
        <time>2021-08-11T13:08:32.255Z</time>
      </trkpt>
      <trkpt lat="46.87887" lon="8.48056">
        <ele>1894</ele>
        <time>2021-08-11T13:08:33.256Z</time>
      </trkpt>
      <trkpt lat="46.87886" lon="8.48055">
        <ele>1893</ele>
        <time>2021-08-11T13:08:34.256Z</time>
      </trkpt>
      <trkpt lat="46.87886" lon="8.48055">
        <ele>1893</ele>
        <time>2021-08-11T13:08:35.256Z</time>
      </trkpt>
      <trkpt lat="46.87886" lon="8.48054">
        <ele>1893</ele>
        <time>2021-08-11T13:08:36.256Z</time>
      </trkpt>
      <trkpt lat="46.87885" lon="8.48053">
        <ele>1893</ele>
        <time>2021-08-11T13:08:37.255Z</time>
      </trkpt>
      <trkpt lat="46.87885" lon="8.48053">
        <ele>1893</ele>
        <time>2021-08-11T13:08:41.275Z</time>
      </trkpt>
      <trkpt lat="46.87885" lon="8.48052">
        <ele>1893</ele>
        <time>2021-08-11T13:08:42.275Z</time>
      </trkpt>
      <trkpt lat="46.87885" lon="8.48051">
        <ele>1893</ele>
        <time>2021-08-11T13:08:43.276Z</time>
      </trkpt>
      <trkpt lat="46.87885" lon="8.48051">
        <ele>1893</ele>
        <time>2021-08-11T13:08:44.275Z</time>
      </trkpt>
      <trkpt lat="46.87885" lon="8.48051">
        <ele>1894</ele>
        <time>2021-08-11T13:08:45.276Z</time>
      </trkpt>
      <trkpt lat="46.87885" lon="8.4805">
        <ele>1893</ele>
        <time>2021-08-11T13:08:46.276Z</time>
      </trkpt>
      <trkpt lat="46.87885" lon="8.4805">
        <ele>1893</ele>
        <time>2021-08-11T13:08:47.276Z</time>
      </trkpt>
      <trkpt lat="46.87885" lon="8.48049">
        <ele>1893</ele>
        <time>2021-08-11T13:08:48.275Z</time>
      </trkpt>
      <trkpt lat="46.87885" lon="8.48049">
        <ele>1893</ele>
        <time>2021-08-11T13:08:49.275Z</time>
      </trkpt>
      <trkpt lat="46.87885" lon="8.48048">
        <ele>1892</ele>
        <time>2021-08-11T13:08:50.275Z</time>
      </trkpt>
      <trkpt lat="46.87884" lon="8.48047">
        <ele>1892</ele>
        <time>2021-08-11T13:08:51.275Z</time>
      </trkpt>
      <trkpt lat="46.87884" lon="8.48046">
        <ele>1891</ele>
        <time>2021-08-11T13:08:52.276Z</time>
      </trkpt>
      <trkpt lat="46.87883" lon="8.48046">
        <ele>1891</ele>
        <time>2021-08-11T13:08:53.276Z</time>
      </trkpt>
      <trkpt lat="46.87883" lon="8.48045">
        <ele>1891</ele>
        <time>2021-08-11T13:08:54.276Z</time>
      </trkpt>
      <trkpt lat="46.87882" lon="8.48044">
        <ele>1891</ele>
        <time>2021-08-11T13:08:55.275Z</time>
      </trkpt>
      <trkpt lat="46.87882" lon="8.48043">
        <ele>1891</ele>
        <time>2021-08-11T13:08:56.276Z</time>
      </trkpt>
      <trkpt lat="46.87881" lon="8.48042">
        <ele>1892</ele>
        <time>2021-08-11T13:08:57.276Z</time>
      </trkpt>
      <trkpt lat="46.87881" lon="8.48041">
        <ele>1893</ele>
        <time>2021-08-11T13:08:58.275Z</time>
      </trkpt>
      <trkpt lat="46.8788" lon="8.48041">
        <ele>1894</ele>
        <time>2021-08-11T13:08:59.276Z</time>
      </trkpt>
      <trkpt lat="46.8788" lon="8.4804">
        <ele>1894</ele>
        <time>2021-08-11T13:09:00.276Z</time>
      </trkpt>
      <trkpt lat="46.87879" lon="8.4804">
        <ele>1895</ele>
        <time>2021-08-11T13:09:01.276Z</time>
      </trkpt>
      <trkpt lat="46.87879" lon="8.48039">
        <ele>1895</ele>
        <time>2021-08-11T13:09:02.275Z</time>
      </trkpt>
      <trkpt lat="46.87879" lon="8.48038">
        <ele>1896</ele>
        <time>2021-08-11T13:09:03.276Z</time>
      </trkpt>
      <trkpt lat="46.87879" lon="8.48037">
        <ele>1896</ele>
        <time>2021-08-11T13:09:04.276Z</time>
      </trkpt>
      <trkpt lat="46.87879" lon="8.48036">
        <ele>1896</ele>
        <time>2021-08-11T13:09:05.275Z</time>
      </trkpt>
      <trkpt lat="46.87879" lon="8.48035">
        <ele>1895</ele>
        <time>2021-08-11T13:09:06.276Z</time>
      </trkpt>
      <trkpt lat="46.87879" lon="8.48034">
        <ele>1894</ele>
        <time>2021-08-11T13:09:07.275Z</time>
      </trkpt>
      <trkpt lat="46.87879" lon="8.48033">
        <ele>1894</ele>
        <time>2021-08-11T13:09:08.275Z</time>
      </trkpt>
      <trkpt lat="46.87878" lon="8.48033">
        <ele>1894</ele>
        <time>2021-08-11T13:09:09.275Z</time>
      </trkpt>
      <trkpt lat="46.87878" lon="8.48032">
        <ele>1893</ele>
        <time>2021-08-11T13:09:10.276Z</time>
      </trkpt>
      <trkpt lat="46.87879" lon="8.48032">
        <ele>1893</ele>
        <time>2021-08-11T13:09:11.276Z</time>
      </trkpt>
      <trkpt lat="46.87879" lon="8.48031">
        <ele>1893</ele>
        <time>2021-08-11T13:09:12.276Z</time>
      </trkpt>
      <trkpt lat="46.87878" lon="8.48033">
        <ele>1894</ele>
        <time>2021-08-11T13:09:13.277Z</time>
      </trkpt>
      <trkpt lat="46.87878" lon="8.48033">
        <ele>1894</ele>
        <time>2021-08-11T13:09:14.277Z</time>
      </trkpt>
      <trkpt lat="46.87875" lon="8.48031">
        <ele>1895</ele>
        <time>2021-08-11T13:09:15.276Z</time>
      </trkpt>
      <trkpt lat="46.87875" lon="8.48031">
        <ele>1895</ele>
        <time>2021-08-11T13:09:16.277Z</time>
      </trkpt>
      <trkpt lat="46.87875" lon="8.4803">
        <ele>1895</ele>
        <time>2021-08-11T13:09:17.276Z</time>
      </trkpt>
      <trkpt lat="46.87874" lon="8.48029">
        <ele>1895</ele>
        <time>2021-08-11T13:09:18.277Z</time>
      </trkpt>
      <trkpt lat="46.87874" lon="8.48029">
        <ele>1896</ele>
        <time>2021-08-11T13:09:19.277Z</time>
      </trkpt>
      <trkpt lat="46.87874" lon="8.48028">
        <ele>1896</ele>
        <time>2021-08-11T13:09:20.277Z</time>
      </trkpt>
      <trkpt lat="46.87873" lon="8.48027">
        <ele>1896</ele>
        <time>2021-08-11T13:09:21.277Z</time>
      </trkpt>
      <trkpt lat="46.87873" lon="8.48025">
        <ele>1896</ele>
        <time>2021-08-11T13:09:22.276Z</time>
      </trkpt>
      <trkpt lat="46.87873" lon="8.48024">
        <ele>1896</ele>
        <time>2021-08-11T13:09:23.276Z</time>
      </trkpt>
      <trkpt lat="46.87873" lon="8.48023">
        <ele>1896</ele>
        <time>2021-08-11T13:09:24.277Z</time>
      </trkpt>
      <trkpt lat="46.87873" lon="8.48022">
        <ele>1896</ele>
        <time>2021-08-11T13:09:25.277Z</time>
      </trkpt>
      <trkpt lat="46.87872" lon="8.48021">
        <ele>1896</ele>
        <time>2021-08-11T13:09:26.277Z</time>
      </trkpt>
      <trkpt lat="46.87872" lon="8.4802">
        <ele>1896</ele>
        <time>2021-08-11T13:09:27.276Z</time>
      </trkpt>
      <trkpt lat="46.87872" lon="8.48019">
        <ele>1895</ele>
        <time>2021-08-11T13:09:28.276Z</time>
      </trkpt>
      <trkpt lat="46.87872" lon="8.48018">
        <ele>1895</ele>
        <time>2021-08-11T13:09:29.277Z</time>
      </trkpt>
      <trkpt lat="46.87871" lon="8.48016">
        <ele>1895</ele>
        <time>2021-08-11T13:09:30.277Z</time>
      </trkpt>
      <trkpt lat="46.87871" lon="8.48015">
        <ele>1896</ele>
        <time>2021-08-11T13:09:31.276Z</time>
      </trkpt>
      <trkpt lat="46.87871" lon="8.48014">
        <ele>1896</ele>
        <time>2021-08-11T13:09:32.277Z</time>
      </trkpt>
      <trkpt lat="46.87871" lon="8.48013">
        <ele>1896</ele>
        <time>2021-08-11T13:09:33.277Z</time>
      </trkpt>
      <trkpt lat="46.87871" lon="8.48012">
        <ele>1896</ele>
        <time>2021-08-11T13:09:34.277Z</time>
      </trkpt>
      <trkpt lat="46.87871" lon="8.48011">
        <ele>1896</ele>
        <time>2021-08-11T13:09:35.276Z</time>
      </trkpt>
      <trkpt lat="46.87871" lon="8.4801">
        <ele>1896</ele>
        <time>2021-08-11T13:09:36.277Z</time>
      </trkpt>
      <trkpt lat="46.8787" lon="8.4801">
        <ele>1897</ele>
        <time>2021-08-11T13:09:37.276Z</time>
      </trkpt>
      <trkpt lat="46.8787" lon="8.48009">
        <ele>1897</ele>
        <time>2021-08-11T13:09:38.276Z</time>
      </trkpt>
      <trkpt lat="46.8787" lon="8.48009">
        <ele>1897</ele>
        <time>2021-08-11T13:09:39.277Z</time>
      </trkpt>
      <trkpt lat="46.8787" lon="8.48008">
        <ele>1897</ele>
        <time>2021-08-11T13:09:40.277Z</time>
      </trkpt>
      <trkpt lat="46.8787" lon="8.48008">
        <ele>1897</ele>
        <time>2021-08-11T13:09:41.277Z</time>
      </trkpt>
      <trkpt lat="46.8787" lon="8.48008">
        <ele>1897</ele>
        <time>2021-08-11T13:09:42.277Z</time>
      </trkpt>
      <trkpt lat="46.87869" lon="8.48007">
        <ele>1896</ele>
        <time>2021-08-11T13:09:43.276Z</time>
      </trkpt>
      <trkpt lat="46.87869" lon="8.48007">
        <ele>1896</ele>
        <time>2021-08-11T13:09:44.277Z</time>
      </trkpt>
      <trkpt lat="46.87868" lon="8.48006">
        <ele>1895</ele>
        <time>2021-08-11T13:09:45.276Z</time>
      </trkpt>
      <trkpt lat="46.87868" lon="8.48006">
        <ele>1895</ele>
        <time>2021-08-11T13:09:46.276Z</time>
      </trkpt>
      <trkpt lat="46.87867" lon="8.48005">
        <ele>1895</ele>
        <time>2021-08-11T13:09:47.276Z</time>
      </trkpt>
      <trkpt lat="46.87866" lon="8.48005">
        <ele>1895</ele>
        <time>2021-08-11T13:09:48.277Z</time>
      </trkpt>
      <trkpt lat="46.87865" lon="8.48004">
        <ele>1894</ele>
        <time>2021-08-11T13:09:49.277Z</time>
      </trkpt>
      <trkpt lat="46.87865" lon="8.48002">
        <ele>1894</ele>
        <time>2021-08-11T13:09:50.277Z</time>
      </trkpt>
      <trkpt lat="46.87865" lon="8.48001">
        <ele>1893</ele>
        <time>2021-08-11T13:09:51.277Z</time>
      </trkpt>
      <trkpt lat="46.87865" lon="8.48">
        <ele>1893</ele>
        <time>2021-08-11T13:09:52.276Z</time>
      </trkpt>
      <trkpt lat="46.87864" lon="8.47999">
        <ele>1893</ele>
        <time>2021-08-11T13:09:53.277Z</time>
      </trkpt>
      <trkpt lat="46.87864" lon="8.47999">
        <ele>1892</ele>
        <time>2021-08-11T13:09:54.277Z</time>
      </trkpt>
      <trkpt lat="46.87864" lon="8.47998">
        <ele>1892</ele>
        <time>2021-08-11T13:09:55.277Z</time>
      </trkpt>
      <trkpt lat="46.87863" lon="8.47997">
        <ele>1892</ele>
        <time>2021-08-11T13:09:56.277Z</time>
      </trkpt>
      <trkpt lat="46.87863" lon="8.47996">
        <ele>1892</ele>
        <time>2021-08-11T13:09:57.277Z</time>
      </trkpt>
      <trkpt lat="46.87862" lon="8.47995">
        <ele>1892</ele>
        <time>2021-08-11T13:09:58.277Z</time>
      </trkpt>
      <trkpt lat="46.87862" lon="8.47995">
        <ele>1892</ele>
        <time>2021-08-11T13:09:59.276Z</time>
      </trkpt>
      <trkpt lat="46.87862" lon="8.47994">
        <ele>1892</ele>
        <time>2021-08-11T13:10:00.276Z</time>
      </trkpt>
      <trkpt lat="46.87862" lon="8.47993">
        <ele>1893</ele>
        <time>2021-08-11T13:10:01.277Z</time>
      </trkpt>
      <trkpt lat="46.87862" lon="8.47992">
        <ele>1893</ele>
        <time>2021-08-11T13:10:02.277Z</time>
      </trkpt>
      <trkpt lat="46.87861" lon="8.47991">
        <ele>1893</ele>
        <time>2021-08-11T13:10:03.277Z</time>
      </trkpt>
      <trkpt lat="46.87861" lon="8.4799">
        <ele>1894</ele>
        <time>2021-08-11T13:10:04.277Z</time>
      </trkpt>
      <trkpt lat="46.87861" lon="8.4799">
        <ele>1894</ele>
        <time>2021-08-11T13:10:05.276Z</time>
      </trkpt>
      <trkpt lat="46.87861" lon="8.47989">
        <ele>1893</ele>
        <time>2021-08-11T13:10:06.277Z</time>
      </trkpt>
      <trkpt lat="46.87861" lon="8.47989">
        <ele>1893</ele>
        <time>2021-08-11T13:10:07.277Z</time>
      </trkpt>
      <trkpt lat="46.8786" lon="8.47989">
        <ele>1893</ele>
        <time>2021-08-11T13:10:08.277Z</time>
      </trkpt>
      <trkpt lat="46.8786" lon="8.47988">
        <ele>1893</ele>
        <time>2021-08-11T13:10:09.277Z</time>
      </trkpt>
      <trkpt lat="46.8786" lon="8.47988">
        <ele>1893</ele>
        <time>2021-08-11T13:10:10.276Z</time>
      </trkpt>
      <trkpt lat="46.8786" lon="8.47987">
        <ele>1892</ele>
        <time>2021-08-11T13:10:11.277Z</time>
      </trkpt>
      <trkpt lat="46.8786" lon="8.47987">
        <ele>1892</ele>
        <time>2021-08-11T13:10:12.277Z</time>
      </trkpt>
      <trkpt lat="46.8786" lon="8.47987">
        <ele>1892</ele>
        <time>2021-08-11T13:10:13.277Z</time>
      </trkpt>
      <trkpt lat="46.87859" lon="8.47986">
        <ele>1892</ele>
        <time>2021-08-11T13:10:14.277Z</time>
      </trkpt>
      <trkpt lat="46.87859" lon="8.47985">
        <ele>1893</ele>
        <time>2021-08-11T13:10:15.277Z</time>
      </trkpt>
      <trkpt lat="46.87858" lon="8.47984">
        <ele>1893</ele>
        <time>2021-08-11T13:10:16.276Z</time>
      </trkpt>
      <trkpt lat="46.87858" lon="8.47984">
        <ele>1893</ele>
        <time>2021-08-11T13:10:17.276Z</time>
      </trkpt>
      <trkpt lat="46.87857" lon="8.47984">
        <ele>1894</ele>
        <time>2021-08-11T13:10:18.277Z</time>
      </trkpt>
      <trkpt lat="46.87857" lon="8.47983">
        <ele>1894</ele>
        <time>2021-08-11T13:10:19.277Z</time>
      </trkpt>
      <trkpt lat="46.87856" lon="8.47983">
        <ele>1894</ele>
        <time>2021-08-11T13:10:20.277Z</time>
      </trkpt>
      <trkpt lat="46.87856" lon="8.47982">
        <ele>1895</ele>
        <time>2021-08-11T13:10:21.277Z</time>
      </trkpt>
      <trkpt lat="46.87856" lon="8.47981">
        <ele>1895</ele>
        <time>2021-08-11T13:10:22.276Z</time>
      </trkpt>
      <trkpt lat="46.87856" lon="8.4798">
        <ele>1895</ele>
        <time>2021-08-11T13:10:23.277Z</time>
      </trkpt>
      <trkpt lat="46.87856" lon="8.4798">
        <ele>1895</ele>
        <time>2021-08-11T13:10:24.277Z</time>
      </trkpt>
      <trkpt lat="46.87856" lon="8.47979">
        <ele>1894</ele>
        <time>2021-08-11T13:10:25.277Z</time>
      </trkpt>
      <trkpt lat="46.87856" lon="8.47978">
        <ele>1894</ele>
        <time>2021-08-11T13:10:26.277Z</time>
      </trkpt>
      <trkpt lat="46.87855" lon="8.47977">
        <ele>1894</ele>
        <time>2021-08-11T13:10:27.277Z</time>
      </trkpt>
      <trkpt lat="46.87855" lon="8.47977">
        <ele>1894</ele>
        <time>2021-08-11T13:10:28.277Z</time>
      </trkpt>
      <trkpt lat="46.87855" lon="8.47976">
        <ele>1893</ele>
        <time>2021-08-11T13:10:29.276Z</time>
      </trkpt>
      <trkpt lat="46.87855" lon="8.47976">
        <ele>1893</ele>
        <time>2021-08-11T13:10:30.276Z</time>
      </trkpt>
      <trkpt lat="46.87855" lon="8.47976">
        <ele>1893</ele>
        <time>2021-08-11T13:10:31.277Z</time>
      </trkpt>
      <trkpt lat="46.87856" lon="8.47976">
        <ele>1893</ele>
        <time>2021-08-11T13:10:32.277Z</time>
      </trkpt>
      <trkpt lat="46.87855" lon="8.47974">
        <ele>1893</ele>
        <time>2021-08-11T13:10:33.277Z</time>
      </trkpt>
      <trkpt lat="46.87855" lon="8.47974">
        <ele>1894</ele>
        <time>2021-08-11T13:10:34.277Z</time>
      </trkpt>
      <trkpt lat="46.87855" lon="8.47973">
        <ele>1894</ele>
        <time>2021-08-11T13:10:35.277Z</time>
      </trkpt>
      <trkpt lat="46.87855" lon="8.47972">
        <ele>1895</ele>
        <time>2021-08-11T13:10:36.278Z</time>
      </trkpt>
      <trkpt lat="46.87855" lon="8.47972">
        <ele>1896</ele>
        <time>2021-08-11T13:10:37.277Z</time>
      </trkpt>
      <trkpt lat="46.87854" lon="8.47971">
        <ele>1896</ele>
        <time>2021-08-11T13:10:38.278Z</time>
      </trkpt>
      <trkpt lat="46.87855" lon="8.4797">
        <ele>1896</ele>
        <time>2021-08-11T13:10:39.278Z</time>
      </trkpt>
      <trkpt lat="46.87855" lon="8.47968">
        <ele>1896</ele>
        <time>2021-08-11T13:10:40.278Z</time>
      </trkpt>
      <trkpt lat="46.87855" lon="8.47967">
        <ele>1896</ele>
        <time>2021-08-11T13:10:41.278Z</time>
      </trkpt>
      <trkpt lat="46.87854" lon="8.47966">
        <ele>1896</ele>
        <time>2021-08-11T13:10:42.277Z</time>
      </trkpt>
      <trkpt lat="46.87853" lon="8.47966">
        <ele>1896</ele>
        <time>2021-08-11T13:10:43.277Z</time>
      </trkpt>
      <trkpt lat="46.87852" lon="8.47965">
        <ele>1896</ele>
        <time>2021-08-11T13:10:44.278Z</time>
      </trkpt>
      <trkpt lat="46.87852" lon="8.47964">
        <ele>1896</ele>
        <time>2021-08-11T13:10:45.278Z</time>
      </trkpt>
      <trkpt lat="46.87852" lon="8.47963">
        <ele>1896</ele>
        <time>2021-08-11T13:10:46.278Z</time>
      </trkpt>
      <trkpt lat="46.87852" lon="8.47963">
        <ele>1895</ele>
        <time>2021-08-11T13:10:47.278Z</time>
      </trkpt>
      <trkpt lat="46.87852" lon="8.47962">
        <ele>1895</ele>
        <time>2021-08-11T13:10:48.277Z</time>
      </trkpt>
      <trkpt lat="46.87852" lon="8.47962">
        <ele>1895</ele>
        <time>2021-08-11T13:10:49.278Z</time>
      </trkpt>
      <trkpt lat="46.87852" lon="8.4796">
        <ele>1895</ele>
        <time>2021-08-11T13:10:50.278Z</time>
      </trkpt>
      <trkpt lat="46.87852" lon="8.4796">
        <ele>1895</ele>
        <time>2021-08-11T13:10:51.278Z</time>
      </trkpt>
      <trkpt lat="46.87852" lon="8.47959">
        <ele>1894</ele>
        <time>2021-08-11T13:10:52.278Z</time>
      </trkpt>
      <trkpt lat="46.87851" lon="8.47958">
        <ele>1893</ele>
        <time>2021-08-11T13:10:53.277Z</time>
      </trkpt>
      <trkpt lat="46.87851" lon="8.47957">
        <ele>1893</ele>
        <time>2021-08-11T13:10:54.278Z</time>
      </trkpt>
      <trkpt lat="46.87851" lon="8.47956">
        <ele>1893</ele>
        <time>2021-08-11T13:10:55.278Z</time>
      </trkpt>
      <trkpt lat="46.87851" lon="8.47955">
        <ele>1892</ele>
        <time>2021-08-11T13:10:56.278Z</time>
      </trkpt>
      <trkpt lat="46.8785" lon="8.47954">
        <ele>1893</ele>
        <time>2021-08-11T13:10:57.278Z</time>
      </trkpt>
      <trkpt lat="46.87849" lon="8.47953">
        <ele>1893</ele>
        <time>2021-08-11T13:10:58.278Z</time>
      </trkpt>
      <trkpt lat="46.87849" lon="8.47953">
        <ele>1893</ele>
        <time>2021-08-11T13:10:59.277Z</time>
      </trkpt>
      <trkpt lat="46.87849" lon="8.47952">
        <ele>1894</ele>
        <time>2021-08-11T13:11:00.278Z</time>
      </trkpt>
      <trkpt lat="46.87848" lon="8.47951">
        <ele>1894</ele>
        <time>2021-08-11T13:11:01.277Z</time>
      </trkpt>
      <trkpt lat="46.87848" lon="8.4795">
        <ele>1895</ele>
        <time>2021-08-11T13:11:02.278Z</time>
      </trkpt>
      <trkpt lat="46.87849" lon="8.47949">
        <ele>1895</ele>
        <time>2021-08-11T13:11:03.278Z</time>
      </trkpt>
      <trkpt lat="46.87849" lon="8.47948">
        <ele>1896</ele>
        <time>2021-08-11T13:11:04.277Z</time>
      </trkpt>
      <trkpt lat="46.87849" lon="8.47948">
        <ele>1896</ele>
        <time>2021-08-11T13:11:05.278Z</time>
      </trkpt>
      <trkpt lat="46.87849" lon="8.47947">
        <ele>1897</ele>
        <time>2021-08-11T13:11:06.278Z</time>
      </trkpt>
      <trkpt lat="46.87849" lon="8.47946">
        <ele>1897</ele>
        <time>2021-08-11T13:11:07.278Z</time>
      </trkpt>
      <trkpt lat="46.87849" lon="8.47945">
        <ele>1897</ele>
        <time>2021-08-11T13:11:08.278Z</time>
      </trkpt>
      <trkpt lat="46.87849" lon="8.47944">
        <ele>1898</ele>
        <time>2021-08-11T13:11:09.278Z</time>
      </trkpt>
      <trkpt lat="46.87849" lon="8.47944">
        <ele>1898</ele>
        <time>2021-08-11T13:11:10.277Z</time>
      </trkpt>
      <trkpt lat="46.87849" lon="8.47944">
        <ele>1899</ele>
        <time>2021-08-11T13:11:11.278Z</time>
      </trkpt>
      <trkpt lat="46.87848" lon="8.47942">
        <ele>1900</ele>
        <time>2021-08-11T13:11:12.279Z</time>
      </trkpt>
      <trkpt lat="46.87848" lon="8.47942">
        <ele>1900</ele>
        <time>2021-08-11T13:11:13.279Z</time>
      </trkpt>
      <trkpt lat="46.87847" lon="8.47942">
        <ele>1900</ele>
        <time>2021-08-11T13:11:14.278Z</time>
      </trkpt>
      <trkpt lat="46.87847" lon="8.47942">
        <ele>1900</ele>
        <time>2021-08-11T13:11:15.279Z</time>
      </trkpt>
      <trkpt lat="46.87846" lon="8.47941">
        <ele>1900</ele>
        <time>2021-08-11T13:11:16.279Z</time>
      </trkpt>
      <trkpt lat="46.87845" lon="8.47941">
        <ele>1900</ele>
        <time>2021-08-11T13:11:17.278Z</time>
      </trkpt>
      <trkpt lat="46.87845" lon="8.4794">
        <ele>1900</ele>
        <time>2021-08-11T13:11:18.278Z</time>
      </trkpt>
      <trkpt lat="46.87844" lon="8.47939">
        <ele>1900</ele>
        <time>2021-08-11T13:11:19.279Z</time>
      </trkpt>
      <trkpt lat="46.87844" lon="8.47938">
        <ele>1900</ele>
        <time>2021-08-11T13:11:20.279Z</time>
      </trkpt>
      <trkpt lat="46.87843" lon="8.47938">
        <ele>1900</ele>
        <time>2021-08-11T13:11:21.278Z</time>
      </trkpt>
      <trkpt lat="46.87843" lon="8.47937">
        <ele>1901</ele>
        <time>2021-08-11T13:11:22.278Z</time>
      </trkpt>
      <trkpt lat="46.87843" lon="8.47937">
        <ele>1901</ele>
        <time>2021-08-11T13:11:23.278Z</time>
      </trkpt>
      <trkpt lat="46.87842" lon="8.47936">
        <ele>1901</ele>
        <time>2021-08-11T13:11:24.278Z</time>
      </trkpt>
      <trkpt lat="46.87842" lon="8.47935">
        <ele>1902</ele>
        <time>2021-08-11T13:11:25.279Z</time>
      </trkpt>
      <trkpt lat="46.87842" lon="8.47935">
        <ele>1902</ele>
        <time>2021-08-11T13:11:26.278Z</time>
      </trkpt>
      <trkpt lat="46.87841" lon="8.47934">
        <ele>1902</ele>
        <time>2021-08-11T13:11:27.279Z</time>
      </trkpt>
      <trkpt lat="46.87841" lon="8.47933">
        <ele>1903</ele>
        <time>2021-08-11T13:11:28.278Z</time>
      </trkpt>
      <trkpt lat="46.87841" lon="8.47932">
        <ele>1903</ele>
        <time>2021-08-11T13:11:29.279Z</time>
      </trkpt>
      <trkpt lat="46.8784" lon="8.47931">
        <ele>1903</ele>
        <time>2021-08-11T13:11:30.279Z</time>
      </trkpt>
      <trkpt lat="46.8784" lon="8.47931">
        <ele>1904</ele>
        <time>2021-08-11T13:11:31.279Z</time>
      </trkpt>
      <trkpt lat="46.8784" lon="8.4793">
        <ele>1904</ele>
        <time>2021-08-11T13:11:32.278Z</time>
      </trkpt>
      <trkpt lat="46.87839" lon="8.47928">
        <ele>1904</ele>
        <time>2021-08-11T13:11:33.279Z</time>
      </trkpt>
      <trkpt lat="46.87839" lon="8.47928">
        <ele>1904</ele>
        <time>2021-08-11T13:11:34.279Z</time>
      </trkpt>
      <trkpt lat="46.87838" lon="8.47926">
        <ele>1905</ele>
        <time>2021-08-11T13:11:35.279Z</time>
      </trkpt>
      <trkpt lat="46.87838" lon="8.47925">
        <ele>1906</ele>
        <time>2021-08-11T13:11:36.279Z</time>
      </trkpt>
      <trkpt lat="46.87837" lon="8.47924">
        <ele>1906</ele>
        <time>2021-08-11T13:11:37.279Z</time>
      </trkpt>
      <trkpt lat="46.87837" lon="8.47924">
        <ele>1907</ele>
        <time>2021-08-11T13:11:38.279Z</time>
      </trkpt>
      <trkpt lat="46.87836" lon="8.47923">
        <ele>1907</ele>
        <time>2021-08-11T13:11:39.278Z</time>
      </trkpt>
      <trkpt lat="46.87836" lon="8.47923">
        <ele>1907</ele>
        <time>2021-08-11T13:11:40.279Z</time>
      </trkpt>
      <trkpt lat="46.87837" lon="8.47923">
        <ele>1907</ele>
        <time>2021-08-11T13:11:41.278Z</time>
      </trkpt>
      <trkpt lat="46.87837" lon="8.47923">
        <ele>1907</ele>
        <time>2021-08-11T13:11:42.278Z</time>
      </trkpt>
      <trkpt lat="46.87839" lon="8.47919">
        <ele>1907</ele>
        <time>2021-08-11T13:11:43.278Z</time>
      </trkpt>
      <trkpt lat="46.87839" lon="8.47919">
        <ele>1908</ele>
        <time>2021-08-11T13:11:44.279Z</time>
      </trkpt>
      <trkpt lat="46.87838" lon="8.47918">
        <ele>1908</ele>
        <time>2021-08-11T13:11:45.278Z</time>
      </trkpt>
      <trkpt lat="46.87838" lon="8.47917">
        <ele>1907</ele>
        <time>2021-08-11T13:11:46.278Z</time>
      </trkpt>
      <trkpt lat="46.87837" lon="8.47916">
        <ele>1907</ele>
        <time>2021-08-11T13:11:47.278Z</time>
      </trkpt>
      <trkpt lat="46.87837" lon="8.47915">
        <ele>1907</ele>
        <time>2021-08-11T13:11:48.278Z</time>
      </trkpt>
      <trkpt lat="46.87836" lon="8.47914">
        <ele>1907</ele>
        <time>2021-08-11T13:11:49.278Z</time>
      </trkpt>
      <trkpt lat="46.87836" lon="8.47913">
        <ele>1907</ele>
        <time>2021-08-11T13:11:50.278Z</time>
      </trkpt>
      <trkpt lat="46.87836" lon="8.47913">
        <ele>1906</ele>
        <time>2021-08-11T13:11:51.278Z</time>
      </trkpt>
      <trkpt lat="46.87836" lon="8.47912">
        <ele>1906</ele>
        <time>2021-08-11T13:11:52.278Z</time>
      </trkpt>
      <trkpt lat="46.87836" lon="8.47911">
        <ele>1906</ele>
        <time>2021-08-11T13:11:53.279Z</time>
      </trkpt>
      <trkpt lat="46.87835" lon="8.4791">
        <ele>1906</ele>
        <time>2021-08-11T13:11:54.279Z</time>
      </trkpt>
      <trkpt lat="46.87836" lon="8.47909">
        <ele>1907</ele>
        <time>2021-08-11T13:11:55.278Z</time>
      </trkpt>
      <trkpt lat="46.87836" lon="8.47908">
        <ele>1907</ele>
        <time>2021-08-11T13:11:56.278Z</time>
      </trkpt>
      <trkpt lat="46.87836" lon="8.47908">
        <ele>1907</ele>
        <time>2021-08-11T13:11:57.279Z</time>
      </trkpt>
      <trkpt lat="46.87836" lon="8.47906">
        <ele>1907</ele>
        <time>2021-08-11T13:11:58.279Z</time>
      </trkpt>
      <trkpt lat="46.87836" lon="8.47905">
        <ele>1907</ele>
        <time>2021-08-11T13:11:59.279Z</time>
      </trkpt>
      <trkpt lat="46.87836" lon="8.47904">
        <ele>1907</ele>
        <time>2021-08-11T13:12:00.279Z</time>
      </trkpt>
      <trkpt lat="46.87836" lon="8.47903">
        <ele>1907</ele>
        <time>2021-08-11T13:12:01.278Z</time>
      </trkpt>
      <trkpt lat="46.87835" lon="8.47902">
        <ele>1907</ele>
        <time>2021-08-11T13:12:02.279Z</time>
      </trkpt>
      <trkpt lat="46.87834" lon="8.47902">
        <ele>1907</ele>
        <time>2021-08-11T13:12:03.279Z</time>
      </trkpt>
      <trkpt lat="46.87834" lon="8.47901">
        <ele>1907</ele>
        <time>2021-08-11T13:12:04.279Z</time>
      </trkpt>
      <trkpt lat="46.87833" lon="8.479">
        <ele>1907</ele>
        <time>2021-08-11T13:12:05.279Z</time>
      </trkpt>
      <trkpt lat="46.87833" lon="8.47899">
        <ele>1907</ele>
        <time>2021-08-11T13:12:06.278Z</time>
      </trkpt>
      <trkpt lat="46.87832" lon="8.47897">
        <ele>1907</ele>
        <time>2021-08-11T13:12:07.279Z</time>
      </trkpt>
      <trkpt lat="46.87832" lon="8.47896">
        <ele>1907</ele>
        <time>2021-08-11T13:12:08.279Z</time>
      </trkpt>
      <trkpt lat="46.87831" lon="8.47895">
        <ele>1907</ele>
        <time>2021-08-11T13:12:09.278Z</time>
      </trkpt>
      <trkpt lat="46.87831" lon="8.47894">
        <ele>1907</ele>
        <time>2021-08-11T13:12:10.279Z</time>
      </trkpt>
      <trkpt lat="46.87831" lon="8.47892">
        <ele>1907</ele>
        <time>2021-08-11T13:12:11.278Z</time>
      </trkpt>
      <trkpt lat="46.87831" lon="8.47891">
        <ele>1907</ele>
        <time>2021-08-11T13:12:12.278Z</time>
      </trkpt>
      <trkpt lat="46.8783" lon="8.4789">
        <ele>1908</ele>
        <time>2021-08-11T13:12:13.279Z</time>
      </trkpt>
      <trkpt lat="46.87829" lon="8.4789">
        <ele>1908</ele>
        <time>2021-08-11T13:12:14.279Z</time>
      </trkpt>
      <trkpt lat="46.87829" lon="8.47889">
        <ele>1908</ele>
        <time>2021-08-11T13:12:15.279Z</time>
      </trkpt>
      <trkpt lat="46.87829" lon="8.47888">
        <ele>1908</ele>
        <time>2021-08-11T13:12:16.279Z</time>
      </trkpt>
      <trkpt lat="46.87828" lon="8.47887">
        <ele>1908</ele>
        <time>2021-08-11T13:12:17.278Z</time>
      </trkpt>
      <trkpt lat="46.87828" lon="8.47886">
        <ele>1908</ele>
        <time>2021-08-11T13:12:18.279Z</time>
      </trkpt>
      <trkpt lat="46.87828" lon="8.47885">
        <ele>1908</ele>
        <time>2021-08-11T13:12:19.279Z</time>
      </trkpt>
      <trkpt lat="46.87828" lon="8.47885">
        <ele>1907</ele>
        <time>2021-08-11T13:12:20.279Z</time>
      </trkpt>
      <trkpt lat="46.87827" lon="8.47884">
        <ele>1907</ele>
        <time>2021-08-11T13:12:21.279Z</time>
      </trkpt>
      <trkpt lat="46.87827" lon="8.47883">
        <ele>1907</ele>
        <time>2021-08-11T13:12:22.279Z</time>
      </trkpt>
      <trkpt lat="46.87827" lon="8.47881">
        <ele>1907</ele>
        <time>2021-08-11T13:12:23.279Z</time>
      </trkpt>
      <trkpt lat="46.87826" lon="8.4788">
        <ele>1907</ele>
        <time>2021-08-11T13:12:24.279Z</time>
      </trkpt>
      <trkpt lat="46.87825" lon="8.47879">
        <ele>1907</ele>
        <time>2021-08-11T13:12:25.279Z</time>
      </trkpt>
      <trkpt lat="46.87825" lon="8.47878">
        <ele>1908</ele>
        <time>2021-08-11T13:12:26.278Z</time>
      </trkpt>
      <trkpt lat="46.87824" lon="8.47877">
        <ele>1908</ele>
        <time>2021-08-11T13:12:27.278Z</time>
      </trkpt>
      <trkpt lat="46.87824" lon="8.47877">
        <ele>1909</ele>
        <time>2021-08-11T13:12:28.279Z</time>
      </trkpt>
      <trkpt lat="46.87823" lon="8.47876">
        <ele>1909</ele>
        <time>2021-08-11T13:12:29.279Z</time>
      </trkpt>
      <trkpt lat="46.87823" lon="8.47875">
        <ele>1910</ele>
        <time>2021-08-11T13:12:30.279Z</time>
      </trkpt>
      <trkpt lat="46.87823" lon="8.47875">
        <ele>1910</ele>
        <time>2021-08-11T13:12:31.278Z</time>
      </trkpt>
      <trkpt lat="46.87822" lon="8.47874">
        <ele>1911</ele>
        <time>2021-08-11T13:12:32.278Z</time>
      </trkpt>
      <trkpt lat="46.87822" lon="8.47873">
        <ele>1911</ele>
        <time>2021-08-11T13:12:33.279Z</time>
      </trkpt>
      <trkpt lat="46.87822" lon="8.47872">
        <ele>1911</ele>
        <time>2021-08-11T13:12:34.279Z</time>
      </trkpt>
      <trkpt lat="46.87821" lon="8.47871">
        <ele>1912</ele>
        <time>2021-08-11T13:12:35.279Z</time>
      </trkpt>
      <trkpt lat="46.87821" lon="8.4787">
        <ele>1912</ele>
        <time>2021-08-11T13:12:36.278Z</time>
      </trkpt>
      <trkpt lat="46.87821" lon="8.4787">
        <ele>1912</ele>
        <time>2021-08-11T13:12:37.278Z</time>
      </trkpt>
      <trkpt lat="46.87821" lon="8.47869">
        <ele>1912</ele>
        <time>2021-08-11T13:12:38.279Z</time>
      </trkpt>
      <trkpt lat="46.87821" lon="8.47869">
        <ele>1912</ele>
        <time>2021-08-11T13:12:39.279Z</time>
      </trkpt>
      <trkpt lat="46.87821" lon="8.47868">
        <ele>1912</ele>
        <time>2021-08-11T13:12:40.279Z</time>
      </trkpt>
      <trkpt lat="46.87821" lon="8.47867">
        <ele>1913</ele>
        <time>2021-08-11T13:12:41.280Z</time>
      </trkpt>
      <trkpt lat="46.87821" lon="8.47866">
        <ele>1913</ele>
        <time>2021-08-11T13:12:42.279Z</time>
      </trkpt>
      <trkpt lat="46.8782" lon="8.47866">
        <ele>1913</ele>
        <time>2021-08-11T13:12:43.279Z</time>
      </trkpt>
      <trkpt lat="46.8782" lon="8.47865">
        <ele>1912</ele>
        <time>2021-08-11T13:12:44.280Z</time>
      </trkpt>
      <trkpt lat="46.87821" lon="8.47865">
        <ele>1912</ele>
        <time>2021-08-11T13:12:45.280Z</time>
      </trkpt>
      <trkpt lat="46.87821" lon="8.47864">
        <ele>1912</ele>
        <time>2021-08-11T13:12:46.279Z</time>
      </trkpt>
      <trkpt lat="46.87821" lon="8.47864">
        <ele>1911</ele>
        <time>2021-08-11T13:12:47.280Z</time>
      </trkpt>
      <trkpt lat="46.87821" lon="8.47863">
        <ele>1911</ele>
        <time>2021-08-11T13:12:48.279Z</time>
      </trkpt>
      <trkpt lat="46.8782" lon="8.47862">
        <ele>1911</ele>
        <time>2021-08-11T13:12:49.279Z</time>
      </trkpt>
      <trkpt lat="46.8782" lon="8.47862">
        <ele>1911</ele>
        <time>2021-08-11T13:12:50.279Z</time>
      </trkpt>
      <trkpt lat="46.8782" lon="8.47862">
        <ele>1911</ele>
        <time>2021-08-11T13:12:51.280Z</time>
      </trkpt>
      <trkpt lat="46.8782" lon="8.47861">
        <ele>1911</ele>
        <time>2021-08-11T13:12:52.279Z</time>
      </trkpt>
      <trkpt lat="46.8782" lon="8.47861">
        <ele>1909</ele>
        <time>2021-08-11T13:12:53.281Z</time>
      </trkpt>
      <trkpt lat="46.87821" lon="8.47863">
        <ele>1915</ele>
        <time>2021-08-11T13:12:54.281Z</time>
      </trkpt>
      <trkpt lat="46.87821" lon="8.47863">
        <ele>1915</ele>
        <time>2021-08-11T13:12:55.280Z</time>
      </trkpt>
      <trkpt lat="46.87821" lon="8.47863">
        <ele>1915</ele>
        <time>2021-08-11T13:12:56.280Z</time>
      </trkpt>
      <trkpt lat="46.87821" lon="8.47863">
        <ele>1914</ele>
        <time>2021-08-11T13:12:57.281Z</time>
      </trkpt>
      <trkpt lat="46.8782" lon="8.47863">
        <ele>1914</ele>
        <time>2021-08-11T13:12:58.280Z</time>
      </trkpt>
      <trkpt lat="46.8782" lon="8.47863">
        <ele>1914</ele>
        <time>2021-08-11T13:12:59.280Z</time>
      </trkpt>
      <trkpt lat="46.8782" lon="8.47863">
        <ele>1914</ele>
        <time>2021-08-11T13:13:00.281Z</time>
      </trkpt>
      <trkpt lat="46.87821" lon="8.47863">
        <ele>1914</ele>
        <time>2021-08-11T13:13:01.281Z</time>
      </trkpt>
      <trkpt lat="46.87821" lon="8.47863">
        <ele>1914</ele>
        <time>2021-08-11T13:13:02.280Z</time>
      </trkpt>
      <trkpt lat="46.87821" lon="8.47863">
        <ele>1914</ele>
        <time>2021-08-11T13:13:03.281Z</time>
      </trkpt>
      <trkpt lat="46.87822" lon="8.47863">
        <ele>1914</ele>
        <time>2021-08-11T13:13:04.282Z</time>
      </trkpt>
      <trkpt lat="46.87821" lon="8.47862">
        <ele>1915</ele>
        <time>2021-08-11T13:13:05.281Z</time>
      </trkpt>
      <trkpt lat="46.87818" lon="8.47857">
        <ele>1916</ele>
        <time>2021-08-11T13:13:06.281Z</time>
      </trkpt>
      <trkpt lat="46.87819" lon="8.47855">
        <ele>1917</ele>
        <time>2021-08-11T13:13:07.282Z</time>
      </trkpt>
      <trkpt lat="46.87819" lon="8.47854">
        <ele>1918</ele>
        <time>2021-08-11T13:13:08.282Z</time>
      </trkpt>
      <trkpt lat="46.87819" lon="8.47853">
        <ele>1918</ele>
        <time>2021-08-11T13:13:09.282Z</time>
      </trkpt>
      <trkpt lat="46.87819" lon="8.47852">
        <ele>1919</ele>
        <time>2021-08-11T13:13:10.282Z</time>
      </trkpt>
      <trkpt lat="46.87819" lon="8.47852">
        <ele>1919</ele>
        <time>2021-08-11T13:13:11.282Z</time>
      </trkpt>
      <trkpt lat="46.87819" lon="8.47852">
        <ele>1919</ele>
        <time>2021-08-11T13:13:12.282Z</time>
      </trkpt>
      <trkpt lat="46.87819" lon="8.47851">
        <ele>1919</ele>
        <time>2021-08-11T13:13:13.282Z</time>
      </trkpt>
      <trkpt lat="46.8782" lon="8.4785">
        <ele>1919</ele>
        <time>2021-08-11T13:13:14.282Z</time>
      </trkpt>
      <trkpt lat="46.87821" lon="8.47849">
        <ele>1919</ele>
        <time>2021-08-11T13:13:15.282Z</time>
      </trkpt>
      <trkpt lat="46.87822" lon="8.47847">
        <ele>1919</ele>
        <time>2021-08-11T13:13:16.282Z</time>
      </trkpt>
      <trkpt lat="46.87822" lon="8.47847">
        <ele>1919</ele>
        <time>2021-08-11T13:13:17.282Z</time>
      </trkpt>
      <trkpt lat="46.87822" lon="8.47846">
        <ele>1919</ele>
        <time>2021-08-11T13:13:18.282Z</time>
      </trkpt>
      <trkpt lat="46.87822" lon="8.47846">
        <ele>1919</ele>
        <time>2021-08-11T13:13:19.282Z</time>
      </trkpt>
      <trkpt lat="46.87822" lon="8.47845">
        <ele>1920</ele>
        <time>2021-08-11T13:13:20.282Z</time>
      </trkpt>
      <trkpt lat="46.87822" lon="8.47844">
        <ele>1920</ele>
        <time>2021-08-11T13:13:21.282Z</time>
      </trkpt>
      <trkpt lat="46.87821" lon="8.47843">
        <ele>1920</ele>
        <time>2021-08-11T13:13:22.282Z</time>
      </trkpt>
      <trkpt lat="46.8782" lon="8.47843">
        <ele>1920</ele>
        <time>2021-08-11T13:13:23.282Z</time>
      </trkpt>
      <trkpt lat="46.87819" lon="8.47843">
        <ele>1919</ele>
        <time>2021-08-11T13:13:24.282Z</time>
      </trkpt>
      <trkpt lat="46.87818" lon="8.47842">
        <ele>1919</ele>
        <time>2021-08-11T13:13:25.281Z</time>
      </trkpt>
      <trkpt lat="46.87817" lon="8.47842">
        <ele>1919</ele>
        <time>2021-08-11T13:13:26.282Z</time>
      </trkpt>
      <trkpt lat="46.87816" lon="8.47842">
        <ele>1919</ele>
        <time>2021-08-11T13:13:27.282Z</time>
      </trkpt>
      <trkpt lat="46.87816" lon="8.47842">
        <ele>1920</ele>
        <time>2021-08-11T13:13:28.282Z</time>
      </trkpt>
      <trkpt lat="46.87816" lon="8.47842">
        <ele>1920</ele>
        <time>2021-08-11T13:13:29.281Z</time>
      </trkpt>
      <trkpt lat="46.87817" lon="8.47841">
        <ele>1921</ele>
        <time>2021-08-11T13:13:30.282Z</time>
      </trkpt>
      <trkpt lat="46.87817" lon="8.4784">
        <ele>1921</ele>
        <time>2021-08-11T13:13:31.282Z</time>
      </trkpt>
      <trkpt lat="46.87816" lon="8.4784">
        <ele>1921</ele>
        <time>2021-08-11T13:13:32.281Z</time>
      </trkpt>
      <trkpt lat="46.87814" lon="8.47839">
        <ele>1922</ele>
        <time>2021-08-11T13:13:33.282Z</time>
      </trkpt>
      <trkpt lat="46.87813" lon="8.47838">
        <ele>1922</ele>
        <time>2021-08-11T13:13:34.282Z</time>
      </trkpt>
      <trkpt lat="46.87812" lon="8.47837">
        <ele>1922</ele>
        <time>2021-08-11T13:13:35.282Z</time>
      </trkpt>
      <trkpt lat="46.87812" lon="8.47836">
        <ele>1923</ele>
        <time>2021-08-11T13:13:36.282Z</time>
      </trkpt>
      <trkpt lat="46.87812" lon="8.47836">
        <ele>1923</ele>
        <time>2021-08-11T13:13:37.282Z</time>
      </trkpt>
      <trkpt lat="46.87812" lon="8.47836">
        <ele>1923</ele>
        <time>2021-08-11T13:13:38.281Z</time>
      </trkpt>
      <trkpt lat="46.87812" lon="8.47836">
        <ele>1923</ele>
        <time>2021-08-11T13:13:39.282Z</time>
      </trkpt>
      <trkpt lat="46.87812" lon="8.47835">
        <ele>1923</ele>
        <time>2021-08-11T13:13:40.282Z</time>
      </trkpt>
      <trkpt lat="46.87812" lon="8.47835">
        <ele>1923</ele>
        <time>2021-08-11T13:13:41.282Z</time>
      </trkpt>
      <trkpt lat="46.87812" lon="8.47834">
        <ele>1923</ele>
        <time>2021-08-11T13:13:42.281Z</time>
      </trkpt>
      <trkpt lat="46.87811" lon="8.47833">
        <ele>1923</ele>
        <time>2021-08-11T13:13:43.282Z</time>
      </trkpt>
      <trkpt lat="46.87811" lon="8.47832">
        <ele>1923</ele>
        <time>2021-08-11T13:13:44.282Z</time>
      </trkpt>
      <trkpt lat="46.87811" lon="8.47831">
        <ele>1923</ele>
        <time>2021-08-11T13:13:45.281Z</time>
      </trkpt>
      <trkpt lat="46.87811" lon="8.4783">
        <ele>1923</ele>
        <time>2021-08-11T13:13:46.282Z</time>
      </trkpt>
      <trkpt lat="46.8781" lon="8.4783">
        <ele>1923</ele>
        <time>2021-08-11T13:13:47.282Z</time>
      </trkpt>
      <trkpt lat="46.8781" lon="8.4783">
        <ele>1923</ele>
        <time>2021-08-11T13:13:48.282Z</time>
      </trkpt>
      <trkpt lat="46.8781" lon="8.4783">
        <ele>1924</ele>
        <time>2021-08-11T13:13:49.282Z</time>
      </trkpt>
      <trkpt lat="46.87811" lon="8.47829">
        <ele>1924</ele>
        <time>2021-08-11T13:13:50.282Z</time>
      </trkpt>
      <trkpt lat="46.87811" lon="8.47828">
        <ele>1924</ele>
        <time>2021-08-11T13:13:51.282Z</time>
      </trkpt>
      <trkpt lat="46.87811" lon="8.47827">
        <ele>1924</ele>
        <time>2021-08-11T13:13:52.282Z</time>
      </trkpt>
      <trkpt lat="46.87811" lon="8.47827">
        <ele>1925</ele>
        <time>2021-08-11T13:13:53.282Z</time>
      </trkpt>
      <trkpt lat="46.8781" lon="8.47827">
        <ele>1925</ele>
        <time>2021-08-11T13:13:54.282Z</time>
      </trkpt>
      <trkpt lat="46.8781" lon="8.47827">
        <ele>1925</ele>
        <time>2021-08-11T13:13:55.282Z</time>
      </trkpt>
      <trkpt lat="46.87809" lon="8.47826">
        <ele>1925</ele>
        <time>2021-08-11T13:13:56.281Z</time>
      </trkpt>
      <trkpt lat="46.87809" lon="8.47826">
        <ele>1926</ele>
        <time>2021-08-11T13:13:57.282Z</time>
      </trkpt>
      <trkpt lat="46.87809" lon="8.47825">
        <ele>1926</ele>
        <time>2021-08-11T13:13:58.282Z</time>
      </trkpt>
      <trkpt lat="46.87809" lon="8.47824">
        <ele>1926</ele>
        <time>2021-08-11T13:13:59.282Z</time>
      </trkpt>
      <trkpt lat="46.87809" lon="8.47823">
        <ele>1926</ele>
        <time>2021-08-11T13:14:00.281Z</time>
      </trkpt>
      <trkpt lat="46.87809" lon="8.47822">
        <ele>1926</ele>
        <time>2021-08-11T13:14:01.282Z</time>
      </trkpt>
      <trkpt lat="46.87809" lon="8.47821">
        <ele>1926</ele>
        <time>2021-08-11T13:14:02.281Z</time>
      </trkpt>
      <trkpt lat="46.87809" lon="8.4782">
        <ele>1926</ele>
        <time>2021-08-11T13:14:03.281Z</time>
      </trkpt>
      <trkpt lat="46.8781" lon="8.47819">
        <ele>1925</ele>
        <time>2021-08-11T13:14:04.281Z</time>
      </trkpt>
      <trkpt lat="46.8781" lon="8.47818">
        <ele>1925</ele>
        <time>2021-08-11T13:14:05.282Z</time>
      </trkpt>
      <trkpt lat="46.8781" lon="8.47817">
        <ele>1925</ele>
        <time>2021-08-11T13:14:06.281Z</time>
      </trkpt>
      <trkpt lat="46.87809" lon="8.47816">
        <ele>1925</ele>
        <time>2021-08-11T13:14:07.282Z</time>
      </trkpt>
      <trkpt lat="46.87809" lon="8.47814">
        <ele>1924</ele>
        <time>2021-08-11T13:14:08.281Z</time>
      </trkpt>
      <trkpt lat="46.87808" lon="8.47813">
        <ele>1924</ele>
        <time>2021-08-11T13:14:09.282Z</time>
      </trkpt>
      <trkpt lat="46.87808" lon="8.47813">
        <ele>1924</ele>
        <time>2021-08-11T13:14:10.282Z</time>
      </trkpt>
      <trkpt lat="46.87807" lon="8.47812">
        <ele>1925</ele>
        <time>2021-08-11T13:14:11.282Z</time>
      </trkpt>
      <trkpt lat="46.87806" lon="8.47811">
        <ele>1925</ele>
        <time>2021-08-11T13:14:12.282Z</time>
      </trkpt>
      <trkpt lat="46.87806" lon="8.47809">
        <ele>1925</ele>
        <time>2021-08-11T13:14:13.282Z</time>
      </trkpt>
      <trkpt lat="46.87805" lon="8.47807">
        <ele>1926</ele>
        <time>2021-08-11T13:14:14.282Z</time>
      </trkpt>
      <trkpt lat="46.87805" lon="8.47806">
        <ele>1926</ele>
        <time>2021-08-11T13:14:15.282Z</time>
      </trkpt>
      <trkpt lat="46.87804" lon="8.47805">
        <ele>1926</ele>
        <time>2021-08-11T13:14:16.282Z</time>
      </trkpt>
      <trkpt lat="46.87803" lon="8.47804">
        <ele>1926</ele>
        <time>2021-08-11T13:14:17.282Z</time>
      </trkpt>
      <trkpt lat="46.87802" lon="8.47803">
        <ele>1926</ele>
        <time>2021-08-11T13:14:18.281Z</time>
      </trkpt>
      <trkpt lat="46.87801" lon="8.47802">
        <ele>1926</ele>
        <time>2021-08-11T13:14:19.282Z</time>
      </trkpt>
      <trkpt lat="46.87801" lon="8.47802">
        <ele>1926</ele>
        <time>2021-08-11T13:14:20.282Z</time>
      </trkpt>
      <trkpt lat="46.878" lon="8.47801">
        <ele>1926</ele>
        <time>2021-08-11T13:14:21.282Z</time>
      </trkpt>
      <trkpt lat="46.878" lon="8.478">
        <ele>1926</ele>
        <time>2021-08-11T13:14:22.282Z</time>
      </trkpt>
      <trkpt lat="46.878" lon="8.478">
        <ele>1926</ele>
        <time>2021-08-11T13:14:23.282Z</time>
      </trkpt>
      <trkpt lat="46.878" lon="8.47799">
        <ele>1926</ele>
        <time>2021-08-11T13:14:24.281Z</time>
      </trkpt>
      <trkpt lat="46.878" lon="8.47799">
        <ele>1926</ele>
        <time>2021-08-11T13:14:25.282Z</time>
      </trkpt>
      <trkpt lat="46.878" lon="8.47798">
        <ele>1926</ele>
        <time>2021-08-11T13:14:26.282Z</time>
      </trkpt>
      <trkpt lat="46.87799" lon="8.47797">
        <ele>1926</ele>
        <time>2021-08-11T13:14:27.281Z</time>
      </trkpt>
      <trkpt lat="46.87799" lon="8.47797">
        <ele>1926</ele>
        <time>2021-08-11T13:14:28.282Z</time>
      </trkpt>
      <trkpt lat="46.87798" lon="8.47796">
        <ele>1926</ele>
        <time>2021-08-11T13:14:29.281Z</time>
      </trkpt>
      <trkpt lat="46.87798" lon="8.47796">
        <ele>1927</ele>
        <time>2021-08-11T13:14:30.282Z</time>
      </trkpt>
      <trkpt lat="46.87798" lon="8.47795">
        <ele>1927</ele>
        <time>2021-08-11T13:14:31.282Z</time>
      </trkpt>
      <trkpt lat="46.87798" lon="8.47795">
        <ele>1927</ele>
        <time>2021-08-11T13:14:32.281Z</time>
      </trkpt>
      <trkpt lat="46.87798" lon="8.47795">
        <ele>1928</ele>
        <time>2021-08-11T13:14:33.282Z</time>
      </trkpt>
      <trkpt lat="46.87797" lon="8.47795">
        <ele>1928</ele>
        <time>2021-08-11T13:14:34.281Z</time>
      </trkpt>
      <trkpt lat="46.87796" lon="8.47795">
        <ele>1928</ele>
        <time>2021-08-11T13:14:35.281Z</time>
      </trkpt>
      <trkpt lat="46.87796" lon="8.47795">
        <ele>1928</ele>
        <time>2021-08-11T13:14:36.282Z</time>
      </trkpt>
      <trkpt lat="46.87796" lon="8.47794">
        <ele>1928</ele>
        <time>2021-08-11T13:14:37.282Z</time>
      </trkpt>
      <trkpt lat="46.87795" lon="8.47794">
        <ele>1927</ele>
        <time>2021-08-11T13:14:38.282Z</time>
      </trkpt>
      <trkpt lat="46.87795" lon="8.47793">
        <ele>1927</ele>
        <time>2021-08-11T13:14:39.282Z</time>
      </trkpt>
      <trkpt lat="46.87795" lon="8.47792">
        <ele>1927</ele>
        <time>2021-08-11T13:14:40.281Z</time>
      </trkpt>
      <trkpt lat="46.87794" lon="8.47792">
        <ele>1926</ele>
        <time>2021-08-11T13:14:41.282Z</time>
      </trkpt>
      <trkpt lat="46.87794" lon="8.47791">
        <ele>1926</ele>
        <time>2021-08-11T13:14:42.281Z</time>
      </trkpt>
      <trkpt lat="46.87793" lon="8.4779">
        <ele>1927</ele>
        <time>2021-08-11T13:14:43.281Z</time>
      </trkpt>
      <trkpt lat="46.87793" lon="8.4779">
        <ele>1927</ele>
        <time>2021-08-11T13:14:44.282Z</time>
      </trkpt>
      <trkpt lat="46.87793" lon="8.47789">
        <ele>1927</ele>
        <time>2021-08-11T13:14:45.282Z</time>
      </trkpt>
      <trkpt lat="46.87793" lon="8.47789">
        <ele>1926</ele>
        <time>2021-08-11T13:14:46.282Z</time>
      </trkpt>
      <trkpt lat="46.87793" lon="8.4779">
        <ele>1931</ele>
        <time>2021-08-11T13:14:47.282Z</time>
      </trkpt>
      <trkpt lat="46.87793" lon="8.47789">
        <ele>1932</ele>
        <time>2021-08-11T13:14:48.282Z</time>
      </trkpt>
      <trkpt lat="46.87793" lon="8.47789">
        <ele>1932</ele>
        <time>2021-08-11T13:14:49.281Z</time>
      </trkpt>
      <trkpt lat="46.87793" lon="8.47789">
        <ele>1931</ele>
        <time>2021-08-11T13:14:50.281Z</time>
      </trkpt>
      <trkpt lat="46.87794" lon="8.47789">
        <ele>1931</ele>
        <time>2021-08-11T13:14:51.282Z</time>
      </trkpt>
      <trkpt lat="46.87794" lon="8.47789">
        <ele>1931</ele>
        <time>2021-08-11T13:14:52.283Z</time>
      </trkpt>
      <trkpt lat="46.87793" lon="8.47789">
        <ele>1933</ele>
        <time>2021-08-11T13:14:53.282Z</time>
      </trkpt>
      <trkpt lat="46.87793" lon="8.47789">
        <ele>1933</ele>
        <time>2021-08-11T13:14:54.283Z</time>
      </trkpt>
      <trkpt lat="46.87793" lon="8.47789">
        <ele>1934</ele>
        <time>2021-08-11T13:14:55.282Z</time>
      </trkpt>
      <trkpt lat="46.87793" lon="8.47789">
        <ele>1933</ele>
        <time>2021-08-11T13:14:56.283Z</time>
      </trkpt>
      <trkpt lat="46.87794" lon="8.47789">
        <ele>1934</ele>
        <time>2021-08-11T13:14:57.283Z</time>
      </trkpt>
      <trkpt lat="46.87794" lon="8.47788">
        <ele>1934</ele>
        <time>2021-08-11T13:14:58.283Z</time>
      </trkpt>
      <trkpt lat="46.87794" lon="8.47788">
        <ele>1934</ele>
        <time>2021-08-11T13:14:59.283Z</time>
      </trkpt>
      <trkpt lat="46.87793" lon="8.47788">
        <ele>1940</ele>
        <time>2021-08-11T13:15:00.283Z</time>
      </trkpt>
      <trkpt lat="46.87793" lon="8.47787">
        <ele>1940</ele>
        <time>2021-08-11T13:15:01.283Z</time>
      </trkpt>
      <trkpt lat="46.87792" lon="8.4779">
        <ele>1936</ele>
        <time>2021-08-11T13:15:02.285Z</time>
      </trkpt>
      <trkpt lat="46.87792" lon="8.4779">
        <ele>1936</ele>
        <time>2021-08-11T13:15:03.285Z</time>
      </trkpt>
      <trkpt lat="46.87792" lon="8.4779">
        <ele>1935</ele>
        <time>2021-08-11T13:15:04.284Z</time>
      </trkpt>
      <trkpt lat="46.87792" lon="8.4779">
        <ele>1935</ele>
        <time>2021-08-11T13:15:05.285Z</time>
      </trkpt>
      <trkpt lat="46.87794" lon="8.47789">
        <ele>1935</ele>
        <time>2021-08-11T13:15:06.284Z</time>
      </trkpt>
      <trkpt lat="46.87791" lon="8.47788">
        <ele>1928</ele>
        <time>2021-08-11T13:15:07.285Z</time>
      </trkpt>
      <trkpt lat="46.87791" lon="8.47789">
        <ele>1930</ele>
        <time>2021-08-11T13:15:08.285Z</time>
      </trkpt>
      <trkpt lat="46.8779" lon="8.47788">
        <ele>1932</ele>
        <time>2021-08-11T13:15:09.285Z</time>
      </trkpt>
      <trkpt lat="46.87791" lon="8.47787">
        <ele>1932</ele>
        <time>2021-08-11T13:15:10.284Z</time>
      </trkpt>
      <trkpt lat="46.87792" lon="8.47787">
        <ele>1932</ele>
        <time>2021-08-11T13:15:11.284Z</time>
      </trkpt>
      <trkpt lat="46.87792" lon="8.47787">
        <ele>1932</ele>
        <time>2021-08-11T13:15:12.285Z</time>
      </trkpt>
      <trkpt lat="46.87791" lon="8.47786">
        <ele>1933</ele>
        <time>2021-08-11T13:15:13.284Z</time>
      </trkpt>
      <trkpt lat="46.87791" lon="8.47786">
        <ele>1933</ele>
        <time>2021-08-11T13:15:14.285Z</time>
      </trkpt>
      <trkpt lat="46.8779" lon="8.47785">
        <ele>1933</ele>
        <time>2021-08-11T13:15:15.285Z</time>
      </trkpt>
      <trkpt lat="46.8779" lon="8.47784">
        <ele>1933</ele>
        <time>2021-08-11T13:15:16.284Z</time>
      </trkpt>
      <trkpt lat="46.87789" lon="8.47784">
        <ele>1934</ele>
        <time>2021-08-11T13:15:17.285Z</time>
      </trkpt>
      <trkpt lat="46.87788" lon="8.47783">
        <ele>1935</ele>
        <time>2021-08-11T13:15:18.285Z</time>
      </trkpt>
      <trkpt lat="46.87787" lon="8.47782">
        <ele>1936</ele>
        <time>2021-08-11T13:15:19.284Z</time>
      </trkpt>
      <trkpt lat="46.87787" lon="8.47782">
        <ele>1936</ele>
        <time>2021-08-11T13:15:20.284Z</time>
      </trkpt>
      <trkpt lat="46.87786" lon="8.47782">
        <ele>1937</ele>
        <time>2021-08-11T13:15:21.285Z</time>
      </trkpt>
      <trkpt lat="46.87785" lon="8.47781">
        <ele>1937</ele>
        <time>2021-08-11T13:15:22.284Z</time>
      </trkpt>
      <trkpt lat="46.87785" lon="8.4778">
        <ele>1937</ele>
        <time>2021-08-11T13:15:23.285Z</time>
      </trkpt>
      <trkpt lat="46.87785" lon="8.4778">
        <ele>1937</ele>
        <time>2021-08-11T13:15:24.285Z</time>
      </trkpt>
      <trkpt lat="46.87785" lon="8.4778">
        <ele>1937</ele>
        <time>2021-08-11T13:15:25.285Z</time>
      </trkpt>
      <trkpt lat="46.87785" lon="8.47779">
        <ele>1937</ele>
        <time>2021-08-11T13:15:26.284Z</time>
      </trkpt>
      <trkpt lat="46.87784" lon="8.47778">
        <ele>1938</ele>
        <time>2021-08-11T13:15:27.284Z</time>
      </trkpt>
      <trkpt lat="46.87784" lon="8.47778">
        <ele>1938</ele>
        <time>2021-08-11T13:15:28.285Z</time>
      </trkpt>
      <trkpt lat="46.87784" lon="8.47777">
        <ele>1938</ele>
        <time>2021-08-11T13:15:29.284Z</time>
      </trkpt>
      <trkpt lat="46.87784" lon="8.47777">
        <ele>1938</ele>
        <time>2021-08-11T13:15:30.285Z</time>
      </trkpt>
      <trkpt lat="46.87784" lon="8.47776">
        <ele>1938</ele>
        <time>2021-08-11T13:15:31.285Z</time>
      </trkpt>
      <trkpt lat="46.87784" lon="8.47776">
        <ele>1937</ele>
        <time>2021-08-11T13:15:32.284Z</time>
      </trkpt>
      <trkpt lat="46.87784" lon="8.47775">
        <ele>1936</ele>
        <time>2021-08-11T13:15:39.407Z</time>
      </trkpt>
      <trkpt lat="46.87784" lon="8.47775">
        <ele>1936</ele>
        <time>2021-08-11T13:15:40.407Z</time>
      </trkpt>
      <trkpt lat="46.87784" lon="8.47774">
        <ele>1936</ele>
        <time>2021-08-11T13:15:41.406Z</time>
      </trkpt>
      <trkpt lat="46.87784" lon="8.47774">
        <ele>1936</ele>
        <time>2021-08-11T13:15:42.407Z</time>
      </trkpt>
      <trkpt lat="46.87783" lon="8.47774">
        <ele>1936</ele>
        <time>2021-08-11T13:15:57.385Z</time>
      </trkpt>
      <trkpt lat="46.87783" lon="8.47773">
        <ele>1936</ele>
        <time>2021-08-11T13:15:58.385Z</time>
      </trkpt>
      <trkpt lat="46.87783" lon="8.47773">
        <ele>1936</ele>
        <time>2021-08-11T13:15:59.384Z</time>
      </trkpt>
      <trkpt lat="46.87783" lon="8.47772">
        <ele>1936</ele>
        <time>2021-08-11T13:16:00.385Z</time>
      </trkpt>
      <trkpt lat="46.87783" lon="8.47772">
        <ele>1936</ele>
        <time>2021-08-11T13:16:01.385Z</time>
      </trkpt>
      <trkpt lat="46.87783" lon="8.47772">
        <ele>1936</ele>
        <time>2021-08-11T13:16:02.385Z</time>
      </trkpt>
      <trkpt lat="46.87782" lon="8.47771">
        <ele>1936</ele>
        <time>2021-08-11T13:16:03.385Z</time>
      </trkpt>
      <trkpt lat="46.87782" lon="8.47771">
        <ele>1936</ele>
        <time>2021-08-11T13:16:16.385Z</time>
      </trkpt>
      <trkpt lat="46.87781" lon="8.4777">
        <ele>1936</ele>
        <time>2021-08-11T13:16:17.384Z</time>
      </trkpt>
      <trkpt lat="46.87781" lon="8.47769">
        <ele>1936</ele>
        <time>2021-08-11T13:16:18.385Z</time>
      </trkpt>
      <trkpt lat="46.8778" lon="8.47769">
        <ele>1937</ele>
        <time>2021-08-11T13:16:19.385Z</time>
      </trkpt>
      <trkpt lat="46.8778" lon="8.47768">
        <ele>1938</ele>
        <time>2021-08-11T13:16:20.385Z</time>
      </trkpt>
      <trkpt lat="46.87779" lon="8.47768">
        <ele>1938</ele>
        <time>2021-08-11T13:16:21.385Z</time>
      </trkpt>
      <trkpt lat="46.8778" lon="8.47768">
        <ele>1939</ele>
        <time>2021-08-11T13:16:22.385Z</time>
      </trkpt>
      <trkpt lat="46.87779" lon="8.47767">
        <ele>1940</ele>
        <time>2021-08-11T13:16:23.385Z</time>
      </trkpt>
      <trkpt lat="46.87779" lon="8.47767">
        <ele>1940</ele>
        <time>2021-08-11T13:16:24.385Z</time>
      </trkpt>
      <trkpt lat="46.87778" lon="8.47766">
        <ele>1939</ele>
        <time>2021-08-11T13:16:25.385Z</time>
      </trkpt>
      <trkpt lat="46.87778" lon="8.47766">
        <ele>1939</ele>
        <time>2021-08-11T13:16:26.385Z</time>
      </trkpt>
      <trkpt lat="46.87777" lon="8.47766">
        <ele>1939</ele>
        <time>2021-08-11T13:16:27.384Z</time>
      </trkpt>
      <trkpt lat="46.87777" lon="8.47765">
        <ele>1939</ele>
        <time>2021-08-11T13:16:28.385Z</time>
      </trkpt>
      <trkpt lat="46.87776" lon="8.47765">
        <ele>1939</ele>
        <time>2021-08-11T13:16:29.385Z</time>
      </trkpt>
      <trkpt lat="46.87776" lon="8.47764">
        <ele>1939</ele>
        <time>2021-08-11T13:16:30.385Z</time>
      </trkpt>
      <trkpt lat="46.87776" lon="8.47764">
        <ele>1939</ele>
        <time>2021-08-11T13:16:31.385Z</time>
      </trkpt>
      <trkpt lat="46.87776" lon="8.47763">
        <ele>1939</ele>
        <time>2021-08-11T13:16:32.385Z</time>
      </trkpt>
      <trkpt lat="46.87775" lon="8.47763">
        <ele>1939</ele>
        <time>2021-08-11T13:16:33.385Z</time>
      </trkpt>
      <trkpt lat="46.87775" lon="8.47762">
        <ele>1939</ele>
        <time>2021-08-11T13:16:39.387Z</time>
      </trkpt>
      <trkpt lat="46.87775" lon="8.47761">
        <ele>1938</ele>
        <time>2021-08-11T13:16:40.388Z</time>
      </trkpt>
      <trkpt lat="46.87775" lon="8.47761">
        <ele>1938</ele>
        <time>2021-08-11T13:16:41.388Z</time>
      </trkpt>
      <trkpt lat="46.87775" lon="8.4776">
        <ele>1938</ele>
        <time>2021-08-11T13:16:42.387Z</time>
      </trkpt>
      <trkpt lat="46.87775" lon="8.47759">
        <ele>1938</ele>
        <time>2021-08-11T13:16:43.388Z</time>
      </trkpt>
      <trkpt lat="46.87774" lon="8.47759">
        <ele>1938</ele>
        <time>2021-08-11T13:16:44.388Z</time>
      </trkpt>
      <trkpt lat="46.87774" lon="8.47758">
        <ele>1938</ele>
        <time>2021-08-11T13:17:07.406Z</time>
      </trkpt>
      <trkpt lat="46.87774" lon="8.47758">
        <ele>1938</ele>
        <time>2021-08-11T13:17:08.407Z</time>
      </trkpt>
      <trkpt lat="46.87773" lon="8.47757">
        <ele>1938</ele>
        <time>2021-08-11T13:17:09.407Z</time>
      </trkpt>
      <trkpt lat="46.87773" lon="8.47755">
        <ele>1937</ele>
        <time>2021-08-11T13:17:10.407Z</time>
      </trkpt>
      <trkpt lat="46.87773" lon="8.47755">
        <ele>1937</ele>
        <time>2021-08-11T13:17:11.407Z</time>
      </trkpt>
      <trkpt lat="46.87773" lon="8.47755">
        <ele>1937</ele>
        <time>2021-08-11T13:17:12.407Z</time>
      </trkpt>
      <trkpt lat="46.87772" lon="8.47754">
        <ele>1937</ele>
        <time>2021-08-11T13:17:13.406Z</time>
      </trkpt>
      <trkpt lat="46.87772" lon="8.47754">
        <ele>1937</ele>
        <time>2021-08-11T13:17:14.407Z</time>
      </trkpt>
      <trkpt lat="46.87773" lon="8.47753">
        <ele>1937</ele>
        <time>2021-08-11T13:17:15.407Z</time>
      </trkpt>
      <trkpt lat="46.87773" lon="8.47753">
        <ele>1938</ele>
        <time>2021-08-11T13:17:16.407Z</time>
      </trkpt>
      <trkpt lat="46.87773" lon="8.47754">
        <ele>1938</ele>
        <time>2021-08-11T13:17:17.407Z</time>
      </trkpt>
      <trkpt lat="46.87773" lon="8.47753">
        <ele>1939</ele>
        <time>2021-08-11T13:17:18.407Z</time>
      </trkpt>
      <trkpt lat="46.87773" lon="8.47752">
        <ele>1939</ele>
        <time>2021-08-11T13:17:19.407Z</time>
      </trkpt>
      <trkpt lat="46.87774" lon="8.47751">
        <ele>1940</ele>
        <time>2021-08-11T13:17:20.406Z</time>
      </trkpt>
      <trkpt lat="46.87773" lon="8.47751">
        <ele>1940</ele>
        <time>2021-08-11T13:17:21.407Z</time>
      </trkpt>
      <trkpt lat="46.87773" lon="8.4775">
        <ele>1940</ele>
        <time>2021-08-11T13:17:22.407Z</time>
      </trkpt>
      <trkpt lat="46.87772" lon="8.4775">
        <ele>1940</ele>
        <time>2021-08-11T13:17:23.406Z</time>
      </trkpt>
      <trkpt lat="46.87772" lon="8.4775">
        <ele>1940</ele>
        <time>2021-08-11T13:17:24.407Z</time>
      </trkpt>
      <trkpt lat="46.87771" lon="8.47749">
        <ele>1941</ele>
        <time>2021-08-11T13:17:25.407Z</time>
      </trkpt>
      <trkpt lat="46.87771" lon="8.47749">
        <ele>1941</ele>
        <time>2021-08-11T13:17:26.406Z</time>
      </trkpt>
      <trkpt lat="46.87771" lon="8.47749">
        <ele>1941</ele>
        <time>2021-08-11T13:17:27.407Z</time>
      </trkpt>
      <trkpt lat="46.87771" lon="8.47749">
        <ele>1941</ele>
        <time>2021-08-11T13:17:28.407Z</time>
      </trkpt>
      <trkpt lat="46.87771" lon="8.47748">
        <ele>1941</ele>
        <time>2021-08-11T13:17:29.406Z</time>
      </trkpt>
      <trkpt lat="46.87771" lon="8.47747">
        <ele>1942</ele>
        <time>2021-08-11T13:17:30.406Z</time>
      </trkpt>
      <trkpt lat="46.87771" lon="8.47746">
        <ele>1942</ele>
        <time>2021-08-11T13:17:31.406Z</time>
      </trkpt>
      <trkpt lat="46.8777" lon="8.47746">
        <ele>1942</ele>
        <time>2021-08-11T13:17:32.406Z</time>
      </trkpt>
      <trkpt lat="46.8777" lon="8.47746">
        <ele>1942</ele>
        <time>2021-08-11T13:17:33.407Z</time>
      </trkpt>
      <trkpt lat="46.8777" lon="8.47746">
        <ele>1943</ele>
        <time>2021-08-11T13:17:34.407Z</time>
      </trkpt>
      <trkpt lat="46.87769" lon="8.47745">
        <ele>1944</ele>
        <time>2021-08-11T13:17:35.407Z</time>
      </trkpt>
      <trkpt lat="46.87769" lon="8.47745">
        <ele>1944</ele>
        <time>2021-08-11T13:17:36.407Z</time>
      </trkpt>
      <trkpt lat="46.87768" lon="8.47744">
        <ele>1945</ele>
        <time>2021-08-11T13:17:37.407Z</time>
      </trkpt>
      <trkpt lat="46.87768" lon="8.47744">
        <ele>1945</ele>
        <time>2021-08-11T13:17:38.406Z</time>
      </trkpt>
      <trkpt lat="46.87767" lon="8.47743">
        <ele>1945</ele>
        <time>2021-08-11T13:17:39.407Z</time>
      </trkpt>
      <trkpt lat="46.87767" lon="8.47743">
        <ele>1945</ele>
        <time>2021-08-11T13:17:40.407Z</time>
      </trkpt>
      <trkpt lat="46.87766" lon="8.47743">
        <ele>1945</ele>
        <time>2021-08-11T13:17:41.406Z</time>
      </trkpt>
      <trkpt lat="46.87765" lon="8.47744">
        <ele>1945</ele>
        <time>2021-08-11T13:17:42.407Z</time>
      </trkpt>
      <trkpt lat="46.87765" lon="8.47744">
        <ele>1946</ele>
        <time>2021-08-11T13:17:43.407Z</time>
      </trkpt>
      <trkpt lat="46.87765" lon="8.47744">
        <ele>1947</ele>
        <time>2021-08-11T13:17:44.407Z</time>
      </trkpt>
      <trkpt lat="46.87764" lon="8.47744">
        <ele>1947</ele>
        <time>2021-08-11T13:17:45.408Z</time>
      </trkpt>
      <trkpt lat="46.87764" lon="8.47744">
        <ele>1947</ele>
        <time>2021-08-11T13:17:46.408Z</time>
      </trkpt>
      <trkpt lat="46.87764" lon="8.47743">
        <ele>1947</ele>
        <time>2021-08-11T13:17:47.407Z</time>
      </trkpt>
      <trkpt lat="46.87764" lon="8.47743">
        <ele>1947</ele>
        <time>2021-08-11T13:17:48.407Z</time>
      </trkpt>
      <trkpt lat="46.87763" lon="8.47743">
        <ele>1947</ele>
        <time>2021-08-11T13:17:49.408Z</time>
      </trkpt>
      <trkpt lat="46.87763" lon="8.47743">
        <ele>1947</ele>
        <time>2021-08-11T13:17:50.408Z</time>
      </trkpt>
      <trkpt lat="46.87763" lon="8.47741">
        <ele>1948</ele>
        <time>2021-08-11T13:17:51.408Z</time>
      </trkpt>
      <trkpt lat="46.87763" lon="8.47741">
        <ele>1947</ele>
        <time>2021-08-11T13:17:52.408Z</time>
      </trkpt>
      <trkpt lat="46.87762" lon="8.4774">
        <ele>1947</ele>
        <time>2021-08-11T13:17:53.407Z</time>
      </trkpt>
      <trkpt lat="46.87761" lon="8.47739">
        <ele>1947</ele>
        <time>2021-08-11T13:17:54.408Z</time>
      </trkpt>
      <trkpt lat="46.8776" lon="8.4774">
        <ele>1946</ele>
        <time>2021-08-11T13:17:55.408Z</time>
      </trkpt>
      <trkpt lat="46.8776" lon="8.4774">
        <ele>1946</ele>
        <time>2021-08-11T13:17:56.407Z</time>
      </trkpt>
      <trkpt lat="46.87759" lon="8.47739">
        <ele>1946</ele>
        <time>2021-08-11T13:17:57.408Z</time>
      </trkpt>
      <trkpt lat="46.87758" lon="8.47739">
        <ele>1945</ele>
        <time>2021-08-11T13:17:58.408Z</time>
      </trkpt>
      <trkpt lat="46.87757" lon="8.47739">
        <ele>1945</ele>
        <time>2021-08-11T13:17:59.407Z</time>
      </trkpt>
      <trkpt lat="46.87757" lon="8.47739">
        <ele>1945</ele>
        <time>2021-08-11T13:18:00.408Z</time>
      </trkpt>
      <trkpt lat="46.87756" lon="8.47738">
        <ele>1945</ele>
        <time>2021-08-11T13:18:01.408Z</time>
      </trkpt>
      <trkpt lat="46.87756" lon="8.47738">
        <ele>1944</ele>
        <time>2021-08-11T13:18:02.407Z</time>
      </trkpt>
      <trkpt lat="46.87755" lon="8.47737">
        <ele>1944</ele>
        <time>2021-08-11T13:18:03.408Z</time>
      </trkpt>
      <trkpt lat="46.87755" lon="8.47737">
        <ele>1943</ele>
        <time>2021-08-11T13:18:04.408Z</time>
      </trkpt>
      <trkpt lat="46.87755" lon="8.47737">
        <ele>1943</ele>
        <time>2021-08-11T13:18:05.407Z</time>
      </trkpt>
      <trkpt lat="46.87755" lon="8.47736">
        <ele>1943</ele>
        <time>2021-08-11T13:18:06.408Z</time>
      </trkpt>
      <trkpt lat="46.87755" lon="8.47736">
        <ele>1943</ele>
        <time>2021-08-11T13:18:07.408Z</time>
      </trkpt>
      <trkpt lat="46.87755" lon="8.47735">
        <ele>1943</ele>
        <time>2021-08-11T13:18:08.408Z</time>
      </trkpt>
      <trkpt lat="46.87755" lon="8.47735">
        <ele>1942</ele>
        <time>2021-08-11T13:18:09.408Z</time>
      </trkpt>
      <trkpt lat="46.87755" lon="8.47734">
        <ele>1942</ele>
        <time>2021-08-11T13:18:10.408Z</time>
      </trkpt>
      <trkpt lat="46.87754" lon="8.47734">
        <ele>1941</ele>
        <time>2021-08-11T13:18:11.409Z</time>
      </trkpt>
      <trkpt lat="46.87754" lon="8.47733">
        <ele>1941</ele>
        <time>2021-08-11T13:18:12.409Z</time>
      </trkpt>
      <trkpt lat="46.87754" lon="8.47733">
        <ele>1942</ele>
        <time>2021-08-11T13:18:13.409Z</time>
      </trkpt>
      <trkpt lat="46.87754" lon="8.47732">
        <ele>1942</ele>
        <time>2021-08-11T13:18:14.409Z</time>
      </trkpt>
      <trkpt lat="46.87754" lon="8.47731">
        <ele>1942</ele>
        <time>2021-08-11T13:18:15.409Z</time>
      </trkpt>
      <trkpt lat="46.87753" lon="8.47731">
        <ele>1942</ele>
        <time>2021-08-11T13:18:16.409Z</time>
      </trkpt>
      <trkpt lat="46.87753" lon="8.47731">
        <ele>1942</ele>
        <time>2021-08-11T13:18:17.409Z</time>
      </trkpt>
      <trkpt lat="46.87753" lon="8.4773">
        <ele>1942</ele>
        <time>2021-08-11T13:18:18.409Z</time>
      </trkpt>
      <trkpt lat="46.87752" lon="8.47729">
        <ele>1943</ele>
        <time>2021-08-11T13:18:19.409Z</time>
      </trkpt>
      <trkpt lat="46.87752" lon="8.47729">
        <ele>1943</ele>
        <time>2021-08-11T13:18:20.409Z</time>
      </trkpt>
      <trkpt lat="46.87752" lon="8.47728">
        <ele>1944</ele>
        <time>2021-08-11T13:18:21.409Z</time>
      </trkpt>
      <trkpt lat="46.87751" lon="8.47728">
        <ele>1945</ele>
        <time>2021-08-11T13:18:22.409Z</time>
      </trkpt>
      <trkpt lat="46.8775" lon="8.47728">
        <ele>1946</ele>
        <time>2021-08-11T13:18:23.409Z</time>
      </trkpt>
      <trkpt lat="46.87749" lon="8.47728">
        <ele>1946</ele>
        <time>2021-08-11T13:18:24.409Z</time>
      </trkpt>
      <trkpt lat="46.87749" lon="8.47728">
        <ele>1947</ele>
        <time>2021-08-11T13:18:25.409Z</time>
      </trkpt>
      <trkpt lat="46.87749" lon="8.47727">
        <ele>1947</ele>
        <time>2021-08-11T13:18:26.409Z</time>
      </trkpt>
      <trkpt lat="46.87748" lon="8.47727">
        <ele>1948</ele>
        <time>2021-08-11T13:18:27.409Z</time>
      </trkpt>
      <trkpt lat="46.87748" lon="8.47727">
        <ele>1948</ele>
        <time>2021-08-11T13:18:28.409Z</time>
      </trkpt>
      <trkpt lat="46.87748" lon="8.47726">
        <ele>1948</ele>
        <time>2021-08-11T13:18:29.409Z</time>
      </trkpt>
      <trkpt lat="46.87748" lon="8.47726">
        <ele>1948</ele>
        <time>2021-08-11T13:18:30.409Z</time>
      </trkpt>
      <trkpt lat="46.87747" lon="8.47725">
        <ele>1949</ele>
        <time>2021-08-11T13:18:31.409Z</time>
      </trkpt>
      <trkpt lat="46.87747" lon="8.47725">
        <ele>1949</ele>
        <time>2021-08-11T13:18:32.409Z</time>
      </trkpt>
      <trkpt lat="46.87746" lon="8.47724">
        <ele>1949</ele>
        <time>2021-08-11T13:18:33.409Z</time>
      </trkpt>
      <trkpt lat="46.87746" lon="8.47724">
        <ele>1949</ele>
        <time>2021-08-11T13:18:34.409Z</time>
      </trkpt>
      <trkpt lat="46.87745" lon="8.47723">
        <ele>1950</ele>
        <time>2021-08-11T13:18:35.409Z</time>
      </trkpt>
      <trkpt lat="46.87745" lon="8.47722">
        <ele>1949</ele>
        <time>2021-08-11T13:18:36.409Z</time>
      </trkpt>
      <trkpt lat="46.87745" lon="8.47721">
        <ele>1949</ele>
        <time>2021-08-11T13:18:37.409Z</time>
      </trkpt>
      <trkpt lat="46.87744" lon="8.47721">
        <ele>1949</ele>
        <time>2021-08-11T13:18:38.409Z</time>
      </trkpt>
      <trkpt lat="46.87744" lon="8.47721">
        <ele>1949</ele>
        <time>2021-08-11T13:18:39.409Z</time>
      </trkpt>
      <trkpt lat="46.87743" lon="8.4772">
        <ele>1949</ele>
        <time>2021-08-11T13:18:40.409Z</time>
      </trkpt>
      <trkpt lat="46.87743" lon="8.4772">
        <ele>1949</ele>
        <time>2021-08-11T13:18:41.409Z</time>
      </trkpt>
      <trkpt lat="46.87742" lon="8.47719">
        <ele>1949</ele>
        <time>2021-08-11T13:18:42.409Z</time>
      </trkpt>
      <trkpt lat="46.87742" lon="8.47719">
        <ele>1949</ele>
        <time>2021-08-11T13:18:43.409Z</time>
      </trkpt>
      <trkpt lat="46.87742" lon="8.47718">
        <ele>1949</ele>
        <time>2021-08-11T13:18:44.409Z</time>
      </trkpt>
      <trkpt lat="46.87742" lon="8.47717">
        <ele>1949</ele>
        <time>2021-08-11T13:18:45.409Z</time>
      </trkpt>
      <trkpt lat="46.87742" lon="8.47717">
        <ele>1949</ele>
        <time>2021-08-11T13:18:46.409Z</time>
      </trkpt>
      <trkpt lat="46.87742" lon="8.47717">
        <ele>1949</ele>
        <time>2021-08-11T13:18:47.409Z</time>
      </trkpt>
      <trkpt lat="46.87742" lon="8.47717">
        <ele>1950</ele>
        <time>2021-08-11T13:18:48.409Z</time>
      </trkpt>
      <trkpt lat="46.87742" lon="8.47716">
        <ele>1950</ele>
        <time>2021-08-11T13:18:49.409Z</time>
      </trkpt>
      <trkpt lat="46.87741" lon="8.47717">
        <ele>1954</ele>
        <time>2021-08-11T13:18:50.410Z</time>
      </trkpt>
      <trkpt lat="46.87742" lon="8.47714">
        <ele>1956</ele>
        <time>2021-08-11T13:18:51.410Z</time>
      </trkpt>
      <trkpt lat="46.87742" lon="8.47714">
        <ele>1956</ele>
        <time>2021-08-11T13:18:52.409Z</time>
      </trkpt>
      <trkpt lat="46.87743" lon="8.47714">
        <ele>1956</ele>
        <time>2021-08-11T13:18:53.409Z</time>
      </trkpt>
      <trkpt lat="46.87743" lon="8.47714">
        <ele>1956</ele>
        <time>2021-08-11T13:18:54.410Z</time>
      </trkpt>
      <trkpt lat="46.87744" lon="8.47715">
        <ele>1956</ele>
        <time>2021-08-11T13:18:55.409Z</time>
      </trkpt>
      <trkpt lat="46.87745" lon="8.47715">
        <ele>1956</ele>
        <time>2021-08-11T13:18:56.410Z</time>
      </trkpt>
      <trkpt lat="46.87745" lon="8.47715">
        <ele>1956</ele>
        <time>2021-08-11T13:18:57.410Z</time>
      </trkpt>
      <trkpt lat="46.87746" lon="8.47715">
        <ele>1956</ele>
        <time>2021-08-11T13:18:58.410Z</time>
      </trkpt>
      <trkpt lat="46.87746" lon="8.47713">
        <ele>1956</ele>
        <time>2021-08-11T13:18:59.409Z</time>
      </trkpt>
      <trkpt lat="46.87746" lon="8.47712">
        <ele>1956</ele>
        <time>2021-08-11T13:19:00.409Z</time>
      </trkpt>
      <trkpt lat="46.87746" lon="8.4771">
        <ele>1956</ele>
        <time>2021-08-11T13:19:01.410Z</time>
      </trkpt>
      <trkpt lat="46.87746" lon="8.47709">
        <ele>1957</ele>
        <time>2021-08-11T13:19:02.410Z</time>
      </trkpt>
      <trkpt lat="46.87746" lon="8.47708">
        <ele>1957</ele>
        <time>2021-08-11T13:19:03.410Z</time>
      </trkpt>
      <trkpt lat="46.87746" lon="8.47707">
        <ele>1957</ele>
        <time>2021-08-11T13:19:04.409Z</time>
      </trkpt>
      <trkpt lat="46.87746" lon="8.47707">
        <ele>1957</ele>
        <time>2021-08-11T13:19:05.410Z</time>
      </trkpt>
      <trkpt lat="46.87746" lon="8.47706">
        <ele>1957</ele>
        <time>2021-08-11T13:19:06.409Z</time>
      </trkpt>
      <trkpt lat="46.87747" lon="8.47705">
        <ele>1957</ele>
        <time>2021-08-11T13:19:07.410Z</time>
      </trkpt>
      <trkpt lat="46.87747" lon="8.47704">
        <ele>1957</ele>
        <time>2021-08-11T13:19:08.410Z</time>
      </trkpt>
      <trkpt lat="46.87747" lon="8.47703">
        <ele>1957</ele>
        <time>2021-08-11T13:19:09.410Z</time>
      </trkpt>
      <trkpt lat="46.87747" lon="8.47702">
        <ele>1957</ele>
        <time>2021-08-11T13:19:10.410Z</time>
      </trkpt>
      <trkpt lat="46.87747" lon="8.47701">
        <ele>1957</ele>
        <time>2021-08-11T13:19:11.410Z</time>
      </trkpt>
      <trkpt lat="46.87746" lon="8.47701">
        <ele>1957</ele>
        <time>2021-08-11T13:19:12.410Z</time>
      </trkpt>
      <trkpt lat="46.87746" lon="8.47701">
        <ele>1957</ele>
        <time>2021-08-11T13:19:13.410Z</time>
      </trkpt>
      <trkpt lat="46.87745" lon="8.477">
        <ele>1957</ele>
        <time>2021-08-11T13:19:14.409Z</time>
      </trkpt>
      <trkpt lat="46.87745" lon="8.477">
        <ele>1956</ele>
        <time>2021-08-11T13:19:15.410Z</time>
      </trkpt>
      <trkpt lat="46.87745" lon="8.47699">
        <ele>1956</ele>
        <time>2021-08-11T13:19:16.410Z</time>
      </trkpt>
      <trkpt lat="46.87744" lon="8.47699">
        <ele>1956</ele>
        <time>2021-08-11T13:19:17.410Z</time>
      </trkpt>
      <trkpt lat="46.87744" lon="8.47698">
        <ele>1956</ele>
        <time>2021-08-11T13:19:18.409Z</time>
      </trkpt>
      <trkpt lat="46.87743" lon="8.47698">
        <ele>1957</ele>
        <time>2021-08-11T13:19:19.410Z</time>
      </trkpt>
      <trkpt lat="46.87742" lon="8.47698">
        <ele>1958</ele>
        <time>2021-08-11T13:19:20.410Z</time>
      </trkpt>
      <trkpt lat="46.87741" lon="8.47698">
        <ele>1958</ele>
        <time>2021-08-11T13:19:21.410Z</time>
      </trkpt>
      <trkpt lat="46.8774" lon="8.47698">
        <ele>1959</ele>
        <time>2021-08-11T13:19:22.410Z</time>
      </trkpt>
      <trkpt lat="46.8774" lon="8.47698">
        <ele>1959</ele>
        <time>2021-08-11T13:19:23.409Z</time>
      </trkpt>
      <trkpt lat="46.8774" lon="8.47697">
        <ele>1959</ele>
        <time>2021-08-11T13:19:24.410Z</time>
      </trkpt>
      <trkpt lat="46.87739" lon="8.47698">
        <ele>1960</ele>
        <time>2021-08-11T13:19:25.409Z</time>
      </trkpt>
      <trkpt lat="46.87739" lon="8.47698">
        <ele>1960</ele>
        <time>2021-08-11T13:19:26.410Z</time>
      </trkpt>
      <trkpt lat="46.87739" lon="8.47698">
        <ele>1959</ele>
        <time>2021-08-11T13:19:27.410Z</time>
      </trkpt>
      <trkpt lat="46.87739" lon="8.47697">
        <ele>1959</ele>
        <time>2021-08-11T13:19:28.410Z</time>
      </trkpt>
      <trkpt lat="46.87739" lon="8.47697">
        <ele>1959</ele>
        <time>2021-08-11T13:19:29.409Z</time>
      </trkpt>
      <trkpt lat="46.87739" lon="8.47696">
        <ele>1959</ele>
        <time>2021-08-11T13:19:30.410Z</time>
      </trkpt>
      <trkpt lat="46.87739" lon="8.47696">
        <ele>1959</ele>
        <time>2021-08-11T13:19:31.410Z</time>
      </trkpt>
      <trkpt lat="46.87739" lon="8.47695">
        <ele>1959</ele>
        <time>2021-08-11T13:19:32.410Z</time>
      </trkpt>
      <trkpt lat="46.87739" lon="8.47695">
        <ele>1959</ele>
        <time>2021-08-11T13:19:33.409Z</time>
      </trkpt>
      <trkpt lat="46.87738" lon="8.47694">
        <ele>1959</ele>
        <time>2021-08-11T13:19:34.410Z</time>
      </trkpt>
      <trkpt lat="46.87738" lon="8.47693">
        <ele>1959</ele>
        <time>2021-08-11T13:19:35.410Z</time>
      </trkpt>
      <trkpt lat="46.87738" lon="8.47692">
        <ele>1959</ele>
        <time>2021-08-11T13:19:36.409Z</time>
      </trkpt>
      <trkpt lat="46.87739" lon="8.47691">
        <ele>1959</ele>
        <time>2021-08-11T13:19:56.514Z</time>
      </trkpt>
      <trkpt lat="46.87739" lon="8.47691">
        <ele>1959</ele>
        <time>2021-08-11T13:19:57.514Z</time>
      </trkpt>
      <trkpt lat="46.87738" lon="8.4769">
        <ele>1959</ele>
        <time>2021-08-11T13:19:58.513Z</time>
      </trkpt>
      <trkpt lat="46.87738" lon="8.4769">
        <ele>1960</ele>
        <time>2021-08-11T13:19:59.513Z</time>
      </trkpt>
      <trkpt lat="46.87738" lon="8.47689">
        <ele>1960</ele>
        <time>2021-08-11T13:20:00.514Z</time>
      </trkpt>
      <trkpt lat="46.87738" lon="8.47689">
        <ele>1960</ele>
        <time>2021-08-11T13:20:01.514Z</time>
      </trkpt>
      <trkpt lat="46.87738" lon="8.47688">
        <ele>1960</ele>
        <time>2021-08-11T13:20:03.617Z</time>
      </trkpt>
      <trkpt lat="46.87738" lon="8.47688">
        <ele>1960</ele>
        <time>2021-08-11T13:20:09.387Z</time>
      </trkpt>
      <trkpt lat="46.87738" lon="8.47687">
        <ele>1961</ele>
        <time>2021-08-11T13:20:10.387Z</time>
      </trkpt>
      <trkpt lat="46.87739" lon="8.47687">
        <ele>1962</ele>
        <time>2021-08-11T13:20:22.135Z</time>
      </trkpt>
      <trkpt lat="46.87739" lon="8.47687">
        <ele>1962</ele>
        <time>2021-08-11T13:20:23.136Z</time>
      </trkpt>
      <trkpt lat="46.87739" lon="8.47686">
        <ele>1962</ele>
        <time>2021-08-11T13:20:27.013Z</time>
      </trkpt>
      <trkpt lat="46.87738" lon="8.47686">
        <ele>1962</ele>
        <time>2021-08-11T13:20:28.013Z</time>
      </trkpt>
      <trkpt lat="46.87738" lon="8.47686">
        <ele>1962</ele>
        <time>2021-08-11T13:20:29.013Z</time>
      </trkpt>
      <trkpt lat="46.87738" lon="8.47685">
        <ele>1962</ele>
        <time>2021-08-11T13:20:30.012Z</time>
      </trkpt>
      <trkpt lat="46.87738" lon="8.47684">
        <ele>1962</ele>
        <time>2021-08-11T13:20:31.013Z</time>
      </trkpt>
      <trkpt lat="46.87737" lon="8.47683">
        <ele>1962</ele>
        <time>2021-08-11T13:20:32.012Z</time>
      </trkpt>
      <trkpt lat="46.87737" lon="8.47683">
        <ele>1962</ele>
        <time>2021-08-11T13:20:33.013Z</time>
      </trkpt>
      <trkpt lat="46.87735" lon="8.47683">
        <ele>1963</ele>
        <time>2021-08-11T13:20:39.013Z</time>
      </trkpt>
      <trkpt lat="46.87734" lon="8.47683">
        <ele>1964</ele>
        <time>2021-08-11T13:20:40.014Z</time>
      </trkpt>
      <trkpt lat="46.87733" lon="8.47683">
        <ele>1964</ele>
        <time>2021-08-11T13:21:03.779Z</time>
      </trkpt>
      <trkpt lat="46.87733" lon="8.47684">
        <ele>1965</ele>
        <time>2021-08-11T13:21:04.779Z</time>
      </trkpt>
      <trkpt lat="46.87733" lon="8.47684">
        <ele>1965</ele>
        <time>2021-08-11T13:21:05.779Z</time>
      </trkpt>
      <trkpt lat="46.87732" lon="8.47684">
        <ele>1966</ele>
        <time>2021-08-11T13:21:06.779Z</time>
      </trkpt>
      <trkpt lat="46.87732" lon="8.47683">
        <ele>1966</ele>
        <time>2021-08-11T13:21:07.779Z</time>
      </trkpt>
      <trkpt lat="46.87732" lon="8.47684">
        <ele>1966</ele>
        <time>2021-08-11T13:21:08.779Z</time>
      </trkpt>
      <trkpt lat="46.87732" lon="8.47683">
        <ele>1966</ele>
        <time>2021-08-11T13:21:13.786Z</time>
      </trkpt>
      <trkpt lat="46.87732" lon="8.47682">
        <ele>1963</ele>
        <time>2021-08-11T13:21:14.787Z</time>
      </trkpt>
      <trkpt lat="46.87732" lon="8.47682">
        <ele>1963</ele>
        <time>2021-08-11T13:21:15.787Z</time>
      </trkpt>
      <trkpt lat="46.87731" lon="8.47681">
        <ele>1963</ele>
        <time>2021-08-11T13:21:28.907Z</time>
      </trkpt>
      <trkpt lat="46.8773" lon="8.47681">
        <ele>1963</ele>
        <time>2021-08-11T13:21:50.765Z</time>
      </trkpt>
      <trkpt lat="46.8773" lon="8.4768">
        <ele>1963</ele>
        <time>2021-08-11T13:22:19.517Z</time>
      </trkpt>
      <trkpt lat="46.87729" lon="8.4768">
        <ele>1964</ele>
        <time>2021-08-11T13:22:20.517Z</time>
      </trkpt>
      <trkpt lat="46.87729" lon="8.4768">
        <ele>1964</ele>
        <time>2021-08-11T13:22:36.386Z</time>
      </trkpt>
      <trkpt lat="46.87728" lon="8.47679">
        <ele>1964</ele>
        <time>2021-08-11T13:22:49.137Z</time>
      </trkpt>
      <trkpt lat="46.87727" lon="8.47679">
        <ele>1964</ele>
        <time>2021-08-11T13:22:50.137Z</time>
      </trkpt>
      <trkpt lat="46.87727" lon="8.47678">
        <ele>1965</ele>
        <time>2021-08-11T13:22:51.137Z</time>
      </trkpt>
      <trkpt lat="46.87727" lon="8.47678">
        <ele>1965</ele>
        <time>2021-08-11T13:22:53.246Z</time>
      </trkpt>
      <trkpt lat="46.87728" lon="8.47676">
        <ele>1969</ele>
        <time>2021-08-11T13:22:54.246Z</time>
      </trkpt>
      <trkpt lat="46.87727" lon="8.47676">
        <ele>1968</ele>
        <time>2021-08-11T13:22:57.002Z</time>
      </trkpt>
      <trkpt lat="46.87728" lon="8.47676">
        <ele>1967</ele>
        <time>2021-08-11T13:22:58.003Z</time>
      </trkpt>
      <trkpt lat="46.87728" lon="8.47676">
        <ele>1968</ele>
        <time>2021-08-11T13:22:59.003Z</time>
      </trkpt>
      <trkpt lat="46.87728" lon="8.47676">
        <ele>1968</ele>
        <time>2021-08-11T13:23:00.002Z</time>
      </trkpt>
      <trkpt lat="46.87727" lon="8.47676">
        <ele>1967</ele>
        <time>2021-08-11T13:23:09.012Z</time>
      </trkpt>
      <trkpt lat="46.87727" lon="8.47676">
        <ele>1968</ele>
        <time>2021-08-11T13:23:10.012Z</time>
      </trkpt>
      <trkpt lat="46.87726" lon="8.47676">
        <ele>1968</ele>
        <time>2021-08-11T13:23:11.011Z</time>
      </trkpt>
      <trkpt lat="46.87726" lon="8.47675">
        <ele>1968</ele>
        <time>2021-08-11T13:23:12.012Z</time>
      </trkpt>
      <trkpt lat="46.87726" lon="8.47675">
        <ele>1967</ele>
        <time>2021-08-11T13:23:13.011Z</time>
      </trkpt>
      <trkpt lat="46.87726" lon="8.47675">
        <ele>1967</ele>
        <time>2021-08-11T13:23:14.012Z</time>
      </trkpt>
      <trkpt lat="46.87726" lon="8.47674">
        <ele>1966</ele>
        <time>2021-08-11T13:23:15.012Z</time>
      </trkpt>
      <trkpt lat="46.87725" lon="8.47673">
        <ele>1965</ele>
        <time>2021-08-11T13:23:16.011Z</time>
      </trkpt>
      <trkpt lat="46.87724" lon="8.47673">
        <ele>1965</ele>
        <time>2021-08-11T13:23:21.030Z</time>
      </trkpt>
      <trkpt lat="46.87724" lon="8.47673">
        <ele>1965</ele>
        <time>2021-08-11T13:23:22.031Z</time>
      </trkpt>
      <trkpt lat="46.87725" lon="8.47672">
        <ele>1965</ele>
        <time>2021-08-11T13:23:23.031Z</time>
      </trkpt>
      <trkpt lat="46.87725" lon="8.47671">
        <ele>1966</ele>
        <time>2021-08-11T13:23:29.140Z</time>
      </trkpt>
      <trkpt lat="46.87725" lon="8.47671">
        <ele>1966</ele>
        <time>2021-08-11T13:23:30.139Z</time>
      </trkpt>
      <trkpt lat="46.87725" lon="8.4767">
        <ele>1967</ele>
        <time>2021-08-11T13:23:31.140Z</time>
      </trkpt>
      <trkpt lat="46.87726" lon="8.4767">
        <ele>1967</ele>
        <time>2021-08-11T13:23:32.140Z</time>
      </trkpt>
      <trkpt lat="46.87726" lon="8.4767">
        <ele>1967</ele>
        <time>2021-08-11T13:23:33.139Z</time>
      </trkpt>
      <trkpt lat="46.87726" lon="8.4767">
        <ele>1967</ele>
        <time>2021-08-11T13:23:34.140Z</time>
      </trkpt>
      <trkpt lat="46.87727" lon="8.4767">
        <ele>1968</ele>
        <time>2021-08-11T13:23:35.139Z</time>
      </trkpt>
      <trkpt lat="46.87727" lon="8.4767">
        <ele>1968</ele>
        <time>2021-08-11T13:23:36.140Z</time>
      </trkpt>
      <trkpt lat="46.87727" lon="8.4767">
        <ele>1969</ele>
        <time>2021-08-11T13:23:37.139Z</time>
      </trkpt>
      <trkpt lat="46.87727" lon="8.4767">
        <ele>1969</ele>
        <time>2021-08-11T13:23:38.139Z</time>
      </trkpt>
      <trkpt lat="46.87728" lon="8.4767">
        <ele>1969</ele>
        <time>2021-08-11T13:23:39.140Z</time>
      </trkpt>
      <trkpt lat="46.87728" lon="8.47669">
        <ele>1969</ele>
        <time>2021-08-11T13:23:40.140Z</time>
      </trkpt>
      <trkpt lat="46.87728" lon="8.47669">
        <ele>1969</ele>
        <time>2021-08-11T13:23:41.140Z</time>
      </trkpt>
      <trkpt lat="46.87728" lon="8.47668">
        <ele>1973</ele>
        <time>2021-08-11T13:23:42.140Z</time>
      </trkpt>
      <trkpt lat="46.87728" lon="8.47667">
        <ele>1973</ele>
        <time>2021-08-11T13:23:43.140Z</time>
      </trkpt>
      <trkpt lat="46.87727" lon="8.47667">
        <ele>1972</ele>
        <time>2021-08-11T13:23:44.139Z</time>
      </trkpt>
      <trkpt lat="46.87727" lon="8.47666">
        <ele>1972</ele>
        <time>2021-08-11T13:23:45.140Z</time>
      </trkpt>
      <trkpt lat="46.87726" lon="8.47666">
        <ele>1972</ele>
        <time>2021-08-11T13:23:46.139Z</time>
      </trkpt>
      <trkpt lat="46.87725" lon="8.47666">
        <ele>1973</ele>
        <time>2021-08-11T13:23:47.140Z</time>
      </trkpt>
      <trkpt lat="46.87724" lon="8.47666">
        <ele>1973</ele>
        <time>2021-08-11T13:23:48.139Z</time>
      </trkpt>
      <trkpt lat="46.87724" lon="8.47665">
        <ele>1972</ele>
        <time>2021-08-11T13:23:49.139Z</time>
      </trkpt>
      <trkpt lat="46.87723" lon="8.47665">
        <ele>1972</ele>
        <time>2021-08-11T13:23:50.140Z</time>
      </trkpt>
      <trkpt lat="46.87723" lon="8.47665">
        <ele>1972</ele>
        <time>2021-08-11T13:23:51.140Z</time>
      </trkpt>
      <trkpt lat="46.87722" lon="8.47665">
        <ele>1972</ele>
        <time>2021-08-11T13:23:52.140Z</time>
      </trkpt>
      <trkpt lat="46.87722" lon="8.47665">
        <ele>1972</ele>
        <time>2021-08-11T13:23:53.139Z</time>
      </trkpt>
      <trkpt lat="46.87722" lon="8.47665">
        <ele>1971</ele>
        <time>2021-08-11T13:23:54.140Z</time>
      </trkpt>
      <trkpt lat="46.87723" lon="8.47664">
        <ele>1971</ele>
        <time>2021-08-11T13:23:55.139Z</time>
      </trkpt>
      <trkpt lat="46.87724" lon="8.47664">
        <ele>1970</ele>
        <time>2021-08-11T13:24:00.261Z</time>
      </trkpt>
      <trkpt lat="46.87724" lon="8.47664">
        <ele>1970</ele>
        <time>2021-08-11T13:24:01.260Z</time>
      </trkpt>
      <trkpt lat="46.87725" lon="8.47662">
        <ele>1970</ele>
        <time>2021-08-11T13:24:02.260Z</time>
      </trkpt>
      <trkpt lat="46.87725" lon="8.47661">
        <ele>1971</ele>
        <time>2021-08-11T13:24:03.261Z</time>
      </trkpt>
      <trkpt lat="46.87724" lon="8.4766">
        <ele>1972</ele>
        <time>2021-08-11T13:24:04.260Z</time>
      </trkpt>
      <trkpt lat="46.87724" lon="8.4766">
        <ele>1972</ele>
        <time>2021-08-11T13:24:12.383Z</time>
      </trkpt>
      <trkpt lat="46.87724" lon="8.4766">
        <ele>1972</ele>
        <time>2021-08-11T13:24:13.383Z</time>
      </trkpt>
      <trkpt lat="46.87725" lon="8.47659">
        <ele>1973</ele>
        <time>2021-08-11T13:24:14.384Z</time>
      </trkpt>
      <trkpt lat="46.87725" lon="8.47658">
        <ele>1973</ele>
        <time>2021-08-11T13:24:19.532Z</time>
      </trkpt>
      <trkpt lat="46.87725" lon="8.47657">
        <ele>1973</ele>
        <time>2021-08-11T13:24:20.531Z</time>
      </trkpt>
      <trkpt lat="46.87725" lon="8.47657">
        <ele>1973</ele>
        <time>2021-08-11T13:24:21.532Z</time>
      </trkpt>
      <trkpt lat="46.87725" lon="8.47657">
        <ele>1973</ele>
        <time>2021-08-11T13:24:22.531Z</time>
      </trkpt>
      <trkpt lat="46.87724" lon="8.47656">
        <ele>1972</ele>
        <time>2021-08-11T13:24:23.531Z</time>
      </trkpt>
      <trkpt lat="46.87724" lon="8.47655">
        <ele>1972</ele>
        <time>2021-08-11T13:24:24.532Z</time>
      </trkpt>
      <trkpt lat="46.87724" lon="8.47655">
        <ele>1972</ele>
        <time>2021-08-11T13:24:25.532Z</time>
      </trkpt>
      <trkpt lat="46.87724" lon="8.47654">
        <ele>1971</ele>
        <time>2021-08-11T13:24:26.532Z</time>
      </trkpt>
      <trkpt lat="46.87724" lon="8.47654">
        <ele>1971</ele>
        <time>2021-08-11T13:24:27.532Z</time>
      </trkpt>
      <trkpt lat="46.87724" lon="8.47653">
        <ele>1971</ele>
        <time>2021-08-11T13:24:28.531Z</time>
      </trkpt>
      <trkpt lat="46.87724" lon="8.47652">
        <ele>1971</ele>
        <time>2021-08-11T13:24:29.532Z</time>
      </trkpt>
      <trkpt lat="46.87724" lon="8.47651">
        <ele>1971</ele>
        <time>2021-08-11T13:24:30.532Z</time>
      </trkpt>
      <trkpt lat="46.87724" lon="8.4765">
        <ele>1971</ele>
        <time>2021-08-11T13:24:38.633Z</time>
      </trkpt>
      <trkpt lat="46.87723" lon="8.47649">
        <ele>1972</ele>
        <time>2021-08-11T13:24:39.632Z</time>
      </trkpt>
      <trkpt lat="46.87722" lon="8.47649">
        <ele>1973</ele>
        <time>2021-08-11T13:24:40.632Z</time>
      </trkpt>
      <trkpt lat="46.87721" lon="8.47649">
        <ele>1974</ele>
        <time>2021-08-11T13:24:53.776Z</time>
      </trkpt>
      <trkpt lat="46.8772" lon="8.47649">
        <ele>1974</ele>
        <time>2021-08-11T13:24:54.776Z</time>
      </trkpt>
      <trkpt lat="46.87719" lon="8.47648">
        <ele>1975</ele>
        <time>2021-08-11T13:24:56.642Z</time>
      </trkpt>
      <trkpt lat="46.87719" lon="8.47648">
        <ele>1976</ele>
        <time>2021-08-11T13:24:57.641Z</time>
      </trkpt>
      <trkpt lat="46.87719" lon="8.47648">
        <ele>1977</ele>
        <time>2021-08-11T13:25:03.524Z</time>
      </trkpt>
      <trkpt lat="46.87719" lon="8.47647">
        <ele>1978</ele>
        <time>2021-08-11T13:25:04.525Z</time>
      </trkpt>
      <trkpt lat="46.87719" lon="8.47647">
        <ele>1978</ele>
        <time>2021-08-11T13:25:27.377Z</time>
      </trkpt>
      <trkpt lat="46.87719" lon="8.47647">
        <ele>1977</ele>
        <time>2021-08-11T13:25:28.378Z</time>
      </trkpt>
      <trkpt lat="46.87719" lon="8.47647">
        <ele>1978</ele>
        <time>2021-08-11T13:25:29.378Z</time>
      </trkpt>
      <trkpt lat="46.87718" lon="8.47646">
        <ele>1978</ele>
        <time>2021-08-11T13:25:30.378Z</time>
      </trkpt>
      <trkpt lat="46.87718" lon="8.47646">
        <ele>1978</ele>
        <time>2021-08-11T13:25:31.378Z</time>
      </trkpt>
      <trkpt lat="46.87718" lon="8.47645">
        <ele>1978</ele>
        <time>2021-08-11T13:25:32.378Z</time>
      </trkpt>
      <trkpt lat="46.87717" lon="8.47644">
        <ele>1979</ele>
        <time>2021-08-11T13:25:33.377Z</time>
      </trkpt>
      <trkpt lat="46.87717" lon="8.47644">
        <ele>1979</ele>
        <time>2021-08-11T13:25:34.378Z</time>
      </trkpt>
      <trkpt lat="46.87716" lon="8.47644">
        <ele>1978</ele>
        <time>2021-08-11T13:25:35.378Z</time>
      </trkpt>
      <trkpt lat="46.87716" lon="8.47643">
        <ele>1978</ele>
        <time>2021-08-11T13:25:48.554Z</time>
      </trkpt>
      <trkpt lat="46.87716" lon="8.47643">
        <ele>1978</ele>
        <time>2021-08-11T13:25:49.554Z</time>
      </trkpt>
      <trkpt lat="46.87715" lon="8.47643">
        <ele>1978</ele>
        <time>2021-08-11T13:25:50.554Z</time>
      </trkpt>
      <trkpt lat="46.87714" lon="8.47643">
        <ele>1979</ele>
        <time>2021-08-11T13:25:52.636Z</time>
      </trkpt>
      <trkpt lat="46.87714" lon="8.47644">
        <ele>1979</ele>
        <time>2021-08-11T13:25:53.635Z</time>
      </trkpt>
      <trkpt lat="46.87714" lon="8.47644">
        <ele>1979</ele>
        <time>2021-08-11T13:25:54.636Z</time>
      </trkpt>
      <trkpt lat="46.87715" lon="8.47644">
        <ele>1979</ele>
        <time>2021-08-11T13:25:55.637Z</time>
      </trkpt>
      <trkpt lat="46.87715" lon="8.47644">
        <ele>1979</ele>
        <time>2021-08-11T13:25:56.637Z</time>
      </trkpt>
      <trkpt lat="46.87713" lon="8.47642">
        <ele>1980</ele>
        <time>2021-08-11T13:25:57.638Z</time>
      </trkpt>
      <trkpt lat="46.87714" lon="8.47642">
        <ele>1980</ele>
        <time>2021-08-11T13:25:58.637Z</time>
      </trkpt>
      <trkpt lat="46.87714" lon="8.47641">
        <ele>1980</ele>
        <time>2021-08-11T13:25:59.637Z</time>
      </trkpt>
      <trkpt lat="46.87714" lon="8.47641">
        <ele>1980</ele>
        <time>2021-08-11T13:26:00.638Z</time>
      </trkpt>
      <trkpt lat="46.87713" lon="8.4764">
        <ele>1982</ele>
        <time>2021-08-11T13:26:01.638Z</time>
      </trkpt>
      <trkpt lat="46.87712" lon="8.4764">
        <ele>1982</ele>
        <time>2021-08-11T13:26:02.637Z</time>
      </trkpt>
      <trkpt lat="46.87712" lon="8.47639">
        <ele>1983</ele>
        <time>2021-08-11T13:26:03.637Z</time>
      </trkpt>
      <trkpt lat="46.87711" lon="8.47639">
        <ele>1984</ele>
        <time>2021-08-11T13:26:04.638Z</time>
      </trkpt>
      <trkpt lat="46.87711" lon="8.47638">
        <ele>1985</ele>
        <time>2021-08-11T13:26:05.638Z</time>
      </trkpt>
      <trkpt lat="46.8771" lon="8.47637">
        <ele>1985</ele>
        <time>2021-08-11T13:26:06.638Z</time>
      </trkpt>
      <trkpt lat="46.8771" lon="8.47637">
        <ele>1986</ele>
        <time>2021-08-11T13:26:07.638Z</time>
      </trkpt>
      <trkpt lat="46.87709" lon="8.47636">
        <ele>1986</ele>
        <time>2021-08-11T13:26:08.638Z</time>
      </trkpt>
      <trkpt lat="46.87709" lon="8.47636">
        <ele>1987</ele>
        <time>2021-08-11T13:26:09.638Z</time>
      </trkpt>
      <trkpt lat="46.87708" lon="8.47636">
        <ele>1987</ele>
        <time>2021-08-11T13:26:10.638Z</time>
      </trkpt>
      <trkpt lat="46.87708" lon="8.47635">
        <ele>1986</ele>
        <time>2021-08-11T13:26:11.638Z</time>
      </trkpt>
      <trkpt lat="46.87708" lon="8.47634">
        <ele>1986</ele>
        <time>2021-08-11T13:26:12.638Z</time>
      </trkpt>
      <trkpt lat="46.87708" lon="8.47634">
        <ele>1986</ele>
        <time>2021-08-11T13:26:13.638Z</time>
      </trkpt>
      <trkpt lat="46.87708" lon="8.47634">
        <ele>1985</ele>
        <time>2021-08-11T13:26:19.635Z</time>
      </trkpt>
      <trkpt lat="46.87708" lon="8.47632">
        <ele>1985</ele>
        <time>2021-08-11T13:26:20.635Z</time>
      </trkpt>
      <trkpt lat="46.87708" lon="8.47632">
        <ele>1985</ele>
        <time>2021-08-11T13:26:21.636Z</time>
      </trkpt>
      <trkpt lat="46.87708" lon="8.47631">
        <ele>1985</ele>
        <time>2021-08-11T13:26:22.635Z</time>
      </trkpt>
      <trkpt lat="46.87707" lon="8.47631">
        <ele>1984</ele>
        <time>2021-08-11T13:26:23.635Z</time>
      </trkpt>
      <trkpt lat="46.87707" lon="8.4763">
        <ele>1984</ele>
        <time>2021-08-11T13:26:24.636Z</time>
      </trkpt>
      <trkpt lat="46.87707" lon="8.47629">
        <ele>1984</ele>
        <time>2021-08-11T13:26:25.636Z</time>
      </trkpt>
      <trkpt lat="46.87707" lon="8.47628">
        <ele>1984</ele>
        <time>2021-08-11T13:26:26.636Z</time>
      </trkpt>
      <trkpt lat="46.87706" lon="8.47628">
        <ele>1984</ele>
        <time>2021-08-11T13:26:27.635Z</time>
      </trkpt>
      <trkpt lat="46.87706" lon="8.47628">
        <ele>1984</ele>
        <time>2021-08-11T13:26:28.635Z</time>
      </trkpt>
      <trkpt lat="46.87706" lon="8.47627">
        <ele>1985</ele>
        <time>2021-08-11T13:26:29.636Z</time>
      </trkpt>
      <trkpt lat="46.87706" lon="8.47626">
        <ele>1985</ele>
        <time>2021-08-11T13:26:30.636Z</time>
      </trkpt>
      <trkpt lat="46.87706" lon="8.47626">
        <ele>1985</ele>
        <time>2021-08-11T13:26:31.636Z</time>
      </trkpt>
      <trkpt lat="46.87705" lon="8.47625">
        <ele>1985</ele>
        <time>2021-08-11T13:26:32.636Z</time>
      </trkpt>
      <trkpt lat="46.87705" lon="8.47625">
        <ele>1985</ele>
        <time>2021-08-11T13:26:33.636Z</time>
      </trkpt>
      <trkpt lat="46.87705" lon="8.47624">
        <ele>1985</ele>
        <time>2021-08-11T13:26:34.635Z</time>
      </trkpt>
      <trkpt lat="46.87705" lon="8.47624">
        <ele>1985</ele>
        <time>2021-08-11T13:26:35.636Z</time>
      </trkpt>
      <trkpt lat="46.87704" lon="8.47623">
        <ele>1985</ele>
        <time>2021-08-11T13:26:36.636Z</time>
      </trkpt>
      <trkpt lat="46.87704" lon="8.47623">
        <ele>1985</ele>
        <time>2021-08-11T13:26:37.636Z</time>
      </trkpt>
      <trkpt lat="46.87703" lon="8.47622">
        <ele>1985</ele>
        <time>2021-08-11T13:26:38.636Z</time>
      </trkpt>
      <trkpt lat="46.87703" lon="8.47622">
        <ele>1985</ele>
        <time>2021-08-11T13:26:39.635Z</time>
      </trkpt>
      <trkpt lat="46.87703" lon="8.47622">
        <ele>1986</ele>
        <time>2021-08-11T13:26:40.636Z</time>
      </trkpt>
      <trkpt lat="46.87703" lon="8.47621">
        <ele>1986</ele>
        <time>2021-08-11T13:26:41.636Z</time>
      </trkpt>
      <trkpt lat="46.87702" lon="8.47621">
        <ele>1986</ele>
        <time>2021-08-11T13:26:42.636Z</time>
      </trkpt>
      <trkpt lat="46.87702" lon="8.47621">
        <ele>1986</ele>
        <time>2021-08-11T13:26:43.635Z</time>
      </trkpt>
      <trkpt lat="46.87702" lon="8.47621">
        <ele>1985</ele>
        <time>2021-08-11T13:26:44.635Z</time>
      </trkpt>
      <trkpt lat="46.87701" lon="8.47616">
        <ele>1986</ele>
        <time>2021-08-11T13:26:45.637Z</time>
      </trkpt>
      <trkpt lat="46.877" lon="8.47616">
        <ele>1987</ele>
        <time>2021-08-11T13:26:46.637Z</time>
      </trkpt>
      <trkpt lat="46.877" lon="8.47615">
        <ele>1987</ele>
        <time>2021-08-11T13:26:47.637Z</time>
      </trkpt>
      <trkpt lat="46.87699" lon="8.47616">
        <ele>1988</ele>
        <time>2021-08-11T13:26:48.636Z</time>
      </trkpt>
      <trkpt lat="46.87699" lon="8.47616">
        <ele>1988</ele>
        <time>2021-08-11T13:26:49.636Z</time>
      </trkpt>
      <trkpt lat="46.87699" lon="8.47615">
        <ele>1989</ele>
        <time>2021-08-11T13:26:50.637Z</time>
      </trkpt>
      <trkpt lat="46.87699" lon="8.47615">
        <ele>1989</ele>
        <time>2021-08-11T13:26:51.637Z</time>
      </trkpt>
      <trkpt lat="46.87698" lon="8.47614">
        <ele>1989</ele>
        <time>2021-08-11T13:26:52.637Z</time>
      </trkpt>
      <trkpt lat="46.87698" lon="8.47614">
        <ele>1989</ele>
        <time>2021-08-11T13:26:53.637Z</time>
      </trkpt>
      <trkpt lat="46.87698" lon="8.47614">
        <ele>1989</ele>
        <time>2021-08-11T13:26:54.637Z</time>
      </trkpt>
      <trkpt lat="46.87698" lon="8.47614">
        <ele>1989</ele>
        <time>2021-08-11T13:26:55.637Z</time>
      </trkpt>
      <trkpt lat="46.87697" lon="8.47611">
        <ele>1985</ele>
        <time>2021-08-11T13:26:56.637Z</time>
      </trkpt>
      <trkpt lat="46.87697" lon="8.4761">
        <ele>1986</ele>
        <time>2021-08-11T13:26:57.637Z</time>
      </trkpt>
      <trkpt lat="46.87696" lon="8.4761">
        <ele>1986</ele>
        <time>2021-08-11T13:26:58.636Z</time>
      </trkpt>
      <trkpt lat="46.87696" lon="8.4761">
        <ele>1986</ele>
        <time>2021-08-11T13:26:59.637Z</time>
      </trkpt>
      <trkpt lat="46.87695" lon="8.47609">
        <ele>1987</ele>
        <time>2021-08-11T13:27:00.636Z</time>
      </trkpt>
      <trkpt lat="46.87695" lon="8.47609">
        <ele>1988</ele>
        <time>2021-08-11T13:27:01.636Z</time>
      </trkpt>
      <trkpt lat="46.87694" lon="8.47609">
        <ele>1988</ele>
        <time>2021-08-11T13:27:02.637Z</time>
      </trkpt>
      <trkpt lat="46.87694" lon="8.47609">
        <ele>1988</ele>
        <time>2021-08-11T13:27:03.637Z</time>
      </trkpt>
      <trkpt lat="46.87694" lon="8.47609">
        <ele>1988</ele>
        <time>2021-08-11T13:27:04.636Z</time>
      </trkpt>
      <trkpt lat="46.87693" lon="8.47608">
        <ele>1988</ele>
        <time>2021-08-11T13:27:05.637Z</time>
      </trkpt>
      <trkpt lat="46.87693" lon="8.47608">
        <ele>1988</ele>
        <time>2021-08-11T13:27:06.636Z</time>
      </trkpt>
      <trkpt lat="46.87693" lon="8.47608">
        <ele>1988</ele>
        <time>2021-08-11T13:27:07.637Z</time>
      </trkpt>
      <trkpt lat="46.87692" lon="8.47607">
        <ele>1988</ele>
        <time>2021-08-11T13:27:08.637Z</time>
      </trkpt>
      <trkpt lat="46.87692" lon="8.47607">
        <ele>1988</ele>
        <time>2021-08-11T13:27:09.637Z</time>
      </trkpt>
      <trkpt lat="46.87691" lon="8.47606">
        <ele>1988</ele>
        <time>2021-08-11T13:27:10.637Z</time>
      </trkpt>
      <trkpt lat="46.87691" lon="8.47606">
        <ele>1988</ele>
        <time>2021-08-11T13:27:11.637Z</time>
      </trkpt>
      <trkpt lat="46.8769" lon="8.47605">
        <ele>1988</ele>
        <time>2021-08-11T13:27:12.637Z</time>
      </trkpt>
      <trkpt lat="46.8769" lon="8.47605">
        <ele>1988</ele>
        <time>2021-08-11T13:27:13.637Z</time>
      </trkpt>
      <trkpt lat="46.8769" lon="8.47605">
        <ele>1988</ele>
        <time>2021-08-11T13:27:14.636Z</time>
      </trkpt>
      <trkpt lat="46.87689" lon="8.47605">
        <ele>1988</ele>
        <time>2021-08-11T13:27:15.637Z</time>
      </trkpt>
      <trkpt lat="46.87688" lon="8.47605">
        <ele>1988</ele>
        <time>2021-08-11T13:27:16.637Z</time>
      </trkpt>
      <trkpt lat="46.87688" lon="8.47605">
        <ele>1989</ele>
        <time>2021-08-11T13:27:17.636Z</time>
      </trkpt>
      <trkpt lat="46.87687" lon="8.47604">
        <ele>1989</ele>
        <time>2021-08-11T13:27:18.636Z</time>
      </trkpt>
      <trkpt lat="46.87687" lon="8.47603">
        <ele>1989</ele>
        <time>2021-08-11T13:27:19.637Z</time>
      </trkpt>
      <trkpt lat="46.87687" lon="8.47602">
        <ele>1989</ele>
        <time>2021-08-11T13:27:20.637Z</time>
      </trkpt>
      <trkpt lat="46.87686" lon="8.47602">
        <ele>1988</ele>
        <time>2021-08-11T13:27:21.637Z</time>
      </trkpt>
      <trkpt lat="46.87685" lon="8.47602">
        <ele>1988</ele>
        <time>2021-08-11T13:27:22.637Z</time>
      </trkpt>
      <trkpt lat="46.87684" lon="8.47602">
        <ele>1987</ele>
        <time>2021-08-11T13:27:23.636Z</time>
      </trkpt>
      <trkpt lat="46.87683" lon="8.47602">
        <ele>1987</ele>
        <time>2021-08-11T13:27:24.636Z</time>
      </trkpt>
      <trkpt lat="46.87682" lon="8.47602">
        <ele>1988</ele>
        <time>2021-08-11T13:27:25.636Z</time>
      </trkpt>
      <trkpt lat="46.87682" lon="8.47601">
        <ele>1988</ele>
        <time>2021-08-11T13:27:26.636Z</time>
      </trkpt>
      <trkpt lat="46.87681" lon="8.47601">
        <ele>1988</ele>
        <time>2021-08-11T13:27:27.637Z</time>
      </trkpt>
      <trkpt lat="46.87681" lon="8.476">
        <ele>1989</ele>
        <time>2021-08-11T13:27:28.637Z</time>
      </trkpt>
      <trkpt lat="46.8768" lon="8.476">
        <ele>1989</ele>
        <time>2021-08-11T13:27:29.637Z</time>
      </trkpt>
      <trkpt lat="46.8768" lon="8.476">
        <ele>1990</ele>
        <time>2021-08-11T13:27:30.636Z</time>
      </trkpt>
      <trkpt lat="46.8768" lon="8.476">
        <ele>1990</ele>
        <time>2021-08-11T13:27:31.636Z</time>
      </trkpt>
      <trkpt lat="46.87679" lon="8.47599">
        <ele>1990</ele>
        <time>2021-08-11T13:27:32.637Z</time>
      </trkpt>
      <trkpt lat="46.87679" lon="8.47599">
        <ele>1990</ele>
        <time>2021-08-11T13:27:33.637Z</time>
      </trkpt>
      <trkpt lat="46.8768" lon="8.47598">
        <ele>1989</ele>
        <time>2021-08-11T13:27:34.637Z</time>
      </trkpt>
      <trkpt lat="46.87679" lon="8.47597">
        <ele>1989</ele>
        <time>2021-08-11T13:27:35.637Z</time>
      </trkpt>
      <trkpt lat="46.87678" lon="8.47597">
        <ele>1989</ele>
        <time>2021-08-11T13:27:36.636Z</time>
      </trkpt>
      <trkpt lat="46.87677" lon="8.47596">
        <ele>1988</ele>
        <time>2021-08-11T13:27:37.637Z</time>
      </trkpt>
      <trkpt lat="46.87676" lon="8.47595">
        <ele>1989</ele>
        <time>2021-08-11T13:27:38.637Z</time>
      </trkpt>
      <trkpt lat="46.87676" lon="8.47594">
        <ele>1989</ele>
        <time>2021-08-11T13:27:39.637Z</time>
      </trkpt>
      <trkpt lat="46.87676" lon="8.47594">
        <ele>1990</ele>
        <time>2021-08-11T13:27:40.637Z</time>
      </trkpt>
      <trkpt lat="46.87676" lon="8.47594">
        <ele>1991</ele>
        <time>2021-08-11T13:27:41.636Z</time>
      </trkpt>
      <trkpt lat="46.87675" lon="8.47593">
        <ele>1991</ele>
        <time>2021-08-11T13:27:42.637Z</time>
      </trkpt>
      <trkpt lat="46.87675" lon="8.47593">
        <ele>1992</ele>
        <time>2021-08-11T13:27:43.637Z</time>
      </trkpt>
      <trkpt lat="46.87674" lon="8.47593">
        <ele>1992</ele>
        <time>2021-08-11T13:27:44.636Z</time>
      </trkpt>
      <trkpt lat="46.87674" lon="8.47593">
        <ele>1992</ele>
        <time>2021-08-11T13:27:45.636Z</time>
      </trkpt>
      <trkpt lat="46.87673" lon="8.47593">
        <ele>1992</ele>
        <time>2021-08-11T13:27:46.637Z</time>
      </trkpt>
      <trkpt lat="46.87673" lon="8.47593">
        <ele>1992</ele>
        <time>2021-08-11T13:27:47.636Z</time>
      </trkpt>
      <trkpt lat="46.87672" lon="8.47593">
        <ele>1993</ele>
        <time>2021-08-11T13:27:48.636Z</time>
      </trkpt>
      <trkpt lat="46.87672" lon="8.47592">
        <ele>1993</ele>
        <time>2021-08-11T13:27:49.637Z</time>
      </trkpt>
      <trkpt lat="46.87671" lon="8.47592">
        <ele>1994</ele>
        <time>2021-08-11T13:27:50.637Z</time>
      </trkpt>
      <trkpt lat="46.8767" lon="8.47592">
        <ele>1995</ele>
        <time>2021-08-11T13:27:51.636Z</time>
      </trkpt>
      <trkpt lat="46.8767" lon="8.47592">
        <ele>1996</ele>
        <time>2021-08-11T13:27:52.636Z</time>
      </trkpt>
      <trkpt lat="46.87669" lon="8.47592">
        <ele>1997</ele>
        <time>2021-08-11T13:27:53.637Z</time>
      </trkpt>
      <trkpt lat="46.87668" lon="8.47592">
        <ele>1998</ele>
        <time>2021-08-11T13:27:54.637Z</time>
      </trkpt>
      <trkpt lat="46.87667" lon="8.47592">
        <ele>1998</ele>
        <time>2021-08-11T13:27:55.637Z</time>
      </trkpt>
      <trkpt lat="46.87666" lon="8.47592">
        <ele>1999</ele>
        <time>2021-08-11T13:27:56.637Z</time>
      </trkpt>
      <trkpt lat="46.87666" lon="8.47591">
        <ele>1999</ele>
        <time>2021-08-11T13:27:57.636Z</time>
      </trkpt>
      <trkpt lat="46.87665" lon="8.47591">
        <ele>1999</ele>
        <time>2021-08-11T13:27:58.637Z</time>
      </trkpt>
      <trkpt lat="46.87665" lon="8.4759">
        <ele>1999</ele>
        <time>2021-08-11T13:27:59.637Z</time>
      </trkpt>
      <trkpt lat="46.87665" lon="8.4759">
        <ele>1999</ele>
        <time>2021-08-11T13:28:00.637Z</time>
      </trkpt>
      <trkpt lat="46.87665" lon="8.47589">
        <ele>1998</ele>
        <time>2021-08-11T13:28:01.637Z</time>
      </trkpt>
      <trkpt lat="46.87664" lon="8.47589">
        <ele>1998</ele>
        <time>2021-08-11T13:28:02.636Z</time>
      </trkpt>
      <trkpt lat="46.87664" lon="8.47589">
        <ele>1997</ele>
        <time>2021-08-11T13:28:03.637Z</time>
      </trkpt>
      <trkpt lat="46.87663" lon="8.47588">
        <ele>1997</ele>
        <time>2021-08-11T13:28:04.637Z</time>
      </trkpt>
      <trkpt lat="46.87662" lon="8.47589">
        <ele>1996</ele>
        <time>2021-08-11T13:28:05.636Z</time>
      </trkpt>
      <trkpt lat="46.87662" lon="8.47589">
        <ele>1997</ele>
        <time>2021-08-11T13:28:06.637Z</time>
      </trkpt>
      <trkpt lat="46.87661" lon="8.4759">
        <ele>1997</ele>
        <time>2021-08-11T13:28:07.637Z</time>
      </trkpt>
      <trkpt lat="46.8766" lon="8.4759">
        <ele>1997</ele>
        <time>2021-08-11T13:28:08.636Z</time>
      </trkpt>
      <trkpt lat="46.87659" lon="8.4759">
        <ele>1998</ele>
        <time>2021-08-11T13:28:09.637Z</time>
      </trkpt>
      <trkpt lat="46.87659" lon="8.4759">
        <ele>1998</ele>
        <time>2021-08-11T13:28:10.637Z</time>
      </trkpt>
      <trkpt lat="46.87658" lon="8.4759">
        <ele>1998</ele>
        <time>2021-08-11T13:28:11.637Z</time>
      </trkpt>
      <trkpt lat="46.87657" lon="8.47589">
        <ele>1998</ele>
        <time>2021-08-11T13:28:12.637Z</time>
      </trkpt>
      <trkpt lat="46.87657" lon="8.47589">
        <ele>1998</ele>
        <time>2021-08-11T13:28:13.636Z</time>
      </trkpt>
      <trkpt lat="46.87656" lon="8.47589">
        <ele>1998</ele>
        <time>2021-08-11T13:28:14.637Z</time>
      </trkpt>
      <trkpt lat="46.87655" lon="8.47589">
        <ele>1998</ele>
        <time>2021-08-11T13:28:15.637Z</time>
      </trkpt>
      <trkpt lat="46.87655" lon="8.47589">
        <ele>1998</ele>
        <time>2021-08-11T13:28:16.637Z</time>
      </trkpt>
      <trkpt lat="46.87654" lon="8.47588">
        <ele>1998</ele>
        <time>2021-08-11T13:28:17.637Z</time>
      </trkpt>
      <trkpt lat="46.87654" lon="8.47588">
        <ele>1999</ele>
        <time>2021-08-11T13:28:18.636Z</time>
      </trkpt>
      <trkpt lat="46.87653" lon="8.47588">
        <ele>1999</ele>
        <time>2021-08-11T13:28:19.637Z</time>
      </trkpt>
      <trkpt lat="46.87653" lon="8.47587">
        <ele>1999</ele>
        <time>2021-08-11T13:28:20.636Z</time>
      </trkpt>
      <trkpt lat="46.87652" lon="8.47587">
        <ele>2000</ele>
        <time>2021-08-11T13:28:21.636Z</time>
      </trkpt>
      <trkpt lat="46.87651" lon="8.47586">
        <ele>2001</ele>
        <time>2021-08-11T13:28:22.637Z</time>
      </trkpt>
      <trkpt lat="46.8765" lon="8.47586">
        <ele>2002</ele>
        <time>2021-08-11T13:28:23.636Z</time>
      </trkpt>
      <trkpt lat="46.87649" lon="8.47586">
        <ele>2003</ele>
        <time>2021-08-11T13:28:24.637Z</time>
      </trkpt>
      <trkpt lat="46.87648" lon="8.47586">
        <ele>2003</ele>
        <time>2021-08-11T13:28:25.637Z</time>
      </trkpt>
      <trkpt lat="46.87647" lon="8.47586">
        <ele>2004</ele>
        <time>2021-08-11T13:28:26.636Z</time>
      </trkpt>
      <trkpt lat="46.87647" lon="8.47586">
        <ele>2004</ele>
        <time>2021-08-11T13:28:27.637Z</time>
      </trkpt>
      <trkpt lat="46.87646" lon="8.47586">
        <ele>2004</ele>
        <time>2021-08-11T13:28:28.637Z</time>
      </trkpt>
      <trkpt lat="46.87645" lon="8.47586">
        <ele>2004</ele>
        <time>2021-08-11T13:28:29.637Z</time>
      </trkpt>
      <trkpt lat="46.87644" lon="8.47586">
        <ele>2004</ele>
        <time>2021-08-11T13:28:30.637Z</time>
      </trkpt>
      <trkpt lat="46.87644" lon="8.47585">
        <ele>2004</ele>
        <time>2021-08-11T13:28:31.637Z</time>
      </trkpt>
      <trkpt lat="46.87643" lon="8.47585">
        <ele>2004</ele>
        <time>2021-08-11T13:28:32.637Z</time>
      </trkpt>
      <trkpt lat="46.87643" lon="8.47586">
        <ele>2004</ele>
        <time>2021-08-11T13:28:33.637Z</time>
      </trkpt>
      <trkpt lat="46.87643" lon="8.47586">
        <ele>2004</ele>
        <time>2021-08-11T13:28:34.636Z</time>
      </trkpt>
      <trkpt lat="46.87642" lon="8.47585">
        <ele>2003</ele>
        <time>2021-08-11T13:28:35.636Z</time>
      </trkpt>
      <trkpt lat="46.87641" lon="8.47587">
        <ele>2002</ele>
        <time>2021-08-11T13:28:36.636Z</time>
      </trkpt>
      <trkpt lat="46.87639" lon="8.47586">
        <ele>2002</ele>
        <time>2021-08-11T13:28:37.636Z</time>
      </trkpt>
      <trkpt lat="46.87638" lon="8.47586">
        <ele>2002</ele>
        <time>2021-08-11T13:28:38.636Z</time>
      </trkpt>
      <trkpt lat="46.87638" lon="8.47586">
        <ele>2003</ele>
        <time>2021-08-11T13:28:39.637Z</time>
      </trkpt>
      <trkpt lat="46.87637" lon="8.47586">
        <ele>2004</ele>
        <time>2021-08-11T13:28:40.637Z</time>
      </trkpt>
      <trkpt lat="46.87637" lon="8.47585">
        <ele>2004</ele>
        <time>2021-08-11T13:28:41.636Z</time>
      </trkpt>
      <trkpt lat="46.87637" lon="8.47585">
        <ele>2005</ele>
        <time>2021-08-11T13:28:42.636Z</time>
      </trkpt>
      <trkpt lat="46.87636" lon="8.47585">
        <ele>2005</ele>
        <time>2021-08-11T13:28:43.636Z</time>
      </trkpt>
      <trkpt lat="46.87635" lon="8.47586">
        <ele>2004</ele>
        <time>2021-08-11T13:28:44.637Z</time>
      </trkpt>
      <trkpt lat="46.87635" lon="8.47587">
        <ele>2003</ele>
        <time>2021-08-11T13:28:45.637Z</time>
      </trkpt>
      <trkpt lat="46.87634" lon="8.47587">
        <ele>2003</ele>
        <time>2021-08-11T13:28:46.637Z</time>
      </trkpt>
      <trkpt lat="46.87634" lon="8.47588">
        <ele>2003</ele>
        <time>2021-08-11T13:28:47.637Z</time>
      </trkpt>
      <trkpt lat="46.87633" lon="8.47588">
        <ele>2003</ele>
        <time>2021-08-11T13:28:48.637Z</time>
      </trkpt>
      <trkpt lat="46.87633" lon="8.47588">
        <ele>2004</ele>
        <time>2021-08-11T13:28:49.636Z</time>
      </trkpt>
      <trkpt lat="46.87632" lon="8.47589">
        <ele>2004</ele>
        <time>2021-08-11T13:28:50.636Z</time>
      </trkpt>
      <trkpt lat="46.87632" lon="8.47589">
        <ele>2005</ele>
        <time>2021-08-11T13:28:51.637Z</time>
      </trkpt>
      <trkpt lat="46.87632" lon="8.4759">
        <ele>2005</ele>
        <time>2021-08-11T13:28:52.636Z</time>
      </trkpt>
      <trkpt lat="46.87632" lon="8.47591">
        <ele>2005</ele>
        <time>2021-08-11T13:28:53.636Z</time>
      </trkpt>
      <trkpt lat="46.87631" lon="8.47592">
        <ele>2005</ele>
        <time>2021-08-11T13:28:54.636Z</time>
      </trkpt>
      <trkpt lat="46.87631" lon="8.47593">
        <ele>2006</ele>
        <time>2021-08-11T13:28:55.636Z</time>
      </trkpt>
      <trkpt lat="46.8763" lon="8.47594">
        <ele>2007</ele>
        <time>2021-08-11T13:28:56.636Z</time>
      </trkpt>
      <trkpt lat="46.8763" lon="8.47595">
        <ele>2007</ele>
        <time>2021-08-11T13:28:57.636Z</time>
      </trkpt>
      <trkpt lat="46.8763" lon="8.47595">
        <ele>2007</ele>
        <time>2021-08-11T13:28:58.636Z</time>
      </trkpt>
      <trkpt lat="46.8763" lon="8.47596">
        <ele>2007</ele>
        <time>2021-08-11T13:28:59.636Z</time>
      </trkpt>
      <trkpt lat="46.8763" lon="8.47597">
        <ele>2007</ele>
        <time>2021-08-11T13:29:00.636Z</time>
      </trkpt>
      <trkpt lat="46.87629" lon="8.47599">
        <ele>2007</ele>
        <time>2021-08-11T13:29:01.636Z</time>
      </trkpt>
      <trkpt lat="46.87629" lon="8.476">
        <ele>2007</ele>
        <time>2021-08-11T13:29:02.636Z</time>
      </trkpt>
      <trkpt lat="46.87628" lon="8.47601">
        <ele>2007</ele>
        <time>2021-08-11T13:29:03.636Z</time>
      </trkpt>
      <trkpt lat="46.87628" lon="8.47602">
        <ele>2007</ele>
        <time>2021-08-11T13:29:04.636Z</time>
      </trkpt>
      <trkpt lat="46.87628" lon="8.47603">
        <ele>2007</ele>
        <time>2021-08-11T13:29:05.636Z</time>
      </trkpt>
      <trkpt lat="46.87628" lon="8.47604">
        <ele>2007</ele>
        <time>2021-08-11T13:29:06.636Z</time>
      </trkpt>
      <trkpt lat="46.87628" lon="8.47605">
        <ele>2006</ele>
        <time>2021-08-11T13:29:07.636Z</time>
      </trkpt>
      <trkpt lat="46.87627" lon="8.47606">
        <ele>2006</ele>
        <time>2021-08-11T13:29:08.636Z</time>
      </trkpt>
      <trkpt lat="46.87627" lon="8.47607">
        <ele>2006</ele>
        <time>2021-08-11T13:29:09.636Z</time>
      </trkpt>
      <trkpt lat="46.87627" lon="8.47607">
        <ele>2006</ele>
        <time>2021-08-11T13:29:10.636Z</time>
      </trkpt>
      <trkpt lat="46.87627" lon="8.47608">
        <ele>2006</ele>
        <time>2021-08-11T13:29:11.636Z</time>
      </trkpt>
      <trkpt lat="46.87627" lon="8.47609">
        <ele>2006</ele>
        <time>2021-08-11T13:29:12.636Z</time>
      </trkpt>
      <trkpt lat="46.87627" lon="8.4761">
        <ele>2006</ele>
        <time>2021-08-11T13:29:13.637Z</time>
      </trkpt>
      <trkpt lat="46.87627" lon="8.47611">
        <ele>2006</ele>
        <time>2021-08-11T13:29:14.636Z</time>
      </trkpt>
      <trkpt lat="46.87627" lon="8.47612">
        <ele>2006</ele>
        <time>2021-08-11T13:29:15.636Z</time>
      </trkpt>
      <trkpt lat="46.87627" lon="8.47612">
        <ele>2006</ele>
        <time>2021-08-11T13:29:16.636Z</time>
      </trkpt>
      <trkpt lat="46.87627" lon="8.47613">
        <ele>2006</ele>
        <time>2021-08-11T13:29:17.636Z</time>
      </trkpt>
      <trkpt lat="46.87627" lon="8.47615">
        <ele>2006</ele>
        <time>2021-08-11T13:29:18.636Z</time>
      </trkpt>
      <trkpt lat="46.87627" lon="8.47615">
        <ele>2007</ele>
        <time>2021-08-11T13:29:19.636Z</time>
      </trkpt>
      <trkpt lat="46.87627" lon="8.47616">
        <ele>2007</ele>
        <time>2021-08-11T13:29:20.636Z</time>
      </trkpt>
      <trkpt lat="46.87627" lon="8.47617">
        <ele>2007</ele>
        <time>2021-08-11T13:29:21.636Z</time>
      </trkpt>
      <trkpt lat="46.87627" lon="8.47617">
        <ele>2008</ele>
        <time>2021-08-11T13:29:22.636Z</time>
      </trkpt>
      <trkpt lat="46.87627" lon="8.47618">
        <ele>2008</ele>
        <time>2021-08-11T13:29:23.637Z</time>
      </trkpt>
      <trkpt lat="46.87626" lon="8.47619">
        <ele>2007</ele>
        <time>2021-08-11T13:29:24.636Z</time>
      </trkpt>
      <trkpt lat="46.87626" lon="8.47619">
        <ele>2008</ele>
        <time>2021-08-11T13:29:25.636Z</time>
      </trkpt>
      <trkpt lat="46.87626" lon="8.4762">
        <ele>2008</ele>
        <time>2021-08-11T13:29:26.636Z</time>
      </trkpt>
      <trkpt lat="46.87626" lon="8.4762">
        <ele>2009</ele>
        <time>2021-08-11T13:29:27.636Z</time>
      </trkpt>
      <trkpt lat="46.87626" lon="8.47621">
        <ele>2009</ele>
        <time>2021-08-11T13:29:28.636Z</time>
      </trkpt>
      <trkpt lat="46.87626" lon="8.47621">
        <ele>2009</ele>
        <time>2021-08-11T13:29:29.636Z</time>
      </trkpt>
      <trkpt lat="46.87625" lon="8.47622">
        <ele>2009</ele>
        <time>2021-08-11T13:29:30.636Z</time>
      </trkpt>
      <trkpt lat="46.87625" lon="8.47622">
        <ele>2010</ele>
        <time>2021-08-11T13:29:31.637Z</time>
      </trkpt>
      <trkpt lat="46.87625" lon="8.47623">
        <ele>2010</ele>
        <time>2021-08-11T13:29:32.637Z</time>
      </trkpt>
      <trkpt lat="46.87625" lon="8.47623">
        <ele>2010</ele>
        <time>2021-08-11T13:29:33.636Z</time>
      </trkpt>
      <trkpt lat="46.87625" lon="8.47624">
        <ele>2010</ele>
        <time>2021-08-11T13:29:34.636Z</time>
      </trkpt>
      <trkpt lat="46.87624" lon="8.47624">
        <ele>2011</ele>
        <time>2021-08-11T13:29:35.636Z</time>
      </trkpt>
      <trkpt lat="46.87624" lon="8.47624">
        <ele>2011</ele>
        <time>2021-08-11T13:29:36.636Z</time>
      </trkpt>
      <trkpt lat="46.87624" lon="8.47625">
        <ele>2012</ele>
        <time>2021-08-11T13:29:37.636Z</time>
      </trkpt>
      <trkpt lat="46.87623" lon="8.47625">
        <ele>2013</ele>
        <time>2021-08-11T13:29:38.636Z</time>
      </trkpt>
      <trkpt lat="46.87623" lon="8.47626">
        <ele>2014</ele>
        <time>2021-08-11T13:29:39.636Z</time>
      </trkpt>
      <trkpt lat="46.87623" lon="8.47627">
        <ele>2015</ele>
        <time>2021-08-11T13:29:40.636Z</time>
      </trkpt>
      <trkpt lat="46.87622" lon="8.47627">
        <ele>2016</ele>
        <time>2021-08-11T13:29:41.637Z</time>
      </trkpt>
      <trkpt lat="46.87622" lon="8.47627">
        <ele>2016</ele>
        <time>2021-08-11T13:29:42.637Z</time>
      </trkpt>
      <trkpt lat="46.87622" lon="8.47627">
        <ele>2017</ele>
        <time>2021-08-11T13:29:43.636Z</time>
      </trkpt>
      <trkpt lat="46.87621" lon="8.47627">
        <ele>2017</ele>
        <time>2021-08-11T13:29:44.636Z</time>
      </trkpt>
      <trkpt lat="46.87621" lon="8.47627">
        <ele>2016</ele>
        <time>2021-08-11T13:29:45.636Z</time>
      </trkpt>
      <trkpt lat="46.8762" lon="8.47628">
        <ele>2016</ele>
        <time>2021-08-11T13:29:46.636Z</time>
      </trkpt>
      <trkpt lat="46.87619" lon="8.47629">
        <ele>2016</ele>
        <time>2021-08-11T13:29:47.636Z</time>
      </trkpt>
      <trkpt lat="46.87619" lon="8.4763">
        <ele>2016</ele>
        <time>2021-08-11T13:29:48.636Z</time>
      </trkpt>
      <trkpt lat="46.87618" lon="8.4763">
        <ele>2017</ele>
        <time>2021-08-11T13:29:49.636Z</time>
      </trkpt>
      <trkpt lat="46.87618" lon="8.4763">
        <ele>2017</ele>
        <time>2021-08-11T13:29:50.636Z</time>
      </trkpt>
      <trkpt lat="46.87617" lon="8.4763">
        <ele>2018</ele>
        <time>2021-08-11T13:29:51.636Z</time>
      </trkpt>
      <trkpt lat="46.87617" lon="8.47631">
        <ele>2018</ele>
        <time>2021-08-11T13:29:52.636Z</time>
      </trkpt>
      <trkpt lat="46.87617" lon="8.47631">
        <ele>2018</ele>
        <time>2021-08-11T13:29:53.636Z</time>
      </trkpt>
      <trkpt lat="46.87617" lon="8.47631">
        <ele>2019</ele>
        <time>2021-08-11T13:29:54.636Z</time>
      </trkpt>
      <trkpt lat="46.87616" lon="8.47631">
        <ele>2019</ele>
        <time>2021-08-11T13:29:55.636Z</time>
      </trkpt>
      <trkpt lat="46.87616" lon="8.47631">
        <ele>2019</ele>
        <time>2021-08-11T13:29:56.636Z</time>
      </trkpt>
      <trkpt lat="46.87615" lon="8.47632">
        <ele>2019</ele>
        <time>2021-08-11T13:29:57.636Z</time>
      </trkpt>
      <trkpt lat="46.87615" lon="8.47632">
        <ele>2020</ele>
        <time>2021-08-11T13:29:58.636Z</time>
      </trkpt>
      <trkpt lat="46.87615" lon="8.47633">
        <ele>2019</ele>
        <time>2021-08-11T13:29:59.637Z</time>
      </trkpt>
      <trkpt lat="46.87614" lon="8.47633">
        <ele>2019</ele>
        <time>2021-08-11T13:30:00.636Z</time>
      </trkpt>
      <trkpt lat="46.87614" lon="8.47634">
        <ele>2019</ele>
        <time>2021-08-11T13:30:01.636Z</time>
      </trkpt>
      <trkpt lat="46.87614" lon="8.47635">
        <ele>2019</ele>
        <time>2021-08-11T13:30:02.636Z</time>
      </trkpt>
      <trkpt lat="46.87614" lon="8.47635">
        <ele>2019</ele>
        <time>2021-08-11T13:30:03.636Z</time>
      </trkpt>
      <trkpt lat="46.87613" lon="8.47635">
        <ele>2019</ele>
        <time>2021-08-11T13:30:07.670Z</time>
      </trkpt>
      <trkpt lat="46.87613" lon="8.47636">
        <ele>2020</ele>
        <time>2021-08-11T13:30:08.670Z</time>
      </trkpt>
      <trkpt lat="46.87613" lon="8.47636">
        <ele>2020</ele>
        <time>2021-08-11T13:30:09.670Z</time>
      </trkpt>
      <trkpt lat="46.87612" lon="8.47637">
        <ele>2020</ele>
        <time>2021-08-11T13:30:10.670Z</time>
      </trkpt>
      <trkpt lat="46.87612" lon="8.47637">
        <ele>2020</ele>
        <time>2021-08-11T13:30:11.670Z</time>
      </trkpt>
      <trkpt lat="46.87612" lon="8.47637">
        <ele>2020</ele>
        <time>2021-08-11T13:30:12.670Z</time>
      </trkpt>
      <trkpt lat="46.87612" lon="8.47638">
        <ele>2020</ele>
        <time>2021-08-11T13:30:13.670Z</time>
      </trkpt>
      <trkpt lat="46.87612" lon="8.47638">
        <ele>2020</ele>
        <time>2021-08-11T13:30:14.671Z</time>
      </trkpt>
      <trkpt lat="46.87612" lon="8.47639">
        <ele>2020</ele>
        <time>2021-08-11T13:30:15.670Z</time>
      </trkpt>
      <trkpt lat="46.87611" lon="8.47639">
        <ele>2020</ele>
        <time>2021-08-11T13:30:16.670Z</time>
      </trkpt>
      <trkpt lat="46.87611" lon="8.47639">
        <ele>2021</ele>
        <time>2021-08-11T13:30:17.670Z</time>
      </trkpt>
      <trkpt lat="46.8761" lon="8.4764">
        <ele>2022</ele>
        <time>2021-08-11T13:30:18.671Z</time>
      </trkpt>
      <trkpt lat="46.8761" lon="8.4764">
        <ele>2022</ele>
        <time>2021-08-11T13:30:19.670Z</time>
      </trkpt>
      <trkpt lat="46.87609" lon="8.4764">
        <ele>2021</ele>
        <time>2021-08-11T13:30:20.671Z</time>
      </trkpt>
      <trkpt lat="46.87609" lon="8.4764">
        <ele>2021</ele>
        <time>2021-08-11T13:30:21.671Z</time>
      </trkpt>
      <trkpt lat="46.87609" lon="8.4764">
        <ele>2020</ele>
        <time>2021-08-11T13:30:22.670Z</time>
      </trkpt>
      <trkpt lat="46.87609" lon="8.4764">
        <ele>2020</ele>
        <time>2021-08-11T13:30:23.670Z</time>
      </trkpt>
      <trkpt lat="46.87609" lon="8.4764">
        <ele>2019</ele>
        <time>2021-08-11T13:30:24.671Z</time>
      </trkpt>
      <trkpt lat="46.87609" lon="8.4764">
        <ele>2019</ele>
        <time>2021-08-11T13:30:25.671Z</time>
      </trkpt>
      <trkpt lat="46.87609" lon="8.47639">
        <ele>2019</ele>
        <time>2021-08-11T13:30:26.670Z</time>
      </trkpt>
      <trkpt lat="46.87609" lon="8.47639">
        <ele>2019</ele>
        <time>2021-08-11T13:30:27.671Z</time>
      </trkpt>
      <trkpt lat="46.87609" lon="8.47638">
        <ele>2020</ele>
        <time>2021-08-11T13:30:28.671Z</time>
      </trkpt>
      <trkpt lat="46.87609" lon="8.47637">
        <ele>2020</ele>
        <time>2021-08-11T13:30:29.670Z</time>
      </trkpt>
      <trkpt lat="46.87609" lon="8.47636">
        <ele>2020</ele>
        <time>2021-08-11T13:30:30.671Z</time>
      </trkpt>
      <trkpt lat="46.87609" lon="8.47636">
        <ele>2020</ele>
        <time>2021-08-11T13:30:31.670Z</time>
      </trkpt>
      <trkpt lat="46.87609" lon="8.47635">
        <ele>2020</ele>
        <time>2021-08-11T13:30:32.671Z</time>
      </trkpt>
      <trkpt lat="46.87609" lon="8.47635">
        <ele>2020</ele>
        <time>2021-08-11T13:30:33.671Z</time>
      </trkpt>
      <trkpt lat="46.87609" lon="8.47634">
        <ele>2020</ele>
        <time>2021-08-11T13:30:34.670Z</time>
      </trkpt>
      <trkpt lat="46.87608" lon="8.47634">
        <ele>2020</ele>
        <time>2021-08-11T13:30:35.670Z</time>
      </trkpt>
      <trkpt lat="46.87608" lon="8.47633">
        <ele>2020</ele>
        <time>2021-08-11T13:30:36.670Z</time>
      </trkpt>
      <trkpt lat="46.87608" lon="8.47632">
        <ele>2020</ele>
        <time>2021-08-11T13:30:37.671Z</time>
      </trkpt>
      <trkpt lat="46.87608" lon="8.47632">
        <ele>2020</ele>
        <time>2021-08-11T13:30:38.670Z</time>
      </trkpt>
      <trkpt lat="46.87609" lon="8.47631">
        <ele>2020</ele>
        <time>2021-08-11T13:30:39.671Z</time>
      </trkpt>
      <trkpt lat="46.87609" lon="8.47631">
        <ele>2020</ele>
        <time>2021-08-11T13:30:40.671Z</time>
      </trkpt>
      <trkpt lat="46.87609" lon="8.47629">
        <ele>2020</ele>
        <time>2021-08-11T13:30:41.671Z</time>
      </trkpt>
      <trkpt lat="46.87608" lon="8.47628">
        <ele>2020</ele>
        <time>2021-08-11T13:30:42.670Z</time>
      </trkpt>
      <trkpt lat="46.87608" lon="8.47627">
        <ele>2020</ele>
        <time>2021-08-11T13:30:43.671Z</time>
      </trkpt>
      <trkpt lat="46.87608" lon="8.47626">
        <ele>2020</ele>
        <time>2021-08-11T13:30:44.671Z</time>
      </trkpt>
      <trkpt lat="46.87607" lon="8.47625">
        <ele>2020</ele>
        <time>2021-08-11T13:30:45.671Z</time>
      </trkpt>
      <trkpt lat="46.87607" lon="8.47624">
        <ele>2020</ele>
        <time>2021-08-11T13:30:46.670Z</time>
      </trkpt>
      <trkpt lat="46.87606" lon="8.47624">
        <ele>2020</ele>
        <time>2021-08-11T13:30:47.670Z</time>
      </trkpt>
      <trkpt lat="46.87606" lon="8.47623">
        <ele>2019</ele>
        <time>2021-08-11T13:30:48.671Z</time>
      </trkpt>
      <trkpt lat="46.87606" lon="8.47623">
        <ele>2019</ele>
        <time>2021-08-11T13:30:49.670Z</time>
      </trkpt>
      <trkpt lat="46.87606" lon="8.47623">
        <ele>2019</ele>
        <time>2021-08-11T13:30:50.670Z</time>
      </trkpt>
      <trkpt lat="46.87606" lon="8.47623">
        <ele>2019</ele>
        <time>2021-08-11T13:30:51.671Z</time>
      </trkpt>
      <trkpt lat="46.87606" lon="8.47623">
        <ele>2020</ele>
        <time>2021-08-11T13:30:52.670Z</time>
      </trkpt>
      <trkpt lat="46.87606" lon="8.47622">
        <ele>2021</ele>
        <time>2021-08-11T13:30:53.670Z</time>
      </trkpt>
      <trkpt lat="46.87606" lon="8.47621">
        <ele>2021</ele>
        <time>2021-08-11T13:30:54.671Z</time>
      </trkpt>
      <trkpt lat="46.87606" lon="8.47622">
        <ele>2021</ele>
        <time>2021-08-11T13:30:55.670Z</time>
      </trkpt>
      <trkpt lat="46.87605" lon="8.47621">
        <ele>2021</ele>
        <time>2021-08-11T13:30:56.670Z</time>
      </trkpt>
      <trkpt lat="46.87605" lon="8.47621">
        <ele>2021</ele>
        <time>2021-08-11T13:30:57.670Z</time>
      </trkpt>
      <trkpt lat="46.87604" lon="8.47621">
        <ele>2021</ele>
        <time>2021-08-11T13:30:58.671Z</time>
      </trkpt>
      <trkpt lat="46.87604" lon="8.4762">
        <ele>2021</ele>
        <time>2021-08-11T13:30:59.670Z</time>
      </trkpt>
      <trkpt lat="46.87603" lon="8.4762">
        <ele>2021</ele>
        <time>2021-08-11T13:31:00.670Z</time>
      </trkpt>
      <trkpt lat="46.87603" lon="8.47619">
        <ele>2021</ele>
        <time>2021-08-11T13:31:01.670Z</time>
      </trkpt>
      <trkpt lat="46.87602" lon="8.47618">
        <ele>2021</ele>
        <time>2021-08-11T13:31:02.670Z</time>
      </trkpt>
      <trkpt lat="46.87602" lon="8.47618">
        <ele>2021</ele>
        <time>2021-08-11T13:31:03.671Z</time>
      </trkpt>
      <trkpt lat="46.87601" lon="8.47617">
        <ele>2021</ele>
        <time>2021-08-11T13:31:04.670Z</time>
      </trkpt>
      <trkpt lat="46.87601" lon="8.47617">
        <ele>2021</ele>
        <time>2021-08-11T13:31:05.671Z</time>
      </trkpt>
      <trkpt lat="46.87601" lon="8.47617">
        <ele>2021</ele>
        <time>2021-08-11T13:31:06.671Z</time>
      </trkpt>
      <trkpt lat="46.876" lon="8.47617">
        <ele>2021</ele>
        <time>2021-08-11T13:31:07.670Z</time>
      </trkpt>
      <trkpt lat="46.876" lon="8.47616">
        <ele>2020</ele>
        <time>2021-08-11T13:31:08.670Z</time>
      </trkpt>
      <trkpt lat="46.87599" lon="8.47616">
        <ele>2020</ele>
        <time>2021-08-11T13:31:09.670Z</time>
      </trkpt>
      <trkpt lat="46.87599" lon="8.47616">
        <ele>2019</ele>
        <time>2021-08-11T13:31:10.671Z</time>
      </trkpt>
      <trkpt lat="46.87598" lon="8.47616">
        <ele>2019</ele>
        <time>2021-08-11T13:31:11.670Z</time>
      </trkpt>
      <trkpt lat="46.87598" lon="8.47616">
        <ele>2019</ele>
        <time>2021-08-11T13:31:12.671Z</time>
      </trkpt>
      <trkpt lat="46.87597" lon="8.47616">
        <ele>2019</ele>
        <time>2021-08-11T13:31:13.671Z</time>
      </trkpt>
      <trkpt lat="46.87597" lon="8.47616">
        <ele>2020</ele>
        <time>2021-08-11T13:31:14.670Z</time>
      </trkpt>
      <trkpt lat="46.87596" lon="8.47616">
        <ele>2021</ele>
        <time>2021-08-11T13:31:15.670Z</time>
      </trkpt>
      <trkpt lat="46.87596" lon="8.47616">
        <ele>2022</ele>
        <time>2021-08-11T13:31:16.670Z</time>
      </trkpt>
      <trkpt lat="46.87596" lon="8.47617">
        <ele>2022</ele>
        <time>2021-08-11T13:31:17.671Z</time>
      </trkpt>
      <trkpt lat="46.87596" lon="8.47617">
        <ele>2023</ele>
        <time>2021-08-11T13:31:18.670Z</time>
      </trkpt>
      <trkpt lat="46.87596" lon="8.47617">
        <ele>2024</ele>
        <time>2021-08-11T13:31:19.671Z</time>
      </trkpt>
      <trkpt lat="46.87596" lon="8.47614">
        <ele>2030</ele>
        <time>2021-08-11T13:31:20.672Z</time>
      </trkpt>
      <trkpt lat="46.87596" lon="8.47614">
        <ele>2030</ele>
        <time>2021-08-11T13:31:21.671Z</time>
      </trkpt>
      <trkpt lat="46.87596" lon="8.47613">
        <ele>2031</ele>
        <time>2021-08-11T13:31:22.672Z</time>
      </trkpt>
      <trkpt lat="46.87595" lon="8.47612">
        <ele>2031</ele>
        <time>2021-08-11T13:31:23.672Z</time>
      </trkpt>
      <trkpt lat="46.87595" lon="8.47612">
        <ele>2031</ele>
        <time>2021-08-11T13:31:24.671Z</time>
      </trkpt>
      <trkpt lat="46.87595" lon="8.47611">
        <ele>2031</ele>
        <time>2021-08-11T13:31:25.671Z</time>
      </trkpt>
      <trkpt lat="46.87595" lon="8.4761">
        <ele>2031</ele>
        <time>2021-08-11T13:31:26.671Z</time>
      </trkpt>
      <trkpt lat="46.87595" lon="8.47609">
        <ele>2030</ele>
        <time>2021-08-11T13:31:27.672Z</time>
      </trkpt>
      <trkpt lat="46.87594" lon="8.47609">
        <ele>2029</ele>
        <time>2021-08-11T13:31:28.672Z</time>
      </trkpt>
      <trkpt lat="46.87594" lon="8.47608">
        <ele>2028</ele>
        <time>2021-08-11T13:31:29.671Z</time>
      </trkpt>
      <trkpt lat="46.87594" lon="8.47607">
        <ele>2028</ele>
        <time>2021-08-11T13:31:30.672Z</time>
      </trkpt>
      <trkpt lat="46.87593" lon="8.47607">
        <ele>2027</ele>
        <time>2021-08-11T13:31:31.672Z</time>
      </trkpt>
      <trkpt lat="46.87593" lon="8.47607">
        <ele>2027</ele>
        <time>2021-08-11T13:31:32.671Z</time>
      </trkpt>
      <trkpt lat="46.87593" lon="8.47606">
        <ele>2027</ele>
        <time>2021-08-11T13:31:33.672Z</time>
      </trkpt>
      <trkpt lat="46.87592" lon="8.47606">
        <ele>2028</ele>
        <time>2021-08-11T13:31:34.672Z</time>
      </trkpt>
      <trkpt lat="46.87592" lon="8.47605">
        <ele>2028</ele>
        <time>2021-08-11T13:31:35.671Z</time>
      </trkpt>
      <trkpt lat="46.87592" lon="8.47605">
        <ele>2029</ele>
        <time>2021-08-11T13:31:36.671Z</time>
      </trkpt>
      <trkpt lat="46.87591" lon="8.47604">
        <ele>2029</ele>
        <time>2021-08-11T13:31:37.671Z</time>
      </trkpt>
      <trkpt lat="46.8759" lon="8.47603">
        <ele>2029</ele>
        <time>2021-08-11T13:31:38.671Z</time>
      </trkpt>
      <trkpt lat="46.8759" lon="8.47603">
        <ele>2029</ele>
        <time>2021-08-11T13:31:39.671Z</time>
      </trkpt>
      <trkpt lat="46.8759" lon="8.47602">
        <ele>2029</ele>
        <time>2021-08-11T13:31:40.672Z</time>
      </trkpt>
      <trkpt lat="46.8759" lon="8.47602">
        <ele>2029</ele>
        <time>2021-08-11T13:31:41.672Z</time>
      </trkpt>
      <trkpt lat="46.8759" lon="8.47602">
        <ele>2029</ele>
        <time>2021-08-11T13:31:42.671Z</time>
      </trkpt>
      <trkpt lat="46.87588" lon="8.47601">
        <ele>2032</ele>
        <time>2021-08-11T13:31:43.672Z</time>
      </trkpt>
      <trkpt lat="46.87588" lon="8.47601">
        <ele>2032</ele>
        <time>2021-08-11T13:31:44.671Z</time>
      </trkpt>
      <trkpt lat="46.87588" lon="8.476">
        <ele>2032</ele>
        <time>2021-08-11T13:31:45.672Z</time>
      </trkpt>
      <trkpt lat="46.87588" lon="8.476">
        <ele>2033</ele>
        <time>2021-08-11T13:31:46.672Z</time>
      </trkpt>
      <trkpt lat="46.87588" lon="8.476">
        <ele>2033</ele>
        <time>2021-08-11T13:31:47.671Z</time>
      </trkpt>
      <trkpt lat="46.87588" lon="8.47599">
        <ele>2035</ele>
        <time>2021-08-11T13:31:48.673Z</time>
      </trkpt>
      <trkpt lat="46.87588" lon="8.476">
        <ele>2035</ele>
        <time>2021-08-11T13:31:49.673Z</time>
      </trkpt>
      <trkpt lat="46.87587" lon="8.476">
        <ele>2036</ele>
        <time>2021-08-11T13:31:50.672Z</time>
      </trkpt>
      <trkpt lat="46.87586" lon="8.47599">
        <ele>2036</ele>
        <time>2021-08-11T13:31:51.673Z</time>
      </trkpt>
      <trkpt lat="46.87585" lon="8.47599">
        <ele>2036</ele>
        <time>2021-08-11T13:31:52.673Z</time>
      </trkpt>
      <trkpt lat="46.87584" lon="8.47599">
        <ele>2036</ele>
        <time>2021-08-11T13:31:53.673Z</time>
      </trkpt>
      <trkpt lat="46.87583" lon="8.476">
        <ele>2037</ele>
        <time>2021-08-11T13:31:54.673Z</time>
      </trkpt>
      <trkpt lat="46.87582" lon="8.476">
        <ele>2037</ele>
        <time>2021-08-11T13:31:55.673Z</time>
      </trkpt>
      <trkpt lat="46.87582" lon="8.47601">
        <ele>2037</ele>
        <time>2021-08-11T13:31:56.673Z</time>
      </trkpt>
      <trkpt lat="46.87581" lon="8.47601">
        <ele>2037</ele>
        <time>2021-08-11T13:31:57.673Z</time>
      </trkpt>
      <trkpt lat="46.8758" lon="8.47601">
        <ele>2038</ele>
        <time>2021-08-11T13:31:58.673Z</time>
      </trkpt>
      <trkpt lat="46.87579" lon="8.476">
        <ele>2038</ele>
        <time>2021-08-11T13:31:59.672Z</time>
      </trkpt>
      <trkpt lat="46.87578" lon="8.47601">
        <ele>2038</ele>
        <time>2021-08-11T13:32:00.672Z</time>
      </trkpt>
      <trkpt lat="46.87577" lon="8.476">
        <ele>2039</ele>
        <time>2021-08-11T13:32:01.672Z</time>
      </trkpt>
      <trkpt lat="46.87577" lon="8.476">
        <ele>2040</ele>
        <time>2021-08-11T13:32:02.672Z</time>
      </trkpt>
      <trkpt lat="46.87577" lon="8.47599">
        <ele>2041</ele>
        <time>2021-08-11T13:32:03.673Z</time>
      </trkpt>
      <trkpt lat="46.87576" lon="8.47599">
        <ele>2041</ele>
        <time>2021-08-11T13:32:04.672Z</time>
      </trkpt>
      <trkpt lat="46.87576" lon="8.47599">
        <ele>2041</ele>
        <time>2021-08-11T13:32:05.673Z</time>
      </trkpt>
      <trkpt lat="46.87576" lon="8.47599">
        <ele>2041</ele>
        <time>2021-08-11T13:32:06.673Z</time>
      </trkpt>
      <trkpt lat="46.87576" lon="8.47598">
        <ele>2041</ele>
        <time>2021-08-11T13:32:07.673Z</time>
      </trkpt>
      <trkpt lat="46.87576" lon="8.47599">
        <ele>2041</ele>
        <time>2021-08-11T13:32:08.673Z</time>
      </trkpt>
      <trkpt lat="46.87576" lon="8.476">
        <ele>2041</ele>
        <time>2021-08-11T13:32:09.672Z</time>
      </trkpt>
      <trkpt lat="46.87574" lon="8.47598">
        <ele>2034</ele>
        <time>2021-08-11T13:32:10.673Z</time>
      </trkpt>
      <trkpt lat="46.87575" lon="8.47598">
        <ele>2034</ele>
        <time>2021-08-11T13:32:11.673Z</time>
      </trkpt>
      <trkpt lat="46.87574" lon="8.47599">
        <ele>2031</ele>
        <time>2021-08-11T13:32:12.673Z</time>
      </trkpt>
      <trkpt lat="46.87574" lon="8.47599">
        <ele>2031</ele>
        <time>2021-08-11T13:32:13.672Z</time>
      </trkpt>
      <trkpt lat="46.87578" lon="8.47599">
        <ele>2031</ele>
        <time>2021-08-11T13:32:14.672Z</time>
      </trkpt>
      <trkpt lat="46.87578" lon="8.47599">
        <ele>2031</ele>
        <time>2021-08-11T13:32:15.672Z</time>
      </trkpt>
      <trkpt lat="46.87578" lon="8.47599">
        <ele>2031</ele>
        <time>2021-08-11T13:32:16.672Z</time>
      </trkpt>
      <trkpt lat="46.87578" lon="8.47599">
        <ele>2030</ele>
        <time>2021-08-11T13:32:17.673Z</time>
      </trkpt>
      <trkpt lat="46.87578" lon="8.47598">
        <ele>2030</ele>
        <time>2021-08-11T13:32:18.673Z</time>
      </trkpt>
      <trkpt lat="46.87577" lon="8.47597">
        <ele>2030</ele>
        <time>2021-08-11T13:32:19.673Z</time>
      </trkpt>
      <trkpt lat="46.87577" lon="8.47596">
        <ele>2029</ele>
        <time>2021-08-11T13:32:20.673Z</time>
      </trkpt>
      <trkpt lat="46.87576" lon="8.47595">
        <ele>2029</ele>
        <time>2021-08-11T13:32:21.673Z</time>
      </trkpt>
      <trkpt lat="46.87576" lon="8.47595">
        <ele>2028</ele>
        <time>2021-08-11T13:32:22.673Z</time>
      </trkpt>
      <trkpt lat="46.87576" lon="8.47594">
        <ele>2028</ele>
        <time>2021-08-11T13:32:23.673Z</time>
      </trkpt>
      <trkpt lat="46.87576" lon="8.47593">
        <ele>2027</ele>
        <time>2021-08-11T13:32:24.673Z</time>
      </trkpt>
      <trkpt lat="46.87576" lon="8.47592">
        <ele>2026</ele>
        <time>2021-08-11T13:32:25.673Z</time>
      </trkpt>
      <trkpt lat="46.87577" lon="8.47591">
        <ele>2026</ele>
        <time>2021-08-11T13:32:26.673Z</time>
      </trkpt>
      <trkpt lat="46.87576" lon="8.47591">
        <ele>2025</ele>
        <time>2021-08-11T13:32:27.673Z</time>
      </trkpt>
      <trkpt lat="46.87576" lon="8.47591">
        <ele>2025</ele>
        <time>2021-08-11T13:32:28.673Z</time>
      </trkpt>
      <trkpt lat="46.87576" lon="8.47591">
        <ele>2025</ele>
        <time>2021-08-11T13:32:29.674Z</time>
      </trkpt>
      <trkpt lat="46.87576" lon="8.4759">
        <ele>2025</ele>
        <time>2021-08-11T13:32:30.673Z</time>
      </trkpt>
      <trkpt lat="46.87575" lon="8.47589">
        <ele>2026</ele>
        <time>2021-08-11T13:32:31.674Z</time>
      </trkpt>
      <trkpt lat="46.87575" lon="8.47588">
        <ele>2026</ele>
        <time>2021-08-11T13:32:32.673Z</time>
      </trkpt>
      <trkpt lat="46.87574" lon="8.47587">
        <ele>2027</ele>
        <time>2021-08-11T13:32:33.673Z</time>
      </trkpt>
      <trkpt lat="46.87574" lon="8.47586">
        <ele>2027</ele>
        <time>2021-08-11T13:32:34.673Z</time>
      </trkpt>
      <trkpt lat="46.87574" lon="8.47586">
        <ele>2026</ele>
        <time>2021-08-11T13:32:35.674Z</time>
      </trkpt>
      <trkpt lat="46.87574" lon="8.47585">
        <ele>2026</ele>
        <time>2021-08-11T13:32:36.673Z</time>
      </trkpt>
      <trkpt lat="46.87574" lon="8.47585">
        <ele>2026</ele>
        <time>2021-08-11T13:32:37.673Z</time>
      </trkpt>
      <trkpt lat="46.87574" lon="8.47584">
        <ele>2026</ele>
        <time>2021-08-11T13:32:38.673Z</time>
      </trkpt>
      <trkpt lat="46.87574" lon="8.47584">
        <ele>2026</ele>
        <time>2021-08-11T13:32:39.673Z</time>
      </trkpt>
      <trkpt lat="46.87573" lon="8.47584">
        <ele>2026</ele>
        <time>2021-08-11T13:32:40.673Z</time>
      </trkpt>
      <trkpt lat="46.87573" lon="8.47584">
        <ele>2027</ele>
        <time>2021-08-11T13:32:41.673Z</time>
      </trkpt>
      <trkpt lat="46.87572" lon="8.47583">
        <ele>2027</ele>
        <time>2021-08-11T13:32:42.673Z</time>
      </trkpt>
      <trkpt lat="46.87572" lon="8.47583">
        <ele>2027</ele>
        <time>2021-08-11T13:32:43.673Z</time>
      </trkpt>
      <trkpt lat="46.87571" lon="8.47583">
        <ele>2027</ele>
        <time>2021-08-11T13:32:44.673Z</time>
      </trkpt>
      <trkpt lat="46.8757" lon="8.47587">
        <ele>2028</ele>
        <time>2021-08-11T13:32:45.675Z</time>
      </trkpt>
      <trkpt lat="46.87572" lon="8.47582">
        <ele>2037</ele>
        <time>2021-08-11T13:32:46.675Z</time>
      </trkpt>
      <trkpt lat="46.87572" lon="8.4758">
        <ele>2037</ele>
        <time>2021-08-11T13:32:47.676Z</time>
      </trkpt>
      <trkpt lat="46.87572" lon="8.4758">
        <ele>2037</ele>
        <time>2021-08-11T13:32:48.675Z</time>
      </trkpt>
      <trkpt lat="46.87571" lon="8.47581">
        <ele>2036</ele>
        <time>2021-08-11T13:32:49.677Z</time>
      </trkpt>
      <trkpt lat="46.87572" lon="8.47583">
        <ele>2037</ele>
        <time>2021-08-11T13:32:50.677Z</time>
      </trkpt>
      <trkpt lat="46.87571" lon="8.47583">
        <ele>2037</ele>
        <time>2021-08-11T13:32:51.678Z</time>
      </trkpt>
      <trkpt lat="46.8757" lon="8.47583">
        <ele>2037</ele>
        <time>2021-08-11T13:32:52.677Z</time>
      </trkpt>
      <trkpt lat="46.8757" lon="8.47584">
        <ele>2036</ele>
        <time>2021-08-11T13:32:53.678Z</time>
      </trkpt>
      <trkpt lat="46.8757" lon="8.47584">
        <ele>2036</ele>
        <time>2021-08-11T13:32:54.678Z</time>
      </trkpt>
      <trkpt lat="46.87571" lon="8.47583">
        <ele>2037</ele>
        <time>2021-08-11T13:32:55.679Z</time>
      </trkpt>
      <trkpt lat="46.87571" lon="8.47583">
        <ele>2037</ele>
        <time>2021-08-11T13:32:56.679Z</time>
      </trkpt>
      <trkpt lat="46.87571" lon="8.47583">
        <ele>2038</ele>
        <time>2021-08-11T13:32:57.678Z</time>
      </trkpt>
      <trkpt lat="46.87573" lon="8.4758">
        <ele>2025</ele>
        <time>2021-08-11T13:32:58.678Z</time>
      </trkpt>
      <trkpt lat="46.87573" lon="8.47581">
        <ele>2025</ele>
        <time>2021-08-11T13:32:59.679Z</time>
      </trkpt>
      <trkpt lat="46.87572" lon="8.47581">
        <ele>2025</ele>
        <time>2021-08-11T13:33:00.678Z</time>
      </trkpt>
      <trkpt lat="46.87572" lon="8.47581">
        <ele>2025</ele>
        <time>2021-08-11T13:33:01.678Z</time>
      </trkpt>
      <trkpt lat="46.87572" lon="8.4758">
        <ele>2025</ele>
        <time>2021-08-11T13:33:02.678Z</time>
      </trkpt>
      <trkpt lat="46.87572" lon="8.4758">
        <ele>2025</ele>
        <time>2021-08-11T13:33:03.679Z</time>
      </trkpt>
      <trkpt lat="46.87572" lon="8.4758">
        <ele>2025</ele>
        <time>2021-08-11T13:33:04.678Z</time>
      </trkpt>
      <trkpt lat="46.87572" lon="8.47579">
        <ele>2024</ele>
        <time>2021-08-11T13:33:05.679Z</time>
      </trkpt>
      <trkpt lat="46.87572" lon="8.47579">
        <ele>2024</ele>
        <time>2021-08-11T13:33:06.678Z</time>
      </trkpt>
      <trkpt lat="46.87573" lon="8.4758">
        <ele>2024</ele>
        <time>2021-08-11T13:33:07.679Z</time>
      </trkpt>
      <trkpt lat="46.87574" lon="8.4758">
        <ele>2024</ele>
        <time>2021-08-11T13:33:08.679Z</time>
      </trkpt>
      <trkpt lat="46.87574" lon="8.47581">
        <ele>2024</ele>
        <time>2021-08-11T13:33:09.678Z</time>
      </trkpt>
      <trkpt lat="46.87574" lon="8.47581">
        <ele>2024</ele>
        <time>2021-08-11T13:33:10.679Z</time>
      </trkpt>
      <trkpt lat="46.87573" lon="8.47581">
        <ele>2025</ele>
        <time>2021-08-11T13:33:11.679Z</time>
      </trkpt>
      <trkpt lat="46.87573" lon="8.47581">
        <ele>2025</ele>
        <time>2021-08-11T13:33:12.679Z</time>
      </trkpt>
      <trkpt lat="46.87573" lon="8.47582">
        <ele>2025</ele>
        <time>2021-08-11T13:33:13.678Z</time>
      </trkpt>
      <trkpt lat="46.87573" lon="8.47583">
        <ele>2025</ele>
        <time>2021-08-11T13:33:14.679Z</time>
      </trkpt>
      <trkpt lat="46.87573" lon="8.47584">
        <ele>2025</ele>
        <time>2021-08-11T13:33:15.679Z</time>
      </trkpt>
      <trkpt lat="46.87573" lon="8.47585">
        <ele>2026</ele>
        <time>2021-08-11T13:33:16.679Z</time>
      </trkpt>
      <trkpt lat="46.87572" lon="8.47586">
        <ele>2026</ele>
        <time>2021-08-11T13:33:17.679Z</time>
      </trkpt>
      <trkpt lat="46.87572" lon="8.47585">
        <ele>2027</ele>
        <time>2021-08-11T13:33:18.678Z</time>
      </trkpt>
      <trkpt lat="46.87572" lon="8.47585">
        <ele>2027</ele>
        <time>2021-08-11T13:33:19.679Z</time>
      </trkpt>
      <trkpt lat="46.87572" lon="8.47585">
        <ele>2028</ele>
        <time>2021-08-11T13:33:20.679Z</time>
      </trkpt>
      <trkpt lat="46.87573" lon="8.47584">
        <ele>2029</ele>
        <time>2021-08-11T13:33:21.679Z</time>
      </trkpt>
      <trkpt lat="46.87573" lon="8.47583">
        <ele>2029</ele>
        <time>2021-08-11T13:33:22.678Z</time>
      </trkpt>
      <trkpt lat="46.87573" lon="8.47582">
        <ele>2030</ele>
        <time>2021-08-11T13:33:23.678Z</time>
      </trkpt>
      <trkpt lat="46.87574" lon="8.47581">
        <ele>2030</ele>
        <time>2021-08-11T13:33:24.679Z</time>
      </trkpt>
      <trkpt lat="46.87575" lon="8.4758">
        <ele>2030</ele>
        <time>2021-08-11T13:33:25.679Z</time>
      </trkpt>
      <trkpt lat="46.87575" lon="8.4758">
        <ele>2030</ele>
        <time>2021-08-11T13:33:26.679Z</time>
      </trkpt>
      <trkpt lat="46.87576" lon="8.47579">
        <ele>2031</ele>
        <time>2021-08-11T13:33:27.679Z</time>
      </trkpt>
      <trkpt lat="46.87577" lon="8.47578">
        <ele>2031</ele>
        <time>2021-08-11T13:33:28.679Z</time>
      </trkpt>
      <trkpt lat="46.87578" lon="8.47577">
        <ele>2031</ele>
        <time>2021-08-11T13:33:29.678Z</time>
      </trkpt>
      <trkpt lat="46.87578" lon="8.47576">
        <ele>2031</ele>
        <time>2021-08-11T13:33:30.678Z</time>
      </trkpt>
      <trkpt lat="46.87579" lon="8.47576">
        <ele>2031</ele>
        <time>2021-08-11T13:33:31.679Z</time>
      </trkpt>
      <trkpt lat="46.8758" lon="8.47576">
        <ele>2031</ele>
        <time>2021-08-11T13:33:32.678Z</time>
      </trkpt>
      <trkpt lat="46.8758" lon="8.47576">
        <ele>2032</ele>
        <time>2021-08-11T13:33:33.679Z</time>
      </trkpt>
      <trkpt lat="46.87579" lon="8.47577">
        <ele>2032</ele>
        <time>2021-08-11T13:33:34.679Z</time>
      </trkpt>
      <trkpt lat="46.87579" lon="8.47577">
        <ele>2032</ele>
        <time>2021-08-11T13:33:35.679Z</time>
      </trkpt>
      <trkpt lat="46.87579" lon="8.47578">
        <ele>2032</ele>
        <time>2021-08-11T13:33:36.679Z</time>
      </trkpt>
      <trkpt lat="46.87579" lon="8.47578">
        <ele>2032</ele>
        <time>2021-08-11T13:33:37.679Z</time>
      </trkpt>
      <trkpt lat="46.8758" lon="8.47577">
        <ele>2033</ele>
        <time>2021-08-11T13:33:38.679Z</time>
      </trkpt>
      <trkpt lat="46.87579" lon="8.47576">
        <ele>2033</ele>
        <time>2021-08-11T13:33:39.679Z</time>
      </trkpt>
      <trkpt lat="46.87579" lon="8.47576">
        <ele>2033</ele>
        <time>2021-08-11T13:33:40.679Z</time>
      </trkpt>
      <trkpt lat="46.87577" lon="8.47576">
        <ele>2033</ele>
        <time>2021-08-11T13:33:41.678Z</time>
      </trkpt>
      <trkpt lat="46.87577" lon="8.47576">
        <ele>2033</ele>
        <time>2021-08-11T13:33:42.679Z</time>
      </trkpt>
      <trkpt lat="46.87575" lon="8.47577">
        <ele>2034</ele>
        <time>2021-08-11T13:33:43.678Z</time>
      </trkpt>
      <trkpt lat="46.87575" lon="8.47577">
        <ele>2033</ele>
        <time>2021-08-11T13:33:44.679Z</time>
      </trkpt>
      <trkpt lat="46.87575" lon="8.47577">
        <ele>2033</ele>
        <time>2021-08-11T13:33:45.679Z</time>
      </trkpt>
      <trkpt lat="46.87576" lon="8.47576">
        <ele>2033</ele>
        <time>2021-08-11T13:33:46.679Z</time>
      </trkpt>
      <trkpt lat="46.87578" lon="8.47575">
        <ele>2033</ele>
        <time>2021-08-11T13:33:47.679Z</time>
      </trkpt>
      <trkpt lat="46.8758" lon="8.47572">
        <ele>2033</ele>
        <time>2021-08-11T13:33:48.678Z</time>
      </trkpt>
      <trkpt lat="46.87582" lon="8.4757">
        <ele>2033</ele>
        <time>2021-08-11T13:33:49.679Z</time>
      </trkpt>
      <trkpt lat="46.87584" lon="8.47569">
        <ele>2033</ele>
        <time>2021-08-11T13:33:50.679Z</time>
      </trkpt>
      <trkpt lat="46.87585" lon="8.4757">
        <ele>2033</ele>
        <time>2021-08-11T13:33:51.679Z</time>
      </trkpt>
      <trkpt lat="46.87586" lon="8.47569">
        <ele>2033</ele>
        <time>2021-08-11T13:33:52.679Z</time>
      </trkpt>
      <trkpt lat="46.87587" lon="8.47568">
        <ele>2033</ele>
        <time>2021-08-11T13:33:53.678Z</time>
      </trkpt>
      <trkpt lat="46.87585" lon="8.4757">
        <ele>2033</ele>
        <time>2021-08-11T13:33:54.678Z</time>
      </trkpt>
      <trkpt lat="46.87582" lon="8.47572">
        <ele>2033</ele>
        <time>2021-08-11T13:33:55.679Z</time>
      </trkpt>
      <trkpt lat="46.8758" lon="8.47574">
        <ele>2033</ele>
        <time>2021-08-11T13:33:56.678Z</time>
      </trkpt>
      <trkpt lat="46.87576" lon="8.47577">
        <ele>2033</ele>
        <time>2021-08-11T13:33:57.679Z</time>
      </trkpt>
      <trkpt lat="46.87574" lon="8.47578">
        <ele>2034</ele>
        <time>2021-08-11T13:33:58.679Z</time>
      </trkpt>
      <trkpt lat="46.87572" lon="8.4758">
        <ele>2034</ele>
        <time>2021-08-11T13:33:59.679Z</time>
      </trkpt>
      <trkpt lat="46.8757" lon="8.4758">
        <ele>2034</ele>
        <time>2021-08-11T13:34:00.679Z</time>
      </trkpt>
      <trkpt lat="46.87568" lon="8.4758">
        <ele>2034</ele>
        <time>2021-08-11T13:34:01.678Z</time>
      </trkpt>
      <trkpt lat="46.87566" lon="8.47581">
        <ele>2034</ele>
        <time>2021-08-11T13:34:02.679Z</time>
      </trkpt>
      <trkpt lat="46.87564" lon="8.47582">
        <ele>2034</ele>
        <time>2021-08-11T13:34:03.678Z</time>
      </trkpt>
      <trkpt lat="46.87563" lon="8.47583">
        <ele>2034</ele>
        <time>2021-08-11T13:34:04.679Z</time>
      </trkpt>
      <trkpt lat="46.87563" lon="8.47584">
        <ele>2035</ele>
        <time>2021-08-11T13:34:05.679Z</time>
      </trkpt>
      <trkpt lat="46.87564" lon="8.47583">
        <ele>2035</ele>
        <time>2021-08-11T13:34:06.678Z</time>
      </trkpt>
      <trkpt lat="46.87565" lon="8.47583">
        <ele>2035</ele>
        <time>2021-08-11T13:34:07.679Z</time>
      </trkpt>
      <trkpt lat="46.87565" lon="8.47584">
        <ele>2037</ele>
        <time>2021-08-11T13:34:08.680Z</time>
      </trkpt>
      <trkpt lat="46.87565" lon="8.47584">
        <ele>2037</ele>
        <time>2021-08-11T13:34:09.680Z</time>
      </trkpt>
      <trkpt lat="46.87564" lon="8.47584">
        <ele>2037</ele>
        <time>2021-08-11T13:34:10.680Z</time>
      </trkpt>
      <trkpt lat="46.87564" lon="8.47585">
        <ele>2037</ele>
        <time>2021-08-11T13:34:11.680Z</time>
      </trkpt>
      <trkpt lat="46.87565" lon="8.47586">
        <ele>2037</ele>
        <time>2021-08-11T13:34:12.679Z</time>
      </trkpt>
      <trkpt lat="46.87568" lon="8.47585">
        <ele>2039</ele>
        <time>2021-08-11T13:34:13.680Z</time>
      </trkpt>
      <trkpt lat="46.87569" lon="8.47583">
        <ele>2040</ele>
        <time>2021-08-11T13:34:14.680Z</time>
      </trkpt>
      <trkpt lat="46.87575" lon="8.47577">
        <ele>2041</ele>
        <time>2021-08-11T13:34:15.681Z</time>
      </trkpt>
      <trkpt lat="46.87576" lon="8.47575">
        <ele>2042</ele>
        <time>2021-08-11T13:34:16.680Z</time>
      </trkpt>
      <trkpt lat="46.87576" lon="8.47575">
        <ele>2042</ele>
        <time>2021-08-11T13:34:17.680Z</time>
      </trkpt>
      <trkpt lat="46.87578" lon="8.47575">
        <ele>2042</ele>
        <time>2021-08-11T13:34:18.681Z</time>
      </trkpt>
      <trkpt lat="46.87579" lon="8.47575">
        <ele>2042</ele>
        <time>2021-08-11T13:34:19.680Z</time>
      </trkpt>
      <trkpt lat="46.87579" lon="8.47576">
        <ele>2042</ele>
        <time>2021-08-11T13:34:20.680Z</time>
      </trkpt>
      <trkpt lat="46.87578" lon="8.47576">
        <ele>2043</ele>
        <time>2021-08-11T13:34:21.681Z</time>
      </trkpt>
      <trkpt lat="46.87577" lon="8.47577">
        <ele>2043</ele>
        <time>2021-08-11T13:34:22.680Z</time>
      </trkpt>
      <trkpt lat="46.87577" lon="8.47576">
        <ele>2043</ele>
        <time>2021-08-11T13:34:23.680Z</time>
      </trkpt>
      <trkpt lat="46.87578" lon="8.47576">
        <ele>2043</ele>
        <time>2021-08-11T13:34:24.680Z</time>
      </trkpt>
      <trkpt lat="46.87579" lon="8.47575">
        <ele>2043</ele>
        <time>2021-08-11T13:34:25.681Z</time>
      </trkpt>
      <trkpt lat="46.8758" lon="8.47575">
        <ele>2043</ele>
        <time>2021-08-11T13:34:26.681Z</time>
      </trkpt>
      <trkpt lat="46.8758" lon="8.47574">
        <ele>2043</ele>
        <time>2021-08-11T13:34:27.681Z</time>
      </trkpt>
      <trkpt lat="46.8758" lon="8.47574">
        <ele>2043</ele>
        <time>2021-08-11T13:34:28.681Z</time>
      </trkpt>
      <trkpt lat="46.8758" lon="8.47574">
        <ele>2043</ele>
        <time>2021-08-11T13:34:29.681Z</time>
      </trkpt>
      <trkpt lat="46.8758" lon="8.47574">
        <ele>2044</ele>
        <time>2021-08-11T13:34:30.680Z</time>
      </trkpt>
      <trkpt lat="46.87579" lon="8.47575">
        <ele>2043</ele>
        <time>2021-08-11T13:34:31.680Z</time>
      </trkpt>
      <trkpt lat="46.87578" lon="8.47578">
        <ele>2042</ele>
        <time>2021-08-11T13:34:32.681Z</time>
      </trkpt>
      <trkpt lat="46.87579" lon="8.47578">
        <ele>2042</ele>
        <time>2021-08-11T13:34:33.680Z</time>
      </trkpt>
      <trkpt lat="46.87579" lon="8.47578">
        <ele>2041</ele>
        <time>2021-08-11T13:34:34.680Z</time>
      </trkpt>
      <trkpt lat="46.87578" lon="8.47577">
        <ele>2041</ele>
        <time>2021-08-11T13:34:35.681Z</time>
      </trkpt>
      <trkpt lat="46.87574" lon="8.47579">
        <ele>2036</ele>
        <time>2021-08-11T13:34:36.683Z</time>
      </trkpt>
      <trkpt lat="46.87575" lon="8.47579">
        <ele>2039</ele>
        <time>2021-08-11T13:34:37.684Z</time>
      </trkpt>
      <trkpt lat="46.87574" lon="8.4758">
        <ele>2039</ele>
        <time>2021-08-11T13:34:38.683Z</time>
      </trkpt>
      <trkpt lat="46.87572" lon="8.4758">
        <ele>2040</ele>
        <time>2021-08-11T13:34:39.683Z</time>
      </trkpt>
      <trkpt lat="46.87572" lon="8.47581">
        <ele>2042</ele>
        <time>2021-08-11T13:34:40.684Z</time>
      </trkpt>
      <trkpt lat="46.87571" lon="8.47581">
        <ele>2043</ele>
        <time>2021-08-11T13:34:41.684Z</time>
      </trkpt>
      <trkpt lat="46.87569" lon="8.47582">
        <ele>2038</ele>
        <time>2021-08-11T13:34:42.685Z</time>
      </trkpt>
      <trkpt lat="46.87568" lon="8.47583">
        <ele>2038</ele>
        <time>2021-08-11T13:34:43.685Z</time>
      </trkpt>
      <trkpt lat="46.87567" lon="8.47584">
        <ele>2040</ele>
        <time>2021-08-11T13:34:44.686Z</time>
      </trkpt>
      <trkpt lat="46.87567" lon="8.47582">
        <ele>2040</ele>
        <time>2021-08-11T13:34:45.685Z</time>
      </trkpt>
      <trkpt lat="46.87567" lon="8.47582">
        <ele>2040</ele>
        <time>2021-08-11T13:34:46.685Z</time>
      </trkpt>
      <trkpt lat="46.87569" lon="8.47582">
        <ele>2040</ele>
        <time>2021-08-11T13:34:47.685Z</time>
      </trkpt>
      <trkpt lat="46.87568" lon="8.47582">
        <ele>2040</ele>
        <time>2021-08-11T13:34:48.685Z</time>
      </trkpt>
      <trkpt lat="46.87568" lon="8.47582">
        <ele>2040</ele>
        <time>2021-08-11T13:34:49.686Z</time>
      </trkpt>
      <trkpt lat="46.87569" lon="8.47577">
        <ele>2035</ele>
        <time>2021-08-11T13:34:50.687Z</time>
      </trkpt>
      <trkpt lat="46.87569" lon="8.47577">
        <ele>2035</ele>
        <time>2021-08-11T13:34:51.687Z</time>
      </trkpt>
      <trkpt lat="46.87569" lon="8.47576">
        <ele>2035</ele>
        <time>2021-08-11T13:34:52.686Z</time>
      </trkpt>
      <trkpt lat="46.87569" lon="8.47576">
        <ele>2035</ele>
        <time>2021-08-11T13:34:53.687Z</time>
      </trkpt>
      <trkpt lat="46.8757" lon="8.47576">
        <ele>2035</ele>
        <time>2021-08-11T13:34:54.687Z</time>
      </trkpt>
      <trkpt lat="46.87572" lon="8.47575">
        <ele>2040</ele>
        <time>2021-08-11T13:34:55.688Z</time>
      </trkpt>
      <trkpt lat="46.87572" lon="8.47575">
        <ele>2040</ele>
        <time>2021-08-11T13:34:56.687Z</time>
      </trkpt>
      <trkpt lat="46.87572" lon="8.47574">
        <ele>2041</ele>
        <time>2021-08-11T13:34:57.687Z</time>
      </trkpt>
      <trkpt lat="46.87572" lon="8.47574">
        <ele>2045</ele>
        <time>2021-08-11T13:34:58.687Z</time>
      </trkpt>
      <trkpt lat="46.87571" lon="8.47575">
        <ele>2046</ele>
        <time>2021-08-11T13:35:00.688Z</time>
      </trkpt>
      <trkpt lat="46.8757" lon="8.47575">
        <ele>2047</ele>
        <time>2021-08-11T13:35:01.688Z</time>
      </trkpt>
      <trkpt lat="46.87573" lon="8.4758">
        <ele>2040</ele>
        <time>2021-08-11T13:35:02.691Z</time>
      </trkpt>
      <trkpt lat="46.87573" lon="8.47579">
        <ele>2040</ele>
        <time>2021-08-11T13:35:03.690Z</time>
      </trkpt>
      <trkpt lat="46.87573" lon="8.47579">
        <ele>2040</ele>
        <time>2021-08-11T13:35:04.690Z</time>
      </trkpt>
      <trkpt lat="46.87572" lon="8.47579">
        <ele>2039</ele>
        <time>2021-08-11T13:35:05.691Z</time>
      </trkpt>
      <trkpt lat="46.87572" lon="8.47579">
        <ele>2039</ele>
        <time>2021-08-11T13:35:06.690Z</time>
      </trkpt>
      <trkpt lat="46.87572" lon="8.4758">
        <ele>2039</ele>
        <time>2021-08-11T13:35:07.691Z</time>
      </trkpt>
      <trkpt lat="46.87572" lon="8.4758">
        <ele>2040</ele>
        <time>2021-08-11T13:35:08.690Z</time>
      </trkpt>
      <trkpt lat="46.87573" lon="8.4758">
        <ele>2039</ele>
        <time>2021-08-11T13:35:09.690Z</time>
      </trkpt>
      <trkpt lat="46.87573" lon="8.4758">
        <ele>2039</ele>
        <time>2021-08-11T13:35:10.691Z</time>
      </trkpt>
      <trkpt lat="46.87573" lon="8.4758">
        <ele>2039</ele>
        <time>2021-08-11T13:35:11.691Z</time>
      </trkpt>
      <trkpt lat="46.87572" lon="8.47579">
        <ele>2039</ele>
        <time>2021-08-11T13:35:12.690Z</time>
      </trkpt>
      <trkpt lat="46.87572" lon="8.47578">
        <ele>2039</ele>
        <time>2021-08-11T13:35:13.691Z</time>
      </trkpt>
      <trkpt lat="46.87572" lon="8.47578">
        <ele>2039</ele>
        <time>2021-08-11T13:35:14.691Z</time>
      </trkpt>
      <trkpt lat="46.87572" lon="8.47577">
        <ele>2040</ele>
        <time>2021-08-11T13:35:15.691Z</time>
      </trkpt>
      <trkpt lat="46.87572" lon="8.47577">
        <ele>2040</ele>
        <time>2021-08-11T13:35:16.691Z</time>
      </trkpt>
      <trkpt lat="46.87572" lon="8.47577">
        <ele>2040</ele>
        <time>2021-08-11T13:35:17.690Z</time>
      </trkpt>
      <trkpt lat="46.87571" lon="8.47577">
        <ele>2041</ele>
        <time>2021-08-11T13:35:18.690Z</time>
      </trkpt>
      <trkpt lat="46.87571" lon="8.47577">
        <ele>2041</ele>
        <time>2021-08-11T13:35:19.691Z</time>
      </trkpt>
      <trkpt lat="46.8757" lon="8.47577">
        <ele>2041</ele>
        <time>2021-08-11T13:35:20.691Z</time>
      </trkpt>
      <trkpt lat="46.87571" lon="8.47577">
        <ele>2041</ele>
        <time>2021-08-11T13:35:21.691Z</time>
      </trkpt>
      <trkpt lat="46.87571" lon="8.47577">
        <ele>2041</ele>
        <time>2021-08-11T13:35:22.691Z</time>
      </trkpt>
      <trkpt lat="46.87571" lon="8.47577">
        <ele>2041</ele>
        <time>2021-08-11T13:35:23.690Z</time>
      </trkpt>
      <trkpt lat="46.87571" lon="8.47578">
        <ele>2041</ele>
        <time>2021-08-11T13:35:24.691Z</time>
      </trkpt>
      <trkpt lat="46.8757" lon="8.47578">
        <ele>2041</ele>
        <time>2021-08-11T13:35:25.691Z</time>
      </trkpt>
      <trkpt lat="46.8757" lon="8.47578">
        <ele>2041</ele>
        <time>2021-08-11T13:35:26.691Z</time>
      </trkpt>
      <trkpt lat="46.87569" lon="8.47578">
        <ele>2040</ele>
        <time>2021-08-11T13:35:27.691Z</time>
      </trkpt>
      <trkpt lat="46.8757" lon="8.47577">
        <ele>2040</ele>
        <time>2021-08-11T13:35:28.691Z</time>
      </trkpt>
      <trkpt lat="46.8757" lon="8.47577">
        <ele>2040</ele>
        <time>2021-08-11T13:35:29.690Z</time>
      </trkpt>
      <trkpt lat="46.87571" lon="8.47577">
        <ele>2039</ele>
        <time>2021-08-11T13:35:30.690Z</time>
      </trkpt>
      <trkpt lat="46.87572" lon="8.47578">
        <ele>2038</ele>
        <time>2021-08-11T13:35:31.692Z</time>
      </trkpt>
      <trkpt lat="46.87573" lon="8.47578">
        <ele>2038</ele>
        <time>2021-08-11T13:35:32.692Z</time>
      </trkpt>
      <trkpt lat="46.87573" lon="8.47578">
        <ele>2038</ele>
        <time>2021-08-11T13:35:33.692Z</time>
      </trkpt>
      <trkpt lat="46.87573" lon="8.47578">
        <ele>2038</ele>
        <time>2021-08-11T13:35:34.692Z</time>
      </trkpt>
      <trkpt lat="46.87572" lon="8.47578">
        <ele>2039</ele>
        <time>2021-08-11T13:35:35.692Z</time>
      </trkpt>
      <trkpt lat="46.87572" lon="8.47578">
        <ele>2039</ele>
        <time>2021-08-11T13:35:36.691Z</time>
      </trkpt>
      <trkpt lat="46.87572" lon="8.47578">
        <ele>2039</ele>
        <time>2021-08-11T13:35:37.692Z</time>
      </trkpt>
      <trkpt lat="46.87573" lon="8.47578">
        <ele>2040</ele>
        <time>2021-08-11T13:35:38.692Z</time>
      </trkpt>
      <trkpt lat="46.87574" lon="8.47578">
        <ele>2040</ele>
        <time>2021-08-11T13:35:39.692Z</time>
      </trkpt>
      <trkpt lat="46.87575" lon="8.47577">
        <ele>2041</ele>
        <time>2021-08-11T13:35:40.691Z</time>
      </trkpt>
      <trkpt lat="46.87576" lon="8.47577">
        <ele>2041</ele>
        <time>2021-08-11T13:35:41.691Z</time>
      </trkpt>
      <trkpt lat="46.87576" lon="8.47577">
        <ele>2041</ele>
        <time>2021-08-11T13:35:42.692Z</time>
      </trkpt>
      <trkpt lat="46.87577" lon="8.47577">
        <ele>2041</ele>
        <time>2021-08-11T13:35:43.692Z</time>
      </trkpt>
      <trkpt lat="46.87576" lon="8.47578">
        <ele>2041</ele>
        <time>2021-08-11T13:35:44.692Z</time>
      </trkpt>
      <trkpt lat="46.87576" lon="8.47578">
        <ele>2041</ele>
        <time>2021-08-11T13:35:45.692Z</time>
      </trkpt>
      <trkpt lat="46.87576" lon="8.47578">
        <ele>2041</ele>
        <time>2021-08-11T13:35:46.691Z</time>
      </trkpt>
      <trkpt lat="46.87577" lon="8.47577">
        <ele>2041</ele>
        <time>2021-08-11T13:35:47.691Z</time>
      </trkpt>
      <trkpt lat="46.87577" lon="8.47577">
        <ele>2041</ele>
        <time>2021-08-11T13:35:48.692Z</time>
      </trkpt>
      <trkpt lat="46.87576" lon="8.47575">
        <ele>2041</ele>
        <time>2021-08-11T13:35:49.693Z</time>
      </trkpt>
      <trkpt lat="46.87575" lon="8.47575">
        <ele>2041</ele>
        <time>2021-08-11T13:35:50.692Z</time>
      </trkpt>
      <trkpt lat="46.87575" lon="8.47575">
        <ele>2041</ele>
        <time>2021-08-11T13:35:51.692Z</time>
      </trkpt>
      <trkpt lat="46.87575" lon="8.47575">
        <ele>2040</ele>
        <time>2021-08-11T13:35:52.692Z</time>
      </trkpt>
      <trkpt lat="46.87575" lon="8.47576">
        <ele>2040</ele>
        <time>2021-08-11T13:35:53.692Z</time>
      </trkpt>
      <trkpt lat="46.87577" lon="8.47577">
        <ele>2042</ele>
        <time>2021-08-11T13:35:54.692Z</time>
      </trkpt>
      <trkpt lat="46.87577" lon="8.47576">
        <ele>2042</ele>
        <time>2021-08-11T13:35:55.692Z</time>
      </trkpt>
      <trkpt lat="46.87577" lon="8.47575">
        <ele>2042</ele>
        <time>2021-08-11T13:35:56.692Z</time>
      </trkpt>
      <trkpt lat="46.87576" lon="8.47575">
        <ele>2042</ele>
        <time>2021-08-11T13:35:57.693Z</time>
      </trkpt>
      <trkpt lat="46.87575" lon="8.47575">
        <ele>2042</ele>
        <time>2021-08-11T13:35:58.692Z</time>
      </trkpt>
      <trkpt lat="46.87576" lon="8.47576">
        <ele>2041</ele>
        <time>2021-08-11T13:35:59.693Z</time>
      </trkpt>
      <trkpt lat="46.87576" lon="8.47576">
        <ele>2039</ele>
        <time>2021-08-11T13:36:00.694Z</time>
      </trkpt>
      <trkpt lat="46.87575" lon="8.47576">
        <ele>2038</ele>
        <time>2021-08-11T13:36:01.694Z</time>
      </trkpt>
      <trkpt lat="46.87573" lon="8.47573">
        <ele>2031</ele>
        <time>2021-08-11T13:36:02.694Z</time>
      </trkpt>
      <trkpt lat="46.87573" lon="8.47574">
        <ele>2031</ele>
        <time>2021-08-11T13:36:03.694Z</time>
      </trkpt>
      <trkpt lat="46.8757" lon="8.47575">
        <ele>2026</ele>
        <time>2021-08-11T13:36:04.694Z</time>
      </trkpt>
      <trkpt lat="46.87569" lon="8.47575">
        <ele>2025</ele>
        <time>2021-08-11T13:36:05.693Z</time>
      </trkpt>
      <trkpt lat="46.87569" lon="8.47575">
        <ele>2025</ele>
        <time>2021-08-11T13:36:06.693Z</time>
      </trkpt>
      <trkpt lat="46.8757" lon="8.47575">
        <ele>2025</ele>
        <time>2021-08-11T13:36:07.694Z</time>
      </trkpt>
      <trkpt lat="46.8757" lon="8.47577">
        <ele>2025</ele>
        <time>2021-08-11T13:36:08.694Z</time>
      </trkpt>
      <trkpt lat="46.87571" lon="8.47578">
        <ele>2026</ele>
        <time>2021-08-11T13:36:09.694Z</time>
      </trkpt>
      <trkpt lat="46.8757" lon="8.47578">
        <ele>2026</ele>
        <time>2021-08-11T13:36:10.693Z</time>
      </trkpt>
      <trkpt lat="46.87569" lon="8.47577">
        <ele>2027</ele>
        <time>2021-08-11T13:36:11.694Z</time>
      </trkpt>
      <trkpt lat="46.87568" lon="8.47577">
        <ele>2027</ele>
        <time>2021-08-11T13:36:12.694Z</time>
      </trkpt>
      <trkpt lat="46.87569" lon="8.47577">
        <ele>2027</ele>
        <time>2021-08-11T13:36:13.693Z</time>
      </trkpt>
      <trkpt lat="46.87569" lon="8.47577">
        <ele>2026</ele>
        <time>2021-08-11T13:36:14.694Z</time>
      </trkpt>
      <trkpt lat="46.87569" lon="8.47577">
        <ele>2026</ele>
        <time>2021-08-11T13:36:15.693Z</time>
      </trkpt>
      <trkpt lat="46.8757" lon="8.47577">
        <ele>2026</ele>
        <time>2021-08-11T13:36:16.694Z</time>
      </trkpt>
      <trkpt lat="46.8757" lon="8.47577">
        <ele>2026</ele>
        <time>2021-08-11T13:36:17.694Z</time>
      </trkpt>
      <trkpt lat="46.8757" lon="8.47578">
        <ele>2032</ele>
        <time>2021-08-11T13:36:18.694Z</time>
      </trkpt>
      <trkpt lat="46.8757" lon="8.47578">
        <ele>2032</ele>
        <time>2021-08-11T13:36:19.695Z</time>
      </trkpt>
      <trkpt lat="46.87569" lon="8.47577">
        <ele>2033</ele>
        <time>2021-08-11T13:36:20.694Z</time>
      </trkpt>
      <trkpt lat="46.87568" lon="8.47577">
        <ele>2033</ele>
        <time>2021-08-11T13:36:21.695Z</time>
      </trkpt>
      <trkpt lat="46.87568" lon="8.47577">
        <ele>2035</ele>
        <time>2021-08-11T13:36:22.696Z</time>
      </trkpt>
      <trkpt lat="46.87569" lon="8.47577">
        <ele>2035</ele>
        <time>2021-08-11T13:36:23.695Z</time>
      </trkpt>
      <trkpt lat="46.87569" lon="8.47577">
        <ele>2035</ele>
        <time>2021-08-11T13:36:24.695Z</time>
      </trkpt>
      <trkpt lat="46.87569" lon="8.47576">
        <ele>2034</ele>
        <time>2021-08-11T13:36:25.695Z</time>
      </trkpt>
      <trkpt lat="46.87569" lon="8.47577">
        <ele>2034</ele>
        <time>2021-08-11T13:36:26.695Z</time>
      </trkpt>
      <trkpt lat="46.8757" lon="8.47577">
        <ele>2030</ele>
        <time>2021-08-11T13:36:27.696Z</time>
      </trkpt>
      <trkpt lat="46.87569" lon="8.47578">
        <ele>2029</ele>
        <time>2021-08-11T13:36:28.697Z</time>
      </trkpt>
      <trkpt lat="46.87569" lon="8.47578">
        <ele>2029</ele>
        <time>2021-08-11T13:36:29.697Z</time>
      </trkpt>
      <trkpt lat="46.87569" lon="8.47578">
        <ele>2029</ele>
        <time>2021-08-11T13:36:30.696Z</time>
      </trkpt>
      <trkpt lat="46.87569" lon="8.47579">
        <ele>2029</ele>
        <time>2021-08-11T13:36:31.696Z</time>
      </trkpt>
      <trkpt lat="46.87569" lon="8.4758">
        <ele>2029</ele>
        <time>2021-08-11T13:36:32.696Z</time>
      </trkpt>
      <trkpt lat="46.87569" lon="8.4758">
        <ele>2029</ele>
        <time>2021-08-11T13:36:33.697Z</time>
      </trkpt>
      <trkpt lat="46.87569" lon="8.4758">
        <ele>2028</ele>
        <time>2021-08-11T13:36:34.697Z</time>
      </trkpt>
      <trkpt lat="46.87569" lon="8.4758">
        <ele>2028</ele>
        <time>2021-08-11T13:36:35.697Z</time>
      </trkpt>
      <trkpt lat="46.87569" lon="8.47581">
        <ele>2028</ele>
        <time>2021-08-11T13:36:36.698Z</time>
      </trkpt>
      <trkpt lat="46.87569" lon="8.47582">
        <ele>2028</ele>
        <time>2021-08-11T13:36:37.698Z</time>
      </trkpt>
      <trkpt lat="46.8757" lon="8.47582">
        <ele>2028</ele>
        <time>2021-08-11T13:36:38.697Z</time>
      </trkpt>
      <trkpt lat="46.87571" lon="8.47582">
        <ele>2029</ele>
        <time>2021-08-11T13:36:39.698Z</time>
      </trkpt>
      <trkpt lat="46.87571" lon="8.47582">
        <ele>2029</ele>
        <time>2021-08-11T13:36:40.697Z</time>
      </trkpt>
      <trkpt lat="46.87571" lon="8.47583">
        <ele>2029</ele>
        <time>2021-08-11T13:36:41.698Z</time>
      </trkpt>
      <trkpt lat="46.8757" lon="8.47583">
        <ele>2029</ele>
        <time>2021-08-11T13:36:42.697Z</time>
      </trkpt>
      <trkpt lat="46.87568" lon="8.47576">
        <ele>2040</ele>
        <time>2021-08-11T13:36:43.698Z</time>
      </trkpt>
      <trkpt lat="46.87568" lon="8.47575">
        <ele>2040</ele>
        <time>2021-08-11T13:36:44.698Z</time>
      </trkpt>
      <trkpt lat="46.87568" lon="8.47575">
        <ele>2041</ele>
        <time>2021-08-11T13:36:45.698Z</time>
      </trkpt>
      <trkpt lat="46.87568" lon="8.47575">
        <ele>2041</ele>
        <time>2021-08-11T13:36:46.698Z</time>
      </trkpt>
      <trkpt lat="46.87568" lon="8.47575">
        <ele>2041</ele>
        <time>2021-08-11T13:36:47.697Z</time>
      </trkpt>
      <trkpt lat="46.87567" lon="8.47575">
        <ele>2044</ele>
        <time>2021-08-11T13:36:48.699Z</time>
      </trkpt>
      <trkpt lat="46.87567" lon="8.47576">
        <ele>2044</ele>
        <time>2021-08-11T13:36:49.698Z</time>
      </trkpt>
      <trkpt lat="46.87567" lon="8.47577">
        <ele>2047</ele>
        <time>2021-08-11T13:36:50.700Z</time>
      </trkpt>
      <trkpt lat="46.87567" lon="8.47577">
        <ele>2046</ele>
        <time>2021-08-11T13:36:51.700Z</time>
      </trkpt>
      <trkpt lat="46.87567" lon="8.47577">
        <ele>2046</ele>
        <time>2021-08-11T13:36:52.700Z</time>
      </trkpt>
      <trkpt lat="46.87567" lon="8.47576">
        <ele>2046</ele>
        <time>2021-08-11T13:36:53.700Z</time>
      </trkpt>
      <trkpt lat="46.87569" lon="8.47575">
        <ele>2037</ele>
        <time>2021-08-11T13:36:54.701Z</time>
      </trkpt>
      <trkpt lat="46.87569" lon="8.47575">
        <ele>2036</ele>
        <time>2021-08-11T13:36:55.701Z</time>
      </trkpt>
      <trkpt lat="46.8757" lon="8.47579">
        <ele>2028</ele>
        <time>2021-08-11T13:36:56.701Z</time>
      </trkpt>
      <trkpt lat="46.87571" lon="8.47578">
        <ele>2027</ele>
        <time>2021-08-11T13:36:57.700Z</time>
      </trkpt>
      <trkpt lat="46.8757" lon="8.47578">
        <ele>2027</ele>
        <time>2021-08-11T13:36:58.700Z</time>
      </trkpt>
      <trkpt lat="46.87569" lon="8.47577">
        <ele>2026</ele>
        <time>2021-08-11T13:36:59.701Z</time>
      </trkpt>
      <trkpt lat="46.87569" lon="8.47576">
        <ele>2026</ele>
        <time>2021-08-11T13:37:00.701Z</time>
      </trkpt>
      <trkpt lat="46.87569" lon="8.47576">
        <ele>2023</ele>
        <time>2021-08-11T13:37:01.700Z</time>
      </trkpt>
      <trkpt lat="46.8757" lon="8.47576">
        <ele>2023</ele>
        <time>2021-08-11T13:37:02.701Z</time>
      </trkpt>
      <trkpt lat="46.8757" lon="8.47576">
        <ele>2023</ele>
        <time>2021-08-11T13:37:03.700Z</time>
      </trkpt>
      <trkpt lat="46.87571" lon="8.47577">
        <ele>2023</ele>
        <time>2021-08-11T13:37:04.700Z</time>
      </trkpt>
      <trkpt lat="46.87571" lon="8.47577">
        <ele>2023</ele>
        <time>2021-08-11T13:37:05.701Z</time>
      </trkpt>
      <trkpt lat="46.87571" lon="8.47577">
        <ele>2025</ele>
        <time>2021-08-11T13:37:06.700Z</time>
      </trkpt>
      <trkpt lat="46.87569" lon="8.47576">
        <ele>2031</ele>
        <time>2021-08-11T13:37:07.701Z</time>
      </trkpt>
      <trkpt lat="46.87569" lon="8.47576">
        <ele>2031</ele>
        <time>2021-08-11T13:37:08.701Z</time>
      </trkpt>
      <trkpt lat="46.87569" lon="8.47575">
        <ele>2031</ele>
        <time>2021-08-11T13:37:09.700Z</time>
      </trkpt>
      <trkpt lat="46.8757" lon="8.47576">
        <ele>2031</ele>
        <time>2021-08-11T13:37:10.701Z</time>
      </trkpt>
      <trkpt lat="46.87569" lon="8.47577">
        <ele>2031</ele>
        <time>2021-08-11T13:37:11.701Z</time>
      </trkpt>
      <trkpt lat="46.87569" lon="8.47577">
        <ele>2031</ele>
        <time>2021-08-11T13:37:12.700Z</time>
      </trkpt>
      <trkpt lat="46.8757" lon="8.47577">
        <ele>2034</ele>
        <time>2021-08-11T13:37:13.700Z</time>
      </trkpt>
      <trkpt lat="46.8757" lon="8.47577">
        <ele>2034</ele>
        <time>2021-08-11T13:37:14.700Z</time>
      </trkpt>
      <trkpt lat="46.8757" lon="8.47577">
        <ele>2034</ele>
        <time>2021-08-11T13:37:15.700Z</time>
      </trkpt>
      <trkpt lat="46.87569" lon="8.47577">
        <ele>2033</ele>
        <time>2021-08-11T13:37:16.701Z</time>
      </trkpt>
      <trkpt lat="46.87569" lon="8.47577">
        <ele>2033</ele>
        <time>2021-08-11T13:37:17.700Z</time>
      </trkpt>
      <trkpt lat="46.87569" lon="8.47577">
        <ele>2032</ele>
        <time>2021-08-11T13:37:18.701Z</time>
      </trkpt>
      <trkpt lat="46.8757" lon="8.47576">
        <ele>2032</ele>
        <time>2021-08-11T13:37:19.701Z</time>
      </trkpt>
      <trkpt lat="46.8757" lon="8.47576">
        <ele>2032</ele>
        <time>2021-08-11T13:37:20.701Z</time>
      </trkpt>
      <trkpt lat="46.87574" lon="8.47579">
        <ele>2037</ele>
        <time>2021-08-11T13:37:21.701Z</time>
      </trkpt>
      <trkpt lat="46.87573" lon="8.47579">
        <ele>2037</ele>
        <time>2021-08-11T13:37:22.701Z</time>
      </trkpt>
      <trkpt lat="46.87573" lon="8.47579">
        <ele>2038</ele>
        <time>2021-08-11T13:37:27.700Z</time>
      </trkpt>
      <trkpt lat="46.87574" lon="8.47579">
        <ele>2038</ele>
        <time>2021-08-11T13:37:28.701Z</time>
      </trkpt>
      <trkpt lat="46.87575" lon="8.47579">
        <ele>2038</ele>
        <time>2021-08-11T13:37:29.701Z</time>
      </trkpt>
      <trkpt lat="46.87573" lon="8.47579">
        <ele>2039</ele>
        <time>2021-08-11T13:37:30.700Z</time>
      </trkpt>
      <trkpt lat="46.87572" lon="8.47579">
        <ele>2039</ele>
        <time>2021-08-11T13:37:31.701Z</time>
      </trkpt>
      <trkpt lat="46.87572" lon="8.47579">
        <ele>2039</ele>
        <time>2021-08-11T13:37:32.701Z</time>
      </trkpt>
      <trkpt lat="46.87573" lon="8.47578">
        <ele>2038</ele>
        <time>2021-08-11T13:37:33.700Z</time>
      </trkpt>
      <trkpt lat="46.87573" lon="8.47577">
        <ele>2038</ele>
        <time>2021-08-11T13:37:34.700Z</time>
      </trkpt>
      <trkpt lat="46.87574" lon="8.47576">
        <ele>2038</ele>
        <time>2021-08-11T13:37:35.700Z</time>
      </trkpt>
      <trkpt lat="46.87573" lon="8.47575">
        <ele>2037</ele>
        <time>2021-08-11T13:37:36.701Z</time>
      </trkpt>
      <trkpt lat="46.87572" lon="8.47576">
        <ele>2036</ele>
        <time>2021-08-11T13:37:37.700Z</time>
      </trkpt>
      <trkpt lat="46.8757" lon="8.47578">
        <ele>2035</ele>
        <time>2021-08-11T13:37:39.670Z</time>
      </trkpt>
      <trkpt lat="46.87569" lon="8.47578">
        <ele>2034</ele>
        <time>2021-08-11T13:37:40.670Z</time>
      </trkpt>
      <trkpt lat="46.8757" lon="8.47578">
        <ele>2033</ele>
        <time>2021-08-11T13:37:41.669Z</time>
      </trkpt>
      <trkpt lat="46.8757" lon="8.47578">
        <ele>2033</ele>
        <time>2021-08-11T13:37:42.670Z</time>
      </trkpt>
      <trkpt lat="46.8757" lon="8.47578">
        <ele>2032</ele>
        <time>2021-08-11T13:37:43.670Z</time>
      </trkpt>
      <trkpt lat="46.87571" lon="8.47578">
        <ele>2032</ele>
        <time>2021-08-11T13:37:44.669Z</time>
      </trkpt>
      <trkpt lat="46.87571" lon="8.47578">
        <ele>2031</ele>
        <time>2021-08-11T13:37:45.669Z</time>
      </trkpt>
      <trkpt lat="46.87571" lon="8.47579">
        <ele>2031</ele>
        <time>2021-08-11T13:37:46.670Z</time>
      </trkpt>
      <trkpt lat="46.87571" lon="8.47578">
        <ele>2031</ele>
        <time>2021-08-11T13:37:47.670Z</time>
      </trkpt>
      <trkpt lat="46.8757" lon="8.47578">
        <ele>2032</ele>
        <time>2021-08-11T13:37:48.670Z</time>
      </trkpt>
      <trkpt lat="46.8757" lon="8.47578">
        <ele>2032</ele>
        <time>2021-08-11T13:37:49.670Z</time>
      </trkpt>
      <trkpt lat="46.8757" lon="8.47578">
        <ele>2033</ele>
        <time>2021-08-11T13:37:50.670Z</time>
      </trkpt>
      <trkpt lat="46.8757" lon="8.47578">
        <ele>2033</ele>
        <time>2021-08-11T13:37:51.670Z</time>
      </trkpt>
      <trkpt lat="46.8757" lon="8.47578">
        <ele>2034</ele>
        <time>2021-08-11T13:37:52.670Z</time>
      </trkpt>
      <trkpt lat="46.8757" lon="8.47578">
        <ele>2035</ele>
        <time>2021-08-11T13:37:53.670Z</time>
      </trkpt>
      <trkpt lat="46.8757" lon="8.47578">
        <ele>2035</ele>
        <time>2021-08-11T13:37:54.669Z</time>
      </trkpt>
      <trkpt lat="46.87571" lon="8.47577">
        <ele>2036</ele>
        <time>2021-08-11T13:37:55.670Z</time>
      </trkpt>
      <trkpt lat="46.87571" lon="8.47577">
        <ele>2036</ele>
        <time>2021-08-11T13:37:56.670Z</time>
      </trkpt>
      <trkpt lat="46.87571" lon="8.47577">
        <ele>2037</ele>
        <time>2021-08-11T13:37:57.670Z</time>
      </trkpt>
      <trkpt lat="46.87571" lon="8.47576">
        <ele>2037</ele>
        <time>2021-08-11T13:37:58.670Z</time>
      </trkpt>
      <trkpt lat="46.87571" lon="8.47575">
        <ele>2038</ele>
        <time>2021-08-11T13:37:59.669Z</time>
      </trkpt>
      <trkpt lat="46.8757" lon="8.47575">
        <ele>2038</ele>
        <time>2021-08-11T13:38:00.670Z</time>
      </trkpt>
      <trkpt lat="46.8757" lon="8.47574">
        <ele>2038</ele>
        <time>2021-08-11T13:38:01.670Z</time>
      </trkpt>
      <trkpt lat="46.8757" lon="8.47573">
        <ele>2038</ele>
        <time>2021-08-11T13:38:02.669Z</time>
      </trkpt>
      <trkpt lat="46.87569" lon="8.47572">
        <ele>2038</ele>
        <time>2021-08-11T13:38:03.670Z</time>
      </trkpt>
      <trkpt lat="46.87569" lon="8.47572">
        <ele>2038</ele>
        <time>2021-08-11T13:38:04.670Z</time>
      </trkpt>
      <trkpt lat="46.87569" lon="8.47571">
        <ele>2038</ele>
        <time>2021-08-11T13:38:05.670Z</time>
      </trkpt>
      <trkpt lat="46.87568" lon="8.47571">
        <ele>2038</ele>
        <time>2021-08-11T13:38:06.670Z</time>
      </trkpt>
      <trkpt lat="46.87568" lon="8.4757">
        <ele>2037</ele>
        <time>2021-08-11T13:38:07.669Z</time>
      </trkpt>
      <trkpt lat="46.87568" lon="8.4757">
        <ele>2036</ele>
        <time>2021-08-11T13:38:08.669Z</time>
      </trkpt>
      <trkpt lat="46.87567" lon="8.4757">
        <ele>2035</ele>
        <time>2021-08-11T13:38:09.669Z</time>
      </trkpt>
      <trkpt lat="46.87567" lon="8.47571">
        <ele>2035</ele>
        <time>2021-08-11T13:38:10.670Z</time>
      </trkpt>
      <trkpt lat="46.87567" lon="8.47571">
        <ele>2036</ele>
        <time>2021-08-11T13:38:11.670Z</time>
      </trkpt>
      <trkpt lat="46.87565" lon="8.47571">
        <ele>2047</ele>
        <time>2021-08-11T13:38:12.671Z</time>
      </trkpt>
      <trkpt lat="46.87565" lon="8.47571">
        <ele>2047</ele>
        <time>2021-08-11T13:38:13.671Z</time>
      </trkpt>
      <trkpt lat="46.87565" lon="8.47571">
        <ele>2048</ele>
        <time>2021-08-11T13:38:14.671Z</time>
      </trkpt>
      <trkpt lat="46.87565" lon="8.47571">
        <ele>2048</ele>
        <time>2021-08-11T13:38:15.671Z</time>
      </trkpt>
      <trkpt lat="46.87564" lon="8.4757">
        <ele>2049</ele>
        <time>2021-08-11T13:38:16.671Z</time>
      </trkpt>
      <trkpt lat="46.87564" lon="8.47569">
        <ele>2049</ele>
        <time>2021-08-11T13:38:17.670Z</time>
      </trkpt>
      <trkpt lat="46.87564" lon="8.47569">
        <ele>2048</ele>
        <time>2021-08-11T13:38:18.670Z</time>
      </trkpt>
      <trkpt lat="46.87565" lon="8.47569">
        <ele>2048</ele>
        <time>2021-08-11T13:38:19.670Z</time>
      </trkpt>
      <trkpt lat="46.87566" lon="8.47568">
        <ele>2045</ele>
        <time>2021-08-11T13:38:20.671Z</time>
      </trkpt>
      <trkpt lat="46.87566" lon="8.47568">
        <ele>2045</ele>
        <time>2021-08-11T13:38:21.671Z</time>
      </trkpt>
      <trkpt lat="46.87566" lon="8.47568">
        <ele>2044</ele>
        <time>2021-08-11T13:38:22.671Z</time>
      </trkpt>
      <trkpt lat="46.87565" lon="8.47567">
        <ele>2040</ele>
        <time>2021-08-11T13:38:23.672Z</time>
      </trkpt>
      <trkpt lat="46.87567" lon="8.47565">
        <ele>2043</ele>
        <time>2021-08-11T13:38:24.672Z</time>
      </trkpt>
      <trkpt lat="46.87567" lon="8.47565">
        <ele>2042</ele>
        <time>2021-08-11T13:38:25.671Z</time>
      </trkpt>
      <trkpt lat="46.87566" lon="8.47564">
        <ele>2042</ele>
        <time>2021-08-11T13:38:26.671Z</time>
      </trkpt>
      <trkpt lat="46.87565" lon="8.47564">
        <ele>2041</ele>
        <time>2021-08-11T13:38:27.671Z</time>
      </trkpt>
      <trkpt lat="46.87565" lon="8.47563">
        <ele>2041</ele>
        <time>2021-08-11T13:38:28.672Z</time>
      </trkpt>
      <trkpt lat="46.87565" lon="8.47563">
        <ele>2041</ele>
        <time>2021-08-11T13:38:29.672Z</time>
      </trkpt>
      <trkpt lat="46.87564" lon="8.47562">
        <ele>2041</ele>
        <time>2021-08-11T13:38:30.672Z</time>
      </trkpt>
      <trkpt lat="46.87563" lon="8.47561">
        <ele>2042</ele>
        <time>2021-08-11T13:38:31.672Z</time>
      </trkpt>
      <trkpt lat="46.87562" lon="8.47559">
        <ele>2042</ele>
        <time>2021-08-11T13:38:32.672Z</time>
      </trkpt>
      <trkpt lat="46.87562" lon="8.47558">
        <ele>2042</ele>
        <time>2021-08-11T13:38:33.671Z</time>
      </trkpt>
      <trkpt lat="46.87561" lon="8.47557">
        <ele>2041</ele>
        <time>2021-08-11T13:38:34.672Z</time>
      </trkpt>
      <trkpt lat="46.87561" lon="8.47556">
        <ele>2042</ele>
        <time>2021-08-11T13:38:35.672Z</time>
      </trkpt>
      <trkpt lat="46.87561" lon="8.47556">
        <ele>2042</ele>
        <time>2021-08-11T13:38:36.672Z</time>
      </trkpt>
      <trkpt lat="46.87561" lon="8.47555">
        <ele>2042</ele>
        <time>2021-08-11T13:38:37.671Z</time>
      </trkpt>
      <trkpt lat="46.87561" lon="8.47554">
        <ele>2043</ele>
        <time>2021-08-11T13:38:38.671Z</time>
      </trkpt>
      <trkpt lat="46.87561" lon="8.47554">
        <ele>2043</ele>
        <time>2021-08-11T13:38:39.672Z</time>
      </trkpt>
      <trkpt lat="46.87561" lon="8.47549">
        <ele>2034</ele>
        <time>2021-08-11T13:38:40.674Z</time>
      </trkpt>
      <trkpt lat="46.8756" lon="8.47548">
        <ele>2035</ele>
        <time>2021-08-11T13:38:41.674Z</time>
      </trkpt>
      <trkpt lat="46.8756" lon="8.47548">
        <ele>2035</ele>
        <time>2021-08-11T13:38:42.673Z</time>
      </trkpt>
      <trkpt lat="46.87559" lon="8.47547">
        <ele>2035</ele>
        <time>2021-08-11T13:38:43.673Z</time>
      </trkpt>
      <trkpt lat="46.87559" lon="8.47547">
        <ele>2035</ele>
        <time>2021-08-11T13:38:44.674Z</time>
      </trkpt>
      <trkpt lat="46.87558" lon="8.47546">
        <ele>2035</ele>
        <time>2021-08-11T13:38:45.674Z</time>
      </trkpt>
      <trkpt lat="46.87558" lon="8.47545">
        <ele>2035</ele>
        <time>2021-08-11T13:38:46.674Z</time>
      </trkpt>
      <trkpt lat="46.87558" lon="8.47544">
        <ele>2035</ele>
        <time>2021-08-11T13:38:47.674Z</time>
      </trkpt>
      <trkpt lat="46.87557" lon="8.47543">
        <ele>2035</ele>
        <time>2021-08-11T13:38:48.673Z</time>
      </trkpt>
      <trkpt lat="46.87557" lon="8.47543">
        <ele>2035</ele>
        <time>2021-08-11T13:38:49.674Z</time>
      </trkpt>
      <trkpt lat="46.87557" lon="8.47543">
        <ele>2035</ele>
        <time>2021-08-11T13:38:50.674Z</time>
      </trkpt>
      <trkpt lat="46.87557" lon="8.47542">
        <ele>2036</ele>
        <time>2021-08-11T13:38:51.674Z</time>
      </trkpt>
      <trkpt lat="46.87556" lon="8.47542">
        <ele>2037</ele>
        <time>2021-08-11T13:38:52.673Z</time>
      </trkpt>
      <trkpt lat="46.87556" lon="8.47542">
        <ele>2042</ele>
        <time>2021-08-11T13:38:53.674Z</time>
      </trkpt>
      <trkpt lat="46.87556" lon="8.47542">
        <ele>2042</ele>
        <time>2021-08-11T13:38:54.673Z</time>
      </trkpt>
      <trkpt lat="46.87555" lon="8.47541">
        <ele>2041</ele>
        <time>2021-08-11T13:38:57.690Z</time>
      </trkpt>
      <trkpt lat="46.87554" lon="8.4754">
        <ele>2037</ele>
        <time>2021-08-11T13:38:58.691Z</time>
      </trkpt>
      <trkpt lat="46.87554" lon="8.4754">
        <ele>2037</ele>
        <time>2021-08-11T13:38:59.691Z</time>
      </trkpt>
      <trkpt lat="46.87555" lon="8.47539">
        <ele>2037</ele>
        <time>2021-08-11T13:39:00.690Z</time>
      </trkpt>
      <trkpt lat="46.87555" lon="8.47539">
        <ele>2037</ele>
        <time>2021-08-11T13:39:01.691Z</time>
      </trkpt>
      <trkpt lat="46.87557" lon="8.47537">
        <ele>2037</ele>
        <time>2021-08-11T13:39:02.692Z</time>
      </trkpt>
      <trkpt lat="46.87557" lon="8.47536">
        <ele>2037</ele>
        <time>2021-08-11T13:39:03.692Z</time>
      </trkpt>
      <trkpt lat="46.87556" lon="8.47536">
        <ele>2043</ele>
        <time>2021-08-11T13:39:04.691Z</time>
      </trkpt>
      <trkpt lat="46.87557" lon="8.47536">
        <ele>2043</ele>
        <time>2021-08-11T13:39:05.692Z</time>
      </trkpt>
      <trkpt lat="46.87557" lon="8.47535">
        <ele>2044</ele>
        <time>2021-08-11T13:39:06.691Z</time>
      </trkpt>
      <trkpt lat="46.87558" lon="8.47535">
        <ele>2044</ele>
        <time>2021-08-11T13:39:07.692Z</time>
      </trkpt>
      <trkpt lat="46.87558" lon="8.47534">
        <ele>2045</ele>
        <time>2021-08-11T13:39:08.692Z</time>
      </trkpt>
      <trkpt lat="46.87559" lon="8.47533">
        <ele>2046</ele>
        <time>2021-08-11T13:39:09.692Z</time>
      </trkpt>
      <trkpt lat="46.8756" lon="8.47533">
        <ele>2046</ele>
        <time>2021-08-11T13:39:10.691Z</time>
      </trkpt>
      <trkpt lat="46.87561" lon="8.47532">
        <ele>2047</ele>
        <time>2021-08-11T13:39:11.691Z</time>
      </trkpt>
      <trkpt lat="46.87561" lon="8.47531">
        <ele>2047</ele>
        <time>2021-08-11T13:39:12.692Z</time>
      </trkpt>
      <trkpt lat="46.87561" lon="8.47531">
        <ele>2046</ele>
        <time>2021-08-11T13:39:13.692Z</time>
      </trkpt>
      <trkpt lat="46.87562" lon="8.4753">
        <ele>2046</ele>
        <time>2021-08-11T13:39:14.691Z</time>
      </trkpt>
      <trkpt lat="46.87562" lon="8.47529">
        <ele>2045</ele>
        <time>2021-08-11T13:39:15.692Z</time>
      </trkpt>
      <trkpt lat="46.87562" lon="8.47528">
        <ele>2045</ele>
        <time>2021-08-11T13:39:16.691Z</time>
      </trkpt>
      <trkpt lat="46.87562" lon="8.47526">
        <ele>2045</ele>
        <time>2021-08-11T13:39:17.692Z</time>
      </trkpt>
      <trkpt lat="46.87562" lon="8.47525">
        <ele>2044</ele>
        <time>2021-08-11T13:39:18.692Z</time>
      </trkpt>
      <trkpt lat="46.87562" lon="8.47525">
        <ele>2044</ele>
        <time>2021-08-11T13:39:19.691Z</time>
      </trkpt>
      <trkpt lat="46.87562" lon="8.47524">
        <ele>2043</ele>
        <time>2021-08-11T13:39:20.692Z</time>
      </trkpt>
      <trkpt lat="46.87562" lon="8.47522">
        <ele>2043</ele>
        <time>2021-08-11T13:39:21.692Z</time>
      </trkpt>
      <trkpt lat="46.87561" lon="8.47521">
        <ele>2043</ele>
        <time>2021-08-11T13:39:22.692Z</time>
      </trkpt>
      <trkpt lat="46.87561" lon="8.4752">
        <ele>2043</ele>
        <time>2021-08-11T13:39:23.691Z</time>
      </trkpt>
      <trkpt lat="46.87561" lon="8.47518">
        <ele>2043</ele>
        <time>2021-08-11T13:39:24.692Z</time>
      </trkpt>
      <trkpt lat="46.87562" lon="8.47517">
        <ele>2043</ele>
        <time>2021-08-11T13:39:25.692Z</time>
      </trkpt>
      <trkpt lat="46.87562" lon="8.47515">
        <ele>2043</ele>
        <time>2021-08-11T13:39:26.692Z</time>
      </trkpt>
      <trkpt lat="46.87562" lon="8.47514">
        <ele>2043</ele>
        <time>2021-08-11T13:39:27.692Z</time>
      </trkpt>
      <trkpt lat="46.87562" lon="8.47512">
        <ele>2043</ele>
        <time>2021-08-11T13:39:28.692Z</time>
      </trkpt>
      <trkpt lat="46.87562" lon="8.47511">
        <ele>2042</ele>
        <time>2021-08-11T13:39:29.691Z</time>
      </trkpt>
      <trkpt lat="46.87562" lon="8.4751">
        <ele>2042</ele>
        <time>2021-08-11T13:39:30.692Z</time>
      </trkpt>
      <trkpt lat="46.87563" lon="8.47508">
        <ele>2042</ele>
        <time>2021-08-11T13:39:31.692Z</time>
      </trkpt>
      <trkpt lat="46.87563" lon="8.47507">
        <ele>2043</ele>
        <time>2021-08-11T13:39:32.692Z</time>
      </trkpt>
      <trkpt lat="46.87563" lon="8.47506">
        <ele>2043</ele>
        <time>2021-08-11T13:39:33.692Z</time>
      </trkpt>
      <trkpt lat="46.87564" lon="8.47504">
        <ele>2043</ele>
        <time>2021-08-11T13:39:34.692Z</time>
      </trkpt>
      <trkpt lat="46.87564" lon="8.47503">
        <ele>2044</ele>
        <time>2021-08-11T13:39:35.691Z</time>
      </trkpt>
      <trkpt lat="46.87563" lon="8.47502">
        <ele>2044</ele>
        <time>2021-08-11T13:39:36.692Z</time>
      </trkpt>
      <trkpt lat="46.87564" lon="8.47501">
        <ele>2044</ele>
        <time>2021-08-11T13:39:37.692Z</time>
      </trkpt>
      <trkpt lat="46.87564" lon="8.475">
        <ele>2043</ele>
        <time>2021-08-11T13:39:38.691Z</time>
      </trkpt>
      <trkpt lat="46.87565" lon="8.47499">
        <ele>2043</ele>
        <time>2021-08-11T13:39:39.692Z</time>
      </trkpt>
      <trkpt lat="46.87566" lon="8.47498">
        <ele>2043</ele>
        <time>2021-08-11T13:39:40.691Z</time>
      </trkpt>
      <trkpt lat="46.87566" lon="8.47497">
        <ele>2043</ele>
        <time>2021-08-11T13:39:41.692Z</time>
      </trkpt>
      <trkpt lat="46.87566" lon="8.47495">
        <ele>2042</ele>
        <time>2021-08-11T13:39:42.692Z</time>
      </trkpt>
      <trkpt lat="46.87566" lon="8.47494">
        <ele>2042</ele>
        <time>2021-08-11T13:39:43.692Z</time>
      </trkpt>
      <trkpt lat="46.87567" lon="8.47493">
        <ele>2042</ele>
        <time>2021-08-11T13:39:44.692Z</time>
      </trkpt>
      <trkpt lat="46.87567" lon="8.47492">
        <ele>2041</ele>
        <time>2021-08-11T13:39:45.692Z</time>
      </trkpt>
      <trkpt lat="46.87568" lon="8.47491">
        <ele>2041</ele>
        <time>2021-08-11T13:39:46.692Z</time>
      </trkpt>
      <trkpt lat="46.87568" lon="8.4749">
        <ele>2041</ele>
        <time>2021-08-11T13:39:47.692Z</time>
      </trkpt>
      <trkpt lat="46.87568" lon="8.47489">
        <ele>2040</ele>
        <time>2021-08-11T13:39:48.692Z</time>
      </trkpt>
      <trkpt lat="46.87568" lon="8.47488">
        <ele>2040</ele>
        <time>2021-08-11T13:39:49.692Z</time>
      </trkpt>
      <trkpt lat="46.87568" lon="8.47488">
        <ele>2040</ele>
        <time>2021-08-11T13:39:50.691Z</time>
      </trkpt>
      <trkpt lat="46.87568" lon="8.47487">
        <ele>2040</ele>
        <time>2021-08-11T13:39:51.691Z</time>
      </trkpt>
      <trkpt lat="46.87568" lon="8.47487">
        <ele>2040</ele>
        <time>2021-08-11T13:39:52.692Z</time>
      </trkpt>
      <trkpt lat="46.87568" lon="8.47487">
        <ele>2040</ele>
        <time>2021-08-11T13:39:53.692Z</time>
      </trkpt>
      <trkpt lat="46.87568" lon="8.47486">
        <ele>2040</ele>
        <time>2021-08-11T13:39:54.692Z</time>
      </trkpt>
      <trkpt lat="46.87569" lon="8.47485">
        <ele>2040</ele>
        <time>2021-08-11T13:39:55.692Z</time>
      </trkpt>
      <trkpt lat="46.87569" lon="8.47485">
        <ele>2040</ele>
        <time>2021-08-11T13:39:56.691Z</time>
      </trkpt>
      <trkpt lat="46.87569" lon="8.47484">
        <ele>2040</ele>
        <time>2021-08-11T13:39:57.692Z</time>
      </trkpt>
      <trkpt lat="46.87569" lon="8.47483">
        <ele>2039</ele>
        <time>2021-08-11T13:39:58.692Z</time>
      </trkpt>
      <trkpt lat="46.87568" lon="8.47482">
        <ele>2039</ele>
        <time>2021-08-11T13:39:59.692Z</time>
      </trkpt>
      <trkpt lat="46.87568" lon="8.47482">
        <ele>2039</ele>
        <time>2021-08-11T13:40:00.692Z</time>
      </trkpt>
      <trkpt lat="46.87568" lon="8.47481">
        <ele>2038</ele>
        <time>2021-08-11T13:40:01.691Z</time>
      </trkpt>
      <trkpt lat="46.87568" lon="8.4748">
        <ele>2038</ele>
        <time>2021-08-11T13:40:02.692Z</time>
      </trkpt>
      <trkpt lat="46.87567" lon="8.4748">
        <ele>2038</ele>
        <time>2021-08-11T13:40:03.692Z</time>
      </trkpt>
      <trkpt lat="46.87567" lon="8.47479">
        <ele>2037</ele>
        <time>2021-08-11T13:40:04.692Z</time>
      </trkpt>
      <trkpt lat="46.87567" lon="8.47478">
        <ele>2037</ele>
        <time>2021-08-11T13:40:05.692Z</time>
      </trkpt>
      <trkpt lat="46.87567" lon="8.47478">
        <ele>2038</ele>
        <time>2021-08-11T13:40:06.692Z</time>
      </trkpt>
      <trkpt lat="46.87567" lon="8.47477">
        <ele>2038</ele>
        <time>2021-08-11T13:40:07.691Z</time>
      </trkpt>
      <trkpt lat="46.87567" lon="8.47477">
        <ele>2038</ele>
        <time>2021-08-11T13:40:08.692Z</time>
      </trkpt>
      <trkpt lat="46.87567" lon="8.47476">
        <ele>2038</ele>
        <time>2021-08-11T13:40:09.692Z</time>
      </trkpt>
      <trkpt lat="46.87567" lon="8.47475">
        <ele>2038</ele>
        <time>2021-08-11T13:40:10.691Z</time>
      </trkpt>
      <trkpt lat="46.87566" lon="8.47475">
        <ele>2038</ele>
        <time>2021-08-11T13:40:11.691Z</time>
      </trkpt>
      <trkpt lat="46.87566" lon="8.47474">
        <ele>2037</ele>
        <time>2021-08-11T13:40:12.691Z</time>
      </trkpt>
      <trkpt lat="46.87566" lon="8.47473">
        <ele>2037</ele>
        <time>2021-08-11T13:40:13.692Z</time>
      </trkpt>
      <trkpt lat="46.87566" lon="8.47473">
        <ele>2037</ele>
        <time>2021-08-11T13:40:14.692Z</time>
      </trkpt>
      <trkpt lat="46.87566" lon="8.47473">
        <ele>2037</ele>
        <time>2021-08-11T13:40:15.692Z</time>
      </trkpt>
      <trkpt lat="46.87565" lon="8.47472">
        <ele>2037</ele>
        <time>2021-08-11T13:40:16.693Z</time>
      </trkpt>
      <trkpt lat="46.87565" lon="8.47471">
        <ele>2037</ele>
        <time>2021-08-11T13:40:17.693Z</time>
      </trkpt>
      <trkpt lat="46.87565" lon="8.4747">
        <ele>2038</ele>
        <time>2021-08-11T13:40:18.692Z</time>
      </trkpt>
      <trkpt lat="46.87565" lon="8.47469">
        <ele>2038</ele>
        <time>2021-08-11T13:40:19.693Z</time>
      </trkpt>
      <trkpt lat="46.87565" lon="8.47468">
        <ele>2038</ele>
        <time>2021-08-11T13:40:20.693Z</time>
      </trkpt>
      <trkpt lat="46.87565" lon="8.47467">
        <ele>2039</ele>
        <time>2021-08-11T13:40:21.692Z</time>
      </trkpt>
      <trkpt lat="46.87565" lon="8.47467">
        <ele>2039</ele>
        <time>2021-08-11T13:40:22.692Z</time>
      </trkpt>
      <trkpt lat="46.87565" lon="8.47466">
        <ele>2040</ele>
        <time>2021-08-11T13:40:23.693Z</time>
      </trkpt>
      <trkpt lat="46.87565" lon="8.47465">
        <ele>2040</ele>
        <time>2021-08-11T13:40:24.693Z</time>
      </trkpt>
      <trkpt lat="46.87565" lon="8.47463">
        <ele>2041</ele>
        <time>2021-08-11T13:40:25.693Z</time>
      </trkpt>
      <trkpt lat="46.87564" lon="8.47462">
        <ele>2041</ele>
        <time>2021-08-11T13:40:26.693Z</time>
      </trkpt>
      <trkpt lat="46.87564" lon="8.47461">
        <ele>2041</ele>
        <time>2021-08-11T13:40:27.692Z</time>
      </trkpt>
      <trkpt lat="46.87563" lon="8.47461">
        <ele>2040</ele>
        <time>2021-08-11T13:40:28.692Z</time>
      </trkpt>
      <trkpt lat="46.87562" lon="8.4746">
        <ele>2040</ele>
        <time>2021-08-11T13:40:29.693Z</time>
      </trkpt>
      <trkpt lat="46.87562" lon="8.4746">
        <ele>2040</ele>
        <time>2021-08-11T13:40:30.693Z</time>
      </trkpt>
      <trkpt lat="46.87561" lon="8.47459">
        <ele>2039</ele>
        <time>2021-08-11T13:40:31.693Z</time>
      </trkpt>
      <trkpt lat="46.87561" lon="8.47459">
        <ele>2039</ele>
        <time>2021-08-11T13:40:32.692Z</time>
      </trkpt>
      <trkpt lat="46.87561" lon="8.47458">
        <ele>2039</ele>
        <time>2021-08-11T13:40:33.693Z</time>
      </trkpt>
      <trkpt lat="46.87561" lon="8.47457">
        <ele>2039</ele>
        <time>2021-08-11T13:40:34.692Z</time>
      </trkpt>
      <trkpt lat="46.87561" lon="8.47457">
        <ele>2039</ele>
        <time>2021-08-11T13:40:35.692Z</time>
      </trkpt>
      <trkpt lat="46.87561" lon="8.47456">
        <ele>2038</ele>
        <time>2021-08-11T13:40:36.693Z</time>
      </trkpt>
      <trkpt lat="46.87562" lon="8.47455">
        <ele>2038</ele>
        <time>2021-08-11T13:40:37.693Z</time>
      </trkpt>
      <trkpt lat="46.87562" lon="8.47454">
        <ele>2038</ele>
        <time>2021-08-11T13:40:38.693Z</time>
      </trkpt>
      <trkpt lat="46.87561" lon="8.47452">
        <ele>2038</ele>
        <time>2021-08-11T13:40:39.693Z</time>
      </trkpt>
      <trkpt lat="46.8756" lon="8.47451">
        <ele>2038</ele>
        <time>2021-08-11T13:40:40.692Z</time>
      </trkpt>
      <trkpt lat="46.87559" lon="8.4745">
        <ele>2039</ele>
        <time>2021-08-11T13:40:41.693Z</time>
      </trkpt>
      <trkpt lat="46.87559" lon="8.47449">
        <ele>2039</ele>
        <time>2021-08-11T13:40:42.692Z</time>
      </trkpt>
      <trkpt lat="46.87559" lon="8.47449">
        <ele>2038</ele>
        <time>2021-08-11T13:40:43.693Z</time>
      </trkpt>
      <trkpt lat="46.87559" lon="8.47448">
        <ele>2038</ele>
        <time>2021-08-11T13:40:44.693Z</time>
      </trkpt>
      <trkpt lat="46.87558" lon="8.47448">
        <ele>2038</ele>
        <time>2021-08-11T13:40:45.692Z</time>
      </trkpt>
      <trkpt lat="46.87558" lon="8.47447">
        <ele>2038</ele>
        <time>2021-08-11T13:40:46.692Z</time>
      </trkpt>
      <trkpt lat="46.87557" lon="8.47446">
        <ele>2038</ele>
        <time>2021-08-11T13:40:47.693Z</time>
      </trkpt>
      <trkpt lat="46.87557" lon="8.47446">
        <ele>2039</ele>
        <time>2021-08-11T13:40:48.693Z</time>
      </trkpt>
      <trkpt lat="46.87557" lon="8.47445">
        <ele>2039</ele>
        <time>2021-08-11T13:40:49.693Z</time>
      </trkpt>
      <trkpt lat="46.87557" lon="8.47445">
        <ele>2039</ele>
        <time>2021-08-11T13:40:50.692Z</time>
      </trkpt>
      <trkpt lat="46.87557" lon="8.47445">
        <ele>2039</ele>
        <time>2021-08-11T13:40:51.692Z</time>
      </trkpt>
      <trkpt lat="46.87556" lon="8.47444">
        <ele>2040</ele>
        <time>2021-08-11T13:40:52.693Z</time>
      </trkpt>
      <trkpt lat="46.87557" lon="8.47443">
        <ele>2040</ele>
        <time>2021-08-11T13:40:53.693Z</time>
      </trkpt>
      <trkpt lat="46.87557" lon="8.47442">
        <ele>2040</ele>
        <time>2021-08-11T13:40:54.692Z</time>
      </trkpt>
      <trkpt lat="46.87557" lon="8.47441">
        <ele>2040</ele>
        <time>2021-08-11T13:40:55.692Z</time>
      </trkpt>
      <trkpt lat="46.87556" lon="8.47441">
        <ele>2040</ele>
        <time>2021-08-11T13:40:56.693Z</time>
      </trkpt>
      <trkpt lat="46.87556" lon="8.4744">
        <ele>2040</ele>
        <time>2021-08-11T13:40:57.693Z</time>
      </trkpt>
      <trkpt lat="46.87555" lon="8.47439">
        <ele>2041</ele>
        <time>2021-08-11T13:40:58.693Z</time>
      </trkpt>
      <trkpt lat="46.87555" lon="8.47439">
        <ele>2041</ele>
        <time>2021-08-11T13:40:59.692Z</time>
      </trkpt>
      <trkpt lat="46.87555" lon="8.47438">
        <ele>2041</ele>
        <time>2021-08-11T13:41:00.692Z</time>
      </trkpt>
      <trkpt lat="46.87555" lon="8.47437">
        <ele>2041</ele>
        <time>2021-08-11T13:41:01.693Z</time>
      </trkpt>
      <trkpt lat="46.87555" lon="8.47437">
        <ele>2041</ele>
        <time>2021-08-11T13:41:02.693Z</time>
      </trkpt>
      <trkpt lat="46.87555" lon="8.47436">
        <ele>2041</ele>
        <time>2021-08-11T13:41:03.692Z</time>
      </trkpt>
      <trkpt lat="46.87554" lon="8.47436">
        <ele>2041</ele>
        <time>2021-08-11T13:41:04.692Z</time>
      </trkpt>
      <trkpt lat="46.87554" lon="8.47435">
        <ele>2041</ele>
        <time>2021-08-11T13:41:05.693Z</time>
      </trkpt>
      <trkpt lat="46.87553" lon="8.47435">
        <ele>2041</ele>
        <time>2021-08-11T13:41:06.693Z</time>
      </trkpt>
      <trkpt lat="46.87554" lon="8.47435">
        <ele>2041</ele>
        <time>2021-08-11T13:41:07.693Z</time>
      </trkpt>
      <trkpt lat="46.87554" lon="8.47435">
        <ele>2041</ele>
        <time>2021-08-11T13:41:08.693Z</time>
      </trkpt>
      <trkpt lat="46.87554" lon="8.47434">
        <ele>2041</ele>
        <time>2021-08-11T13:41:09.693Z</time>
      </trkpt>
      <trkpt lat="46.87554" lon="8.47434">
        <ele>2040</ele>
        <time>2021-08-11T13:41:10.693Z</time>
      </trkpt>
      <trkpt lat="46.87554" lon="8.47433">
        <ele>2040</ele>
        <time>2021-08-11T13:41:11.693Z</time>
      </trkpt>
      <trkpt lat="46.87553" lon="8.47433">
        <ele>2040</ele>
        <time>2021-08-11T13:41:12.692Z</time>
      </trkpt>
      <trkpt lat="46.87553" lon="8.47432">
        <ele>2040</ele>
        <time>2021-08-11T13:41:13.693Z</time>
      </trkpt>
      <trkpt lat="46.87553" lon="8.47431">
        <ele>2040</ele>
        <time>2021-08-11T13:41:14.693Z</time>
      </trkpt>
      <trkpt lat="46.87553" lon="8.47431">
        <ele>2040</ele>
        <time>2021-08-11T13:41:15.693Z</time>
      </trkpt>
      <trkpt lat="46.87553" lon="8.4743">
        <ele>2040</ele>
        <time>2021-08-11T13:41:16.693Z</time>
      </trkpt>
      <trkpt lat="46.87553" lon="8.47429">
        <ele>2040</ele>
        <time>2021-08-11T13:41:17.692Z</time>
      </trkpt>
      <trkpt lat="46.87553" lon="8.47429">
        <ele>2040</ele>
        <time>2021-08-11T13:41:18.692Z</time>
      </trkpt>
      <trkpt lat="46.87552" lon="8.47428">
        <ele>2040</ele>
        <time>2021-08-11T13:41:19.693Z</time>
      </trkpt>
      <trkpt lat="46.87552" lon="8.47428">
        <ele>2040</ele>
        <time>2021-08-11T13:41:20.693Z</time>
      </trkpt>
      <trkpt lat="46.87552" lon="8.47427">
        <ele>2040</ele>
        <time>2021-08-11T13:41:21.692Z</time>
      </trkpt>
      <trkpt lat="46.87551" lon="8.47426">
        <ele>2041</ele>
        <time>2021-08-11T13:41:22.692Z</time>
      </trkpt>
      <trkpt lat="46.87551" lon="8.47426">
        <ele>2041</ele>
        <time>2021-08-11T13:41:23.692Z</time>
      </trkpt>
      <trkpt lat="46.87551" lon="8.47426">
        <ele>2042</ele>
        <time>2021-08-11T13:41:24.692Z</time>
      </trkpt>
      <trkpt lat="46.87551" lon="8.47425">
        <ele>2042</ele>
        <time>2021-08-11T13:41:25.693Z</time>
      </trkpt>
      <trkpt lat="46.8755" lon="8.47425">
        <ele>2042</ele>
        <time>2021-08-11T13:41:26.693Z</time>
      </trkpt>
      <trkpt lat="46.8755" lon="8.47427">
        <ele>2052</ele>
        <time>2021-08-11T13:41:27.694Z</time>
      </trkpt>
      <trkpt lat="46.8755" lon="8.47427">
        <ele>2053</ele>
        <time>2021-08-11T13:41:28.694Z</time>
      </trkpt>
      <trkpt lat="46.8755" lon="8.47428">
        <ele>2053</ele>
        <time>2021-08-11T13:41:29.693Z</time>
      </trkpt>
      <trkpt lat="46.8755" lon="8.4743">
        <ele>2052</ele>
        <time>2021-08-11T13:41:30.696Z</time>
      </trkpt>
      <trkpt lat="46.8755" lon="8.4743">
        <ele>2052</ele>
        <time>2021-08-11T13:41:31.696Z</time>
      </trkpt>
      <trkpt lat="46.87549" lon="8.4743">
        <ele>2052</ele>
        <time>2021-08-11T13:41:32.696Z</time>
      </trkpt>
      <trkpt lat="46.87549" lon="8.47429">
        <ele>2052</ele>
        <time>2021-08-11T13:41:33.696Z</time>
      </trkpt>
      <trkpt lat="46.87548" lon="8.47428">
        <ele>2050</ele>
        <time>2021-08-11T13:41:34.698Z</time>
      </trkpt>
      <trkpt lat="46.87548" lon="8.47428">
        <ele>2049</ele>
        <time>2021-08-11T13:41:35.698Z</time>
      </trkpt>
      <trkpt lat="46.87547" lon="8.47428">
        <ele>2048</ele>
        <time>2021-08-11T13:41:36.697Z</time>
      </trkpt>
      <trkpt lat="46.87547" lon="8.47428">
        <ele>2048</ele>
        <time>2021-08-11T13:41:37.698Z</time>
      </trkpt>
      <trkpt lat="46.87547" lon="8.47427">
        <ele>2048</ele>
        <time>2021-08-11T13:41:38.697Z</time>
      </trkpt>
      <trkpt lat="46.87547" lon="8.47426">
        <ele>2047</ele>
        <time>2021-08-11T13:41:39.698Z</time>
      </trkpt>
      <trkpt lat="46.87547" lon="8.47426">
        <ele>2047</ele>
        <time>2021-08-11T13:41:40.698Z</time>
      </trkpt>
      <trkpt lat="46.87546" lon="8.47425">
        <ele>2047</ele>
        <time>2021-08-11T13:41:41.698Z</time>
      </trkpt>
      <trkpt lat="46.87546" lon="8.47424">
        <ele>2047</ele>
        <time>2021-08-11T13:41:42.697Z</time>
      </trkpt>
      <trkpt lat="46.87546" lon="8.47423">
        <ele>2047</ele>
        <time>2021-08-11T13:41:43.698Z</time>
      </trkpt>
      <trkpt lat="46.87546" lon="8.47423">
        <ele>2047</ele>
        <time>2021-08-11T13:41:44.698Z</time>
      </trkpt>
      <trkpt lat="46.87546" lon="8.47422">
        <ele>2047</ele>
        <time>2021-08-11T13:41:45.698Z</time>
      </trkpt>
      <trkpt lat="46.87546" lon="8.47421">
        <ele>2047</ele>
        <time>2021-08-11T13:41:46.698Z</time>
      </trkpt>
      <trkpt lat="46.87546" lon="8.47421">
        <ele>2047</ele>
        <time>2021-08-11T13:41:47.697Z</time>
      </trkpt>
      <trkpt lat="46.87546" lon="8.4742">
        <ele>2048</ele>
        <time>2021-08-11T13:41:48.698Z</time>
      </trkpt>
      <trkpt lat="46.87546" lon="8.4742">
        <ele>2048</ele>
        <time>2021-08-11T13:41:49.698Z</time>
      </trkpt>
      <trkpt lat="46.87545" lon="8.4742">
        <ele>2049</ele>
        <time>2021-08-11T13:41:50.698Z</time>
      </trkpt>
      <trkpt lat="46.87545" lon="8.47419">
        <ele>2049</ele>
        <time>2021-08-11T13:41:51.698Z</time>
      </trkpt>
      <trkpt lat="46.87545" lon="8.47418">
        <ele>2050</ele>
        <time>2021-08-11T13:41:52.697Z</time>
      </trkpt>
      <trkpt lat="46.87545" lon="8.47418">
        <ele>2051</ele>
        <time>2021-08-11T13:41:53.698Z</time>
      </trkpt>
      <trkpt lat="46.87544" lon="8.47418">
        <ele>2051</ele>
        <time>2021-08-11T13:41:54.698Z</time>
      </trkpt>
      <trkpt lat="46.87544" lon="8.47417">
        <ele>2051</ele>
        <time>2021-08-11T13:41:55.698Z</time>
      </trkpt>
      <trkpt lat="46.87544" lon="8.47417">
        <ele>2051</ele>
        <time>2021-08-11T13:41:56.698Z</time>
      </trkpt>
      <trkpt lat="46.87544" lon="8.47416">
        <ele>2052</ele>
        <time>2021-08-11T13:41:57.698Z</time>
      </trkpt>
      <trkpt lat="46.87543" lon="8.47416">
        <ele>2052</ele>
        <time>2021-08-11T13:41:58.697Z</time>
      </trkpt>
      <trkpt lat="46.87543" lon="8.47415">
        <ele>2052</ele>
        <time>2021-08-11T13:41:59.698Z</time>
      </trkpt>
      <trkpt lat="46.87543" lon="8.47415">
        <ele>2052</ele>
        <time>2021-08-11T13:42:00.698Z</time>
      </trkpt>
      <trkpt lat="46.87542" lon="8.47414">
        <ele>2052</ele>
        <time>2021-08-11T13:42:01.698Z</time>
      </trkpt>
      <trkpt lat="46.87542" lon="8.47413">
        <ele>2052</ele>
        <time>2021-08-11T13:42:02.698Z</time>
      </trkpt>
      <trkpt lat="46.87542" lon="8.47412">
        <ele>2052</ele>
        <time>2021-08-11T13:42:03.698Z</time>
      </trkpt>
      <trkpt lat="46.87542" lon="8.47411">
        <ele>2053</ele>
        <time>2021-08-11T13:42:04.697Z</time>
      </trkpt>
      <trkpt lat="46.87542" lon="8.4741">
        <ele>2054</ele>
        <time>2021-08-11T13:42:05.698Z</time>
      </trkpt>
      <trkpt lat="46.87541" lon="8.4741">
        <ele>2054</ele>
        <time>2021-08-11T13:42:06.697Z</time>
      </trkpt>
      <trkpt lat="46.87541" lon="8.47409">
        <ele>2054</ele>
        <time>2021-08-11T13:42:07.698Z</time>
      </trkpt>
      <trkpt lat="46.87541" lon="8.47409">
        <ele>2055</ele>
        <time>2021-08-11T13:42:08.697Z</time>
      </trkpt>
      <trkpt lat="46.87541" lon="8.47408">
        <ele>2055</ele>
        <time>2021-08-11T13:42:09.698Z</time>
      </trkpt>
      <trkpt lat="46.87541" lon="8.47407">
        <ele>2055</ele>
        <time>2021-08-11T13:42:10.698Z</time>
      </trkpt>
      <trkpt lat="46.87541" lon="8.47406">
        <ele>2055</ele>
        <time>2021-08-11T13:42:11.698Z</time>
      </trkpt>
      <trkpt lat="46.87541" lon="8.47405">
        <ele>2055</ele>
        <time>2021-08-11T13:42:12.698Z</time>
      </trkpt>
      <trkpt lat="46.87541" lon="8.47405">
        <ele>2056</ele>
        <time>2021-08-11T13:42:13.697Z</time>
      </trkpt>
      <trkpt lat="46.8754" lon="8.47404">
        <ele>2056</ele>
        <time>2021-08-11T13:42:14.698Z</time>
      </trkpt>
      <trkpt lat="46.8754" lon="8.47404">
        <ele>2056</ele>
        <time>2021-08-11T13:42:15.698Z</time>
      </trkpt>
      <trkpt lat="46.8754" lon="8.47403">
        <ele>2056</ele>
        <time>2021-08-11T13:42:16.697Z</time>
      </trkpt>
      <trkpt lat="46.8754" lon="8.47403">
        <ele>2056</ele>
        <time>2021-08-11T13:42:17.698Z</time>
      </trkpt>
      <trkpt lat="46.8754" lon="8.47402">
        <ele>2056</ele>
        <time>2021-08-11T13:42:18.698Z</time>
      </trkpt>
      <trkpt lat="46.8754" lon="8.47402">
        <ele>2056</ele>
        <time>2021-08-11T13:42:19.698Z</time>
      </trkpt>
      <trkpt lat="46.87539" lon="8.47401">
        <ele>2056</ele>
        <time>2021-08-11T13:42:20.698Z</time>
      </trkpt>
      <trkpt lat="46.87539" lon="8.47401">
        <ele>2056</ele>
        <time>2021-08-11T13:42:21.697Z</time>
      </trkpt>
      <trkpt lat="46.8754" lon="8.474">
        <ele>2056</ele>
        <time>2021-08-11T13:42:22.697Z</time>
      </trkpt>
      <trkpt lat="46.87539" lon="8.47399">
        <ele>2056</ele>
        <time>2021-08-11T13:42:23.697Z</time>
      </trkpt>
      <trkpt lat="46.87538" lon="8.47398">
        <ele>2056</ele>
        <time>2021-08-11T13:42:24.697Z</time>
      </trkpt>
      <trkpt lat="46.87539" lon="8.47396">
        <ele>2056</ele>
        <time>2021-08-11T13:42:25.698Z</time>
      </trkpt>
      <trkpt lat="46.87539" lon="8.47396">
        <ele>2056</ele>
        <time>2021-08-11T13:42:26.698Z</time>
      </trkpt>
      <trkpt lat="46.87539" lon="8.47393">
        <ele>2059</ele>
        <time>2021-08-11T13:42:27.698Z</time>
      </trkpt>
      <trkpt lat="46.87538" lon="8.47392">
        <ele>2059</ele>
        <time>2021-08-11T13:42:28.698Z</time>
      </trkpt>
      <trkpt lat="46.87538" lon="8.47392">
        <ele>2058</ele>
        <time>2021-08-11T13:42:29.697Z</time>
      </trkpt>
      <trkpt lat="46.87538" lon="8.47391">
        <ele>2058</ele>
        <time>2021-08-11T13:42:30.697Z</time>
      </trkpt>
      <trkpt lat="46.87538" lon="8.4739">
        <ele>2058</ele>
        <time>2021-08-11T13:42:31.697Z</time>
      </trkpt>
      <trkpt lat="46.87538" lon="8.4739">
        <ele>2058</ele>
        <time>2021-08-11T13:42:32.698Z</time>
      </trkpt>
      <trkpt lat="46.87538" lon="8.47389">
        <ele>2058</ele>
        <time>2021-08-11T13:42:33.698Z</time>
      </trkpt>
      <trkpt lat="46.87538" lon="8.47388">
        <ele>2059</ele>
        <time>2021-08-11T13:42:34.698Z</time>
      </trkpt>
      <trkpt lat="46.87538" lon="8.47388">
        <ele>2060</ele>
        <time>2021-08-11T13:42:35.698Z</time>
      </trkpt>
      <trkpt lat="46.87539" lon="8.47387">
        <ele>2060</ele>
        <time>2021-08-11T13:42:36.697Z</time>
      </trkpt>
      <trkpt lat="46.87539" lon="8.47387">
        <ele>2061</ele>
        <time>2021-08-11T13:42:37.697Z</time>
      </trkpt>
      <trkpt lat="46.8754" lon="8.47388">
        <ele>2061</ele>
        <time>2021-08-11T13:42:38.698Z</time>
      </trkpt>
      <trkpt lat="46.87541" lon="8.47387">
        <ele>2061</ele>
        <time>2021-08-11T13:42:39.698Z</time>
      </trkpt>
      <trkpt lat="46.87541" lon="8.47386">
        <ele>2061</ele>
        <time>2021-08-11T13:42:40.698Z</time>
      </trkpt>
      <trkpt lat="46.87541" lon="8.47385">
        <ele>2061</ele>
        <time>2021-08-11T13:42:41.698Z</time>
      </trkpt>
      <trkpt lat="46.87541" lon="8.47384">
        <ele>2061</ele>
        <time>2021-08-11T13:42:42.698Z</time>
      </trkpt>
      <trkpt lat="46.8754" lon="8.47383">
        <ele>2061</ele>
        <time>2021-08-11T13:42:43.698Z</time>
      </trkpt>
      <trkpt lat="46.8754" lon="8.47382">
        <ele>2061</ele>
        <time>2021-08-11T13:42:44.697Z</time>
      </trkpt>
      <trkpt lat="46.87541" lon="8.47382">
        <ele>2061</ele>
        <time>2021-08-11T13:42:45.698Z</time>
      </trkpt>
      <trkpt lat="46.87541" lon="8.47381">
        <ele>2061</ele>
        <time>2021-08-11T13:42:46.698Z</time>
      </trkpt>
      <trkpt lat="46.87541" lon="8.4738">
        <ele>2060</ele>
        <time>2021-08-11T13:42:47.697Z</time>
      </trkpt>
      <trkpt lat="46.87541" lon="8.4738">
        <ele>2060</ele>
        <time>2021-08-11T13:42:48.698Z</time>
      </trkpt>
      <trkpt lat="46.87541" lon="8.47379">
        <ele>2060</ele>
        <time>2021-08-11T13:42:49.698Z</time>
      </trkpt>
      <trkpt lat="46.87541" lon="8.47378">
        <ele>2060</ele>
        <time>2021-08-11T13:42:50.698Z</time>
      </trkpt>
      <trkpt lat="46.87541" lon="8.47378">
        <ele>2059</ele>
        <time>2021-08-11T13:42:51.697Z</time>
      </trkpt>
      <trkpt lat="46.87541" lon="8.47377">
        <ele>2059</ele>
        <time>2021-08-11T13:42:52.698Z</time>
      </trkpt>
      <trkpt lat="46.87542" lon="8.47376">
        <ele>2059</ele>
        <time>2021-08-11T13:42:53.698Z</time>
      </trkpt>
      <trkpt lat="46.87543" lon="8.47375">
        <ele>2060</ele>
        <time>2021-08-11T13:42:54.698Z</time>
      </trkpt>
      <trkpt lat="46.87543" lon="8.47374">
        <ele>2060</ele>
        <time>2021-08-11T13:42:55.698Z</time>
      </trkpt>
      <trkpt lat="46.87543" lon="8.47374">
        <ele>2060</ele>
        <time>2021-08-11T13:42:56.697Z</time>
      </trkpt>
      <trkpt lat="46.87543" lon="8.47374">
        <ele>2061</ele>
        <time>2021-08-11T13:42:57.698Z</time>
      </trkpt>
      <trkpt lat="46.87543" lon="8.47374">
        <ele>2061</ele>
        <time>2021-08-11T13:42:58.698Z</time>
      </trkpt>
      <trkpt lat="46.87543" lon="8.47374">
        <ele>2061</ele>
        <time>2021-08-11T13:42:59.698Z</time>
      </trkpt>
      <trkpt lat="46.87543" lon="8.47373">
        <ele>2062</ele>
        <time>2021-08-11T13:43:00.697Z</time>
      </trkpt>
      <trkpt lat="46.87543" lon="8.47373">
        <ele>2062</ele>
        <time>2021-08-11T13:43:01.697Z</time>
      </trkpt>
      <trkpt lat="46.87543" lon="8.47372">
        <ele>2062</ele>
        <time>2021-08-11T13:43:02.698Z</time>
      </trkpt>
      <trkpt lat="46.87544" lon="8.47372">
        <ele>2060</ele>
        <time>2021-08-11T13:43:03.699Z</time>
      </trkpt>
      <trkpt lat="46.87544" lon="8.47372">
        <ele>2060</ele>
        <time>2021-08-11T13:43:04.699Z</time>
      </trkpt>
      <trkpt lat="46.87544" lon="8.47372">
        <ele>2060</ele>
        <time>2021-08-11T13:43:05.699Z</time>
      </trkpt>
      <trkpt lat="46.87543" lon="8.47371">
        <ele>2060</ele>
        <time>2021-08-11T13:43:06.699Z</time>
      </trkpt>
      <trkpt lat="46.87543" lon="8.47369">
        <ele>2060</ele>
        <time>2021-08-11T13:43:07.700Z</time>
      </trkpt>
      <trkpt lat="46.87542" lon="8.47368">
        <ele>2060</ele>
        <time>2021-08-11T13:43:08.700Z</time>
      </trkpt>
      <trkpt lat="46.8754" lon="8.47366">
        <ele>2063</ele>
        <time>2021-08-11T13:43:09.699Z</time>
      </trkpt>
      <trkpt lat="46.87539" lon="8.47366">
        <ele>2063</ele>
        <time>2021-08-11T13:43:10.700Z</time>
      </trkpt>
      <trkpt lat="46.87538" lon="8.47366">
        <ele>2063</ele>
        <time>2021-08-11T13:43:11.699Z</time>
      </trkpt>
      <trkpt lat="46.87537" lon="8.47366">
        <ele>2063</ele>
        <time>2021-08-11T13:43:12.700Z</time>
      </trkpt>
      <trkpt lat="46.87536" lon="8.47366">
        <ele>2063</ele>
        <time>2021-08-11T13:43:13.700Z</time>
      </trkpt>
      <trkpt lat="46.87535" lon="8.47365">
        <ele>2063</ele>
        <time>2021-08-11T13:43:14.700Z</time>
      </trkpt>
      <trkpt lat="46.87535" lon="8.47366">
        <ele>2063</ele>
        <time>2021-08-11T13:43:15.700Z</time>
      </trkpt>
      <trkpt lat="46.87535" lon="8.47366">
        <ele>2062</ele>
        <time>2021-08-11T13:43:16.700Z</time>
      </trkpt>
      <trkpt lat="46.87534" lon="8.47366">
        <ele>2062</ele>
        <time>2021-08-11T13:43:17.700Z</time>
      </trkpt>
      <trkpt lat="46.87534" lon="8.47367">
        <ele>2062</ele>
        <time>2021-08-11T13:43:18.699Z</time>
      </trkpt>
      <trkpt lat="46.87534" lon="8.47368">
        <ele>2061</ele>
        <time>2021-08-11T13:43:19.700Z</time>
      </trkpt>
      <trkpt lat="46.87535" lon="8.47369">
        <ele>2061</ele>
        <time>2021-08-11T13:43:20.700Z</time>
      </trkpt>
      <trkpt lat="46.87535" lon="8.4737">
        <ele>2061</ele>
        <time>2021-08-11T13:43:21.699Z</time>
      </trkpt>
      <trkpt lat="46.87535" lon="8.47371">
        <ele>2062</ele>
        <time>2021-08-11T13:43:22.700Z</time>
      </trkpt>
      <trkpt lat="46.87535" lon="8.47372">
        <ele>2062</ele>
        <time>2021-08-11T13:43:23.700Z</time>
      </trkpt>
      <trkpt lat="46.87535" lon="8.47372">
        <ele>2062</ele>
        <time>2021-08-11T13:43:24.700Z</time>
      </trkpt>
      <trkpt lat="46.87535" lon="8.47373">
        <ele>2061</ele>
        <time>2021-08-11T13:43:25.700Z</time>
      </trkpt>
      <trkpt lat="46.87535" lon="8.47374">
        <ele>2061</ele>
        <time>2021-08-11T13:43:26.700Z</time>
      </trkpt>
      <trkpt lat="46.87534" lon="8.47374">
        <ele>2062</ele>
        <time>2021-08-11T13:43:27.699Z</time>
      </trkpt>
      <trkpt lat="46.87534" lon="8.47375">
        <ele>2062</ele>
        <time>2021-08-11T13:43:28.700Z</time>
      </trkpt>
      <trkpt lat="46.87533" lon="8.47375">
        <ele>2062</ele>
        <time>2021-08-11T13:43:29.700Z</time>
      </trkpt>
      <trkpt lat="46.87532" lon="8.47376">
        <ele>2062</ele>
        <time>2021-08-11T13:43:30.700Z</time>
      </trkpt>
      <trkpt lat="46.87532" lon="8.47378">
        <ele>2062</ele>
        <time>2021-08-11T13:43:31.699Z</time>
      </trkpt>
      <trkpt lat="46.87531" lon="8.4738">
        <ele>2063</ele>
        <time>2021-08-11T13:43:32.699Z</time>
      </trkpt>
      <trkpt lat="46.87531" lon="8.47381">
        <ele>2064</ele>
        <time>2021-08-11T13:43:33.700Z</time>
      </trkpt>
      <trkpt lat="46.87531" lon="8.47382">
        <ele>2064</ele>
        <time>2021-08-11T13:43:34.700Z</time>
      </trkpt>
      <trkpt lat="46.87531" lon="8.47383">
        <ele>2065</ele>
        <time>2021-08-11T13:43:35.700Z</time>
      </trkpt>
      <trkpt lat="46.87531" lon="8.47383">
        <ele>2065</ele>
        <time>2021-08-11T13:43:36.700Z</time>
      </trkpt>
      <trkpt lat="46.87532" lon="8.47383">
        <ele>2065</ele>
        <time>2021-08-11T13:43:37.700Z</time>
      </trkpt>
      <trkpt lat="46.87532" lon="8.47383">
        <ele>2065</ele>
        <time>2021-08-11T13:43:38.699Z</time>
      </trkpt>
      <trkpt lat="46.87532" lon="8.47384">
        <ele>2066</ele>
        <time>2021-08-11T13:43:39.699Z</time>
      </trkpt>
      <trkpt lat="46.87532" lon="8.47385">
        <ele>2065</ele>
        <time>2021-08-11T13:43:40.700Z</time>
      </trkpt>
      <trkpt lat="46.87532" lon="8.47385">
        <ele>2065</ele>
        <time>2021-08-11T13:43:41.699Z</time>
      </trkpt>
      <trkpt lat="46.87532" lon="8.47385">
        <ele>2064</ele>
        <time>2021-08-11T13:43:42.700Z</time>
      </trkpt>
      <trkpt lat="46.87531" lon="8.47385">
        <ele>2064</ele>
        <time>2021-08-11T13:43:43.700Z</time>
      </trkpt>
      <trkpt lat="46.87531" lon="8.47385">
        <ele>2064</ele>
        <time>2021-08-11T13:43:44.700Z</time>
      </trkpt>
      <trkpt lat="46.8753" lon="8.47386">
        <ele>2063</ele>
        <time>2021-08-11T13:43:45.699Z</time>
      </trkpt>
      <trkpt lat="46.8753" lon="8.47386">
        <ele>2063</ele>
        <time>2021-08-11T13:43:46.699Z</time>
      </trkpt>
      <trkpt lat="46.8753" lon="8.47387">
        <ele>2062</ele>
        <time>2021-08-11T13:43:47.700Z</time>
      </trkpt>
      <trkpt lat="46.87529" lon="8.47388">
        <ele>2062</ele>
        <time>2021-08-11T13:43:48.699Z</time>
      </trkpt>
      <trkpt lat="46.87529" lon="8.47389">
        <ele>2061</ele>
        <time>2021-08-11T13:43:49.700Z</time>
      </trkpt>
      <trkpt lat="46.87529" lon="8.4739">
        <ele>2061</ele>
        <time>2021-08-11T13:43:50.700Z</time>
      </trkpt>
      <trkpt lat="46.87529" lon="8.4739">
        <ele>2060</ele>
        <time>2021-08-11T13:43:51.700Z</time>
      </trkpt>
      <trkpt lat="46.87529" lon="8.47391">
        <ele>2059</ele>
        <time>2021-08-11T13:43:52.699Z</time>
      </trkpt>
      <trkpt lat="46.87529" lon="8.47392">
        <ele>2059</ele>
        <time>2021-08-11T13:43:53.700Z</time>
      </trkpt>
      <trkpt lat="46.87529" lon="8.47392">
        <ele>2058</ele>
        <time>2021-08-11T13:43:54.700Z</time>
      </trkpt>
      <trkpt lat="46.87529" lon="8.47392">
        <ele>2057</ele>
        <time>2021-08-11T13:43:55.700Z</time>
      </trkpt>
      <trkpt lat="46.87528" lon="8.47393">
        <ele>2057</ele>
        <time>2021-08-11T13:43:56.700Z</time>
      </trkpt>
      <trkpt lat="46.87528" lon="8.47393">
        <ele>2057</ele>
        <time>2021-08-11T13:43:57.700Z</time>
      </trkpt>
      <trkpt lat="46.87528" lon="8.47394">
        <ele>2057</ele>
        <time>2021-08-11T13:43:58.700Z</time>
      </trkpt>
      <trkpt lat="46.87528" lon="8.47394">
        <ele>2058</ele>
        <time>2021-08-11T13:43:59.699Z</time>
      </trkpt>
      <trkpt lat="46.87527" lon="8.47395">
        <ele>2058</ele>
        <time>2021-08-11T13:44:00.700Z</time>
      </trkpt>
      <trkpt lat="46.87527" lon="8.47396">
        <ele>2058</ele>
        <time>2021-08-11T13:44:01.699Z</time>
      </trkpt>
      <trkpt lat="46.87527" lon="8.47396">
        <ele>2059</ele>
        <time>2021-08-11T13:44:02.699Z</time>
      </trkpt>
      <trkpt lat="46.87527" lon="8.47397">
        <ele>2059</ele>
        <time>2021-08-11T13:44:03.699Z</time>
      </trkpt>
      <trkpt lat="46.87527" lon="8.47398">
        <ele>2059</ele>
        <time>2021-08-11T13:44:04.699Z</time>
      </trkpt>
      <trkpt lat="46.87527" lon="8.47398">
        <ele>2060</ele>
        <time>2021-08-11T13:44:05.699Z</time>
      </trkpt>
      <trkpt lat="46.87527" lon="8.47399">
        <ele>2060</ele>
        <time>2021-08-11T13:44:06.699Z</time>
      </trkpt>
      <trkpt lat="46.87527" lon="8.47399">
        <ele>2060</ele>
        <time>2021-08-11T13:44:07.700Z</time>
      </trkpt>
      <trkpt lat="46.87527" lon="8.47399">
        <ele>2060</ele>
        <time>2021-08-11T13:44:08.700Z</time>
      </trkpt>
      <trkpt lat="46.87526" lon="8.47399">
        <ele>2059</ele>
        <time>2021-08-11T13:44:09.700Z</time>
      </trkpt>
      <trkpt lat="46.87526" lon="8.474">
        <ele>2059</ele>
        <time>2021-08-11T13:44:10.700Z</time>
      </trkpt>
      <trkpt lat="46.87525" lon="8.474">
        <ele>2059</ele>
        <time>2021-08-11T13:44:11.700Z</time>
      </trkpt>
      <trkpt lat="46.87525" lon="8.474">
        <ele>2059</ele>
        <time>2021-08-11T13:44:12.700Z</time>
      </trkpt>
      <trkpt lat="46.87526" lon="8.474">
        <ele>2059</ele>
        <time>2021-08-11T13:44:13.700Z</time>
      </trkpt>
      <trkpt lat="46.87526" lon="8.474">
        <ele>2059</ele>
        <time>2021-08-11T13:44:14.700Z</time>
      </trkpt>
      <trkpt lat="46.87526" lon="8.47401">
        <ele>2058</ele>
        <time>2021-08-11T13:44:15.700Z</time>
      </trkpt>
      <trkpt lat="46.87526" lon="8.47401">
        <ele>2058</ele>
        <time>2021-08-11T13:44:16.700Z</time>
      </trkpt>
      <trkpt lat="46.87526" lon="8.47402">
        <ele>2057</ele>
        <time>2021-08-11T13:44:17.700Z</time>
      </trkpt>
      <trkpt lat="46.87526" lon="8.47403">
        <ele>2057</ele>
        <time>2021-08-11T13:44:18.700Z</time>
      </trkpt>
      <trkpt lat="46.87526" lon="8.47404">
        <ele>2057</ele>
        <time>2021-08-11T13:44:19.700Z</time>
      </trkpt>
      <trkpt lat="46.87525" lon="8.47405">
        <ele>2057</ele>
        <time>2021-08-11T13:44:20.700Z</time>
      </trkpt>
      <trkpt lat="46.87525" lon="8.47406">
        <ele>2057</ele>
        <time>2021-08-11T13:44:21.700Z</time>
      </trkpt>
      <trkpt lat="46.87525" lon="8.47406">
        <ele>2058</ele>
        <time>2021-08-11T13:44:22.699Z</time>
      </trkpt>
      <trkpt lat="46.87524" lon="8.47406">
        <ele>2058</ele>
        <time>2021-08-11T13:44:23.699Z</time>
      </trkpt>
      <trkpt lat="46.87523" lon="8.47405">
        <ele>2058</ele>
        <time>2021-08-11T13:44:24.700Z</time>
      </trkpt>
      <trkpt lat="46.87523" lon="8.47405">
        <ele>2058</ele>
        <time>2021-08-11T13:44:25.699Z</time>
      </trkpt>
      <trkpt lat="46.87522" lon="8.47405">
        <ele>2058</ele>
        <time>2021-08-11T13:44:26.700Z</time>
      </trkpt>
      <trkpt lat="46.87521" lon="8.47405">
        <ele>2057</ele>
        <time>2021-08-11T13:44:27.700Z</time>
      </trkpt>
      <trkpt lat="46.87521" lon="8.47405">
        <ele>2057</ele>
        <time>2021-08-11T13:44:28.700Z</time>
      </trkpt>
      <trkpt lat="46.87521" lon="8.47404">
        <ele>2057</ele>
        <time>2021-08-11T13:44:29.700Z</time>
      </trkpt>
      <trkpt lat="46.87521" lon="8.47404">
        <ele>2057</ele>
        <time>2021-08-11T13:44:30.699Z</time>
      </trkpt>
      <trkpt lat="46.87521" lon="8.47403">
        <ele>2057</ele>
        <time>2021-08-11T13:44:31.700Z</time>
      </trkpt>
      <trkpt lat="46.87521" lon="8.47403">
        <ele>2057</ele>
        <time>2021-08-11T13:44:32.699Z</time>
      </trkpt>
      <trkpt lat="46.87521" lon="8.47403">
        <ele>2057</ele>
        <time>2021-08-11T13:44:33.700Z</time>
      </trkpt>
      <trkpt lat="46.87522" lon="8.47403">
        <ele>2057</ele>
        <time>2021-08-11T13:44:34.700Z</time>
      </trkpt>
      <trkpt lat="46.87523" lon="8.47402">
        <ele>2057</ele>
        <time>2021-08-11T13:44:35.700Z</time>
      </trkpt>
      <trkpt lat="46.87523" lon="8.47398">
        <ele>2060</ele>
        <time>2021-08-11T13:44:36.699Z</time>
      </trkpt>
      <trkpt lat="46.87522" lon="8.47397">
        <ele>2061</ele>
        <time>2021-08-11T13:44:37.699Z</time>
      </trkpt>
      <trkpt lat="46.87521" lon="8.47397">
        <ele>2061</ele>
        <time>2021-08-11T13:44:38.699Z</time>
      </trkpt>
      <trkpt lat="46.87521" lon="8.47397">
        <ele>2062</ele>
        <time>2021-08-11T13:44:39.700Z</time>
      </trkpt>
      <trkpt lat="46.87521" lon="8.47397">
        <ele>2062</ele>
        <time>2021-08-11T13:44:40.699Z</time>
      </trkpt>
      <trkpt lat="46.8752" lon="8.47397">
        <ele>2063</ele>
        <time>2021-08-11T13:44:41.699Z</time>
      </trkpt>
      <trkpt lat="46.8752" lon="8.47397">
        <ele>2064</ele>
        <time>2021-08-11T13:44:42.699Z</time>
      </trkpt>
      <trkpt lat="46.87521" lon="8.47396">
        <ele>2064</ele>
        <time>2021-08-11T13:44:43.700Z</time>
      </trkpt>
      <trkpt lat="46.87521" lon="8.47396">
        <ele>2065</ele>
        <time>2021-08-11T13:44:44.699Z</time>
      </trkpt>
      <trkpt lat="46.87521" lon="8.47396">
        <ele>2065</ele>
        <time>2021-08-11T13:44:45.700Z</time>
      </trkpt>
      <trkpt lat="46.87521" lon="8.47395">
        <ele>2065</ele>
        <time>2021-08-11T13:44:46.700Z</time>
      </trkpt>
      <trkpt lat="46.87522" lon="8.47395">
        <ele>2064</ele>
        <time>2021-08-11T13:44:47.699Z</time>
      </trkpt>
      <trkpt lat="46.87522" lon="8.47394">
        <ele>2064</ele>
        <time>2021-08-11T13:44:48.700Z</time>
      </trkpt>
      <trkpt lat="46.87523" lon="8.47394">
        <ele>2064</ele>
        <time>2021-08-11T13:44:49.700Z</time>
      </trkpt>
      <trkpt lat="46.87524" lon="8.47393">
        <ele>2064</ele>
        <time>2021-08-11T13:44:50.700Z</time>
      </trkpt>
      <trkpt lat="46.87524" lon="8.47392">
        <ele>2064</ele>
        <time>2021-08-11T13:44:51.699Z</time>
      </trkpt>
      <trkpt lat="46.87523" lon="8.4739">
        <ele>2064</ele>
        <time>2021-08-11T13:44:52.700Z</time>
      </trkpt>
      <trkpt lat="46.87522" lon="8.4739">
        <ele>2064</ele>
        <time>2021-08-11T13:44:53.700Z</time>
      </trkpt>
      <trkpt lat="46.87522" lon="8.47389">
        <ele>2065</ele>
        <time>2021-08-11T13:44:54.700Z</time>
      </trkpt>
      <trkpt lat="46.87521" lon="8.47389">
        <ele>2065</ele>
        <time>2021-08-11T13:44:55.700Z</time>
      </trkpt>
      <trkpt lat="46.8752" lon="8.47389">
        <ele>2065</ele>
        <time>2021-08-11T13:44:56.699Z</time>
      </trkpt>
      <trkpt lat="46.87519" lon="8.47389">
        <ele>2065</ele>
        <time>2021-08-11T13:44:57.700Z</time>
      </trkpt>
      <trkpt lat="46.87518" lon="8.47389">
        <ele>2065</ele>
        <time>2021-08-11T13:44:58.700Z</time>
      </trkpt>
      <trkpt lat="46.87518" lon="8.47388">
        <ele>2065</ele>
        <time>2021-08-11T13:44:59.700Z</time>
      </trkpt>
      <trkpt lat="46.87517" lon="8.47388">
        <ele>2065</ele>
        <time>2021-08-11T13:45:00.699Z</time>
      </trkpt>
      <trkpt lat="46.87517" lon="8.47388">
        <ele>2066</ele>
        <time>2021-08-11T13:45:01.699Z</time>
      </trkpt>
      <trkpt lat="46.87516" lon="8.47387">
        <ele>2066</ele>
        <time>2021-08-11T13:45:02.699Z</time>
      </trkpt>
      <trkpt lat="46.87516" lon="8.47386">
        <ele>2067</ele>
        <time>2021-08-11T13:45:03.699Z</time>
      </trkpt>
      <trkpt lat="46.87515" lon="8.47386">
        <ele>2067</ele>
        <time>2021-08-11T13:45:04.700Z</time>
      </trkpt>
      <trkpt lat="46.87514" lon="8.47386">
        <ele>2067</ele>
        <time>2021-08-11T13:45:05.699Z</time>
      </trkpt>
      <trkpt lat="46.87514" lon="8.47386">
        <ele>2067</ele>
        <time>2021-08-11T13:45:06.699Z</time>
      </trkpt>
      <trkpt lat="46.87513" lon="8.47386">
        <ele>2068</ele>
        <time>2021-08-11T13:45:07.699Z</time>
      </trkpt>
      <trkpt lat="46.87513" lon="8.47385">
        <ele>2068</ele>
        <time>2021-08-11T13:45:08.700Z</time>
      </trkpt>
      <trkpt lat="46.87513" lon="8.47385">
        <ele>2068</ele>
        <time>2021-08-11T13:45:09.699Z</time>
      </trkpt>
      <trkpt lat="46.87513" lon="8.47385">
        <ele>2068</ele>
        <time>2021-08-11T13:45:10.699Z</time>
      </trkpt>
      <trkpt lat="46.87513" lon="8.47384">
        <ele>2069</ele>
        <time>2021-08-11T13:45:11.701Z</time>
      </trkpt>
      <trkpt lat="46.87514" lon="8.47384">
        <ele>2069</ele>
        <time>2021-08-11T13:45:12.700Z</time>
      </trkpt>
      <trkpt lat="46.87515" lon="8.47384">
        <ele>2069</ele>
        <time>2021-08-11T13:45:13.700Z</time>
      </trkpt>
      <trkpt lat="46.87515" lon="8.47384">
        <ele>2069</ele>
        <time>2021-08-11T13:45:14.701Z</time>
      </trkpt>
      <trkpt lat="46.87516" lon="8.47384">
        <ele>2069</ele>
        <time>2021-08-11T13:45:15.700Z</time>
      </trkpt>
      <trkpt lat="46.87516" lon="8.47384">
        <ele>2069</ele>
        <time>2021-08-11T13:45:16.700Z</time>
      </trkpt>
      <trkpt lat="46.87517" lon="8.47384">
        <ele>2069</ele>
        <time>2021-08-11T13:45:17.700Z</time>
      </trkpt>
      <trkpt lat="46.87517" lon="8.47384">
        <ele>2069</ele>
        <time>2021-08-11T13:45:18.701Z</time>
      </trkpt>
      <trkpt lat="46.87518" lon="8.47383">
        <ele>2068</ele>
        <time>2021-08-11T13:45:19.701Z</time>
      </trkpt>
      <trkpt lat="46.87519" lon="8.47383">
        <ele>2067</ele>
        <time>2021-08-11T13:45:20.701Z</time>
      </trkpt>
      <trkpt lat="46.87519" lon="8.47382">
        <ele>2067</ele>
        <time>2021-08-11T13:45:21.701Z</time>
      </trkpt>
      <trkpt lat="46.87519" lon="8.47381">
        <ele>2066</ele>
        <time>2021-08-11T13:45:22.700Z</time>
      </trkpt>
      <trkpt lat="46.87519" lon="8.4738">
        <ele>2066</ele>
        <time>2021-08-11T13:45:23.701Z</time>
      </trkpt>
      <trkpt lat="46.87518" lon="8.47379">
        <ele>2066</ele>
        <time>2021-08-11T13:45:24.701Z</time>
      </trkpt>
      <trkpt lat="46.87517" lon="8.47378">
        <ele>2066</ele>
        <time>2021-08-11T13:45:25.700Z</time>
      </trkpt>
      <trkpt lat="46.87516" lon="8.47377">
        <ele>2067</ele>
        <time>2021-08-11T13:45:26.701Z</time>
      </trkpt>
      <trkpt lat="46.87516" lon="8.47376">
        <ele>2067</ele>
        <time>2021-08-11T13:45:30.795Z</time>
      </trkpt>
      <trkpt lat="46.87515" lon="8.47375">
        <ele>2067</ele>
        <time>2021-08-11T13:45:31.795Z</time>
      </trkpt>
      <trkpt lat="46.87515" lon="8.47375">
        <ele>2068</ele>
        <time>2021-08-11T13:45:32.795Z</time>
      </trkpt>
      <trkpt lat="46.87515" lon="8.47374">
        <ele>2069</ele>
        <time>2021-08-11T13:45:33.795Z</time>
      </trkpt>
      <trkpt lat="46.87514" lon="8.47373">
        <ele>2069</ele>
        <time>2021-08-11T13:45:34.795Z</time>
      </trkpt>
      <trkpt lat="46.87514" lon="8.47373">
        <ele>2070</ele>
        <time>2021-08-11T13:45:35.795Z</time>
      </trkpt>
      <trkpt lat="46.87513" lon="8.47372">
        <ele>2071</ele>
        <time>2021-08-11T13:45:36.794Z</time>
      </trkpt>
      <trkpt lat="46.87512" lon="8.47372">
        <ele>2072</ele>
        <time>2021-08-11T13:45:37.795Z</time>
      </trkpt>
      <trkpt lat="46.87512" lon="8.47371">
        <ele>2073</ele>
        <time>2021-08-11T13:45:38.795Z</time>
      </trkpt>
      <trkpt lat="46.87512" lon="8.47374">
        <ele>2076</ele>
        <time>2021-08-11T13:45:39.796Z</time>
      </trkpt>
      <trkpt lat="46.87511" lon="8.47374">
        <ele>2075</ele>
        <time>2021-08-11T13:45:40.796Z</time>
      </trkpt>
      <trkpt lat="46.87511" lon="8.47373">
        <ele>2075</ele>
        <time>2021-08-11T13:45:41.795Z</time>
      </trkpt>
      <trkpt lat="46.87511" lon="8.47373">
        <ele>2074</ele>
        <time>2021-08-11T13:45:42.796Z</time>
      </trkpt>
      <trkpt lat="46.87512" lon="8.47373">
        <ele>2074</ele>
        <time>2021-08-11T13:45:43.796Z</time>
      </trkpt>
      <trkpt lat="46.87513" lon="8.47375">
        <ele>2072</ele>
        <time>2021-08-11T13:45:44.795Z</time>
      </trkpt>
      <trkpt lat="46.87513" lon="8.47375">
        <ele>2071</ele>
        <time>2021-08-11T13:45:45.796Z</time>
      </trkpt>
      <trkpt lat="46.87513" lon="8.47376">
        <ele>2071</ele>
        <time>2021-08-11T13:45:46.795Z</time>
      </trkpt>
      <trkpt lat="46.87513" lon="8.47376">
        <ele>2070</ele>
        <time>2021-08-11T13:45:47.796Z</time>
      </trkpt>
      <trkpt lat="46.87514" lon="8.47376">
        <ele>2070</ele>
        <time>2021-08-11T13:45:48.795Z</time>
      </trkpt>
      <trkpt lat="46.87514" lon="8.47377">
        <ele>2070</ele>
        <time>2021-08-11T13:45:49.796Z</time>
      </trkpt>
      <trkpt lat="46.87511" lon="8.47375">
        <ele>2073</ele>
        <time>2021-08-11T13:45:50.797Z</time>
      </trkpt>
      <trkpt lat="46.87511" lon="8.47375">
        <ele>2073</ele>
        <time>2021-08-11T13:45:51.797Z</time>
      </trkpt>
      <trkpt lat="46.87509" lon="8.4737">
        <ele>2070</ele>
        <time>2021-08-11T13:45:52.799Z</time>
      </trkpt>
      <trkpt lat="46.87508" lon="8.47369">
        <ele>2070</ele>
        <time>2021-08-11T13:45:53.798Z</time>
      </trkpt>
      <trkpt lat="46.87508" lon="8.47369">
        <ele>2069</ele>
        <time>2021-08-11T13:45:54.798Z</time>
      </trkpt>
      <trkpt lat="46.87508" lon="8.47368">
        <ele>2069</ele>
        <time>2021-08-11T13:45:55.799Z</time>
      </trkpt>
      <trkpt lat="46.87508" lon="8.47368">
        <ele>2069</ele>
        <time>2021-08-11T13:45:56.798Z</time>
      </trkpt>
      <trkpt lat="46.87508" lon="8.47365">
        <ele>2070</ele>
        <time>2021-08-11T13:45:57.799Z</time>
      </trkpt>
      <trkpt lat="46.87508" lon="8.47365">
        <ele>2069</ele>
        <time>2021-08-11T13:45:58.799Z</time>
      </trkpt>
      <trkpt lat="46.87509" lon="8.47364">
        <ele>2069</ele>
        <time>2021-08-11T13:45:59.798Z</time>
      </trkpt>
      <trkpt lat="46.87509" lon="8.47364">
        <ele>2069</ele>
        <time>2021-08-11T13:46:00.798Z</time>
      </trkpt>
      <trkpt lat="46.87509" lon="8.47363">
        <ele>2069</ele>
        <time>2021-08-11T13:46:01.798Z</time>
      </trkpt>
      <trkpt lat="46.87509" lon="8.47362">
        <ele>2069</ele>
        <time>2021-08-11T13:46:02.799Z</time>
      </trkpt>
      <trkpt lat="46.8751" lon="8.47361">
        <ele>2069</ele>
        <time>2021-08-11T13:46:03.799Z</time>
      </trkpt>
      <trkpt lat="46.8751" lon="8.47361">
        <ele>2069</ele>
        <time>2021-08-11T13:46:04.798Z</time>
      </trkpt>
      <trkpt lat="46.87508" lon="8.47358">
        <ele>2069</ele>
        <time>2021-08-11T13:46:05.799Z</time>
      </trkpt>
      <trkpt lat="46.87508" lon="8.47358">
        <ele>2069</ele>
        <time>2021-08-11T13:46:06.799Z</time>
      </trkpt>
      <trkpt lat="46.87509" lon="8.47358">
        <ele>2069</ele>
        <time>2021-08-11T13:46:07.799Z</time>
      </trkpt>
      <trkpt lat="46.87509" lon="8.47358">
        <ele>2069</ele>
        <time>2021-08-11T13:46:08.799Z</time>
      </trkpt>
      <trkpt lat="46.87509" lon="8.47357">
        <ele>2069</ele>
        <time>2021-08-11T13:46:09.799Z</time>
      </trkpt>
      <trkpt lat="46.87509" lon="8.47357">
        <ele>2068</ele>
        <time>2021-08-11T13:46:10.799Z</time>
      </trkpt>
      <trkpt lat="46.87509" lon="8.47356">
        <ele>2068</ele>
        <time>2021-08-11T13:46:11.799Z</time>
      </trkpt>
      <trkpt lat="46.87509" lon="8.47356">
        <ele>2068</ele>
        <time>2021-08-11T13:46:12.799Z</time>
      </trkpt>
      <trkpt lat="46.87509" lon="8.47355">
        <ele>2068</ele>
        <time>2021-08-11T13:46:13.799Z</time>
      </trkpt>
      <trkpt lat="46.8751" lon="8.47355">
        <ele>2067</ele>
        <time>2021-08-11T13:46:14.800Z</time>
      </trkpt>
      <trkpt lat="46.8751" lon="8.47354">
        <ele>2067</ele>
        <time>2021-08-11T13:46:15.800Z</time>
      </trkpt>
      <trkpt lat="46.87511" lon="8.47354">
        <ele>2066</ele>
        <time>2021-08-11T13:46:16.800Z</time>
      </trkpt>
      <trkpt lat="46.87512" lon="8.47352">
        <ele>2066</ele>
        <time>2021-08-11T13:46:17.800Z</time>
      </trkpt>
      <trkpt lat="46.87512" lon="8.47352">
        <ele>2065</ele>
        <time>2021-08-11T13:46:18.800Z</time>
      </trkpt>
      <trkpt lat="46.87511" lon="8.47351">
        <ele>2067</ele>
        <time>2021-08-11T13:46:19.800Z</time>
      </trkpt>
      <trkpt lat="46.8751" lon="8.47352">
        <ele>2068</ele>
        <time>2021-08-11T13:46:20.800Z</time>
      </trkpt>
      <trkpt lat="46.87509" lon="8.47352">
        <ele>2068</ele>
        <time>2021-08-11T13:46:21.800Z</time>
      </trkpt>
      <trkpt lat="46.87509" lon="8.47351">
        <ele>2069</ele>
        <time>2021-08-11T13:46:22.800Z</time>
      </trkpt>
      <trkpt lat="46.87509" lon="8.4735">
        <ele>2070</ele>
        <time>2021-08-11T13:46:23.800Z</time>
      </trkpt>
      <trkpt lat="46.87509" lon="8.47351">
        <ele>2071</ele>
        <time>2021-08-11T13:46:24.800Z</time>
      </trkpt>
      <trkpt lat="46.87508" lon="8.47349">
        <ele>2074</ele>
        <time>2021-08-11T13:46:25.800Z</time>
      </trkpt>
      <trkpt lat="46.87509" lon="8.47349">
        <ele>2074</ele>
        <time>2021-08-11T13:46:26.800Z</time>
      </trkpt>
      <trkpt lat="46.87509" lon="8.47349">
        <ele>2074</ele>
        <time>2021-08-11T13:46:27.800Z</time>
      </trkpt>
      <trkpt lat="46.87508" lon="8.47347">
        <ele>2074</ele>
        <time>2021-08-11T13:46:28.801Z</time>
      </trkpt>
      <trkpt lat="46.87509" lon="8.47346">
        <ele>2073</ele>
        <time>2021-08-11T13:46:29.800Z</time>
      </trkpt>
      <trkpt lat="46.87509" lon="8.47346">
        <ele>2073</ele>
        <time>2021-08-11T13:46:30.800Z</time>
      </trkpt>
      <trkpt lat="46.87509" lon="8.47345">
        <ele>2073</ele>
        <time>2021-08-11T13:46:31.801Z</time>
      </trkpt>
      <trkpt lat="46.87509" lon="8.47345">
        <ele>2073</ele>
        <time>2021-08-11T13:46:32.801Z</time>
      </trkpt>
      <trkpt lat="46.87509" lon="8.47344">
        <ele>2073</ele>
        <time>2021-08-11T13:46:33.801Z</time>
      </trkpt>
      <trkpt lat="46.8751" lon="8.47343">
        <ele>2073</ele>
        <time>2021-08-11T13:46:34.801Z</time>
      </trkpt>
      <trkpt lat="46.8751" lon="8.47343">
        <ele>2073</ele>
        <time>2021-08-11T13:46:35.801Z</time>
      </trkpt>
      <trkpt lat="46.8751" lon="8.47342">
        <ele>2074</ele>
        <time>2021-08-11T13:46:36.800Z</time>
      </trkpt>
      <trkpt lat="46.87509" lon="8.47342">
        <ele>2075</ele>
        <time>2021-08-11T13:46:37.801Z</time>
      </trkpt>
      <trkpt lat="46.8751" lon="8.4734">
        <ele>2075</ele>
        <time>2021-08-11T13:46:38.801Z</time>
      </trkpt>
      <trkpt lat="46.8751" lon="8.47339">
        <ele>2076</ele>
        <time>2021-08-11T13:46:39.801Z</time>
      </trkpt>
      <trkpt lat="46.8751" lon="8.47339">
        <ele>2077</ele>
        <time>2021-08-11T13:46:40.801Z</time>
      </trkpt>
      <trkpt lat="46.8751" lon="8.47339">
        <ele>2077</ele>
        <time>2021-08-11T13:46:41.800Z</time>
      </trkpt>
      <trkpt lat="46.8751" lon="8.47339">
        <ele>2077</ele>
        <time>2021-08-11T13:46:42.800Z</time>
      </trkpt>
      <trkpt lat="46.87509" lon="8.47336">
        <ele>2083</ele>
        <time>2021-08-11T13:46:43.801Z</time>
      </trkpt>
      <trkpt lat="46.87509" lon="8.47335">
        <ele>2084</ele>
        <time>2021-08-11T13:46:44.800Z</time>
      </trkpt>
      <trkpt lat="46.87508" lon="8.47334">
        <ele>2085</ele>
        <time>2021-08-11T13:46:45.801Z</time>
      </trkpt>
      <trkpt lat="46.87508" lon="8.47333">
        <ele>2087</ele>
        <time>2021-08-11T13:46:46.800Z</time>
      </trkpt>
      <trkpt lat="46.87507" lon="8.47333">
        <ele>2088</ele>
        <time>2021-08-11T13:46:47.800Z</time>
      </trkpt>
      <trkpt lat="46.87506" lon="8.47332">
        <ele>2088</ele>
        <time>2021-08-11T13:46:48.800Z</time>
      </trkpt>
      <trkpt lat="46.87506" lon="8.47332">
        <ele>2089</ele>
        <time>2021-08-11T13:46:49.800Z</time>
      </trkpt>
      <trkpt lat="46.87506" lon="8.47331">
        <ele>2089</ele>
        <time>2021-08-11T13:46:50.801Z</time>
      </trkpt>
      <trkpt lat="46.87507" lon="8.47331">
        <ele>2090</ele>
        <time>2021-08-11T13:46:51.801Z</time>
      </trkpt>
      <trkpt lat="46.87507" lon="8.4733">
        <ele>2090</ele>
        <time>2021-08-11T13:46:52.801Z</time>
      </trkpt>
      <trkpt lat="46.87507" lon="8.4733">
        <ele>2090</ele>
        <time>2021-08-11T13:46:53.801Z</time>
      </trkpt>
      <trkpt lat="46.87507" lon="8.47334">
        <ele>2090</ele>
        <time>2021-08-11T13:46:54.802Z</time>
      </trkpt>
      <trkpt lat="46.87508" lon="8.47334">
        <ele>2090</ele>
        <time>2021-08-11T13:46:55.801Z</time>
      </trkpt>
      <trkpt lat="46.87508" lon="8.47335">
        <ele>2089</ele>
        <time>2021-08-11T13:46:56.802Z</time>
      </trkpt>
      <trkpt lat="46.87509" lon="8.47335">
        <ele>2089</ele>
        <time>2021-08-11T13:46:57.802Z</time>
      </trkpt>
      <trkpt lat="46.87507" lon="8.47336">
        <ele>2085</ele>
        <time>2021-08-11T13:46:58.803Z</time>
      </trkpt>
      <trkpt lat="46.87508" lon="8.47336">
        <ele>2085</ele>
        <time>2021-08-11T13:46:59.802Z</time>
      </trkpt>
      <trkpt lat="46.87509" lon="8.47336">
        <ele>2084</ele>
        <time>2021-08-11T13:47:00.802Z</time>
      </trkpt>
      <trkpt lat="46.8751" lon="8.47336">
        <ele>2084</ele>
        <time>2021-08-11T13:47:01.803Z</time>
      </trkpt>
      <trkpt lat="46.8751" lon="8.47336">
        <ele>2084</ele>
        <time>2021-08-11T13:47:02.803Z</time>
      </trkpt>
      <trkpt lat="46.8751" lon="8.47335">
        <ele>2084</ele>
        <time>2021-08-11T13:47:03.803Z</time>
      </trkpt>
      <trkpt lat="46.87512" lon="8.4733">
        <ele>2082</ele>
        <time>2021-08-11T13:47:04.803Z</time>
      </trkpt>
      <trkpt lat="46.87511" lon="8.4733">
        <ele>2082</ele>
        <time>2021-08-11T13:47:05.804Z</time>
      </trkpt>
      <trkpt lat="46.87511" lon="8.4733">
        <ele>2082</ele>
        <time>2021-08-11T13:47:06.803Z</time>
      </trkpt>
      <trkpt lat="46.8751" lon="8.47329">
        <ele>2083</ele>
        <time>2021-08-11T13:47:07.804Z</time>
      </trkpt>
      <trkpt lat="46.87509" lon="8.47329">
        <ele>2083</ele>
        <time>2021-08-11T13:47:08.804Z</time>
      </trkpt>
      <trkpt lat="46.87509" lon="8.47329">
        <ele>2084</ele>
        <time>2021-08-11T13:47:09.804Z</time>
      </trkpt>
      <trkpt lat="46.87509" lon="8.47329">
        <ele>2084</ele>
        <time>2021-08-11T13:47:10.804Z</time>
      </trkpt>
      <trkpt lat="46.87508" lon="8.47329">
        <ele>2084</ele>
        <time>2021-08-11T13:47:11.803Z</time>
      </trkpt>
      <trkpt lat="46.87509" lon="8.47328">
        <ele>2084</ele>
        <time>2021-08-11T13:47:12.804Z</time>
      </trkpt>
      <trkpt lat="46.8751" lon="8.47328">
        <ele>2084</ele>
        <time>2021-08-11T13:47:13.804Z</time>
      </trkpt>
      <trkpt lat="46.8751" lon="8.47328">
        <ele>2084</ele>
        <time>2021-08-11T13:47:14.804Z</time>
      </trkpt>
      <trkpt lat="46.87511" lon="8.47327">
        <ele>2084</ele>
        <time>2021-08-11T13:47:15.804Z</time>
      </trkpt>
      <trkpt lat="46.87512" lon="8.47326">
        <ele>2084</ele>
        <time>2021-08-11T13:47:16.804Z</time>
      </trkpt>
      <trkpt lat="46.87512" lon="8.47325">
        <ele>2084</ele>
        <time>2021-08-11T13:47:17.804Z</time>
      </trkpt>
      <trkpt lat="46.87512" lon="8.47323">
        <ele>2085</ele>
        <time>2021-08-11T13:47:18.803Z</time>
      </trkpt>
      <trkpt lat="46.87511" lon="8.47322">
        <ele>2086</ele>
        <time>2021-08-11T13:47:19.804Z</time>
      </trkpt>
      <trkpt lat="46.8751" lon="8.47321">
        <ele>2087</ele>
        <time>2021-08-11T13:47:20.804Z</time>
      </trkpt>
      <trkpt lat="46.87509" lon="8.4732">
        <ele>2088</ele>
        <time>2021-08-11T13:47:21.803Z</time>
      </trkpt>
      <trkpt lat="46.87509" lon="8.4732">
        <ele>2090</ele>
        <time>2021-08-11T13:47:22.804Z</time>
      </trkpt>
      <trkpt lat="46.87508" lon="8.47319">
        <ele>2091</ele>
        <time>2021-08-11T13:47:23.803Z</time>
      </trkpt>
      <trkpt lat="46.87508" lon="8.47319">
        <ele>2092</ele>
        <time>2021-08-11T13:47:24.804Z</time>
      </trkpt>
      <trkpt lat="46.87507" lon="8.47318">
        <ele>2093</ele>
        <time>2021-08-11T13:47:25.804Z</time>
      </trkpt>
      <trkpt lat="46.87506" lon="8.47317">
        <ele>2094</ele>
        <time>2021-08-11T13:47:26.804Z</time>
      </trkpt>
      <trkpt lat="46.87506" lon="8.47317">
        <ele>2095</ele>
        <time>2021-08-11T13:47:27.804Z</time>
      </trkpt>
      <trkpt lat="46.87506" lon="8.47317">
        <ele>2096</ele>
        <time>2021-08-11T13:47:28.804Z</time>
      </trkpt>
      <trkpt lat="46.87506" lon="8.47317">
        <ele>2096</ele>
        <time>2021-08-11T13:47:29.804Z</time>
      </trkpt>
      <trkpt lat="46.87507" lon="8.47317">
        <ele>2096</ele>
        <time>2021-08-11T13:47:30.804Z</time>
      </trkpt>
      <trkpt lat="46.87508" lon="8.47317">
        <ele>2096</ele>
        <time>2021-08-11T13:47:31.804Z</time>
      </trkpt>
      <trkpt lat="46.87509" lon="8.47316">
        <ele>2096</ele>
        <time>2021-08-11T13:47:32.804Z</time>
      </trkpt>
      <trkpt lat="46.87509" lon="8.47315">
        <ele>2096</ele>
        <time>2021-08-11T13:47:33.803Z</time>
      </trkpt>
      <trkpt lat="46.8751" lon="8.47314">
        <ele>2095</ele>
        <time>2021-08-11T13:47:34.804Z</time>
      </trkpt>
      <trkpt lat="46.87509" lon="8.47317">
        <ele>2093</ele>
        <time>2021-08-11T13:47:35.803Z</time>
      </trkpt>
      <trkpt lat="46.87509" lon="8.47319">
        <ele>2092</ele>
        <time>2021-08-11T13:47:36.804Z</time>
      </trkpt>
      <trkpt lat="46.87508" lon="8.47319">
        <ele>2090</ele>
        <time>2021-08-11T13:47:37.804Z</time>
      </trkpt>
      <trkpt lat="46.87509" lon="8.47319">
        <ele>2090</ele>
        <time>2021-08-11T13:47:38.804Z</time>
      </trkpt>
      <trkpt lat="46.87509" lon="8.47319">
        <ele>2089</ele>
        <time>2021-08-11T13:47:39.803Z</time>
      </trkpt>
      <trkpt lat="46.87509" lon="8.47316">
        <ele>2091</ele>
        <time>2021-08-11T13:47:40.804Z</time>
      </trkpt>
      <trkpt lat="46.87507" lon="8.47318">
        <ele>2091</ele>
        <time>2021-08-11T13:47:41.804Z</time>
      </trkpt>
      <trkpt lat="46.87507" lon="8.47319">
        <ele>2091</ele>
        <time>2021-08-11T13:47:42.804Z</time>
      </trkpt>
      <trkpt lat="46.87507" lon="8.47318">
        <ele>2090</ele>
        <time>2021-08-11T13:47:43.804Z</time>
      </trkpt>
      <trkpt lat="46.87507" lon="8.47318">
        <ele>2090</ele>
        <time>2021-08-11T13:47:44.804Z</time>
      </trkpt>
      <trkpt lat="46.87506" lon="8.47317">
        <ele>2086</ele>
        <time>2021-08-11T13:47:45.805Z</time>
      </trkpt>
      <trkpt lat="46.87506" lon="8.47317">
        <ele>2085</ele>
        <time>2021-08-11T13:47:46.805Z</time>
      </trkpt>
      <trkpt lat="46.87506" lon="8.47317">
        <ele>2085</ele>
        <time>2021-08-11T13:47:47.805Z</time>
      </trkpt>
      <trkpt lat="46.87506" lon="8.47312">
        <ele>2094</ele>
        <time>2021-08-11T13:47:48.806Z</time>
      </trkpt>
      <trkpt lat="46.87505" lon="8.47311">
        <ele>2095</ele>
        <time>2021-08-11T13:47:49.806Z</time>
      </trkpt>
      <trkpt lat="46.87505" lon="8.47311">
        <ele>2096</ele>
        <time>2021-08-11T13:47:50.805Z</time>
      </trkpt>
      <trkpt lat="46.87505" lon="8.47311">
        <ele>2097</ele>
        <time>2021-08-11T13:47:51.806Z</time>
      </trkpt>
      <trkpt lat="46.87505" lon="8.4731">
        <ele>2098</ele>
        <time>2021-08-11T13:47:52.806Z</time>
      </trkpt>
      <trkpt lat="46.87504" lon="8.4731">
        <ele>2098</ele>
        <time>2021-08-11T13:47:53.806Z</time>
      </trkpt>
      <trkpt lat="46.87505" lon="8.47307">
        <ele>2100</ele>
        <time>2021-08-11T13:47:54.806Z</time>
      </trkpt>
      <trkpt lat="46.87505" lon="8.47307">
        <ele>2100</ele>
        <time>2021-08-11T13:47:55.806Z</time>
      </trkpt>
      <trkpt lat="46.87506" lon="8.47306">
        <ele>2100</ele>
        <time>2021-08-11T13:47:56.806Z</time>
      </trkpt>
      <trkpt lat="46.87506" lon="8.47306">
        <ele>2100</ele>
        <time>2021-08-11T13:47:57.807Z</time>
      </trkpt>
      <trkpt lat="46.87507" lon="8.47305">
        <ele>2100</ele>
        <time>2021-08-11T13:47:58.806Z</time>
      </trkpt>
      <trkpt lat="46.87507" lon="8.47304">
        <ele>2100</ele>
        <time>2021-08-11T13:47:59.806Z</time>
      </trkpt>
      <trkpt lat="46.87508" lon="8.47303">
        <ele>2100</ele>
        <time>2021-08-11T13:48:00.806Z</time>
      </trkpt>
      <trkpt lat="46.87507" lon="8.47302">
        <ele>2100</ele>
        <time>2021-08-11T13:48:01.806Z</time>
      </trkpt>
      <trkpt lat="46.87506" lon="8.47302">
        <ele>2101</ele>
        <time>2021-08-11T13:48:02.806Z</time>
      </trkpt>
      <trkpt lat="46.87505" lon="8.47301">
        <ele>2102</ele>
        <time>2021-08-11T13:48:03.806Z</time>
      </trkpt>
      <trkpt lat="46.87503" lon="8.47303">
        <ele>2103</ele>
        <time>2021-08-11T13:48:04.806Z</time>
      </trkpt>
      <trkpt lat="46.87502" lon="8.47303">
        <ele>2103</ele>
        <time>2021-08-11T13:48:05.806Z</time>
      </trkpt>
      <trkpt lat="46.87502" lon="8.47303">
        <ele>2104</ele>
        <time>2021-08-11T13:48:06.806Z</time>
      </trkpt>
      <trkpt lat="46.87502" lon="8.47303">
        <ele>2104</ele>
        <time>2021-08-11T13:48:07.806Z</time>
      </trkpt>
      <trkpt lat="46.87501" lon="8.47303">
        <ele>2104</ele>
        <time>2021-08-11T13:48:08.806Z</time>
      </trkpt>
      <trkpt lat="46.87501" lon="8.47303">
        <ele>2104</ele>
        <time>2021-08-11T13:48:09.806Z</time>
      </trkpt>
      <trkpt lat="46.87501" lon="8.47303">
        <ele>2103</ele>
        <time>2021-08-11T13:48:10.806Z</time>
      </trkpt>
      <trkpt lat="46.87502" lon="8.47303">
        <ele>2098</ele>
        <time>2021-08-11T13:48:11.807Z</time>
      </trkpt>
      <trkpt lat="46.87502" lon="8.47304">
        <ele>2098</ele>
        <time>2021-08-11T13:48:12.807Z</time>
      </trkpt>
      <trkpt lat="46.87502" lon="8.47303">
        <ele>2098</ele>
        <time>2021-08-11T13:48:13.806Z</time>
      </trkpt>
      <trkpt lat="46.87502" lon="8.47304">
        <ele>2100</ele>
        <time>2021-08-11T13:48:14.808Z</time>
      </trkpt>
      <trkpt lat="46.87502" lon="8.47305">
        <ele>2101</ele>
        <time>2021-08-11T13:48:15.808Z</time>
      </trkpt>
      <trkpt lat="46.87502" lon="8.47305">
        <ele>2101</ele>
        <time>2021-08-11T13:48:16.807Z</time>
      </trkpt>
      <trkpt lat="46.87505" lon="8.47298">
        <ele>2110</ele>
        <time>2021-08-11T13:48:17.807Z</time>
      </trkpt>
      <trkpt lat="46.87506" lon="8.47298">
        <ele>2110</ele>
        <time>2021-08-11T13:48:18.808Z</time>
      </trkpt>
      <trkpt lat="46.87506" lon="8.47298">
        <ele>2110</ele>
        <time>2021-08-11T13:48:19.807Z</time>
      </trkpt>
      <trkpt lat="46.87506" lon="8.47298">
        <ele>2109</ele>
        <time>2021-08-11T13:48:20.808Z</time>
      </trkpt>
      <trkpt lat="46.87507" lon="8.47297">
        <ele>2108</ele>
        <time>2021-08-11T13:48:21.808Z</time>
      </trkpt>
      <trkpt lat="46.87507" lon="8.47296">
        <ele>2108</ele>
        <time>2021-08-11T13:48:22.808Z</time>
      </trkpt>
      <trkpt lat="46.87507" lon="8.47295">
        <ele>2107</ele>
        <time>2021-08-11T13:48:23.808Z</time>
      </trkpt>
      <trkpt lat="46.87507" lon="8.47294">
        <ele>2106</ele>
        <time>2021-08-11T13:48:24.807Z</time>
      </trkpt>
      <trkpt lat="46.87506" lon="8.47294">
        <ele>2106</ele>
        <time>2021-08-11T13:48:25.807Z</time>
      </trkpt>
      <trkpt lat="46.87504" lon="8.47294">
        <ele>2105</ele>
        <time>2021-08-11T13:48:26.808Z</time>
      </trkpt>
      <trkpt lat="46.87503" lon="8.47294">
        <ele>2105</ele>
        <time>2021-08-11T13:48:27.808Z</time>
      </trkpt>
      <trkpt lat="46.87503" lon="8.47294">
        <ele>2105</ele>
        <time>2021-08-11T13:48:28.808Z</time>
      </trkpt>
      <trkpt lat="46.87503" lon="8.47294">
        <ele>2105</ele>
        <time>2021-08-11T13:48:29.808Z</time>
      </trkpt>
      <trkpt lat="46.87503" lon="8.47295">
        <ele>2106</ele>
        <time>2021-08-11T13:48:30.808Z</time>
      </trkpt>
      <trkpt lat="46.87502" lon="8.47294">
        <ele>2108</ele>
        <time>2021-08-11T13:48:31.808Z</time>
      </trkpt>
      <trkpt lat="46.87502" lon="8.47293">
        <ele>2108</ele>
        <time>2021-08-11T13:48:32.809Z</time>
      </trkpt>
      <trkpt lat="46.87502" lon="8.47293">
        <ele>2108</ele>
        <time>2021-08-11T13:48:33.808Z</time>
      </trkpt>
      <trkpt lat="46.87504" lon="8.47291">
        <ele>2108</ele>
        <time>2021-08-11T13:48:34.809Z</time>
      </trkpt>
      <trkpt lat="46.87505" lon="8.4729">
        <ele>2108</ele>
        <time>2021-08-11T13:48:35.809Z</time>
      </trkpt>
      <trkpt lat="46.87505" lon="8.4729">
        <ele>2108</ele>
        <time>2021-08-11T13:48:45.831Z</time>
      </trkpt>
      <trkpt lat="46.87505" lon="8.47289">
        <ele>2108</ele>
        <time>2021-08-11T13:48:46.832Z</time>
      </trkpt>
      <trkpt lat="46.87503" lon="8.47287">
        <ele>2106</ele>
        <time>2021-08-11T13:48:47.832Z</time>
      </trkpt>
      <trkpt lat="46.87503" lon="8.47286">
        <ele>2106</ele>
        <time>2021-08-11T13:48:54.953Z</time>
      </trkpt>
      <trkpt lat="46.87503" lon="8.47286">
        <ele>2106</ele>
        <time>2021-08-11T13:48:55.952Z</time>
      </trkpt>
      <trkpt lat="46.87503" lon="8.47285">
        <ele>2106</ele>
        <time>2021-08-11T13:48:56.953Z</time>
      </trkpt>
      <trkpt lat="46.87503" lon="8.47284">
        <ele>2107</ele>
        <time>2021-08-11T13:49:07.095Z</time>
      </trkpt>
      <trkpt lat="46.87503" lon="8.47284">
        <ele>2108</ele>
        <time>2021-08-11T13:49:08.096Z</time>
      </trkpt>
      <trkpt lat="46.87503" lon="8.47283">
        <ele>2109</ele>
        <time>2021-08-11T13:49:09.096Z</time>
      </trkpt>
      <trkpt lat="46.87503" lon="8.47283">
        <ele>2110</ele>
        <time>2021-08-11T13:49:10.095Z</time>
      </trkpt>
      <trkpt lat="46.87502" lon="8.47282">
        <ele>2111</ele>
        <time>2021-08-11T13:49:11.095Z</time>
      </trkpt>
      <trkpt lat="46.87502" lon="8.47282">
        <ele>2111</ele>
        <time>2021-08-11T13:49:12.096Z</time>
      </trkpt>
      <trkpt lat="46.87501" lon="8.47281">
        <ele>2112</ele>
        <time>2021-08-11T13:49:13.096Z</time>
      </trkpt>
      <trkpt lat="46.87501" lon="8.47281">
        <ele>2112</ele>
        <time>2021-08-11T13:49:14.096Z</time>
      </trkpt>
      <trkpt lat="46.875" lon="8.47281">
        <ele>2112</ele>
        <time>2021-08-11T13:49:15.095Z</time>
      </trkpt>
      <trkpt lat="46.875" lon="8.47281">
        <ele>2111</ele>
        <time>2021-08-11T13:49:16.095Z</time>
      </trkpt>
      <trkpt lat="46.875" lon="8.47282">
        <ele>2110</ele>
        <time>2021-08-11T13:49:17.096Z</time>
      </trkpt>
      <trkpt lat="46.87499" lon="8.47282">
        <ele>2108</ele>
        <time>2021-08-11T13:49:18.096Z</time>
      </trkpt>
      <trkpt lat="46.87498" lon="8.47281">
        <ele>2108</ele>
        <time>2021-08-11T13:49:19.096Z</time>
      </trkpt>
      <trkpt lat="46.87497" lon="8.47281">
        <ele>2108</ele>
        <time>2021-08-11T13:49:20.095Z</time>
      </trkpt>
      <trkpt lat="46.87497" lon="8.4728">
        <ele>2108</ele>
        <time>2021-08-11T13:49:21.095Z</time>
      </trkpt>
      <trkpt lat="46.87496" lon="8.4728">
        <ele>2108</ele>
        <time>2021-08-11T13:49:22.096Z</time>
      </trkpt>
      <trkpt lat="46.87496" lon="8.47279">
        <ele>2107</ele>
        <time>2021-08-11T13:49:23.095Z</time>
      </trkpt>
      <trkpt lat="46.87495" lon="8.47278">
        <ele>2107</ele>
        <time>2021-08-11T13:49:24.095Z</time>
      </trkpt>
      <trkpt lat="46.87494" lon="8.47278">
        <ele>2108</ele>
        <time>2021-08-11T13:49:25.095Z</time>
      </trkpt>
      <trkpt lat="46.87493" lon="8.47277">
        <ele>2108</ele>
        <time>2021-08-11T13:49:26.095Z</time>
      </trkpt>
      <trkpt lat="46.87492" lon="8.47277">
        <ele>2108</ele>
        <time>2021-08-11T13:49:27.095Z</time>
      </trkpt>
      <trkpt lat="46.87492" lon="8.47277">
        <ele>2108</ele>
        <time>2021-08-11T13:49:28.095Z</time>
      </trkpt>
      <trkpt lat="46.87492" lon="8.47276">
        <ele>2108</ele>
        <time>2021-08-11T13:49:29.095Z</time>
      </trkpt>
      <trkpt lat="46.87491" lon="8.47276">
        <ele>2108</ele>
        <time>2021-08-11T13:49:30.095Z</time>
      </trkpt>
      <trkpt lat="46.8749" lon="8.47275">
        <ele>2108</ele>
        <time>2021-08-11T13:49:31.095Z</time>
      </trkpt>
      <trkpt lat="46.87488" lon="8.47273">
        <ele>2108</ele>
        <time>2021-08-11T13:49:32.097Z</time>
      </trkpt>
      <trkpt lat="46.87489" lon="8.47273">
        <ele>2108</ele>
        <time>2021-08-11T13:49:33.097Z</time>
      </trkpt>
      <trkpt lat="46.8749" lon="8.47273">
        <ele>2107</ele>
        <time>2021-08-11T13:49:34.097Z</time>
      </trkpt>
      <trkpt lat="46.87489" lon="8.47272">
        <ele>2115</ele>
        <time>2021-08-11T13:49:35.097Z</time>
      </trkpt>
      <trkpt lat="46.87489" lon="8.47271">
        <ele>2116</ele>
        <time>2021-08-11T13:49:36.096Z</time>
      </trkpt>
      <trkpt lat="46.87489" lon="8.4727">
        <ele>2116</ele>
        <time>2021-08-11T13:49:37.097Z</time>
      </trkpt>
      <trkpt lat="46.87489" lon="8.4727">
        <ele>2117</ele>
        <time>2021-08-11T13:49:38.097Z</time>
      </trkpt>
      <trkpt lat="46.87488" lon="8.47269">
        <ele>2118</ele>
        <time>2021-08-11T13:49:39.097Z</time>
      </trkpt>
      <trkpt lat="46.87488" lon="8.47269">
        <ele>2119</ele>
        <time>2021-08-11T13:49:40.096Z</time>
      </trkpt>
      <trkpt lat="46.87488" lon="8.47268">
        <ele>2120</ele>
        <time>2021-08-11T13:49:41.097Z</time>
      </trkpt>
      <trkpt lat="46.87488" lon="8.47267">
        <ele>2121</ele>
        <time>2021-08-11T13:49:42.098Z</time>
      </trkpt>
      <trkpt lat="46.87488" lon="8.47267">
        <ele>2121</ele>
        <time>2021-08-11T13:49:43.097Z</time>
      </trkpt>
      <trkpt lat="46.87488" lon="8.47271">
        <ele>2112</ele>
        <time>2021-08-11T13:49:44.098Z</time>
      </trkpt>
      <trkpt lat="46.87487" lon="8.47273">
        <ele>2111</ele>
        <time>2021-08-11T13:49:45.098Z</time>
      </trkpt>
      <trkpt lat="46.87487" lon="8.47274">
        <ele>2111</ele>
        <time>2021-08-11T13:49:46.098Z</time>
      </trkpt>
      <trkpt lat="46.87487" lon="8.47274">
        <ele>2110</ele>
        <time>2021-08-11T13:49:47.098Z</time>
      </trkpt>
      <trkpt lat="46.87487" lon="8.47273">
        <ele>2110</ele>
        <time>2021-08-11T13:49:48.098Z</time>
      </trkpt>
      <trkpt lat="46.87489" lon="8.47274">
        <ele>2108</ele>
        <time>2021-08-11T13:49:49.099Z</time>
      </trkpt>
      <trkpt lat="46.87489" lon="8.47274">
        <ele>2108</ele>
        <time>2021-08-11T13:49:50.099Z</time>
      </trkpt>
      <trkpt lat="46.87489" lon="8.47274">
        <ele>2108</ele>
        <time>2021-08-11T13:49:51.098Z</time>
      </trkpt>
      <trkpt lat="46.87489" lon="8.47273">
        <ele>2108</ele>
        <time>2021-08-11T13:49:52.098Z</time>
      </trkpt>
      <trkpt lat="46.87488" lon="8.47273">
        <ele>2108</ele>
        <time>2021-08-11T13:49:53.098Z</time>
      </trkpt>
      <trkpt lat="46.87487" lon="8.47271">
        <ele>2111</ele>
        <time>2021-08-11T13:49:54.098Z</time>
      </trkpt>
      <trkpt lat="46.87487" lon="8.4727">
        <ele>2111</ele>
        <time>2021-08-11T13:49:55.098Z</time>
      </trkpt>
      <trkpt lat="46.87487" lon="8.47269">
        <ele>2111</ele>
        <time>2021-08-11T13:49:58.065Z</time>
      </trkpt>
      <trkpt lat="46.87486" lon="8.47269">
        <ele>2112</ele>
        <time>2021-08-11T13:50:10.834Z</time>
      </trkpt>
      <trkpt lat="46.87486" lon="8.47268">
        <ele>2112</ele>
        <time>2021-08-11T13:50:11.834Z</time>
      </trkpt>
      <trkpt lat="46.87485" lon="8.47267">
        <ele>2113</ele>
        <time>2021-08-11T13:50:12.833Z</time>
      </trkpt>
      <trkpt lat="46.87485" lon="8.47266">
        <ele>2113</ele>
        <time>2021-08-11T13:50:15.917Z</time>
      </trkpt>
      <trkpt lat="46.87484" lon="8.47266">
        <ele>2113</ele>
        <time>2021-08-11T13:50:16.917Z</time>
      </trkpt>
      <trkpt lat="46.87485" lon="8.47265">
        <ele>2114</ele>
        <time>2021-08-11T13:50:17.917Z</time>
      </trkpt>
      <trkpt lat="46.87484" lon="8.47265">
        <ele>2114</ele>
        <time>2021-08-11T13:50:20.919Z</time>
      </trkpt>
      <trkpt lat="46.87484" lon="8.47265">
        <ele>2115</ele>
        <time>2021-08-11T13:50:21.918Z</time>
      </trkpt>
      <trkpt lat="46.87483" lon="8.47264">
        <ele>2116</ele>
        <time>2021-08-11T13:50:22.919Z</time>
      </trkpt>
      <trkpt lat="46.87483" lon="8.47264">
        <ele>2117</ele>
        <time>2021-08-11T13:50:23.919Z</time>
      </trkpt>
      <trkpt lat="46.87483" lon="8.47263">
        <ele>2117</ele>
        <time>2021-08-11T13:50:24.919Z</time>
      </trkpt>
      <trkpt lat="46.87482" lon="8.47263">
        <ele>2118</ele>
        <time>2021-08-11T13:50:25.918Z</time>
      </trkpt>
      <trkpt lat="46.87482" lon="8.47262">
        <ele>2118</ele>
        <time>2021-08-11T13:50:26.919Z</time>
      </trkpt>
      <trkpt lat="46.87481" lon="8.47262">
        <ele>2118</ele>
        <time>2021-08-11T13:50:27.918Z</time>
      </trkpt>
      <trkpt lat="46.87481" lon="8.47262">
        <ele>2118</ele>
        <time>2021-08-11T13:50:28.919Z</time>
      </trkpt>
      <trkpt lat="46.87481" lon="8.47262">
        <ele>2118</ele>
        <time>2021-08-11T13:50:29.918Z</time>
      </trkpt>
      <trkpt lat="46.8748" lon="8.47261">
        <ele>2118</ele>
        <time>2021-08-11T13:50:30.919Z</time>
      </trkpt>
      <trkpt lat="46.8748" lon="8.47261">
        <ele>2118</ele>
        <time>2021-08-11T13:50:31.919Z</time>
      </trkpt>
      <trkpt lat="46.87479" lon="8.4726">
        <ele>2118</ele>
        <time>2021-08-11T13:50:32.919Z</time>
      </trkpt>
      <trkpt lat="46.87477" lon="8.47259">
        <ele>2119</ele>
        <time>2021-08-11T13:50:33.919Z</time>
      </trkpt>
      <trkpt lat="46.87477" lon="8.47258">
        <ele>2119</ele>
        <time>2021-08-11T13:50:34.918Z</time>
      </trkpt>
      <trkpt lat="46.87476" lon="8.47257">
        <ele>2119</ele>
        <time>2021-08-11T13:50:35.919Z</time>
      </trkpt>
      <trkpt lat="46.87475" lon="8.47256">
        <ele>2118</ele>
        <time>2021-08-11T13:50:36.919Z</time>
      </trkpt>
      <trkpt lat="46.87474" lon="8.47255">
        <ele>2118</ele>
        <time>2021-08-11T13:50:37.919Z</time>
      </trkpt>
      <trkpt lat="46.87473" lon="8.47254">
        <ele>2119</ele>
        <time>2021-08-11T13:50:38.919Z</time>
      </trkpt>
      <trkpt lat="46.87472" lon="8.47254">
        <ele>2119</ele>
        <time>2021-08-11T13:50:39.918Z</time>
      </trkpt>
      <trkpt lat="46.87472" lon="8.47253">
        <ele>2120</ele>
        <time>2021-08-11T13:50:40.919Z</time>
      </trkpt>
      <trkpt lat="46.87471" lon="8.47252">
        <ele>2121</ele>
        <time>2021-08-11T13:50:41.919Z</time>
      </trkpt>
      <trkpt lat="46.87471" lon="8.47251">
        <ele>2121</ele>
        <time>2021-08-11T13:50:42.919Z</time>
      </trkpt>
      <trkpt lat="46.8747" lon="8.4725">
        <ele>2121</ele>
        <time>2021-08-11T13:50:43.918Z</time>
      </trkpt>
      <trkpt lat="46.87469" lon="8.47249">
        <ele>2121</ele>
        <time>2021-08-11T13:50:44.919Z</time>
      </trkpt>
      <trkpt lat="46.87469" lon="8.47248">
        <ele>2121</ele>
        <time>2021-08-11T13:50:45.919Z</time>
      </trkpt>
      <trkpt lat="46.87468" lon="8.47247">
        <ele>2121</ele>
        <time>2021-08-11T13:50:46.919Z</time>
      </trkpt>
      <trkpt lat="46.87467" lon="8.47245">
        <ele>2121</ele>
        <time>2021-08-11T13:50:47.919Z</time>
      </trkpt>
      <trkpt lat="46.87466" lon="8.47245">
        <ele>2121</ele>
        <time>2021-08-11T13:50:48.918Z</time>
      </trkpt>
      <trkpt lat="46.87465" lon="8.47244">
        <ele>2121</ele>
        <time>2021-08-11T13:50:49.919Z</time>
      </trkpt>
      <trkpt lat="46.87464" lon="8.47244">
        <ele>2121</ele>
        <time>2021-08-11T13:50:50.919Z</time>
      </trkpt>
      <trkpt lat="46.87464" lon="8.47244">
        <ele>2122</ele>
        <time>2021-08-11T13:50:51.919Z</time>
      </trkpt>
      <trkpt lat="46.87463" lon="8.47243">
        <ele>2122</ele>
        <time>2021-08-11T13:50:52.919Z</time>
      </trkpt>
      <trkpt lat="46.87462" lon="8.47243">
        <ele>2123</ele>
        <time>2021-08-11T13:50:53.918Z</time>
      </trkpt>
      <trkpt lat="46.87461" lon="8.47243">
        <ele>2123</ele>
        <time>2021-08-11T13:50:54.918Z</time>
      </trkpt>
      <trkpt lat="46.87461" lon="8.47243">
        <ele>2123</ele>
        <time>2021-08-11T13:50:55.918Z</time>
      </trkpt>
      <trkpt lat="46.8746" lon="8.47243">
        <ele>2122</ele>
        <time>2021-08-11T13:50:56.918Z</time>
      </trkpt>
      <trkpt lat="46.8746" lon="8.47242">
        <ele>2122</ele>
        <time>2021-08-11T13:50:57.918Z</time>
      </trkpt>
      <trkpt lat="46.8746" lon="8.47241">
        <ele>2122</ele>
        <time>2021-08-11T13:50:58.918Z</time>
      </trkpt>
      <trkpt lat="46.87459" lon="8.4724">
        <ele>2121</ele>
        <time>2021-08-11T13:50:59.919Z</time>
      </trkpt>
      <trkpt lat="46.87459" lon="8.4724">
        <ele>2121</ele>
        <time>2021-08-11T13:51:00.919Z</time>
      </trkpt>
      <trkpt lat="46.87459" lon="8.47239">
        <ele>2121</ele>
        <time>2021-08-11T13:51:01.918Z</time>
      </trkpt>
      <trkpt lat="46.87458" lon="8.47239">
        <ele>2122</ele>
        <time>2021-08-11T13:51:03.957Z</time>
      </trkpt>
      <trkpt lat="46.87457" lon="8.47239">
        <ele>2122</ele>
        <time>2021-08-11T13:51:04.957Z</time>
      </trkpt>
      <trkpt lat="46.87456" lon="8.47239">
        <ele>2122</ele>
        <time>2021-08-11T13:51:05.957Z</time>
      </trkpt>
      <trkpt lat="46.87455" lon="8.47239">
        <ele>2122</ele>
        <time>2021-08-11T13:51:06.956Z</time>
      </trkpt>
      <trkpt lat="46.87454" lon="8.47239">
        <ele>2123</ele>
        <time>2021-08-11T13:51:07.957Z</time>
      </trkpt>
      <trkpt lat="46.87454" lon="8.47239">
        <ele>2123</ele>
        <time>2021-08-11T13:51:08.957Z</time>
      </trkpt>
      <trkpt lat="46.87453" lon="8.47239">
        <ele>2124</ele>
        <time>2021-08-11T13:51:09.957Z</time>
      </trkpt>
      <trkpt lat="46.87452" lon="8.47238">
        <ele>2125</ele>
        <time>2021-08-11T13:51:10.957Z</time>
      </trkpt>
      <trkpt lat="46.87451" lon="8.47238">
        <ele>2126</ele>
        <time>2021-08-11T13:51:11.956Z</time>
      </trkpt>
      <trkpt lat="46.87451" lon="8.47238">
        <ele>2126</ele>
        <time>2021-08-11T13:51:12.957Z</time>
      </trkpt>
      <trkpt lat="46.8745" lon="8.47238">
        <ele>2127</ele>
        <time>2021-08-11T13:51:13.957Z</time>
      </trkpt>
      <trkpt lat="46.87449" lon="8.47238">
        <ele>2127</ele>
        <time>2021-08-11T13:51:14.957Z</time>
      </trkpt>
      <trkpt lat="46.87448" lon="8.47238">
        <ele>2128</ele>
        <time>2021-08-11T13:51:15.956Z</time>
      </trkpt>
      <trkpt lat="46.87448" lon="8.47237">
        <ele>2129</ele>
        <time>2021-08-11T13:51:16.957Z</time>
      </trkpt>
      <trkpt lat="46.87448" lon="8.47237">
        <ele>2130</ele>
        <time>2021-08-11T13:51:17.957Z</time>
      </trkpt>
      <trkpt lat="46.87448" lon="8.47236">
        <ele>2130</ele>
        <time>2021-08-11T13:51:18.957Z</time>
      </trkpt>
      <trkpt lat="46.87447" lon="8.47236">
        <ele>2131</ele>
        <time>2021-08-11T13:51:19.957Z</time>
      </trkpt>
      <trkpt lat="46.87447" lon="8.47235">
        <ele>2131</ele>
        <time>2021-08-11T13:51:20.957Z</time>
      </trkpt>
      <trkpt lat="46.87447" lon="8.47234">
        <ele>2131</ele>
        <time>2021-08-11T13:51:21.956Z</time>
      </trkpt>
      <trkpt lat="46.87446" lon="8.47234">
        <ele>2131</ele>
        <time>2021-08-11T13:51:22.956Z</time>
      </trkpt>
      <trkpt lat="46.87446" lon="8.47233">
        <ele>2131</ele>
        <time>2021-08-11T13:51:23.956Z</time>
      </trkpt>
      <trkpt lat="46.87445" lon="8.47233">
        <ele>2131</ele>
        <time>2021-08-11T13:51:24.957Z</time>
      </trkpt>
      <trkpt lat="46.87445" lon="8.47234">
        <ele>2131</ele>
        <time>2021-08-11T13:51:25.956Z</time>
      </trkpt>
      <trkpt lat="46.87445" lon="8.47234">
        <ele>2131</ele>
        <time>2021-08-11T13:51:26.956Z</time>
      </trkpt>
      <trkpt lat="46.87445" lon="8.47234">
        <ele>2131</ele>
        <time>2021-08-11T13:51:27.956Z</time>
      </trkpt>
      <trkpt lat="46.87445" lon="8.47233">
        <ele>2131</ele>
        <time>2021-08-11T13:51:28.957Z</time>
      </trkpt>
      <trkpt lat="46.87445" lon="8.47233">
        <ele>2131</ele>
        <time>2021-08-11T13:51:29.956Z</time>
      </trkpt>
      <trkpt lat="46.87445" lon="8.47232">
        <ele>2131</ele>
        <time>2021-08-11T13:51:30.956Z</time>
      </trkpt>
      <trkpt lat="46.87445" lon="8.47232">
        <ele>2131</ele>
        <time>2021-08-11T13:51:31.956Z</time>
      </trkpt>
      <trkpt lat="46.87446" lon="8.4723">
        <ele>2135</ele>
        <time>2021-08-11T13:51:32.958Z</time>
      </trkpt>
      <trkpt lat="46.87446" lon="8.47229">
        <ele>2135</ele>
        <time>2021-08-11T13:51:33.958Z</time>
      </trkpt>
      <trkpt lat="46.87445" lon="8.47229">
        <ele>2135</ele>
        <time>2021-08-11T13:51:34.958Z</time>
      </trkpt>
      <trkpt lat="46.87445" lon="8.47229">
        <ele>2136</ele>
        <time>2021-08-11T13:51:35.958Z</time>
      </trkpt>
      <trkpt lat="46.87444" lon="8.47229">
        <ele>2136</ele>
        <time>2021-08-11T13:51:36.958Z</time>
      </trkpt>
      <trkpt lat="46.87444" lon="8.47229">
        <ele>2136</ele>
        <time>2021-08-11T13:51:37.958Z</time>
      </trkpt>
      <trkpt lat="46.87444" lon="8.4723">
        <ele>2135</ele>
        <time>2021-08-11T13:51:38.957Z</time>
      </trkpt>
      <trkpt lat="46.87444" lon="8.4723">
        <ele>2134</ele>
        <time>2021-08-11T13:51:39.957Z</time>
      </trkpt>
      <trkpt lat="46.87444" lon="8.4723">
        <ele>2134</ele>
        <time>2021-08-11T13:51:40.958Z</time>
      </trkpt>
      <trkpt lat="46.87444" lon="8.47231">
        <ele>2134</ele>
        <time>2021-08-11T13:51:41.957Z</time>
      </trkpt>
      <trkpt lat="46.87444" lon="8.47231">
        <ele>2134</ele>
        <time>2021-08-11T13:51:42.958Z</time>
      </trkpt>
      <trkpt lat="46.87443" lon="8.47231">
        <ele>2134</ele>
        <time>2021-08-11T13:51:43.958Z</time>
      </trkpt>
      <trkpt lat="46.87442" lon="8.47231">
        <ele>2134</ele>
        <time>2021-08-11T13:51:44.958Z</time>
      </trkpt>
      <trkpt lat="46.87442" lon="8.47231">
        <ele>2134</ele>
        <time>2021-08-11T13:51:45.957Z</time>
      </trkpt>
      <trkpt lat="46.87442" lon="8.4723">
        <ele>2134</ele>
        <time>2021-08-11T13:51:46.958Z</time>
      </trkpt>
      <trkpt lat="46.87443" lon="8.47228">
        <ele>2133</ele>
        <time>2021-08-11T13:51:47.959Z</time>
      </trkpt>
      <trkpt lat="46.87442" lon="8.47228">
        <ele>2133</ele>
        <time>2021-08-11T13:51:48.958Z</time>
      </trkpt>
      <trkpt lat="46.87441" lon="8.47227">
        <ele>2133</ele>
        <time>2021-08-11T13:51:49.958Z</time>
      </trkpt>
      <trkpt lat="46.87441" lon="8.47227">
        <ele>2133</ele>
        <time>2021-08-11T13:51:50.959Z</time>
      </trkpt>
      <trkpt lat="46.87441" lon="8.47226">
        <ele>2137</ele>
        <time>2021-08-11T13:51:51.958Z</time>
      </trkpt>
      <trkpt lat="46.8744" lon="8.47226">
        <ele>2137</ele>
        <time>2021-08-11T13:51:52.959Z</time>
      </trkpt>
      <trkpt lat="46.8744" lon="8.47225">
        <ele>2136</ele>
        <time>2021-08-11T13:51:53.958Z</time>
      </trkpt>
      <trkpt lat="46.8744" lon="8.47225">
        <ele>2135</ele>
        <time>2021-08-11T13:51:54.959Z</time>
      </trkpt>
      <trkpt lat="46.8744" lon="8.47224">
        <ele>2135</ele>
        <time>2021-08-11T13:51:55.959Z</time>
      </trkpt>
      <trkpt lat="46.8744" lon="8.47224">
        <ele>2134</ele>
        <time>2021-08-11T13:51:56.959Z</time>
      </trkpt>
      <trkpt lat="46.87439" lon="8.47224">
        <ele>2133</ele>
        <time>2021-08-11T13:51:57.958Z</time>
      </trkpt>
      <trkpt lat="46.87438" lon="8.47223">
        <ele>2132</ele>
        <time>2021-08-11T13:52:06.056Z</time>
      </trkpt>
      <trkpt lat="46.87438" lon="8.47222">
        <ele>2131</ele>
        <time>2021-08-11T13:52:07.056Z</time>
      </trkpt>
      <trkpt lat="46.87437" lon="8.47221">
        <ele>2131</ele>
        <time>2021-08-11T13:52:08.055Z</time>
      </trkpt>
      <trkpt lat="46.87437" lon="8.4722">
        <ele>2130</ele>
        <time>2021-08-11T13:52:21.059Z</time>
      </trkpt>
      <trkpt lat="46.87437" lon="8.4722">
        <ele>2129</ele>
        <time>2021-08-11T13:52:22.792Z</time>
      </trkpt>
      <trkpt lat="46.87437" lon="8.47219">
        <ele>2129</ele>
        <time>2021-08-11T13:52:23.793Z</time>
      </trkpt>
      <trkpt lat="46.87436" lon="8.47219">
        <ele>2128</ele>
        <time>2021-08-11T13:52:24.793Z</time>
      </trkpt>
      <trkpt lat="46.87436" lon="8.47218">
        <ele>2128</ele>
        <time>2021-08-11T13:52:38.811Z</time>
      </trkpt>
      <trkpt lat="46.87435" lon="8.47218">
        <ele>2128</ele>
        <time>2021-08-11T13:52:39.811Z</time>
      </trkpt>
      <trkpt lat="46.87434" lon="8.47218">
        <ele>2128</ele>
        <time>2021-08-11T13:52:40.812Z</time>
      </trkpt>
      <trkpt lat="46.87435" lon="8.47221">
        <ele>2129</ele>
        <time>2021-08-11T13:52:41.813Z</time>
      </trkpt>
      <trkpt lat="46.87436" lon="8.47221">
        <ele>2130</ele>
        <time>2021-08-11T13:52:42.813Z</time>
      </trkpt>
      <trkpt lat="46.87436" lon="8.47222">
        <ele>2131</ele>
        <time>2021-08-11T13:52:43.812Z</time>
      </trkpt>
      <trkpt lat="46.87434" lon="8.47218">
        <ele>2134</ele>
        <time>2021-08-11T13:52:44.812Z</time>
      </trkpt>
      <trkpt lat="46.87433" lon="8.47218">
        <ele>2134</ele>
        <time>2021-08-11T13:52:45.813Z</time>
      </trkpt>
      <trkpt lat="46.87432" lon="8.47217">
        <ele>2134</ele>
        <time>2021-08-11T13:52:46.812Z</time>
      </trkpt>
      <trkpt lat="46.87431" lon="8.47216">
        <ele>2135</ele>
        <time>2021-08-11T13:52:47.813Z</time>
      </trkpt>
      <trkpt lat="46.8743" lon="8.47216">
        <ele>2136</ele>
        <time>2021-08-11T13:52:48.813Z</time>
      </trkpt>
      <trkpt lat="46.8743" lon="8.47214">
        <ele>2136</ele>
        <time>2021-08-11T13:52:49.812Z</time>
      </trkpt>
      <trkpt lat="46.8743" lon="8.47213">
        <ele>2137</ele>
        <time>2021-08-11T13:52:50.812Z</time>
      </trkpt>
      <trkpt lat="46.8743" lon="8.47213">
        <ele>2137</ele>
        <time>2021-08-11T13:52:51.812Z</time>
      </trkpt>
      <trkpt lat="46.8743" lon="8.47212">
        <ele>2138</ele>
        <time>2021-08-11T13:52:52.813Z</time>
      </trkpt>
      <trkpt lat="46.8743" lon="8.47212">
        <ele>2138</ele>
        <time>2021-08-11T13:52:53.813Z</time>
      </trkpt>
      <trkpt lat="46.87431" lon="8.47211">
        <ele>2138</ele>
        <time>2021-08-11T13:52:54.812Z</time>
      </trkpt>
      <trkpt lat="46.87432" lon="8.4721">
        <ele>2139</ele>
        <time>2021-08-11T13:52:55.813Z</time>
      </trkpt>
      <trkpt lat="46.87432" lon="8.47209">
        <ele>2139</ele>
        <time>2021-08-11T13:52:56.813Z</time>
      </trkpt>
      <trkpt lat="46.87432" lon="8.47208">
        <ele>2139</ele>
        <time>2021-08-11T13:52:57.813Z</time>
      </trkpt>
      <trkpt lat="46.87432" lon="8.47207">
        <ele>2139</ele>
        <time>2021-08-11T13:52:58.813Z</time>
      </trkpt>
      <trkpt lat="46.87432" lon="8.47207">
        <ele>2140</ele>
        <time>2021-08-11T13:52:59.813Z</time>
      </trkpt>
      <trkpt lat="46.87432" lon="8.47207">
        <ele>2140</ele>
        <time>2021-08-11T13:53:00.813Z</time>
      </trkpt>
      <trkpt lat="46.87431" lon="8.47206">
        <ele>2140</ele>
        <time>2021-08-11T13:53:01.812Z</time>
      </trkpt>
      <trkpt lat="46.87431" lon="8.47206">
        <ele>2140</ele>
        <time>2021-08-11T13:53:02.812Z</time>
      </trkpt>
      <trkpt lat="46.87431" lon="8.47205">
        <ele>2141</ele>
        <time>2021-08-11T13:53:03.813Z</time>
      </trkpt>
      <trkpt lat="46.87431" lon="8.47205">
        <ele>2141</ele>
        <time>2021-08-11T13:53:04.813Z</time>
      </trkpt>
      <trkpt lat="46.87431" lon="8.47204">
        <ele>2142</ele>
        <time>2021-08-11T13:53:05.813Z</time>
      </trkpt>
      <trkpt lat="46.87431" lon="8.47204">
        <ele>2142</ele>
        <time>2021-08-11T13:53:06.813Z</time>
      </trkpt>
      <trkpt lat="46.87431" lon="8.47203">
        <ele>2142</ele>
        <time>2021-08-11T13:53:07.812Z</time>
      </trkpt>
      <trkpt lat="46.87431" lon="8.47203">
        <ele>2142</ele>
        <time>2021-08-11T13:53:08.813Z</time>
      </trkpt>
      <trkpt lat="46.87431" lon="8.47201">
        <ele>2141</ele>
        <time>2021-08-11T13:53:09.814Z</time>
      </trkpt>
      <trkpt lat="46.8743" lon="8.472">
        <ele>2140</ele>
        <time>2021-08-11T13:53:10.813Z</time>
      </trkpt>
      <trkpt lat="46.8743" lon="8.47199">
        <ele>2140</ele>
        <time>2021-08-11T13:53:11.813Z</time>
      </trkpt>
      <trkpt lat="46.8743" lon="8.47198">
        <ele>2140</ele>
        <time>2021-08-11T13:53:12.814Z</time>
      </trkpt>
      <trkpt lat="46.87429" lon="8.47197">
        <ele>2139</ele>
        <time>2021-08-11T13:53:13.813Z</time>
      </trkpt>
      <trkpt lat="46.87429" lon="8.47197">
        <ele>2139</ele>
        <time>2021-08-11T13:53:14.814Z</time>
      </trkpt>
      <trkpt lat="46.87429" lon="8.47196">
        <ele>2139</ele>
        <time>2021-08-11T13:53:15.813Z</time>
      </trkpt>
      <trkpt lat="46.87429" lon="8.47196">
        <ele>2139</ele>
        <time>2021-08-11T13:53:16.814Z</time>
      </trkpt>
      <trkpt lat="46.87429" lon="8.47196">
        <ele>2138</ele>
        <time>2021-08-11T13:53:17.814Z</time>
      </trkpt>
      <trkpt lat="46.87429" lon="8.47196">
        <ele>2138</ele>
        <time>2021-08-11T13:53:18.813Z</time>
      </trkpt>
      <trkpt lat="46.87428" lon="8.47197">
        <ele>2138</ele>
        <time>2021-08-11T13:53:19.813Z</time>
      </trkpt>
      <trkpt lat="46.87429" lon="8.47196">
        <ele>2136</ele>
        <time>2021-08-11T13:53:20.815Z</time>
      </trkpt>
      <trkpt lat="46.87428" lon="8.47196">
        <ele>2137</ele>
        <time>2021-08-11T13:53:21.815Z</time>
      </trkpt>
      <trkpt lat="46.87428" lon="8.47196">
        <ele>2137</ele>
        <time>2021-08-11T13:53:22.814Z</time>
      </trkpt>
      <trkpt lat="46.87428" lon="8.47195">
        <ele>2138</ele>
        <time>2021-08-11T13:53:23.815Z</time>
      </trkpt>
      <trkpt lat="46.87427" lon="8.47195">
        <ele>2138</ele>
        <time>2021-08-11T13:53:24.815Z</time>
      </trkpt>
      <trkpt lat="46.87427" lon="8.47195">
        <ele>2138</ele>
        <time>2021-08-11T13:53:25.815Z</time>
      </trkpt>
      <trkpt lat="46.87427" lon="8.47195">
        <ele>2138</ele>
        <time>2021-08-11T13:53:26.814Z</time>
      </trkpt>
      <trkpt lat="46.87426" lon="8.47194">
        <ele>2138</ele>
        <time>2021-08-11T13:53:27.814Z</time>
      </trkpt>
      <trkpt lat="46.87426" lon="8.47194">
        <ele>2139</ele>
        <time>2021-08-11T13:53:28.815Z</time>
      </trkpt>
      <trkpt lat="46.87425" lon="8.47194">
        <ele>2139</ele>
        <time>2021-08-11T13:53:29.815Z</time>
      </trkpt>
      <trkpt lat="46.87425" lon="8.47193">
        <ele>2139</ele>
        <time>2021-08-11T13:53:30.814Z</time>
      </trkpt>
      <trkpt lat="46.87424" lon="8.47192">
        <ele>2139</ele>
        <time>2021-08-11T13:53:31.815Z</time>
      </trkpt>
      <trkpt lat="46.87424" lon="8.47192">
        <ele>2139</ele>
        <time>2021-08-11T13:53:32.815Z</time>
      </trkpt>
      <trkpt lat="46.87424" lon="8.47191">
        <ele>2139</ele>
        <time>2021-08-11T13:53:33.815Z</time>
      </trkpt>
      <trkpt lat="46.87424" lon="8.47189">
        <ele>2140</ele>
        <time>2021-08-11T13:53:34.815Z</time>
      </trkpt>
      <trkpt lat="46.87424" lon="8.47188">
        <ele>2140</ele>
        <time>2021-08-11T13:53:35.815Z</time>
      </trkpt>
      <trkpt lat="46.87425" lon="8.47187">
        <ele>2140</ele>
        <time>2021-08-11T13:53:36.815Z</time>
      </trkpt>
      <trkpt lat="46.87425" lon="8.47187">
        <ele>2140</ele>
        <time>2021-08-11T13:53:37.815Z</time>
      </trkpt>
      <trkpt lat="46.87425" lon="8.47187">
        <ele>2141</ele>
        <time>2021-08-11T13:53:38.815Z</time>
      </trkpt>
      <trkpt lat="46.87424" lon="8.47185">
        <ele>2141</ele>
        <time>2021-08-11T13:53:39.815Z</time>
      </trkpt>
      <trkpt lat="46.87424" lon="8.47185">
        <ele>2142</ele>
        <time>2021-08-11T13:53:40.815Z</time>
      </trkpt>
      <trkpt lat="46.87424" lon="8.47185">
        <ele>2143</ele>
        <time>2021-08-11T13:53:41.815Z</time>
      </trkpt>
      <trkpt lat="46.87424" lon="8.47184">
        <ele>2143</ele>
        <time>2021-08-11T13:53:42.815Z</time>
      </trkpt>
      <trkpt lat="46.87423" lon="8.47184">
        <ele>2144</ele>
        <time>2021-08-11T13:53:43.815Z</time>
      </trkpt>
      <trkpt lat="46.87423" lon="8.47183">
        <ele>2145</ele>
        <time>2021-08-11T13:53:44.815Z</time>
      </trkpt>
      <trkpt lat="46.87423" lon="8.47183">
        <ele>2146</ele>
        <time>2021-08-11T13:53:45.815Z</time>
      </trkpt>
      <trkpt lat="46.87423" lon="8.47183">
        <ele>2146</ele>
        <time>2021-08-11T13:53:46.814Z</time>
      </trkpt>
      <trkpt lat="46.87424" lon="8.47182">
        <ele>2147</ele>
        <time>2021-08-11T13:53:47.815Z</time>
      </trkpt>
      <trkpt lat="46.87424" lon="8.47183">
        <ele>2147</ele>
        <time>2021-08-11T13:53:48.815Z</time>
      </trkpt>
      <trkpt lat="46.87422" lon="8.47182">
        <ele>2150</ele>
        <time>2021-08-11T13:53:49.816Z</time>
      </trkpt>
      <trkpt lat="46.87424" lon="8.47184">
        <ele>2151</ele>
        <time>2021-08-11T13:53:50.816Z</time>
      </trkpt>
      <trkpt lat="46.87424" lon="8.47184">
        <ele>2151</ele>
        <time>2021-08-11T13:53:51.816Z</time>
      </trkpt>
      <trkpt lat="46.87424" lon="8.47182">
        <ele>2152</ele>
        <time>2021-08-11T13:53:52.815Z</time>
      </trkpt>
      <trkpt lat="46.87424" lon="8.47181">
        <ele>2152</ele>
        <time>2021-08-11T13:53:53.815Z</time>
      </trkpt>
      <trkpt lat="46.87424" lon="8.4718">
        <ele>2152</ele>
        <time>2021-08-11T13:53:54.816Z</time>
      </trkpt>
      <trkpt lat="46.87424" lon="8.47178">
        <ele>2153</ele>
        <time>2021-08-11T13:53:55.815Z</time>
      </trkpt>
      <trkpt lat="46.87424" lon="8.47177">
        <ele>2153</ele>
        <time>2021-08-11T13:53:56.815Z</time>
      </trkpt>
      <trkpt lat="46.87423" lon="8.47177">
        <ele>2153</ele>
        <time>2021-08-11T13:53:57.816Z</time>
      </trkpt>
      <trkpt lat="46.87423" lon="8.47176">
        <ele>2155</ele>
        <time>2021-08-11T13:53:58.817Z</time>
      </trkpt>
      <trkpt lat="46.87423" lon="8.47176">
        <ele>2156</ele>
        <time>2021-08-11T13:53:59.817Z</time>
      </trkpt>
      <trkpt lat="46.87422" lon="8.47175">
        <ele>2158</ele>
        <time>2021-08-11T13:54:00.817Z</time>
      </trkpt>
      <trkpt lat="46.87422" lon="8.47175">
        <ele>2158</ele>
        <time>2021-08-11T13:54:01.817Z</time>
      </trkpt>
      <trkpt lat="46.87422" lon="8.47174">
        <ele>2159</ele>
        <time>2021-08-11T13:54:02.816Z</time>
      </trkpt>
      <trkpt lat="46.87422" lon="8.47173">
        <ele>2160</ele>
        <time>2021-08-11T13:54:03.817Z</time>
      </trkpt>
      <trkpt lat="46.87421" lon="8.47172">
        <ele>2160</ele>
        <time>2021-08-11T13:54:04.817Z</time>
      </trkpt>
      <trkpt lat="46.87421" lon="8.47171">
        <ele>2160</ele>
        <time>2021-08-11T13:54:05.816Z</time>
      </trkpt>
      <trkpt lat="46.87421" lon="8.47171">
        <ele>2160</ele>
        <time>2021-08-11T13:54:06.817Z</time>
      </trkpt>
      <trkpt lat="46.87421" lon="8.4717">
        <ele>2160</ele>
        <time>2021-08-11T13:54:07.817Z</time>
      </trkpt>
      <trkpt lat="46.87421" lon="8.4717">
        <ele>2159</ele>
        <time>2021-08-11T13:54:08.816Z</time>
      </trkpt>
      <trkpt lat="46.87421" lon="8.47169">
        <ele>2159</ele>
        <time>2021-08-11T13:54:09.817Z</time>
      </trkpt>
      <trkpt lat="46.87421" lon="8.47169">
        <ele>2159</ele>
        <time>2021-08-11T13:54:10.817Z</time>
      </trkpt>
      <trkpt lat="46.8742" lon="8.47169">
        <ele>2158</ele>
        <time>2021-08-11T13:54:11.816Z</time>
      </trkpt>
      <trkpt lat="46.8742" lon="8.47168">
        <ele>2158</ele>
        <time>2021-08-11T13:54:12.817Z</time>
      </trkpt>
      <trkpt lat="46.8742" lon="8.47168">
        <ele>2157</ele>
        <time>2021-08-11T13:54:13.817Z</time>
      </trkpt>
      <trkpt lat="46.8742" lon="8.47167">
        <ele>2157</ele>
        <time>2021-08-11T13:54:14.816Z</time>
      </trkpt>
      <trkpt lat="46.8742" lon="8.47167">
        <ele>2155</ele>
        <time>2021-08-11T13:54:15.816Z</time>
      </trkpt>
      <trkpt lat="46.8742" lon="8.47167">
        <ele>2155</ele>
        <time>2021-08-11T13:54:16.817Z</time>
      </trkpt>
      <trkpt lat="46.8742" lon="8.47166">
        <ele>2155</ele>
        <time>2021-08-11T13:54:17.816Z</time>
      </trkpt>
      <trkpt lat="46.87419" lon="8.47166">
        <ele>2155</ele>
        <time>2021-08-11T13:54:18.816Z</time>
      </trkpt>
      <trkpt lat="46.87418" lon="8.47165">
        <ele>2155</ele>
        <time>2021-08-11T13:54:19.817Z</time>
      </trkpt>
      <trkpt lat="46.87417" lon="8.47164">
        <ele>2155</ele>
        <time>2021-08-11T13:54:20.817Z</time>
      </trkpt>
      <trkpt lat="46.87416" lon="8.47163">
        <ele>2155</ele>
        <time>2021-08-11T13:54:21.817Z</time>
      </trkpt>
      <trkpt lat="46.87416" lon="8.47162">
        <ele>2155</ele>
        <time>2021-08-11T13:54:22.817Z</time>
      </trkpt>
      <trkpt lat="46.87416" lon="8.47161">
        <ele>2155</ele>
        <time>2021-08-11T13:54:23.817Z</time>
      </trkpt>
      <trkpt lat="46.87416" lon="8.4716">
        <ele>2155</ele>
        <time>2021-08-11T13:54:24.816Z</time>
      </trkpt>
      <trkpt lat="46.87416" lon="8.4716">
        <ele>2155</ele>
        <time>2021-08-11T13:54:25.817Z</time>
      </trkpt>
      <trkpt lat="46.87415" lon="8.47159">
        <ele>2154</ele>
        <time>2021-08-11T13:54:26.817Z</time>
      </trkpt>
      <trkpt lat="46.87415" lon="8.47158">
        <ele>2155</ele>
        <time>2021-08-11T13:54:27.816Z</time>
      </trkpt>
      <trkpt lat="46.87414" lon="8.47157">
        <ele>2155</ele>
        <time>2021-08-11T13:54:28.817Z</time>
      </trkpt>
      <trkpt lat="46.87414" lon="8.47156">
        <ele>2155</ele>
        <time>2021-08-11T13:54:29.817Z</time>
      </trkpt>
      <trkpt lat="46.87414" lon="8.47156">
        <ele>2155</ele>
        <time>2021-08-11T13:54:30.816Z</time>
      </trkpt>
      <trkpt lat="46.87414" lon="8.47156">
        <ele>2155</ele>
        <time>2021-08-11T13:54:31.817Z</time>
      </trkpt>
      <trkpt lat="46.87414" lon="8.47156">
        <ele>2155</ele>
        <time>2021-08-11T13:54:32.816Z</time>
      </trkpt>
      <trkpt lat="46.87414" lon="8.47156">
        <ele>2156</ele>
        <time>2021-08-11T13:54:33.817Z</time>
      </trkpt>
      <trkpt lat="46.87413" lon="8.47155">
        <ele>2156</ele>
        <time>2021-08-11T13:54:34.817Z</time>
      </trkpt>
      <trkpt lat="46.87413" lon="8.47155">
        <ele>2156</ele>
        <time>2021-08-11T13:54:35.816Z</time>
      </trkpt>
      <trkpt lat="46.87413" lon="8.47155">
        <ele>2156</ele>
        <time>2021-08-11T13:54:36.816Z</time>
      </trkpt>
      <trkpt lat="46.87413" lon="8.47154">
        <ele>2156</ele>
        <time>2021-08-11T13:54:37.817Z</time>
      </trkpt>
      <trkpt lat="46.87413" lon="8.47154">
        <ele>2155</ele>
        <time>2021-08-11T13:54:38.817Z</time>
      </trkpt>
      <trkpt lat="46.87413" lon="8.47154">
        <ele>2155</ele>
        <time>2021-08-11T13:54:39.816Z</time>
      </trkpt>
      <trkpt lat="46.87413" lon="8.47153">
        <ele>2155</ele>
        <time>2021-08-11T13:54:40.816Z</time>
      </trkpt>
      <trkpt lat="46.87413" lon="8.47153">
        <ele>2155</ele>
        <time>2021-08-11T13:54:41.817Z</time>
      </trkpt>
      <trkpt lat="46.87412" lon="8.47152">
        <ele>2156</ele>
        <time>2021-08-11T13:54:42.817Z</time>
      </trkpt>
      <trkpt lat="46.87412" lon="8.47152">
        <ele>2156</ele>
        <time>2021-08-11T13:54:43.816Z</time>
      </trkpt>
      <trkpt lat="46.87412" lon="8.47151">
        <ele>2156</ele>
        <time>2021-08-11T13:54:44.816Z</time>
      </trkpt>
      <trkpt lat="46.87412" lon="8.47152">
        <ele>2153</ele>
        <time>2021-08-11T13:54:45.816Z</time>
      </trkpt>
      <trkpt lat="46.87412" lon="8.47152">
        <ele>2153</ele>
        <time>2021-08-11T13:54:46.816Z</time>
      </trkpt>
      <trkpt lat="46.87413" lon="8.4715">
        <ele>2153</ele>
        <time>2021-08-11T13:54:47.817Z</time>
      </trkpt>
      <trkpt lat="46.87413" lon="8.47149">
        <ele>2153</ele>
        <time>2021-08-11T13:54:48.816Z</time>
      </trkpt>
      <trkpt lat="46.87413" lon="8.47149">
        <ele>2153</ele>
        <time>2021-08-11T13:54:49.816Z</time>
      </trkpt>
      <trkpt lat="46.87413" lon="8.47147">
        <ele>2153</ele>
        <time>2021-08-11T13:54:50.817Z</time>
      </trkpt>
      <trkpt lat="46.87413" lon="8.47146">
        <ele>2153</ele>
        <time>2021-08-11T13:54:51.816Z</time>
      </trkpt>
      <trkpt lat="46.87413" lon="8.47145">
        <ele>2153</ele>
        <time>2021-08-11T13:54:52.816Z</time>
      </trkpt>
      <trkpt lat="46.87413" lon="8.47144">
        <ele>2154</ele>
        <time>2021-08-11T13:54:53.817Z</time>
      </trkpt>
      <trkpt lat="46.87413" lon="8.47143">
        <ele>2154</ele>
        <time>2021-08-11T13:54:54.816Z</time>
      </trkpt>
      <trkpt lat="46.87413" lon="8.47141">
        <ele>2155</ele>
        <time>2021-08-11T13:54:55.817Z</time>
      </trkpt>
      <trkpt lat="46.87413" lon="8.4714">
        <ele>2156</ele>
        <time>2021-08-11T13:54:56.817Z</time>
      </trkpt>
      <trkpt lat="46.87413" lon="8.47139">
        <ele>2156</ele>
        <time>2021-08-11T13:54:57.816Z</time>
      </trkpt>
      <trkpt lat="46.87413" lon="8.47137">
        <ele>2157</ele>
        <time>2021-08-11T13:54:58.817Z</time>
      </trkpt>
      <trkpt lat="46.87413" lon="8.47137">
        <ele>2157</ele>
        <time>2021-08-11T13:54:59.817Z</time>
      </trkpt>
      <trkpt lat="46.87412" lon="8.47137">
        <ele>2157</ele>
        <time>2021-08-11T13:55:00.817Z</time>
      </trkpt>
      <trkpt lat="46.87411" lon="8.47137">
        <ele>2157</ele>
        <time>2021-08-11T13:55:01.817Z</time>
      </trkpt>
      <trkpt lat="46.87411" lon="8.47137">
        <ele>2157</ele>
        <time>2021-08-11T13:55:02.817Z</time>
      </trkpt>
      <trkpt lat="46.87411" lon="8.47136">
        <ele>2157</ele>
        <time>2021-08-11T13:55:03.817Z</time>
      </trkpt>
      <trkpt lat="46.87411" lon="8.47135">
        <ele>2157</ele>
        <time>2021-08-11T13:55:04.817Z</time>
      </trkpt>
      <trkpt lat="46.87412" lon="8.47134">
        <ele>2156</ele>
        <time>2021-08-11T13:55:05.817Z</time>
      </trkpt>
      <trkpt lat="46.87412" lon="8.47133">
        <ele>2156</ele>
        <time>2021-08-11T13:55:06.817Z</time>
      </trkpt>
      <trkpt lat="46.87412" lon="8.47132">
        <ele>2156</ele>
        <time>2021-08-11T13:55:07.817Z</time>
      </trkpt>
      <trkpt lat="46.87411" lon="8.47131">
        <ele>2156</ele>
        <time>2021-08-11T13:55:08.817Z</time>
      </trkpt>
      <trkpt lat="46.87411" lon="8.4713">
        <ele>2156</ele>
        <time>2021-08-11T13:55:09.817Z</time>
      </trkpt>
      <trkpt lat="46.8741" lon="8.47129">
        <ele>2157</ele>
        <time>2021-08-11T13:55:10.817Z</time>
      </trkpt>
      <trkpt lat="46.87409" lon="8.4713">
        <ele>2157</ele>
        <time>2021-08-11T13:55:11.817Z</time>
      </trkpt>
      <trkpt lat="46.87408" lon="8.47131">
        <ele>2158</ele>
        <time>2021-08-11T13:55:12.816Z</time>
      </trkpt>
      <trkpt lat="46.87408" lon="8.47131">
        <ele>2158</ele>
        <time>2021-08-11T13:55:13.817Z</time>
      </trkpt>
      <trkpt lat="46.87407" lon="8.47132">
        <ele>2159</ele>
        <time>2021-08-11T13:55:14.817Z</time>
      </trkpt>
      <trkpt lat="46.87407" lon="8.47133">
        <ele>2159</ele>
        <time>2021-08-11T13:55:15.817Z</time>
      </trkpt>
      <trkpt lat="46.87407" lon="8.47133">
        <ele>2159</ele>
        <time>2021-08-11T13:55:16.817Z</time>
      </trkpt>
      <trkpt lat="46.87405" lon="8.47133">
        <ele>2160</ele>
        <time>2021-08-11T13:55:17.817Z</time>
      </trkpt>
      <trkpt lat="46.87405" lon="8.47133">
        <ele>2161</ele>
        <time>2021-08-11T13:55:18.817Z</time>
      </trkpt>
      <trkpt lat="46.87406" lon="8.47133">
        <ele>2161</ele>
        <time>2021-08-11T13:55:19.817Z</time>
      </trkpt>
      <trkpt lat="46.87405" lon="8.47132">
        <ele>2161</ele>
        <time>2021-08-11T13:55:20.818Z</time>
      </trkpt>
      <trkpt lat="46.87405" lon="8.47132">
        <ele>2161</ele>
        <time>2021-08-11T13:55:21.817Z</time>
      </trkpt>
      <trkpt lat="46.87404" lon="8.47132">
        <ele>2162</ele>
        <time>2021-08-11T13:55:22.818Z</time>
      </trkpt>
      <trkpt lat="46.87404" lon="8.47132">
        <ele>2161</ele>
        <time>2021-08-11T13:55:23.818Z</time>
      </trkpt>
      <trkpt lat="46.87404" lon="8.47132">
        <ele>2161</ele>
        <time>2021-08-11T13:55:24.818Z</time>
      </trkpt>
      <trkpt lat="46.87403" lon="8.47132">
        <ele>2159</ele>
        <time>2021-08-11T13:55:25.819Z</time>
      </trkpt>
      <trkpt lat="46.87401" lon="8.47131">
        <ele>2158</ele>
        <time>2021-08-11T13:55:26.820Z</time>
      </trkpt>
      <trkpt lat="46.87401" lon="8.4713">
        <ele>2159</ele>
        <time>2021-08-11T13:55:27.819Z</time>
      </trkpt>
      <trkpt lat="46.87399" lon="8.47127">
        <ele>2162</ele>
        <time>2021-08-11T13:55:28.820Z</time>
      </trkpt>
      <trkpt lat="46.87399" lon="8.47126">
        <ele>2163</ele>
        <time>2021-08-11T13:55:29.819Z</time>
      </trkpt>
      <trkpt lat="46.87399" lon="8.47125">
        <ele>2163</ele>
        <time>2021-08-11T13:55:30.820Z</time>
      </trkpt>
      <trkpt lat="46.87399" lon="8.47125">
        <ele>2164</ele>
        <time>2021-08-11T13:55:31.819Z</time>
      </trkpt>
      <trkpt lat="46.87399" lon="8.47124">
        <ele>2164</ele>
        <time>2021-08-11T13:55:32.819Z</time>
      </trkpt>
      <trkpt lat="46.87399" lon="8.47124">
        <ele>2165</ele>
        <time>2021-08-11T13:55:33.820Z</time>
      </trkpt>
      <trkpt lat="46.874" lon="8.47125">
        <ele>2165</ele>
        <time>2021-08-11T13:55:34.820Z</time>
      </trkpt>
      <trkpt lat="46.874" lon="8.47124">
        <ele>2164</ele>
        <time>2021-08-11T13:55:35.820Z</time>
      </trkpt>
      <trkpt lat="46.874" lon="8.47124">
        <ele>2164</ele>
        <time>2021-08-11T13:55:36.820Z</time>
      </trkpt>
      <trkpt lat="46.87401" lon="8.47123">
        <ele>2164</ele>
        <time>2021-08-11T13:55:38.949Z</time>
      </trkpt>
      <trkpt lat="46.87401" lon="8.47123">
        <ele>2163</ele>
        <time>2021-08-11T13:55:39.948Z</time>
      </trkpt>
      <trkpt lat="46.874" lon="8.47122">
        <ele>2163</ele>
        <time>2021-08-11T13:55:40.949Z</time>
      </trkpt>
      <trkpt lat="46.874" lon="8.47121">
        <ele>2163</ele>
        <time>2021-08-11T13:55:41.949Z</time>
      </trkpt>
      <trkpt lat="46.874" lon="8.4712">
        <ele>2163</ele>
        <time>2021-08-11T13:55:42.948Z</time>
      </trkpt>
      <trkpt lat="46.87399" lon="8.47118">
        <ele>2164</ele>
        <time>2021-08-11T13:55:43.948Z</time>
      </trkpt>
      <trkpt lat="46.87399" lon="8.47118">
        <ele>2164</ele>
        <time>2021-08-11T13:55:44.949Z</time>
      </trkpt>
      <trkpt lat="46.87399" lon="8.47118">
        <ele>2164</ele>
        <time>2021-08-11T13:55:45.948Z</time>
      </trkpt>
      <trkpt lat="46.87399" lon="8.47118">
        <ele>2165</ele>
        <time>2021-08-11T13:55:46.949Z</time>
      </trkpt>
      <trkpt lat="46.87399" lon="8.47117">
        <ele>2165</ele>
        <time>2021-08-11T13:55:47.949Z</time>
      </trkpt>
      <trkpt lat="46.87399" lon="8.47116">
        <ele>2165</ele>
        <time>2021-08-11T13:55:48.949Z</time>
      </trkpt>
      <trkpt lat="46.87398" lon="8.47115">
        <ele>2165</ele>
        <time>2021-08-11T13:55:49.949Z</time>
      </trkpt>
      <trkpt lat="46.87398" lon="8.47115">
        <ele>2165</ele>
        <time>2021-08-11T13:55:50.949Z</time>
      </trkpt>
      <trkpt lat="46.87398" lon="8.47114">
        <ele>2165</ele>
        <time>2021-08-11T13:55:51.948Z</time>
      </trkpt>
      <trkpt lat="46.87397" lon="8.47113">
        <ele>2165</ele>
        <time>2021-08-11T13:55:52.949Z</time>
      </trkpt>
      <trkpt lat="46.87396" lon="8.47111">
        <ele>2166</ele>
        <time>2021-08-11T13:55:53.949Z</time>
      </trkpt>
      <trkpt lat="46.87396" lon="8.4711">
        <ele>2167</ele>
        <time>2021-08-11T13:55:54.948Z</time>
      </trkpt>
      <trkpt lat="46.87396" lon="8.47109">
        <ele>2168</ele>
        <time>2021-08-11T13:55:55.949Z</time>
      </trkpt>
      <trkpt lat="46.87395" lon="8.47109">
        <ele>2169</ele>
        <time>2021-08-11T13:55:56.949Z</time>
      </trkpt>
      <trkpt lat="46.87395" lon="8.47109">
        <ele>2170</ele>
        <time>2021-08-11T13:55:57.948Z</time>
      </trkpt>
      <trkpt lat="46.87395" lon="8.47109">
        <ele>2170</ele>
        <time>2021-08-11T13:55:58.948Z</time>
      </trkpt>
      <trkpt lat="46.87394" lon="8.47109">
        <ele>2170</ele>
        <time>2021-08-11T13:55:59.948Z</time>
      </trkpt>
      <trkpt lat="46.87394" lon="8.47108">
        <ele>2169</ele>
        <time>2021-08-11T13:56:00.949Z</time>
      </trkpt>
      <trkpt lat="46.87394" lon="8.47108">
        <ele>2169</ele>
        <time>2021-08-11T13:56:01.948Z</time>
      </trkpt>
      <trkpt lat="46.87393" lon="8.47107">
        <ele>2169</ele>
        <time>2021-08-11T13:56:02.949Z</time>
      </trkpt>
      <trkpt lat="46.87393" lon="8.47106">
        <ele>2168</ele>
        <time>2021-08-11T13:56:03.949Z</time>
      </trkpt>
      <trkpt lat="46.87393" lon="8.47106">
        <ele>2168</ele>
        <time>2021-08-11T13:56:04.948Z</time>
      </trkpt>
      <trkpt lat="46.87393" lon="8.47106">
        <ele>2168</ele>
        <time>2021-08-11T13:56:05.949Z</time>
      </trkpt>
      <trkpt lat="46.87392" lon="8.47105">
        <ele>2167</ele>
        <time>2021-08-11T13:56:06.949Z</time>
      </trkpt>
      <trkpt lat="46.87392" lon="8.47104">
        <ele>2167</ele>
        <time>2021-08-11T13:56:07.948Z</time>
      </trkpt>
      <trkpt lat="46.87392" lon="8.47104">
        <ele>2166</ele>
        <time>2021-08-11T13:56:08.949Z</time>
      </trkpt>
      <trkpt lat="46.87392" lon="8.47103">
        <ele>2166</ele>
        <time>2021-08-11T13:56:09.949Z</time>
      </trkpt>
      <trkpt lat="46.87392" lon="8.47103">
        <ele>2165</ele>
        <time>2021-08-11T13:56:10.948Z</time>
      </trkpt>
      <trkpt lat="46.87391" lon="8.47102">
        <ele>2164</ele>
        <time>2021-08-11T13:56:11.949Z</time>
      </trkpt>
      <trkpt lat="46.87391" lon="8.47101">
        <ele>2164</ele>
        <time>2021-08-11T13:56:12.949Z</time>
      </trkpt>
      <trkpt lat="46.8739" lon="8.47101">
        <ele>2164</ele>
        <time>2021-08-11T13:56:13.948Z</time>
      </trkpt>
      <trkpt lat="46.8739" lon="8.47101">
        <ele>2164</ele>
        <time>2021-08-11T13:56:14.949Z</time>
      </trkpt>
      <trkpt lat="46.87389" lon="8.47102">
        <ele>2165</ele>
        <time>2021-08-11T13:56:15.949Z</time>
      </trkpt>
      <trkpt lat="46.87389" lon="8.47103">
        <ele>2165</ele>
        <time>2021-08-11T13:56:16.948Z</time>
      </trkpt>
      <trkpt lat="46.87389" lon="8.47103">
        <ele>2166</ele>
        <time>2021-08-11T13:56:17.949Z</time>
      </trkpt>
      <trkpt lat="46.87389" lon="8.47103">
        <ele>2166</ele>
        <time>2021-08-11T13:56:18.949Z</time>
      </trkpt>
      <trkpt lat="46.87388" lon="8.47102">
        <ele>2169</ele>
        <time>2021-08-11T13:56:19.948Z</time>
      </trkpt>
      <trkpt lat="46.87387" lon="8.47102">
        <ele>2170</ele>
        <time>2021-08-11T13:56:20.949Z</time>
      </trkpt>
      <trkpt lat="46.87387" lon="8.47102">
        <ele>2170</ele>
        <time>2021-08-11T13:56:21.949Z</time>
      </trkpt>
      <trkpt lat="46.87387" lon="8.47101">
        <ele>2171</ele>
        <time>2021-08-11T13:56:22.949Z</time>
      </trkpt>
      <trkpt lat="46.87386" lon="8.47101">
        <ele>2172</ele>
        <time>2021-08-11T13:56:23.949Z</time>
      </trkpt>
      <trkpt lat="46.87387" lon="8.47108">
        <ele>2172</ele>
        <time>2021-08-11T13:56:24.949Z</time>
      </trkpt>
      <trkpt lat="46.87386" lon="8.47107">
        <ele>2171</ele>
        <time>2021-08-11T13:56:25.948Z</time>
      </trkpt>
      <trkpt lat="46.87386" lon="8.47106">
        <ele>2170</ele>
        <time>2021-08-11T13:56:26.948Z</time>
      </trkpt>
      <trkpt lat="46.87386" lon="8.47105">
        <ele>2169</ele>
        <time>2021-08-11T13:56:27.949Z</time>
      </trkpt>
      <trkpt lat="46.87386" lon="8.47103">
        <ele>2169</ele>
        <time>2021-08-11T13:56:28.950Z</time>
      </trkpt>
      <trkpt lat="46.87386" lon="8.47103">
        <ele>2169</ele>
        <time>2021-08-11T13:56:29.949Z</time>
      </trkpt>
      <trkpt lat="46.87386" lon="8.47103">
        <ele>2169</ele>
        <time>2021-08-11T13:56:30.949Z</time>
      </trkpt>
      <trkpt lat="46.87387" lon="8.47106">
        <ele>2162</ele>
        <time>2021-08-11T13:56:31.950Z</time>
      </trkpt>
      <trkpt lat="46.87387" lon="8.47105">
        <ele>2162</ele>
        <time>2021-08-11T13:56:32.951Z</time>
      </trkpt>
      <trkpt lat="46.87388" lon="8.47103">
        <ele>2161</ele>
        <time>2021-08-11T13:56:33.951Z</time>
      </trkpt>
      <trkpt lat="46.87389" lon="8.47102">
        <ele>2161</ele>
        <time>2021-08-11T13:56:34.951Z</time>
      </trkpt>
      <trkpt lat="46.8739" lon="8.47102">
        <ele>2160</ele>
        <time>2021-08-11T13:56:35.951Z</time>
      </trkpt>
      <trkpt lat="46.8739" lon="8.47102">
        <ele>2160</ele>
        <time>2021-08-11T13:56:36.951Z</time>
      </trkpt>
      <trkpt lat="46.87389" lon="8.47101">
        <ele>2161</ele>
        <time>2021-08-11T13:56:37.951Z</time>
      </trkpt>
      <trkpt lat="46.87388" lon="8.47101">
        <ele>2161</ele>
        <time>2021-08-11T13:56:38.951Z</time>
      </trkpt>
      <trkpt lat="46.87388" lon="8.47101">
        <ele>2162</ele>
        <time>2021-08-11T13:56:39.950Z</time>
      </trkpt>
      <trkpt lat="46.87388" lon="8.47102">
        <ele>2164</ele>
        <time>2021-08-11T13:56:40.950Z</time>
      </trkpt>
      <trkpt lat="46.87388" lon="8.47103">
        <ele>2166</ele>
        <time>2021-08-11T13:56:41.951Z</time>
      </trkpt>
      <trkpt lat="46.87388" lon="8.47103">
        <ele>2166</ele>
        <time>2021-08-11T13:56:42.950Z</time>
      </trkpt>
      <trkpt lat="46.87388" lon="8.47104">
        <ele>2165</ele>
        <time>2021-08-11T13:56:43.950Z</time>
      </trkpt>
      <trkpt lat="46.87389" lon="8.47105">
        <ele>2171</ele>
        <time>2021-08-11T13:56:44.951Z</time>
      </trkpt>
      <trkpt lat="46.87389" lon="8.47105">
        <ele>2171</ele>
        <time>2021-08-11T13:56:45.951Z</time>
      </trkpt>
      <trkpt lat="46.87389" lon="8.47105">
        <ele>2171</ele>
        <time>2021-08-11T13:56:46.952Z</time>
      </trkpt>
      <trkpt lat="46.8739" lon="8.47105">
        <ele>2171</ele>
        <time>2021-08-11T13:56:47.951Z</time>
      </trkpt>
      <trkpt lat="46.87389" lon="8.47106">
        <ele>2158</ele>
        <time>2021-08-11T13:56:48.952Z</time>
      </trkpt>
      <trkpt lat="46.87389" lon="8.47106">
        <ele>2159</ele>
        <time>2021-08-11T13:56:49.951Z</time>
      </trkpt>
      <trkpt lat="46.87389" lon="8.47106">
        <ele>2159</ele>
        <time>2021-08-11T13:56:50.952Z</time>
      </trkpt>
      <trkpt lat="46.87388" lon="8.47106">
        <ele>2159</ele>
        <time>2021-08-11T13:56:51.951Z</time>
      </trkpt>
      <trkpt lat="46.87388" lon="8.47106">
        <ele>2159</ele>
        <time>2021-08-11T13:56:52.952Z</time>
      </trkpt>
      <trkpt lat="46.87388" lon="8.47105">
        <ele>2161</ele>
        <time>2021-08-11T13:56:53.952Z</time>
      </trkpt>
      <trkpt lat="46.87387" lon="8.47104">
        <ele>2165</ele>
        <time>2021-08-11T13:56:54.953Z</time>
      </trkpt>
      <trkpt lat="46.87387" lon="8.47103">
        <ele>2166</ele>
        <time>2021-08-11T13:56:55.953Z</time>
      </trkpt>
      <trkpt lat="46.87387" lon="8.47102">
        <ele>2166</ele>
        <time>2021-08-11T13:56:56.952Z</time>
      </trkpt>
      <trkpt lat="46.87386" lon="8.47101">
        <ele>2166</ele>
        <time>2021-08-11T13:56:57.953Z</time>
      </trkpt>
      <trkpt lat="46.87386" lon="8.471">
        <ele>2166</ele>
        <time>2021-08-11T13:56:58.953Z</time>
      </trkpt>
      <trkpt lat="46.87386" lon="8.47099">
        <ele>2166</ele>
        <time>2021-08-11T13:56:59.953Z</time>
      </trkpt>
      <trkpt lat="46.87385" lon="8.47098">
        <ele>2166</ele>
        <time>2021-08-11T13:57:00.953Z</time>
      </trkpt>
      <trkpt lat="46.87385" lon="8.47097">
        <ele>2166</ele>
        <time>2021-08-11T13:57:01.953Z</time>
      </trkpt>
      <trkpt lat="46.87384" lon="8.47095">
        <ele>2166</ele>
        <time>2021-08-11T13:57:02.953Z</time>
      </trkpt>
      <trkpt lat="46.87384" lon="8.47094">
        <ele>2166</ele>
        <time>2021-08-11T13:57:03.953Z</time>
      </trkpt>
      <trkpt lat="46.87383" lon="8.47094">
        <ele>2166</ele>
        <time>2021-08-11T13:57:04.953Z</time>
      </trkpt>
      <trkpt lat="46.87382" lon="8.47094">
        <ele>2165</ele>
        <time>2021-08-11T13:57:05.953Z</time>
      </trkpt>
      <trkpt lat="46.87381" lon="8.47094">
        <ele>2165</ele>
        <time>2021-08-11T13:57:06.953Z</time>
      </trkpt>
      <trkpt lat="46.87381" lon="8.47093">
        <ele>2165</ele>
        <time>2021-08-11T13:57:07.952Z</time>
      </trkpt>
      <trkpt lat="46.8738" lon="8.47092">
        <ele>2165</ele>
        <time>2021-08-11T13:57:08.953Z</time>
      </trkpt>
      <trkpt lat="46.87379" lon="8.47092">
        <ele>2164</ele>
        <time>2021-08-11T13:57:09.953Z</time>
      </trkpt>
      <trkpt lat="46.87379" lon="8.47091">
        <ele>2164</ele>
        <time>2021-08-11T13:57:10.953Z</time>
      </trkpt>
      <trkpt lat="46.87378" lon="8.4709">
        <ele>2164</ele>
        <time>2021-08-11T13:57:11.953Z</time>
      </trkpt>
      <trkpt lat="46.87376" lon="8.4709">
        <ele>2164</ele>
        <time>2021-08-11T13:57:12.952Z</time>
      </trkpt>
      <trkpt lat="46.87375" lon="8.4709">
        <ele>2164</ele>
        <time>2021-08-11T13:57:13.953Z</time>
      </trkpt>
      <trkpt lat="46.87374" lon="8.4709">
        <ele>2165</ele>
        <time>2021-08-11T13:57:14.953Z</time>
      </trkpt>
      <trkpt lat="46.87373" lon="8.47091">
        <ele>2166</ele>
        <time>2021-08-11T13:57:15.953Z</time>
      </trkpt>
      <trkpt lat="46.87372" lon="8.47091">
        <ele>2166</ele>
        <time>2021-08-11T13:57:16.953Z</time>
      </trkpt>
      <trkpt lat="46.87372" lon="8.47091">
        <ele>2167</ele>
        <time>2021-08-11T13:57:17.953Z</time>
      </trkpt>
      <trkpt lat="46.87371" lon="8.4709">
        <ele>2167</ele>
        <time>2021-08-11T13:57:18.952Z</time>
      </trkpt>
      <trkpt lat="46.87371" lon="8.4709">
        <ele>2168</ele>
        <time>2021-08-11T13:57:19.953Z</time>
      </trkpt>
      <trkpt lat="46.8737" lon="8.47089">
        <ele>2168</ele>
        <time>2021-08-11T13:57:20.953Z</time>
      </trkpt>
      <trkpt lat="46.8737" lon="8.47088">
        <ele>2169</ele>
        <time>2021-08-11T13:57:21.953Z</time>
      </trkpt>
      <trkpt lat="46.87369" lon="8.47087">
        <ele>2169</ele>
        <time>2021-08-11T13:57:22.953Z</time>
      </trkpt>
      <trkpt lat="46.87368" lon="8.47086">
        <ele>2170</ele>
        <time>2021-08-11T13:57:23.952Z</time>
      </trkpt>
      <trkpt lat="46.87368" lon="8.47086">
        <ele>2170</ele>
        <time>2021-08-11T13:57:24.953Z</time>
      </trkpt>
      <trkpt lat="46.87367" lon="8.47085">
        <ele>2171</ele>
        <time>2021-08-11T13:57:25.953Z</time>
      </trkpt>
      <trkpt lat="46.87367" lon="8.47085">
        <ele>2171</ele>
        <time>2021-08-11T13:57:26.953Z</time>
      </trkpt>
      <trkpt lat="46.87367" lon="8.47084">
        <ele>2171</ele>
        <time>2021-08-11T13:57:27.953Z</time>
      </trkpt>
      <trkpt lat="46.87367" lon="8.47083">
        <ele>2172</ele>
        <time>2021-08-11T13:57:28.952Z</time>
      </trkpt>
      <trkpt lat="46.87367" lon="8.47082">
        <ele>2172</ele>
        <time>2021-08-11T13:57:29.953Z</time>
      </trkpt>
      <trkpt lat="46.87367" lon="8.47081">
        <ele>2172</ele>
        <time>2021-08-11T13:57:30.953Z</time>
      </trkpt>
      <trkpt lat="46.87366" lon="8.47081">
        <ele>2173</ele>
        <time>2021-08-11T13:57:31.952Z</time>
      </trkpt>
      <trkpt lat="46.87366" lon="8.47081">
        <ele>2173</ele>
        <time>2021-08-11T13:57:32.952Z</time>
      </trkpt>
      <trkpt lat="46.87365" lon="8.47081">
        <ele>2173</ele>
        <time>2021-08-11T13:57:33.953Z</time>
      </trkpt>
      <trkpt lat="46.87364" lon="8.47081">
        <ele>2173</ele>
        <time>2021-08-11T13:57:34.953Z</time>
      </trkpt>
      <trkpt lat="46.87364" lon="8.47081">
        <ele>2174</ele>
        <time>2021-08-11T13:57:35.953Z</time>
      </trkpt>
      <trkpt lat="46.87363" lon="8.47081">
        <ele>2175</ele>
        <time>2021-08-11T13:57:36.953Z</time>
      </trkpt>
      <trkpt lat="46.87363" lon="8.4708">
        <ele>2175</ele>
        <time>2021-08-11T13:57:37.952Z</time>
      </trkpt>
      <trkpt lat="46.87363" lon="8.47079">
        <ele>2176</ele>
        <time>2021-08-11T13:57:38.953Z</time>
      </trkpt>
      <trkpt lat="46.87363" lon="8.47078">
        <ele>2177</ele>
        <time>2021-08-11T13:57:39.953Z</time>
      </trkpt>
      <trkpt lat="46.87363" lon="8.47077">
        <ele>2178</ele>
        <time>2021-08-11T13:57:40.953Z</time>
      </trkpt>
      <trkpt lat="46.87363" lon="8.47077">
        <ele>2178</ele>
        <time>2021-08-11T13:57:41.953Z</time>
      </trkpt>
      <trkpt lat="46.87363" lon="8.47076">
        <ele>2179</ele>
        <time>2021-08-11T13:57:42.953Z</time>
      </trkpt>
      <trkpt lat="46.87363" lon="8.47075">
        <ele>2179</ele>
        <time>2021-08-11T13:57:43.953Z</time>
      </trkpt>
      <trkpt lat="46.87363" lon="8.47075">
        <ele>2179</ele>
        <time>2021-08-11T13:57:44.953Z</time>
      </trkpt>
      <trkpt lat="46.87363" lon="8.47074">
        <ele>2178</ele>
        <time>2021-08-11T13:57:45.953Z</time>
      </trkpt>
      <trkpt lat="46.87363" lon="8.47073">
        <ele>2178</ele>
        <time>2021-08-11T13:57:46.952Z</time>
      </trkpt>
      <trkpt lat="46.87363" lon="8.47073">
        <ele>2177</ele>
        <time>2021-08-11T13:57:47.953Z</time>
      </trkpt>
      <trkpt lat="46.87362" lon="8.47072">
        <ele>2176</ele>
        <time>2021-08-11T13:57:48.953Z</time>
      </trkpt>
      <trkpt lat="46.87362" lon="8.47071">
        <ele>2176</ele>
        <time>2021-08-11T13:57:49.953Z</time>
      </trkpt>
      <trkpt lat="46.87361" lon="8.47071">
        <ele>2175</ele>
        <time>2021-08-11T13:57:50.953Z</time>
      </trkpt>
      <trkpt lat="46.87361" lon="8.47071">
        <ele>2175</ele>
        <time>2021-08-11T13:57:51.952Z</time>
      </trkpt>
      <trkpt lat="46.87361" lon="8.4707">
        <ele>2174</ele>
        <time>2021-08-11T13:57:52.952Z</time>
      </trkpt>
      <trkpt lat="46.8736" lon="8.4707">
        <ele>2174</ele>
        <time>2021-08-11T13:57:53.953Z</time>
      </trkpt>
      <trkpt lat="46.8736" lon="8.4707">
        <ele>2175</ele>
        <time>2021-08-11T13:57:54.953Z</time>
      </trkpt>
      <trkpt lat="46.87359" lon="8.4707">
        <ele>2175</ele>
        <time>2021-08-11T13:57:55.953Z</time>
      </trkpt>
      <trkpt lat="46.87359" lon="8.47069">
        <ele>2175</ele>
        <time>2021-08-11T13:57:56.953Z</time>
      </trkpt>
      <trkpt lat="46.87359" lon="8.47069">
        <ele>2176</ele>
        <time>2021-08-11T13:57:57.952Z</time>
      </trkpt>
      <trkpt lat="46.87359" lon="8.47069">
        <ele>2176</ele>
        <time>2021-08-11T13:57:58.953Z</time>
      </trkpt>
      <trkpt lat="46.87358" lon="8.47068">
        <ele>2177</ele>
        <time>2021-08-11T13:57:59.953Z</time>
      </trkpt>
      <trkpt lat="46.87358" lon="8.47068">
        <ele>2178</ele>
        <time>2021-08-11T13:58:00.953Z</time>
      </trkpt>
      <trkpt lat="46.87357" lon="8.47068">
        <ele>2179</ele>
        <time>2021-08-11T13:58:01.953Z</time>
      </trkpt>
      <trkpt lat="46.87357" lon="8.47068">
        <ele>2179</ele>
        <time>2021-08-11T13:58:02.952Z</time>
      </trkpt>
      <trkpt lat="46.87357" lon="8.47068">
        <ele>2180</ele>
        <time>2021-08-11T13:58:03.953Z</time>
      </trkpt>
      <trkpt lat="46.87356" lon="8.47069">
        <ele>2180</ele>
        <time>2021-08-11T13:58:04.953Z</time>
      </trkpt>
      <trkpt lat="46.87356" lon="8.47069">
        <ele>2180</ele>
        <time>2021-08-11T13:58:05.953Z</time>
      </trkpt>
      <trkpt lat="46.87356" lon="8.47069">
        <ele>2180</ele>
        <time>2021-08-11T13:58:06.953Z</time>
      </trkpt>
      <trkpt lat="46.87356" lon="8.4707">
        <ele>2180</ele>
        <time>2021-08-11T13:58:07.952Z</time>
      </trkpt>
      <trkpt lat="46.87356" lon="8.4707">
        <ele>2180</ele>
        <time>2021-08-11T13:58:08.953Z</time>
      </trkpt>
      <trkpt lat="46.87355" lon="8.4707">
        <ele>2180</ele>
        <time>2021-08-11T13:58:09.953Z</time>
      </trkpt>
      <trkpt lat="46.87355" lon="8.4707">
        <ele>2182</ele>
        <time>2021-08-11T13:58:10.954Z</time>
      </trkpt>
      <trkpt lat="46.87354" lon="8.47069">
        <ele>2183</ele>
        <time>2021-08-11T13:58:11.954Z</time>
      </trkpt>
      <trkpt lat="46.87354" lon="8.47069">
        <ele>2183</ele>
        <time>2021-08-11T13:58:12.954Z</time>
      </trkpt>
      <trkpt lat="46.87354" lon="8.47069">
        <ele>2184</ele>
        <time>2021-08-11T13:58:13.954Z</time>
      </trkpt>
      <trkpt lat="46.87354" lon="8.47068">
        <ele>2184</ele>
        <time>2021-08-11T13:58:14.953Z</time>
      </trkpt>
      <trkpt lat="46.87354" lon="8.47068">
        <ele>2184</ele>
        <time>2021-08-11T13:58:15.954Z</time>
      </trkpt>
      <trkpt lat="46.87354" lon="8.47068">
        <ele>2184</ele>
        <time>2021-08-11T13:58:16.954Z</time>
      </trkpt>
      <trkpt lat="46.87355" lon="8.47067">
        <ele>2184</ele>
        <time>2021-08-11T13:58:17.954Z</time>
      </trkpt>
      <trkpt lat="46.87355" lon="8.47066">
        <ele>2183</ele>
        <time>2021-08-11T13:58:18.954Z</time>
      </trkpt>
      <trkpt lat="46.87355" lon="8.47065">
        <ele>2183</ele>
        <time>2021-08-11T13:58:19.954Z</time>
      </trkpt>
      <trkpt lat="46.87355" lon="8.47065">
        <ele>2183</ele>
        <time>2021-08-11T13:58:20.954Z</time>
      </trkpt>
      <trkpt lat="46.87354" lon="8.47064">
        <ele>2183</ele>
        <time>2021-08-11T13:58:21.955Z</time>
      </trkpt>
      <trkpt lat="46.87354" lon="8.47064">
        <ele>2183</ele>
        <time>2021-08-11T13:58:22.955Z</time>
      </trkpt>
      <trkpt lat="46.87353" lon="8.47063">
        <ele>2184</ele>
        <time>2021-08-11T13:58:23.954Z</time>
      </trkpt>
      <trkpt lat="46.87352" lon="8.47063">
        <ele>2184</ele>
        <time>2021-08-11T13:58:24.954Z</time>
      </trkpt>
      <trkpt lat="46.87351" lon="8.47063">
        <ele>2185</ele>
        <time>2021-08-11T13:58:25.955Z</time>
      </trkpt>
      <trkpt lat="46.87351" lon="8.47063">
        <ele>2185</ele>
        <time>2021-08-11T13:58:26.955Z</time>
      </trkpt>
      <trkpt lat="46.87348" lon="8.47059">
        <ele>2184</ele>
        <time>2021-08-11T13:58:28.955Z</time>
      </trkpt>
      <trkpt lat="46.87347" lon="8.47058">
        <ele>2185</ele>
        <time>2021-08-11T13:58:29.955Z</time>
      </trkpt>
      <trkpt lat="46.87347" lon="8.47058">
        <ele>2185</ele>
        <time>2021-08-11T13:58:30.956Z</time>
      </trkpt>
      <trkpt lat="46.87346" lon="8.47058">
        <ele>2185</ele>
        <time>2021-08-11T13:58:31.955Z</time>
      </trkpt>
      <trkpt lat="46.87346" lon="8.47058">
        <ele>2185</ele>
        <time>2021-08-11T13:58:32.955Z</time>
      </trkpt>
      <trkpt lat="46.87345" lon="8.47058">
        <ele>2185</ele>
        <time>2021-08-11T13:58:33.955Z</time>
      </trkpt>
      <trkpt lat="46.87345" lon="8.47058">
        <ele>2185</ele>
        <time>2021-08-11T13:58:34.956Z</time>
      </trkpt>
      <trkpt lat="46.87345" lon="8.47058">
        <ele>2185</ele>
        <time>2021-08-11T13:58:35.955Z</time>
      </trkpt>
      <trkpt lat="46.87344" lon="8.47057">
        <ele>2186</ele>
        <time>2021-08-11T13:58:36.957Z</time>
      </trkpt>
      <trkpt lat="46.87343" lon="8.47057">
        <ele>2186</ele>
        <time>2021-08-11T13:58:37.957Z</time>
      </trkpt>
      <trkpt lat="46.87343" lon="8.47057">
        <ele>2186</ele>
        <time>2021-08-11T13:58:38.956Z</time>
      </trkpt>
      <trkpt lat="46.87343" lon="8.47057">
        <ele>2185</ele>
        <time>2021-08-11T13:58:39.956Z</time>
      </trkpt>
      <trkpt lat="46.87343" lon="8.47057">
        <ele>2185</ele>
        <time>2021-08-11T13:58:40.957Z</time>
      </trkpt>
      <trkpt lat="46.87342" lon="8.47057">
        <ele>2185</ele>
        <time>2021-08-11T13:58:41.957Z</time>
      </trkpt>
      <trkpt lat="46.87341" lon="8.47057">
        <ele>2185</ele>
        <time>2021-08-11T13:58:42.957Z</time>
      </trkpt>
      <trkpt lat="46.87341" lon="8.47057">
        <ele>2185</ele>
        <time>2021-08-11T13:58:43.957Z</time>
      </trkpt>
      <trkpt lat="46.87341" lon="8.47057">
        <ele>2185</ele>
        <time>2021-08-11T13:58:44.957Z</time>
      </trkpt>
      <trkpt lat="46.87341" lon="8.47057">
        <ele>2186</ele>
        <time>2021-08-11T13:58:45.958Z</time>
      </trkpt>
      <trkpt lat="46.87341" lon="8.47056">
        <ele>2186</ele>
        <time>2021-08-11T13:58:46.959Z</time>
      </trkpt>
      <trkpt lat="46.87341" lon="8.47057">
        <ele>2185</ele>
        <time>2021-08-11T13:58:47.958Z</time>
      </trkpt>
      <trkpt lat="46.8734" lon="8.47057">
        <ele>2185</ele>
        <time>2021-08-11T13:58:48.958Z</time>
      </trkpt>
      <trkpt lat="46.8734" lon="8.47057">
        <ele>2185</ele>
        <time>2021-08-11T13:58:49.958Z</time>
      </trkpt>
      <trkpt lat="46.8734" lon="8.47058">
        <ele>2185</ele>
        <time>2021-08-11T13:58:50.959Z</time>
      </trkpt>
      <trkpt lat="46.8734" lon="8.47058">
        <ele>2185</ele>
        <time>2021-08-11T13:58:51.959Z</time>
      </trkpt>
      <trkpt lat="46.87339" lon="8.47058">
        <ele>2189</ele>
        <time>2021-08-11T13:58:52.959Z</time>
      </trkpt>
      <trkpt lat="46.87339" lon="8.47058">
        <ele>2190</ele>
        <time>2021-08-11T13:58:53.960Z</time>
      </trkpt>
      <trkpt lat="46.87339" lon="8.47057">
        <ele>2190</ele>
        <time>2021-08-11T13:58:54.959Z</time>
      </trkpt>
      <trkpt lat="46.87338" lon="8.47057">
        <ele>2190</ele>
        <time>2021-08-11T13:58:55.960Z</time>
      </trkpt>
      <trkpt lat="46.87338" lon="8.47056">
        <ele>2190</ele>
        <time>2021-08-11T13:58:56.960Z</time>
      </trkpt>
      <trkpt lat="46.87339" lon="8.47056">
        <ele>2190</ele>
        <time>2021-08-11T13:58:57.959Z</time>
      </trkpt>
      <trkpt lat="46.87338" lon="8.47055">
        <ele>2190</ele>
        <time>2021-08-11T13:58:58.960Z</time>
      </trkpt>
      <trkpt lat="46.87338" lon="8.47055">
        <ele>2190</ele>
        <time>2021-08-11T13:58:59.960Z</time>
      </trkpt>
      <trkpt lat="46.87338" lon="8.47055">
        <ele>2189</ele>
        <time>2021-08-11T13:59:00.960Z</time>
      </trkpt>
      <trkpt lat="46.87338" lon="8.47053">
        <ele>2189</ele>
        <time>2021-08-11T13:59:01.960Z</time>
      </trkpt>
      <trkpt lat="46.87337" lon="8.47052">
        <ele>2189</ele>
        <time>2021-08-11T13:59:02.959Z</time>
      </trkpt>
      <trkpt lat="46.87337" lon="8.47051">
        <ele>2189</ele>
        <time>2021-08-11T13:59:03.959Z</time>
      </trkpt>
      <trkpt lat="46.87336" lon="8.47052">
        <ele>2189</ele>
        <time>2021-08-11T13:59:04.960Z</time>
      </trkpt>
      <trkpt lat="46.87336" lon="8.47052">
        <ele>2189</ele>
        <time>2021-08-11T13:59:05.960Z</time>
      </trkpt>
      <trkpt lat="46.87336" lon="8.47051">
        <ele>2190</ele>
        <time>2021-08-11T13:59:06.960Z</time>
      </trkpt>
      <trkpt lat="46.87335" lon="8.47051">
        <ele>2191</ele>
        <time>2021-08-11T13:59:07.961Z</time>
      </trkpt>
      <trkpt lat="46.87335" lon="8.47051">
        <ele>2192</ele>
        <time>2021-08-11T13:59:13.980Z</time>
      </trkpt>
      <trkpt lat="46.87335" lon="8.4705">
        <ele>2190</ele>
        <time>2021-08-11T13:59:24.829Z</time>
      </trkpt>
      <trkpt lat="46.87335" lon="8.4705">
        <ele>2191</ele>
        <time>2021-08-11T13:59:25.828Z</time>
      </trkpt>
      <trkpt lat="46.87335" lon="8.4705">
        <ele>2192</ele>
        <time>2021-08-11T13:59:26.828Z</time>
      </trkpt>
      <trkpt lat="46.87334" lon="8.47048">
        <ele>2194</ele>
        <time>2021-08-11T13:59:53.828Z</time>
      </trkpt>
      <trkpt lat="46.87334" lon="8.47047">
        <ele>2195</ele>
        <time>2021-08-11T13:59:54.828Z</time>
      </trkpt>
      <trkpt lat="46.87334" lon="8.47046">
        <ele>2195</ele>
        <time>2021-08-11T13:59:55.828Z</time>
      </trkpt>
      <trkpt lat="46.87334" lon="8.47045">
        <ele>2196</ele>
        <time>2021-08-11T13:59:56.829Z</time>
      </trkpt>
      <trkpt lat="46.87334" lon="8.47045">
        <ele>2196</ele>
        <time>2021-08-11T14:00:11.828Z</time>
      </trkpt>
      <trkpt lat="46.87334" lon="8.47044">
        <ele>2197</ele>
        <time>2021-08-11T14:00:12.828Z</time>
      </trkpt>
      <trkpt lat="46.87334" lon="8.47043">
        <ele>2197</ele>
        <time>2021-08-11T14:00:27.739Z</time>
      </trkpt>
      <trkpt lat="46.87333" lon="8.47041">
        <ele>2198</ele>
        <time>2021-08-11T14:00:28.739Z</time>
      </trkpt>
      <trkpt lat="46.87333" lon="8.4704">
        <ele>2199</ele>
        <time>2021-08-11T14:00:36.578Z</time>
      </trkpt>
      <trkpt lat="46.87333" lon="8.4704">
        <ele>2200</ele>
        <time>2021-08-11T14:00:51.335Z</time>
      </trkpt>
      <trkpt lat="46.87332" lon="8.4704">
        <ele>2201</ele>
        <time>2021-08-11T14:00:52.335Z</time>
      </trkpt>
      <trkpt lat="46.87332" lon="8.47039">
        <ele>2201</ele>
        <time>2021-08-11T14:00:53.335Z</time>
      </trkpt>
      <trkpt lat="46.87331" lon="8.4704">
        <ele>2202</ele>
        <time>2021-08-11T14:00:54.335Z</time>
      </trkpt>
      <trkpt lat="46.87331" lon="8.47039">
        <ele>2202</ele>
        <time>2021-08-11T14:00:55.335Z</time>
      </trkpt>
      <trkpt lat="46.8733" lon="8.47039">
        <ele>2202</ele>
        <time>2021-08-11T14:00:56.334Z</time>
      </trkpt>
      <trkpt lat="46.8733" lon="8.47038">
        <ele>2202</ele>
        <time>2021-08-11T14:00:57.334Z</time>
      </trkpt>
      <trkpt lat="46.8733" lon="8.47038">
        <ele>2203</ele>
        <time>2021-08-11T14:00:58.335Z</time>
      </trkpt>
      <trkpt lat="46.8733" lon="8.47037">
        <ele>2203</ele>
        <time>2021-08-11T14:00:59.335Z</time>
      </trkpt>
      <trkpt lat="46.8733" lon="8.47036">
        <ele>2203</ele>
        <time>2021-08-11T14:01:28.359Z</time>
      </trkpt>
      <trkpt lat="46.87331" lon="8.47036">
        <ele>2203</ele>
        <time>2021-08-11T14:01:29.358Z</time>
      </trkpt>
      <trkpt lat="46.87331" lon="8.47035">
        <ele>2202</ele>
        <time>2021-08-11T14:01:35.224Z</time>
      </trkpt>
      <trkpt lat="46.87331" lon="8.47034">
        <ele>2202</ele>
        <time>2021-08-11T14:01:36.223Z</time>
      </trkpt>
      <trkpt lat="46.87332" lon="8.47034">
        <ele>2202</ele>
        <time>2021-08-11T14:01:42.950Z</time>
      </trkpt>
      <trkpt lat="46.87331" lon="8.47034">
        <ele>2201</ele>
        <time>2021-08-11T14:01:43.951Z</time>
      </trkpt>
      <trkpt lat="46.87332" lon="8.47033">
        <ele>2201</ele>
        <time>2021-08-11T14:01:44.950Z</time>
      </trkpt>
      <trkpt lat="46.87331" lon="8.47033">
        <ele>2201</ele>
        <time>2021-08-11T14:01:52.950Z</time>
      </trkpt>
      <trkpt lat="46.87331" lon="8.47032">
        <ele>2201</ele>
        <time>2021-08-11T14:01:53.950Z</time>
      </trkpt>
      <trkpt lat="46.8733" lon="8.47032">
        <ele>2202</ele>
        <time>2021-08-11T14:01:54.951Z</time>
      </trkpt>
      <trkpt lat="46.8733" lon="8.47031">
        <ele>2202</ele>
        <time>2021-08-11T14:01:55.950Z</time>
      </trkpt>
      <trkpt lat="46.87329" lon="8.47031">
        <ele>2202</ele>
        <time>2021-08-11T14:01:56.950Z</time>
      </trkpt>
      <trkpt lat="46.87328" lon="8.4703">
        <ele>2202</ele>
        <time>2021-08-11T14:01:57.950Z</time>
      </trkpt>
      <trkpt lat="46.87328" lon="8.4703">
        <ele>2202</ele>
        <time>2021-08-11T14:01:58.950Z</time>
      </trkpt>
      <trkpt lat="46.87327" lon="8.4703">
        <ele>2201</ele>
        <time>2021-08-11T14:01:59.950Z</time>
      </trkpt>
      <trkpt lat="46.87327" lon="8.4703">
        <ele>2202</ele>
        <time>2021-08-11T14:02:00.950Z</time>
      </trkpt>
      <trkpt lat="46.87327" lon="8.4703">
        <ele>2202</ele>
        <time>2021-08-11T14:02:03.071Z</time>
      </trkpt>
      <trkpt lat="46.87326" lon="8.4703">
        <ele>2202</ele>
        <time>2021-08-11T14:02:04.071Z</time>
      </trkpt>
      <trkpt lat="46.87326" lon="8.4703">
        <ele>2203</ele>
        <time>2021-08-11T14:02:05.849Z</time>
      </trkpt>
      <trkpt lat="46.87326" lon="8.47028">
        <ele>2205</ele>
        <time>2021-08-11T14:02:08.596Z</time>
      </trkpt>
      <trkpt lat="46.87326" lon="8.47028">
        <ele>2205</ele>
        <time>2021-08-11T14:02:09.596Z</time>
      </trkpt>
      <trkpt lat="46.87326" lon="8.47028">
        <ele>2205</ele>
        <time>2021-08-11T14:02:10.595Z</time>
      </trkpt>
      <trkpt lat="46.87325" lon="8.47027">
        <ele>2204</ele>
        <time>2021-08-11T14:02:15.743Z</time>
      </trkpt>
      <trkpt lat="46.87325" lon="8.47027">
        <ele>2203</ele>
        <time>2021-08-11T14:02:16.743Z</time>
      </trkpt>
      <trkpt lat="46.87324" lon="8.47026">
        <ele>2202</ele>
        <time>2021-08-11T14:02:31.574Z</time>
      </trkpt>
      <trkpt lat="46.87324" lon="8.47026">
        <ele>2202</ele>
        <time>2021-08-11T14:02:34.449Z</time>
      </trkpt>
      <trkpt lat="46.87324" lon="8.47025">
        <ele>2202</ele>
        <time>2021-08-11T14:02:35.449Z</time>
      </trkpt>
      <trkpt lat="46.87324" lon="8.47024">
        <ele>2202</ele>
        <time>2021-08-11T14:02:36.449Z</time>
      </trkpt>
      <trkpt lat="46.87323" lon="8.47024">
        <ele>2202</ele>
        <time>2021-08-11T14:02:37.448Z</time>
      </trkpt>
      <trkpt lat="46.87323" lon="8.47024">
        <ele>2202</ele>
        <time>2021-08-11T14:02:44.479Z</time>
      </trkpt>
      <trkpt lat="46.87323" lon="8.47023">
        <ele>2203</ele>
        <time>2021-08-11T14:02:45.480Z</time>
      </trkpt>
      <trkpt lat="46.87322" lon="8.47023">
        <ele>2204</ele>
        <time>2021-08-11T14:02:46.479Z</time>
      </trkpt>
      <trkpt lat="46.87322" lon="8.47023">
        <ele>2205</ele>
        <time>2021-08-11T14:02:47.480Z</time>
      </trkpt>
      <trkpt lat="46.87322" lon="8.47023">
        <ele>2204</ele>
        <time>2021-08-11T14:02:48.479Z</time>
      </trkpt>
      <trkpt lat="46.87321" lon="8.47023">
        <ele>2204</ele>
        <time>2021-08-11T14:02:49.479Z</time>
      </trkpt>
      <trkpt lat="46.87322" lon="8.47024">
        <ele>2201</ele>
        <time>2021-08-11T14:02:50.482Z</time>
      </trkpt>
      <trkpt lat="46.87321" lon="8.47024">
        <ele>2201</ele>
        <time>2021-08-11T14:02:51.481Z</time>
      </trkpt>
      <trkpt lat="46.87322" lon="8.47023">
        <ele>2201</ele>
        <time>2021-08-11T14:02:52.481Z</time>
      </trkpt>
      <trkpt lat="46.87322" lon="8.47023">
        <ele>2201</ele>
        <time>2021-08-11T14:02:55.452Z</time>
      </trkpt>
      <trkpt lat="46.87321" lon="8.47023">
        <ele>2201</ele>
        <time>2021-08-11T14:03:00.216Z</time>
      </trkpt>
      <trkpt lat="46.87321" lon="8.47022">
        <ele>2202</ele>
        <time>2021-08-11T14:03:01.217Z</time>
      </trkpt>
      <trkpt lat="46.87321" lon="8.4702">
        <ele>2205</ele>
        <time>2021-08-11T14:03:02.217Z</time>
      </trkpt>
      <trkpt lat="46.87321" lon="8.47019">
        <ele>2205</ele>
        <time>2021-08-11T14:03:03.217Z</time>
      </trkpt>
      <trkpt lat="46.87321" lon="8.47018">
        <ele>2206</ele>
        <time>2021-08-11T14:03:17.213Z</time>
      </trkpt>
      <trkpt lat="46.87321" lon="8.47018">
        <ele>2207</ele>
        <time>2021-08-11T14:03:18.214Z</time>
      </trkpt>
      <trkpt lat="46.8732" lon="8.47017">
        <ele>2207</ele>
        <time>2021-08-11T14:03:19.214Z</time>
      </trkpt>
      <trkpt lat="46.8732" lon="8.47017">
        <ele>2207</ele>
        <time>2021-08-11T14:03:20.214Z</time>
      </trkpt>
      <trkpt lat="46.87319" lon="8.47016">
        <ele>2206</ele>
        <time>2021-08-11T14:03:21.213Z</time>
      </trkpt>
      <trkpt lat="46.87319" lon="8.47016">
        <ele>2206</ele>
        <time>2021-08-11T14:03:25.346Z</time>
      </trkpt>
      <trkpt lat="46.87318" lon="8.47016">
        <ele>2206</ele>
        <time>2021-08-11T14:03:35.227Z</time>
      </trkpt>
      <trkpt lat="46.87318" lon="8.47016">
        <ele>2207</ele>
        <time>2021-08-11T14:03:36.226Z</time>
      </trkpt>
      <trkpt lat="46.87317" lon="8.47015">
        <ele>2206</ele>
        <time>2021-08-11T14:03:37.227Z</time>
      </trkpt>
      <trkpt lat="46.87317" lon="8.47015">
        <ele>2206</ele>
        <time>2021-08-11T14:03:43.070Z</time>
      </trkpt>
      <trkpt lat="46.87316" lon="8.47014">
        <ele>2206</ele>
        <time>2021-08-11T14:03:55.843Z</time>
      </trkpt>
      <trkpt lat="46.87317" lon="8.47014">
        <ele>2206</ele>
        <time>2021-08-11T14:03:56.842Z</time>
      </trkpt>
      <trkpt lat="46.87317" lon="8.47013">
        <ele>2206</ele>
        <time>2021-08-11T14:03:57.842Z</time>
      </trkpt>
      <trkpt lat="46.87317" lon="8.47013">
        <ele>2206</ele>
        <time>2021-08-11T14:04:03.965Z</time>
      </trkpt>
      <trkpt lat="46.87317" lon="8.47013">
        <ele>2206</ele>
        <time>2021-08-11T14:04:04.966Z</time>
      </trkpt>
      <trkpt lat="46.87316" lon="8.47013">
        <ele>2207</ele>
        <time>2021-08-11T14:04:05.966Z</time>
      </trkpt>
      <trkpt lat="46.87316" lon="8.47012">
        <ele>2207</ele>
        <time>2021-08-11T14:04:06.966Z</time>
      </trkpt>
      <trkpt lat="46.87313" lon="8.47014">
        <ele>2214</ele>
        <time>2021-08-11T14:04:07.968Z</time>
      </trkpt>
      <trkpt lat="46.87312" lon="8.47012">
        <ele>2214</ele>
        <time>2021-08-11T14:04:08.967Z</time>
      </trkpt>
      <trkpt lat="46.87312" lon="8.47011">
        <ele>2214</ele>
        <time>2021-08-11T14:04:16.098Z</time>
      </trkpt>
      <trkpt lat="46.87313" lon="8.47011">
        <ele>2210</ele>
        <time>2021-08-11T14:04:17.099Z</time>
      </trkpt>
      <trkpt lat="46.87313" lon="8.47011">
        <ele>2211</ele>
        <time>2021-08-11T14:04:18.099Z</time>
      </trkpt>
      <trkpt lat="46.87313" lon="8.47011">
        <ele>2211</ele>
        <time>2021-08-11T14:04:33.071Z</time>
      </trkpt>
      <trkpt lat="46.87313" lon="8.4701">
        <ele>2211</ele>
        <time>2021-08-11T14:04:34.072Z</time>
      </trkpt>
      <trkpt lat="46.87313" lon="8.4701">
        <ele>2211</ele>
        <time>2021-08-11T14:04:35.071Z</time>
      </trkpt>
      <trkpt lat="46.87314" lon="8.4701">
        <ele>2211</ele>
        <time>2021-08-11T14:04:36.072Z</time>
      </trkpt>
      <trkpt lat="46.87309" lon="8.47014">
        <ele>2224</ele>
        <time>2021-08-11T14:04:36.948Z</time>
      </trkpt>
      <trkpt lat="46.87309" lon="8.47014">
        <ele>2225</ele>
        <time>2021-08-11T14:04:37.948Z</time>
      </trkpt>
      <trkpt lat="46.87308" lon="8.47014">
        <ele>2226</ele>
        <time>2021-08-11T14:04:50.067Z</time>
      </trkpt>
      <trkpt lat="46.87308" lon="8.47014">
        <ele>2227</ele>
        <time>2021-08-11T14:04:50.943Z</time>
      </trkpt>
      <trkpt lat="46.87309" lon="8.47014">
        <ele>2227</ele>
        <time>2021-08-11T14:04:59.194Z</time>
      </trkpt>
      <trkpt lat="46.87309" lon="8.47015">
        <ele>2227</ele>
        <time>2021-08-11T14:05:00.069Z</time>
      </trkpt>
      <trkpt lat="46.87309" lon="8.47015">
        <ele>2227</ele>
        <time>2021-08-11T14:05:01.069Z</time>
      </trkpt>
      <trkpt lat="46.87312" lon="8.47013">
        <ele>2220</ele>
        <time>2021-08-11T14:05:02.954Z</time>
      </trkpt>
      <trkpt lat="46.87312" lon="8.47012">
        <ele>2219</ele>
        <time>2021-08-11T14:05:39.762Z</time>
      </trkpt>
      <trkpt lat="46.87315" lon="8.47016">
        <ele>2213</ele>
        <time>2021-08-11T14:05:40.762Z</time>
      </trkpt>
      <trkpt lat="46.87315" lon="8.47016">
        <ele>2212</ele>
        <time>2021-08-11T14:05:41.762Z</time>
      </trkpt>
      <trkpt lat="46.87314" lon="8.47013">
        <ele>2210</ele>
        <time>2021-08-11T14:05:42.762Z</time>
      </trkpt>
      <trkpt lat="46.87314" lon="8.47013">
        <ele>2210</ele>
        <time>2021-08-11T14:05:49.845Z</time>
      </trkpt>
      <trkpt lat="46.87315" lon="8.47013">
        <ele>2209</ele>
        <time>2021-08-11T14:05:50.844Z</time>
      </trkpt>
      <trkpt lat="46.87315" lon="8.47015">
        <ele>2208</ele>
        <time>2021-08-11T14:05:57.718Z</time>
      </trkpt>
      <trkpt lat="46.87314" lon="8.47014">
        <ele>2208</ele>
        <time>2021-08-11T14:05:58.717Z</time>
      </trkpt>
      <trkpt lat="46.87314" lon="8.47014">
        <ele>2208</ele>
        <time>2021-08-11T14:05:59.717Z</time>
      </trkpt>
      <trkpt lat="46.87314" lon="8.47013">
        <ele>2208</ele>
        <time>2021-08-11T14:06:10.840Z</time>
      </trkpt>
      <trkpt lat="46.87312" lon="8.47012">
        <ele>2209</ele>
        <time>2021-08-11T14:06:11.841Z</time>
      </trkpt>
      <trkpt lat="46.87312" lon="8.47011">
        <ele>2209</ele>
        <time>2021-08-11T14:06:12.841Z</time>
      </trkpt>
      <trkpt lat="46.87312" lon="8.47011">
        <ele>2209</ele>
        <time>2021-08-11T14:06:14.929Z</time>
      </trkpt>
      <trkpt lat="46.87312" lon="8.4701">
        <ele>2209</ele>
        <time>2021-08-11T14:06:15.930Z</time>
      </trkpt>
      <trkpt lat="46.87312" lon="8.47009">
        <ele>2210</ele>
        <time>2021-08-11T14:06:16.929Z</time>
      </trkpt>
      <trkpt lat="46.87311" lon="8.47009">
        <ele>2210</ele>
        <time>2021-08-11T14:06:17.930Z</time>
      </trkpt>
      <trkpt lat="46.87311" lon="8.47008">
        <ele>2210</ele>
        <time>2021-08-11T14:06:40.943Z</time>
      </trkpt>
      <trkpt lat="46.87312" lon="8.47007">
        <ele>2214</ele>
        <time>2021-08-11T14:06:59.716Z</time>
      </trkpt>
      <trkpt lat="46.87312" lon="8.47007">
        <ele>2214</ele>
        <time>2021-08-11T14:07:00.715Z</time>
      </trkpt>
      <trkpt lat="46.87312" lon="8.47007">
        <ele>2214</ele>
        <time>2021-08-11T14:07:01.715Z</time>
      </trkpt>
      <trkpt lat="46.8731" lon="8.47006">
        <ele>2213</ele>
        <time>2021-08-11T14:07:02.717Z</time>
      </trkpt>
      <trkpt lat="46.8731" lon="8.47005">
        <ele>2213</ele>
        <time>2021-08-11T14:07:03.716Z</time>
      </trkpt>
      <trkpt lat="46.87305" lon="8.47007">
        <ele>2217</ele>
        <time>2021-08-11T14:07:04.717Z</time>
      </trkpt>
      <trkpt lat="46.87305" lon="8.47007">
        <ele>2217</ele>
        <time>2021-08-11T14:07:05.717Z</time>
      </trkpt>
      <trkpt lat="46.87305" lon="8.47006">
        <ele>2218</ele>
        <time>2021-08-11T14:07:06.716Z</time>
      </trkpt>
      <trkpt lat="46.87305" lon="8.47006">
        <ele>2215</ele>
        <time>2021-08-11T14:07:07.716Z</time>
      </trkpt>
      <trkpt lat="46.87305" lon="8.47007">
        <ele>2214</ele>
        <time>2021-08-11T14:07:08.716Z</time>
      </trkpt>
      <trkpt lat="46.87305" lon="8.47007">
        <ele>2214</ele>
        <time>2021-08-11T14:07:09.716Z</time>
      </trkpt>
      <trkpt lat="46.87306" lon="8.47008">
        <ele>2210</ele>
        <time>2021-08-11T14:07:10.718Z</time>
      </trkpt>
      <trkpt lat="46.87306" lon="8.47009">
        <ele>2210</ele>
        <time>2021-08-11T14:07:18.840Z</time>
      </trkpt>
      <trkpt lat="46.87305" lon="8.47007">
        <ele>2207</ele>
        <time>2021-08-11T14:07:24.570Z</time>
      </trkpt>
      <trkpt lat="46.87306" lon="8.47008">
        <ele>2205</ele>
        <time>2021-08-11T14:07:51.340Z</time>
      </trkpt>
      <trkpt lat="46.87306" lon="8.47008">
        <ele>2205</ele>
        <time>2021-08-11T14:07:52.340Z</time>
      </trkpt>
      <trkpt lat="46.87306" lon="8.47008">
        <ele>2206</ele>
        <time>2021-08-11T14:07:58.070Z</time>
      </trkpt>
      <trkpt lat="46.87306" lon="8.47008">
        <ele>2206</ele>
        <time>2021-08-11T14:07:59.071Z</time>
      </trkpt>
      <trkpt lat="46.87306" lon="8.47008">
        <ele>2207</ele>
        <time>2021-08-11T14:08:00.071Z</time>
      </trkpt>
      <trkpt lat="46.87305" lon="8.47008">
        <ele>2208</ele>
        <time>2021-08-11T14:08:01.070Z</time>
      </trkpt>
      <trkpt lat="46.87304" lon="8.47008">
        <ele>2215</ele>
        <time>2021-08-11T14:08:16.070Z</time>
      </trkpt>
      <trkpt lat="46.87304" lon="8.47008">
        <ele>2215</ele>
        <time>2021-08-11T14:08:17.070Z</time>
      </trkpt>
      <trkpt lat="46.87304" lon="8.47005">
        <ele>2224</ele>
        <time>2021-08-11T14:08:27.817Z</time>
      </trkpt>
      <trkpt lat="46.87304" lon="8.47005">
        <ele>2224</ele>
        <time>2021-08-11T14:08:28.818Z</time>
      </trkpt>
      <trkpt lat="46.87304" lon="8.47005">
        <ele>2224</ele>
        <time>2021-08-11T14:08:29.817Z</time>
      </trkpt>
      <trkpt lat="46.87303" lon="8.47004">
        <ele>2224</ele>
        <time>2021-08-11T14:08:39.821Z</time>
      </trkpt>
      <trkpt lat="46.87303" lon="8.47003">
        <ele>2224</ele>
        <time>2021-08-11T14:08:40.821Z</time>
      </trkpt>
      <trkpt lat="46.87303" lon="8.47002">
        <ele>2223</ele>
        <time>2021-08-11T14:08:41.820Z</time>
      </trkpt>
      <trkpt lat="46.87302" lon="8.47002">
        <ele>2223</ele>
        <time>2021-08-11T14:08:42.821Z</time>
      </trkpt>
      <trkpt lat="46.87301" lon="8.47001">
        <ele>2223</ele>
        <time>2021-08-11T14:08:43.820Z</time>
      </trkpt>
      <trkpt lat="46.87301" lon="8.47">
        <ele>2223</ele>
        <time>2021-08-11T14:08:49.841Z</time>
      </trkpt>
      <trkpt lat="46.87301" lon="8.46999">
        <ele>2223</ele>
        <time>2021-08-11T14:08:50.842Z</time>
      </trkpt>
      <trkpt lat="46.87302" lon="8.46999">
        <ele>2223</ele>
        <time>2021-08-11T14:08:51.842Z</time>
      </trkpt>
      <trkpt lat="46.87302" lon="8.46998">
        <ele>2223</ele>
        <time>2021-08-11T14:08:52.841Z</time>
      </trkpt>
      <trkpt lat="46.87301" lon="8.46997">
        <ele>2222</ele>
        <time>2021-08-11T14:08:53.841Z</time>
      </trkpt>
      <trkpt lat="46.87301" lon="8.46997">
        <ele>2222</ele>
        <time>2021-08-11T14:08:54.842Z</time>
      </trkpt>
      <trkpt lat="46.87301" lon="8.46995">
        <ele>2221</ele>
        <time>2021-08-11T14:09:12.947Z</time>
      </trkpt>
      <trkpt lat="46.87301" lon="8.46994">
        <ele>2221</ele>
        <time>2021-08-11T14:09:13.947Z</time>
      </trkpt>
      <trkpt lat="46.87301" lon="8.46994">
        <ele>2221</ele>
        <time>2021-08-11T14:09:14.947Z</time>
      </trkpt>
      <trkpt lat="46.873" lon="8.46993">
        <ele>2221</ele>
        <time>2021-08-11T14:09:15.947Z</time>
      </trkpt>
      <trkpt lat="46.873" lon="8.46994">
        <ele>2221</ele>
        <time>2021-08-11T14:09:16.947Z</time>
      </trkpt>
      <trkpt lat="46.873" lon="8.46994">
        <ele>2222</ele>
        <time>2021-08-11T14:09:17.947Z</time>
      </trkpt>
      <trkpt lat="46.87299" lon="8.46993">
        <ele>2225</ele>
        <time>2021-08-11T14:09:28.945Z</time>
      </trkpt>
      <trkpt lat="46.87299" lon="8.46993">
        <ele>2225</ele>
        <time>2021-08-11T14:09:34.720Z</time>
      </trkpt>
      <trkpt lat="46.87298" lon="8.46993">
        <ele>2225</ele>
        <time>2021-08-11T14:09:35.719Z</time>
      </trkpt>
      <trkpt lat="46.87297" lon="8.46993">
        <ele>2225</ele>
        <time>2021-08-11T14:09:36.722Z</time>
      </trkpt>
      <trkpt lat="46.87297" lon="8.46993">
        <ele>2225</ele>
        <time>2021-08-11T14:09:49.820Z</time>
      </trkpt>
      <trkpt lat="46.87297" lon="8.46993">
        <ele>2226</ele>
        <time>2021-08-11T14:09:50.820Z</time>
      </trkpt>
      <trkpt lat="46.87297" lon="8.46992">
        <ele>2227</ele>
        <time>2021-08-11T14:09:51.821Z</time>
      </trkpt>
      <trkpt lat="46.87297" lon="8.46991">
        <ele>2227</ele>
        <time>2021-08-11T14:10:31.828Z</time>
      </trkpt>
      <trkpt lat="46.87297" lon="8.46991">
        <ele>2228</ele>
        <time>2021-08-11T14:10:32.828Z</time>
      </trkpt>
      <trkpt lat="46.87296" lon="8.4699">
        <ele>2228</ele>
        <time>2021-08-11T14:10:33.828Z</time>
      </trkpt>
      <trkpt lat="46.87296" lon="8.4699">
        <ele>2228</ele>
        <time>2021-08-11T14:10:34.828Z</time>
      </trkpt>
      <trkpt lat="46.87296" lon="8.46989">
        <ele>2228</ele>
        <time>2021-08-11T14:10:35.828Z</time>
      </trkpt>
      <trkpt lat="46.87296" lon="8.46988">
        <ele>2228</ele>
        <time>2021-08-11T14:10:36.828Z</time>
      </trkpt>
      <trkpt lat="46.87296" lon="8.46986">
        <ele>2229</ele>
        <time>2021-08-11T14:10:45.968Z</time>
      </trkpt>
      <trkpt lat="46.87295" lon="8.46985">
        <ele>2229</ele>
        <time>2021-08-11T14:10:46.968Z</time>
      </trkpt>
      <trkpt lat="46.87295" lon="8.46985">
        <ele>2229</ele>
        <time>2021-08-11T14:10:47.968Z</time>
      </trkpt>
      <trkpt lat="46.87294" lon="8.46986">
        <ele>2229</ele>
        <time>2021-08-11T14:10:48.968Z</time>
      </trkpt>
      <trkpt lat="46.87293" lon="8.46986">
        <ele>2228</ele>
        <time>2021-08-11T14:10:49.968Z</time>
      </trkpt>
      <trkpt lat="46.87293" lon="8.46986">
        <ele>2228</ele>
        <time>2021-08-11T14:10:55.970Z</time>
      </trkpt>
      <trkpt lat="46.87292" lon="8.46987">
        <ele>2227</ele>
        <time>2021-08-11T14:10:56.970Z</time>
      </trkpt>
      <trkpt lat="46.87292" lon="8.46987">
        <ele>2227</ele>
        <time>2021-08-11T14:10:57.971Z</time>
      </trkpt>
      <trkpt lat="46.87291" lon="8.46987">
        <ele>2227</ele>
        <time>2021-08-11T14:10:58.970Z</time>
      </trkpt>
      <trkpt lat="46.8729" lon="8.46988">
        <ele>2227</ele>
        <time>2021-08-11T14:11:04.071Z</time>
      </trkpt>
      <trkpt lat="46.8729" lon="8.46988">
        <ele>2227</ele>
        <time>2021-08-11T14:11:07.850Z</time>
      </trkpt>
      <trkpt lat="46.8729" lon="8.46987">
        <ele>2227</ele>
        <time>2021-08-11T14:11:12.702Z</time>
      </trkpt>
      <trkpt lat="46.87291" lon="8.46987">
        <ele>2228</ele>
        <time>2021-08-11T14:11:13.702Z</time>
      </trkpt>
      <trkpt lat="46.87291" lon="8.46986">
        <ele>2228</ele>
        <time>2021-08-11T14:11:14.703Z</time>
      </trkpt>
      <trkpt lat="46.87291" lon="8.46987">
        <ele>2230</ele>
        <time>2021-08-11T14:11:15.705Z</time>
      </trkpt>
      <trkpt lat="46.87291" lon="8.46986">
        <ele>2230</ele>
        <time>2021-08-11T14:11:24.828Z</time>
      </trkpt>
      <trkpt lat="46.87292" lon="8.46986">
        <ele>2230</ele>
        <time>2021-08-11T14:11:25.828Z</time>
      </trkpt>
      <trkpt lat="46.87291" lon="8.46986">
        <ele>2230</ele>
        <time>2021-08-11T14:11:33.702Z</time>
      </trkpt>
      <trkpt lat="46.87291" lon="8.46985">
        <ele>2230</ele>
        <time>2021-08-11T14:11:34.702Z</time>
      </trkpt>
      <trkpt lat="46.87291" lon="8.46985">
        <ele>2230</ele>
        <time>2021-08-11T14:11:37.557Z</time>
      </trkpt>
      <trkpt lat="46.87291" lon="8.46985">
        <ele>2231</ele>
        <time>2021-08-11T14:11:38.558Z</time>
      </trkpt>
      <trkpt lat="46.8729" lon="8.46985">
        <ele>2231</ele>
        <time>2021-08-11T14:11:39.558Z</time>
      </trkpt>
      <trkpt lat="46.8729" lon="8.46986">
        <ele>2231</ele>
        <time>2021-08-11T14:11:42.582Z</time>
      </trkpt>
      <trkpt lat="46.8729" lon="8.46987">
        <ele>2230</ele>
        <time>2021-08-11T14:11:43.582Z</time>
      </trkpt>
      <trkpt lat="46.87289" lon="8.46987">
        <ele>2230</ele>
        <time>2021-08-11T14:11:44.581Z</time>
      </trkpt>
      <trkpt lat="46.87288" lon="8.46987">
        <ele>2230</ele>
        <time>2021-08-11T14:11:56.596Z</time>
      </trkpt>
      <trkpt lat="46.87288" lon="8.46988">
        <ele>2230</ele>
        <time>2021-08-11T14:11:57.596Z</time>
      </trkpt>
      <trkpt lat="46.87287" lon="8.4699">
        <ele>2220</ele>
        <time>2021-08-11T14:11:58.595Z</time>
      </trkpt>
      <trkpt lat="46.87287" lon="8.46991">
        <ele>2219</ele>
        <time>2021-08-11T14:11:59.596Z</time>
      </trkpt>
      <trkpt lat="46.87287" lon="8.46991">
        <ele>2218</ele>
        <time>2021-08-11T14:12:00.595Z</time>
      </trkpt>
      <trkpt lat="46.87287" lon="8.46992">
        <ele>2217</ele>
        <time>2021-08-11T14:12:01.596Z</time>
      </trkpt>
      <trkpt lat="46.87286" lon="8.46991">
        <ele>2218</ele>
        <time>2021-08-11T14:12:02.597Z</time>
      </trkpt>
      <trkpt lat="46.87285" lon="8.46989">
        <ele>2222</ele>
        <time>2021-08-11T14:12:03.598Z</time>
      </trkpt>
      <trkpt lat="46.87285" lon="8.46988">
        <ele>2223</ele>
        <time>2021-08-11T14:12:04.598Z</time>
      </trkpt>
      <trkpt lat="46.87285" lon="8.46987">
        <ele>2224</ele>
        <time>2021-08-11T14:12:05.597Z</time>
      </trkpt>
      <trkpt lat="46.87285" lon="8.46987">
        <ele>2225</ele>
        <time>2021-08-11T14:12:06.597Z</time>
      </trkpt>
      <trkpt lat="46.87285" lon="8.46986">
        <ele>2226</ele>
        <time>2021-08-11T14:12:07.598Z</time>
      </trkpt>
      <trkpt lat="46.87285" lon="8.46985">
        <ele>2226</ele>
        <time>2021-08-11T14:12:08.597Z</time>
      </trkpt>
      <trkpt lat="46.87284" lon="8.46984">
        <ele>2227</ele>
        <time>2021-08-11T14:12:12.722Z</time>
      </trkpt>
      <trkpt lat="46.87284" lon="8.46983">
        <ele>2228</ele>
        <time>2021-08-11T14:12:21.578Z</time>
      </trkpt>
      <trkpt lat="46.87283" lon="8.46983">
        <ele>2229</ele>
        <time>2021-08-11T14:12:22.578Z</time>
      </trkpt>
      <trkpt lat="46.87283" lon="8.46983">
        <ele>2230</ele>
        <time>2021-08-11T14:12:23.577Z</time>
      </trkpt>
      <trkpt lat="46.87283" lon="8.46982">
        <ele>2231</ele>
        <time>2021-08-11T14:12:24.577Z</time>
      </trkpt>
      <trkpt lat="46.87283" lon="8.46982">
        <ele>2231</ele>
        <time>2021-08-11T14:12:25.577Z</time>
      </trkpt>
      <trkpt lat="46.87283" lon="8.46981">
        <ele>2232</ele>
        <time>2021-08-11T14:12:29.577Z</time>
      </trkpt>
      <trkpt lat="46.87283" lon="8.46981">
        <ele>2233</ele>
        <time>2021-08-11T14:12:53.326Z</time>
      </trkpt>
      <trkpt lat="46.87282" lon="8.46981">
        <ele>2233</ele>
        <time>2021-08-11T14:12:54.327Z</time>
      </trkpt>
      <trkpt lat="46.87282" lon="8.46981">
        <ele>2234</ele>
        <time>2021-08-11T14:12:55.326Z</time>
      </trkpt>
      <trkpt lat="46.87282" lon="8.4698">
        <ele>2235</ele>
        <time>2021-08-11T14:12:56.327Z</time>
      </trkpt>
      <trkpt lat="46.87282" lon="8.4698">
        <ele>2235</ele>
        <time>2021-08-11T14:12:57.328Z</time>
      </trkpt>
      <trkpt lat="46.87282" lon="8.4698">
        <ele>2235</ele>
        <time>2021-08-11T14:12:58.328Z</time>
      </trkpt>
      <trkpt lat="46.87282" lon="8.4698">
        <ele>2235</ele>
        <time>2021-08-11T14:12:59.327Z</time>
      </trkpt>
      <trkpt lat="46.87282" lon="8.46978">
        <ele>2234</ele>
        <time>2021-08-11T14:13:01.455Z</time>
      </trkpt>
      <trkpt lat="46.87281" lon="8.46977">
        <ele>2234</ele>
        <time>2021-08-11T14:13:02.455Z</time>
      </trkpt>
      <trkpt lat="46.87281" lon="8.46976">
        <ele>2235</ele>
        <time>2021-08-11T14:13:03.455Z</time>
      </trkpt>
      <trkpt lat="46.87281" lon="8.46976">
        <ele>2235</ele>
        <time>2021-08-11T14:13:04.455Z</time>
      </trkpt>
      <trkpt lat="46.8728" lon="8.46975">
        <ele>2235</ele>
        <time>2021-08-11T14:13:05.455Z</time>
      </trkpt>
      <trkpt lat="46.8728" lon="8.46975">
        <ele>2235</ele>
        <time>2021-08-11T14:13:07.580Z</time>
      </trkpt>
      <trkpt lat="46.87279" lon="8.46974">
        <ele>2236</ele>
        <time>2021-08-11T14:13:08.581Z</time>
      </trkpt>
      <trkpt lat="46.87279" lon="8.46973">
        <ele>2236</ele>
        <time>2021-08-11T14:13:09.581Z</time>
      </trkpt>
      <trkpt lat="46.87279" lon="8.46973">
        <ele>2236</ele>
        <time>2021-08-11T14:13:10.580Z</time>
      </trkpt>
      <trkpt lat="46.87279" lon="8.46972">
        <ele>2236</ele>
        <time>2021-08-11T14:13:11.580Z</time>
      </trkpt>
      <trkpt lat="46.87278" lon="8.46971">
        <ele>2237</ele>
        <time>2021-08-11T14:13:27.592Z</time>
      </trkpt>
      <trkpt lat="46.87278" lon="8.4697">
        <ele>2242</ele>
        <time>2021-08-11T14:13:28.593Z</time>
      </trkpt>
      <trkpt lat="46.87278" lon="8.4697">
        <ele>2242</ele>
        <time>2021-08-11T14:13:29.594Z</time>
      </trkpt>
      <trkpt lat="46.87279" lon="8.46971">
        <ele>2242</ele>
        <time>2021-08-11T14:13:30.594Z</time>
      </trkpt>
      <trkpt lat="46.87277" lon="8.4697">
        <ele>2242</ele>
        <time>2021-08-11T14:13:31.595Z</time>
      </trkpt>
      <trkpt lat="46.87277" lon="8.4697">
        <ele>2242</ele>
        <time>2021-08-11T14:13:32.594Z</time>
      </trkpt>
      <trkpt lat="46.87277" lon="8.4697">
        <ele>2243</ele>
        <time>2021-08-11T14:13:33.595Z</time>
      </trkpt>
      <trkpt lat="46.87276" lon="8.4697">
        <ele>2243</ele>
        <time>2021-08-11T14:13:34.596Z</time>
      </trkpt>
      <trkpt lat="46.87276" lon="8.46971">
        <ele>2243</ele>
        <time>2021-08-11T14:13:35.596Z</time>
      </trkpt>
      <trkpt lat="46.87276" lon="8.46971">
        <ele>2243</ele>
        <time>2021-08-11T14:13:56.720Z</time>
      </trkpt>
      <trkpt lat="46.87276" lon="8.4697">
        <ele>2243</ele>
        <time>2021-08-11T14:14:09.597Z</time>
      </trkpt>
      <trkpt lat="46.87276" lon="8.4697">
        <ele>2243</ele>
        <time>2021-08-11T14:14:13.474Z</time>
      </trkpt>
      <trkpt lat="46.87277" lon="8.46968">
        <ele>2241</ele>
        <time>2021-08-11T14:14:14.474Z</time>
      </trkpt>
      <trkpt lat="46.87277" lon="8.46968">
        <ele>2241</ele>
        <time>2021-08-11T14:14:15.474Z</time>
      </trkpt>
      <trkpt lat="46.87276" lon="8.46967">
        <ele>2241</ele>
        <time>2021-08-11T14:14:40.598Z</time>
      </trkpt>
      <trkpt lat="46.87275" lon="8.46968">
        <ele>2240</ele>
        <time>2021-08-11T14:14:44.453Z</time>
      </trkpt>
      <trkpt lat="46.87276" lon="8.46968">
        <ele>2240</ele>
        <time>2021-08-11T14:14:45.453Z</time>
      </trkpt>
      <trkpt lat="46.87275" lon="8.46967">
        <ele>2240</ele>
        <time>2021-08-11T14:14:46.454Z</time>
      </trkpt>
      <trkpt lat="46.87275" lon="8.46967">
        <ele>2240</ele>
        <time>2021-08-11T14:14:47.453Z</time>
      </trkpt>
      <trkpt lat="46.87274" lon="8.46966">
        <ele>2242</ele>
        <time>2021-08-11T14:14:48.454Z</time>
      </trkpt>
      <trkpt lat="46.87274" lon="8.46965">
        <ele>2242</ele>
        <time>2021-08-11T14:14:49.453Z</time>
      </trkpt>
      <trkpt lat="46.87273" lon="8.46964">
        <ele>2243</ele>
        <time>2021-08-11T14:14:50.453Z</time>
      </trkpt>
      <trkpt lat="46.87273" lon="8.46964">
        <ele>2243</ele>
        <time>2021-08-11T14:14:51.454Z</time>
      </trkpt>
      <trkpt lat="46.87274" lon="8.46964">
        <ele>2244</ele>
        <time>2021-08-11T14:15:05.474Z</time>
      </trkpt>
      <trkpt lat="46.87274" lon="8.46964">
        <ele>2244</ele>
        <time>2021-08-11T14:15:06.473Z</time>
      </trkpt>
      <trkpt lat="46.87273" lon="8.46964">
        <ele>2245</ele>
        <time>2021-08-11T14:15:07.473Z</time>
      </trkpt>
      <trkpt lat="46.87273" lon="8.46965">
        <ele>2245</ele>
        <time>2021-08-11T14:15:08.474Z</time>
      </trkpt>
      <trkpt lat="46.87272" lon="8.46965">
        <ele>2245</ele>
        <time>2021-08-11T14:15:09.474Z</time>
      </trkpt>
      <trkpt lat="46.87272" lon="8.46966">
        <ele>2246</ele>
        <time>2021-08-11T14:15:10.473Z</time>
      </trkpt>
      <trkpt lat="46.87271" lon="8.46966">
        <ele>2246</ele>
        <time>2021-08-11T14:15:11.473Z</time>
      </trkpt>
      <trkpt lat="46.87271" lon="8.46965">
        <ele>2246</ele>
        <time>2021-08-11T14:15:12.474Z</time>
      </trkpt>
      <trkpt lat="46.8727" lon="8.46965">
        <ele>2245</ele>
        <time>2021-08-11T14:15:13.473Z</time>
      </trkpt>
      <trkpt lat="46.8727" lon="8.46965">
        <ele>2245</ele>
        <time>2021-08-11T14:15:14.473Z</time>
      </trkpt>
      <trkpt lat="46.8727" lon="8.46965">
        <ele>2245</ele>
        <time>2021-08-11T14:15:15.474Z</time>
      </trkpt>
      <trkpt lat="46.87269" lon="8.46966">
        <ele>2243</ele>
        <time>2021-08-11T14:15:16.474Z</time>
      </trkpt>
      <trkpt lat="46.87269" lon="8.46965">
        <ele>2243</ele>
        <time>2021-08-11T14:15:17.473Z</time>
      </trkpt>
      <trkpt lat="46.87266" lon="8.46965">
        <ele>2242</ele>
        <time>2021-08-11T14:15:18.473Z</time>
      </trkpt>
      <trkpt lat="46.87266" lon="8.46964">
        <ele>2242</ele>
        <time>2021-08-11T14:15:19.474Z</time>
      </trkpt>
      <trkpt lat="46.87265" lon="8.46964">
        <ele>2243</ele>
        <time>2021-08-11T14:15:20.473Z</time>
      </trkpt>
      <trkpt lat="46.87265" lon="8.46964">
        <ele>2243</ele>
        <time>2021-08-11T14:15:21.473Z</time>
      </trkpt>
      <trkpt lat="46.87265" lon="8.46964">
        <ele>2243</ele>
        <time>2021-08-11T14:15:22.474Z</time>
      </trkpt>
      <trkpt lat="46.87265" lon="8.46963">
        <ele>2243</ele>
        <time>2021-08-11T14:15:23.475Z</time>
      </trkpt>
      <trkpt lat="46.87265" lon="8.46963">
        <ele>2242</ele>
        <time>2021-08-11T14:15:29.454Z</time>
      </trkpt>
      <trkpt lat="46.87265" lon="8.46962">
        <ele>2242</ele>
        <time>2021-08-11T14:15:30.453Z</time>
      </trkpt>
      <trkpt lat="46.87266" lon="8.46962">
        <ele>2242</ele>
        <time>2021-08-11T14:15:31.454Z</time>
      </trkpt>
      <trkpt lat="46.87266" lon="8.46962">
        <ele>2242</ele>
        <time>2021-08-11T14:15:32.453Z</time>
      </trkpt>
      <trkpt lat="46.87266" lon="8.46961">
        <ele>2242</ele>
        <time>2021-08-11T14:15:33.454Z</time>
      </trkpt>
      <trkpt lat="46.87266" lon="8.4696">
        <ele>2242</ele>
        <time>2021-08-11T14:15:34.454Z</time>
      </trkpt>
      <trkpt lat="46.87266" lon="8.4696">
        <ele>2241</ele>
        <time>2021-08-11T14:15:35.454Z</time>
      </trkpt>
      <trkpt lat="46.87265" lon="8.46959">
        <ele>2241</ele>
        <time>2021-08-11T14:15:42.452Z</time>
      </trkpt>
      <trkpt lat="46.87265" lon="8.46959">
        <ele>2241</ele>
        <time>2021-08-11T14:15:43.453Z</time>
      </trkpt>
      <trkpt lat="46.87265" lon="8.46958">
        <ele>2241</ele>
        <time>2021-08-11T14:15:51.206Z</time>
      </trkpt>
      <trkpt lat="46.87265" lon="8.46958">
        <ele>2241</ele>
        <time>2021-08-11T14:15:52.205Z</time>
      </trkpt>
      <trkpt lat="46.87265" lon="8.46956">
        <ele>2241</ele>
        <time>2021-08-11T14:15:53.206Z</time>
      </trkpt>
      <trkpt lat="46.87265" lon="8.46955">
        <ele>2241</ele>
        <time>2021-08-11T14:15:54.205Z</time>
      </trkpt>
      <trkpt lat="46.87265" lon="8.46954">
        <ele>2241</ele>
        <time>2021-08-11T14:15:55.206Z</time>
      </trkpt>
      <trkpt lat="46.87265" lon="8.46954">
        <ele>2241</ele>
        <time>2021-08-11T14:16:01.206Z</time>
      </trkpt>
      <trkpt lat="46.87266" lon="8.46954">
        <ele>2241</ele>
        <time>2021-08-11T14:16:02.206Z</time>
      </trkpt>
      <trkpt lat="46.87266" lon="8.46953">
        <ele>2241</ele>
        <time>2021-08-11T14:16:03.205Z</time>
      </trkpt>
      <trkpt lat="46.87267" lon="8.46953">
        <ele>2242</ele>
        <time>2021-08-11T14:16:08.955Z</time>
      </trkpt>
      <trkpt lat="46.87267" lon="8.46953">
        <ele>2242</ele>
        <time>2021-08-11T14:16:09.955Z</time>
      </trkpt>
      <trkpt lat="46.87268" lon="8.46952">
        <ele>2242</ele>
        <time>2021-08-11T14:16:10.955Z</time>
      </trkpt>
      <trkpt lat="46.87267" lon="8.46951">
        <ele>2242</ele>
        <time>2021-08-11T14:16:11.955Z</time>
      </trkpt>
      <trkpt lat="46.87268" lon="8.4695">
        <ele>2243</ele>
        <time>2021-08-11T14:16:12.954Z</time>
      </trkpt>
      <trkpt lat="46.87268" lon="8.4695">
        <ele>2243</ele>
        <time>2021-08-11T14:16:13.955Z</time>
      </trkpt>
      <trkpt lat="46.87268" lon="8.46949">
        <ele>2243</ele>
        <time>2021-08-11T14:16:14.955Z</time>
      </trkpt>
      <trkpt lat="46.87268" lon="8.46949">
        <ele>2243</ele>
        <time>2021-08-11T14:16:15.955Z</time>
      </trkpt>
      <trkpt lat="46.87268" lon="8.46949">
        <ele>2243</ele>
        <time>2021-08-11T14:16:16.955Z</time>
      </trkpt>
      <trkpt lat="46.87268" lon="8.46948">
        <ele>2243</ele>
        <time>2021-08-11T14:16:52.950Z</time>
      </trkpt>
      <trkpt lat="46.87268" lon="8.46948">
        <ele>2243</ele>
        <time>2021-08-11T14:17:08.844Z</time>
      </trkpt>
      <trkpt lat="46.87268" lon="8.46947">
        <ele>2243</ele>
        <time>2021-08-11T14:17:09.844Z</time>
      </trkpt>
      <trkpt lat="46.87269" lon="8.46947">
        <ele>2244</ele>
        <time>2021-08-11T14:17:20.702Z</time>
      </trkpt>
      <trkpt lat="46.87269" lon="8.46947">
        <ele>2244</ele>
        <time>2021-08-11T14:17:21.701Z</time>
      </trkpt>
      <trkpt lat="46.87269" lon="8.46946">
        <ele>2244</ele>
        <time>2021-08-11T14:17:22.702Z</time>
      </trkpt>
      <trkpt lat="46.87269" lon="8.46946">
        <ele>2244</ele>
        <time>2021-08-11T14:17:31.704Z</time>
      </trkpt>
      <trkpt lat="46.8727" lon="8.46946">
        <ele>2244</ele>
        <time>2021-08-11T14:17:32.704Z</time>
      </trkpt>
      <trkpt lat="46.87269" lon="8.46947">
        <ele>2244</ele>
        <time>2021-08-11T14:18:48.578Z</time>
      </trkpt>
      <trkpt lat="46.87269" lon="8.46947">
        <ele>2244</ele>
        <time>2021-08-11T14:18:49.577Z</time>
      </trkpt>
      <trkpt lat="46.87269" lon="8.46948">
        <ele>2244</ele>
        <time>2021-08-11T14:18:59.327Z</time>
      </trkpt>
      <trkpt lat="46.87269" lon="8.46948">
        <ele>2244</ele>
        <time>2021-08-11T14:19:00.327Z</time>
      </trkpt>
      <trkpt lat="46.87267" lon="8.46947">
        <ele>2244</ele>
        <time>2021-08-11T14:19:01.328Z</time>
      </trkpt>
      <trkpt lat="46.87268" lon="8.46947">
        <ele>2244</ele>
        <time>2021-08-11T14:19:02.329Z</time>
      </trkpt>
      <trkpt lat="46.87268" lon="8.46947">
        <ele>2244</ele>
        <time>2021-08-11T14:19:10.476Z</time>
      </trkpt>
      <trkpt lat="46.87268" lon="8.46946">
        <ele>2244</ele>
        <time>2021-08-11T14:19:11.477Z</time>
      </trkpt>
      <trkpt lat="46.87268" lon="8.46945">
        <ele>2245</ele>
        <time>2021-08-11T14:19:12.478Z</time>
      </trkpt>
      <trkpt lat="46.87268" lon="8.46944">
        <ele>2245</ele>
        <time>2021-08-11T14:19:13.478Z</time>
      </trkpt>
      <trkpt lat="46.87268" lon="8.46944">
        <ele>2246</ele>
        <time>2021-08-11T14:19:14.478Z</time>
      </trkpt>
      <trkpt lat="46.87268" lon="8.46943">
        <ele>2246</ele>
        <time>2021-08-11T14:19:20.601Z</time>
      </trkpt>
      <trkpt lat="46.87268" lon="8.46943">
        <ele>2246</ele>
        <time>2021-08-11T14:19:21.601Z</time>
      </trkpt>
      <trkpt lat="46.87267" lon="8.46942">
        <ele>2247</ele>
        <time>2021-08-11T14:19:22.600Z</time>
      </trkpt>
      <trkpt lat="46.87267" lon="8.46942">
        <ele>2247</ele>
        <time>2021-08-11T14:19:23.600Z</time>
      </trkpt>
      <trkpt lat="46.87267" lon="8.46942">
        <ele>2247</ele>
        <time>2021-08-11T14:19:37.725Z</time>
      </trkpt>
      <trkpt lat="46.87266" lon="8.46942">
        <ele>2248</ele>
        <time>2021-08-11T14:19:38.725Z</time>
      </trkpt>
      <trkpt lat="46.87265" lon="8.46942">
        <ele>2248</ele>
        <time>2021-08-11T14:19:39.725Z</time>
      </trkpt>
      <trkpt lat="46.87265" lon="8.46942">
        <ele>2248</ele>
        <time>2021-08-11T14:19:48.853Z</time>
      </trkpt>
      <trkpt lat="46.87266" lon="8.46942">
        <ele>2248</ele>
        <time>2021-08-11T14:19:49.852Z</time>
      </trkpt>
      <trkpt lat="46.87265" lon="8.46941">
        <ele>2248</ele>
        <time>2021-08-11T14:19:50.852Z</time>
      </trkpt>
      <trkpt lat="46.87265" lon="8.4694">
        <ele>2248</ele>
        <time>2021-08-11T14:20:01.972Z</time>
      </trkpt>
      <trkpt lat="46.87264" lon="8.46939">
        <ele>2248</ele>
        <time>2021-08-11T14:20:02.972Z</time>
      </trkpt>
      <trkpt lat="46.87265" lon="8.46939">
        <ele>2249</ele>
        <time>2021-08-11T14:20:03.973Z</time>
      </trkpt>
      <trkpt lat="46.87265" lon="8.46939">
        <ele>2249</ele>
        <time>2021-08-11T14:20:04.972Z</time>
      </trkpt>
      <trkpt lat="46.87264" lon="8.46939">
        <ele>2249</ele>
        <time>2021-08-11T14:20:05.972Z</time>
      </trkpt>
      <trkpt lat="46.87263" lon="8.46939">
        <ele>2250</ele>
        <time>2021-08-11T14:20:06.973Z</time>
      </trkpt>
      <trkpt lat="46.87263" lon="8.46939">
        <ele>2250</ele>
        <time>2021-08-11T14:20:07.973Z</time>
      </trkpt>
      <trkpt lat="46.87262" lon="8.46939">
        <ele>2250</ele>
        <time>2021-08-11T14:20:08.972Z</time>
      </trkpt>
      <trkpt lat="46.87262" lon="8.46939">
        <ele>2251</ele>
        <time>2021-08-11T14:20:14.077Z</time>
      </trkpt>
      <trkpt lat="46.87262" lon="8.46939">
        <ele>2251</ele>
        <time>2021-08-11T14:20:15.077Z</time>
      </trkpt>
      <trkpt lat="46.87261" lon="8.46939">
        <ele>2251</ele>
        <time>2021-08-11T14:20:16.078Z</time>
      </trkpt>
      <trkpt lat="46.87261" lon="8.46938">
        <ele>2252</ele>
        <time>2021-08-11T14:20:25.077Z</time>
      </trkpt>
      <trkpt lat="46.8726" lon="8.46938">
        <ele>2253</ele>
        <time>2021-08-11T14:20:26.077Z</time>
      </trkpt>
      <trkpt lat="46.8726" lon="8.46939">
        <ele>2253</ele>
        <time>2021-08-11T14:20:31.826Z</time>
      </trkpt>
      <trkpt lat="46.8726" lon="8.46939">
        <ele>2253</ele>
        <time>2021-08-11T14:20:32.825Z</time>
      </trkpt>
      <trkpt lat="46.8726" lon="8.46938">
        <ele>2253</ele>
        <time>2021-08-11T14:20:33.825Z</time>
      </trkpt>
      <trkpt lat="46.8726" lon="8.46938">
        <ele>2252</ele>
        <time>2021-08-11T14:20:34.826Z</time>
      </trkpt>
      <trkpt lat="46.8726" lon="8.46938">
        <ele>2252</ele>
        <time>2021-08-11T14:20:35.826Z</time>
      </trkpt>
      <trkpt lat="46.87258" lon="8.46939">
        <ele>2253</ele>
        <time>2021-08-11T14:20:39.954Z</time>
      </trkpt>
      <trkpt lat="46.87258" lon="8.4694">
        <ele>2254</ele>
        <time>2021-08-11T14:20:40.953Z</time>
      </trkpt>
      <trkpt lat="46.87258" lon="8.4694">
        <ele>2254</ele>
        <time>2021-08-11T14:20:48.702Z</time>
      </trkpt>
      <trkpt lat="46.87257" lon="8.4694">
        <ele>2254</ele>
        <time>2021-08-11T14:20:49.703Z</time>
      </trkpt>
      <trkpt lat="46.87257" lon="8.46941">
        <ele>2255</ele>
        <time>2021-08-11T14:20:50.702Z</time>
      </trkpt>
      <trkpt lat="46.87257" lon="8.46942">
        <ele>2256</ele>
        <time>2021-08-11T14:20:51.704Z</time>
      </trkpt>
      <trkpt lat="46.87257" lon="8.46942">
        <ele>2256</ele>
        <time>2021-08-11T14:20:52.704Z</time>
      </trkpt>
      <trkpt lat="46.87257" lon="8.46941">
        <ele>2256</ele>
        <time>2021-08-11T14:20:53.704Z</time>
      </trkpt>
      <trkpt lat="46.87256" lon="8.46941">
        <ele>2257</ele>
        <time>2021-08-11T14:20:54.703Z</time>
      </trkpt>
      <trkpt lat="46.87255" lon="8.46941">
        <ele>2257</ele>
        <time>2021-08-11T14:20:55.703Z</time>
      </trkpt>
      <trkpt lat="46.87255" lon="8.46941">
        <ele>2256</ele>
        <time>2021-08-11T14:20:56.703Z</time>
      </trkpt>
      <trkpt lat="46.87254" lon="8.46939">
        <ele>2263</ele>
        <time>2021-08-11T14:21:11.825Z</time>
      </trkpt>
      <trkpt lat="46.87254" lon="8.46938">
        <ele>2263</ele>
        <time>2021-08-11T14:21:12.826Z</time>
      </trkpt>
      <trkpt lat="46.87254" lon="8.46937">
        <ele>2263</ele>
        <time>2021-08-11T14:21:22.572Z</time>
      </trkpt>
      <trkpt lat="46.87254" lon="8.46936">
        <ele>2264</ele>
        <time>2021-08-11T14:21:23.571Z</time>
      </trkpt>
      <trkpt lat="46.87255" lon="8.46935">
        <ele>2264</ele>
        <time>2021-08-11T14:21:27.472Z</time>
      </trkpt>
      <trkpt lat="46.87255" lon="8.46934">
        <ele>2264</ele>
        <time>2021-08-11T14:21:28.472Z</time>
      </trkpt>
      <trkpt lat="46.87256" lon="8.46934">
        <ele>2264</ele>
        <time>2021-08-11T14:21:29.471Z</time>
      </trkpt>
      <trkpt lat="46.87257" lon="8.46934">
        <ele>2263</ele>
        <time>2021-08-11T14:21:30.471Z</time>
      </trkpt>
      <trkpt lat="46.87257" lon="8.46934">
        <ele>2263</ele>
        <time>2021-08-11T14:21:31.472Z</time>
      </trkpt>
      <trkpt lat="46.87258" lon="8.46934">
        <ele>2262</ele>
        <time>2021-08-11T14:21:32.471Z</time>
      </trkpt>
      <trkpt lat="46.87258" lon="8.46934">
        <ele>2262</ele>
        <time>2021-08-11T14:21:33.471Z</time>
      </trkpt>
      <trkpt lat="46.87258" lon="8.46933">
        <ele>2261</ele>
        <time>2021-08-11T14:21:34.471Z</time>
      </trkpt>
      <trkpt lat="46.87258" lon="8.46933">
        <ele>2261</ele>
        <time>2021-08-11T14:21:36.558Z</time>
      </trkpt>
      <trkpt lat="46.87259" lon="8.46932">
        <ele>2260</ele>
        <time>2021-08-11T14:21:37.557Z</time>
      </trkpt>
      <trkpt lat="46.8726" lon="8.46931">
        <ele>2259</ele>
        <time>2021-08-11T14:21:38.557Z</time>
      </trkpt>
      <trkpt lat="46.87261" lon="8.4693">
        <ele>2259</ele>
        <time>2021-08-11T14:21:39.557Z</time>
      </trkpt>
      <trkpt lat="46.8726" lon="8.4693">
        <ele>2259</ele>
        <time>2021-08-11T14:21:43.594Z</time>
      </trkpt>
      <trkpt lat="46.8726" lon="8.4693">
        <ele>2259</ele>
        <time>2021-08-11T14:21:44.593Z</time>
      </trkpt>
      <trkpt lat="46.8726" lon="8.46929">
        <ele>2258</ele>
        <time>2021-08-11T14:21:58.467Z</time>
      </trkpt>
      <trkpt lat="46.87261" lon="8.46928">
        <ele>2258</ele>
        <time>2021-08-11T14:21:59.468Z</time>
      </trkpt>
      <trkpt lat="46.87261" lon="8.46928">
        <ele>2258</ele>
        <time>2021-08-11T14:22:00.468Z</time>
      </trkpt>
      <trkpt lat="46.87261" lon="8.46927">
        <ele>2258</ele>
        <time>2021-08-11T14:22:01.467Z</time>
      </trkpt>
      <trkpt lat="46.87261" lon="8.46926">
        <ele>2258</ele>
        <time>2021-08-11T14:22:02.468Z</time>
      </trkpt>
      <trkpt lat="46.8726" lon="8.46926">
        <ele>2259</ele>
        <time>2021-08-11T14:22:03.468Z</time>
      </trkpt>
      <trkpt lat="46.8726" lon="8.46926">
        <ele>2259</ele>
        <time>2021-08-11T14:22:09.571Z</time>
      </trkpt>
      <trkpt lat="46.87263" lon="8.4693">
        <ele>2259</ele>
        <time>2021-08-11T14:22:10.572Z</time>
      </trkpt>
      <trkpt lat="46.87263" lon="8.46931">
        <ele>2259</ele>
        <time>2021-08-11T14:22:11.571Z</time>
      </trkpt>
      <trkpt lat="46.87262" lon="8.46931">
        <ele>2260</ele>
        <time>2021-08-11T14:22:12.571Z</time>
      </trkpt>
      <trkpt lat="46.87263" lon="8.46928">
        <ele>2260</ele>
        <time>2021-08-11T14:22:13.572Z</time>
      </trkpt>
      <trkpt lat="46.87264" lon="8.46928">
        <ele>2259</ele>
        <time>2021-08-11T14:22:14.571Z</time>
      </trkpt>
      <trkpt lat="46.87264" lon="8.46927">
        <ele>2259</ele>
        <time>2021-08-11T14:22:15.571Z</time>
      </trkpt>
      <trkpt lat="46.87264" lon="8.46927">
        <ele>2259</ele>
        <time>2021-08-11T14:22:16.572Z</time>
      </trkpt>
      <trkpt lat="46.87264" lon="8.46926">
        <ele>2258</ele>
        <time>2021-08-11T14:22:17.571Z</time>
      </trkpt>
      <trkpt lat="46.87265" lon="8.46926">
        <ele>2258</ele>
        <time>2021-08-11T14:22:18.572Z</time>
      </trkpt>
      <trkpt lat="46.87264" lon="8.46925">
        <ele>2258</ele>
        <time>2021-08-11T14:22:24.697Z</time>
      </trkpt>
      <trkpt lat="46.87264" lon="8.46925">
        <ele>2258</ele>
        <time>2021-08-11T14:22:25.696Z</time>
      </trkpt>
      <trkpt lat="46.87266" lon="8.46924">
        <ele>2257</ele>
        <time>2021-08-11T14:22:26.698Z</time>
      </trkpt>
      <trkpt lat="46.87267" lon="8.46924">
        <ele>2257</ele>
        <time>2021-08-11T14:22:27.698Z</time>
      </trkpt>
      <trkpt lat="46.87267" lon="8.46924">
        <ele>2257</ele>
        <time>2021-08-11T14:22:31.822Z</time>
      </trkpt>
      <trkpt lat="46.87267" lon="8.46924">
        <ele>2258</ele>
        <time>2021-08-11T14:22:32.822Z</time>
      </trkpt>
      <trkpt lat="46.87268" lon="8.46923">
        <ele>2258</ele>
        <time>2021-08-11T14:22:33.821Z</time>
      </trkpt>
      <trkpt lat="46.87268" lon="8.46923">
        <ele>2257</ele>
        <time>2021-08-11T14:22:34.822Z</time>
      </trkpt>
      <trkpt lat="46.87269" lon="8.46923">
        <ele>2257</ele>
        <time>2021-08-11T14:22:35.821Z</time>
      </trkpt>
      <trkpt lat="46.87268" lon="8.46922">
        <ele>2257</ele>
        <time>2021-08-11T14:22:40.948Z</time>
      </trkpt>
      <trkpt lat="46.87269" lon="8.4692">
        <ele>2256</ele>
        <time>2021-08-11T14:22:55.695Z</time>
      </trkpt>
      <trkpt lat="46.8727" lon="8.46919">
        <ele>2256</ele>
        <time>2021-08-11T14:22:57.451Z</time>
      </trkpt>
      <trkpt lat="46.8727" lon="8.46919">
        <ele>2256</ele>
        <time>2021-08-11T14:23:07.217Z</time>
      </trkpt>
      <trkpt lat="46.8727" lon="8.46919">
        <ele>2257</ele>
        <time>2021-08-11T14:23:08.218Z</time>
      </trkpt>
      <trkpt lat="46.87269" lon="8.46918">
        <ele>2257</ele>
        <time>2021-08-11T14:23:09.219Z</time>
      </trkpt>
      <trkpt lat="46.87269" lon="8.46918">
        <ele>2258</ele>
        <time>2021-08-11T14:23:10.218Z</time>
      </trkpt>
      <trkpt lat="46.87269" lon="8.46918">
        <ele>2258</ele>
        <time>2021-08-11T14:23:12.326Z</time>
      </trkpt>
      <trkpt lat="46.87268" lon="8.46918">
        <ele>2259</ele>
        <time>2021-08-11T14:23:13.327Z</time>
      </trkpt>
      <trkpt lat="46.87268" lon="8.46918">
        <ele>2259</ele>
        <time>2021-08-11T14:23:31.065Z</time>
      </trkpt>
      <trkpt lat="46.87268" lon="8.46918">
        <ele>2259</ele>
        <time>2021-08-11T14:23:49.841Z</time>
      </trkpt>
      <trkpt lat="46.87268" lon="8.46918">
        <ele>2260</ele>
        <time>2021-08-11T14:23:50.840Z</time>
      </trkpt>
      <trkpt lat="46.87267" lon="8.46918">
        <ele>2260</ele>
        <time>2021-08-11T14:24:08.718Z</time>
      </trkpt>
      <trkpt lat="46.87267" lon="8.46918">
        <ele>2260</ele>
        <time>2021-08-11T14:24:09.717Z</time>
      </trkpt>
      <trkpt lat="46.87267" lon="8.46918">
        <ele>2260</ele>
        <time>2021-08-11T14:24:10.718Z</time>
      </trkpt>
      <trkpt lat="46.87266" lon="8.46918">
        <ele>2260</ele>
        <time>2021-08-11T14:24:11.718Z</time>
      </trkpt>
      <trkpt lat="46.87266" lon="8.46919">
        <ele>2260</ele>
        <time>2021-08-11T14:24:19.821Z</time>
      </trkpt>
      <trkpt lat="46.87266" lon="8.4692">
        <ele>2260</ele>
        <time>2021-08-11T14:24:20.822Z</time>
      </trkpt>
      <trkpt lat="46.87265" lon="8.4692">
        <ele>2261</ele>
        <time>2021-08-11T14:24:21.821Z</time>
      </trkpt>
      <trkpt lat="46.87265" lon="8.46921">
        <ele>2261</ele>
        <time>2021-08-11T14:24:22.822Z</time>
      </trkpt>
      <trkpt lat="46.87264" lon="8.46921">
        <ele>2261</ele>
        <time>2021-08-11T14:24:23.822Z</time>
      </trkpt>
      <trkpt lat="46.87264" lon="8.46921">
        <ele>2261</ele>
        <time>2021-08-11T14:24:24.821Z</time>
      </trkpt>
      <trkpt lat="46.87263" lon="8.46921">
        <ele>2261</ele>
        <time>2021-08-11T14:24:25.822Z</time>
      </trkpt>
      <trkpt lat="46.87263" lon="8.46922">
        <ele>2261</ele>
        <time>2021-08-11T14:24:26.822Z</time>
      </trkpt>
      <trkpt lat="46.87262" lon="8.46922">
        <ele>2261</ele>
        <time>2021-08-11T14:24:27.822Z</time>
      </trkpt>
      <trkpt lat="46.87262" lon="8.46922">
        <ele>2262</ele>
        <time>2021-08-11T14:24:31.964Z</time>
      </trkpt>
      <trkpt lat="46.87262" lon="8.46922">
        <ele>2262</ele>
        <time>2021-08-11T14:24:32.964Z</time>
      </trkpt>
      <trkpt lat="46.87261" lon="8.46922">
        <ele>2262</ele>
        <time>2021-08-11T14:24:33.964Z</time>
      </trkpt>
      <trkpt lat="46.8726" lon="8.46922">
        <ele>2262</ele>
        <time>2021-08-11T14:24:34.964Z</time>
      </trkpt>
      <trkpt lat="46.8726" lon="8.46922">
        <ele>2262</ele>
        <time>2021-08-11T14:24:35.965Z</time>
      </trkpt>
      <trkpt lat="46.87259" lon="8.46922">
        <ele>2262</ele>
        <time>2021-08-11T14:24:36.965Z</time>
      </trkpt>
      <trkpt lat="46.87259" lon="8.46923">
        <ele>2262</ele>
        <time>2021-08-11T14:24:37.965Z</time>
      </trkpt>
      <trkpt lat="46.87258" lon="8.46923">
        <ele>2262</ele>
        <time>2021-08-11T14:24:38.964Z</time>
      </trkpt>
      <trkpt lat="46.87258" lon="8.46923">
        <ele>2262</ele>
        <time>2021-08-11T14:24:39.964Z</time>
      </trkpt>
      <trkpt lat="46.87258" lon="8.46923">
        <ele>2262</ele>
        <time>2021-08-11T14:24:40.965Z</time>
      </trkpt>
      <trkpt lat="46.87258" lon="8.46922">
        <ele>2262</ele>
        <time>2021-08-11T14:24:41.965Z</time>
      </trkpt>
      <trkpt lat="46.87257" lon="8.46921">
        <ele>2265</ele>
        <time>2021-08-11T14:24:42.966Z</time>
      </trkpt>
      <trkpt lat="46.87256" lon="8.4692">
        <ele>2265</ele>
        <time>2021-08-11T14:24:58.069Z</time>
      </trkpt>
      <trkpt lat="46.87256" lon="8.4692">
        <ele>2266</ele>
        <time>2021-08-11T14:24:59.069Z</time>
      </trkpt>
      <trkpt lat="46.87255" lon="8.4692">
        <ele>2266</ele>
        <time>2021-08-11T14:25:05.943Z</time>
      </trkpt>
      <trkpt lat="46.87255" lon="8.4692">
        <ele>2265</ele>
        <time>2021-08-11T14:25:06.943Z</time>
      </trkpt>
      <trkpt lat="46.87254" lon="8.4692">
        <ele>2265</ele>
        <time>2021-08-11T14:25:07.943Z</time>
      </trkpt>
      <trkpt lat="46.87254" lon="8.4692">
        <ele>2265</ele>
        <time>2021-08-11T14:25:19.067Z</time>
      </trkpt>
      <trkpt lat="46.87253" lon="8.4692">
        <ele>2265</ele>
        <time>2021-08-11T14:25:20.066Z</time>
      </trkpt>
      <trkpt lat="46.87252" lon="8.4692">
        <ele>2265</ele>
        <time>2021-08-11T14:25:21.067Z</time>
      </trkpt>
      <trkpt lat="46.87252" lon="8.46921">
        <ele>2265</ele>
        <time>2021-08-11T14:25:42.088Z</time>
      </trkpt>
      <trkpt lat="46.87251" lon="8.46921">
        <ele>2265</ele>
        <time>2021-08-11T14:25:43.088Z</time>
      </trkpt>
      <trkpt lat="46.87251" lon="8.46921">
        <ele>2265</ele>
        <time>2021-08-11T14:26:02.213Z</time>
      </trkpt>
      <trkpt lat="46.8725" lon="8.46922">
        <ele>2266</ele>
        <time>2021-08-11T14:26:03.213Z</time>
      </trkpt>
      <trkpt lat="46.8725" lon="8.46922">
        <ele>2266</ele>
        <time>2021-08-11T14:26:04.213Z</time>
      </trkpt>
      <trkpt lat="46.8725" lon="8.46922">
        <ele>2266</ele>
        <time>2021-08-11T14:26:13.086Z</time>
      </trkpt>
      <trkpt lat="46.87248" lon="8.46922">
        <ele>2263</ele>
        <time>2021-08-11T14:26:26.963Z</time>
      </trkpt>
      <trkpt lat="46.87246" lon="8.46923">
        <ele>2263</ele>
        <time>2021-08-11T14:26:27.964Z</time>
      </trkpt>
      <trkpt lat="46.87246" lon="8.46923">
        <ele>2263</ele>
        <time>2021-08-11T14:26:28.964Z</time>
      </trkpt>
      <trkpt lat="46.87246" lon="8.46923">
        <ele>2263</ele>
        <time>2021-08-11T14:26:42.941Z</time>
      </trkpt>
      <trkpt lat="46.87245" lon="8.46924">
        <ele>2263</ele>
        <time>2021-08-11T14:26:57.817Z</time>
      </trkpt>
      <trkpt lat="46.87245" lon="8.46924">
        <ele>2265</ele>
        <time>2021-08-11T14:26:58.817Z</time>
      </trkpt>
      <trkpt lat="46.87245" lon="8.46924">
        <ele>2265</ele>
        <time>2021-08-11T14:27:11.587Z</time>
      </trkpt>
      <trkpt lat="46.87244" lon="8.46924">
        <ele>2265</ele>
        <time>2021-08-11T14:27:22.443Z</time>
      </trkpt>
      <trkpt lat="46.87244" lon="8.46924">
        <ele>2265</ele>
        <time>2021-08-11T14:27:23.444Z</time>
      </trkpt>
      <trkpt lat="46.87243" lon="8.46924">
        <ele>2266</ele>
        <time>2021-08-11T14:27:24.443Z</time>
      </trkpt>
      <trkpt lat="46.87243" lon="8.46925">
        <ele>2266</ele>
        <time>2021-08-11T14:27:27.449Z</time>
      </trkpt>
      <trkpt lat="46.87243" lon="8.46925">
        <ele>2266</ele>
        <time>2021-08-11T14:27:37.189Z</time>
      </trkpt>
      <trkpt lat="46.87243" lon="8.46926">
        <ele>2266</ele>
        <time>2021-08-11T14:27:38.190Z</time>
      </trkpt>
      <trkpt lat="46.87242" lon="8.46925">
        <ele>2269</ele>
        <time>2021-08-11T14:27:39.191Z</time>
      </trkpt>
      <trkpt lat="46.87243" lon="8.46925">
        <ele>2272</ele>
        <time>2021-08-11T14:27:53.940Z</time>
      </trkpt>
      <trkpt lat="46.87243" lon="8.46925">
        <ele>2272</ele>
        <time>2021-08-11T14:27:54.939Z</time>
      </trkpt>
      <trkpt lat="46.87243" lon="8.46925">
        <ele>2273</ele>
        <time>2021-08-11T14:27:55.939Z</time>
      </trkpt>
      <trkpt lat="46.87245" lon="8.46922">
        <ele>2276</ele>
        <time>2021-08-11T14:27:56.940Z</time>
      </trkpt>
      <trkpt lat="46.87245" lon="8.46922">
        <ele>2276</ele>
        <time>2021-08-11T14:27:57.940Z</time>
      </trkpt>
      <trkpt lat="46.87245" lon="8.46921">
        <ele>2277</ele>
        <time>2021-08-11T14:28:08.068Z</time>
      </trkpt>
      <trkpt lat="46.87245" lon="8.46921">
        <ele>2277</ele>
        <time>2021-08-11T14:28:09.069Z</time>
      </trkpt>
      <trkpt lat="46.87246" lon="8.4692">
        <ele>2277</ele>
        <time>2021-08-11T14:28:10.069Z</time>
      </trkpt>
      <trkpt lat="46.87245" lon="8.46919">
        <ele>2277</ele>
        <time>2021-08-11T14:28:18.068Z</time>
      </trkpt>
      <trkpt lat="46.87245" lon="8.46918">
        <ele>2277</ele>
        <time>2021-08-11T14:28:19.069Z</time>
      </trkpt>
      <trkpt lat="46.87245" lon="8.46918">
        <ele>2277</ele>
        <time>2021-08-11T14:28:20.069Z</time>
      </trkpt>
      <trkpt lat="46.87245" lon="8.46919">
        <ele>2277</ele>
        <time>2021-08-11T14:31:16.088Z</time>
      </trkpt>
      <trkpt lat="46.87245" lon="8.46919">
        <ele>2277</ele>
        <time>2021-08-11T14:31:17.088Z</time>
      </trkpt>
      <trkpt lat="46.87245" lon="8.46918">
        <ele>2277</ele>
        <time>2021-08-11T14:31:52.942Z</time>
      </trkpt>
      <trkpt lat="46.87244" lon="8.46919">
        <ele>2276</ele>
        <time>2021-08-11T14:31:53.943Z</time>
      </trkpt>
      <trkpt lat="46.87243" lon="8.46918">
        <ele>2276</ele>
        <time>2021-08-11T14:31:54.942Z</time>
      </trkpt>
      <trkpt lat="46.87243" lon="8.46919">
        <ele>2276</ele>
        <time>2021-08-11T14:32:17.065Z</time>
      </trkpt>
      <trkpt lat="46.87242" lon="8.46918">
        <ele>2275</ele>
        <time>2021-08-11T14:32:18.065Z</time>
      </trkpt>
      <trkpt lat="46.87242" lon="8.46918">
        <ele>2275</ele>
        <time>2021-08-11T14:32:26.816Z</time>
      </trkpt>
      <trkpt lat="46.87241" lon="8.46919">
        <ele>2275</ele>
        <time>2021-08-11T14:32:27.816Z</time>
      </trkpt>
      <trkpt lat="46.8724" lon="8.46918">
        <ele>2275</ele>
        <time>2021-08-11T14:32:28.816Z</time>
      </trkpt>
      <trkpt lat="46.8724" lon="8.46918">
        <ele>2276</ele>
        <time>2021-08-11T14:32:29.816Z</time>
      </trkpt>
      <trkpt lat="46.87239" lon="8.46918">
        <ele>2276</ele>
        <time>2021-08-11T14:32:30.815Z</time>
      </trkpt>
      <trkpt lat="46.87239" lon="8.46918">
        <ele>2276</ele>
        <time>2021-08-11T14:32:40.939Z</time>
      </trkpt>
      <trkpt lat="46.87238" lon="8.46918">
        <ele>2277</ele>
        <time>2021-08-11T14:32:41.939Z</time>
      </trkpt>
      <trkpt lat="46.87238" lon="8.46918">
        <ele>2277</ele>
        <time>2021-08-11T14:32:42.939Z</time>
      </trkpt>
      <trkpt lat="46.87238" lon="8.46918">
        <ele>2277</ele>
        <time>2021-08-11T14:32:43.939Z</time>
      </trkpt>
      <trkpt lat="46.87237" lon="8.46918">
        <ele>2278</ele>
        <time>2021-08-11T14:32:44.939Z</time>
      </trkpt>
      <trkpt lat="46.87237" lon="8.46918">
        <ele>2278</ele>
        <time>2021-08-11T14:32:51.064Z</time>
      </trkpt>
      <trkpt lat="46.87236" lon="8.46918">
        <ele>2279</ele>
        <time>2021-08-11T14:32:56.811Z</time>
      </trkpt>
      <trkpt lat="46.87236" lon="8.46918">
        <ele>2279</ele>
        <time>2021-08-11T14:32:57.812Z</time>
      </trkpt>
      <trkpt lat="46.87235" lon="8.46919">
        <ele>2280</ele>
        <time>2021-08-11T14:32:58.811Z</time>
      </trkpt>
      <trkpt lat="46.87235" lon="8.46919">
        <ele>2281</ele>
        <time>2021-08-11T14:33:06.938Z</time>
      </trkpt>
      <trkpt lat="46.87234" lon="8.46919">
        <ele>2281</ele>
        <time>2021-08-11T14:33:19.685Z</time>
      </trkpt>
      <trkpt lat="46.87233" lon="8.46919">
        <ele>2282</ele>
        <time>2021-08-11T14:33:20.686Z</time>
      </trkpt>
      <trkpt lat="46.87233" lon="8.46918">
        <ele>2282</ele>
        <time>2021-08-11T14:33:28.463Z</time>
      </trkpt>
      <trkpt lat="46.87232" lon="8.46918">
        <ele>2282</ele>
        <time>2021-08-11T14:33:29.462Z</time>
      </trkpt>
      <trkpt lat="46.87232" lon="8.46918">
        <ele>2282</ele>
        <time>2021-08-11T14:33:30.463Z</time>
      </trkpt>
      <trkpt lat="46.87231" lon="8.46917">
        <ele>2282</ele>
        <time>2021-08-11T14:33:31.463Z</time>
      </trkpt>
      <trkpt lat="46.87231" lon="8.46918">
        <ele>2282</ele>
        <time>2021-08-11T14:33:32.462Z</time>
      </trkpt>
      <trkpt lat="46.87231" lon="8.46917">
        <ele>2282</ele>
        <time>2021-08-11T14:33:33.463Z</time>
      </trkpt>
      <trkpt lat="46.8723" lon="8.46917">
        <ele>2281</ele>
        <time>2021-08-11T14:33:34.463Z</time>
      </trkpt>
      <trkpt lat="46.8723" lon="8.46916">
        <ele>2281</ele>
        <time>2021-08-11T14:33:57.585Z</time>
      </trkpt>
      <trkpt lat="46.87229" lon="8.46916">
        <ele>2281</ele>
        <time>2021-08-11T14:33:58.584Z</time>
      </trkpt>
      <trkpt lat="46.87229" lon="8.46915">
        <ele>2280</ele>
        <time>2021-08-11T14:34:01.319Z</time>
      </trkpt>
      <trkpt lat="46.87229" lon="8.46915">
        <ele>2280</ele>
        <time>2021-08-11T14:34:02.319Z</time>
      </trkpt>
      <trkpt lat="46.87229" lon="8.46915">
        <ele>2280</ele>
        <time>2021-08-11T14:34:03.319Z</time>
      </trkpt>
      <trkpt lat="46.87229" lon="8.46915">
        <ele>2280</ele>
        <time>2021-08-11T14:34:09.061Z</time>
      </trkpt>
      <trkpt lat="46.8723" lon="8.46914">
        <ele>2280</ele>
        <time>2021-08-11T14:34:10.061Z</time>
      </trkpt>
      <trkpt lat="46.8723" lon="8.46913">
        <ele>2280</ele>
        <time>2021-08-11T14:34:11.061Z</time>
      </trkpt>
      <trkpt lat="46.8723" lon="8.46913">
        <ele>2279</ele>
        <time>2021-08-11T14:34:12.061Z</time>
      </trkpt>
      <trkpt lat="46.8723" lon="8.46912">
        <ele>2279</ele>
        <time>2021-08-11T14:34:18.187Z</time>
      </trkpt>
      <trkpt lat="46.8723" lon="8.46911">
        <ele>2279</ele>
        <time>2021-08-11T14:34:19.186Z</time>
      </trkpt>
      <trkpt lat="46.87229" lon="8.46911">
        <ele>2280</ele>
        <time>2021-08-11T14:34:20.187Z</time>
      </trkpt>
      <trkpt lat="46.87229" lon="8.46911">
        <ele>2280</ele>
        <time>2021-08-11T14:34:25.955Z</time>
      </trkpt>
      <trkpt lat="46.87228" lon="8.4691">
        <ele>2280</ele>
        <time>2021-08-11T14:34:26.954Z</time>
      </trkpt>
      <trkpt lat="46.87228" lon="8.4691">
        <ele>2279</ele>
        <time>2021-08-11T14:34:27.955Z</time>
      </trkpt>
      <trkpt lat="46.87227" lon="8.4691">
        <ele>2279</ele>
        <time>2021-08-11T14:34:28.955Z</time>
      </trkpt>
      <trkpt lat="46.87226" lon="8.46911">
        <ele>2279</ele>
        <time>2021-08-11T14:34:33.060Z</time>
      </trkpt>
      <trkpt lat="46.87226" lon="8.46911">
        <ele>2279</ele>
        <time>2021-08-11T14:34:34.061Z</time>
      </trkpt>
      <trkpt lat="46.87225" lon="8.46911">
        <ele>2279</ele>
        <time>2021-08-11T14:34:38.814Z</time>
      </trkpt>
      <trkpt lat="46.87225" lon="8.4691">
        <ele>2279</ele>
        <time>2021-08-11T14:34:39.813Z</time>
      </trkpt>
      <trkpt lat="46.87224" lon="8.4691">
        <ele>2279</ele>
        <time>2021-08-11T14:34:47.561Z</time>
      </trkpt>
      <trkpt lat="46.87224" lon="8.4691">
        <ele>2280</ele>
        <time>2021-08-11T14:34:48.561Z</time>
      </trkpt>
      <trkpt lat="46.87223" lon="8.4691">
        <ele>2280</ele>
        <time>2021-08-11T14:34:49.560Z</time>
      </trkpt>
      <trkpt lat="46.87222" lon="8.4691">
        <ele>2280</ele>
        <time>2021-08-11T14:34:50.561Z</time>
      </trkpt>
      <trkpt lat="46.87222" lon="8.4691">
        <ele>2280</ele>
        <time>2021-08-11T14:34:51.561Z</time>
      </trkpt>
      <trkpt lat="46.87222" lon="8.4691">
        <ele>2280</ele>
        <time>2021-08-11T14:34:52.560Z</time>
      </trkpt>
      <trkpt lat="46.87221" lon="8.4691">
        <ele>2280</ele>
        <time>2021-08-11T14:34:53.561Z</time>
      </trkpt>
      <trkpt lat="46.87221" lon="8.46909">
        <ele>2286</ele>
        <time>2021-08-11T14:34:54.561Z</time>
      </trkpt>
      <trkpt lat="46.87221" lon="8.46909">
        <ele>2286</ele>
        <time>2021-08-11T14:34:55.560Z</time>
      </trkpt>
      <trkpt lat="46.87221" lon="8.46909">
        <ele>2286</ele>
        <time>2021-08-11T14:34:56.560Z</time>
      </trkpt>
      <trkpt lat="46.87223" lon="8.46909">
        <ele>2284</ele>
        <time>2021-08-11T14:34:57.560Z</time>
      </trkpt>
      <trkpt lat="46.87222" lon="8.46909">
        <ele>2284</ele>
        <time>2021-08-11T14:34:58.560Z</time>
      </trkpt>
      <trkpt lat="46.87222" lon="8.46906">
        <ele>2290</ele>
        <time>2021-08-11T14:35:36.560Z</time>
      </trkpt>
      <trkpt lat="46.87221" lon="8.46905">
        <ele>2289</ele>
        <time>2021-08-11T14:35:37.559Z</time>
      </trkpt>
      <trkpt lat="46.87221" lon="8.46905">
        <ele>2289</ele>
        <time>2021-08-11T14:35:38.559Z</time>
      </trkpt>
      <trkpt lat="46.87221" lon="8.46907">
        <ele>2286</ele>
        <time>2021-08-11T14:35:49.684Z</time>
      </trkpt>
      <trkpt lat="46.87221" lon="8.46907">
        <ele>2286</ele>
        <time>2021-08-11T14:35:57.435Z</time>
      </trkpt>
      <trkpt lat="46.87221" lon="8.46909">
        <ele>2283</ele>
        <time>2021-08-11T14:35:58.434Z</time>
      </trkpt>
      <trkpt lat="46.87221" lon="8.46909">
        <ele>2283</ele>
        <time>2021-08-11T14:36:18.310Z</time>
      </trkpt>
      <trkpt lat="46.87221" lon="8.46909">
        <ele>2282</ele>
        <time>2021-08-11T14:36:19.309Z</time>
      </trkpt>
      <trkpt lat="46.87223" lon="8.46911">
        <ele>2280</ele>
        <time>2021-08-11T14:36:20.310Z</time>
      </trkpt>
      <trkpt lat="46.87223" lon="8.46911">
        <ele>2280</ele>
        <time>2021-08-11T14:36:21.311Z</time>
      </trkpt>
      <trkpt lat="46.87223" lon="8.46911">
        <ele>2280</ele>
        <time>2021-08-11T14:36:23.413Z</time>
      </trkpt>
      <trkpt lat="46.87224" lon="8.46911">
        <ele>2280</ele>
        <time>2021-08-11T14:36:24.413Z</time>
      </trkpt>
      <trkpt lat="46.87223" lon="8.4691">
        <ele>2280</ele>
        <time>2021-08-11T14:36:25.414Z</time>
      </trkpt>
      <trkpt lat="46.87223" lon="8.4691">
        <ele>2280</ele>
        <time>2021-08-11T14:36:26.413Z</time>
      </trkpt>
      <trkpt lat="46.87224" lon="8.4691">
        <ele>2279</ele>
        <time>2021-08-11T14:36:27.413Z</time>
      </trkpt>
      <trkpt lat="46.87223" lon="8.46904">
        <ele>2278</ele>
        <time>2021-08-11T14:36:28.414Z</time>
      </trkpt>
      <trkpt lat="46.87223" lon="8.46902">
        <ele>2278</ele>
        <time>2021-08-11T14:36:29.413Z</time>
      </trkpt>
      <trkpt lat="46.87223" lon="8.46903">
        <ele>2278</ele>
        <time>2021-08-11T14:36:33.431Z</time>
      </trkpt>
      <trkpt lat="46.87223" lon="8.46903">
        <ele>2278</ele>
        <time>2021-08-11T14:36:34.431Z</time>
      </trkpt>
      <trkpt lat="46.87224" lon="8.46906">
        <ele>2278</ele>
        <time>2021-08-11T14:36:35.432Z</time>
      </trkpt>
      <trkpt lat="46.87225" lon="8.46907">
        <ele>2277</ele>
        <time>2021-08-11T14:36:36.433Z</time>
      </trkpt>
      <trkpt lat="46.87225" lon="8.46907">
        <ele>2277</ele>
        <time>2021-08-11T14:36:37.433Z</time>
      </trkpt>
      <trkpt lat="46.87225" lon="8.46907">
        <ele>2277</ele>
        <time>2021-08-11T14:36:38.432Z</time>
      </trkpt>
      <trkpt lat="46.87225" lon="8.46907">
        <ele>2277</ele>
        <time>2021-08-11T14:36:39.432Z</time>
      </trkpt>
      <trkpt lat="46.87225" lon="8.46907">
        <ele>2277</ele>
        <time>2021-08-11T14:36:41.435Z</time>
      </trkpt>
      <trkpt lat="46.87225" lon="8.46906">
        <ele>2278</ele>
        <time>2021-08-11T14:36:42.435Z</time>
      </trkpt>
      <trkpt lat="46.87225" lon="8.46907">
        <ele>2278</ele>
        <time>2021-08-11T14:36:43.434Z</time>
      </trkpt>
      <trkpt lat="46.87222" lon="8.46905">
        <ele>2280</ele>
        <time>2021-08-11T14:36:44.434Z</time>
      </trkpt>
      <trkpt lat="46.87222" lon="8.46904">
        <ele>2280</ele>
        <time>2021-08-11T14:36:45.434Z</time>
      </trkpt>
      <trkpt lat="46.87223" lon="8.46904">
        <ele>2279</ele>
        <time>2021-08-11T14:36:46.435Z</time>
      </trkpt>
      <trkpt lat="46.87224" lon="8.46903">
        <ele>2278</ele>
        <time>2021-08-11T14:36:47.436Z</time>
      </trkpt>
      <trkpt lat="46.87224" lon="8.46903">
        <ele>2278</ele>
        <time>2021-08-11T14:36:48.436Z</time>
      </trkpt>
      <trkpt lat="46.87224" lon="8.46903">
        <ele>2278</ele>
        <time>2021-08-11T14:36:49.435Z</time>
      </trkpt>
      <trkpt lat="46.87225" lon="8.46902">
        <ele>2278</ele>
        <time>2021-08-11T14:36:50.436Z</time>
      </trkpt>
      <trkpt lat="46.87225" lon="8.46902">
        <ele>2278</ele>
        <time>2021-08-11T14:36:56.553Z</time>
      </trkpt>
      <trkpt lat="46.87225" lon="8.46902">
        <ele>2278</ele>
        <time>2021-08-11T14:36:57.553Z</time>
      </trkpt>
      <trkpt lat="46.87226" lon="8.46902">
        <ele>2279</ele>
        <time>2021-08-11T14:37:15.348Z</time>
      </trkpt>
      <trkpt lat="46.87227" lon="8.46902">
        <ele>2279</ele>
        <time>2021-08-11T14:37:16.347Z</time>
      </trkpt>
      <trkpt lat="46.87227" lon="8.46902">
        <ele>2279</ele>
        <time>2021-08-11T14:37:19.166Z</time>
      </trkpt>
      <trkpt lat="46.87228" lon="8.46902">
        <ele>2279</ele>
        <time>2021-08-11T14:37:20.166Z</time>
      </trkpt>
      <trkpt lat="46.87229" lon="8.46901">
        <ele>2279</ele>
        <time>2021-08-11T14:37:21.166Z</time>
      </trkpt>
      <trkpt lat="46.87229" lon="8.46901">
        <ele>2280</ele>
        <time>2021-08-11T14:37:22.166Z</time>
      </trkpt>
      <trkpt lat="46.8723" lon="8.46901">
        <ele>2280</ele>
        <time>2021-08-11T14:37:23.166Z</time>
      </trkpt>
      <trkpt lat="46.8723" lon="8.469">
        <ele>2280</ele>
        <time>2021-08-11T14:37:24.165Z</time>
      </trkpt>
      <trkpt lat="46.87231" lon="8.469">
        <ele>2281</ele>
        <time>2021-08-11T14:37:25.166Z</time>
      </trkpt>
      <trkpt lat="46.87231" lon="8.46898">
        <ele>2281</ele>
        <time>2021-08-11T14:37:26.166Z</time>
      </trkpt>
      <trkpt lat="46.87231" lon="8.46897">
        <ele>2281</ele>
        <time>2021-08-11T14:37:27.165Z</time>
      </trkpt>
      <trkpt lat="46.87232" lon="8.46896">
        <ele>2282</ele>
        <time>2021-08-11T14:37:28.165Z</time>
      </trkpt>
      <trkpt lat="46.87232" lon="8.46895">
        <ele>2282</ele>
        <time>2021-08-11T14:37:29.166Z</time>
      </trkpt>
      <trkpt lat="46.87232" lon="8.46894">
        <ele>2283</ele>
        <time>2021-08-11T14:37:30.166Z</time>
      </trkpt>
      <trkpt lat="46.87233" lon="8.46893">
        <ele>2283</ele>
        <time>2021-08-11T14:37:31.166Z</time>
      </trkpt>
      <trkpt lat="46.87233" lon="8.46892">
        <ele>2284</ele>
        <time>2021-08-11T14:37:32.166Z</time>
      </trkpt>
      <trkpt lat="46.87234" lon="8.46891">
        <ele>2284</ele>
        <time>2021-08-11T14:37:33.165Z</time>
      </trkpt>
      <trkpt lat="46.87235" lon="8.46891">
        <ele>2284</ele>
        <time>2021-08-11T14:37:34.166Z</time>
      </trkpt>
      <trkpt lat="46.87235" lon="8.46891">
        <ele>2285</ele>
        <time>2021-08-11T14:37:35.165Z</time>
      </trkpt>
      <trkpt lat="46.87236" lon="8.4689">
        <ele>2285</ele>
        <time>2021-08-11T14:37:36.166Z</time>
      </trkpt>
      <trkpt lat="46.87237" lon="8.4689">
        <ele>2285</ele>
        <time>2021-08-11T14:37:37.166Z</time>
      </trkpt>
      <trkpt lat="46.87237" lon="8.46891">
        <ele>2285</ele>
        <time>2021-08-11T14:37:38.166Z</time>
      </trkpt>
      <trkpt lat="46.87237" lon="8.46891">
        <ele>2285</ele>
        <time>2021-08-11T14:37:39.165Z</time>
      </trkpt>
      <trkpt lat="46.87238" lon="8.46891">
        <ele>2286</ele>
        <time>2021-08-11T14:37:40.165Z</time>
      </trkpt>
      <trkpt lat="46.87239" lon="8.46891">
        <ele>2286</ele>
        <time>2021-08-11T14:37:41.166Z</time>
      </trkpt>
      <trkpt lat="46.87239" lon="8.4689">
        <ele>2286</ele>
        <time>2021-08-11T14:37:42.166Z</time>
      </trkpt>
      <trkpt lat="46.87241" lon="8.4689">
        <ele>2286</ele>
        <time>2021-08-11T14:37:43.166Z</time>
      </trkpt>
      <trkpt lat="46.87242" lon="8.4689">
        <ele>2286</ele>
        <time>2021-08-11T14:37:44.166Z</time>
      </trkpt>
      <trkpt lat="46.87242" lon="8.46889">
        <ele>2286</ele>
        <time>2021-08-11T14:37:45.165Z</time>
      </trkpt>
      <trkpt lat="46.87242" lon="8.46889">
        <ele>2286</ele>
        <time>2021-08-11T14:37:46.166Z</time>
      </trkpt>
      <trkpt lat="46.87243" lon="8.46888">
        <ele>2286</ele>
        <time>2021-08-11T14:37:47.165Z</time>
      </trkpt>
      <trkpt lat="46.87243" lon="8.46888">
        <ele>2286</ele>
        <time>2021-08-11T14:37:48.166Z</time>
      </trkpt>
      <trkpt lat="46.87244" lon="8.46888">
        <ele>2287</ele>
        <time>2021-08-11T14:37:49.165Z</time>
      </trkpt>
      <trkpt lat="46.87244" lon="8.46888">
        <ele>2287</ele>
        <time>2021-08-11T14:37:50.165Z</time>
      </trkpt>
      <trkpt lat="46.87245" lon="8.46887">
        <ele>2287</ele>
        <time>2021-08-11T14:37:51.165Z</time>
      </trkpt>
      <trkpt lat="46.87245" lon="8.46887">
        <ele>2287</ele>
        <time>2021-08-11T14:37:52.166Z</time>
      </trkpt>
      <trkpt lat="46.87246" lon="8.46886">
        <ele>2288</ele>
        <time>2021-08-11T14:37:53.166Z</time>
      </trkpt>
      <trkpt lat="46.87247" lon="8.46886">
        <ele>2288</ele>
        <time>2021-08-11T14:37:54.167Z</time>
      </trkpt>
      <trkpt lat="46.87247" lon="8.46886">
        <ele>2287</ele>
        <time>2021-08-11T14:37:55.166Z</time>
      </trkpt>
      <trkpt lat="46.87248" lon="8.46885">
        <ele>2287</ele>
        <time>2021-08-11T14:37:56.166Z</time>
      </trkpt>
      <trkpt lat="46.87249" lon="8.46885">
        <ele>2287</ele>
        <time>2021-08-11T14:37:57.167Z</time>
      </trkpt>
      <trkpt lat="46.87249" lon="8.46884">
        <ele>2287</ele>
        <time>2021-08-11T14:37:58.167Z</time>
      </trkpt>
      <trkpt lat="46.8725" lon="8.46884">
        <ele>2286</ele>
        <time>2021-08-11T14:37:59.167Z</time>
      </trkpt>
      <trkpt lat="46.8725" lon="8.46883">
        <ele>2286</ele>
        <time>2021-08-11T14:38:00.167Z</time>
      </trkpt>
      <trkpt lat="46.87251" lon="8.46883">
        <ele>2286</ele>
        <time>2021-08-11T14:38:01.166Z</time>
      </trkpt>
      <trkpt lat="46.87252" lon="8.46883">
        <ele>2286</ele>
        <time>2021-08-11T14:38:02.167Z</time>
      </trkpt>
      <trkpt lat="46.87252" lon="8.46884">
        <ele>2286</ele>
        <time>2021-08-11T14:38:03.166Z</time>
      </trkpt>
      <trkpt lat="46.87253" lon="8.46883">
        <ele>2286</ele>
        <time>2021-08-11T14:38:04.167Z</time>
      </trkpt>
      <trkpt lat="46.87253" lon="8.46883">
        <ele>2287</ele>
        <time>2021-08-11T14:38:05.167Z</time>
      </trkpt>
      <trkpt lat="46.87254" lon="8.46882">
        <ele>2287</ele>
        <time>2021-08-11T14:38:06.166Z</time>
      </trkpt>
      <trkpt lat="46.87254" lon="8.46881">
        <ele>2287</ele>
        <time>2021-08-11T14:38:07.167Z</time>
      </trkpt>
      <trkpt lat="46.87255" lon="8.46881">
        <ele>2287</ele>
        <time>2021-08-11T14:38:08.166Z</time>
      </trkpt>
      <trkpt lat="46.87255" lon="8.46881">
        <ele>2287</ele>
        <time>2021-08-11T14:38:09.166Z</time>
      </trkpt>
      <trkpt lat="46.87256" lon="8.4688">
        <ele>2287</ele>
        <time>2021-08-11T14:38:10.167Z</time>
      </trkpt>
      <trkpt lat="46.87257" lon="8.46879">
        <ele>2286</ele>
        <time>2021-08-11T14:38:11.167Z</time>
      </trkpt>
      <trkpt lat="46.87259" lon="8.4688">
        <ele>2286</ele>
        <time>2021-08-11T14:38:12.167Z</time>
      </trkpt>
      <trkpt lat="46.8726" lon="8.4688">
        <ele>2285</ele>
        <time>2021-08-11T14:38:13.167Z</time>
      </trkpt>
      <trkpt lat="46.87261" lon="8.4688">
        <ele>2285</ele>
        <time>2021-08-11T14:38:14.167Z</time>
      </trkpt>
      <trkpt lat="46.87262" lon="8.4688">
        <ele>2285</ele>
        <time>2021-08-11T14:38:15.166Z</time>
      </trkpt>
      <trkpt lat="46.87263" lon="8.4688">
        <ele>2285</ele>
        <time>2021-08-11T14:38:16.167Z</time>
      </trkpt>
      <trkpt lat="46.87264" lon="8.46879">
        <ele>2285</ele>
        <time>2021-08-11T14:38:17.166Z</time>
      </trkpt>
      <trkpt lat="46.87265" lon="8.46879">
        <ele>2284</ele>
        <time>2021-08-11T14:38:18.166Z</time>
      </trkpt>
      <trkpt lat="46.87266" lon="8.46878">
        <ele>2285</ele>
        <time>2021-08-11T14:38:19.167Z</time>
      </trkpt>
      <trkpt lat="46.87267" lon="8.46877">
        <ele>2285</ele>
        <time>2021-08-11T14:38:20.167Z</time>
      </trkpt>
      <trkpt lat="46.87267" lon="8.46876">
        <ele>2285</ele>
        <time>2021-08-11T14:38:21.167Z</time>
      </trkpt>
      <trkpt lat="46.87269" lon="8.46875">
        <ele>2285</ele>
        <time>2021-08-11T14:38:22.167Z</time>
      </trkpt>
      <trkpt lat="46.87269" lon="8.46875">
        <ele>2285</ele>
        <time>2021-08-11T14:38:23.166Z</time>
      </trkpt>
      <trkpt lat="46.8727" lon="8.46874">
        <ele>2285</ele>
        <time>2021-08-11T14:38:24.167Z</time>
      </trkpt>
      <trkpt lat="46.87271" lon="8.46873">
        <ele>2285</ele>
        <time>2021-08-11T14:38:25.167Z</time>
      </trkpt>
      <trkpt lat="46.87271" lon="8.46872">
        <ele>2286</ele>
        <time>2021-08-11T14:38:26.167Z</time>
      </trkpt>
      <trkpt lat="46.87272" lon="8.46871">
        <ele>2286</ele>
        <time>2021-08-11T14:38:27.167Z</time>
      </trkpt>
      <trkpt lat="46.87273" lon="8.4687">
        <ele>2286</ele>
        <time>2021-08-11T14:38:28.166Z</time>
      </trkpt>
      <trkpt lat="46.87273" lon="8.46869">
        <ele>2287</ele>
        <time>2021-08-11T14:38:29.167Z</time>
      </trkpt>
      <trkpt lat="46.87274" lon="8.46868">
        <ele>2287</ele>
        <time>2021-08-11T14:38:30.167Z</time>
      </trkpt>
      <trkpt lat="46.87274" lon="8.46868">
        <ele>2287</ele>
        <time>2021-08-11T14:38:31.167Z</time>
      </trkpt>
      <trkpt lat="46.87274" lon="8.46867">
        <ele>2287</ele>
        <time>2021-08-11T14:38:32.167Z</time>
      </trkpt>
      <trkpt lat="46.87275" lon="8.46867">
        <ele>2287</ele>
        <time>2021-08-11T14:38:33.166Z</time>
      </trkpt>
      <trkpt lat="46.87276" lon="8.46867">
        <ele>2287</ele>
        <time>2021-08-11T14:38:34.166Z</time>
      </trkpt>
      <trkpt lat="46.87276" lon="8.46866">
        <ele>2287</ele>
        <time>2021-08-11T14:38:35.167Z</time>
      </trkpt>
      <trkpt lat="46.87277" lon="8.46866">
        <ele>2288</ele>
        <time>2021-08-11T14:38:36.167Z</time>
      </trkpt>
      <trkpt lat="46.87278" lon="8.46865">
        <ele>2288</ele>
        <time>2021-08-11T14:38:37.167Z</time>
      </trkpt>
      <trkpt lat="46.87278" lon="8.46864">
        <ele>2288</ele>
        <time>2021-08-11T14:38:38.167Z</time>
      </trkpt>
      <trkpt lat="46.87278" lon="8.46864">
        <ele>2288</ele>
        <time>2021-08-11T14:38:39.166Z</time>
      </trkpt>
      <trkpt lat="46.87278" lon="8.46864">
        <ele>2287</ele>
        <time>2021-08-11T14:38:40.167Z</time>
      </trkpt>
      <trkpt lat="46.87279" lon="8.46863">
        <ele>2287</ele>
        <time>2021-08-11T14:38:41.166Z</time>
      </trkpt>
      <trkpt lat="46.8728" lon="8.46862">
        <ele>2287</ele>
        <time>2021-08-11T14:38:42.167Z</time>
      </trkpt>
      <trkpt lat="46.8728" lon="8.46862">
        <ele>2286</ele>
        <time>2021-08-11T14:38:43.166Z</time>
      </trkpt>
      <trkpt lat="46.87281" lon="8.46861">
        <ele>2286</ele>
        <time>2021-08-11T14:38:44.166Z</time>
      </trkpt>
      <trkpt lat="46.87282" lon="8.46861">
        <ele>2286</ele>
        <time>2021-08-11T14:38:45.167Z</time>
      </trkpt>
      <trkpt lat="46.87282" lon="8.4686">
        <ele>2286</ele>
        <time>2021-08-11T14:38:46.167Z</time>
      </trkpt>
      <trkpt lat="46.87283" lon="8.4686">
        <ele>2286</ele>
        <time>2021-08-11T14:38:47.167Z</time>
      </trkpt>
      <trkpt lat="46.87284" lon="8.4686">
        <ele>2286</ele>
        <time>2021-08-11T14:38:48.166Z</time>
      </trkpt>
      <trkpt lat="46.87285" lon="8.4686">
        <ele>2286</ele>
        <time>2021-08-11T14:38:49.167Z</time>
      </trkpt>
      <trkpt lat="46.87286" lon="8.4686">
        <ele>2286</ele>
        <time>2021-08-11T14:38:50.167Z</time>
      </trkpt>
      <trkpt lat="46.87287" lon="8.46859">
        <ele>2286</ele>
        <time>2021-08-11T14:38:51.166Z</time>
      </trkpt>
      <trkpt lat="46.87288" lon="8.46859">
        <ele>2286</ele>
        <time>2021-08-11T14:38:52.167Z</time>
      </trkpt>
      <trkpt lat="46.87288" lon="8.46859">
        <ele>2286</ele>
        <time>2021-08-11T14:38:53.167Z</time>
      </trkpt>
      <trkpt lat="46.87289" lon="8.46858">
        <ele>2286</ele>
        <time>2021-08-11T14:38:54.167Z</time>
      </trkpt>
      <trkpt lat="46.8729" lon="8.46858">
        <ele>2286</ele>
        <time>2021-08-11T14:38:55.167Z</time>
      </trkpt>
      <trkpt lat="46.87291" lon="8.46857">
        <ele>2286</ele>
        <time>2021-08-11T14:38:56.166Z</time>
      </trkpt>
      <trkpt lat="46.87291" lon="8.46856">
        <ele>2286</ele>
        <time>2021-08-11T14:38:57.167Z</time>
      </trkpt>
      <trkpt lat="46.87291" lon="8.46856">
        <ele>2286</ele>
        <time>2021-08-11T14:38:58.167Z</time>
      </trkpt>
      <trkpt lat="46.87291" lon="8.46855">
        <ele>2286</ele>
        <time>2021-08-11T14:38:59.167Z</time>
      </trkpt>
      <trkpt lat="46.8729" lon="8.46854">
        <ele>2286</ele>
        <time>2021-08-11T14:39:00.167Z</time>
      </trkpt>
      <trkpt lat="46.87291" lon="8.46854">
        <ele>2287</ele>
        <time>2021-08-11T14:39:01.167Z</time>
      </trkpt>
      <trkpt lat="46.87291" lon="8.46853">
        <ele>2287</ele>
        <time>2021-08-11T14:39:02.166Z</time>
      </trkpt>
      <trkpt lat="46.87291" lon="8.46852">
        <ele>2287</ele>
        <time>2021-08-11T14:39:03.167Z</time>
      </trkpt>
      <trkpt lat="46.87292" lon="8.46852">
        <ele>2288</ele>
        <time>2021-08-11T14:39:04.166Z</time>
      </trkpt>
      <trkpt lat="46.87293" lon="8.46851">
        <ele>2288</ele>
        <time>2021-08-11T14:39:05.166Z</time>
      </trkpt>
      <trkpt lat="46.87293" lon="8.46851">
        <ele>2288</ele>
        <time>2021-08-11T14:39:06.167Z</time>
      </trkpt>
      <trkpt lat="46.87294" lon="8.4685">
        <ele>2289</ele>
        <time>2021-08-11T14:39:07.166Z</time>
      </trkpt>
      <trkpt lat="46.87294" lon="8.4685">
        <ele>2289</ele>
        <time>2021-08-11T14:39:08.167Z</time>
      </trkpt>
      <trkpt lat="46.87294" lon="8.46848">
        <ele>2290</ele>
        <time>2021-08-11T14:39:09.167Z</time>
      </trkpt>
      <trkpt lat="46.87294" lon="8.46847">
        <ele>2290</ele>
        <time>2021-08-11T14:39:10.166Z</time>
      </trkpt>
      <trkpt lat="46.87295" lon="8.46846">
        <ele>2290</ele>
        <time>2021-08-11T14:39:11.166Z</time>
      </trkpt>
      <trkpt lat="46.87295" lon="8.46846">
        <ele>2291</ele>
        <time>2021-08-11T14:39:12.167Z</time>
      </trkpt>
      <trkpt lat="46.87295" lon="8.46845">
        <ele>2291</ele>
        <time>2021-08-11T14:39:13.166Z</time>
      </trkpt>
      <trkpt lat="46.87296" lon="8.46845">
        <ele>2292</ele>
        <time>2021-08-11T14:39:14.167Z</time>
      </trkpt>
      <trkpt lat="46.87297" lon="8.46844">
        <ele>2292</ele>
        <time>2021-08-11T14:39:15.167Z</time>
      </trkpt>
      <trkpt lat="46.87297" lon="8.46844">
        <ele>2293</ele>
        <time>2021-08-11T14:39:16.167Z</time>
      </trkpt>
      <trkpt lat="46.87297" lon="8.46843">
        <ele>2294</ele>
        <time>2021-08-11T14:39:17.167Z</time>
      </trkpt>
      <trkpt lat="46.87298" lon="8.46842">
        <ele>2294</ele>
        <time>2021-08-11T14:39:18.166Z</time>
      </trkpt>
      <trkpt lat="46.87298" lon="8.46842">
        <ele>2295</ele>
        <time>2021-08-11T14:39:19.167Z</time>
      </trkpt>
      <trkpt lat="46.87299" lon="8.46841">
        <ele>2295</ele>
        <time>2021-08-11T14:39:20.167Z</time>
      </trkpt>
      <trkpt lat="46.87299" lon="8.4684">
        <ele>2296</ele>
        <time>2021-08-11T14:39:21.167Z</time>
      </trkpt>
      <trkpt lat="46.87299" lon="8.46838">
        <ele>2296</ele>
        <time>2021-08-11T14:39:22.166Z</time>
      </trkpt>
      <trkpt lat="46.873" lon="8.46837">
        <ele>2296</ele>
        <time>2021-08-11T14:39:23.166Z</time>
      </trkpt>
      <trkpt lat="46.873" lon="8.46836">
        <ele>2296</ele>
        <time>2021-08-11T14:39:24.166Z</time>
      </trkpt>
      <trkpt lat="46.873" lon="8.46835">
        <ele>2296</ele>
        <time>2021-08-11T14:39:25.167Z</time>
      </trkpt>
      <trkpt lat="46.873" lon="8.46834">
        <ele>2296</ele>
        <time>2021-08-11T14:39:26.167Z</time>
      </trkpt>
      <trkpt lat="46.873" lon="8.46832">
        <ele>2296</ele>
        <time>2021-08-11T14:39:27.167Z</time>
      </trkpt>
      <trkpt lat="46.87301" lon="8.46832">
        <ele>2296</ele>
        <time>2021-08-11T14:39:28.166Z</time>
      </trkpt>
      <trkpt lat="46.87301" lon="8.46831">
        <ele>2296</ele>
        <time>2021-08-11T14:39:29.166Z</time>
      </trkpt>
      <trkpt lat="46.87301" lon="8.46831">
        <ele>2296</ele>
        <time>2021-08-11T14:39:30.166Z</time>
      </trkpt>
      <trkpt lat="46.87301" lon="8.4683">
        <ele>2296</ele>
        <time>2021-08-11T14:39:31.167Z</time>
      </trkpt>
      <trkpt lat="46.87302" lon="8.46829">
        <ele>2296</ele>
        <time>2021-08-11T14:39:32.167Z</time>
      </trkpt>
      <trkpt lat="46.87302" lon="8.46828">
        <ele>2296</ele>
        <time>2021-08-11T14:39:33.167Z</time>
      </trkpt>
      <trkpt lat="46.87302" lon="8.46827">
        <ele>2297</ele>
        <time>2021-08-11T14:39:34.166Z</time>
      </trkpt>
      <trkpt lat="46.87302" lon="8.46826">
        <ele>2297</ele>
        <time>2021-08-11T14:39:35.167Z</time>
      </trkpt>
      <trkpt lat="46.87302" lon="8.46825">
        <ele>2298</ele>
        <time>2021-08-11T14:39:36.167Z</time>
      </trkpt>
      <trkpt lat="46.87302" lon="8.46824">
        <ele>2298</ele>
        <time>2021-08-11T14:39:37.166Z</time>
      </trkpt>
      <trkpt lat="46.87301" lon="8.46822">
        <ele>2298</ele>
        <time>2021-08-11T14:39:38.166Z</time>
      </trkpt>
      <trkpt lat="46.87301" lon="8.46821">
        <ele>2298</ele>
        <time>2021-08-11T14:39:39.167Z</time>
      </trkpt>
      <trkpt lat="46.87302" lon="8.4682">
        <ele>2298</ele>
        <time>2021-08-11T14:39:40.166Z</time>
      </trkpt>
      <trkpt lat="46.87302" lon="8.4682">
        <ele>2298</ele>
        <time>2021-08-11T14:39:41.166Z</time>
      </trkpt>
      <trkpt lat="46.87303" lon="8.46819">
        <ele>2298</ele>
        <time>2021-08-11T14:39:42.167Z</time>
      </trkpt>
      <trkpt lat="46.87303" lon="8.46818">
        <ele>2298</ele>
        <time>2021-08-11T14:39:43.167Z</time>
      </trkpt>
      <trkpt lat="46.87303" lon="8.46817">
        <ele>2298</ele>
        <time>2021-08-11T14:39:44.167Z</time>
      </trkpt>
      <trkpt lat="46.87304" lon="8.46817">
        <ele>2298</ele>
        <time>2021-08-11T14:39:45.166Z</time>
      </trkpt>
      <trkpt lat="46.87305" lon="8.46816">
        <ele>2298</ele>
        <time>2021-08-11T14:39:46.166Z</time>
      </trkpt>
      <trkpt lat="46.87305" lon="8.46816">
        <ele>2298</ele>
        <time>2021-08-11T14:39:47.167Z</time>
      </trkpt>
      <trkpt lat="46.87306" lon="8.46816">
        <ele>2298</ele>
        <time>2021-08-11T14:39:48.166Z</time>
      </trkpt>
      <trkpt lat="46.87306" lon="8.46816">
        <ele>2298</ele>
        <time>2021-08-11T14:39:49.166Z</time>
      </trkpt>
      <trkpt lat="46.87308" lon="8.46815">
        <ele>2298</ele>
        <time>2021-08-11T14:39:50.167Z</time>
      </trkpt>
      <trkpt lat="46.87308" lon="8.46814">
        <ele>2298</ele>
        <time>2021-08-11T14:39:51.167Z</time>
      </trkpt>
      <trkpt lat="46.87308" lon="8.46814">
        <ele>2298</ele>
        <time>2021-08-11T14:39:52.167Z</time>
      </trkpt>
      <trkpt lat="46.87309" lon="8.46814">
        <ele>2298</ele>
        <time>2021-08-11T14:39:53.166Z</time>
      </trkpt>
      <trkpt lat="46.87309" lon="8.46814">
        <ele>2298</ele>
        <time>2021-08-11T14:39:54.167Z</time>
      </trkpt>
      <trkpt lat="46.8731" lon="8.46814">
        <ele>2298</ele>
        <time>2021-08-11T14:39:55.166Z</time>
      </trkpt>
      <trkpt lat="46.87311" lon="8.46814">
        <ele>2298</ele>
        <time>2021-08-11T14:39:56.167Z</time>
      </trkpt>
      <trkpt lat="46.87311" lon="8.46813">
        <ele>2299</ele>
        <time>2021-08-11T14:39:57.167Z</time>
      </trkpt>
      <trkpt lat="46.87312" lon="8.46813">
        <ele>2299</ele>
        <time>2021-08-11T14:39:58.166Z</time>
      </trkpt>
      <trkpt lat="46.87313" lon="8.46813">
        <ele>2299</ele>
        <time>2021-08-11T14:39:59.166Z</time>
      </trkpt>
      <trkpt lat="46.87313" lon="8.46812">
        <ele>2299</ele>
        <time>2021-08-11T14:40:00.167Z</time>
      </trkpt>
      <trkpt lat="46.87314" lon="8.46812">
        <ele>2299</ele>
        <time>2021-08-11T14:40:01.167Z</time>
      </trkpt>
      <trkpt lat="46.87315" lon="8.46811">
        <ele>2299</ele>
        <time>2021-08-11T14:40:02.167Z</time>
      </trkpt>
      <trkpt lat="46.87315" lon="8.4681">
        <ele>2299</ele>
        <time>2021-08-11T14:40:03.166Z</time>
      </trkpt>
      <trkpt lat="46.87316" lon="8.4681">
        <ele>2299</ele>
        <time>2021-08-11T14:40:04.166Z</time>
      </trkpt>
      <trkpt lat="46.87316" lon="8.46809">
        <ele>2299</ele>
        <time>2021-08-11T14:40:05.166Z</time>
      </trkpt>
      <trkpt lat="46.87317" lon="8.46809">
        <ele>2299</ele>
        <time>2021-08-11T14:40:06.167Z</time>
      </trkpt>
      <trkpt lat="46.87317" lon="8.46809">
        <ele>2299</ele>
        <time>2021-08-11T14:40:07.167Z</time>
      </trkpt>
      <trkpt lat="46.87318" lon="8.46809">
        <ele>2299</ele>
        <time>2021-08-11T14:40:08.167Z</time>
      </trkpt>
      <trkpt lat="46.87318" lon="8.46809">
        <ele>2298</ele>
        <time>2021-08-11T14:40:09.166Z</time>
      </trkpt>
      <trkpt lat="46.87319" lon="8.46808">
        <ele>2298</ele>
        <time>2021-08-11T14:40:10.167Z</time>
      </trkpt>
      <trkpt lat="46.87319" lon="8.46808">
        <ele>2298</ele>
        <time>2021-08-11T14:40:11.166Z</time>
      </trkpt>
      <trkpt lat="46.8732" lon="8.46807">
        <ele>2298</ele>
        <time>2021-08-11T14:40:12.167Z</time>
      </trkpt>
      <trkpt lat="46.8732" lon="8.46807">
        <ele>2299</ele>
        <time>2021-08-11T14:40:13.167Z</time>
      </trkpt>
      <trkpt lat="46.8732" lon="8.46807">
        <ele>2299</ele>
        <time>2021-08-11T14:40:14.166Z</time>
      </trkpt>
      <trkpt lat="46.87321" lon="8.46807">
        <ele>2299</ele>
        <time>2021-08-11T14:40:15.166Z</time>
      </trkpt>
      <trkpt lat="46.87322" lon="8.46806">
        <ele>2300</ele>
        <time>2021-08-11T14:40:16.167Z</time>
      </trkpt>
      <trkpt lat="46.87322" lon="8.46806">
        <ele>2300</ele>
        <time>2021-08-11T14:40:17.167Z</time>
      </trkpt>
      <trkpt lat="46.87322" lon="8.46805">
        <ele>2301</ele>
        <time>2021-08-11T14:40:18.166Z</time>
      </trkpt>
      <trkpt lat="46.87323" lon="8.46804">
        <ele>2301</ele>
        <time>2021-08-11T14:40:19.167Z</time>
      </trkpt>
      <trkpt lat="46.87323" lon="8.46804">
        <ele>2302</ele>
        <time>2021-08-11T14:40:20.167Z</time>
      </trkpt>
      <trkpt lat="46.87324" lon="8.46803">
        <ele>2302</ele>
        <time>2021-08-11T14:40:21.166Z</time>
      </trkpt>
      <trkpt lat="46.87324" lon="8.46802">
        <ele>2303</ele>
        <time>2021-08-11T14:40:22.167Z</time>
      </trkpt>
      <trkpt lat="46.87324" lon="8.46802">
        <ele>2303</ele>
        <time>2021-08-11T14:40:23.166Z</time>
      </trkpt>
      <trkpt lat="46.87324" lon="8.46801">
        <ele>2303</ele>
        <time>2021-08-11T14:40:24.167Z</time>
      </trkpt>
      <trkpt lat="46.87325" lon="8.46801">
        <ele>2303</ele>
        <time>2021-08-11T14:40:25.167Z</time>
      </trkpt>
      <trkpt lat="46.87325" lon="8.46801">
        <ele>2304</ele>
        <time>2021-08-11T14:40:26.166Z</time>
      </trkpt>
      <trkpt lat="46.87327" lon="8.468">
        <ele>2304</ele>
        <time>2021-08-11T14:40:27.167Z</time>
      </trkpt>
      <trkpt lat="46.87327" lon="8.468">
        <ele>2304</ele>
        <time>2021-08-11T14:40:28.167Z</time>
      </trkpt>
      <trkpt lat="46.87328" lon="8.46799">
        <ele>2304</ele>
        <time>2021-08-11T14:40:29.167Z</time>
      </trkpt>
      <trkpt lat="46.87328" lon="8.46799">
        <ele>2303</ele>
        <time>2021-08-11T14:40:30.167Z</time>
      </trkpt>
      <trkpt lat="46.87329" lon="8.46798">
        <ele>2303</ele>
        <time>2021-08-11T14:40:31.166Z</time>
      </trkpt>
      <trkpt lat="46.87329" lon="8.46797">
        <ele>2303</ele>
        <time>2021-08-11T14:40:32.166Z</time>
      </trkpt>
      <trkpt lat="46.87329" lon="8.46796">
        <ele>2303</ele>
        <time>2021-08-11T14:40:33.167Z</time>
      </trkpt>
      <trkpt lat="46.8733" lon="8.46796">
        <ele>2303</ele>
        <time>2021-08-11T14:40:34.167Z</time>
      </trkpt>
      <trkpt lat="46.8733" lon="8.46795">
        <ele>2303</ele>
        <time>2021-08-11T14:40:35.166Z</time>
      </trkpt>
      <trkpt lat="46.87331" lon="8.46795">
        <ele>2303</ele>
        <time>2021-08-11T14:40:36.167Z</time>
      </trkpt>
      <trkpt lat="46.87331" lon="8.46794">
        <ele>2303</ele>
        <time>2021-08-11T14:40:37.166Z</time>
      </trkpt>
      <trkpt lat="46.87331" lon="8.46793">
        <ele>2303</ele>
        <time>2021-08-11T14:40:38.166Z</time>
      </trkpt>
      <trkpt lat="46.87331" lon="8.46792">
        <ele>2304</ele>
        <time>2021-08-11T14:40:39.166Z</time>
      </trkpt>
      <trkpt lat="46.87331" lon="8.46792">
        <ele>2304</ele>
        <time>2021-08-11T14:40:40.166Z</time>
      </trkpt>
      <trkpt lat="46.87331" lon="8.46791">
        <ele>2304</ele>
        <time>2021-08-11T14:40:41.167Z</time>
      </trkpt>
      <trkpt lat="46.87332" lon="8.46789">
        <ele>2305</ele>
        <time>2021-08-11T14:40:42.168Z</time>
      </trkpt>
      <trkpt lat="46.87332" lon="8.46789">
        <ele>2305</ele>
        <time>2021-08-11T14:40:43.167Z</time>
      </trkpt>
      <trkpt lat="46.87332" lon="8.46788">
        <ele>2305</ele>
        <time>2021-08-11T14:40:44.167Z</time>
      </trkpt>
      <trkpt lat="46.87332" lon="8.46789">
        <ele>2306</ele>
        <time>2021-08-11T14:40:45.168Z</time>
      </trkpt>
      <trkpt lat="46.87332" lon="8.46788">
        <ele>2306</ele>
        <time>2021-08-11T14:40:46.168Z</time>
      </trkpt>
      <trkpt lat="46.87331" lon="8.46788">
        <ele>2306</ele>
        <time>2021-08-11T14:40:47.168Z</time>
      </trkpt>
      <trkpt lat="46.8733" lon="8.46788">
        <ele>2307</ele>
        <time>2021-08-11T14:40:48.168Z</time>
      </trkpt>
      <trkpt lat="46.87329" lon="8.46785">
        <ele>2308</ele>
        <time>2021-08-11T14:40:49.169Z</time>
      </trkpt>
      <trkpt lat="46.87328" lon="8.46784">
        <ele>2309</ele>
        <time>2021-08-11T14:40:50.169Z</time>
      </trkpt>
      <trkpt lat="46.87328" lon="8.46784">
        <ele>2309</ele>
        <time>2021-08-11T14:40:51.169Z</time>
      </trkpt>
      <trkpt lat="46.87328" lon="8.46784">
        <ele>2310</ele>
        <time>2021-08-11T14:40:52.168Z</time>
      </trkpt>
      <trkpt lat="46.87329" lon="8.46785">
        <ele>2311</ele>
        <time>2021-08-11T14:40:53.169Z</time>
      </trkpt>
      <trkpt lat="46.87329" lon="8.46785">
        <ele>2311</ele>
        <time>2021-08-11T14:40:54.170Z</time>
      </trkpt>
      <trkpt lat="46.87329" lon="8.46784">
        <ele>2311</ele>
        <time>2021-08-11T14:40:55.169Z</time>
      </trkpt>
      <trkpt lat="46.87329" lon="8.46784">
        <ele>2311</ele>
        <time>2021-08-11T14:40:56.170Z</time>
      </trkpt>
      <trkpt lat="46.87329" lon="8.46784">
        <ele>2311</ele>
        <time>2021-08-11T14:40:57.170Z</time>
      </trkpt>
      <trkpt lat="46.8733" lon="8.46783">
        <ele>2311</ele>
        <time>2021-08-11T14:40:58.169Z</time>
      </trkpt>
      <trkpt lat="46.87329" lon="8.46783">
        <ele>2311</ele>
        <time>2021-08-11T14:40:59.170Z</time>
      </trkpt>
      <trkpt lat="46.87329" lon="8.46782">
        <ele>2311</ele>
        <time>2021-08-11T14:41:00.170Z</time>
      </trkpt>
      <trkpt lat="46.87329" lon="8.46782">
        <ele>2311</ele>
        <time>2021-08-11T14:41:01.170Z</time>
      </trkpt>
      <trkpt lat="46.8733" lon="8.46782">
        <ele>2311</ele>
        <time>2021-08-11T14:41:02.170Z</time>
      </trkpt>
      <trkpt lat="46.8733" lon="8.46781">
        <ele>2311</ele>
        <time>2021-08-11T14:41:03.170Z</time>
      </trkpt>
      <trkpt lat="46.87331" lon="8.46781">
        <ele>2311</ele>
        <time>2021-08-11T14:41:04.170Z</time>
      </trkpt>
      <trkpt lat="46.87332" lon="8.46781">
        <ele>2311</ele>
        <time>2021-08-11T14:41:05.169Z</time>
      </trkpt>
      <trkpt lat="46.87333" lon="8.46782">
        <ele>2311</ele>
        <time>2021-08-11T14:41:06.169Z</time>
      </trkpt>
      <trkpt lat="46.87334" lon="8.46783">
        <ele>2312</ele>
        <time>2021-08-11T14:41:07.170Z</time>
      </trkpt>
      <trkpt lat="46.87335" lon="8.46784">
        <ele>2312</ele>
        <time>2021-08-11T14:41:08.170Z</time>
      </trkpt>
      <trkpt lat="46.87335" lon="8.46784">
        <ele>2312</ele>
        <time>2021-08-11T14:41:09.170Z</time>
      </trkpt>
      <trkpt lat="46.87336" lon="8.46784">
        <ele>2312</ele>
        <time>2021-08-11T14:41:10.170Z</time>
      </trkpt>
      <trkpt lat="46.87337" lon="8.46785">
        <ele>2313</ele>
        <time>2021-08-11T14:41:11.169Z</time>
      </trkpt>
      <trkpt lat="46.87337" lon="8.46785">
        <ele>2313</ele>
        <time>2021-08-11T14:41:12.170Z</time>
      </trkpt>
      <trkpt lat="46.87338" lon="8.46785">
        <ele>2313</ele>
        <time>2021-08-11T14:41:13.170Z</time>
      </trkpt>
      <trkpt lat="46.87338" lon="8.46785">
        <ele>2313</ele>
        <time>2021-08-11T14:41:14.170Z</time>
      </trkpt>
      <trkpt lat="46.87339" lon="8.46784">
        <ele>2313</ele>
        <time>2021-08-11T14:41:15.169Z</time>
      </trkpt>
      <trkpt lat="46.87339" lon="8.46783">
        <ele>2313</ele>
        <time>2021-08-11T14:41:16.169Z</time>
      </trkpt>
      <trkpt lat="46.87339" lon="8.46782">
        <ele>2313</ele>
        <time>2021-08-11T14:41:17.170Z</time>
      </trkpt>
      <trkpt lat="46.87339" lon="8.46781">
        <ele>2313</ele>
        <time>2021-08-11T14:41:18.170Z</time>
      </trkpt>
      <trkpt lat="46.8734" lon="8.46781">
        <ele>2313</ele>
        <time>2021-08-11T14:41:19.170Z</time>
      </trkpt>
      <trkpt lat="46.87341" lon="8.46781">
        <ele>2313</ele>
        <time>2021-08-11T14:41:20.170Z</time>
      </trkpt>
      <trkpt lat="46.87341" lon="8.46781">
        <ele>2313</ele>
        <time>2021-08-11T14:41:21.169Z</time>
      </trkpt>
      <trkpt lat="46.87342" lon="8.46781">
        <ele>2313</ele>
        <time>2021-08-11T14:41:22.169Z</time>
      </trkpt>
      <trkpt lat="46.87343" lon="8.46781">
        <ele>2312</ele>
        <time>2021-08-11T14:41:23.170Z</time>
      </trkpt>
      <trkpt lat="46.87344" lon="8.4678">
        <ele>2312</ele>
        <time>2021-08-11T14:41:24.170Z</time>
      </trkpt>
      <trkpt lat="46.87345" lon="8.4678">
        <ele>2312</ele>
        <time>2021-08-11T14:41:25.170Z</time>
      </trkpt>
      <trkpt lat="46.87345" lon="8.46779">
        <ele>2312</ele>
        <time>2021-08-11T14:41:26.170Z</time>
      </trkpt>
      <trkpt lat="46.87346" lon="8.46779">
        <ele>2312</ele>
        <time>2021-08-11T14:41:27.169Z</time>
      </trkpt>
      <trkpt lat="46.87346" lon="8.46778">
        <ele>2312</ele>
        <time>2021-08-11T14:41:28.169Z</time>
      </trkpt>
      <trkpt lat="46.87347" lon="8.46778">
        <ele>2312</ele>
        <time>2021-08-11T14:41:29.170Z</time>
      </trkpt>
      <trkpt lat="46.87348" lon="8.46778">
        <ele>2311</ele>
        <time>2021-08-11T14:41:30.169Z</time>
      </trkpt>
      <trkpt lat="46.87348" lon="8.46778">
        <ele>2311</ele>
        <time>2021-08-11T14:41:31.169Z</time>
      </trkpt>
      <trkpt lat="46.87349" lon="8.46777">
        <ele>2311</ele>
        <time>2021-08-11T14:41:32.170Z</time>
      </trkpt>
      <trkpt lat="46.87349" lon="8.46777">
        <ele>2311</ele>
        <time>2021-08-11T14:41:33.170Z</time>
      </trkpt>
      <trkpt lat="46.87349" lon="8.46776">
        <ele>2310</ele>
        <time>2021-08-11T14:41:34.170Z</time>
      </trkpt>
      <trkpt lat="46.8735" lon="8.46776">
        <ele>2310</ele>
        <time>2021-08-11T14:41:35.169Z</time>
      </trkpt>
      <trkpt lat="46.87351" lon="8.46776">
        <ele>2309</ele>
        <time>2021-08-11T14:41:36.169Z</time>
      </trkpt>
      <trkpt lat="46.87352" lon="8.46775">
        <ele>2309</ele>
        <time>2021-08-11T14:41:37.170Z</time>
      </trkpt>
      <trkpt lat="46.87352" lon="8.46774">
        <ele>2308</ele>
        <time>2021-08-11T14:41:38.170Z</time>
      </trkpt>
      <trkpt lat="46.87353" lon="8.46774">
        <ele>2308</ele>
        <time>2021-08-11T14:41:39.170Z</time>
      </trkpt>
      <trkpt lat="46.87353" lon="8.46773">
        <ele>2308</ele>
        <time>2021-08-11T14:41:40.170Z</time>
      </trkpt>
      <trkpt lat="46.87354" lon="8.46773">
        <ele>2308</ele>
        <time>2021-08-11T14:41:41.170Z</time>
      </trkpt>
      <trkpt lat="46.87354" lon="8.46773">
        <ele>2308</ele>
        <time>2021-08-11T14:41:42.170Z</time>
      </trkpt>
      <trkpt lat="46.87355" lon="8.46773">
        <ele>2308</ele>
        <time>2021-08-11T14:41:43.169Z</time>
      </trkpt>
      <trkpt lat="46.87355" lon="8.46772">
        <ele>2308</ele>
        <time>2021-08-11T14:41:44.170Z</time>
      </trkpt>
      <trkpt lat="46.87356" lon="8.46772">
        <ele>2308</ele>
        <time>2021-08-11T14:41:45.170Z</time>
      </trkpt>
      <trkpt lat="46.87356" lon="8.46772">
        <ele>2308</ele>
        <time>2021-08-11T14:41:46.170Z</time>
      </trkpt>
      <trkpt lat="46.87356" lon="8.46772">
        <ele>2307</ele>
        <time>2021-08-11T14:41:47.170Z</time>
      </trkpt>
      <trkpt lat="46.87357" lon="8.46772">
        <ele>2307</ele>
        <time>2021-08-11T14:41:48.170Z</time>
      </trkpt>
      <trkpt lat="46.87357" lon="8.46772">
        <ele>2307</ele>
        <time>2021-08-11T14:41:49.169Z</time>
      </trkpt>
      <trkpt lat="46.87358" lon="8.46771">
        <ele>2308</ele>
        <time>2021-08-11T14:41:50.170Z</time>
      </trkpt>
      <trkpt lat="46.87357" lon="8.46771">
        <ele>2308</ele>
        <time>2021-08-11T14:41:51.170Z</time>
      </trkpt>
      <trkpt lat="46.87358" lon="8.46771">
        <ele>2308</ele>
        <time>2021-08-11T14:41:52.170Z</time>
      </trkpt>
      <trkpt lat="46.87358" lon="8.4677">
        <ele>2308</ele>
        <time>2021-08-11T14:41:53.170Z</time>
      </trkpt>
      <trkpt lat="46.87358" lon="8.4677">
        <ele>2308</ele>
        <time>2021-08-11T14:41:54.169Z</time>
      </trkpt>
      <trkpt lat="46.87358" lon="8.46769">
        <ele>2308</ele>
        <time>2021-08-11T14:41:55.169Z</time>
      </trkpt>
      <trkpt lat="46.87359" lon="8.46769">
        <ele>2308</ele>
        <time>2021-08-11T14:41:56.170Z</time>
      </trkpt>
      <trkpt lat="46.87359" lon="8.46768">
        <ele>2308</ele>
        <time>2021-08-11T14:41:57.170Z</time>
      </trkpt>
      <trkpt lat="46.87359" lon="8.46768">
        <ele>2308</ele>
        <time>2021-08-11T14:41:58.170Z</time>
      </trkpt>
      <trkpt lat="46.87359" lon="8.46767">
        <ele>2308</ele>
        <time>2021-08-11T14:41:59.170Z</time>
      </trkpt>
      <trkpt lat="46.87359" lon="8.46767">
        <ele>2309</ele>
        <time>2021-08-11T14:42:00.170Z</time>
      </trkpt>
      <trkpt lat="46.87359" lon="8.46766">
        <ele>2309</ele>
        <time>2021-08-11T14:42:01.169Z</time>
      </trkpt>
      <trkpt lat="46.8736" lon="8.46765">
        <ele>2309</ele>
        <time>2021-08-11T14:42:02.170Z</time>
      </trkpt>
      <trkpt lat="46.8736" lon="8.46765">
        <ele>2309</ele>
        <time>2021-08-11T14:42:03.170Z</time>
      </trkpt>
      <trkpt lat="46.87361" lon="8.46764">
        <ele>2309</ele>
        <time>2021-08-11T14:42:04.169Z</time>
      </trkpt>
      <trkpt lat="46.87361" lon="8.46764">
        <ele>2310</ele>
        <time>2021-08-11T14:42:05.170Z</time>
      </trkpt>
      <trkpt lat="46.87361" lon="8.46763">
        <ele>2310</ele>
        <time>2021-08-11T14:42:06.169Z</time>
      </trkpt>
      <trkpt lat="46.87361" lon="8.46763">
        <ele>2310</ele>
        <time>2021-08-11T14:42:07.170Z</time>
      </trkpt>
      <trkpt lat="46.87362" lon="8.46764">
        <ele>2311</ele>
        <time>2021-08-11T14:42:08.170Z</time>
      </trkpt>
      <trkpt lat="46.87362" lon="8.46764">
        <ele>2310</ele>
        <time>2021-08-11T14:42:09.170Z</time>
      </trkpt>
      <trkpt lat="46.87362" lon="8.46765">
        <ele>2310</ele>
        <time>2021-08-11T14:42:10.170Z</time>
      </trkpt>
      <trkpt lat="46.87362" lon="8.46765">
        <ele>2310</ele>
        <time>2021-08-11T14:42:11.169Z</time>
      </trkpt>
      <trkpt lat="46.87361" lon="8.46766">
        <ele>2309</ele>
        <time>2021-08-11T14:42:12.170Z</time>
      </trkpt>
      <trkpt lat="46.87361" lon="8.46767">
        <ele>2309</ele>
        <time>2021-08-11T14:42:13.170Z</time>
      </trkpt>
      <trkpt lat="46.87362" lon="8.46767">
        <ele>2309</ele>
        <time>2021-08-11T14:42:14.170Z</time>
      </trkpt>
      <trkpt lat="46.87362" lon="8.46767">
        <ele>2309</ele>
        <time>2021-08-11T14:42:15.169Z</time>
      </trkpt>
      <trkpt lat="46.87362" lon="8.46767">
        <ele>2309</ele>
        <time>2021-08-11T14:42:16.170Z</time>
      </trkpt>
      <trkpt lat="46.87363" lon="8.46767">
        <ele>2309</ele>
        <time>2021-08-11T14:42:17.169Z</time>
      </trkpt>
      <trkpt lat="46.87363" lon="8.46767">
        <ele>2309</ele>
        <time>2021-08-11T14:42:18.170Z</time>
      </trkpt>
      <trkpt lat="46.87364" lon="8.46766">
        <ele>2309</ele>
        <time>2021-08-11T14:42:19.169Z</time>
      </trkpt>
      <trkpt lat="46.87364" lon="8.46766">
        <ele>2309</ele>
        <time>2021-08-11T14:42:20.170Z</time>
      </trkpt>
      <trkpt lat="46.87364" lon="8.46765">
        <ele>2309</ele>
        <time>2021-08-11T14:42:21.170Z</time>
      </trkpt>
      <trkpt lat="46.87365" lon="8.46765">
        <ele>2309</ele>
        <time>2021-08-11T14:42:22.169Z</time>
      </trkpt>
      <trkpt lat="46.87365" lon="8.46764">
        <ele>2309</ele>
        <time>2021-08-11T14:42:23.170Z</time>
      </trkpt>
      <trkpt lat="46.87365" lon="8.46764">
        <ele>2309</ele>
        <time>2021-08-11T14:42:24.169Z</time>
      </trkpt>
      <trkpt lat="46.87366" lon="8.46764">
        <ele>2309</ele>
        <time>2021-08-11T14:42:25.170Z</time>
      </trkpt>
      <trkpt lat="46.87366" lon="8.46763">
        <ele>2309</ele>
        <time>2021-08-11T14:42:26.170Z</time>
      </trkpt>
      <trkpt lat="46.87367" lon="8.46763">
        <ele>2310</ele>
        <time>2021-08-11T14:42:27.170Z</time>
      </trkpt>
      <trkpt lat="46.87367" lon="8.46763">
        <ele>2310</ele>
        <time>2021-08-11T14:42:28.170Z</time>
      </trkpt>
      <trkpt lat="46.87368" lon="8.46762">
        <ele>2310</ele>
        <time>2021-08-11T14:42:29.170Z</time>
      </trkpt>
      <trkpt lat="46.87369" lon="8.46762">
        <ele>2310</ele>
        <time>2021-08-11T14:42:30.170Z</time>
      </trkpt>
      <trkpt lat="46.87369" lon="8.46761">
        <ele>2310</ele>
        <time>2021-08-11T14:42:31.170Z</time>
      </trkpt>
      <trkpt lat="46.87369" lon="8.46761">
        <ele>2310</ele>
        <time>2021-08-11T14:42:32.169Z</time>
      </trkpt>
      <trkpt lat="46.87369" lon="8.46761">
        <ele>2311</ele>
        <time>2021-08-11T14:42:33.169Z</time>
      </trkpt>
      <trkpt lat="46.87369" lon="8.46762">
        <ele>2312</ele>
        <time>2021-08-11T14:42:34.170Z</time>
      </trkpt>
      <trkpt lat="46.8737" lon="8.46762">
        <ele>2312</ele>
        <time>2021-08-11T14:42:35.169Z</time>
      </trkpt>
      <trkpt lat="46.87371" lon="8.46762">
        <ele>2315</ele>
        <time>2021-08-11T14:42:36.171Z</time>
      </trkpt>
      <trkpt lat="46.87371" lon="8.46762">
        <ele>2315</ele>
        <time>2021-08-11T14:42:37.171Z</time>
      </trkpt>
      <trkpt lat="46.87372" lon="8.46762">
        <ele>2316</ele>
        <time>2021-08-11T14:42:38.170Z</time>
      </trkpt>
      <trkpt lat="46.87372" lon="8.46762">
        <ele>2316</ele>
        <time>2021-08-11T14:42:39.170Z</time>
      </trkpt>
      <trkpt lat="46.87373" lon="8.46761">
        <ele>2316</ele>
        <time>2021-08-11T14:42:40.171Z</time>
      </trkpt>
      <trkpt lat="46.87373" lon="8.46761">
        <ele>2317</ele>
        <time>2021-08-11T14:42:41.171Z</time>
      </trkpt>
      <trkpt lat="46.87374" lon="8.4676">
        <ele>2317</ele>
        <time>2021-08-11T14:42:42.171Z</time>
      </trkpt>
      <trkpt lat="46.87375" lon="8.4676">
        <ele>2317</ele>
        <time>2021-08-11T14:42:43.170Z</time>
      </trkpt>
      <trkpt lat="46.87376" lon="8.4676">
        <ele>2317</ele>
        <time>2021-08-11T14:42:44.171Z</time>
      </trkpt>
      <trkpt lat="46.87376" lon="8.4676">
        <ele>2317</ele>
        <time>2021-08-11T14:42:45.171Z</time>
      </trkpt>
      <trkpt lat="46.87376" lon="8.46759">
        <ele>2317</ele>
        <time>2021-08-11T14:42:46.170Z</time>
      </trkpt>
      <trkpt lat="46.87377" lon="8.46758">
        <ele>2317</ele>
        <time>2021-08-11T14:42:47.171Z</time>
      </trkpt>
      <trkpt lat="46.87378" lon="8.46758">
        <ele>2317</ele>
        <time>2021-08-11T14:42:48.171Z</time>
      </trkpt>
      <trkpt lat="46.87378" lon="8.46757">
        <ele>2317</ele>
        <time>2021-08-11T14:42:49.171Z</time>
      </trkpt>
      <trkpt lat="46.87378" lon="8.46756">
        <ele>2318</ele>
        <time>2021-08-11T14:42:50.171Z</time>
      </trkpt>
      <trkpt lat="46.87378" lon="8.46755">
        <ele>2318</ele>
        <time>2021-08-11T14:42:51.171Z</time>
      </trkpt>
      <trkpt lat="46.87379" lon="8.46755">
        <ele>2318</ele>
        <time>2021-08-11T14:42:52.170Z</time>
      </trkpt>
      <trkpt lat="46.87379" lon="8.46754">
        <ele>2318</ele>
        <time>2021-08-11T14:42:53.171Z</time>
      </trkpt>
      <trkpt lat="46.8738" lon="8.46754">
        <ele>2317</ele>
        <time>2021-08-11T14:42:54.171Z</time>
      </trkpt>
      <trkpt lat="46.8738" lon="8.46753">
        <ele>2317</ele>
        <time>2021-08-11T14:42:55.171Z</time>
      </trkpt>
      <trkpt lat="46.8738" lon="8.46752">
        <ele>2318</ele>
        <time>2021-08-11T14:42:56.171Z</time>
      </trkpt>
      <trkpt lat="46.8738" lon="8.46751">
        <ele>2318</ele>
        <time>2021-08-11T14:42:57.170Z</time>
      </trkpt>
      <trkpt lat="46.8738" lon="8.4675">
        <ele>2318</ele>
        <time>2021-08-11T14:42:58.171Z</time>
      </trkpt>
      <trkpt lat="46.87381" lon="8.4675">
        <ele>2318</ele>
        <time>2021-08-11T14:42:59.170Z</time>
      </trkpt>
      <trkpt lat="46.87382" lon="8.46749">
        <ele>2318</ele>
        <time>2021-08-11T14:43:00.171Z</time>
      </trkpt>
      <trkpt lat="46.87382" lon="8.46749">
        <ele>2318</ele>
        <time>2021-08-11T14:43:01.171Z</time>
      </trkpt>
      <trkpt lat="46.87383" lon="8.46749">
        <ele>2318</ele>
        <time>2021-08-11T14:43:02.171Z</time>
      </trkpt>
      <trkpt lat="46.87383" lon="8.46748">
        <ele>2318</ele>
        <time>2021-08-11T14:43:03.171Z</time>
      </trkpt>
      <trkpt lat="46.87383" lon="8.46747">
        <ele>2318</ele>
        <time>2021-08-11T14:43:04.171Z</time>
      </trkpt>
      <trkpt lat="46.87383" lon="8.46747">
        <ele>2318</ele>
        <time>2021-08-11T14:43:05.171Z</time>
      </trkpt>
      <trkpt lat="46.87384" lon="8.46746">
        <ele>2318</ele>
        <time>2021-08-11T14:43:06.171Z</time>
      </trkpt>
      <trkpt lat="46.87384" lon="8.46745">
        <ele>2318</ele>
        <time>2021-08-11T14:43:07.170Z</time>
      </trkpt>
      <trkpt lat="46.87384" lon="8.46745">
        <ele>2318</ele>
        <time>2021-08-11T14:43:08.171Z</time>
      </trkpt>
      <trkpt lat="46.87385" lon="8.46745">
        <ele>2318</ele>
        <time>2021-08-11T14:43:09.172Z</time>
      </trkpt>
      <trkpt lat="46.87386" lon="8.46744">
        <ele>2318</ele>
        <time>2021-08-11T14:43:10.172Z</time>
      </trkpt>
      <trkpt lat="46.87385" lon="8.46743">
        <ele>2319</ele>
        <time>2021-08-11T14:43:11.172Z</time>
      </trkpt>
      <trkpt lat="46.87386" lon="8.46742">
        <ele>2319</ele>
        <time>2021-08-11T14:43:12.172Z</time>
      </trkpt>
      <trkpt lat="46.87386" lon="8.46741">
        <ele>2319</ele>
        <time>2021-08-11T14:43:13.173Z</time>
      </trkpt>
      <trkpt lat="46.87386" lon="8.46741">
        <ele>2319</ele>
        <time>2021-08-11T14:43:14.173Z</time>
      </trkpt>
      <trkpt lat="46.87387" lon="8.4674">
        <ele>2319</ele>
        <time>2021-08-11T14:43:15.173Z</time>
      </trkpt>
      <trkpt lat="46.87387" lon="8.46739">
        <ele>2319</ele>
        <time>2021-08-11T14:43:16.173Z</time>
      </trkpt>
      <trkpt lat="46.87387" lon="8.46738">
        <ele>2319</ele>
        <time>2021-08-11T14:43:17.172Z</time>
      </trkpt>
      <trkpt lat="46.87387" lon="8.46738">
        <ele>2319</ele>
        <time>2021-08-11T14:43:18.173Z</time>
      </trkpt>
      <trkpt lat="46.87387" lon="8.46737">
        <ele>2319</ele>
        <time>2021-08-11T14:43:19.173Z</time>
      </trkpt>
      <trkpt lat="46.87387" lon="8.46736">
        <ele>2319</ele>
        <time>2021-08-11T14:43:20.173Z</time>
      </trkpt>
      <trkpt lat="46.87388" lon="8.46736">
        <ele>2320</ele>
        <time>2021-08-11T14:43:21.173Z</time>
      </trkpt>
      <trkpt lat="46.87388" lon="8.46735">
        <ele>2320</ele>
        <time>2021-08-11T14:43:22.173Z</time>
      </trkpt>
      <trkpt lat="46.87389" lon="8.46735">
        <ele>2320</ele>
        <time>2021-08-11T14:43:23.173Z</time>
      </trkpt>
      <trkpt lat="46.8739" lon="8.46734">
        <ele>2321</ele>
        <time>2021-08-11T14:43:24.173Z</time>
      </trkpt>
      <trkpt lat="46.8739" lon="8.46733">
        <ele>2321</ele>
        <time>2021-08-11T14:43:25.173Z</time>
      </trkpt>
      <trkpt lat="46.8739" lon="8.46733">
        <ele>2321</ele>
        <time>2021-08-11T14:43:26.173Z</time>
      </trkpt>
      <trkpt lat="46.87391" lon="8.46732">
        <ele>2321</ele>
        <time>2021-08-11T14:43:27.172Z</time>
      </trkpt>
      <trkpt lat="46.87391" lon="8.46731">
        <ele>2321</ele>
        <time>2021-08-11T14:43:28.172Z</time>
      </trkpt>
      <trkpt lat="46.87392" lon="8.4673">
        <ele>2321</ele>
        <time>2021-08-11T14:43:29.173Z</time>
      </trkpt>
      <trkpt lat="46.87393" lon="8.4673">
        <ele>2321</ele>
        <time>2021-08-11T14:43:30.173Z</time>
      </trkpt>
      <trkpt lat="46.87393" lon="8.46729">
        <ele>2321</ele>
        <time>2021-08-11T14:43:31.173Z</time>
      </trkpt>
      <trkpt lat="46.87394" lon="8.46729">
        <ele>2322</ele>
        <time>2021-08-11T14:43:32.173Z</time>
      </trkpt>
      <trkpt lat="46.87395" lon="8.46729">
        <ele>2322</ele>
        <time>2021-08-11T14:43:33.173Z</time>
      </trkpt>
      <trkpt lat="46.87395" lon="8.46729">
        <ele>2323</ele>
        <time>2021-08-11T14:43:34.173Z</time>
      </trkpt>
      <trkpt lat="46.87396" lon="8.46728">
        <ele>2323</ele>
        <time>2021-08-11T14:43:35.172Z</time>
      </trkpt>
      <trkpt lat="46.87397" lon="8.46728">
        <ele>2324</ele>
        <time>2021-08-11T14:43:36.173Z</time>
      </trkpt>
      <trkpt lat="46.87397" lon="8.46728">
        <ele>2324</ele>
        <time>2021-08-11T14:43:37.173Z</time>
      </trkpt>
      <trkpt lat="46.87398" lon="8.46727">
        <ele>2324</ele>
        <time>2021-08-11T14:43:38.173Z</time>
      </trkpt>
      <trkpt lat="46.87398" lon="8.46727">
        <ele>2324</ele>
        <time>2021-08-11T14:43:39.173Z</time>
      </trkpt>
      <trkpt lat="46.87398" lon="8.46727">
        <ele>2325</ele>
        <time>2021-08-11T14:43:40.172Z</time>
      </trkpt>
      <trkpt lat="46.87398" lon="8.46727">
        <ele>2326</ele>
        <time>2021-08-11T14:43:41.173Z</time>
      </trkpt>
      <trkpt lat="46.87397" lon="8.46726">
        <ele>2326</ele>
        <time>2021-08-11T14:43:42.174Z</time>
      </trkpt>
      <trkpt lat="46.87399" lon="8.46726">
        <ele>2326</ele>
        <time>2021-08-11T14:43:43.174Z</time>
      </trkpt>
      <trkpt lat="46.87399" lon="8.46727">
        <ele>2327</ele>
        <time>2021-08-11T14:43:44.174Z</time>
      </trkpt>
      <trkpt lat="46.87399" lon="8.46726">
        <ele>2327</ele>
        <time>2021-08-11T14:43:45.174Z</time>
      </trkpt>
      <trkpt lat="46.87398" lon="8.46726">
        <ele>2327</ele>
        <time>2021-08-11T14:43:46.173Z</time>
      </trkpt>
      <trkpt lat="46.87398" lon="8.46727">
        <ele>2327</ele>
        <time>2021-08-11T14:43:47.173Z</time>
      </trkpt>
      <trkpt lat="46.87398" lon="8.46727">
        <ele>2327</ele>
        <time>2021-08-11T14:43:48.174Z</time>
      </trkpt>
      <trkpt lat="46.87398" lon="8.46723">
        <ele>2322</ele>
        <time>2021-08-11T14:43:49.175Z</time>
      </trkpt>
      <trkpt lat="46.87399" lon="8.46723">
        <ele>2322</ele>
        <time>2021-08-11T14:43:50.175Z</time>
      </trkpt>
      <trkpt lat="46.87399" lon="8.46723">
        <ele>2321</ele>
        <time>2021-08-11T14:43:51.174Z</time>
      </trkpt>
      <trkpt lat="46.874" lon="8.46723">
        <ele>2321</ele>
        <time>2021-08-11T14:43:52.175Z</time>
      </trkpt>
      <trkpt lat="46.874" lon="8.46726">
        <ele>2323</ele>
        <time>2021-08-11T14:43:53.176Z</time>
      </trkpt>
      <trkpt lat="46.874" lon="8.46726">
        <ele>2323</ele>
        <time>2021-08-11T14:43:54.175Z</time>
      </trkpt>
      <trkpt lat="46.87399" lon="8.46726">
        <ele>2324</ele>
        <time>2021-08-11T14:43:55.175Z</time>
      </trkpt>
      <trkpt lat="46.87399" lon="8.46726">
        <ele>2328</ele>
        <time>2021-08-11T14:43:56.177Z</time>
      </trkpt>
      <trkpt lat="46.87399" lon="8.46725">
        <ele>2328</ele>
        <time>2021-08-11T14:43:57.177Z</time>
      </trkpt>
      <trkpt lat="46.874" lon="8.46725">
        <ele>2328</ele>
        <time>2021-08-11T14:43:58.176Z</time>
      </trkpt>
      <trkpt lat="46.87401" lon="8.46725">
        <ele>2328</ele>
        <time>2021-08-11T14:43:59.177Z</time>
      </trkpt>
      <trkpt lat="46.87401" lon="8.46725">
        <ele>2328</ele>
        <time>2021-08-11T14:44:00.176Z</time>
      </trkpt>
      <trkpt lat="46.87401" lon="8.46725">
        <ele>2328</ele>
        <time>2021-08-11T14:44:01.177Z</time>
      </trkpt>
      <trkpt lat="46.874" lon="8.46724">
        <ele>2328</ele>
        <time>2021-08-11T14:44:02.177Z</time>
      </trkpt>
      <trkpt lat="46.87399" lon="8.46724">
        <ele>2328</ele>
        <time>2021-08-11T14:44:03.176Z</time>
      </trkpt>
      <trkpt lat="46.87398" lon="8.46724">
        <ele>2328</ele>
        <time>2021-08-11T14:44:04.177Z</time>
      </trkpt>
      <trkpt lat="46.87398" lon="8.46725">
        <ele>2328</ele>
        <time>2021-08-11T14:44:05.176Z</time>
      </trkpt>
      <trkpt lat="46.87397" lon="8.46725">
        <ele>2328</ele>
        <time>2021-08-11T14:44:06.176Z</time>
      </trkpt>
      <trkpt lat="46.87397" lon="8.46726">
        <ele>2328</ele>
        <time>2021-08-11T14:44:07.177Z</time>
      </trkpt>
      <trkpt lat="46.87398" lon="8.46726">
        <ele>2328</ele>
        <time>2021-08-11T14:44:08.177Z</time>
      </trkpt>
      <trkpt lat="46.87399" lon="8.46726">
        <ele>2328</ele>
        <time>2021-08-11T14:44:09.177Z</time>
      </trkpt>
      <trkpt lat="46.87399" lon="8.46727">
        <ele>2328</ele>
        <time>2021-08-11T14:44:10.177Z</time>
      </trkpt>
      <trkpt lat="46.87398" lon="8.46728">
        <ele>2326</ele>
        <time>2021-08-11T14:44:11.176Z</time>
      </trkpt>
      <trkpt lat="46.87398" lon="8.46729">
        <ele>2326</ele>
        <time>2021-08-11T14:44:12.176Z</time>
      </trkpt>
      <trkpt lat="46.87399" lon="8.4673">
        <ele>2326</ele>
        <time>2021-08-11T14:44:13.176Z</time>
      </trkpt>
      <trkpt lat="46.87399" lon="8.4673">
        <ele>2326</ele>
        <time>2021-08-11T14:44:14.176Z</time>
      </trkpt>
      <trkpt lat="46.874" lon="8.46729">
        <ele>2326</ele>
        <time>2021-08-11T14:44:15.177Z</time>
      </trkpt>
      <trkpt lat="46.87401" lon="8.46728">
        <ele>2327</ele>
        <time>2021-08-11T14:44:16.177Z</time>
      </trkpt>
      <trkpt lat="46.87401" lon="8.46727">
        <ele>2327</ele>
        <time>2021-08-11T14:44:17.177Z</time>
      </trkpt>
      <trkpt lat="46.87401" lon="8.46726">
        <ele>2325</ele>
        <time>2021-08-11T14:44:18.177Z</time>
      </trkpt>
      <trkpt lat="46.87401" lon="8.46726">
        <ele>2325</ele>
        <time>2021-08-11T14:44:19.176Z</time>
      </trkpt>
      <trkpt lat="46.87402" lon="8.46726">
        <ele>2325</ele>
        <time>2021-08-11T14:44:20.176Z</time>
      </trkpt>
      <trkpt lat="46.87402" lon="8.46726">
        <ele>2325</ele>
        <time>2021-08-11T14:44:21.176Z</time>
      </trkpt>
      <trkpt lat="46.87403" lon="8.46726">
        <ele>2324</ele>
        <time>2021-08-11T14:44:22.178Z</time>
      </trkpt>
      <trkpt lat="46.87404" lon="8.46726">
        <ele>2324</ele>
        <time>2021-08-11T14:44:23.177Z</time>
      </trkpt>
      <trkpt lat="46.87405" lon="8.46726">
        <ele>2324</ele>
        <time>2021-08-11T14:44:24.177Z</time>
      </trkpt>
      <trkpt lat="46.87405" lon="8.46726">
        <ele>2323</ele>
        <time>2021-08-11T14:44:25.177Z</time>
      </trkpt>
      <trkpt lat="46.87406" lon="8.46726">
        <ele>2323</ele>
        <time>2021-08-11T14:44:26.178Z</time>
      </trkpt>
      <trkpt lat="46.87407" lon="8.46726">
        <ele>2323</ele>
        <time>2021-08-11T14:44:27.177Z</time>
      </trkpt>
      <trkpt lat="46.87407" lon="8.46725">
        <ele>2323</ele>
        <time>2021-08-11T14:44:28.177Z</time>
      </trkpt>
      <trkpt lat="46.87407" lon="8.46725">
        <ele>2323</ele>
        <time>2021-08-11T14:44:29.178Z</time>
      </trkpt>
      <trkpt lat="46.87408" lon="8.46725">
        <ele>2323</ele>
        <time>2021-08-11T14:44:30.177Z</time>
      </trkpt>
      <trkpt lat="46.87408" lon="8.46724">
        <ele>2323</ele>
        <time>2021-08-11T14:44:31.177Z</time>
      </trkpt>
      <trkpt lat="46.87409" lon="8.46724">
        <ele>2323</ele>
        <time>2021-08-11T14:44:32.177Z</time>
      </trkpt>
      <trkpt lat="46.87409" lon="8.46723">
        <ele>2322</ele>
        <time>2021-08-11T14:44:33.177Z</time>
      </trkpt>
      <trkpt lat="46.8741" lon="8.46723">
        <ele>2322</ele>
        <time>2021-08-11T14:44:34.178Z</time>
      </trkpt>
      <trkpt lat="46.8741" lon="8.46723">
        <ele>2322</ele>
        <time>2021-08-11T14:44:35.177Z</time>
      </trkpt>
      <trkpt lat="46.8741" lon="8.46723">
        <ele>2322</ele>
        <time>2021-08-11T14:44:36.178Z</time>
      </trkpt>
      <trkpt lat="46.87411" lon="8.46722">
        <ele>2322</ele>
        <time>2021-08-11T14:44:37.178Z</time>
      </trkpt>
      <trkpt lat="46.87412" lon="8.46722">
        <ele>2322</ele>
        <time>2021-08-11T14:44:38.178Z</time>
      </trkpt>
      <trkpt lat="46.87412" lon="8.46722">
        <ele>2322</ele>
        <time>2021-08-11T14:44:39.178Z</time>
      </trkpt>
      <trkpt lat="46.87412" lon="8.46722">
        <ele>2322</ele>
        <time>2021-08-11T14:44:40.177Z</time>
      </trkpt>
      <trkpt lat="46.87412" lon="8.46721">
        <ele>2321</ele>
        <time>2021-08-11T14:44:41.177Z</time>
      </trkpt>
      <trkpt lat="46.87412" lon="8.4672">
        <ele>2321</ele>
        <time>2021-08-11T14:44:42.177Z</time>
      </trkpt>
      <trkpt lat="46.87413" lon="8.46719">
        <ele>2318</ele>
        <time>2021-08-11T14:44:43.180Z</time>
      </trkpt>
      <trkpt lat="46.87414" lon="8.46719">
        <ele>2318</ele>
        <time>2021-08-11T14:44:44.180Z</time>
      </trkpt>
      <trkpt lat="46.87414" lon="8.4672">
        <ele>2318</ele>
        <time>2021-08-11T14:44:45.179Z</time>
      </trkpt>
      <trkpt lat="46.87415" lon="8.46719">
        <ele>2318</ele>
        <time>2021-08-11T14:44:46.180Z</time>
      </trkpt>
      <trkpt lat="46.87416" lon="8.46719">
        <ele>2318</ele>
        <time>2021-08-11T14:44:47.179Z</time>
      </trkpt>
      <trkpt lat="46.87416" lon="8.46719">
        <ele>2317</ele>
        <time>2021-08-11T14:44:48.179Z</time>
      </trkpt>
      <trkpt lat="46.87417" lon="8.46718">
        <ele>2317</ele>
        <time>2021-08-11T14:44:49.179Z</time>
      </trkpt>
      <trkpt lat="46.87418" lon="8.46718">
        <ele>2317</ele>
        <time>2021-08-11T14:44:50.179Z</time>
      </trkpt>
      <trkpt lat="46.87418" lon="8.46717">
        <ele>2317</ele>
        <time>2021-08-11T14:44:51.179Z</time>
      </trkpt>
      <trkpt lat="46.87419" lon="8.46716">
        <ele>2317</ele>
        <time>2021-08-11T14:44:52.179Z</time>
      </trkpt>
      <trkpt lat="46.87419" lon="8.46715">
        <ele>2317</ele>
        <time>2021-08-11T14:44:53.179Z</time>
      </trkpt>
      <trkpt lat="46.87419" lon="8.46714">
        <ele>2317</ele>
        <time>2021-08-11T14:44:54.180Z</time>
      </trkpt>
      <trkpt lat="46.87419" lon="8.46714">
        <ele>2317</ele>
        <time>2021-08-11T14:44:55.180Z</time>
      </trkpt>
      <trkpt lat="46.8742" lon="8.46715">
        <ele>2318</ele>
        <time>2021-08-11T14:44:56.181Z</time>
      </trkpt>
      <trkpt lat="46.87421" lon="8.46715">
        <ele>2319</ele>
        <time>2021-08-11T14:44:57.182Z</time>
      </trkpt>
      <trkpt lat="46.87421" lon="8.46714">
        <ele>2320</ele>
        <time>2021-08-11T14:44:58.182Z</time>
      </trkpt>
      <trkpt lat="46.8742" lon="8.46714">
        <ele>2320</ele>
        <time>2021-08-11T14:44:59.181Z</time>
      </trkpt>
      <trkpt lat="46.8742" lon="8.46715">
        <ele>2320</ele>
        <time>2021-08-11T14:45:00.182Z</time>
      </trkpt>
      <trkpt lat="46.87419" lon="8.46714">
        <ele>2318</ele>
        <time>2021-08-11T14:45:01.182Z</time>
      </trkpt>
      <trkpt lat="46.87419" lon="8.46713">
        <ele>2318</ele>
        <time>2021-08-11T14:45:02.181Z</time>
      </trkpt>
      <trkpt lat="46.87419" lon="8.46713">
        <ele>2318</ele>
        <time>2021-08-11T14:45:03.181Z</time>
      </trkpt>
      <trkpt lat="46.8742" lon="8.46713">
        <ele>2319</ele>
        <time>2021-08-11T14:45:04.181Z</time>
      </trkpt>
      <trkpt lat="46.8742" lon="8.46713">
        <ele>2320</ele>
        <time>2021-08-11T14:45:05.181Z</time>
      </trkpt>
      <trkpt lat="46.8742" lon="8.46713">
        <ele>2320</ele>
        <time>2021-08-11T14:45:06.181Z</time>
      </trkpt>
      <trkpt lat="46.87421" lon="8.46713">
        <ele>2320</ele>
        <time>2021-08-11T14:45:07.182Z</time>
      </trkpt>
      <trkpt lat="46.87421" lon="8.46713">
        <ele>2320</ele>
        <time>2021-08-11T14:45:08.182Z</time>
      </trkpt>
      <trkpt lat="46.87423" lon="8.46714">
        <ele>2318</ele>
        <time>2021-08-11T14:45:09.182Z</time>
      </trkpt>
      <trkpt lat="46.87423" lon="8.46714">
        <ele>2318</ele>
        <time>2021-08-11T14:45:10.182Z</time>
      </trkpt>
      <trkpt lat="46.87423" lon="8.46714">
        <ele>2318</ele>
        <time>2021-08-11T14:45:11.181Z</time>
      </trkpt>
      <trkpt lat="46.87423" lon="8.46713">
        <ele>2318</ele>
        <time>2021-08-11T14:45:12.182Z</time>
      </trkpt>
      <trkpt lat="46.87423" lon="8.46713">
        <ele>2319</ele>
        <time>2021-08-11T14:45:13.182Z</time>
      </trkpt>
      <trkpt lat="46.87422" lon="8.46713">
        <ele>2321</ele>
        <time>2021-08-11T14:45:14.181Z</time>
      </trkpt>
      <trkpt lat="46.87423" lon="8.46713">
        <ele>2321</ele>
        <time>2021-08-11T14:45:15.182Z</time>
      </trkpt>
      <trkpt lat="46.87423" lon="8.46713">
        <ele>2322</ele>
        <time>2021-08-11T14:45:16.181Z</time>
      </trkpt>
      <trkpt lat="46.87424" lon="8.46714">
        <ele>2322</ele>
        <time>2021-08-11T14:45:17.182Z</time>
      </trkpt>
      <trkpt lat="46.87424" lon="8.46714">
        <ele>2323</ele>
        <time>2021-08-11T14:45:18.181Z</time>
      </trkpt>
      <trkpt lat="46.87425" lon="8.46714">
        <ele>2323</ele>
        <time>2021-08-11T14:45:19.182Z</time>
      </trkpt>
      <trkpt lat="46.87425" lon="8.46714">
        <ele>2324</ele>
        <time>2021-08-11T14:45:20.182Z</time>
      </trkpt>
      <trkpt lat="46.87425" lon="8.46714">
        <ele>2324</ele>
        <time>2021-08-11T14:45:21.182Z</time>
      </trkpt>
      <trkpt lat="46.87426" lon="8.46715">
        <ele>2324</ele>
        <time>2021-08-11T14:45:22.181Z</time>
      </trkpt>
      <trkpt lat="46.87427" lon="8.46715">
        <ele>2324</ele>
        <time>2021-08-11T14:45:23.182Z</time>
      </trkpt>
      <trkpt lat="46.87428" lon="8.46715">
        <ele>2324</ele>
        <time>2021-08-11T14:45:24.182Z</time>
      </trkpt>
      <trkpt lat="46.87429" lon="8.46716">
        <ele>2324</ele>
        <time>2021-08-11T14:45:25.181Z</time>
      </trkpt>
      <trkpt lat="46.87429" lon="8.46716">
        <ele>2325</ele>
        <time>2021-08-11T14:45:26.181Z</time>
      </trkpt>
      <trkpt lat="46.8743" lon="8.46716">
        <ele>2325</ele>
        <time>2021-08-11T14:45:27.182Z</time>
      </trkpt>
      <trkpt lat="46.8743" lon="8.46716">
        <ele>2325</ele>
        <time>2021-08-11T14:45:28.182Z</time>
      </trkpt>
      <trkpt lat="46.87431" lon="8.46716">
        <ele>2324</ele>
        <time>2021-08-11T14:45:29.181Z</time>
      </trkpt>
      <trkpt lat="46.87432" lon="8.46717">
        <ele>2325</ele>
        <time>2021-08-11T14:45:30.182Z</time>
      </trkpt>
      <trkpt lat="46.87433" lon="8.46717">
        <ele>2325</ele>
        <time>2021-08-11T14:45:31.181Z</time>
      </trkpt>
      <trkpt lat="46.87434" lon="8.46717">
        <ele>2325</ele>
        <time>2021-08-11T14:45:32.182Z</time>
      </trkpt>
      <trkpt lat="46.87435" lon="8.46717">
        <ele>2325</ele>
        <time>2021-08-11T14:45:33.181Z</time>
      </trkpt>
      <trkpt lat="46.87436" lon="8.46717">
        <ele>2325</ele>
        <time>2021-08-11T14:45:34.182Z</time>
      </trkpt>
      <trkpt lat="46.87437" lon="8.46717">
        <ele>2325</ele>
        <time>2021-08-11T14:45:35.182Z</time>
      </trkpt>
      <trkpt lat="46.87438" lon="8.46717">
        <ele>2325</ele>
        <time>2021-08-11T14:45:36.181Z</time>
      </trkpt>
      <trkpt lat="46.8744" lon="8.46717">
        <ele>2325</ele>
        <time>2021-08-11T14:45:37.182Z</time>
      </trkpt>
      <trkpt lat="46.87441" lon="8.46718">
        <ele>2325</ele>
        <time>2021-08-11T14:45:38.181Z</time>
      </trkpt>
      <trkpt lat="46.87442" lon="8.46718">
        <ele>2325</ele>
        <time>2021-08-11T14:45:39.182Z</time>
      </trkpt>
      <trkpt lat="46.87442" lon="8.46718">
        <ele>2325</ele>
        <time>2021-08-11T14:45:40.181Z</time>
      </trkpt>
      <trkpt lat="46.87443" lon="8.46718">
        <ele>2325</ele>
        <time>2021-08-11T14:45:41.182Z</time>
      </trkpt>
      <trkpt lat="46.87443" lon="8.46717">
        <ele>2326</ele>
        <time>2021-08-11T14:45:42.182Z</time>
      </trkpt>
      <trkpt lat="46.87443" lon="8.46717">
        <ele>2326</ele>
        <time>2021-08-11T14:45:43.182Z</time>
      </trkpt>
      <trkpt lat="46.87445" lon="8.46717">
        <ele>2327</ele>
        <time>2021-08-11T14:45:44.181Z</time>
      </trkpt>
      <trkpt lat="46.87447" lon="8.46717">
        <ele>2327</ele>
        <time>2021-08-11T14:45:45.182Z</time>
      </trkpt>
      <trkpt lat="46.87448" lon="8.46717">
        <ele>2327</ele>
        <time>2021-08-11T14:45:46.182Z</time>
      </trkpt>
      <trkpt lat="46.87449" lon="8.46716">
        <ele>2328</ele>
        <time>2021-08-11T14:45:47.182Z</time>
      </trkpt>
      <trkpt lat="46.8745" lon="8.46716">
        <ele>2328</ele>
        <time>2021-08-11T14:45:48.181Z</time>
      </trkpt>
      <trkpt lat="46.8745" lon="8.46715">
        <ele>2328</ele>
        <time>2021-08-11T14:45:49.181Z</time>
      </trkpt>
      <trkpt lat="46.87451" lon="8.46715">
        <ele>2328</ele>
        <time>2021-08-11T14:45:50.182Z</time>
      </trkpt>
      <trkpt lat="46.87453" lon="8.46715">
        <ele>2328</ele>
        <time>2021-08-11T14:45:51.182Z</time>
      </trkpt>
      <trkpt lat="46.87454" lon="8.46715">
        <ele>2329</ele>
        <time>2021-08-11T14:45:52.182Z</time>
      </trkpt>
      <trkpt lat="46.87454" lon="8.46715">
        <ele>2329</ele>
        <time>2021-08-11T14:45:53.182Z</time>
      </trkpt>
      <trkpt lat="46.87455" lon="8.46715">
        <ele>2329</ele>
        <time>2021-08-11T14:45:54.182Z</time>
      </trkpt>
      <trkpt lat="46.87455" lon="8.46715">
        <ele>2329</ele>
        <time>2021-08-11T14:45:55.181Z</time>
      </trkpt>
      <trkpt lat="46.87456" lon="8.46716">
        <ele>2329</ele>
        <time>2021-08-11T14:45:56.181Z</time>
      </trkpt>
      <trkpt lat="46.87457" lon="8.46716">
        <ele>2328</ele>
        <time>2021-08-11T14:45:57.182Z</time>
      </trkpt>
      <trkpt lat="46.87457" lon="8.46717">
        <ele>2328</ele>
        <time>2021-08-11T14:45:58.182Z</time>
      </trkpt>
      <trkpt lat="46.87458" lon="8.46717">
        <ele>2327</ele>
        <time>2021-08-11T14:45:59.182Z</time>
      </trkpt>
      <trkpt lat="46.87458" lon="8.46717">
        <ele>2327</ele>
        <time>2021-08-11T14:46:00.182Z</time>
      </trkpt>
      <trkpt lat="46.87459" lon="8.46718">
        <ele>2327</ele>
        <time>2021-08-11T14:46:01.181Z</time>
      </trkpt>
      <trkpt lat="46.87459" lon="8.46718">
        <ele>2326</ele>
        <time>2021-08-11T14:46:02.182Z</time>
      </trkpt>
      <trkpt lat="46.8746" lon="8.46719">
        <ele>2326</ele>
        <time>2021-08-11T14:46:03.182Z</time>
      </trkpt>
      <trkpt lat="46.8746" lon="8.46719">
        <ele>2325</ele>
        <time>2021-08-11T14:46:04.182Z</time>
      </trkpt>
      <trkpt lat="46.87461" lon="8.4672">
        <ele>2325</ele>
        <time>2021-08-11T14:46:05.182Z</time>
      </trkpt>
      <trkpt lat="46.87462" lon="8.4672">
        <ele>2325</ele>
        <time>2021-08-11T14:46:06.181Z</time>
      </trkpt>
      <trkpt lat="46.87462" lon="8.46721">
        <ele>2325</ele>
        <time>2021-08-11T14:46:07.182Z</time>
      </trkpt>
      <trkpt lat="46.87463" lon="8.46721">
        <ele>2324</ele>
        <time>2021-08-11T14:46:08.182Z</time>
      </trkpt>
      <trkpt lat="46.87464" lon="8.46721">
        <ele>2324</ele>
        <time>2021-08-11T14:46:09.182Z</time>
      </trkpt>
      <trkpt lat="46.87465" lon="8.46721">
        <ele>2324</ele>
        <time>2021-08-11T14:46:10.182Z</time>
      </trkpt>
      <trkpt lat="46.87466" lon="8.4672">
        <ele>2324</ele>
        <time>2021-08-11T14:46:11.181Z</time>
      </trkpt>
      <trkpt lat="46.87466" lon="8.4672">
        <ele>2325</ele>
        <time>2021-08-11T14:46:12.182Z</time>
      </trkpt>
      <trkpt lat="46.87467" lon="8.46719">
        <ele>2325</ele>
        <time>2021-08-11T14:46:13.181Z</time>
      </trkpt>
      <trkpt lat="46.87467" lon="8.46718">
        <ele>2325</ele>
        <time>2021-08-11T14:46:14.181Z</time>
      </trkpt>
      <trkpt lat="46.87467" lon="8.46717">
        <ele>2324</ele>
        <time>2021-08-11T14:46:15.182Z</time>
      </trkpt>
      <trkpt lat="46.87467" lon="8.46716">
        <ele>2324</ele>
        <time>2021-08-11T14:46:16.182Z</time>
      </trkpt>
      <trkpt lat="46.87467" lon="8.46715">
        <ele>2324</ele>
        <time>2021-08-11T14:46:17.182Z</time>
      </trkpt>
      <trkpt lat="46.87468" lon="8.46714">
        <ele>2325</ele>
        <time>2021-08-11T14:46:18.181Z</time>
      </trkpt>
      <trkpt lat="46.87469" lon="8.46714">
        <ele>2325</ele>
        <time>2021-08-11T14:46:19.182Z</time>
      </trkpt>
      <trkpt lat="46.87469" lon="8.46712">
        <ele>2325</ele>
        <time>2021-08-11T14:46:20.181Z</time>
      </trkpt>
      <trkpt lat="46.87469" lon="8.46711">
        <ele>2325</ele>
        <time>2021-08-11T14:46:21.182Z</time>
      </trkpt>
      <trkpt lat="46.87469" lon="8.4671">
        <ele>2326</ele>
        <time>2021-08-11T14:46:22.181Z</time>
      </trkpt>
      <trkpt lat="46.87469" lon="8.46709">
        <ele>2326</ele>
        <time>2021-08-11T14:46:23.182Z</time>
      </trkpt>
      <trkpt lat="46.87471" lon="8.46709">
        <ele>2327</ele>
        <time>2021-08-11T14:46:24.182Z</time>
      </trkpt>
      <trkpt lat="46.87471" lon="8.46709">
        <ele>2327</ele>
        <time>2021-08-11T14:46:25.182Z</time>
      </trkpt>
      <trkpt lat="46.87471" lon="8.46708">
        <ele>2327</ele>
        <time>2021-08-11T14:46:26.182Z</time>
      </trkpt>
      <trkpt lat="46.87471" lon="8.46708">
        <ele>2327</ele>
        <time>2021-08-11T14:46:27.181Z</time>
      </trkpt>
      <trkpt lat="46.87472" lon="8.46708">
        <ele>2328</ele>
        <time>2021-08-11T14:46:28.182Z</time>
      </trkpt>
      <trkpt lat="46.87472" lon="8.46707">
        <ele>2328</ele>
        <time>2021-08-11T14:46:29.182Z</time>
      </trkpt>
      <trkpt lat="46.87473" lon="8.46707">
        <ele>2328</ele>
        <time>2021-08-11T14:46:30.182Z</time>
      </trkpt>
      <trkpt lat="46.87474" lon="8.46706">
        <ele>2329</ele>
        <time>2021-08-11T14:46:31.182Z</time>
      </trkpt>
      <trkpt lat="46.87474" lon="8.46705">
        <ele>2329</ele>
        <time>2021-08-11T14:46:32.181Z</time>
      </trkpt>
      <trkpt lat="46.87474" lon="8.46704">
        <ele>2329</ele>
        <time>2021-08-11T14:46:33.182Z</time>
      </trkpt>
      <trkpt lat="46.87475" lon="8.46702">
        <ele>2329</ele>
        <time>2021-08-11T14:46:34.182Z</time>
      </trkpt>
      <trkpt lat="46.87476" lon="8.46702">
        <ele>2329</ele>
        <time>2021-08-11T14:46:35.182Z</time>
      </trkpt>
      <trkpt lat="46.87476" lon="8.46702">
        <ele>2329</ele>
        <time>2021-08-11T14:46:36.181Z</time>
      </trkpt>
      <trkpt lat="46.87477" lon="8.46702">
        <ele>2329</ele>
        <time>2021-08-11T14:46:37.182Z</time>
      </trkpt>
      <trkpt lat="46.87478" lon="8.46701">
        <ele>2329</ele>
        <time>2021-08-11T14:46:38.182Z</time>
      </trkpt>
      <trkpt lat="46.87479" lon="8.46701">
        <ele>2329</ele>
        <time>2021-08-11T14:46:39.181Z</time>
      </trkpt>
      <trkpt lat="46.8748" lon="8.46701">
        <ele>2329</ele>
        <time>2021-08-11T14:46:40.181Z</time>
      </trkpt>
      <trkpt lat="46.87481" lon="8.46701">
        <ele>2329</ele>
        <time>2021-08-11T14:46:41.181Z</time>
      </trkpt>
      <trkpt lat="46.87482" lon="8.46701">
        <ele>2329</ele>
        <time>2021-08-11T14:46:42.182Z</time>
      </trkpt>
      <trkpt lat="46.87483" lon="8.46701">
        <ele>2329</ele>
        <time>2021-08-11T14:46:43.181Z</time>
      </trkpt>
      <trkpt lat="46.87484" lon="8.46701">
        <ele>2329</ele>
        <time>2021-08-11T14:46:44.182Z</time>
      </trkpt>
      <trkpt lat="46.87484" lon="8.467">
        <ele>2328</ele>
        <time>2021-08-11T14:46:45.181Z</time>
      </trkpt>
      <trkpt lat="46.87485" lon="8.46699">
        <ele>2328</ele>
        <time>2021-08-11T14:46:46.182Z</time>
      </trkpt>
      <trkpt lat="46.87485" lon="8.46699">
        <ele>2328</ele>
        <time>2021-08-11T14:46:47.182Z</time>
      </trkpt>
      <trkpt lat="46.87486" lon="8.46699">
        <ele>2328</ele>
        <time>2021-08-11T14:46:48.182Z</time>
      </trkpt>
      <trkpt lat="46.87486" lon="8.46699">
        <ele>2329</ele>
        <time>2021-08-11T14:46:49.182Z</time>
      </trkpt>
      <trkpt lat="46.87486" lon="8.46699">
        <ele>2329</ele>
        <time>2021-08-11T14:46:50.181Z</time>
      </trkpt>
      <trkpt lat="46.87486" lon="8.46699">
        <ele>2329</ele>
        <time>2021-08-11T14:46:51.181Z</time>
      </trkpt>
      <trkpt lat="46.87487" lon="8.46698">
        <ele>2329</ele>
        <time>2021-08-11T14:46:52.182Z</time>
      </trkpt>
      <trkpt lat="46.87488" lon="8.46699">
        <ele>2329</ele>
        <time>2021-08-11T14:46:53.181Z</time>
      </trkpt>
      <trkpt lat="46.87488" lon="8.46699">
        <ele>2330</ele>
        <time>2021-08-11T14:46:54.181Z</time>
      </trkpt>
      <trkpt lat="46.87488" lon="8.46699">
        <ele>2330</ele>
        <time>2021-08-11T14:46:55.182Z</time>
      </trkpt>
      <trkpt lat="46.87489" lon="8.46699">
        <ele>2330</ele>
        <time>2021-08-11T14:46:56.182Z</time>
      </trkpt>
      <trkpt lat="46.87489" lon="8.46699">
        <ele>2330</ele>
        <time>2021-08-11T14:46:57.182Z</time>
      </trkpt>
      <trkpt lat="46.8749" lon="8.46699">
        <ele>2329</ele>
        <time>2021-08-11T14:46:58.182Z</time>
      </trkpt>
      <trkpt lat="46.8749" lon="8.46699">
        <ele>2329</ele>
        <time>2021-08-11T14:46:59.181Z</time>
      </trkpt>
      <trkpt lat="46.87491" lon="8.46699">
        <ele>2329</ele>
        <time>2021-08-11T14:47:00.181Z</time>
      </trkpt>
      <trkpt lat="46.87491" lon="8.46699">
        <ele>2329</ele>
        <time>2021-08-11T14:47:01.182Z</time>
      </trkpt>
      <trkpt lat="46.87491" lon="8.46699">
        <ele>2328</ele>
        <time>2021-08-11T14:47:02.183Z</time>
      </trkpt>
      <trkpt lat="46.87492" lon="8.46699">
        <ele>2328</ele>
        <time>2021-08-11T14:47:03.182Z</time>
      </trkpt>
      <trkpt lat="46.87492" lon="8.46699">
        <ele>2328</ele>
        <time>2021-08-11T14:47:04.182Z</time>
      </trkpt>
      <trkpt lat="46.87493" lon="8.46699">
        <ele>2328</ele>
        <time>2021-08-11T14:47:05.183Z</time>
      </trkpt>
      <trkpt lat="46.87493" lon="8.46699">
        <ele>2328</ele>
        <time>2021-08-11T14:47:06.182Z</time>
      </trkpt>
      <trkpt lat="46.87494" lon="8.46699">
        <ele>2329</ele>
        <time>2021-08-11T14:47:07.182Z</time>
      </trkpt>
      <trkpt lat="46.87493" lon="8.46699">
        <ele>2329</ele>
        <time>2021-08-11T14:47:08.182Z</time>
      </trkpt>
      <trkpt lat="46.87493" lon="8.46698">
        <ele>2329</ele>
        <time>2021-08-11T14:47:09.183Z</time>
      </trkpt>
      <trkpt lat="46.87493" lon="8.46698">
        <ele>2329</ele>
        <time>2021-08-11T14:47:10.182Z</time>
      </trkpt>
      <trkpt lat="46.87494" lon="8.46698">
        <ele>2329</ele>
        <time>2021-08-11T14:47:11.183Z</time>
      </trkpt>
      <trkpt lat="46.87495" lon="8.46698">
        <ele>2330</ele>
        <time>2021-08-11T14:47:12.183Z</time>
      </trkpt>
      <trkpt lat="46.87495" lon="8.46698">
        <ele>2330</ele>
        <time>2021-08-11T14:47:13.183Z</time>
      </trkpt>
      <trkpt lat="46.87495" lon="8.46698">
        <ele>2331</ele>
        <time>2021-08-11T14:47:14.183Z</time>
      </trkpt>
      <trkpt lat="46.87496" lon="8.46698">
        <ele>2331</ele>
        <time>2021-08-11T14:47:15.184Z</time>
      </trkpt>
      <trkpt lat="46.87496" lon="8.46698">
        <ele>2331</ele>
        <time>2021-08-11T14:47:16.184Z</time>
      </trkpt>
      <trkpt lat="46.87497" lon="8.46697">
        <ele>2331</ele>
        <time>2021-08-11T14:47:17.184Z</time>
      </trkpt>
      <trkpt lat="46.87497" lon="8.46697">
        <ele>2331</ele>
        <time>2021-08-11T14:47:18.184Z</time>
      </trkpt>
      <trkpt lat="46.87498" lon="8.46697">
        <ele>2331</ele>
        <time>2021-08-11T14:47:19.183Z</time>
      </trkpt>
      <trkpt lat="46.87499" lon="8.46697">
        <ele>2332</ele>
        <time>2021-08-11T14:47:20.183Z</time>
      </trkpt>
      <trkpt lat="46.87499" lon="8.46697">
        <ele>2332</ele>
        <time>2021-08-11T14:47:21.183Z</time>
      </trkpt>
      <trkpt lat="46.875" lon="8.46697">
        <ele>2332</ele>
        <time>2021-08-11T14:47:22.184Z</time>
      </trkpt>
      <trkpt lat="46.875" lon="8.46697">
        <ele>2332</ele>
        <time>2021-08-11T14:47:23.183Z</time>
      </trkpt>
      <trkpt lat="46.87501" lon="8.46696">
        <ele>2333</ele>
        <time>2021-08-11T14:47:24.183Z</time>
      </trkpt>
      <trkpt lat="46.87501" lon="8.46696">
        <ele>2333</ele>
        <time>2021-08-11T14:47:25.184Z</time>
      </trkpt>
      <trkpt lat="46.87502" lon="8.46695">
        <ele>2333</ele>
        <time>2021-08-11T14:47:26.184Z</time>
      </trkpt>
      <trkpt lat="46.87503" lon="8.46695">
        <ele>2334</ele>
        <time>2021-08-11T14:47:27.184Z</time>
      </trkpt>
      <trkpt lat="46.87503" lon="8.46695">
        <ele>2334</ele>
        <time>2021-08-11T14:47:28.183Z</time>
      </trkpt>
      <trkpt lat="46.87503" lon="8.46694">
        <ele>2335</ele>
        <time>2021-08-11T14:47:29.183Z</time>
      </trkpt>
      <trkpt lat="46.87504" lon="8.46694">
        <ele>2335</ele>
        <time>2021-08-11T14:47:30.183Z</time>
      </trkpt>
      <trkpt lat="46.87504" lon="8.46693">
        <ele>2335</ele>
        <time>2021-08-11T14:47:31.183Z</time>
      </trkpt>
      <trkpt lat="46.87505" lon="8.46693">
        <ele>2335</ele>
        <time>2021-08-11T14:47:32.183Z</time>
      </trkpt>
      <trkpt lat="46.87505" lon="8.46693">
        <ele>2335</ele>
        <time>2021-08-11T14:47:33.183Z</time>
      </trkpt>
      <trkpt lat="46.87506" lon="8.46692">
        <ele>2336</ele>
        <time>2021-08-11T14:47:34.184Z</time>
      </trkpt>
      <trkpt lat="46.87507" lon="8.46692">
        <ele>2336</ele>
        <time>2021-08-11T14:47:35.183Z</time>
      </trkpt>
      <trkpt lat="46.87508" lon="8.46691">
        <ele>2336</ele>
        <time>2021-08-11T14:47:36.183Z</time>
      </trkpt>
      <trkpt lat="46.87509" lon="8.46691">
        <ele>2336</ele>
        <time>2021-08-11T14:47:38.186Z</time>
      </trkpt>
      <trkpt lat="46.8751" lon="8.4669">
        <ele>2336</ele>
        <time>2021-08-11T14:47:39.187Z</time>
      </trkpt>
      <trkpt lat="46.87511" lon="8.46689">
        <ele>2336</ele>
        <time>2021-08-11T14:47:40.186Z</time>
      </trkpt>
      <trkpt lat="46.87511" lon="8.46689">
        <ele>2337</ele>
        <time>2021-08-11T14:47:41.186Z</time>
      </trkpt>
      <trkpt lat="46.87512" lon="8.46688">
        <ele>2337</ele>
        <time>2021-08-11T14:47:42.187Z</time>
      </trkpt>
      <trkpt lat="46.87513" lon="8.46688">
        <ele>2338</ele>
        <time>2021-08-11T14:47:43.187Z</time>
      </trkpt>
      <trkpt lat="46.87514" lon="8.46688">
        <ele>2338</ele>
        <time>2021-08-11T14:47:44.186Z</time>
      </trkpt>
      <trkpt lat="46.87515" lon="8.46688">
        <ele>2339</ele>
        <time>2021-08-11T14:47:45.186Z</time>
      </trkpt>
      <trkpt lat="46.87515" lon="8.46688">
        <ele>2340</ele>
        <time>2021-08-11T14:47:46.187Z</time>
      </trkpt>
      <trkpt lat="46.87516" lon="8.46688">
        <ele>2340</ele>
        <time>2021-08-11T14:47:47.187Z</time>
      </trkpt>
      <trkpt lat="46.87516" lon="8.46688">
        <ele>2340</ele>
        <time>2021-08-11T14:47:48.186Z</time>
      </trkpt>
      <trkpt lat="46.87517" lon="8.46688">
        <ele>2340</ele>
        <time>2021-08-11T14:47:49.186Z</time>
      </trkpt>
      <trkpt lat="46.87518" lon="8.46688">
        <ele>2340</ele>
        <time>2021-08-11T14:47:50.187Z</time>
      </trkpt>
      <trkpt lat="46.87519" lon="8.46688">
        <ele>2340</ele>
        <time>2021-08-11T14:47:51.186Z</time>
      </trkpt>
      <trkpt lat="46.8752" lon="8.46688">
        <ele>2340</ele>
        <time>2021-08-11T14:47:52.186Z</time>
      </trkpt>
      <trkpt lat="46.8752" lon="8.46688">
        <ele>2339</ele>
        <time>2021-08-11T14:47:53.187Z</time>
      </trkpt>
      <trkpt lat="46.87521" lon="8.46689">
        <ele>2339</ele>
        <time>2021-08-11T14:47:54.187Z</time>
      </trkpt>
      <trkpt lat="46.87522" lon="8.46689">
        <ele>2339</ele>
        <time>2021-08-11T14:47:55.187Z</time>
      </trkpt>
      <trkpt lat="46.87522" lon="8.4669">
        <ele>2339</ele>
        <time>2021-08-11T14:47:56.187Z</time>
      </trkpt>
      <trkpt lat="46.87523" lon="8.4669">
        <ele>2339</ele>
        <time>2021-08-11T14:47:57.187Z</time>
      </trkpt>
      <trkpt lat="46.87524" lon="8.46691">
        <ele>2339</ele>
        <time>2021-08-11T14:47:58.187Z</time>
      </trkpt>
      <trkpt lat="46.87524" lon="8.46691">
        <ele>2338</ele>
        <time>2021-08-11T14:47:59.186Z</time>
      </trkpt>
      <trkpt lat="46.87525" lon="8.46691">
        <ele>2338</ele>
        <time>2021-08-11T14:48:00.186Z</time>
      </trkpt>
      <trkpt lat="46.87526" lon="8.46692">
        <ele>2338</ele>
        <time>2021-08-11T14:48:01.187Z</time>
      </trkpt>
      <trkpt lat="46.87527" lon="8.46692">
        <ele>2338</ele>
        <time>2021-08-11T14:48:02.187Z</time>
      </trkpt>
      <trkpt lat="46.87527" lon="8.46693">
        <ele>2338</ele>
        <time>2021-08-11T14:48:03.186Z</time>
      </trkpt>
      <trkpt lat="46.87527" lon="8.46693">
        <ele>2338</ele>
        <time>2021-08-11T14:48:04.186Z</time>
      </trkpt>
      <trkpt lat="46.87527" lon="8.46694">
        <ele>2337</ele>
        <time>2021-08-11T14:48:05.186Z</time>
      </trkpt>
      <trkpt lat="46.87527" lon="8.46695">
        <ele>2337</ele>
        <time>2021-08-11T14:48:06.186Z</time>
      </trkpt>
      <trkpt lat="46.87527" lon="8.46696">
        <ele>2337</ele>
        <time>2021-08-11T14:48:07.186Z</time>
      </trkpt>
      <trkpt lat="46.87527" lon="8.46697">
        <ele>2336</ele>
        <time>2021-08-11T14:48:08.187Z</time>
      </trkpt>
      <trkpt lat="46.87527" lon="8.46698">
        <ele>2336</ele>
        <time>2021-08-11T14:48:09.186Z</time>
      </trkpt>
      <trkpt lat="46.87528" lon="8.46699">
        <ele>2336</ele>
        <time>2021-08-11T14:48:10.187Z</time>
      </trkpt>
      <trkpt lat="46.87528" lon="8.467">
        <ele>2336</ele>
        <time>2021-08-11T14:48:11.187Z</time>
      </trkpt>
      <trkpt lat="46.87528" lon="8.467">
        <ele>2336</ele>
        <time>2021-08-11T14:48:12.186Z</time>
      </trkpt>
      <trkpt lat="46.87528" lon="8.46702">
        <ele>2336</ele>
        <time>2021-08-11T14:48:13.187Z</time>
      </trkpt>
      <trkpt lat="46.87529" lon="8.46703">
        <ele>2336</ele>
        <time>2021-08-11T14:48:14.186Z</time>
      </trkpt>
      <trkpt lat="46.87529" lon="8.46703">
        <ele>2336</ele>
        <time>2021-08-11T14:48:15.186Z</time>
      </trkpt>
      <trkpt lat="46.87529" lon="8.46703">
        <ele>2336</ele>
        <time>2021-08-11T14:48:16.186Z</time>
      </trkpt>
      <trkpt lat="46.87529" lon="8.46703">
        <ele>2338</ele>
        <time>2021-08-11T14:48:17.189Z</time>
      </trkpt>
      <trkpt lat="46.87529" lon="8.46703">
        <ele>2338</ele>
        <time>2021-08-11T14:48:18.189Z</time>
      </trkpt>
      <trkpt lat="46.87529" lon="8.46703">
        <ele>2338</ele>
        <time>2021-08-11T14:48:19.188Z</time>
      </trkpt>
      <trkpt lat="46.87529" lon="8.46703">
        <ele>2338</ele>
        <time>2021-08-11T14:48:20.189Z</time>
      </trkpt>
      <trkpt lat="46.87529" lon="8.46702">
        <ele>2338</ele>
        <time>2021-08-11T14:48:21.189Z</time>
      </trkpt>
      <trkpt lat="46.87529" lon="8.46702">
        <ele>2338</ele>
        <time>2021-08-11T14:48:22.188Z</time>
      </trkpt>
      <trkpt lat="46.87529" lon="8.46701">
        <ele>2338</ele>
        <time>2021-08-11T14:48:23.189Z</time>
      </trkpt>
      <trkpt lat="46.87528" lon="8.46701">
        <ele>2337</ele>
        <time>2021-08-11T14:48:24.191Z</time>
      </trkpt>
      <trkpt lat="46.87528" lon="8.46702">
        <ele>2337</ele>
        <time>2021-08-11T14:48:25.191Z</time>
      </trkpt>
      <trkpt lat="46.87527" lon="8.46703">
        <ele>2337</ele>
        <time>2021-08-11T14:48:26.191Z</time>
      </trkpt>
      <trkpt lat="46.87527" lon="8.46704">
        <ele>2337</ele>
        <time>2021-08-11T14:48:27.190Z</time>
      </trkpt>
      <trkpt lat="46.87527" lon="8.46704">
        <ele>2337</ele>
        <time>2021-08-11T14:48:28.191Z</time>
      </trkpt>
      <trkpt lat="46.87527" lon="8.46705">
        <ele>2337</ele>
        <time>2021-08-11T14:48:29.190Z</time>
      </trkpt>
      <trkpt lat="46.8752" lon="8.46683">
        <ele>2333</ele>
        <time>2021-08-12T08:18:56.233Z</time>
      </trkpt>
      <trkpt lat="46.8752" lon="8.46683">
        <ele>2333</ele>
        <time>2021-08-12T08:18:56.233Z</time>
      </trkpt>
      <trkpt lat="46.8752" lon="8.46683">
        <ele>2333</ele>
        <time>2021-08-12T08:18:56.233Z</time>
      </trkpt>
      <trkpt lat="46.8752" lon="8.46683">
        <ele>2333</ele>
        <time>2021-08-12T08:18:57.234Z</time>
      </trkpt>
      <trkpt lat="46.87519" lon="8.46683">
        <ele>2334</ele>
        <time>2021-08-12T08:18:58.234Z</time>
      </trkpt>
      <trkpt lat="46.87519" lon="8.46683">
        <ele>2334</ele>
        <time>2021-08-12T08:18:59.234Z</time>
      </trkpt>
      <trkpt lat="46.87519" lon="8.46683">
        <ele>2334</ele>
        <time>2021-08-12T08:19:00.234Z</time>
      </trkpt>
      <trkpt lat="46.87518" lon="8.46683">
        <ele>2335</ele>
        <time>2021-08-12T08:19:01.234Z</time>
      </trkpt>
      <trkpt lat="46.87518" lon="8.46683">
        <ele>2335</ele>
        <time>2021-08-12T08:19:02.234Z</time>
      </trkpt>
      <trkpt lat="46.87517" lon="8.46684">
        <ele>2335</ele>
        <time>2021-08-12T08:19:03.233Z</time>
      </trkpt>
      <trkpt lat="46.87517" lon="8.46684">
        <ele>2335</ele>
        <time>2021-08-12T08:19:04.233Z</time>
      </trkpt>
      <trkpt lat="46.87516" lon="8.46684">
        <ele>2335</ele>
        <time>2021-08-12T08:19:05.234Z</time>
      </trkpt>
      <trkpt lat="46.87516" lon="8.46683">
        <ele>2334</ele>
        <time>2021-08-12T08:19:06.233Z</time>
      </trkpt>
      <trkpt lat="46.87515" lon="8.46683">
        <ele>2334</ele>
        <time>2021-08-12T08:19:07.233Z</time>
      </trkpt>
      <trkpt lat="46.87515" lon="8.46683">
        <ele>2333</ele>
        <time>2021-08-12T08:19:08.233Z</time>
      </trkpt>
      <trkpt lat="46.87514" lon="8.46683">
        <ele>2332</ele>
        <time>2021-08-12T08:19:09.233Z</time>
      </trkpt>
      <trkpt lat="46.87513" lon="8.46682">
        <ele>2332</ele>
        <time>2021-08-12T08:19:10.233Z</time>
      </trkpt>
      <trkpt lat="46.87512" lon="8.46683">
        <ele>2331</ele>
        <time>2021-08-12T08:19:11.233Z</time>
      </trkpt>
      <trkpt lat="46.87512" lon="8.46683">
        <ele>2330</ele>
        <time>2021-08-12T08:19:12.233Z</time>
      </trkpt>
      <trkpt lat="46.87511" lon="8.46683">
        <ele>2330</ele>
        <time>2021-08-12T08:19:13.234Z</time>
      </trkpt>
      <trkpt lat="46.87511" lon="8.46684">
        <ele>2329</ele>
        <time>2021-08-12T08:19:14.234Z</time>
      </trkpt>
      <trkpt lat="46.87511" lon="8.46684">
        <ele>2328</ele>
        <time>2021-08-12T08:19:15.234Z</time>
      </trkpt>
      <trkpt lat="46.87511" lon="8.46684">
        <ele>2327</ele>
        <time>2021-08-12T08:19:16.233Z</time>
      </trkpt>
      <trkpt lat="46.87511" lon="8.46684">
        <ele>2327</ele>
        <time>2021-08-12T08:19:17.233Z</time>
      </trkpt>
      <trkpt lat="46.87511" lon="8.46684">
        <ele>2327</ele>
        <time>2021-08-12T08:19:18.233Z</time>
      </trkpt>
      <trkpt lat="46.87511" lon="8.46685">
        <ele>2327</ele>
        <time>2021-08-12T08:19:19.234Z</time>
      </trkpt>
      <trkpt lat="46.8751" lon="8.46685">
        <ele>2327</ele>
        <time>2021-08-12T08:19:20.234Z</time>
      </trkpt>
      <trkpt lat="46.87509" lon="8.46686">
        <ele>2327</ele>
        <time>2021-08-12T08:19:21.233Z</time>
      </trkpt>
      <trkpt lat="46.87508" lon="8.46686">
        <ele>2328</ele>
        <time>2021-08-12T08:19:22.234Z</time>
      </trkpt>
      <trkpt lat="46.87508" lon="8.46687">
        <ele>2328</ele>
        <time>2021-08-12T08:19:23.234Z</time>
      </trkpt>
      <trkpt lat="46.87507" lon="8.46688">
        <ele>2329</ele>
        <time>2021-08-12T08:19:24.234Z</time>
      </trkpt>
      <trkpt lat="46.87506" lon="8.46688">
        <ele>2329</ele>
        <time>2021-08-12T08:19:25.233Z</time>
      </trkpt>
      <trkpt lat="46.87506" lon="8.46689">
        <ele>2330</ele>
        <time>2021-08-12T08:19:26.234Z</time>
      </trkpt>
      <trkpt lat="46.87505" lon="8.46689">
        <ele>2331</ele>
        <time>2021-08-12T08:19:27.233Z</time>
      </trkpt>
      <trkpt lat="46.87504" lon="8.4669">
        <ele>2331</ele>
        <time>2021-08-12T08:19:28.233Z</time>
      </trkpt>
      <trkpt lat="46.87503" lon="8.4669">
        <ele>2332</ele>
        <time>2021-08-12T08:19:29.234Z</time>
      </trkpt>
      <trkpt lat="46.87502" lon="8.4669">
        <ele>2332</ele>
        <time>2021-08-12T08:19:30.234Z</time>
      </trkpt>
      <trkpt lat="46.87501" lon="8.4669">
        <ele>2332</ele>
        <time>2021-08-12T08:19:31.234Z</time>
      </trkpt>
      <trkpt lat="46.87501" lon="8.46691">
        <ele>2333</ele>
        <time>2021-08-12T08:19:32.234Z</time>
      </trkpt>
      <trkpt lat="46.875" lon="8.46691">
        <ele>2333</ele>
        <time>2021-08-12T08:19:33.234Z</time>
      </trkpt>
      <trkpt lat="46.87499" lon="8.46691">
        <ele>2333</ele>
        <time>2021-08-12T08:19:34.233Z</time>
      </trkpt>
      <trkpt lat="46.87498" lon="8.46692">
        <ele>2333</ele>
        <time>2021-08-12T08:19:35.234Z</time>
      </trkpt>
      <trkpt lat="46.87497" lon="8.46692">
        <ele>2333</ele>
        <time>2021-08-12T08:19:36.234Z</time>
      </trkpt>
      <trkpt lat="46.87497" lon="8.46693">
        <ele>2332</ele>
        <time>2021-08-12T08:19:37.233Z</time>
      </trkpt>
      <trkpt lat="46.87496" lon="8.46694">
        <ele>2332</ele>
        <time>2021-08-12T08:19:38.233Z</time>
      </trkpt>
      <trkpt lat="46.87495" lon="8.46694">
        <ele>2331</ele>
        <time>2021-08-12T08:19:39.234Z</time>
      </trkpt>
      <trkpt lat="46.87494" lon="8.46695">
        <ele>2331</ele>
        <time>2021-08-12T08:19:40.234Z</time>
      </trkpt>
      <trkpt lat="46.87494" lon="8.46695">
        <ele>2330</ele>
        <time>2021-08-12T08:19:41.234Z</time>
      </trkpt>
      <trkpt lat="46.87494" lon="8.46695">
        <ele>2329</ele>
        <time>2021-08-12T08:19:42.234Z</time>
      </trkpt>
      <trkpt lat="46.87494" lon="8.46694">
        <ele>2329</ele>
        <time>2021-08-12T08:19:43.234Z</time>
      </trkpt>
      <trkpt lat="46.87493" lon="8.46693">
        <ele>2329</ele>
        <time>2021-08-12T08:19:44.234Z</time>
      </trkpt>
      <trkpt lat="46.87493" lon="8.46693">
        <ele>2329</ele>
        <time>2021-08-12T08:19:45.234Z</time>
      </trkpt>
      <trkpt lat="46.87492" lon="8.46693">
        <ele>2329</ele>
        <time>2021-08-12T08:19:46.234Z</time>
      </trkpt>
      <trkpt lat="46.87492" lon="8.46693">
        <ele>2329</ele>
        <time>2021-08-12T08:19:47.234Z</time>
      </trkpt>
      <trkpt lat="46.87491" lon="8.46694">
        <ele>2329</ele>
        <time>2021-08-12T08:19:48.234Z</time>
      </trkpt>
      <trkpt lat="46.87491" lon="8.46694">
        <ele>2329</ele>
        <time>2021-08-12T08:19:49.234Z</time>
      </trkpt>
      <trkpt lat="46.87491" lon="8.46694">
        <ele>2329</ele>
        <time>2021-08-12T08:19:50.233Z</time>
      </trkpt>
      <trkpt lat="46.8749" lon="8.46694">
        <ele>2328</ele>
        <time>2021-08-12T08:19:51.234Z</time>
      </trkpt>
      <trkpt lat="46.87489" lon="8.46693">
        <ele>2328</ele>
        <time>2021-08-12T08:19:52.234Z</time>
      </trkpt>
      <trkpt lat="46.87489" lon="8.46693">
        <ele>2328</ele>
        <time>2021-08-12T08:19:53.234Z</time>
      </trkpt>
      <trkpt lat="46.87488" lon="8.46693">
        <ele>2328</ele>
        <time>2021-08-12T08:19:54.234Z</time>
      </trkpt>
      <trkpt lat="46.87487" lon="8.46692">
        <ele>2327</ele>
        <time>2021-08-12T08:19:55.234Z</time>
      </trkpt>
      <trkpt lat="46.87486" lon="8.46692">
        <ele>2327</ele>
        <time>2021-08-12T08:19:56.234Z</time>
      </trkpt>
      <trkpt lat="46.87486" lon="8.46692">
        <ele>2327</ele>
        <time>2021-08-12T08:19:57.233Z</time>
      </trkpt>
      <trkpt lat="46.87485" lon="8.46692">
        <ele>2327</ele>
        <time>2021-08-12T08:19:58.233Z</time>
      </trkpt>
      <trkpt lat="46.87484" lon="8.46692">
        <ele>2326</ele>
        <time>2021-08-12T08:19:59.234Z</time>
      </trkpt>
      <trkpt lat="46.87484" lon="8.46692">
        <ele>2326</ele>
        <time>2021-08-12T08:20:00.234Z</time>
      </trkpt>
      <trkpt lat="46.87484" lon="8.46693">
        <ele>2325</ele>
        <time>2021-08-12T08:20:01.233Z</time>
      </trkpt>
      <trkpt lat="46.87483" lon="8.46693">
        <ele>2325</ele>
        <time>2021-08-12T08:20:02.234Z</time>
      </trkpt>
      <trkpt lat="46.87482" lon="8.46693">
        <ele>2324</ele>
        <time>2021-08-12T08:20:03.234Z</time>
      </trkpt>
      <trkpt lat="46.87482" lon="8.46693">
        <ele>2324</ele>
        <time>2021-08-12T08:20:04.233Z</time>
      </trkpt>
      <trkpt lat="46.87481" lon="8.46693">
        <ele>2324</ele>
        <time>2021-08-12T08:20:05.233Z</time>
      </trkpt>
      <trkpt lat="46.87481" lon="8.46693">
        <ele>2325</ele>
        <time>2021-08-12T08:20:06.233Z</time>
      </trkpt>
      <trkpt lat="46.8748" lon="8.46693">
        <ele>2325</ele>
        <time>2021-08-12T08:20:07.233Z</time>
      </trkpt>
      <trkpt lat="46.8748" lon="8.46694">
        <ele>2325</ele>
        <time>2021-08-12T08:20:08.234Z</time>
      </trkpt>
      <trkpt lat="46.87479" lon="8.46694">
        <ele>2325</ele>
        <time>2021-08-12T08:20:09.233Z</time>
      </trkpt>
      <trkpt lat="46.87478" lon="8.46694">
        <ele>2325</ele>
        <time>2021-08-12T08:20:10.234Z</time>
      </trkpt>
      <trkpt lat="46.87477" lon="8.46694">
        <ele>2325</ele>
        <time>2021-08-12T08:20:11.234Z</time>
      </trkpt>
      <trkpt lat="46.87476" lon="8.46694">
        <ele>2325</ele>
        <time>2021-08-12T08:20:12.233Z</time>
      </trkpt>
      <trkpt lat="46.87475" lon="8.46695">
        <ele>2324</ele>
        <time>2021-08-12T08:20:13.233Z</time>
      </trkpt>
      <trkpt lat="46.87474" lon="8.46696">
        <ele>2323</ele>
        <time>2021-08-12T08:20:14.234Z</time>
      </trkpt>
      <trkpt lat="46.87473" lon="8.46697">
        <ele>2323</ele>
        <time>2021-08-12T08:20:15.233Z</time>
      </trkpt>
      <trkpt lat="46.87472" lon="8.46698">
        <ele>2323</ele>
        <time>2021-08-12T08:20:16.233Z</time>
      </trkpt>
      <trkpt lat="46.87471" lon="8.467">
        <ele>2322</ele>
        <time>2021-08-12T08:20:17.234Z</time>
      </trkpt>
      <trkpt lat="46.87471" lon="8.46701">
        <ele>2322</ele>
        <time>2021-08-12T08:20:18.233Z</time>
      </trkpt>
      <trkpt lat="46.8747" lon="8.46703">
        <ele>2322</ele>
        <time>2021-08-12T08:20:19.233Z</time>
      </trkpt>
      <trkpt lat="46.87469" lon="8.46704">
        <ele>2322</ele>
        <time>2021-08-12T08:20:20.234Z</time>
      </trkpt>
      <trkpt lat="46.87469" lon="8.46705">
        <ele>2322</ele>
        <time>2021-08-12T08:20:21.233Z</time>
      </trkpt>
      <trkpt lat="46.87468" lon="8.46705">
        <ele>2322</ele>
        <time>2021-08-12T08:20:22.233Z</time>
      </trkpt>
      <trkpt lat="46.87467" lon="8.46707">
        <ele>2322</ele>
        <time>2021-08-12T08:20:23.233Z</time>
      </trkpt>
      <trkpt lat="46.87466" lon="8.46708">
        <ele>2322</ele>
        <time>2021-08-12T08:20:24.233Z</time>
      </trkpt>
      <trkpt lat="46.87465" lon="8.4671">
        <ele>2322</ele>
        <time>2021-08-12T08:20:25.233Z</time>
      </trkpt>
      <trkpt lat="46.87465" lon="8.4671">
        <ele>2322</ele>
        <time>2021-08-12T08:20:26.233Z</time>
      </trkpt>
      <trkpt lat="46.87464" lon="8.46711">
        <ele>2322</ele>
        <time>2021-08-12T08:20:27.233Z</time>
      </trkpt>
      <trkpt lat="46.87463" lon="8.46712">
        <ele>2322</ele>
        <time>2021-08-12T08:20:28.234Z</time>
      </trkpt>
      <trkpt lat="46.87462" lon="8.46713">
        <ele>2322</ele>
        <time>2021-08-12T08:20:29.233Z</time>
      </trkpt>
      <trkpt lat="46.87462" lon="8.46715">
        <ele>2321</ele>
        <time>2021-08-12T08:20:30.233Z</time>
      </trkpt>
      <trkpt lat="46.87461" lon="8.46716">
        <ele>2321</ele>
        <time>2021-08-12T08:20:31.234Z</time>
      </trkpt>
      <trkpt lat="46.87461" lon="8.46717">
        <ele>2320</ele>
        <time>2021-08-12T08:20:32.233Z</time>
      </trkpt>
      <trkpt lat="46.8746" lon="8.46717">
        <ele>2320</ele>
        <time>2021-08-12T08:20:33.234Z</time>
      </trkpt>
      <trkpt lat="46.8746" lon="8.46718">
        <ele>2320</ele>
        <time>2021-08-12T08:20:34.234Z</time>
      </trkpt>
      <trkpt lat="46.87459" lon="8.46718">
        <ele>2319</ele>
        <time>2021-08-12T08:20:35.234Z</time>
      </trkpt>
      <trkpt lat="46.87459" lon="8.46718">
        <ele>2319</ele>
        <time>2021-08-12T08:20:36.233Z</time>
      </trkpt>
      <trkpt lat="46.87458" lon="8.46718">
        <ele>2319</ele>
        <time>2021-08-12T08:20:37.234Z</time>
      </trkpt>
      <trkpt lat="46.87458" lon="8.46717">
        <ele>2319</ele>
        <time>2021-08-12T08:20:38.234Z</time>
      </trkpt>
      <trkpt lat="46.87458" lon="8.46717">
        <ele>2318</ele>
        <time>2021-08-12T08:20:39.234Z</time>
      </trkpt>
      <trkpt lat="46.87457" lon="8.46716">
        <ele>2318</ele>
        <time>2021-08-12T08:20:40.234Z</time>
      </trkpt>
      <trkpt lat="46.87457" lon="8.46716">
        <ele>2318</ele>
        <time>2021-08-12T08:20:41.234Z</time>
      </trkpt>
      <trkpt lat="46.87457" lon="8.46716">
        <ele>2318</ele>
        <time>2021-08-12T08:20:42.233Z</time>
      </trkpt>
      <trkpt lat="46.87456" lon="8.46715">
        <ele>2318</ele>
        <time>2021-08-12T08:20:43.234Z</time>
      </trkpt>
      <trkpt lat="46.87456" lon="8.46714">
        <ele>2318</ele>
        <time>2021-08-12T08:20:44.234Z</time>
      </trkpt>
      <trkpt lat="46.87455" lon="8.46712">
        <ele>2319</ele>
        <time>2021-08-12T08:20:45.233Z</time>
      </trkpt>
      <trkpt lat="46.87454" lon="8.46711">
        <ele>2319</ele>
        <time>2021-08-12T08:20:46.234Z</time>
      </trkpt>
      <trkpt lat="46.87453" lon="8.46711">
        <ele>2319</ele>
        <time>2021-08-12T08:20:47.234Z</time>
      </trkpt>
      <trkpt lat="46.87453" lon="8.4671">
        <ele>2319</ele>
        <time>2021-08-12T08:20:48.233Z</time>
      </trkpt>
      <trkpt lat="46.87452" lon="8.4671">
        <ele>2319</ele>
        <time>2021-08-12T08:20:49.234Z</time>
      </trkpt>
      <trkpt lat="46.87452" lon="8.4671">
        <ele>2319</ele>
        <time>2021-08-12T08:20:50.234Z</time>
      </trkpt>
      <trkpt lat="46.87451" lon="8.4671">
        <ele>2319</ele>
        <time>2021-08-12T08:20:51.234Z</time>
      </trkpt>
      <trkpt lat="46.8745" lon="8.4671">
        <ele>2319</ele>
        <time>2021-08-12T08:20:52.233Z</time>
      </trkpt>
      <trkpt lat="46.87449" lon="8.4671">
        <ele>2320</ele>
        <time>2021-08-12T08:20:53.234Z</time>
      </trkpt>
      <trkpt lat="46.87448" lon="8.4671">
        <ele>2319</ele>
        <time>2021-08-12T08:20:54.234Z</time>
      </trkpt>
      <trkpt lat="46.87448" lon="8.46711">
        <ele>2319</ele>
        <time>2021-08-12T08:20:55.233Z</time>
      </trkpt>
      <trkpt lat="46.87447" lon="8.46711">
        <ele>2319</ele>
        <time>2021-08-12T08:20:56.234Z</time>
      </trkpt>
      <trkpt lat="46.87446" lon="8.46711">
        <ele>2319</ele>
        <time>2021-08-12T08:20:57.234Z</time>
      </trkpt>
      <trkpt lat="46.87446" lon="8.46711">
        <ele>2318</ele>
        <time>2021-08-12T08:20:58.233Z</time>
      </trkpt>
      <trkpt lat="46.87445" lon="8.46712">
        <ele>2318</ele>
        <time>2021-08-12T08:20:59.234Z</time>
      </trkpt>
      <trkpt lat="46.87444" lon="8.46712">
        <ele>2317</ele>
        <time>2021-08-12T08:21:00.233Z</time>
      </trkpt>
      <trkpt lat="46.87443" lon="8.46712">
        <ele>2317</ele>
        <time>2021-08-12T08:21:01.234Z</time>
      </trkpt>
      <trkpt lat="46.87442" lon="8.46713">
        <ele>2317</ele>
        <time>2021-08-12T08:21:02.234Z</time>
      </trkpt>
      <trkpt lat="46.87441" lon="8.46713">
        <ele>2316</ele>
        <time>2021-08-12T08:21:03.233Z</time>
      </trkpt>
      <trkpt lat="46.8744" lon="8.46712">
        <ele>2316</ele>
        <time>2021-08-12T08:21:04.234Z</time>
      </trkpt>
      <trkpt lat="46.87439" lon="8.46712">
        <ele>2315</ele>
        <time>2021-08-12T08:21:05.234Z</time>
      </trkpt>
      <trkpt lat="46.87437" lon="8.46712">
        <ele>2315</ele>
        <time>2021-08-12T08:21:06.234Z</time>
      </trkpt>
      <trkpt lat="46.87435" lon="8.46712">
        <ele>2314</ele>
        <time>2021-08-12T08:21:07.234Z</time>
      </trkpt>
      <trkpt lat="46.87435" lon="8.46711">
        <ele>2314</ele>
        <time>2021-08-12T08:21:08.233Z</time>
      </trkpt>
      <trkpt lat="46.87434" lon="8.46711">
        <ele>2314</ele>
        <time>2021-08-12T08:21:09.234Z</time>
      </trkpt>
      <trkpt lat="46.87434" lon="8.46711">
        <ele>2313</ele>
        <time>2021-08-12T08:21:10.233Z</time>
      </trkpt>
      <trkpt lat="46.87433" lon="8.46711">
        <ele>2313</ele>
        <time>2021-08-12T08:21:11.233Z</time>
      </trkpt>
      <trkpt lat="46.87432" lon="8.46712">
        <ele>2312</ele>
        <time>2021-08-12T08:21:12.234Z</time>
      </trkpt>
      <trkpt lat="46.87431" lon="8.46712">
        <ele>2312</ele>
        <time>2021-08-12T08:21:13.234Z</time>
      </trkpt>
      <trkpt lat="46.87429" lon="8.46711">
        <ele>2311</ele>
        <time>2021-08-12T08:21:14.234Z</time>
      </trkpt>
      <trkpt lat="46.87428" lon="8.46711">
        <ele>2311</ele>
        <time>2021-08-12T08:21:15.234Z</time>
      </trkpt>
      <trkpt lat="46.87428" lon="8.46711">
        <ele>2310</ele>
        <time>2021-08-12T08:21:16.234Z</time>
      </trkpt>
      <trkpt lat="46.87427" lon="8.46711">
        <ele>2310</ele>
        <time>2021-08-12T08:21:17.233Z</time>
      </trkpt>
      <trkpt lat="46.87427" lon="8.46711">
        <ele>2310</ele>
        <time>2021-08-12T08:21:18.234Z</time>
      </trkpt>
      <trkpt lat="46.87426" lon="8.46711">
        <ele>2310</ele>
        <time>2021-08-12T08:21:19.234Z</time>
      </trkpt>
      <trkpt lat="46.87426" lon="8.4671">
        <ele>2310</ele>
        <time>2021-08-12T08:21:20.234Z</time>
      </trkpt>
      <trkpt lat="46.87425" lon="8.4671">
        <ele>2310</ele>
        <time>2021-08-12T08:21:21.233Z</time>
      </trkpt>
      <trkpt lat="46.87424" lon="8.4671">
        <ele>2310</ele>
        <time>2021-08-12T08:21:22.234Z</time>
      </trkpt>
      <trkpt lat="46.87423" lon="8.46709">
        <ele>2310</ele>
        <time>2021-08-12T08:21:23.234Z</time>
      </trkpt>
      <trkpt lat="46.87423" lon="8.46709">
        <ele>2310</ele>
        <time>2021-08-12T08:21:24.234Z</time>
      </trkpt>
      <trkpt lat="46.87422" lon="8.46709">
        <ele>2310</ele>
        <time>2021-08-12T08:21:25.233Z</time>
      </trkpt>
      <trkpt lat="46.87422" lon="8.46709">
        <ele>2310</ele>
        <time>2021-08-12T08:21:26.233Z</time>
      </trkpt>
      <trkpt lat="46.87421" lon="8.46708">
        <ele>2310</ele>
        <time>2021-08-12T08:21:27.233Z</time>
      </trkpt>
      <trkpt lat="46.8742" lon="8.46709">
        <ele>2310</ele>
        <time>2021-08-12T08:21:28.234Z</time>
      </trkpt>
      <trkpt lat="46.8742" lon="8.46709">
        <ele>2310</ele>
        <time>2021-08-12T08:21:29.234Z</time>
      </trkpt>
      <trkpt lat="46.87421" lon="8.4671">
        <ele>2313</ele>
        <time>2021-08-12T08:21:30.234Z</time>
      </trkpt>
      <trkpt lat="46.87421" lon="8.4671">
        <ele>2313</ele>
        <time>2021-08-12T08:21:31.235Z</time>
      </trkpt>
      <trkpt lat="46.87419" lon="8.46711">
        <ele>2312</ele>
        <time>2021-08-12T08:21:32.236Z</time>
      </trkpt>
      <trkpt lat="46.87419" lon="8.46711">
        <ele>2312</ele>
        <time>2021-08-12T08:21:33.235Z</time>
      </trkpt>
      <trkpt lat="46.87419" lon="8.46712">
        <ele>2312</ele>
        <time>2021-08-12T08:21:34.236Z</time>
      </trkpt>
      <trkpt lat="46.87419" lon="8.46713">
        <ele>2313</ele>
        <time>2021-08-12T08:21:35.235Z</time>
      </trkpt>
      <trkpt lat="46.87418" lon="8.46713">
        <ele>2312</ele>
        <time>2021-08-12T08:21:36.236Z</time>
      </trkpt>
      <trkpt lat="46.87418" lon="8.46714">
        <ele>2312</ele>
        <time>2021-08-12T08:21:37.237Z</time>
      </trkpt>
      <trkpt lat="46.87417" lon="8.46715">
        <ele>2312</ele>
        <time>2021-08-12T08:21:38.236Z</time>
      </trkpt>
      <trkpt lat="46.87416" lon="8.46714">
        <ele>2312</ele>
        <time>2021-08-12T08:21:39.236Z</time>
      </trkpt>
      <trkpt lat="46.87416" lon="8.46715">
        <ele>2313</ele>
        <time>2021-08-12T08:21:40.237Z</time>
      </trkpt>
      <trkpt lat="46.87415" lon="8.46716">
        <ele>2312</ele>
        <time>2021-08-12T08:21:41.237Z</time>
      </trkpt>
      <trkpt lat="46.87414" lon="8.46716">
        <ele>2313</ele>
        <time>2021-08-12T08:21:42.236Z</time>
      </trkpt>
      <trkpt lat="46.87413" lon="8.46717">
        <ele>2312</ele>
        <time>2021-08-12T08:21:43.236Z</time>
      </trkpt>
      <trkpt lat="46.87413" lon="8.46717">
        <ele>2312</ele>
        <time>2021-08-12T08:21:44.237Z</time>
      </trkpt>
      <trkpt lat="46.87412" lon="8.46718">
        <ele>2312</ele>
        <time>2021-08-12T08:21:45.236Z</time>
      </trkpt>
      <trkpt lat="46.87411" lon="8.46718">
        <ele>2312</ele>
        <time>2021-08-12T08:21:46.236Z</time>
      </trkpt>
      <trkpt lat="46.87411" lon="8.46718">
        <ele>2312</ele>
        <time>2021-08-12T08:21:47.237Z</time>
      </trkpt>
      <trkpt lat="46.8741" lon="8.46718">
        <ele>2311</ele>
        <time>2021-08-12T08:21:48.236Z</time>
      </trkpt>
      <trkpt lat="46.87409" lon="8.46719">
        <ele>2312</ele>
        <time>2021-08-12T08:21:49.237Z</time>
      </trkpt>
      <trkpt lat="46.87409" lon="8.46719">
        <ele>2312</ele>
        <time>2021-08-12T08:21:50.237Z</time>
      </trkpt>
      <trkpt lat="46.87408" lon="8.4672">
        <ele>2313</ele>
        <time>2021-08-12T08:21:51.237Z</time>
      </trkpt>
      <trkpt lat="46.87408" lon="8.46721">
        <ele>2313</ele>
        <time>2021-08-12T08:21:52.237Z</time>
      </trkpt>
      <trkpt lat="46.87407" lon="8.46721">
        <ele>2313</ele>
        <time>2021-08-12T08:21:53.236Z</time>
      </trkpt>
      <trkpt lat="46.87406" lon="8.46721">
        <ele>2314</ele>
        <time>2021-08-12T08:21:54.237Z</time>
      </trkpt>
      <trkpt lat="46.87406" lon="8.4672">
        <ele>2314</ele>
        <time>2021-08-12T08:21:55.237Z</time>
      </trkpt>
      <trkpt lat="46.87405" lon="8.4672">
        <ele>2314</ele>
        <time>2021-08-12T08:21:56.236Z</time>
      </trkpt>
      <trkpt lat="46.87405" lon="8.4672">
        <ele>2314</ele>
        <time>2021-08-12T08:21:57.237Z</time>
      </trkpt>
      <trkpt lat="46.87404" lon="8.4672">
        <ele>2315</ele>
        <time>2021-08-12T08:21:58.237Z</time>
      </trkpt>
      <trkpt lat="46.87403" lon="8.46719">
        <ele>2315</ele>
        <time>2021-08-12T08:21:59.237Z</time>
      </trkpt>
      <trkpt lat="46.87402" lon="8.46719">
        <ele>2316</ele>
        <time>2021-08-12T08:22:00.236Z</time>
      </trkpt>
      <trkpt lat="46.87401" lon="8.4672">
        <ele>2317</ele>
        <time>2021-08-12T08:22:01.236Z</time>
      </trkpt>
      <trkpt lat="46.87401" lon="8.4672">
        <ele>2317</ele>
        <time>2021-08-12T08:22:02.237Z</time>
      </trkpt>
      <trkpt lat="46.874" lon="8.46721">
        <ele>2317</ele>
        <time>2021-08-12T08:22:03.237Z</time>
      </trkpt>
      <trkpt lat="46.874" lon="8.46722">
        <ele>2317</ele>
        <time>2021-08-12T08:22:04.237Z</time>
      </trkpt>
      <trkpt lat="46.87399" lon="8.46722">
        <ele>2317</ele>
        <time>2021-08-12T08:22:05.237Z</time>
      </trkpt>
      <trkpt lat="46.874" lon="8.46723">
        <ele>2317</ele>
        <time>2021-08-12T08:22:06.237Z</time>
      </trkpt>
      <trkpt lat="46.874" lon="8.46724">
        <ele>2317</ele>
        <time>2021-08-12T08:22:07.237Z</time>
      </trkpt>
      <trkpt lat="46.874" lon="8.46724">
        <ele>2317</ele>
        <time>2021-08-12T08:22:08.237Z</time>
      </trkpt>
      <trkpt lat="46.87399" lon="8.46725">
        <ele>2317</ele>
        <time>2021-08-12T08:22:09.238Z</time>
      </trkpt>
      <trkpt lat="46.87399" lon="8.46726">
        <ele>2317</ele>
        <time>2021-08-12T08:22:10.237Z</time>
      </trkpt>
      <trkpt lat="46.87399" lon="8.46725">
        <ele>2317</ele>
        <time>2021-08-12T08:22:11.237Z</time>
      </trkpt>
      <trkpt lat="46.87397" lon="8.46724">
        <ele>2318</ele>
        <time>2021-08-12T08:22:12.238Z</time>
      </trkpt>
      <trkpt lat="46.87397" lon="8.46724">
        <ele>2318</ele>
        <time>2021-08-12T08:22:13.238Z</time>
      </trkpt>
      <trkpt lat="46.87397" lon="8.46725">
        <ele>2318</ele>
        <time>2021-08-12T08:22:14.238Z</time>
      </trkpt>
      <trkpt lat="46.87396" lon="8.46725">
        <ele>2318</ele>
        <time>2021-08-12T08:22:15.238Z</time>
      </trkpt>
      <trkpt lat="46.87396" lon="8.46726">
        <ele>2318</ele>
        <time>2021-08-12T08:22:16.237Z</time>
      </trkpt>
      <trkpt lat="46.87395" lon="8.46727">
        <ele>2318</ele>
        <time>2021-08-12T08:22:17.238Z</time>
      </trkpt>
      <trkpt lat="46.87395" lon="8.46727">
        <ele>2318</ele>
        <time>2021-08-12T08:22:18.238Z</time>
      </trkpt>
      <trkpt lat="46.87394" lon="8.46728">
        <ele>2318</ele>
        <time>2021-08-12T08:22:19.237Z</time>
      </trkpt>
      <trkpt lat="46.87393" lon="8.46728">
        <ele>2318</ele>
        <time>2021-08-12T08:22:20.238Z</time>
      </trkpt>
      <trkpt lat="46.87393" lon="8.46729">
        <ele>2317</ele>
        <time>2021-08-12T08:22:21.237Z</time>
      </trkpt>
      <trkpt lat="46.87392" lon="8.46729">
        <ele>2317</ele>
        <time>2021-08-12T08:22:22.238Z</time>
      </trkpt>
      <trkpt lat="46.87391" lon="8.4673">
        <ele>2317</ele>
        <time>2021-08-12T08:22:23.238Z</time>
      </trkpt>
      <trkpt lat="46.87391" lon="8.46731">
        <ele>2317</ele>
        <time>2021-08-12T08:22:24.238Z</time>
      </trkpt>
      <trkpt lat="46.8739" lon="8.46733">
        <ele>2317</ele>
        <time>2021-08-12T08:22:25.237Z</time>
      </trkpt>
      <trkpt lat="46.8739" lon="8.46733">
        <ele>2318</ele>
        <time>2021-08-12T08:22:26.237Z</time>
      </trkpt>
      <trkpt lat="46.8739" lon="8.46734">
        <ele>2318</ele>
        <time>2021-08-12T08:22:27.237Z</time>
      </trkpt>
      <trkpt lat="46.8739" lon="8.46734">
        <ele>2318</ele>
        <time>2021-08-12T08:22:28.238Z</time>
      </trkpt>
      <trkpt lat="46.87389" lon="8.46735">
        <ele>2316</ele>
        <time>2021-08-12T08:22:29.239Z</time>
      </trkpt>
      <trkpt lat="46.87389" lon="8.46735">
        <ele>2317</ele>
        <time>2021-08-12T08:22:30.238Z</time>
      </trkpt>
      <trkpt lat="46.87388" lon="8.46736">
        <ele>2316</ele>
        <time>2021-08-12T08:22:31.238Z</time>
      </trkpt>
      <trkpt lat="46.87388" lon="8.46736">
        <ele>2316</ele>
        <time>2021-08-12T08:22:32.238Z</time>
      </trkpt>
      <trkpt lat="46.87387" lon="8.46737">
        <ele>2315</ele>
        <time>2021-08-12T08:22:33.239Z</time>
      </trkpt>
      <trkpt lat="46.87387" lon="8.46737">
        <ele>2315</ele>
        <time>2021-08-12T08:22:34.239Z</time>
      </trkpt>
      <trkpt lat="46.87387" lon="8.46738">
        <ele>2315</ele>
        <time>2021-08-12T08:22:35.238Z</time>
      </trkpt>
      <trkpt lat="46.87386" lon="8.46738">
        <ele>2315</ele>
        <time>2021-08-12T08:22:36.239Z</time>
      </trkpt>
      <trkpt lat="46.87386" lon="8.46737">
        <ele>2315</ele>
        <time>2021-08-12T08:22:37.239Z</time>
      </trkpt>
      <trkpt lat="46.87386" lon="8.46737">
        <ele>2315</ele>
        <time>2021-08-12T08:22:38.239Z</time>
      </trkpt>
      <trkpt lat="46.87385" lon="8.46738">
        <ele>2314</ele>
        <time>2021-08-12T08:22:39.239Z</time>
      </trkpt>
      <trkpt lat="46.87385" lon="8.46739">
        <ele>2313</ele>
        <time>2021-08-12T08:22:40.238Z</time>
      </trkpt>
      <trkpt lat="46.87384" lon="8.46739">
        <ele>2313</ele>
        <time>2021-08-12T08:22:41.238Z</time>
      </trkpt>
      <trkpt lat="46.87384" lon="8.46741">
        <ele>2311</ele>
        <time>2021-08-12T08:22:42.238Z</time>
      </trkpt>
      <trkpt lat="46.87384" lon="8.46742">
        <ele>2311</ele>
        <time>2021-08-12T08:22:43.238Z</time>
      </trkpt>
      <trkpt lat="46.87384" lon="8.46742">
        <ele>2311</ele>
        <time>2021-08-12T08:22:44.238Z</time>
      </trkpt>
      <trkpt lat="46.87383" lon="8.46742">
        <ele>2311</ele>
        <time>2021-08-12T08:22:45.238Z</time>
      </trkpt>
      <trkpt lat="46.87383" lon="8.46743">
        <ele>2311</ele>
        <time>2021-08-12T08:22:46.238Z</time>
      </trkpt>
      <trkpt lat="46.87382" lon="8.46744">
        <ele>2311</ele>
        <time>2021-08-12T08:22:47.238Z</time>
      </trkpt>
      <trkpt lat="46.87382" lon="8.46744">
        <ele>2311</ele>
        <time>2021-08-12T08:22:48.238Z</time>
      </trkpt>
      <trkpt lat="46.87381" lon="8.46745">
        <ele>2311</ele>
        <time>2021-08-12T08:22:49.238Z</time>
      </trkpt>
      <trkpt lat="46.87381" lon="8.46745">
        <ele>2311</ele>
        <time>2021-08-12T08:22:50.238Z</time>
      </trkpt>
      <trkpt lat="46.8738" lon="8.46746">
        <ele>2311</ele>
        <time>2021-08-12T08:22:51.239Z</time>
      </trkpt>
      <trkpt lat="46.87379" lon="8.46746">
        <ele>2311</ele>
        <time>2021-08-12T08:22:52.239Z</time>
      </trkpt>
      <trkpt lat="46.87379" lon="8.46746">
        <ele>2311</ele>
        <time>2021-08-12T08:22:53.239Z</time>
      </trkpt>
      <trkpt lat="46.87378" lon="8.46747">
        <ele>2311</ele>
        <time>2021-08-12T08:22:54.239Z</time>
      </trkpt>
      <trkpt lat="46.87378" lon="8.46747">
        <ele>2311</ele>
        <time>2021-08-12T08:22:55.239Z</time>
      </trkpt>
      <trkpt lat="46.87377" lon="8.46748">
        <ele>2311</ele>
        <time>2021-08-12T08:22:56.239Z</time>
      </trkpt>
      <trkpt lat="46.87377" lon="8.46749">
        <ele>2312</ele>
        <time>2021-08-12T08:22:57.238Z</time>
      </trkpt>
      <trkpt lat="46.87376" lon="8.46749">
        <ele>2312</ele>
        <time>2021-08-12T08:22:58.239Z</time>
      </trkpt>
      <trkpt lat="46.87375" lon="8.4675">
        <ele>2312</ele>
        <time>2021-08-12T08:22:59.239Z</time>
      </trkpt>
      <trkpt lat="46.87375" lon="8.4675">
        <ele>2312</ele>
        <time>2021-08-12T08:23:00.239Z</time>
      </trkpt>
      <trkpt lat="46.87374" lon="8.46751">
        <ele>2313</ele>
        <time>2021-08-12T08:23:01.239Z</time>
      </trkpt>
      <trkpt lat="46.87374" lon="8.46752">
        <ele>2313</ele>
        <time>2021-08-12T08:23:02.239Z</time>
      </trkpt>
      <trkpt lat="46.87373" lon="8.46754">
        <ele>2313</ele>
        <time>2021-08-12T08:23:03.238Z</time>
      </trkpt>
      <trkpt lat="46.87372" lon="8.46755">
        <ele>2312</ele>
        <time>2021-08-12T08:23:04.239Z</time>
      </trkpt>
      <trkpt lat="46.87372" lon="8.46755">
        <ele>2312</ele>
        <time>2021-08-12T08:23:05.238Z</time>
      </trkpt>
      <trkpt lat="46.87371" lon="8.46756">
        <ele>2312</ele>
        <time>2021-08-12T08:23:06.238Z</time>
      </trkpt>
      <trkpt lat="46.8737" lon="8.46757">
        <ele>2311</ele>
        <time>2021-08-12T08:23:07.238Z</time>
      </trkpt>
      <trkpt lat="46.8737" lon="8.46758">
        <ele>2311</ele>
        <time>2021-08-12T08:23:08.238Z</time>
      </trkpt>
      <trkpt lat="46.87369" lon="8.46758">
        <ele>2310</ele>
        <time>2021-08-12T08:23:09.239Z</time>
      </trkpt>
      <trkpt lat="46.87368" lon="8.46759">
        <ele>2310</ele>
        <time>2021-08-12T08:23:10.239Z</time>
      </trkpt>
      <trkpt lat="46.87368" lon="8.46759">
        <ele>2310</ele>
        <time>2021-08-12T08:23:11.239Z</time>
      </trkpt>
      <trkpt lat="46.87367" lon="8.46759">
        <ele>2309</ele>
        <time>2021-08-12T08:23:12.238Z</time>
      </trkpt>
      <trkpt lat="46.87367" lon="8.4676">
        <ele>2309</ele>
        <time>2021-08-12T08:23:13.238Z</time>
      </trkpt>
      <trkpt lat="46.87366" lon="8.46761">
        <ele>2309</ele>
        <time>2021-08-12T08:23:14.238Z</time>
      </trkpt>
      <trkpt lat="46.87366" lon="8.46762">
        <ele>2309</ele>
        <time>2021-08-12T08:23:15.239Z</time>
      </trkpt>
      <trkpt lat="46.87365" lon="8.46762">
        <ele>2308</ele>
        <time>2021-08-12T08:23:16.238Z</time>
      </trkpt>
      <trkpt lat="46.87365" lon="8.46762">
        <ele>2308</ele>
        <time>2021-08-12T08:23:17.238Z</time>
      </trkpt>
      <trkpt lat="46.87364" lon="8.46762">
        <ele>2308</ele>
        <time>2021-08-12T08:23:18.238Z</time>
      </trkpt>
      <trkpt lat="46.87364" lon="8.46763">
        <ele>2309</ele>
        <time>2021-08-12T08:23:19.238Z</time>
      </trkpt>
      <trkpt lat="46.87363" lon="8.46763">
        <ele>2308</ele>
        <time>2021-08-12T08:23:20.238Z</time>
      </trkpt>
      <trkpt lat="46.87363" lon="8.46762">
        <ele>2309</ele>
        <time>2021-08-12T08:23:21.238Z</time>
      </trkpt>
      <trkpt lat="46.87363" lon="8.46762">
        <ele>2309</ele>
        <time>2021-08-12T08:23:22.238Z</time>
      </trkpt>
      <trkpt lat="46.87363" lon="8.46762">
        <ele>2309</ele>
        <time>2021-08-12T08:23:23.238Z</time>
      </trkpt>
      <trkpt lat="46.87362" lon="8.46761">
        <ele>2309</ele>
        <time>2021-08-12T08:23:24.238Z</time>
      </trkpt>
      <trkpt lat="46.87362" lon="8.4676">
        <ele>2309</ele>
        <time>2021-08-12T08:23:25.239Z</time>
      </trkpt>
      <trkpt lat="46.87362" lon="8.46759">
        <ele>2309</ele>
        <time>2021-08-12T08:23:26.238Z</time>
      </trkpt>
      <trkpt lat="46.87362" lon="8.46759">
        <ele>2310</ele>
        <time>2021-08-12T08:23:27.238Z</time>
      </trkpt>
      <trkpt lat="46.87362" lon="8.46759">
        <ele>2310</ele>
        <time>2021-08-12T08:23:28.238Z</time>
      </trkpt>
      <trkpt lat="46.87361" lon="8.46759">
        <ele>2310</ele>
        <time>2021-08-12T08:23:29.238Z</time>
      </trkpt>
      <trkpt lat="46.8736" lon="8.46759">
        <ele>2310</ele>
        <time>2021-08-12T08:23:30.238Z</time>
      </trkpt>
      <trkpt lat="46.8736" lon="8.46759">
        <ele>2310</ele>
        <time>2021-08-12T08:23:31.238Z</time>
      </trkpt>
      <trkpt lat="46.87359" lon="8.46759">
        <ele>2310</ele>
        <time>2021-08-12T08:23:32.238Z</time>
      </trkpt>
      <trkpt lat="46.87359" lon="8.4676">
        <ele>2310</ele>
        <time>2021-08-12T08:23:33.238Z</time>
      </trkpt>
      <trkpt lat="46.87359" lon="8.4676">
        <ele>2310</ele>
        <time>2021-08-12T08:23:34.238Z</time>
      </trkpt>
      <trkpt lat="46.87358" lon="8.46761">
        <ele>2309</ele>
        <time>2021-08-12T08:23:35.239Z</time>
      </trkpt>
      <trkpt lat="46.87358" lon="8.46761">
        <ele>2309</ele>
        <time>2021-08-12T08:23:36.239Z</time>
      </trkpt>
      <trkpt lat="46.87358" lon="8.46762">
        <ele>2308</ele>
        <time>2021-08-12T08:23:37.238Z</time>
      </trkpt>
      <trkpt lat="46.87357" lon="8.46763">
        <ele>2308</ele>
        <time>2021-08-12T08:23:38.238Z</time>
      </trkpt>
      <trkpt lat="46.87356" lon="8.46764">
        <ele>2308</ele>
        <time>2021-08-12T08:23:39.238Z</time>
      </trkpt>
      <trkpt lat="46.87356" lon="8.46764">
        <ele>2307</ele>
        <time>2021-08-12T08:23:40.239Z</time>
      </trkpt>
      <trkpt lat="46.87355" lon="8.46765">
        <ele>2307</ele>
        <time>2021-08-12T08:23:41.239Z</time>
      </trkpt>
      <trkpt lat="46.87355" lon="8.46766">
        <ele>2307</ele>
        <time>2021-08-12T08:23:42.239Z</time>
      </trkpt>
      <trkpt lat="46.87354" lon="8.46766">
        <ele>2307</ele>
        <time>2021-08-12T08:23:43.238Z</time>
      </trkpt>
      <trkpt lat="46.87353" lon="8.46766">
        <ele>2307</ele>
        <time>2021-08-12T08:23:44.238Z</time>
      </trkpt>
      <trkpt lat="46.87352" lon="8.46766">
        <ele>2307</ele>
        <time>2021-08-12T08:23:45.238Z</time>
      </trkpt>
      <trkpt lat="46.87351" lon="8.46767">
        <ele>2307</ele>
        <time>2021-08-12T08:23:46.239Z</time>
      </trkpt>
      <trkpt lat="46.87351" lon="8.46767">
        <ele>2307</ele>
        <time>2021-08-12T08:23:47.238Z</time>
      </trkpt>
      <trkpt lat="46.8735" lon="8.46768">
        <ele>2306</ele>
        <time>2021-08-12T08:23:48.238Z</time>
      </trkpt>
      <trkpt lat="46.87349" lon="8.46769">
        <ele>2306</ele>
        <time>2021-08-12T08:23:49.238Z</time>
      </trkpt>
      <trkpt lat="46.87348" lon="8.46769">
        <ele>2306</ele>
        <time>2021-08-12T08:23:50.238Z</time>
      </trkpt>
      <trkpt lat="46.87348" lon="8.46769">
        <ele>2306</ele>
        <time>2021-08-12T08:23:51.239Z</time>
      </trkpt>
      <trkpt lat="46.87347" lon="8.46769">
        <ele>2306</ele>
        <time>2021-08-12T08:23:52.238Z</time>
      </trkpt>
      <trkpt lat="46.87347" lon="8.46769">
        <ele>2306</ele>
        <time>2021-08-12T08:23:53.238Z</time>
      </trkpt>
      <trkpt lat="46.87346" lon="8.4677">
        <ele>2305</ele>
        <time>2021-08-12T08:23:54.238Z</time>
      </trkpt>
      <trkpt lat="46.87345" lon="8.4677">
        <ele>2305</ele>
        <time>2021-08-12T08:23:55.239Z</time>
      </trkpt>
      <trkpt lat="46.87345" lon="8.46771">
        <ele>2303</ele>
        <time>2021-08-12T08:23:56.239Z</time>
      </trkpt>
      <trkpt lat="46.87344" lon="8.46771">
        <ele>2302</ele>
        <time>2021-08-12T08:23:57.239Z</time>
      </trkpt>
      <trkpt lat="46.87344" lon="8.46771">
        <ele>2302</ele>
        <time>2021-08-12T08:23:58.238Z</time>
      </trkpt>
      <trkpt lat="46.87343" lon="8.46771">
        <ele>2301</ele>
        <time>2021-08-12T08:23:59.238Z</time>
      </trkpt>
      <trkpt lat="46.87342" lon="8.46771">
        <ele>2301</ele>
        <time>2021-08-12T08:24:00.238Z</time>
      </trkpt>
      <trkpt lat="46.87341" lon="8.46771">
        <ele>2301</ele>
        <time>2021-08-12T08:24:01.239Z</time>
      </trkpt>
      <trkpt lat="46.8734" lon="8.46771">
        <ele>2302</ele>
        <time>2021-08-12T08:24:02.239Z</time>
      </trkpt>
      <trkpt lat="46.87339" lon="8.46772">
        <ele>2302</ele>
        <time>2021-08-12T08:24:03.239Z</time>
      </trkpt>
      <trkpt lat="46.87338" lon="8.46772">
        <ele>2302</ele>
        <time>2021-08-12T08:24:04.239Z</time>
      </trkpt>
      <trkpt lat="46.87337" lon="8.46773">
        <ele>2302</ele>
        <time>2021-08-12T08:24:05.239Z</time>
      </trkpt>
      <trkpt lat="46.87337" lon="8.46774">
        <ele>2302</ele>
        <time>2021-08-12T08:24:06.239Z</time>
      </trkpt>
      <trkpt lat="46.87336" lon="8.46774">
        <ele>2302</ele>
        <time>2021-08-12T08:24:07.238Z</time>
      </trkpt>
      <trkpt lat="46.87336" lon="8.46775">
        <ele>2301</ele>
        <time>2021-08-12T08:24:08.238Z</time>
      </trkpt>
      <trkpt lat="46.87335" lon="8.46774">
        <ele>2301</ele>
        <time>2021-08-12T08:24:09.239Z</time>
      </trkpt>
      <trkpt lat="46.87335" lon="8.46775">
        <ele>2300</ele>
        <time>2021-08-12T08:24:10.239Z</time>
      </trkpt>
      <trkpt lat="46.87334" lon="8.46775">
        <ele>2300</ele>
        <time>2021-08-12T08:24:11.239Z</time>
      </trkpt>
      <trkpt lat="46.87333" lon="8.46776">
        <ele>2300</ele>
        <time>2021-08-12T08:24:12.239Z</time>
      </trkpt>
      <trkpt lat="46.87333" lon="8.46777">
        <ele>2300</ele>
        <time>2021-08-12T08:24:13.239Z</time>
      </trkpt>
      <trkpt lat="46.87333" lon="8.46778">
        <ele>2300</ele>
        <time>2021-08-12T08:24:14.238Z</time>
      </trkpt>
      <trkpt lat="46.87332" lon="8.46779">
        <ele>2300</ele>
        <time>2021-08-12T08:24:15.239Z</time>
      </trkpt>
      <trkpt lat="46.87331" lon="8.4678">
        <ele>2300</ele>
        <time>2021-08-12T08:24:16.238Z</time>
      </trkpt>
      <trkpt lat="46.8733" lon="8.46781">
        <ele>2300</ele>
        <time>2021-08-12T08:24:17.238Z</time>
      </trkpt>
      <trkpt lat="46.8733" lon="8.46782">
        <ele>2299</ele>
        <time>2021-08-12T08:24:18.239Z</time>
      </trkpt>
      <trkpt lat="46.87329" lon="8.46783">
        <ele>2299</ele>
        <time>2021-08-12T08:24:19.238Z</time>
      </trkpt>
      <trkpt lat="46.87328" lon="8.46784">
        <ele>2298</ele>
        <time>2021-08-12T08:24:20.238Z</time>
      </trkpt>
      <trkpt lat="46.87328" lon="8.46784">
        <ele>2298</ele>
        <time>2021-08-12T08:24:21.239Z</time>
      </trkpt>
      <trkpt lat="46.87327" lon="8.46785">
        <ele>2298</ele>
        <time>2021-08-12T08:24:22.239Z</time>
      </trkpt>
      <trkpt lat="46.87326" lon="8.46786">
        <ele>2298</ele>
        <time>2021-08-12T08:24:23.239Z</time>
      </trkpt>
      <trkpt lat="46.87325" lon="8.46787">
        <ele>2298</ele>
        <time>2021-08-12T08:24:24.238Z</time>
      </trkpt>
      <trkpt lat="46.87325" lon="8.46789">
        <ele>2297</ele>
        <time>2021-08-12T08:24:25.239Z</time>
      </trkpt>
      <trkpt lat="46.87324" lon="8.4679">
        <ele>2297</ele>
        <time>2021-08-12T08:24:26.239Z</time>
      </trkpt>
      <trkpt lat="46.87323" lon="8.46791">
        <ele>2296</ele>
        <time>2021-08-12T08:24:27.239Z</time>
      </trkpt>
      <trkpt lat="46.87323" lon="8.46792">
        <ele>2295</ele>
        <time>2021-08-12T08:24:28.239Z</time>
      </trkpt>
      <trkpt lat="46.87322" lon="8.46794">
        <ele>2295</ele>
        <time>2021-08-12T08:24:29.239Z</time>
      </trkpt>
      <trkpt lat="46.87322" lon="8.46795">
        <ele>2294</ele>
        <time>2021-08-12T08:24:30.239Z</time>
      </trkpt>
      <trkpt lat="46.87321" lon="8.46796">
        <ele>2294</ele>
        <time>2021-08-12T08:24:31.239Z</time>
      </trkpt>
      <trkpt lat="46.87321" lon="8.46797">
        <ele>2293</ele>
        <time>2021-08-12T08:24:32.238Z</time>
      </trkpt>
      <trkpt lat="46.8732" lon="8.46798">
        <ele>2293</ele>
        <time>2021-08-12T08:24:33.238Z</time>
      </trkpt>
      <trkpt lat="46.8732" lon="8.46799">
        <ele>2293</ele>
        <time>2021-08-12T08:24:34.239Z</time>
      </trkpt>
      <trkpt lat="46.87319" lon="8.468">
        <ele>2293</ele>
        <time>2021-08-12T08:24:35.239Z</time>
      </trkpt>
      <trkpt lat="46.87318" lon="8.468">
        <ele>2293</ele>
        <time>2021-08-12T08:24:36.239Z</time>
      </trkpt>
      <trkpt lat="46.87318" lon="8.46801">
        <ele>2293</ele>
        <time>2021-08-12T08:24:37.238Z</time>
      </trkpt>
      <trkpt lat="46.87317" lon="8.46802">
        <ele>2293</ele>
        <time>2021-08-12T08:24:38.238Z</time>
      </trkpt>
      <trkpt lat="46.87317" lon="8.46803">
        <ele>2293</ele>
        <time>2021-08-12T08:24:39.239Z</time>
      </trkpt>
      <trkpt lat="46.87316" lon="8.46804">
        <ele>2293</ele>
        <time>2021-08-12T08:24:40.239Z</time>
      </trkpt>
      <trkpt lat="46.87315" lon="8.46805">
        <ele>2293</ele>
        <time>2021-08-12T08:24:41.238Z</time>
      </trkpt>
      <trkpt lat="46.87315" lon="8.46805">
        <ele>2293</ele>
        <time>2021-08-12T08:24:42.238Z</time>
      </trkpt>
      <trkpt lat="46.87315" lon="8.46807">
        <ele>2293</ele>
        <time>2021-08-12T08:24:43.238Z</time>
      </trkpt>
      <trkpt lat="46.87314" lon="8.46807">
        <ele>2293</ele>
        <time>2021-08-12T08:24:44.238Z</time>
      </trkpt>
      <trkpt lat="46.87314" lon="8.46808">
        <ele>2292</ele>
        <time>2021-08-12T08:24:45.239Z</time>
      </trkpt>
      <trkpt lat="46.87313" lon="8.46809">
        <ele>2292</ele>
        <time>2021-08-12T08:24:46.238Z</time>
      </trkpt>
      <trkpt lat="46.87313" lon="8.46809">
        <ele>2291</ele>
        <time>2021-08-12T08:24:47.239Z</time>
      </trkpt>
      <trkpt lat="46.87312" lon="8.46809">
        <ele>2291</ele>
        <time>2021-08-12T08:24:48.238Z</time>
      </trkpt>
      <trkpt lat="46.87311" lon="8.4681">
        <ele>2291</ele>
        <time>2021-08-12T08:24:49.238Z</time>
      </trkpt>
      <trkpt lat="46.87311" lon="8.4681">
        <ele>2291</ele>
        <time>2021-08-12T08:24:50.239Z</time>
      </trkpt>
      <trkpt lat="46.8731" lon="8.46811">
        <ele>2291</ele>
        <time>2021-08-12T08:24:51.238Z</time>
      </trkpt>
      <trkpt lat="46.87309" lon="8.46812">
        <ele>2291</ele>
        <time>2021-08-12T08:24:52.239Z</time>
      </trkpt>
      <trkpt lat="46.87308" lon="8.46813">
        <ele>2291</ele>
        <time>2021-08-12T08:24:53.239Z</time>
      </trkpt>
      <trkpt lat="46.87308" lon="8.46814">
        <ele>2291</ele>
        <time>2021-08-12T08:24:54.239Z</time>
      </trkpt>
      <trkpt lat="46.87307" lon="8.46816">
        <ele>2290</ele>
        <time>2021-08-12T08:24:55.238Z</time>
      </trkpt>
      <trkpt lat="46.87306" lon="8.46816">
        <ele>2290</ele>
        <time>2021-08-12T08:24:56.239Z</time>
      </trkpt>
      <trkpt lat="46.87306" lon="8.46817">
        <ele>2290</ele>
        <time>2021-08-12T08:24:57.238Z</time>
      </trkpt>
      <trkpt lat="46.87305" lon="8.46818">
        <ele>2290</ele>
        <time>2021-08-12T08:24:58.238Z</time>
      </trkpt>
      <trkpt lat="46.87304" lon="8.46819">
        <ele>2290</ele>
        <time>2021-08-12T08:24:59.239Z</time>
      </trkpt>
      <trkpt lat="46.87304" lon="8.4682">
        <ele>2289</ele>
        <time>2021-08-12T08:25:00.239Z</time>
      </trkpt>
      <trkpt lat="46.87303" lon="8.46821">
        <ele>2289</ele>
        <time>2021-08-12T08:25:01.239Z</time>
      </trkpt>
      <trkpt lat="46.87303" lon="8.46823">
        <ele>2289</ele>
        <time>2021-08-12T08:25:02.239Z</time>
      </trkpt>
      <trkpt lat="46.87302" lon="8.46824">
        <ele>2289</ele>
        <time>2021-08-12T08:25:03.239Z</time>
      </trkpt>
      <trkpt lat="46.87301" lon="8.46825">
        <ele>2289</ele>
        <time>2021-08-12T08:25:04.239Z</time>
      </trkpt>
      <trkpt lat="46.87301" lon="8.46827">
        <ele>2290</ele>
        <time>2021-08-12T08:25:05.239Z</time>
      </trkpt>
      <trkpt lat="46.873" lon="8.46828">
        <ele>2289</ele>
        <time>2021-08-12T08:25:06.238Z</time>
      </trkpt>
      <trkpt lat="46.873" lon="8.46829">
        <ele>2289</ele>
        <time>2021-08-12T08:25:07.239Z</time>
      </trkpt>
      <trkpt lat="46.87299" lon="8.4683">
        <ele>2289</ele>
        <time>2021-08-12T08:25:08.239Z</time>
      </trkpt>
      <trkpt lat="46.87298" lon="8.46831">
        <ele>2289</ele>
        <time>2021-08-12T08:25:09.239Z</time>
      </trkpt>
      <trkpt lat="46.87297" lon="8.46833">
        <ele>2289</ele>
        <time>2021-08-12T08:25:10.239Z</time>
      </trkpt>
      <trkpt lat="46.87297" lon="8.46835">
        <ele>2289</ele>
        <time>2021-08-12T08:25:11.239Z</time>
      </trkpt>
      <trkpt lat="46.87296" lon="8.46836">
        <ele>2289</ele>
        <time>2021-08-12T08:25:12.238Z</time>
      </trkpt>
      <trkpt lat="46.87295" lon="8.46838">
        <ele>2288</ele>
        <time>2021-08-12T08:25:13.239Z</time>
      </trkpt>
      <trkpt lat="46.87295" lon="8.46839">
        <ele>2288</ele>
        <time>2021-08-12T08:25:14.238Z</time>
      </trkpt>
      <trkpt lat="46.87294" lon="8.4684">
        <ele>2287</ele>
        <time>2021-08-12T08:25:15.239Z</time>
      </trkpt>
      <trkpt lat="46.87294" lon="8.46842">
        <ele>2287</ele>
        <time>2021-08-12T08:25:16.239Z</time>
      </trkpt>
      <trkpt lat="46.87293" lon="8.46843">
        <ele>2286</ele>
        <time>2021-08-12T08:25:17.238Z</time>
      </trkpt>
      <trkpt lat="46.87293" lon="8.46845">
        <ele>2285</ele>
        <time>2021-08-12T08:25:18.238Z</time>
      </trkpt>
      <trkpt lat="46.87292" lon="8.46846">
        <ele>2285</ele>
        <time>2021-08-12T08:25:19.239Z</time>
      </trkpt>
      <trkpt lat="46.87291" lon="8.46847">
        <ele>2285</ele>
        <time>2021-08-12T08:25:20.239Z</time>
      </trkpt>
      <trkpt lat="46.8729" lon="8.46848">
        <ele>2285</ele>
        <time>2021-08-12T08:25:21.239Z</time>
      </trkpt>
      <trkpt lat="46.87289" lon="8.46849">
        <ele>2285</ele>
        <time>2021-08-12T08:25:22.239Z</time>
      </trkpt>
      <trkpt lat="46.87288" lon="8.46849">
        <ele>2285</ele>
        <time>2021-08-12T08:25:23.238Z</time>
      </trkpt>
      <trkpt lat="46.87287" lon="8.4685">
        <ele>2285</ele>
        <time>2021-08-12T08:25:24.238Z</time>
      </trkpt>
      <trkpt lat="46.87286" lon="8.46852">
        <ele>2285</ele>
        <time>2021-08-12T08:25:25.238Z</time>
      </trkpt>
      <trkpt lat="46.87286" lon="8.46852">
        <ele>2285</ele>
        <time>2021-08-12T08:25:26.239Z</time>
      </trkpt>
      <trkpt lat="46.87284" lon="8.46853">
        <ele>2285</ele>
        <time>2021-08-12T08:25:27.239Z</time>
      </trkpt>
      <trkpt lat="46.87284" lon="8.46853">
        <ele>2286</ele>
        <time>2021-08-12T08:25:28.239Z</time>
      </trkpt>
      <trkpt lat="46.87283" lon="8.46854">
        <ele>2286</ele>
        <time>2021-08-12T08:25:29.239Z</time>
      </trkpt>
      <trkpt lat="46.87281" lon="8.46854">
        <ele>2285</ele>
        <time>2021-08-12T08:25:30.239Z</time>
      </trkpt>
      <trkpt lat="46.8728" lon="8.46854">
        <ele>2285</ele>
        <time>2021-08-12T08:25:31.239Z</time>
      </trkpt>
      <trkpt lat="46.87279" lon="8.46855">
        <ele>2285</ele>
        <time>2021-08-12T08:25:32.238Z</time>
      </trkpt>
      <trkpt lat="46.87278" lon="8.46855">
        <ele>2284</ele>
        <time>2021-08-12T08:25:33.239Z</time>
      </trkpt>
      <trkpt lat="46.87277" lon="8.46856">
        <ele>2284</ele>
        <time>2021-08-12T08:25:34.239Z</time>
      </trkpt>
      <trkpt lat="46.87275" lon="8.46856">
        <ele>2284</ele>
        <time>2021-08-12T08:25:35.239Z</time>
      </trkpt>
      <trkpt lat="46.87274" lon="8.46856">
        <ele>2283</ele>
        <time>2021-08-12T08:25:36.238Z</time>
      </trkpt>
      <trkpt lat="46.87273" lon="8.46857">
        <ele>2283</ele>
        <time>2021-08-12T08:25:37.239Z</time>
      </trkpt>
      <trkpt lat="46.87271" lon="8.46857">
        <ele>2283</ele>
        <time>2021-08-12T08:25:38.238Z</time>
      </trkpt>
      <trkpt lat="46.8727" lon="8.46857">
        <ele>2283</ele>
        <time>2021-08-12T08:25:39.238Z</time>
      </trkpt>
      <trkpt lat="46.87269" lon="8.46857">
        <ele>2283</ele>
        <time>2021-08-12T08:25:40.239Z</time>
      </trkpt>
      <trkpt lat="46.87268" lon="8.46857">
        <ele>2283</ele>
        <time>2021-08-12T08:25:41.239Z</time>
      </trkpt>
      <trkpt lat="46.87267" lon="8.46858">
        <ele>2282</ele>
        <time>2021-08-12T08:25:42.238Z</time>
      </trkpt>
      <trkpt lat="46.87266" lon="8.46858">
        <ele>2282</ele>
        <time>2021-08-12T08:25:43.238Z</time>
      </trkpt>
      <trkpt lat="46.87265" lon="8.46859">
        <ele>2282</ele>
        <time>2021-08-12T08:25:44.239Z</time>
      </trkpt>
      <trkpt lat="46.87264" lon="8.4686">
        <ele>2281</ele>
        <time>2021-08-12T08:25:45.239Z</time>
      </trkpt>
      <trkpt lat="46.87263" lon="8.46862">
        <ele>2280</ele>
        <time>2021-08-12T08:25:46.239Z</time>
      </trkpt>
      <trkpt lat="46.87262" lon="8.46863">
        <ele>2280</ele>
        <time>2021-08-12T08:25:47.238Z</time>
      </trkpt>
      <trkpt lat="46.87261" lon="8.46864">
        <ele>2280</ele>
        <time>2021-08-12T08:25:48.238Z</time>
      </trkpt>
      <trkpt lat="46.87261" lon="8.46865">
        <ele>2280</ele>
        <time>2021-08-12T08:25:49.238Z</time>
      </trkpt>
      <trkpt lat="46.8726" lon="8.46866">
        <ele>2280</ele>
        <time>2021-08-12T08:25:50.238Z</time>
      </trkpt>
      <trkpt lat="46.87259" lon="8.46867">
        <ele>2280</ele>
        <time>2021-08-12T08:25:51.239Z</time>
      </trkpt>
      <trkpt lat="46.87258" lon="8.46868">
        <ele>2281</ele>
        <time>2021-08-12T08:25:52.239Z</time>
      </trkpt>
      <trkpt lat="46.87258" lon="8.46869">
        <ele>2281</ele>
        <time>2021-08-12T08:25:53.238Z</time>
      </trkpt>
      <trkpt lat="46.87258" lon="8.4687">
        <ele>2280</ele>
        <time>2021-08-12T08:25:54.238Z</time>
      </trkpt>
      <trkpt lat="46.87257" lon="8.46871">
        <ele>2280</ele>
        <time>2021-08-12T08:25:55.239Z</time>
      </trkpt>
      <trkpt lat="46.87256" lon="8.46872">
        <ele>2280</ele>
        <time>2021-08-12T08:25:56.239Z</time>
      </trkpt>
      <trkpt lat="46.87255" lon="8.46872">
        <ele>2280</ele>
        <time>2021-08-12T08:25:57.238Z</time>
      </trkpt>
      <trkpt lat="46.87254" lon="8.46873">
        <ele>2280</ele>
        <time>2021-08-12T08:25:58.238Z</time>
      </trkpt>
      <trkpt lat="46.87253" lon="8.46873">
        <ele>2280</ele>
        <time>2021-08-12T08:25:59.238Z</time>
      </trkpt>
      <trkpt lat="46.87252" lon="8.46874">
        <ele>2280</ele>
        <time>2021-08-12T08:26:00.239Z</time>
      </trkpt>
      <trkpt lat="46.87251" lon="8.46875">
        <ele>2280</ele>
        <time>2021-08-12T08:26:01.239Z</time>
      </trkpt>
      <trkpt lat="46.87251" lon="8.46876">
        <ele>2280</ele>
        <time>2021-08-12T08:26:02.239Z</time>
      </trkpt>
      <trkpt lat="46.8725" lon="8.46876">
        <ele>2280</ele>
        <time>2021-08-12T08:26:03.239Z</time>
      </trkpt>
      <trkpt lat="46.87249" lon="8.46877">
        <ele>2280</ele>
        <time>2021-08-12T08:26:04.239Z</time>
      </trkpt>
      <trkpt lat="46.87248" lon="8.46877">
        <ele>2280</ele>
        <time>2021-08-12T08:26:05.238Z</time>
      </trkpt>
      <trkpt lat="46.87248" lon="8.46878">
        <ele>2280</ele>
        <time>2021-08-12T08:26:06.238Z</time>
      </trkpt>
      <trkpt lat="46.87247" lon="8.46879">
        <ele>2279</ele>
        <time>2021-08-12T08:26:07.238Z</time>
      </trkpt>
      <trkpt lat="46.87246" lon="8.46879">
        <ele>2279</ele>
        <time>2021-08-12T08:26:08.239Z</time>
      </trkpt>
      <trkpt lat="46.87245" lon="8.4688">
        <ele>2279</ele>
        <time>2021-08-12T08:26:09.239Z</time>
      </trkpt>
      <trkpt lat="46.87244" lon="8.46881">
        <ele>2279</ele>
        <time>2021-08-12T08:26:10.239Z</time>
      </trkpt>
      <trkpt lat="46.87243" lon="8.46882">
        <ele>2279</ele>
        <time>2021-08-12T08:26:11.239Z</time>
      </trkpt>
      <trkpt lat="46.87242" lon="8.46883">
        <ele>2280</ele>
        <time>2021-08-12T08:26:12.239Z</time>
      </trkpt>
      <trkpt lat="46.87241" lon="8.46884">
        <ele>2280</ele>
        <time>2021-08-12T08:26:13.238Z</time>
      </trkpt>
      <trkpt lat="46.87241" lon="8.46885">
        <ele>2280</ele>
        <time>2021-08-12T08:26:14.238Z</time>
      </trkpt>
      <trkpt lat="46.8724" lon="8.46886">
        <ele>2280</ele>
        <time>2021-08-12T08:26:15.239Z</time>
      </trkpt>
      <trkpt lat="46.87239" lon="8.46886">
        <ele>2280</ele>
        <time>2021-08-12T08:26:16.238Z</time>
      </trkpt>
      <trkpt lat="46.87238" lon="8.46887">
        <ele>2279</ele>
        <time>2021-08-12T08:26:17.239Z</time>
      </trkpt>
      <trkpt lat="46.87237" lon="8.46887">
        <ele>2279</ele>
        <time>2021-08-12T08:26:18.239Z</time>
      </trkpt>
      <trkpt lat="46.87237" lon="8.46887">
        <ele>2279</ele>
        <time>2021-08-12T08:26:19.238Z</time>
      </trkpt>
      <trkpt lat="46.87236" lon="8.46888">
        <ele>2278</ele>
        <time>2021-08-12T08:26:20.239Z</time>
      </trkpt>
      <trkpt lat="46.87236" lon="8.46888">
        <ele>2278</ele>
        <time>2021-08-12T08:26:21.239Z</time>
      </trkpt>
      <trkpt lat="46.87235" lon="8.46889">
        <ele>2278</ele>
        <time>2021-08-12T08:26:22.239Z</time>
      </trkpt>
      <trkpt lat="46.87235" lon="8.4689">
        <ele>2277</ele>
        <time>2021-08-12T08:26:23.239Z</time>
      </trkpt>
      <trkpt lat="46.87235" lon="8.46892">
        <ele>2277</ele>
        <time>2021-08-12T08:26:24.239Z</time>
      </trkpt>
      <trkpt lat="46.87234" lon="8.46893">
        <ele>2277</ele>
        <time>2021-08-12T08:26:25.239Z</time>
      </trkpt>
      <trkpt lat="46.87234" lon="8.46893">
        <ele>2278</ele>
        <time>2021-08-12T08:26:26.239Z</time>
      </trkpt>
      <trkpt lat="46.87233" lon="8.46895">
        <ele>2277</ele>
        <time>2021-08-12T08:26:27.239Z</time>
      </trkpt>
      <trkpt lat="46.87232" lon="8.46896">
        <ele>2277</ele>
        <time>2021-08-12T08:26:28.239Z</time>
      </trkpt>
      <trkpt lat="46.87232" lon="8.46896">
        <ele>2276</ele>
        <time>2021-08-12T08:26:29.238Z</time>
      </trkpt>
      <trkpt lat="46.87231" lon="8.46897">
        <ele>2277</ele>
        <time>2021-08-12T08:26:30.239Z</time>
      </trkpt>
      <trkpt lat="46.8723" lon="8.46898">
        <ele>2277</ele>
        <time>2021-08-12T08:26:31.239Z</time>
      </trkpt>
      <trkpt lat="46.8723" lon="8.46898">
        <ele>2277</ele>
        <time>2021-08-12T08:26:32.239Z</time>
      </trkpt>
      <trkpt lat="46.87229" lon="8.46898">
        <ele>2277</ele>
        <time>2021-08-12T08:26:33.238Z</time>
      </trkpt>
      <trkpt lat="46.87228" lon="8.46899">
        <ele>2277</ele>
        <time>2021-08-12T08:26:34.238Z</time>
      </trkpt>
      <trkpt lat="46.87227" lon="8.469">
        <ele>2277</ele>
        <time>2021-08-12T08:26:35.239Z</time>
      </trkpt>
      <trkpt lat="46.87227" lon="8.469">
        <ele>2277</ele>
        <time>2021-08-12T08:26:36.239Z</time>
      </trkpt>
      <trkpt lat="46.87226" lon="8.469">
        <ele>2277</ele>
        <time>2021-08-12T08:26:37.238Z</time>
      </trkpt>
      <trkpt lat="46.87226" lon="8.46901">
        <ele>2277</ele>
        <time>2021-08-12T08:26:38.239Z</time>
      </trkpt>
      <trkpt lat="46.87226" lon="8.46902">
        <ele>2277</ele>
        <time>2021-08-12T08:26:39.239Z</time>
      </trkpt>
      <trkpt lat="46.87225" lon="8.46903">
        <ele>2277</ele>
        <time>2021-08-12T08:26:40.239Z</time>
      </trkpt>
      <trkpt lat="46.87225" lon="8.46903">
        <ele>2277</ele>
        <time>2021-08-12T08:26:41.239Z</time>
      </trkpt>
      <trkpt lat="46.87224" lon="8.46905">
        <ele>2277</ele>
        <time>2021-08-12T08:26:42.239Z</time>
      </trkpt>
      <trkpt lat="46.87224" lon="8.46906">
        <ele>2277</ele>
        <time>2021-08-12T08:26:43.238Z</time>
      </trkpt>
      <trkpt lat="46.87223" lon="8.46907">
        <ele>2277</ele>
        <time>2021-08-12T08:26:44.239Z</time>
      </trkpt>
      <trkpt lat="46.87223" lon="8.46906">
        <ele>2277</ele>
        <time>2021-08-12T08:26:45.239Z</time>
      </trkpt>
      <trkpt lat="46.87222" lon="8.46905">
        <ele>2277</ele>
        <time>2021-08-12T08:26:46.238Z</time>
      </trkpt>
      <trkpt lat="46.87222" lon="8.46906">
        <ele>2277</ele>
        <time>2021-08-12T08:26:47.239Z</time>
      </trkpt>
      <trkpt lat="46.87222" lon="8.46906">
        <ele>2277</ele>
        <time>2021-08-12T08:26:48.239Z</time>
      </trkpt>
      <trkpt lat="46.87221" lon="8.46906">
        <ele>2274</ele>
        <time>2021-08-12T08:26:49.240Z</time>
      </trkpt>
      <trkpt lat="46.87221" lon="8.46906">
        <ele>2274</ele>
        <time>2021-08-12T08:26:50.239Z</time>
      </trkpt>
      <trkpt lat="46.87221" lon="8.46906">
        <ele>2273</ele>
        <time>2021-08-12T08:26:51.240Z</time>
      </trkpt>
      <trkpt lat="46.8722" lon="8.46906">
        <ele>2273</ele>
        <time>2021-08-12T08:26:52.239Z</time>
      </trkpt>
      <trkpt lat="46.8722" lon="8.46906">
        <ele>2272</ele>
        <time>2021-08-12T08:26:53.239Z</time>
      </trkpt>
      <trkpt lat="46.87219" lon="8.46907">
        <ele>2272</ele>
        <time>2021-08-12T08:26:54.240Z</time>
      </trkpt>
      <trkpt lat="46.87219" lon="8.46907">
        <ele>2271</ele>
        <time>2021-08-12T08:26:55.239Z</time>
      </trkpt>
      <trkpt lat="46.87219" lon="8.46907">
        <ele>2271</ele>
        <time>2021-08-12T08:26:56.239Z</time>
      </trkpt>
      <trkpt lat="46.87218" lon="8.46908">
        <ele>2271</ele>
        <time>2021-08-12T08:26:57.240Z</time>
      </trkpt>
      <trkpt lat="46.87218" lon="8.46908">
        <ele>2271</ele>
        <time>2021-08-12T08:26:58.240Z</time>
      </trkpt>
      <trkpt lat="46.87218" lon="8.46909">
        <ele>2271</ele>
        <time>2021-08-12T08:26:59.240Z</time>
      </trkpt>
      <trkpt lat="46.87218" lon="8.46909">
        <ele>2271</ele>
        <time>2021-08-12T08:27:00.240Z</time>
      </trkpt>
      <trkpt lat="46.87218" lon="8.4691">
        <ele>2271</ele>
        <time>2021-08-12T08:27:01.240Z</time>
      </trkpt>
      <trkpt lat="46.87218" lon="8.46911">
        <ele>2271</ele>
        <time>2021-08-12T08:27:02.240Z</time>
      </trkpt>
      <trkpt lat="46.87218" lon="8.46913">
        <ele>2271</ele>
        <time>2021-08-12T08:27:03.239Z</time>
      </trkpt>
      <trkpt lat="46.87218" lon="8.46913">
        <ele>2272</ele>
        <time>2021-08-12T08:27:04.240Z</time>
      </trkpt>
      <trkpt lat="46.87217" lon="8.46914">
        <ele>2272</ele>
        <time>2021-08-12T08:27:05.239Z</time>
      </trkpt>
      <trkpt lat="46.87217" lon="8.46915">
        <ele>2273</ele>
        <time>2021-08-12T08:27:06.240Z</time>
      </trkpt>
      <trkpt lat="46.87217" lon="8.46915">
        <ele>2273</ele>
        <time>2021-08-12T08:27:07.240Z</time>
      </trkpt>
      <trkpt lat="46.87216" lon="8.46916">
        <ele>2273</ele>
        <time>2021-08-12T08:27:08.239Z</time>
      </trkpt>
      <trkpt lat="46.87216" lon="8.46916">
        <ele>2273</ele>
        <time>2021-08-12T08:27:09.240Z</time>
      </trkpt>
      <trkpt lat="46.87216" lon="8.46917">
        <ele>2273</ele>
        <time>2021-08-12T08:27:10.240Z</time>
      </trkpt>
      <trkpt lat="46.87215" lon="8.46918">
        <ele>2273</ele>
        <time>2021-08-12T08:27:11.240Z</time>
      </trkpt>
      <trkpt lat="46.87215" lon="8.46918">
        <ele>2273</ele>
        <time>2021-08-12T08:27:12.239Z</time>
      </trkpt>
      <trkpt lat="46.87214" lon="8.46919">
        <ele>2273</ele>
        <time>2021-08-12T08:27:13.239Z</time>
      </trkpt>
      <trkpt lat="46.87213" lon="8.46919">
        <ele>2273</ele>
        <time>2021-08-12T08:27:14.240Z</time>
      </trkpt>
      <trkpt lat="46.87213" lon="8.46919">
        <ele>2273</ele>
        <time>2021-08-12T08:27:15.239Z</time>
      </trkpt>
      <trkpt lat="46.87213" lon="8.4692">
        <ele>2272</ele>
        <time>2021-08-12T08:27:16.239Z</time>
      </trkpt>
      <trkpt lat="46.87214" lon="8.46928">
        <ele>2274</ele>
        <time>2021-08-12T08:29:50.391Z</time>
      </trkpt>
      <trkpt lat="46.87214" lon="8.46928">
        <ele>2274</ele>
        <time>2021-08-12T08:29:50.391Z</time>
      </trkpt>
      <trkpt lat="46.87214" lon="8.46928">
        <ele>2274</ele>
        <time>2021-08-12T08:29:50.391Z</time>
      </trkpt>
      <trkpt lat="46.87214" lon="8.46928">
        <ele>2273</ele>
        <time>2021-08-12T08:29:51.391Z</time>
      </trkpt>
      <trkpt lat="46.87214" lon="8.46927">
        <ele>2272</ele>
        <time>2021-08-12T08:29:52.391Z</time>
      </trkpt>
      <trkpt lat="46.87213" lon="8.46927">
        <ele>2271</ele>
        <time>2021-08-12T08:29:53.391Z</time>
      </trkpt>
      <trkpt lat="46.87213" lon="8.46927">
        <ele>2270</ele>
        <time>2021-08-12T08:29:54.391Z</time>
      </trkpt>
      <trkpt lat="46.87213" lon="8.46926">
        <ele>2269</ele>
        <time>2021-08-12T08:29:55.392Z</time>
      </trkpt>
      <trkpt lat="46.87213" lon="8.46926">
        <ele>2269</ele>
        <time>2021-08-12T08:29:56.391Z</time>
      </trkpt>
      <trkpt lat="46.87212" lon="8.46926">
        <ele>2268</ele>
        <time>2021-08-12T08:29:57.392Z</time>
      </trkpt>
      <trkpt lat="46.87212" lon="8.46926">
        <ele>2267</ele>
        <time>2021-08-12T08:29:58.391Z</time>
      </trkpt>
      <trkpt lat="46.87212" lon="8.46925">
        <ele>2267</ele>
        <time>2021-08-12T08:29:59.391Z</time>
      </trkpt>
      <trkpt lat="46.87211" lon="8.46925">
        <ele>2266</ele>
        <time>2021-08-12T08:30:00.391Z</time>
      </trkpt>
      <trkpt lat="46.8721" lon="8.46924">
        <ele>2266</ele>
        <time>2021-08-12T08:30:01.392Z</time>
      </trkpt>
      <trkpt lat="46.8721" lon="8.46924">
        <ele>2266</ele>
        <time>2021-08-12T08:30:02.391Z</time>
      </trkpt>
      <trkpt lat="46.8721" lon="8.46923">
        <ele>2265</ele>
        <time>2021-08-12T08:30:03.391Z</time>
      </trkpt>
      <trkpt lat="46.87211" lon="8.46923">
        <ele>2265</ele>
        <time>2021-08-12T08:30:04.391Z</time>
      </trkpt>
      <trkpt lat="46.87211" lon="8.46922">
        <ele>2265</ele>
        <time>2021-08-12T08:30:05.391Z</time>
      </trkpt>
      <trkpt lat="46.87211" lon="8.46922">
        <ele>2265</ele>
        <time>2021-08-12T08:30:06.391Z</time>
      </trkpt>
      <trkpt lat="46.87211" lon="8.46922">
        <ele>2265</ele>
        <time>2021-08-12T08:30:07.391Z</time>
      </trkpt>
      <trkpt lat="46.87211" lon="8.46922">
        <ele>2265</ele>
        <time>2021-08-12T08:30:08.391Z</time>
      </trkpt>
      <trkpt lat="46.87211" lon="8.46921">
        <ele>2265</ele>
        <time>2021-08-12T08:30:09.391Z</time>
      </trkpt>
      <trkpt lat="46.87211" lon="8.46921">
        <ele>2265</ele>
        <time>2021-08-12T08:30:10.391Z</time>
      </trkpt>
      <trkpt lat="46.87211" lon="8.46921">
        <ele>2264</ele>
        <time>2021-08-12T08:30:11.392Z</time>
      </trkpt>
      <trkpt lat="46.8721" lon="8.46919">
        <ele>2264</ele>
        <time>2021-08-12T08:30:12.391Z</time>
      </trkpt>
      <trkpt lat="46.87211" lon="8.46918">
        <ele>2264</ele>
        <time>2021-08-12T08:30:13.391Z</time>
      </trkpt>
      <trkpt lat="46.87211" lon="8.46919">
        <ele>2264</ele>
        <time>2021-08-12T08:30:14.392Z</time>
      </trkpt>
      <trkpt lat="46.87212" lon="8.46919">
        <ele>2263</ele>
        <time>2021-08-12T08:30:15.391Z</time>
      </trkpt>
      <trkpt lat="46.87211" lon="8.46919">
        <ele>2263</ele>
        <time>2021-08-12T08:30:16.391Z</time>
      </trkpt>
      <trkpt lat="46.8721" lon="8.46919">
        <ele>2263</ele>
        <time>2021-08-12T08:30:17.391Z</time>
      </trkpt>
      <trkpt lat="46.8721" lon="8.46919">
        <ele>2263</ele>
        <time>2021-08-12T08:30:18.392Z</time>
      </trkpt>
      <trkpt lat="46.8721" lon="8.46919">
        <ele>2263</ele>
        <time>2021-08-12T08:30:19.392Z</time>
      </trkpt>
      <trkpt lat="46.87211" lon="8.4692">
        <ele>2262</ele>
        <time>2021-08-12T08:30:20.391Z</time>
      </trkpt>
      <trkpt lat="46.87207" lon="8.46913">
        <ele>2271</ele>
        <time>2021-08-12T08:30:21.392Z</time>
      </trkpt>
      <trkpt lat="46.87207" lon="8.46914">
        <ele>2271</ele>
        <time>2021-08-12T08:30:22.392Z</time>
      </trkpt>
      <trkpt lat="46.87206" lon="8.46914">
        <ele>2272</ele>
        <time>2021-08-12T08:30:23.391Z</time>
      </trkpt>
      <trkpt lat="46.87206" lon="8.46915">
        <ele>2271</ele>
        <time>2021-08-12T08:30:24.392Z</time>
      </trkpt>
      <trkpt lat="46.87206" lon="8.46916">
        <ele>2271</ele>
        <time>2021-08-12T08:30:25.392Z</time>
      </trkpt>
      <trkpt lat="46.87205" lon="8.46916">
        <ele>2271</ele>
        <time>2021-08-12T08:30:26.392Z</time>
      </trkpt>
      <trkpt lat="46.87205" lon="8.46916">
        <ele>2270</ele>
        <time>2021-08-12T08:30:27.392Z</time>
      </trkpt>
      <trkpt lat="46.87204" lon="8.46917">
        <ele>2270</ele>
        <time>2021-08-12T08:30:28.391Z</time>
      </trkpt>
      <trkpt lat="46.87204" lon="8.46917">
        <ele>2270</ele>
        <time>2021-08-12T08:30:29.392Z</time>
      </trkpt>
      <trkpt lat="46.87203" lon="8.46917">
        <ele>2269</ele>
        <time>2021-08-12T08:30:30.392Z</time>
      </trkpt>
      <trkpt lat="46.87203" lon="8.46917">
        <ele>2269</ele>
        <time>2021-08-12T08:30:31.391Z</time>
      </trkpt>
      <trkpt lat="46.87203" lon="8.46917">
        <ele>2269</ele>
        <time>2021-08-12T08:30:32.391Z</time>
      </trkpt>
      <trkpt lat="46.87202" lon="8.46917">
        <ele>2269</ele>
        <time>2021-08-12T08:30:33.391Z</time>
      </trkpt>
      <trkpt lat="46.87202" lon="8.46917">
        <ele>2269</ele>
        <time>2021-08-12T08:30:34.392Z</time>
      </trkpt>
      <trkpt lat="46.87201" lon="8.46918">
        <ele>2269</ele>
        <time>2021-08-12T08:30:35.392Z</time>
      </trkpt>
      <trkpt lat="46.872" lon="8.46918">
        <ele>2269</ele>
        <time>2021-08-12T08:30:36.392Z</time>
      </trkpt>
      <trkpt lat="46.872" lon="8.46919">
        <ele>2268</ele>
        <time>2021-08-12T08:30:37.392Z</time>
      </trkpt>
      <trkpt lat="46.87199" lon="8.46919">
        <ele>2268</ele>
        <time>2021-08-12T08:30:38.392Z</time>
      </trkpt>
      <trkpt lat="46.87199" lon="8.4692">
        <ele>2268</ele>
        <time>2021-08-12T08:30:39.392Z</time>
      </trkpt>
      <trkpt lat="46.87199" lon="8.4692">
        <ele>2268</ele>
        <time>2021-08-12T08:30:40.391Z</time>
      </trkpt>
      <trkpt lat="46.87199" lon="8.46921">
        <ele>2268</ele>
        <time>2021-08-12T08:30:41.392Z</time>
      </trkpt>
      <trkpt lat="46.87198" lon="8.46921">
        <ele>2267</ele>
        <time>2021-08-12T08:30:42.392Z</time>
      </trkpt>
      <trkpt lat="46.87198" lon="8.46921">
        <ele>2267</ele>
        <time>2021-08-12T08:30:43.392Z</time>
      </trkpt>
      <trkpt lat="46.87198" lon="8.46922">
        <ele>2267</ele>
        <time>2021-08-12T08:30:44.391Z</time>
      </trkpt>
      <trkpt lat="46.87197" lon="8.46923">
        <ele>2267</ele>
        <time>2021-08-12T08:30:45.391Z</time>
      </trkpt>
      <trkpt lat="46.87197" lon="8.46924">
        <ele>2267</ele>
        <time>2021-08-12T08:30:46.391Z</time>
      </trkpt>
      <trkpt lat="46.87196" lon="8.46924">
        <ele>2267</ele>
        <time>2021-08-12T08:30:47.392Z</time>
      </trkpt>
      <trkpt lat="46.87196" lon="8.46925">
        <ele>2267</ele>
        <time>2021-08-12T08:30:48.392Z</time>
      </trkpt>
      <trkpt lat="46.87195" lon="8.46926">
        <ele>2266</ele>
        <time>2021-08-12T08:30:49.392Z</time>
      </trkpt>
      <trkpt lat="46.87194" lon="8.46928">
        <ele>2266</ele>
        <time>2021-08-12T08:30:50.392Z</time>
      </trkpt>
      <trkpt lat="46.87194" lon="8.46929">
        <ele>2266</ele>
        <time>2021-08-12T08:30:51.391Z</time>
      </trkpt>
      <trkpt lat="46.87193" lon="8.46931">
        <ele>2265</ele>
        <time>2021-08-12T08:30:52.391Z</time>
      </trkpt>
      <trkpt lat="46.87192" lon="8.46931">
        <ele>2265</ele>
        <time>2021-08-12T08:30:53.391Z</time>
      </trkpt>
      <trkpt lat="46.87191" lon="8.46932">
        <ele>2265</ele>
        <time>2021-08-12T08:30:54.392Z</time>
      </trkpt>
      <trkpt lat="46.8719" lon="8.46933">
        <ele>2265</ele>
        <time>2021-08-12T08:30:55.392Z</time>
      </trkpt>
      <trkpt lat="46.87189" lon="8.46934">
        <ele>2265</ele>
        <time>2021-08-12T08:30:56.392Z</time>
      </trkpt>
      <trkpt lat="46.87189" lon="8.46935">
        <ele>2265</ele>
        <time>2021-08-12T08:30:57.392Z</time>
      </trkpt>
      <trkpt lat="46.87188" lon="8.46937">
        <ele>2265</ele>
        <time>2021-08-12T08:30:58.392Z</time>
      </trkpt>
      <trkpt lat="46.87187" lon="8.46938">
        <ele>2265</ele>
        <time>2021-08-12T08:30:59.392Z</time>
      </trkpt>
      <trkpt lat="46.87186" lon="8.46939">
        <ele>2265</ele>
        <time>2021-08-12T08:31:00.392Z</time>
      </trkpt>
      <trkpt lat="46.87185" lon="8.4694">
        <ele>2266</ele>
        <time>2021-08-12T08:31:01.392Z</time>
      </trkpt>
      <trkpt lat="46.87184" lon="8.46941">
        <ele>2265</ele>
        <time>2021-08-12T08:31:02.392Z</time>
      </trkpt>
      <trkpt lat="46.87183" lon="8.46941">
        <ele>2265</ele>
        <time>2021-08-12T08:31:03.392Z</time>
      </trkpt>
      <trkpt lat="46.87182" lon="8.46942">
        <ele>2265</ele>
        <time>2021-08-12T08:31:04.392Z</time>
      </trkpt>
      <trkpt lat="46.87181" lon="8.46943">
        <ele>2265</ele>
        <time>2021-08-12T08:31:05.392Z</time>
      </trkpt>
      <trkpt lat="46.87181" lon="8.46944">
        <ele>2265</ele>
        <time>2021-08-12T08:31:06.391Z</time>
      </trkpt>
      <trkpt lat="46.8718" lon="8.46945">
        <ele>2264</ele>
        <time>2021-08-12T08:31:07.392Z</time>
      </trkpt>
      <trkpt lat="46.8718" lon="8.46946">
        <ele>2264</ele>
        <time>2021-08-12T08:31:08.392Z</time>
      </trkpt>
      <trkpt lat="46.87179" lon="8.46947">
        <ele>2264</ele>
        <time>2021-08-12T08:31:09.391Z</time>
      </trkpt>
      <trkpt lat="46.87178" lon="8.46948">
        <ele>2263</ele>
        <time>2021-08-12T08:31:10.392Z</time>
      </trkpt>
      <trkpt lat="46.87177" lon="8.46948">
        <ele>2263</ele>
        <time>2021-08-12T08:31:11.392Z</time>
      </trkpt>
      <trkpt lat="46.87177" lon="8.46949">
        <ele>2263</ele>
        <time>2021-08-12T08:31:12.392Z</time>
      </trkpt>
      <trkpt lat="46.87176" lon="8.46949">
        <ele>2262</ele>
        <time>2021-08-12T08:31:13.391Z</time>
      </trkpt>
      <trkpt lat="46.87175" lon="8.46951">
        <ele>2262</ele>
        <time>2021-08-12T08:31:14.391Z</time>
      </trkpt>
      <trkpt lat="46.87174" lon="8.46952">
        <ele>2262</ele>
        <time>2021-08-12T08:31:15.392Z</time>
      </trkpt>
      <trkpt lat="46.87174" lon="8.46954">
        <ele>2261</ele>
        <time>2021-08-12T08:31:16.391Z</time>
      </trkpt>
      <trkpt lat="46.87173" lon="8.46954">
        <ele>2261</ele>
        <time>2021-08-12T08:31:17.391Z</time>
      </trkpt>
      <trkpt lat="46.87172" lon="8.46955">
        <ele>2260</ele>
        <time>2021-08-12T08:31:18.392Z</time>
      </trkpt>
      <trkpt lat="46.87171" lon="8.46956">
        <ele>2260</ele>
        <time>2021-08-12T08:31:19.392Z</time>
      </trkpt>
      <trkpt lat="46.8717" lon="8.46957">
        <ele>2260</ele>
        <time>2021-08-12T08:31:20.392Z</time>
      </trkpt>
      <trkpt lat="46.87169" lon="8.46959">
        <ele>2260</ele>
        <time>2021-08-12T08:31:21.392Z</time>
      </trkpt>
      <trkpt lat="46.87168" lon="8.4696">
        <ele>2260</ele>
        <time>2021-08-12T08:31:22.392Z</time>
      </trkpt>
      <trkpt lat="46.87167" lon="8.46961">
        <ele>2260</ele>
        <time>2021-08-12T08:31:23.392Z</time>
      </trkpt>
      <trkpt lat="46.87167" lon="8.46963">
        <ele>2261</ele>
        <time>2021-08-12T08:31:24.392Z</time>
      </trkpt>
      <trkpt lat="46.87166" lon="8.46963">
        <ele>2261</ele>
        <time>2021-08-12T08:31:25.391Z</time>
      </trkpt>
      <trkpt lat="46.87166" lon="8.46964">
        <ele>2260</ele>
        <time>2021-08-12T08:31:26.392Z</time>
      </trkpt>
      <trkpt lat="46.87165" lon="8.46965">
        <ele>2260</ele>
        <time>2021-08-12T08:31:27.392Z</time>
      </trkpt>
      <trkpt lat="46.87164" lon="8.46966">
        <ele>2261</ele>
        <time>2021-08-12T08:31:28.391Z</time>
      </trkpt>
      <trkpt lat="46.87163" lon="8.46967">
        <ele>2261</ele>
        <time>2021-08-12T08:31:29.392Z</time>
      </trkpt>
      <trkpt lat="46.87162" lon="8.46968">
        <ele>2262</ele>
        <time>2021-08-12T08:31:30.392Z</time>
      </trkpt>
      <trkpt lat="46.87162" lon="8.46969">
        <ele>2262</ele>
        <time>2021-08-12T08:31:31.391Z</time>
      </trkpt>
      <trkpt lat="46.87161" lon="8.4697">
        <ele>2263</ele>
        <time>2021-08-12T08:31:32.392Z</time>
      </trkpt>
      <trkpt lat="46.8716" lon="8.46971">
        <ele>2263</ele>
        <time>2021-08-12T08:31:33.392Z</time>
      </trkpt>
      <trkpt lat="46.87159" lon="8.46973">
        <ele>2263</ele>
        <time>2021-08-12T08:31:34.392Z</time>
      </trkpt>
      <trkpt lat="46.87158" lon="8.46974">
        <ele>2263</ele>
        <time>2021-08-12T08:31:35.391Z</time>
      </trkpt>
      <trkpt lat="46.87158" lon="8.46974">
        <ele>2263</ele>
        <time>2021-08-12T08:31:36.392Z</time>
      </trkpt>
      <trkpt lat="46.87157" lon="8.46975">
        <ele>2263</ele>
        <time>2021-08-12T08:31:37.391Z</time>
      </trkpt>
      <trkpt lat="46.87156" lon="8.46976">
        <ele>2263</ele>
        <time>2021-08-12T08:31:38.392Z</time>
      </trkpt>
      <trkpt lat="46.87155" lon="8.46976">
        <ele>2263</ele>
        <time>2021-08-12T08:31:39.392Z</time>
      </trkpt>
      <trkpt lat="46.87154" lon="8.46977">
        <ele>2262</ele>
        <time>2021-08-12T08:31:40.391Z</time>
      </trkpt>
      <trkpt lat="46.87154" lon="8.46978">
        <ele>2261</ele>
        <time>2021-08-12T08:31:41.391Z</time>
      </trkpt>
      <trkpt lat="46.87153" lon="8.46979">
        <ele>2261</ele>
        <time>2021-08-12T08:31:42.391Z</time>
      </trkpt>
      <trkpt lat="46.87152" lon="8.4698">
        <ele>2261</ele>
        <time>2021-08-12T08:31:43.392Z</time>
      </trkpt>
      <trkpt lat="46.87152" lon="8.46981">
        <ele>2260</ele>
        <time>2021-08-12T08:31:44.392Z</time>
      </trkpt>
      <trkpt lat="46.87151" lon="8.46982">
        <ele>2259</ele>
        <time>2021-08-12T08:31:45.391Z</time>
      </trkpt>
      <trkpt lat="46.87151" lon="8.46982">
        <ele>2259</ele>
        <time>2021-08-12T08:31:46.391Z</time>
      </trkpt>
      <trkpt lat="46.8715" lon="8.46983">
        <ele>2259</ele>
        <time>2021-08-12T08:31:47.392Z</time>
      </trkpt>
      <trkpt lat="46.87149" lon="8.46984">
        <ele>2259</ele>
        <time>2021-08-12T08:31:48.392Z</time>
      </trkpt>
      <trkpt lat="46.87148" lon="8.46986">
        <ele>2259</ele>
        <time>2021-08-12T08:31:49.392Z</time>
      </trkpt>
      <trkpt lat="46.87147" lon="8.46987">
        <ele>2259</ele>
        <time>2021-08-12T08:31:50.392Z</time>
      </trkpt>
      <trkpt lat="46.87147" lon="8.46987">
        <ele>2259</ele>
        <time>2021-08-12T08:31:51.392Z</time>
      </trkpt>
      <trkpt lat="46.87146" lon="8.46988">
        <ele>2258</ele>
        <time>2021-08-12T08:31:52.391Z</time>
      </trkpt>
      <trkpt lat="46.87145" lon="8.46989">
        <ele>2258</ele>
        <time>2021-08-12T08:31:53.391Z</time>
      </trkpt>
      <trkpt lat="46.87145" lon="8.4699">
        <ele>2258</ele>
        <time>2021-08-12T08:31:54.392Z</time>
      </trkpt>
      <trkpt lat="46.87145" lon="8.4699">
        <ele>2258</ele>
        <time>2021-08-12T08:31:55.392Z</time>
      </trkpt>
      <trkpt lat="46.87144" lon="8.4699">
        <ele>2259</ele>
        <time>2021-08-12T08:31:56.392Z</time>
      </trkpt>
      <trkpt lat="46.87144" lon="8.4699">
        <ele>2259</ele>
        <time>2021-08-12T08:31:57.393Z</time>
      </trkpt>
      <trkpt lat="46.87143" lon="8.4699">
        <ele>2259</ele>
        <time>2021-08-12T08:31:58.393Z</time>
      </trkpt>
      <trkpt lat="46.87141" lon="8.46991">
        <ele>2259</ele>
        <time>2021-08-12T08:31:59.392Z</time>
      </trkpt>
      <trkpt lat="46.8714" lon="8.46991">
        <ele>2259</ele>
        <time>2021-08-12T08:32:00.393Z</time>
      </trkpt>
      <trkpt lat="46.8714" lon="8.46993">
        <ele>2259</ele>
        <time>2021-08-12T08:32:01.393Z</time>
      </trkpt>
      <trkpt lat="46.87139" lon="8.46994">
        <ele>2258</ele>
        <time>2021-08-12T08:32:02.393Z</time>
      </trkpt>
      <trkpt lat="46.87138" lon="8.46996">
        <ele>2258</ele>
        <time>2021-08-12T08:32:03.393Z</time>
      </trkpt>
      <trkpt lat="46.87138" lon="8.46997">
        <ele>2258</ele>
        <time>2021-08-12T08:32:04.393Z</time>
      </trkpt>
      <trkpt lat="46.87138" lon="8.46998">
        <ele>2258</ele>
        <time>2021-08-12T08:32:05.392Z</time>
      </trkpt>
      <trkpt lat="46.87137" lon="8.47">
        <ele>2258</ele>
        <time>2021-08-12T08:32:06.393Z</time>
      </trkpt>
      <trkpt lat="46.87137" lon="8.47">
        <ele>2258</ele>
        <time>2021-08-12T08:32:07.393Z</time>
      </trkpt>
      <trkpt lat="46.87137" lon="8.47001">
        <ele>2257</ele>
        <time>2021-08-12T08:32:08.392Z</time>
      </trkpt>
      <trkpt lat="46.87137" lon="8.47002">
        <ele>2257</ele>
        <time>2021-08-12T08:32:09.392Z</time>
      </trkpt>
      <trkpt lat="46.87137" lon="8.47003">
        <ele>2256</ele>
        <time>2021-08-12T08:32:10.392Z</time>
      </trkpt>
      <trkpt lat="46.87136" lon="8.47004">
        <ele>2255</ele>
        <time>2021-08-12T08:32:11.393Z</time>
      </trkpt>
      <trkpt lat="46.87136" lon="8.47005">
        <ele>2255</ele>
        <time>2021-08-12T08:32:12.392Z</time>
      </trkpt>
      <trkpt lat="46.87136" lon="8.47006">
        <ele>2255</ele>
        <time>2021-08-12T08:32:13.393Z</time>
      </trkpt>
      <trkpt lat="46.87136" lon="8.47007">
        <ele>2255</ele>
        <time>2021-08-12T08:32:14.393Z</time>
      </trkpt>
      <trkpt lat="46.87135" lon="8.47009">
        <ele>2255</ele>
        <time>2021-08-12T08:32:15.393Z</time>
      </trkpt>
      <trkpt lat="46.87135" lon="8.47009">
        <ele>2254</ele>
        <time>2021-08-12T08:32:16.392Z</time>
      </trkpt>
      <trkpt lat="46.87135" lon="8.47009">
        <ele>2254</ele>
        <time>2021-08-12T08:32:17.393Z</time>
      </trkpt>
      <trkpt lat="46.87135" lon="8.47009">
        <ele>2254</ele>
        <time>2021-08-12T08:32:18.393Z</time>
      </trkpt>
      <trkpt lat="46.87134" lon="8.4701">
        <ele>2254</ele>
        <time>2021-08-12T08:32:19.393Z</time>
      </trkpt>
      <trkpt lat="46.87134" lon="8.4701">
        <ele>2253</ele>
        <time>2021-08-12T08:32:20.392Z</time>
      </trkpt>
      <trkpt lat="46.87133" lon="8.4701">
        <ele>2253</ele>
        <time>2021-08-12T08:32:21.393Z</time>
      </trkpt>
      <trkpt lat="46.87133" lon="8.47011">
        <ele>2253</ele>
        <time>2021-08-12T08:32:22.392Z</time>
      </trkpt>
      <trkpt lat="46.87132" lon="8.47011">
        <ele>2253</ele>
        <time>2021-08-12T08:32:23.392Z</time>
      </trkpt>
      <trkpt lat="46.87131" lon="8.47011">
        <ele>2252</ele>
        <time>2021-08-12T08:32:24.392Z</time>
      </trkpt>
      <trkpt lat="46.8713" lon="8.47012">
        <ele>2252</ele>
        <time>2021-08-12T08:32:25.392Z</time>
      </trkpt>
      <trkpt lat="46.87129" lon="8.47012">
        <ele>2251</ele>
        <time>2021-08-12T08:32:26.392Z</time>
      </trkpt>
      <trkpt lat="46.87128" lon="8.47013">
        <ele>2251</ele>
        <time>2021-08-12T08:32:27.393Z</time>
      </trkpt>
      <trkpt lat="46.87127" lon="8.47013">
        <ele>2251</ele>
        <time>2021-08-12T08:32:28.392Z</time>
      </trkpt>
      <trkpt lat="46.87126" lon="8.47013">
        <ele>2251</ele>
        <time>2021-08-12T08:32:29.392Z</time>
      </trkpt>
      <trkpt lat="46.87125" lon="8.47013">
        <ele>2250</ele>
        <time>2021-08-12T08:32:30.392Z</time>
      </trkpt>
      <trkpt lat="46.87124" lon="8.47013">
        <ele>2250</ele>
        <time>2021-08-12T08:32:31.393Z</time>
      </trkpt>
      <trkpt lat="46.87124" lon="8.47012">
        <ele>2250</ele>
        <time>2021-08-12T08:32:32.392Z</time>
      </trkpt>
      <trkpt lat="46.87123" lon="8.47013">
        <ele>2250</ele>
        <time>2021-08-12T08:32:33.392Z</time>
      </trkpt>
      <trkpt lat="46.87123" lon="8.47013">
        <ele>2250</ele>
        <time>2021-08-12T08:32:34.392Z</time>
      </trkpt>
      <trkpt lat="46.87122" lon="8.47013">
        <ele>2250</ele>
        <time>2021-08-12T08:32:35.392Z</time>
      </trkpt>
      <trkpt lat="46.87121" lon="8.47013">
        <ele>2250</ele>
        <time>2021-08-12T08:32:36.392Z</time>
      </trkpt>
      <trkpt lat="46.8712" lon="8.47013">
        <ele>2250</ele>
        <time>2021-08-12T08:32:37.392Z</time>
      </trkpt>
      <trkpt lat="46.87119" lon="8.47013">
        <ele>2250</ele>
        <time>2021-08-12T08:32:38.392Z</time>
      </trkpt>
      <trkpt lat="46.87118" lon="8.47012">
        <ele>2250</ele>
        <time>2021-08-12T08:32:39.392Z</time>
      </trkpt>
      <trkpt lat="46.87116" lon="8.47013">
        <ele>2250</ele>
        <time>2021-08-12T08:32:40.392Z</time>
      </trkpt>
      <trkpt lat="46.87115" lon="8.47014">
        <ele>2249</ele>
        <time>2021-08-12T08:32:41.392Z</time>
      </trkpt>
      <trkpt lat="46.87114" lon="8.47014">
        <ele>2249</ele>
        <time>2021-08-12T08:32:42.393Z</time>
      </trkpt>
      <trkpt lat="46.87113" lon="8.47014">
        <ele>2249</ele>
        <time>2021-08-12T08:32:43.392Z</time>
      </trkpt>
      <trkpt lat="46.87112" lon="8.47015">
        <ele>2248</ele>
        <time>2021-08-12T08:32:44.392Z</time>
      </trkpt>
      <trkpt lat="46.8711" lon="8.47015">
        <ele>2248</ele>
        <time>2021-08-12T08:32:45.392Z</time>
      </trkpt>
      <trkpt lat="46.87109" lon="8.47015">
        <ele>2248</ele>
        <time>2021-08-12T08:32:46.392Z</time>
      </trkpt>
      <trkpt lat="46.87107" lon="8.47014">
        <ele>2249</ele>
        <time>2021-08-12T08:32:47.392Z</time>
      </trkpt>
      <trkpt lat="46.87106" lon="8.47013">
        <ele>2249</ele>
        <time>2021-08-12T08:32:48.392Z</time>
      </trkpt>
      <trkpt lat="46.87105" lon="8.47013">
        <ele>2249</ele>
        <time>2021-08-12T08:32:49.392Z</time>
      </trkpt>
      <trkpt lat="46.87104" lon="8.47014">
        <ele>2250</ele>
        <time>2021-08-12T08:32:50.393Z</time>
      </trkpt>
      <trkpt lat="46.87103" lon="8.47014">
        <ele>2250</ele>
        <time>2021-08-12T08:32:51.392Z</time>
      </trkpt>
      <trkpt lat="46.87102" lon="8.47015">
        <ele>2250</ele>
        <time>2021-08-12T08:32:52.392Z</time>
      </trkpt>
      <trkpt lat="46.871" lon="8.47015">
        <ele>2251</ele>
        <time>2021-08-12T08:32:53.392Z</time>
      </trkpt>
      <trkpt lat="46.871" lon="8.47016">
        <ele>2251</ele>
        <time>2021-08-12T08:32:54.393Z</time>
      </trkpt>
      <trkpt lat="46.87098" lon="8.47016">
        <ele>2251</ele>
        <time>2021-08-12T08:32:55.392Z</time>
      </trkpt>
      <trkpt lat="46.87097" lon="8.47016">
        <ele>2251</ele>
        <time>2021-08-12T08:32:56.392Z</time>
      </trkpt>
      <trkpt lat="46.87096" lon="8.47017">
        <ele>2251</ele>
        <time>2021-08-12T08:32:57.393Z</time>
      </trkpt>
      <trkpt lat="46.87095" lon="8.47017">
        <ele>2251</ele>
        <time>2021-08-12T08:32:58.393Z</time>
      </trkpt>
      <trkpt lat="46.87094" lon="8.47018">
        <ele>2251</ele>
        <time>2021-08-12T08:32:59.393Z</time>
      </trkpt>
      <trkpt lat="46.87093" lon="8.47018">
        <ele>2251</ele>
        <time>2021-08-12T08:33:00.393Z</time>
      </trkpt>
      <trkpt lat="46.87092" lon="8.47018">
        <ele>2251</ele>
        <time>2021-08-12T08:33:01.393Z</time>
      </trkpt>
      <trkpt lat="46.87091" lon="8.47019">
        <ele>2251</ele>
        <time>2021-08-12T08:33:02.393Z</time>
      </trkpt>
      <trkpt lat="46.8709" lon="8.47019">
        <ele>2251</ele>
        <time>2021-08-12T08:33:03.393Z</time>
      </trkpt>
      <trkpt lat="46.87089" lon="8.47019">
        <ele>2251</ele>
        <time>2021-08-12T08:33:04.393Z</time>
      </trkpt>
      <trkpt lat="46.87088" lon="8.47019">
        <ele>2251</ele>
        <time>2021-08-12T08:33:05.392Z</time>
      </trkpt>
      <trkpt lat="46.87087" lon="8.47019">
        <ele>2251</ele>
        <time>2021-08-12T08:33:06.393Z</time>
      </trkpt>
      <trkpt lat="46.87086" lon="8.47019">
        <ele>2251</ele>
        <time>2021-08-12T08:33:07.393Z</time>
      </trkpt>
      <trkpt lat="46.87084" lon="8.47019">
        <ele>2251</ele>
        <time>2021-08-12T08:33:08.392Z</time>
      </trkpt>
      <trkpt lat="46.87084" lon="8.47018">
        <ele>2250</ele>
        <time>2021-08-12T08:33:09.393Z</time>
      </trkpt>
      <trkpt lat="46.87083" lon="8.47019">
        <ele>2250</ele>
        <time>2021-08-12T08:33:10.393Z</time>
      </trkpt>
      <trkpt lat="46.87083" lon="8.47019">
        <ele>2250</ele>
        <time>2021-08-12T08:33:11.392Z</time>
      </trkpt>
      <trkpt lat="46.87081" lon="8.47019">
        <ele>2249</ele>
        <time>2021-08-12T08:33:12.393Z</time>
      </trkpt>
      <trkpt lat="46.87081" lon="8.47019">
        <ele>2249</ele>
        <time>2021-08-12T08:33:13.393Z</time>
      </trkpt>
      <trkpt lat="46.8708" lon="8.4702">
        <ele>2249</ele>
        <time>2021-08-12T08:33:14.393Z</time>
      </trkpt>
      <trkpt lat="46.87079" lon="8.47021">
        <ele>2248</ele>
        <time>2021-08-12T08:33:15.393Z</time>
      </trkpt>
      <trkpt lat="46.87078" lon="8.47021">
        <ele>2248</ele>
        <time>2021-08-12T08:33:16.392Z</time>
      </trkpt>
      <trkpt lat="46.87077" lon="8.47021">
        <ele>2248</ele>
        <time>2021-08-12T08:33:17.393Z</time>
      </trkpt>
      <trkpt lat="46.87076" lon="8.47021">
        <ele>2248</ele>
        <time>2021-08-12T08:33:18.392Z</time>
      </trkpt>
      <trkpt lat="46.87075" lon="8.47021">
        <ele>2248</ele>
        <time>2021-08-12T08:33:19.393Z</time>
      </trkpt>
      <trkpt lat="46.87074" lon="8.47021">
        <ele>2248</ele>
        <time>2021-08-12T08:33:20.393Z</time>
      </trkpt>
      <trkpt lat="46.87073" lon="8.47021">
        <ele>2248</ele>
        <time>2021-08-12T08:33:21.393Z</time>
      </trkpt>
      <trkpt lat="46.87072" lon="8.4702">
        <ele>2248</ele>
        <time>2021-08-12T08:33:22.393Z</time>
      </trkpt>
      <trkpt lat="46.87071" lon="8.4702">
        <ele>2249</ele>
        <time>2021-08-12T08:33:23.393Z</time>
      </trkpt>
      <trkpt lat="46.8707" lon="8.4702">
        <ele>2249</ele>
        <time>2021-08-12T08:33:24.392Z</time>
      </trkpt>
      <trkpt lat="46.87069" lon="8.4702">
        <ele>2249</ele>
        <time>2021-08-12T08:33:25.393Z</time>
      </trkpt>
      <trkpt lat="46.87068" lon="8.4702">
        <ele>2248</ele>
        <time>2021-08-12T08:33:26.393Z</time>
      </trkpt>
      <trkpt lat="46.87067" lon="8.47019">
        <ele>2248</ele>
        <time>2021-08-12T08:33:27.393Z</time>
      </trkpt>
      <trkpt lat="46.87066" lon="8.47019">
        <ele>2248</ele>
        <time>2021-08-12T08:33:28.393Z</time>
      </trkpt>
      <trkpt lat="46.87065" lon="8.47018">
        <ele>2248</ele>
        <time>2021-08-12T08:33:29.393Z</time>
      </trkpt>
      <trkpt lat="46.87065" lon="8.47017">
        <ele>2249</ele>
        <time>2021-08-12T08:33:30.393Z</time>
      </trkpt>
      <trkpt lat="46.87064" lon="8.47017">
        <ele>2249</ele>
        <time>2021-08-12T08:33:31.393Z</time>
      </trkpt>
      <trkpt lat="46.87064" lon="8.47017">
        <ele>2250</ele>
        <time>2021-08-12T08:33:32.393Z</time>
      </trkpt>
      <trkpt lat="46.87063" lon="8.47017">
        <ele>2250</ele>
        <time>2021-08-12T08:33:33.392Z</time>
      </trkpt>
      <trkpt lat="46.87062" lon="8.47018">
        <ele>2250</ele>
        <time>2021-08-12T08:33:34.392Z</time>
      </trkpt>
      <trkpt lat="46.87061" lon="8.47017">
        <ele>2251</ele>
        <time>2021-08-12T08:33:35.392Z</time>
      </trkpt>
      <trkpt lat="46.87061" lon="8.47017">
        <ele>2251</ele>
        <time>2021-08-12T08:33:36.393Z</time>
      </trkpt>
      <trkpt lat="46.8706" lon="8.47016">
        <ele>2250</ele>
        <time>2021-08-12T08:33:37.393Z</time>
      </trkpt>
      <trkpt lat="46.87059" lon="8.47016">
        <ele>2251</ele>
        <time>2021-08-12T08:33:38.392Z</time>
      </trkpt>
      <trkpt lat="46.87058" lon="8.47016">
        <ele>2251</ele>
        <time>2021-08-12T08:33:39.393Z</time>
      </trkpt>
      <trkpt lat="46.87057" lon="8.47016">
        <ele>2251</ele>
        <time>2021-08-12T08:33:40.392Z</time>
      </trkpt>
      <trkpt lat="46.87056" lon="8.47015">
        <ele>2251</ele>
        <time>2021-08-12T08:33:41.392Z</time>
      </trkpt>
      <trkpt lat="46.87055" lon="8.47015">
        <ele>2252</ele>
        <time>2021-08-12T08:33:42.393Z</time>
      </trkpt>
      <trkpt lat="46.87054" lon="8.47015">
        <ele>2252</ele>
        <time>2021-08-12T08:33:43.393Z</time>
      </trkpt>
      <trkpt lat="46.87053" lon="8.47015">
        <ele>2252</ele>
        <time>2021-08-12T08:33:44.393Z</time>
      </trkpt>
      <trkpt lat="46.87053" lon="8.47016">
        <ele>2252</ele>
        <time>2021-08-12T08:33:45.392Z</time>
      </trkpt>
      <trkpt lat="46.87052" lon="8.47016">
        <ele>2251</ele>
        <time>2021-08-12T08:33:46.393Z</time>
      </trkpt>
      <trkpt lat="46.87051" lon="8.47016">
        <ele>2250</ele>
        <time>2021-08-12T08:33:47.393Z</time>
      </trkpt>
      <trkpt lat="46.8705" lon="8.47016">
        <ele>2250</ele>
        <time>2021-08-12T08:33:48.392Z</time>
      </trkpt>
      <trkpt lat="46.8705" lon="8.47016">
        <ele>2250</ele>
        <time>2021-08-12T08:33:49.393Z</time>
      </trkpt>
      <trkpt lat="46.87049" lon="8.47016">
        <ele>2249</ele>
        <time>2021-08-12T08:33:50.392Z</time>
      </trkpt>
      <trkpt lat="46.87048" lon="8.47017">
        <ele>2249</ele>
        <time>2021-08-12T08:33:51.393Z</time>
      </trkpt>
      <trkpt lat="46.87047" lon="8.47016">
        <ele>2249</ele>
        <time>2021-08-12T08:33:52.393Z</time>
      </trkpt>
      <trkpt lat="46.87047" lon="8.47016">
        <ele>2249</ele>
        <time>2021-08-12T08:33:53.393Z</time>
      </trkpt>
      <trkpt lat="46.87046" lon="8.47016">
        <ele>2249</ele>
        <time>2021-08-12T08:33:54.393Z</time>
      </trkpt>
      <trkpt lat="46.87046" lon="8.47016">
        <ele>2249</ele>
        <time>2021-08-12T08:33:55.392Z</time>
      </trkpt>
      <trkpt lat="46.87046" lon="8.47016">
        <ele>2249</ele>
        <time>2021-08-12T08:33:56.392Z</time>
      </trkpt>
      <trkpt lat="46.87046" lon="8.47017">
        <ele>2250</ele>
        <time>2021-08-12T08:33:57.393Z</time>
      </trkpt>
      <trkpt lat="46.87046" lon="8.47018">
        <ele>2250</ele>
        <time>2021-08-12T08:33:58.393Z</time>
      </trkpt>
      <trkpt lat="46.87045" lon="8.47018">
        <ele>2251</ele>
        <time>2021-08-12T08:33:59.393Z</time>
      </trkpt>
      <trkpt lat="46.87044" lon="8.47018">
        <ele>2251</ele>
        <time>2021-08-12T08:34:00.393Z</time>
      </trkpt>
      <trkpt lat="46.87044" lon="8.47019">
        <ele>2251</ele>
        <time>2021-08-12T08:34:01.392Z</time>
      </trkpt>
      <trkpt lat="46.87044" lon="8.4702">
        <ele>2251</ele>
        <time>2021-08-12T08:34:02.393Z</time>
      </trkpt>
      <trkpt lat="46.87043" lon="8.47019">
        <ele>2251</ele>
        <time>2021-08-12T08:34:03.393Z</time>
      </trkpt>
      <trkpt lat="46.87042" lon="8.47019">
        <ele>2251</ele>
        <time>2021-08-12T08:34:04.393Z</time>
      </trkpt>
      <trkpt lat="46.8704" lon="8.4702">
        <ele>2250</ele>
        <time>2021-08-12T08:34:05.394Z</time>
      </trkpt>
      <trkpt lat="46.87039" lon="8.4702">
        <ele>2249</ele>
        <time>2021-08-12T08:34:06.394Z</time>
      </trkpt>
      <trkpt lat="46.87039" lon="8.4702">
        <ele>2249</ele>
        <time>2021-08-12T08:34:07.394Z</time>
      </trkpt>
      <trkpt lat="46.87039" lon="8.47019">
        <ele>2250</ele>
        <time>2021-08-12T08:34:08.394Z</time>
      </trkpt>
      <trkpt lat="46.87039" lon="8.47019">
        <ele>2250</ele>
        <time>2021-08-12T08:34:09.394Z</time>
      </trkpt>
      <trkpt lat="46.8704" lon="8.47021">
        <ele>2249</ele>
        <time>2021-08-12T08:34:10.394Z</time>
      </trkpt>
      <trkpt lat="46.87039" lon="8.47021">
        <ele>2249</ele>
        <time>2021-08-12T08:34:11.394Z</time>
      </trkpt>
      <trkpt lat="46.87038" lon="8.47021">
        <ele>2249</ele>
        <time>2021-08-12T08:34:12.395Z</time>
      </trkpt>
      <trkpt lat="46.87037" lon="8.47021">
        <ele>2249</ele>
        <time>2021-08-12T08:34:13.394Z</time>
      </trkpt>
      <trkpt lat="46.87036" lon="8.47021">
        <ele>2249</ele>
        <time>2021-08-12T08:34:14.394Z</time>
      </trkpt>
      <trkpt lat="46.87035" lon="8.4702">
        <ele>2249</ele>
        <time>2021-08-12T08:34:15.394Z</time>
      </trkpt>
      <trkpt lat="46.87034" lon="8.4702">
        <ele>2249</ele>
        <time>2021-08-12T08:34:16.395Z</time>
      </trkpt>
      <trkpt lat="46.87033" lon="8.47019">
        <ele>2250</ele>
        <time>2021-08-12T08:34:17.394Z</time>
      </trkpt>
      <trkpt lat="46.87033" lon="8.47019">
        <ele>2250</ele>
        <time>2021-08-12T08:34:18.395Z</time>
      </trkpt>
      <trkpt lat="46.87032" lon="8.47019">
        <ele>2250</ele>
        <time>2021-08-12T08:34:19.394Z</time>
      </trkpt>
      <trkpt lat="46.87032" lon="8.47019">
        <ele>2250</ele>
        <time>2021-08-12T08:34:20.394Z</time>
      </trkpt>
      <trkpt lat="46.87031" lon="8.4702">
        <ele>2250</ele>
        <time>2021-08-12T08:34:21.394Z</time>
      </trkpt>
      <trkpt lat="46.87031" lon="8.4702">
        <ele>2250</ele>
        <time>2021-08-12T08:34:22.394Z</time>
      </trkpt>
      <trkpt lat="46.8703" lon="8.4702">
        <ele>2250</ele>
        <time>2021-08-12T08:34:23.394Z</time>
      </trkpt>
      <trkpt lat="46.87029" lon="8.47019">
        <ele>2250</ele>
        <time>2021-08-12T08:34:24.395Z</time>
      </trkpt>
      <trkpt lat="46.87029" lon="8.47018">
        <ele>2250</ele>
        <time>2021-08-12T08:34:25.395Z</time>
      </trkpt>
      <trkpt lat="46.87028" lon="8.47019">
        <ele>2251</ele>
        <time>2021-08-12T08:34:26.394Z</time>
      </trkpt>
      <trkpt lat="46.87028" lon="8.47018">
        <ele>2251</ele>
        <time>2021-08-12T08:34:27.395Z</time>
      </trkpt>
      <trkpt lat="46.87027" lon="8.47018">
        <ele>2251</ele>
        <time>2021-08-12T08:34:28.395Z</time>
      </trkpt>
      <trkpt lat="46.87027" lon="8.47018">
        <ele>2251</ele>
        <time>2021-08-12T08:34:29.395Z</time>
      </trkpt>
      <trkpt lat="46.87026" lon="8.47018">
        <ele>2251</ele>
        <time>2021-08-12T08:34:30.394Z</time>
      </trkpt>
      <trkpt lat="46.87025" lon="8.47018">
        <ele>2252</ele>
        <time>2021-08-12T08:34:31.395Z</time>
      </trkpt>
      <trkpt lat="46.87024" lon="8.47018">
        <ele>2252</ele>
        <time>2021-08-12T08:34:32.395Z</time>
      </trkpt>
      <trkpt lat="46.87023" lon="8.47018">
        <ele>2252</ele>
        <time>2021-08-12T08:34:33.394Z</time>
      </trkpt>
      <trkpt lat="46.87023" lon="8.47018">
        <ele>2252</ele>
        <time>2021-08-12T08:34:34.395Z</time>
      </trkpt>
      <trkpt lat="46.87023" lon="8.47018">
        <ele>2252</ele>
        <time>2021-08-12T08:34:35.394Z</time>
      </trkpt>
      <trkpt lat="46.87022" lon="8.47018">
        <ele>2253</ele>
        <time>2021-08-12T08:34:36.395Z</time>
      </trkpt>
      <trkpt lat="46.87022" lon="8.47018">
        <ele>2252</ele>
        <time>2021-08-12T08:34:37.394Z</time>
      </trkpt>
      <trkpt lat="46.87021" lon="8.47018">
        <ele>2253</ele>
        <time>2021-08-12T08:34:38.395Z</time>
      </trkpt>
      <trkpt lat="46.8702" lon="8.47018">
        <ele>2253</ele>
        <time>2021-08-12T08:34:39.395Z</time>
      </trkpt>
      <trkpt lat="46.87019" lon="8.47017">
        <ele>2253</ele>
        <time>2021-08-12T08:34:40.395Z</time>
      </trkpt>
      <trkpt lat="46.87018" lon="8.47017">
        <ele>2253</ele>
        <time>2021-08-12T08:34:41.395Z</time>
      </trkpt>
      <trkpt lat="46.87018" lon="8.47017">
        <ele>2253</ele>
        <time>2021-08-12T08:34:42.395Z</time>
      </trkpt>
      <trkpt lat="46.87017" lon="8.47017">
        <ele>2252</ele>
        <time>2021-08-12T08:34:43.395Z</time>
      </trkpt>
      <trkpt lat="46.87016" lon="8.47017">
        <ele>2252</ele>
        <time>2021-08-12T08:34:44.394Z</time>
      </trkpt>
      <trkpt lat="46.87016" lon="8.47017">
        <ele>2252</ele>
        <time>2021-08-12T08:34:45.394Z</time>
      </trkpt>
      <trkpt lat="46.87015" lon="8.47017">
        <ele>2253</ele>
        <time>2021-08-12T08:34:46.394Z</time>
      </trkpt>
      <trkpt lat="46.87015" lon="8.47017">
        <ele>2253</ele>
        <time>2021-08-12T08:34:47.395Z</time>
      </trkpt>
      <trkpt lat="46.87014" lon="8.47017">
        <ele>2253</ele>
        <time>2021-08-12T08:34:48.394Z</time>
      </trkpt>
      <trkpt lat="46.87014" lon="8.47016">
        <ele>2253</ele>
        <time>2021-08-12T08:34:49.395Z</time>
      </trkpt>
      <trkpt lat="46.87013" lon="8.47016">
        <ele>2253</ele>
        <time>2021-08-12T08:34:50.394Z</time>
      </trkpt>
      <trkpt lat="46.87013" lon="8.47015">
        <ele>2254</ele>
        <time>2021-08-12T08:34:51.395Z</time>
      </trkpt>
      <trkpt lat="46.87012" lon="8.47015">
        <ele>2254</ele>
        <time>2021-08-12T08:34:52.395Z</time>
      </trkpt>
      <trkpt lat="46.87012" lon="8.47015">
        <ele>2254</ele>
        <time>2021-08-12T08:34:53.395Z</time>
      </trkpt>
      <trkpt lat="46.87011" lon="8.47015">
        <ele>2259</ele>
        <time>2021-08-12T08:34:54.395Z</time>
      </trkpt>
      <trkpt lat="46.8701" lon="8.47015">
        <ele>2259</ele>
        <time>2021-08-12T08:34:55.395Z</time>
      </trkpt>
      <trkpt lat="46.87009" lon="8.47015">
        <ele>2259</ele>
        <time>2021-08-12T08:34:56.395Z</time>
      </trkpt>
      <trkpt lat="46.87009" lon="8.47015">
        <ele>2259</ele>
        <time>2021-08-12T08:34:57.395Z</time>
      </trkpt>
      <trkpt lat="46.87008" lon="8.47014">
        <ele>2259</ele>
        <time>2021-08-12T08:34:58.395Z</time>
      </trkpt>
      <trkpt lat="46.87008" lon="8.47014">
        <ele>2259</ele>
        <time>2021-08-12T08:34:59.395Z</time>
      </trkpt>
      <trkpt lat="46.87007" lon="8.47014">
        <ele>2259</ele>
        <time>2021-08-12T08:35:00.395Z</time>
      </trkpt>
      <trkpt lat="46.87007" lon="8.47015">
        <ele>2259</ele>
        <time>2021-08-12T08:35:01.395Z</time>
      </trkpt>
      <trkpt lat="46.87007" lon="8.47015">
        <ele>2259</ele>
        <time>2021-08-12T08:35:02.395Z</time>
      </trkpt>
      <trkpt lat="46.87006" lon="8.47016">
        <ele>2258</ele>
        <time>2021-08-12T08:35:03.395Z</time>
      </trkpt>
      <trkpt lat="46.87006" lon="8.47016">
        <ele>2258</ele>
        <time>2021-08-12T08:35:04.395Z</time>
      </trkpt>
      <trkpt lat="46.87005" lon="8.47017">
        <ele>2254</ele>
        <time>2021-08-12T08:35:05.396Z</time>
      </trkpt>
      <trkpt lat="46.87005" lon="8.47016">
        <ele>2254</ele>
        <time>2021-08-12T08:35:06.396Z</time>
      </trkpt>
      <trkpt lat="46.87004" lon="8.47017">
        <ele>2253</ele>
        <time>2021-08-12T08:35:07.395Z</time>
      </trkpt>
      <trkpt lat="46.87004" lon="8.47017">
        <ele>2253</ele>
        <time>2021-08-12T08:35:08.395Z</time>
      </trkpt>
      <trkpt lat="46.87004" lon="8.47017">
        <ele>2253</ele>
        <time>2021-08-12T08:35:09.396Z</time>
      </trkpt>
      <trkpt lat="46.87004" lon="8.47017">
        <ele>2253</ele>
        <time>2021-08-12T08:35:10.396Z</time>
      </trkpt>
      <trkpt lat="46.87003" lon="8.47016">
        <ele>2253</ele>
        <time>2021-08-12T08:35:11.395Z</time>
      </trkpt>
      <trkpt lat="46.87003" lon="8.47016">
        <ele>2252</ele>
        <time>2021-08-12T08:35:12.396Z</time>
      </trkpt>
      <trkpt lat="46.87003" lon="8.47016">
        <ele>2252</ele>
        <time>2021-08-12T08:35:13.396Z</time>
      </trkpt>
      <trkpt lat="46.87003" lon="8.47017">
        <ele>2253</ele>
        <time>2021-08-12T08:35:14.396Z</time>
      </trkpt>
      <trkpt lat="46.87007" lon="8.47024">
        <ele>2253</ele>
        <time>2021-08-12T08:35:15.397Z</time>
      </trkpt>
      <trkpt lat="46.87006" lon="8.47027">
        <ele>2250</ele>
        <time>2021-08-12T08:35:16.396Z</time>
      </trkpt>
      <trkpt lat="46.87007" lon="8.47026">
        <ele>2250</ele>
        <time>2021-08-12T08:35:17.397Z</time>
      </trkpt>
      <trkpt lat="46.87007" lon="8.47026">
        <ele>2250</ele>
        <time>2021-08-12T08:35:18.396Z</time>
      </trkpt>
      <trkpt lat="46.87007" lon="8.47024">
        <ele>2251</ele>
        <time>2021-08-12T08:35:19.398Z</time>
      </trkpt>
      <trkpt lat="46.87008" lon="8.47024">
        <ele>2252</ele>
        <time>2021-08-12T08:35:20.398Z</time>
      </trkpt>
      <trkpt lat="46.87008" lon="8.47024">
        <ele>2252</ele>
        <time>2021-08-12T08:35:21.397Z</time>
      </trkpt>
      <trkpt lat="46.87008" lon="8.47024">
        <ele>2253</ele>
        <time>2021-08-12T08:35:22.397Z</time>
      </trkpt>
      <trkpt lat="46.87008" lon="8.47024">
        <ele>2253</ele>
        <time>2021-08-12T08:35:23.398Z</time>
      </trkpt>
      <trkpt lat="46.87008" lon="8.47024">
        <ele>2253</ele>
        <time>2021-08-12T08:35:24.398Z</time>
      </trkpt>
      <trkpt lat="46.87009" lon="8.47024">
        <ele>2252</ele>
        <time>2021-08-12T08:35:25.398Z</time>
      </trkpt>
      <trkpt lat="46.8701" lon="8.47024">
        <ele>2252</ele>
        <time>2021-08-12T08:35:26.397Z</time>
      </trkpt>
      <trkpt lat="46.8701" lon="8.47025">
        <ele>2252</ele>
        <time>2021-08-12T08:35:27.397Z</time>
      </trkpt>
      <trkpt lat="46.87011" lon="8.47025">
        <ele>2252</ele>
        <time>2021-08-12T08:35:28.397Z</time>
      </trkpt>
      <trkpt lat="46.87011" lon="8.47023">
        <ele>2252</ele>
        <time>2021-08-12T08:35:29.398Z</time>
      </trkpt>
      <trkpt lat="46.87012" lon="8.47022">
        <ele>2253</ele>
        <time>2021-08-12T08:35:30.398Z</time>
      </trkpt>
      <trkpt lat="46.87011" lon="8.47021">
        <ele>2251</ele>
        <time>2021-08-12T08:35:31.398Z</time>
      </trkpt>
      <trkpt lat="46.87011" lon="8.47022">
        <ele>2249</ele>
        <time>2021-08-12T08:35:32.398Z</time>
      </trkpt>
      <trkpt lat="46.87012" lon="8.47022">
        <ele>2247</ele>
        <time>2021-08-12T08:35:33.398Z</time>
      </trkpt>
      <trkpt lat="46.87012" lon="8.47022">
        <ele>2243</ele>
        <time>2021-08-12T08:35:34.399Z</time>
      </trkpt>
      <trkpt lat="46.87012" lon="8.47022">
        <ele>2243</ele>
        <time>2021-08-12T08:35:35.400Z</time>
      </trkpt>
      <trkpt lat="46.87013" lon="8.47022">
        <ele>2243</ele>
        <time>2021-08-12T08:35:36.399Z</time>
      </trkpt>
      <trkpt lat="46.87013" lon="8.47022">
        <ele>2244</ele>
        <time>2021-08-12T08:35:37.400Z</time>
      </trkpt>
      <trkpt lat="46.87013" lon="8.47023">
        <ele>2244</ele>
        <time>2021-08-12T08:35:38.400Z</time>
      </trkpt>
      <trkpt lat="46.87013" lon="8.47023">
        <ele>2245</ele>
        <time>2021-08-12T08:35:39.399Z</time>
      </trkpt>
      <trkpt lat="46.87013" lon="8.47023">
        <ele>2245</ele>
        <time>2021-08-12T08:35:40.400Z</time>
      </trkpt>
      <trkpt lat="46.87014" lon="8.47023">
        <ele>2246</ele>
        <time>2021-08-12T08:35:41.400Z</time>
      </trkpt>
      <trkpt lat="46.87014" lon="8.47023">
        <ele>2246</ele>
        <time>2021-08-12T08:35:42.400Z</time>
      </trkpt>
      <trkpt lat="46.87015" lon="8.47023">
        <ele>2246</ele>
        <time>2021-08-12T08:35:43.400Z</time>
      </trkpt>
      <trkpt lat="46.87014" lon="8.47024">
        <ele>2247</ele>
        <time>2021-08-12T08:35:44.400Z</time>
      </trkpt>
      <trkpt lat="46.87014" lon="8.47024">
        <ele>2247</ele>
        <time>2021-08-12T08:35:45.399Z</time>
      </trkpt>
      <trkpt lat="46.87014" lon="8.47025">
        <ele>2248</ele>
        <time>2021-08-12T08:35:46.400Z</time>
      </trkpt>
      <trkpt lat="46.87014" lon="8.47025">
        <ele>2248</ele>
        <time>2021-08-12T08:35:47.399Z</time>
      </trkpt>
      <trkpt lat="46.87014" lon="8.47026">
        <ele>2249</ele>
        <time>2021-08-12T08:35:48.400Z</time>
      </trkpt>
      <trkpt lat="46.87015" lon="8.47026">
        <ele>2250</ele>
        <time>2021-08-12T08:35:49.400Z</time>
      </trkpt>
      <trkpt lat="46.87015" lon="8.47027">
        <ele>2251</ele>
        <time>2021-08-12T08:35:50.400Z</time>
      </trkpt>
      <trkpt lat="46.87015" lon="8.47028">
        <ele>2251</ele>
        <time>2021-08-12T08:35:51.400Z</time>
      </trkpt>
      <trkpt lat="46.87015" lon="8.47028">
        <ele>2252</ele>
        <time>2021-08-12T08:35:52.400Z</time>
      </trkpt>
      <trkpt lat="46.87015" lon="8.47029">
        <ele>2252</ele>
        <time>2021-08-12T08:35:53.400Z</time>
      </trkpt>
      <trkpt lat="46.87015" lon="8.4703">
        <ele>2253</ele>
        <time>2021-08-12T08:35:54.400Z</time>
      </trkpt>
      <trkpt lat="46.87015" lon="8.47031">
        <ele>2253</ele>
        <time>2021-08-12T08:35:55.400Z</time>
      </trkpt>
      <trkpt lat="46.87016" lon="8.47028">
        <ele>2250</ele>
        <time>2021-08-12T08:35:56.400Z</time>
      </trkpt>
      <trkpt lat="46.87016" lon="8.47027">
        <ele>2251</ele>
        <time>2021-08-12T08:35:57.400Z</time>
      </trkpt>
      <trkpt lat="46.87017" lon="8.47027">
        <ele>2251</ele>
        <time>2021-08-12T08:35:58.400Z</time>
      </trkpt>
      <trkpt lat="46.87017" lon="8.47028">
        <ele>2252</ele>
        <time>2021-08-12T08:35:59.400Z</time>
      </trkpt>
      <trkpt lat="46.87017" lon="8.47028">
        <ele>2254</ele>
        <time>2021-08-12T08:36:00.399Z</time>
      </trkpt>
      <trkpt lat="46.87018" lon="8.47031">
        <ele>2250</ele>
        <time>2021-08-12T08:36:01.400Z</time>
      </trkpt>
      <trkpt lat="46.87018" lon="8.47031">
        <ele>2250</ele>
        <time>2021-08-12T08:36:02.400Z</time>
      </trkpt>
      <trkpt lat="46.87019" lon="8.47031">
        <ele>2249</ele>
        <time>2021-08-12T08:36:03.401Z</time>
      </trkpt>
      <trkpt lat="46.87019" lon="8.47032">
        <ele>2249</ele>
        <time>2021-08-12T08:36:04.401Z</time>
      </trkpt>
      <trkpt lat="46.87019" lon="8.47032">
        <ele>2249</ele>
        <time>2021-08-12T08:36:05.400Z</time>
      </trkpt>
      <trkpt lat="46.87019" lon="8.47032">
        <ele>2248</ele>
        <time>2021-08-12T08:36:06.400Z</time>
      </trkpt>
      <trkpt lat="46.87019" lon="8.47033">
        <ele>2248</ele>
        <time>2021-08-12T08:36:07.400Z</time>
      </trkpt>
      <trkpt lat="46.87019" lon="8.47033">
        <ele>2248</ele>
        <time>2021-08-12T08:36:08.400Z</time>
      </trkpt>
      <trkpt lat="46.8702" lon="8.47034">
        <ele>2247</ele>
        <time>2021-08-12T08:36:09.400Z</time>
      </trkpt>
      <trkpt lat="46.8702" lon="8.47034">
        <ele>2247</ele>
        <time>2021-08-12T08:36:10.400Z</time>
      </trkpt>
      <trkpt lat="46.87019" lon="8.4703">
        <ele>2248</ele>
        <time>2021-08-12T08:36:11.401Z</time>
      </trkpt>
      <trkpt lat="46.87019" lon="8.47026">
        <ele>2250</ele>
        <time>2021-08-12T08:36:12.401Z</time>
      </trkpt>
      <trkpt lat="46.87017" lon="8.47026">
        <ele>2250</ele>
        <time>2021-08-12T08:36:13.401Z</time>
      </trkpt>
      <trkpt lat="46.87016" lon="8.47026">
        <ele>2250</ele>
        <time>2021-08-12T08:36:14.401Z</time>
      </trkpt>
      <trkpt lat="46.87016" lon="8.47025">
        <ele>2250</ele>
        <time>2021-08-12T08:36:15.400Z</time>
      </trkpt>
      <trkpt lat="46.87016" lon="8.47026">
        <ele>2250</ele>
        <time>2021-08-12T08:36:16.401Z</time>
      </trkpt>
      <trkpt lat="46.87015" lon="8.47025">
        <ele>2250</ele>
        <time>2021-08-12T08:36:17.401Z</time>
      </trkpt>
      <trkpt lat="46.87016" lon="8.47026">
        <ele>2250</ele>
        <time>2021-08-12T08:36:18.400Z</time>
      </trkpt>
      <trkpt lat="46.87015" lon="8.47026">
        <ele>2249</ele>
        <time>2021-08-12T08:36:19.401Z</time>
      </trkpt>
      <trkpt lat="46.87015" lon="8.47026">
        <ele>2249</ele>
        <time>2021-08-12T08:36:20.401Z</time>
      </trkpt>
      <trkpt lat="46.87014" lon="8.47025">
        <ele>2248</ele>
        <time>2021-08-12T08:36:21.401Z</time>
      </trkpt>
      <trkpt lat="46.87013" lon="8.47026">
        <ele>2248</ele>
        <time>2021-08-12T08:36:22.401Z</time>
      </trkpt>
      <trkpt lat="46.87013" lon="8.47025">
        <ele>2248</ele>
        <time>2021-08-12T08:36:23.401Z</time>
      </trkpt>
      <trkpt lat="46.87012" lon="8.47026">
        <ele>2247</ele>
        <time>2021-08-12T08:36:24.401Z</time>
      </trkpt>
      <trkpt lat="46.87011" lon="8.47026">
        <ele>2247</ele>
        <time>2021-08-12T08:36:25.400Z</time>
      </trkpt>
      <trkpt lat="46.87011" lon="8.47026">
        <ele>2248</ele>
        <time>2021-08-12T08:36:26.400Z</time>
      </trkpt>
      <trkpt lat="46.8701" lon="8.47026">
        <ele>2248</ele>
        <time>2021-08-12T08:36:27.401Z</time>
      </trkpt>
      <trkpt lat="46.8701" lon="8.47026">
        <ele>2248</ele>
        <time>2021-08-12T08:36:28.401Z</time>
      </trkpt>
      <trkpt lat="46.87009" lon="8.47026">
        <ele>2248</ele>
        <time>2021-08-12T08:36:29.401Z</time>
      </trkpt>
      <trkpt lat="46.87008" lon="8.47027">
        <ele>2248</ele>
        <time>2021-08-12T08:36:30.400Z</time>
      </trkpt>
      <trkpt lat="46.87008" lon="8.47027">
        <ele>2248</ele>
        <time>2021-08-12T08:36:31.400Z</time>
      </trkpt>
      <trkpt lat="46.87007" lon="8.47027">
        <ele>2247</ele>
        <time>2021-08-12T08:36:32.400Z</time>
      </trkpt>
      <trkpt lat="46.87006" lon="8.47026">
        <ele>2247</ele>
        <time>2021-08-12T08:36:33.401Z</time>
      </trkpt>
      <trkpt lat="46.87006" lon="8.47026">
        <ele>2247</ele>
        <time>2021-08-12T08:36:34.401Z</time>
      </trkpt>
      <trkpt lat="46.87005" lon="8.47026">
        <ele>2247</ele>
        <time>2021-08-12T08:36:35.401Z</time>
      </trkpt>
      <trkpt lat="46.87005" lon="8.47026">
        <ele>2248</ele>
        <time>2021-08-12T08:36:36.401Z</time>
      </trkpt>
      <trkpt lat="46.87004" lon="8.47026">
        <ele>2248</ele>
        <time>2021-08-12T08:36:37.401Z</time>
      </trkpt>
      <trkpt lat="46.87003" lon="8.47026">
        <ele>2248</ele>
        <time>2021-08-12T08:36:38.401Z</time>
      </trkpt>
      <trkpt lat="46.87003" lon="8.47026">
        <ele>2248</ele>
        <time>2021-08-12T08:36:39.401Z</time>
      </trkpt>
      <trkpt lat="46.87002" lon="8.47026">
        <ele>2248</ele>
        <time>2021-08-12T08:36:40.400Z</time>
      </trkpt>
      <trkpt lat="46.87002" lon="8.47026">
        <ele>2248</ele>
        <time>2021-08-12T08:36:41.401Z</time>
      </trkpt>
      <trkpt lat="46.87001" lon="8.47027">
        <ele>2248</ele>
        <time>2021-08-12T08:36:42.400Z</time>
      </trkpt>
      <trkpt lat="46.87001" lon="8.47027">
        <ele>2248</ele>
        <time>2021-08-12T08:36:43.401Z</time>
      </trkpt>
      <trkpt lat="46.87001" lon="8.47027">
        <ele>2249</ele>
        <time>2021-08-12T08:36:44.401Z</time>
      </trkpt>
      <trkpt lat="46.87" lon="8.47027">
        <ele>2249</ele>
        <time>2021-08-12T08:36:45.401Z</time>
      </trkpt>
      <trkpt lat="46.87" lon="8.47027">
        <ele>2249</ele>
        <time>2021-08-12T08:36:46.400Z</time>
      </trkpt>
      <trkpt lat="46.86999" lon="8.47028">
        <ele>2254</ele>
        <time>2021-08-12T08:36:47.402Z</time>
      </trkpt>
      <trkpt lat="46.86999" lon="8.47028">
        <ele>2254</ele>
        <time>2021-08-12T08:36:48.402Z</time>
      </trkpt>
      <trkpt lat="46.86998" lon="8.47028">
        <ele>2254</ele>
        <time>2021-08-12T08:36:49.401Z</time>
      </trkpt>
      <trkpt lat="46.86998" lon="8.47029">
        <ele>2254</ele>
        <time>2021-08-12T08:36:50.401Z</time>
      </trkpt>
      <trkpt lat="46.86998" lon="8.47029">
        <ele>2254</ele>
        <time>2021-08-12T08:36:51.402Z</time>
      </trkpt>
      <trkpt lat="46.86998" lon="8.4703">
        <ele>2253</ele>
        <time>2021-08-12T08:36:52.401Z</time>
      </trkpt>
      <trkpt lat="46.86997" lon="8.47031">
        <ele>2254</ele>
        <time>2021-08-12T08:36:53.402Z</time>
      </trkpt>
      <trkpt lat="46.86996" lon="8.47032">
        <ele>2254</ele>
        <time>2021-08-12T08:36:54.402Z</time>
      </trkpt>
      <trkpt lat="46.86996" lon="8.47032">
        <ele>2254</ele>
        <time>2021-08-12T08:36:55.401Z</time>
      </trkpt>
      <trkpt lat="46.86998" lon="8.47031">
        <ele>2249</ele>
        <time>2021-08-12T08:36:56.402Z</time>
      </trkpt>
      <trkpt lat="46.86998" lon="8.47032">
        <ele>2248</ele>
        <time>2021-08-12T08:36:57.401Z</time>
      </trkpt>
      <trkpt lat="46.86999" lon="8.47032">
        <ele>2248</ele>
        <time>2021-08-12T08:36:58.402Z</time>
      </trkpt>
      <trkpt lat="46.86999" lon="8.47032">
        <ele>2248</ele>
        <time>2021-08-12T08:36:59.401Z</time>
      </trkpt>
      <trkpt lat="46.86999" lon="8.47031">
        <ele>2248</ele>
        <time>2021-08-12T08:37:00.401Z</time>
      </trkpt>
      <trkpt lat="46.87" lon="8.47031">
        <ele>2248</ele>
        <time>2021-08-12T08:37:01.401Z</time>
      </trkpt>
      <trkpt lat="46.87" lon="8.47036">
        <ele>2246</ele>
        <time>2021-08-12T08:37:02.403Z</time>
      </trkpt>
      <trkpt lat="46.87" lon="8.47036">
        <ele>2246</ele>
        <time>2021-08-12T08:37:03.402Z</time>
      </trkpt>
      <trkpt lat="46.87" lon="8.47037">
        <ele>2246</ele>
        <time>2021-08-12T08:37:04.402Z</time>
      </trkpt>
      <trkpt lat="46.87" lon="8.47038">
        <ele>2246</ele>
        <time>2021-08-12T08:37:05.403Z</time>
      </trkpt>
      <trkpt lat="46.86999" lon="8.47039">
        <ele>2246</ele>
        <time>2021-08-12T08:37:06.403Z</time>
      </trkpt>
      <trkpt lat="46.87" lon="8.47039">
        <ele>2246</ele>
        <time>2021-08-12T08:37:07.403Z</time>
      </trkpt>
      <trkpt lat="46.87" lon="8.47039">
        <ele>2246</ele>
        <time>2021-08-12T08:37:08.403Z</time>
      </trkpt>
      <trkpt lat="46.87001" lon="8.47039">
        <ele>2246</ele>
        <time>2021-08-12T08:37:09.402Z</time>
      </trkpt>
      <trkpt lat="46.87001" lon="8.47039">
        <ele>2245</ele>
        <time>2021-08-12T08:37:10.404Z</time>
      </trkpt>
      <trkpt lat="46.87001" lon="8.47038">
        <ele>2245</ele>
        <time>2021-08-12T08:37:11.404Z</time>
      </trkpt>
      <trkpt lat="46.87001" lon="8.47038">
        <ele>2245</ele>
        <time>2021-08-12T08:37:12.403Z</time>
      </trkpt>
      <trkpt lat="46.87001" lon="8.47038">
        <ele>2245</ele>
        <time>2021-08-12T08:37:13.404Z</time>
      </trkpt>
      <trkpt lat="46.87" lon="8.47038">
        <ele>2245</ele>
        <time>2021-08-12T08:37:14.403Z</time>
      </trkpt>
      <trkpt lat="46.87" lon="8.47038">
        <ele>2245</ele>
        <time>2021-08-12T08:37:15.403Z</time>
      </trkpt>
      <trkpt lat="46.87003" lon="8.4704">
        <ele>2246</ele>
        <time>2021-08-12T08:37:16.405Z</time>
      </trkpt>
      <trkpt lat="46.87003" lon="8.4704">
        <ele>2246</ele>
        <time>2021-08-12T08:37:17.405Z</time>
      </trkpt>
      <trkpt lat="46.87003" lon="8.47041">
        <ele>2246</ele>
        <time>2021-08-12T08:37:18.404Z</time>
      </trkpt>
      <trkpt lat="46.87003" lon="8.47041">
        <ele>2246</ele>
        <time>2021-08-12T08:37:19.405Z</time>
      </trkpt>
      <trkpt lat="46.87004" lon="8.47042">
        <ele>2246</ele>
        <time>2021-08-12T08:37:20.405Z</time>
      </trkpt>
      <trkpt lat="46.87004" lon="8.47042">
        <ele>2246</ele>
        <time>2021-08-12T08:37:21.404Z</time>
      </trkpt>
      <trkpt lat="46.87005" lon="8.47043">
        <ele>2246</ele>
        <time>2021-08-12T08:37:22.404Z</time>
      </trkpt>
      <trkpt lat="46.87005" lon="8.47043">
        <ele>2246</ele>
        <time>2021-08-12T08:37:23.404Z</time>
      </trkpt>
      <trkpt lat="46.87006" lon="8.47043">
        <ele>2246</ele>
        <time>2021-08-12T08:37:24.404Z</time>
      </trkpt>
      <trkpt lat="46.87006" lon="8.47043">
        <ele>2246</ele>
        <time>2021-08-12T08:37:25.404Z</time>
      </trkpt>
      <trkpt lat="46.87006" lon="8.47043">
        <ele>2245</ele>
        <time>2021-08-12T08:37:26.404Z</time>
      </trkpt>
      <trkpt lat="46.87006" lon="8.47044">
        <ele>2245</ele>
        <time>2021-08-12T08:37:27.404Z</time>
      </trkpt>
      <trkpt lat="46.87006" lon="8.47044">
        <ele>2245</ele>
        <time>2021-08-12T08:37:28.404Z</time>
      </trkpt>
      <trkpt lat="46.87007" lon="8.47041">
        <ele>2244</ele>
        <time>2021-08-12T08:37:29.405Z</time>
      </trkpt>
      <trkpt lat="46.87007" lon="8.4704">
        <ele>2245</ele>
        <time>2021-08-12T08:37:30.405Z</time>
      </trkpt>
      <trkpt lat="46.87008" lon="8.47037">
        <ele>2246</ele>
        <time>2021-08-12T08:37:31.404Z</time>
      </trkpt>
      <trkpt lat="46.87008" lon="8.47037">
        <ele>2246</ele>
        <time>2021-08-12T08:37:32.404Z</time>
      </trkpt>
      <trkpt lat="46.87008" lon="8.47039">
        <ele>2249</ele>
        <time>2021-08-12T08:37:33.405Z</time>
      </trkpt>
      <trkpt lat="46.87008" lon="8.4704">
        <ele>2245</ele>
        <time>2021-08-12T08:37:34.406Z</time>
      </trkpt>
      <trkpt lat="46.87008" lon="8.47041">
        <ele>2244</ele>
        <time>2021-08-12T08:37:35.406Z</time>
      </trkpt>
      <trkpt lat="46.87008" lon="8.4704">
        <ele>2244</ele>
        <time>2021-08-12T08:37:36.405Z</time>
      </trkpt>
      <trkpt lat="46.87007" lon="8.4704">
        <ele>2242</ele>
        <time>2021-08-12T08:37:37.405Z</time>
      </trkpt>
      <trkpt lat="46.87007" lon="8.4704">
        <ele>2242</ele>
        <time>2021-08-12T08:37:38.405Z</time>
      </trkpt>
      <trkpt lat="46.87007" lon="8.4704">
        <ele>2243</ele>
        <time>2021-08-12T08:37:39.405Z</time>
      </trkpt>
      <trkpt lat="46.87006" lon="8.4704">
        <ele>2243</ele>
        <time>2021-08-12T08:37:40.405Z</time>
      </trkpt>
      <trkpt lat="46.87006" lon="8.47041">
        <ele>2244</ele>
        <time>2021-08-12T08:37:41.406Z</time>
      </trkpt>
      <trkpt lat="46.87005" lon="8.47041">
        <ele>2244</ele>
        <time>2021-08-12T08:37:42.405Z</time>
      </trkpt>
      <trkpt lat="46.87004" lon="8.47042">
        <ele>2245</ele>
        <time>2021-08-12T08:37:43.405Z</time>
      </trkpt>
      <trkpt lat="46.87004" lon="8.47042">
        <ele>2245</ele>
        <time>2021-08-12T08:37:44.405Z</time>
      </trkpt>
      <trkpt lat="46.87003" lon="8.47043">
        <ele>2246</ele>
        <time>2021-08-12T08:37:45.405Z</time>
      </trkpt>
      <trkpt lat="46.87002" lon="8.47043">
        <ele>2246</ele>
        <time>2021-08-12T08:37:46.405Z</time>
      </trkpt>
      <trkpt lat="46.87002" lon="8.47044">
        <ele>2246</ele>
        <time>2021-08-12T08:37:47.405Z</time>
      </trkpt>
      <trkpt lat="46.87001" lon="8.47045">
        <ele>2246</ele>
        <time>2021-08-12T08:37:48.405Z</time>
      </trkpt>
      <trkpt lat="46.87" lon="8.47046">
        <ele>2246</ele>
        <time>2021-08-12T08:37:49.406Z</time>
      </trkpt>
      <trkpt lat="46.86999" lon="8.47047">
        <ele>2246</ele>
        <time>2021-08-12T08:37:50.406Z</time>
      </trkpt>
      <trkpt lat="46.86999" lon="8.47048">
        <ele>2246</ele>
        <time>2021-08-12T08:37:51.406Z</time>
      </trkpt>
      <trkpt lat="46.86998" lon="8.47049">
        <ele>2245</ele>
        <time>2021-08-12T08:37:52.406Z</time>
      </trkpt>
      <trkpt lat="46.86998" lon="8.4705">
        <ele>2245</ele>
        <time>2021-08-12T08:37:53.406Z</time>
      </trkpt>
      <trkpt lat="46.86997" lon="8.4705">
        <ele>2244</ele>
        <time>2021-08-12T08:37:54.405Z</time>
      </trkpt>
      <trkpt lat="46.86997" lon="8.47051">
        <ele>2244</ele>
        <time>2021-08-12T08:37:55.405Z</time>
      </trkpt>
      <trkpt lat="46.86996" lon="8.47051">
        <ele>2244</ele>
        <time>2021-08-12T08:37:56.406Z</time>
      </trkpt>
      <trkpt lat="46.86996" lon="8.47052">
        <ele>2244</ele>
        <time>2021-08-12T08:37:57.406Z</time>
      </trkpt>
      <trkpt lat="46.86995" lon="8.47052">
        <ele>2244</ele>
        <time>2021-08-12T08:37:58.406Z</time>
      </trkpt>
      <trkpt lat="46.86995" lon="8.47053">
        <ele>2245</ele>
        <time>2021-08-12T08:37:59.405Z</time>
      </trkpt>
      <trkpt lat="46.86994" lon="8.47054">
        <ele>2245</ele>
        <time>2021-08-12T08:38:00.406Z</time>
      </trkpt>
      <trkpt lat="46.86994" lon="8.47055">
        <ele>2244</ele>
        <time>2021-08-12T08:38:01.406Z</time>
      </trkpt>
      <trkpt lat="46.86993" lon="8.47056">
        <ele>2244</ele>
        <time>2021-08-12T08:38:02.406Z</time>
      </trkpt>
      <trkpt lat="46.86993" lon="8.47056">
        <ele>2244</ele>
        <time>2021-08-12T08:38:03.406Z</time>
      </trkpt>
      <trkpt lat="46.86993" lon="8.47057">
        <ele>2244</ele>
        <time>2021-08-12T08:38:04.406Z</time>
      </trkpt>
      <trkpt lat="46.86992" lon="8.47057">
        <ele>2244</ele>
        <time>2021-08-12T08:38:05.406Z</time>
      </trkpt>
      <trkpt lat="46.86992" lon="8.47058">
        <ele>2244</ele>
        <time>2021-08-12T08:38:06.406Z</time>
      </trkpt>
      <trkpt lat="46.86991" lon="8.47058">
        <ele>2243</ele>
        <time>2021-08-12T08:38:07.405Z</time>
      </trkpt>
      <trkpt lat="46.8699" lon="8.47058">
        <ele>2243</ele>
        <time>2021-08-12T08:38:08.405Z</time>
      </trkpt>
      <trkpt lat="46.86989" lon="8.47059">
        <ele>2242</ele>
        <time>2021-08-12T08:38:09.406Z</time>
      </trkpt>
      <trkpt lat="46.86989" lon="8.47059">
        <ele>2242</ele>
        <time>2021-08-12T08:38:10.405Z</time>
      </trkpt>
      <trkpt lat="46.86988" lon="8.4706">
        <ele>2242</ele>
        <time>2021-08-12T08:38:11.406Z</time>
      </trkpt>
      <trkpt lat="46.86987" lon="8.47061">
        <ele>2241</ele>
        <time>2021-08-12T08:38:12.406Z</time>
      </trkpt>
      <trkpt lat="46.86987" lon="8.47061">
        <ele>2241</ele>
        <time>2021-08-12T08:38:13.405Z</time>
      </trkpt>
      <trkpt lat="46.86987" lon="8.47063">
        <ele>2241</ele>
        <time>2021-08-12T08:38:14.406Z</time>
      </trkpt>
      <trkpt lat="46.86986" lon="8.47063">
        <ele>2240</ele>
        <time>2021-08-12T08:38:15.406Z</time>
      </trkpt>
      <trkpt lat="46.86986" lon="8.47064">
        <ele>2241</ele>
        <time>2021-08-12T08:38:16.406Z</time>
      </trkpt>
      <trkpt lat="46.86985" lon="8.47064">
        <ele>2241</ele>
        <time>2021-08-12T08:38:17.406Z</time>
      </trkpt>
      <trkpt lat="46.86985" lon="8.47065">
        <ele>2241</ele>
        <time>2021-08-12T08:38:18.406Z</time>
      </trkpt>
      <trkpt lat="46.86984" lon="8.47066">
        <ele>2242</ele>
        <time>2021-08-12T08:38:19.406Z</time>
      </trkpt>
      <trkpt lat="46.86984" lon="8.47067">
        <ele>2242</ele>
        <time>2021-08-12T08:38:20.406Z</time>
      </trkpt>
      <trkpt lat="46.86984" lon="8.47068">
        <ele>2243</ele>
        <time>2021-08-12T08:38:21.405Z</time>
      </trkpt>
      <trkpt lat="46.86984" lon="8.47069">
        <ele>2243</ele>
        <time>2021-08-12T08:38:22.405Z</time>
      </trkpt>
      <trkpt lat="46.86983" lon="8.47072">
        <ele>2244</ele>
        <time>2021-08-12T08:38:23.405Z</time>
      </trkpt>
      <trkpt lat="46.86982" lon="8.47073">
        <ele>2244</ele>
        <time>2021-08-12T08:38:24.406Z</time>
      </trkpt>
      <trkpt lat="46.86982" lon="8.47074">
        <ele>2244</ele>
        <time>2021-08-12T08:38:25.406Z</time>
      </trkpt>
      <trkpt lat="46.86982" lon="8.47074">
        <ele>2244</ele>
        <time>2021-08-12T08:38:26.406Z</time>
      </trkpt>
      <trkpt lat="46.86982" lon="8.47075">
        <ele>2244</ele>
        <time>2021-08-12T08:38:27.405Z</time>
      </trkpt>
      <trkpt lat="46.86981" lon="8.47076">
        <ele>2243</ele>
        <time>2021-08-12T08:38:28.406Z</time>
      </trkpt>
      <trkpt lat="46.86981" lon="8.47076">
        <ele>2243</ele>
        <time>2021-08-12T08:38:29.405Z</time>
      </trkpt>
      <trkpt lat="46.86981" lon="8.47077">
        <ele>2243</ele>
        <time>2021-08-12T08:38:30.405Z</time>
      </trkpt>
      <trkpt lat="46.86981" lon="8.47078">
        <ele>2243</ele>
        <time>2021-08-12T08:38:31.405Z</time>
      </trkpt>
      <trkpt lat="46.86981" lon="8.47079">
        <ele>2243</ele>
        <time>2021-08-12T08:38:32.406Z</time>
      </trkpt>
      <trkpt lat="46.8698" lon="8.47079">
        <ele>2243</ele>
        <time>2021-08-12T08:38:33.406Z</time>
      </trkpt>
      <trkpt lat="46.8698" lon="8.4708">
        <ele>2242</ele>
        <time>2021-08-12T08:38:34.406Z</time>
      </trkpt>
      <trkpt lat="46.8698" lon="8.4708">
        <ele>2242</ele>
        <time>2021-08-12T08:38:35.406Z</time>
      </trkpt>
      <trkpt lat="46.86979" lon="8.4708">
        <ele>2241</ele>
        <time>2021-08-12T08:38:36.406Z</time>
      </trkpt>
      <trkpt lat="46.86978" lon="8.47082">
        <ele>2241</ele>
        <time>2021-08-12T08:38:37.405Z</time>
      </trkpt>
      <trkpt lat="46.86978" lon="8.47084">
        <ele>2241</ele>
        <time>2021-08-12T08:38:38.406Z</time>
      </trkpt>
      <trkpt lat="46.86977" lon="8.47085">
        <ele>2241</ele>
        <time>2021-08-12T08:38:39.406Z</time>
      </trkpt>
      <trkpt lat="46.86977" lon="8.47086">
        <ele>2241</ele>
        <time>2021-08-12T08:38:40.406Z</time>
      </trkpt>
      <trkpt lat="46.86977" lon="8.47087">
        <ele>2241</ele>
        <time>2021-08-12T08:38:41.406Z</time>
      </trkpt>
      <trkpt lat="46.86977" lon="8.47088">
        <ele>2240</ele>
        <time>2021-08-12T08:38:42.405Z</time>
      </trkpt>
      <trkpt lat="46.86976" lon="8.47089">
        <ele>2240</ele>
        <time>2021-08-12T08:38:43.406Z</time>
      </trkpt>
      <trkpt lat="46.86976" lon="8.47091">
        <ele>2240</ele>
        <time>2021-08-12T08:38:44.406Z</time>
      </trkpt>
      <trkpt lat="46.86976" lon="8.47092">
        <ele>2239</ele>
        <time>2021-08-12T08:38:45.406Z</time>
      </trkpt>
      <trkpt lat="46.86975" lon="8.47093">
        <ele>2239</ele>
        <time>2021-08-12T08:38:46.406Z</time>
      </trkpt>
      <trkpt lat="46.86975" lon="8.47094">
        <ele>2239</ele>
        <time>2021-08-12T08:38:47.406Z</time>
      </trkpt>
      <trkpt lat="46.86975" lon="8.47095">
        <ele>2239</ele>
        <time>2021-08-12T08:38:48.406Z</time>
      </trkpt>
      <trkpt lat="46.86974" lon="8.47097">
        <ele>2239</ele>
        <time>2021-08-12T08:38:49.406Z</time>
      </trkpt>
      <trkpt lat="46.86974" lon="8.47098">
        <ele>2238</ele>
        <time>2021-08-12T08:38:50.406Z</time>
      </trkpt>
      <trkpt lat="46.86973" lon="8.47098">
        <ele>2237</ele>
        <time>2021-08-12T08:38:51.406Z</time>
      </trkpt>
      <trkpt lat="46.86973" lon="8.47099">
        <ele>2235</ele>
        <time>2021-08-12T08:38:52.405Z</time>
      </trkpt>
      <trkpt lat="46.86973" lon="8.471">
        <ele>2234</ele>
        <time>2021-08-12T08:38:53.405Z</time>
      </trkpt>
      <trkpt lat="46.86972" lon="8.47102">
        <ele>2233</ele>
        <time>2021-08-12T08:38:54.406Z</time>
      </trkpt>
      <trkpt lat="46.86972" lon="8.47103">
        <ele>2233</ele>
        <time>2021-08-12T08:38:55.405Z</time>
      </trkpt>
      <trkpt lat="46.86972" lon="8.47104">
        <ele>2232</ele>
        <time>2021-08-12T08:38:56.406Z</time>
      </trkpt>
      <trkpt lat="46.86971" lon="8.47106">
        <ele>2232</ele>
        <time>2021-08-12T08:38:57.406Z</time>
      </trkpt>
      <trkpt lat="46.86971" lon="8.47107">
        <ele>2232</ele>
        <time>2021-08-12T08:38:58.405Z</time>
      </trkpt>
      <trkpt lat="46.86971" lon="8.47108">
        <ele>2231</ele>
        <time>2021-08-12T08:38:59.406Z</time>
      </trkpt>
      <trkpt lat="46.86971" lon="8.47109">
        <ele>2231</ele>
        <time>2021-08-12T08:39:00.406Z</time>
      </trkpt>
      <trkpt lat="46.86971" lon="8.47111">
        <ele>2230</ele>
        <time>2021-08-12T08:39:01.406Z</time>
      </trkpt>
      <trkpt lat="46.86971" lon="8.47112">
        <ele>2230</ele>
        <time>2021-08-12T08:39:02.405Z</time>
      </trkpt>
      <trkpt lat="46.86971" lon="8.47113">
        <ele>2230</ele>
        <time>2021-08-12T08:39:03.406Z</time>
      </trkpt>
      <trkpt lat="46.86971" lon="8.47115">
        <ele>2230</ele>
        <time>2021-08-12T08:39:04.405Z</time>
      </trkpt>
      <trkpt lat="46.86971" lon="8.47115">
        <ele>2230</ele>
        <time>2021-08-12T08:39:05.406Z</time>
      </trkpt>
      <trkpt lat="46.86971" lon="8.47115">
        <ele>2230</ele>
        <time>2021-08-12T08:39:06.405Z</time>
      </trkpt>
      <trkpt lat="46.8697" lon="8.47115">
        <ele>2230</ele>
        <time>2021-08-12T08:39:07.406Z</time>
      </trkpt>
      <trkpt lat="46.8697" lon="8.47116">
        <ele>2231</ele>
        <time>2021-08-12T08:39:08.406Z</time>
      </trkpt>
      <trkpt lat="46.86969" lon="8.47116">
        <ele>2232</ele>
        <time>2021-08-12T08:39:09.405Z</time>
      </trkpt>
      <trkpt lat="46.86969" lon="8.47117">
        <ele>2232</ele>
        <time>2021-08-12T08:39:10.405Z</time>
      </trkpt>
      <trkpt lat="46.86968" lon="8.47119">
        <ele>2233</ele>
        <time>2021-08-12T08:39:11.405Z</time>
      </trkpt>
      <trkpt lat="46.86968" lon="8.4712">
        <ele>2233</ele>
        <time>2021-08-12T08:39:12.406Z</time>
      </trkpt>
      <trkpt lat="46.86968" lon="8.4712">
        <ele>2233</ele>
        <time>2021-08-12T08:39:13.406Z</time>
      </trkpt>
      <trkpt lat="46.86968" lon="8.4712">
        <ele>2232</ele>
        <time>2021-08-12T08:39:14.405Z</time>
      </trkpt>
      <trkpt lat="46.86968" lon="8.47121">
        <ele>2232</ele>
        <time>2021-08-12T08:39:15.406Z</time>
      </trkpt>
      <trkpt lat="46.86967" lon="8.47122">
        <ele>2232</ele>
        <time>2021-08-12T08:39:16.406Z</time>
      </trkpt>
      <trkpt lat="46.86967" lon="8.47123">
        <ele>2233</ele>
        <time>2021-08-12T08:39:17.407Z</time>
      </trkpt>
      <trkpt lat="46.86966" lon="8.47124">
        <ele>2233</ele>
        <time>2021-08-12T08:39:18.406Z</time>
      </trkpt>
      <trkpt lat="46.86966" lon="8.47124">
        <ele>2233</ele>
        <time>2021-08-12T08:39:19.406Z</time>
      </trkpt>
      <trkpt lat="46.86965" lon="8.47125">
        <ele>2233</ele>
        <time>2021-08-12T08:39:20.407Z</time>
      </trkpt>
      <trkpt lat="46.86965" lon="8.47126">
        <ele>2234</ele>
        <time>2021-08-12T08:39:21.407Z</time>
      </trkpt>
      <trkpt lat="46.86965" lon="8.47127">
        <ele>2234</ele>
        <time>2021-08-12T08:39:22.406Z</time>
      </trkpt>
      <trkpt lat="46.86964" lon="8.47128">
        <ele>2234</ele>
        <time>2021-08-12T08:39:23.406Z</time>
      </trkpt>
      <trkpt lat="46.86963" lon="8.47129">
        <ele>2234</ele>
        <time>2021-08-12T08:39:24.406Z</time>
      </trkpt>
      <trkpt lat="46.86962" lon="8.4713">
        <ele>2234</ele>
        <time>2021-08-12T08:39:25.407Z</time>
      </trkpt>
      <trkpt lat="46.86962" lon="8.47131">
        <ele>2234</ele>
        <time>2021-08-12T08:39:26.406Z</time>
      </trkpt>
      <trkpt lat="46.86961" lon="8.47131">
        <ele>2233</ele>
        <time>2021-08-12T08:39:27.406Z</time>
      </trkpt>
      <trkpt lat="46.86961" lon="8.47133">
        <ele>2232</ele>
        <time>2021-08-12T08:39:28.406Z</time>
      </trkpt>
      <trkpt lat="46.8696" lon="8.47134">
        <ele>2232</ele>
        <time>2021-08-12T08:39:29.407Z</time>
      </trkpt>
      <trkpt lat="46.8696" lon="8.47134">
        <ele>2231</ele>
        <time>2021-08-12T08:39:30.407Z</time>
      </trkpt>
      <trkpt lat="46.8696" lon="8.47135">
        <ele>2231</ele>
        <time>2021-08-12T08:39:31.406Z</time>
      </trkpt>
      <trkpt lat="46.86959" lon="8.47135">
        <ele>2231</ele>
        <time>2021-08-12T08:39:32.406Z</time>
      </trkpt>
      <trkpt lat="46.86958" lon="8.47136">
        <ele>2230</ele>
        <time>2021-08-12T08:39:33.406Z</time>
      </trkpt>
      <trkpt lat="46.86958" lon="8.47136">
        <ele>2230</ele>
        <time>2021-08-12T08:39:34.407Z</time>
      </trkpt>
      <trkpt lat="46.86958" lon="8.47137">
        <ele>2233</ele>
        <time>2021-08-12T08:39:35.408Z</time>
      </trkpt>
      <trkpt lat="46.86958" lon="8.47138">
        <ele>2233</ele>
        <time>2021-08-12T08:39:36.407Z</time>
      </trkpt>
      <trkpt lat="46.86957" lon="8.47138">
        <ele>2233</ele>
        <time>2021-08-12T08:39:37.407Z</time>
      </trkpt>
      <trkpt lat="46.86957" lon="8.47139">
        <ele>2233</ele>
        <time>2021-08-12T08:39:38.407Z</time>
      </trkpt>
      <trkpt lat="46.86957" lon="8.4714">
        <ele>2233</ele>
        <time>2021-08-12T08:39:39.407Z</time>
      </trkpt>
      <trkpt lat="46.86956" lon="8.4714">
        <ele>2233</ele>
        <time>2021-08-12T08:39:40.407Z</time>
      </trkpt>
      <trkpt lat="46.86956" lon="8.47141">
        <ele>2232</ele>
        <time>2021-08-12T08:39:41.407Z</time>
      </trkpt>
      <trkpt lat="46.86956" lon="8.47142">
        <ele>2231</ele>
        <time>2021-08-12T08:39:42.407Z</time>
      </trkpt>
      <trkpt lat="46.86956" lon="8.47142">
        <ele>2230</ele>
        <time>2021-08-12T08:39:43.407Z</time>
      </trkpt>
      <trkpt lat="46.86958" lon="8.47142">
        <ele>2226</ele>
        <time>2021-08-12T08:39:44.409Z</time>
      </trkpt>
      <trkpt lat="46.86958" lon="8.47141">
        <ele>2226</ele>
        <time>2021-08-12T08:39:45.409Z</time>
      </trkpt>
      <trkpt lat="46.86957" lon="8.47141">
        <ele>2227</ele>
        <time>2021-08-12T08:39:46.408Z</time>
      </trkpt>
      <trkpt lat="46.86957" lon="8.47141">
        <ele>2227</ele>
        <time>2021-08-12T08:39:47.408Z</time>
      </trkpt>
      <trkpt lat="46.86956" lon="8.47142">
        <ele>2227</ele>
        <time>2021-08-12T08:39:48.409Z</time>
      </trkpt>
      <trkpt lat="46.86955" lon="8.47142">
        <ele>2228</ele>
        <time>2021-08-12T08:39:49.408Z</time>
      </trkpt>
      <trkpt lat="46.86954" lon="8.47142">
        <ele>2228</ele>
        <time>2021-08-12T08:39:50.409Z</time>
      </trkpt>
      <trkpt lat="46.86952" lon="8.47142">
        <ele>2228</ele>
        <time>2021-08-12T08:39:51.409Z</time>
      </trkpt>
      <trkpt lat="46.86952" lon="8.47142">
        <ele>2228</ele>
        <time>2021-08-12T08:39:52.408Z</time>
      </trkpt>
      <trkpt lat="46.86951" lon="8.47143">
        <ele>2228</ele>
        <time>2021-08-12T08:39:53.409Z</time>
      </trkpt>
      <trkpt lat="46.8695" lon="8.47143">
        <ele>2229</ele>
        <time>2021-08-12T08:39:54.409Z</time>
      </trkpt>
      <trkpt lat="46.8695" lon="8.47144">
        <ele>2229</ele>
        <time>2021-08-12T08:39:55.409Z</time>
      </trkpt>
      <trkpt lat="46.86949" lon="8.47144">
        <ele>2228</ele>
        <time>2021-08-12T08:39:56.408Z</time>
      </trkpt>
      <trkpt lat="46.86949" lon="8.47144">
        <ele>2228</ele>
        <time>2021-08-12T08:39:57.409Z</time>
      </trkpt>
      <trkpt lat="46.86949" lon="8.47144">
        <ele>2228</ele>
        <time>2021-08-12T08:39:58.408Z</time>
      </trkpt>
      <trkpt lat="46.86949" lon="8.47145">
        <ele>2227</ele>
        <time>2021-08-12T08:39:59.409Z</time>
      </trkpt>
      <trkpt lat="46.86949" lon="8.47145">
        <ele>2227</ele>
        <time>2021-08-12T08:40:00.409Z</time>
      </trkpt>
      <trkpt lat="46.86948" lon="8.47145">
        <ele>2227</ele>
        <time>2021-08-12T08:40:01.408Z</time>
      </trkpt>
      <trkpt lat="46.86948" lon="8.47145">
        <ele>2227</ele>
        <time>2021-08-12T08:40:02.408Z</time>
      </trkpt>
      <trkpt lat="46.86948" lon="8.47145">
        <ele>2227</ele>
        <time>2021-08-12T08:40:03.408Z</time>
      </trkpt>
      <trkpt lat="46.86948" lon="8.47146">
        <ele>2226</ele>
        <time>2021-08-12T08:40:04.408Z</time>
      </trkpt>
      <trkpt lat="46.86948" lon="8.47147">
        <ele>2226</ele>
        <time>2021-08-12T08:40:05.409Z</time>
      </trkpt>
      <trkpt lat="46.86948" lon="8.47147">
        <ele>2226</ele>
        <time>2021-08-12T08:40:06.409Z</time>
      </trkpt>
      <trkpt lat="46.86947" lon="8.47149">
        <ele>2224</ele>
        <time>2021-08-12T08:40:07.410Z</time>
      </trkpt>
      <trkpt lat="46.86947" lon="8.47149">
        <ele>2224</ele>
        <time>2021-08-12T08:40:08.410Z</time>
      </trkpt>
      <trkpt lat="46.86947" lon="8.47151">
        <ele>2224</ele>
        <time>2021-08-12T08:40:09.409Z</time>
      </trkpt>
      <trkpt lat="46.86947" lon="8.47151">
        <ele>2224</ele>
        <time>2021-08-12T08:40:10.410Z</time>
      </trkpt>
      <trkpt lat="46.86947" lon="8.47152">
        <ele>2224</ele>
        <time>2021-08-12T08:40:11.410Z</time>
      </trkpt>
      <trkpt lat="46.86946" lon="8.47153">
        <ele>2224</ele>
        <time>2021-08-12T08:40:12.410Z</time>
      </trkpt>
      <trkpt lat="46.86946" lon="8.47153">
        <ele>2224</ele>
        <time>2021-08-12T08:40:13.410Z</time>
      </trkpt>
      <trkpt lat="46.86946" lon="8.47154">
        <ele>2224</ele>
        <time>2021-08-12T08:40:14.410Z</time>
      </trkpt>
      <trkpt lat="46.86946" lon="8.47155">
        <ele>2224</ele>
        <time>2021-08-12T08:40:15.410Z</time>
      </trkpt>
      <trkpt lat="46.86946" lon="8.47155">
        <ele>2225</ele>
        <time>2021-08-12T08:40:16.410Z</time>
      </trkpt>
      <trkpt lat="46.86946" lon="8.47156">
        <ele>2225</ele>
        <time>2021-08-12T08:40:17.409Z</time>
      </trkpt>
      <trkpt lat="46.86945" lon="8.47156">
        <ele>2225</ele>
        <time>2021-08-12T08:40:18.410Z</time>
      </trkpt>
      <trkpt lat="46.86945" lon="8.47157">
        <ele>2226</ele>
        <time>2021-08-12T08:40:19.410Z</time>
      </trkpt>
      <trkpt lat="46.86945" lon="8.47157">
        <ele>2226</ele>
        <time>2021-08-12T08:40:20.410Z</time>
      </trkpt>
      <trkpt lat="46.86945" lon="8.47158">
        <ele>2227</ele>
        <time>2021-08-12T08:40:21.409Z</time>
      </trkpt>
      <trkpt lat="46.86945" lon="8.47159">
        <ele>2228</ele>
        <time>2021-08-12T08:40:22.409Z</time>
      </trkpt>
      <trkpt lat="46.86944" lon="8.4716">
        <ele>2229</ele>
        <time>2021-08-12T08:40:23.410Z</time>
      </trkpt>
      <trkpt lat="46.86944" lon="8.4716">
        <ele>2229</ele>
        <time>2021-08-12T08:40:24.410Z</time>
      </trkpt>
      <trkpt lat="46.86944" lon="8.47161">
        <ele>2229</ele>
        <time>2021-08-12T08:40:25.410Z</time>
      </trkpt>
      <trkpt lat="46.86944" lon="8.47161">
        <ele>2229</ele>
        <time>2021-08-12T08:40:26.410Z</time>
      </trkpt>
      <trkpt lat="46.86945" lon="8.47162">
        <ele>2229</ele>
        <time>2021-08-12T08:40:27.410Z</time>
      </trkpt>
      <trkpt lat="46.86944" lon="8.47163">
        <ele>2229</ele>
        <time>2021-08-12T08:40:28.410Z</time>
      </trkpt>
      <trkpt lat="46.86944" lon="8.47163">
        <ele>2229</ele>
        <time>2021-08-12T08:40:29.409Z</time>
      </trkpt>
      <trkpt lat="46.86944" lon="8.47163">
        <ele>2228</ele>
        <time>2021-08-12T08:40:30.410Z</time>
      </trkpt>
      <trkpt lat="46.86944" lon="8.47164">
        <ele>2228</ele>
        <time>2021-08-12T08:40:31.409Z</time>
      </trkpt>
      <trkpt lat="46.86945" lon="8.47164">
        <ele>2224</ele>
        <time>2021-08-12T08:40:32.409Z</time>
      </trkpt>
      <trkpt lat="46.86945" lon="8.47163">
        <ele>2224</ele>
        <time>2021-08-12T08:40:33.409Z</time>
      </trkpt>
      <trkpt lat="46.86943" lon="8.47165">
        <ele>2222</ele>
        <time>2021-08-12T08:40:34.410Z</time>
      </trkpt>
      <trkpt lat="46.86943" lon="8.47166">
        <ele>2221</ele>
        <time>2021-08-12T08:40:35.410Z</time>
      </trkpt>
      <trkpt lat="46.86942" lon="8.47166">
        <ele>2221</ele>
        <time>2021-08-12T08:40:36.409Z</time>
      </trkpt>
      <trkpt lat="46.86942" lon="8.47167">
        <ele>2221</ele>
        <time>2021-08-12T08:40:37.410Z</time>
      </trkpt>
      <trkpt lat="46.86942" lon="8.47167">
        <ele>2220</ele>
        <time>2021-08-12T08:40:38.409Z</time>
      </trkpt>
      <trkpt lat="46.86941" lon="8.47167">
        <ele>2220</ele>
        <time>2021-08-12T08:40:39.410Z</time>
      </trkpt>
      <trkpt lat="46.86941" lon="8.47167">
        <ele>2220</ele>
        <time>2021-08-12T08:40:40.409Z</time>
      </trkpt>
      <trkpt lat="46.86939" lon="8.47171">
        <ele>2227</ele>
        <time>2021-08-12T08:40:41.411Z</time>
      </trkpt>
      <trkpt lat="46.86939" lon="8.47171">
        <ele>2228</ele>
        <time>2021-08-12T08:40:42.411Z</time>
      </trkpt>
      <trkpt lat="46.86937" lon="8.47173">
        <ele>2232</ele>
        <time>2021-08-12T08:40:43.412Z</time>
      </trkpt>
      <trkpt lat="46.86936" lon="8.47172">
        <ele>2232</ele>
        <time>2021-08-12T08:40:44.412Z</time>
      </trkpt>
      <trkpt lat="46.86936" lon="8.47172">
        <ele>2232</ele>
        <time>2021-08-12T08:40:45.411Z</time>
      </trkpt>
      <trkpt lat="46.86935" lon="8.47172">
        <ele>2231</ele>
        <time>2021-08-12T08:40:46.411Z</time>
      </trkpt>
      <trkpt lat="46.86935" lon="8.47173">
        <ele>2230</ele>
        <time>2021-08-12T08:40:47.411Z</time>
      </trkpt>
      <trkpt lat="46.86935" lon="8.47174">
        <ele>2230</ele>
        <time>2021-08-12T08:40:48.411Z</time>
      </trkpt>
      <trkpt lat="46.86935" lon="8.47174">
        <ele>2229</ele>
        <time>2021-08-12T08:40:49.412Z</time>
      </trkpt>
      <trkpt lat="46.86935" lon="8.47175">
        <ele>2229</ele>
        <time>2021-08-12T08:40:50.412Z</time>
      </trkpt>
      <trkpt lat="46.86934" lon="8.47176">
        <ele>2229</ele>
        <time>2021-08-12T08:40:51.411Z</time>
      </trkpt>
      <trkpt lat="46.86934" lon="8.47176">
        <ele>2229</ele>
        <time>2021-08-12T08:40:52.412Z</time>
      </trkpt>
      <trkpt lat="46.86934" lon="8.47177">
        <ele>2228</ele>
        <time>2021-08-12T08:40:53.412Z</time>
      </trkpt>
      <trkpt lat="46.86934" lon="8.47178">
        <ele>2228</ele>
        <time>2021-08-12T08:40:54.411Z</time>
      </trkpt>
      <trkpt lat="46.86933" lon="8.47179">
        <ele>2229</ele>
        <time>2021-08-12T08:40:55.412Z</time>
      </trkpt>
      <trkpt lat="46.86933" lon="8.47178">
        <ele>2230</ele>
        <time>2021-08-12T08:40:56.411Z</time>
      </trkpt>
      <trkpt lat="46.86933" lon="8.47179">
        <ele>2232</ele>
        <time>2021-08-12T08:40:57.413Z</time>
      </trkpt>
      <trkpt lat="46.86933" lon="8.4718">
        <ele>2232</ele>
        <time>2021-08-12T08:40:58.413Z</time>
      </trkpt>
      <trkpt lat="46.86933" lon="8.47181">
        <ele>2233</ele>
        <time>2021-08-12T08:40:59.413Z</time>
      </trkpt>
      <trkpt lat="46.86933" lon="8.47182">
        <ele>2233</ele>
        <time>2021-08-12T08:41:00.414Z</time>
      </trkpt>
      <trkpt lat="46.86933" lon="8.47182">
        <ele>2233</ele>
        <time>2021-08-12T08:41:01.414Z</time>
      </trkpt>
      <trkpt lat="46.86932" lon="8.47184">
        <ele>2232</ele>
        <time>2021-08-12T08:41:02.413Z</time>
      </trkpt>
      <trkpt lat="46.86932" lon="8.47185">
        <ele>2232</ele>
        <time>2021-08-12T08:41:03.413Z</time>
      </trkpt>
      <trkpt lat="46.86932" lon="8.47186">
        <ele>2231</ele>
        <time>2021-08-12T08:41:04.413Z</time>
      </trkpt>
      <trkpt lat="46.86931" lon="8.47188">
        <ele>2231</ele>
        <time>2021-08-12T08:41:05.413Z</time>
      </trkpt>
      <trkpt lat="46.86931" lon="8.47189">
        <ele>2231</ele>
        <time>2021-08-12T08:41:06.414Z</time>
      </trkpt>
      <trkpt lat="46.86931" lon="8.4719">
        <ele>2231</ele>
        <time>2021-08-12T08:41:07.413Z</time>
      </trkpt>
      <trkpt lat="46.8693" lon="8.47191">
        <ele>2230</ele>
        <time>2021-08-12T08:41:08.413Z</time>
      </trkpt>
      <trkpt lat="46.8693" lon="8.47192">
        <ele>2230</ele>
        <time>2021-08-12T08:41:09.413Z</time>
      </trkpt>
      <trkpt lat="46.8693" lon="8.47193">
        <ele>2230</ele>
        <time>2021-08-12T08:41:10.414Z</time>
      </trkpt>
      <trkpt lat="46.86929" lon="8.47194">
        <ele>2231</ele>
        <time>2021-08-12T08:41:11.413Z</time>
      </trkpt>
      <trkpt lat="46.86929" lon="8.47194">
        <ele>2231</ele>
        <time>2021-08-12T08:41:12.413Z</time>
      </trkpt>
      <trkpt lat="46.86928" lon="8.47195">
        <ele>2231</ele>
        <time>2021-08-12T08:41:13.414Z</time>
      </trkpt>
      <trkpt lat="46.86928" lon="8.47195">
        <ele>2231</ele>
        <time>2021-08-12T08:41:14.414Z</time>
      </trkpt>
      <trkpt lat="46.86928" lon="8.47195">
        <ele>2231</ele>
        <time>2021-08-12T08:41:15.414Z</time>
      </trkpt>
      <trkpt lat="46.86928" lon="8.47196">
        <ele>2231</ele>
        <time>2021-08-12T08:41:16.414Z</time>
      </trkpt>
      <trkpt lat="46.86927" lon="8.47197">
        <ele>2231</ele>
        <time>2021-08-12T08:41:17.414Z</time>
      </trkpt>
      <trkpt lat="46.86927" lon="8.47197">
        <ele>2232</ele>
        <time>2021-08-12T08:41:18.413Z</time>
      </trkpt>
      <trkpt lat="46.86927" lon="8.47198">
        <ele>2232</ele>
        <time>2021-08-12T08:41:19.414Z</time>
      </trkpt>
      <trkpt lat="46.86927" lon="8.47198">
        <ele>2232</ele>
        <time>2021-08-12T08:41:20.414Z</time>
      </trkpt>
      <trkpt lat="46.86926" lon="8.47198">
        <ele>2233</ele>
        <time>2021-08-12T08:41:21.413Z</time>
      </trkpt>
      <trkpt lat="46.86926" lon="8.47199">
        <ele>2233</ele>
        <time>2021-08-12T08:41:22.413Z</time>
      </trkpt>
      <trkpt lat="46.86926" lon="8.47199">
        <ele>2233</ele>
        <time>2021-08-12T08:41:23.414Z</time>
      </trkpt>
      <trkpt lat="46.86925" lon="8.472">
        <ele>2233</ele>
        <time>2021-08-12T08:41:24.414Z</time>
      </trkpt>
      <trkpt lat="46.86925" lon="8.47201">
        <ele>2232</ele>
        <time>2021-08-12T08:41:25.414Z</time>
      </trkpt>
      <trkpt lat="46.86925" lon="8.47202">
        <ele>2232</ele>
        <time>2021-08-12T08:41:26.413Z</time>
      </trkpt>
      <trkpt lat="46.86924" lon="8.47203">
        <ele>2231</ele>
        <time>2021-08-12T08:41:27.414Z</time>
      </trkpt>
      <trkpt lat="46.86924" lon="8.47204">
        <ele>2231</ele>
        <time>2021-08-12T08:41:28.414Z</time>
      </trkpt>
      <trkpt lat="46.86924" lon="8.47205">
        <ele>2231</ele>
        <time>2021-08-12T08:41:29.414Z</time>
      </trkpt>
      <trkpt lat="46.86924" lon="8.47206">
        <ele>2230</ele>
        <time>2021-08-12T08:41:30.414Z</time>
      </trkpt>
      <trkpt lat="46.86923" lon="8.47207">
        <ele>2230</ele>
        <time>2021-08-12T08:41:31.414Z</time>
      </trkpt>
      <trkpt lat="46.86923" lon="8.47208">
        <ele>2230</ele>
        <time>2021-08-12T08:41:32.413Z</time>
      </trkpt>
      <trkpt lat="46.86923" lon="8.47209">
        <ele>2230</ele>
        <time>2021-08-12T08:41:33.414Z</time>
      </trkpt>
      <trkpt lat="46.86922" lon="8.4721">
        <ele>2230</ele>
        <time>2021-08-12T08:41:34.413Z</time>
      </trkpt>
      <trkpt lat="46.86922" lon="8.47211">
        <ele>2230</ele>
        <time>2021-08-12T08:41:35.413Z</time>
      </trkpt>
      <trkpt lat="46.86922" lon="8.47211">
        <ele>2229</ele>
        <time>2021-08-12T08:41:36.414Z</time>
      </trkpt>
      <trkpt lat="46.86922" lon="8.47212">
        <ele>2229</ele>
        <time>2021-08-12T08:41:37.414Z</time>
      </trkpt>
      <trkpt lat="46.86921" lon="8.47213">
        <ele>2228</ele>
        <time>2021-08-12T08:41:38.414Z</time>
      </trkpt>
      <trkpt lat="46.86921" lon="8.47214">
        <ele>2228</ele>
        <time>2021-08-12T08:41:39.413Z</time>
      </trkpt>
      <trkpt lat="46.86921" lon="8.47216">
        <ele>2227</ele>
        <time>2021-08-12T08:41:40.413Z</time>
      </trkpt>
      <trkpt lat="46.8692" lon="8.47217">
        <ele>2227</ele>
        <time>2021-08-12T08:41:41.414Z</time>
      </trkpt>
      <trkpt lat="46.8692" lon="8.47219">
        <ele>2227</ele>
        <time>2021-08-12T08:41:42.414Z</time>
      </trkpt>
      <trkpt lat="46.8692" lon="8.4722">
        <ele>2226</ele>
        <time>2021-08-12T08:41:43.413Z</time>
      </trkpt>
      <trkpt lat="46.8692" lon="8.47222">
        <ele>2226</ele>
        <time>2021-08-12T08:41:44.414Z</time>
      </trkpt>
      <trkpt lat="46.86919" lon="8.47223">
        <ele>2226</ele>
        <time>2021-08-12T08:41:45.414Z</time>
      </trkpt>
      <trkpt lat="46.86919" lon="8.47224">
        <ele>2226</ele>
        <time>2021-08-12T08:41:46.413Z</time>
      </trkpt>
      <trkpt lat="46.86918" lon="8.47224">
        <ele>2225</ele>
        <time>2021-08-12T08:41:47.413Z</time>
      </trkpt>
      <trkpt lat="46.86918" lon="8.47225">
        <ele>2225</ele>
        <time>2021-08-12T08:41:48.414Z</time>
      </trkpt>
      <trkpt lat="46.86918" lon="8.47226">
        <ele>2225</ele>
        <time>2021-08-12T08:41:49.413Z</time>
      </trkpt>
      <trkpt lat="46.86917" lon="8.47228">
        <ele>2225</ele>
        <time>2021-08-12T08:41:50.414Z</time>
      </trkpt>
      <trkpt lat="46.86916" lon="8.4723">
        <ele>2226</ele>
        <time>2021-08-12T08:41:51.413Z</time>
      </trkpt>
      <trkpt lat="46.86916" lon="8.4723">
        <ele>2226</ele>
        <time>2021-08-12T08:41:52.414Z</time>
      </trkpt>
      <trkpt lat="46.86916" lon="8.47231">
        <ele>2226</ele>
        <time>2021-08-12T08:41:53.414Z</time>
      </trkpt>
      <trkpt lat="46.86915" lon="8.47232">
        <ele>2226</ele>
        <time>2021-08-12T08:41:54.413Z</time>
      </trkpt>
      <trkpt lat="46.86915" lon="8.47233">
        <ele>2226</ele>
        <time>2021-08-12T08:41:55.413Z</time>
      </trkpt>
      <trkpt lat="46.86914" lon="8.47234">
        <ele>2227</ele>
        <time>2021-08-12T08:41:56.413Z</time>
      </trkpt>
      <trkpt lat="46.86914" lon="8.47235">
        <ele>2227</ele>
        <time>2021-08-12T08:41:57.414Z</time>
      </trkpt>
      <trkpt lat="46.86914" lon="8.47237">
        <ele>2227</ele>
        <time>2021-08-12T08:41:58.413Z</time>
      </trkpt>
      <trkpt lat="46.86913" lon="8.47237">
        <ele>2228</ele>
        <time>2021-08-12T08:41:59.414Z</time>
      </trkpt>
      <trkpt lat="46.86913" lon="8.47238">
        <ele>2228</ele>
        <time>2021-08-12T08:42:00.414Z</time>
      </trkpt>
      <trkpt lat="46.86912" lon="8.47239">
        <ele>2229</ele>
        <time>2021-08-12T08:42:01.414Z</time>
      </trkpt>
      <trkpt lat="46.86911" lon="8.47241">
        <ele>2229</ele>
        <time>2021-08-12T08:42:02.414Z</time>
      </trkpt>
      <trkpt lat="46.86911" lon="8.47242">
        <ele>2229</ele>
        <time>2021-08-12T08:42:03.414Z</time>
      </trkpt>
      <trkpt lat="46.86911" lon="8.47242">
        <ele>2230</ele>
        <time>2021-08-12T08:42:04.414Z</time>
      </trkpt>
      <trkpt lat="46.8691" lon="8.47243">
        <ele>2230</ele>
        <time>2021-08-12T08:42:05.413Z</time>
      </trkpt>
      <trkpt lat="46.8691" lon="8.47244">
        <ele>2230</ele>
        <time>2021-08-12T08:42:06.413Z</time>
      </trkpt>
      <trkpt lat="46.8691" lon="8.47244">
        <ele>2230</ele>
        <time>2021-08-12T08:42:07.414Z</time>
      </trkpt>
      <trkpt lat="46.8691" lon="8.47244">
        <ele>2231</ele>
        <time>2021-08-12T08:42:08.414Z</time>
      </trkpt>
      <trkpt lat="46.8691" lon="8.47245">
        <ele>2231</ele>
        <time>2021-08-12T08:42:09.414Z</time>
      </trkpt>
      <trkpt lat="46.8691" lon="8.47246">
        <ele>2232</ele>
        <time>2021-08-12T08:42:10.414Z</time>
      </trkpt>
      <trkpt lat="46.86909" lon="8.47247">
        <ele>2233</ele>
        <time>2021-08-12T08:42:11.413Z</time>
      </trkpt>
      <trkpt lat="46.86909" lon="8.47248">
        <ele>2233</ele>
        <time>2021-08-12T08:42:12.414Z</time>
      </trkpt>
      <trkpt lat="46.86909" lon="8.47249">
        <ele>2233</ele>
        <time>2021-08-12T08:42:13.414Z</time>
      </trkpt>
      <trkpt lat="46.86908" lon="8.4725">
        <ele>2233</ele>
        <time>2021-08-12T08:42:14.414Z</time>
      </trkpt>
      <trkpt lat="46.86908" lon="8.47251">
        <ele>2232</ele>
        <time>2021-08-12T08:42:15.414Z</time>
      </trkpt>
      <trkpt lat="46.86908" lon="8.47251">
        <ele>2231</ele>
        <time>2021-08-12T08:42:16.414Z</time>
      </trkpt>
      <trkpt lat="46.86908" lon="8.47252">
        <ele>2231</ele>
        <time>2021-08-12T08:42:17.414Z</time>
      </trkpt>
      <trkpt lat="46.86908" lon="8.47253">
        <ele>2230</ele>
        <time>2021-08-12T08:42:18.414Z</time>
      </trkpt>
      <trkpt lat="46.86908" lon="8.47253">
        <ele>2229</ele>
        <time>2021-08-12T08:42:19.414Z</time>
      </trkpt>
      <trkpt lat="46.86908" lon="8.47254">
        <ele>2229</ele>
        <time>2021-08-12T08:42:20.413Z</time>
      </trkpt>
      <trkpt lat="46.86908" lon="8.47255">
        <ele>2228</ele>
        <time>2021-08-12T08:42:21.413Z</time>
      </trkpt>
      <trkpt lat="46.86906" lon="8.47255">
        <ele>2228</ele>
        <time>2021-08-12T08:42:22.414Z</time>
      </trkpt>
      <trkpt lat="46.86906" lon="8.47256">
        <ele>2228</ele>
        <time>2021-08-12T08:42:23.413Z</time>
      </trkpt>
      <trkpt lat="46.86906" lon="8.47255">
        <ele>2228</ele>
        <time>2021-08-12T08:42:24.413Z</time>
      </trkpt>
      <trkpt lat="46.86905" lon="8.47256">
        <ele>2228</ele>
        <time>2021-08-12T08:42:25.414Z</time>
      </trkpt>
      <trkpt lat="46.86904" lon="8.47257">
        <ele>2228</ele>
        <time>2021-08-12T08:42:26.414Z</time>
      </trkpt>
      <trkpt lat="46.86903" lon="8.47257">
        <ele>2229</ele>
        <time>2021-08-12T08:42:27.413Z</time>
      </trkpt>
      <trkpt lat="46.86903" lon="8.47258">
        <ele>2229</ele>
        <time>2021-08-12T08:42:28.413Z</time>
      </trkpt>
      <trkpt lat="46.86902" lon="8.47258">
        <ele>2229</ele>
        <time>2021-08-12T08:42:29.414Z</time>
      </trkpt>
      <trkpt lat="46.86902" lon="8.47259">
        <ele>2230</ele>
        <time>2021-08-12T08:42:30.414Z</time>
      </trkpt>
      <trkpt lat="46.86901" lon="8.47259">
        <ele>2230</ele>
        <time>2021-08-12T08:42:31.413Z</time>
      </trkpt>
      <trkpt lat="46.86901" lon="8.4726">
        <ele>2230</ele>
        <time>2021-08-12T08:42:32.414Z</time>
      </trkpt>
      <trkpt lat="46.869" lon="8.4726">
        <ele>2231</ele>
        <time>2021-08-12T08:42:33.413Z</time>
      </trkpt>
      <trkpt lat="46.86899" lon="8.47261">
        <ele>2230</ele>
        <time>2021-08-12T08:42:34.414Z</time>
      </trkpt>
      <trkpt lat="46.86899" lon="8.47262">
        <ele>2230</ele>
        <time>2021-08-12T08:42:35.413Z</time>
      </trkpt>
      <trkpt lat="46.86899" lon="8.47263">
        <ele>2230</ele>
        <time>2021-08-12T08:42:36.414Z</time>
      </trkpt>
      <trkpt lat="46.86898" lon="8.47264">
        <ele>2230</ele>
        <time>2021-08-12T08:42:37.414Z</time>
      </trkpt>
      <trkpt lat="46.86898" lon="8.47265">
        <ele>2230</ele>
        <time>2021-08-12T08:42:38.413Z</time>
      </trkpt>
      <trkpt lat="46.86898" lon="8.47266">
        <ele>2230</ele>
        <time>2021-08-12T08:42:39.414Z</time>
      </trkpt>
      <trkpt lat="46.86898" lon="8.47267">
        <ele>2230</ele>
        <time>2021-08-12T08:42:40.414Z</time>
      </trkpt>
      <trkpt lat="46.86898" lon="8.47268">
        <ele>2230</ele>
        <time>2021-08-12T08:42:41.413Z</time>
      </trkpt>
      <trkpt lat="46.86898" lon="8.47269">
        <ele>2230</ele>
        <time>2021-08-12T08:42:42.413Z</time>
      </trkpt>
      <trkpt lat="46.86898" lon="8.47269">
        <ele>2229</ele>
        <time>2021-08-12T08:42:43.414Z</time>
      </trkpt>
      <trkpt lat="46.86897" lon="8.4727">
        <ele>2229</ele>
        <time>2021-08-12T08:42:44.414Z</time>
      </trkpt>
      <trkpt lat="46.86897" lon="8.47271">
        <ele>2229</ele>
        <time>2021-08-12T08:42:45.414Z</time>
      </trkpt>
      <trkpt lat="46.86898" lon="8.47272">
        <ele>2229</ele>
        <time>2021-08-12T08:42:46.414Z</time>
      </trkpt>
      <trkpt lat="46.86898" lon="8.47272">
        <ele>2229</ele>
        <time>2021-08-12T08:42:47.413Z</time>
      </trkpt>
      <trkpt lat="46.86897" lon="8.47273">
        <ele>2229</ele>
        <time>2021-08-12T08:42:48.413Z</time>
      </trkpt>
      <trkpt lat="46.86897" lon="8.47274">
        <ele>2229</ele>
        <time>2021-08-12T08:42:49.414Z</time>
      </trkpt>
      <trkpt lat="46.86896" lon="8.47275">
        <ele>2227</ele>
        <time>2021-08-12T08:42:50.414Z</time>
      </trkpt>
      <trkpt lat="46.86897" lon="8.47275">
        <ele>2227</ele>
        <time>2021-08-12T08:42:51.415Z</time>
      </trkpt>
      <trkpt lat="46.86897" lon="8.47276">
        <ele>2227</ele>
        <time>2021-08-12T08:42:52.415Z</time>
      </trkpt>
      <trkpt lat="46.86897" lon="8.47277">
        <ele>2228</ele>
        <time>2021-08-12T08:42:53.414Z</time>
      </trkpt>
      <trkpt lat="46.86896" lon="8.47278">
        <ele>2228</ele>
        <time>2021-08-12T08:42:54.415Z</time>
      </trkpt>
      <trkpt lat="46.86896" lon="8.47279">
        <ele>2228</ele>
        <time>2021-08-12T08:42:55.415Z</time>
      </trkpt>
      <trkpt lat="46.86896" lon="8.47281">
        <ele>2229</ele>
        <time>2021-08-12T08:42:56.415Z</time>
      </trkpt>
      <trkpt lat="46.86896" lon="8.47281">
        <ele>2229</ele>
        <time>2021-08-12T08:42:57.415Z</time>
      </trkpt>
      <trkpt lat="46.86896" lon="8.47282">
        <ele>2229</ele>
        <time>2021-08-12T08:42:58.414Z</time>
      </trkpt>
      <trkpt lat="46.86896" lon="8.47283">
        <ele>2229</ele>
        <time>2021-08-12T08:42:59.415Z</time>
      </trkpt>
      <trkpt lat="46.86896" lon="8.47284">
        <ele>2230</ele>
        <time>2021-08-12T08:43:00.415Z</time>
      </trkpt>
      <trkpt lat="46.86896" lon="8.47285">
        <ele>2230</ele>
        <time>2021-08-12T08:43:01.414Z</time>
      </trkpt>
      <trkpt lat="46.86896" lon="8.47286">
        <ele>2230</ele>
        <time>2021-08-12T08:43:02.415Z</time>
      </trkpt>
      <trkpt lat="46.86895" lon="8.47287">
        <ele>2230</ele>
        <time>2021-08-12T08:43:03.414Z</time>
      </trkpt>
      <trkpt lat="46.86895" lon="8.47288">
        <ele>2230</ele>
        <time>2021-08-12T08:43:04.415Z</time>
      </trkpt>
      <trkpt lat="46.86895" lon="8.47289">
        <ele>2230</ele>
        <time>2021-08-12T08:43:05.415Z</time>
      </trkpt>
      <trkpt lat="46.86895" lon="8.4729">
        <ele>2230</ele>
        <time>2021-08-12T08:43:06.415Z</time>
      </trkpt>
      <trkpt lat="46.86894" lon="8.47291">
        <ele>2230</ele>
        <time>2021-08-12T08:43:07.414Z</time>
      </trkpt>
      <trkpt lat="46.86894" lon="8.47291">
        <ele>2229</ele>
        <time>2021-08-12T08:43:08.415Z</time>
      </trkpt>
      <trkpt lat="46.86894" lon="8.47292">
        <ele>2229</ele>
        <time>2021-08-12T08:43:09.415Z</time>
      </trkpt>
      <trkpt lat="46.86894" lon="8.47293">
        <ele>2229</ele>
        <time>2021-08-12T08:43:10.415Z</time>
      </trkpt>
      <trkpt lat="46.86893" lon="8.47294">
        <ele>2229</ele>
        <time>2021-08-12T08:43:11.415Z</time>
      </trkpt>
      <trkpt lat="46.86893" lon="8.47294">
        <ele>2230</ele>
        <time>2021-08-12T08:43:12.414Z</time>
      </trkpt>
      <trkpt lat="46.86893" lon="8.47294">
        <ele>2231</ele>
        <time>2021-08-12T08:43:13.415Z</time>
      </trkpt>
      <trkpt lat="46.86893" lon="8.47294">
        <ele>2231</ele>
        <time>2021-08-12T08:43:14.414Z</time>
      </trkpt>
      <trkpt lat="46.86892" lon="8.47294">
        <ele>2232</ele>
        <time>2021-08-12T08:43:15.415Z</time>
      </trkpt>
      <trkpt lat="46.86892" lon="8.47295">
        <ele>2232</ele>
        <time>2021-08-12T08:43:16.415Z</time>
      </trkpt>
      <trkpt lat="46.86891" lon="8.47295">
        <ele>2232</ele>
        <time>2021-08-12T08:43:17.415Z</time>
      </trkpt>
      <trkpt lat="46.86891" lon="8.47295">
        <ele>2232</ele>
        <time>2021-08-12T08:43:18.414Z</time>
      </trkpt>
      <trkpt lat="46.86891" lon="8.47296">
        <ele>2232</ele>
        <time>2021-08-12T08:43:19.415Z</time>
      </trkpt>
      <trkpt lat="46.8689" lon="8.47296">
        <ele>2232</ele>
        <time>2021-08-12T08:43:20.414Z</time>
      </trkpt>
      <trkpt lat="46.8689" lon="8.47297">
        <ele>2233</ele>
        <time>2021-08-12T08:43:21.415Z</time>
      </trkpt>
      <trkpt lat="46.8689" lon="8.47297">
        <ele>2233</ele>
        <time>2021-08-12T08:43:22.415Z</time>
      </trkpt>
      <trkpt lat="46.8689" lon="8.47298">
        <ele>2233</ele>
        <time>2021-08-12T08:43:23.415Z</time>
      </trkpt>
      <trkpt lat="46.86889" lon="8.47299">
        <ele>2233</ele>
        <time>2021-08-12T08:43:24.415Z</time>
      </trkpt>
      <trkpt lat="46.86889" lon="8.473">
        <ele>2233</ele>
        <time>2021-08-12T08:43:25.414Z</time>
      </trkpt>
      <trkpt lat="46.86889" lon="8.47301">
        <ele>2233</ele>
        <time>2021-08-12T08:43:26.414Z</time>
      </trkpt>
      <trkpt lat="46.86888" lon="8.47303">
        <ele>2233</ele>
        <time>2021-08-12T08:43:27.414Z</time>
      </trkpt>
      <trkpt lat="46.86888" lon="8.47304">
        <ele>2233</ele>
        <time>2021-08-12T08:43:28.414Z</time>
      </trkpt>
      <trkpt lat="46.86888" lon="8.47305">
        <ele>2233</ele>
        <time>2021-08-12T08:43:29.415Z</time>
      </trkpt>
      <trkpt lat="46.86888" lon="8.47306">
        <ele>2233</ele>
        <time>2021-08-12T08:43:30.415Z</time>
      </trkpt>
      <trkpt lat="46.86887" lon="8.47307">
        <ele>2234</ele>
        <time>2021-08-12T08:43:31.414Z</time>
      </trkpt>
      <trkpt lat="46.86888" lon="8.47308">
        <ele>2234</ele>
        <time>2021-08-12T08:43:32.414Z</time>
      </trkpt>
      <trkpt lat="46.86889" lon="8.47308">
        <ele>2234</ele>
        <time>2021-08-12T08:43:33.415Z</time>
      </trkpt>
      <trkpt lat="46.86888" lon="8.47308">
        <ele>2234</ele>
        <time>2021-08-12T08:43:34.414Z</time>
      </trkpt>
      <trkpt lat="46.86887" lon="8.47308">
        <ele>2235</ele>
        <time>2021-08-12T08:43:35.414Z</time>
      </trkpt>
      <trkpt lat="46.86887" lon="8.47308">
        <ele>2234</ele>
        <time>2021-08-12T08:43:36.414Z</time>
      </trkpt>
      <trkpt lat="46.86886" lon="8.47309">
        <ele>2234</ele>
        <time>2021-08-12T08:43:37.414Z</time>
      </trkpt>
      <trkpt lat="46.86886" lon="8.47308">
        <ele>2233</ele>
        <time>2021-08-12T08:43:38.415Z</time>
      </trkpt>
      <trkpt lat="46.86885" lon="8.47308">
        <ele>2233</ele>
        <time>2021-08-12T08:43:39.414Z</time>
      </trkpt>
      <trkpt lat="46.86885" lon="8.47309">
        <ele>2232</ele>
        <time>2021-08-12T08:43:40.414Z</time>
      </trkpt>
      <trkpt lat="46.86885" lon="8.4731">
        <ele>2232</ele>
        <time>2021-08-12T08:43:41.415Z</time>
      </trkpt>
      <trkpt lat="46.86885" lon="8.47311">
        <ele>2231</ele>
        <time>2021-08-12T08:43:42.415Z</time>
      </trkpt>
      <trkpt lat="46.86885" lon="8.47311">
        <ele>2231</ele>
        <time>2021-08-12T08:43:43.415Z</time>
      </trkpt>
      <trkpt lat="46.86885" lon="8.47312">
        <ele>2231</ele>
        <time>2021-08-12T08:43:44.414Z</time>
      </trkpt>
      <trkpt lat="46.86885" lon="8.47312">
        <ele>2230</ele>
        <time>2021-08-12T08:43:45.415Z</time>
      </trkpt>
      <trkpt lat="46.86884" lon="8.47312">
        <ele>2230</ele>
        <time>2021-08-12T08:43:46.415Z</time>
      </trkpt>
      <trkpt lat="46.86884" lon="8.47312">
        <ele>2230</ele>
        <time>2021-08-12T08:43:47.415Z</time>
      </trkpt>
      <trkpt lat="46.86884" lon="8.47312">
        <ele>2230</ele>
        <time>2021-08-12T08:43:48.414Z</time>
      </trkpt>
      <trkpt lat="46.86884" lon="8.47312">
        <ele>2230</ele>
        <time>2021-08-12T08:43:49.414Z</time>
      </trkpt>
      <trkpt lat="46.86883" lon="8.47313">
        <ele>2229</ele>
        <time>2021-08-12T08:43:50.415Z</time>
      </trkpt>
      <trkpt lat="46.86883" lon="8.47313">
        <ele>2229</ele>
        <time>2021-08-12T08:43:51.415Z</time>
      </trkpt>
      <trkpt lat="46.86883" lon="8.47314">
        <ele>2228</ele>
        <time>2021-08-12T08:43:52.415Z</time>
      </trkpt>
      <trkpt lat="46.86882" lon="8.47314">
        <ele>2228</ele>
        <time>2021-08-12T08:43:53.415Z</time>
      </trkpt>
      <trkpt lat="46.86882" lon="8.47315">
        <ele>2228</ele>
        <time>2021-08-12T08:43:54.414Z</time>
      </trkpt>
      <trkpt lat="46.86881" lon="8.47316">
        <ele>2228</ele>
        <time>2021-08-12T08:43:55.415Z</time>
      </trkpt>
      <trkpt lat="46.86881" lon="8.47317">
        <ele>2228</ele>
        <time>2021-08-12T08:43:56.414Z</time>
      </trkpt>
      <trkpt lat="46.86881" lon="8.47319">
        <ele>2229</ele>
        <time>2021-08-12T08:43:57.415Z</time>
      </trkpt>
      <trkpt lat="46.86881" lon="8.47319">
        <ele>2229</ele>
        <time>2021-08-12T08:43:58.414Z</time>
      </trkpt>
      <trkpt lat="46.86881" lon="8.4732">
        <ele>2229</ele>
        <time>2021-08-12T08:43:59.415Z</time>
      </trkpt>
      <trkpt lat="46.8688" lon="8.47321">
        <ele>2230</ele>
        <time>2021-08-12T08:44:00.415Z</time>
      </trkpt>
      <trkpt lat="46.8688" lon="8.47322">
        <ele>2230</ele>
        <time>2021-08-12T08:44:01.416Z</time>
      </trkpt>
      <trkpt lat="46.8688" lon="8.47322">
        <ele>2230</ele>
        <time>2021-08-12T08:44:02.415Z</time>
      </trkpt>
      <trkpt lat="46.8688" lon="8.47322">
        <ele>2231</ele>
        <time>2021-08-12T08:44:03.416Z</time>
      </trkpt>
      <trkpt lat="46.8688" lon="8.47323">
        <ele>2231</ele>
        <time>2021-08-12T08:44:04.415Z</time>
      </trkpt>
      <trkpt lat="46.8688" lon="8.47324">
        <ele>2231</ele>
        <time>2021-08-12T08:44:05.415Z</time>
      </trkpt>
      <trkpt lat="46.86879" lon="8.47325">
        <ele>2231</ele>
        <time>2021-08-12T08:44:06.416Z</time>
      </trkpt>
      <trkpt lat="46.86879" lon="8.47325">
        <ele>2231</ele>
        <time>2021-08-12T08:44:07.415Z</time>
      </trkpt>
      <trkpt lat="46.86879" lon="8.47325">
        <ele>2231</ele>
        <time>2021-08-12T08:44:08.416Z</time>
      </trkpt>
      <trkpt lat="46.86879" lon="8.47325">
        <ele>2231</ele>
        <time>2021-08-12T08:44:09.416Z</time>
      </trkpt>
      <trkpt lat="46.86879" lon="8.47325">
        <ele>2231</ele>
        <time>2021-08-12T08:44:10.415Z</time>
      </trkpt>
      <trkpt lat="46.86878" lon="8.47327">
        <ele>2233</ele>
        <time>2021-08-12T08:44:11.416Z</time>
      </trkpt>
      <trkpt lat="46.86878" lon="8.47326">
        <ele>2233</ele>
        <time>2021-08-12T08:44:12.415Z</time>
      </trkpt>
      <trkpt lat="46.86878" lon="8.47333">
        <ele>2234</ele>
        <time>2021-08-12T08:44:13.416Z</time>
      </trkpt>
      <trkpt lat="46.86877" lon="8.47334">
        <ele>2234</ele>
        <time>2021-08-12T08:44:14.415Z</time>
      </trkpt>
      <trkpt lat="46.86876" lon="8.47335">
        <ele>2233</ele>
        <time>2021-08-12T08:44:15.415Z</time>
      </trkpt>
      <trkpt lat="46.86876" lon="8.47336">
        <ele>2233</ele>
        <time>2021-08-12T08:44:16.416Z</time>
      </trkpt>
      <trkpt lat="46.86875" lon="8.47337">
        <ele>2232</ele>
        <time>2021-08-12T08:44:17.416Z</time>
      </trkpt>
      <trkpt lat="46.86875" lon="8.47337">
        <ele>2232</ele>
        <time>2021-08-12T08:44:18.416Z</time>
      </trkpt>
      <trkpt lat="46.86875" lon="8.47338">
        <ele>2232</ele>
        <time>2021-08-12T08:44:19.415Z</time>
      </trkpt>
      <trkpt lat="46.86874" lon="8.47339">
        <ele>2232</ele>
        <time>2021-08-12T08:44:20.415Z</time>
      </trkpt>
      <trkpt lat="46.86874" lon="8.4734">
        <ele>2232</ele>
        <time>2021-08-12T08:44:21.415Z</time>
      </trkpt>
      <trkpt lat="46.86874" lon="8.47341">
        <ele>2232</ele>
        <time>2021-08-12T08:44:22.415Z</time>
      </trkpt>
      <trkpt lat="46.86873" lon="8.47341">
        <ele>2232</ele>
        <time>2021-08-12T08:44:23.415Z</time>
      </trkpt>
      <trkpt lat="46.86873" lon="8.47342">
        <ele>2232</ele>
        <time>2021-08-12T08:44:24.416Z</time>
      </trkpt>
      <trkpt lat="46.86873" lon="8.47342">
        <ele>2231</ele>
        <time>2021-08-12T08:44:25.415Z</time>
      </trkpt>
      <trkpt lat="46.86872" lon="8.47342">
        <ele>2231</ele>
        <time>2021-08-12T08:44:26.415Z</time>
      </trkpt>
      <trkpt lat="46.86872" lon="8.47342">
        <ele>2232</ele>
        <time>2021-08-12T08:44:27.415Z</time>
      </trkpt>
      <trkpt lat="46.86871" lon="8.47344">
        <ele>2232</ele>
        <time>2021-08-12T08:44:28.416Z</time>
      </trkpt>
      <trkpt lat="46.8687" lon="8.47344">
        <ele>2231</ele>
        <time>2021-08-12T08:44:29.415Z</time>
      </trkpt>
      <trkpt lat="46.86869" lon="8.47344">
        <ele>2231</ele>
        <time>2021-08-12T08:44:30.415Z</time>
      </trkpt>
      <trkpt lat="46.86868" lon="8.47345">
        <ele>2231</ele>
        <time>2021-08-12T08:44:31.415Z</time>
      </trkpt>
      <trkpt lat="46.86867" lon="8.47346">
        <ele>2230</ele>
        <time>2021-08-12T08:44:32.416Z</time>
      </trkpt>
      <trkpt lat="46.86867" lon="8.47346">
        <ele>2230</ele>
        <time>2021-08-12T08:44:33.416Z</time>
      </trkpt>
      <trkpt lat="46.86866" lon="8.47347">
        <ele>2230</ele>
        <time>2021-08-12T08:44:34.416Z</time>
      </trkpt>
      <trkpt lat="46.86866" lon="8.47347">
        <ele>2230</ele>
        <time>2021-08-12T08:44:35.416Z</time>
      </trkpt>
      <trkpt lat="46.86865" lon="8.47348">
        <ele>2230</ele>
        <time>2021-08-12T08:44:36.416Z</time>
      </trkpt>
      <trkpt lat="46.86865" lon="8.47349">
        <ele>2230</ele>
        <time>2021-08-12T08:44:37.416Z</time>
      </trkpt>
      <trkpt lat="46.86864" lon="8.4735">
        <ele>2230</ele>
        <time>2021-08-12T08:44:38.416Z</time>
      </trkpt>
      <trkpt lat="46.86864" lon="8.47351">
        <ele>2230</ele>
        <time>2021-08-12T08:44:39.416Z</time>
      </trkpt>
      <trkpt lat="46.86864" lon="8.47352">
        <ele>2230</ele>
        <time>2021-08-12T08:44:40.416Z</time>
      </trkpt>
      <trkpt lat="46.86864" lon="8.47352">
        <ele>2230</ele>
        <time>2021-08-12T08:44:41.415Z</time>
      </trkpt>
      <trkpt lat="46.86864" lon="8.47352">
        <ele>2230</ele>
        <time>2021-08-12T08:44:42.415Z</time>
      </trkpt>
      <trkpt lat="46.86864" lon="8.47353">
        <ele>2230</ele>
        <time>2021-08-12T08:44:43.416Z</time>
      </trkpt>
      <trkpt lat="46.86863" lon="8.47353">
        <ele>2233</ele>
        <time>2021-08-12T08:44:44.417Z</time>
      </trkpt>
      <trkpt lat="46.86863" lon="8.47353">
        <ele>2233</ele>
        <time>2021-08-12T08:44:45.417Z</time>
      </trkpt>
      <trkpt lat="46.86863" lon="8.47354">
        <ele>2233</ele>
        <time>2021-08-12T08:44:46.416Z</time>
      </trkpt>
      <trkpt lat="46.86862" lon="8.47355">
        <ele>2233</ele>
        <time>2021-08-12T08:44:47.416Z</time>
      </trkpt>
      <trkpt lat="46.86862" lon="8.47355">
        <ele>2233</ele>
        <time>2021-08-12T08:44:48.417Z</time>
      </trkpt>
      <trkpt lat="46.86862" lon="8.47356">
        <ele>2234</ele>
        <time>2021-08-12T08:44:49.417Z</time>
      </trkpt>
      <trkpt lat="46.86862" lon="8.47357">
        <ele>2235</ele>
        <time>2021-08-12T08:44:50.417Z</time>
      </trkpt>
      <trkpt lat="46.86862" lon="8.47357">
        <ele>2236</ele>
        <time>2021-08-12T08:44:51.417Z</time>
      </trkpt>
      <trkpt lat="46.86861" lon="8.47357">
        <ele>2236</ele>
        <time>2021-08-12T08:44:52.418Z</time>
      </trkpt>
      <trkpt lat="46.86861" lon="8.47358">
        <ele>2237</ele>
        <time>2021-08-12T08:44:53.417Z</time>
      </trkpt>
      <trkpt lat="46.86861" lon="8.47359">
        <ele>2238</ele>
        <time>2021-08-12T08:44:54.418Z</time>
      </trkpt>
      <trkpt lat="46.8686" lon="8.4736">
        <ele>2239</ele>
        <time>2021-08-12T08:44:55.417Z</time>
      </trkpt>
      <trkpt lat="46.8686" lon="8.4736">
        <ele>2239</ele>
        <time>2021-08-12T08:44:56.418Z</time>
      </trkpt>
      <trkpt lat="46.8686" lon="8.47361">
        <ele>2240</ele>
        <time>2021-08-12T08:44:57.418Z</time>
      </trkpt>
      <trkpt lat="46.86861" lon="8.47361">
        <ele>2240</ele>
        <time>2021-08-12T08:44:58.418Z</time>
      </trkpt>
      <trkpt lat="46.86859" lon="8.47363">
        <ele>2241</ele>
        <time>2021-08-12T08:44:59.419Z</time>
      </trkpt>
      <trkpt lat="46.86859" lon="8.47363">
        <ele>2240</ele>
        <time>2021-08-12T08:45:00.419Z</time>
      </trkpt>
      <trkpt lat="46.86859" lon="8.47364">
        <ele>2240</ele>
        <time>2021-08-12T08:45:01.418Z</time>
      </trkpt>
      <trkpt lat="46.86859" lon="8.47366">
        <ele>2240</ele>
        <time>2021-08-12T08:45:02.420Z</time>
      </trkpt>
      <trkpt lat="46.86859" lon="8.47366">
        <ele>2240</ele>
        <time>2021-08-12T08:45:03.419Z</time>
      </trkpt>
      <trkpt lat="46.86859" lon="8.47366">
        <ele>2240</ele>
        <time>2021-08-12T08:45:04.420Z</time>
      </trkpt>
      <trkpt lat="46.86859" lon="8.47367">
        <ele>2240</ele>
        <time>2021-08-12T08:45:05.420Z</time>
      </trkpt>
      <trkpt lat="46.86859" lon="8.47367">
        <ele>2240</ele>
        <time>2021-08-12T08:45:06.420Z</time>
      </trkpt>
      <trkpt lat="46.86858" lon="8.47369">
        <ele>2240</ele>
        <time>2021-08-12T08:45:07.420Z</time>
      </trkpt>
      <trkpt lat="46.86858" lon="8.47369">
        <ele>2240</ele>
        <time>2021-08-12T08:45:08.419Z</time>
      </trkpt>
      <trkpt lat="46.86858" lon="8.47369">
        <ele>2239</ele>
        <time>2021-08-12T08:45:09.419Z</time>
      </trkpt>
      <trkpt lat="46.86856" lon="8.47371">
        <ele>2239</ele>
        <time>2021-08-12T08:45:10.421Z</time>
      </trkpt>
      <trkpt lat="46.86856" lon="8.47371">
        <ele>2239</ele>
        <time>2021-08-12T08:45:11.420Z</time>
      </trkpt>
      <trkpt lat="46.86856" lon="8.4737">
        <ele>2239</ele>
        <time>2021-08-12T08:45:12.420Z</time>
      </trkpt>
      <trkpt lat="46.86856" lon="8.47371">
        <ele>2239</ele>
        <time>2021-08-12T08:45:13.421Z</time>
      </trkpt>
      <trkpt lat="46.86855" lon="8.47372">
        <ele>2240</ele>
        <time>2021-08-12T08:45:14.420Z</time>
      </trkpt>
      <trkpt lat="46.86854" lon="8.47373">
        <ele>2240</ele>
        <time>2021-08-12T08:45:15.421Z</time>
      </trkpt>
      <trkpt lat="46.86854" lon="8.47374">
        <ele>2240</ele>
        <time>2021-08-12T08:45:16.421Z</time>
      </trkpt>
      <trkpt lat="46.86853" lon="8.47376">
        <ele>2240</ele>
        <time>2021-08-12T08:45:17.420Z</time>
      </trkpt>
      <trkpt lat="46.86852" lon="8.47377">
        <ele>2240</ele>
        <time>2021-08-12T08:45:18.420Z</time>
      </trkpt>
      <trkpt lat="46.86852" lon="8.47379">
        <ele>2240</ele>
        <time>2021-08-12T08:45:19.421Z</time>
      </trkpt>
      <trkpt lat="46.86851" lon="8.4738">
        <ele>2239</ele>
        <time>2021-08-12T08:45:20.421Z</time>
      </trkpt>
      <trkpt lat="46.8685" lon="8.4738">
        <ele>2239</ele>
        <time>2021-08-12T08:45:21.421Z</time>
      </trkpt>
      <trkpt lat="46.86849" lon="8.4738">
        <ele>2239</ele>
        <time>2021-08-12T08:45:22.421Z</time>
      </trkpt>
      <trkpt lat="46.86848" lon="8.4738">
        <ele>2239</ele>
        <time>2021-08-12T08:45:23.421Z</time>
      </trkpt>
      <trkpt lat="46.86847" lon="8.47381">
        <ele>2239</ele>
        <time>2021-08-12T08:45:24.421Z</time>
      </trkpt>
      <trkpt lat="46.86846" lon="8.47382">
        <ele>2238</ele>
        <time>2021-08-12T08:45:25.421Z</time>
      </trkpt>
      <trkpt lat="46.86845" lon="8.47383">
        <ele>2238</ele>
        <time>2021-08-12T08:45:26.420Z</time>
      </trkpt>
      <trkpt lat="46.86845" lon="8.47383">
        <ele>2237</ele>
        <time>2021-08-12T08:45:27.421Z</time>
      </trkpt>
      <trkpt lat="46.86844" lon="8.47384">
        <ele>2236</ele>
        <time>2021-08-12T08:45:28.421Z</time>
      </trkpt>
      <trkpt lat="46.86843" lon="8.47385">
        <ele>2236</ele>
        <time>2021-08-12T08:45:29.421Z</time>
      </trkpt>
      <trkpt lat="46.86842" lon="8.47385">
        <ele>2236</ele>
        <time>2021-08-12T08:45:30.420Z</time>
      </trkpt>
      <trkpt lat="46.86841" lon="8.47386">
        <ele>2236</ele>
        <time>2021-08-12T08:45:31.421Z</time>
      </trkpt>
      <trkpt lat="46.8684" lon="8.47386">
        <ele>2235</ele>
        <time>2021-08-12T08:45:32.420Z</time>
      </trkpt>
      <trkpt lat="46.86839" lon="8.47386">
        <ele>2235</ele>
        <time>2021-08-12T08:45:33.421Z</time>
      </trkpt>
      <trkpt lat="46.86838" lon="8.47386">
        <ele>2234</ele>
        <time>2021-08-12T08:45:34.421Z</time>
      </trkpt>
      <trkpt lat="46.86837" lon="8.47386">
        <ele>2234</ele>
        <time>2021-08-12T08:45:35.420Z</time>
      </trkpt>
      <trkpt lat="46.86836" lon="8.47386">
        <ele>2234</ele>
        <time>2021-08-12T08:45:36.420Z</time>
      </trkpt>
      <trkpt lat="46.86836" lon="8.47386">
        <ele>2234</ele>
        <time>2021-08-12T08:45:37.421Z</time>
      </trkpt>
      <trkpt lat="46.86836" lon="8.47386">
        <ele>2234</ele>
        <time>2021-08-12T08:45:38.420Z</time>
      </trkpt>
      <trkpt lat="46.86835" lon="8.47386">
        <ele>2234</ele>
        <time>2021-08-12T08:45:39.421Z</time>
      </trkpt>
      <trkpt lat="46.86835" lon="8.47386">
        <ele>2234</ele>
        <time>2021-08-12T08:45:40.421Z</time>
      </trkpt>
      <trkpt lat="46.86836" lon="8.47386">
        <ele>2231</ele>
        <time>2021-08-12T08:45:41.420Z</time>
      </trkpt>
      <trkpt lat="46.86836" lon="8.47386">
        <ele>2231</ele>
        <time>2021-08-12T08:45:42.421Z</time>
      </trkpt>
      <trkpt lat="46.86836" lon="8.47386">
        <ele>2231</ele>
        <time>2021-08-12T08:45:43.420Z</time>
      </trkpt>
      <trkpt lat="46.8683" lon="8.47383">
        <ele>2233</ele>
        <time>2021-08-12T08:45:44.422Z</time>
      </trkpt>
      <trkpt lat="46.8683" lon="8.47383">
        <ele>2233</ele>
        <time>2021-08-12T08:45:45.422Z</time>
      </trkpt>
      <trkpt lat="46.86829" lon="8.47383">
        <ele>2233</ele>
        <time>2021-08-12T08:45:46.422Z</time>
      </trkpt>
      <trkpt lat="46.86829" lon="8.47383">
        <ele>2233</ele>
        <time>2021-08-12T08:45:47.422Z</time>
      </trkpt>
      <trkpt lat="46.86829" lon="8.47383">
        <ele>2233</ele>
        <time>2021-08-12T08:45:48.422Z</time>
      </trkpt>
      <trkpt lat="46.86828" lon="8.47383">
        <ele>2233</ele>
        <time>2021-08-12T08:45:49.422Z</time>
      </trkpt>
      <trkpt lat="46.86827" lon="8.47383">
        <ele>2232</ele>
        <time>2021-08-12T08:45:50.422Z</time>
      </trkpt>
      <trkpt lat="46.86826" lon="8.47384">
        <ele>2232</ele>
        <time>2021-08-12T08:45:51.421Z</time>
      </trkpt>
      <trkpt lat="46.86826" lon="8.47384">
        <ele>2232</ele>
        <time>2021-08-12T08:45:52.421Z</time>
      </trkpt>
      <trkpt lat="46.86826" lon="8.47385">
        <ele>2232</ele>
        <time>2021-08-12T08:45:53.422Z</time>
      </trkpt>
      <trkpt lat="46.86825" lon="8.47385">
        <ele>2232</ele>
        <time>2021-08-12T08:45:54.421Z</time>
      </trkpt>
      <trkpt lat="46.86824" lon="8.47386">
        <ele>2231</ele>
        <time>2021-08-12T08:45:55.421Z</time>
      </trkpt>
      <trkpt lat="46.86824" lon="8.47386">
        <ele>2231</ele>
        <time>2021-08-12T08:45:56.422Z</time>
      </trkpt>
      <trkpt lat="46.86823" lon="8.47386">
        <ele>2230</ele>
        <time>2021-08-12T08:45:57.422Z</time>
      </trkpt>
      <trkpt lat="46.86823" lon="8.47387">
        <ele>2230</ele>
        <time>2021-08-12T08:45:58.421Z</time>
      </trkpt>
      <trkpt lat="46.86823" lon="8.47386">
        <ele>2229</ele>
        <time>2021-08-12T08:45:59.421Z</time>
      </trkpt>
      <trkpt lat="46.86823" lon="8.47383">
        <ele>2227</ele>
        <time>2021-08-12T08:46:00.422Z</time>
      </trkpt>
      <trkpt lat="46.86823" lon="8.47383">
        <ele>2222</ele>
        <time>2021-08-12T08:46:01.423Z</time>
      </trkpt>
      <trkpt lat="46.86823" lon="8.47383">
        <ele>2222</ele>
        <time>2021-08-12T08:46:02.423Z</time>
      </trkpt>
      <trkpt lat="46.86823" lon="8.47384">
        <ele>2222</ele>
        <time>2021-08-12T08:46:03.423Z</time>
      </trkpt>
      <trkpt lat="46.86822" lon="8.47384">
        <ele>2222</ele>
        <time>2021-08-12T08:46:04.422Z</time>
      </trkpt>
      <trkpt lat="46.86822" lon="8.47383">
        <ele>2223</ele>
        <time>2021-08-12T08:46:05.423Z</time>
      </trkpt>
      <trkpt lat="46.86821" lon="8.47383">
        <ele>2223</ele>
        <time>2021-08-12T08:46:06.423Z</time>
      </trkpt>
      <trkpt lat="46.8682" lon="8.47383">
        <ele>2223</ele>
        <time>2021-08-12T08:46:07.423Z</time>
      </trkpt>
      <trkpt lat="46.8682" lon="8.47384">
        <ele>2224</ele>
        <time>2021-08-12T08:46:08.422Z</time>
      </trkpt>
      <trkpt lat="46.86819" lon="8.47384">
        <ele>2224</ele>
        <time>2021-08-12T08:46:09.422Z</time>
      </trkpt>
      <trkpt lat="46.86819" lon="8.47385">
        <ele>2225</ele>
        <time>2021-08-12T08:46:10.423Z</time>
      </trkpt>
      <trkpt lat="46.86818" lon="8.47385">
        <ele>2225</ele>
        <time>2021-08-12T08:46:11.422Z</time>
      </trkpt>
      <trkpt lat="46.86817" lon="8.47385">
        <ele>2226</ele>
        <time>2021-08-12T08:46:12.422Z</time>
      </trkpt>
      <trkpt lat="46.86816" lon="8.47385">
        <ele>2226</ele>
        <time>2021-08-12T08:46:13.423Z</time>
      </trkpt>
      <trkpt lat="46.86815" lon="8.47386">
        <ele>2227</ele>
        <time>2021-08-12T08:46:14.423Z</time>
      </trkpt>
      <trkpt lat="46.86814" lon="8.47386">
        <ele>2227</ele>
        <time>2021-08-12T08:46:15.423Z</time>
      </trkpt>
      <trkpt lat="46.86813" lon="8.47386">
        <ele>2227</ele>
        <time>2021-08-12T08:46:16.423Z</time>
      </trkpt>
      <trkpt lat="46.86812" lon="8.47386">
        <ele>2228</ele>
        <time>2021-08-12T08:46:17.423Z</time>
      </trkpt>
      <trkpt lat="46.8681" lon="8.47385">
        <ele>2228</ele>
        <time>2021-08-12T08:46:18.422Z</time>
      </trkpt>
      <trkpt lat="46.86809" lon="8.47385">
        <ele>2228</ele>
        <time>2021-08-12T08:46:19.423Z</time>
      </trkpt>
      <trkpt lat="46.86808" lon="8.47384">
        <ele>2229</ele>
        <time>2021-08-12T08:46:20.423Z</time>
      </trkpt>
      <trkpt lat="46.86808" lon="8.47384">
        <ele>2229</ele>
        <time>2021-08-12T08:46:21.422Z</time>
      </trkpt>
      <trkpt lat="46.86808" lon="8.47384">
        <ele>2229</ele>
        <time>2021-08-12T08:46:22.422Z</time>
      </trkpt>
      <trkpt lat="46.86807" lon="8.47384">
        <ele>2229</ele>
        <time>2021-08-12T08:46:23.422Z</time>
      </trkpt>
      <trkpt lat="46.86806" lon="8.47384">
        <ele>2230</ele>
        <time>2021-08-12T08:46:24.423Z</time>
      </trkpt>
      <trkpt lat="46.86806" lon="8.47384">
        <ele>2230</ele>
        <time>2021-08-12T08:46:25.423Z</time>
      </trkpt>
      <trkpt lat="46.86805" lon="8.47384">
        <ele>2230</ele>
        <time>2021-08-12T08:46:26.422Z</time>
      </trkpt>
      <trkpt lat="46.86804" lon="8.47384">
        <ele>2230</ele>
        <time>2021-08-12T08:46:27.423Z</time>
      </trkpt>
      <trkpt lat="46.86803" lon="8.47384">
        <ele>2230</ele>
        <time>2021-08-12T08:46:28.423Z</time>
      </trkpt>
      <trkpt lat="46.86803" lon="8.47384">
        <ele>2229</ele>
        <time>2021-08-12T08:46:29.422Z</time>
      </trkpt>
      <trkpt lat="46.86803" lon="8.47384">
        <ele>2229</ele>
        <time>2021-08-12T08:46:30.423Z</time>
      </trkpt>
      <trkpt lat="46.86802" lon="8.47383">
        <ele>2230</ele>
        <time>2021-08-12T08:46:31.423Z</time>
      </trkpt>
      <trkpt lat="46.86802" lon="8.47383">
        <ele>2230</ele>
        <time>2021-08-12T08:46:32.423Z</time>
      </trkpt>
      <trkpt lat="46.86801" lon="8.47383">
        <ele>2231</ele>
        <time>2021-08-12T08:46:33.423Z</time>
      </trkpt>
      <trkpt lat="46.868" lon="8.47384">
        <ele>2231</ele>
        <time>2021-08-12T08:46:34.422Z</time>
      </trkpt>
      <trkpt lat="46.868" lon="8.47385">
        <ele>2232</ele>
        <time>2021-08-12T08:46:35.423Z</time>
      </trkpt>
      <trkpt lat="46.86799" lon="8.47386">
        <ele>2232</ele>
        <time>2021-08-12T08:46:36.422Z</time>
      </trkpt>
      <trkpt lat="46.86799" lon="8.47386">
        <ele>2232</ele>
        <time>2021-08-12T08:46:37.423Z</time>
      </trkpt>
      <trkpt lat="46.86798" lon="8.47386">
        <ele>2232</ele>
        <time>2021-08-12T08:46:38.422Z</time>
      </trkpt>
      <trkpt lat="46.86796" lon="8.47384">
        <ele>2232</ele>
        <time>2021-08-12T08:46:39.423Z</time>
      </trkpt>
      <trkpt lat="46.86796" lon="8.47383">
        <ele>2232</ele>
        <time>2021-08-12T08:46:40.423Z</time>
      </trkpt>
      <trkpt lat="46.86796" lon="8.47382">
        <ele>2232</ele>
        <time>2021-08-12T08:46:41.422Z</time>
      </trkpt>
      <trkpt lat="46.86795" lon="8.47382">
        <ele>2232</ele>
        <time>2021-08-12T08:46:42.422Z</time>
      </trkpt>
      <trkpt lat="46.86794" lon="8.47381">
        <ele>2232</ele>
        <time>2021-08-12T08:46:43.422Z</time>
      </trkpt>
      <trkpt lat="46.86794" lon="8.47381">
        <ele>2232</ele>
        <time>2021-08-12T08:46:44.423Z</time>
      </trkpt>
      <trkpt lat="46.86794" lon="8.4738">
        <ele>2232</ele>
        <time>2021-08-12T08:46:45.423Z</time>
      </trkpt>
      <trkpt lat="46.86794" lon="8.4738">
        <ele>2231</ele>
        <time>2021-08-12T08:46:46.422Z</time>
      </trkpt>
      <trkpt lat="46.86793" lon="8.4738">
        <ele>2231</ele>
        <time>2021-08-12T08:46:47.422Z</time>
      </trkpt>
      <trkpt lat="46.86792" lon="8.4738">
        <ele>2231</ele>
        <time>2021-08-12T08:46:48.423Z</time>
      </trkpt>
      <trkpt lat="46.8679" lon="8.4738">
        <ele>2230</ele>
        <time>2021-08-12T08:46:49.422Z</time>
      </trkpt>
      <trkpt lat="46.8679" lon="8.47381">
        <ele>2230</ele>
        <time>2021-08-12T08:46:50.423Z</time>
      </trkpt>
      <trkpt lat="46.86788" lon="8.47381">
        <ele>2229</ele>
        <time>2021-08-12T08:46:51.423Z</time>
      </trkpt>
      <trkpt lat="46.86788" lon="8.47382">
        <ele>2229</ele>
        <time>2021-08-12T08:46:52.423Z</time>
      </trkpt>
      <trkpt lat="46.86788" lon="8.47382">
        <ele>2229</ele>
        <time>2021-08-12T08:46:53.423Z</time>
      </trkpt>
      <trkpt lat="46.86787" lon="8.47382">
        <ele>2228</ele>
        <time>2021-08-12T08:46:54.422Z</time>
      </trkpt>
      <trkpt lat="46.86787" lon="8.47383">
        <ele>2228</ele>
        <time>2021-08-12T08:46:55.423Z</time>
      </trkpt>
      <trkpt lat="46.86786" lon="8.47384">
        <ele>2228</ele>
        <time>2021-08-12T08:46:56.423Z</time>
      </trkpt>
      <trkpt lat="46.86785" lon="8.47385">
        <ele>2227</ele>
        <time>2021-08-12T08:46:57.422Z</time>
      </trkpt>
      <trkpt lat="46.86784" lon="8.47386">
        <ele>2226</ele>
        <time>2021-08-12T08:46:58.422Z</time>
      </trkpt>
      <trkpt lat="46.86783" lon="8.47386">
        <ele>2225</ele>
        <time>2021-08-12T08:46:59.422Z</time>
      </trkpt>
      <trkpt lat="46.86783" lon="8.47386">
        <ele>2225</ele>
        <time>2021-08-12T08:47:00.422Z</time>
      </trkpt>
      <trkpt lat="46.86781" lon="8.47386">
        <ele>2224</ele>
        <time>2021-08-12T08:47:01.423Z</time>
      </trkpt>
      <trkpt lat="46.8678" lon="8.47386">
        <ele>2224</ele>
        <time>2021-08-12T08:47:02.422Z</time>
      </trkpt>
      <trkpt lat="46.86779" lon="8.47386">
        <ele>2223</ele>
        <time>2021-08-12T08:47:03.422Z</time>
      </trkpt>
      <trkpt lat="46.86778" lon="8.47387">
        <ele>2223</ele>
        <time>2021-08-12T08:47:04.423Z</time>
      </trkpt>
      <trkpt lat="46.86777" lon="8.47387">
        <ele>2222</ele>
        <time>2021-08-12T08:47:05.422Z</time>
      </trkpt>
      <trkpt lat="46.86776" lon="8.47387">
        <ele>2222</ele>
        <time>2021-08-12T08:47:06.422Z</time>
      </trkpt>
      <trkpt lat="46.86775" lon="8.47387">
        <ele>2222</ele>
        <time>2021-08-12T08:47:07.423Z</time>
      </trkpt>
      <trkpt lat="46.86774" lon="8.47387">
        <ele>2221</ele>
        <time>2021-08-12T08:47:08.422Z</time>
      </trkpt>
      <trkpt lat="46.86773" lon="8.47387">
        <ele>2222</ele>
        <time>2021-08-12T08:47:09.422Z</time>
      </trkpt>
      <trkpt lat="46.86771" lon="8.47387">
        <ele>2222</ele>
        <time>2021-08-12T08:47:10.422Z</time>
      </trkpt>
      <trkpt lat="46.8677" lon="8.47387">
        <ele>2222</ele>
        <time>2021-08-12T08:47:11.423Z</time>
      </trkpt>
      <trkpt lat="46.86769" lon="8.47388">
        <ele>2222</ele>
        <time>2021-08-12T08:47:12.423Z</time>
      </trkpt>
      <trkpt lat="46.86768" lon="8.47388">
        <ele>2222</ele>
        <time>2021-08-12T08:47:13.422Z</time>
      </trkpt>
      <trkpt lat="46.86767" lon="8.47389">
        <ele>2222</ele>
        <time>2021-08-12T08:47:14.423Z</time>
      </trkpt>
      <trkpt lat="46.86767" lon="8.47389">
        <ele>2222</ele>
        <time>2021-08-12T08:47:15.422Z</time>
      </trkpt>
      <trkpt lat="46.86766" lon="8.47389">
        <ele>2222</ele>
        <time>2021-08-12T08:47:16.422Z</time>
      </trkpt>
      <trkpt lat="46.86765" lon="8.4739">
        <ele>2222</ele>
        <time>2021-08-12T08:47:17.422Z</time>
      </trkpt>
      <trkpt lat="46.86764" lon="8.4739">
        <ele>2222</ele>
        <time>2021-08-12T08:47:18.422Z</time>
      </trkpt>
      <trkpt lat="46.86763" lon="8.47391">
        <ele>2222</ele>
        <time>2021-08-12T08:47:19.422Z</time>
      </trkpt>
      <trkpt lat="46.86763" lon="8.47392">
        <ele>2222</ele>
        <time>2021-08-12T08:47:20.422Z</time>
      </trkpt>
      <trkpt lat="46.86762" lon="8.47393">
        <ele>2222</ele>
        <time>2021-08-12T08:47:21.422Z</time>
      </trkpt>
      <trkpt lat="46.86762" lon="8.47393">
        <ele>2222</ele>
        <time>2021-08-12T08:47:22.422Z</time>
      </trkpt>
      <trkpt lat="46.86761" lon="8.47393">
        <ele>2222</ele>
        <time>2021-08-12T08:47:23.422Z</time>
      </trkpt>
      <trkpt lat="46.8676" lon="8.47393">
        <ele>2222</ele>
        <time>2021-08-12T08:47:24.422Z</time>
      </trkpt>
      <trkpt lat="46.86759" lon="8.47392">
        <ele>2222</ele>
        <time>2021-08-12T08:47:25.422Z</time>
      </trkpt>
      <trkpt lat="46.86758" lon="8.47391">
        <ele>2222</ele>
        <time>2021-08-12T08:47:26.422Z</time>
      </trkpt>
      <trkpt lat="46.86757" lon="8.47391">
        <ele>2222</ele>
        <time>2021-08-12T08:47:27.422Z</time>
      </trkpt>
      <trkpt lat="46.86756" lon="8.47391">
        <ele>2222</ele>
        <time>2021-08-12T08:47:28.422Z</time>
      </trkpt>
      <trkpt lat="46.86755" lon="8.47391">
        <ele>2222</ele>
        <time>2021-08-12T08:47:29.422Z</time>
      </trkpt>
      <trkpt lat="46.86754" lon="8.47391">
        <ele>2222</ele>
        <time>2021-08-12T08:47:30.422Z</time>
      </trkpt>
      <trkpt lat="46.86754" lon="8.47391">
        <ele>2222</ele>
        <time>2021-08-12T08:47:31.422Z</time>
      </trkpt>
      <trkpt lat="46.86753" lon="8.4739">
        <ele>2221</ele>
        <time>2021-08-12T08:47:32.422Z</time>
      </trkpt>
      <trkpt lat="46.8675" lon="8.47389">
        <ele>2221</ele>
        <time>2021-08-12T08:47:33.422Z</time>
      </trkpt>
      <trkpt lat="46.86749" lon="8.47388">
        <ele>2221</ele>
        <time>2021-08-12T08:47:34.422Z</time>
      </trkpt>
      <trkpt lat="46.86749" lon="8.47387">
        <ele>2220</ele>
        <time>2021-08-12T08:47:35.423Z</time>
      </trkpt>
      <trkpt lat="46.86748" lon="8.47386">
        <ele>2220</ele>
        <time>2021-08-12T08:47:36.423Z</time>
      </trkpt>
      <trkpt lat="46.86747" lon="8.47384">
        <ele>2219</ele>
        <time>2021-08-12T08:47:37.423Z</time>
      </trkpt>
      <trkpt lat="46.86746" lon="8.47384">
        <ele>2219</ele>
        <time>2021-08-12T08:47:38.423Z</time>
      </trkpt>
      <trkpt lat="46.86746" lon="8.47384">
        <ele>2219</ele>
        <time>2021-08-12T08:47:39.423Z</time>
      </trkpt>
      <trkpt lat="46.86745" lon="8.47384">
        <ele>2219</ele>
        <time>2021-08-12T08:47:40.423Z</time>
      </trkpt>
      <trkpt lat="46.86745" lon="8.47385">
        <ele>2219</ele>
        <time>2021-08-12T08:47:41.423Z</time>
      </trkpt>
      <trkpt lat="46.86745" lon="8.47385">
        <ele>2218</ele>
        <time>2021-08-12T08:47:42.423Z</time>
      </trkpt>
      <trkpt lat="46.86745" lon="8.47385">
        <ele>2218</ele>
        <time>2021-08-12T08:47:43.423Z</time>
      </trkpt>
      <trkpt lat="46.86744" lon="8.47386">
        <ele>2219</ele>
        <time>2021-08-12T08:47:44.423Z</time>
      </trkpt>
      <trkpt lat="46.86742" lon="8.47387">
        <ele>2219</ele>
        <time>2021-08-12T08:47:45.423Z</time>
      </trkpt>
      <trkpt lat="46.86741" lon="8.47387">
        <ele>2219</ele>
        <time>2021-08-12T08:47:46.422Z</time>
      </trkpt>
      <trkpt lat="46.86741" lon="8.47387">
        <ele>2220</ele>
        <time>2021-08-12T08:47:47.423Z</time>
      </trkpt>
      <trkpt lat="46.8674" lon="8.47387">
        <ele>2220</ele>
        <time>2021-08-12T08:47:48.423Z</time>
      </trkpt>
      <trkpt lat="46.8674" lon="8.47387">
        <ele>2220</ele>
        <time>2021-08-12T08:47:49.423Z</time>
      </trkpt>
      <trkpt lat="46.86739" lon="8.47387">
        <ele>2220</ele>
        <time>2021-08-12T08:47:50.423Z</time>
      </trkpt>
      <trkpt lat="46.86738" lon="8.47387">
        <ele>2220</ele>
        <time>2021-08-12T08:47:51.422Z</time>
      </trkpt>
      <trkpt lat="46.86738" lon="8.47387">
        <ele>2220</ele>
        <time>2021-08-12T08:47:52.423Z</time>
      </trkpt>
      <trkpt lat="46.86738" lon="8.47387">
        <ele>2220</ele>
        <time>2021-08-12T08:47:53.423Z</time>
      </trkpt>
      <trkpt lat="46.86738" lon="8.47386">
        <ele>2220</ele>
        <time>2021-08-12T08:47:54.422Z</time>
      </trkpt>
      <trkpt lat="46.86737" lon="8.47386">
        <ele>2220</ele>
        <time>2021-08-12T08:47:55.422Z</time>
      </trkpt>
      <trkpt lat="46.86738" lon="8.47385">
        <ele>2219</ele>
        <time>2021-08-12T08:47:56.422Z</time>
      </trkpt>
      <trkpt lat="46.86738" lon="8.47384">
        <ele>2219</ele>
        <time>2021-08-12T08:47:57.423Z</time>
      </trkpt>
      <trkpt lat="46.86735" lon="8.47382">
        <ele>2218</ele>
        <time>2021-08-12T08:47:58.423Z</time>
      </trkpt>
      <trkpt lat="46.86735" lon="8.47381">
        <ele>2218</ele>
        <time>2021-08-12T08:47:59.422Z</time>
      </trkpt>
      <trkpt lat="46.86734" lon="8.47381">
        <ele>2219</ele>
        <time>2021-08-12T08:48:00.423Z</time>
      </trkpt>
      <trkpt lat="46.86734" lon="8.4738">
        <ele>2219</ele>
        <time>2021-08-12T08:48:01.422Z</time>
      </trkpt>
      <trkpt lat="46.86733" lon="8.4738">
        <ele>2219</ele>
        <time>2021-08-12T08:48:02.423Z</time>
      </trkpt>
      <trkpt lat="46.86733" lon="8.4738">
        <ele>2219</ele>
        <time>2021-08-12T08:48:03.422Z</time>
      </trkpt>
      <trkpt lat="46.86732" lon="8.47379">
        <ele>2219</ele>
        <time>2021-08-12T08:48:04.423Z</time>
      </trkpt>
      <trkpt lat="46.86731" lon="8.47378">
        <ele>2219</ele>
        <time>2021-08-12T08:48:05.422Z</time>
      </trkpt>
      <trkpt lat="46.8673" lon="8.47377">
        <ele>2220</ele>
        <time>2021-08-12T08:48:06.423Z</time>
      </trkpt>
      <trkpt lat="46.8673" lon="8.47376">
        <ele>2220</ele>
        <time>2021-08-12T08:48:07.423Z</time>
      </trkpt>
      <trkpt lat="46.8673" lon="8.47376">
        <ele>2220</ele>
        <time>2021-08-12T08:48:08.422Z</time>
      </trkpt>
      <trkpt lat="46.86729" lon="8.47375">
        <ele>2220</ele>
        <time>2021-08-12T08:48:09.423Z</time>
      </trkpt>
      <trkpt lat="46.86728" lon="8.47375">
        <ele>2220</ele>
        <time>2021-08-12T08:48:10.422Z</time>
      </trkpt>
      <trkpt lat="46.86728" lon="8.47375">
        <ele>2221</ele>
        <time>2021-08-12T08:48:11.423Z</time>
      </trkpt>
      <trkpt lat="46.86727" lon="8.47374">
        <ele>2221</ele>
        <time>2021-08-12T08:48:12.422Z</time>
      </trkpt>
      <trkpt lat="46.86727" lon="8.47373">
        <ele>2221</ele>
        <time>2021-08-12T08:48:13.423Z</time>
      </trkpt>
      <trkpt lat="46.86727" lon="8.47372">
        <ele>2222</ele>
        <time>2021-08-12T08:48:14.423Z</time>
      </trkpt>
      <trkpt lat="46.86726" lon="8.47371">
        <ele>2222</ele>
        <time>2021-08-12T08:48:15.423Z</time>
      </trkpt>
      <trkpt lat="46.86725" lon="8.4737">
        <ele>2222</ele>
        <time>2021-08-12T08:48:16.423Z</time>
      </trkpt>
      <trkpt lat="46.86724" lon="8.4737">
        <ele>2222</ele>
        <time>2021-08-12T08:48:17.423Z</time>
      </trkpt>
      <trkpt lat="46.86724" lon="8.47369">
        <ele>2222</ele>
        <time>2021-08-12T08:48:18.423Z</time>
      </trkpt>
      <trkpt lat="46.86723" lon="8.47369">
        <ele>2221</ele>
        <time>2021-08-12T08:48:19.422Z</time>
      </trkpt>
      <trkpt lat="46.86722" lon="8.47369">
        <ele>2221</ele>
        <time>2021-08-12T08:48:20.422Z</time>
      </trkpt>
      <trkpt lat="46.86721" lon="8.47368">
        <ele>2220</ele>
        <time>2021-08-12T08:48:21.423Z</time>
      </trkpt>
      <trkpt lat="46.8672" lon="8.47368">
        <ele>2220</ele>
        <time>2021-08-12T08:48:22.423Z</time>
      </trkpt>
      <trkpt lat="46.8672" lon="8.47367">
        <ele>2219</ele>
        <time>2021-08-12T08:48:23.423Z</time>
      </trkpt>
      <trkpt lat="46.86719" lon="8.47367">
        <ele>2219</ele>
        <time>2021-08-12T08:48:24.422Z</time>
      </trkpt>
      <trkpt lat="46.86719" lon="8.47366">
        <ele>2218</ele>
        <time>2021-08-12T08:48:25.423Z</time>
      </trkpt>
      <trkpt lat="46.86718" lon="8.47366">
        <ele>2218</ele>
        <time>2021-08-12T08:48:26.423Z</time>
      </trkpt>
      <trkpt lat="46.86717" lon="8.47365">
        <ele>2218</ele>
        <time>2021-08-12T08:48:27.422Z</time>
      </trkpt>
      <trkpt lat="46.86716" lon="8.47364">
        <ele>2218</ele>
        <time>2021-08-12T08:48:28.422Z</time>
      </trkpt>
      <trkpt lat="46.86715" lon="8.47363">
        <ele>2217</ele>
        <time>2021-08-12T08:48:29.423Z</time>
      </trkpt>
      <trkpt lat="46.86714" lon="8.47363">
        <ele>2217</ele>
        <time>2021-08-12T08:48:30.422Z</time>
      </trkpt>
      <trkpt lat="46.86714" lon="8.47362">
        <ele>2217</ele>
        <time>2021-08-12T08:48:31.423Z</time>
      </trkpt>
      <trkpt lat="46.86713" lon="8.47361">
        <ele>2217</ele>
        <time>2021-08-12T08:48:32.423Z</time>
      </trkpt>
      <trkpt lat="46.86713" lon="8.47361">
        <ele>2217</ele>
        <time>2021-08-12T08:48:33.422Z</time>
      </trkpt>
      <trkpt lat="46.86713" lon="8.47361">
        <ele>2217</ele>
        <time>2021-08-12T08:48:34.422Z</time>
      </trkpt>
      <trkpt lat="46.86714" lon="8.4736">
        <ele>2217</ele>
        <time>2021-08-12T08:48:35.422Z</time>
      </trkpt>
      <trkpt lat="46.86713" lon="8.4736">
        <ele>2217</ele>
        <time>2021-08-12T08:48:36.423Z</time>
      </trkpt>
      <trkpt lat="46.86712" lon="8.4736">
        <ele>2216</ele>
        <time>2021-08-12T08:48:37.422Z</time>
      </trkpt>
      <trkpt lat="46.86711" lon="8.4736">
        <ele>2216</ele>
        <time>2021-08-12T08:48:38.422Z</time>
      </trkpt>
      <trkpt lat="46.8671" lon="8.4736">
        <ele>2216</ele>
        <time>2021-08-12T08:48:39.423Z</time>
      </trkpt>
      <trkpt lat="46.8671" lon="8.47359">
        <ele>2215</ele>
        <time>2021-08-12T08:48:40.423Z</time>
      </trkpt>
      <trkpt lat="46.86708" lon="8.47358">
        <ele>2216</ele>
        <time>2021-08-12T08:48:41.422Z</time>
      </trkpt>
      <trkpt lat="46.86708" lon="8.47358">
        <ele>2216</ele>
        <time>2021-08-12T08:48:42.422Z</time>
      </trkpt>
      <trkpt lat="46.86707" lon="8.47357">
        <ele>2217</ele>
        <time>2021-08-12T08:48:43.422Z</time>
      </trkpt>
      <trkpt lat="46.86705" lon="8.47356">
        <ele>2217</ele>
        <time>2021-08-12T08:48:44.423Z</time>
      </trkpt>
      <trkpt lat="46.86705" lon="8.47356">
        <ele>2218</ele>
        <time>2021-08-12T08:48:45.423Z</time>
      </trkpt>
      <trkpt lat="46.86704" lon="8.47356">
        <ele>2219</ele>
        <time>2021-08-12T08:48:46.423Z</time>
      </trkpt>
      <trkpt lat="46.86703" lon="8.47355">
        <ele>2220</ele>
        <time>2021-08-12T08:48:47.423Z</time>
      </trkpt>
      <trkpt lat="46.86702" lon="8.47355">
        <ele>2220</ele>
        <time>2021-08-12T08:48:48.423Z</time>
      </trkpt>
      <trkpt lat="46.86701" lon="8.47354">
        <ele>2220</ele>
        <time>2021-08-12T08:48:49.422Z</time>
      </trkpt>
      <trkpt lat="46.867" lon="8.47354">
        <ele>2221</ele>
        <time>2021-08-12T08:48:50.423Z</time>
      </trkpt>
      <trkpt lat="46.86698" lon="8.47353">
        <ele>2222</ele>
        <time>2021-08-12T08:48:51.423Z</time>
      </trkpt>
      <trkpt lat="46.86698" lon="8.47353">
        <ele>2222</ele>
        <time>2021-08-12T08:48:52.422Z</time>
      </trkpt>
      <trkpt lat="46.86697" lon="8.47353">
        <ele>2222</ele>
        <time>2021-08-12T08:48:53.422Z</time>
      </trkpt>
      <trkpt lat="46.86696" lon="8.47353">
        <ele>2223</ele>
        <time>2021-08-12T08:48:54.422Z</time>
      </trkpt>
      <trkpt lat="46.86696" lon="8.47352">
        <ele>2223</ele>
        <time>2021-08-12T08:48:55.423Z</time>
      </trkpt>
      <trkpt lat="46.86696" lon="8.47353">
        <ele>2223</ele>
        <time>2021-08-12T08:48:56.422Z</time>
      </trkpt>
      <trkpt lat="46.86696" lon="8.47353">
        <ele>2223</ele>
        <time>2021-08-12T08:48:57.423Z</time>
      </trkpt>
      <trkpt lat="46.86696" lon="8.47353">
        <ele>2223</ele>
        <time>2021-08-12T08:48:58.422Z</time>
      </trkpt>
      <trkpt lat="46.86696" lon="8.47352">
        <ele>2223</ele>
        <time>2021-08-12T08:48:59.422Z</time>
      </trkpt>
      <trkpt lat="46.86695" lon="8.47352">
        <ele>2223</ele>
        <time>2021-08-12T08:49:00.423Z</time>
      </trkpt>
      <trkpt lat="46.86695" lon="8.47351">
        <ele>2223</ele>
        <time>2021-08-12T08:49:01.422Z</time>
      </trkpt>
      <trkpt lat="46.86692" lon="8.4735">
        <ele>2220</ele>
        <time>2021-08-12T08:49:02.423Z</time>
      </trkpt>
      <trkpt lat="46.86692" lon="8.4735">
        <ele>2221</ele>
        <time>2021-08-12T08:49:03.423Z</time>
      </trkpt>
      <trkpt lat="46.86691" lon="8.47349">
        <ele>2221</ele>
        <time>2021-08-12T08:49:04.423Z</time>
      </trkpt>
      <trkpt lat="46.8669" lon="8.47349">
        <ele>2221</ele>
        <time>2021-08-12T08:49:05.423Z</time>
      </trkpt>
      <trkpt lat="46.86689" lon="8.47349">
        <ele>2221</ele>
        <time>2021-08-12T08:49:06.422Z</time>
      </trkpt>
      <trkpt lat="46.86688" lon="8.47348">
        <ele>2221</ele>
        <time>2021-08-12T08:49:07.423Z</time>
      </trkpt>
      <trkpt lat="46.86688" lon="8.47348">
        <ele>2221</ele>
        <time>2021-08-12T08:49:08.423Z</time>
      </trkpt>
      <trkpt lat="46.86687" lon="8.47347">
        <ele>2220</ele>
        <time>2021-08-12T08:49:09.423Z</time>
      </trkpt>
      <trkpt lat="46.86687" lon="8.47346">
        <ele>2219</ele>
        <time>2021-08-12T08:49:10.423Z</time>
      </trkpt>
      <trkpt lat="46.86686" lon="8.47346">
        <ele>2219</ele>
        <time>2021-08-12T08:49:11.423Z</time>
      </trkpt>
      <trkpt lat="46.86686" lon="8.47346">
        <ele>2218</ele>
        <time>2021-08-12T08:49:12.423Z</time>
      </trkpt>
      <trkpt lat="46.86685" lon="8.47345">
        <ele>2218</ele>
        <time>2021-08-12T08:49:13.423Z</time>
      </trkpt>
      <trkpt lat="46.86685" lon="8.47344">
        <ele>2218</ele>
        <time>2021-08-12T08:49:14.422Z</time>
      </trkpt>
      <trkpt lat="46.86684" lon="8.47343">
        <ele>2217</ele>
        <time>2021-08-12T08:49:15.423Z</time>
      </trkpt>
      <trkpt lat="46.86684" lon="8.47342">
        <ele>2217</ele>
        <time>2021-08-12T08:49:16.423Z</time>
      </trkpt>
      <trkpt lat="46.86683" lon="8.47342">
        <ele>2216</ele>
        <time>2021-08-12T08:49:17.423Z</time>
      </trkpt>
      <trkpt lat="46.86683" lon="8.47341">
        <ele>2215</ele>
        <time>2021-08-12T08:49:18.423Z</time>
      </trkpt>
      <trkpt lat="46.86682" lon="8.47341">
        <ele>2215</ele>
        <time>2021-08-12T08:49:19.423Z</time>
      </trkpt>
      <trkpt lat="46.86682" lon="8.4734">
        <ele>2214</ele>
        <time>2021-08-12T08:49:20.422Z</time>
      </trkpt>
      <trkpt lat="46.86681" lon="8.4734">
        <ele>2214</ele>
        <time>2021-08-12T08:49:21.422Z</time>
      </trkpt>
      <trkpt lat="46.8668" lon="8.4734">
        <ele>2213</ele>
        <time>2021-08-12T08:49:22.422Z</time>
      </trkpt>
      <trkpt lat="46.86679" lon="8.4734">
        <ele>2213</ele>
        <time>2021-08-12T08:49:23.423Z</time>
      </trkpt>
      <trkpt lat="46.86679" lon="8.4734">
        <ele>2213</ele>
        <time>2021-08-12T08:49:24.423Z</time>
      </trkpt>
      <trkpt lat="46.86677" lon="8.4734">
        <ele>2213</ele>
        <time>2021-08-12T08:49:25.423Z</time>
      </trkpt>
      <trkpt lat="46.86676" lon="8.4734">
        <ele>2212</ele>
        <time>2021-08-12T08:49:26.423Z</time>
      </trkpt>
      <trkpt lat="46.86675" lon="8.4734">
        <ele>2212</ele>
        <time>2021-08-12T08:49:27.422Z</time>
      </trkpt>
      <trkpt lat="46.86674" lon="8.4734">
        <ele>2212</ele>
        <time>2021-08-12T08:49:28.423Z</time>
      </trkpt>
      <trkpt lat="46.86673" lon="8.47341">
        <ele>2212</ele>
        <time>2021-08-12T08:49:29.423Z</time>
      </trkpt>
      <trkpt lat="46.86672" lon="8.47341">
        <ele>2211</ele>
        <time>2021-08-12T08:49:30.422Z</time>
      </trkpt>
      <trkpt lat="46.86671" lon="8.47341">
        <ele>2211</ele>
        <time>2021-08-12T08:49:31.423Z</time>
      </trkpt>
      <trkpt lat="46.86671" lon="8.47341">
        <ele>2211</ele>
        <time>2021-08-12T08:49:32.422Z</time>
      </trkpt>
      <trkpt lat="46.8667" lon="8.4734">
        <ele>2211</ele>
        <time>2021-08-12T08:49:33.422Z</time>
      </trkpt>
      <trkpt lat="46.8667" lon="8.4734">
        <ele>2211</ele>
        <time>2021-08-12T08:49:34.423Z</time>
      </trkpt>
      <trkpt lat="46.8667" lon="8.4734">
        <ele>2211</ele>
        <time>2021-08-12T08:49:35.423Z</time>
      </trkpt>
      <trkpt lat="46.86669" lon="8.4734">
        <ele>2211</ele>
        <time>2021-08-12T08:49:36.423Z</time>
      </trkpt>
      <trkpt lat="46.86668" lon="8.4734">
        <ele>2210</ele>
        <time>2021-08-12T08:49:37.422Z</time>
      </trkpt>
      <trkpt lat="46.86667" lon="8.4734">
        <ele>2210</ele>
        <time>2021-08-12T08:49:38.423Z</time>
      </trkpt>
      <trkpt lat="46.86665" lon="8.4734">
        <ele>2210</ele>
        <time>2021-08-12T08:49:39.423Z</time>
      </trkpt>
      <trkpt lat="46.86663" lon="8.47341">
        <ele>2209</ele>
        <time>2021-08-12T08:49:40.422Z</time>
      </trkpt>
      <trkpt lat="46.86663" lon="8.47341">
        <ele>2209</ele>
        <time>2021-08-12T08:49:41.422Z</time>
      </trkpt>
      <trkpt lat="46.86662" lon="8.47342">
        <ele>2209</ele>
        <time>2021-08-12T08:49:42.423Z</time>
      </trkpt>
      <trkpt lat="46.86661" lon="8.47343">
        <ele>2209</ele>
        <time>2021-08-12T08:49:43.422Z</time>
      </trkpt>
      <trkpt lat="46.8666" lon="8.47343">
        <ele>2209</ele>
        <time>2021-08-12T08:49:44.422Z</time>
      </trkpt>
      <trkpt lat="46.8666" lon="8.47343">
        <ele>2209</ele>
        <time>2021-08-12T08:49:45.422Z</time>
      </trkpt>
      <trkpt lat="46.86659" lon="8.47344">
        <ele>2209</ele>
        <time>2021-08-12T08:49:46.423Z</time>
      </trkpt>
      <trkpt lat="46.86658" lon="8.47344">
        <ele>2209</ele>
        <time>2021-08-12T08:49:47.422Z</time>
      </trkpt>
      <trkpt lat="46.86658" lon="8.47345">
        <ele>2209</ele>
        <time>2021-08-12T08:49:48.423Z</time>
      </trkpt>
      <trkpt lat="46.86657" lon="8.47345">
        <ele>2208</ele>
        <time>2021-08-12T08:49:49.423Z</time>
      </trkpt>
      <trkpt lat="46.86657" lon="8.47346">
        <ele>2208</ele>
        <time>2021-08-12T08:49:50.423Z</time>
      </trkpt>
      <trkpt lat="46.86656" lon="8.47347">
        <ele>2208</ele>
        <time>2021-08-12T08:49:51.423Z</time>
      </trkpt>
      <trkpt lat="46.86656" lon="8.47348">
        <ele>2208</ele>
        <time>2021-08-12T08:49:52.423Z</time>
      </trkpt>
      <trkpt lat="46.86655" lon="8.47348">
        <ele>2207</ele>
        <time>2021-08-12T08:49:53.422Z</time>
      </trkpt>
      <trkpt lat="46.86655" lon="8.47349">
        <ele>2207</ele>
        <time>2021-08-12T08:49:54.423Z</time>
      </trkpt>
      <trkpt lat="46.86655" lon="8.4735">
        <ele>2207</ele>
        <time>2021-08-12T08:49:55.422Z</time>
      </trkpt>
      <trkpt lat="46.86655" lon="8.47351">
        <ele>2206</ele>
        <time>2021-08-12T08:49:56.422Z</time>
      </trkpt>
      <trkpt lat="46.86654" lon="8.47352">
        <ele>2206</ele>
        <time>2021-08-12T08:49:57.423Z</time>
      </trkpt>
      <trkpt lat="46.86653" lon="8.47353">
        <ele>2206</ele>
        <time>2021-08-12T08:49:58.423Z</time>
      </trkpt>
      <trkpt lat="46.86652" lon="8.47353">
        <ele>2206</ele>
        <time>2021-08-12T08:49:59.422Z</time>
      </trkpt>
      <trkpt lat="46.86651" lon="8.47354">
        <ele>2206</ele>
        <time>2021-08-12T08:50:00.422Z</time>
      </trkpt>
      <trkpt lat="46.8665" lon="8.47354">
        <ele>2206</ele>
        <time>2021-08-12T08:50:01.423Z</time>
      </trkpt>
      <trkpt lat="46.86649" lon="8.47353">
        <ele>2207</ele>
        <time>2021-08-12T08:50:02.423Z</time>
      </trkpt>
      <trkpt lat="46.86648" lon="8.47354">
        <ele>2207</ele>
        <time>2021-08-12T08:50:03.423Z</time>
      </trkpt>
      <trkpt lat="46.86648" lon="8.47353">
        <ele>2208</ele>
        <time>2021-08-12T08:50:04.422Z</time>
      </trkpt>
      <trkpt lat="46.86646" lon="8.47353">
        <ele>2209</ele>
        <time>2021-08-12T08:50:05.422Z</time>
      </trkpt>
      <trkpt lat="46.86645" lon="8.47353">
        <ele>2210</ele>
        <time>2021-08-12T08:50:06.423Z</time>
      </trkpt>
      <trkpt lat="46.86644" lon="8.47354">
        <ele>2210</ele>
        <time>2021-08-12T08:50:07.422Z</time>
      </trkpt>
      <trkpt lat="46.86643" lon="8.47355">
        <ele>2211</ele>
        <time>2021-08-12T08:50:08.422Z</time>
      </trkpt>
      <trkpt lat="46.86643" lon="8.47357">
        <ele>2211</ele>
        <time>2021-08-12T08:50:09.423Z</time>
      </trkpt>
      <trkpt lat="46.86642" lon="8.47358">
        <ele>2211</ele>
        <time>2021-08-12T08:50:10.423Z</time>
      </trkpt>
      <trkpt lat="46.86642" lon="8.47359">
        <ele>2212</ele>
        <time>2021-08-12T08:50:11.422Z</time>
      </trkpt>
      <trkpt lat="46.86641" lon="8.4736">
        <ele>2212</ele>
        <time>2021-08-12T08:50:12.422Z</time>
      </trkpt>
      <trkpt lat="46.8664" lon="8.4736">
        <ele>2213</ele>
        <time>2021-08-12T08:50:13.422Z</time>
      </trkpt>
      <trkpt lat="46.8664" lon="8.4736">
        <ele>2213</ele>
        <time>2021-08-12T08:50:14.423Z</time>
      </trkpt>
      <trkpt lat="46.86639" lon="8.47361">
        <ele>2214</ele>
        <time>2021-08-12T08:50:15.422Z</time>
      </trkpt>
      <trkpt lat="46.86639" lon="8.4736">
        <ele>2214</ele>
        <time>2021-08-12T08:50:16.422Z</time>
      </trkpt>
      <trkpt lat="46.86639" lon="8.47359">
        <ele>2215</ele>
        <time>2021-08-12T08:50:17.422Z</time>
      </trkpt>
      <trkpt lat="46.86639" lon="8.47359">
        <ele>2216</ele>
        <time>2021-08-12T08:50:18.422Z</time>
      </trkpt>
      <trkpt lat="46.86639" lon="8.47358">
        <ele>2216</ele>
        <time>2021-08-12T08:50:19.422Z</time>
      </trkpt>
      <trkpt lat="46.86638" lon="8.47357">
        <ele>2217</ele>
        <time>2021-08-12T08:50:20.422Z</time>
      </trkpt>
      <trkpt lat="46.86636" lon="8.47356">
        <ele>2217</ele>
        <time>2021-08-12T08:50:21.422Z</time>
      </trkpt>
      <trkpt lat="46.86635" lon="8.47355">
        <ele>2217</ele>
        <time>2021-08-12T08:50:22.422Z</time>
      </trkpt>
      <trkpt lat="46.86634" lon="8.47354">
        <ele>2217</ele>
        <time>2021-08-12T08:50:23.422Z</time>
      </trkpt>
      <trkpt lat="46.86633" lon="8.47355">
        <ele>2218</ele>
        <time>2021-08-12T08:50:24.422Z</time>
      </trkpt>
      <trkpt lat="46.86632" lon="8.47356">
        <ele>2218</ele>
        <time>2021-08-12T08:50:25.422Z</time>
      </trkpt>
      <trkpt lat="46.86631" lon="8.47357">
        <ele>2218</ele>
        <time>2021-08-12T08:50:26.422Z</time>
      </trkpt>
      <trkpt lat="46.8663" lon="8.47358">
        <ele>2218</ele>
        <time>2021-08-12T08:50:27.422Z</time>
      </trkpt>
      <trkpt lat="46.8663" lon="8.47359">
        <ele>2218</ele>
        <time>2021-08-12T08:50:28.422Z</time>
      </trkpt>
      <trkpt lat="46.86629" lon="8.4736">
        <ele>2218</ele>
        <time>2021-08-12T08:50:29.422Z</time>
      </trkpt>
      <trkpt lat="46.86628" lon="8.47361">
        <ele>2218</ele>
        <time>2021-08-12T08:50:30.423Z</time>
      </trkpt>
      <trkpt lat="46.86627" lon="8.47362">
        <ele>2219</ele>
        <time>2021-08-12T08:50:31.422Z</time>
      </trkpt>
      <trkpt lat="46.86627" lon="8.47363">
        <ele>2219</ele>
        <time>2021-08-12T08:50:32.422Z</time>
      </trkpt>
      <trkpt lat="46.86626" lon="8.47365">
        <ele>2219</ele>
        <time>2021-08-12T08:50:33.422Z</time>
      </trkpt>
      <trkpt lat="46.86626" lon="8.47366">
        <ele>2219</ele>
        <time>2021-08-12T08:50:34.422Z</time>
      </trkpt>
      <trkpt lat="46.86625" lon="8.47368">
        <ele>2218</ele>
        <time>2021-08-12T08:50:35.422Z</time>
      </trkpt>
      <trkpt lat="46.86623" lon="8.4737">
        <ele>2218</ele>
        <time>2021-08-12T08:50:36.422Z</time>
      </trkpt>
      <trkpt lat="46.86622" lon="8.47371">
        <ele>2218</ele>
        <time>2021-08-12T08:50:37.422Z</time>
      </trkpt>
      <trkpt lat="46.86622" lon="8.47373">
        <ele>2217</ele>
        <time>2021-08-12T08:50:38.423Z</time>
      </trkpt>
      <trkpt lat="46.86621" lon="8.47374">
        <ele>2217</ele>
        <time>2021-08-12T08:50:39.422Z</time>
      </trkpt>
      <trkpt lat="46.8662" lon="8.47375">
        <ele>2217</ele>
        <time>2021-08-12T08:50:40.422Z</time>
      </trkpt>
      <trkpt lat="46.86619" lon="8.47376">
        <ele>2216</ele>
        <time>2021-08-12T08:50:41.422Z</time>
      </trkpt>
      <trkpt lat="46.86618" lon="8.47378">
        <ele>2216</ele>
        <time>2021-08-12T08:50:42.423Z</time>
      </trkpt>
      <trkpt lat="46.86617" lon="8.4738">
        <ele>2216</ele>
        <time>2021-08-12T08:50:43.423Z</time>
      </trkpt>
      <trkpt lat="46.86617" lon="8.47382">
        <ele>2216</ele>
        <time>2021-08-12T08:50:44.423Z</time>
      </trkpt>
      <trkpt lat="46.86616" lon="8.47383">
        <ele>2215</ele>
        <time>2021-08-12T08:50:45.423Z</time>
      </trkpt>
      <trkpt lat="46.86616" lon="8.47385">
        <ele>2215</ele>
        <time>2021-08-12T08:50:46.423Z</time>
      </trkpt>
      <trkpt lat="46.86615" lon="8.47386">
        <ele>2215</ele>
        <time>2021-08-12T08:50:47.423Z</time>
      </trkpt>
      <trkpt lat="46.86615" lon="8.47387">
        <ele>2215</ele>
        <time>2021-08-12T08:50:48.423Z</time>
      </trkpt>
      <trkpt lat="46.86614" lon="8.47388">
        <ele>2215</ele>
        <time>2021-08-12T08:50:49.423Z</time>
      </trkpt>
      <trkpt lat="46.86614" lon="8.47389">
        <ele>2215</ele>
        <time>2021-08-12T08:50:50.422Z</time>
      </trkpt>
      <trkpt lat="46.86614" lon="8.4739">
        <ele>2215</ele>
        <time>2021-08-12T08:50:51.423Z</time>
      </trkpt>
      <trkpt lat="46.86613" lon="8.47391">
        <ele>2215</ele>
        <time>2021-08-12T08:50:52.422Z</time>
      </trkpt>
      <trkpt lat="46.86613" lon="8.47393">
        <ele>2215</ele>
        <time>2021-08-12T08:50:53.422Z</time>
      </trkpt>
      <trkpt lat="46.86612" lon="8.47395">
        <ele>2216</ele>
        <time>2021-08-12T08:50:54.423Z</time>
      </trkpt>
      <trkpt lat="46.86613" lon="8.47396">
        <ele>2216</ele>
        <time>2021-08-12T08:50:55.423Z</time>
      </trkpt>
      <trkpt lat="46.86612" lon="8.47398">
        <ele>2217</ele>
        <time>2021-08-12T08:50:56.423Z</time>
      </trkpt>
      <trkpt lat="46.86612" lon="8.47399">
        <ele>2218</ele>
        <time>2021-08-12T08:50:57.423Z</time>
      </trkpt>
      <trkpt lat="46.86611" lon="8.47401">
        <ele>2218</ele>
        <time>2021-08-12T08:50:58.423Z</time>
      </trkpt>
      <trkpt lat="46.86611" lon="8.47402">
        <ele>2218</ele>
        <time>2021-08-12T08:50:59.422Z</time>
      </trkpt>
      <trkpt lat="46.8661" lon="8.47403">
        <ele>2218</ele>
        <time>2021-08-12T08:51:00.423Z</time>
      </trkpt>
      <trkpt lat="46.8661" lon="8.47404">
        <ele>2219</ele>
        <time>2021-08-12T08:51:01.422Z</time>
      </trkpt>
      <trkpt lat="46.8661" lon="8.47404">
        <ele>2219</ele>
        <time>2021-08-12T08:51:02.422Z</time>
      </trkpt>
      <trkpt lat="46.86609" lon="8.47404">
        <ele>2219</ele>
        <time>2021-08-12T08:51:03.423Z</time>
      </trkpt>
      <trkpt lat="46.86609" lon="8.47403">
        <ele>2218</ele>
        <time>2021-08-12T08:51:04.422Z</time>
      </trkpt>
      <trkpt lat="46.86609" lon="8.47403">
        <ele>2218</ele>
        <time>2021-08-12T08:51:05.423Z</time>
      </trkpt>
      <trkpt lat="46.86608" lon="8.47403">
        <ele>2218</ele>
        <time>2021-08-12T08:51:06.422Z</time>
      </trkpt>
      <trkpt lat="46.86608" lon="8.47404">
        <ele>2218</ele>
        <time>2021-08-12T08:51:07.422Z</time>
      </trkpt>
      <trkpt lat="46.86607" lon="8.47404">
        <ele>2218</ele>
        <time>2021-08-12T08:51:08.422Z</time>
      </trkpt>
      <trkpt lat="46.86606" lon="8.47405">
        <ele>2217</ele>
        <time>2021-08-12T08:51:09.422Z</time>
      </trkpt>
      <trkpt lat="46.86604" lon="8.47406">
        <ele>2217</ele>
        <time>2021-08-12T08:51:10.423Z</time>
      </trkpt>
      <trkpt lat="46.86604" lon="8.47407">
        <ele>2216</ele>
        <time>2021-08-12T08:51:11.423Z</time>
      </trkpt>
      <trkpt lat="46.86603" lon="8.47407">
        <ele>2216</ele>
        <time>2021-08-12T08:51:12.423Z</time>
      </trkpt>
      <trkpt lat="46.86602" lon="8.47408">
        <ele>2215</ele>
        <time>2021-08-12T08:51:13.423Z</time>
      </trkpt>
      <trkpt lat="46.86601" lon="8.47408">
        <ele>2215</ele>
        <time>2021-08-12T08:51:14.422Z</time>
      </trkpt>
      <trkpt lat="46.866" lon="8.47408">
        <ele>2214</ele>
        <time>2021-08-12T08:51:15.422Z</time>
      </trkpt>
      <trkpt lat="46.86599" lon="8.47409">
        <ele>2213</ele>
        <time>2021-08-12T08:51:16.423Z</time>
      </trkpt>
      <trkpt lat="46.86599" lon="8.4741">
        <ele>2213</ele>
        <time>2021-08-12T08:51:17.423Z</time>
      </trkpt>
      <trkpt lat="46.86598" lon="8.47411">
        <ele>2212</ele>
        <time>2021-08-12T08:51:18.423Z</time>
      </trkpt>
      <trkpt lat="46.86597" lon="8.47412">
        <ele>2211</ele>
        <time>2021-08-12T08:51:19.422Z</time>
      </trkpt>
      <trkpt lat="46.86596" lon="8.47413">
        <ele>2211</ele>
        <time>2021-08-12T08:51:20.422Z</time>
      </trkpt>
      <trkpt lat="46.86595" lon="8.47414">
        <ele>2210</ele>
        <time>2021-08-12T08:51:21.423Z</time>
      </trkpt>
      <trkpt lat="46.86595" lon="8.47414">
        <ele>2209</ele>
        <time>2021-08-12T08:51:22.423Z</time>
      </trkpt>
      <trkpt lat="46.86595" lon="8.47414">
        <ele>2209</ele>
        <time>2021-08-12T08:51:23.423Z</time>
      </trkpt>
      <trkpt lat="46.86595" lon="8.47414">
        <ele>2209</ele>
        <time>2021-08-12T08:51:24.423Z</time>
      </trkpt>
      <trkpt lat="46.86595" lon="8.47414">
        <ele>2209</ele>
        <time>2021-08-12T08:51:25.423Z</time>
      </trkpt>
      <trkpt lat="46.86595" lon="8.47416">
        <ele>2209</ele>
        <time>2021-08-12T08:51:26.423Z</time>
      </trkpt>
      <trkpt lat="46.86594" lon="8.47417">
        <ele>2210</ele>
        <time>2021-08-12T08:51:27.422Z</time>
      </trkpt>
      <trkpt lat="46.86594" lon="8.47417">
        <ele>2210</ele>
        <time>2021-08-12T08:51:28.423Z</time>
      </trkpt>
      <trkpt lat="46.86593" lon="8.47418">
        <ele>2211</ele>
        <time>2021-08-12T08:51:29.423Z</time>
      </trkpt>
      <trkpt lat="46.86592" lon="8.47418">
        <ele>2211</ele>
        <time>2021-08-12T08:51:30.423Z</time>
      </trkpt>
      <trkpt lat="46.86591" lon="8.47418">
        <ele>2211</ele>
        <time>2021-08-12T08:51:31.423Z</time>
      </trkpt>
      <trkpt lat="46.86591" lon="8.47418">
        <ele>2210</ele>
        <time>2021-08-12T08:51:32.422Z</time>
      </trkpt>
      <trkpt lat="46.8659" lon="8.47418">
        <ele>2210</ele>
        <time>2021-08-12T08:51:33.423Z</time>
      </trkpt>
      <trkpt lat="46.8659" lon="8.47419">
        <ele>2210</ele>
        <time>2021-08-12T08:51:34.423Z</time>
      </trkpt>
      <trkpt lat="46.86589" lon="8.47419">
        <ele>2210</ele>
        <time>2021-08-12T08:51:35.422Z</time>
      </trkpt>
      <trkpt lat="46.86588" lon="8.47419">
        <ele>2211</ele>
        <time>2021-08-12T08:51:36.423Z</time>
      </trkpt>
      <trkpt lat="46.86587" lon="8.4742">
        <ele>2211</ele>
        <time>2021-08-12T08:51:37.423Z</time>
      </trkpt>
      <trkpt lat="46.86587" lon="8.47422">
        <ele>2211</ele>
        <time>2021-08-12T08:51:38.422Z</time>
      </trkpt>
      <trkpt lat="46.86586" lon="8.47423">
        <ele>2211</ele>
        <time>2021-08-12T08:51:39.423Z</time>
      </trkpt>
      <trkpt lat="46.86585" lon="8.47424">
        <ele>2211</ele>
        <time>2021-08-12T08:51:40.423Z</time>
      </trkpt>
      <trkpt lat="46.86585" lon="8.47425">
        <ele>2211</ele>
        <time>2021-08-12T08:51:41.423Z</time>
      </trkpt>
      <trkpt lat="46.86584" lon="8.47425">
        <ele>2211</ele>
        <time>2021-08-12T08:51:42.422Z</time>
      </trkpt>
      <trkpt lat="46.86584" lon="8.47425">
        <ele>2212</ele>
        <time>2021-08-12T08:51:43.423Z</time>
      </trkpt>
      <trkpt lat="46.86583" lon="8.47425">
        <ele>2212</ele>
        <time>2021-08-12T08:51:44.422Z</time>
      </trkpt>
      <trkpt lat="46.86583" lon="8.47426">
        <ele>2212</ele>
        <time>2021-08-12T08:51:45.423Z</time>
      </trkpt>
      <trkpt lat="46.86582" lon="8.47427">
        <ele>2212</ele>
        <time>2021-08-12T08:51:46.422Z</time>
      </trkpt>
      <trkpt lat="46.86581" lon="8.47429">
        <ele>2212</ele>
        <time>2021-08-12T08:51:47.423Z</time>
      </trkpt>
      <trkpt lat="46.86581" lon="8.47431">
        <ele>2212</ele>
        <time>2021-08-12T08:51:48.422Z</time>
      </trkpt>
      <trkpt lat="46.8658" lon="8.47432">
        <ele>2212</ele>
        <time>2021-08-12T08:51:49.422Z</time>
      </trkpt>
      <trkpt lat="46.86579" lon="8.47432">
        <ele>2213</ele>
        <time>2021-08-12T08:51:50.423Z</time>
      </trkpt>
      <trkpt lat="46.86579" lon="8.47432">
        <ele>2213</ele>
        <time>2021-08-12T08:51:51.423Z</time>
      </trkpt>
      <trkpt lat="46.86578" lon="8.47433">
        <ele>2213</ele>
        <time>2021-08-12T08:51:52.423Z</time>
      </trkpt>
      <trkpt lat="46.86578" lon="8.47433">
        <ele>2213</ele>
        <time>2021-08-12T08:51:53.423Z</time>
      </trkpt>
      <trkpt lat="46.86578" lon="8.47434">
        <ele>2214</ele>
        <time>2021-08-12T08:51:54.422Z</time>
      </trkpt>
      <trkpt lat="46.86578" lon="8.47433">
        <ele>2214</ele>
        <time>2021-08-12T08:51:55.422Z</time>
      </trkpt>
      <trkpt lat="46.86578" lon="8.47433">
        <ele>2214</ele>
        <time>2021-08-12T08:51:56.422Z</time>
      </trkpt>
      <trkpt lat="46.86577" lon="8.47433">
        <ele>2213</ele>
        <time>2021-08-12T08:51:57.423Z</time>
      </trkpt>
      <trkpt lat="46.86576" lon="8.47433">
        <ele>2213</ele>
        <time>2021-08-12T08:51:58.422Z</time>
      </trkpt>
      <trkpt lat="46.86576" lon="8.47433">
        <ele>2213</ele>
        <time>2021-08-12T08:51:59.423Z</time>
      </trkpt>
      <trkpt lat="46.86575" lon="8.47433">
        <ele>2214</ele>
        <time>2021-08-12T08:52:00.423Z</time>
      </trkpt>
      <trkpt lat="46.86574" lon="8.47432">
        <ele>2214</ele>
        <time>2021-08-12T08:52:01.423Z</time>
      </trkpt>
      <trkpt lat="46.86573" lon="8.47432">
        <ele>2214</ele>
        <time>2021-08-12T08:52:02.422Z</time>
      </trkpt>
      <trkpt lat="46.86573" lon="8.47432">
        <ele>2215</ele>
        <time>2021-08-12T08:52:03.423Z</time>
      </trkpt>
      <trkpt lat="46.86572" lon="8.47432">
        <ele>2216</ele>
        <time>2021-08-12T08:52:04.423Z</time>
      </trkpt>
      <trkpt lat="46.86572" lon="8.47432">
        <ele>2216</ele>
        <time>2021-08-12T08:52:05.423Z</time>
      </trkpt>
      <trkpt lat="46.86572" lon="8.47431">
        <ele>2216</ele>
        <time>2021-08-12T08:52:06.422Z</time>
      </trkpt>
      <trkpt lat="46.86571" lon="8.47431">
        <ele>2217</ele>
        <time>2021-08-12T08:52:07.423Z</time>
      </trkpt>
      <trkpt lat="46.86571" lon="8.47431">
        <ele>2217</ele>
        <time>2021-08-12T08:52:08.423Z</time>
      </trkpt>
      <trkpt lat="46.8657" lon="8.47432">
        <ele>2217</ele>
        <time>2021-08-12T08:52:09.423Z</time>
      </trkpt>
      <trkpt lat="46.8657" lon="8.47432">
        <ele>2217</ele>
        <time>2021-08-12T08:52:10.422Z</time>
      </trkpt>
      <trkpt lat="46.8657" lon="8.47432">
        <ele>2217</ele>
        <time>2021-08-12T08:52:11.423Z</time>
      </trkpt>
      <trkpt lat="46.86569" lon="8.47432">
        <ele>2218</ele>
        <time>2021-08-12T08:52:12.422Z</time>
      </trkpt>
      <trkpt lat="46.86568" lon="8.47433">
        <ele>2218</ele>
        <time>2021-08-12T08:52:13.423Z</time>
      </trkpt>
      <trkpt lat="46.86568" lon="8.47433">
        <ele>2218</ele>
        <time>2021-08-12T08:52:14.423Z</time>
      </trkpt>
      <trkpt lat="46.86567" lon="8.47434">
        <ele>2218</ele>
        <time>2021-08-12T08:52:15.423Z</time>
      </trkpt>
      <trkpt lat="46.86566" lon="8.47435">
        <ele>2219</ele>
        <time>2021-08-12T08:52:16.422Z</time>
      </trkpt>
      <trkpt lat="46.86566" lon="8.47436">
        <ele>2219</ele>
        <time>2021-08-12T08:52:17.423Z</time>
      </trkpt>
      <trkpt lat="46.86566" lon="8.47437">
        <ele>2219</ele>
        <time>2021-08-12T08:52:18.422Z</time>
      </trkpt>
      <trkpt lat="46.86566" lon="8.47437">
        <ele>2219</ele>
        <time>2021-08-12T08:52:19.423Z</time>
      </trkpt>
      <trkpt lat="46.86566" lon="8.47438">
        <ele>2219</ele>
        <time>2021-08-12T08:52:20.423Z</time>
      </trkpt>
      <trkpt lat="46.86566" lon="8.47439">
        <ele>2219</ele>
        <time>2021-08-12T08:52:21.423Z</time>
      </trkpt>
      <trkpt lat="46.86565" lon="8.4744">
        <ele>2219</ele>
        <time>2021-08-12T08:52:22.423Z</time>
      </trkpt>
      <trkpt lat="46.86563" lon="8.47441">
        <ele>2219</ele>
        <time>2021-08-12T08:52:23.423Z</time>
      </trkpt>
      <trkpt lat="46.86562" lon="8.47441">
        <ele>2219</ele>
        <time>2021-08-12T08:52:24.423Z</time>
      </trkpt>
      <trkpt lat="46.86562" lon="8.47441">
        <ele>2219</ele>
        <time>2021-08-12T08:52:25.423Z</time>
      </trkpt>
      <trkpt lat="46.86562" lon="8.47441">
        <ele>2219</ele>
        <time>2021-08-12T08:52:26.422Z</time>
      </trkpt>
      <trkpt lat="46.86563" lon="8.47442">
        <ele>2219</ele>
        <time>2021-08-12T08:52:27.422Z</time>
      </trkpt>
      <trkpt lat="46.86562" lon="8.47441">
        <ele>2221</ele>
        <time>2021-08-12T08:52:28.423Z</time>
      </trkpt>
      <trkpt lat="46.86561" lon="8.47442">
        <ele>2221</ele>
        <time>2021-08-12T08:52:29.424Z</time>
      </trkpt>
      <trkpt lat="46.8656" lon="8.47442">
        <ele>2221</ele>
        <time>2021-08-12T08:52:30.423Z</time>
      </trkpt>
      <trkpt lat="46.8656" lon="8.47443">
        <ele>2221</ele>
        <time>2021-08-12T08:52:31.424Z</time>
      </trkpt>
      <trkpt lat="46.86559" lon="8.47444">
        <ele>2221</ele>
        <time>2021-08-12T08:52:32.424Z</time>
      </trkpt>
      <trkpt lat="46.86559" lon="8.47445">
        <ele>2222</ele>
        <time>2021-08-12T08:52:33.423Z</time>
      </trkpt>
      <trkpt lat="46.86558" lon="8.47446">
        <ele>2222</ele>
        <time>2021-08-12T08:52:34.424Z</time>
      </trkpt>
      <trkpt lat="46.86558" lon="8.47446">
        <ele>2222</ele>
        <time>2021-08-12T08:52:35.423Z</time>
      </trkpt>
      <trkpt lat="46.86557" lon="8.47446">
        <ele>2222</ele>
        <time>2021-08-12T08:52:36.424Z</time>
      </trkpt>
      <trkpt lat="46.86557" lon="8.47446">
        <ele>2222</ele>
        <time>2021-08-12T08:52:37.424Z</time>
      </trkpt>
      <trkpt lat="46.86556" lon="8.47446">
        <ele>2222</ele>
        <time>2021-08-12T08:52:38.424Z</time>
      </trkpt>
      <trkpt lat="46.86555" lon="8.47446">
        <ele>2222</ele>
        <time>2021-08-12T08:52:39.423Z</time>
      </trkpt>
      <trkpt lat="46.86554" lon="8.47447">
        <ele>2222</ele>
        <time>2021-08-12T08:52:40.424Z</time>
      </trkpt>
      <trkpt lat="46.86553" lon="8.47448">
        <ele>2222</ele>
        <time>2021-08-12T08:52:41.423Z</time>
      </trkpt>
      <trkpt lat="46.86552" lon="8.47449">
        <ele>2222</ele>
        <time>2021-08-12T08:52:42.423Z</time>
      </trkpt>
      <trkpt lat="46.86551" lon="8.47449">
        <ele>2223</ele>
        <time>2021-08-12T08:52:43.423Z</time>
      </trkpt>
      <trkpt lat="46.8655" lon="8.47449">
        <ele>2223</ele>
        <time>2021-08-12T08:52:44.423Z</time>
      </trkpt>
      <trkpt lat="46.8655" lon="8.47448">
        <ele>2224</ele>
        <time>2021-08-12T08:52:45.424Z</time>
      </trkpt>
      <trkpt lat="46.8655" lon="8.47448">
        <ele>2224</ele>
        <time>2021-08-12T08:52:46.424Z</time>
      </trkpt>
      <trkpt lat="46.8655" lon="8.47447">
        <ele>2225</ele>
        <time>2021-08-12T08:52:47.424Z</time>
      </trkpt>
      <trkpt lat="46.8655" lon="8.47447">
        <ele>2225</ele>
        <time>2021-08-12T08:52:48.424Z</time>
      </trkpt>
      <trkpt lat="46.8655" lon="8.47448">
        <ele>2225</ele>
        <time>2021-08-12T08:52:49.424Z</time>
      </trkpt>
      <trkpt lat="46.86549" lon="8.4745">
        <ele>2225</ele>
        <time>2021-08-12T08:52:50.424Z</time>
      </trkpt>
      <trkpt lat="46.86548" lon="8.47452">
        <ele>2225</ele>
        <time>2021-08-12T08:52:51.424Z</time>
      </trkpt>
      <trkpt lat="46.86547" lon="8.47453">
        <ele>2225</ele>
        <time>2021-08-12T08:52:52.424Z</time>
      </trkpt>
      <trkpt lat="46.86547" lon="8.47454">
        <ele>2225</ele>
        <time>2021-08-12T08:52:53.424Z</time>
      </trkpt>
      <trkpt lat="46.86546" lon="8.47455">
        <ele>2224</ele>
        <time>2021-08-12T08:52:54.424Z</time>
      </trkpt>
      <trkpt lat="46.86546" lon="8.47455">
        <ele>2224</ele>
        <time>2021-08-12T08:52:55.424Z</time>
      </trkpt>
      <trkpt lat="46.86546" lon="8.47455">
        <ele>2223</ele>
        <time>2021-08-12T08:52:56.424Z</time>
      </trkpt>
      <trkpt lat="46.86546" lon="8.47455">
        <ele>2223</ele>
        <time>2021-08-12T08:52:57.423Z</time>
      </trkpt>
      <trkpt lat="46.86546" lon="8.47455">
        <ele>2222</ele>
        <time>2021-08-12T08:52:58.423Z</time>
      </trkpt>
      <trkpt lat="46.86546" lon="8.47456">
        <ele>2222</ele>
        <time>2021-08-12T08:52:59.424Z</time>
      </trkpt>
      <trkpt lat="46.86546" lon="8.47457">
        <ele>2221</ele>
        <time>2021-08-12T08:53:00.423Z</time>
      </trkpt>
      <trkpt lat="46.86546" lon="8.47459">
        <ele>2221</ele>
        <time>2021-08-12T08:53:01.423Z</time>
      </trkpt>
      <trkpt lat="46.86546" lon="8.4746">
        <ele>2220</ele>
        <time>2021-08-12T08:53:02.423Z</time>
      </trkpt>
      <trkpt lat="46.86546" lon="8.47461">
        <ele>2220</ele>
        <time>2021-08-12T08:53:03.424Z</time>
      </trkpt>
      <trkpt lat="46.86546" lon="8.47461">
        <ele>2220</ele>
        <time>2021-08-12T08:53:04.423Z</time>
      </trkpt>
      <trkpt lat="46.86546" lon="8.47462">
        <ele>2219</ele>
        <time>2021-08-12T08:53:05.424Z</time>
      </trkpt>
      <trkpt lat="46.86546" lon="8.47464">
        <ele>2219</ele>
        <time>2021-08-12T08:53:06.425Z</time>
      </trkpt>
      <trkpt lat="46.86546" lon="8.47464">
        <ele>2219</ele>
        <time>2021-08-12T08:53:07.425Z</time>
      </trkpt>
      <trkpt lat="46.86544" lon="8.47465">
        <ele>2219</ele>
        <time>2021-08-12T08:53:08.426Z</time>
      </trkpt>
      <trkpt lat="46.86544" lon="8.47465">
        <ele>2219</ele>
        <time>2021-08-12T08:53:09.425Z</time>
      </trkpt>
      <trkpt lat="46.86545" lon="8.47466">
        <ele>2219</ele>
        <time>2021-08-12T08:53:10.426Z</time>
      </trkpt>
      <trkpt lat="46.86545" lon="8.47467">
        <ele>2220</ele>
        <time>2021-08-12T08:53:11.425Z</time>
      </trkpt>
      <trkpt lat="46.86546" lon="8.47467">
        <ele>2220</ele>
        <time>2021-08-12T08:53:12.426Z</time>
      </trkpt>
      <trkpt lat="46.86547" lon="8.47467">
        <ele>2220</ele>
        <time>2021-08-12T08:53:13.427Z</time>
      </trkpt>
      <trkpt lat="46.86547" lon="8.47466">
        <ele>2220</ele>
        <time>2021-08-12T08:53:14.426Z</time>
      </trkpt>
      <trkpt lat="46.86546" lon="8.4747">
        <ele>2216</ele>
        <time>2021-08-12T08:53:15.426Z</time>
      </trkpt>
      <trkpt lat="46.86546" lon="8.4747">
        <ele>2215</ele>
        <time>2021-08-12T08:53:16.427Z</time>
      </trkpt>
      <trkpt lat="46.86546" lon="8.47471">
        <ele>2215</ele>
        <time>2021-08-12T08:53:17.426Z</time>
      </trkpt>
      <trkpt lat="46.86546" lon="8.47471">
        <ele>2215</ele>
        <time>2021-08-12T08:53:18.427Z</time>
      </trkpt>
      <trkpt lat="46.86546" lon="8.4747">
        <ele>2215</ele>
        <time>2021-08-12T08:53:19.426Z</time>
      </trkpt>
      <trkpt lat="46.86547" lon="8.47472">
        <ele>2217</ele>
        <time>2021-08-12T08:53:20.427Z</time>
      </trkpt>
      <trkpt lat="46.86547" lon="8.47472">
        <ele>2217</ele>
        <time>2021-08-12T08:53:21.426Z</time>
      </trkpt>
      <trkpt lat="46.86545" lon="8.47473">
        <ele>2219</ele>
        <time>2021-08-12T08:53:22.426Z</time>
      </trkpt>
      <trkpt lat="46.86544" lon="8.47473">
        <ele>2219</ele>
        <time>2021-08-12T08:53:23.426Z</time>
      </trkpt>
      <trkpt lat="46.86544" lon="8.47473">
        <ele>2219</ele>
        <time>2021-08-12T08:53:24.427Z</time>
      </trkpt>
      <trkpt lat="46.86543" lon="8.47473">
        <ele>2219</ele>
        <time>2021-08-12T08:53:25.427Z</time>
      </trkpt>
      <trkpt lat="46.86543" lon="8.47474">
        <ele>2219</ele>
        <time>2021-08-12T08:53:26.427Z</time>
      </trkpt>
      <trkpt lat="46.86542" lon="8.47474">
        <ele>2219</ele>
        <time>2021-08-12T08:53:27.426Z</time>
      </trkpt>
      <trkpt lat="46.86542" lon="8.47475">
        <ele>2219</ele>
        <time>2021-08-12T08:53:28.426Z</time>
      </trkpt>
      <trkpt lat="46.86541" lon="8.47476">
        <ele>2219</ele>
        <time>2021-08-12T08:53:29.427Z</time>
      </trkpt>
      <trkpt lat="46.86541" lon="8.47478">
        <ele>2218</ele>
        <time>2021-08-12T08:53:30.427Z</time>
      </trkpt>
      <trkpt lat="46.8654" lon="8.47479">
        <ele>2218</ele>
        <time>2021-08-12T08:53:31.426Z</time>
      </trkpt>
      <trkpt lat="46.86539" lon="8.4748">
        <ele>2218</ele>
        <time>2021-08-12T08:53:32.427Z</time>
      </trkpt>
      <trkpt lat="46.86538" lon="8.47481">
        <ele>2219</ele>
        <time>2021-08-12T08:53:33.426Z</time>
      </trkpt>
      <trkpt lat="46.86537" lon="8.47482">
        <ele>2219</ele>
        <time>2021-08-12T08:53:34.427Z</time>
      </trkpt>
      <trkpt lat="46.86536" lon="8.47484">
        <ele>2219</ele>
        <time>2021-08-12T08:53:35.427Z</time>
      </trkpt>
      <trkpt lat="46.86536" lon="8.47485">
        <ele>2219</ele>
        <time>2021-08-12T08:53:36.427Z</time>
      </trkpt>
      <trkpt lat="46.86536" lon="8.47487">
        <ele>2219</ele>
        <time>2021-08-12T08:53:37.427Z</time>
      </trkpt>
      <trkpt lat="46.86536" lon="8.47488">
        <ele>2219</ele>
        <time>2021-08-12T08:53:38.427Z</time>
      </trkpt>
      <trkpt lat="46.86536" lon="8.47488">
        <ele>2219</ele>
        <time>2021-08-12T08:53:39.426Z</time>
      </trkpt>
      <trkpt lat="46.86536" lon="8.47488">
        <ele>2220</ele>
        <time>2021-08-12T08:53:40.426Z</time>
      </trkpt>
      <trkpt lat="46.86535" lon="8.47489">
        <ele>2220</ele>
        <time>2021-08-12T08:53:41.427Z</time>
      </trkpt>
      <trkpt lat="46.86534" lon="8.4749">
        <ele>2220</ele>
        <time>2021-08-12T08:53:42.426Z</time>
      </trkpt>
      <trkpt lat="46.86534" lon="8.47491">
        <ele>2221</ele>
        <time>2021-08-12T08:53:43.427Z</time>
      </trkpt>
      <trkpt lat="46.86533" lon="8.47491">
        <ele>2221</ele>
        <time>2021-08-12T08:53:44.427Z</time>
      </trkpt>
      <trkpt lat="46.86533" lon="8.47492">
        <ele>2221</ele>
        <time>2021-08-12T08:53:45.427Z</time>
      </trkpt>
      <trkpt lat="46.86532" lon="8.47493">
        <ele>2221</ele>
        <time>2021-08-12T08:53:46.427Z</time>
      </trkpt>
      <trkpt lat="46.86531" lon="8.47494">
        <ele>2220</ele>
        <time>2021-08-12T08:53:47.427Z</time>
      </trkpt>
      <trkpt lat="46.8653" lon="8.47494">
        <ele>2220</ele>
        <time>2021-08-12T08:53:48.426Z</time>
      </trkpt>
      <trkpt lat="46.86529" lon="8.47494">
        <ele>2220</ele>
        <time>2021-08-12T08:53:49.427Z</time>
      </trkpt>
      <trkpt lat="46.86528" lon="8.47493">
        <ele>2220</ele>
        <time>2021-08-12T08:53:50.427Z</time>
      </trkpt>
      <trkpt lat="46.86527" lon="8.47494">
        <ele>2220</ele>
        <time>2021-08-12T08:53:51.427Z</time>
      </trkpt>
      <trkpt lat="46.86527" lon="8.47494">
        <ele>2220</ele>
        <time>2021-08-12T08:53:52.426Z</time>
      </trkpt>
      <trkpt lat="46.86526" lon="8.47494">
        <ele>2220</ele>
        <time>2021-08-12T08:53:53.427Z</time>
      </trkpt>
      <trkpt lat="46.86525" lon="8.47495">
        <ele>2220</ele>
        <time>2021-08-12T08:53:54.426Z</time>
      </trkpt>
      <trkpt lat="46.86524" lon="8.47496">
        <ele>2220</ele>
        <time>2021-08-12T08:53:55.427Z</time>
      </trkpt>
      <trkpt lat="46.86523" lon="8.47497">
        <ele>2221</ele>
        <time>2021-08-12T08:53:56.426Z</time>
      </trkpt>
      <trkpt lat="46.86522" lon="8.47498">
        <ele>2221</ele>
        <time>2021-08-12T08:53:57.426Z</time>
      </trkpt>
      <trkpt lat="46.86521" lon="8.47499">
        <ele>2222</ele>
        <time>2021-08-12T08:53:58.427Z</time>
      </trkpt>
      <trkpt lat="46.8652" lon="8.475">
        <ele>2222</ele>
        <time>2021-08-12T08:53:59.427Z</time>
      </trkpt>
      <trkpt lat="46.86519" lon="8.47501">
        <ele>2222</ele>
        <time>2021-08-12T08:54:00.426Z</time>
      </trkpt>
      <trkpt lat="46.86519" lon="8.47502">
        <ele>2222</ele>
        <time>2021-08-12T08:54:01.426Z</time>
      </trkpt>
      <trkpt lat="46.86518" lon="8.47502">
        <ele>2222</ele>
        <time>2021-08-12T08:54:02.426Z</time>
      </trkpt>
      <trkpt lat="46.86517" lon="8.47503">
        <ele>2222</ele>
        <time>2021-08-12T08:54:03.427Z</time>
      </trkpt>
      <trkpt lat="46.86516" lon="8.47505">
        <ele>2222</ele>
        <time>2021-08-12T08:54:04.427Z</time>
      </trkpt>
      <trkpt lat="46.86515" lon="8.47506">
        <ele>2222</ele>
        <time>2021-08-12T08:54:05.427Z</time>
      </trkpt>
      <trkpt lat="46.86514" lon="8.47506">
        <ele>2222</ele>
        <time>2021-08-12T08:54:06.427Z</time>
      </trkpt>
      <trkpt lat="46.86513" lon="8.47507">
        <ele>2221</ele>
        <time>2021-08-12T08:54:07.426Z</time>
      </trkpt>
      <trkpt lat="46.86513" lon="8.47508">
        <ele>2221</ele>
        <time>2021-08-12T08:54:08.426Z</time>
      </trkpt>
      <trkpt lat="46.86512" lon="8.47509">
        <ele>2222</ele>
        <time>2021-08-12T08:54:09.427Z</time>
      </trkpt>
      <trkpt lat="46.86512" lon="8.47511">
        <ele>2222</ele>
        <time>2021-08-12T08:54:10.427Z</time>
      </trkpt>
      <trkpt lat="46.86512" lon="8.47512">
        <ele>2221</ele>
        <time>2021-08-12T08:54:11.427Z</time>
      </trkpt>
      <trkpt lat="46.86512" lon="8.47514">
        <ele>2221</ele>
        <time>2021-08-12T08:54:12.426Z</time>
      </trkpt>
      <trkpt lat="46.86512" lon="8.47515">
        <ele>2220</ele>
        <time>2021-08-12T08:54:13.427Z</time>
      </trkpt>
      <trkpt lat="46.86512" lon="8.47517">
        <ele>2220</ele>
        <time>2021-08-12T08:54:14.427Z</time>
      </trkpt>
      <trkpt lat="46.86512" lon="8.47518">
        <ele>2219</ele>
        <time>2021-08-12T08:54:15.427Z</time>
      </trkpt>
      <trkpt lat="46.86512" lon="8.4752">
        <ele>2219</ele>
        <time>2021-08-12T08:54:16.427Z</time>
      </trkpt>
      <trkpt lat="46.86512" lon="8.47523">
        <ele>2219</ele>
        <time>2021-08-12T08:54:17.427Z</time>
      </trkpt>
      <trkpt lat="46.86512" lon="8.47525">
        <ele>2219</ele>
        <time>2021-08-12T08:54:18.426Z</time>
      </trkpt>
      <trkpt lat="46.86511" lon="8.47526">
        <ele>2219</ele>
        <time>2021-08-12T08:54:19.427Z</time>
      </trkpt>
      <trkpt lat="46.8651" lon="8.47528">
        <ele>2219</ele>
        <time>2021-08-12T08:54:20.427Z</time>
      </trkpt>
      <trkpt lat="46.86509" lon="8.47531">
        <ele>2219</ele>
        <time>2021-08-12T08:54:21.427Z</time>
      </trkpt>
      <trkpt lat="46.86508" lon="8.47534">
        <ele>2219</ele>
        <time>2021-08-12T08:54:22.427Z</time>
      </trkpt>
      <trkpt lat="46.86507" lon="8.47536">
        <ele>2219</ele>
        <time>2021-08-12T08:54:23.426Z</time>
      </trkpt>
      <trkpt lat="46.86506" lon="8.47537">
        <ele>2218</ele>
        <time>2021-08-12T08:54:24.426Z</time>
      </trkpt>
      <trkpt lat="46.86506" lon="8.47537">
        <ele>2218</ele>
        <time>2021-08-12T08:54:25.426Z</time>
      </trkpt>
      <trkpt lat="46.86505" lon="8.47537">
        <ele>2218</ele>
        <time>2021-08-12T08:54:26.426Z</time>
      </trkpt>
      <trkpt lat="46.86504" lon="8.47536">
        <ele>2218</ele>
        <time>2021-08-12T08:54:27.426Z</time>
      </trkpt>
      <trkpt lat="46.86503" lon="8.47535">
        <ele>2218</ele>
        <time>2021-08-12T08:54:28.426Z</time>
      </trkpt>
      <trkpt lat="46.86502" lon="8.47535">
        <ele>2218</ele>
        <time>2021-08-12T08:54:29.426Z</time>
      </trkpt>
      <trkpt lat="46.86502" lon="8.47536">
        <ele>2218</ele>
        <time>2021-08-12T08:54:30.427Z</time>
      </trkpt>
      <trkpt lat="46.86501" lon="8.47536">
        <ele>2218</ele>
        <time>2021-08-12T08:54:31.427Z</time>
      </trkpt>
      <trkpt lat="46.865" lon="8.47537">
        <ele>2218</ele>
        <time>2021-08-12T08:54:32.427Z</time>
      </trkpt>
      <trkpt lat="46.86499" lon="8.47537">
        <ele>2218</ele>
        <time>2021-08-12T08:54:33.427Z</time>
      </trkpt>
      <trkpt lat="46.86499" lon="8.47538">
        <ele>2217</ele>
        <time>2021-08-12T08:54:34.426Z</time>
      </trkpt>
      <trkpt lat="46.86498" lon="8.47538">
        <ele>2217</ele>
        <time>2021-08-12T08:54:35.427Z</time>
      </trkpt>
      <trkpt lat="46.86498" lon="8.47539">
        <ele>2216</ele>
        <time>2021-08-12T08:54:36.427Z</time>
      </trkpt>
      <trkpt lat="46.86497" lon="8.4754">
        <ele>2215</ele>
        <time>2021-08-12T08:54:37.427Z</time>
      </trkpt>
      <trkpt lat="46.86497" lon="8.47542">
        <ele>2214</ele>
        <time>2021-08-12T08:54:38.426Z</time>
      </trkpt>
      <trkpt lat="46.86496" lon="8.47542">
        <ele>2213</ele>
        <time>2021-08-12T08:54:39.427Z</time>
      </trkpt>
      <trkpt lat="46.86495" lon="8.47543">
        <ele>2212</ele>
        <time>2021-08-12T08:54:40.426Z</time>
      </trkpt>
      <trkpt lat="46.86494" lon="8.47545">
        <ele>2212</ele>
        <time>2021-08-12T08:54:41.427Z</time>
      </trkpt>
      <trkpt lat="46.86493" lon="8.47545">
        <ele>2211</ele>
        <time>2021-08-12T08:54:42.427Z</time>
      </trkpt>
      <trkpt lat="46.86493" lon="8.47544">
        <ele>2210</ele>
        <time>2021-08-12T08:54:43.427Z</time>
      </trkpt>
      <trkpt lat="46.86494" lon="8.47541">
        <ele>2210</ele>
        <time>2021-08-12T08:54:44.427Z</time>
      </trkpt>
      <trkpt lat="46.86494" lon="8.4754">
        <ele>2209</ele>
        <time>2021-08-12T08:54:45.427Z</time>
      </trkpt>
      <trkpt lat="46.86493" lon="8.47541">
        <ele>2208</ele>
        <time>2021-08-12T08:54:46.427Z</time>
      </trkpt>
      <trkpt lat="46.86493" lon="8.47543">
        <ele>2208</ele>
        <time>2021-08-12T08:54:47.426Z</time>
      </trkpt>
      <trkpt lat="46.86492" lon="8.47545">
        <ele>2207</ele>
        <time>2021-08-12T08:54:48.426Z</time>
      </trkpt>
      <trkpt lat="46.86491" lon="8.47546">
        <ele>2207</ele>
        <time>2021-08-12T08:54:49.426Z</time>
      </trkpt>
      <trkpt lat="46.86491" lon="8.47547">
        <ele>2207</ele>
        <time>2021-08-12T08:54:50.426Z</time>
      </trkpt>
      <trkpt lat="46.86491" lon="8.47548">
        <ele>2207</ele>
        <time>2021-08-12T08:54:51.426Z</time>
      </trkpt>
      <trkpt lat="46.86491" lon="8.47549">
        <ele>2208</ele>
        <time>2021-08-12T08:54:52.426Z</time>
      </trkpt>
      <trkpt lat="46.8649" lon="8.47549">
        <ele>2208</ele>
        <time>2021-08-12T08:54:53.427Z</time>
      </trkpt>
      <trkpt lat="46.8649" lon="8.4755">
        <ele>2209</ele>
        <time>2021-08-12T08:54:54.427Z</time>
      </trkpt>
      <trkpt lat="46.86489" lon="8.47551">
        <ele>2209</ele>
        <time>2021-08-12T08:54:55.427Z</time>
      </trkpt>
      <trkpt lat="46.86489" lon="8.47552">
        <ele>2209</ele>
        <time>2021-08-12T08:54:56.426Z</time>
      </trkpt>
      <trkpt lat="46.86489" lon="8.47553">
        <ele>2209</ele>
        <time>2021-08-12T08:54:57.426Z</time>
      </trkpt>
      <trkpt lat="46.86489" lon="8.47553">
        <ele>2209</ele>
        <time>2021-08-12T08:54:58.427Z</time>
      </trkpt>
      <trkpt lat="46.86488" lon="8.47554">
        <ele>2209</ele>
        <time>2021-08-12T08:54:59.427Z</time>
      </trkpt>
      <trkpt lat="46.86488" lon="8.47554">
        <ele>2209</ele>
        <time>2021-08-12T08:55:00.427Z</time>
      </trkpt>
      <trkpt lat="46.86487" lon="8.47556">
        <ele>2209</ele>
        <time>2021-08-12T08:55:01.427Z</time>
      </trkpt>
      <trkpt lat="46.86486" lon="8.47557">
        <ele>2209</ele>
        <time>2021-08-12T08:55:02.426Z</time>
      </trkpt>
      <trkpt lat="46.86486" lon="8.47558">
        <ele>2209</ele>
        <time>2021-08-12T08:55:03.427Z</time>
      </trkpt>
      <trkpt lat="46.86485" lon="8.47559">
        <ele>2209</ele>
        <time>2021-08-12T08:55:04.427Z</time>
      </trkpt>
      <trkpt lat="46.86485" lon="8.47561">
        <ele>2209</ele>
        <time>2021-08-12T08:55:05.426Z</time>
      </trkpt>
      <trkpt lat="46.86485" lon="8.47563">
        <ele>2209</ele>
        <time>2021-08-12T08:55:06.426Z</time>
      </trkpt>
      <trkpt lat="46.86484" lon="8.47567">
        <ele>2210</ele>
        <time>2021-08-12T08:55:07.427Z</time>
      </trkpt>
      <trkpt lat="46.86484" lon="8.47569">
        <ele>2210</ele>
        <time>2021-08-12T08:55:08.426Z</time>
      </trkpt>
      <trkpt lat="46.86483" lon="8.47569">
        <ele>2210</ele>
        <time>2021-08-12T08:55:09.427Z</time>
      </trkpt>
      <trkpt lat="46.86483" lon="8.4757">
        <ele>2209</ele>
        <time>2021-08-12T08:55:10.427Z</time>
      </trkpt>
      <trkpt lat="46.86483" lon="8.4757">
        <ele>2209</ele>
        <time>2021-08-12T08:55:11.427Z</time>
      </trkpt>
      <trkpt lat="46.86483" lon="8.47571">
        <ele>2209</ele>
        <time>2021-08-12T08:55:12.426Z</time>
      </trkpt>
      <trkpt lat="46.86482" lon="8.47571">
        <ele>2209</ele>
        <time>2021-08-12T08:55:13.426Z</time>
      </trkpt>
      <trkpt lat="46.86482" lon="8.47571">
        <ele>2209</ele>
        <time>2021-08-12T08:55:14.427Z</time>
      </trkpt>
      <trkpt lat="46.86481" lon="8.47572">
        <ele>2210</ele>
        <time>2021-08-12T08:55:15.427Z</time>
      </trkpt>
      <trkpt lat="46.86481" lon="8.47573">
        <ele>2210</ele>
        <time>2021-08-12T08:55:16.427Z</time>
      </trkpt>
      <trkpt lat="46.86481" lon="8.47573">
        <ele>2210</ele>
        <time>2021-08-12T08:55:17.427Z</time>
      </trkpt>
      <trkpt lat="46.86482" lon="8.47574">
        <ele>2210</ele>
        <time>2021-08-12T08:55:18.427Z</time>
      </trkpt>
      <trkpt lat="46.86482" lon="8.47575">
        <ele>2209</ele>
        <time>2021-08-12T08:55:19.427Z</time>
      </trkpt>
      <trkpt lat="46.86481" lon="8.47576">
        <ele>2209</ele>
        <time>2021-08-12T08:55:20.426Z</time>
      </trkpt>
      <trkpt lat="46.86481" lon="8.47576">
        <ele>2209</ele>
        <time>2021-08-12T08:55:21.426Z</time>
      </trkpt>
      <trkpt lat="46.86481" lon="8.47576">
        <ele>2209</ele>
        <time>2021-08-12T08:55:22.427Z</time>
      </trkpt>
      <trkpt lat="46.86481" lon="8.47577">
        <ele>2212</ele>
        <time>2021-08-12T08:55:23.426Z</time>
      </trkpt>
      <trkpt lat="46.8648" lon="8.47578">
        <ele>2212</ele>
        <time>2021-08-12T08:55:24.427Z</time>
      </trkpt>
      <trkpt lat="46.8648" lon="8.47578">
        <ele>2212</ele>
        <time>2021-08-12T08:55:25.427Z</time>
      </trkpt>
      <trkpt lat="46.8648" lon="8.47578">
        <ele>2212</ele>
        <time>2021-08-12T08:55:26.427Z</time>
      </trkpt>
      <trkpt lat="46.8648" lon="8.47578">
        <ele>2212</ele>
        <time>2021-08-12T08:55:27.427Z</time>
      </trkpt>
      <trkpt lat="46.86478" lon="8.47579">
        <ele>2212</ele>
        <time>2021-08-12T08:55:28.427Z</time>
      </trkpt>
      <trkpt lat="46.86478" lon="8.4758">
        <ele>2213</ele>
        <time>2021-08-12T08:55:29.427Z</time>
      </trkpt>
      <trkpt lat="46.86478" lon="8.47581">
        <ele>2213</ele>
        <time>2021-08-12T08:55:30.427Z</time>
      </trkpt>
      <trkpt lat="46.86477" lon="8.47582">
        <ele>2213</ele>
        <time>2021-08-12T08:55:31.427Z</time>
      </trkpt>
      <trkpt lat="46.86477" lon="8.47583">
        <ele>2213</ele>
        <time>2021-08-12T08:55:32.427Z</time>
      </trkpt>
      <trkpt lat="46.86477" lon="8.47584">
        <ele>2213</ele>
        <time>2021-08-12T08:55:33.427Z</time>
      </trkpt>
      <trkpt lat="46.86476" lon="8.47585">
        <ele>2213</ele>
        <time>2021-08-12T08:55:34.427Z</time>
      </trkpt>
      <trkpt lat="46.86476" lon="8.47586">
        <ele>2213</ele>
        <time>2021-08-12T08:55:35.427Z</time>
      </trkpt>
      <trkpt lat="46.86476" lon="8.47586">
        <ele>2213</ele>
        <time>2021-08-12T08:55:36.427Z</time>
      </trkpt>
      <trkpt lat="46.86476" lon="8.47587">
        <ele>2213</ele>
        <time>2021-08-12T08:55:37.427Z</time>
      </trkpt>
      <trkpt lat="46.86476" lon="8.47588">
        <ele>2214</ele>
        <time>2021-08-12T08:55:38.426Z</time>
      </trkpt>
      <trkpt lat="46.86475" lon="8.47589">
        <ele>2214</ele>
        <time>2021-08-12T08:55:39.426Z</time>
      </trkpt>
      <trkpt lat="46.86475" lon="8.47589">
        <ele>2214</ele>
        <time>2021-08-12T08:55:40.426Z</time>
      </trkpt>
      <trkpt lat="46.86475" lon="8.4759">
        <ele>2214</ele>
        <time>2021-08-12T08:55:41.426Z</time>
      </trkpt>
      <trkpt lat="46.86474" lon="8.4759">
        <ele>2214</ele>
        <time>2021-08-12T08:55:42.426Z</time>
      </trkpt>
      <trkpt lat="46.86474" lon="8.47592">
        <ele>2214</ele>
        <time>2021-08-12T08:55:43.427Z</time>
      </trkpt>
      <trkpt lat="46.86474" lon="8.47592">
        <ele>2213</ele>
        <time>2021-08-12T08:55:44.427Z</time>
      </trkpt>
      <trkpt lat="46.86476" lon="8.4759">
        <ele>2211</ele>
        <time>2021-08-12T08:55:45.427Z</time>
      </trkpt>
      <trkpt lat="46.86476" lon="8.4759">
        <ele>2211</ele>
        <time>2021-08-12T08:55:46.426Z</time>
      </trkpt>
      <trkpt lat="46.86475" lon="8.47592">
        <ele>2216</ele>
        <time>2021-08-12T08:55:47.426Z</time>
      </trkpt>
      <trkpt lat="46.86474" lon="8.47593">
        <ele>2217</ele>
        <time>2021-08-12T08:55:48.426Z</time>
      </trkpt>
      <trkpt lat="46.86473" lon="8.47594">
        <ele>2218</ele>
        <time>2021-08-12T08:55:49.426Z</time>
      </trkpt>
      <trkpt lat="46.86473" lon="8.47594">
        <ele>2218</ele>
        <time>2021-08-12T08:55:50.426Z</time>
      </trkpt>
      <trkpt lat="46.86473" lon="8.47594">
        <ele>2219</ele>
        <time>2021-08-12T08:55:51.426Z</time>
      </trkpt>
      <trkpt lat="46.86472" lon="8.47594">
        <ele>2219</ele>
        <time>2021-08-12T08:55:52.426Z</time>
      </trkpt>
      <trkpt lat="46.86471" lon="8.47593">
        <ele>2220</ele>
        <time>2021-08-12T08:55:53.427Z</time>
      </trkpt>
      <trkpt lat="46.86471" lon="8.47593">
        <ele>2220</ele>
        <time>2021-08-12T08:55:54.427Z</time>
      </trkpt>
      <trkpt lat="46.8647" lon="8.47593">
        <ele>2220</ele>
        <time>2021-08-12T08:55:55.426Z</time>
      </trkpt>
      <trkpt lat="46.86468" lon="8.47593">
        <ele>2225</ele>
        <time>2021-08-12T08:55:56.426Z</time>
      </trkpt>
      <trkpt lat="46.86468" lon="8.47594">
        <ele>2225</ele>
        <time>2021-08-12T08:55:57.426Z</time>
      </trkpt>
      <trkpt lat="46.86469" lon="8.47595">
        <ele>2225</ele>
        <time>2021-08-12T08:55:58.427Z</time>
      </trkpt>
      <trkpt lat="46.8647" lon="8.47595">
        <ele>2224</ele>
        <time>2021-08-12T08:55:59.427Z</time>
      </trkpt>
      <trkpt lat="46.8647" lon="8.47596">
        <ele>2225</ele>
        <time>2021-08-12T08:56:00.427Z</time>
      </trkpt>
      <trkpt lat="46.86471" lon="8.47595">
        <ele>2225</ele>
        <time>2021-08-12T08:56:01.427Z</time>
      </trkpt>
      <trkpt lat="46.86471" lon="8.47595">
        <ele>2226</ele>
        <time>2021-08-12T08:56:02.427Z</time>
      </trkpt>
      <trkpt lat="46.8647" lon="8.47595">
        <ele>2226</ele>
        <time>2021-08-12T08:56:03.426Z</time>
      </trkpt>
      <trkpt lat="46.86469" lon="8.47597">
        <ele>2226</ele>
        <time>2021-08-12T08:56:04.426Z</time>
      </trkpt>
      <trkpt lat="46.86468" lon="8.47598">
        <ele>2226</ele>
        <time>2021-08-12T08:56:05.427Z</time>
      </trkpt>
      <trkpt lat="46.86467" lon="8.47599">
        <ele>2226</ele>
        <time>2021-08-12T08:56:06.426Z</time>
      </trkpt>
      <trkpt lat="46.86467" lon="8.476">
        <ele>2225</ele>
        <time>2021-08-12T08:56:07.427Z</time>
      </trkpt>
      <trkpt lat="46.86467" lon="8.476">
        <ele>2225</ele>
        <time>2021-08-12T08:56:08.427Z</time>
      </trkpt>
      <trkpt lat="46.86467" lon="8.476">
        <ele>2225</ele>
        <time>2021-08-12T08:56:09.427Z</time>
      </trkpt>
      <trkpt lat="46.86467" lon="8.47601">
        <ele>2225</ele>
        <time>2021-08-12T08:56:10.427Z</time>
      </trkpt>
      <trkpt lat="46.86467" lon="8.47602">
        <ele>2225</ele>
        <time>2021-08-12T08:56:11.427Z</time>
      </trkpt>
      <trkpt lat="46.86467" lon="8.47603">
        <ele>2225</ele>
        <time>2021-08-12T08:56:12.427Z</time>
      </trkpt>
      <trkpt lat="46.86467" lon="8.47604">
        <ele>2225</ele>
        <time>2021-08-12T08:56:13.427Z</time>
      </trkpt>
      <trkpt lat="46.86467" lon="8.47604">
        <ele>2225</ele>
        <time>2021-08-12T08:56:14.427Z</time>
      </trkpt>
      <trkpt lat="46.86467" lon="8.47605">
        <ele>2225</ele>
        <time>2021-08-12T08:56:15.427Z</time>
      </trkpt>
      <trkpt lat="46.86466" lon="8.47605">
        <ele>2225</ele>
        <time>2021-08-12T08:56:16.427Z</time>
      </trkpt>
      <trkpt lat="46.86466" lon="8.47606">
        <ele>2225</ele>
        <time>2021-08-12T08:56:17.427Z</time>
      </trkpt>
      <trkpt lat="46.86466" lon="8.47606">
        <ele>2225</ele>
        <time>2021-08-12T08:56:18.427Z</time>
      </trkpt>
      <trkpt lat="46.86466" lon="8.47606">
        <ele>2224</ele>
        <time>2021-08-12T08:56:19.427Z</time>
      </trkpt>
      <trkpt lat="46.86465" lon="8.47607">
        <ele>2224</ele>
        <time>2021-08-12T08:56:20.426Z</time>
      </trkpt>
      <trkpt lat="46.86465" lon="8.47609">
        <ele>2225</ele>
        <time>2021-08-12T08:56:21.427Z</time>
      </trkpt>
      <trkpt lat="46.86465" lon="8.4761">
        <ele>2225</ele>
        <time>2021-08-12T08:56:22.427Z</time>
      </trkpt>
      <trkpt lat="46.86464" lon="8.4761">
        <ele>2225</ele>
        <time>2021-08-12T08:56:23.427Z</time>
      </trkpt>
      <trkpt lat="46.86464" lon="8.47611">
        <ele>2225</ele>
        <time>2021-08-12T08:56:24.427Z</time>
      </trkpt>
      <trkpt lat="46.86464" lon="8.47612">
        <ele>2225</ele>
        <time>2021-08-12T08:56:25.427Z</time>
      </trkpt>
      <trkpt lat="46.86462" lon="8.47613">
        <ele>2225</ele>
        <time>2021-08-12T08:56:26.427Z</time>
      </trkpt>
      <trkpt lat="46.86461" lon="8.47614">
        <ele>2225</ele>
        <time>2021-08-12T08:56:27.427Z</time>
      </trkpt>
      <trkpt lat="46.86461" lon="8.47615">
        <ele>2225</ele>
        <time>2021-08-12T08:56:28.427Z</time>
      </trkpt>
      <trkpt lat="46.8646" lon="8.47616">
        <ele>2225</ele>
        <time>2021-08-12T08:56:29.426Z</time>
      </trkpt>
      <trkpt lat="46.8646" lon="8.47617">
        <ele>2224</ele>
        <time>2021-08-12T08:56:30.427Z</time>
      </trkpt>
      <trkpt lat="46.86461" lon="8.47617">
        <ele>2224</ele>
        <time>2021-08-12T08:56:31.427Z</time>
      </trkpt>
      <trkpt lat="46.8646" lon="8.47618">
        <ele>2224</ele>
        <time>2021-08-12T08:56:32.427Z</time>
      </trkpt>
      <trkpt lat="46.8646" lon="8.47619">
        <ele>2224</ele>
        <time>2021-08-12T08:56:33.426Z</time>
      </trkpt>
      <trkpt lat="46.8646" lon="8.47621">
        <ele>2224</ele>
        <time>2021-08-12T08:56:34.427Z</time>
      </trkpt>
      <trkpt lat="46.86459" lon="8.47621">
        <ele>2224</ele>
        <time>2021-08-12T08:56:35.426Z</time>
      </trkpt>
      <trkpt lat="46.86458" lon="8.47622">
        <ele>2224</ele>
        <time>2021-08-12T08:56:36.426Z</time>
      </trkpt>
      <trkpt lat="46.86458" lon="8.47622">
        <ele>2225</ele>
        <time>2021-08-12T08:56:37.426Z</time>
      </trkpt>
      <trkpt lat="46.86458" lon="8.47622">
        <ele>2225</ele>
        <time>2021-08-12T08:56:38.427Z</time>
      </trkpt>
      <trkpt lat="46.86458" lon="8.47622">
        <ele>2225</ele>
        <time>2021-08-12T08:56:39.426Z</time>
      </trkpt>
      <trkpt lat="46.86457" lon="8.47623">
        <ele>2225</ele>
        <time>2021-08-12T08:56:40.427Z</time>
      </trkpt>
      <trkpt lat="46.86457" lon="8.47624">
        <ele>2225</ele>
        <time>2021-08-12T08:56:41.427Z</time>
      </trkpt>
      <trkpt lat="46.86456" lon="8.47625">
        <ele>2225</ele>
        <time>2021-08-12T08:56:42.427Z</time>
      </trkpt>
      <trkpt lat="46.86456" lon="8.47625">
        <ele>2226</ele>
        <time>2021-08-12T08:56:43.427Z</time>
      </trkpt>
      <trkpt lat="46.86456" lon="8.47626">
        <ele>2226</ele>
        <time>2021-08-12T08:56:44.426Z</time>
      </trkpt>
      <trkpt lat="46.86456" lon="8.47627">
        <ele>2226</ele>
        <time>2021-08-12T08:56:45.426Z</time>
      </trkpt>
      <trkpt lat="46.86456" lon="8.47628">
        <ele>2227</ele>
        <time>2021-08-12T08:56:46.427Z</time>
      </trkpt>
      <trkpt lat="46.86456" lon="8.47629">
        <ele>2227</ele>
        <time>2021-08-12T08:56:47.427Z</time>
      </trkpt>
      <trkpt lat="46.86456" lon="8.47629">
        <ele>2228</ele>
        <time>2021-08-12T08:56:48.427Z</time>
      </trkpt>
      <trkpt lat="46.86456" lon="8.4763">
        <ele>2228</ele>
        <time>2021-08-12T08:56:49.426Z</time>
      </trkpt>
      <trkpt lat="46.86456" lon="8.47631">
        <ele>2228</ele>
        <time>2021-08-12T08:56:50.427Z</time>
      </trkpt>
      <trkpt lat="46.86456" lon="8.47631">
        <ele>2229</ele>
        <time>2021-08-12T08:56:51.427Z</time>
      </trkpt>
      <trkpt lat="46.86456" lon="8.47631">
        <ele>2229</ele>
        <time>2021-08-12T08:56:52.428Z</time>
      </trkpt>
      <trkpt lat="46.86457" lon="8.47632">
        <ele>2230</ele>
        <time>2021-08-12T08:56:53.427Z</time>
      </trkpt>
      <trkpt lat="46.86456" lon="8.47633">
        <ele>2231</ele>
        <time>2021-08-12T08:56:54.428Z</time>
      </trkpt>
      <trkpt lat="46.86456" lon="8.47634">
        <ele>2232</ele>
        <time>2021-08-12T08:56:55.427Z</time>
      </trkpt>
      <trkpt lat="46.86456" lon="8.47634">
        <ele>2233</ele>
        <time>2021-08-12T08:56:56.427Z</time>
      </trkpt>
      <trkpt lat="46.86457" lon="8.47635">
        <ele>2233</ele>
        <time>2021-08-12T08:56:57.427Z</time>
      </trkpt>
      <trkpt lat="46.86457" lon="8.47636">
        <ele>2234</ele>
        <time>2021-08-12T08:56:58.427Z</time>
      </trkpt>
      <trkpt lat="46.86458" lon="8.47636">
        <ele>2234</ele>
        <time>2021-08-12T08:56:59.427Z</time>
      </trkpt>
      <trkpt lat="46.86457" lon="8.47637">
        <ele>2234</ele>
        <time>2021-08-12T08:57:00.428Z</time>
      </trkpt>
      <trkpt lat="46.86456" lon="8.47638">
        <ele>2234</ele>
        <time>2021-08-12T08:57:01.428Z</time>
      </trkpt>
      <trkpt lat="46.86455" lon="8.47639">
        <ele>2234</ele>
        <time>2021-08-12T08:57:02.427Z</time>
      </trkpt>
      <trkpt lat="46.86455" lon="8.47639">
        <ele>2233</ele>
        <time>2021-08-12T08:57:03.428Z</time>
      </trkpt>
      <trkpt lat="46.86454" lon="8.47639">
        <ele>2233</ele>
        <time>2021-08-12T08:57:04.427Z</time>
      </trkpt>
      <trkpt lat="46.86454" lon="8.47638">
        <ele>2233</ele>
        <time>2021-08-12T08:57:05.427Z</time>
      </trkpt>
      <trkpt lat="46.86454" lon="8.47638">
        <ele>2234</ele>
        <time>2021-08-12T08:57:06.427Z</time>
      </trkpt>
      <trkpt lat="46.86454" lon="8.47637">
        <ele>2234</ele>
        <time>2021-08-12T08:57:07.428Z</time>
      </trkpt>
      <trkpt lat="46.86453" lon="8.47636">
        <ele>2235</ele>
        <time>2021-08-12T08:57:08.427Z</time>
      </trkpt>
      <trkpt lat="46.86453" lon="8.47635">
        <ele>2235</ele>
        <time>2021-08-12T08:57:09.427Z</time>
      </trkpt>
      <trkpt lat="46.86452" lon="8.47635">
        <ele>2236</ele>
        <time>2021-08-12T08:57:10.428Z</time>
      </trkpt>
      <trkpt lat="46.86451" lon="8.47635">
        <ele>2236</ele>
        <time>2021-08-12T08:57:11.427Z</time>
      </trkpt>
      <trkpt lat="46.86449" lon="8.47635">
        <ele>2237</ele>
        <time>2021-08-12T08:57:12.427Z</time>
      </trkpt>
      <trkpt lat="46.86449" lon="8.47636">
        <ele>2237</ele>
        <time>2021-08-12T08:57:13.428Z</time>
      </trkpt>
      <trkpt lat="46.86449" lon="8.47636">
        <ele>2237</ele>
        <time>2021-08-12T08:57:14.427Z</time>
      </trkpt>
      <trkpt lat="46.86449" lon="8.47637">
        <ele>2238</ele>
        <time>2021-08-12T08:57:15.428Z</time>
      </trkpt>
      <trkpt lat="46.86449" lon="8.47637">
        <ele>2238</ele>
        <time>2021-08-12T08:57:16.428Z</time>
      </trkpt>
      <trkpt lat="46.86448" lon="8.47635">
        <ele>2240</ele>
        <time>2021-08-12T08:57:17.428Z</time>
      </trkpt>
      <trkpt lat="46.86448" lon="8.47634">
        <ele>2240</ele>
        <time>2021-08-12T08:57:18.428Z</time>
      </trkpt>
      <trkpt lat="46.86448" lon="8.47633">
        <ele>2240</ele>
        <time>2021-08-12T08:57:19.427Z</time>
      </trkpt>
      <trkpt lat="46.86447" lon="8.47632">
        <ele>2240</ele>
        <time>2021-08-12T08:57:20.428Z</time>
      </trkpt>
      <trkpt lat="46.86447" lon="8.47632">
        <ele>2240</ele>
        <time>2021-08-12T08:57:21.427Z</time>
      </trkpt>
      <trkpt lat="46.86447" lon="8.47633">
        <ele>2240</ele>
        <time>2021-08-12T08:57:22.428Z</time>
      </trkpt>
      <trkpt lat="46.86447" lon="8.47633">
        <ele>2240</ele>
        <time>2021-08-12T08:57:23.428Z</time>
      </trkpt>
      <trkpt lat="46.86447" lon="8.47633">
        <ele>2240</ele>
        <time>2021-08-12T08:57:24.428Z</time>
      </trkpt>
      <trkpt lat="46.86447" lon="8.47634">
        <ele>2240</ele>
        <time>2021-08-12T08:57:25.427Z</time>
      </trkpt>
      <trkpt lat="46.86447" lon="8.47635">
        <ele>2240</ele>
        <time>2021-08-12T08:57:26.428Z</time>
      </trkpt>
      <trkpt lat="46.86447" lon="8.47636">
        <ele>2240</ele>
        <time>2021-08-12T08:57:27.428Z</time>
      </trkpt>
      <trkpt lat="46.86447" lon="8.47637">
        <ele>2239</ele>
        <time>2021-08-12T08:57:28.427Z</time>
      </trkpt>
      <trkpt lat="46.86447" lon="8.47638">
        <ele>2239</ele>
        <time>2021-08-12T08:57:29.428Z</time>
      </trkpt>
      <trkpt lat="46.86448" lon="8.47639">
        <ele>2239</ele>
        <time>2021-08-12T08:57:30.427Z</time>
      </trkpt>
      <trkpt lat="46.86448" lon="8.4764">
        <ele>2238</ele>
        <time>2021-08-12T08:57:31.428Z</time>
      </trkpt>
      <trkpt lat="46.86449" lon="8.47641">
        <ele>2238</ele>
        <time>2021-08-12T08:57:32.427Z</time>
      </trkpt>
      <trkpt lat="46.86449" lon="8.47642">
        <ele>2238</ele>
        <time>2021-08-12T08:57:33.427Z</time>
      </trkpt>
      <trkpt lat="46.86448" lon="8.47642">
        <ele>2238</ele>
        <time>2021-08-12T08:57:34.428Z</time>
      </trkpt>
      <trkpt lat="46.86446" lon="8.47643">
        <ele>2238</ele>
        <time>2021-08-12T08:57:35.428Z</time>
      </trkpt>
      <trkpt lat="46.86444" lon="8.47644">
        <ele>2238</ele>
        <time>2021-08-12T08:57:36.427Z</time>
      </trkpt>
      <trkpt lat="46.86443" lon="8.47644">
        <ele>2237</ele>
        <time>2021-08-12T08:57:37.427Z</time>
      </trkpt>
      <trkpt lat="46.86443" lon="8.47645">
        <ele>2236</ele>
        <time>2021-08-12T08:57:38.427Z</time>
      </trkpt>
      <trkpt lat="46.86443" lon="8.47646">
        <ele>2236</ele>
        <time>2021-08-12T08:57:39.427Z</time>
      </trkpt>
      <trkpt lat="46.86444" lon="8.47646">
        <ele>2236</ele>
        <time>2021-08-12T08:57:40.427Z</time>
      </trkpt>
      <trkpt lat="46.86444" lon="8.47647">
        <ele>2236</ele>
        <time>2021-08-12T08:57:41.428Z</time>
      </trkpt>
      <trkpt lat="46.86443" lon="8.47648">
        <ele>2235</ele>
        <time>2021-08-12T08:57:42.428Z</time>
      </trkpt>
      <trkpt lat="46.86443" lon="8.47648">
        <ele>2235</ele>
        <time>2021-08-12T08:57:43.427Z</time>
      </trkpt>
      <trkpt lat="46.86443" lon="8.47648">
        <ele>2235</ele>
        <time>2021-08-12T08:57:44.427Z</time>
      </trkpt>
      <trkpt lat="46.86442" lon="8.47648">
        <ele>2235</ele>
        <time>2021-08-12T08:57:45.428Z</time>
      </trkpt>
      <trkpt lat="46.86442" lon="8.47648">
        <ele>2235</ele>
        <time>2021-08-12T08:57:46.428Z</time>
      </trkpt>
      <trkpt lat="46.86441" lon="8.47648">
        <ele>2235</ele>
        <time>2021-08-12T08:57:47.427Z</time>
      </trkpt>
      <trkpt lat="46.86441" lon="8.47649">
        <ele>2236</ele>
        <time>2021-08-12T08:57:48.428Z</time>
      </trkpt>
      <trkpt lat="46.86441" lon="8.4765">
        <ele>2236</ele>
        <time>2021-08-12T08:57:49.428Z</time>
      </trkpt>
      <trkpt lat="46.86441" lon="8.47652">
        <ele>2237</ele>
        <time>2021-08-12T08:57:50.428Z</time>
      </trkpt>
      <trkpt lat="46.86441" lon="8.47654">
        <ele>2238</ele>
        <time>2021-08-12T08:57:51.427Z</time>
      </trkpt>
      <trkpt lat="46.8644" lon="8.47654">
        <ele>2238</ele>
        <time>2021-08-12T08:57:52.427Z</time>
      </trkpt>
      <trkpt lat="46.8644" lon="8.47655">
        <ele>2239</ele>
        <time>2021-08-12T08:57:53.428Z</time>
      </trkpt>
      <trkpt lat="46.8644" lon="8.47655">
        <ele>2240</ele>
        <time>2021-08-12T08:57:54.428Z</time>
      </trkpt>
      <trkpt lat="46.8644" lon="8.47655">
        <ele>2241</ele>
        <time>2021-08-12T08:57:55.428Z</time>
      </trkpt>
      <trkpt lat="46.8644" lon="8.47656">
        <ele>2242</ele>
        <time>2021-08-12T08:57:56.428Z</time>
      </trkpt>
      <trkpt lat="46.8644" lon="8.47657">
        <ele>2243</ele>
        <time>2021-08-12T08:57:57.428Z</time>
      </trkpt>
      <trkpt lat="46.8644" lon="8.47658">
        <ele>2243</ele>
        <time>2021-08-12T08:57:58.428Z</time>
      </trkpt>
      <trkpt lat="46.86439" lon="8.4766">
        <ele>2244</ele>
        <time>2021-08-12T08:57:59.428Z</time>
      </trkpt>
      <trkpt lat="46.86438" lon="8.47662">
        <ele>2244</ele>
        <time>2021-08-12T08:58:00.429Z</time>
      </trkpt>
      <trkpt lat="46.86437" lon="8.47663">
        <ele>2244</ele>
        <time>2021-08-12T08:58:01.429Z</time>
      </trkpt>
      <trkpt lat="46.86438" lon="8.47663">
        <ele>2244</ele>
        <time>2021-08-12T08:58:02.429Z</time>
      </trkpt>
      <trkpt lat="46.86438" lon="8.47664">
        <ele>2245</ele>
        <time>2021-08-12T08:58:03.428Z</time>
      </trkpt>
      <trkpt lat="46.86438" lon="8.47664">
        <ele>2245</ele>
        <time>2021-08-12T08:58:04.429Z</time>
      </trkpt>
      <trkpt lat="46.86438" lon="8.47665">
        <ele>2245</ele>
        <time>2021-08-12T08:58:05.429Z</time>
      </trkpt>
      <trkpt lat="46.86438" lon="8.47665">
        <ele>2246</ele>
        <time>2021-08-12T08:58:06.428Z</time>
      </trkpt>
      <trkpt lat="46.86437" lon="8.47666">
        <ele>2246</ele>
        <time>2021-08-12T08:58:07.428Z</time>
      </trkpt>
      <trkpt lat="46.86437" lon="8.47666">
        <ele>2246</ele>
        <time>2021-08-12T08:58:08.429Z</time>
      </trkpt>
      <trkpt lat="46.86436" lon="8.47666">
        <ele>2246</ele>
        <time>2021-08-12T08:58:09.429Z</time>
      </trkpt>
      <trkpt lat="46.86436" lon="8.47667">
        <ele>2247</ele>
        <time>2021-08-12T08:58:10.428Z</time>
      </trkpt>
      <trkpt lat="46.86435" lon="8.47667">
        <ele>2247</ele>
        <time>2021-08-12T08:58:11.428Z</time>
      </trkpt>
      <trkpt lat="46.86435" lon="8.47668">
        <ele>2247</ele>
        <time>2021-08-12T08:58:12.428Z</time>
      </trkpt>
      <trkpt lat="46.86434" lon="8.4767">
        <ele>2247</ele>
        <time>2021-08-12T08:58:13.429Z</time>
      </trkpt>
      <trkpt lat="46.86434" lon="8.47671">
        <ele>2247</ele>
        <time>2021-08-12T08:58:14.428Z</time>
      </trkpt>
      <trkpt lat="46.86434" lon="8.47672">
        <ele>2247</ele>
        <time>2021-08-12T08:58:15.429Z</time>
      </trkpt>
      <trkpt lat="46.86434" lon="8.47673">
        <ele>2247</ele>
        <time>2021-08-12T08:58:16.429Z</time>
      </trkpt>
      <trkpt lat="46.86434" lon="8.47674">
        <ele>2247</ele>
        <time>2021-08-12T08:58:17.428Z</time>
      </trkpt>
      <trkpt lat="46.86434" lon="8.47674">
        <ele>2247</ele>
        <time>2021-08-12T08:58:18.428Z</time>
      </trkpt>
      <trkpt lat="46.86434" lon="8.47674">
        <ele>2248</ele>
        <time>2021-08-12T08:58:19.428Z</time>
      </trkpt>
      <trkpt lat="46.86433" lon="8.47675">
        <ele>2248</ele>
        <time>2021-08-12T08:58:20.428Z</time>
      </trkpt>
      <trkpt lat="46.86432" lon="8.47676">
        <ele>2249</ele>
        <time>2021-08-12T08:58:21.428Z</time>
      </trkpt>
      <trkpt lat="46.86433" lon="8.47676">
        <ele>2250</ele>
        <time>2021-08-12T08:58:22.428Z</time>
      </trkpt>
      <trkpt lat="46.86433" lon="8.47677">
        <ele>2250</ele>
        <time>2021-08-12T08:58:23.428Z</time>
      </trkpt>
      <trkpt lat="46.86433" lon="8.47677">
        <ele>2250</ele>
        <time>2021-08-12T08:58:24.429Z</time>
      </trkpt>
      <trkpt lat="46.86433" lon="8.47677">
        <ele>2250</ele>
        <time>2021-08-12T08:58:25.429Z</time>
      </trkpt>
      <trkpt lat="46.86436" lon="8.47676">
        <ele>2249</ele>
        <time>2021-08-12T08:58:26.430Z</time>
      </trkpt>
      <trkpt lat="46.86435" lon="8.47675">
        <ele>2243</ele>
        <time>2021-08-12T08:58:27.430Z</time>
      </trkpt>
      <trkpt lat="46.86434" lon="8.47676">
        <ele>2243</ele>
        <time>2021-08-12T08:58:28.429Z</time>
      </trkpt>
      <trkpt lat="46.86434" lon="8.47678">
        <ele>2242</ele>
        <time>2021-08-12T08:58:29.429Z</time>
      </trkpt>
      <trkpt lat="46.86434" lon="8.47677">
        <ele>2242</ele>
        <time>2021-08-12T08:58:30.430Z</time>
      </trkpt>
      <trkpt lat="46.86434" lon="8.47677">
        <ele>2242</ele>
        <time>2021-08-12T08:58:31.430Z</time>
      </trkpt>
      <trkpt lat="46.86433" lon="8.47677">
        <ele>2242</ele>
        <time>2021-08-12T08:58:32.429Z</time>
      </trkpt>
      <trkpt lat="46.86433" lon="8.47677">
        <ele>2242</ele>
        <time>2021-08-12T08:58:33.430Z</time>
      </trkpt>
      <trkpt lat="46.86432" lon="8.47678">
        <ele>2243</ele>
        <time>2021-08-12T08:58:34.430Z</time>
      </trkpt>
      <trkpt lat="46.86431" lon="8.47679">
        <ele>2243</ele>
        <time>2021-08-12T08:58:35.429Z</time>
      </trkpt>
      <trkpt lat="46.8643" lon="8.47679">
        <ele>2243</ele>
        <time>2021-08-12T08:58:36.429Z</time>
      </trkpt>
      <trkpt lat="46.8643" lon="8.47678">
        <ele>2243</ele>
        <time>2021-08-12T08:58:37.429Z</time>
      </trkpt>
      <trkpt lat="46.8643" lon="8.47678">
        <ele>2243</ele>
        <time>2021-08-12T08:58:38.430Z</time>
      </trkpt>
      <trkpt lat="46.8643" lon="8.47677">
        <ele>2244</ele>
        <time>2021-08-12T08:58:39.430Z</time>
      </trkpt>
      <trkpt lat="46.8643" lon="8.47677">
        <ele>2244</ele>
        <time>2021-08-12T08:58:40.430Z</time>
      </trkpt>
      <trkpt lat="46.8643" lon="8.47677">
        <ele>2243</ele>
        <time>2021-08-12T08:58:41.429Z</time>
      </trkpt>
      <trkpt lat="46.8643" lon="8.47677">
        <ele>2243</ele>
        <time>2021-08-12T08:58:42.429Z</time>
      </trkpt>
      <trkpt lat="46.8643" lon="8.47677">
        <ele>2239</ele>
        <time>2021-08-12T08:58:43.431Z</time>
      </trkpt>
      <trkpt lat="46.8643" lon="8.47677">
        <ele>2239</ele>
        <time>2021-08-12T08:58:44.431Z</time>
      </trkpt>
      <trkpt lat="46.86431" lon="8.47677">
        <ele>2240</ele>
        <time>2021-08-12T08:58:45.430Z</time>
      </trkpt>
      <trkpt lat="46.86433" lon="8.47677">
        <ele>2245</ele>
        <time>2021-08-12T08:58:46.431Z</time>
      </trkpt>
      <trkpt lat="46.86433" lon="8.47677">
        <ele>2246</ele>
        <time>2021-08-12T08:58:47.431Z</time>
      </trkpt>
      <trkpt lat="46.86434" lon="8.47677">
        <ele>2249</ele>
        <time>2021-08-12T08:58:48.433Z</time>
      </trkpt>
      <trkpt lat="46.86434" lon="8.47676">
        <ele>2249</ele>
        <time>2021-08-12T08:58:49.432Z</time>
      </trkpt>
      <trkpt lat="46.86435" lon="8.47676">
        <ele>2249</ele>
        <time>2021-08-12T08:58:50.432Z</time>
      </trkpt>
      <trkpt lat="46.86435" lon="8.47676">
        <ele>2249</ele>
        <time>2021-08-12T08:58:51.433Z</time>
      </trkpt>
      <trkpt lat="46.86435" lon="8.47676">
        <ele>2249</ele>
        <time>2021-08-12T08:58:52.433Z</time>
      </trkpt>
      <trkpt lat="46.86434" lon="8.4768">
        <ele>2245</ele>
        <time>2021-08-12T08:58:53.434Z</time>
      </trkpt>
      <trkpt lat="46.86433" lon="8.4768">
        <ele>2246</ele>
        <time>2021-08-12T08:58:54.434Z</time>
      </trkpt>
      <trkpt lat="46.86433" lon="8.47681">
        <ele>2247</ele>
        <time>2021-08-12T08:58:55.433Z</time>
      </trkpt>
      <trkpt lat="46.86433" lon="8.47682">
        <ele>2247</ele>
        <time>2021-08-12T08:58:56.434Z</time>
      </trkpt>
      <trkpt lat="46.86433" lon="8.47683">
        <ele>2247</ele>
        <time>2021-08-12T08:58:57.433Z</time>
      </trkpt>
      <trkpt lat="46.86433" lon="8.47685">
        <ele>2247</ele>
        <time>2021-08-12T08:58:58.433Z</time>
      </trkpt>
      <trkpt lat="46.86432" lon="8.47686">
        <ele>2247</ele>
        <time>2021-08-12T08:58:59.434Z</time>
      </trkpt>
      <trkpt lat="46.86431" lon="8.47688">
        <ele>2247</ele>
        <time>2021-08-12T08:59:00.433Z</time>
      </trkpt>
      <trkpt lat="46.8643" lon="8.47689">
        <ele>2248</ele>
        <time>2021-08-12T08:59:01.433Z</time>
      </trkpt>
      <trkpt lat="46.86429" lon="8.47691">
        <ele>2248</ele>
        <time>2021-08-12T08:59:02.434Z</time>
      </trkpt>
      <trkpt lat="46.86429" lon="8.47691">
        <ele>2248</ele>
        <time>2021-08-12T08:59:03.433Z</time>
      </trkpt>
      <trkpt lat="46.86428" lon="8.47692">
        <ele>2249</ele>
        <time>2021-08-12T08:59:04.434Z</time>
      </trkpt>
      <trkpt lat="46.86428" lon="8.47692">
        <ele>2249</ele>
        <time>2021-08-12T08:59:05.433Z</time>
      </trkpt>
      <trkpt lat="46.86428" lon="8.47693">
        <ele>2249</ele>
        <time>2021-08-12T08:59:06.433Z</time>
      </trkpt>
      <trkpt lat="46.86428" lon="8.47694">
        <ele>2249</ele>
        <time>2021-08-12T08:59:07.434Z</time>
      </trkpt>
      <trkpt lat="46.86427" lon="8.47695">
        <ele>2249</ele>
        <time>2021-08-12T08:59:08.433Z</time>
      </trkpt>
      <trkpt lat="46.86427" lon="8.47696">
        <ele>2248</ele>
        <time>2021-08-12T08:59:09.433Z</time>
      </trkpt>
      <trkpt lat="46.86427" lon="8.47698">
        <ele>2248</ele>
        <time>2021-08-12T08:59:10.433Z</time>
      </trkpt>
      <trkpt lat="46.86427" lon="8.47698">
        <ele>2247</ele>
        <time>2021-08-12T08:59:11.433Z</time>
      </trkpt>
      <trkpt lat="46.86427" lon="8.47699">
        <ele>2247</ele>
        <time>2021-08-12T08:59:12.433Z</time>
      </trkpt>
      <trkpt lat="46.86427" lon="8.477">
        <ele>2247</ele>
        <time>2021-08-12T08:59:13.434Z</time>
      </trkpt>
      <trkpt lat="46.86427" lon="8.47701">
        <ele>2247</ele>
        <time>2021-08-12T08:59:14.433Z</time>
      </trkpt>
      <trkpt lat="46.86427" lon="8.47702">
        <ele>2247</ele>
        <time>2021-08-12T08:59:15.433Z</time>
      </trkpt>
      <trkpt lat="46.86427" lon="8.47702">
        <ele>2247</ele>
        <time>2021-08-12T08:59:16.433Z</time>
      </trkpt>
      <trkpt lat="46.86425" lon="8.47699">
        <ele>2253</ele>
        <time>2021-08-12T08:59:17.434Z</time>
      </trkpt>
      <trkpt lat="46.86425" lon="8.477">
        <ele>2252</ele>
        <time>2021-08-12T08:59:18.434Z</time>
      </trkpt>
      <trkpt lat="46.86425" lon="8.47701">
        <ele>2251</ele>
        <time>2021-08-12T08:59:19.435Z</time>
      </trkpt>
      <trkpt lat="46.86425" lon="8.47702">
        <ele>2250</ele>
        <time>2021-08-12T08:59:20.435Z</time>
      </trkpt>
      <trkpt lat="46.86425" lon="8.47703">
        <ele>2250</ele>
        <time>2021-08-12T08:59:21.434Z</time>
      </trkpt>
      <trkpt lat="46.86424" lon="8.47704">
        <ele>2250</ele>
        <time>2021-08-12T08:59:22.435Z</time>
      </trkpt>
      <trkpt lat="46.86424" lon="8.47705">
        <ele>2250</ele>
        <time>2021-08-12T08:59:23.435Z</time>
      </trkpt>
      <trkpt lat="46.86425" lon="8.47706">
        <ele>2249</ele>
        <time>2021-08-12T08:59:24.434Z</time>
      </trkpt>
      <trkpt lat="46.86425" lon="8.47707">
        <ele>2250</ele>
        <time>2021-08-12T08:59:25.435Z</time>
      </trkpt>
      <trkpt lat="46.86424" lon="8.47708">
        <ele>2250</ele>
        <time>2021-08-12T08:59:26.435Z</time>
      </trkpt>
      <trkpt lat="46.86424" lon="8.47709">
        <ele>2250</ele>
        <time>2021-08-12T08:59:27.435Z</time>
      </trkpt>
      <trkpt lat="46.86425" lon="8.4771">
        <ele>2249</ele>
        <time>2021-08-12T08:59:28.434Z</time>
      </trkpt>
      <trkpt lat="46.86425" lon="8.47711">
        <ele>2249</ele>
        <time>2021-08-12T08:59:29.434Z</time>
      </trkpt>
      <trkpt lat="46.86425" lon="8.47711">
        <ele>2249</ele>
        <time>2021-08-12T08:59:30.435Z</time>
      </trkpt>
      <trkpt lat="46.86425" lon="8.47713">
        <ele>2249</ele>
        <time>2021-08-12T08:59:31.435Z</time>
      </trkpt>
      <trkpt lat="46.86425" lon="8.47714">
        <ele>2248</ele>
        <time>2021-08-12T08:59:32.435Z</time>
      </trkpt>
      <trkpt lat="46.86425" lon="8.47715">
        <ele>2247</ele>
        <time>2021-08-12T08:59:33.434Z</time>
      </trkpt>
      <trkpt lat="46.86425" lon="8.47716">
        <ele>2247</ele>
        <time>2021-08-12T08:59:34.435Z</time>
      </trkpt>
      <trkpt lat="46.86425" lon="8.47717">
        <ele>2246</ele>
        <time>2021-08-12T08:59:35.435Z</time>
      </trkpt>
      <trkpt lat="46.86425" lon="8.47717">
        <ele>2246</ele>
        <time>2021-08-12T08:59:36.435Z</time>
      </trkpt>
      <trkpt lat="46.86425" lon="8.47718">
        <ele>2246</ele>
        <time>2021-08-12T08:59:37.435Z</time>
      </trkpt>
      <trkpt lat="46.86425" lon="8.4772">
        <ele>2246</ele>
        <time>2021-08-12T08:59:38.435Z</time>
      </trkpt>
      <trkpt lat="46.86425" lon="8.47721">
        <ele>2246</ele>
        <time>2021-08-12T08:59:39.434Z</time>
      </trkpt>
      <trkpt lat="46.86425" lon="8.47722">
        <ele>2245</ele>
        <time>2021-08-12T08:59:40.435Z</time>
      </trkpt>
      <trkpt lat="46.86425" lon="8.47724">
        <ele>2245</ele>
        <time>2021-08-12T08:59:41.434Z</time>
      </trkpt>
      <trkpt lat="46.86425" lon="8.47725">
        <ele>2245</ele>
        <time>2021-08-12T08:59:42.434Z</time>
      </trkpt>
      <trkpt lat="46.86424" lon="8.47727">
        <ele>2245</ele>
        <time>2021-08-12T08:59:43.435Z</time>
      </trkpt>
      <trkpt lat="46.86424" lon="8.47728">
        <ele>2245</ele>
        <time>2021-08-12T08:59:44.434Z</time>
      </trkpt>
      <trkpt lat="46.86424" lon="8.47729">
        <ele>2246</ele>
        <time>2021-08-12T08:59:45.435Z</time>
      </trkpt>
      <trkpt lat="46.86424" lon="8.4773">
        <ele>2247</ele>
        <time>2021-08-12T08:59:46.434Z</time>
      </trkpt>
      <trkpt lat="46.86424" lon="8.47731">
        <ele>2247</ele>
        <time>2021-08-12T08:59:47.434Z</time>
      </trkpt>
      <trkpt lat="46.86424" lon="8.47732">
        <ele>2248</ele>
        <time>2021-08-12T08:59:48.435Z</time>
      </trkpt>
      <trkpt lat="46.86423" lon="8.47733">
        <ele>2248</ele>
        <time>2021-08-12T08:59:49.434Z</time>
      </trkpt>
      <trkpt lat="46.86423" lon="8.47734">
        <ele>2247</ele>
        <time>2021-08-12T08:59:50.435Z</time>
      </trkpt>
      <trkpt lat="46.86423" lon="8.47735">
        <ele>2247</ele>
        <time>2021-08-12T08:59:51.435Z</time>
      </trkpt>
      <trkpt lat="46.86423" lon="8.47735">
        <ele>2248</ele>
        <time>2021-08-12T08:59:52.434Z</time>
      </trkpt>
      <trkpt lat="46.86423" lon="8.47737">
        <ele>2248</ele>
        <time>2021-08-12T08:59:53.435Z</time>
      </trkpt>
      <trkpt lat="46.86423" lon="8.47738">
        <ele>2248</ele>
        <time>2021-08-12T08:59:54.434Z</time>
      </trkpt>
      <trkpt lat="46.86423" lon="8.47739">
        <ele>2248</ele>
        <time>2021-08-12T08:59:55.435Z</time>
      </trkpt>
      <trkpt lat="46.86423" lon="8.47741">
        <ele>2248</ele>
        <time>2021-08-12T08:59:56.434Z</time>
      </trkpt>
      <trkpt lat="46.86424" lon="8.47742">
        <ele>2248</ele>
        <time>2021-08-12T08:59:57.435Z</time>
      </trkpt>
      <trkpt lat="46.86424" lon="8.47744">
        <ele>2248</ele>
        <time>2021-08-12T08:59:58.434Z</time>
      </trkpt>
      <trkpt lat="46.86424" lon="8.47745">
        <ele>2247</ele>
        <time>2021-08-12T08:59:59.435Z</time>
      </trkpt>
      <trkpt lat="46.86423" lon="8.47746">
        <ele>2247</ele>
        <time>2021-08-12T09:00:00.434Z</time>
      </trkpt>
      <trkpt lat="46.86423" lon="8.47747">
        <ele>2247</ele>
        <time>2021-08-12T09:00:01.435Z</time>
      </trkpt>
      <trkpt lat="46.86423" lon="8.47748">
        <ele>2247</ele>
        <time>2021-08-12T09:00:02.435Z</time>
      </trkpt>
      <trkpt lat="46.86423" lon="8.47749">
        <ele>2248</ele>
        <time>2021-08-12T09:00:03.434Z</time>
      </trkpt>
      <trkpt lat="46.86423" lon="8.4775">
        <ele>2247</ele>
        <time>2021-08-12T09:00:04.435Z</time>
      </trkpt>
      <trkpt lat="46.86423" lon="8.47752">
        <ele>2247</ele>
        <time>2021-08-12T09:00:05.434Z</time>
      </trkpt>
      <trkpt lat="46.86423" lon="8.47753">
        <ele>2247</ele>
        <time>2021-08-12T09:00:06.434Z</time>
      </trkpt>
      <trkpt lat="46.86422" lon="8.47754">
        <ele>2247</ele>
        <time>2021-08-12T09:00:07.434Z</time>
      </trkpt>
      <trkpt lat="46.86423" lon="8.47755">
        <ele>2247</ele>
        <time>2021-08-12T09:00:08.434Z</time>
      </trkpt>
      <trkpt lat="46.86423" lon="8.47756">
        <ele>2247</ele>
        <time>2021-08-12T09:00:09.435Z</time>
      </trkpt>
      <trkpt lat="46.86423" lon="8.47757">
        <ele>2247</ele>
        <time>2021-08-12T09:00:10.435Z</time>
      </trkpt>
      <trkpt lat="46.86424" lon="8.47758">
        <ele>2247</ele>
        <time>2021-08-12T09:00:11.434Z</time>
      </trkpt>
      <trkpt lat="46.86424" lon="8.47759">
        <ele>2247</ele>
        <time>2021-08-12T09:00:12.434Z</time>
      </trkpt>
      <trkpt lat="46.86425" lon="8.4776">
        <ele>2247</ele>
        <time>2021-08-12T09:00:13.434Z</time>
      </trkpt>
      <trkpt lat="46.86425" lon="8.47762">
        <ele>2247</ele>
        <time>2021-08-12T09:00:14.435Z</time>
      </trkpt>
      <trkpt lat="46.86425" lon="8.47764">
        <ele>2246</ele>
        <time>2021-08-12T09:00:15.435Z</time>
      </trkpt>
      <trkpt lat="46.86426" lon="8.47765">
        <ele>2246</ele>
        <time>2021-08-12T09:00:16.434Z</time>
      </trkpt>
      <trkpt lat="46.86426" lon="8.47767">
        <ele>2246</ele>
        <time>2021-08-12T09:00:17.434Z</time>
      </trkpt>
      <trkpt lat="46.86426" lon="8.47768">
        <ele>2247</ele>
        <time>2021-08-12T09:00:18.434Z</time>
      </trkpt>
      <trkpt lat="46.86426" lon="8.47769">
        <ele>2247</ele>
        <time>2021-08-12T09:00:19.435Z</time>
      </trkpt>
      <trkpt lat="46.86426" lon="8.47771">
        <ele>2248</ele>
        <time>2021-08-12T09:00:20.434Z</time>
      </trkpt>
      <trkpt lat="46.86426" lon="8.47772">
        <ele>2248</ele>
        <time>2021-08-12T09:00:21.434Z</time>
      </trkpt>
      <trkpt lat="46.86425" lon="8.47773">
        <ele>2248</ele>
        <time>2021-08-12T09:00:22.434Z</time>
      </trkpt>
      <trkpt lat="46.86425" lon="8.47773">
        <ele>2248</ele>
        <time>2021-08-12T09:00:23.434Z</time>
      </trkpt>
      <trkpt lat="46.86425" lon="8.47774">
        <ele>2247</ele>
        <time>2021-08-12T09:00:24.434Z</time>
      </trkpt>
      <trkpt lat="46.86425" lon="8.47775">
        <ele>2248</ele>
        <time>2021-08-12T09:00:25.434Z</time>
      </trkpt>
      <trkpt lat="46.86424" lon="8.47776">
        <ele>2247</ele>
        <time>2021-08-12T09:00:26.434Z</time>
      </trkpt>
      <trkpt lat="46.86424" lon="8.47777">
        <ele>2247</ele>
        <time>2021-08-12T09:00:27.434Z</time>
      </trkpt>
      <trkpt lat="46.86424" lon="8.47778">
        <ele>2247</ele>
        <time>2021-08-12T09:00:28.434Z</time>
      </trkpt>
      <trkpt lat="46.86424" lon="8.47779">
        <ele>2246</ele>
        <time>2021-08-12T09:00:29.434Z</time>
      </trkpt>
      <trkpt lat="46.86423" lon="8.4778">
        <ele>2246</ele>
        <time>2021-08-12T09:00:30.434Z</time>
      </trkpt>
      <trkpt lat="46.86423" lon="8.47781">
        <ele>2246</ele>
        <time>2021-08-12T09:00:31.434Z</time>
      </trkpt>
      <trkpt lat="46.86422" lon="8.47782">
        <ele>2247</ele>
        <time>2021-08-12T09:00:32.434Z</time>
      </trkpt>
      <trkpt lat="46.86422" lon="8.47783">
        <ele>2247</ele>
        <time>2021-08-12T09:00:33.435Z</time>
      </trkpt>
      <trkpt lat="46.86422" lon="8.47784">
        <ele>2247</ele>
        <time>2021-08-12T09:00:34.435Z</time>
      </trkpt>
      <trkpt lat="46.86422" lon="8.47785">
        <ele>2248</ele>
        <time>2021-08-12T09:00:35.434Z</time>
      </trkpt>
      <trkpt lat="46.86421" lon="8.47787">
        <ele>2248</ele>
        <time>2021-08-12T09:00:36.435Z</time>
      </trkpt>
      <trkpt lat="46.86421" lon="8.47788">
        <ele>2249</ele>
        <time>2021-08-12T09:00:37.435Z</time>
      </trkpt>
      <trkpt lat="46.86421" lon="8.4779">
        <ele>2249</ele>
        <time>2021-08-12T09:00:38.435Z</time>
      </trkpt>
      <trkpt lat="46.86421" lon="8.47792">
        <ele>2249</ele>
        <time>2021-08-12T09:00:39.434Z</time>
      </trkpt>
      <trkpt lat="46.8642" lon="8.47793">
        <ele>2249</ele>
        <time>2021-08-12T09:00:40.435Z</time>
      </trkpt>
      <trkpt lat="46.8642" lon="8.47795">
        <ele>2249</ele>
        <time>2021-08-12T09:00:41.435Z</time>
      </trkpt>
      <trkpt lat="46.8642" lon="8.47796">
        <ele>2249</ele>
        <time>2021-08-12T09:00:42.435Z</time>
      </trkpt>
      <trkpt lat="46.8642" lon="8.47797">
        <ele>2249</ele>
        <time>2021-08-12T09:00:43.435Z</time>
      </trkpt>
      <trkpt lat="46.86419" lon="8.47799">
        <ele>2249</ele>
        <time>2021-08-12T09:00:44.435Z</time>
      </trkpt>
      <trkpt lat="46.86419" lon="8.478">
        <ele>2249</ele>
        <time>2021-08-12T09:00:45.435Z</time>
      </trkpt>
      <trkpt lat="46.86419" lon="8.47802">
        <ele>2249</ele>
        <time>2021-08-12T09:00:46.435Z</time>
      </trkpt>
      <trkpt lat="46.86419" lon="8.47803">
        <ele>2249</ele>
        <time>2021-08-12T09:00:47.435Z</time>
      </trkpt>
      <trkpt lat="46.86419" lon="8.47804">
        <ele>2249</ele>
        <time>2021-08-12T09:00:48.435Z</time>
      </trkpt>
      <trkpt lat="46.8642" lon="8.47806">
        <ele>2249</ele>
        <time>2021-08-12T09:00:49.434Z</time>
      </trkpt>
      <trkpt lat="46.8642" lon="8.47807">
        <ele>2248</ele>
        <time>2021-08-12T09:00:50.435Z</time>
      </trkpt>
      <trkpt lat="46.8642" lon="8.47808">
        <ele>2248</ele>
        <time>2021-08-12T09:00:51.434Z</time>
      </trkpt>
      <trkpt lat="46.8642" lon="8.47809">
        <ele>2248</ele>
        <time>2021-08-12T09:00:52.435Z</time>
      </trkpt>
      <trkpt lat="46.8642" lon="8.4781">
        <ele>2248</ele>
        <time>2021-08-12T09:00:53.435Z</time>
      </trkpt>
      <trkpt lat="46.8642" lon="8.47811">
        <ele>2248</ele>
        <time>2021-08-12T09:00:54.435Z</time>
      </trkpt>
      <trkpt lat="46.8642" lon="8.47813">
        <ele>2248</ele>
        <time>2021-08-12T09:00:55.435Z</time>
      </trkpt>
      <trkpt lat="46.8642" lon="8.47815">
        <ele>2248</ele>
        <time>2021-08-12T09:00:56.435Z</time>
      </trkpt>
      <trkpt lat="46.86419" lon="8.47816">
        <ele>2248</ele>
        <time>2021-08-12T09:00:57.434Z</time>
      </trkpt>
      <trkpt lat="46.86419" lon="8.47818">
        <ele>2248</ele>
        <time>2021-08-12T09:00:58.434Z</time>
      </trkpt>
      <trkpt lat="46.86418" lon="8.47819">
        <ele>2248</ele>
        <time>2021-08-12T09:00:59.434Z</time>
      </trkpt>
      <trkpt lat="46.86417" lon="8.47819">
        <ele>2248</ele>
        <time>2021-08-12T09:01:00.434Z</time>
      </trkpt>
      <trkpt lat="46.86416" lon="8.4782">
        <ele>2249</ele>
        <time>2021-08-12T09:01:01.435Z</time>
      </trkpt>
      <trkpt lat="46.86414" lon="8.47819">
        <ele>2250</ele>
        <time>2021-08-12T09:01:02.435Z</time>
      </trkpt>
      <trkpt lat="46.86414" lon="8.47819">
        <ele>2251</ele>
        <time>2021-08-12T09:01:03.435Z</time>
      </trkpt>
      <trkpt lat="46.86413" lon="8.4782">
        <ele>2252</ele>
        <time>2021-08-12T09:01:04.435Z</time>
      </trkpt>
      <trkpt lat="46.86413" lon="8.47821">
        <ele>2253</ele>
        <time>2021-08-12T09:01:05.434Z</time>
      </trkpt>
      <trkpt lat="46.86412" lon="8.47822">
        <ele>2254</ele>
        <time>2021-08-12T09:01:06.435Z</time>
      </trkpt>
      <trkpt lat="46.86412" lon="8.47822">
        <ele>2254</ele>
        <time>2021-08-12T09:01:07.434Z</time>
      </trkpt>
      <trkpt lat="46.86412" lon="8.47823">
        <ele>2254</ele>
        <time>2021-08-12T09:01:08.434Z</time>
      </trkpt>
      <trkpt lat="46.86412" lon="8.47823">
        <ele>2255</ele>
        <time>2021-08-12T09:01:09.435Z</time>
      </trkpt>
      <trkpt lat="46.86411" lon="8.47824">
        <ele>2255</ele>
        <time>2021-08-12T09:01:10.435Z</time>
      </trkpt>
      <trkpt lat="46.86411" lon="8.47825">
        <ele>2255</ele>
        <time>2021-08-12T09:01:11.435Z</time>
      </trkpt>
      <trkpt lat="46.86411" lon="8.47826">
        <ele>2254</ele>
        <time>2021-08-12T09:01:12.434Z</time>
      </trkpt>
      <trkpt lat="46.8641" lon="8.47826">
        <ele>2254</ele>
        <time>2021-08-12T09:01:13.434Z</time>
      </trkpt>
      <trkpt lat="46.8641" lon="8.47827">
        <ele>2253</ele>
        <time>2021-08-12T09:01:14.434Z</time>
      </trkpt>
      <trkpt lat="46.8641" lon="8.47828">
        <ele>2253</ele>
        <time>2021-08-12T09:01:15.434Z</time>
      </trkpt>
      <trkpt lat="46.8641" lon="8.47829">
        <ele>2252</ele>
        <time>2021-08-12T09:01:16.434Z</time>
      </trkpt>
      <trkpt lat="46.86409" lon="8.4783">
        <ele>2252</ele>
        <time>2021-08-12T09:01:17.434Z</time>
      </trkpt>
      <trkpt lat="46.86409" lon="8.4783">
        <ele>2251</ele>
        <time>2021-08-12T09:01:18.435Z</time>
      </trkpt>
      <trkpt lat="46.86409" lon="8.47831">
        <ele>2251</ele>
        <time>2021-08-12T09:01:19.434Z</time>
      </trkpt>
      <trkpt lat="46.86408" lon="8.47832">
        <ele>2251</ele>
        <time>2021-08-12T09:01:20.435Z</time>
      </trkpt>
      <trkpt lat="46.86408" lon="8.47833">
        <ele>2251</ele>
        <time>2021-08-12T09:01:21.435Z</time>
      </trkpt>
      <trkpt lat="46.86408" lon="8.47834">
        <ele>2251</ele>
        <time>2021-08-12T09:01:22.434Z</time>
      </trkpt>
      <trkpt lat="46.86407" lon="8.47834">
        <ele>2251</ele>
        <time>2021-08-12T09:01:23.435Z</time>
      </trkpt>
      <trkpt lat="46.86406" lon="8.47835">
        <ele>2252</ele>
        <time>2021-08-12T09:01:24.435Z</time>
      </trkpt>
      <trkpt lat="46.86406" lon="8.47836">
        <ele>2252</ele>
        <time>2021-08-12T09:01:25.435Z</time>
      </trkpt>
      <trkpt lat="46.86406" lon="8.47837">
        <ele>2252</ele>
        <time>2021-08-12T09:01:26.435Z</time>
      </trkpt>
      <trkpt lat="46.86405" lon="8.47838">
        <ele>2252</ele>
        <time>2021-08-12T09:01:27.435Z</time>
      </trkpt>
      <trkpt lat="46.86405" lon="8.47839">
        <ele>2252</ele>
        <time>2021-08-12T09:01:28.435Z</time>
      </trkpt>
      <trkpt lat="46.86405" lon="8.47839">
        <ele>2252</ele>
        <time>2021-08-12T09:01:29.435Z</time>
      </trkpt>
      <trkpt lat="46.86405" lon="8.4784">
        <ele>2252</ele>
        <time>2021-08-12T09:01:30.435Z</time>
      </trkpt>
      <trkpt lat="46.86404" lon="8.47841">
        <ele>2253</ele>
        <time>2021-08-12T09:01:31.435Z</time>
      </trkpt>
      <trkpt lat="46.86404" lon="8.47842">
        <ele>2252</ele>
        <time>2021-08-12T09:01:32.435Z</time>
      </trkpt>
      <trkpt lat="46.86403" lon="8.47842">
        <ele>2252</ele>
        <time>2021-08-12T09:01:33.435Z</time>
      </trkpt>
      <trkpt lat="46.86403" lon="8.47843">
        <ele>2252</ele>
        <time>2021-08-12T09:01:34.434Z</time>
      </trkpt>
      <trkpt lat="46.86402" lon="8.47844">
        <ele>2252</ele>
        <time>2021-08-12T09:01:35.434Z</time>
      </trkpt>
      <trkpt lat="46.86401" lon="8.47845">
        <ele>2252</ele>
        <time>2021-08-12T09:01:36.434Z</time>
      </trkpt>
      <trkpt lat="46.86401" lon="8.47846">
        <ele>2252</ele>
        <time>2021-08-12T09:01:37.435Z</time>
      </trkpt>
      <trkpt lat="46.864" lon="8.47847">
        <ele>2252</ele>
        <time>2021-08-12T09:01:38.434Z</time>
      </trkpt>
      <trkpt lat="46.864" lon="8.47848">
        <ele>2252</ele>
        <time>2021-08-12T09:01:39.435Z</time>
      </trkpt>
      <trkpt lat="46.86399" lon="8.47849">
        <ele>2251</ele>
        <time>2021-08-12T09:01:40.434Z</time>
      </trkpt>
      <trkpt lat="46.86399" lon="8.47849">
        <ele>2250</ele>
        <time>2021-08-12T09:01:41.434Z</time>
      </trkpt>
      <trkpt lat="46.86399" lon="8.4785">
        <ele>2250</ele>
        <time>2021-08-12T09:01:42.435Z</time>
      </trkpt>
      <trkpt lat="46.86399" lon="8.47851">
        <ele>2249</ele>
        <time>2021-08-12T09:01:43.435Z</time>
      </trkpt>
      <trkpt lat="46.86399" lon="8.47851">
        <ele>2249</ele>
        <time>2021-08-12T09:01:44.435Z</time>
      </trkpt>
      <trkpt lat="46.86399" lon="8.47852">
        <ele>2250</ele>
        <time>2021-08-12T09:01:45.435Z</time>
      </trkpt>
      <trkpt lat="46.86398" lon="8.47852">
        <ele>2250</ele>
        <time>2021-08-12T09:01:46.435Z</time>
      </trkpt>
      <trkpt lat="46.86398" lon="8.47853">
        <ele>2251</ele>
        <time>2021-08-12T09:01:47.434Z</time>
      </trkpt>
      <trkpt lat="46.86397" lon="8.47853">
        <ele>2251</ele>
        <time>2021-08-12T09:01:48.434Z</time>
      </trkpt>
      <trkpt lat="46.86397" lon="8.47853">
        <ele>2252</ele>
        <time>2021-08-12T09:01:49.435Z</time>
      </trkpt>
      <trkpt lat="46.86396" lon="8.47853">
        <ele>2253</ele>
        <time>2021-08-12T09:01:50.435Z</time>
      </trkpt>
      <trkpt lat="46.86396" lon="8.47854">
        <ele>2253</ele>
        <time>2021-08-12T09:01:51.435Z</time>
      </trkpt>
      <trkpt lat="46.86395" lon="8.47854">
        <ele>2254</ele>
        <time>2021-08-12T09:01:52.434Z</time>
      </trkpt>
      <trkpt lat="46.86394" lon="8.47855">
        <ele>2254</ele>
        <time>2021-08-12T09:01:53.435Z</time>
      </trkpt>
      <trkpt lat="46.86394" lon="8.47855">
        <ele>2255</ele>
        <time>2021-08-12T09:01:54.434Z</time>
      </trkpt>
      <trkpt lat="46.86394" lon="8.47856">
        <ele>2255</ele>
        <time>2021-08-12T09:01:55.434Z</time>
      </trkpt>
      <trkpt lat="46.86393" lon="8.47857">
        <ele>2256</ele>
        <time>2021-08-12T09:01:56.435Z</time>
      </trkpt>
      <trkpt lat="46.86393" lon="8.47857">
        <ele>2256</ele>
        <time>2021-08-12T09:01:57.435Z</time>
      </trkpt>
      <trkpt lat="46.86393" lon="8.47858">
        <ele>2256</ele>
        <time>2021-08-12T09:01:58.434Z</time>
      </trkpt>
      <trkpt lat="46.86392" lon="8.47859">
        <ele>2256</ele>
        <time>2021-08-12T09:01:59.435Z</time>
      </trkpt>
      <trkpt lat="46.86392" lon="8.4786">
        <ele>2255</ele>
        <time>2021-08-12T09:02:00.435Z</time>
      </trkpt>
      <trkpt lat="46.86392" lon="8.47861">
        <ele>2255</ele>
        <time>2021-08-12T09:02:01.435Z</time>
      </trkpt>
      <trkpt lat="46.86391" lon="8.47862">
        <ele>2255</ele>
        <time>2021-08-12T09:02:02.434Z</time>
      </trkpt>
      <trkpt lat="46.86391" lon="8.47863">
        <ele>2254</ele>
        <time>2021-08-12T09:02:03.434Z</time>
      </trkpt>
      <trkpt lat="46.86391" lon="8.47864">
        <ele>2254</ele>
        <time>2021-08-12T09:02:04.434Z</time>
      </trkpt>
      <trkpt lat="46.86391" lon="8.47866">
        <ele>2253</ele>
        <time>2021-08-12T09:02:05.434Z</time>
      </trkpt>
      <trkpt lat="46.8639" lon="8.47867">
        <ele>2253</ele>
        <time>2021-08-12T09:02:06.435Z</time>
      </trkpt>
      <trkpt lat="46.8639" lon="8.47868">
        <ele>2253</ele>
        <time>2021-08-12T09:02:07.434Z</time>
      </trkpt>
      <trkpt lat="46.8639" lon="8.4787">
        <ele>2253</ele>
        <time>2021-08-12T09:02:08.434Z</time>
      </trkpt>
      <trkpt lat="46.8639" lon="8.47871">
        <ele>2253</ele>
        <time>2021-08-12T09:02:09.434Z</time>
      </trkpt>
      <trkpt lat="46.86389" lon="8.47873">
        <ele>2252</ele>
        <time>2021-08-12T09:02:10.435Z</time>
      </trkpt>
      <trkpt lat="46.86389" lon="8.47874">
        <ele>2252</ele>
        <time>2021-08-12T09:02:11.435Z</time>
      </trkpt>
      <trkpt lat="46.86389" lon="8.47875">
        <ele>2253</ele>
        <time>2021-08-12T09:02:12.434Z</time>
      </trkpt>
      <trkpt lat="46.86389" lon="8.47877">
        <ele>2253</ele>
        <time>2021-08-12T09:02:13.434Z</time>
      </trkpt>
      <trkpt lat="46.86388" lon="8.47878">
        <ele>2253</ele>
        <time>2021-08-12T09:02:14.434Z</time>
      </trkpt>
      <trkpt lat="46.86388" lon="8.47879">
        <ele>2253</ele>
        <time>2021-08-12T09:02:15.434Z</time>
      </trkpt>
      <trkpt lat="46.86388" lon="8.4788">
        <ele>2254</ele>
        <time>2021-08-12T09:02:16.434Z</time>
      </trkpt>
      <trkpt lat="46.86387" lon="8.47882">
        <ele>2254</ele>
        <time>2021-08-12T09:02:17.434Z</time>
      </trkpt>
      <trkpt lat="46.86387" lon="8.47883">
        <ele>2254</ele>
        <time>2021-08-12T09:02:18.434Z</time>
      </trkpt>
      <trkpt lat="46.86387" lon="8.47885">
        <ele>2254</ele>
        <time>2021-08-12T09:02:19.434Z</time>
      </trkpt>
      <trkpt lat="46.86387" lon="8.47886">
        <ele>2255</ele>
        <time>2021-08-12T09:02:20.434Z</time>
      </trkpt>
      <trkpt lat="46.86387" lon="8.47887">
        <ele>2255</ele>
        <time>2021-08-12T09:02:21.434Z</time>
      </trkpt>
      <trkpt lat="46.86386" lon="8.47888">
        <ele>2256</ele>
        <time>2021-08-12T09:02:22.434Z</time>
      </trkpt>
      <trkpt lat="46.86386" lon="8.4789">
        <ele>2257</ele>
        <time>2021-08-12T09:02:23.434Z</time>
      </trkpt>
      <trkpt lat="46.86386" lon="8.47891">
        <ele>2258</ele>
        <time>2021-08-12T09:02:24.434Z</time>
      </trkpt>
      <trkpt lat="46.86386" lon="8.47892">
        <ele>2259</ele>
        <time>2021-08-12T09:02:25.434Z</time>
      </trkpt>
      <trkpt lat="46.86386" lon="8.47893">
        <ele>2259</ele>
        <time>2021-08-12T09:02:26.434Z</time>
      </trkpt>
      <trkpt lat="46.86386" lon="8.47894">
        <ele>2259</ele>
        <time>2021-08-12T09:02:27.434Z</time>
      </trkpt>
      <trkpt lat="46.86386" lon="8.47895">
        <ele>2260</ele>
        <time>2021-08-12T09:02:28.434Z</time>
      </trkpt>
      <trkpt lat="46.86386" lon="8.47895">
        <ele>2260</ele>
        <time>2021-08-12T09:02:29.435Z</time>
      </trkpt>
      <trkpt lat="46.86386" lon="8.47896">
        <ele>2260</ele>
        <time>2021-08-12T09:02:30.434Z</time>
      </trkpt>
      <trkpt lat="46.86386" lon="8.47896">
        <ele>2259</ele>
        <time>2021-08-12T09:02:31.434Z</time>
      </trkpt>
      <trkpt lat="46.86386" lon="8.47897">
        <ele>2259</ele>
        <time>2021-08-12T09:02:32.434Z</time>
      </trkpt>
      <trkpt lat="46.86386" lon="8.47897">
        <ele>2259</ele>
        <time>2021-08-12T09:02:33.434Z</time>
      </trkpt>
      <trkpt lat="46.86386" lon="8.47898">
        <ele>2259</ele>
        <time>2021-08-12T09:02:34.434Z</time>
      </trkpt>
      <trkpt lat="46.86387" lon="8.47899">
        <ele>2259</ele>
        <time>2021-08-12T09:02:35.434Z</time>
      </trkpt>
      <trkpt lat="46.86387" lon="8.47899">
        <ele>2259</ele>
        <time>2021-08-12T09:02:36.435Z</time>
      </trkpt>
      <trkpt lat="46.86387" lon="8.479">
        <ele>2259</ele>
        <time>2021-08-12T09:02:37.435Z</time>
      </trkpt>
      <trkpt lat="46.86385" lon="8.47901">
        <ele>2261</ele>
        <time>2021-08-12T09:02:38.435Z</time>
      </trkpt>
      <trkpt lat="46.86385" lon="8.47902">
        <ele>2262</ele>
        <time>2021-08-12T09:02:39.435Z</time>
      </trkpt>
      <trkpt lat="46.86385" lon="8.47903">
        <ele>2262</ele>
        <time>2021-08-12T09:02:40.436Z</time>
      </trkpt>
      <trkpt lat="46.86385" lon="8.47904">
        <ele>2262</ele>
        <time>2021-08-12T09:02:41.436Z</time>
      </trkpt>
      <trkpt lat="46.86385" lon="8.47904">
        <ele>2262</ele>
        <time>2021-08-12T09:02:42.435Z</time>
      </trkpt>
      <trkpt lat="46.86385" lon="8.47904">
        <ele>2263</ele>
        <time>2021-08-12T09:02:43.436Z</time>
      </trkpt>
      <trkpt lat="46.86385" lon="8.47904">
        <ele>2263</ele>
        <time>2021-08-12T09:02:44.435Z</time>
      </trkpt>
      <trkpt lat="46.86386" lon="8.47905">
        <ele>2263</ele>
        <time>2021-08-12T09:02:45.436Z</time>
      </trkpt>
      <trkpt lat="46.86386" lon="8.47906">
        <ele>2263</ele>
        <time>2021-08-12T09:02:46.436Z</time>
      </trkpt>
      <trkpt lat="46.86386" lon="8.47907">
        <ele>2262</ele>
        <time>2021-08-12T09:02:47.435Z</time>
      </trkpt>
      <trkpt lat="46.86386" lon="8.47907">
        <ele>2262</ele>
        <time>2021-08-12T09:02:48.435Z</time>
      </trkpt>
      <trkpt lat="46.86386" lon="8.47908">
        <ele>2262</ele>
        <time>2021-08-12T09:02:49.436Z</time>
      </trkpt>
      <trkpt lat="46.86386" lon="8.47909">
        <ele>2261</ele>
        <time>2021-08-12T09:02:50.435Z</time>
      </trkpt>
      <trkpt lat="46.86385" lon="8.4791">
        <ele>2261</ele>
        <time>2021-08-12T09:02:51.436Z</time>
      </trkpt>
      <trkpt lat="46.86384" lon="8.47911">
        <ele>2261</ele>
        <time>2021-08-12T09:02:52.436Z</time>
      </trkpt>
      <trkpt lat="46.86384" lon="8.47912">
        <ele>2261</ele>
        <time>2021-08-12T09:02:53.435Z</time>
      </trkpt>
      <trkpt lat="46.86384" lon="8.47913">
        <ele>2261</ele>
        <time>2021-08-12T09:02:54.435Z</time>
      </trkpt>
      <trkpt lat="46.86384" lon="8.47914">
        <ele>2261</ele>
        <time>2021-08-12T09:02:55.435Z</time>
      </trkpt>
      <trkpt lat="46.86384" lon="8.47915">
        <ele>2262</ele>
        <time>2021-08-12T09:02:56.436Z</time>
      </trkpt>
      <trkpt lat="46.86383" lon="8.47916">
        <ele>2263</ele>
        <time>2021-08-12T09:02:57.436Z</time>
      </trkpt>
      <trkpt lat="46.86383" lon="8.47917">
        <ele>2263</ele>
        <time>2021-08-12T09:02:58.436Z</time>
      </trkpt>
      <trkpt lat="46.86383" lon="8.47918">
        <ele>2264</ele>
        <time>2021-08-12T09:02:59.436Z</time>
      </trkpt>
      <trkpt lat="46.86383" lon="8.47919">
        <ele>2264</ele>
        <time>2021-08-12T09:03:00.435Z</time>
      </trkpt>
      <trkpt lat="46.86383" lon="8.4792">
        <ele>2265</ele>
        <time>2021-08-12T09:03:01.436Z</time>
      </trkpt>
      <trkpt lat="46.86384" lon="8.47921">
        <ele>2264</ele>
        <time>2021-08-12T09:03:02.435Z</time>
      </trkpt>
      <trkpt lat="46.86384" lon="8.47922">
        <ele>2264</ele>
        <time>2021-08-12T09:03:03.435Z</time>
      </trkpt>
      <trkpt lat="46.86384" lon="8.47922">
        <ele>2264</ele>
        <time>2021-08-12T09:03:04.436Z</time>
      </trkpt>
      <trkpt lat="46.86384" lon="8.47923">
        <ele>2263</ele>
        <time>2021-08-12T09:03:05.435Z</time>
      </trkpt>
      <trkpt lat="46.86384" lon="8.47925">
        <ele>2263</ele>
        <time>2021-08-12T09:03:06.436Z</time>
      </trkpt>
      <trkpt lat="46.86384" lon="8.47926">
        <ele>2262</ele>
        <time>2021-08-12T09:03:07.436Z</time>
      </trkpt>
      <trkpt lat="46.86384" lon="8.47927">
        <ele>2262</ele>
        <time>2021-08-12T09:03:08.436Z</time>
      </trkpt>
      <trkpt lat="46.86383" lon="8.47926">
        <ele>2263</ele>
        <time>2021-08-12T09:03:09.436Z</time>
      </trkpt>
      <trkpt lat="46.86383" lon="8.47927">
        <ele>2263</ele>
        <time>2021-08-12T09:03:10.436Z</time>
      </trkpt>
      <trkpt lat="46.86382" lon="8.47927">
        <ele>2263</ele>
        <time>2021-08-12T09:03:11.436Z</time>
      </trkpt>
      <trkpt lat="46.86382" lon="8.47929">
        <ele>2264</ele>
        <time>2021-08-12T09:03:12.435Z</time>
      </trkpt>
      <trkpt lat="46.86382" lon="8.4793">
        <ele>2264</ele>
        <time>2021-08-12T09:03:13.436Z</time>
      </trkpt>
      <trkpt lat="46.86382" lon="8.47931">
        <ele>2264</ele>
        <time>2021-08-12T09:03:14.436Z</time>
      </trkpt>
      <trkpt lat="46.86382" lon="8.47932">
        <ele>2264</ele>
        <time>2021-08-12T09:03:15.436Z</time>
      </trkpt>
      <trkpt lat="46.86382" lon="8.47933">
        <ele>2264</ele>
        <time>2021-08-12T09:03:16.436Z</time>
      </trkpt>
      <trkpt lat="46.86382" lon="8.47933">
        <ele>2264</ele>
        <time>2021-08-12T09:03:17.436Z</time>
      </trkpt>
      <trkpt lat="46.86382" lon="8.47934">
        <ele>2264</ele>
        <time>2021-08-12T09:03:18.435Z</time>
      </trkpt>
      <trkpt lat="46.86382" lon="8.47935">
        <ele>2264</ele>
        <time>2021-08-12T09:03:19.436Z</time>
      </trkpt>
      <trkpt lat="46.86382" lon="8.47936">
        <ele>2264</ele>
        <time>2021-08-12T09:03:20.436Z</time>
      </trkpt>
      <trkpt lat="46.86382" lon="8.47937">
        <ele>2264</ele>
        <time>2021-08-12T09:03:21.436Z</time>
      </trkpt>
      <trkpt lat="46.86382" lon="8.47938">
        <ele>2264</ele>
        <time>2021-08-12T09:03:22.435Z</time>
      </trkpt>
      <trkpt lat="46.86382" lon="8.47939">
        <ele>2265</ele>
        <time>2021-08-12T09:03:23.435Z</time>
      </trkpt>
      <trkpt lat="46.86382" lon="8.4794">
        <ele>2265</ele>
        <time>2021-08-12T09:03:24.436Z</time>
      </trkpt>
      <trkpt lat="46.86382" lon="8.4794">
        <ele>2265</ele>
        <time>2021-08-12T09:03:25.435Z</time>
      </trkpt>
      <trkpt lat="46.86382" lon="8.47941">
        <ele>2265</ele>
        <time>2021-08-12T09:03:26.436Z</time>
      </trkpt>
      <trkpt lat="46.86381" lon="8.47942">
        <ele>2265</ele>
        <time>2021-08-12T09:03:27.436Z</time>
      </trkpt>
      <trkpt lat="46.86381" lon="8.47943">
        <ele>2265</ele>
        <time>2021-08-12T09:03:28.436Z</time>
      </trkpt>
      <trkpt lat="46.86381" lon="8.47943">
        <ele>2265</ele>
        <time>2021-08-12T09:03:29.436Z</time>
      </trkpt>
      <trkpt lat="46.8638" lon="8.47943">
        <ele>2265</ele>
        <time>2021-08-12T09:03:30.436Z</time>
      </trkpt>
      <trkpt lat="46.86379" lon="8.47943">
        <ele>2266</ele>
        <time>2021-08-12T09:03:31.435Z</time>
      </trkpt>
      <trkpt lat="46.86378" lon="8.47942">
        <ele>2266</ele>
        <time>2021-08-12T09:03:32.436Z</time>
      </trkpt>
      <trkpt lat="46.86378" lon="8.47942">
        <ele>2266</ele>
        <time>2021-08-12T09:03:33.436Z</time>
      </trkpt>
      <trkpt lat="46.86377" lon="8.47943">
        <ele>2266</ele>
        <time>2021-08-12T09:03:34.436Z</time>
      </trkpt>
      <trkpt lat="46.86377" lon="8.47943">
        <ele>2267</ele>
        <time>2021-08-12T09:03:35.435Z</time>
      </trkpt>
      <trkpt lat="46.86376" lon="8.47943">
        <ele>2267</ele>
        <time>2021-08-12T09:03:36.436Z</time>
      </trkpt>
      <trkpt lat="46.86376" lon="8.47944">
        <ele>2268</ele>
        <time>2021-08-12T09:03:37.435Z</time>
      </trkpt>
      <trkpt lat="46.86376" lon="8.47945">
        <ele>2268</ele>
        <time>2021-08-12T09:03:38.436Z</time>
      </trkpt>
      <trkpt lat="46.86376" lon="8.47946">
        <ele>2269</ele>
        <time>2021-08-12T09:03:39.436Z</time>
      </trkpt>
      <trkpt lat="46.86376" lon="8.47946">
        <ele>2269</ele>
        <time>2021-08-12T09:03:40.435Z</time>
      </trkpt>
      <trkpt lat="46.86377" lon="8.47947">
        <ele>2270</ele>
        <time>2021-08-12T09:03:41.436Z</time>
      </trkpt>
      <trkpt lat="46.86377" lon="8.47948">
        <ele>2270</ele>
        <time>2021-08-12T09:03:42.435Z</time>
      </trkpt>
      <trkpt lat="46.86378" lon="8.47948">
        <ele>2270</ele>
        <time>2021-08-12T09:03:43.436Z</time>
      </trkpt>
      <trkpt lat="46.86378" lon="8.47949">
        <ele>2270</ele>
        <time>2021-08-12T09:03:44.435Z</time>
      </trkpt>
      <trkpt lat="46.86377" lon="8.47949">
        <ele>2270</ele>
        <time>2021-08-12T09:03:45.435Z</time>
      </trkpt>
      <trkpt lat="46.86377" lon="8.4795">
        <ele>2271</ele>
        <time>2021-08-12T09:03:46.436Z</time>
      </trkpt>
      <trkpt lat="46.86376" lon="8.4795">
        <ele>2271</ele>
        <time>2021-08-12T09:03:47.435Z</time>
      </trkpt>
      <trkpt lat="46.86375" lon="8.4795">
        <ele>2272</ele>
        <time>2021-08-12T09:03:48.436Z</time>
      </trkpt>
      <trkpt lat="46.86374" lon="8.47949">
        <ele>2273</ele>
        <time>2021-08-12T09:03:49.436Z</time>
      </trkpt>
      <trkpt lat="46.86373" lon="8.47949">
        <ele>2274</ele>
        <time>2021-08-12T09:03:50.435Z</time>
      </trkpt>
      <trkpt lat="46.86373" lon="8.4795">
        <ele>2275</ele>
        <time>2021-08-12T09:03:51.436Z</time>
      </trkpt>
      <trkpt lat="46.86372" lon="8.47951">
        <ele>2276</ele>
        <time>2021-08-12T09:03:52.436Z</time>
      </trkpt>
      <trkpt lat="46.86372" lon="8.47952">
        <ele>2276</ele>
        <time>2021-08-12T09:03:53.436Z</time>
      </trkpt>
      <trkpt lat="46.86371" lon="8.47954">
        <ele>2276</ele>
        <time>2021-08-12T09:03:54.436Z</time>
      </trkpt>
      <trkpt lat="46.86371" lon="8.47955">
        <ele>2276</ele>
        <time>2021-08-12T09:03:55.435Z</time>
      </trkpt>
      <trkpt lat="46.86372" lon="8.47956">
        <ele>2276</ele>
        <time>2021-08-12T09:03:56.436Z</time>
      </trkpt>
      <trkpt lat="46.86372" lon="8.47957">
        <ele>2276</ele>
        <time>2021-08-12T09:03:57.436Z</time>
      </trkpt>
      <trkpt lat="46.86372" lon="8.47957">
        <ele>2275</ele>
        <time>2021-08-12T09:03:58.436Z</time>
      </trkpt>
      <trkpt lat="46.86371" lon="8.47959">
        <ele>2274</ele>
        <time>2021-08-12T09:03:59.436Z</time>
      </trkpt>
      <trkpt lat="46.86371" lon="8.4796">
        <ele>2274</ele>
        <time>2021-08-12T09:04:00.436Z</time>
      </trkpt>
      <trkpt lat="46.86371" lon="8.47961">
        <ele>2274</ele>
        <time>2021-08-12T09:04:01.435Z</time>
      </trkpt>
      <trkpt lat="46.8637" lon="8.47962">
        <ele>2273</ele>
        <time>2021-08-12T09:04:02.436Z</time>
      </trkpt>
      <trkpt lat="46.8637" lon="8.47963">
        <ele>2274</ele>
        <time>2021-08-12T09:04:03.436Z</time>
      </trkpt>
      <trkpt lat="46.8637" lon="8.47964">
        <ele>2274</ele>
        <time>2021-08-12T09:04:04.435Z</time>
      </trkpt>
      <trkpt lat="46.8637" lon="8.47965">
        <ele>2274</ele>
        <time>2021-08-12T09:04:05.436Z</time>
      </trkpt>
      <trkpt lat="46.8637" lon="8.47966">
        <ele>2274</ele>
        <time>2021-08-12T09:04:06.436Z</time>
      </trkpt>
      <trkpt lat="46.86369" lon="8.47966">
        <ele>2275</ele>
        <time>2021-08-12T09:04:07.435Z</time>
      </trkpt>
      <trkpt lat="46.86369" lon="8.47967">
        <ele>2275</ele>
        <time>2021-08-12T09:04:08.436Z</time>
      </trkpt>
      <trkpt lat="46.86369" lon="8.47968">
        <ele>2275</ele>
        <time>2021-08-12T09:04:09.436Z</time>
      </trkpt>
      <trkpt lat="46.86368" lon="8.47968">
        <ele>2275</ele>
        <time>2021-08-12T09:04:10.435Z</time>
      </trkpt>
      <trkpt lat="46.86368" lon="8.47968">
        <ele>2275</ele>
        <time>2021-08-12T09:04:11.436Z</time>
      </trkpt>
      <trkpt lat="46.86367" lon="8.47969">
        <ele>2276</ele>
        <time>2021-08-12T09:04:12.435Z</time>
      </trkpt>
      <trkpt lat="46.86367" lon="8.47969">
        <ele>2276</ele>
        <time>2021-08-12T09:04:13.435Z</time>
      </trkpt>
      <trkpt lat="46.86367" lon="8.47969">
        <ele>2276</ele>
        <time>2021-08-12T09:04:14.436Z</time>
      </trkpt>
      <trkpt lat="46.86366" lon="8.4797">
        <ele>2276</ele>
        <time>2021-08-12T09:04:15.436Z</time>
      </trkpt>
      <trkpt lat="46.86365" lon="8.4797">
        <ele>2277</ele>
        <time>2021-08-12T09:04:16.436Z</time>
      </trkpt>
      <trkpt lat="46.86365" lon="8.47971">
        <ele>2277</ele>
        <time>2021-08-12T09:04:17.436Z</time>
      </trkpt>
      <trkpt lat="46.86364" lon="8.47971">
        <ele>2277</ele>
        <time>2021-08-12T09:04:18.436Z</time>
      </trkpt>
      <trkpt lat="46.86363" lon="8.47972">
        <ele>2277</ele>
        <time>2021-08-12T09:04:19.435Z</time>
      </trkpt>
      <trkpt lat="46.86363" lon="8.47972">
        <ele>2276</ele>
        <time>2021-08-12T09:04:20.435Z</time>
      </trkpt>
      <trkpt lat="46.86363" lon="8.47973">
        <ele>2276</ele>
        <time>2021-08-12T09:04:21.436Z</time>
      </trkpt>
      <trkpt lat="46.86363" lon="8.47974">
        <ele>2276</ele>
        <time>2021-08-12T09:04:22.436Z</time>
      </trkpt>
      <trkpt lat="46.86364" lon="8.47974">
        <ele>2276</ele>
        <time>2021-08-12T09:04:23.435Z</time>
      </trkpt>
      <trkpt lat="46.86364" lon="8.47975">
        <ele>2276</ele>
        <time>2021-08-12T09:04:24.436Z</time>
      </trkpt>
      <trkpt lat="46.86364" lon="8.47976">
        <ele>2276</ele>
        <time>2021-08-12T09:04:25.436Z</time>
      </trkpt>
      <trkpt lat="46.86364" lon="8.47977">
        <ele>2276</ele>
        <time>2021-08-12T09:04:26.436Z</time>
      </trkpt>
      <trkpt lat="46.86364" lon="8.47977">
        <ele>2276</ele>
        <time>2021-08-12T09:04:27.436Z</time>
      </trkpt>
      <trkpt lat="46.86363" lon="8.47978">
        <ele>2277</ele>
        <time>2021-08-12T09:04:28.436Z</time>
      </trkpt>
      <trkpt lat="46.86363" lon="8.47978">
        <ele>2277</ele>
        <time>2021-08-12T09:04:29.436Z</time>
      </trkpt>
      <trkpt lat="46.86363" lon="8.47978">
        <ele>2277</ele>
        <time>2021-08-12T09:04:30.436Z</time>
      </trkpt>
      <trkpt lat="46.86362" lon="8.47978">
        <ele>2277</ele>
        <time>2021-08-12T09:04:31.436Z</time>
      </trkpt>
      <trkpt lat="46.86361" lon="8.47978">
        <ele>2278</ele>
        <time>2021-08-12T09:04:32.435Z</time>
      </trkpt>
      <trkpt lat="46.8636" lon="8.47978">
        <ele>2279</ele>
        <time>2021-08-12T09:04:33.435Z</time>
      </trkpt>
      <trkpt lat="46.8636" lon="8.47978">
        <ele>2280</ele>
        <time>2021-08-12T09:04:34.435Z</time>
      </trkpt>
      <trkpt lat="46.86359" lon="8.47978">
        <ele>2280</ele>
        <time>2021-08-12T09:04:35.436Z</time>
      </trkpt>
      <trkpt lat="46.86358" lon="8.47979">
        <ele>2281</ele>
        <time>2021-08-12T09:04:36.435Z</time>
      </trkpt>
      <trkpt lat="46.86358" lon="8.47979">
        <ele>2281</ele>
        <time>2021-08-12T09:04:37.436Z</time>
      </trkpt>
      <trkpt lat="46.86358" lon="8.47979">
        <ele>2282</ele>
        <time>2021-08-12T09:04:38.435Z</time>
      </trkpt>
      <trkpt lat="46.86357" lon="8.47985">
        <ele>2282</ele>
        <time>2021-08-12T09:04:39.435Z</time>
      </trkpt>
      <trkpt lat="46.86358" lon="8.47986">
        <ele>2282</ele>
        <time>2021-08-12T09:04:40.436Z</time>
      </trkpt>
      <trkpt lat="46.86358" lon="8.47986">
        <ele>2281</ele>
        <time>2021-08-12T09:04:41.435Z</time>
      </trkpt>
      <trkpt lat="46.86361" lon="8.47985">
        <ele>2283</ele>
        <time>2021-08-12T09:04:42.436Z</time>
      </trkpt>
      <trkpt lat="46.86361" lon="8.47985">
        <ele>2283</ele>
        <time>2021-08-12T09:04:43.436Z</time>
      </trkpt>
      <trkpt lat="46.86362" lon="8.47985">
        <ele>2283</ele>
        <time>2021-08-12T09:04:44.435Z</time>
      </trkpt>
      <trkpt lat="46.86362" lon="8.47986">
        <ele>2282</ele>
        <time>2021-08-12T09:04:45.437Z</time>
      </trkpt>
      <trkpt lat="46.86362" lon="8.47986">
        <ele>2282</ele>
        <time>2021-08-12T09:04:46.437Z</time>
      </trkpt>
      <trkpt lat="46.86362" lon="8.47986">
        <ele>2282</ele>
        <time>2021-08-12T09:04:47.436Z</time>
      </trkpt>
      <trkpt lat="46.86362" lon="8.47988">
        <ele>2280</ele>
        <time>2021-08-12T09:04:48.436Z</time>
      </trkpt>
      <trkpt lat="46.86361" lon="8.47989">
        <ele>2279</ele>
        <time>2021-08-12T09:04:49.437Z</time>
      </trkpt>
      <trkpt lat="46.86361" lon="8.4799">
        <ele>2279</ele>
        <time>2021-08-12T09:04:50.436Z</time>
      </trkpt>
      <trkpt lat="46.86361" lon="8.4799">
        <ele>2278</ele>
        <time>2021-08-12T09:04:51.436Z</time>
      </trkpt>
      <trkpt lat="46.86361" lon="8.47991">
        <ele>2278</ele>
        <time>2021-08-12T09:04:52.436Z</time>
      </trkpt>
      <trkpt lat="46.86361" lon="8.47993">
        <ele>2277</ele>
        <time>2021-08-12T09:04:53.437Z</time>
      </trkpt>
      <trkpt lat="46.86361" lon="8.47994">
        <ele>2276</ele>
        <time>2021-08-12T09:04:54.436Z</time>
      </trkpt>
      <trkpt lat="46.86361" lon="8.47995">
        <ele>2276</ele>
        <time>2021-08-12T09:04:55.437Z</time>
      </trkpt>
      <trkpt lat="46.86361" lon="8.47996">
        <ele>2275</ele>
        <time>2021-08-12T09:04:56.437Z</time>
      </trkpt>
      <trkpt lat="46.8636" lon="8.47997">
        <ele>2275</ele>
        <time>2021-08-12T09:04:57.437Z</time>
      </trkpt>
      <trkpt lat="46.8636" lon="8.47998">
        <ele>2274</ele>
        <time>2021-08-12T09:04:58.437Z</time>
      </trkpt>
      <trkpt lat="46.86359" lon="8.47998">
        <ele>2274</ele>
        <time>2021-08-12T09:04:59.437Z</time>
      </trkpt>
      <trkpt lat="46.86359" lon="8.47998">
        <ele>2274</ele>
        <time>2021-08-12T09:05:00.436Z</time>
      </trkpt>
      <trkpt lat="46.86359" lon="8.47998">
        <ele>2274</ele>
        <time>2021-08-12T09:05:01.436Z</time>
      </trkpt>
      <trkpt lat="46.86359" lon="8.47999">
        <ele>2273</ele>
        <time>2021-08-12T09:05:02.437Z</time>
      </trkpt>
      <trkpt lat="46.86358" lon="8.48001">
        <ele>2273</ele>
        <time>2021-08-12T09:05:03.437Z</time>
      </trkpt>
      <trkpt lat="46.86358" lon="8.48001">
        <ele>2273</ele>
        <time>2021-08-12T09:05:04.436Z</time>
      </trkpt>
      <trkpt lat="46.86358" lon="8.48002">
        <ele>2273</ele>
        <time>2021-08-12T09:05:05.436Z</time>
      </trkpt>
      <trkpt lat="46.86358" lon="8.48002">
        <ele>2273</ele>
        <time>2021-08-12T09:05:06.437Z</time>
      </trkpt>
      <trkpt lat="46.86358" lon="8.48003">
        <ele>2273</ele>
        <time>2021-08-12T09:05:07.437Z</time>
      </trkpt>
      <trkpt lat="46.86358" lon="8.48003">
        <ele>2273</ele>
        <time>2021-08-12T09:05:08.437Z</time>
      </trkpt>
      <trkpt lat="46.86357" lon="8.48003">
        <ele>2273</ele>
        <time>2021-08-12T09:05:09.436Z</time>
      </trkpt>
      <trkpt lat="46.86357" lon="8.48003">
        <ele>2274</ele>
        <time>2021-08-12T09:05:10.437Z</time>
      </trkpt>
      <trkpt lat="46.86356" lon="8.48003">
        <ele>2274</ele>
        <time>2021-08-12T09:05:11.437Z</time>
      </trkpt>
      <trkpt lat="46.86355" lon="8.48003">
        <ele>2274</ele>
        <time>2021-08-12T09:05:12.437Z</time>
      </trkpt>
      <trkpt lat="46.86354" lon="8.48003">
        <ele>2275</ele>
        <time>2021-08-12T09:05:13.436Z</time>
      </trkpt>
      <trkpt lat="46.86353" lon="8.48004">
        <ele>2275</ele>
        <time>2021-08-12T09:05:14.437Z</time>
      </trkpt>
      <trkpt lat="46.86352" lon="8.48005">
        <ele>2275</ele>
        <time>2021-08-12T09:05:15.437Z</time>
      </trkpt>
      <trkpt lat="46.86351" lon="8.48006">
        <ele>2275</ele>
        <time>2021-08-12T09:05:16.437Z</time>
      </trkpt>
      <trkpt lat="46.8635" lon="8.48006">
        <ele>2275</ele>
        <time>2021-08-12T09:05:17.437Z</time>
      </trkpt>
      <trkpt lat="46.8635" lon="8.48006">
        <ele>2276</ele>
        <time>2021-08-12T09:05:18.437Z</time>
      </trkpt>
      <trkpt lat="46.8635" lon="8.48005">
        <ele>2276</ele>
        <time>2021-08-12T09:05:19.436Z</time>
      </trkpt>
      <trkpt lat="46.8635" lon="8.48004">
        <ele>2276</ele>
        <time>2021-08-12T09:05:20.437Z</time>
      </trkpt>
      <trkpt lat="46.86351" lon="8.48004">
        <ele>2276</ele>
        <time>2021-08-12T09:05:21.437Z</time>
      </trkpt>
      <trkpt lat="46.8635" lon="8.48004">
        <ele>2276</ele>
        <time>2021-08-12T09:05:22.436Z</time>
      </trkpt>
      <trkpt lat="46.8635" lon="8.48005">
        <ele>2276</ele>
        <time>2021-08-12T09:05:23.436Z</time>
      </trkpt>
      <trkpt lat="46.8635" lon="8.48006">
        <ele>2277</ele>
        <time>2021-08-12T09:05:24.437Z</time>
      </trkpt>
      <trkpt lat="46.8635" lon="8.48007">
        <ele>2277</ele>
        <time>2021-08-12T09:05:25.436Z</time>
      </trkpt>
      <trkpt lat="46.86349" lon="8.48007">
        <ele>2278</ele>
        <time>2021-08-12T09:05:26.437Z</time>
      </trkpt>
      <trkpt lat="46.86349" lon="8.48008">
        <ele>2278</ele>
        <time>2021-08-12T09:05:27.437Z</time>
      </trkpt>
      <trkpt lat="46.86349" lon="8.48008">
        <ele>2279</ele>
        <time>2021-08-12T09:05:28.437Z</time>
      </trkpt>
      <trkpt lat="46.86348" lon="8.48008">
        <ele>2280</ele>
        <time>2021-08-12T09:05:29.436Z</time>
      </trkpt>
      <trkpt lat="46.86348" lon="8.48008">
        <ele>2280</ele>
        <time>2021-08-12T09:05:30.437Z</time>
      </trkpt>
      <trkpt lat="46.86348" lon="8.48009">
        <ele>2281</ele>
        <time>2021-08-12T09:05:31.437Z</time>
      </trkpt>
      <trkpt lat="46.86348" lon="8.48009">
        <ele>2281</ele>
        <time>2021-08-12T09:05:32.437Z</time>
      </trkpt>
      <trkpt lat="46.86348" lon="8.4801">
        <ele>2281</ele>
        <time>2021-08-12T09:05:33.437Z</time>
      </trkpt>
      <trkpt lat="46.86348" lon="8.4801">
        <ele>2281</ele>
        <time>2021-08-12T09:05:34.436Z</time>
      </trkpt>
      <trkpt lat="46.86348" lon="8.48011">
        <ele>2282</ele>
        <time>2021-08-12T09:05:35.437Z</time>
      </trkpt>
      <trkpt lat="46.86348" lon="8.48012">
        <ele>2282</ele>
        <time>2021-08-12T09:05:36.437Z</time>
      </trkpt>
      <trkpt lat="46.86348" lon="8.48012">
        <ele>2282</ele>
        <time>2021-08-12T09:05:37.437Z</time>
      </trkpt>
      <trkpt lat="46.86349" lon="8.48013">
        <ele>2282</ele>
        <time>2021-08-12T09:05:38.437Z</time>
      </trkpt>
      <trkpt lat="46.86348" lon="8.48013">
        <ele>2283</ele>
        <time>2021-08-12T09:05:39.437Z</time>
      </trkpt>
      <trkpt lat="46.86349" lon="8.48016">
        <ele>2281</ele>
        <time>2021-08-12T09:05:40.436Z</time>
      </trkpt>
      <trkpt lat="46.86348" lon="8.48015">
        <ele>2292</ele>
        <time>2021-08-12T09:05:41.437Z</time>
      </trkpt>
      <trkpt lat="46.86348" lon="8.48016">
        <ele>2293</ele>
        <time>2021-08-12T09:05:42.436Z</time>
      </trkpt>
      <trkpt lat="46.86348" lon="8.48016">
        <ele>2294</ele>
        <time>2021-08-12T09:05:43.436Z</time>
      </trkpt>
      <trkpt lat="46.86349" lon="8.4802">
        <ele>2289</ele>
        <time>2021-08-12T09:05:44.437Z</time>
      </trkpt>
      <trkpt lat="46.86348" lon="8.48022">
        <ele>2287</ele>
        <time>2021-08-12T09:05:45.437Z</time>
      </trkpt>
      <trkpt lat="46.86348" lon="8.48022">
        <ele>2285</ele>
        <time>2021-08-12T09:05:46.437Z</time>
      </trkpt>
      <trkpt lat="46.86349" lon="8.48021">
        <ele>2284</ele>
        <time>2021-08-12T09:05:47.437Z</time>
      </trkpt>
      <trkpt lat="46.86349" lon="8.48022">
        <ele>2283</ele>
        <time>2021-08-12T09:05:48.437Z</time>
      </trkpt>
      <trkpt lat="46.86349" lon="8.48022">
        <ele>2282</ele>
        <time>2021-08-12T09:05:49.437Z</time>
      </trkpt>
      <trkpt lat="46.86349" lon="8.48022">
        <ele>2282</ele>
        <time>2021-08-12T09:05:50.438Z</time>
      </trkpt>
      <trkpt lat="46.86348" lon="8.4802">
        <ele>2279</ele>
        <time>2021-08-12T09:05:51.438Z</time>
      </trkpt>
      <trkpt lat="46.86348" lon="8.48019">
        <ele>2279</ele>
        <time>2021-08-12T09:05:52.439Z</time>
      </trkpt>
      <trkpt lat="46.86348" lon="8.48018">
        <ele>2279</ele>
        <time>2021-08-12T09:05:53.439Z</time>
      </trkpt>
      <trkpt lat="46.86351" lon="8.48007">
        <ele>2283</ele>
        <time>2021-08-12T09:05:54.439Z</time>
      </trkpt>
      <trkpt lat="46.86351" lon="8.48007">
        <ele>2284</ele>
        <time>2021-08-12T09:05:55.439Z</time>
      </trkpt>
      <trkpt lat="46.86351" lon="8.48007">
        <ele>2284</ele>
        <time>2021-08-12T09:05:56.438Z</time>
      </trkpt>
      <trkpt lat="46.86351" lon="8.48007">
        <ele>2284</ele>
        <time>2021-08-12T09:05:57.439Z</time>
      </trkpt>
      <trkpt lat="46.86351" lon="8.48007">
        <ele>2284</ele>
        <time>2021-08-12T09:05:58.438Z</time>
      </trkpt>
      <trkpt lat="46.8635" lon="8.48008">
        <ele>2285</ele>
        <time>2021-08-12T09:05:59.439Z</time>
      </trkpt>
      <trkpt lat="46.8635" lon="8.48009">
        <ele>2285</ele>
        <time>2021-08-12T09:06:00.439Z</time>
      </trkpt>
      <trkpt lat="46.8635" lon="8.48009">
        <ele>2285</ele>
        <time>2021-08-12T09:06:01.439Z</time>
      </trkpt>
      <trkpt lat="46.8635" lon="8.48009">
        <ele>2285</ele>
        <time>2021-08-12T09:06:02.439Z</time>
      </trkpt>
      <trkpt lat="46.8635" lon="8.48015">
        <ele>2294</ele>
        <time>2021-08-12T09:06:03.440Z</time>
      </trkpt>
      <trkpt lat="46.8635" lon="8.48016">
        <ele>2294</ele>
        <time>2021-08-12T09:06:04.440Z</time>
      </trkpt>
      <trkpt lat="46.8635" lon="8.48016">
        <ele>2295</ele>
        <time>2021-08-12T09:06:05.440Z</time>
      </trkpt>
      <trkpt lat="46.86348" lon="8.48016">
        <ele>2289</ele>
        <time>2021-08-12T09:06:06.440Z</time>
      </trkpt>
      <trkpt lat="46.86347" lon="8.48019">
        <ele>2290</ele>
        <time>2021-08-12T09:06:07.440Z</time>
      </trkpt>
      <trkpt lat="46.86346" lon="8.4802">
        <ele>2290</ele>
        <time>2021-08-12T09:06:08.440Z</time>
      </trkpt>
      <trkpt lat="46.86346" lon="8.4802">
        <ele>2290</ele>
        <time>2021-08-12T09:06:09.441Z</time>
      </trkpt>
      <trkpt lat="46.86346" lon="8.4802">
        <ele>2290</ele>
        <time>2021-08-12T09:06:10.440Z</time>
      </trkpt>
      <trkpt lat="46.86345" lon="8.48021">
        <ele>2290</ele>
        <time>2021-08-12T09:06:11.440Z</time>
      </trkpt>
      <trkpt lat="46.86344" lon="8.48021">
        <ele>2290</ele>
        <time>2021-08-12T09:06:12.440Z</time>
      </trkpt>
      <trkpt lat="46.86344" lon="8.48021">
        <ele>2291</ele>
        <time>2021-08-12T09:06:13.440Z</time>
      </trkpt>
      <trkpt lat="46.86344" lon="8.48022">
        <ele>2291</ele>
        <time>2021-08-12T09:06:14.440Z</time>
      </trkpt>
      <trkpt lat="46.86344" lon="8.48023">
        <ele>2291</ele>
        <time>2021-08-12T09:06:15.440Z</time>
      </trkpt>
      <trkpt lat="46.86344" lon="8.48023">
        <ele>2291</ele>
        <time>2021-08-12T09:06:16.440Z</time>
      </trkpt>
      <trkpt lat="46.86343" lon="8.48024">
        <ele>2291</ele>
        <time>2021-08-12T09:06:17.440Z</time>
      </trkpt>
      <trkpt lat="46.86343" lon="8.48024">
        <ele>2290</ele>
        <time>2021-08-12T09:06:18.440Z</time>
      </trkpt>
      <trkpt lat="46.86343" lon="8.48025">
        <ele>2290</ele>
        <time>2021-08-12T09:06:19.441Z</time>
      </trkpt>
      <trkpt lat="46.86342" lon="8.48026">
        <ele>2290</ele>
        <time>2021-08-12T09:06:20.440Z</time>
      </trkpt>
      <trkpt lat="46.86342" lon="8.48026">
        <ele>2290</ele>
        <time>2021-08-12T09:06:21.440Z</time>
      </trkpt>
      <trkpt lat="46.86341" lon="8.48027">
        <ele>2290</ele>
        <time>2021-08-12T09:06:22.440Z</time>
      </trkpt>
      <trkpt lat="46.8634" lon="8.48028">
        <ele>2290</ele>
        <time>2021-08-12T09:06:23.441Z</time>
      </trkpt>
      <trkpt lat="46.8634" lon="8.48029">
        <ele>2289</ele>
        <time>2021-08-12T09:06:24.441Z</time>
      </trkpt>
      <trkpt lat="46.8634" lon="8.4803">
        <ele>2289</ele>
        <time>2021-08-12T09:06:25.440Z</time>
      </trkpt>
      <trkpt lat="46.86339" lon="8.48031">
        <ele>2289</ele>
        <time>2021-08-12T09:06:26.440Z</time>
      </trkpt>
      <trkpt lat="46.86339" lon="8.48032">
        <ele>2289</ele>
        <time>2021-08-12T09:06:27.440Z</time>
      </trkpt>
      <trkpt lat="46.86339" lon="8.48034">
        <ele>2288</ele>
        <time>2021-08-12T09:06:28.441Z</time>
      </trkpt>
      <trkpt lat="46.86339" lon="8.48034">
        <ele>2288</ele>
        <time>2021-08-12T09:06:29.440Z</time>
      </trkpt>
      <trkpt lat="46.86339" lon="8.48036">
        <ele>2288</ele>
        <time>2021-08-12T09:06:30.440Z</time>
      </trkpt>
      <trkpt lat="46.86338" lon="8.48037">
        <ele>2287</ele>
        <time>2021-08-12T09:06:31.440Z</time>
      </trkpt>
      <trkpt lat="46.86338" lon="8.48037">
        <ele>2287</ele>
        <time>2021-08-12T09:06:32.440Z</time>
      </trkpt>
      <trkpt lat="46.86338" lon="8.48038">
        <ele>2287</ele>
        <time>2021-08-12T09:06:33.441Z</time>
      </trkpt>
      <trkpt lat="46.86337" lon="8.48039">
        <ele>2287</ele>
        <time>2021-08-12T09:06:34.440Z</time>
      </trkpt>
      <trkpt lat="46.86337" lon="8.48039">
        <ele>2286</ele>
        <time>2021-08-12T09:06:35.440Z</time>
      </trkpt>
      <trkpt lat="46.86337" lon="8.4804">
        <ele>2286</ele>
        <time>2021-08-12T09:06:36.441Z</time>
      </trkpt>
      <trkpt lat="46.86337" lon="8.48041">
        <ele>2286</ele>
        <time>2021-08-12T09:06:37.440Z</time>
      </trkpt>
      <trkpt lat="46.86337" lon="8.48042">
        <ele>2286</ele>
        <time>2021-08-12T09:06:38.441Z</time>
      </trkpt>
      <trkpt lat="46.86337" lon="8.48043">
        <ele>2286</ele>
        <time>2021-08-12T09:06:39.440Z</time>
      </trkpt>
      <trkpt lat="46.86337" lon="8.48043">
        <ele>2286</ele>
        <time>2021-08-12T09:06:40.440Z</time>
      </trkpt>
      <trkpt lat="46.86337" lon="8.48044">
        <ele>2286</ele>
        <time>2021-08-12T09:06:41.440Z</time>
      </trkpt>
      <trkpt lat="46.86337" lon="8.48045">
        <ele>2286</ele>
        <time>2021-08-12T09:06:42.440Z</time>
      </trkpt>
      <trkpt lat="46.86337" lon="8.48046">
        <ele>2287</ele>
        <time>2021-08-12T09:06:43.440Z</time>
      </trkpt>
      <trkpt lat="46.86338" lon="8.48048">
        <ele>2287</ele>
        <time>2021-08-12T09:06:44.441Z</time>
      </trkpt>
      <trkpt lat="46.86339" lon="8.48048">
        <ele>2288</ele>
        <time>2021-08-12T09:06:45.441Z</time>
      </trkpt>
      <trkpt lat="46.86339" lon="8.48049">
        <ele>2288</ele>
        <time>2021-08-12T09:06:46.441Z</time>
      </trkpt>
      <trkpt lat="46.86339" lon="8.48051">
        <ele>2288</ele>
        <time>2021-08-12T09:06:47.441Z</time>
      </trkpt>
      <trkpt lat="46.8634" lon="8.48051">
        <ele>2288</ele>
        <time>2021-08-12T09:06:48.440Z</time>
      </trkpt>
      <trkpt lat="46.8634" lon="8.48051">
        <ele>2289</ele>
        <time>2021-08-12T09:06:49.441Z</time>
      </trkpt>
      <trkpt lat="46.8634" lon="8.48052">
        <ele>2289</ele>
        <time>2021-08-12T09:06:50.441Z</time>
      </trkpt>
      <trkpt lat="46.86341" lon="8.48052">
        <ele>2289</ele>
        <time>2021-08-12T09:06:51.440Z</time>
      </trkpt>
      <trkpt lat="46.86341" lon="8.48053">
        <ele>2289</ele>
        <time>2021-08-12T09:06:52.440Z</time>
      </trkpt>
      <trkpt lat="46.86341" lon="8.48054">
        <ele>2290</ele>
        <time>2021-08-12T09:06:53.441Z</time>
      </trkpt>
      <trkpt lat="46.86341" lon="8.48055">
        <ele>2290</ele>
        <time>2021-08-12T09:06:54.440Z</time>
      </trkpt>
      <trkpt lat="46.8634" lon="8.48056">
        <ele>2290</ele>
        <time>2021-08-12T09:06:55.441Z</time>
      </trkpt>
      <trkpt lat="46.8634" lon="8.48057">
        <ele>2291</ele>
        <time>2021-08-12T09:06:56.440Z</time>
      </trkpt>
      <trkpt lat="46.8634" lon="8.48058">
        <ele>2291</ele>
        <time>2021-08-12T09:06:57.441Z</time>
      </trkpt>
      <trkpt lat="46.8634" lon="8.48059">
        <ele>2292</ele>
        <time>2021-08-12T09:06:58.441Z</time>
      </trkpt>
      <trkpt lat="46.8634" lon="8.4806">
        <ele>2292</ele>
        <time>2021-08-12T09:06:59.441Z</time>
      </trkpt>
      <trkpt lat="46.8634" lon="8.48062">
        <ele>2293</ele>
        <time>2021-08-12T09:07:00.440Z</time>
      </trkpt>
      <trkpt lat="46.86339" lon="8.48064">
        <ele>2293</ele>
        <time>2021-08-12T09:07:01.441Z</time>
      </trkpt>
      <trkpt lat="46.86339" lon="8.48065">
        <ele>2294</ele>
        <time>2021-08-12T09:07:02.441Z</time>
      </trkpt>
      <trkpt lat="46.86339" lon="8.48066">
        <ele>2294</ele>
        <time>2021-08-12T09:07:03.441Z</time>
      </trkpt>
      <trkpt lat="46.86339" lon="8.48068">
        <ele>2295</ele>
        <time>2021-08-12T09:07:04.440Z</time>
      </trkpt>
      <trkpt lat="46.86339" lon="8.48069">
        <ele>2295</ele>
        <time>2021-08-12T09:07:05.441Z</time>
      </trkpt>
      <trkpt lat="46.86339" lon="8.48071">
        <ele>2295</ele>
        <time>2021-08-12T09:07:06.441Z</time>
      </trkpt>
      <trkpt lat="46.86339" lon="8.48072">
        <ele>2295</ele>
        <time>2021-08-12T09:07:07.441Z</time>
      </trkpt>
      <trkpt lat="46.86339" lon="8.48074">
        <ele>2295</ele>
        <time>2021-08-12T09:07:08.441Z</time>
      </trkpt>
      <trkpt lat="46.86339" lon="8.48075">
        <ele>2295</ele>
        <time>2021-08-12T09:07:09.441Z</time>
      </trkpt>
      <trkpt lat="46.86339" lon="8.48076">
        <ele>2295</ele>
        <time>2021-08-12T09:07:10.441Z</time>
      </trkpt>
      <trkpt lat="46.86339" lon="8.48076">
        <ele>2295</ele>
        <time>2021-08-12T09:07:11.441Z</time>
      </trkpt>
      <trkpt lat="46.86339" lon="8.48077">
        <ele>2295</ele>
        <time>2021-08-12T09:07:12.440Z</time>
      </trkpt>
      <trkpt lat="46.86339" lon="8.48078">
        <ele>2295</ele>
        <time>2021-08-12T09:07:13.441Z</time>
      </trkpt>
      <trkpt lat="46.86339" lon="8.48079">
        <ele>2294</ele>
        <time>2021-08-12T09:07:14.441Z</time>
      </trkpt>
      <trkpt lat="46.86339" lon="8.48081">
        <ele>2294</ele>
        <time>2021-08-12T09:07:15.441Z</time>
      </trkpt>
      <trkpt lat="46.86339" lon="8.48082">
        <ele>2294</ele>
        <time>2021-08-12T09:07:16.441Z</time>
      </trkpt>
      <trkpt lat="46.86339" lon="8.48084">
        <ele>2294</ele>
        <time>2021-08-12T09:07:17.440Z</time>
      </trkpt>
      <trkpt lat="46.86339" lon="8.48086">
        <ele>2294</ele>
        <time>2021-08-12T09:07:18.440Z</time>
      </trkpt>
      <trkpt lat="46.86338" lon="8.48089">
        <ele>2294</ele>
        <time>2021-08-12T09:07:19.441Z</time>
      </trkpt>
      <trkpt lat="46.86338" lon="8.48093">
        <ele>2294</ele>
        <time>2021-08-12T09:07:20.441Z</time>
      </trkpt>
      <trkpt lat="46.86337" lon="8.48095">
        <ele>2294</ele>
        <time>2021-08-12T09:07:21.440Z</time>
      </trkpt>
      <trkpt lat="46.86337" lon="8.48096">
        <ele>2294</ele>
        <time>2021-08-12T09:07:22.441Z</time>
      </trkpt>
      <trkpt lat="46.86338" lon="8.48099">
        <ele>2294</ele>
        <time>2021-08-12T09:07:23.441Z</time>
      </trkpt>
      <trkpt lat="46.86337" lon="8.48101">
        <ele>2294</ele>
        <time>2021-08-12T09:07:24.440Z</time>
      </trkpt>
      <trkpt lat="46.86338" lon="8.48101">
        <ele>2293</ele>
        <time>2021-08-12T09:07:25.441Z</time>
      </trkpt>
      <trkpt lat="46.86338" lon="8.48103">
        <ele>2292</ele>
        <time>2021-08-12T09:07:26.440Z</time>
      </trkpt>
      <trkpt lat="46.86337" lon="8.48103">
        <ele>2292</ele>
        <time>2021-08-12T09:07:27.441Z</time>
      </trkpt>
      <trkpt lat="46.86336" lon="8.48104">
        <ele>2292</ele>
        <time>2021-08-12T09:07:28.440Z</time>
      </trkpt>
      <trkpt lat="46.86336" lon="8.48105">
        <ele>2292</ele>
        <time>2021-08-12T09:07:29.441Z</time>
      </trkpt>
      <trkpt lat="46.86336" lon="8.48106">
        <ele>2292</ele>
        <time>2021-08-12T09:07:30.441Z</time>
      </trkpt>
      <trkpt lat="46.86336" lon="8.48107">
        <ele>2292</ele>
        <time>2021-08-12T09:07:31.440Z</time>
      </trkpt>
      <trkpt lat="46.86336" lon="8.48108">
        <ele>2292</ele>
        <time>2021-08-12T09:07:32.441Z</time>
      </trkpt>
      <trkpt lat="46.86336" lon="8.48109">
        <ele>2292</ele>
        <time>2021-08-12T09:07:33.441Z</time>
      </trkpt>
      <trkpt lat="46.86337" lon="8.4811">
        <ele>2292</ele>
        <time>2021-08-12T09:07:34.441Z</time>
      </trkpt>
      <trkpt lat="46.86337" lon="8.48111">
        <ele>2293</ele>
        <time>2021-08-12T09:07:35.441Z</time>
      </trkpt>
      <trkpt lat="46.86337" lon="8.48112">
        <ele>2293</ele>
        <time>2021-08-12T09:07:36.440Z</time>
      </trkpt>
      <trkpt lat="46.86337" lon="8.48113">
        <ele>2293</ele>
        <time>2021-08-12T09:07:37.441Z</time>
      </trkpt>
      <trkpt lat="46.86337" lon="8.48115">
        <ele>2293</ele>
        <time>2021-08-12T09:07:38.441Z</time>
      </trkpt>
      <trkpt lat="46.86337" lon="8.48115">
        <ele>2293</ele>
        <time>2021-08-12T09:07:39.440Z</time>
      </trkpt>
      <trkpt lat="46.86337" lon="8.48116">
        <ele>2292</ele>
        <time>2021-08-12T09:07:40.440Z</time>
      </trkpt>
      <trkpt lat="46.86337" lon="8.48117">
        <ele>2292</ele>
        <time>2021-08-12T09:07:41.441Z</time>
      </trkpt>
      <trkpt lat="46.86337" lon="8.48118">
        <ele>2292</ele>
        <time>2021-08-12T09:07:42.440Z</time>
      </trkpt>
      <trkpt lat="46.86338" lon="8.48119">
        <ele>2292</ele>
        <time>2021-08-12T09:07:43.440Z</time>
      </trkpt>
      <trkpt lat="46.86338" lon="8.4812">
        <ele>2293</ele>
        <time>2021-08-12T09:07:44.441Z</time>
      </trkpt>
      <trkpt lat="46.86338" lon="8.48121">
        <ele>2293</ele>
        <time>2021-08-12T09:07:45.441Z</time>
      </trkpt>
      <trkpt lat="46.86338" lon="8.48122">
        <ele>2293</ele>
        <time>2021-08-12T09:07:46.441Z</time>
      </trkpt>
      <trkpt lat="46.86339" lon="8.48122">
        <ele>2293</ele>
        <time>2021-08-12T09:07:47.441Z</time>
      </trkpt>
      <trkpt lat="46.86339" lon="8.48123">
        <ele>2293</ele>
        <time>2021-08-12T09:07:48.441Z</time>
      </trkpt>
      <trkpt lat="46.86339" lon="8.48124">
        <ele>2293</ele>
        <time>2021-08-12T09:07:49.441Z</time>
      </trkpt>
      <trkpt lat="46.8634" lon="8.48124">
        <ele>2293</ele>
        <time>2021-08-12T09:07:50.441Z</time>
      </trkpt>
      <trkpt lat="46.8634" lon="8.48123">
        <ele>2293</ele>
        <time>2021-08-12T09:07:51.440Z</time>
      </trkpt>
      <trkpt lat="46.86341" lon="8.48122">
        <ele>2293</ele>
        <time>2021-08-12T09:07:52.441Z</time>
      </trkpt>
      <trkpt lat="46.86341" lon="8.48121">
        <ele>2293</ele>
        <time>2021-08-12T09:07:53.441Z</time>
      </trkpt>
      <trkpt lat="46.86342" lon="8.48123">
        <ele>2294</ele>
        <time>2021-08-12T09:07:54.441Z</time>
      </trkpt>
      <trkpt lat="46.86342" lon="8.48123">
        <ele>2294</ele>
        <time>2021-08-12T09:07:55.441Z</time>
      </trkpt>
      <trkpt lat="46.86342" lon="8.48123">
        <ele>2294</ele>
        <time>2021-08-12T09:07:56.441Z</time>
      </trkpt>
      <trkpt lat="46.86342" lon="8.48123">
        <ele>2294</ele>
        <time>2021-08-12T09:07:57.441Z</time>
      </trkpt>
      <trkpt lat="46.86341" lon="8.48121">
        <ele>2294</ele>
        <time>2021-08-12T09:07:58.442Z</time>
      </trkpt>
      <trkpt lat="46.8634" lon="8.4812">
        <ele>2294</ele>
        <time>2021-08-12T09:07:59.442Z</time>
      </trkpt>
      <trkpt lat="46.8634" lon="8.4812">
        <ele>2294</ele>
        <time>2021-08-12T09:08:00.443Z</time>
      </trkpt>
      <trkpt lat="46.8634" lon="8.4812">
        <ele>2294</ele>
        <time>2021-08-12T09:08:01.442Z</time>
      </trkpt>
      <trkpt lat="46.8634" lon="8.48119">
        <ele>2294</ele>
        <time>2021-08-12T09:08:02.442Z</time>
      </trkpt>
      <trkpt lat="46.8634" lon="8.48119">
        <ele>2294</ele>
        <time>2021-08-12T09:08:03.442Z</time>
      </trkpt>
      <trkpt lat="46.8634" lon="8.48119">
        <ele>2294</ele>
        <time>2021-08-12T09:08:04.443Z</time>
      </trkpt>
      <trkpt lat="46.8634" lon="8.48123">
        <ele>2294</ele>
        <time>2021-08-12T09:08:05.444Z</time>
      </trkpt>
      <trkpt lat="46.8634" lon="8.48124">
        <ele>2294</ele>
        <time>2021-08-12T09:08:06.444Z</time>
      </trkpt>
      <trkpt lat="46.8634" lon="8.48125">
        <ele>2293</ele>
        <time>2021-08-12T09:08:07.443Z</time>
      </trkpt>
      <trkpt lat="46.86341" lon="8.48127">
        <ele>2293</ele>
        <time>2021-08-12T09:08:08.443Z</time>
      </trkpt>
      <trkpt lat="46.86341" lon="8.48128">
        <ele>2293</ele>
        <time>2021-08-12T09:08:09.444Z</time>
      </trkpt>
      <trkpt lat="46.86342" lon="8.48128">
        <ele>2293</ele>
        <time>2021-08-12T09:08:10.444Z</time>
      </trkpt>
      <trkpt lat="46.86342" lon="8.48128">
        <ele>2293</ele>
        <time>2021-08-12T09:08:11.443Z</time>
      </trkpt>
      <trkpt lat="46.86343" lon="8.48128">
        <ele>2293</ele>
        <time>2021-08-12T09:08:12.444Z</time>
      </trkpt>
      <trkpt lat="46.86343" lon="8.48129">
        <ele>2293</ele>
        <time>2021-08-12T09:08:13.443Z</time>
      </trkpt>
      <trkpt lat="46.86343" lon="8.48131">
        <ele>2294</ele>
        <time>2021-08-12T09:08:14.444Z</time>
      </trkpt>
      <trkpt lat="46.86344" lon="8.48132">
        <ele>2294</ele>
        <time>2021-08-12T09:08:15.444Z</time>
      </trkpt>
      <trkpt lat="46.86344" lon="8.48132">
        <ele>2294</ele>
        <time>2021-08-12T09:08:16.443Z</time>
      </trkpt>
      <trkpt lat="46.86344" lon="8.48133">
        <ele>2294</ele>
        <time>2021-08-12T09:08:17.443Z</time>
      </trkpt>
      <trkpt lat="46.86344" lon="8.48134">
        <ele>2295</ele>
        <time>2021-08-12T09:08:18.443Z</time>
      </trkpt>
      <trkpt lat="46.86344" lon="8.48134">
        <ele>2295</ele>
        <time>2021-08-12T09:08:19.443Z</time>
      </trkpt>
      <trkpt lat="46.86344" lon="8.48135">
        <ele>2295</ele>
        <time>2021-08-12T09:08:20.443Z</time>
      </trkpt>
      <trkpt lat="46.86344" lon="8.48136">
        <ele>2296</ele>
        <time>2021-08-12T09:08:21.443Z</time>
      </trkpt>
      <trkpt lat="46.86344" lon="8.48136">
        <ele>2296</ele>
        <time>2021-08-12T09:08:22.443Z</time>
      </trkpt>
      <trkpt lat="46.86344" lon="8.48137">
        <ele>2296</ele>
        <time>2021-08-12T09:08:23.443Z</time>
      </trkpt>
      <trkpt lat="46.86343" lon="8.48138">
        <ele>2296</ele>
        <time>2021-08-12T09:08:24.443Z</time>
      </trkpt>
      <trkpt lat="46.86343" lon="8.48139">
        <ele>2296</ele>
        <time>2021-08-12T09:08:25.444Z</time>
      </trkpt>
      <trkpt lat="46.86343" lon="8.4814">
        <ele>2296</ele>
        <time>2021-08-12T09:08:26.444Z</time>
      </trkpt>
      <trkpt lat="46.86343" lon="8.4814">
        <ele>2296</ele>
        <time>2021-08-12T09:08:27.444Z</time>
      </trkpt>
      <trkpt lat="46.86343" lon="8.48141">
        <ele>2296</ele>
        <time>2021-08-12T09:08:28.444Z</time>
      </trkpt>
      <trkpt lat="46.86343" lon="8.48142">
        <ele>2296</ele>
        <time>2021-08-12T09:08:29.444Z</time>
      </trkpt>
      <trkpt lat="46.86343" lon="8.48143">
        <ele>2296</ele>
        <time>2021-08-12T09:08:30.444Z</time>
      </trkpt>
      <trkpt lat="46.86343" lon="8.48143">
        <ele>2297</ele>
        <time>2021-08-12T09:08:31.444Z</time>
      </trkpt>
      <trkpt lat="46.86342" lon="8.48144">
        <ele>2297</ele>
        <time>2021-08-12T09:08:32.443Z</time>
      </trkpt>
      <trkpt lat="46.86342" lon="8.48144">
        <ele>2297</ele>
        <time>2021-08-12T09:08:33.444Z</time>
      </trkpt>
      <trkpt lat="46.86342" lon="8.48144">
        <ele>2297</ele>
        <time>2021-08-12T09:08:34.444Z</time>
      </trkpt>
      <trkpt lat="46.86342" lon="8.48145">
        <ele>2298</ele>
        <time>2021-08-12T09:08:35.443Z</time>
      </trkpt>
      <trkpt lat="46.86341" lon="8.48146">
        <ele>2299</ele>
        <time>2021-08-12T09:08:36.444Z</time>
      </trkpt>
      <trkpt lat="46.86341" lon="8.48147">
        <ele>2299</ele>
        <time>2021-08-12T09:08:37.444Z</time>
      </trkpt>
      <trkpt lat="46.86341" lon="8.48147">
        <ele>2300</ele>
        <time>2021-08-12T09:08:38.443Z</time>
      </trkpt>
      <trkpt lat="46.86341" lon="8.48148">
        <ele>2301</ele>
        <time>2021-08-12T09:08:39.443Z</time>
      </trkpt>
      <trkpt lat="46.8634" lon="8.48149">
        <ele>2301</ele>
        <time>2021-08-12T09:08:40.444Z</time>
      </trkpt>
      <trkpt lat="46.8634" lon="8.48149">
        <ele>2302</ele>
        <time>2021-08-12T09:08:41.444Z</time>
      </trkpt>
      <trkpt lat="46.8634" lon="8.48149">
        <ele>2302</ele>
        <time>2021-08-12T09:08:42.443Z</time>
      </trkpt>
      <trkpt lat="46.8634" lon="8.48149">
        <ele>2302</ele>
        <time>2021-08-12T09:08:43.444Z</time>
      </trkpt>
      <trkpt lat="46.8634" lon="8.4815">
        <ele>2303</ele>
        <time>2021-08-12T09:08:44.443Z</time>
      </trkpt>
      <trkpt lat="46.8634" lon="8.48151">
        <ele>2303</ele>
        <time>2021-08-12T09:08:45.443Z</time>
      </trkpt>
      <trkpt lat="46.8634" lon="8.48152">
        <ele>2302</ele>
        <time>2021-08-12T09:08:46.443Z</time>
      </trkpt>
      <trkpt lat="46.86341" lon="8.48153">
        <ele>2302</ele>
        <time>2021-08-12T09:08:47.444Z</time>
      </trkpt>
      <trkpt lat="46.86342" lon="8.48153">
        <ele>2302</ele>
        <time>2021-08-12T09:08:48.443Z</time>
      </trkpt>
      <trkpt lat="46.86343" lon="8.48153">
        <ele>2302</ele>
        <time>2021-08-12T09:08:49.443Z</time>
      </trkpt>
      <trkpt lat="46.86343" lon="8.48154">
        <ele>2303</ele>
        <time>2021-08-12T09:08:50.444Z</time>
      </trkpt>
      <trkpt lat="46.86343" lon="8.48155">
        <ele>2303</ele>
        <time>2021-08-12T09:08:51.443Z</time>
      </trkpt>
      <trkpt lat="46.86343" lon="8.48156">
        <ele>2304</ele>
        <time>2021-08-12T09:08:52.443Z</time>
      </trkpt>
      <trkpt lat="46.86342" lon="8.48156">
        <ele>2304</ele>
        <time>2021-08-12T09:08:53.444Z</time>
      </trkpt>
      <trkpt lat="46.86342" lon="8.48157">
        <ele>2304</ele>
        <time>2021-08-12T09:08:54.444Z</time>
      </trkpt>
      <trkpt lat="46.86341" lon="8.48157">
        <ele>2305</ele>
        <time>2021-08-12T09:08:55.444Z</time>
      </trkpt>
      <trkpt lat="46.8634" lon="8.48158">
        <ele>2305</ele>
        <time>2021-08-12T09:08:56.443Z</time>
      </trkpt>
      <trkpt lat="46.8634" lon="8.48159">
        <ele>2305</ele>
        <time>2021-08-12T09:08:57.444Z</time>
      </trkpt>
      <trkpt lat="46.8634" lon="8.4816">
        <ele>2305</ele>
        <time>2021-08-12T09:08:58.443Z</time>
      </trkpt>
      <trkpt lat="46.86341" lon="8.48161">
        <ele>2305</ele>
        <time>2021-08-12T09:08:59.443Z</time>
      </trkpt>
      <trkpt lat="46.86341" lon="8.48161">
        <ele>2305</ele>
        <time>2021-08-12T09:09:00.444Z</time>
      </trkpt>
      <trkpt lat="46.86341" lon="8.48162">
        <ele>2306</ele>
        <time>2021-08-12T09:09:01.443Z</time>
      </trkpt>
      <trkpt lat="46.86341" lon="8.48163">
        <ele>2306</ele>
        <time>2021-08-12T09:09:02.444Z</time>
      </trkpt>
      <trkpt lat="46.8634" lon="8.48164">
        <ele>2306</ele>
        <time>2021-08-12T09:09:03.444Z</time>
      </trkpt>
      <trkpt lat="46.86339" lon="8.48165">
        <ele>2307</ele>
        <time>2021-08-12T09:09:04.443Z</time>
      </trkpt>
      <trkpt lat="46.86338" lon="8.48165">
        <ele>2307</ele>
        <time>2021-08-12T09:09:05.443Z</time>
      </trkpt>
      <trkpt lat="46.86338" lon="8.48166">
        <ele>2308</ele>
        <time>2021-08-12T09:09:06.443Z</time>
      </trkpt>
      <trkpt lat="46.86338" lon="8.48166">
        <ele>2308</ele>
        <time>2021-08-12T09:09:07.443Z</time>
      </trkpt>
      <trkpt lat="46.86338" lon="8.48167">
        <ele>2309</ele>
        <time>2021-08-12T09:09:08.443Z</time>
      </trkpt>
      <trkpt lat="46.86339" lon="8.48167">
        <ele>2309</ele>
        <time>2021-08-12T09:09:09.443Z</time>
      </trkpt>
      <trkpt lat="46.86339" lon="8.48168">
        <ele>2309</ele>
        <time>2021-08-12T09:09:10.444Z</time>
      </trkpt>
      <trkpt lat="46.86339" lon="8.48169">
        <ele>2309</ele>
        <time>2021-08-12T09:09:11.443Z</time>
      </trkpt>
      <trkpt lat="46.86339" lon="8.48169">
        <ele>2309</ele>
        <time>2021-08-12T09:09:12.444Z</time>
      </trkpt>
      <trkpt lat="46.86338" lon="8.48169">
        <ele>2309</ele>
        <time>2021-08-12T09:09:13.444Z</time>
      </trkpt>
      <trkpt lat="46.86338" lon="8.4817">
        <ele>2309</ele>
        <time>2021-08-12T09:09:14.443Z</time>
      </trkpt>
      <trkpt lat="46.86337" lon="8.48171">
        <ele>2309</ele>
        <time>2021-08-12T09:09:15.443Z</time>
      </trkpt>
      <trkpt lat="46.86337" lon="8.48172">
        <ele>2309</ele>
        <time>2021-08-12T09:09:16.444Z</time>
      </trkpt>
      <trkpt lat="46.86337" lon="8.48173">
        <ele>2309</ele>
        <time>2021-08-12T09:09:17.444Z</time>
      </trkpt>
      <trkpt lat="46.86337" lon="8.48174">
        <ele>2309</ele>
        <time>2021-08-12T09:09:18.444Z</time>
      </trkpt>
      <trkpt lat="46.86337" lon="8.48174">
        <ele>2310</ele>
        <time>2021-08-12T09:09:19.443Z</time>
      </trkpt>
      <trkpt lat="46.86337" lon="8.48174">
        <ele>2310</ele>
        <time>2021-08-12T09:09:20.444Z</time>
      </trkpt>
      <trkpt lat="46.86337" lon="8.48175">
        <ele>2311</ele>
        <time>2021-08-12T09:09:21.444Z</time>
      </trkpt>
      <trkpt lat="46.86338" lon="8.48175">
        <ele>2312</ele>
        <time>2021-08-12T09:09:22.444Z</time>
      </trkpt>
      <trkpt lat="46.86338" lon="8.48175">
        <ele>2312</ele>
        <time>2021-08-12T09:09:23.444Z</time>
      </trkpt>
      <trkpt lat="46.86338" lon="8.48176">
        <ele>2313</ele>
        <time>2021-08-12T09:09:24.443Z</time>
      </trkpt>
      <trkpt lat="46.86338" lon="8.48177">
        <ele>2313</ele>
        <time>2021-08-12T09:09:25.444Z</time>
      </trkpt>
      <trkpt lat="46.86338" lon="8.48178">
        <ele>2312</ele>
        <time>2021-08-12T09:09:26.443Z</time>
      </trkpt>
      <trkpt lat="46.86337" lon="8.48178">
        <ele>2312</ele>
        <time>2021-08-12T09:09:27.444Z</time>
      </trkpt>
      <trkpt lat="46.86337" lon="8.48179">
        <ele>2312</ele>
        <time>2021-08-12T09:09:28.444Z</time>
      </trkpt>
      <trkpt lat="46.86337" lon="8.4818">
        <ele>2312</ele>
        <time>2021-08-12T09:09:29.443Z</time>
      </trkpt>
      <trkpt lat="46.86337" lon="8.48181">
        <ele>2311</ele>
        <time>2021-08-12T09:09:30.444Z</time>
      </trkpt>
      <trkpt lat="46.86336" lon="8.48181">
        <ele>2311</ele>
        <time>2021-08-12T09:09:31.444Z</time>
      </trkpt>
      <trkpt lat="46.86335" lon="8.48182">
        <ele>2311</ele>
        <time>2021-08-12T09:09:32.443Z</time>
      </trkpt>
      <trkpt lat="46.86334" lon="8.48183">
        <ele>2311</ele>
        <time>2021-08-12T09:09:33.443Z</time>
      </trkpt>
      <trkpt lat="46.86334" lon="8.48183">
        <ele>2311</ele>
        <time>2021-08-12T09:09:34.444Z</time>
      </trkpt>
      <trkpt lat="46.86334" lon="8.48183">
        <ele>2311</ele>
        <time>2021-08-12T09:09:35.444Z</time>
      </trkpt>
      <trkpt lat="46.86334" lon="8.48184">
        <ele>2311</ele>
        <time>2021-08-12T09:09:36.444Z</time>
      </trkpt>
      <trkpt lat="46.86334" lon="8.48183">
        <ele>2311</ele>
        <time>2021-08-12T09:09:37.443Z</time>
      </trkpt>
      <trkpt lat="46.86334" lon="8.48184">
        <ele>2312</ele>
        <time>2021-08-12T09:09:38.444Z</time>
      </trkpt>
      <trkpt lat="46.86334" lon="8.48184">
        <ele>2312</ele>
        <time>2021-08-12T09:09:39.444Z</time>
      </trkpt>
      <trkpt lat="46.86334" lon="8.48185">
        <ele>2312</ele>
        <time>2021-08-12T09:09:40.445Z</time>
      </trkpt>
      <trkpt lat="46.86335" lon="8.48185">
        <ele>2312</ele>
        <time>2021-08-12T09:09:41.445Z</time>
      </trkpt>
      <trkpt lat="46.86335" lon="8.48186">
        <ele>2312</ele>
        <time>2021-08-12T09:09:42.444Z</time>
      </trkpt>
      <trkpt lat="46.86335" lon="8.48186">
        <ele>2312</ele>
        <time>2021-08-12T09:09:43.444Z</time>
      </trkpt>
      <trkpt lat="46.86334" lon="8.48187">
        <ele>2312</ele>
        <time>2021-08-12T09:09:44.445Z</time>
      </trkpt>
      <trkpt lat="46.86334" lon="8.48187">
        <ele>2312</ele>
        <time>2021-08-12T09:09:45.445Z</time>
      </trkpt>
      <trkpt lat="46.86333" lon="8.48188">
        <ele>2312</ele>
        <time>2021-08-12T09:09:46.445Z</time>
      </trkpt>
      <trkpt lat="46.86332" lon="8.48189">
        <ele>2312</ele>
        <time>2021-08-12T09:09:47.445Z</time>
      </trkpt>
      <trkpt lat="46.86331" lon="8.4819">
        <ele>2312</ele>
        <time>2021-08-12T09:09:48.445Z</time>
      </trkpt>
      <trkpt lat="46.86331" lon="8.4819">
        <ele>2312</ele>
        <time>2021-08-12T09:09:49.445Z</time>
      </trkpt>
      <trkpt lat="46.86331" lon="8.4819">
        <ele>2313</ele>
        <time>2021-08-12T09:09:50.445Z</time>
      </trkpt>
      <trkpt lat="46.86332" lon="8.4819">
        <ele>2313</ele>
        <time>2021-08-12T09:09:51.444Z</time>
      </trkpt>
      <trkpt lat="46.86332" lon="8.48191">
        <ele>2313</ele>
        <time>2021-08-12T09:09:52.445Z</time>
      </trkpt>
      <trkpt lat="46.86331" lon="8.48191">
        <ele>2314</ele>
        <time>2021-08-12T09:09:53.444Z</time>
      </trkpt>
      <trkpt lat="46.86331" lon="8.48192">
        <ele>2314</ele>
        <time>2021-08-12T09:09:54.445Z</time>
      </trkpt>
      <trkpt lat="46.86331" lon="8.48192">
        <ele>2314</ele>
        <time>2021-08-12T09:09:55.444Z</time>
      </trkpt>
      <trkpt lat="46.86331" lon="8.48193">
        <ele>2315</ele>
        <time>2021-08-12T09:09:56.444Z</time>
      </trkpt>
      <trkpt lat="46.8633" lon="8.48194">
        <ele>2315</ele>
        <time>2021-08-12T09:09:57.445Z</time>
      </trkpt>
      <trkpt lat="46.8633" lon="8.48195">
        <ele>2315</ele>
        <time>2021-08-12T09:09:58.445Z</time>
      </trkpt>
      <trkpt lat="46.8633" lon="8.48196">
        <ele>2315</ele>
        <time>2021-08-12T09:09:59.444Z</time>
      </trkpt>
      <trkpt lat="46.8633" lon="8.48197">
        <ele>2315</ele>
        <time>2021-08-12T09:10:00.445Z</time>
      </trkpt>
      <trkpt lat="46.8633" lon="8.48197">
        <ele>2315</ele>
        <time>2021-08-12T09:10:01.445Z</time>
      </trkpt>
      <trkpt lat="46.86329" lon="8.48198">
        <ele>2316</ele>
        <time>2021-08-12T09:10:02.444Z</time>
      </trkpt>
      <trkpt lat="46.86328" lon="8.48199">
        <ele>2316</ele>
        <time>2021-08-12T09:10:03.445Z</time>
      </trkpt>
      <trkpt lat="46.86328" lon="8.48199">
        <ele>2316</ele>
        <time>2021-08-12T09:10:04.445Z</time>
      </trkpt>
      <trkpt lat="46.86328" lon="8.482">
        <ele>2316</ele>
        <time>2021-08-12T09:10:05.444Z</time>
      </trkpt>
      <trkpt lat="46.86328" lon="8.482">
        <ele>2316</ele>
        <time>2021-08-12T09:10:06.445Z</time>
      </trkpt>
      <trkpt lat="46.86328" lon="8.48201">
        <ele>2316</ele>
        <time>2021-08-12T09:10:07.445Z</time>
      </trkpt>
      <trkpt lat="46.86329" lon="8.482">
        <ele>2316</ele>
        <time>2021-08-12T09:10:08.444Z</time>
      </trkpt>
      <trkpt lat="46.86329" lon="8.482">
        <ele>2317</ele>
        <time>2021-08-12T09:10:09.445Z</time>
      </trkpt>
      <trkpt lat="46.8633" lon="8.482">
        <ele>2317</ele>
        <time>2021-08-12T09:10:10.445Z</time>
      </trkpt>
      <trkpt lat="46.8633" lon="8.48201">
        <ele>2317</ele>
        <time>2021-08-12T09:10:11.444Z</time>
      </trkpt>
      <trkpt lat="46.8633" lon="8.48201">
        <ele>2318</ele>
        <time>2021-08-12T09:10:12.444Z</time>
      </trkpt>
      <trkpt lat="46.86329" lon="8.48202">
        <ele>2318</ele>
        <time>2021-08-12T09:10:13.444Z</time>
      </trkpt>
      <trkpt lat="46.86328" lon="8.48203">
        <ele>2318</ele>
        <time>2021-08-12T09:10:14.444Z</time>
      </trkpt>
      <trkpt lat="46.86329" lon="8.48206">
        <ele>2318</ele>
        <time>2021-08-12T09:10:15.445Z</time>
      </trkpt>
      <trkpt lat="46.86329" lon="8.48207">
        <ele>2318</ele>
        <time>2021-08-12T09:10:16.444Z</time>
      </trkpt>
      <trkpt lat="46.86329" lon="8.48208">
        <ele>2318</ele>
        <time>2021-08-12T09:10:17.444Z</time>
      </trkpt>
      <trkpt lat="46.86329" lon="8.48209">
        <ele>2318</ele>
        <time>2021-08-12T09:10:18.445Z</time>
      </trkpt>
      <trkpt lat="46.86329" lon="8.4821">
        <ele>2319</ele>
        <time>2021-08-12T09:10:19.444Z</time>
      </trkpt>
      <trkpt lat="46.86329" lon="8.4821">
        <ele>2319</ele>
        <time>2021-08-12T09:10:20.444Z</time>
      </trkpt>
      <trkpt lat="46.86329" lon="8.48211">
        <ele>2319</ele>
        <time>2021-08-12T09:10:21.445Z</time>
      </trkpt>
      <trkpt lat="46.86329" lon="8.48211">
        <ele>2318</ele>
        <time>2021-08-12T09:10:22.445Z</time>
      </trkpt>
      <trkpt lat="46.86329" lon="8.48212">
        <ele>2318</ele>
        <time>2021-08-12T09:10:23.444Z</time>
      </trkpt>
      <trkpt lat="46.86328" lon="8.48213">
        <ele>2318</ele>
        <time>2021-08-12T09:10:24.444Z</time>
      </trkpt>
      <trkpt lat="46.86327" lon="8.48214">
        <ele>2318</ele>
        <time>2021-08-12T09:10:25.444Z</time>
      </trkpt>
      <trkpt lat="46.86327" lon="8.48215">
        <ele>2318</ele>
        <time>2021-08-12T09:10:26.444Z</time>
      </trkpt>
      <trkpt lat="46.86326" lon="8.48216">
        <ele>2318</ele>
        <time>2021-08-12T09:10:27.445Z</time>
      </trkpt>
      <trkpt lat="46.86327" lon="8.48217">
        <ele>2318</ele>
        <time>2021-08-12T09:10:28.444Z</time>
      </trkpt>
      <trkpt lat="46.86327" lon="8.48217">
        <ele>2318</ele>
        <time>2021-08-12T09:10:29.444Z</time>
      </trkpt>
      <trkpt lat="46.86328" lon="8.48216">
        <ele>2319</ele>
        <time>2021-08-12T09:10:30.445Z</time>
      </trkpt>
      <trkpt lat="46.86329" lon="8.48216">
        <ele>2319</ele>
        <time>2021-08-12T09:10:31.445Z</time>
      </trkpt>
      <trkpt lat="46.86328" lon="8.48217">
        <ele>2321</ele>
        <time>2021-08-12T09:10:32.445Z</time>
      </trkpt>
      <trkpt lat="46.86327" lon="8.48217">
        <ele>2321</ele>
        <time>2021-08-12T09:10:33.446Z</time>
      </trkpt>
      <trkpt lat="46.86327" lon="8.48218">
        <ele>2321</ele>
        <time>2021-08-12T09:10:34.445Z</time>
      </trkpt>
      <trkpt lat="46.86328" lon="8.4822">
        <ele>2325</ele>
        <time>2021-08-12T09:10:35.445Z</time>
      </trkpt>
      <trkpt lat="46.86328" lon="8.4822">
        <ele>2325</ele>
        <time>2021-08-12T09:10:36.445Z</time>
      </trkpt>
      <trkpt lat="46.86328" lon="8.48221">
        <ele>2325</ele>
        <time>2021-08-12T09:10:37.446Z</time>
      </trkpt>
      <trkpt lat="46.86327" lon="8.48222">
        <ele>2326</ele>
        <time>2021-08-12T09:10:38.445Z</time>
      </trkpt>
      <trkpt lat="46.86327" lon="8.48222">
        <ele>2326</ele>
        <time>2021-08-12T09:10:39.445Z</time>
      </trkpt>
      <trkpt lat="46.86327" lon="8.48222">
        <ele>2326</ele>
        <time>2021-08-12T09:10:40.446Z</time>
      </trkpt>
      <trkpt lat="46.86327" lon="8.48223">
        <ele>2327</ele>
        <time>2021-08-12T09:10:41.447Z</time>
      </trkpt>
      <trkpt lat="46.86327" lon="8.48224">
        <ele>2328</ele>
        <time>2021-08-12T09:10:42.447Z</time>
      </trkpt>
      <trkpt lat="46.86326" lon="8.48225">
        <ele>2328</ele>
        <time>2021-08-12T09:10:43.447Z</time>
      </trkpt>
      <trkpt lat="46.86326" lon="8.48225">
        <ele>2327</ele>
        <time>2021-08-12T09:10:44.446Z</time>
      </trkpt>
      <trkpt lat="46.86327" lon="8.48226">
        <ele>2327</ele>
        <time>2021-08-12T09:10:45.447Z</time>
      </trkpt>
      <trkpt lat="46.86327" lon="8.48226">
        <ele>2327</ele>
        <time>2021-08-12T09:10:46.447Z</time>
      </trkpt>
      <trkpt lat="46.86328" lon="8.48226">
        <ele>2327</ele>
        <time>2021-08-12T09:10:47.446Z</time>
      </trkpt>
      <trkpt lat="46.86328" lon="8.48227">
        <ele>2326</ele>
        <time>2021-08-12T09:10:48.446Z</time>
      </trkpt>
      <trkpt lat="46.86328" lon="8.48227">
        <ele>2326</ele>
        <time>2021-08-12T09:10:49.447Z</time>
      </trkpt>
      <trkpt lat="46.86328" lon="8.48228">
        <ele>2326</ele>
        <time>2021-08-12T09:10:50.447Z</time>
      </trkpt>
      <trkpt lat="46.86327" lon="8.48229">
        <ele>2326</ele>
        <time>2021-08-12T09:10:51.446Z</time>
      </trkpt>
      <trkpt lat="46.86326" lon="8.48229">
        <ele>2326</ele>
        <time>2021-08-12T09:10:52.447Z</time>
      </trkpt>
      <trkpt lat="46.86325" lon="8.48231">
        <ele>2325</ele>
        <time>2021-08-12T09:10:53.446Z</time>
      </trkpt>
      <trkpt lat="46.86325" lon="8.48232">
        <ele>2325</ele>
        <time>2021-08-12T09:10:54.447Z</time>
      </trkpt>
      <trkpt lat="46.86324" lon="8.48233">
        <ele>2324</ele>
        <time>2021-08-12T09:10:55.446Z</time>
      </trkpt>
      <trkpt lat="46.86324" lon="8.48234">
        <ele>2324</ele>
        <time>2021-08-12T09:10:56.447Z</time>
      </trkpt>
      <trkpt lat="46.86325" lon="8.48235">
        <ele>2323</ele>
        <time>2021-08-12T09:10:57.447Z</time>
      </trkpt>
      <trkpt lat="46.86325" lon="8.48236">
        <ele>2323</ele>
        <time>2021-08-12T09:10:58.447Z</time>
      </trkpt>
      <trkpt lat="46.86325" lon="8.48236">
        <ele>2322</ele>
        <time>2021-08-12T09:10:59.446Z</time>
      </trkpt>
      <trkpt lat="46.86325" lon="8.48237">
        <ele>2321</ele>
        <time>2021-08-12T09:11:00.447Z</time>
      </trkpt>
      <trkpt lat="46.86324" lon="8.48238">
        <ele>2321</ele>
        <time>2021-08-12T09:11:01.447Z</time>
      </trkpt>
      <trkpt lat="46.86324" lon="8.48238">
        <ele>2321</ele>
        <time>2021-08-12T09:11:02.446Z</time>
      </trkpt>
      <trkpt lat="46.86324" lon="8.48239">
        <ele>2321</ele>
        <time>2021-08-12T09:11:03.446Z</time>
      </trkpt>
      <trkpt lat="46.86323" lon="8.48239">
        <ele>2321</ele>
        <time>2021-08-12T09:11:04.446Z</time>
      </trkpt>
      <trkpt lat="46.86323" lon="8.48239">
        <ele>2322</ele>
        <time>2021-08-12T09:11:05.446Z</time>
      </trkpt>
      <trkpt lat="46.86322" lon="8.4824">
        <ele>2323</ele>
        <time>2021-08-12T09:11:06.447Z</time>
      </trkpt>
      <trkpt lat="46.86321" lon="8.4824">
        <ele>2324</ele>
        <time>2021-08-12T09:11:07.447Z</time>
      </trkpt>
      <trkpt lat="46.8632" lon="8.48241">
        <ele>2324</ele>
        <time>2021-08-12T09:11:08.447Z</time>
      </trkpt>
      <trkpt lat="46.8632" lon="8.48242">
        <ele>2325</ele>
        <time>2021-08-12T09:11:09.447Z</time>
      </trkpt>
      <trkpt lat="46.86318" lon="8.48243">
        <ele>2325</ele>
        <time>2021-08-12T09:11:10.447Z</time>
      </trkpt>
      <trkpt lat="46.86318" lon="8.48244">
        <ele>2326</ele>
        <time>2021-08-12T09:11:11.447Z</time>
      </trkpt>
      <trkpt lat="46.86317" lon="8.48245">
        <ele>2326</ele>
        <time>2021-08-12T09:11:12.447Z</time>
      </trkpt>
      <trkpt lat="46.86317" lon="8.48246">
        <ele>2326</ele>
        <time>2021-08-12T09:11:13.447Z</time>
      </trkpt>
      <trkpt lat="46.86317" lon="8.48246">
        <ele>2326</ele>
        <time>2021-08-12T09:11:14.446Z</time>
      </trkpt>
      <trkpt lat="46.86316" lon="8.48246">
        <ele>2326</ele>
        <time>2021-08-12T09:11:15.447Z</time>
      </trkpt>
      <trkpt lat="46.86316" lon="8.48247">
        <ele>2327</ele>
        <time>2021-08-12T09:11:16.447Z</time>
      </trkpt>
      <trkpt lat="46.86315" lon="8.48248">
        <ele>2327</ele>
        <time>2021-08-12T09:11:17.446Z</time>
      </trkpt>
      <trkpt lat="46.86316" lon="8.48248">
        <ele>2328</ele>
        <time>2021-08-12T09:11:18.447Z</time>
      </trkpt>
      <trkpt lat="46.86315" lon="8.48248">
        <ele>2328</ele>
        <time>2021-08-12T09:11:19.447Z</time>
      </trkpt>
      <trkpt lat="46.86315" lon="8.48249">
        <ele>2329</ele>
        <time>2021-08-12T09:11:20.447Z</time>
      </trkpt>
      <trkpt lat="46.86314" lon="8.48251">
        <ele>2329</ele>
        <time>2021-08-12T09:11:21.447Z</time>
      </trkpt>
      <trkpt lat="46.86313" lon="8.48252">
        <ele>2329</ele>
        <time>2021-08-12T09:11:22.447Z</time>
      </trkpt>
      <trkpt lat="46.86312" lon="8.48253">
        <ele>2329</ele>
        <time>2021-08-12T09:11:23.446Z</time>
      </trkpt>
      <trkpt lat="46.86311" lon="8.48254">
        <ele>2329</ele>
        <time>2021-08-12T09:11:24.446Z</time>
      </trkpt>
      <trkpt lat="46.86311" lon="8.48255">
        <ele>2329</ele>
        <time>2021-08-12T09:11:25.446Z</time>
      </trkpt>
      <trkpt lat="46.86311" lon="8.48255">
        <ele>2329</ele>
        <time>2021-08-12T09:11:26.447Z</time>
      </trkpt>
      <trkpt lat="46.86311" lon="8.48256">
        <ele>2329</ele>
        <time>2021-08-12T09:11:27.447Z</time>
      </trkpt>
      <trkpt lat="46.86311" lon="8.48256">
        <ele>2329</ele>
        <time>2021-08-12T09:11:28.446Z</time>
      </trkpt>
      <trkpt lat="46.86311" lon="8.48256">
        <ele>2329</ele>
        <time>2021-08-12T09:11:29.447Z</time>
      </trkpt>
      <trkpt lat="46.8631" lon="8.48257">
        <ele>2330</ele>
        <time>2021-08-12T09:11:30.446Z</time>
      </trkpt>
      <trkpt lat="46.86311" lon="8.48256">
        <ele>2330</ele>
        <time>2021-08-12T09:11:31.446Z</time>
      </trkpt>
      <trkpt lat="46.8631" lon="8.48257">
        <ele>2330</ele>
        <time>2021-08-12T09:11:32.446Z</time>
      </trkpt>
      <trkpt lat="46.8631" lon="8.48257">
        <ele>2331</ele>
        <time>2021-08-12T09:11:33.447Z</time>
      </trkpt>
      <trkpt lat="46.8631" lon="8.48257">
        <ele>2330</ele>
        <time>2021-08-12T09:11:34.446Z</time>
      </trkpt>
      <trkpt lat="46.8631" lon="8.48258">
        <ele>2330</ele>
        <time>2021-08-12T09:11:35.447Z</time>
      </trkpt>
      <trkpt lat="46.8631" lon="8.48258">
        <ele>2330</ele>
        <time>2021-08-12T09:11:36.447Z</time>
      </trkpt>
      <trkpt lat="46.8631" lon="8.48259">
        <ele>2330</ele>
        <time>2021-08-12T09:11:37.446Z</time>
      </trkpt>
      <trkpt lat="46.86309" lon="8.48259">
        <ele>2331</ele>
        <time>2021-08-12T09:11:38.447Z</time>
      </trkpt>
      <trkpt lat="46.86308" lon="8.4826">
        <ele>2331</ele>
        <time>2021-08-12T09:11:39.446Z</time>
      </trkpt>
      <trkpt lat="46.86308" lon="8.4826">
        <ele>2332</ele>
        <time>2021-08-12T09:11:40.446Z</time>
      </trkpt>
      <trkpt lat="46.86308" lon="8.4826">
        <ele>2333</ele>
        <time>2021-08-12T09:11:41.446Z</time>
      </trkpt>
      <trkpt lat="46.86307" lon="8.4826">
        <ele>2333</ele>
        <time>2021-08-12T09:11:42.446Z</time>
      </trkpt>
      <trkpt lat="46.86307" lon="8.4826">
        <ele>2334</ele>
        <time>2021-08-12T09:11:43.446Z</time>
      </trkpt>
      <trkpt lat="46.86307" lon="8.48261">
        <ele>2335</ele>
        <time>2021-08-12T09:11:44.447Z</time>
      </trkpt>
      <trkpt lat="46.86307" lon="8.48262">
        <ele>2335</ele>
        <time>2021-08-12T09:11:45.446Z</time>
      </trkpt>
      <trkpt lat="46.86307" lon="8.48263">
        <ele>2335</ele>
        <time>2021-08-12T09:11:46.447Z</time>
      </trkpt>
      <trkpt lat="46.86306" lon="8.48263">
        <ele>2335</ele>
        <time>2021-08-12T09:11:47.446Z</time>
      </trkpt>
      <trkpt lat="46.86307" lon="8.48263">
        <ele>2335</ele>
        <time>2021-08-12T09:11:48.446Z</time>
      </trkpt>
      <trkpt lat="46.86307" lon="8.48264">
        <ele>2335</ele>
        <time>2021-08-12T09:11:49.447Z</time>
      </trkpt>
      <trkpt lat="46.86307" lon="8.48264">
        <ele>2336</ele>
        <time>2021-08-12T09:11:50.447Z</time>
      </trkpt>
      <trkpt lat="46.86307" lon="8.48265">
        <ele>2336</ele>
        <time>2021-08-12T09:11:51.446Z</time>
      </trkpt>
      <trkpt lat="46.86308" lon="8.48265">
        <ele>2336</ele>
        <time>2021-08-12T09:11:52.446Z</time>
      </trkpt>
      <trkpt lat="46.86308" lon="8.48266">
        <ele>2336</ele>
        <time>2021-08-12T09:11:53.447Z</time>
      </trkpt>
      <trkpt lat="46.86309" lon="8.48267">
        <ele>2336</ele>
        <time>2021-08-12T09:11:54.446Z</time>
      </trkpt>
      <trkpt lat="46.8631" lon="8.48267">
        <ele>2335</ele>
        <time>2021-08-12T09:11:55.446Z</time>
      </trkpt>
      <trkpt lat="46.8631" lon="8.48268">
        <ele>2335</ele>
        <time>2021-08-12T09:11:56.447Z</time>
      </trkpt>
      <trkpt lat="46.8631" lon="8.48268">
        <ele>2335</ele>
        <time>2021-08-12T09:11:57.447Z</time>
      </trkpt>
      <trkpt lat="46.8631" lon="8.48269">
        <ele>2335</ele>
        <time>2021-08-12T09:11:58.447Z</time>
      </trkpt>
      <trkpt lat="46.8631" lon="8.48269">
        <ele>2335</ele>
        <time>2021-08-12T09:11:59.446Z</time>
      </trkpt>
      <trkpt lat="46.8631" lon="8.4827">
        <ele>2336</ele>
        <time>2021-08-12T09:12:00.447Z</time>
      </trkpt>
      <trkpt lat="46.86309" lon="8.4827">
        <ele>2336</ele>
        <time>2021-08-12T09:12:01.447Z</time>
      </trkpt>
      <trkpt lat="46.86309" lon="8.4827">
        <ele>2336</ele>
        <time>2021-08-12T09:12:02.446Z</time>
      </trkpt>
      <trkpt lat="46.86309" lon="8.48271">
        <ele>2337</ele>
        <time>2021-08-12T09:12:03.447Z</time>
      </trkpt>
      <trkpt lat="46.8631" lon="8.48271">
        <ele>2337</ele>
        <time>2021-08-12T09:12:04.447Z</time>
      </trkpt>
      <trkpt lat="46.8631" lon="8.48272">
        <ele>2338</ele>
        <time>2021-08-12T09:12:05.446Z</time>
      </trkpt>
      <trkpt lat="46.8631" lon="8.48273">
        <ele>2338</ele>
        <time>2021-08-12T09:12:06.447Z</time>
      </trkpt>
      <trkpt lat="46.8631" lon="8.48274">
        <ele>2339</ele>
        <time>2021-08-12T09:12:07.447Z</time>
      </trkpt>
      <trkpt lat="46.8631" lon="8.48274">
        <ele>2339</ele>
        <time>2021-08-12T09:12:08.447Z</time>
      </trkpt>
      <trkpt lat="46.8631" lon="8.48275">
        <ele>2338</ele>
        <time>2021-08-12T09:12:09.447Z</time>
      </trkpt>
      <trkpt lat="46.8631" lon="8.48276">
        <ele>2338</ele>
        <time>2021-08-12T09:12:10.447Z</time>
      </trkpt>
      <trkpt lat="46.8631" lon="8.48277">
        <ele>2338</ele>
        <time>2021-08-12T09:12:11.447Z</time>
      </trkpt>
      <trkpt lat="46.8631" lon="8.48277">
        <ele>2338</ele>
        <time>2021-08-12T09:12:12.447Z</time>
      </trkpt>
      <trkpt lat="46.86309" lon="8.48278">
        <ele>2338</ele>
        <time>2021-08-12T09:12:13.447Z</time>
      </trkpt>
      <trkpt lat="46.8631" lon="8.48278">
        <ele>2338</ele>
        <time>2021-08-12T09:12:14.446Z</time>
      </trkpt>
      <trkpt lat="46.86308" lon="8.4828">
        <ele>2338</ele>
        <time>2021-08-12T09:12:15.447Z</time>
      </trkpt>
      <trkpt lat="46.86307" lon="8.4828">
        <ele>2339</ele>
        <time>2021-08-12T09:12:16.446Z</time>
      </trkpt>
      <trkpt lat="46.86308" lon="8.4828">
        <ele>2339</ele>
        <time>2021-08-12T09:12:17.447Z</time>
      </trkpt>
      <trkpt lat="46.86308" lon="8.48281">
        <ele>2339</ele>
        <time>2021-08-12T09:12:18.446Z</time>
      </trkpt>
      <trkpt lat="46.86308" lon="8.48282">
        <ele>2340</ele>
        <time>2021-08-12T09:12:19.446Z</time>
      </trkpt>
      <trkpt lat="46.86308" lon="8.48283">
        <ele>2340</ele>
        <time>2021-08-12T09:12:20.446Z</time>
      </trkpt>
      <trkpt lat="46.86308" lon="8.48284">
        <ele>2340</ele>
        <time>2021-08-12T09:12:21.446Z</time>
      </trkpt>
      <trkpt lat="46.86308" lon="8.48285">
        <ele>2340</ele>
        <time>2021-08-12T09:12:22.447Z</time>
      </trkpt>
      <trkpt lat="46.86308" lon="8.48286">
        <ele>2340</ele>
        <time>2021-08-12T09:12:23.446Z</time>
      </trkpt>
      <trkpt lat="46.86307" lon="8.48287">
        <ele>2341</ele>
        <time>2021-08-12T09:12:24.447Z</time>
      </trkpt>
      <trkpt lat="46.86307" lon="8.48287">
        <ele>2341</ele>
        <time>2021-08-12T09:12:25.447Z</time>
      </trkpt>
      <trkpt lat="46.86308" lon="8.48288">
        <ele>2341</ele>
        <time>2021-08-12T09:12:26.447Z</time>
      </trkpt>
      <trkpt lat="46.86307" lon="8.48288">
        <ele>2341</ele>
        <time>2021-08-12T09:12:27.447Z</time>
      </trkpt>
      <trkpt lat="46.86307" lon="8.48289">
        <ele>2341</ele>
        <time>2021-08-12T09:12:28.446Z</time>
      </trkpt>
      <trkpt lat="46.86306" lon="8.4829">
        <ele>2341</ele>
        <time>2021-08-12T09:12:29.446Z</time>
      </trkpt>
      <trkpt lat="46.86305" lon="8.48292">
        <ele>2340</ele>
        <time>2021-08-12T09:12:30.447Z</time>
      </trkpt>
      <trkpt lat="46.86306" lon="8.48292">
        <ele>2340</ele>
        <time>2021-08-12T09:12:31.446Z</time>
      </trkpt>
      <trkpt lat="46.86305" lon="8.48293">
        <ele>2340</ele>
        <time>2021-08-12T09:12:32.446Z</time>
      </trkpt>
      <trkpt lat="46.86304" lon="8.48294">
        <ele>2339</ele>
        <time>2021-08-12T09:12:33.446Z</time>
      </trkpt>
      <trkpt lat="46.86304" lon="8.48294">
        <ele>2339</ele>
        <time>2021-08-12T09:12:34.446Z</time>
      </trkpt>
      <trkpt lat="46.86304" lon="8.48295">
        <ele>2339</ele>
        <time>2021-08-12T09:12:35.446Z</time>
      </trkpt>
      <trkpt lat="46.86303" lon="8.48295">
        <ele>2338</ele>
        <time>2021-08-12T09:12:36.446Z</time>
      </trkpt>
      <trkpt lat="46.86303" lon="8.48296">
        <ele>2338</ele>
        <time>2021-08-12T09:12:37.446Z</time>
      </trkpt>
      <trkpt lat="46.86303" lon="8.48297">
        <ele>2338</ele>
        <time>2021-08-12T09:12:38.446Z</time>
      </trkpt>
      <trkpt lat="46.86302" lon="8.48297">
        <ele>2338</ele>
        <time>2021-08-12T09:12:39.447Z</time>
      </trkpt>
      <trkpt lat="46.86302" lon="8.48298">
        <ele>2338</ele>
        <time>2021-08-12T09:12:40.446Z</time>
      </trkpt>
      <trkpt lat="46.86302" lon="8.48298">
        <ele>2338</ele>
        <time>2021-08-12T09:12:41.446Z</time>
      </trkpt>
      <trkpt lat="46.863" lon="8.48299">
        <ele>2338</ele>
        <time>2021-08-12T09:12:42.447Z</time>
      </trkpt>
      <trkpt lat="46.863" lon="8.48298">
        <ele>2338</ele>
        <time>2021-08-12T09:12:43.446Z</time>
      </trkpt>
      <trkpt lat="46.86299" lon="8.48299">
        <ele>2338</ele>
        <time>2021-08-12T09:12:44.446Z</time>
      </trkpt>
      <trkpt lat="46.863" lon="8.483">
        <ele>2338</ele>
        <time>2021-08-12T09:12:45.447Z</time>
      </trkpt>
      <trkpt lat="46.863" lon="8.48301">
        <ele>2338</ele>
        <time>2021-08-12T09:12:46.446Z</time>
      </trkpt>
      <trkpt lat="46.863" lon="8.48302">
        <ele>2338</ele>
        <time>2021-08-12T09:12:47.446Z</time>
      </trkpt>
      <trkpt lat="46.863" lon="8.48302">
        <ele>2338</ele>
        <time>2021-08-12T09:12:48.447Z</time>
      </trkpt>
      <trkpt lat="46.863" lon="8.48303">
        <ele>2338</ele>
        <time>2021-08-12T09:12:49.446Z</time>
      </trkpt>
      <trkpt lat="46.863" lon="8.48303">
        <ele>2339</ele>
        <time>2021-08-12T09:12:50.446Z</time>
      </trkpt>
      <trkpt lat="46.86301" lon="8.48304">
        <ele>2339</ele>
        <time>2021-08-12T09:12:51.446Z</time>
      </trkpt>
      <trkpt lat="46.863" lon="8.48304">
        <ele>2340</ele>
        <time>2021-08-12T09:12:52.446Z</time>
      </trkpt>
      <trkpt lat="46.863" lon="8.48305">
        <ele>2340</ele>
        <time>2021-08-12T09:12:53.446Z</time>
      </trkpt>
      <trkpt lat="46.86299" lon="8.48306">
        <ele>2340</ele>
        <time>2021-08-12T09:12:54.446Z</time>
      </trkpt>
      <trkpt lat="46.86299" lon="8.48307">
        <ele>2340</ele>
        <time>2021-08-12T09:12:55.446Z</time>
      </trkpt>
      <trkpt lat="46.86299" lon="8.48308">
        <ele>2340</ele>
        <time>2021-08-12T09:12:56.446Z</time>
      </trkpt>
      <trkpt lat="46.86299" lon="8.48309">
        <ele>2341</ele>
        <time>2021-08-12T09:12:57.446Z</time>
      </trkpt>
      <trkpt lat="46.86298" lon="8.4831">
        <ele>2341</ele>
        <time>2021-08-12T09:12:58.447Z</time>
      </trkpt>
      <trkpt lat="46.86297" lon="8.48311">
        <ele>2341</ele>
        <time>2021-08-12T09:12:59.446Z</time>
      </trkpt>
      <trkpt lat="46.86297" lon="8.48311">
        <ele>2342</ele>
        <time>2021-08-12T09:13:00.446Z</time>
      </trkpt>
      <trkpt lat="46.86297" lon="8.48312">
        <ele>2342</ele>
        <time>2021-08-12T09:13:01.446Z</time>
      </trkpt>
      <trkpt lat="46.86298" lon="8.48312">
        <ele>2342</ele>
        <time>2021-08-12T09:13:02.447Z</time>
      </trkpt>
      <trkpt lat="46.86298" lon="8.48313">
        <ele>2342</ele>
        <time>2021-08-12T09:13:03.447Z</time>
      </trkpt>
      <trkpt lat="46.86297" lon="8.48313">
        <ele>2342</ele>
        <time>2021-08-12T09:13:04.447Z</time>
      </trkpt>
      <trkpt lat="46.86297" lon="8.48313">
        <ele>2342</ele>
        <time>2021-08-12T09:13:05.446Z</time>
      </trkpt>
      <trkpt lat="46.86296" lon="8.48313">
        <ele>2342</ele>
        <time>2021-08-12T09:13:06.446Z</time>
      </trkpt>
      <trkpt lat="46.86296" lon="8.48313">
        <ele>2342</ele>
        <time>2021-08-12T09:13:07.446Z</time>
      </trkpt>
      <trkpt lat="46.86296" lon="8.48313">
        <ele>2342</ele>
        <time>2021-08-12T09:13:08.447Z</time>
      </trkpt>
      <trkpt lat="46.86297" lon="8.48314">
        <ele>2343</ele>
        <time>2021-08-12T09:13:09.446Z</time>
      </trkpt>
      <trkpt lat="46.86296" lon="8.48314">
        <ele>2342</ele>
        <time>2021-08-12T09:13:10.446Z</time>
      </trkpt>
      <trkpt lat="46.86296" lon="8.48313">
        <ele>2342</ele>
        <time>2021-08-12T09:13:11.446Z</time>
      </trkpt>
      <trkpt lat="46.86295" lon="8.48314">
        <ele>2343</ele>
        <time>2021-08-12T09:13:12.447Z</time>
      </trkpt>
      <trkpt lat="46.86294" lon="8.48315">
        <ele>2343</ele>
        <time>2021-08-12T09:13:13.447Z</time>
      </trkpt>
      <trkpt lat="46.86295" lon="8.48316">
        <ele>2343</ele>
        <time>2021-08-12T09:13:14.446Z</time>
      </trkpt>
      <trkpt lat="46.86295" lon="8.48316">
        <ele>2344</ele>
        <time>2021-08-12T09:13:15.447Z</time>
      </trkpt>
      <trkpt lat="46.86296" lon="8.48316">
        <ele>2344</ele>
        <time>2021-08-12T09:13:16.446Z</time>
      </trkpt>
      <trkpt lat="46.86296" lon="8.48316">
        <ele>2345</ele>
        <time>2021-08-12T09:13:17.446Z</time>
      </trkpt>
      <trkpt lat="46.86297" lon="8.48317">
        <ele>2348</ele>
        <time>2021-08-12T09:13:18.448Z</time>
      </trkpt>
      <trkpt lat="46.86298" lon="8.48318">
        <ele>2349</ele>
        <time>2021-08-12T09:13:19.448Z</time>
      </trkpt>
      <trkpt lat="46.86298" lon="8.48318">
        <ele>2349</ele>
        <time>2021-08-12T09:13:20.448Z</time>
      </trkpt>
      <trkpt lat="46.86299" lon="8.48318">
        <ele>2350</ele>
        <time>2021-08-12T09:13:21.448Z</time>
      </trkpt>
      <trkpt lat="46.86299" lon="8.48318">
        <ele>2350</ele>
        <time>2021-08-12T09:13:22.447Z</time>
      </trkpt>
      <trkpt lat="46.863" lon="8.48319">
        <ele>2351</ele>
        <time>2021-08-12T09:13:23.448Z</time>
      </trkpt>
      <trkpt lat="46.863" lon="8.48319">
        <ele>2352</ele>
        <time>2021-08-12T09:13:24.448Z</time>
      </trkpt>
      <trkpt lat="46.86299" lon="8.4832">
        <ele>2352</ele>
        <time>2021-08-12T09:13:25.447Z</time>
      </trkpt>
      <trkpt lat="46.86299" lon="8.4832">
        <ele>2352</ele>
        <time>2021-08-12T09:13:26.448Z</time>
      </trkpt>
      <trkpt lat="46.86299" lon="8.48321">
        <ele>2352</ele>
        <time>2021-08-12T09:13:27.448Z</time>
      </trkpt>
      <trkpt lat="46.86298" lon="8.48322">
        <ele>2353</ele>
        <time>2021-08-12T09:13:28.448Z</time>
      </trkpt>
      <trkpt lat="46.86297" lon="8.48323">
        <ele>2353</ele>
        <time>2021-08-12T09:13:29.448Z</time>
      </trkpt>
      <trkpt lat="46.86297" lon="8.48324">
        <ele>2353</ele>
        <time>2021-08-12T09:13:30.448Z</time>
      </trkpt>
      <trkpt lat="46.86297" lon="8.48325">
        <ele>2353</ele>
        <time>2021-08-12T09:13:31.448Z</time>
      </trkpt>
      <trkpt lat="46.86297" lon="8.48326">
        <ele>2353</ele>
        <time>2021-08-12T09:13:32.448Z</time>
      </trkpt>
      <trkpt lat="46.86298" lon="8.48327">
        <ele>2353</ele>
        <time>2021-08-12T09:13:33.447Z</time>
      </trkpt>
      <trkpt lat="46.863" lon="8.48327">
        <ele>2353</ele>
        <time>2021-08-12T09:13:34.448Z</time>
      </trkpt>
      <trkpt lat="46.863" lon="8.48328">
        <ele>2353</ele>
        <time>2021-08-12T09:13:35.448Z</time>
      </trkpt>
      <trkpt lat="46.86301" lon="8.48328">
        <ele>2352</ele>
        <time>2021-08-12T09:13:36.448Z</time>
      </trkpt>
      <trkpt lat="46.86301" lon="8.48328">
        <ele>2352</ele>
        <time>2021-08-12T09:13:37.448Z</time>
      </trkpt>
      <trkpt lat="46.86302" lon="8.48329">
        <ele>2352</ele>
        <time>2021-08-12T09:13:38.448Z</time>
      </trkpt>
      <trkpt lat="46.86303" lon="8.48329">
        <ele>2352</ele>
        <time>2021-08-12T09:13:39.448Z</time>
      </trkpt>
      <trkpt lat="46.86303" lon="8.48329">
        <ele>2352</ele>
        <time>2021-08-12T09:13:40.447Z</time>
      </trkpt>
      <trkpt lat="46.86304" lon="8.48329">
        <ele>2352</ele>
        <time>2021-08-12T09:13:41.448Z</time>
      </trkpt>
      <trkpt lat="46.86304" lon="8.48329">
        <ele>2353</ele>
        <time>2021-08-12T09:13:42.448Z</time>
      </trkpt>
      <trkpt lat="46.86303" lon="8.48331">
        <ele>2353</ele>
        <time>2021-08-12T09:13:43.448Z</time>
      </trkpt>
      <trkpt lat="46.86302" lon="8.48333">
        <ele>2353</ele>
        <time>2021-08-12T09:13:44.447Z</time>
      </trkpt>
      <trkpt lat="46.86302" lon="8.48335">
        <ele>2354</ele>
        <time>2021-08-12T09:13:45.448Z</time>
      </trkpt>
      <trkpt lat="46.86301" lon="8.48336">
        <ele>2354</ele>
        <time>2021-08-12T09:13:46.447Z</time>
      </trkpt>
      <trkpt lat="46.86301" lon="8.48336">
        <ele>2354</ele>
        <time>2021-08-12T09:13:47.448Z</time>
      </trkpt>
      <trkpt lat="46.863" lon="8.48337">
        <ele>2354</ele>
        <time>2021-08-12T09:13:48.447Z</time>
      </trkpt>
      <trkpt lat="46.863" lon="8.48337">
        <ele>2354</ele>
        <time>2021-08-12T09:13:49.448Z</time>
      </trkpt>
      <trkpt lat="46.863" lon="8.48338">
        <ele>2353</ele>
        <time>2021-08-12T09:13:50.448Z</time>
      </trkpt>
      <trkpt lat="46.863" lon="8.48339">
        <ele>2353</ele>
        <time>2021-08-12T09:13:51.447Z</time>
      </trkpt>
      <trkpt lat="46.863" lon="8.4834">
        <ele>2352</ele>
        <time>2021-08-12T09:13:52.447Z</time>
      </trkpt>
      <trkpt lat="46.86299" lon="8.48341">
        <ele>2352</ele>
        <time>2021-08-12T09:13:53.447Z</time>
      </trkpt>
      <trkpt lat="46.86299" lon="8.48341">
        <ele>2353</ele>
        <time>2021-08-12T09:13:54.447Z</time>
      </trkpt>
      <trkpt lat="46.86298" lon="8.48341">
        <ele>2353</ele>
        <time>2021-08-12T09:13:55.448Z</time>
      </trkpt>
      <trkpt lat="46.86297" lon="8.48341">
        <ele>2354</ele>
        <time>2021-08-12T09:13:56.447Z</time>
      </trkpt>
      <trkpt lat="46.86298" lon="8.48343">
        <ele>2354</ele>
        <time>2021-08-12T09:13:57.447Z</time>
      </trkpt>
      <trkpt lat="46.86297" lon="8.48344">
        <ele>2354</ele>
        <time>2021-08-12T09:13:58.448Z</time>
      </trkpt>
      <trkpt lat="46.86297" lon="8.48345">
        <ele>2354</ele>
        <time>2021-08-12T09:13:59.448Z</time>
      </trkpt>
      <trkpt lat="46.86298" lon="8.48344">
        <ele>2354</ele>
        <time>2021-08-12T09:14:00.448Z</time>
      </trkpt>
      <trkpt lat="46.86297" lon="8.48344">
        <ele>2354</ele>
        <time>2021-08-12T09:14:01.448Z</time>
      </trkpt>
      <trkpt lat="46.86296" lon="8.48345">
        <ele>2355</ele>
        <time>2021-08-12T09:14:02.447Z</time>
      </trkpt>
      <trkpt lat="46.86296" lon="8.48346">
        <ele>2355</ele>
        <time>2021-08-12T09:14:03.448Z</time>
      </trkpt>
      <trkpt lat="46.86296" lon="8.48347">
        <ele>2355</ele>
        <time>2021-08-12T09:14:04.447Z</time>
      </trkpt>
      <trkpt lat="46.86295" lon="8.48348">
        <ele>2355</ele>
        <time>2021-08-12T09:14:05.448Z</time>
      </trkpt>
      <trkpt lat="46.86294" lon="8.4835">
        <ele>2354</ele>
        <time>2021-08-12T09:14:06.448Z</time>
      </trkpt>
      <trkpt lat="46.86293" lon="8.48352">
        <ele>2355</ele>
        <time>2021-08-12T09:14:07.447Z</time>
      </trkpt>
      <trkpt lat="46.86293" lon="8.48353">
        <ele>2355</ele>
        <time>2021-08-12T09:14:08.447Z</time>
      </trkpt>
      <trkpt lat="46.86293" lon="8.48353">
        <ele>2355</ele>
        <time>2021-08-12T09:14:09.448Z</time>
      </trkpt>
      <trkpt lat="46.86293" lon="8.48354">
        <ele>2354</ele>
        <time>2021-08-12T09:14:10.447Z</time>
      </trkpt>
      <trkpt lat="46.86293" lon="8.48354">
        <ele>2354</ele>
        <time>2021-08-12T09:14:11.448Z</time>
      </trkpt>
      <trkpt lat="46.86293" lon="8.48354">
        <ele>2354</ele>
        <time>2021-08-12T09:14:12.448Z</time>
      </trkpt>
      <trkpt lat="46.86294" lon="8.48355">
        <ele>2355</ele>
        <time>2021-08-12T09:14:13.447Z</time>
      </trkpt>
      <trkpt lat="46.86293" lon="8.48356">
        <ele>2355</ele>
        <time>2021-08-12T09:14:14.447Z</time>
      </trkpt>
      <trkpt lat="46.86293" lon="8.48356">
        <ele>2354</ele>
        <time>2021-08-12T09:14:15.448Z</time>
      </trkpt>
      <trkpt lat="46.86292" lon="8.48357">
        <ele>2355</ele>
        <time>2021-08-12T09:14:16.448Z</time>
      </trkpt>
      <trkpt lat="46.86291" lon="8.48357">
        <ele>2356</ele>
        <time>2021-08-12T09:14:17.448Z</time>
      </trkpt>
      <trkpt lat="46.86291" lon="8.48358">
        <ele>2358</ele>
        <time>2021-08-12T09:14:18.447Z</time>
      </trkpt>
      <trkpt lat="46.8629" lon="8.48359">
        <ele>2359</ele>
        <time>2021-08-12T09:14:19.448Z</time>
      </trkpt>
      <trkpt lat="46.86289" lon="8.4836">
        <ele>2360</ele>
        <time>2021-08-12T09:14:20.448Z</time>
      </trkpt>
      <trkpt lat="46.86289" lon="8.48361">
        <ele>2360</ele>
        <time>2021-08-12T09:14:21.448Z</time>
      </trkpt>
      <trkpt lat="46.86288" lon="8.48362">
        <ele>2360</ele>
        <time>2021-08-12T09:14:22.448Z</time>
      </trkpt>
      <trkpt lat="46.86288" lon="8.48363">
        <ele>2360</ele>
        <time>2021-08-12T09:14:23.448Z</time>
      </trkpt>
      <trkpt lat="46.86287" lon="8.48364">
        <ele>2360</ele>
        <time>2021-08-12T09:14:24.448Z</time>
      </trkpt>
      <trkpt lat="46.86287" lon="8.48364">
        <ele>2359</ele>
        <time>2021-08-12T09:14:25.448Z</time>
      </trkpt>
      <trkpt lat="46.86287" lon="8.48365">
        <ele>2359</ele>
        <time>2021-08-12T09:14:26.448Z</time>
      </trkpt>
      <trkpt lat="46.86285" lon="8.48367">
        <ele>2351</ele>
        <time>2021-08-12T09:14:27.447Z</time>
      </trkpt>
      <trkpt lat="46.86284" lon="8.48366">
        <ele>2351</ele>
        <time>2021-08-12T09:14:28.447Z</time>
      </trkpt>
      <trkpt lat="46.86284" lon="8.48366">
        <ele>2351</ele>
        <time>2021-08-12T09:14:29.447Z</time>
      </trkpt>
      <trkpt lat="46.86284" lon="8.48366">
        <ele>2348</ele>
        <time>2021-08-12T09:14:30.448Z</time>
      </trkpt>
      <trkpt lat="46.86283" lon="8.48367">
        <ele>2348</ele>
        <time>2021-08-12T09:14:31.448Z</time>
      </trkpt>
      <trkpt lat="46.86283" lon="8.48368">
        <ele>2348</ele>
        <time>2021-08-12T09:14:32.447Z</time>
      </trkpt>
      <trkpt lat="46.86282" lon="8.48367">
        <ele>2352</ele>
        <time>2021-08-12T09:14:33.448Z</time>
      </trkpt>
      <trkpt lat="46.86282" lon="8.48368">
        <ele>2352</ele>
        <time>2021-08-12T09:14:34.448Z</time>
      </trkpt>
      <trkpt lat="46.86284" lon="8.48364">
        <ele>2349</ele>
        <time>2021-08-12T09:14:35.449Z</time>
      </trkpt>
      <trkpt lat="46.86284" lon="8.48364">
        <ele>2349</ele>
        <time>2021-08-12T09:14:36.449Z</time>
      </trkpt>
      <trkpt lat="46.86284" lon="8.48363">
        <ele>2349</ele>
        <time>2021-08-12T09:14:37.448Z</time>
      </trkpt>
      <trkpt lat="46.86287" lon="8.48365">
        <ele>2359</ele>
        <time>2021-08-12T09:14:38.449Z</time>
      </trkpt>
      <trkpt lat="46.86287" lon="8.48364">
        <ele>2359</ele>
        <time>2021-08-12T09:14:39.449Z</time>
      </trkpt>
      <trkpt lat="46.86287" lon="8.48364">
        <ele>2360</ele>
        <time>2021-08-12T09:14:40.449Z</time>
      </trkpt>
      <trkpt lat="46.86285" lon="8.48366">
        <ele>2357</ele>
        <time>2021-08-12T09:14:41.450Z</time>
      </trkpt>
      <trkpt lat="46.86285" lon="8.48367">
        <ele>2356</ele>
        <time>2021-08-12T09:14:42.450Z</time>
      </trkpt>
      <trkpt lat="46.86285" lon="8.48369">
        <ele>2351</ele>
        <time>2021-08-12T09:14:43.450Z</time>
      </trkpt>
      <trkpt lat="46.86285" lon="8.48369">
        <ele>2351</ele>
        <time>2021-08-12T09:14:44.451Z</time>
      </trkpt>
      <trkpt lat="46.86286" lon="8.48369">
        <ele>2350</ele>
        <time>2021-08-12T09:14:45.451Z</time>
      </trkpt>
      <trkpt lat="46.86285" lon="8.4837">
        <ele>2350</ele>
        <time>2021-08-12T09:14:46.451Z</time>
      </trkpt>
      <trkpt lat="46.86285" lon="8.48371">
        <ele>2350</ele>
        <time>2021-08-12T09:14:47.452Z</time>
      </trkpt>
      <trkpt lat="46.86285" lon="8.48369">
        <ele>2357</ele>
        <time>2021-08-12T09:14:48.453Z</time>
      </trkpt>
      <trkpt lat="46.86285" lon="8.48368">
        <ele>2358</ele>
        <time>2021-08-12T09:14:49.453Z</time>
      </trkpt>
      <trkpt lat="46.86285" lon="8.48367">
        <ele>2359</ele>
        <time>2021-08-12T09:14:50.452Z</time>
      </trkpt>
      <trkpt lat="46.86285" lon="8.48366">
        <ele>2359</ele>
        <time>2021-08-12T09:14:51.452Z</time>
      </trkpt>
      <trkpt lat="46.86286" lon="8.48366">
        <ele>2360</ele>
        <time>2021-08-12T09:14:52.453Z</time>
      </trkpt>
      <trkpt lat="46.86288" lon="8.48363">
        <ele>2361</ele>
        <time>2021-08-12T09:14:53.453Z</time>
      </trkpt>
      <trkpt lat="46.86289" lon="8.48364">
        <ele>2361</ele>
        <time>2021-08-12T09:14:54.453Z</time>
      </trkpt>
      <trkpt lat="46.86289" lon="8.48365">
        <ele>2361</ele>
        <time>2021-08-12T09:14:55.452Z</time>
      </trkpt>
      <trkpt lat="46.86289" lon="8.48365">
        <ele>2361</ele>
        <time>2021-08-12T09:14:56.453Z</time>
      </trkpt>
      <trkpt lat="46.86286" lon="8.48369">
        <ele>2356</ele>
        <time>2021-08-12T09:14:57.452Z</time>
      </trkpt>
      <trkpt lat="46.86286" lon="8.48369">
        <ele>2355</ele>
        <time>2021-08-12T09:14:58.452Z</time>
      </trkpt>
      <trkpt lat="46.86286" lon="8.48368">
        <ele>2355</ele>
        <time>2021-08-12T09:14:59.453Z</time>
      </trkpt>
      <trkpt lat="46.86285" lon="8.4837">
        <ele>2356</ele>
        <time>2021-08-12T09:15:00.455Z</time>
      </trkpt>
      <trkpt lat="46.86285" lon="8.4837">
        <ele>2356</ele>
        <time>2021-08-12T09:15:01.455Z</time>
      </trkpt>
      <trkpt lat="46.86284" lon="8.48371">
        <ele>2357</ele>
        <time>2021-08-12T09:15:02.454Z</time>
      </trkpt>
      <trkpt lat="46.86283" lon="8.48372">
        <ele>2357</ele>
        <time>2021-08-12T09:15:03.455Z</time>
      </trkpt>
      <trkpt lat="46.86283" lon="8.48373">
        <ele>2357</ele>
        <time>2021-08-12T09:15:04.454Z</time>
      </trkpt>
      <trkpt lat="46.86282" lon="8.48373">
        <ele>2358</ele>
        <time>2021-08-12T09:15:05.455Z</time>
      </trkpt>
      <trkpt lat="46.86282" lon="8.48373">
        <ele>2359</ele>
        <time>2021-08-12T09:15:06.454Z</time>
      </trkpt>
      <trkpt lat="46.86281" lon="8.48374">
        <ele>2359</ele>
        <time>2021-08-12T09:15:07.455Z</time>
      </trkpt>
      <trkpt lat="46.86281" lon="8.48374">
        <ele>2360</ele>
        <time>2021-08-12T09:15:08.455Z</time>
      </trkpt>
      <trkpt lat="46.8628" lon="8.48375">
        <ele>2360</ele>
        <time>2021-08-12T09:15:09.455Z</time>
      </trkpt>
      <trkpt lat="46.8628" lon="8.48375">
        <ele>2361</ele>
        <time>2021-08-12T09:15:10.455Z</time>
      </trkpt>
      <trkpt lat="46.86279" lon="8.48376">
        <ele>2360</ele>
        <time>2021-08-12T09:15:11.455Z</time>
      </trkpt>
      <trkpt lat="46.86279" lon="8.48376">
        <ele>2360</ele>
        <time>2021-08-12T09:15:12.455Z</time>
      </trkpt>
      <trkpt lat="46.86278" lon="8.48376">
        <ele>2360</ele>
        <time>2021-08-12T09:15:13.454Z</time>
      </trkpt>
      <trkpt lat="46.86277" lon="8.48377">
        <ele>2360</ele>
        <time>2021-08-12T09:15:14.455Z</time>
      </trkpt>
      <trkpt lat="46.86277" lon="8.48377">
        <ele>2360</ele>
        <time>2021-08-12T09:15:15.455Z</time>
      </trkpt>
      <trkpt lat="46.86276" lon="8.48377">
        <ele>2360</ele>
        <time>2021-08-12T09:15:16.455Z</time>
      </trkpt>
      <trkpt lat="46.86276" lon="8.48377">
        <ele>2360</ele>
        <time>2021-08-12T09:15:17.454Z</time>
      </trkpt>
      <trkpt lat="46.86275" lon="8.48377">
        <ele>2360</ele>
        <time>2021-08-12T09:15:18.455Z</time>
      </trkpt>
      <trkpt lat="46.86274" lon="8.48377">
        <ele>2360</ele>
        <time>2021-08-12T09:15:19.455Z</time>
      </trkpt>
      <trkpt lat="46.86274" lon="8.48377">
        <ele>2360</ele>
        <time>2021-08-12T09:15:20.455Z</time>
      </trkpt>
      <trkpt lat="46.86273" lon="8.48377">
        <ele>2361</ele>
        <time>2021-08-12T09:15:21.454Z</time>
      </trkpt>
      <trkpt lat="46.86273" lon="8.48377">
        <ele>2361</ele>
        <time>2021-08-12T09:15:22.455Z</time>
      </trkpt>
      <trkpt lat="46.86272" lon="8.48377">
        <ele>2361</ele>
        <time>2021-08-12T09:15:23.454Z</time>
      </trkpt>
      <trkpt lat="46.86271" lon="8.48378">
        <ele>2361</ele>
        <time>2021-08-12T09:15:24.455Z</time>
      </trkpt>
      <trkpt lat="46.86271" lon="8.48378">
        <ele>2361</ele>
        <time>2021-08-12T09:15:25.454Z</time>
      </trkpt>
      <trkpt lat="46.8627" lon="8.48379">
        <ele>2360</ele>
        <time>2021-08-12T09:15:26.455Z</time>
      </trkpt>
      <trkpt lat="46.86269" lon="8.4838">
        <ele>2360</ele>
        <time>2021-08-12T09:15:27.454Z</time>
      </trkpt>
      <trkpt lat="46.86269" lon="8.48381">
        <ele>2360</ele>
        <time>2021-08-12T09:15:28.454Z</time>
      </trkpt>
      <trkpt lat="46.86268" lon="8.48382">
        <ele>2359</ele>
        <time>2021-08-12T09:15:29.455Z</time>
      </trkpt>
      <trkpt lat="46.86268" lon="8.48382">
        <ele>2359</ele>
        <time>2021-08-12T09:15:30.455Z</time>
      </trkpt>
      <trkpt lat="46.86267" lon="8.48383">
        <ele>2359</ele>
        <time>2021-08-12T09:15:31.455Z</time>
      </trkpt>
      <trkpt lat="46.86267" lon="8.48383">
        <ele>2359</ele>
        <time>2021-08-12T09:15:32.455Z</time>
      </trkpt>
      <trkpt lat="46.86266" lon="8.48384">
        <ele>2359</ele>
        <time>2021-08-12T09:15:33.454Z</time>
      </trkpt>
      <trkpt lat="46.86265" lon="8.48384">
        <ele>2359</ele>
        <time>2021-08-12T09:15:34.455Z</time>
      </trkpt>
      <trkpt lat="46.86265" lon="8.48385">
        <ele>2360</ele>
        <time>2021-08-12T09:15:35.455Z</time>
      </trkpt>
      <trkpt lat="46.86264" lon="8.48385">
        <ele>2360</ele>
        <time>2021-08-12T09:15:36.455Z</time>
      </trkpt>
      <trkpt lat="46.86264" lon="8.48386">
        <ele>2361</ele>
        <time>2021-08-12T09:15:37.455Z</time>
      </trkpt>
      <trkpt lat="46.86263" lon="8.48387">
        <ele>2361</ele>
        <time>2021-08-12T09:15:38.454Z</time>
      </trkpt>
      <trkpt lat="46.86263" lon="8.48387">
        <ele>2361</ele>
        <time>2021-08-12T09:15:39.455Z</time>
      </trkpt>
      <trkpt lat="46.86262" lon="8.48388">
        <ele>2362</ele>
        <time>2021-08-12T09:15:40.454Z</time>
      </trkpt>
      <trkpt lat="46.86261" lon="8.48388">
        <ele>2362</ele>
        <time>2021-08-12T09:15:41.455Z</time>
      </trkpt>
      <trkpt lat="46.86261" lon="8.48389">
        <ele>2363</ele>
        <time>2021-08-12T09:15:42.455Z</time>
      </trkpt>
      <trkpt lat="46.8626" lon="8.48389">
        <ele>2363</ele>
        <time>2021-08-12T09:15:43.455Z</time>
      </trkpt>
      <trkpt lat="46.8626" lon="8.48389">
        <ele>2363</ele>
        <time>2021-08-12T09:15:44.454Z</time>
      </trkpt>
      <trkpt lat="46.86259" lon="8.48389">
        <ele>2363</ele>
        <time>2021-08-12T09:15:45.455Z</time>
      </trkpt>
      <trkpt lat="46.86259" lon="8.4839">
        <ele>2363</ele>
        <time>2021-08-12T09:15:46.455Z</time>
      </trkpt>
      <trkpt lat="46.86258" lon="8.48391">
        <ele>2363</ele>
        <time>2021-08-12T09:15:47.455Z</time>
      </trkpt>
      <trkpt lat="46.86257" lon="8.48391">
        <ele>2364</ele>
        <time>2021-08-12T09:15:48.454Z</time>
      </trkpt>
      <trkpt lat="46.86257" lon="8.48392">
        <ele>2364</ele>
        <time>2021-08-12T09:15:49.455Z</time>
      </trkpt>
      <trkpt lat="46.86256" lon="8.48393">
        <ele>2364</ele>
        <time>2021-08-12T09:15:50.455Z</time>
      </trkpt>
      <trkpt lat="46.86256" lon="8.48393">
        <ele>2364</ele>
        <time>2021-08-12T09:15:51.454Z</time>
      </trkpt>
      <trkpt lat="46.86255" lon="8.48394">
        <ele>2364</ele>
        <time>2021-08-12T09:15:52.455Z</time>
      </trkpt>
      <trkpt lat="46.86254" lon="8.48395">
        <ele>2365</ele>
        <time>2021-08-12T09:15:53.454Z</time>
      </trkpt>
      <trkpt lat="46.86254" lon="8.48395">
        <ele>2365</ele>
        <time>2021-08-12T09:15:54.455Z</time>
      </trkpt>
      <trkpt lat="46.86253" lon="8.48396">
        <ele>2366</ele>
        <time>2021-08-12T09:15:55.455Z</time>
      </trkpt>
      <trkpt lat="46.86253" lon="8.48396">
        <ele>2366</ele>
        <time>2021-08-12T09:15:56.454Z</time>
      </trkpt>
      <trkpt lat="46.86252" lon="8.48397">
        <ele>2366</ele>
        <time>2021-08-12T09:15:57.455Z</time>
      </trkpt>
      <trkpt lat="46.86251" lon="8.48397">
        <ele>2367</ele>
        <time>2021-08-12T09:15:58.454Z</time>
      </trkpt>
      <trkpt lat="46.86251" lon="8.48397">
        <ele>2367</ele>
        <time>2021-08-12T09:15:59.455Z</time>
      </trkpt>
      <trkpt lat="46.8625" lon="8.48397">
        <ele>2367</ele>
        <time>2021-08-12T09:16:00.455Z</time>
      </trkpt>
      <trkpt lat="46.8625" lon="8.48397">
        <ele>2367</ele>
        <time>2021-08-12T09:16:01.455Z</time>
      </trkpt>
      <trkpt lat="46.86249" lon="8.48398">
        <ele>2367</ele>
        <time>2021-08-12T09:16:02.455Z</time>
      </trkpt>
      <trkpt lat="46.86249" lon="8.48398">
        <ele>2366</ele>
        <time>2021-08-12T09:16:03.455Z</time>
      </trkpt>
      <trkpt lat="46.86249" lon="8.48398">
        <ele>2366</ele>
        <time>2021-08-12T09:16:04.454Z</time>
      </trkpt>
      <trkpt lat="46.86248" lon="8.48399">
        <ele>2365</ele>
        <time>2021-08-12T09:16:05.455Z</time>
      </trkpt>
      <trkpt lat="46.86248" lon="8.48398">
        <ele>2365</ele>
        <time>2021-08-12T09:16:06.454Z</time>
      </trkpt>
      <trkpt lat="46.86247" lon="8.48399">
        <ele>2365</ele>
        <time>2021-08-12T09:16:07.454Z</time>
      </trkpt>
      <trkpt lat="46.86247" lon="8.48398">
        <ele>2365</ele>
        <time>2021-08-12T09:16:08.454Z</time>
      </trkpt>
      <trkpt lat="46.86247" lon="8.48399">
        <ele>2365</ele>
        <time>2021-08-12T09:16:09.455Z</time>
      </trkpt>
      <trkpt lat="46.86247" lon="8.48399">
        <ele>2365</ele>
        <time>2021-08-12T09:16:10.455Z</time>
      </trkpt>
      <trkpt lat="46.86247" lon="8.48399">
        <ele>2364</ele>
        <time>2021-08-12T09:16:11.455Z</time>
      </trkpt>
      <trkpt lat="46.86247" lon="8.48399">
        <ele>2364</ele>
        <time>2021-08-12T09:16:12.455Z</time>
      </trkpt>
      <trkpt lat="46.86247" lon="8.48398">
        <ele>2363</ele>
        <time>2021-08-12T09:16:13.455Z</time>
      </trkpt>
      <trkpt lat="46.86247" lon="8.48398">
        <ele>2363</ele>
        <time>2021-08-12T09:16:14.455Z</time>
      </trkpt>
      <trkpt lat="46.86245" lon="8.48395">
        <ele>2363</ele>
        <time>2021-08-12T09:16:15.455Z</time>
      </trkpt>
      <trkpt lat="46.86245" lon="8.48396">
        <ele>2363</ele>
        <time>2021-08-12T09:16:16.455Z</time>
      </trkpt>
      <trkpt lat="46.86245" lon="8.48396">
        <ele>2362</ele>
        <time>2021-08-12T09:16:17.454Z</time>
      </trkpt>
      <trkpt lat="46.86245" lon="8.48395">
        <ele>2362</ele>
        <time>2021-08-12T09:16:18.454Z</time>
      </trkpt>
      <trkpt lat="46.86245" lon="8.48394">
        <ele>2361</ele>
        <time>2021-08-12T09:16:19.455Z</time>
      </trkpt>
      <trkpt lat="46.86245" lon="8.48395">
        <ele>2360</ele>
        <time>2021-08-12T09:16:20.454Z</time>
      </trkpt>
      <trkpt lat="46.86244" lon="8.48395">
        <ele>2359</ele>
        <time>2021-08-12T09:16:21.454Z</time>
      </trkpt>
      <trkpt lat="46.86244" lon="8.48395">
        <ele>2359</ele>
        <time>2021-08-12T09:16:22.454Z</time>
      </trkpt>
      <trkpt lat="46.86243" lon="8.48396">
        <ele>2358</ele>
        <time>2021-08-12T09:16:23.454Z</time>
      </trkpt>
      <trkpt lat="46.86243" lon="8.48396">
        <ele>2358</ele>
        <time>2021-08-12T09:16:24.455Z</time>
      </trkpt>
      <trkpt lat="46.86242" lon="8.48396">
        <ele>2358</ele>
        <time>2021-08-12T09:16:25.454Z</time>
      </trkpt>
      <trkpt lat="46.86241" lon="8.48398">
        <ele>2358</ele>
        <time>2021-08-12T09:16:26.454Z</time>
      </trkpt>
      <trkpt lat="46.86241" lon="8.48399">
        <ele>2358</ele>
        <time>2021-08-12T09:16:27.454Z</time>
      </trkpt>
      <trkpt lat="46.8624" lon="8.48399">
        <ele>2358</ele>
        <time>2021-08-12T09:16:28.454Z</time>
      </trkpt>
      <trkpt lat="46.86239" lon="8.48399">
        <ele>2358</ele>
        <time>2021-08-12T09:16:29.454Z</time>
      </trkpt>
      <trkpt lat="46.86238" lon="8.48399">
        <ele>2358</ele>
        <time>2021-08-12T09:16:30.454Z</time>
      </trkpt>
      <trkpt lat="46.86238" lon="8.48399">
        <ele>2359</ele>
        <time>2021-08-12T09:16:31.454Z</time>
      </trkpt>
      <trkpt lat="46.86237" lon="8.48398">
        <ele>2359</ele>
        <time>2021-08-12T09:16:32.454Z</time>
      </trkpt>
      <trkpt lat="46.86237" lon="8.48398">
        <ele>2359</ele>
        <time>2021-08-12T09:16:33.455Z</time>
      </trkpt>
      <trkpt lat="46.86236" lon="8.48399">
        <ele>2359</ele>
        <time>2021-08-12T09:16:34.455Z</time>
      </trkpt>
      <trkpt lat="46.86236" lon="8.48399">
        <ele>2359</ele>
        <time>2021-08-12T09:16:35.455Z</time>
      </trkpt>
      <trkpt lat="46.86235" lon="8.484">
        <ele>2359</ele>
        <time>2021-08-12T09:16:36.454Z</time>
      </trkpt>
      <trkpt lat="46.86234" lon="8.484">
        <ele>2359</ele>
        <time>2021-08-12T09:16:37.454Z</time>
      </trkpt>
      <trkpt lat="46.86234" lon="8.48401">
        <ele>2359</ele>
        <time>2021-08-12T09:16:38.454Z</time>
      </trkpt>
      <trkpt lat="46.86233" lon="8.48402">
        <ele>2360</ele>
        <time>2021-08-12T09:16:39.454Z</time>
      </trkpt>
      <trkpt lat="46.86232" lon="8.48403">
        <ele>2360</ele>
        <time>2021-08-12T09:16:40.454Z</time>
      </trkpt>
      <trkpt lat="46.86232" lon="8.48404">
        <ele>2360</ele>
        <time>2021-08-12T09:16:41.454Z</time>
      </trkpt>
      <trkpt lat="46.86231" lon="8.48405">
        <ele>2361</ele>
        <time>2021-08-12T09:16:42.454Z</time>
      </trkpt>
      <trkpt lat="46.8623" lon="8.48406">
        <ele>2362</ele>
        <time>2021-08-12T09:16:43.455Z</time>
      </trkpt>
      <trkpt lat="46.86229" lon="8.48408">
        <ele>2363</ele>
        <time>2021-08-12T09:16:44.455Z</time>
      </trkpt>
      <trkpt lat="46.86228" lon="8.48409">
        <ele>2363</ele>
        <time>2021-08-12T09:16:45.454Z</time>
      </trkpt>
      <trkpt lat="46.86228" lon="8.48409">
        <ele>2364</ele>
        <time>2021-08-12T09:16:46.455Z</time>
      </trkpt>
      <trkpt lat="46.86227" lon="8.48409">
        <ele>2365</ele>
        <time>2021-08-12T09:16:47.455Z</time>
      </trkpt>
      <trkpt lat="46.86226" lon="8.4841">
        <ele>2365</ele>
        <time>2021-08-12T09:16:48.454Z</time>
      </trkpt>
      <trkpt lat="46.86226" lon="8.4841">
        <ele>2366</ele>
        <time>2021-08-12T09:16:49.454Z</time>
      </trkpt>
      <trkpt lat="46.86225" lon="8.48411">
        <ele>2366</ele>
        <time>2021-08-12T09:16:50.454Z</time>
      </trkpt>
      <trkpt lat="46.86225" lon="8.48411">
        <ele>2366</ele>
        <time>2021-08-12T09:16:51.454Z</time>
      </trkpt>
      <trkpt lat="46.86224" lon="8.48411">
        <ele>2366</ele>
        <time>2021-08-12T09:16:52.455Z</time>
      </trkpt>
      <trkpt lat="46.86224" lon="8.48411">
        <ele>2366</ele>
        <time>2021-08-12T09:16:53.454Z</time>
      </trkpt>
      <trkpt lat="46.86223" lon="8.48412">
        <ele>2367</ele>
        <time>2021-08-12T09:16:54.454Z</time>
      </trkpt>
      <trkpt lat="46.86222" lon="8.48412">
        <ele>2367</ele>
        <time>2021-08-12T09:16:55.454Z</time>
      </trkpt>
      <trkpt lat="46.86221" lon="8.48413">
        <ele>2368</ele>
        <time>2021-08-12T09:16:56.454Z</time>
      </trkpt>
      <trkpt lat="46.86219" lon="8.48415">
        <ele>2368</ele>
        <time>2021-08-12T09:16:57.454Z</time>
      </trkpt>
      <trkpt lat="46.86218" lon="8.48416">
        <ele>2369</ele>
        <time>2021-08-12T09:16:58.454Z</time>
      </trkpt>
      <trkpt lat="46.86217" lon="8.48415">
        <ele>2369</ele>
        <time>2021-08-12T09:16:59.454Z</time>
      </trkpt>
      <trkpt lat="46.86216" lon="8.48414">
        <ele>2370</ele>
        <time>2021-08-12T09:17:00.454Z</time>
      </trkpt>
      <trkpt lat="46.86215" lon="8.48414">
        <ele>2371</ele>
        <time>2021-08-12T09:17:01.454Z</time>
      </trkpt>
      <trkpt lat="46.86214" lon="8.48413">
        <ele>2371</ele>
        <time>2021-08-12T09:17:02.455Z</time>
      </trkpt>
      <trkpt lat="46.86213" lon="8.48413">
        <ele>2371</ele>
        <time>2021-08-12T09:17:03.454Z</time>
      </trkpt>
      <trkpt lat="46.86212" lon="8.48414">
        <ele>2371</ele>
        <time>2021-08-12T09:17:04.455Z</time>
      </trkpt>
      <trkpt lat="46.86212" lon="8.48414">
        <ele>2371</ele>
        <time>2021-08-12T09:17:05.455Z</time>
      </trkpt>
      <trkpt lat="46.86211" lon="8.48414">
        <ele>2371</ele>
        <time>2021-08-12T09:17:06.455Z</time>
      </trkpt>
      <trkpt lat="46.8621" lon="8.48415">
        <ele>2371</ele>
        <time>2021-08-12T09:17:07.455Z</time>
      </trkpt>
      <trkpt lat="46.86209" lon="8.48415">
        <ele>2371</ele>
        <time>2021-08-12T09:17:08.455Z</time>
      </trkpt>
      <trkpt lat="46.86208" lon="8.48416">
        <ele>2371</ele>
        <time>2021-08-12T09:17:09.455Z</time>
      </trkpt>
      <trkpt lat="46.86207" lon="8.48417">
        <ele>2371</ele>
        <time>2021-08-12T09:17:10.455Z</time>
      </trkpt>
      <trkpt lat="46.86206" lon="8.48417">
        <ele>2372</ele>
        <time>2021-08-12T09:17:11.454Z</time>
      </trkpt>
      <trkpt lat="46.86206" lon="8.48418">
        <ele>2372</ele>
        <time>2021-08-12T09:17:12.455Z</time>
      </trkpt>
      <trkpt lat="46.86205" lon="8.48418">
        <ele>2372</ele>
        <time>2021-08-12T09:17:13.455Z</time>
      </trkpt>
      <trkpt lat="46.86204" lon="8.48419">
        <ele>2372</ele>
        <time>2021-08-12T09:17:14.455Z</time>
      </trkpt>
      <trkpt lat="46.86204" lon="8.4842">
        <ele>2372</ele>
        <time>2021-08-12T09:17:15.455Z</time>
      </trkpt>
      <trkpt lat="46.86203" lon="8.48422">
        <ele>2371</ele>
        <time>2021-08-12T09:17:16.455Z</time>
      </trkpt>
      <trkpt lat="46.86203" lon="8.48423">
        <ele>2371</ele>
        <time>2021-08-12T09:17:17.455Z</time>
      </trkpt>
      <trkpt lat="46.86202" lon="8.48424">
        <ele>2371</ele>
        <time>2021-08-12T09:17:18.455Z</time>
      </trkpt>
      <trkpt lat="46.86201" lon="8.48425">
        <ele>2370</ele>
        <time>2021-08-12T09:17:19.455Z</time>
      </trkpt>
      <trkpt lat="46.862" lon="8.48425">
        <ele>2370</ele>
        <time>2021-08-12T09:17:20.454Z</time>
      </trkpt>
      <trkpt lat="46.862" lon="8.48425">
        <ele>2370</ele>
        <time>2021-08-12T09:17:21.455Z</time>
      </trkpt>
      <trkpt lat="46.86199" lon="8.48425">
        <ele>2370</ele>
        <time>2021-08-12T09:17:22.455Z</time>
      </trkpt>
      <trkpt lat="46.86198" lon="8.48425">
        <ele>2371</ele>
        <time>2021-08-12T09:17:23.454Z</time>
      </trkpt>
      <trkpt lat="46.86197" lon="8.48425">
        <ele>2371</ele>
        <time>2021-08-12T09:17:24.454Z</time>
      </trkpt>
      <trkpt lat="46.86197" lon="8.48426">
        <ele>2370</ele>
        <time>2021-08-12T09:17:25.454Z</time>
      </trkpt>
      <trkpt lat="46.86196" lon="8.48427">
        <ele>2370</ele>
        <time>2021-08-12T09:17:26.455Z</time>
      </trkpt>
      <trkpt lat="46.86196" lon="8.48428">
        <ele>2369</ele>
        <time>2021-08-12T09:17:27.454Z</time>
      </trkpt>
      <trkpt lat="46.86195" lon="8.48428">
        <ele>2368</ele>
        <time>2021-08-12T09:17:28.454Z</time>
      </trkpt>
      <trkpt lat="46.86195" lon="8.48429">
        <ele>2368</ele>
        <time>2021-08-12T09:17:29.455Z</time>
      </trkpt>
      <trkpt lat="46.86195" lon="8.48429">
        <ele>2368</ele>
        <time>2021-08-12T09:17:30.454Z</time>
      </trkpt>
      <trkpt lat="46.86195" lon="8.48429">
        <ele>2367</ele>
        <time>2021-08-12T09:17:31.455Z</time>
      </trkpt>
      <trkpt lat="46.86195" lon="8.48429">
        <ele>2366</ele>
        <time>2021-08-12T09:17:32.455Z</time>
      </trkpt>
      <trkpt lat="46.86194" lon="8.48429">
        <ele>2365</ele>
        <time>2021-08-12T09:17:33.454Z</time>
      </trkpt>
      <trkpt lat="46.86193" lon="8.48429">
        <ele>2365</ele>
        <time>2021-08-12T09:17:34.455Z</time>
      </trkpt>
      <trkpt lat="46.86193" lon="8.48428">
        <ele>2364</ele>
        <time>2021-08-12T09:17:35.455Z</time>
      </trkpt>
      <trkpt lat="46.86192" lon="8.48428">
        <ele>2364</ele>
        <time>2021-08-12T09:17:36.455Z</time>
      </trkpt>
      <trkpt lat="46.86191" lon="8.48428">
        <ele>2363</ele>
        <time>2021-08-12T09:17:37.455Z</time>
      </trkpt>
      <trkpt lat="46.8619" lon="8.48427">
        <ele>2363</ele>
        <time>2021-08-12T09:17:38.455Z</time>
      </trkpt>
      <trkpt lat="46.86188" lon="8.48426">
        <ele>2363</ele>
        <time>2021-08-12T09:17:39.455Z</time>
      </trkpt>
      <trkpt lat="46.86187" lon="8.48425">
        <ele>2364</ele>
        <time>2021-08-12T09:17:40.455Z</time>
      </trkpt>
      <trkpt lat="46.86186" lon="8.48425">
        <ele>2364</ele>
        <time>2021-08-12T09:17:41.455Z</time>
      </trkpt>
      <trkpt lat="46.86185" lon="8.48424">
        <ele>2365</ele>
        <time>2021-08-12T09:17:42.454Z</time>
      </trkpt>
      <trkpt lat="46.86184" lon="8.48423">
        <ele>2366</ele>
        <time>2021-08-12T09:17:43.454Z</time>
      </trkpt>
      <trkpt lat="46.86183" lon="8.48423">
        <ele>2367</ele>
        <time>2021-08-12T09:17:44.454Z</time>
      </trkpt>
      <trkpt lat="46.86182" lon="8.48422">
        <ele>2367</ele>
        <time>2021-08-12T09:17:45.455Z</time>
      </trkpt>
      <trkpt lat="46.86181" lon="8.48422">
        <ele>2368</ele>
        <time>2021-08-12T09:17:46.455Z</time>
      </trkpt>
      <trkpt lat="46.8618" lon="8.48422">
        <ele>2368</ele>
        <time>2021-08-12T09:17:47.455Z</time>
      </trkpt>
      <trkpt lat="46.86179" lon="8.48422">
        <ele>2369</ele>
        <time>2021-08-12T09:17:48.454Z</time>
      </trkpt>
      <trkpt lat="46.86179" lon="8.48422">
        <ele>2369</ele>
        <time>2021-08-12T09:17:49.455Z</time>
      </trkpt>
      <trkpt lat="46.86178" lon="8.48422">
        <ele>2369</ele>
        <time>2021-08-12T09:17:50.455Z</time>
      </trkpt>
      <trkpt lat="46.86177" lon="8.48423">
        <ele>2368</ele>
        <time>2021-08-12T09:17:51.455Z</time>
      </trkpt>
      <trkpt lat="46.86176" lon="8.48423">
        <ele>2368</ele>
        <time>2021-08-12T09:17:52.455Z</time>
      </trkpt>
      <trkpt lat="46.86175" lon="8.48424">
        <ele>2368</ele>
        <time>2021-08-12T09:17:53.455Z</time>
      </trkpt>
      <trkpt lat="46.86174" lon="8.48424">
        <ele>2368</ele>
        <time>2021-08-12T09:17:54.455Z</time>
      </trkpt>
      <trkpt lat="46.86173" lon="8.48424">
        <ele>2368</ele>
        <time>2021-08-12T09:17:55.455Z</time>
      </trkpt>
      <trkpt lat="46.86171" lon="8.48423">
        <ele>2368</ele>
        <time>2021-08-12T09:17:56.454Z</time>
      </trkpt>
      <trkpt lat="46.8617" lon="8.48423">
        <ele>2368</ele>
        <time>2021-08-12T09:17:57.454Z</time>
      </trkpt>
      <trkpt lat="46.86168" lon="8.48421">
        <ele>2368</ele>
        <time>2021-08-12T09:17:58.454Z</time>
      </trkpt>
      <trkpt lat="46.86167" lon="8.4842">
        <ele>2368</ele>
        <time>2021-08-12T09:17:59.454Z</time>
      </trkpt>
      <trkpt lat="46.86166" lon="8.4842">
        <ele>2369</ele>
        <time>2021-08-12T09:18:00.455Z</time>
      </trkpt>
      <trkpt lat="46.86165" lon="8.48419">
        <ele>2370</ele>
        <time>2021-08-12T09:18:01.455Z</time>
      </trkpt>
      <trkpt lat="46.86164" lon="8.48418">
        <ele>2370</ele>
        <time>2021-08-12T09:18:02.454Z</time>
      </trkpt>
      <trkpt lat="46.86163" lon="8.48417">
        <ele>2371</ele>
        <time>2021-08-12T09:18:03.455Z</time>
      </trkpt>
      <trkpt lat="46.86162" lon="8.48415">
        <ele>2371</ele>
        <time>2021-08-12T09:18:04.455Z</time>
      </trkpt>
      <trkpt lat="46.86161" lon="8.48415">
        <ele>2372</ele>
        <time>2021-08-12T09:18:05.455Z</time>
      </trkpt>
      <trkpt lat="46.86161" lon="8.48416">
        <ele>2372</ele>
        <time>2021-08-12T09:18:06.455Z</time>
      </trkpt>
      <trkpt lat="46.8616" lon="8.48416">
        <ele>2372</ele>
        <time>2021-08-12T09:18:07.455Z</time>
      </trkpt>
      <trkpt lat="46.86159" lon="8.48416">
        <ele>2372</ele>
        <time>2021-08-12T09:18:08.455Z</time>
      </trkpt>
      <trkpt lat="46.86159" lon="8.48416">
        <ele>2371</ele>
        <time>2021-08-12T09:18:09.454Z</time>
      </trkpt>
      <trkpt lat="46.86158" lon="8.48417">
        <ele>2370</ele>
        <time>2021-08-12T09:18:10.455Z</time>
      </trkpt>
      <trkpt lat="46.86158" lon="8.48417">
        <ele>2369</ele>
        <time>2021-08-12T09:18:11.455Z</time>
      </trkpt>
      <trkpt lat="46.86157" lon="8.48417">
        <ele>2368</ele>
        <time>2021-08-12T09:18:12.454Z</time>
      </trkpt>
      <trkpt lat="46.86156" lon="8.48417">
        <ele>2367</ele>
        <time>2021-08-12T09:18:13.454Z</time>
      </trkpt>
      <trkpt lat="46.86155" lon="8.48416">
        <ele>2367</ele>
        <time>2021-08-12T09:18:14.455Z</time>
      </trkpt>
      <trkpt lat="46.86154" lon="8.48416">
        <ele>2366</ele>
        <time>2021-08-12T09:18:15.454Z</time>
      </trkpt>
      <trkpt lat="46.86154" lon="8.48416">
        <ele>2366</ele>
        <time>2021-08-12T09:18:16.454Z</time>
      </trkpt>
      <trkpt lat="46.86153" lon="8.48415">
        <ele>2365</ele>
        <time>2021-08-12T09:18:17.454Z</time>
      </trkpt>
      <trkpt lat="46.86152" lon="8.48415">
        <ele>2365</ele>
        <time>2021-08-12T09:18:18.455Z</time>
      </trkpt>
      <trkpt lat="46.86151" lon="8.48414">
        <ele>2365</ele>
        <time>2021-08-12T09:18:19.455Z</time>
      </trkpt>
      <trkpt lat="46.8615" lon="8.48413">
        <ele>2365</ele>
        <time>2021-08-12T09:18:20.455Z</time>
      </trkpt>
      <trkpt lat="46.86149" lon="8.48412">
        <ele>2364</ele>
        <time>2021-08-12T09:18:21.455Z</time>
      </trkpt>
      <trkpt lat="46.86148" lon="8.48413">
        <ele>2364</ele>
        <time>2021-08-12T09:18:22.455Z</time>
      </trkpt>
      <trkpt lat="46.86148" lon="8.48413">
        <ele>2363</ele>
        <time>2021-08-12T09:18:23.455Z</time>
      </trkpt>
      <trkpt lat="46.86147" lon="8.48413">
        <ele>2363</ele>
        <time>2021-08-12T09:18:24.455Z</time>
      </trkpt>
      <trkpt lat="46.86146" lon="8.48414">
        <ele>2363</ele>
        <time>2021-08-12T09:18:25.454Z</time>
      </trkpt>
      <trkpt lat="46.86145" lon="8.48415">
        <ele>2362</ele>
        <time>2021-08-12T09:18:26.455Z</time>
      </trkpt>
      <trkpt lat="46.86144" lon="8.48416">
        <ele>2362</ele>
        <time>2021-08-12T09:18:27.455Z</time>
      </trkpt>
      <trkpt lat="46.86143" lon="8.48416">
        <ele>2362</ele>
        <time>2021-08-12T09:18:28.455Z</time>
      </trkpt>
      <trkpt lat="46.86142" lon="8.48416">
        <ele>2363</ele>
        <time>2021-08-12T09:18:29.454Z</time>
      </trkpt>
      <trkpt lat="46.86141" lon="8.48416">
        <ele>2363</ele>
        <time>2021-08-12T09:18:30.455Z</time>
      </trkpt>
      <trkpt lat="46.8614" lon="8.48416">
        <ele>2363</ele>
        <time>2021-08-12T09:18:31.455Z</time>
      </trkpt>
      <trkpt lat="46.8614" lon="8.48415">
        <ele>2364</ele>
        <time>2021-08-12T09:18:32.455Z</time>
      </trkpt>
      <trkpt lat="46.86139" lon="8.48415">
        <ele>2364</ele>
        <time>2021-08-12T09:18:33.454Z</time>
      </trkpt>
      <trkpt lat="46.86138" lon="8.48415">
        <ele>2365</ele>
        <time>2021-08-12T09:18:34.454Z</time>
      </trkpt>
      <trkpt lat="46.86137" lon="8.48415">
        <ele>2365</ele>
        <time>2021-08-12T09:18:35.454Z</time>
      </trkpt>
      <trkpt lat="46.86136" lon="8.48415">
        <ele>2366</ele>
        <time>2021-08-12T09:18:36.454Z</time>
      </trkpt>
      <trkpt lat="46.86135" lon="8.48415">
        <ele>2367</ele>
        <time>2021-08-12T09:18:37.455Z</time>
      </trkpt>
      <trkpt lat="46.86134" lon="8.48416">
        <ele>2367</ele>
        <time>2021-08-12T09:18:38.455Z</time>
      </trkpt>
      <trkpt lat="46.86134" lon="8.48417">
        <ele>2368</ele>
        <time>2021-08-12T09:18:39.454Z</time>
      </trkpt>
      <trkpt lat="46.86133" lon="8.48417">
        <ele>2368</ele>
        <time>2021-08-12T09:18:40.455Z</time>
      </trkpt>
      <trkpt lat="46.86133" lon="8.48417">
        <ele>2368</ele>
        <time>2021-08-12T09:18:41.455Z</time>
      </trkpt>
      <trkpt lat="46.86132" lon="8.48417">
        <ele>2368</ele>
        <time>2021-08-12T09:18:42.455Z</time>
      </trkpt>
      <trkpt lat="46.86132" lon="8.48418">
        <ele>2368</ele>
        <time>2021-08-12T09:18:43.455Z</time>
      </trkpt>
      <trkpt lat="46.8613" lon="8.48418">
        <ele>2369</ele>
        <time>2021-08-12T09:18:44.454Z</time>
      </trkpt>
      <trkpt lat="46.8613" lon="8.48419">
        <ele>2369</ele>
        <time>2021-08-12T09:18:45.455Z</time>
      </trkpt>
      <trkpt lat="46.86129" lon="8.4842">
        <ele>2369</ele>
        <time>2021-08-12T09:18:46.455Z</time>
      </trkpt>
      <trkpt lat="46.86128" lon="8.48421">
        <ele>2369</ele>
        <time>2021-08-12T09:18:47.454Z</time>
      </trkpt>
      <trkpt lat="46.86127" lon="8.4842">
        <ele>2370</ele>
        <time>2021-08-12T09:18:48.455Z</time>
      </trkpt>
      <trkpt lat="46.86125" lon="8.4842">
        <ele>2370</ele>
        <time>2021-08-12T09:18:49.454Z</time>
      </trkpt>
      <trkpt lat="46.86124" lon="8.48418">
        <ele>2370</ele>
        <time>2021-08-12T09:18:50.455Z</time>
      </trkpt>
      <trkpt lat="46.86123" lon="8.48418">
        <ele>2371</ele>
        <time>2021-08-12T09:18:51.454Z</time>
      </trkpt>
      <trkpt lat="46.86121" lon="8.48421">
        <ele>2371</ele>
        <time>2021-08-12T09:18:52.455Z</time>
      </trkpt>
      <trkpt lat="46.8612" lon="8.48421">
        <ele>2372</ele>
        <time>2021-08-12T09:18:53.455Z</time>
      </trkpt>
      <trkpt lat="46.86118" lon="8.48421">
        <ele>2372</ele>
        <time>2021-08-12T09:18:54.455Z</time>
      </trkpt>
      <trkpt lat="46.86117" lon="8.48421">
        <ele>2372</ele>
        <time>2021-08-12T09:18:55.454Z</time>
      </trkpt>
      <trkpt lat="46.86116" lon="8.48422">
        <ele>2372</ele>
        <time>2021-08-12T09:18:56.455Z</time>
      </trkpt>
      <trkpt lat="46.86115" lon="8.48423">
        <ele>2372</ele>
        <time>2021-08-12T09:18:57.454Z</time>
      </trkpt>
      <trkpt lat="46.86115" lon="8.48424">
        <ele>2373</ele>
        <time>2021-08-12T09:18:58.455Z</time>
      </trkpt>
      <trkpt lat="46.86114" lon="8.48425">
        <ele>2373</ele>
        <time>2021-08-12T09:18:59.455Z</time>
      </trkpt>
      <trkpt lat="46.86113" lon="8.48426">
        <ele>2373</ele>
        <time>2021-08-12T09:19:00.454Z</time>
      </trkpt>
      <trkpt lat="46.86112" lon="8.48427">
        <ele>2373</ele>
        <time>2021-08-12T09:19:01.455Z</time>
      </trkpt>
      <trkpt lat="46.86112" lon="8.48427">
        <ele>2373</ele>
        <time>2021-08-12T09:19:02.455Z</time>
      </trkpt>
      <trkpt lat="46.86111" lon="8.48427">
        <ele>2373</ele>
        <time>2021-08-12T09:19:03.455Z</time>
      </trkpt>
      <trkpt lat="46.8611" lon="8.48428">
        <ele>2373</ele>
        <time>2021-08-12T09:19:04.454Z</time>
      </trkpt>
      <trkpt lat="46.86109" lon="8.48427">
        <ele>2374</ele>
        <time>2021-08-12T09:19:05.455Z</time>
      </trkpt>
      <trkpt lat="46.86108" lon="8.48427">
        <ele>2374</ele>
        <time>2021-08-12T09:19:06.455Z</time>
      </trkpt>
      <trkpt lat="46.86107" lon="8.48427">
        <ele>2374</ele>
        <time>2021-08-12T09:19:07.455Z</time>
      </trkpt>
      <trkpt lat="46.86107" lon="8.48427">
        <ele>2374</ele>
        <time>2021-08-12T09:19:08.454Z</time>
      </trkpt>
      <trkpt lat="46.86106" lon="8.48427">
        <ele>2374</ele>
        <time>2021-08-12T09:19:09.454Z</time>
      </trkpt>
      <trkpt lat="46.86105" lon="8.48428">
        <ele>2374</ele>
        <time>2021-08-12T09:19:10.455Z</time>
      </trkpt>
      <trkpt lat="46.86104" lon="8.48428">
        <ele>2373</ele>
        <time>2021-08-12T09:19:11.454Z</time>
      </trkpt>
      <trkpt lat="46.86103" lon="8.48429">
        <ele>2373</ele>
        <time>2021-08-12T09:19:12.455Z</time>
      </trkpt>
      <trkpt lat="46.86102" lon="8.4843">
        <ele>2374</ele>
        <time>2021-08-12T09:19:13.455Z</time>
      </trkpt>
      <trkpt lat="46.86101" lon="8.48429">
        <ele>2374</ele>
        <time>2021-08-12T09:19:14.455Z</time>
      </trkpt>
      <trkpt lat="46.861" lon="8.48429">
        <ele>2374</ele>
        <time>2021-08-12T09:19:15.454Z</time>
      </trkpt>
      <trkpt lat="46.86099" lon="8.48428">
        <ele>2374</ele>
        <time>2021-08-12T09:19:16.455Z</time>
      </trkpt>
      <trkpt lat="46.86098" lon="8.48427">
        <ele>2375</ele>
        <time>2021-08-12T09:19:17.454Z</time>
      </trkpt>
      <trkpt lat="46.86098" lon="8.48426">
        <ele>2375</ele>
        <time>2021-08-12T09:19:18.454Z</time>
      </trkpt>
      <trkpt lat="46.86097" lon="8.48425">
        <ele>2375</ele>
        <time>2021-08-12T09:19:19.455Z</time>
      </trkpt>
      <trkpt lat="46.86096" lon="8.48425">
        <ele>2375</ele>
        <time>2021-08-12T09:19:20.455Z</time>
      </trkpt>
      <trkpt lat="46.86095" lon="8.48424">
        <ele>2375</ele>
        <time>2021-08-12T09:19:21.455Z</time>
      </trkpt>
      <trkpt lat="46.86095" lon="8.48424">
        <ele>2376</ele>
        <time>2021-08-12T09:19:22.455Z</time>
      </trkpt>
      <trkpt lat="46.86094" lon="8.48424">
        <ele>2376</ele>
        <time>2021-08-12T09:19:23.454Z</time>
      </trkpt>
      <trkpt lat="46.86093" lon="8.48424">
        <ele>2377</ele>
        <time>2021-08-12T09:19:24.455Z</time>
      </trkpt>
      <trkpt lat="46.86093" lon="8.48423">
        <ele>2377</ele>
        <time>2021-08-12T09:19:25.455Z</time>
      </trkpt>
      <trkpt lat="46.86092" lon="8.48423">
        <ele>2377</ele>
        <time>2021-08-12T09:19:26.454Z</time>
      </trkpt>
      <trkpt lat="46.86091" lon="8.48422">
        <ele>2377</ele>
        <time>2021-08-12T09:19:27.455Z</time>
      </trkpt>
      <trkpt lat="46.86091" lon="8.48422">
        <ele>2377</ele>
        <time>2021-08-12T09:19:28.455Z</time>
      </trkpt>
      <trkpt lat="46.8609" lon="8.48423">
        <ele>2377</ele>
        <time>2021-08-12T09:19:29.454Z</time>
      </trkpt>
      <trkpt lat="46.8609" lon="8.48423">
        <ele>2376</ele>
        <time>2021-08-12T09:19:30.455Z</time>
      </trkpt>
      <trkpt lat="46.8609" lon="8.48424">
        <ele>2375</ele>
        <time>2021-08-12T09:19:31.454Z</time>
      </trkpt>
      <trkpt lat="46.86089" lon="8.48425">
        <ele>2375</ele>
        <time>2021-08-12T09:19:32.455Z</time>
      </trkpt>
      <trkpt lat="46.86089" lon="8.48426">
        <ele>2374</ele>
        <time>2021-08-12T09:19:33.455Z</time>
      </trkpt>
      <trkpt lat="46.86088" lon="8.48427">
        <ele>2374</ele>
        <time>2021-08-12T09:19:34.455Z</time>
      </trkpt>
      <trkpt lat="46.86087" lon="8.48428">
        <ele>2374</ele>
        <time>2021-08-12T09:19:35.454Z</time>
      </trkpt>
      <trkpt lat="46.86087" lon="8.48428">
        <ele>2373</ele>
        <time>2021-08-12T09:19:36.455Z</time>
      </trkpt>
      <trkpt lat="46.86086" lon="8.48428">
        <ele>2373</ele>
        <time>2021-08-12T09:19:37.455Z</time>
      </trkpt>
      <trkpt lat="46.86085" lon="8.48428">
        <ele>2373</ele>
        <time>2021-08-12T09:19:38.455Z</time>
      </trkpt>
      <trkpt lat="46.86084" lon="8.48429">
        <ele>2373</ele>
        <time>2021-08-12T09:19:39.454Z</time>
      </trkpt>
      <trkpt lat="46.86083" lon="8.48429">
        <ele>2373</ele>
        <time>2021-08-12T09:19:40.455Z</time>
      </trkpt>
      <trkpt lat="46.86083" lon="8.48429">
        <ele>2373</ele>
        <time>2021-08-12T09:19:41.454Z</time>
      </trkpt>
      <trkpt lat="46.86082" lon="8.4843">
        <ele>2373</ele>
        <time>2021-08-12T09:19:42.454Z</time>
      </trkpt>
      <trkpt lat="46.86082" lon="8.4843">
        <ele>2373</ele>
        <time>2021-08-12T09:19:43.455Z</time>
      </trkpt>
      <trkpt lat="46.86082" lon="8.4843">
        <ele>2373</ele>
        <time>2021-08-12T09:19:44.454Z</time>
      </trkpt>
      <trkpt lat="46.86082" lon="8.48431">
        <ele>2373</ele>
        <time>2021-08-12T09:19:45.455Z</time>
      </trkpt>
      <trkpt lat="46.86082" lon="8.48431">
        <ele>2373</ele>
        <time>2021-08-12T09:19:46.455Z</time>
      </trkpt>
      <trkpt lat="46.86081" lon="8.48432">
        <ele>2372</ele>
        <time>2021-08-12T09:19:47.455Z</time>
      </trkpt>
      <trkpt lat="46.86081" lon="8.48432">
        <ele>2372</ele>
        <time>2021-08-12T09:19:48.455Z</time>
      </trkpt>
      <trkpt lat="46.8608" lon="8.48432">
        <ele>2372</ele>
        <time>2021-08-12T09:19:49.455Z</time>
      </trkpt>
      <trkpt lat="46.8608" lon="8.48431">
        <ele>2372</ele>
        <time>2021-08-12T09:19:50.455Z</time>
      </trkpt>
      <trkpt lat="46.86078" lon="8.48433">
        <ele>2372</ele>
        <time>2021-08-12T09:19:51.454Z</time>
      </trkpt>
      <trkpt lat="46.86077" lon="8.48434">
        <ele>2372</ele>
        <time>2021-08-12T09:19:52.455Z</time>
      </trkpt>
      <trkpt lat="46.86077" lon="8.48434">
        <ele>2372</ele>
        <time>2021-08-12T09:19:53.455Z</time>
      </trkpt>
      <trkpt lat="46.86077" lon="8.48434">
        <ele>2372</ele>
        <time>2021-08-12T09:19:54.455Z</time>
      </trkpt>
      <trkpt lat="46.86077" lon="8.48434">
        <ele>2372</ele>
        <time>2021-08-12T09:19:55.455Z</time>
      </trkpt>
      <trkpt lat="46.86077" lon="8.48435">
        <ele>2371</ele>
        <time>2021-08-12T09:19:56.455Z</time>
      </trkpt>
      <trkpt lat="46.86077" lon="8.48435">
        <ele>2370</ele>
        <time>2021-08-12T09:19:57.455Z</time>
      </trkpt>
      <trkpt lat="46.86076" lon="8.48436">
        <ele>2370</ele>
        <time>2021-08-12T09:19:58.454Z</time>
      </trkpt>
      <trkpt lat="46.86075" lon="8.48436">
        <ele>2369</ele>
        <time>2021-08-12T09:19:59.455Z</time>
      </trkpt>
      <trkpt lat="46.86074" lon="8.48436">
        <ele>2368</ele>
        <time>2021-08-12T09:20:00.455Z</time>
      </trkpt>
      <trkpt lat="46.86074" lon="8.48436">
        <ele>2368</ele>
        <time>2021-08-12T09:20:01.455Z</time>
      </trkpt>
      <trkpt lat="46.86073" lon="8.48435">
        <ele>2368</ele>
        <time>2021-08-12T09:20:02.455Z</time>
      </trkpt>
      <trkpt lat="46.86072" lon="8.48435">
        <ele>2368</ele>
        <time>2021-08-12T09:20:03.455Z</time>
      </trkpt>
      <trkpt lat="46.86071" lon="8.48435">
        <ele>2368</ele>
        <time>2021-08-12T09:20:04.455Z</time>
      </trkpt>
      <trkpt lat="46.86071" lon="8.48435">
        <ele>2367</ele>
        <time>2021-08-12T09:20:05.455Z</time>
      </trkpt>
      <trkpt lat="46.8607" lon="8.48435">
        <ele>2367</ele>
        <time>2021-08-12T09:20:06.455Z</time>
      </trkpt>
      <trkpt lat="46.86069" lon="8.48434">
        <ele>2367</ele>
        <time>2021-08-12T09:20:07.454Z</time>
      </trkpt>
      <trkpt lat="46.86069" lon="8.48434">
        <ele>2366</ele>
        <time>2021-08-12T09:20:08.455Z</time>
      </trkpt>
      <trkpt lat="46.86068" lon="8.48434">
        <ele>2366</ele>
        <time>2021-08-12T09:20:09.455Z</time>
      </trkpt>
      <trkpt lat="46.86067" lon="8.48434">
        <ele>2366</ele>
        <time>2021-08-12T09:20:10.455Z</time>
      </trkpt>
      <trkpt lat="46.86066" lon="8.48435">
        <ele>2366</ele>
        <time>2021-08-12T09:20:11.455Z</time>
      </trkpt>
      <trkpt lat="46.86065" lon="8.48435">
        <ele>2367</ele>
        <time>2021-08-12T09:20:12.455Z</time>
      </trkpt>
      <trkpt lat="46.86065" lon="8.48436">
        <ele>2367</ele>
        <time>2021-08-12T09:20:13.454Z</time>
      </trkpt>
      <trkpt lat="46.86064" lon="8.48436">
        <ele>2368</ele>
        <time>2021-08-12T09:20:14.455Z</time>
      </trkpt>
      <trkpt lat="46.86063" lon="8.48436">
        <ele>2369</ele>
        <time>2021-08-12T09:20:15.454Z</time>
      </trkpt>
      <trkpt lat="46.86063" lon="8.48437">
        <ele>2370</ele>
        <time>2021-08-12T09:20:16.454Z</time>
      </trkpt>
      <trkpt lat="46.86062" lon="8.48437">
        <ele>2371</ele>
        <time>2021-08-12T09:20:17.455Z</time>
      </trkpt>
      <trkpt lat="46.86061" lon="8.48438">
        <ele>2372</ele>
        <time>2021-08-12T09:20:18.455Z</time>
      </trkpt>
      <trkpt lat="46.8606" lon="8.48438">
        <ele>2373</ele>
        <time>2021-08-12T09:20:19.454Z</time>
      </trkpt>
      <trkpt lat="46.86059" lon="8.48438">
        <ele>2374</ele>
        <time>2021-08-12T09:20:20.454Z</time>
      </trkpt>
      <trkpt lat="46.86058" lon="8.48437">
        <ele>2375</ele>
        <time>2021-08-12T09:20:21.454Z</time>
      </trkpt>
      <trkpt lat="46.86057" lon="8.48436">
        <ele>2375</ele>
        <time>2021-08-12T09:20:22.455Z</time>
      </trkpt>
      <trkpt lat="46.86056" lon="8.48436">
        <ele>2376</ele>
        <time>2021-08-12T09:20:23.455Z</time>
      </trkpt>
      <trkpt lat="46.86056" lon="8.48437">
        <ele>2376</ele>
        <time>2021-08-12T09:20:24.455Z</time>
      </trkpt>
      <trkpt lat="46.86055" lon="8.48437">
        <ele>2376</ele>
        <time>2021-08-12T09:20:25.455Z</time>
      </trkpt>
      <trkpt lat="46.86054" lon="8.48438">
        <ele>2376</ele>
        <time>2021-08-12T09:20:26.455Z</time>
      </trkpt>
      <trkpt lat="46.86054" lon="8.48438">
        <ele>2376</ele>
        <time>2021-08-12T09:20:27.455Z</time>
      </trkpt>
      <trkpt lat="46.86053" lon="8.48439">
        <ele>2376</ele>
        <time>2021-08-12T09:20:28.454Z</time>
      </trkpt>
      <trkpt lat="46.86052" lon="8.48438">
        <ele>2376</ele>
        <time>2021-08-12T09:20:29.455Z</time>
      </trkpt>
      <trkpt lat="46.86052" lon="8.48438">
        <ele>2376</ele>
        <time>2021-08-12T09:20:30.454Z</time>
      </trkpt>
      <trkpt lat="46.86051" lon="8.48439">
        <ele>2377</ele>
        <time>2021-08-12T09:20:31.455Z</time>
      </trkpt>
      <trkpt lat="46.8605" lon="8.48439">
        <ele>2377</ele>
        <time>2021-08-12T09:20:32.454Z</time>
      </trkpt>
      <trkpt lat="46.8605" lon="8.48439">
        <ele>2377</ele>
        <time>2021-08-12T09:20:33.455Z</time>
      </trkpt>
      <trkpt lat="46.86049" lon="8.48441">
        <ele>2377</ele>
        <time>2021-08-12T09:20:34.455Z</time>
      </trkpt>
      <trkpt lat="46.86049" lon="8.48442">
        <ele>2378</ele>
        <time>2021-08-12T09:20:35.454Z</time>
      </trkpt>
      <trkpt lat="46.86049" lon="8.48443">
        <ele>2378</ele>
        <time>2021-08-12T09:20:36.455Z</time>
      </trkpt>
      <trkpt lat="46.86049" lon="8.48443">
        <ele>2379</ele>
        <time>2021-08-12T09:20:37.454Z</time>
      </trkpt>
      <trkpt lat="46.86047" lon="8.48444">
        <ele>2379</ele>
        <time>2021-08-12T09:20:38.455Z</time>
      </trkpt>
      <trkpt lat="46.86047" lon="8.48443">
        <ele>2380</ele>
        <time>2021-08-12T09:20:39.455Z</time>
      </trkpt>
      <trkpt lat="46.86047" lon="8.48444">
        <ele>2380</ele>
        <time>2021-08-12T09:20:40.455Z</time>
      </trkpt>
      <trkpt lat="46.86046" lon="8.48444">
        <ele>2381</ele>
        <time>2021-08-12T09:20:41.455Z</time>
      </trkpt>
      <trkpt lat="46.86047" lon="8.48444">
        <ele>2381</ele>
        <time>2021-08-12T09:20:42.454Z</time>
      </trkpt>
      <trkpt lat="46.86047" lon="8.48449">
        <ele>2383</ele>
        <time>2021-08-12T09:20:43.456Z</time>
      </trkpt>
      <trkpt lat="46.86046" lon="8.48449">
        <ele>2383</ele>
        <time>2021-08-12T09:20:44.456Z</time>
      </trkpt>
      <trkpt lat="46.86046" lon="8.48449">
        <ele>2384</ele>
        <time>2021-08-12T09:20:45.455Z</time>
      </trkpt>
      <trkpt lat="46.86046" lon="8.48448">
        <ele>2385</ele>
        <time>2021-08-12T09:20:46.455Z</time>
      </trkpt>
      <trkpt lat="46.86045" lon="8.48449">
        <ele>2385</ele>
        <time>2021-08-12T09:20:47.456Z</time>
      </trkpt>
      <trkpt lat="46.86044" lon="8.48449">
        <ele>2386</ele>
        <time>2021-08-12T09:20:48.456Z</time>
      </trkpt>
      <trkpt lat="46.86044" lon="8.4845">
        <ele>2386</ele>
        <time>2021-08-12T09:20:49.456Z</time>
      </trkpt>
      <trkpt lat="46.86043" lon="8.4845">
        <ele>2387</ele>
        <time>2021-08-12T09:20:50.455Z</time>
      </trkpt>
      <trkpt lat="46.86043" lon="8.48451">
        <ele>2387</ele>
        <time>2021-08-12T09:20:51.455Z</time>
      </trkpt>
      <trkpt lat="46.86042" lon="8.48451">
        <ele>2387</ele>
        <time>2021-08-12T09:20:52.455Z</time>
      </trkpt>
      <trkpt lat="46.86042" lon="8.48451">
        <ele>2387</ele>
        <time>2021-08-12T09:20:53.456Z</time>
      </trkpt>
      <trkpt lat="46.86041" lon="8.48451">
        <ele>2387</ele>
        <time>2021-08-12T09:20:54.455Z</time>
      </trkpt>
      <trkpt lat="46.86041" lon="8.48451">
        <ele>2387</ele>
        <time>2021-08-12T09:20:55.456Z</time>
      </trkpt>
      <trkpt lat="46.86041" lon="8.48451">
        <ele>2387</ele>
        <time>2021-08-12T09:20:56.456Z</time>
      </trkpt>
      <trkpt lat="46.8604" lon="8.48451">
        <ele>2387</ele>
        <time>2021-08-12T09:20:57.456Z</time>
      </trkpt>
      <trkpt lat="46.8604" lon="8.48451">
        <ele>2387</ele>
        <time>2021-08-12T09:20:58.456Z</time>
      </trkpt>
      <trkpt lat="46.86039" lon="8.48452">
        <ele>2387</ele>
        <time>2021-08-12T09:20:59.456Z</time>
      </trkpt>
      <trkpt lat="46.86039" lon="8.48453">
        <ele>2387</ele>
        <time>2021-08-12T09:21:00.456Z</time>
      </trkpt>
      <trkpt lat="46.86038" lon="8.48454">
        <ele>2387</ele>
        <time>2021-08-12T09:21:01.456Z</time>
      </trkpt>
      <trkpt lat="46.86038" lon="8.48453">
        <ele>2387</ele>
        <time>2021-08-12T09:21:02.455Z</time>
      </trkpt>
      <trkpt lat="46.86036" lon="8.48452">
        <ele>2386</ele>
        <time>2021-08-12T09:21:03.456Z</time>
      </trkpt>
      <trkpt lat="46.86035" lon="8.48452">
        <ele>2386</ele>
        <time>2021-08-12T09:21:04.455Z</time>
      </trkpt>
      <trkpt lat="46.86035" lon="8.48452">
        <ele>2385</ele>
        <time>2021-08-12T09:21:05.456Z</time>
      </trkpt>
      <trkpt lat="46.86035" lon="8.48451">
        <ele>2385</ele>
        <time>2021-08-12T09:21:06.456Z</time>
      </trkpt>
      <trkpt lat="46.86035" lon="8.48451">
        <ele>2384</ele>
        <time>2021-08-12T09:21:07.455Z</time>
      </trkpt>
      <trkpt lat="46.86035" lon="8.48451">
        <ele>2384</ele>
        <time>2021-08-12T09:21:08.455Z</time>
      </trkpt>
      <trkpt lat="46.86035" lon="8.48451">
        <ele>2384</ele>
        <time>2021-08-12T09:21:09.455Z</time>
      </trkpt>
      <trkpt lat="46.86035" lon="8.48451">
        <ele>2383</ele>
        <time>2021-08-12T09:21:10.456Z</time>
      </trkpt>
      <trkpt lat="46.86034" lon="8.48451">
        <ele>2383</ele>
        <time>2021-08-12T09:21:11.455Z</time>
      </trkpt>
      <trkpt lat="46.86034" lon="8.48451">
        <ele>2382</ele>
        <time>2021-08-12T09:21:12.455Z</time>
      </trkpt>
      <trkpt lat="46.86033" lon="8.48451">
        <ele>2382</ele>
        <time>2021-08-12T09:21:13.455Z</time>
      </trkpt>
      <trkpt lat="46.86032" lon="8.48452">
        <ele>2381</ele>
        <time>2021-08-12T09:21:14.455Z</time>
      </trkpt>
      <trkpt lat="46.86032" lon="8.48452">
        <ele>2381</ele>
        <time>2021-08-12T09:21:15.455Z</time>
      </trkpt>
      <trkpt lat="46.86031" lon="8.48452">
        <ele>2381</ele>
        <time>2021-08-12T09:21:16.455Z</time>
      </trkpt>
      <trkpt lat="46.8603" lon="8.48452">
        <ele>2380</ele>
        <time>2021-08-12T09:21:17.455Z</time>
      </trkpt>
      <trkpt lat="46.8603" lon="8.48453">
        <ele>2380</ele>
        <time>2021-08-12T09:21:18.455Z</time>
      </trkpt>
      <trkpt lat="46.86029" lon="8.48453">
        <ele>2380</ele>
        <time>2021-08-12T09:21:19.456Z</time>
      </trkpt>
      <trkpt lat="46.86029" lon="8.48453">
        <ele>2380</ele>
        <time>2021-08-12T09:21:20.455Z</time>
      </trkpt>
      <trkpt lat="46.86029" lon="8.48452">
        <ele>2380</ele>
        <time>2021-08-12T09:21:21.455Z</time>
      </trkpt>
      <trkpt lat="46.8603" lon="8.4845">
        <ele>2380</ele>
        <time>2021-08-12T09:21:22.455Z</time>
      </trkpt>
      <trkpt lat="46.86031" lon="8.48449">
        <ele>2380</ele>
        <time>2021-08-12T09:21:23.455Z</time>
      </trkpt>
      <trkpt lat="46.86031" lon="8.48449">
        <ele>2379</ele>
        <time>2021-08-12T09:21:24.455Z</time>
      </trkpt>
      <trkpt lat="46.86031" lon="8.48449">
        <ele>2380</ele>
        <time>2021-08-12T09:21:25.456Z</time>
      </trkpt>
      <trkpt lat="46.86031" lon="8.48448">
        <ele>2379</ele>
        <time>2021-08-12T09:21:26.455Z</time>
      </trkpt>
      <trkpt lat="46.8603" lon="8.48448">
        <ele>2379</ele>
        <time>2021-08-12T09:21:27.455Z</time>
      </trkpt>
      <trkpt lat="46.8603" lon="8.48447">
        <ele>2378</ele>
        <time>2021-08-12T09:21:28.456Z</time>
      </trkpt>
      <trkpt lat="46.86029" lon="8.48447">
        <ele>2378</ele>
        <time>2021-08-12T09:21:29.455Z</time>
      </trkpt>
      <trkpt lat="46.86028" lon="8.48446">
        <ele>2377</ele>
        <time>2021-08-12T09:21:30.456Z</time>
      </trkpt>
      <trkpt lat="46.86027" lon="8.48446">
        <ele>2376</ele>
        <time>2021-08-12T09:21:31.456Z</time>
      </trkpt>
      <trkpt lat="46.86027" lon="8.48446">
        <ele>2376</ele>
        <time>2021-08-12T09:21:32.455Z</time>
      </trkpt>
      <trkpt lat="46.86026" lon="8.48446">
        <ele>2376</ele>
        <time>2021-08-12T09:21:33.456Z</time>
      </trkpt>
      <trkpt lat="46.86025" lon="8.48447">
        <ele>2376</ele>
        <time>2021-08-12T09:21:34.456Z</time>
      </trkpt>
      <trkpt lat="46.86025" lon="8.48448">
        <ele>2376</ele>
        <time>2021-08-12T09:21:35.456Z</time>
      </trkpt>
      <trkpt lat="46.86024" lon="8.48449">
        <ele>2376</ele>
        <time>2021-08-12T09:21:36.456Z</time>
      </trkpt>
      <trkpt lat="46.86025" lon="8.48449">
        <ele>2376</ele>
        <time>2021-08-12T09:21:37.456Z</time>
      </trkpt>
      <trkpt lat="46.86024" lon="8.48449">
        <ele>2376</ele>
        <time>2021-08-12T09:21:38.455Z</time>
      </trkpt>
      <trkpt lat="46.86024" lon="8.48448">
        <ele>2376</ele>
        <time>2021-08-12T09:21:39.455Z</time>
      </trkpt>
      <trkpt lat="46.86024" lon="8.48448">
        <ele>2376</ele>
        <time>2021-08-12T09:21:40.456Z</time>
      </trkpt>
      <trkpt lat="46.86023" lon="8.48449">
        <ele>2376</ele>
        <time>2021-08-12T09:21:41.457Z</time>
      </trkpt>
      <trkpt lat="46.86023" lon="8.4845">
        <ele>2376</ele>
        <time>2021-08-12T09:21:42.457Z</time>
      </trkpt>
      <trkpt lat="46.86023" lon="8.48449">
        <ele>2376</ele>
        <time>2021-08-12T09:21:43.457Z</time>
      </trkpt>
      <trkpt lat="46.86023" lon="8.4845">
        <ele>2376</ele>
        <time>2021-08-12T09:21:44.457Z</time>
      </trkpt>
      <trkpt lat="46.86023" lon="8.48452">
        <ele>2379</ele>
        <time>2021-08-12T09:21:45.457Z</time>
      </trkpt>
      <trkpt lat="46.86022" lon="8.48453">
        <ele>2381</ele>
        <time>2021-08-12T09:21:46.456Z</time>
      </trkpt>
      <trkpt lat="46.86021" lon="8.48453">
        <ele>2382</ele>
        <time>2021-08-12T09:21:47.456Z</time>
      </trkpt>
      <trkpt lat="46.8602" lon="8.48452">
        <ele>2382</ele>
        <time>2021-08-12T09:21:48.456Z</time>
      </trkpt>
      <trkpt lat="46.86019" lon="8.48452">
        <ele>2383</ele>
        <time>2021-08-12T09:21:49.456Z</time>
      </trkpt>
      <trkpt lat="46.86018" lon="8.48452">
        <ele>2384</ele>
        <time>2021-08-12T09:21:50.456Z</time>
      </trkpt>
      <trkpt lat="46.86018" lon="8.48453">
        <ele>2385</ele>
        <time>2021-08-12T09:21:51.457Z</time>
      </trkpt>
      <trkpt lat="46.86018" lon="8.48454">
        <ele>2386</ele>
        <time>2021-08-12T09:21:52.456Z</time>
      </trkpt>
      <trkpt lat="46.86018" lon="8.48453">
        <ele>2386</ele>
        <time>2021-08-12T09:21:53.456Z</time>
      </trkpt>
      <trkpt lat="46.86018" lon="8.48452">
        <ele>2387</ele>
        <time>2021-08-12T09:21:54.456Z</time>
      </trkpt>
      <trkpt lat="46.86018" lon="8.48451">
        <ele>2388</ele>
        <time>2021-08-12T09:21:55.457Z</time>
      </trkpt>
      <trkpt lat="46.86018" lon="8.48451">
        <ele>2388</ele>
        <time>2021-08-12T09:21:56.456Z</time>
      </trkpt>
      <trkpt lat="46.86018" lon="8.48451">
        <ele>2389</ele>
        <time>2021-08-12T09:21:57.456Z</time>
      </trkpt>
      <trkpt lat="46.86018" lon="8.48451">
        <ele>2389</ele>
        <time>2021-08-12T09:21:58.457Z</time>
      </trkpt>
      <trkpt lat="46.86019" lon="8.4845">
        <ele>2389</ele>
        <time>2021-08-12T09:21:59.456Z</time>
      </trkpt>
      <trkpt lat="46.86019" lon="8.48449">
        <ele>2390</ele>
        <time>2021-08-12T09:22:00.456Z</time>
      </trkpt>
      <trkpt lat="46.8602" lon="8.48448">
        <ele>2390</ele>
        <time>2021-08-12T09:22:01.457Z</time>
      </trkpt>
      <trkpt lat="46.8602" lon="8.48448">
        <ele>2389</ele>
        <time>2021-08-12T09:22:02.456Z</time>
      </trkpt>
      <trkpt lat="46.86019" lon="8.48449">
        <ele>2390</ele>
        <time>2021-08-12T09:22:03.457Z</time>
      </trkpt>
      <trkpt lat="46.86017" lon="8.48451">
        <ele>2390</ele>
        <time>2021-08-12T09:22:04.456Z</time>
      </trkpt>
      <trkpt lat="46.86016" lon="8.48452">
        <ele>2390</ele>
        <time>2021-08-12T09:22:05.456Z</time>
      </trkpt>
      <trkpt lat="46.86016" lon="8.48452">
        <ele>2390</ele>
        <time>2021-08-12T09:22:06.456Z</time>
      </trkpt>
      <trkpt lat="46.86015" lon="8.48453">
        <ele>2390</ele>
        <time>2021-08-12T09:22:07.456Z</time>
      </trkpt>
      <trkpt lat="46.86014" lon="8.48453">
        <ele>2390</ele>
        <time>2021-08-12T09:22:08.456Z</time>
      </trkpt>
      <trkpt lat="46.86014" lon="8.48454">
        <ele>2390</ele>
        <time>2021-08-12T09:22:09.457Z</time>
      </trkpt>
      <trkpt lat="46.86014" lon="8.48454">
        <ele>2390</ele>
        <time>2021-08-12T09:22:10.457Z</time>
      </trkpt>
      <trkpt lat="46.86013" lon="8.48454">
        <ele>2391</ele>
        <time>2021-08-12T09:22:11.457Z</time>
      </trkpt>
      <trkpt lat="46.86013" lon="8.48453">
        <ele>2391</ele>
        <time>2021-08-12T09:22:12.457Z</time>
      </trkpt>
      <trkpt lat="46.86012" lon="8.48453">
        <ele>2391</ele>
        <time>2021-08-12T09:22:13.456Z</time>
      </trkpt>
      <trkpt lat="46.86011" lon="8.48454">
        <ele>2391</ele>
        <time>2021-08-12T09:22:14.456Z</time>
      </trkpt>
      <trkpt lat="46.8601" lon="8.48455">
        <ele>2392</ele>
        <time>2021-08-12T09:22:15.456Z</time>
      </trkpt>
      <trkpt lat="46.8601" lon="8.48456">
        <ele>2392</ele>
        <time>2021-08-12T09:22:16.456Z</time>
      </trkpt>
      <trkpt lat="46.86009" lon="8.48457">
        <ele>2393</ele>
        <time>2021-08-12T09:22:17.456Z</time>
      </trkpt>
      <trkpt lat="46.86007" lon="8.48459">
        <ele>2393</ele>
        <time>2021-08-12T09:22:18.457Z</time>
      </trkpt>
      <trkpt lat="46.86006" lon="8.48461">
        <ele>2394</ele>
        <time>2021-08-12T09:22:19.456Z</time>
      </trkpt>
      <trkpt lat="46.86005" lon="8.48462">
        <ele>2395</ele>
        <time>2021-08-12T09:22:20.456Z</time>
      </trkpt>
      <trkpt lat="46.86005" lon="8.48462">
        <ele>2395</ele>
        <time>2021-08-12T09:22:21.456Z</time>
      </trkpt>
      <trkpt lat="46.86004" lon="8.48463">
        <ele>2395</ele>
        <time>2021-08-12T09:22:22.456Z</time>
      </trkpt>
      <trkpt lat="46.86003" lon="8.48463">
        <ele>2394</ele>
        <time>2021-08-12T09:22:23.457Z</time>
      </trkpt>
      <trkpt lat="46.86002" lon="8.48463">
        <ele>2394</ele>
        <time>2021-08-12T09:22:24.457Z</time>
      </trkpt>
      <trkpt lat="46.86001" lon="8.48463">
        <ele>2393</ele>
        <time>2021-08-12T09:22:25.456Z</time>
      </trkpt>
      <trkpt lat="46.86" lon="8.48462">
        <ele>2392</ele>
        <time>2021-08-12T09:22:26.457Z</time>
      </trkpt>
      <trkpt lat="46.85999" lon="8.48463">
        <ele>2392</ele>
        <time>2021-08-12T09:22:27.456Z</time>
      </trkpt>
      <trkpt lat="46.85998" lon="8.48464">
        <ele>2391</ele>
        <time>2021-08-12T09:22:28.457Z</time>
      </trkpt>
      <trkpt lat="46.85998" lon="8.48465">
        <ele>2391</ele>
        <time>2021-08-12T09:22:29.457Z</time>
      </trkpt>
      <trkpt lat="46.85998" lon="8.48465">
        <ele>2390</ele>
        <time>2021-08-12T09:22:30.457Z</time>
      </trkpt>
      <trkpt lat="46.85998" lon="8.48465">
        <ele>2389</ele>
        <time>2021-08-12T09:22:31.456Z</time>
      </trkpt>
      <trkpt lat="46.85998" lon="8.48465">
        <ele>2389</ele>
        <time>2021-08-12T09:22:32.456Z</time>
      </trkpt>
      <trkpt lat="46.85998" lon="8.48465">
        <ele>2388</ele>
        <time>2021-08-12T09:22:33.456Z</time>
      </trkpt>
      <trkpt lat="46.85998" lon="8.48464">
        <ele>2388</ele>
        <time>2021-08-12T09:22:34.457Z</time>
      </trkpt>
      <trkpt lat="46.85997" lon="8.48464">
        <ele>2388</ele>
        <time>2021-08-12T09:22:35.457Z</time>
      </trkpt>
      <trkpt lat="46.85996" lon="8.48464">
        <ele>2388</ele>
        <time>2021-08-12T09:22:36.456Z</time>
      </trkpt>
      <trkpt lat="46.85996" lon="8.48463">
        <ele>2388</ele>
        <time>2021-08-12T09:22:37.456Z</time>
      </trkpt>
      <trkpt lat="46.85995" lon="8.48462">
        <ele>2388</ele>
        <time>2021-08-12T09:22:38.456Z</time>
      </trkpt>
      <trkpt lat="46.85995" lon="8.48462">
        <ele>2388</ele>
        <time>2021-08-12T09:22:39.456Z</time>
      </trkpt>
      <trkpt lat="46.85995" lon="8.48461">
        <ele>2388</ele>
        <time>2021-08-12T09:22:40.457Z</time>
      </trkpt>
      <trkpt lat="46.85995" lon="8.48461">
        <ele>2388</ele>
        <time>2021-08-12T09:22:41.456Z</time>
      </trkpt>
      <trkpt lat="46.85995" lon="8.4846">
        <ele>2388</ele>
        <time>2021-08-12T09:22:42.456Z</time>
      </trkpt>
      <trkpt lat="46.85995" lon="8.4846">
        <ele>2388</ele>
        <time>2021-08-12T09:22:43.456Z</time>
      </trkpt>
      <trkpt lat="46.85995" lon="8.48459">
        <ele>2389</ele>
        <time>2021-08-12T09:22:44.456Z</time>
      </trkpt>
      <trkpt lat="46.85995" lon="8.48459">
        <ele>2389</ele>
        <time>2021-08-12T09:22:45.456Z</time>
      </trkpt>
      <trkpt lat="46.85994" lon="8.48458">
        <ele>2389</ele>
        <time>2021-08-12T09:22:46.457Z</time>
      </trkpt>
      <trkpt lat="46.85994" lon="8.48459">
        <ele>2389</ele>
        <time>2021-08-12T09:22:47.457Z</time>
      </trkpt>
      <trkpt lat="46.85994" lon="8.48459">
        <ele>2390</ele>
        <time>2021-08-12T09:22:48.456Z</time>
      </trkpt>
      <trkpt lat="46.85994" lon="8.4846">
        <ele>2390</ele>
        <time>2021-08-12T09:22:49.456Z</time>
      </trkpt>
      <trkpt lat="46.85993" lon="8.48459">
        <ele>2389</ele>
        <time>2021-08-12T09:22:50.457Z</time>
      </trkpt>
      <trkpt lat="46.85993" lon="8.48459">
        <ele>2389</ele>
        <time>2021-08-12T09:22:51.457Z</time>
      </trkpt>
      <trkpt lat="46.85992" lon="8.48459">
        <ele>2389</ele>
        <time>2021-08-12T09:22:52.457Z</time>
      </trkpt>
      <trkpt lat="46.85992" lon="8.48459">
        <ele>2389</ele>
        <time>2021-08-12T09:22:53.457Z</time>
      </trkpt>
      <trkpt lat="46.85992" lon="8.48459">
        <ele>2389</ele>
        <time>2021-08-12T09:22:54.457Z</time>
      </trkpt>
      <trkpt lat="46.85991" lon="8.48459">
        <ele>2389</ele>
        <time>2021-08-12T09:22:55.456Z</time>
      </trkpt>
      <trkpt lat="46.85991" lon="8.48458">
        <ele>2389</ele>
        <time>2021-08-12T09:22:56.456Z</time>
      </trkpt>
      <trkpt lat="46.85987" lon="8.48465">
        <ele>2388</ele>
        <time>2021-08-12T09:22:57.456Z</time>
      </trkpt>
      <trkpt lat="46.85987" lon="8.48466">
        <ele>2388</ele>
        <time>2021-08-12T09:22:58.456Z</time>
      </trkpt>
      <trkpt lat="46.85986" lon="8.48467">
        <ele>2388</ele>
        <time>2021-08-12T09:22:59.456Z</time>
      </trkpt>
      <trkpt lat="46.85986" lon="8.48468">
        <ele>2389</ele>
        <time>2021-08-12T09:23:00.457Z</time>
      </trkpt>
      <trkpt lat="46.85986" lon="8.48468">
        <ele>2389</ele>
        <time>2021-08-12T09:23:01.457Z</time>
      </trkpt>
      <trkpt lat="46.85986" lon="8.48468">
        <ele>2389</ele>
        <time>2021-08-12T09:23:02.456Z</time>
      </trkpt>
      <trkpt lat="46.85988" lon="8.48465">
        <ele>2389</ele>
        <time>2021-08-12T09:23:03.456Z</time>
      </trkpt>
      <trkpt lat="46.85989" lon="8.48461">
        <ele>2389</ele>
        <time>2021-08-12T09:23:04.457Z</time>
      </trkpt>
      <trkpt lat="46.85989" lon="8.48456">
        <ele>2389</ele>
        <time>2021-08-12T09:23:05.456Z</time>
      </trkpt>
      <trkpt lat="46.85991" lon="8.48452">
        <ele>2389</ele>
        <time>2021-08-12T09:23:06.456Z</time>
      </trkpt>
      <trkpt lat="46.85993" lon="8.48448">
        <ele>2389</ele>
        <time>2021-08-12T09:23:07.457Z</time>
      </trkpt>
      <trkpt lat="46.85994" lon="8.48444">
        <ele>2389</ele>
        <time>2021-08-12T09:23:08.456Z</time>
      </trkpt>
      <trkpt lat="46.85996" lon="8.4844">
        <ele>2389</ele>
        <time>2021-08-12T09:23:09.457Z</time>
      </trkpt>
      <trkpt lat="46.85996" lon="8.48439">
        <ele>2389</ele>
        <time>2021-08-12T09:23:10.456Z</time>
      </trkpt>
      <trkpt lat="46.85997" lon="8.48438">
        <ele>2389</ele>
        <time>2021-08-12T09:23:11.456Z</time>
      </trkpt>
      <trkpt lat="46.85997" lon="8.48437">
        <ele>2389</ele>
        <time>2021-08-12T09:23:12.456Z</time>
      </trkpt>
      <trkpt lat="46.85997" lon="8.48437">
        <ele>2390</ele>
        <time>2021-08-12T09:23:13.457Z</time>
      </trkpt>
      <trkpt lat="46.85996" lon="8.48438">
        <ele>2390</ele>
        <time>2021-08-12T09:23:14.457Z</time>
      </trkpt>
      <trkpt lat="46.85995" lon="8.48441">
        <ele>2390</ele>
        <time>2021-08-12T09:23:15.456Z</time>
      </trkpt>
      <trkpt lat="46.85994" lon="8.48443">
        <ele>2390</ele>
        <time>2021-08-12T09:23:16.457Z</time>
      </trkpt>
      <trkpt lat="46.85993" lon="8.48445">
        <ele>2390</ele>
        <time>2021-08-12T09:23:17.457Z</time>
      </trkpt>
      <trkpt lat="46.85991" lon="8.48445">
        <ele>2390</ele>
        <time>2021-08-12T09:23:18.456Z</time>
      </trkpt>
      <trkpt lat="46.8599" lon="8.48446">
        <ele>2390</ele>
        <time>2021-08-12T09:23:19.456Z</time>
      </trkpt>
      <trkpt lat="46.8599" lon="8.48446">
        <ele>2390</ele>
        <time>2021-08-12T09:23:20.457Z</time>
      </trkpt>
      <trkpt lat="46.85989" lon="8.48446">
        <ele>2390</ele>
        <time>2021-08-12T09:23:21.457Z</time>
      </trkpt>
      <trkpt lat="46.85988" lon="8.48446">
        <ele>2390</ele>
        <time>2021-08-12T09:23:22.457Z</time>
      </trkpt>
      <trkpt lat="46.85987" lon="8.48446">
        <ele>2390</ele>
        <time>2021-08-12T09:23:23.457Z</time>
      </trkpt>
      <trkpt lat="46.85986" lon="8.48445">
        <ele>2390</ele>
        <time>2021-08-12T09:23:24.457Z</time>
      </trkpt>
      <trkpt lat="46.85985" lon="8.48445">
        <ele>2390</ele>
        <time>2021-08-12T09:23:25.456Z</time>
      </trkpt>
      <trkpt lat="46.85985" lon="8.48445">
        <ele>2390</ele>
        <time>2021-08-12T09:23:26.456Z</time>
      </trkpt>
      <trkpt lat="46.85984" lon="8.48445">
        <ele>2390</ele>
        <time>2021-08-12T09:23:27.456Z</time>
      </trkpt>
      <trkpt lat="46.85984" lon="8.48445">
        <ele>2390</ele>
        <time>2021-08-12T09:23:28.457Z</time>
      </trkpt>
      <trkpt lat="46.85984" lon="8.48444">
        <ele>2390</ele>
        <time>2021-08-12T09:23:29.457Z</time>
      </trkpt>
      <trkpt lat="46.85984" lon="8.48443">
        <ele>2390</ele>
        <time>2021-08-12T09:23:30.457Z</time>
      </trkpt>
      <trkpt lat="46.85983" lon="8.48443">
        <ele>2390</ele>
        <time>2021-08-12T09:23:31.457Z</time>
      </trkpt>
      <trkpt lat="46.85983" lon="8.48444">
        <ele>2390</ele>
        <time>2021-08-12T09:23:32.456Z</time>
      </trkpt>
      <trkpt lat="46.85982" lon="8.48446">
        <ele>2390</ele>
        <time>2021-08-12T09:23:33.456Z</time>
      </trkpt>
      <trkpt lat="46.85982" lon="8.48449">
        <ele>2390</ele>
        <time>2021-08-12T09:23:34.457Z</time>
      </trkpt>
      <trkpt lat="46.85982" lon="8.48452">
        <ele>2390</ele>
        <time>2021-08-12T09:23:35.456Z</time>
      </trkpt>
      <trkpt lat="46.85983" lon="8.48457">
        <ele>2390</ele>
        <time>2021-08-12T09:23:36.457Z</time>
      </trkpt>
      <trkpt lat="46.85983" lon="8.48457">
        <ele>2390</ele>
        <time>2021-08-12T09:23:37.457Z</time>
      </trkpt>
      <trkpt lat="46.85983" lon="8.48458">
        <ele>2390</ele>
        <time>2021-08-12T09:23:38.456Z</time>
      </trkpt>
      <trkpt lat="46.85983" lon="8.48459">
        <ele>2390</ele>
        <time>2021-08-12T09:23:39.457Z</time>
      </trkpt>
      <trkpt lat="46.85983" lon="8.48459">
        <ele>2390</ele>
        <time>2021-08-12T09:23:40.457Z</time>
      </trkpt>
      <trkpt lat="46.85982" lon="8.48461">
        <ele>2390</ele>
        <time>2021-08-12T09:23:41.457Z</time>
      </trkpt>
      <trkpt lat="46.85982" lon="8.48459">
        <ele>2391</ele>
        <time>2021-08-12T09:23:42.457Z</time>
      </trkpt>
      <trkpt lat="46.85982" lon="8.48456">
        <ele>2392</ele>
        <time>2021-08-12T09:23:43.457Z</time>
      </trkpt>
      <trkpt lat="46.8598" lon="8.48456">
        <ele>2392</ele>
        <time>2021-08-12T09:23:44.456Z</time>
      </trkpt>
      <trkpt lat="46.85979" lon="8.48454">
        <ele>2393</ele>
        <time>2021-08-12T09:23:45.457Z</time>
      </trkpt>
      <trkpt lat="46.8598" lon="8.48452">
        <ele>2393</ele>
        <time>2021-08-12T09:23:46.456Z</time>
      </trkpt>
      <trkpt lat="46.85981" lon="8.4845">
        <ele>2393</ele>
        <time>2021-08-12T09:23:47.457Z</time>
      </trkpt>
      <trkpt lat="46.8598" lon="8.48449">
        <ele>2393</ele>
        <time>2021-08-12T09:23:48.457Z</time>
      </trkpt>
      <trkpt lat="46.8598" lon="8.48449">
        <ele>2393</ele>
        <time>2021-08-12T09:23:49.457Z</time>
      </trkpt>
      <trkpt lat="46.85981" lon="8.48448">
        <ele>2393</ele>
        <time>2021-08-12T09:23:50.457Z</time>
      </trkpt>
      <trkpt lat="46.85981" lon="8.48448">
        <ele>2393</ele>
        <time>2021-08-12T09:23:51.456Z</time>
      </trkpt>
      <trkpt lat="46.8598" lon="8.48449">
        <ele>2393</ele>
        <time>2021-08-12T09:23:52.456Z</time>
      </trkpt>
      <trkpt lat="46.85971" lon="8.48466">
        <ele>2404</ele>
        <time>2021-08-12T09:23:53.458Z</time>
      </trkpt>
      <trkpt lat="46.85973" lon="8.48464">
        <ele>2405</ele>
        <time>2021-08-12T09:23:54.457Z</time>
      </trkpt>
      <trkpt lat="46.85974" lon="8.48464">
        <ele>2406</ele>
        <time>2021-08-12T09:23:55.457Z</time>
      </trkpt>
      <trkpt lat="46.85974" lon="8.48462">
        <ele>2414</ele>
        <time>2021-08-12T09:23:56.458Z</time>
      </trkpt>
      <trkpt lat="46.85975" lon="8.48462">
        <ele>2414</ele>
        <time>2021-08-12T09:23:57.458Z</time>
      </trkpt>
      <trkpt lat="46.85975" lon="8.48462">
        <ele>2415</ele>
        <time>2021-08-12T09:23:58.457Z</time>
      </trkpt>
      <trkpt lat="46.85976" lon="8.48465">
        <ele>2417</ele>
        <time>2021-08-12T09:23:59.459Z</time>
      </trkpt>
      <trkpt lat="46.85976" lon="8.48466">
        <ele>2416</ele>
        <time>2021-08-12T09:24:00.458Z</time>
      </trkpt>
      <trkpt lat="46.85976" lon="8.48466">
        <ele>2416</ele>
        <time>2021-08-12T09:24:01.458Z</time>
      </trkpt>
      <trkpt lat="46.85975" lon="8.48466">
        <ele>2415</ele>
        <time>2021-08-12T09:24:02.458Z</time>
      </trkpt>
      <trkpt lat="46.85975" lon="8.48467">
        <ele>2414</ele>
        <time>2021-08-12T09:24:03.459Z</time>
      </trkpt>
      <trkpt lat="46.85974" lon="8.48467">
        <ele>2414</ele>
        <time>2021-08-12T09:24:04.458Z</time>
      </trkpt>
      <trkpt lat="46.85974" lon="8.48468">
        <ele>2413</ele>
        <time>2021-08-12T09:24:05.458Z</time>
      </trkpt>
      <trkpt lat="46.85974" lon="8.48468">
        <ele>2413</ele>
        <time>2021-08-12T09:24:06.459Z</time>
      </trkpt>
      <trkpt lat="46.85974" lon="8.48469">
        <ele>2412</ele>
        <time>2021-08-12T09:24:07.459Z</time>
      </trkpt>
      <trkpt lat="46.85973" lon="8.48469">
        <ele>2412</ele>
        <time>2021-08-12T09:24:08.459Z</time>
      </trkpt>
      <trkpt lat="46.85973" lon="8.48469">
        <ele>2411</ele>
        <time>2021-08-12T09:24:09.459Z</time>
      </trkpt>
      <trkpt lat="46.85973" lon="8.48468">
        <ele>2411</ele>
        <time>2021-08-12T09:24:10.459Z</time>
      </trkpt>
      <trkpt lat="46.85973" lon="8.48468">
        <ele>2410</ele>
        <time>2021-08-12T09:24:11.459Z</time>
      </trkpt>
      <trkpt lat="46.85973" lon="8.48467">
        <ele>2410</ele>
        <time>2021-08-12T09:24:12.459Z</time>
      </trkpt>
      <trkpt lat="46.85973" lon="8.48466">
        <ele>2410</ele>
        <time>2021-08-12T09:24:13.459Z</time>
      </trkpt>
      <trkpt lat="46.85971" lon="8.48464">
        <ele>2410</ele>
        <time>2021-08-12T09:24:14.459Z</time>
      </trkpt>
      <trkpt lat="46.85972" lon="8.48462">
        <ele>2410</ele>
        <time>2021-08-12T09:24:15.459Z</time>
      </trkpt>
      <trkpt lat="46.85972" lon="8.4846">
        <ele>2410</ele>
        <time>2021-08-12T09:24:16.459Z</time>
      </trkpt>
      <trkpt lat="46.85971" lon="8.48458">
        <ele>2410</ele>
        <time>2021-08-12T09:24:17.459Z</time>
      </trkpt>
      <trkpt lat="46.85971" lon="8.48457">
        <ele>2411</ele>
        <time>2021-08-12T09:24:18.459Z</time>
      </trkpt>
      <trkpt lat="46.8597" lon="8.48456">
        <ele>2411</ele>
        <time>2021-08-12T09:24:19.458Z</time>
      </trkpt>
      <trkpt lat="46.8597" lon="8.48456">
        <ele>2411</ele>
        <time>2021-08-12T09:24:20.459Z</time>
      </trkpt>
      <trkpt lat="46.8597" lon="8.48456">
        <ele>2411</ele>
        <time>2021-08-12T09:24:21.459Z</time>
      </trkpt>
      <trkpt lat="46.85969" lon="8.48456">
        <ele>2411</ele>
        <time>2021-08-12T09:24:22.459Z</time>
      </trkpt>
      <trkpt lat="46.85969" lon="8.48455">
        <ele>2411</ele>
        <time>2021-08-12T09:24:23.459Z</time>
      </trkpt>
      <trkpt lat="46.85969" lon="8.48455">
        <ele>2411</ele>
        <time>2021-08-12T09:24:24.459Z</time>
      </trkpt>
      <trkpt lat="46.85969" lon="8.48455">
        <ele>2411</ele>
        <time>2021-08-12T09:24:25.459Z</time>
      </trkpt>
      <trkpt lat="46.85968" lon="8.48455">
        <ele>2410</ele>
        <time>2021-08-12T09:24:26.459Z</time>
      </trkpt>
      <trkpt lat="46.85967" lon="8.48456">
        <ele>2410</ele>
        <time>2021-08-12T09:24:27.459Z</time>
      </trkpt>
      <trkpt lat="46.85966" lon="8.48457">
        <ele>2410</ele>
        <time>2021-08-12T09:24:28.459Z</time>
      </trkpt>
      <trkpt lat="46.85966" lon="8.48457">
        <ele>2410</ele>
        <time>2021-08-12T09:24:29.459Z</time>
      </trkpt>
      <trkpt lat="46.85964" lon="8.48458">
        <ele>2410</ele>
        <time>2021-08-12T09:24:30.459Z</time>
      </trkpt>
      <trkpt lat="46.85963" lon="8.48458">
        <ele>2409</ele>
        <time>2021-08-12T09:24:31.459Z</time>
      </trkpt>
      <trkpt lat="46.85962" lon="8.48459">
        <ele>2409</ele>
        <time>2021-08-12T09:24:32.458Z</time>
      </trkpt>
      <trkpt lat="46.85962" lon="8.48459">
        <ele>2408</ele>
        <time>2021-08-12T09:24:33.459Z</time>
      </trkpt>
      <trkpt lat="46.85961" lon="8.4846">
        <ele>2408</ele>
        <time>2021-08-12T09:24:34.459Z</time>
      </trkpt>
      <trkpt lat="46.8596" lon="8.48461">
        <ele>2407</ele>
        <time>2021-08-12T09:24:35.459Z</time>
      </trkpt>
      <trkpt lat="46.8596" lon="8.48461">
        <ele>2407</ele>
        <time>2021-08-12T09:24:36.458Z</time>
      </trkpt>
      <trkpt lat="46.85959" lon="8.48462">
        <ele>2407</ele>
        <time>2021-08-12T09:24:37.459Z</time>
      </trkpt>
      <trkpt lat="46.85958" lon="8.48462">
        <ele>2406</ele>
        <time>2021-08-12T09:24:38.459Z</time>
      </trkpt>
      <trkpt lat="46.85958" lon="8.48463">
        <ele>2406</ele>
        <time>2021-08-12T09:24:39.459Z</time>
      </trkpt>
      <trkpt lat="46.85958" lon="8.48463">
        <ele>2407</ele>
        <time>2021-08-12T09:24:40.459Z</time>
      </trkpt>
      <trkpt lat="46.85957" lon="8.48463">
        <ele>2407</ele>
        <time>2021-08-12T09:24:41.458Z</time>
      </trkpt>
      <trkpt lat="46.85957" lon="8.48463">
        <ele>2407</ele>
        <time>2021-08-12T09:24:42.459Z</time>
      </trkpt>
      <trkpt lat="46.85957" lon="8.48463">
        <ele>2407</ele>
        <time>2021-08-12T09:24:43.458Z</time>
      </trkpt>
      <trkpt lat="46.85957" lon="8.48464">
        <ele>2407</ele>
        <time>2021-08-12T09:24:44.459Z</time>
      </trkpt>
      <trkpt lat="46.85957" lon="8.48464">
        <ele>2406</ele>
        <time>2021-08-12T09:24:45.459Z</time>
      </trkpt>
      <trkpt lat="46.85957" lon="8.48464">
        <ele>2406</ele>
        <time>2021-08-12T09:24:46.459Z</time>
      </trkpt>
      <trkpt lat="46.85956" lon="8.48464">
        <ele>2405</ele>
        <time>2021-08-12T09:24:47.459Z</time>
      </trkpt>
      <trkpt lat="46.85956" lon="8.48464">
        <ele>2405</ele>
        <time>2021-08-12T09:24:48.459Z</time>
      </trkpt>
      <trkpt lat="46.85955" lon="8.48464">
        <ele>2404</ele>
        <time>2021-08-12T09:24:49.458Z</time>
      </trkpt>
      <trkpt lat="46.85954" lon="8.48464">
        <ele>2404</ele>
        <time>2021-08-12T09:24:50.459Z</time>
      </trkpt>
      <trkpt lat="46.85953" lon="8.48464">
        <ele>2404</ele>
        <time>2021-08-12T09:24:51.458Z</time>
      </trkpt>
      <trkpt lat="46.85952" lon="8.48464">
        <ele>2403</ele>
        <time>2021-08-12T09:24:52.459Z</time>
      </trkpt>
      <trkpt lat="46.85952" lon="8.48464">
        <ele>2403</ele>
        <time>2021-08-12T09:24:53.459Z</time>
      </trkpt>
      <trkpt lat="46.85951" lon="8.48465">
        <ele>2403</ele>
        <time>2021-08-12T09:24:54.458Z</time>
      </trkpt>
      <trkpt lat="46.8595" lon="8.48465">
        <ele>2403</ele>
        <time>2021-08-12T09:24:55.459Z</time>
      </trkpt>
      <trkpt lat="46.8595" lon="8.48465">
        <ele>2402</ele>
        <time>2021-08-12T09:24:56.459Z</time>
      </trkpt>
      <trkpt lat="46.8595" lon="8.48466">
        <ele>2402</ele>
        <time>2021-08-12T09:24:57.459Z</time>
      </trkpt>
      <trkpt lat="46.85949" lon="8.48467">
        <ele>2403</ele>
        <time>2021-08-12T09:24:58.459Z</time>
      </trkpt>
      <trkpt lat="46.85947" lon="8.48468">
        <ele>2403</ele>
        <time>2021-08-12T09:24:59.458Z</time>
      </trkpt>
      <trkpt lat="46.85946" lon="8.48467">
        <ele>2403</ele>
        <time>2021-08-12T09:25:00.459Z</time>
      </trkpt>
      <trkpt lat="46.85945" lon="8.48467">
        <ele>2403</ele>
        <time>2021-08-12T09:25:01.458Z</time>
      </trkpt>
      <trkpt lat="46.85944" lon="8.48467">
        <ele>2403</ele>
        <time>2021-08-12T09:25:02.459Z</time>
      </trkpt>
      <trkpt lat="46.85943" lon="8.48467">
        <ele>2404</ele>
        <time>2021-08-12T09:25:03.459Z</time>
      </trkpt>
      <trkpt lat="46.85943" lon="8.48468">
        <ele>2404</ele>
        <time>2021-08-12T09:25:04.459Z</time>
      </trkpt>
      <trkpt lat="46.85942" lon="8.48468">
        <ele>2405</ele>
        <time>2021-08-12T09:25:05.459Z</time>
      </trkpt>
      <trkpt lat="46.85942" lon="8.48468">
        <ele>2405</ele>
        <time>2021-08-12T09:25:06.459Z</time>
      </trkpt>
      <trkpt lat="46.85941" lon="8.48469">
        <ele>2405</ele>
        <time>2021-08-12T09:25:07.459Z</time>
      </trkpt>
      <trkpt lat="46.8594" lon="8.48469">
        <ele>2404</ele>
        <time>2021-08-12T09:25:08.459Z</time>
      </trkpt>
      <trkpt lat="46.8594" lon="8.4847">
        <ele>2404</ele>
        <time>2021-08-12T09:25:09.458Z</time>
      </trkpt>
      <trkpt lat="46.8594" lon="8.4847">
        <ele>2404</ele>
        <time>2021-08-12T09:25:10.458Z</time>
      </trkpt>
      <trkpt lat="46.85939" lon="8.4847">
        <ele>2403</ele>
        <time>2021-08-12T09:25:11.459Z</time>
      </trkpt>
      <trkpt lat="46.85939" lon="8.4847">
        <ele>2403</ele>
        <time>2021-08-12T09:25:12.459Z</time>
      </trkpt>
      <trkpt lat="46.85937" lon="8.4847">
        <ele>2403</ele>
        <time>2021-08-12T09:25:13.458Z</time>
      </trkpt>
      <trkpt lat="46.85937" lon="8.48471">
        <ele>2403</ele>
        <time>2021-08-12T09:25:14.459Z</time>
      </trkpt>
      <trkpt lat="46.85937" lon="8.48471">
        <ele>2402</ele>
        <time>2021-08-12T09:25:15.459Z</time>
      </trkpt>
      <trkpt lat="46.85936" lon="8.48471">
        <ele>2402</ele>
        <time>2021-08-12T09:25:16.459Z</time>
      </trkpt>
      <trkpt lat="46.85935" lon="8.48471">
        <ele>2401</ele>
        <time>2021-08-12T09:25:17.459Z</time>
      </trkpt>
      <trkpt lat="46.85934" lon="8.48471">
        <ele>2401</ele>
        <time>2021-08-12T09:25:18.458Z</time>
      </trkpt>
      <trkpt lat="46.85932" lon="8.48471">
        <ele>2401</ele>
        <time>2021-08-12T09:25:19.459Z</time>
      </trkpt>
      <trkpt lat="46.85931" lon="8.48471">
        <ele>2401</ele>
        <time>2021-08-12T09:25:20.458Z</time>
      </trkpt>
      <trkpt lat="46.85929" lon="8.48473">
        <ele>2400</ele>
        <time>2021-08-12T09:25:21.459Z</time>
      </trkpt>
      <trkpt lat="46.85927" lon="8.48475">
        <ele>2400</ele>
        <time>2021-08-12T09:25:22.458Z</time>
      </trkpt>
      <trkpt lat="46.85926" lon="8.48476">
        <ele>2400</ele>
        <time>2021-08-12T09:25:23.458Z</time>
      </trkpt>
      <trkpt lat="46.85924" lon="8.48477">
        <ele>2400</ele>
        <time>2021-08-12T09:25:24.458Z</time>
      </trkpt>
      <trkpt lat="46.85923" lon="8.48477">
        <ele>2400</ele>
        <time>2021-08-12T09:25:25.459Z</time>
      </trkpt>
      <trkpt lat="46.85923" lon="8.48477">
        <ele>2400</ele>
        <time>2021-08-12T09:25:26.458Z</time>
      </trkpt>
      <trkpt lat="46.85924" lon="8.48475">
        <ele>2401</ele>
        <time>2021-08-12T09:25:27.459Z</time>
      </trkpt>
      <trkpt lat="46.85924" lon="8.48474">
        <ele>2401</ele>
        <time>2021-08-12T09:25:28.459Z</time>
      </trkpt>
      <trkpt lat="46.85924" lon="8.48474">
        <ele>2401</ele>
        <time>2021-08-12T09:25:29.458Z</time>
      </trkpt>
      <trkpt lat="46.85923" lon="8.48474">
        <ele>2401</ele>
        <time>2021-08-12T09:25:30.459Z</time>
      </trkpt>
      <trkpt lat="46.85922" lon="8.48474">
        <ele>2401</ele>
        <time>2021-08-12T09:25:31.459Z</time>
      </trkpt>
      <trkpt lat="46.85921" lon="8.48474">
        <ele>2401</ele>
        <time>2021-08-12T09:25:32.459Z</time>
      </trkpt>
      <trkpt lat="46.8592" lon="8.48474">
        <ele>2401</ele>
        <time>2021-08-12T09:25:33.459Z</time>
      </trkpt>
      <trkpt lat="46.85919" lon="8.48475">
        <ele>2401</ele>
        <time>2021-08-12T09:25:34.458Z</time>
      </trkpt>
      <trkpt lat="46.85919" lon="8.48475">
        <ele>2401</ele>
        <time>2021-08-12T09:25:35.459Z</time>
      </trkpt>
      <trkpt lat="46.85918" lon="8.48476">
        <ele>2402</ele>
        <time>2021-08-12T09:25:36.459Z</time>
      </trkpt>
      <trkpt lat="46.85918" lon="8.48477">
        <ele>2401</ele>
        <time>2021-08-12T09:25:37.459Z</time>
      </trkpt>
      <trkpt lat="46.85917" lon="8.48478">
        <ele>2401</ele>
        <time>2021-08-12T09:25:38.459Z</time>
      </trkpt>
      <trkpt lat="46.85916" lon="8.48478">
        <ele>2401</ele>
        <time>2021-08-12T09:25:39.459Z</time>
      </trkpt>
      <trkpt lat="46.85916" lon="8.48479">
        <ele>2400</ele>
        <time>2021-08-12T09:25:40.458Z</time>
      </trkpt>
      <trkpt lat="46.85915" lon="8.4848">
        <ele>2400</ele>
        <time>2021-08-12T09:25:41.459Z</time>
      </trkpt>
      <trkpt lat="46.85914" lon="8.48481">
        <ele>2400</ele>
        <time>2021-08-12T09:25:42.458Z</time>
      </trkpt>
      <trkpt lat="46.85914" lon="8.48482">
        <ele>2399</ele>
        <time>2021-08-12T09:25:43.459Z</time>
      </trkpt>
      <trkpt lat="46.85913" lon="8.48483">
        <ele>2399</ele>
        <time>2021-08-12T09:25:44.458Z</time>
      </trkpt>
      <trkpt lat="46.85912" lon="8.48484">
        <ele>2398</ele>
        <time>2021-08-12T09:25:45.459Z</time>
      </trkpt>
      <trkpt lat="46.85911" lon="8.48485">
        <ele>2398</ele>
        <time>2021-08-12T09:25:46.458Z</time>
      </trkpt>
      <trkpt lat="46.8591" lon="8.48486">
        <ele>2397</ele>
        <time>2021-08-12T09:25:47.459Z</time>
      </trkpt>
      <trkpt lat="46.85909" lon="8.48486">
        <ele>2397</ele>
        <time>2021-08-12T09:25:48.458Z</time>
      </trkpt>
      <trkpt lat="46.85907" lon="8.48486">
        <ele>2396</ele>
        <time>2021-08-12T09:25:49.458Z</time>
      </trkpt>
      <trkpt lat="46.85904" lon="8.48486">
        <ele>2396</ele>
        <time>2021-08-12T09:25:50.459Z</time>
      </trkpt>
      <trkpt lat="46.85902" lon="8.48488">
        <ele>2396</ele>
        <time>2021-08-12T09:25:51.459Z</time>
      </trkpt>
      <trkpt lat="46.85901" lon="8.4849">
        <ele>2396</ele>
        <time>2021-08-12T09:25:52.459Z</time>
      </trkpt>
      <trkpt lat="46.85898" lon="8.48492">
        <ele>2396</ele>
        <time>2021-08-12T09:25:53.459Z</time>
      </trkpt>
      <trkpt lat="46.85897" lon="8.48493">
        <ele>2395</ele>
        <time>2021-08-12T09:25:54.459Z</time>
      </trkpt>
      <trkpt lat="46.85896" lon="8.48493">
        <ele>2395</ele>
        <time>2021-08-12T09:25:55.459Z</time>
      </trkpt>
      <trkpt lat="46.85896" lon="8.48493">
        <ele>2395</ele>
        <time>2021-08-12T09:25:56.459Z</time>
      </trkpt>
      <trkpt lat="46.85894" lon="8.48494">
        <ele>2395</ele>
        <time>2021-08-12T09:25:57.459Z</time>
      </trkpt>
      <trkpt lat="46.85892" lon="8.48494">
        <ele>2395</ele>
        <time>2021-08-12T09:25:58.459Z</time>
      </trkpt>
      <trkpt lat="46.85891" lon="8.48495">
        <ele>2395</ele>
        <time>2021-08-12T09:25:59.458Z</time>
      </trkpt>
      <trkpt lat="46.8589" lon="8.48495">
        <ele>2395</ele>
        <time>2021-08-12T09:26:00.459Z</time>
      </trkpt>
      <trkpt lat="46.85888" lon="8.48496">
        <ele>2396</ele>
        <time>2021-08-12T09:26:01.459Z</time>
      </trkpt>
      <trkpt lat="46.85887" lon="8.48497">
        <ele>2396</ele>
        <time>2021-08-12T09:26:02.458Z</time>
      </trkpt>
      <trkpt lat="46.85887" lon="8.48498">
        <ele>2396</ele>
        <time>2021-08-12T09:26:03.458Z</time>
      </trkpt>
      <trkpt lat="46.85886" lon="8.48499">
        <ele>2396</ele>
        <time>2021-08-12T09:26:04.458Z</time>
      </trkpt>
      <trkpt lat="46.85886" lon="8.48499">
        <ele>2396</ele>
        <time>2021-08-12T09:26:05.458Z</time>
      </trkpt>
      <trkpt lat="46.85884" lon="8.485">
        <ele>2396</ele>
        <time>2021-08-12T09:26:06.458Z</time>
      </trkpt>
      <trkpt lat="46.85884" lon="8.485">
        <ele>2396</ele>
        <time>2021-08-12T09:26:07.459Z</time>
      </trkpt>
      <trkpt lat="46.85883" lon="8.48501">
        <ele>2396</ele>
        <time>2021-08-12T09:26:08.458Z</time>
      </trkpt>
      <trkpt lat="46.85883" lon="8.48502">
        <ele>2395</ele>
        <time>2021-08-12T09:26:09.459Z</time>
      </trkpt>
      <trkpt lat="46.85882" lon="8.48503">
        <ele>2394</ele>
        <time>2021-08-12T09:26:10.459Z</time>
      </trkpt>
      <trkpt lat="46.85881" lon="8.48503">
        <ele>2393</ele>
        <time>2021-08-12T09:26:11.459Z</time>
      </trkpt>
      <trkpt lat="46.85881" lon="8.48504">
        <ele>2393</ele>
        <time>2021-08-12T09:26:12.459Z</time>
      </trkpt>
      <trkpt lat="46.85881" lon="8.48504">
        <ele>2392</ele>
        <time>2021-08-12T09:26:13.458Z</time>
      </trkpt>
      <trkpt lat="46.8588" lon="8.48504">
        <ele>2391</ele>
        <time>2021-08-12T09:26:14.458Z</time>
      </trkpt>
      <trkpt lat="46.85879" lon="8.48504">
        <ele>2389</ele>
        <time>2021-08-12T09:26:15.458Z</time>
      </trkpt>
      <trkpt lat="46.85879" lon="8.48505">
        <ele>2388</ele>
        <time>2021-08-12T09:26:16.459Z</time>
      </trkpt>
      <trkpt lat="46.85881" lon="8.48507">
        <ele>2388</ele>
        <time>2021-08-12T09:26:17.459Z</time>
      </trkpt>
      <trkpt lat="46.85881" lon="8.48508">
        <ele>2387</ele>
        <time>2021-08-12T09:26:18.460Z</time>
      </trkpt>
      <trkpt lat="46.85881" lon="8.48508">
        <ele>2387</ele>
        <time>2021-08-12T09:26:19.459Z</time>
      </trkpt>
      <trkpt lat="46.8588" lon="8.48509">
        <ele>2386</ele>
        <time>2021-08-12T09:26:20.460Z</time>
      </trkpt>
      <trkpt lat="46.8588" lon="8.48509">
        <ele>2386</ele>
        <time>2021-08-12T09:26:21.460Z</time>
      </trkpt>
      <trkpt lat="46.85879" lon="8.48509">
        <ele>2385</ele>
        <time>2021-08-12T09:26:22.460Z</time>
      </trkpt>
      <trkpt lat="46.85878" lon="8.48509">
        <ele>2384</ele>
        <time>2021-08-12T09:26:23.459Z</time>
      </trkpt>
      <trkpt lat="46.85878" lon="8.48509">
        <ele>2383</ele>
        <time>2021-08-12T09:26:24.459Z</time>
      </trkpt>
      <trkpt lat="46.85877" lon="8.48509">
        <ele>2382</ele>
        <time>2021-08-12T09:26:25.460Z</time>
      </trkpt>
      <trkpt lat="46.85877" lon="8.4851">
        <ele>2381</ele>
        <time>2021-08-12T09:26:26.459Z</time>
      </trkpt>
      <trkpt lat="46.85877" lon="8.4851">
        <ele>2381</ele>
        <time>2021-08-12T09:26:27.460Z</time>
      </trkpt>
      <trkpt lat="46.85877" lon="8.4851">
        <ele>2380</ele>
        <time>2021-08-12T09:26:28.460Z</time>
      </trkpt>
      <trkpt lat="46.85876" lon="8.48509">
        <ele>2377</ele>
        <time>2021-08-12T09:26:29.461Z</time>
      </trkpt>
      <trkpt lat="46.85875" lon="8.48509">
        <ele>2376</ele>
        <time>2021-08-12T09:26:30.461Z</time>
      </trkpt>
      <trkpt lat="46.85875" lon="8.48509">
        <ele>2375</ele>
        <time>2021-08-12T09:26:31.461Z</time>
      </trkpt>
      <trkpt lat="46.85874" lon="8.48509">
        <ele>2375</ele>
        <time>2021-08-12T09:26:32.460Z</time>
      </trkpt>
      <trkpt lat="46.85873" lon="8.48509">
        <ele>2374</ele>
        <time>2021-08-12T09:26:33.461Z</time>
      </trkpt>
      <trkpt lat="46.85872" lon="8.48509">
        <ele>2374</ele>
        <time>2021-08-12T09:26:34.461Z</time>
      </trkpt>
      <trkpt lat="46.85871" lon="8.48509">
        <ele>2374</ele>
        <time>2021-08-12T09:26:35.460Z</time>
      </trkpt>
      <trkpt lat="46.8587" lon="8.48509">
        <ele>2374</ele>
        <time>2021-08-12T09:26:36.460Z</time>
      </trkpt>
      <trkpt lat="46.85869" lon="8.4851">
        <ele>2375</ele>
        <time>2021-08-12T09:26:37.460Z</time>
      </trkpt>
      <trkpt lat="46.85869" lon="8.48511">
        <ele>2375</ele>
        <time>2021-08-12T09:26:38.460Z</time>
      </trkpt>
      <trkpt lat="46.85869" lon="8.48511">
        <ele>2375</ele>
        <time>2021-08-12T09:26:39.461Z</time>
      </trkpt>
      <trkpt lat="46.85868" lon="8.48512">
        <ele>2375</ele>
        <time>2021-08-12T09:26:40.461Z</time>
      </trkpt>
      <trkpt lat="46.85868" lon="8.48512">
        <ele>2375</ele>
        <time>2021-08-12T09:26:41.460Z</time>
      </trkpt>
      <trkpt lat="46.85867" lon="8.48513">
        <ele>2376</ele>
        <time>2021-08-12T09:26:42.460Z</time>
      </trkpt>
      <trkpt lat="46.85867" lon="8.48513">
        <ele>2375</ele>
        <time>2021-08-12T09:26:43.461Z</time>
      </trkpt>
      <trkpt lat="46.85867" lon="8.48513">
        <ele>2375</ele>
        <time>2021-08-12T09:26:44.461Z</time>
      </trkpt>
      <trkpt lat="46.85867" lon="8.48514">
        <ele>2374</ele>
        <time>2021-08-12T09:26:45.460Z</time>
      </trkpt>
      <trkpt lat="46.85866" lon="8.48514">
        <ele>2373</ele>
        <time>2021-08-12T09:26:46.460Z</time>
      </trkpt>
      <trkpt lat="46.85866" lon="8.48515">
        <ele>2372</ele>
        <time>2021-08-12T09:26:47.460Z</time>
      </trkpt>
      <trkpt lat="46.85866" lon="8.48516">
        <ele>2371</ele>
        <time>2021-08-12T09:26:48.460Z</time>
      </trkpt>
      <trkpt lat="46.85865" lon="8.48516">
        <ele>2370</ele>
        <time>2021-08-12T09:26:49.461Z</time>
      </trkpt>
      <trkpt lat="46.85865" lon="8.48517">
        <ele>2370</ele>
        <time>2021-08-12T09:26:50.460Z</time>
      </trkpt>
      <trkpt lat="46.85864" lon="8.48518">
        <ele>2369</ele>
        <time>2021-08-12T09:26:51.460Z</time>
      </trkpt>
      <trkpt lat="46.85864" lon="8.48519">
        <ele>2369</ele>
        <time>2021-08-12T09:26:52.460Z</time>
      </trkpt>
      <trkpt lat="46.85863" lon="8.48519">
        <ele>2369</ele>
        <time>2021-08-12T09:26:53.460Z</time>
      </trkpt>
      <trkpt lat="46.85862" lon="8.48519">
        <ele>2368</ele>
        <time>2021-08-12T09:26:54.460Z</time>
      </trkpt>
      <trkpt lat="46.85863" lon="8.48519">
        <ele>2369</ele>
        <time>2021-08-12T09:26:55.460Z</time>
      </trkpt>
      <trkpt lat="46.85862" lon="8.4852">
        <ele>2371</ele>
        <time>2021-08-12T09:26:56.461Z</time>
      </trkpt>
      <trkpt lat="46.85862" lon="8.48521">
        <ele>2371</ele>
        <time>2021-08-12T09:26:57.460Z</time>
      </trkpt>
      <trkpt lat="46.85861" lon="8.48522">
        <ele>2372</ele>
        <time>2021-08-12T09:26:58.461Z</time>
      </trkpt>
      <trkpt lat="46.85861" lon="8.48522">
        <ele>2372</ele>
        <time>2021-08-12T09:26:59.460Z</time>
      </trkpt>
      <trkpt lat="46.85861" lon="8.48523">
        <ele>2371</ele>
        <time>2021-08-12T09:27:00.461Z</time>
      </trkpt>
      <trkpt lat="46.8586" lon="8.48524">
        <ele>2371</ele>
        <time>2021-08-12T09:27:01.460Z</time>
      </trkpt>
      <trkpt lat="46.8586" lon="8.48525">
        <ele>2371</ele>
        <time>2021-08-12T09:27:02.461Z</time>
      </trkpt>
      <trkpt lat="46.8586" lon="8.48526">
        <ele>2372</ele>
        <time>2021-08-12T09:27:03.461Z</time>
      </trkpt>
      <trkpt lat="46.85859" lon="8.48527">
        <ele>2372</ele>
        <time>2021-08-12T09:27:04.461Z</time>
      </trkpt>
      <trkpt lat="46.85859" lon="8.48527">
        <ele>2372</ele>
        <time>2021-08-12T09:27:05.461Z</time>
      </trkpt>
      <trkpt lat="46.85859" lon="8.48528">
        <ele>2373</ele>
        <time>2021-08-12T09:27:06.461Z</time>
      </trkpt>
      <trkpt lat="46.85858" lon="8.48528">
        <ele>2373</ele>
        <time>2021-08-12T09:27:07.461Z</time>
      </trkpt>
      <trkpt lat="46.85858" lon="8.48528">
        <ele>2373</ele>
        <time>2021-08-12T09:27:08.461Z</time>
      </trkpt>
      <trkpt lat="46.85858" lon="8.48529">
        <ele>2373</ele>
        <time>2021-08-12T09:27:09.461Z</time>
      </trkpt>
      <trkpt lat="46.85857" lon="8.48529">
        <ele>2373</ele>
        <time>2021-08-12T09:27:10.461Z</time>
      </trkpt>
      <trkpt lat="46.85857" lon="8.48529">
        <ele>2373</ele>
        <time>2021-08-12T09:27:11.460Z</time>
      </trkpt>
      <trkpt lat="46.85855" lon="8.4853">
        <ele>2373</ele>
        <time>2021-08-12T09:27:12.461Z</time>
      </trkpt>
      <trkpt lat="46.85855" lon="8.4853">
        <ele>2373</ele>
        <time>2021-08-12T09:27:13.460Z</time>
      </trkpt>
      <trkpt lat="46.85854" lon="8.48531">
        <ele>2373</ele>
        <time>2021-08-12T09:27:14.460Z</time>
      </trkpt>
      <trkpt lat="46.85854" lon="8.48532">
        <ele>2373</ele>
        <time>2021-08-12T09:27:15.461Z</time>
      </trkpt>
      <trkpt lat="46.85854" lon="8.48532">
        <ele>2372</ele>
        <time>2021-08-12T09:27:16.461Z</time>
      </trkpt>
      <trkpt lat="46.85853" lon="8.48533">
        <ele>2372</ele>
        <time>2021-08-12T09:27:17.461Z</time>
      </trkpt>
      <trkpt lat="46.85853" lon="8.48533">
        <ele>2372</ele>
        <time>2021-08-12T09:27:18.460Z</time>
      </trkpt>
      <trkpt lat="46.85853" lon="8.48533">
        <ele>2372</ele>
        <time>2021-08-12T09:27:19.461Z</time>
      </trkpt>
      <trkpt lat="46.85852" lon="8.48534">
        <ele>2372</ele>
        <time>2021-08-12T09:27:20.461Z</time>
      </trkpt>
      <trkpt lat="46.85852" lon="8.48534">
        <ele>2374</ele>
        <time>2021-08-12T09:27:21.461Z</time>
      </trkpt>
      <trkpt lat="46.85851" lon="8.48534">
        <ele>2375</ele>
        <time>2021-08-12T09:27:22.460Z</time>
      </trkpt>
      <trkpt lat="46.85851" lon="8.48534">
        <ele>2377</ele>
        <time>2021-08-12T09:27:23.461Z</time>
      </trkpt>
      <trkpt lat="46.8585" lon="8.48534">
        <ele>2378</ele>
        <time>2021-08-12T09:27:24.461Z</time>
      </trkpt>
      <trkpt lat="46.8585" lon="8.48534">
        <ele>2380</ele>
        <time>2021-08-12T09:27:25.461Z</time>
      </trkpt>
      <trkpt lat="46.85848" lon="8.48534">
        <ele>2381</ele>
        <time>2021-08-12T09:27:26.461Z</time>
      </trkpt>
      <trkpt lat="46.85848" lon="8.48534">
        <ele>2383</ele>
        <time>2021-08-12T09:27:27.461Z</time>
      </trkpt>
      <trkpt lat="46.85847" lon="8.48534">
        <ele>2384</ele>
        <time>2021-08-12T09:27:28.461Z</time>
      </trkpt>
      <trkpt lat="46.85847" lon="8.48533">
        <ele>2386</ele>
        <time>2021-08-12T09:27:29.460Z</time>
      </trkpt>
      <trkpt lat="46.85848" lon="8.48533">
        <ele>2387</ele>
        <time>2021-08-12T09:27:30.461Z</time>
      </trkpt>
      <trkpt lat="46.85848" lon="8.48533">
        <ele>2388</ele>
        <time>2021-08-12T09:27:31.461Z</time>
      </trkpt>
      <trkpt lat="46.85848" lon="8.48532">
        <ele>2389</ele>
        <time>2021-08-12T09:27:32.461Z</time>
      </trkpt>
      <trkpt lat="46.85847" lon="8.48532">
        <ele>2390</ele>
        <time>2021-08-12T09:27:33.461Z</time>
      </trkpt>
      <trkpt lat="46.85847" lon="8.48532">
        <ele>2391</ele>
        <time>2021-08-12T09:27:34.461Z</time>
      </trkpt>
      <trkpt lat="46.85846" lon="8.48533">
        <ele>2392</ele>
        <time>2021-08-12T09:27:35.461Z</time>
      </trkpt>
      <trkpt lat="46.85844" lon="8.48534">
        <ele>2393</ele>
        <time>2021-08-12T09:27:36.460Z</time>
      </trkpt>
      <trkpt lat="46.85842" lon="8.48534">
        <ele>2393</ele>
        <time>2021-08-12T09:27:37.461Z</time>
      </trkpt>
      <trkpt lat="46.85842" lon="8.48535">
        <ele>2394</ele>
        <time>2021-08-12T09:27:38.461Z</time>
      </trkpt>
      <trkpt lat="46.85841" lon="8.48535">
        <ele>2395</ele>
        <time>2021-08-12T09:27:39.461Z</time>
      </trkpt>
      <trkpt lat="46.85841" lon="8.48536">
        <ele>2396</ele>
        <time>2021-08-12T09:27:40.461Z</time>
      </trkpt>
      <trkpt lat="46.8584" lon="8.48537">
        <ele>2396</ele>
        <time>2021-08-12T09:27:41.461Z</time>
      </trkpt>
      <trkpt lat="46.85839" lon="8.48537">
        <ele>2397</ele>
        <time>2021-08-12T09:27:42.461Z</time>
      </trkpt>
      <trkpt lat="46.85838" lon="8.48538">
        <ele>2397</ele>
        <time>2021-08-12T09:27:43.461Z</time>
      </trkpt>
      <trkpt lat="46.85837" lon="8.48539">
        <ele>2397</ele>
        <time>2021-08-12T09:27:44.460Z</time>
      </trkpt>
      <trkpt lat="46.85836" lon="8.4854">
        <ele>2397</ele>
        <time>2021-08-12T09:27:45.460Z</time>
      </trkpt>
      <trkpt lat="46.85836" lon="8.48541">
        <ele>2397</ele>
        <time>2021-08-12T09:27:46.460Z</time>
      </trkpt>
      <trkpt lat="46.85835" lon="8.48541">
        <ele>2398</ele>
        <time>2021-08-12T09:27:47.461Z</time>
      </trkpt>
      <trkpt lat="46.85833" lon="8.48541">
        <ele>2398</ele>
        <time>2021-08-12T09:27:48.460Z</time>
      </trkpt>
      <trkpt lat="46.85831" lon="8.4854">
        <ele>2398</ele>
        <time>2021-08-12T09:27:49.461Z</time>
      </trkpt>
      <trkpt lat="46.85831" lon="8.48539">
        <ele>2398</ele>
        <time>2021-08-12T09:27:50.461Z</time>
      </trkpt>
      <trkpt lat="46.85831" lon="8.48538">
        <ele>2398</ele>
        <time>2021-08-12T09:27:51.461Z</time>
      </trkpt>
      <trkpt lat="46.85831" lon="8.48537">
        <ele>2399</ele>
        <time>2021-08-12T09:27:52.460Z</time>
      </trkpt>
      <trkpt lat="46.85832" lon="8.48537">
        <ele>2401</ele>
        <time>2021-08-12T09:27:53.460Z</time>
      </trkpt>
      <trkpt lat="46.85832" lon="8.48538">
        <ele>2402</ele>
        <time>2021-08-12T09:27:54.460Z</time>
      </trkpt>
      <trkpt lat="46.85831" lon="8.48538">
        <ele>2403</ele>
        <time>2021-08-12T09:27:55.461Z</time>
      </trkpt>
      <trkpt lat="46.8583" lon="8.48539">
        <ele>2404</ele>
        <time>2021-08-12T09:27:56.460Z</time>
      </trkpt>
      <trkpt lat="46.85829" lon="8.48539">
        <ele>2404</ele>
        <time>2021-08-12T09:27:57.461Z</time>
      </trkpt>
      <trkpt lat="46.85829" lon="8.4854">
        <ele>2405</ele>
        <time>2021-08-12T09:27:58.460Z</time>
      </trkpt>
      <trkpt lat="46.85828" lon="8.48541">
        <ele>2405</ele>
        <time>2021-08-12T09:27:59.460Z</time>
      </trkpt>
      <trkpt lat="46.85827" lon="8.48542">
        <ele>2405</ele>
        <time>2021-08-12T09:28:00.460Z</time>
      </trkpt>
      <trkpt lat="46.85826" lon="8.48542">
        <ele>2405</ele>
        <time>2021-08-12T09:28:01.461Z</time>
      </trkpt>
      <trkpt lat="46.85826" lon="8.48543">
        <ele>2405</ele>
        <time>2021-08-12T09:28:02.460Z</time>
      </trkpt>
      <trkpt lat="46.85825" lon="8.48543">
        <ele>2405</ele>
        <time>2021-08-12T09:28:03.461Z</time>
      </trkpt>
      <trkpt lat="46.85825" lon="8.48543">
        <ele>2405</ele>
        <time>2021-08-12T09:28:04.460Z</time>
      </trkpt>
      <trkpt lat="46.85823" lon="8.48544">
        <ele>2405</ele>
        <time>2021-08-12T09:28:05.460Z</time>
      </trkpt>
      <trkpt lat="46.85822" lon="8.48544">
        <ele>2405</ele>
        <time>2021-08-12T09:28:06.460Z</time>
      </trkpt>
      <trkpt lat="46.85821" lon="8.48545">
        <ele>2405</ele>
        <time>2021-08-12T09:28:07.460Z</time>
      </trkpt>
      <trkpt lat="46.8582" lon="8.48546">
        <ele>2406</ele>
        <time>2021-08-12T09:28:08.460Z</time>
      </trkpt>
      <trkpt lat="46.85819" lon="8.48546">
        <ele>2406</ele>
        <time>2021-08-12T09:28:09.461Z</time>
      </trkpt>
      <trkpt lat="46.85818" lon="8.48546">
        <ele>2406</ele>
        <time>2021-08-12T09:28:10.460Z</time>
      </trkpt>
      <trkpt lat="46.85816" lon="8.48545">
        <ele>2407</ele>
        <time>2021-08-12T09:28:11.460Z</time>
      </trkpt>
      <trkpt lat="46.85816" lon="8.48545">
        <ele>2407</ele>
        <time>2021-08-12T09:28:12.460Z</time>
      </trkpt>
      <trkpt lat="46.85814" lon="8.48545">
        <ele>2408</ele>
        <time>2021-08-12T09:28:13.460Z</time>
      </trkpt>
      <trkpt lat="46.85813" lon="8.48545">
        <ele>2408</ele>
        <time>2021-08-12T09:28:14.460Z</time>
      </trkpt>
      <trkpt lat="46.85813" lon="8.48545">
        <ele>2408</ele>
        <time>2021-08-12T09:28:15.460Z</time>
      </trkpt>
      <trkpt lat="46.85812" lon="8.48546">
        <ele>2409</ele>
        <time>2021-08-12T09:28:16.460Z</time>
      </trkpt>
      <trkpt lat="46.85811" lon="8.48547">
        <ele>2410</ele>
        <time>2021-08-12T09:28:17.461Z</time>
      </trkpt>
      <trkpt lat="46.85811" lon="8.48548">
        <ele>2410</ele>
        <time>2021-08-12T09:28:18.460Z</time>
      </trkpt>
      <trkpt lat="46.85811" lon="8.48548">
        <ele>2410</ele>
        <time>2021-08-12T09:28:19.460Z</time>
      </trkpt>
      <trkpt lat="46.8581" lon="8.48549">
        <ele>2411</ele>
        <time>2021-08-12T09:28:20.460Z</time>
      </trkpt>
      <trkpt lat="46.85809" lon="8.48549">
        <ele>2411</ele>
        <time>2021-08-12T09:28:21.461Z</time>
      </trkpt>
      <trkpt lat="46.85808" lon="8.4855">
        <ele>2411</ele>
        <time>2021-08-12T09:28:22.461Z</time>
      </trkpt>
      <trkpt lat="46.85807" lon="8.4855">
        <ele>2412</ele>
        <time>2021-08-12T09:28:23.460Z</time>
      </trkpt>
      <trkpt lat="46.85806" lon="8.48551">
        <ele>2412</ele>
        <time>2021-08-12T09:28:24.460Z</time>
      </trkpt>
      <trkpt lat="46.85805" lon="8.48552">
        <ele>2412</ele>
        <time>2021-08-12T09:28:25.460Z</time>
      </trkpt>
      <trkpt lat="46.85804" lon="8.48554">
        <ele>2412</ele>
        <time>2021-08-12T09:28:26.460Z</time>
      </trkpt>
      <trkpt lat="46.85803" lon="8.48555">
        <ele>2412</ele>
        <time>2021-08-12T09:28:27.460Z</time>
      </trkpt>
      <trkpt lat="46.85803" lon="8.48556">
        <ele>2412</ele>
        <time>2021-08-12T09:28:28.461Z</time>
      </trkpt>
      <trkpt lat="46.85802" lon="8.48557">
        <ele>2412</ele>
        <time>2021-08-12T09:28:29.461Z</time>
      </trkpt>
      <trkpt lat="46.85802" lon="8.48557">
        <ele>2412</ele>
        <time>2021-08-12T09:28:30.460Z</time>
      </trkpt>
      <trkpt lat="46.85801" lon="8.48557">
        <ele>2411</ele>
        <time>2021-08-12T09:28:31.461Z</time>
      </trkpt>
      <trkpt lat="46.858" lon="8.48557">
        <ele>2411</ele>
        <time>2021-08-12T09:28:32.460Z</time>
      </trkpt>
      <trkpt lat="46.85799" lon="8.48557">
        <ele>2410</ele>
        <time>2021-08-12T09:28:33.460Z</time>
      </trkpt>
      <trkpt lat="46.85798" lon="8.48557">
        <ele>2408</ele>
        <time>2021-08-12T09:28:34.461Z</time>
      </trkpt>
      <trkpt lat="46.85796" lon="8.48557">
        <ele>2407</ele>
        <time>2021-08-12T09:28:35.461Z</time>
      </trkpt>
      <trkpt lat="46.85796" lon="8.48557">
        <ele>2406</ele>
        <time>2021-08-12T09:28:36.461Z</time>
      </trkpt>
      <trkpt lat="46.85794" lon="8.48557">
        <ele>2406</ele>
        <time>2021-08-12T09:28:37.460Z</time>
      </trkpt>
      <trkpt lat="46.85793" lon="8.48558">
        <ele>2405</ele>
        <time>2021-08-12T09:28:38.461Z</time>
      </trkpt>
      <trkpt lat="46.85792" lon="8.48558">
        <ele>2405</ele>
        <time>2021-08-12T09:28:39.460Z</time>
      </trkpt>
      <trkpt lat="46.85791" lon="8.48558">
        <ele>2405</ele>
        <time>2021-08-12T09:28:40.460Z</time>
      </trkpt>
      <trkpt lat="46.8579" lon="8.48558">
        <ele>2405</ele>
        <time>2021-08-12T09:28:41.461Z</time>
      </trkpt>
      <trkpt lat="46.85789" lon="8.48558">
        <ele>2405</ele>
        <time>2021-08-12T09:28:42.461Z</time>
      </trkpt>
      <trkpt lat="46.85787" lon="8.48558">
        <ele>2406</ele>
        <time>2021-08-12T09:28:43.461Z</time>
      </trkpt>
      <trkpt lat="46.85786" lon="8.48559">
        <ele>2406</ele>
        <time>2021-08-12T09:28:44.460Z</time>
      </trkpt>
      <trkpt lat="46.85785" lon="8.48562">
        <ele>2406</ele>
        <time>2021-08-12T09:28:45.461Z</time>
      </trkpt>
      <trkpt lat="46.85785" lon="8.48563">
        <ele>2406</ele>
        <time>2021-08-12T09:28:46.461Z</time>
      </trkpt>
      <trkpt lat="46.85784" lon="8.48564">
        <ele>2406</ele>
        <time>2021-08-12T09:28:47.460Z</time>
      </trkpt>
      <trkpt lat="46.85784" lon="8.48564">
        <ele>2406</ele>
        <time>2021-08-12T09:28:48.460Z</time>
      </trkpt>
      <trkpt lat="46.85784" lon="8.48564">
        <ele>2406</ele>
        <time>2021-08-12T09:28:49.461Z</time>
      </trkpt>
      <trkpt lat="46.85783" lon="8.48565">
        <ele>2406</ele>
        <time>2021-08-12T09:28:50.461Z</time>
      </trkpt>
      <trkpt lat="46.85783" lon="8.48566">
        <ele>2406</ele>
        <time>2021-08-12T09:28:51.461Z</time>
      </trkpt>
      <trkpt lat="46.85782" lon="8.48567">
        <ele>2405</ele>
        <time>2021-08-12T09:28:52.461Z</time>
      </trkpt>
      <trkpt lat="46.85782" lon="8.48568">
        <ele>2404</ele>
        <time>2021-08-12T09:28:53.461Z</time>
      </trkpt>
      <trkpt lat="46.85781" lon="8.48569">
        <ele>2403</ele>
        <time>2021-08-12T09:28:54.461Z</time>
      </trkpt>
      <trkpt lat="46.8578" lon="8.48569">
        <ele>2402</ele>
        <time>2021-08-12T09:28:55.461Z</time>
      </trkpt>
      <trkpt lat="46.85779" lon="8.4857">
        <ele>2401</ele>
        <time>2021-08-12T09:28:56.461Z</time>
      </trkpt>
      <trkpt lat="46.85779" lon="8.48571">
        <ele>2400</ele>
        <time>2021-08-12T09:28:57.461Z</time>
      </trkpt>
      <trkpt lat="46.85778" lon="8.48571">
        <ele>2400</ele>
        <time>2021-08-12T09:28:58.460Z</time>
      </trkpt>
      <trkpt lat="46.85778" lon="8.48572">
        <ele>2399</ele>
        <time>2021-08-12T09:28:59.461Z</time>
      </trkpt>
      <trkpt lat="46.85777" lon="8.48574">
        <ele>2399</ele>
        <time>2021-08-12T09:29:00.460Z</time>
      </trkpt>
      <trkpt lat="46.85777" lon="8.48576">
        <ele>2399</ele>
        <time>2021-08-12T09:29:01.460Z</time>
      </trkpt>
      <trkpt lat="46.85777" lon="8.48577">
        <ele>2399</ele>
        <time>2021-08-12T09:29:02.461Z</time>
      </trkpt>
      <trkpt lat="46.85777" lon="8.48579">
        <ele>2399</ele>
        <time>2021-08-12T09:29:03.461Z</time>
      </trkpt>
      <trkpt lat="46.85776" lon="8.4858">
        <ele>2398</ele>
        <time>2021-08-12T09:29:04.461Z</time>
      </trkpt>
      <trkpt lat="46.85775" lon="8.48581">
        <ele>2398</ele>
        <time>2021-08-12T09:29:05.460Z</time>
      </trkpt>
      <trkpt lat="46.85775" lon="8.48582">
        <ele>2398</ele>
        <time>2021-08-12T09:29:06.461Z</time>
      </trkpt>
      <trkpt lat="46.85774" lon="8.48582">
        <ele>2398</ele>
        <time>2021-08-12T09:29:07.460Z</time>
      </trkpt>
      <trkpt lat="46.85773" lon="8.48583">
        <ele>2398</ele>
        <time>2021-08-12T09:29:08.460Z</time>
      </trkpt>
      <trkpt lat="46.85773" lon="8.48584">
        <ele>2397</ele>
        <time>2021-08-12T09:29:09.461Z</time>
      </trkpt>
      <trkpt lat="46.85772" lon="8.48585">
        <ele>2397</ele>
        <time>2021-08-12T09:29:10.461Z</time>
      </trkpt>
      <trkpt lat="46.85771" lon="8.48586">
        <ele>2397</ele>
        <time>2021-08-12T09:29:11.461Z</time>
      </trkpt>
      <trkpt lat="46.8577" lon="8.48587">
        <ele>2397</ele>
        <time>2021-08-12T09:29:12.461Z</time>
      </trkpt>
      <trkpt lat="46.85769" lon="8.48588">
        <ele>2397</ele>
        <time>2021-08-12T09:29:13.461Z</time>
      </trkpt>
      <trkpt lat="46.85769" lon="8.48589">
        <ele>2397</ele>
        <time>2021-08-12T09:29:14.461Z</time>
      </trkpt>
      <trkpt lat="46.85768" lon="8.4859">
        <ele>2396</ele>
        <time>2021-08-12T09:29:15.461Z</time>
      </trkpt>
      <trkpt lat="46.85767" lon="8.4859">
        <ele>2396</ele>
        <time>2021-08-12T09:29:16.460Z</time>
      </trkpt>
      <trkpt lat="46.85766" lon="8.48591">
        <ele>2395</ele>
        <time>2021-08-12T09:29:17.461Z</time>
      </trkpt>
      <trkpt lat="46.85765" lon="8.48592">
        <ele>2395</ele>
        <time>2021-08-12T09:29:18.461Z</time>
      </trkpt>
      <trkpt lat="46.85764" lon="8.48592">
        <ele>2394</ele>
        <time>2021-08-12T09:29:19.461Z</time>
      </trkpt>
      <trkpt lat="46.85762" lon="8.48593">
        <ele>2394</ele>
        <time>2021-08-12T09:29:20.461Z</time>
      </trkpt>
      <trkpt lat="46.85761" lon="8.48592">
        <ele>2394</ele>
        <time>2021-08-12T09:29:21.461Z</time>
      </trkpt>
      <trkpt lat="46.8576" lon="8.48592">
        <ele>2394</ele>
        <time>2021-08-12T09:29:22.461Z</time>
      </trkpt>
      <trkpt lat="46.85759" lon="8.48591">
        <ele>2394</ele>
        <time>2021-08-12T09:29:23.461Z</time>
      </trkpt>
      <trkpt lat="46.85758" lon="8.48592">
        <ele>2393</ele>
        <time>2021-08-12T09:29:24.461Z</time>
      </trkpt>
      <trkpt lat="46.85756" lon="8.48592">
        <ele>2393</ele>
        <time>2021-08-12T09:29:25.460Z</time>
      </trkpt>
      <trkpt lat="46.85757" lon="8.48591">
        <ele>2393</ele>
        <time>2021-08-12T09:29:26.461Z</time>
      </trkpt>
      <trkpt lat="46.85758" lon="8.48592">
        <ele>2392</ele>
        <time>2021-08-12T09:29:27.461Z</time>
      </trkpt>
      <trkpt lat="46.85758" lon="8.48592">
        <ele>2391</ele>
        <time>2021-08-12T09:29:28.461Z</time>
      </trkpt>
      <trkpt lat="46.85758" lon="8.48592">
        <ele>2391</ele>
        <time>2021-08-12T09:29:29.460Z</time>
      </trkpt>
      <trkpt lat="46.85758" lon="8.48593">
        <ele>2390</ele>
        <time>2021-08-12T09:29:30.460Z</time>
      </trkpt>
      <trkpt lat="46.85757" lon="8.48594">
        <ele>2390</ele>
        <time>2021-08-12T09:29:31.460Z</time>
      </trkpt>
      <trkpt lat="46.85757" lon="8.48595">
        <ele>2389</ele>
        <time>2021-08-12T09:29:32.461Z</time>
      </trkpt>
      <trkpt lat="46.85756" lon="8.48596">
        <ele>2389</ele>
        <time>2021-08-12T09:29:33.461Z</time>
      </trkpt>
      <trkpt lat="46.85756" lon="8.48596">
        <ele>2389</ele>
        <time>2021-08-12T09:29:34.461Z</time>
      </trkpt>
      <trkpt lat="46.85755" lon="8.48597">
        <ele>2389</ele>
        <time>2021-08-12T09:29:35.460Z</time>
      </trkpt>
      <trkpt lat="46.85755" lon="8.48597">
        <ele>2388</ele>
        <time>2021-08-12T09:29:36.460Z</time>
      </trkpt>
      <trkpt lat="46.85754" lon="8.48598">
        <ele>2388</ele>
        <time>2021-08-12T09:29:37.460Z</time>
      </trkpt>
      <trkpt lat="46.85754" lon="8.48598">
        <ele>2388</ele>
        <time>2021-08-12T09:29:38.461Z</time>
      </trkpt>
      <trkpt lat="46.85753" lon="8.48599">
        <ele>2387</ele>
        <time>2021-08-12T09:29:39.460Z</time>
      </trkpt>
      <trkpt lat="46.85752" lon="8.48599">
        <ele>2387</ele>
        <time>2021-08-12T09:29:40.460Z</time>
      </trkpt>
      <trkpt lat="46.85752" lon="8.486">
        <ele>2387</ele>
        <time>2021-08-12T09:29:41.460Z</time>
      </trkpt>
      <trkpt lat="46.85751" lon="8.48599">
        <ele>2386</ele>
        <time>2021-08-12T09:29:42.460Z</time>
      </trkpt>
      <trkpt lat="46.85751" lon="8.48599">
        <ele>2386</ele>
        <time>2021-08-12T09:29:43.461Z</time>
      </trkpt>
      <trkpt lat="46.85751" lon="8.48599">
        <ele>2386</ele>
        <time>2021-08-12T09:29:44.460Z</time>
      </trkpt>
      <trkpt lat="46.85751" lon="8.48598">
        <ele>2386</ele>
        <time>2021-08-12T09:29:45.460Z</time>
      </trkpt>
      <trkpt lat="46.85752" lon="8.48598">
        <ele>2386</ele>
        <time>2021-08-12T09:29:46.461Z</time>
      </trkpt>
      <trkpt lat="46.85752" lon="8.48599">
        <ele>2385</ele>
        <time>2021-08-12T09:29:47.460Z</time>
      </trkpt>
      <trkpt lat="46.85752" lon="8.48599">
        <ele>2385</ele>
        <time>2021-08-12T09:29:48.461Z</time>
      </trkpt>
      <trkpt lat="46.85751" lon="8.48599">
        <ele>2385</ele>
        <time>2021-08-12T09:29:49.461Z</time>
      </trkpt>
      <trkpt lat="46.85751" lon="8.48599">
        <ele>2385</ele>
        <time>2021-08-12T09:29:50.461Z</time>
      </trkpt>
      <trkpt lat="46.8575" lon="8.48599">
        <ele>2385</ele>
        <time>2021-08-12T09:29:51.461Z</time>
      </trkpt>
      <trkpt lat="46.8575" lon="8.48599">
        <ele>2385</ele>
        <time>2021-08-12T09:29:52.460Z</time>
      </trkpt>
      <trkpt lat="46.8575" lon="8.48599">
        <ele>2384</ele>
        <time>2021-08-12T09:29:53.460Z</time>
      </trkpt>
      <trkpt lat="46.85749" lon="8.48598">
        <ele>2382</ele>
        <time>2021-08-12T09:29:54.462Z</time>
      </trkpt>
      <trkpt lat="46.85749" lon="8.48598">
        <ele>2382</ele>
        <time>2021-08-12T09:29:55.462Z</time>
      </trkpt>
      <trkpt lat="46.85749" lon="8.48598">
        <ele>2381</ele>
        <time>2021-08-12T09:29:56.462Z</time>
      </trkpt>
      <trkpt lat="46.85749" lon="8.48599">
        <ele>2381</ele>
        <time>2021-08-12T09:29:57.461Z</time>
      </trkpt>
      <trkpt lat="46.85749" lon="8.48599">
        <ele>2381</ele>
        <time>2021-08-12T09:29:58.462Z</time>
      </trkpt>
      <trkpt lat="46.85749" lon="8.48599">
        <ele>2380</ele>
        <time>2021-08-12T09:29:59.462Z</time>
      </trkpt>
      <trkpt lat="46.85749" lon="8.48598">
        <ele>2380</ele>
        <time>2021-08-12T09:30:00.462Z</time>
      </trkpt>
      <trkpt lat="46.85749" lon="8.48598">
        <ele>2380</ele>
        <time>2021-08-12T09:30:01.461Z</time>
      </trkpt>
      <trkpt lat="46.85749" lon="8.48599">
        <ele>2380</ele>
        <time>2021-08-12T09:30:02.462Z</time>
      </trkpt>
      <trkpt lat="46.85748" lon="8.48599">
        <ele>2380</ele>
        <time>2021-08-12T09:30:03.461Z</time>
      </trkpt>
      <trkpt lat="46.85747" lon="8.486">
        <ele>2380</ele>
        <time>2021-08-12T09:30:04.461Z</time>
      </trkpt>
      <trkpt lat="46.85747" lon="8.486">
        <ele>2380</ele>
        <time>2021-08-12T09:30:05.462Z</time>
      </trkpt>
      <trkpt lat="46.85747" lon="8.486">
        <ele>2380</ele>
        <time>2021-08-12T09:30:06.462Z</time>
      </trkpt>
      <trkpt lat="46.85747" lon="8.486">
        <ele>2380</ele>
        <time>2021-08-12T09:30:07.461Z</time>
      </trkpt>
      <trkpt lat="46.85746" lon="8.48599">
        <ele>2380</ele>
        <time>2021-08-12T09:30:08.462Z</time>
      </trkpt>
      <trkpt lat="46.85746" lon="8.48599">
        <ele>2380</ele>
        <time>2021-08-12T09:30:09.462Z</time>
      </trkpt>
      <trkpt lat="46.85746" lon="8.48599">
        <ele>2381</ele>
        <time>2021-08-12T09:30:10.462Z</time>
      </trkpt>
      <trkpt lat="46.85746" lon="8.48599">
        <ele>2381</ele>
        <time>2021-08-12T09:30:11.462Z</time>
      </trkpt>
      <trkpt lat="46.85747" lon="8.48599">
        <ele>2382</ele>
        <time>2021-08-12T09:30:12.463Z</time>
      </trkpt>
      <trkpt lat="46.85748" lon="8.48599">
        <ele>2383</ele>
        <time>2021-08-12T09:30:13.462Z</time>
      </trkpt>
      <trkpt lat="46.85748" lon="8.48599">
        <ele>2383</ele>
        <time>2021-08-12T09:30:14.463Z</time>
      </trkpt>
      <trkpt lat="46.85748" lon="8.48598">
        <ele>2384</ele>
        <time>2021-08-12T09:30:15.463Z</time>
      </trkpt>
      <trkpt lat="46.85749" lon="8.48598">
        <ele>2385</ele>
        <time>2021-08-12T09:30:16.462Z</time>
      </trkpt>
      <trkpt lat="46.85748" lon="8.48599">
        <ele>2385</ele>
        <time>2021-08-12T09:30:17.463Z</time>
      </trkpt>
      <trkpt lat="46.85746" lon="8.48597">
        <ele>2389</ele>
        <time>2021-08-12T09:30:18.462Z</time>
      </trkpt>
      <trkpt lat="46.85745" lon="8.48597">
        <ele>2389</ele>
        <time>2021-08-12T09:30:19.462Z</time>
      </trkpt>
      <trkpt lat="46.85745" lon="8.48597">
        <ele>2389</ele>
        <time>2021-08-12T09:30:20.462Z</time>
      </trkpt>
      <trkpt lat="46.85745" lon="8.48597">
        <ele>2390</ele>
        <time>2021-08-12T09:30:21.462Z</time>
      </trkpt>
      <trkpt lat="46.85744" lon="8.48596">
        <ele>2390</ele>
        <time>2021-08-12T09:30:22.463Z</time>
      </trkpt>
      <trkpt lat="46.85744" lon="8.48595">
        <ele>2390</ele>
        <time>2021-08-12T09:30:23.463Z</time>
      </trkpt>
      <trkpt lat="46.85743" lon="8.48595">
        <ele>2390</ele>
        <time>2021-08-12T09:30:24.462Z</time>
      </trkpt>
      <trkpt lat="46.85743" lon="8.48595">
        <ele>2390</ele>
        <time>2021-08-12T09:30:25.463Z</time>
      </trkpt>
      <trkpt lat="46.85742" lon="8.48595">
        <ele>2390</ele>
        <time>2021-08-12T09:30:26.463Z</time>
      </trkpt>
      <trkpt lat="46.85741" lon="8.48594">
        <ele>2389</ele>
        <time>2021-08-12T09:30:27.463Z</time>
      </trkpt>
      <trkpt lat="46.85741" lon="8.48594">
        <ele>2389</ele>
        <time>2021-08-12T09:30:28.463Z</time>
      </trkpt>
      <trkpt lat="46.85741" lon="8.48594">
        <ele>2389</ele>
        <time>2021-08-12T09:30:29.462Z</time>
      </trkpt>
      <trkpt lat="46.8574" lon="8.48594">
        <ele>2389</ele>
        <time>2021-08-12T09:30:30.463Z</time>
      </trkpt>
      <trkpt lat="46.85739" lon="8.48594">
        <ele>2389</ele>
        <time>2021-08-12T09:30:31.463Z</time>
      </trkpt>
      <trkpt lat="46.85738" lon="8.48595">
        <ele>2390</ele>
        <time>2021-08-12T09:30:32.462Z</time>
      </trkpt>
      <trkpt lat="46.85738" lon="8.48594">
        <ele>2390</ele>
        <time>2021-08-12T09:30:33.463Z</time>
      </trkpt>
      <trkpt lat="46.85737" lon="8.48594">
        <ele>2390</ele>
        <time>2021-08-12T09:30:34.462Z</time>
      </trkpt>
      <trkpt lat="46.85737" lon="8.48594">
        <ele>2391</ele>
        <time>2021-08-12T09:30:35.462Z</time>
      </trkpt>
      <trkpt lat="46.85736" lon="8.48594">
        <ele>2391</ele>
        <time>2021-08-12T09:30:36.463Z</time>
      </trkpt>
      <trkpt lat="46.85735" lon="8.48595">
        <ele>2392</ele>
        <time>2021-08-12T09:30:37.462Z</time>
      </trkpt>
      <trkpt lat="46.85733" lon="8.48596">
        <ele>2392</ele>
        <time>2021-08-12T09:30:38.463Z</time>
      </trkpt>
      <trkpt lat="46.85731" lon="8.48596">
        <ele>2393</ele>
        <time>2021-08-12T09:30:39.463Z</time>
      </trkpt>
      <trkpt lat="46.8573" lon="8.48597">
        <ele>2394</ele>
        <time>2021-08-12T09:30:40.462Z</time>
      </trkpt>
      <trkpt lat="46.85729" lon="8.48598">
        <ele>2394</ele>
        <time>2021-08-12T09:30:41.462Z</time>
      </trkpt>
      <trkpt lat="46.85728" lon="8.48598">
        <ele>2395</ele>
        <time>2021-08-12T09:30:42.463Z</time>
      </trkpt>
      <trkpt lat="46.85727" lon="8.48599">
        <ele>2396</ele>
        <time>2021-08-12T09:30:43.462Z</time>
      </trkpt>
      <trkpt lat="46.85727" lon="8.486">
        <ele>2396</ele>
        <time>2021-08-12T09:30:44.462Z</time>
      </trkpt>
      <trkpt lat="46.85726" lon="8.486">
        <ele>2396</ele>
        <time>2021-08-12T09:30:45.462Z</time>
      </trkpt>
      <trkpt lat="46.85726" lon="8.48601">
        <ele>2396</ele>
        <time>2021-08-12T09:30:46.462Z</time>
      </trkpt>
      <trkpt lat="46.85726" lon="8.48602">
        <ele>2395</ele>
        <time>2021-08-12T09:30:47.462Z</time>
      </trkpt>
      <trkpt lat="46.85725" lon="8.48603">
        <ele>2395</ele>
        <time>2021-08-12T09:30:48.463Z</time>
      </trkpt>
      <trkpt lat="46.85724" lon="8.48603">
        <ele>2394</ele>
        <time>2021-08-12T09:30:49.462Z</time>
      </trkpt>
      <trkpt lat="46.85723" lon="8.48603">
        <ele>2394</ele>
        <time>2021-08-12T09:30:50.462Z</time>
      </trkpt>
      <trkpt lat="46.85723" lon="8.48604">
        <ele>2394</ele>
        <time>2021-08-12T09:30:51.462Z</time>
      </trkpt>
      <trkpt lat="46.85722" lon="8.48604">
        <ele>2394</ele>
        <time>2021-08-12T09:30:52.462Z</time>
      </trkpt>
      <trkpt lat="46.85721" lon="8.48606">
        <ele>2394</ele>
        <time>2021-08-12T09:30:53.462Z</time>
      </trkpt>
      <trkpt lat="46.8572" lon="8.48607">
        <ele>2394</ele>
        <time>2021-08-12T09:30:54.462Z</time>
      </trkpt>
      <trkpt lat="46.8572" lon="8.48608">
        <ele>2394</ele>
        <time>2021-08-12T09:30:55.462Z</time>
      </trkpt>
      <trkpt lat="46.85719" lon="8.48609">
        <ele>2395</ele>
        <time>2021-08-12T09:30:56.462Z</time>
      </trkpt>
      <trkpt lat="46.85718" lon="8.4861">
        <ele>2395</ele>
        <time>2021-08-12T09:30:57.462Z</time>
      </trkpt>
      <trkpt lat="46.85716" lon="8.4861">
        <ele>2396</ele>
        <time>2021-08-12T09:30:58.462Z</time>
      </trkpt>
      <trkpt lat="46.85715" lon="8.4861">
        <ele>2396</ele>
        <time>2021-08-12T09:30:59.462Z</time>
      </trkpt>
      <trkpt lat="46.85714" lon="8.4861">
        <ele>2396</ele>
        <time>2021-08-12T09:31:00.462Z</time>
      </trkpt>
      <trkpt lat="46.85714" lon="8.48612">
        <ele>2396</ele>
        <time>2021-08-12T09:31:01.462Z</time>
      </trkpt>
      <trkpt lat="46.85714" lon="8.48613">
        <ele>2396</ele>
        <time>2021-08-12T09:31:02.462Z</time>
      </trkpt>
      <trkpt lat="46.85714" lon="8.48615">
        <ele>2396</ele>
        <time>2021-08-12T09:31:03.462Z</time>
      </trkpt>
      <trkpt lat="46.85713" lon="8.48617">
        <ele>2396</ele>
        <time>2021-08-12T09:31:04.462Z</time>
      </trkpt>
      <trkpt lat="46.85712" lon="8.48618">
        <ele>2396</ele>
        <time>2021-08-12T09:31:05.462Z</time>
      </trkpt>
      <trkpt lat="46.85711" lon="8.48619">
        <ele>2396</ele>
        <time>2021-08-12T09:31:06.463Z</time>
      </trkpt>
      <trkpt lat="46.85711" lon="8.4862">
        <ele>2397</ele>
        <time>2021-08-12T09:31:07.463Z</time>
      </trkpt>
      <trkpt lat="46.8571" lon="8.48621">
        <ele>2397</ele>
        <time>2021-08-12T09:31:08.462Z</time>
      </trkpt>
      <trkpt lat="46.85709" lon="8.48623">
        <ele>2398</ele>
        <time>2021-08-12T09:31:09.463Z</time>
      </trkpt>
      <trkpt lat="46.85709" lon="8.48624">
        <ele>2398</ele>
        <time>2021-08-12T09:31:10.462Z</time>
      </trkpt>
      <trkpt lat="46.85709" lon="8.48625">
        <ele>2398</ele>
        <time>2021-08-12T09:31:11.463Z</time>
      </trkpt>
      <trkpt lat="46.85709" lon="8.48626">
        <ele>2398</ele>
        <time>2021-08-12T09:31:12.463Z</time>
      </trkpt>
      <trkpt lat="46.85708" lon="8.48626">
        <ele>2398</ele>
        <time>2021-08-12T09:31:13.463Z</time>
      </trkpt>
      <trkpt lat="46.85707" lon="8.48627">
        <ele>2397</ele>
        <time>2021-08-12T09:31:14.462Z</time>
      </trkpt>
      <trkpt lat="46.85706" lon="8.48628">
        <ele>2397</ele>
        <time>2021-08-12T09:31:15.463Z</time>
      </trkpt>
      <trkpt lat="46.85704" lon="8.48628">
        <ele>2398</ele>
        <time>2021-08-12T09:31:16.463Z</time>
      </trkpt>
      <trkpt lat="46.85704" lon="8.48629">
        <ele>2398</ele>
        <time>2021-08-12T09:31:17.462Z</time>
      </trkpt>
      <trkpt lat="46.85703" lon="8.4863">
        <ele>2398</ele>
        <time>2021-08-12T09:31:18.463Z</time>
      </trkpt>
      <trkpt lat="46.85703" lon="8.48631">
        <ele>2399</ele>
        <time>2021-08-12T09:31:19.462Z</time>
      </trkpt>
      <trkpt lat="46.85703" lon="8.48631">
        <ele>2400</ele>
        <time>2021-08-12T09:31:20.462Z</time>
      </trkpt>
      <trkpt lat="46.85703" lon="8.48631">
        <ele>2400</ele>
        <time>2021-08-12T09:31:21.463Z</time>
      </trkpt>
      <trkpt lat="46.85704" lon="8.48631">
        <ele>2401</ele>
        <time>2021-08-12T09:31:22.463Z</time>
      </trkpt>
      <trkpt lat="46.85703" lon="8.48631">
        <ele>2402</ele>
        <time>2021-08-12T09:31:23.463Z</time>
      </trkpt>
      <trkpt lat="46.85703" lon="8.48631">
        <ele>2402</ele>
        <time>2021-08-12T09:31:24.463Z</time>
      </trkpt>
      <trkpt lat="46.85702" lon="8.48631">
        <ele>2403</ele>
        <time>2021-08-12T09:31:25.463Z</time>
      </trkpt>
      <trkpt lat="46.85702" lon="8.48631">
        <ele>2404</ele>
        <time>2021-08-12T09:31:26.462Z</time>
      </trkpt>
      <trkpt lat="46.85702" lon="8.48632">
        <ele>2405</ele>
        <time>2021-08-12T09:31:27.463Z</time>
      </trkpt>
      <trkpt lat="46.85702" lon="8.48631">
        <ele>2405</ele>
        <time>2021-08-12T09:31:28.462Z</time>
      </trkpt>
      <trkpt lat="46.85702" lon="8.48637">
        <ele>2409</ele>
        <time>2021-08-12T09:31:29.463Z</time>
      </trkpt>
      <trkpt lat="46.85702" lon="8.48639">
        <ele>2410</ele>
        <time>2021-08-12T09:31:30.463Z</time>
      </trkpt>
      <trkpt lat="46.85701" lon="8.48641">
        <ele>2410</ele>
        <time>2021-08-12T09:31:31.462Z</time>
      </trkpt>
      <trkpt lat="46.85705" lon="8.48649">
        <ele>2407</ele>
        <time>2021-08-12T09:31:32.464Z</time>
      </trkpt>
      <trkpt lat="46.85705" lon="8.48649">
        <ele>2407</ele>
        <time>2021-08-12T09:31:33.463Z</time>
      </trkpt>
      <trkpt lat="46.85707" lon="8.4865">
        <ele>2409</ele>
        <time>2021-08-12T09:31:34.463Z</time>
      </trkpt>
      <trkpt lat="46.8571" lon="8.48648">
        <ele>2414</ele>
        <time>2021-08-12T09:31:35.465Z</time>
      </trkpt>
      <trkpt lat="46.8571" lon="8.48648">
        <ele>2414</ele>
        <time>2021-08-12T09:31:36.465Z</time>
      </trkpt>
      <trkpt lat="46.8571" lon="8.48648">
        <ele>2414</ele>
        <time>2021-08-12T09:31:37.464Z</time>
      </trkpt>
      <trkpt lat="46.85711" lon="8.48647">
        <ele>2414</ele>
        <time>2021-08-12T09:31:38.465Z</time>
      </trkpt>
      <trkpt lat="46.8571" lon="8.48646">
        <ele>2413</ele>
        <time>2021-08-12T09:31:39.465Z</time>
      </trkpt>
      <trkpt lat="46.8571" lon="8.48646">
        <ele>2412</ele>
        <time>2021-08-12T09:31:40.465Z</time>
      </trkpt>
      <trkpt lat="46.8571" lon="8.48647">
        <ele>2412</ele>
        <time>2021-08-12T09:31:41.465Z</time>
      </trkpt>
      <trkpt lat="46.8571" lon="8.48647">
        <ele>2412</ele>
        <time>2021-08-12T09:31:42.465Z</time>
      </trkpt>
      <trkpt lat="46.8571" lon="8.48648">
        <ele>2411</ele>
        <time>2021-08-12T09:31:43.464Z</time>
      </trkpt>
      <trkpt lat="46.8571" lon="8.48648">
        <ele>2411</ele>
        <time>2021-08-12T09:31:44.464Z</time>
      </trkpt>
      <trkpt lat="46.85709" lon="8.48649">
        <ele>2410</ele>
        <time>2021-08-12T09:31:45.465Z</time>
      </trkpt>
      <trkpt lat="46.85709" lon="8.4865">
        <ele>2409</ele>
        <time>2021-08-12T09:31:46.465Z</time>
      </trkpt>
      <trkpt lat="46.85708" lon="8.48651">
        <ele>2409</ele>
        <time>2021-08-12T09:31:47.464Z</time>
      </trkpt>
      <trkpt lat="46.85708" lon="8.48651">
        <ele>2408</ele>
        <time>2021-08-12T09:31:48.465Z</time>
      </trkpt>
      <trkpt lat="46.85707" lon="8.48651">
        <ele>2408</ele>
        <time>2021-08-12T09:31:49.464Z</time>
      </trkpt>
      <trkpt lat="46.85706" lon="8.48651">
        <ele>2407</ele>
        <time>2021-08-12T09:31:50.465Z</time>
      </trkpt>
      <trkpt lat="46.85705" lon="8.48651">
        <ele>2407</ele>
        <time>2021-08-12T09:31:51.464Z</time>
      </trkpt>
      <trkpt lat="46.85705" lon="8.48651">
        <ele>2407</ele>
        <time>2021-08-12T09:31:52.465Z</time>
      </trkpt>
      <trkpt lat="46.85706" lon="8.48652">
        <ele>2406</ele>
        <time>2021-08-12T09:31:53.465Z</time>
      </trkpt>
      <trkpt lat="46.85706" lon="8.48652">
        <ele>2405</ele>
        <time>2021-08-12T09:31:54.465Z</time>
      </trkpt>
      <trkpt lat="46.85706" lon="8.48653">
        <ele>2404</ele>
        <time>2021-08-12T09:31:55.464Z</time>
      </trkpt>
      <trkpt lat="46.85706" lon="8.48653">
        <ele>2403</ele>
        <time>2021-08-12T09:31:56.465Z</time>
      </trkpt>
      <trkpt lat="46.85705" lon="8.48654">
        <ele>2403</ele>
        <time>2021-08-12T09:31:57.465Z</time>
      </trkpt>
      <trkpt lat="46.85704" lon="8.48654">
        <ele>2402</ele>
        <time>2021-08-12T09:31:58.464Z</time>
      </trkpt>
      <trkpt lat="46.85703" lon="8.48654">
        <ele>2402</ele>
        <time>2021-08-12T09:31:59.465Z</time>
      </trkpt>
      <trkpt lat="46.85701" lon="8.48654">
        <ele>2401</ele>
        <time>2021-08-12T09:32:00.465Z</time>
      </trkpt>
      <trkpt lat="46.85701" lon="8.48655">
        <ele>2401</ele>
        <time>2021-08-12T09:32:01.465Z</time>
      </trkpt>
      <trkpt lat="46.857" lon="8.48655">
        <ele>2400</ele>
        <time>2021-08-12T09:32:02.464Z</time>
      </trkpt>
      <trkpt lat="46.857" lon="8.48656">
        <ele>2400</ele>
        <time>2021-08-12T09:32:03.464Z</time>
      </trkpt>
      <trkpt lat="46.857" lon="8.48657">
        <ele>2399</ele>
        <time>2021-08-12T09:32:04.464Z</time>
      </trkpt>
      <trkpt lat="46.857" lon="8.48658">
        <ele>2399</ele>
        <time>2021-08-12T09:32:05.465Z</time>
      </trkpt>
      <trkpt lat="46.857" lon="8.48658">
        <ele>2398</ele>
        <time>2021-08-12T09:32:06.465Z</time>
      </trkpt>
      <trkpt lat="46.857" lon="8.48658">
        <ele>2398</ele>
        <time>2021-08-12T09:32:07.464Z</time>
      </trkpt>
      <trkpt lat="46.85699" lon="8.48659">
        <ele>2398</ele>
        <time>2021-08-12T09:32:08.465Z</time>
      </trkpt>
      <trkpt lat="46.85699" lon="8.4866">
        <ele>2398</ele>
        <time>2021-08-12T09:32:09.464Z</time>
      </trkpt>
      <trkpt lat="46.85698" lon="8.4866">
        <ele>2398</ele>
        <time>2021-08-12T09:32:10.465Z</time>
      </trkpt>
      <trkpt lat="46.85697" lon="8.48661">
        <ele>2399</ele>
        <time>2021-08-12T09:32:11.464Z</time>
      </trkpt>
      <trkpt lat="46.85697" lon="8.48661">
        <ele>2399</ele>
        <time>2021-08-12T09:32:12.464Z</time>
      </trkpt>
      <trkpt lat="46.85696" lon="8.48662">
        <ele>2399</ele>
        <time>2021-08-12T09:32:13.464Z</time>
      </trkpt>
      <trkpt lat="46.85696" lon="8.48663">
        <ele>2399</ele>
        <time>2021-08-12T09:32:14.464Z</time>
      </trkpt>
      <trkpt lat="46.85696" lon="8.48664">
        <ele>2400</ele>
        <time>2021-08-12T09:32:15.465Z</time>
      </trkpt>
      <trkpt lat="46.85696" lon="8.48665">
        <ele>2401</ele>
        <time>2021-08-12T09:32:16.465Z</time>
      </trkpt>
      <trkpt lat="46.85696" lon="8.48666">
        <ele>2401</ele>
        <time>2021-08-12T09:32:17.464Z</time>
      </trkpt>
      <trkpt lat="46.85696" lon="8.48665">
        <ele>2402</ele>
        <time>2021-08-12T09:32:18.465Z</time>
      </trkpt>
      <trkpt lat="46.85695" lon="8.48665">
        <ele>2402</ele>
        <time>2021-08-12T09:32:19.465Z</time>
      </trkpt>
      <trkpt lat="46.85695" lon="8.48664">
        <ele>2402</ele>
        <time>2021-08-12T09:32:20.465Z</time>
      </trkpt>
      <trkpt lat="46.85695" lon="8.48664">
        <ele>2403</ele>
        <time>2021-08-12T09:32:21.464Z</time>
      </trkpt>
      <trkpt lat="46.85695" lon="8.48664">
        <ele>2403</ele>
        <time>2021-08-12T09:32:22.465Z</time>
      </trkpt>
      <trkpt lat="46.85695" lon="8.48665">
        <ele>2404</ele>
        <time>2021-08-12T09:32:23.464Z</time>
      </trkpt>
      <trkpt lat="46.85695" lon="8.48666">
        <ele>2406</ele>
        <time>2021-08-12T09:32:24.465Z</time>
      </trkpt>
      <trkpt lat="46.85695" lon="8.48669">
        <ele>2408</ele>
        <time>2021-08-12T09:32:25.466Z</time>
      </trkpt>
      <trkpt lat="46.85695" lon="8.48669">
        <ele>2408</ele>
        <time>2021-08-12T09:32:26.466Z</time>
      </trkpt>
      <trkpt lat="46.85695" lon="8.48671">
        <ele>2408</ele>
        <time>2021-08-12T09:32:27.466Z</time>
      </trkpt>
      <trkpt lat="46.85696" lon="8.48672">
        <ele>2409</ele>
        <time>2021-08-12T09:32:28.466Z</time>
      </trkpt>
      <trkpt lat="46.85696" lon="8.48673">
        <ele>2409</ele>
        <time>2021-08-12T09:32:29.465Z</time>
      </trkpt>
      <trkpt lat="46.85696" lon="8.48674">
        <ele>2409</ele>
        <time>2021-08-12T09:32:30.466Z</time>
      </trkpt>
      <trkpt lat="46.85695" lon="8.48676">
        <ele>2410</ele>
        <time>2021-08-12T09:32:31.465Z</time>
      </trkpt>
      <trkpt lat="46.85696" lon="8.48677">
        <ele>2411</ele>
        <time>2021-08-12T09:32:32.466Z</time>
      </trkpt>
      <trkpt lat="46.85695" lon="8.48678">
        <ele>2411</ele>
        <time>2021-08-12T09:32:33.465Z</time>
      </trkpt>
      <trkpt lat="46.85696" lon="8.48678">
        <ele>2412</ele>
        <time>2021-08-12T09:32:34.466Z</time>
      </trkpt>
      <trkpt lat="46.85696" lon="8.48679">
        <ele>2412</ele>
        <time>2021-08-12T09:32:35.466Z</time>
      </trkpt>
      <trkpt lat="46.85696" lon="8.4868">
        <ele>2412</ele>
        <time>2021-08-12T09:32:36.465Z</time>
      </trkpt>
      <trkpt lat="46.85696" lon="8.48681">
        <ele>2412</ele>
        <time>2021-08-12T09:32:37.465Z</time>
      </trkpt>
      <trkpt lat="46.85696" lon="8.48683">
        <ele>2412</ele>
        <time>2021-08-12T09:32:38.465Z</time>
      </trkpt>
      <trkpt lat="46.85696" lon="8.48685">
        <ele>2412</ele>
        <time>2021-08-12T09:32:39.465Z</time>
      </trkpt>
      <trkpt lat="46.85697" lon="8.48687">
        <ele>2412</ele>
        <time>2021-08-12T09:32:40.465Z</time>
      </trkpt>
      <trkpt lat="46.85696" lon="8.48688">
        <ele>2412</ele>
        <time>2021-08-12T09:32:41.465Z</time>
      </trkpt>
      <trkpt lat="46.85695" lon="8.48688">
        <ele>2412</ele>
        <time>2021-08-12T09:32:42.465Z</time>
      </trkpt>
      <trkpt lat="46.85694" lon="8.48687">
        <ele>2412</ele>
        <time>2021-08-12T09:32:43.465Z</time>
      </trkpt>
      <trkpt lat="46.85693" lon="8.48687">
        <ele>2411</ele>
        <time>2021-08-12T09:32:44.466Z</time>
      </trkpt>
      <trkpt lat="46.85692" lon="8.48687">
        <ele>2411</ele>
        <time>2021-08-12T09:32:45.465Z</time>
      </trkpt>
      <trkpt lat="46.85691" lon="8.48687">
        <ele>2411</ele>
        <time>2021-08-12T09:32:46.465Z</time>
      </trkpt>
      <trkpt lat="46.8569" lon="8.48688">
        <ele>2411</ele>
        <time>2021-08-12T09:32:47.466Z</time>
      </trkpt>
      <trkpt lat="46.8569" lon="8.48689">
        <ele>2410</ele>
        <time>2021-08-12T09:32:48.466Z</time>
      </trkpt>
      <trkpt lat="46.8569" lon="8.48691">
        <ele>2410</ele>
        <time>2021-08-12T09:32:49.465Z</time>
      </trkpt>
      <trkpt lat="46.8569" lon="8.48691">
        <ele>2410</ele>
        <time>2021-08-12T09:32:50.465Z</time>
      </trkpt>
      <trkpt lat="46.85689" lon="8.48692">
        <ele>2410</ele>
        <time>2021-08-12T09:32:51.466Z</time>
      </trkpt>
      <trkpt lat="46.85689" lon="8.48693">
        <ele>2409</ele>
        <time>2021-08-12T09:32:52.466Z</time>
      </trkpt>
      <trkpt lat="46.85689" lon="8.48694">
        <ele>2409</ele>
        <time>2021-08-12T09:32:53.465Z</time>
      </trkpt>
      <trkpt lat="46.85688" lon="8.48695">
        <ele>2409</ele>
        <time>2021-08-12T09:32:54.465Z</time>
      </trkpt>
      <trkpt lat="46.85688" lon="8.48696">
        <ele>2410</ele>
        <time>2021-08-12T09:32:55.465Z</time>
      </trkpt>
      <trkpt lat="46.85688" lon="8.48697">
        <ele>2410</ele>
        <time>2021-08-12T09:32:56.465Z</time>
      </trkpt>
      <trkpt lat="46.85688" lon="8.48698">
        <ele>2410</ele>
        <time>2021-08-12T09:32:57.465Z</time>
      </trkpt>
      <trkpt lat="46.85688" lon="8.48699">
        <ele>2410</ele>
        <time>2021-08-12T09:32:58.465Z</time>
      </trkpt>
      <trkpt lat="46.85687" lon="8.48699">
        <ele>2410</ele>
        <time>2021-08-12T09:32:59.466Z</time>
      </trkpt>
      <trkpt lat="46.85686" lon="8.48699">
        <ele>2410</ele>
        <time>2021-08-12T09:33:00.465Z</time>
      </trkpt>
      <trkpt lat="46.85685" lon="8.487">
        <ele>2411</ele>
        <time>2021-08-12T09:33:01.466Z</time>
      </trkpt>
      <trkpt lat="46.85685" lon="8.48701">
        <ele>2411</ele>
        <time>2021-08-12T09:33:02.465Z</time>
      </trkpt>
      <trkpt lat="46.85684" lon="8.48701">
        <ele>2411</ele>
        <time>2021-08-12T09:33:03.465Z</time>
      </trkpt>
      <trkpt lat="46.85684" lon="8.48702">
        <ele>2411</ele>
        <time>2021-08-12T09:33:04.466Z</time>
      </trkpt>
      <trkpt lat="46.85684" lon="8.48702">
        <ele>2410</ele>
        <time>2021-08-12T09:33:05.465Z</time>
      </trkpt>
      <trkpt lat="46.85683" lon="8.48703">
        <ele>2409</ele>
        <time>2021-08-12T09:33:06.466Z</time>
      </trkpt>
      <trkpt lat="46.85683" lon="8.48703">
        <ele>2408</ele>
        <time>2021-08-12T09:33:07.466Z</time>
      </trkpt>
      <trkpt lat="46.85684" lon="8.48706">
        <ele>2406</ele>
        <time>2021-08-12T09:33:08.466Z</time>
      </trkpt>
      <trkpt lat="46.85684" lon="8.48707">
        <ele>2406</ele>
        <time>2021-08-12T09:33:09.466Z</time>
      </trkpt>
      <trkpt lat="46.85685" lon="8.48707">
        <ele>2407</ele>
        <time>2021-08-12T09:33:10.467Z</time>
      </trkpt>
      <trkpt lat="46.85685" lon="8.48708">
        <ele>2408</ele>
        <time>2021-08-12T09:33:11.466Z</time>
      </trkpt>
      <trkpt lat="46.85688" lon="8.48715">
        <ele>2413</ele>
        <time>2021-08-12T09:33:12.469Z</time>
      </trkpt>
      <trkpt lat="46.85688" lon="8.48715">
        <ele>2413</ele>
        <time>2021-08-12T09:33:13.468Z</time>
      </trkpt>
      <trkpt lat="46.8569" lon="8.48715">
        <ele>2414</ele>
        <time>2021-08-12T09:33:14.469Z</time>
      </trkpt>
      <trkpt lat="46.8569" lon="8.48717">
        <ele>2415</ele>
        <time>2021-08-12T09:33:15.469Z</time>
      </trkpt>
      <trkpt lat="46.85691" lon="8.48717">
        <ele>2416</ele>
        <time>2021-08-12T09:33:16.469Z</time>
      </trkpt>
      <trkpt lat="46.85692" lon="8.48717">
        <ele>2416</ele>
        <time>2021-08-12T09:33:17.469Z</time>
      </trkpt>
      <trkpt lat="46.85692" lon="8.48717">
        <ele>2417</ele>
        <time>2021-08-12T09:33:18.468Z</time>
      </trkpt>
      <trkpt lat="46.85692" lon="8.48717">
        <ele>2417</ele>
        <time>2021-08-12T09:33:19.469Z</time>
      </trkpt>
      <trkpt lat="46.85691" lon="8.48717">
        <ele>2417</ele>
        <time>2021-08-12T09:33:20.469Z</time>
      </trkpt>
      <trkpt lat="46.85692" lon="8.48718">
        <ele>2418</ele>
        <time>2021-08-12T09:33:21.468Z</time>
      </trkpt>
      <trkpt lat="46.85692" lon="8.48718">
        <ele>2418</ele>
        <time>2021-08-12T09:33:22.468Z</time>
      </trkpt>
      <trkpt lat="46.85693" lon="8.48717">
        <ele>2418</ele>
        <time>2021-08-12T09:33:23.469Z</time>
      </trkpt>
      <trkpt lat="46.85693" lon="8.48717">
        <ele>2418</ele>
        <time>2021-08-12T09:33:24.469Z</time>
      </trkpt>
      <trkpt lat="46.85693" lon="8.48717">
        <ele>2418</ele>
        <time>2021-08-12T09:33:25.468Z</time>
      </trkpt>
      <trkpt lat="46.85693" lon="8.48717">
        <ele>2419</ele>
        <time>2021-08-12T09:33:26.469Z</time>
      </trkpt>
      <trkpt lat="46.85693" lon="8.48716">
        <ele>2419</ele>
        <time>2021-08-12T09:33:27.469Z</time>
      </trkpt>
      <trkpt lat="46.85693" lon="8.48716">
        <ele>2419</ele>
        <time>2021-08-12T09:33:28.469Z</time>
      </trkpt>
      <trkpt lat="46.85694" lon="8.48716">
        <ele>2419</ele>
        <time>2021-08-12T09:33:29.469Z</time>
      </trkpt>
      <trkpt lat="46.85694" lon="8.48716">
        <ele>2419</ele>
        <time>2021-08-12T09:33:30.468Z</time>
      </trkpt>
      <trkpt lat="46.85695" lon="8.48715">
        <ele>2419</ele>
        <time>2021-08-12T09:33:31.469Z</time>
      </trkpt>
      <trkpt lat="46.85696" lon="8.48714">
        <ele>2419</ele>
        <time>2021-08-12T09:33:32.469Z</time>
      </trkpt>
      <trkpt lat="46.85697" lon="8.48714">
        <ele>2419</ele>
        <time>2021-08-12T09:33:33.469Z</time>
      </trkpt>
      <trkpt lat="46.85697" lon="8.48713">
        <ele>2418</ele>
        <time>2021-08-12T09:33:34.469Z</time>
      </trkpt>
      <trkpt lat="46.85698" lon="8.48713">
        <ele>2418</ele>
        <time>2021-08-12T09:33:35.468Z</time>
      </trkpt>
      <trkpt lat="46.85698" lon="8.48713">
        <ele>2418</ele>
        <time>2021-08-12T09:33:36.469Z</time>
      </trkpt>
      <trkpt lat="46.85699" lon="8.48712">
        <ele>2417</ele>
        <time>2021-08-12T09:33:37.468Z</time>
      </trkpt>
      <trkpt lat="46.857" lon="8.48711">
        <ele>2418</ele>
        <time>2021-08-12T09:33:38.468Z</time>
      </trkpt>
      <trkpt lat="46.85701" lon="8.48711">
        <ele>2418</ele>
        <time>2021-08-12T09:33:39.468Z</time>
      </trkpt>
      <trkpt lat="46.85701" lon="8.48711">
        <ele>2419</ele>
        <time>2021-08-12T09:33:40.468Z</time>
      </trkpt>
      <trkpt lat="46.85701" lon="8.48711">
        <ele>2421</ele>
        <time>2021-08-12T09:33:41.468Z</time>
      </trkpt>
      <trkpt lat="46.85711" lon="8.48708">
        <ele>2429</ele>
        <time>2021-08-12T09:33:42.469Z</time>
      </trkpt>
      <trkpt lat="46.85711" lon="8.48708">
        <ele>2430</ele>
        <time>2021-08-12T09:33:43.469Z</time>
      </trkpt>
      <trkpt lat="46.85712" lon="8.48707">
        <ele>2430</ele>
        <time>2021-08-12T09:33:44.469Z</time>
      </trkpt>
      <trkpt lat="46.85712" lon="8.48707">
        <ele>2429</ele>
        <time>2021-08-12T09:33:45.469Z</time>
      </trkpt>
      <trkpt lat="46.85712" lon="8.48707">
        <ele>2429</ele>
        <time>2021-08-12T09:33:46.469Z</time>
      </trkpt>
      <trkpt lat="46.85711" lon="8.48707">
        <ele>2429</ele>
        <time>2021-08-12T09:33:47.468Z</time>
      </trkpt>
      <trkpt lat="46.85712" lon="8.48708">
        <ele>2429</ele>
        <time>2021-08-12T09:33:48.469Z</time>
      </trkpt>
      <trkpt lat="46.85712" lon="8.48708">
        <ele>2430</ele>
        <time>2021-08-12T09:33:49.469Z</time>
      </trkpt>
      <trkpt lat="46.85713" lon="8.48708">
        <ele>2430</ele>
        <time>2021-08-12T09:33:50.468Z</time>
      </trkpt>
      <trkpt lat="46.85712" lon="8.48708">
        <ele>2434</ele>
        <time>2021-08-12T09:33:51.470Z</time>
      </trkpt>
      <trkpt lat="46.85708" lon="8.48708">
        <ele>2428</ele>
        <time>2021-08-12T09:33:52.470Z</time>
      </trkpt>
      <trkpt lat="46.85708" lon="8.48707">
        <ele>2428</ele>
        <time>2021-08-12T09:33:53.470Z</time>
      </trkpt>
      <trkpt lat="46.85707" lon="8.48706">
        <ele>2428</ele>
        <time>2021-08-12T09:33:54.469Z</time>
      </trkpt>
      <trkpt lat="46.85706" lon="8.48707">
        <ele>2427</ele>
        <time>2021-08-12T09:33:55.470Z</time>
      </trkpt>
      <trkpt lat="46.85706" lon="8.48707">
        <ele>2427</ele>
        <time>2021-08-12T09:33:56.470Z</time>
      </trkpt>
      <trkpt lat="46.85705" lon="8.48707">
        <ele>2427</ele>
        <time>2021-08-12T09:33:57.470Z</time>
      </trkpt>
      <trkpt lat="46.85705" lon="8.48708">
        <ele>2427</ele>
        <time>2021-08-12T09:33:58.470Z</time>
      </trkpt>
      <trkpt lat="46.85705" lon="8.48708">
        <ele>2426</ele>
        <time>2021-08-12T09:33:59.470Z</time>
      </trkpt>
      <trkpt lat="46.85705" lon="8.48709">
        <ele>2426</ele>
        <time>2021-08-12T09:34:00.469Z</time>
      </trkpt>
      <trkpt lat="46.85707" lon="8.48709">
        <ele>2421</ele>
        <time>2021-08-12T09:34:01.470Z</time>
      </trkpt>
      <trkpt lat="46.85705" lon="8.4871">
        <ele>2421</ele>
        <time>2021-08-12T09:34:02.470Z</time>
      </trkpt>
      <trkpt lat="46.85704" lon="8.4871">
        <ele>2420</ele>
        <time>2021-08-12T09:34:03.469Z</time>
      </trkpt>
      <trkpt lat="46.85704" lon="8.4871">
        <ele>2420</ele>
        <time>2021-08-12T09:34:04.469Z</time>
      </trkpt>
      <trkpt lat="46.85703" lon="8.48707">
        <ele>2420</ele>
        <time>2021-08-12T09:34:05.470Z</time>
      </trkpt>
      <trkpt lat="46.85703" lon="8.48705">
        <ele>2419</ele>
        <time>2021-08-12T09:34:06.470Z</time>
      </trkpt>
      <trkpt lat="46.85702" lon="8.48703">
        <ele>2419</ele>
        <time>2021-08-12T09:34:07.470Z</time>
      </trkpt>
      <trkpt lat="46.85702" lon="8.48702">
        <ele>2419</ele>
        <time>2021-08-12T09:34:08.469Z</time>
      </trkpt>
      <trkpt lat="46.85702" lon="8.48701">
        <ele>2419</ele>
        <time>2021-08-12T09:34:09.470Z</time>
      </trkpt>
      <trkpt lat="46.85703" lon="8.48701">
        <ele>2419</ele>
        <time>2021-08-12T09:34:10.470Z</time>
      </trkpt>
      <trkpt lat="46.85702" lon="8.48702">
        <ele>2418</ele>
        <time>2021-08-12T09:34:11.470Z</time>
      </trkpt>
      <trkpt lat="46.85701" lon="8.48701">
        <ele>2418</ele>
        <time>2021-08-12T09:34:12.470Z</time>
      </trkpt>
      <trkpt lat="46.857" lon="8.48701">
        <ele>2419</ele>
        <time>2021-08-12T09:34:13.470Z</time>
      </trkpt>
      <trkpt lat="46.85698" lon="8.48701">
        <ele>2423</ele>
        <time>2021-08-12T09:34:14.471Z</time>
      </trkpt>
      <trkpt lat="46.85698" lon="8.48702">
        <ele>2424</ele>
        <time>2021-08-12T09:34:15.471Z</time>
      </trkpt>
      <trkpt lat="46.85697" lon="8.48704">
        <ele>2427</ele>
        <time>2021-08-12T09:34:16.470Z</time>
      </trkpt>
      <trkpt lat="46.85696" lon="8.48704">
        <ele>2428</ele>
        <time>2021-08-12T09:34:17.471Z</time>
      </trkpt>
      <trkpt lat="46.85696" lon="8.48703">
        <ele>2428</ele>
        <time>2021-08-12T09:34:18.471Z</time>
      </trkpt>
      <trkpt lat="46.85695" lon="8.48704">
        <ele>2425</ele>
        <time>2021-08-12T09:34:19.471Z</time>
      </trkpt>
      <trkpt lat="46.85695" lon="8.48704">
        <ele>2424</ele>
        <time>2021-08-12T09:34:20.471Z</time>
      </trkpt>
      <trkpt lat="46.85695" lon="8.48705">
        <ele>2423</ele>
        <time>2021-08-12T09:34:21.471Z</time>
      </trkpt>
      <trkpt lat="46.85695" lon="8.48705">
        <ele>2422</ele>
        <time>2021-08-12T09:34:22.471Z</time>
      </trkpt>
      <trkpt lat="46.85695" lon="8.48705">
        <ele>2422</ele>
        <time>2021-08-12T09:34:23.470Z</time>
      </trkpt>
      <trkpt lat="46.85695" lon="8.48705">
        <ele>2421</ele>
        <time>2021-08-12T09:34:24.470Z</time>
      </trkpt>
      <trkpt lat="46.85695" lon="8.48705">
        <ele>2421</ele>
        <time>2021-08-12T09:34:25.470Z</time>
      </trkpt>
      <trkpt lat="46.85695" lon="8.48704">
        <ele>2420</ele>
        <time>2021-08-12T09:34:26.471Z</time>
      </trkpt>
      <trkpt lat="46.85695" lon="8.48703">
        <ele>2420</ele>
        <time>2021-08-12T09:34:27.471Z</time>
      </trkpt>
      <trkpt lat="46.85698" lon="8.487">
        <ele>2428</ele>
        <time>2021-08-12T09:34:28.472Z</time>
      </trkpt>
      <trkpt lat="46.857" lon="8.48701">
        <ele>2429</ele>
        <time>2021-08-12T09:34:29.473Z</time>
      </trkpt>
      <trkpt lat="46.85701" lon="8.48701">
        <ele>2430</ele>
        <time>2021-08-12T09:34:30.473Z</time>
      </trkpt>
      <trkpt lat="46.85702" lon="8.48701">
        <ele>2430</ele>
        <time>2021-08-12T09:34:31.472Z</time>
      </trkpt>
      <trkpt lat="46.85698" lon="8.48698">
        <ele>2432</ele>
        <time>2021-08-12T09:34:32.473Z</time>
      </trkpt>
      <trkpt lat="46.85697" lon="8.48698">
        <ele>2432</ele>
        <time>2021-08-12T09:34:33.473Z</time>
      </trkpt>
      <trkpt lat="46.85696" lon="8.48698">
        <ele>2432</ele>
        <time>2021-08-12T09:34:34.472Z</time>
      </trkpt>
      <trkpt lat="46.85696" lon="8.48697">
        <ele>2432</ele>
        <time>2021-08-12T09:34:35.473Z</time>
      </trkpt>
      <trkpt lat="46.85696" lon="8.48697">
        <ele>2432</ele>
        <time>2021-08-12T09:34:36.473Z</time>
      </trkpt>
      <trkpt lat="46.85696" lon="8.48697">
        <ele>2434</ele>
        <time>2021-08-12T09:34:37.472Z</time>
      </trkpt>
      <trkpt lat="46.85696" lon="8.48698">
        <ele>2434</ele>
        <time>2021-08-12T09:34:38.472Z</time>
      </trkpt>
      <trkpt lat="46.85701" lon="8.48687">
        <ele>2442</ele>
        <time>2021-08-12T09:34:39.474Z</time>
      </trkpt>
      <trkpt lat="46.857" lon="8.48687">
        <ele>2443</ele>
        <time>2021-08-12T09:34:40.473Z</time>
      </trkpt>
      <trkpt lat="46.857" lon="8.48687">
        <ele>2444</ele>
        <time>2021-08-12T09:34:41.473Z</time>
      </trkpt>
      <trkpt lat="46.857" lon="8.48687">
        <ele>2445</ele>
        <time>2021-08-12T09:34:42.473Z</time>
      </trkpt>
      <trkpt lat="46.85701" lon="8.48688">
        <ele>2457</ele>
        <time>2021-08-12T09:34:43.474Z</time>
      </trkpt>
      <trkpt lat="46.85701" lon="8.48688">
        <ele>2459</ele>
        <time>2021-08-12T09:34:44.474Z</time>
      </trkpt>
      <trkpt lat="46.85701" lon="8.48688">
        <ele>2461</ele>
        <time>2021-08-12T09:34:45.473Z</time>
      </trkpt>
      <trkpt lat="46.85706" lon="8.48688">
        <ele>2476</ele>
        <time>2021-08-12T09:34:46.474Z</time>
      </trkpt>
      <trkpt lat="46.85706" lon="8.48688">
        <ele>2476</ele>
        <time>2021-08-12T09:34:47.474Z</time>
      </trkpt>
      <trkpt lat="46.85709" lon="8.48689">
        <ele>2472</ele>
        <time>2021-08-12T09:34:48.475Z</time>
      </trkpt>
      <trkpt lat="46.85709" lon="8.48689">
        <ele>2470</ele>
        <time>2021-08-12T09:34:49.474Z</time>
      </trkpt>
      <trkpt lat="46.8571" lon="8.48689">
        <ele>2469</ele>
        <time>2021-08-12T09:34:50.474Z</time>
      </trkpt>
      <trkpt lat="46.85706" lon="8.4869">
        <ele>2456</ele>
        <time>2021-08-12T09:34:51.475Z</time>
      </trkpt>
      <trkpt lat="46.85706" lon="8.48689">
        <ele>2455</ele>
        <time>2021-08-12T09:34:52.474Z</time>
      </trkpt>
      <trkpt lat="46.85702" lon="8.4869">
        <ele>2452</ele>
        <time>2021-08-12T09:34:53.475Z</time>
      </trkpt>
      <trkpt lat="46.85701" lon="8.4869">
        <ele>2452</ele>
        <time>2021-08-12T09:34:54.475Z</time>
      </trkpt>
      <trkpt lat="46.857" lon="8.48689">
        <ele>2452</ele>
        <time>2021-08-12T09:34:55.475Z</time>
      </trkpt>
      <trkpt lat="46.85697" lon="8.48691">
        <ele>2449</ele>
        <time>2021-08-12T09:34:56.475Z</time>
      </trkpt>
      <trkpt lat="46.85701" lon="8.487">
        <ele>2422</ele>
        <time>2021-08-12T09:34:57.476Z</time>
      </trkpt>
      <trkpt lat="46.857" lon="8.48699">
        <ele>2421</ele>
        <time>2021-08-12T09:34:58.477Z</time>
      </trkpt>
      <trkpt lat="46.857" lon="8.48699">
        <ele>2421</ele>
        <time>2021-08-12T09:34:59.477Z</time>
      </trkpt>
      <trkpt lat="46.85703" lon="8.48704">
        <ele>2418</ele>
        <time>2021-08-12T09:35:00.476Z</time>
      </trkpt>
      <trkpt lat="46.85703" lon="8.48705">
        <ele>2418</ele>
        <time>2021-08-12T09:35:01.477Z</time>
      </trkpt>
      <trkpt lat="46.85704" lon="8.48705">
        <ele>2417</ele>
        <time>2021-08-12T09:35:02.476Z</time>
      </trkpt>
      <trkpt lat="46.85705" lon="8.48705">
        <ele>2417</ele>
        <time>2021-08-12T09:35:03.477Z</time>
      </trkpt>
      <trkpt lat="46.85706" lon="8.48705">
        <ele>2416</ele>
        <time>2021-08-12T09:35:04.477Z</time>
      </trkpt>
      <trkpt lat="46.85706" lon="8.48705">
        <ele>2416</ele>
        <time>2021-08-12T09:35:05.477Z</time>
      </trkpt>
      <trkpt lat="46.85707" lon="8.48706">
        <ele>2416</ele>
        <time>2021-08-12T09:35:06.477Z</time>
      </trkpt>
      <trkpt lat="46.85708" lon="8.48703">
        <ele>2420</ele>
        <time>2021-08-12T09:35:07.476Z</time>
      </trkpt>
      <trkpt lat="46.85708" lon="8.48703">
        <ele>2420</ele>
        <time>2021-08-12T09:35:08.476Z</time>
      </trkpt>
      <trkpt lat="46.85707" lon="8.48702">
        <ele>2421</ele>
        <time>2021-08-12T09:35:09.476Z</time>
      </trkpt>
      <trkpt lat="46.85707" lon="8.48702">
        <ele>2422</ele>
        <time>2021-08-12T09:35:10.477Z</time>
      </trkpt>
      <trkpt lat="46.85708" lon="8.48702">
        <ele>2422</ele>
        <time>2021-08-12T09:35:11.476Z</time>
      </trkpt>
      <trkpt lat="46.85709" lon="8.48702">
        <ele>2422</ele>
        <time>2021-08-12T09:35:12.477Z</time>
      </trkpt>
      <trkpt lat="46.85711" lon="8.48703">
        <ele>2423</ele>
        <time>2021-08-12T09:35:13.476Z</time>
      </trkpt>
      <trkpt lat="46.85711" lon="8.48703">
        <ele>2423</ele>
        <time>2021-08-12T09:35:14.476Z</time>
      </trkpt>
      <trkpt lat="46.85711" lon="8.48703">
        <ele>2423</ele>
        <time>2021-08-12T09:35:15.476Z</time>
      </trkpt>
      <trkpt lat="46.8571" lon="8.48702">
        <ele>2424</ele>
        <time>2021-08-12T09:35:16.476Z</time>
      </trkpt>
      <trkpt lat="46.85707" lon="8.487">
        <ele>2428</ele>
        <time>2021-08-12T09:35:17.478Z</time>
      </trkpt>
      <trkpt lat="46.85707" lon="8.487">
        <ele>2430</ele>
        <time>2021-08-12T09:35:18.478Z</time>
      </trkpt>
      <trkpt lat="46.85706" lon="8.48699">
        <ele>2431</ele>
        <time>2021-08-12T09:35:19.478Z</time>
      </trkpt>
      <trkpt lat="46.85706" lon="8.48699">
        <ele>2432</ele>
        <time>2021-08-12T09:35:20.477Z</time>
      </trkpt>
      <trkpt lat="46.85706" lon="8.48699">
        <ele>2433</ele>
        <time>2021-08-12T09:35:21.477Z</time>
      </trkpt>
      <trkpt lat="46.85706" lon="8.48699">
        <ele>2434</ele>
        <time>2021-08-12T09:35:22.478Z</time>
      </trkpt>
      <trkpt lat="46.85706" lon="8.48698">
        <ele>2436</ele>
        <time>2021-08-12T09:35:23.478Z</time>
      </trkpt>
      <trkpt lat="46.85706" lon="8.48698">
        <ele>2436</ele>
        <time>2021-08-12T09:35:24.478Z</time>
      </trkpt>
      <trkpt lat="46.85706" lon="8.48698">
        <ele>2436</ele>
        <time>2021-08-12T09:35:25.479Z</time>
      </trkpt>
      <trkpt lat="46.85706" lon="8.48699">
        <ele>2435</ele>
        <time>2021-08-12T09:35:26.478Z</time>
      </trkpt>
      <trkpt lat="46.85706" lon="8.48699">
        <ele>2435</ele>
        <time>2021-08-12T09:35:27.479Z</time>
      </trkpt>
      <trkpt lat="46.85705" lon="8.48698">
        <ele>2435</ele>
        <time>2021-08-12T09:35:28.479Z</time>
      </trkpt>
      <trkpt lat="46.85704" lon="8.48698">
        <ele>2434</ele>
        <time>2021-08-12T09:35:29.479Z</time>
      </trkpt>
      <trkpt lat="46.85703" lon="8.48698">
        <ele>2434</ele>
        <time>2021-08-12T09:35:30.479Z</time>
      </trkpt>
      <trkpt lat="46.85701" lon="8.48698">
        <ele>2433</ele>
        <time>2021-08-12T09:35:31.479Z</time>
      </trkpt>
      <trkpt lat="46.85699" lon="8.48697">
        <ele>2433</ele>
        <time>2021-08-12T09:35:32.479Z</time>
      </trkpt>
      <trkpt lat="46.85697" lon="8.48696">
        <ele>2432</ele>
        <time>2021-08-12T09:35:33.478Z</time>
      </trkpt>
      <trkpt lat="46.85666" lon="8.48689">
        <ele>2428</ele>
        <time>2021-08-12T09:35:34.479Z</time>
      </trkpt>
      <trkpt lat="46.85665" lon="8.48688">
        <ele>2428</ele>
        <time>2021-08-12T09:35:35.479Z</time>
      </trkpt>
      <trkpt lat="46.85665" lon="8.48687">
        <ele>2428</ele>
        <time>2021-08-12T09:35:36.478Z</time>
      </trkpt>
      <trkpt lat="46.85665" lon="8.48686">
        <ele>2428</ele>
        <time>2021-08-12T09:35:37.479Z</time>
      </trkpt>
      <trkpt lat="46.85667" lon="8.48686">
        <ele>2432</ele>
        <time>2021-08-12T09:35:38.478Z</time>
      </trkpt>
      <trkpt lat="46.85669" lon="8.48687">
        <ele>2432</ele>
        <time>2021-08-12T09:35:39.479Z</time>
      </trkpt>
      <trkpt lat="46.85676" lon="8.4869">
        <ele>2433</ele>
        <time>2021-08-12T09:35:40.479Z</time>
      </trkpt>
      <trkpt lat="46.85677" lon="8.48691">
        <ele>2433</ele>
        <time>2021-08-12T09:35:41.478Z</time>
      </trkpt>
      <trkpt lat="46.85684" lon="8.48701">
        <ele>2419</ele>
        <time>2021-08-12T09:35:42.479Z</time>
      </trkpt>
      <trkpt lat="46.85685" lon="8.48702">
        <ele>2419</ele>
        <time>2021-08-12T09:35:43.479Z</time>
      </trkpt>
      <trkpt lat="46.85686" lon="8.48703">
        <ele>2419</ele>
        <time>2021-08-12T09:35:44.478Z</time>
      </trkpt>
      <trkpt lat="46.85687" lon="8.48703">
        <ele>2418</ele>
        <time>2021-08-12T09:35:45.479Z</time>
      </trkpt>
      <trkpt lat="46.85688" lon="8.48703">
        <ele>2418</ele>
        <time>2021-08-12T09:35:46.478Z</time>
      </trkpt>
      <trkpt lat="46.85692" lon="8.48705">
        <ele>2415</ele>
        <time>2021-08-12T09:35:47.478Z</time>
      </trkpt>
      <trkpt lat="46.85692" lon="8.48705">
        <ele>2415</ele>
        <time>2021-08-12T09:35:48.479Z</time>
      </trkpt>
      <trkpt lat="46.85692" lon="8.48705">
        <ele>2414</ele>
        <time>2021-08-12T09:35:49.478Z</time>
      </trkpt>
      <trkpt lat="46.85695" lon="8.48707">
        <ele>2412</ele>
        <time>2021-08-12T09:35:50.480Z</time>
      </trkpt>
      <trkpt lat="46.85695" lon="8.48708">
        <ele>2412</ele>
        <time>2021-08-12T09:35:51.479Z</time>
      </trkpt>
      <trkpt lat="46.85695" lon="8.48708">
        <ele>2412</ele>
        <time>2021-08-12T09:35:52.479Z</time>
      </trkpt>
      <trkpt lat="46.85696" lon="8.4871">
        <ele>2416</ele>
        <time>2021-08-12T09:35:53.481Z</time>
      </trkpt>
      <trkpt lat="46.85697" lon="8.48709">
        <ele>2416</ele>
        <time>2021-08-12T09:35:54.481Z</time>
      </trkpt>
      <trkpt lat="46.85697" lon="8.48709">
        <ele>2416</ele>
        <time>2021-08-12T09:35:55.480Z</time>
      </trkpt>
      <trkpt lat="46.85695" lon="8.48711">
        <ele>2418</ele>
        <time>2021-08-12T09:35:56.481Z</time>
      </trkpt>
      <trkpt lat="46.85695" lon="8.48711">
        <ele>2417</ele>
        <time>2021-08-12T09:35:57.482Z</time>
      </trkpt>
      <trkpt lat="46.85695" lon="8.48711">
        <ele>2417</ele>
        <time>2021-08-12T09:35:58.481Z</time>
      </trkpt>
      <trkpt lat="46.85697" lon="8.48712">
        <ele>2413</ele>
        <time>2021-08-12T09:35:59.483Z</time>
      </trkpt>
      <trkpt lat="46.85697" lon="8.48712">
        <ele>2413</ele>
        <time>2021-08-12T09:36:00.483Z</time>
      </trkpt>
      <trkpt lat="46.85693" lon="8.48714">
        <ele>2407</ele>
        <time>2021-08-12T09:36:01.483Z</time>
      </trkpt>
      <trkpt lat="46.85693" lon="8.48714">
        <ele>2408</ele>
        <time>2021-08-12T09:36:02.483Z</time>
      </trkpt>
      <trkpt lat="46.85693" lon="8.48714">
        <ele>2409</ele>
        <time>2021-08-12T09:36:03.483Z</time>
      </trkpt>
      <trkpt lat="46.85693" lon="8.48715">
        <ele>2411</ele>
        <time>2021-08-12T09:36:04.483Z</time>
      </trkpt>
      <trkpt lat="46.85692" lon="8.48715">
        <ele>2411</ele>
        <time>2021-08-12T09:36:05.483Z</time>
      </trkpt>
      <trkpt lat="46.85692" lon="8.48716">
        <ele>2412</ele>
        <time>2021-08-12T09:36:06.483Z</time>
      </trkpt>
      <trkpt lat="46.85691" lon="8.48716">
        <ele>2412</ele>
        <time>2021-08-12T09:36:07.483Z</time>
      </trkpt>
      <trkpt lat="46.8569" lon="8.48715">
        <ele>2412</ele>
        <time>2021-08-12T09:36:08.483Z</time>
      </trkpt>
      <trkpt lat="46.85689" lon="8.48715">
        <ele>2412</ele>
        <time>2021-08-12T09:36:09.483Z</time>
      </trkpt>
      <trkpt lat="46.85688" lon="8.48715">
        <ele>2412</ele>
        <time>2021-08-12T09:36:10.483Z</time>
      </trkpt>
      <trkpt lat="46.85688" lon="8.48716">
        <ele>2412</ele>
        <time>2021-08-12T09:36:11.483Z</time>
      </trkpt>
      <trkpt lat="46.85688" lon="8.48717">
        <ele>2413</ele>
        <time>2021-08-12T09:36:12.483Z</time>
      </trkpt>
      <trkpt lat="46.85689" lon="8.48718">
        <ele>2413</ele>
        <time>2021-08-12T09:36:13.483Z</time>
      </trkpt>
      <trkpt lat="46.85689" lon="8.48719">
        <ele>2413</ele>
        <time>2021-08-12T09:36:14.482Z</time>
      </trkpt>
      <trkpt lat="46.85688" lon="8.48719">
        <ele>2414</ele>
        <time>2021-08-12T09:36:15.483Z</time>
      </trkpt>
      <trkpt lat="46.85688" lon="8.48719">
        <ele>2415</ele>
        <time>2021-08-12T09:36:16.483Z</time>
      </trkpt>
      <trkpt lat="46.85687" lon="8.48718">
        <ele>2415</ele>
        <time>2021-08-12T09:36:17.483Z</time>
      </trkpt>
      <trkpt lat="46.85686" lon="8.48718">
        <ele>2415</ele>
        <time>2021-08-12T09:36:18.483Z</time>
      </trkpt>
      <trkpt lat="46.85685" lon="8.48718">
        <ele>2415</ele>
        <time>2021-08-12T09:36:19.483Z</time>
      </trkpt>
      <trkpt lat="46.85684" lon="8.48718">
        <ele>2416</ele>
        <time>2021-08-12T09:36:20.483Z</time>
      </trkpt>
      <trkpt lat="46.85683" lon="8.48718">
        <ele>2416</ele>
        <time>2021-08-12T09:36:21.483Z</time>
      </trkpt>
      <trkpt lat="46.85683" lon="8.48718">
        <ele>2416</ele>
        <time>2021-08-12T09:36:22.483Z</time>
      </trkpt>
      <trkpt lat="46.85683" lon="8.48719">
        <ele>2416</ele>
        <time>2021-08-12T09:36:23.483Z</time>
      </trkpt>
      <trkpt lat="46.85682" lon="8.48719">
        <ele>2415</ele>
        <time>2021-08-12T09:36:24.482Z</time>
      </trkpt>
      <trkpt lat="46.85681" lon="8.48719">
        <ele>2415</ele>
        <time>2021-08-12T09:36:25.483Z</time>
      </trkpt>
      <trkpt lat="46.85681" lon="8.48719">
        <ele>2415</ele>
        <time>2021-08-12T09:36:26.483Z</time>
      </trkpt>
      <trkpt lat="46.8568" lon="8.4872">
        <ele>2414</ele>
        <time>2021-08-12T09:36:27.483Z</time>
      </trkpt>
      <trkpt lat="46.8568" lon="8.48721">
        <ele>2413</ele>
        <time>2021-08-12T09:36:28.482Z</time>
      </trkpt>
      <trkpt lat="46.8568" lon="8.48722">
        <ele>2413</ele>
        <time>2021-08-12T09:36:29.483Z</time>
      </trkpt>
      <trkpt lat="46.85679" lon="8.48723">
        <ele>2413</ele>
        <time>2021-08-12T09:36:30.483Z</time>
      </trkpt>
      <trkpt lat="46.85679" lon="8.48723">
        <ele>2412</ele>
        <time>2021-08-12T09:36:31.483Z</time>
      </trkpt>
      <trkpt lat="46.85678" lon="8.48723">
        <ele>2412</ele>
        <time>2021-08-12T09:36:32.482Z</time>
      </trkpt>
      <trkpt lat="46.85677" lon="8.48724">
        <ele>2411</ele>
        <time>2021-08-12T09:36:33.482Z</time>
      </trkpt>
      <trkpt lat="46.85675" lon="8.48724">
        <ele>2410</ele>
        <time>2021-08-12T09:36:34.483Z</time>
      </trkpt>
      <trkpt lat="46.85674" lon="8.48724">
        <ele>2410</ele>
        <time>2021-08-12T09:36:35.483Z</time>
      </trkpt>
      <trkpt lat="46.85673" lon="8.48724">
        <ele>2409</ele>
        <time>2021-08-12T09:36:36.483Z</time>
      </trkpt>
      <trkpt lat="46.85672" lon="8.48724">
        <ele>2408</ele>
        <time>2021-08-12T09:36:37.483Z</time>
      </trkpt>
      <trkpt lat="46.85671" lon="8.48723">
        <ele>2407</ele>
        <time>2021-08-12T09:36:38.482Z</time>
      </trkpt>
      <trkpt lat="46.8567" lon="8.48723">
        <ele>2405</ele>
        <time>2021-08-12T09:36:39.483Z</time>
      </trkpt>
      <trkpt lat="46.85668" lon="8.48723">
        <ele>2404</ele>
        <time>2021-08-12T09:36:40.482Z</time>
      </trkpt>
      <trkpt lat="46.85666" lon="8.48724">
        <ele>2403</ele>
        <time>2021-08-12T09:36:41.482Z</time>
      </trkpt>
      <trkpt lat="46.85664" lon="8.48724">
        <ele>2402</ele>
        <time>2021-08-12T09:36:42.482Z</time>
      </trkpt>
      <trkpt lat="46.85662" lon="8.48723">
        <ele>2402</ele>
        <time>2021-08-12T09:36:43.483Z</time>
      </trkpt>
      <trkpt lat="46.85659" lon="8.48723">
        <ele>2401</ele>
        <time>2021-08-12T09:36:44.482Z</time>
      </trkpt>
      <trkpt lat="46.85658" lon="8.48724">
        <ele>2400</ele>
        <time>2021-08-12T09:36:45.482Z</time>
      </trkpt>
      <trkpt lat="46.85657" lon="8.48726">
        <ele>2399</ele>
        <time>2021-08-12T09:36:46.483Z</time>
      </trkpt>
      <trkpt lat="46.85656" lon="8.48726">
        <ele>2399</ele>
        <time>2021-08-12T09:36:47.483Z</time>
      </trkpt>
      <trkpt lat="46.85655" lon="8.48727">
        <ele>2398</ele>
        <time>2021-08-12T09:36:48.482Z</time>
      </trkpt>
      <trkpt lat="46.85654" lon="8.48728">
        <ele>2398</ele>
        <time>2021-08-12T09:36:49.482Z</time>
      </trkpt>
      <trkpt lat="46.85655" lon="8.4873">
        <ele>2397</ele>
        <time>2021-08-12T09:36:50.483Z</time>
      </trkpt>
      <trkpt lat="46.85655" lon="8.48731">
        <ele>2397</ele>
        <time>2021-08-12T09:36:51.483Z</time>
      </trkpt>
      <trkpt lat="46.85654" lon="8.48732">
        <ele>2396</ele>
        <time>2021-08-12T09:36:52.483Z</time>
      </trkpt>
      <trkpt lat="46.85653" lon="8.48732">
        <ele>2395</ele>
        <time>2021-08-12T09:36:53.482Z</time>
      </trkpt>
      <trkpt lat="46.85653" lon="8.48733">
        <ele>2394</ele>
        <time>2021-08-12T09:36:54.482Z</time>
      </trkpt>
      <trkpt lat="46.85653" lon="8.48734">
        <ele>2394</ele>
        <time>2021-08-12T09:36:55.482Z</time>
      </trkpt>
      <trkpt lat="46.85653" lon="8.48735">
        <ele>2395</ele>
        <time>2021-08-12T09:36:56.482Z</time>
      </trkpt>
      <trkpt lat="46.85655" lon="8.48737">
        <ele>2397</ele>
        <time>2021-08-12T09:36:57.482Z</time>
      </trkpt>
      <trkpt lat="46.85658" lon="8.48738">
        <ele>2398</ele>
        <time>2021-08-12T09:36:58.482Z</time>
      </trkpt>
      <trkpt lat="46.85659" lon="8.48739">
        <ele>2404</ele>
        <time>2021-08-12T09:36:59.482Z</time>
      </trkpt>
      <trkpt lat="46.85658" lon="8.4874">
        <ele>2405</ele>
        <time>2021-08-12T09:37:00.483Z</time>
      </trkpt>
      <trkpt lat="46.85658" lon="8.4874">
        <ele>2406</ele>
        <time>2021-08-12T09:37:01.482Z</time>
      </trkpt>
      <trkpt lat="46.85657" lon="8.48741">
        <ele>2407</ele>
        <time>2021-08-12T09:37:02.482Z</time>
      </trkpt>
      <trkpt lat="46.85657" lon="8.48741">
        <ele>2408</ele>
        <time>2021-08-12T09:37:03.482Z</time>
      </trkpt>
      <trkpt lat="46.85656" lon="8.48742">
        <ele>2409</ele>
        <time>2021-08-12T09:37:04.483Z</time>
      </trkpt>
      <trkpt lat="46.85655" lon="8.48742">
        <ele>2409</ele>
        <time>2021-08-12T09:37:05.483Z</time>
      </trkpt>
      <trkpt lat="46.85655" lon="8.48742">
        <ele>2409</ele>
        <time>2021-08-12T09:37:06.483Z</time>
      </trkpt>
      <trkpt lat="46.85654" lon="8.48743">
        <ele>2409</ele>
        <time>2021-08-12T09:37:07.483Z</time>
      </trkpt>
      <trkpt lat="46.85653" lon="8.48743">
        <ele>2409</ele>
        <time>2021-08-12T09:37:08.483Z</time>
      </trkpt>
      <trkpt lat="46.85652" lon="8.48743">
        <ele>2410</ele>
        <time>2021-08-12T09:37:09.483Z</time>
      </trkpt>
      <trkpt lat="46.85651" lon="8.48742">
        <ele>2410</ele>
        <time>2021-08-12T09:37:10.483Z</time>
      </trkpt>
      <trkpt lat="46.8565" lon="8.48743">
        <ele>2410</ele>
        <time>2021-08-12T09:37:11.482Z</time>
      </trkpt>
      <trkpt lat="46.85649" lon="8.48743">
        <ele>2410</ele>
        <time>2021-08-12T09:37:12.483Z</time>
      </trkpt>
      <trkpt lat="46.85648" lon="8.48744">
        <ele>2410</ele>
        <time>2021-08-12T09:37:13.483Z</time>
      </trkpt>
      <trkpt lat="46.85649" lon="8.48745">
        <ele>2410</ele>
        <time>2021-08-12T09:37:14.483Z</time>
      </trkpt>
      <trkpt lat="46.85648" lon="8.48745">
        <ele>2410</ele>
        <time>2021-08-12T09:37:15.483Z</time>
      </trkpt>
      <trkpt lat="46.85647" lon="8.48745">
        <ele>2410</ele>
        <time>2021-08-12T09:37:16.482Z</time>
      </trkpt>
      <trkpt lat="46.85646" lon="8.48746">
        <ele>2409</ele>
        <time>2021-08-12T09:37:17.482Z</time>
      </trkpt>
      <trkpt lat="46.85645" lon="8.48747">
        <ele>2409</ele>
        <time>2021-08-12T09:37:18.483Z</time>
      </trkpt>
      <trkpt lat="46.85645" lon="8.48749">
        <ele>2408</ele>
        <time>2021-08-12T09:37:19.482Z</time>
      </trkpt>
      <trkpt lat="46.85644" lon="8.4875">
        <ele>2408</ele>
        <time>2021-08-12T09:37:20.483Z</time>
      </trkpt>
      <trkpt lat="46.85644" lon="8.4875">
        <ele>2408</ele>
        <time>2021-08-12T09:37:21.483Z</time>
      </trkpt>
      <trkpt lat="46.85643" lon="8.4875">
        <ele>2407</ele>
        <time>2021-08-12T09:37:22.483Z</time>
      </trkpt>
      <trkpt lat="46.85643" lon="8.48751">
        <ele>2406</ele>
        <time>2021-08-12T09:37:23.483Z</time>
      </trkpt>
      <trkpt lat="46.85642" lon="8.48751">
        <ele>2406</ele>
        <time>2021-08-12T09:37:24.482Z</time>
      </trkpt>
      <trkpt lat="46.8564" lon="8.48751">
        <ele>2405</ele>
        <time>2021-08-12T09:37:25.483Z</time>
      </trkpt>
      <trkpt lat="46.85639" lon="8.48751">
        <ele>2405</ele>
        <time>2021-08-12T09:37:26.483Z</time>
      </trkpt>
      <trkpt lat="46.85639" lon="8.48751">
        <ele>2404</ele>
        <time>2021-08-12T09:37:27.483Z</time>
      </trkpt>
      <trkpt lat="46.85638" lon="8.48752">
        <ele>2403</ele>
        <time>2021-08-12T09:37:28.483Z</time>
      </trkpt>
      <trkpt lat="46.85637" lon="8.48752">
        <ele>2402</ele>
        <time>2021-08-12T09:37:29.483Z</time>
      </trkpt>
      <trkpt lat="46.85636" lon="8.48752">
        <ele>2402</ele>
        <time>2021-08-12T09:37:30.483Z</time>
      </trkpt>
      <trkpt lat="46.85635" lon="8.48752">
        <ele>2401</ele>
        <time>2021-08-12T09:37:31.483Z</time>
      </trkpt>
      <trkpt lat="46.85634" lon="8.48752">
        <ele>2401</ele>
        <time>2021-08-12T09:37:32.483Z</time>
      </trkpt>
      <trkpt lat="46.85633" lon="8.48753">
        <ele>2401</ele>
        <time>2021-08-12T09:37:33.483Z</time>
      </trkpt>
      <trkpt lat="46.85632" lon="8.48753">
        <ele>2401</ele>
        <time>2021-08-12T09:37:34.483Z</time>
      </trkpt>
      <trkpt lat="46.85631" lon="8.48753">
        <ele>2400</ele>
        <time>2021-08-12T09:37:35.483Z</time>
      </trkpt>
      <trkpt lat="46.85631" lon="8.48754">
        <ele>2400</ele>
        <time>2021-08-12T09:37:36.483Z</time>
      </trkpt>
      <trkpt lat="46.85629" lon="8.48755">
        <ele>2400</ele>
        <time>2021-08-12T09:37:37.482Z</time>
      </trkpt>
      <trkpt lat="46.85628" lon="8.48754">
        <ele>2400</ele>
        <time>2021-08-12T09:37:38.482Z</time>
      </trkpt>
      <trkpt lat="46.85627" lon="8.48754">
        <ele>2400</ele>
        <time>2021-08-12T09:37:39.483Z</time>
      </trkpt>
      <trkpt lat="46.85625" lon="8.48753">
        <ele>2399</ele>
        <time>2021-08-12T09:37:40.482Z</time>
      </trkpt>
      <trkpt lat="46.85624" lon="8.48753">
        <ele>2399</ele>
        <time>2021-08-12T09:37:41.483Z</time>
      </trkpt>
      <trkpt lat="46.85624" lon="8.48754">
        <ele>2400</ele>
        <time>2021-08-12T09:37:42.482Z</time>
      </trkpt>
      <trkpt lat="46.85624" lon="8.48754">
        <ele>2400</ele>
        <time>2021-08-12T09:37:43.482Z</time>
      </trkpt>
      <trkpt lat="46.85623" lon="8.48754">
        <ele>2400</ele>
        <time>2021-08-12T09:37:44.482Z</time>
      </trkpt>
      <trkpt lat="46.85623" lon="8.48755">
        <ele>2400</ele>
        <time>2021-08-12T09:37:45.482Z</time>
      </trkpt>
      <trkpt lat="46.85622" lon="8.48755">
        <ele>2400</ele>
        <time>2021-08-12T09:37:46.483Z</time>
      </trkpt>
      <trkpt lat="46.85621" lon="8.48755">
        <ele>2400</ele>
        <time>2021-08-12T09:37:47.482Z</time>
      </trkpt>
      <trkpt lat="46.8562" lon="8.48755">
        <ele>2400</ele>
        <time>2021-08-12T09:37:48.483Z</time>
      </trkpt>
      <trkpt lat="46.85619" lon="8.48756">
        <ele>2400</ele>
        <time>2021-08-12T09:37:49.482Z</time>
      </trkpt>
      <trkpt lat="46.85619" lon="8.48756">
        <ele>2401</ele>
        <time>2021-08-12T09:37:50.483Z</time>
      </trkpt>
      <trkpt lat="46.85621" lon="8.48757">
        <ele>2402</ele>
        <time>2021-08-12T09:37:51.482Z</time>
      </trkpt>
      <trkpt lat="46.85622" lon="8.48758">
        <ele>2402</ele>
        <time>2021-08-12T09:37:52.483Z</time>
      </trkpt>
      <trkpt lat="46.85623" lon="8.48759">
        <ele>2403</ele>
        <time>2021-08-12T09:37:53.482Z</time>
      </trkpt>
      <trkpt lat="46.85624" lon="8.4876">
        <ele>2403</ele>
        <time>2021-08-12T09:37:54.482Z</time>
      </trkpt>
      <trkpt lat="46.85623" lon="8.4876">
        <ele>2404</ele>
        <time>2021-08-12T09:37:55.482Z</time>
      </trkpt>
      <trkpt lat="46.85623" lon="8.4876">
        <ele>2404</ele>
        <time>2021-08-12T09:37:56.482Z</time>
      </trkpt>
      <trkpt lat="46.85623" lon="8.4876">
        <ele>2404</ele>
        <time>2021-08-12T09:37:57.482Z</time>
      </trkpt>
      <trkpt lat="46.85623" lon="8.4876">
        <ele>2405</ele>
        <time>2021-08-12T09:37:58.483Z</time>
      </trkpt>
      <trkpt lat="46.85622" lon="8.48761">
        <ele>2405</ele>
        <time>2021-08-12T09:37:59.482Z</time>
      </trkpt>
      <trkpt lat="46.85622" lon="8.48761">
        <ele>2405</ele>
        <time>2021-08-12T09:38:00.483Z</time>
      </trkpt>
      <trkpt lat="46.85621" lon="8.48762">
        <ele>2406</ele>
        <time>2021-08-12T09:38:01.482Z</time>
      </trkpt>
      <trkpt lat="46.85621" lon="8.48762">
        <ele>2407</ele>
        <time>2021-08-12T09:38:02.483Z</time>
      </trkpt>
      <trkpt lat="46.8562" lon="8.48763">
        <ele>2407</ele>
        <time>2021-08-12T09:38:03.482Z</time>
      </trkpt>
      <trkpt lat="46.85619" lon="8.48763">
        <ele>2407</ele>
        <time>2021-08-12T09:38:04.482Z</time>
      </trkpt>
      <trkpt lat="46.85619" lon="8.48764">
        <ele>2408</ele>
        <time>2021-08-12T09:38:05.482Z</time>
      </trkpt>
      <trkpt lat="46.85619" lon="8.48764">
        <ele>2408</ele>
        <time>2021-08-12T09:38:06.482Z</time>
      </trkpt>
      <trkpt lat="46.85619" lon="8.48765">
        <ele>2409</ele>
        <time>2021-08-12T09:38:07.482Z</time>
      </trkpt>
      <trkpt lat="46.85618" lon="8.48766">
        <ele>2409</ele>
        <time>2021-08-12T09:38:08.482Z</time>
      </trkpt>
      <trkpt lat="46.85618" lon="8.48766">
        <ele>2410</ele>
        <time>2021-08-12T09:38:09.482Z</time>
      </trkpt>
      <trkpt lat="46.85619" lon="8.48767">
        <ele>2410</ele>
        <time>2021-08-12T09:38:10.482Z</time>
      </trkpt>
      <trkpt lat="46.85619" lon="8.48768">
        <ele>2410</ele>
        <time>2021-08-12T09:38:11.482Z</time>
      </trkpt>
      <trkpt lat="46.85618" lon="8.48769">
        <ele>2410</ele>
        <time>2021-08-12T09:38:12.482Z</time>
      </trkpt>
      <trkpt lat="46.85617" lon="8.4877">
        <ele>2411</ele>
        <time>2021-08-12T09:38:13.483Z</time>
      </trkpt>
      <trkpt lat="46.85617" lon="8.48771">
        <ele>2411</ele>
        <time>2021-08-12T09:38:14.482Z</time>
      </trkpt>
      <trkpt lat="46.85617" lon="8.48772">
        <ele>2412</ele>
        <time>2021-08-12T09:38:15.482Z</time>
      </trkpt>
      <trkpt lat="46.85617" lon="8.48773">
        <ele>2412</ele>
        <time>2021-08-12T09:38:16.482Z</time>
      </trkpt>
      <trkpt lat="46.85617" lon="8.48774">
        <ele>2412</ele>
        <time>2021-08-12T09:38:17.482Z</time>
      </trkpt>
      <trkpt lat="46.85617" lon="8.48775">
        <ele>2412</ele>
        <time>2021-08-12T09:38:18.482Z</time>
      </trkpt>
      <trkpt lat="46.85616" lon="8.48776">
        <ele>2412</ele>
        <time>2021-08-12T09:38:19.483Z</time>
      </trkpt>
      <trkpt lat="46.85615" lon="8.48776">
        <ele>2412</ele>
        <time>2021-08-12T09:38:20.482Z</time>
      </trkpt>
      <trkpt lat="46.85615" lon="8.48777">
        <ele>2412</ele>
        <time>2021-08-12T09:38:21.483Z</time>
      </trkpt>
      <trkpt lat="46.85614" lon="8.48778">
        <ele>2412</ele>
        <time>2021-08-12T09:38:22.483Z</time>
      </trkpt>
      <trkpt lat="46.85613" lon="8.48778">
        <ele>2412</ele>
        <time>2021-08-12T09:38:23.483Z</time>
      </trkpt>
      <trkpt lat="46.85612" lon="8.48779">
        <ele>2413</ele>
        <time>2021-08-12T09:38:24.483Z</time>
      </trkpt>
      <trkpt lat="46.85611" lon="8.48779">
        <ele>2413</ele>
        <time>2021-08-12T09:38:25.482Z</time>
      </trkpt>
      <trkpt lat="46.8561" lon="8.4878">
        <ele>2413</ele>
        <time>2021-08-12T09:38:26.482Z</time>
      </trkpt>
      <trkpt lat="46.85609" lon="8.4878">
        <ele>2414</ele>
        <time>2021-08-12T09:38:27.483Z</time>
      </trkpt>
      <trkpt lat="46.85608" lon="8.4878">
        <ele>2414</ele>
        <time>2021-08-12T09:38:28.483Z</time>
      </trkpt>
      <trkpt lat="46.85608" lon="8.48781">
        <ele>2414</ele>
        <time>2021-08-12T09:38:29.482Z</time>
      </trkpt>
      <trkpt lat="46.85608" lon="8.48782">
        <ele>2415</ele>
        <time>2021-08-12T09:38:30.482Z</time>
      </trkpt>
      <trkpt lat="46.85608" lon="8.48782">
        <ele>2415</ele>
        <time>2021-08-12T09:38:31.483Z</time>
      </trkpt>
      <trkpt lat="46.85608" lon="8.48784">
        <ele>2415</ele>
        <time>2021-08-12T09:38:32.482Z</time>
      </trkpt>
      <trkpt lat="46.85608" lon="8.48785">
        <ele>2415</ele>
        <time>2021-08-12T09:38:33.483Z</time>
      </trkpt>
      <trkpt lat="46.85609" lon="8.48786">
        <ele>2415</ele>
        <time>2021-08-12T09:38:34.482Z</time>
      </trkpt>
      <trkpt lat="46.85608" lon="8.48788">
        <ele>2415</ele>
        <time>2021-08-12T09:38:35.482Z</time>
      </trkpt>
      <trkpt lat="46.85608" lon="8.48789">
        <ele>2416</ele>
        <time>2021-08-12T09:38:36.483Z</time>
      </trkpt>
      <trkpt lat="46.85609" lon="8.4879">
        <ele>2416</ele>
        <time>2021-08-12T09:38:37.483Z</time>
      </trkpt>
      <trkpt lat="46.85609" lon="8.48791">
        <ele>2416</ele>
        <time>2021-08-12T09:38:38.483Z</time>
      </trkpt>
      <trkpt lat="46.85609" lon="8.48791">
        <ele>2416</ele>
        <time>2021-08-12T09:38:39.482Z</time>
      </trkpt>
      <trkpt lat="46.85608" lon="8.48792">
        <ele>2416</ele>
        <time>2021-08-12T09:38:40.483Z</time>
      </trkpt>
      <trkpt lat="46.85607" lon="8.48792">
        <ele>2416</ele>
        <time>2021-08-12T09:38:41.483Z</time>
      </trkpt>
      <trkpt lat="46.85607" lon="8.48793">
        <ele>2416</ele>
        <time>2021-08-12T09:38:42.482Z</time>
      </trkpt>
      <trkpt lat="46.85607" lon="8.48794">
        <ele>2417</ele>
        <time>2021-08-12T09:38:43.483Z</time>
      </trkpt>
      <trkpt lat="46.85607" lon="8.48795">
        <ele>2417</ele>
        <time>2021-08-12T09:38:44.482Z</time>
      </trkpt>
      <trkpt lat="46.85607" lon="8.48796">
        <ele>2417</ele>
        <time>2021-08-12T09:38:45.482Z</time>
      </trkpt>
      <trkpt lat="46.85606" lon="8.48796">
        <ele>2418</ele>
        <time>2021-08-12T09:38:46.483Z</time>
      </trkpt>
      <trkpt lat="46.85605" lon="8.48795">
        <ele>2418</ele>
        <time>2021-08-12T09:38:47.483Z</time>
      </trkpt>
      <trkpt lat="46.85605" lon="8.48795">
        <ele>2418</ele>
        <time>2021-08-12T09:38:48.482Z</time>
      </trkpt>
      <trkpt lat="46.85605" lon="8.48796">
        <ele>2419</ele>
        <time>2021-08-12T09:38:49.482Z</time>
      </trkpt>
      <trkpt lat="46.85604" lon="8.48796">
        <ele>2419</ele>
        <time>2021-08-12T09:38:50.483Z</time>
      </trkpt>
      <trkpt lat="46.85604" lon="8.48797">
        <ele>2419</ele>
        <time>2021-08-12T09:38:51.482Z</time>
      </trkpt>
      <trkpt lat="46.85603" lon="8.48799">
        <ele>2419</ele>
        <time>2021-08-12T09:38:52.483Z</time>
      </trkpt>
      <trkpt lat="46.85603" lon="8.488">
        <ele>2419</ele>
        <time>2021-08-12T09:38:53.483Z</time>
      </trkpt>
      <trkpt lat="46.85602" lon="8.488">
        <ele>2418</ele>
        <time>2021-08-12T09:38:54.482Z</time>
      </trkpt>
      <trkpt lat="46.85602" lon="8.48801">
        <ele>2418</ele>
        <time>2021-08-12T09:38:55.483Z</time>
      </trkpt>
      <trkpt lat="46.85602" lon="8.48802">
        <ele>2418</ele>
        <time>2021-08-12T09:38:56.483Z</time>
      </trkpt>
      <trkpt lat="46.85602" lon="8.48804">
        <ele>2418</ele>
        <time>2021-08-12T09:38:57.483Z</time>
      </trkpt>
      <trkpt lat="46.85602" lon="8.48805">
        <ele>2418</ele>
        <time>2021-08-12T09:38:58.482Z</time>
      </trkpt>
      <trkpt lat="46.85602" lon="8.48806">
        <ele>2418</ele>
        <time>2021-08-12T09:38:59.483Z</time>
      </trkpt>
      <trkpt lat="46.85602" lon="8.48807">
        <ele>2418</ele>
        <time>2021-08-12T09:39:00.483Z</time>
      </trkpt>
      <trkpt lat="46.85602" lon="8.48807">
        <ele>2418</ele>
        <time>2021-08-12T09:39:01.482Z</time>
      </trkpt>
      <trkpt lat="46.85603" lon="8.48807">
        <ele>2418</ele>
        <time>2021-08-12T09:39:02.482Z</time>
      </trkpt>
      <trkpt lat="46.85602" lon="8.48809">
        <ele>2418</ele>
        <time>2021-08-12T09:39:03.483Z</time>
      </trkpt>
      <trkpt lat="46.85602" lon="8.48809">
        <ele>2418</ele>
        <time>2021-08-12T09:39:04.482Z</time>
      </trkpt>
      <trkpt lat="46.85602" lon="8.4881">
        <ele>2418</ele>
        <time>2021-08-12T09:39:05.483Z</time>
      </trkpt>
      <trkpt lat="46.85601" lon="8.4881">
        <ele>2418</ele>
        <time>2021-08-12T09:39:06.482Z</time>
      </trkpt>
      <trkpt lat="46.856" lon="8.48811">
        <ele>2418</ele>
        <time>2021-08-12T09:39:07.482Z</time>
      </trkpt>
      <trkpt lat="46.85599" lon="8.48812">
        <ele>2419</ele>
        <time>2021-08-12T09:39:08.483Z</time>
      </trkpt>
      <trkpt lat="46.85599" lon="8.48813">
        <ele>2419</ele>
        <time>2021-08-12T09:39:09.483Z</time>
      </trkpt>
      <trkpt lat="46.85599" lon="8.48815">
        <ele>2420</ele>
        <time>2021-08-12T09:39:10.482Z</time>
      </trkpt>
      <trkpt lat="46.85598" lon="8.48816">
        <ele>2420</ele>
        <time>2021-08-12T09:39:11.482Z</time>
      </trkpt>
      <trkpt lat="46.85598" lon="8.48816">
        <ele>2421</ele>
        <time>2021-08-12T09:39:12.482Z</time>
      </trkpt>
      <trkpt lat="46.85598" lon="8.48817">
        <ele>2421</ele>
        <time>2021-08-12T09:39:13.482Z</time>
      </trkpt>
      <trkpt lat="46.85598" lon="8.48818">
        <ele>2422</ele>
        <time>2021-08-12T09:39:14.482Z</time>
      </trkpt>
      <trkpt lat="46.85599" lon="8.48819">
        <ele>2422</ele>
        <time>2021-08-12T09:39:15.483Z</time>
      </trkpt>
      <trkpt lat="46.85599" lon="8.4882">
        <ele>2422</ele>
        <time>2021-08-12T09:39:16.482Z</time>
      </trkpt>
      <trkpt lat="46.85599" lon="8.48821">
        <ele>2422</ele>
        <time>2021-08-12T09:39:17.483Z</time>
      </trkpt>
      <trkpt lat="46.85598" lon="8.48821">
        <ele>2422</ele>
        <time>2021-08-12T09:39:18.483Z</time>
      </trkpt>
      <trkpt lat="46.85598" lon="8.48822">
        <ele>2422</ele>
        <time>2021-08-12T09:39:19.483Z</time>
      </trkpt>
      <trkpt lat="46.85597" lon="8.48823">
        <ele>2422</ele>
        <time>2021-08-12T09:39:20.483Z</time>
      </trkpt>
      <trkpt lat="46.85597" lon="8.48823">
        <ele>2423</ele>
        <time>2021-08-12T09:39:21.482Z</time>
      </trkpt>
      <trkpt lat="46.85597" lon="8.48823">
        <ele>2423</ele>
        <time>2021-08-12T09:39:22.483Z</time>
      </trkpt>
      <trkpt lat="46.85596" lon="8.48822">
        <ele>2423</ele>
        <time>2021-08-12T09:39:23.482Z</time>
      </trkpt>
      <trkpt lat="46.85596" lon="8.48821">
        <ele>2424</ele>
        <time>2021-08-12T09:39:24.483Z</time>
      </trkpt>
      <trkpt lat="46.85595" lon="8.48821">
        <ele>2424</ele>
        <time>2021-08-12T09:39:25.483Z</time>
      </trkpt>
      <trkpt lat="46.85595" lon="8.48821">
        <ele>2425</ele>
        <time>2021-08-12T09:39:26.483Z</time>
      </trkpt>
      <trkpt lat="46.85595" lon="8.48821">
        <ele>2426</ele>
        <time>2021-08-12T09:39:27.483Z</time>
      </trkpt>
      <trkpt lat="46.85595" lon="8.48823">
        <ele>2430</ele>
        <time>2021-08-12T09:39:28.485Z</time>
      </trkpt>
      <trkpt lat="46.85596" lon="8.48825">
        <ele>2430</ele>
        <time>2021-08-12T09:39:29.484Z</time>
      </trkpt>
      <trkpt lat="46.85596" lon="8.48825">
        <ele>2431</ele>
        <time>2021-08-12T09:39:30.485Z</time>
      </trkpt>
      <trkpt lat="46.85595" lon="8.48826">
        <ele>2431</ele>
        <time>2021-08-12T09:39:31.484Z</time>
      </trkpt>
      <trkpt lat="46.85594" lon="8.48826">
        <ele>2432</ele>
        <time>2021-08-12T09:39:32.485Z</time>
      </trkpt>
      <trkpt lat="46.85594" lon="8.48826">
        <ele>2432</ele>
        <time>2021-08-12T09:39:33.484Z</time>
      </trkpt>
      <trkpt lat="46.85594" lon="8.48827">
        <ele>2432</ele>
        <time>2021-08-12T09:39:34.485Z</time>
      </trkpt>
      <trkpt lat="46.85594" lon="8.48827">
        <ele>2432</ele>
        <time>2021-08-12T09:39:35.485Z</time>
      </trkpt>
      <trkpt lat="46.85593" lon="8.48828">
        <ele>2432</ele>
        <time>2021-08-12T09:39:36.485Z</time>
      </trkpt>
      <trkpt lat="46.85593" lon="8.48828">
        <ele>2432</ele>
        <time>2021-08-12T09:39:37.485Z</time>
      </trkpt>
      <trkpt lat="46.85593" lon="8.48829">
        <ele>2432</ele>
        <time>2021-08-12T09:39:38.485Z</time>
      </trkpt>
      <trkpt lat="46.85593" lon="8.48829">
        <ele>2432</ele>
        <time>2021-08-12T09:39:39.485Z</time>
      </trkpt>
      <trkpt lat="46.85593" lon="8.4883">
        <ele>2432</ele>
        <time>2021-08-12T09:39:40.485Z</time>
      </trkpt>
      <trkpt lat="46.85592" lon="8.4883">
        <ele>2432</ele>
        <time>2021-08-12T09:39:41.484Z</time>
      </trkpt>
      <trkpt lat="46.85591" lon="8.4883">
        <ele>2432</ele>
        <time>2021-08-12T09:39:42.484Z</time>
      </trkpt>
      <trkpt lat="46.85591" lon="8.4883">
        <ele>2432</ele>
        <time>2021-08-12T09:39:43.485Z</time>
      </trkpt>
      <trkpt lat="46.85591" lon="8.4883">
        <ele>2432</ele>
        <time>2021-08-12T09:39:44.485Z</time>
      </trkpt>
      <trkpt lat="46.85591" lon="8.4883">
        <ele>2432</ele>
        <time>2021-08-12T09:39:45.484Z</time>
      </trkpt>
      <trkpt lat="46.85591" lon="8.48831">
        <ele>2432</ele>
        <time>2021-08-12T09:39:46.485Z</time>
      </trkpt>
      <trkpt lat="46.85591" lon="8.48831">
        <ele>2432</ele>
        <time>2021-08-12T09:39:47.484Z</time>
      </trkpt>
      <trkpt lat="46.8559" lon="8.48831">
        <ele>2433</ele>
        <time>2021-08-12T09:39:48.485Z</time>
      </trkpt>
      <trkpt lat="46.85589" lon="8.48831">
        <ele>2433</ele>
        <time>2021-08-12T09:39:49.484Z</time>
      </trkpt>
      <trkpt lat="46.85588" lon="8.48831">
        <ele>2434</ele>
        <time>2021-08-12T09:39:50.484Z</time>
      </trkpt>
      <trkpt lat="46.85588" lon="8.4883">
        <ele>2435</ele>
        <time>2021-08-12T09:39:51.484Z</time>
      </trkpt>
      <trkpt lat="46.85587" lon="8.4883">
        <ele>2435</ele>
        <time>2021-08-12T09:39:52.485Z</time>
      </trkpt>
      <trkpt lat="46.85587" lon="8.48831">
        <ele>2436</ele>
        <time>2021-08-12T09:39:53.485Z</time>
      </trkpt>
      <trkpt lat="46.85587" lon="8.48831">
        <ele>2436</ele>
        <time>2021-08-12T09:39:54.485Z</time>
      </trkpt>
      <trkpt lat="46.85586" lon="8.48829">
        <ele>2437</ele>
        <time>2021-08-12T09:39:55.485Z</time>
      </trkpt>
      <trkpt lat="46.85585" lon="8.48829">
        <ele>2437</ele>
        <time>2021-08-12T09:39:56.485Z</time>
      </trkpt>
      <trkpt lat="46.85584" lon="8.48829">
        <ele>2437</ele>
        <time>2021-08-12T09:39:57.484Z</time>
      </trkpt>
      <trkpt lat="46.85583" lon="8.48829">
        <ele>2438</ele>
        <time>2021-08-12T09:39:58.485Z</time>
      </trkpt>
      <trkpt lat="46.85582" lon="8.48829">
        <ele>2438</ele>
        <time>2021-08-12T09:39:59.484Z</time>
      </trkpt>
      <trkpt lat="46.85581" lon="8.48829">
        <ele>2438</ele>
        <time>2021-08-12T09:40:00.484Z</time>
      </trkpt>
      <trkpt lat="46.85581" lon="8.48829">
        <ele>2438</ele>
        <time>2021-08-12T09:40:01.485Z</time>
      </trkpt>
      <trkpt lat="46.8558" lon="8.48829">
        <ele>2438</ele>
        <time>2021-08-12T09:40:02.485Z</time>
      </trkpt>
      <trkpt lat="46.8558" lon="8.48829">
        <ele>2438</ele>
        <time>2021-08-12T09:40:03.484Z</time>
      </trkpt>
      <trkpt lat="46.85579" lon="8.48829">
        <ele>2438</ele>
        <time>2021-08-12T09:40:04.484Z</time>
      </trkpt>
      <trkpt lat="46.85579" lon="8.4883">
        <ele>2438</ele>
        <time>2021-08-12T09:40:05.484Z</time>
      </trkpt>
      <trkpt lat="46.85578" lon="8.48831">
        <ele>2438</ele>
        <time>2021-08-12T09:40:06.484Z</time>
      </trkpt>
      <trkpt lat="46.85578" lon="8.48832">
        <ele>2437</ele>
        <time>2021-08-12T09:40:07.485Z</time>
      </trkpt>
      <trkpt lat="46.85579" lon="8.48834">
        <ele>2437</ele>
        <time>2021-08-12T09:40:08.485Z</time>
      </trkpt>
      <trkpt lat="46.85579" lon="8.48836">
        <ele>2437</ele>
        <time>2021-08-12T09:40:09.484Z</time>
      </trkpt>
      <trkpt lat="46.85579" lon="8.48837">
        <ele>2437</ele>
        <time>2021-08-12T09:40:10.485Z</time>
      </trkpt>
      <trkpt lat="46.85579" lon="8.48838">
        <ele>2437</ele>
        <time>2021-08-12T09:40:11.484Z</time>
      </trkpt>
      <trkpt lat="46.85578" lon="8.48839">
        <ele>2437</ele>
        <time>2021-08-12T09:40:12.485Z</time>
      </trkpt>
      <trkpt lat="46.85578" lon="8.4884">
        <ele>2437</ele>
        <time>2021-08-12T09:40:13.485Z</time>
      </trkpt>
      <trkpt lat="46.85578" lon="8.4884">
        <ele>2437</ele>
        <time>2021-08-12T09:40:14.485Z</time>
      </trkpt>
      <trkpt lat="46.85578" lon="8.48841">
        <ele>2438</ele>
        <time>2021-08-12T09:40:15.485Z</time>
      </trkpt>
      <trkpt lat="46.85578" lon="8.48842">
        <ele>2437</ele>
        <time>2021-08-12T09:40:16.485Z</time>
      </trkpt>
      <trkpt lat="46.85578" lon="8.48842">
        <ele>2437</ele>
        <time>2021-08-12T09:40:17.485Z</time>
      </trkpt>
      <trkpt lat="46.85578" lon="8.48842">
        <ele>2437</ele>
        <time>2021-08-12T09:40:18.484Z</time>
      </trkpt>
      <trkpt lat="46.85577" lon="8.48841">
        <ele>2436</ele>
        <time>2021-08-12T09:40:19.485Z</time>
      </trkpt>
      <trkpt lat="46.85578" lon="8.48842">
        <ele>2436</ele>
        <time>2021-08-12T09:40:20.485Z</time>
      </trkpt>
      <trkpt lat="46.85578" lon="8.48842">
        <ele>2436</ele>
        <time>2021-08-12T09:40:21.485Z</time>
      </trkpt>
      <trkpt lat="46.85578" lon="8.48842">
        <ele>2435</ele>
        <time>2021-08-12T09:40:22.484Z</time>
      </trkpt>
      <trkpt lat="46.85578" lon="8.48842">
        <ele>2435</ele>
        <time>2021-08-12T09:40:23.484Z</time>
      </trkpt>
      <trkpt lat="46.85576" lon="8.48842">
        <ele>2436</ele>
        <time>2021-08-12T09:40:24.484Z</time>
      </trkpt>
      <trkpt lat="46.85576" lon="8.48843">
        <ele>2437</ele>
        <time>2021-08-12T09:40:25.484Z</time>
      </trkpt>
      <trkpt lat="46.85577" lon="8.48843">
        <ele>2438</ele>
        <time>2021-08-12T09:40:26.484Z</time>
      </trkpt>
      <trkpt lat="46.85579" lon="8.48845">
        <ele>2437</ele>
        <time>2021-08-12T09:40:27.485Z</time>
      </trkpt>
      <trkpt lat="46.85579" lon="8.48845">
        <ele>2437</ele>
        <time>2021-08-12T09:40:28.484Z</time>
      </trkpt>
      <trkpt lat="46.85578" lon="8.48844">
        <ele>2438</ele>
        <time>2021-08-12T09:40:29.486Z</time>
      </trkpt>
      <trkpt lat="46.85578" lon="8.48843">
        <ele>2438</ele>
        <time>2021-08-12T09:40:30.486Z</time>
      </trkpt>
      <trkpt lat="46.85578" lon="8.48843">
        <ele>2437</ele>
        <time>2021-08-12T09:40:31.485Z</time>
      </trkpt>
      <trkpt lat="46.85578" lon="8.48843">
        <ele>2437</ele>
        <time>2021-08-12T09:40:32.486Z</time>
      </trkpt>
      <trkpt lat="46.85578" lon="8.48843">
        <ele>2437</ele>
        <time>2021-08-12T09:40:33.486Z</time>
      </trkpt>
      <trkpt lat="46.85578" lon="8.48843">
        <ele>2436</ele>
        <time>2021-08-12T09:40:34.485Z</time>
      </trkpt>
      <trkpt lat="46.85578" lon="8.48843">
        <ele>2436</ele>
        <time>2021-08-12T09:40:35.485Z</time>
      </trkpt>
      <trkpt lat="46.85577" lon="8.48843">
        <ele>2436</ele>
        <time>2021-08-12T09:40:36.486Z</time>
      </trkpt>
      <trkpt lat="46.85577" lon="8.48843">
        <ele>2435</ele>
        <time>2021-08-12T09:40:37.486Z</time>
      </trkpt>
      <trkpt lat="46.85576" lon="8.48844">
        <ele>2435</ele>
        <time>2021-08-12T09:40:38.485Z</time>
      </trkpt>
      <trkpt lat="46.85576" lon="8.48844">
        <ele>2435</ele>
        <time>2021-08-12T09:40:39.486Z</time>
      </trkpt>
      <trkpt lat="46.85575" lon="8.48843">
        <ele>2435</ele>
        <time>2021-08-12T09:40:40.486Z</time>
      </trkpt>
      <trkpt lat="46.85575" lon="8.48843">
        <ele>2435</ele>
        <time>2021-08-12T09:40:41.486Z</time>
      </trkpt>
      <trkpt lat="46.85574" lon="8.48843">
        <ele>2435</ele>
        <time>2021-08-12T09:40:42.486Z</time>
      </trkpt>
      <trkpt lat="46.85574" lon="8.48843">
        <ele>2435</ele>
        <time>2021-08-12T09:40:43.486Z</time>
      </trkpt>
      <trkpt lat="46.85574" lon="8.48843">
        <ele>2435</ele>
        <time>2021-08-12T09:40:44.485Z</time>
      </trkpt>
      <trkpt lat="46.85575" lon="8.48843">
        <ele>2437</ele>
        <time>2021-08-12T09:40:45.486Z</time>
      </trkpt>
      <trkpt lat="46.85576" lon="8.48846">
        <ele>2441</ele>
        <time>2021-08-12T09:40:46.487Z</time>
      </trkpt>
      <trkpt lat="46.85575" lon="8.48846">
        <ele>2441</ele>
        <time>2021-08-12T09:40:47.487Z</time>
      </trkpt>
      <trkpt lat="46.85574" lon="8.48846">
        <ele>2444</ele>
        <time>2021-08-12T09:40:48.487Z</time>
      </trkpt>
      <trkpt lat="46.85576" lon="8.48845">
        <ele>2448</ele>
        <time>2021-08-12T09:40:49.487Z</time>
      </trkpt>
      <trkpt lat="46.85577" lon="8.48844">
        <ele>2448</ele>
        <time>2021-08-12T09:40:50.486Z</time>
      </trkpt>
      <trkpt lat="46.85577" lon="8.48844">
        <ele>2449</ele>
        <time>2021-08-12T09:40:51.486Z</time>
      </trkpt>
      <trkpt lat="46.85577" lon="8.48843">
        <ele>2450</ele>
        <time>2021-08-12T09:40:52.486Z</time>
      </trkpt>
      <trkpt lat="46.85576" lon="8.48843">
        <ele>2450</ele>
        <time>2021-08-12T09:40:53.486Z</time>
      </trkpt>
      <trkpt lat="46.85576" lon="8.48843">
        <ele>2449</ele>
        <time>2021-08-12T09:40:54.486Z</time>
      </trkpt>
      <trkpt lat="46.85574" lon="8.48842">
        <ele>2443</ele>
        <time>2021-08-12T09:40:55.488Z</time>
      </trkpt>
      <trkpt lat="46.85573" lon="8.48841">
        <ele>2442</ele>
        <time>2021-08-12T09:40:56.489Z</time>
      </trkpt>
      <trkpt lat="46.85574" lon="8.48842">
        <ele>2441</ele>
        <time>2021-08-12T09:40:57.489Z</time>
      </trkpt>
      <trkpt lat="46.85574" lon="8.48842">
        <ele>2441</ele>
        <time>2021-08-12T09:40:58.490Z</time>
      </trkpt>
      <trkpt lat="46.85574" lon="8.48842">
        <ele>2441</ele>
        <time>2021-08-12T09:40:59.489Z</time>
      </trkpt>
      <trkpt lat="46.85573" lon="8.48842">
        <ele>2440</ele>
        <time>2021-08-12T09:41:00.491Z</time>
      </trkpt>
      <trkpt lat="46.85573" lon="8.48843">
        <ele>2441</ele>
        <time>2021-08-12T09:41:01.490Z</time>
      </trkpt>
      <trkpt lat="46.85574" lon="8.48844">
        <ele>2441</ele>
        <time>2021-08-12T09:41:02.490Z</time>
      </trkpt>
      <trkpt lat="46.85575" lon="8.48845">
        <ele>2442</ele>
        <time>2021-08-12T09:41:03.491Z</time>
      </trkpt>
      <trkpt lat="46.85576" lon="8.48845">
        <ele>2442</ele>
        <time>2021-08-12T09:41:04.491Z</time>
      </trkpt>
      <trkpt lat="46.85576" lon="8.48846">
        <ele>2443</ele>
        <time>2021-08-12T09:41:05.490Z</time>
      </trkpt>
      <trkpt lat="46.85576" lon="8.48846">
        <ele>2443</ele>
        <time>2021-08-12T09:41:06.490Z</time>
      </trkpt>
      <trkpt lat="46.85576" lon="8.48846">
        <ele>2444</ele>
        <time>2021-08-12T09:41:07.491Z</time>
      </trkpt>
      <trkpt lat="46.85576" lon="8.48846">
        <ele>2444</ele>
        <time>2021-08-12T09:41:08.490Z</time>
      </trkpt>
      <trkpt lat="46.85576" lon="8.48846">
        <ele>2444</ele>
        <time>2021-08-12T09:41:09.491Z</time>
      </trkpt>
      <trkpt lat="46.85576" lon="8.48847">
        <ele>2445</ele>
        <time>2021-08-12T09:41:10.491Z</time>
      </trkpt>
      <trkpt lat="46.85576" lon="8.48847">
        <ele>2445</ele>
        <time>2021-08-12T09:41:11.491Z</time>
      </trkpt>
      <trkpt lat="46.85576" lon="8.48847">
        <ele>2445</ele>
        <time>2021-08-12T09:41:12.491Z</time>
      </trkpt>
      <trkpt lat="46.85575" lon="8.48847">
        <ele>2439</ele>
        <time>2021-08-12T09:41:13.491Z</time>
      </trkpt>
      <trkpt lat="46.85576" lon="8.48847">
        <ele>2438</ele>
        <time>2021-08-12T09:41:14.491Z</time>
      </trkpt>
      <trkpt lat="46.85576" lon="8.48847">
        <ele>2438</ele>
        <time>2021-08-12T09:41:15.490Z</time>
      </trkpt>
      <trkpt lat="46.85576" lon="8.48847">
        <ele>2437</ele>
        <time>2021-08-12T09:41:16.491Z</time>
      </trkpt>
      <trkpt lat="46.85587" lon="8.48849">
        <ele>2429</ele>
        <time>2021-08-12T09:41:17.491Z</time>
      </trkpt>
      <trkpt lat="46.85587" lon="8.48849">
        <ele>2429</ele>
        <time>2021-08-12T09:41:18.491Z</time>
      </trkpt>
      <trkpt lat="46.85586" lon="8.48848">
        <ele>2429</ele>
        <time>2021-08-12T09:41:19.490Z</time>
      </trkpt>
      <trkpt lat="46.85586" lon="8.48848">
        <ele>2428</ele>
        <time>2021-08-12T09:41:20.491Z</time>
      </trkpt>
      <trkpt lat="46.85585" lon="8.48848">
        <ele>2428</ele>
        <time>2021-08-12T09:41:21.491Z</time>
      </trkpt>
      <trkpt lat="46.85584" lon="8.48847">
        <ele>2428</ele>
        <time>2021-08-12T09:41:22.492Z</time>
      </trkpt>
      <trkpt lat="46.85583" lon="8.48847">
        <ele>2428</ele>
        <time>2021-08-12T09:41:23.492Z</time>
      </trkpt>
      <trkpt lat="46.85583" lon="8.48847">
        <ele>2429</ele>
        <time>2021-08-12T09:41:24.492Z</time>
      </trkpt>
      <trkpt lat="46.85583" lon="8.48847">
        <ele>2430</ele>
        <time>2021-08-12T09:41:25.493Z</time>
      </trkpt>
      <trkpt lat="46.85584" lon="8.48852">
        <ele>2433</ele>
        <time>2021-08-12T09:41:26.492Z</time>
      </trkpt>
      <trkpt lat="46.85584" lon="8.48852">
        <ele>2434</ele>
        <time>2021-08-12T09:41:27.493Z</time>
      </trkpt>
      <trkpt lat="46.85584" lon="8.48852">
        <ele>2434</ele>
        <time>2021-08-12T09:41:28.492Z</time>
      </trkpt>
      <trkpt lat="46.85583" lon="8.48852">
        <ele>2435</ele>
        <time>2021-08-12T09:41:29.492Z</time>
      </trkpt>
      <trkpt lat="46.85583" lon="8.48852">
        <ele>2436</ele>
        <time>2021-08-12T09:41:30.493Z</time>
      </trkpt>
      <trkpt lat="46.85582" lon="8.48852">
        <ele>2436</ele>
        <time>2021-08-12T09:41:31.493Z</time>
      </trkpt>
      <trkpt lat="46.85584" lon="8.48853">
        <ele>2437</ele>
        <time>2021-08-12T09:41:32.493Z</time>
      </trkpt>
      <trkpt lat="46.85583" lon="8.48853">
        <ele>2437</ele>
        <time>2021-08-12T09:41:33.492Z</time>
      </trkpt>
      <trkpt lat="46.85583" lon="8.48853">
        <ele>2440</ele>
        <time>2021-08-12T09:41:34.493Z</time>
      </trkpt>
      <trkpt lat="46.85582" lon="8.48852">
        <ele>2441</ele>
        <time>2021-08-12T09:41:35.493Z</time>
      </trkpt>
      <trkpt lat="46.85581" lon="8.48851">
        <ele>2441</ele>
        <time>2021-08-12T09:41:36.493Z</time>
      </trkpt>
      <trkpt lat="46.85581" lon="8.48851">
        <ele>2441</ele>
        <time>2021-08-12T09:41:37.493Z</time>
      </trkpt>
      <trkpt lat="46.85581" lon="8.48851">
        <ele>2441</ele>
        <time>2021-08-12T09:41:38.494Z</time>
      </trkpt>
      <trkpt lat="46.85576" lon="8.4885">
        <ele>2444</ele>
        <time>2021-08-12T09:41:39.496Z</time>
      </trkpt>
      <trkpt lat="46.85576" lon="8.4885">
        <ele>2444</ele>
        <time>2021-08-12T09:41:40.495Z</time>
      </trkpt>
      <trkpt lat="46.85576" lon="8.4885">
        <ele>2444</ele>
        <time>2021-08-12T09:41:41.496Z</time>
      </trkpt>
      <trkpt lat="46.85572" lon="8.4885">
        <ele>2445</ele>
        <time>2021-08-12T09:41:42.495Z</time>
      </trkpt>
      <trkpt lat="46.85572" lon="8.4885">
        <ele>2445</ele>
        <time>2021-08-12T09:41:43.495Z</time>
      </trkpt>
      <trkpt lat="46.85571" lon="8.4885">
        <ele>2446</ele>
        <time>2021-08-12T09:41:44.496Z</time>
      </trkpt>
      <trkpt lat="46.8557" lon="8.4885">
        <ele>2446</ele>
        <time>2021-08-12T09:41:45.495Z</time>
      </trkpt>
      <trkpt lat="46.8557" lon="8.48851">
        <ele>2447</ele>
        <time>2021-08-12T09:41:46.496Z</time>
      </trkpt>
      <trkpt lat="46.8557" lon="8.48851">
        <ele>2447</ele>
        <time>2021-08-12T09:41:47.496Z</time>
      </trkpt>
      <trkpt lat="46.85569" lon="8.48851">
        <ele>2447</ele>
        <time>2021-08-12T09:41:48.496Z</time>
      </trkpt>
      <trkpt lat="46.85568" lon="8.48851">
        <ele>2447</ele>
        <time>2021-08-12T09:41:49.496Z</time>
      </trkpt>
      <trkpt lat="46.85568" lon="8.48851">
        <ele>2447</ele>
        <time>2021-08-12T09:41:50.496Z</time>
      </trkpt>
      <trkpt lat="46.85568" lon="8.48851">
        <ele>2447</ele>
        <time>2021-08-12T09:41:51.496Z</time>
      </trkpt>
      <trkpt lat="46.85566" lon="8.48851">
        <ele>2448</ele>
        <time>2021-08-12T09:41:52.497Z</time>
      </trkpt>
      <trkpt lat="46.85565" lon="8.48851">
        <ele>2449</ele>
        <time>2021-08-12T09:41:53.497Z</time>
      </trkpt>
      <trkpt lat="46.85564" lon="8.48851">
        <ele>2449</ele>
        <time>2021-08-12T09:41:54.497Z</time>
      </trkpt>
      <trkpt lat="46.85563" lon="8.48851">
        <ele>2450</ele>
        <time>2021-08-12T09:41:55.497Z</time>
      </trkpt>
      <trkpt lat="46.85562" lon="8.4885">
        <ele>2450</ele>
        <time>2021-08-12T09:41:56.497Z</time>
      </trkpt>
      <trkpt lat="46.85562" lon="8.48849">
        <ele>2450</ele>
        <time>2021-08-12T09:41:57.497Z</time>
      </trkpt>
      <trkpt lat="46.85563" lon="8.48847">
        <ele>2455</ele>
        <time>2021-08-12T09:41:58.498Z</time>
      </trkpt>
      <trkpt lat="46.85562" lon="8.48844">
        <ele>2450</ele>
        <time>2021-08-12T09:41:59.498Z</time>
      </trkpt>
      <trkpt lat="46.85562" lon="8.48843">
        <ele>2450</ele>
        <time>2021-08-12T09:42:00.498Z</time>
      </trkpt>
      <trkpt lat="46.85562" lon="8.48843">
        <ele>2451</ele>
        <time>2021-08-12T09:42:01.498Z</time>
      </trkpt>
      <trkpt lat="46.85562" lon="8.48841">
        <ele>2454</ele>
        <time>2021-08-12T09:42:02.500Z</time>
      </trkpt>
      <trkpt lat="46.85563" lon="8.48841">
        <ele>2454</ele>
        <time>2021-08-12T09:42:03.499Z</time>
      </trkpt>
      <trkpt lat="46.85564" lon="8.48843">
        <ele>2454</ele>
        <time>2021-08-12T09:42:04.499Z</time>
      </trkpt>
      <trkpt lat="46.85564" lon="8.48843">
        <ele>2455</ele>
        <time>2021-08-12T09:42:05.499Z</time>
      </trkpt>
      <trkpt lat="46.85563" lon="8.48843">
        <ele>2456</ele>
        <time>2021-08-12T09:42:06.500Z</time>
      </trkpt>
      <trkpt lat="46.85565" lon="8.48845">
        <ele>2451</ele>
        <time>2021-08-12T09:42:07.501Z</time>
      </trkpt>
      <trkpt lat="46.85565" lon="8.48845">
        <ele>2450</ele>
        <time>2021-08-12T09:42:08.501Z</time>
      </trkpt>
      <trkpt lat="46.85565" lon="8.48845">
        <ele>2449</ele>
        <time>2021-08-12T09:42:09.501Z</time>
      </trkpt>
      <trkpt lat="46.85566" lon="8.48845">
        <ele>2448</ele>
        <time>2021-08-12T09:42:10.500Z</time>
      </trkpt>
      <trkpt lat="46.85572" lon="8.48849">
        <ele>2448</ele>
        <time>2021-08-12T09:42:11.501Z</time>
      </trkpt>
      <trkpt lat="46.85572" lon="8.48849">
        <ele>2447</ele>
        <time>2021-08-12T09:42:12.500Z</time>
      </trkpt>
      <trkpt lat="46.8557" lon="8.48849">
        <ele>2449</ele>
        <time>2021-08-12T09:42:13.501Z</time>
      </trkpt>
      <trkpt lat="46.8557" lon="8.48849">
        <ele>2450</ele>
        <time>2021-08-12T09:42:14.500Z</time>
      </trkpt>
      <trkpt lat="46.85568" lon="8.48846">
        <ele>2456</ele>
        <time>2021-08-12T09:42:15.502Z</time>
      </trkpt>
      <trkpt lat="46.85568" lon="8.48845">
        <ele>2455</ele>
        <time>2021-08-12T09:42:16.502Z</time>
      </trkpt>
      <trkpt lat="46.85568" lon="8.48845">
        <ele>2455</ele>
        <time>2021-08-12T09:42:17.502Z</time>
      </trkpt>
      <trkpt lat="46.85563" lon="8.48843">
        <ele>2457</ele>
        <time>2021-08-12T09:42:18.501Z</time>
      </trkpt>
      <trkpt lat="46.85562" lon="8.48843">
        <ele>2457</ele>
        <time>2021-08-12T09:42:19.501Z</time>
      </trkpt>
      <trkpt lat="46.85561" lon="8.48843">
        <ele>2458</ele>
        <time>2021-08-12T09:42:20.501Z</time>
      </trkpt>
      <trkpt lat="46.8556" lon="8.48842">
        <ele>2458</ele>
        <time>2021-08-12T09:42:21.501Z</time>
      </trkpt>
      <trkpt lat="46.85559" lon="8.48842">
        <ele>2458</ele>
        <time>2021-08-12T09:42:22.501Z</time>
      </trkpt>
      <trkpt lat="46.85557" lon="8.48842">
        <ele>2459</ele>
        <time>2021-08-12T09:42:23.501Z</time>
      </trkpt>
      <trkpt lat="46.85555" lon="8.48841">
        <ele>2457</ele>
        <time>2021-08-12T09:42:24.502Z</time>
      </trkpt>
      <trkpt lat="46.85555" lon="8.48841">
        <ele>2458</ele>
        <time>2021-08-12T09:42:25.501Z</time>
      </trkpt>
      <trkpt lat="46.85557" lon="8.4884">
        <ele>2460</ele>
        <time>2021-08-12T09:42:26.501Z</time>
      </trkpt>
      <trkpt lat="46.85557" lon="8.4884">
        <ele>2460</ele>
        <time>2021-08-12T09:42:27.502Z</time>
      </trkpt>
      <trkpt lat="46.85557" lon="8.4884">
        <ele>2461</ele>
        <time>2021-08-12T09:42:28.501Z</time>
      </trkpt>
      <trkpt lat="46.85556" lon="8.48839">
        <ele>2462</ele>
        <time>2021-08-12T09:42:29.504Z</time>
      </trkpt>
      <trkpt lat="46.8555" lon="8.48837">
        <ele>2461</ele>
        <time>2021-08-12T09:42:30.505Z</time>
      </trkpt>
      <trkpt lat="46.85549" lon="8.48836">
        <ele>2461</ele>
        <time>2021-08-12T09:42:31.504Z</time>
      </trkpt>
      <trkpt lat="46.85549" lon="8.48836">
        <ele>2461</ele>
        <time>2021-08-12T09:42:32.504Z</time>
      </trkpt>
      <trkpt lat="46.85548" lon="8.48835">
        <ele>2460</ele>
        <time>2021-08-12T09:42:33.505Z</time>
      </trkpt>
      <trkpt lat="46.85547" lon="8.48835">
        <ele>2460</ele>
        <time>2021-08-12T09:42:34.505Z</time>
      </trkpt>
      <trkpt lat="46.85546" lon="8.48836">
        <ele>2460</ele>
        <time>2021-08-12T09:42:35.505Z</time>
      </trkpt>
      <trkpt lat="46.85545" lon="8.48835">
        <ele>2460</ele>
        <time>2021-08-12T09:42:36.505Z</time>
      </trkpt>
      <trkpt lat="46.85543" lon="8.48835">
        <ele>2460</ele>
        <time>2021-08-12T09:42:37.505Z</time>
      </trkpt>
      <trkpt lat="46.85543" lon="8.48835">
        <ele>2459</ele>
        <time>2021-08-12T09:42:38.504Z</time>
      </trkpt>
      <trkpt lat="46.85543" lon="8.48836">
        <ele>2459</ele>
        <time>2021-08-12T09:42:39.504Z</time>
      </trkpt>
      <trkpt lat="46.85543" lon="8.48836">
        <ele>2458</ele>
        <time>2021-08-12T09:42:40.505Z</time>
      </trkpt>
      <trkpt lat="46.85542" lon="8.48837">
        <ele>2458</ele>
        <time>2021-08-12T09:42:41.504Z</time>
      </trkpt>
      <trkpt lat="46.85542" lon="8.48837">
        <ele>2457</ele>
        <time>2021-08-12T09:42:42.504Z</time>
      </trkpt>
      <trkpt lat="46.85541" lon="8.48837">
        <ele>2457</ele>
        <time>2021-08-12T09:42:43.505Z</time>
      </trkpt>
      <trkpt lat="46.8554" lon="8.48837">
        <ele>2457</ele>
        <time>2021-08-12T09:42:44.505Z</time>
      </trkpt>
      <trkpt lat="46.8554" lon="8.48838">
        <ele>2457</ele>
        <time>2021-08-12T09:42:45.505Z</time>
      </trkpt>
      <trkpt lat="46.8554" lon="8.48838">
        <ele>2457</ele>
        <time>2021-08-12T09:42:46.505Z</time>
      </trkpt>
      <trkpt lat="46.85539" lon="8.48838">
        <ele>2457</ele>
        <time>2021-08-12T09:42:47.505Z</time>
      </trkpt>
      <trkpt lat="46.8554" lon="8.48839">
        <ele>2457</ele>
        <time>2021-08-12T09:42:48.504Z</time>
      </trkpt>
      <trkpt lat="46.8554" lon="8.4884">
        <ele>2457</ele>
        <time>2021-08-12T09:42:49.504Z</time>
      </trkpt>
      <trkpt lat="46.8554" lon="8.4884">
        <ele>2457</ele>
        <time>2021-08-12T09:42:50.505Z</time>
      </trkpt>
      <trkpt lat="46.8554" lon="8.48841">
        <ele>2456</ele>
        <time>2021-08-12T09:42:51.504Z</time>
      </trkpt>
      <trkpt lat="46.8554" lon="8.48841">
        <ele>2456</ele>
        <time>2021-08-12T09:42:52.504Z</time>
      </trkpt>
      <trkpt lat="46.8554" lon="8.48842">
        <ele>2455</ele>
        <time>2021-08-12T09:42:53.504Z</time>
      </trkpt>
      <trkpt lat="46.8554" lon="8.48842">
        <ele>2455</ele>
        <time>2021-08-12T09:42:54.504Z</time>
      </trkpt>
      <trkpt lat="46.8554" lon="8.48841">
        <ele>2453</ele>
        <time>2021-08-12T09:42:55.506Z</time>
      </trkpt>
      <trkpt lat="46.8554" lon="8.48841">
        <ele>2453</ele>
        <time>2021-08-12T09:42:56.506Z</time>
      </trkpt>
      <trkpt lat="46.85537" lon="8.48842">
        <ele>2453</ele>
        <time>2021-08-12T09:42:57.507Z</time>
      </trkpt>
      <trkpt lat="46.85537" lon="8.48842">
        <ele>2454</ele>
        <time>2021-08-12T09:42:58.506Z</time>
      </trkpt>
      <trkpt lat="46.85536" lon="8.48842">
        <ele>2454</ele>
        <time>2021-08-12T09:42:59.507Z</time>
      </trkpt>
      <trkpt lat="46.85536" lon="8.48843">
        <ele>2456</ele>
        <time>2021-08-12T09:43:00.507Z</time>
      </trkpt>
      <trkpt lat="46.85537" lon="8.48843">
        <ele>2456</ele>
        <time>2021-08-12T09:43:01.507Z</time>
      </trkpt>
      <trkpt lat="46.85537" lon="8.48843">
        <ele>2456</ele>
        <time>2021-08-12T09:43:02.507Z</time>
      </trkpt>
      <trkpt lat="46.85537" lon="8.48842">
        <ele>2456</ele>
        <time>2021-08-12T09:43:03.507Z</time>
      </trkpt>
      <trkpt lat="46.85537" lon="8.48841">
        <ele>2456</ele>
        <time>2021-08-12T09:43:04.507Z</time>
      </trkpt>
      <trkpt lat="46.85537" lon="8.48841">
        <ele>2456</ele>
        <time>2021-08-12T09:43:05.507Z</time>
      </trkpt>
      <trkpt lat="46.85537" lon="8.4884">
        <ele>2452</ele>
        <time>2021-08-12T09:43:06.508Z</time>
      </trkpt>
      <trkpt lat="46.85536" lon="8.4884">
        <ele>2451</ele>
        <time>2021-08-12T09:43:07.507Z</time>
      </trkpt>
      <trkpt lat="46.85535" lon="8.4884">
        <ele>2450</ele>
        <time>2021-08-12T09:43:08.507Z</time>
      </trkpt>
      <trkpt lat="46.85533" lon="8.4884">
        <ele>2445</ele>
        <time>2021-08-12T09:43:09.507Z</time>
      </trkpt>
      <trkpt lat="46.85532" lon="8.4884">
        <ele>2445</ele>
        <time>2021-08-12T09:43:10.508Z</time>
      </trkpt>
      <trkpt lat="46.85532" lon="8.4884">
        <ele>2444</ele>
        <time>2021-08-12T09:43:11.508Z</time>
      </trkpt>
      <trkpt lat="46.85531" lon="8.48841">
        <ele>2444</ele>
        <time>2021-08-12T09:43:12.507Z</time>
      </trkpt>
      <trkpt lat="46.85531" lon="8.48841">
        <ele>2443</ele>
        <time>2021-08-12T09:43:13.508Z</time>
      </trkpt>
      <trkpt lat="46.8553" lon="8.48841">
        <ele>2442</ele>
        <time>2021-08-12T09:43:14.508Z</time>
      </trkpt>
      <trkpt lat="46.8553" lon="8.48841">
        <ele>2442</ele>
        <time>2021-08-12T09:43:15.508Z</time>
      </trkpt>
      <trkpt lat="46.85529" lon="8.48841">
        <ele>2442</ele>
        <time>2021-08-12T09:43:16.508Z</time>
      </trkpt>
      <trkpt lat="46.85527" lon="8.48841">
        <ele>2443</ele>
        <time>2021-08-12T09:43:17.507Z</time>
      </trkpt>
      <trkpt lat="46.85526" lon="8.48841">
        <ele>2443</ele>
        <time>2021-08-12T09:43:18.509Z</time>
      </trkpt>
      <trkpt lat="46.85525" lon="8.48841">
        <ele>2443</ele>
        <time>2021-08-12T09:43:19.509Z</time>
      </trkpt>
      <trkpt lat="46.85525" lon="8.4884">
        <ele>2445</ele>
        <time>2021-08-12T09:43:20.509Z</time>
      </trkpt>
      <trkpt lat="46.85527" lon="8.48841">
        <ele>2445</ele>
        <time>2021-08-12T09:43:21.510Z</time>
      </trkpt>
      <trkpt lat="46.85529" lon="8.48841">
        <ele>2446</ele>
        <time>2021-08-12T09:43:22.509Z</time>
      </trkpt>
      <trkpt lat="46.85531" lon="8.48843">
        <ele>2446</ele>
        <time>2021-08-12T09:43:23.510Z</time>
      </trkpt>
      <trkpt lat="46.85531" lon="8.48843">
        <ele>2446</ele>
        <time>2021-08-12T09:43:24.510Z</time>
      </trkpt>
      <trkpt lat="46.85531" lon="8.48843">
        <ele>2446</ele>
        <time>2021-08-12T09:43:25.510Z</time>
      </trkpt>
      <trkpt lat="46.85534" lon="8.4884">
        <ele>2454</ele>
        <time>2021-08-12T09:43:26.510Z</time>
      </trkpt>
      <trkpt lat="46.85534" lon="8.48839">
        <ele>2454</ele>
        <time>2021-08-12T09:43:27.511Z</time>
      </trkpt>
      <trkpt lat="46.85535" lon="8.48839">
        <ele>2455</ele>
        <time>2021-08-12T09:43:28.510Z</time>
      </trkpt>
      <trkpt lat="46.85535" lon="8.48838">
        <ele>2455</ele>
        <time>2021-08-12T09:43:29.510Z</time>
      </trkpt>
      <trkpt lat="46.85535" lon="8.48836">
        <ele>2455</ele>
        <time>2021-08-12T09:43:30.511Z</time>
      </trkpt>
      <trkpt lat="46.85535" lon="8.48836">
        <ele>2455</ele>
        <time>2021-08-12T09:43:31.510Z</time>
      </trkpt>
      <trkpt lat="46.85536" lon="8.48836">
        <ele>2455</ele>
        <time>2021-08-12T09:43:32.511Z</time>
      </trkpt>
      <trkpt lat="46.85537" lon="8.48835">
        <ele>2456</ele>
        <time>2021-08-12T09:43:33.511Z</time>
      </trkpt>
      <trkpt lat="46.85538" lon="8.48835">
        <ele>2456</ele>
        <time>2021-08-12T09:43:34.511Z</time>
      </trkpt>
      <trkpt lat="46.85537" lon="8.48834">
        <ele>2456</ele>
        <time>2021-08-12T09:43:35.511Z</time>
      </trkpt>
      <trkpt lat="46.85536" lon="8.48834">
        <ele>2456</ele>
        <time>2021-08-12T09:43:36.511Z</time>
      </trkpt>
      <trkpt lat="46.85534" lon="8.48832">
        <ele>2457</ele>
        <time>2021-08-12T09:43:37.510Z</time>
      </trkpt>
      <trkpt lat="46.85533" lon="8.48831">
        <ele>2457</ele>
        <time>2021-08-12T09:43:38.511Z</time>
      </trkpt>
      <trkpt lat="46.85532" lon="8.48831">
        <ele>2457</ele>
        <time>2021-08-12T09:43:39.511Z</time>
      </trkpt>
      <trkpt lat="46.85532" lon="8.48831">
        <ele>2457</ele>
        <time>2021-08-12T09:43:40.511Z</time>
      </trkpt>
      <trkpt lat="46.85531" lon="8.4883">
        <ele>2457</ele>
        <time>2021-08-12T09:43:41.511Z</time>
      </trkpt>
      <trkpt lat="46.8553" lon="8.4883">
        <ele>2457</ele>
        <time>2021-08-12T09:43:42.510Z</time>
      </trkpt>
      <trkpt lat="46.85529" lon="8.48829">
        <ele>2457</ele>
        <time>2021-08-12T09:43:43.511Z</time>
      </trkpt>
      <trkpt lat="46.85529" lon="8.48829">
        <ele>2457</ele>
        <time>2021-08-12T09:43:44.510Z</time>
      </trkpt>
      <trkpt lat="46.85529" lon="8.48828">
        <ele>2457</ele>
        <time>2021-08-12T09:43:45.511Z</time>
      </trkpt>
      <trkpt lat="46.85529" lon="8.48828">
        <ele>2457</ele>
        <time>2021-08-12T09:43:46.510Z</time>
      </trkpt>
      <trkpt lat="46.85529" lon="8.48828">
        <ele>2457</ele>
        <time>2021-08-12T09:43:47.510Z</time>
      </trkpt>
      <trkpt lat="46.85529" lon="8.48827">
        <ele>2457</ele>
        <time>2021-08-12T09:43:48.510Z</time>
      </trkpt>
      <trkpt lat="46.85528" lon="8.48827">
        <ele>2457</ele>
        <time>2021-08-12T09:43:49.510Z</time>
      </trkpt>
      <trkpt lat="46.85528" lon="8.48826">
        <ele>2457</ele>
        <time>2021-08-12T09:43:50.510Z</time>
      </trkpt>
      <trkpt lat="46.85527" lon="8.48826">
        <ele>2457</ele>
        <time>2021-08-12T09:43:51.511Z</time>
      </trkpt>
      <trkpt lat="46.85527" lon="8.48826">
        <ele>2457</ele>
        <time>2021-08-12T09:43:52.510Z</time>
      </trkpt>
      <trkpt lat="46.85526" lon="8.48825">
        <ele>2457</ele>
        <time>2021-08-12T09:43:53.511Z</time>
      </trkpt>
      <trkpt lat="46.85527" lon="8.48825">
        <ele>2458</ele>
        <time>2021-08-12T09:43:54.511Z</time>
      </trkpt>
      <trkpt lat="46.85526" lon="8.48825">
        <ele>2458</ele>
        <time>2021-08-12T09:43:55.511Z</time>
      </trkpt>
      <trkpt lat="46.85526" lon="8.48824">
        <ele>2459</ele>
        <time>2021-08-12T09:43:56.511Z</time>
      </trkpt>
      <trkpt lat="46.85526" lon="8.48824">
        <ele>2459</ele>
        <time>2021-08-12T09:43:57.510Z</time>
      </trkpt>
      <trkpt lat="46.85526" lon="8.48823">
        <ele>2460</ele>
        <time>2021-08-12T09:43:58.510Z</time>
      </trkpt>
      <trkpt lat="46.85527" lon="8.48823">
        <ele>2460</ele>
        <time>2021-08-12T09:43:59.511Z</time>
      </trkpt>
      <trkpt lat="46.85527" lon="8.48823">
        <ele>2460</ele>
        <time>2021-08-12T09:44:00.512Z</time>
      </trkpt>
      <trkpt lat="46.85527" lon="8.48821">
        <ele>2463</ele>
        <time>2021-08-12T09:44:01.512Z</time>
      </trkpt>
      <trkpt lat="46.85527" lon="8.48821">
        <ele>2464</ele>
        <time>2021-08-12T09:44:02.512Z</time>
      </trkpt>
      <trkpt lat="46.85526" lon="8.4882">
        <ele>2464</ele>
        <time>2021-08-12T09:44:03.511Z</time>
      </trkpt>
      <trkpt lat="46.85526" lon="8.4882">
        <ele>2464</ele>
        <time>2021-08-12T09:44:04.512Z</time>
      </trkpt>
      <trkpt lat="46.85526" lon="8.48819">
        <ele>2464</ele>
        <time>2021-08-12T09:44:05.512Z</time>
      </trkpt>
      <trkpt lat="46.85526" lon="8.48819">
        <ele>2465</ele>
        <time>2021-08-12T09:44:06.511Z</time>
      </trkpt>
      <trkpt lat="46.85525" lon="8.48819">
        <ele>2465</ele>
        <time>2021-08-12T09:44:07.512Z</time>
      </trkpt>
      <trkpt lat="46.85525" lon="8.48818">
        <ele>2465</ele>
        <time>2021-08-12T09:44:08.512Z</time>
      </trkpt>
      <trkpt lat="46.85525" lon="8.48818">
        <ele>2465</ele>
        <time>2021-08-12T09:44:09.512Z</time>
      </trkpt>
      <trkpt lat="46.85525" lon="8.48818">
        <ele>2465</ele>
        <time>2021-08-12T09:44:10.512Z</time>
      </trkpt>
      <trkpt lat="46.85524" lon="8.48818">
        <ele>2465</ele>
        <time>2021-08-12T09:44:11.512Z</time>
      </trkpt>
      <trkpt lat="46.85524" lon="8.4882">
        <ele>2466</ele>
        <time>2021-08-12T09:44:12.513Z</time>
      </trkpt>
      <trkpt lat="46.85524" lon="8.48821">
        <ele>2467</ele>
        <time>2021-08-12T09:44:13.513Z</time>
      </trkpt>
      <trkpt lat="46.85524" lon="8.4882">
        <ele>2467</ele>
        <time>2021-08-12T09:44:14.512Z</time>
      </trkpt>
      <trkpt lat="46.85524" lon="8.48819">
        <ele>2467</ele>
        <time>2021-08-12T09:44:15.513Z</time>
      </trkpt>
      <trkpt lat="46.85523" lon="8.48818">
        <ele>2467</ele>
        <time>2021-08-12T09:44:16.513Z</time>
      </trkpt>
      <trkpt lat="46.85523" lon="8.48817">
        <ele>2467</ele>
        <time>2021-08-12T09:44:17.513Z</time>
      </trkpt>
      <trkpt lat="46.85522" lon="8.48816">
        <ele>2467</ele>
        <time>2021-08-12T09:44:18.513Z</time>
      </trkpt>
      <trkpt lat="46.85522" lon="8.48816">
        <ele>2467</ele>
        <time>2021-08-12T09:44:19.513Z</time>
      </trkpt>
      <trkpt lat="46.85521" lon="8.48817">
        <ele>2467</ele>
        <time>2021-08-12T09:44:20.512Z</time>
      </trkpt>
      <trkpt lat="46.85521" lon="8.48817">
        <ele>2467</ele>
        <time>2021-08-12T09:44:21.513Z</time>
      </trkpt>
      <trkpt lat="46.8552" lon="8.48817">
        <ele>2467</ele>
        <time>2021-08-12T09:44:22.512Z</time>
      </trkpt>
      <trkpt lat="46.85519" lon="8.48818">
        <ele>2467</ele>
        <time>2021-08-12T09:44:23.513Z</time>
      </trkpt>
      <trkpt lat="46.85519" lon="8.48818">
        <ele>2467</ele>
        <time>2021-08-12T09:44:24.513Z</time>
      </trkpt>
      <trkpt lat="46.85519" lon="8.48818">
        <ele>2467</ele>
        <time>2021-08-12T09:44:25.513Z</time>
      </trkpt>
      <trkpt lat="46.85514" lon="8.48814">
        <ele>2466</ele>
        <time>2021-08-12T09:44:26.390Z</time>
      </trkpt>
      <trkpt lat="46.85513" lon="8.48814">
        <ele>2465</ele>
        <time>2021-08-12T09:44:27.390Z</time>
      </trkpt>
      <trkpt lat="46.85513" lon="8.48813">
        <ele>2465</ele>
        <time>2021-08-12T09:44:28.389Z</time>
      </trkpt>
      <trkpt lat="46.85514" lon="8.48814">
        <ele>2463</ele>
        <time>2021-08-12T09:44:29.390Z</time>
      </trkpt>
      <trkpt lat="46.85513" lon="8.48814">
        <ele>2462</ele>
        <time>2021-08-12T09:44:30.390Z</time>
      </trkpt>
      <trkpt lat="46.85512" lon="8.48812">
        <ele>2457</ele>
        <time>2021-08-12T09:44:31.389Z</time>
      </trkpt>
      <trkpt lat="46.85511" lon="8.48811">
        <ele>2457</ele>
        <time>2021-08-12T09:44:32.390Z</time>
      </trkpt>
      <trkpt lat="46.85509" lon="8.48809">
        <ele>2456</ele>
        <time>2021-08-12T09:44:33.390Z</time>
      </trkpt>
      <trkpt lat="46.85507" lon="8.48808">
        <ele>2455</ele>
        <time>2021-08-12T09:44:34.389Z</time>
      </trkpt>
      <trkpt lat="46.85506" lon="8.48808">
        <ele>2455</ele>
        <time>2021-08-12T09:44:35.389Z</time>
      </trkpt>
      <trkpt lat="46.85505" lon="8.48808">
        <ele>2454</ele>
        <time>2021-08-12T09:44:36.389Z</time>
      </trkpt>
      <trkpt lat="46.85505" lon="8.48808">
        <ele>2454</ele>
        <time>2021-08-12T09:44:37.389Z</time>
      </trkpt>
      <trkpt lat="46.85505" lon="8.48808">
        <ele>2454</ele>
        <time>2021-08-12T09:44:38.390Z</time>
      </trkpt>
      <trkpt lat="46.85504" lon="8.48807">
        <ele>2452</ele>
        <time>2021-08-12T09:44:39.391Z</time>
      </trkpt>
      <trkpt lat="46.85504" lon="8.48807">
        <ele>2451</ele>
        <time>2021-08-12T09:44:40.391Z</time>
      </trkpt>
      <trkpt lat="46.85504" lon="8.48807">
        <ele>2450</ele>
        <time>2021-08-12T09:44:41.391Z</time>
      </trkpt>
      <trkpt lat="46.85505" lon="8.48808">
        <ele>2450</ele>
        <time>2021-08-12T09:44:42.391Z</time>
      </trkpt>
      <trkpt lat="46.85504" lon="8.48809">
        <ele>2450</ele>
        <time>2021-08-12T09:44:43.391Z</time>
      </trkpt>
      <trkpt lat="46.85504" lon="8.4881">
        <ele>2450</ele>
        <time>2021-08-12T09:44:44.390Z</time>
      </trkpt>
      <trkpt lat="46.85504" lon="8.48811">
        <ele>2450</ele>
        <time>2021-08-12T09:44:45.390Z</time>
      </trkpt>
      <trkpt lat="46.85504" lon="8.48811">
        <ele>2451</ele>
        <time>2021-08-12T09:44:46.390Z</time>
      </trkpt>
      <trkpt lat="46.85503" lon="8.48812">
        <ele>2451</ele>
        <time>2021-08-12T09:44:47.391Z</time>
      </trkpt>
      <trkpt lat="46.85503" lon="8.48813">
        <ele>2453</ele>
        <time>2021-08-12T09:44:48.390Z</time>
      </trkpt>
      <trkpt lat="46.85504" lon="8.48814">
        <ele>2453</ele>
        <time>2021-08-12T09:44:49.391Z</time>
      </trkpt>
      <trkpt lat="46.85504" lon="8.48815">
        <ele>2454</ele>
        <time>2021-08-12T09:44:50.390Z</time>
      </trkpt>
      <trkpt lat="46.85511" lon="8.48824">
        <ele>2473</ele>
        <time>2021-08-12T09:44:51.391Z</time>
      </trkpt>
      <trkpt lat="46.8551" lon="8.48823">
        <ele>2473</ele>
        <time>2021-08-12T09:44:52.390Z</time>
      </trkpt>
      <trkpt lat="46.85509" lon="8.48824">
        <ele>2473</ele>
        <time>2021-08-12T09:44:53.390Z</time>
      </trkpt>
      <trkpt lat="46.85509" lon="8.48824">
        <ele>2472</ele>
        <time>2021-08-12T09:44:54.390Z</time>
      </trkpt>
      <trkpt lat="46.85509" lon="8.48825">
        <ele>2472</ele>
        <time>2021-08-12T09:44:55.390Z</time>
      </trkpt>
      <trkpt lat="46.85508" lon="8.48825">
        <ele>2471</ele>
        <time>2021-08-12T09:44:56.391Z</time>
      </trkpt>
      <trkpt lat="46.85508" lon="8.48825">
        <ele>2471</ele>
        <time>2021-08-12T09:44:57.391Z</time>
      </trkpt>
      <trkpt lat="46.85506" lon="8.48825">
        <ele>2468</ele>
        <time>2021-08-12T09:44:58.392Z</time>
      </trkpt>
      <trkpt lat="46.85506" lon="8.48826">
        <ele>2469</ele>
        <time>2021-08-12T09:44:59.391Z</time>
      </trkpt>
      <trkpt lat="46.85507" lon="8.48827">
        <ele>2472</ele>
        <time>2021-08-12T09:45:00.393Z</time>
      </trkpt>
      <trkpt lat="46.85507" lon="8.48827">
        <ele>2473</ele>
        <time>2021-08-12T09:45:01.393Z</time>
      </trkpt>
      <trkpt lat="46.85507" lon="8.48827">
        <ele>2473</ele>
        <time>2021-08-12T09:45:02.393Z</time>
      </trkpt>
      <trkpt lat="46.85509" lon="8.48827">
        <ele>2478</ele>
        <time>2021-08-12T09:45:03.394Z</time>
      </trkpt>
      <trkpt lat="46.85509" lon="8.48828">
        <ele>2479</ele>
        <time>2021-08-12T09:45:04.394Z</time>
      </trkpt>
      <trkpt lat="46.85509" lon="8.48828">
        <ele>2479</ele>
        <time>2021-08-12T09:45:05.394Z</time>
      </trkpt>
      <trkpt lat="46.8551" lon="8.48825">
        <ele>2474</ele>
        <time>2021-08-12T09:45:06.394Z</time>
      </trkpt>
      <trkpt lat="46.85511" lon="8.48824">
        <ele>2473</ele>
        <time>2021-08-12T09:45:07.394Z</time>
      </trkpt>
      <trkpt lat="46.85511" lon="8.48823">
        <ele>2473</ele>
        <time>2021-08-12T09:45:08.394Z</time>
      </trkpt>
      <trkpt lat="46.85512" lon="8.48823">
        <ele>2472</ele>
        <time>2021-08-12T09:45:09.395Z</time>
      </trkpt>
      <trkpt lat="46.85512" lon="8.48822">
        <ele>2472</ele>
        <time>2021-08-12T09:45:10.394Z</time>
      </trkpt>
      <trkpt lat="46.85513" lon="8.48821">
        <ele>2472</ele>
        <time>2021-08-12T09:45:11.395Z</time>
      </trkpt>
      <trkpt lat="46.85514" lon="8.48821">
        <ele>2472</ele>
        <time>2021-08-12T09:45:12.394Z</time>
      </trkpt>
      <trkpt lat="46.85514" lon="8.48821">
        <ele>2471</ele>
        <time>2021-08-12T09:45:13.394Z</time>
      </trkpt>
      <trkpt lat="46.85515" lon="8.4882">
        <ele>2471</ele>
        <time>2021-08-12T09:45:14.395Z</time>
      </trkpt>
      <trkpt lat="46.85515" lon="8.48818">
        <ele>2471</ele>
        <time>2021-08-12T09:45:15.394Z</time>
      </trkpt>
      <trkpt lat="46.85516" lon="8.48817">
        <ele>2471</ele>
        <time>2021-08-12T09:45:16.395Z</time>
      </trkpt>
      <trkpt lat="46.85516" lon="8.48816">
        <ele>2470</ele>
        <time>2021-08-12T09:45:17.395Z</time>
      </trkpt>
      <trkpt lat="46.85515" lon="8.48816">
        <ele>2470</ele>
        <time>2021-08-12T09:45:18.395Z</time>
      </trkpt>
      <trkpt lat="46.85515" lon="8.48815">
        <ele>2470</ele>
        <time>2021-08-12T09:45:19.394Z</time>
      </trkpt>
      <trkpt lat="46.85515" lon="8.48814">
        <ele>2471</ele>
        <time>2021-08-12T09:45:20.394Z</time>
      </trkpt>
      <trkpt lat="46.85515" lon="8.48814">
        <ele>2471</ele>
        <time>2021-08-12T09:45:21.395Z</time>
      </trkpt>
      <trkpt lat="46.85515" lon="8.48813">
        <ele>2471</ele>
        <time>2021-08-12T09:45:22.395Z</time>
      </trkpt>
      <trkpt lat="46.85515" lon="8.48812">
        <ele>2471</ele>
        <time>2021-08-12T09:45:23.395Z</time>
      </trkpt>
      <trkpt lat="46.85515" lon="8.48812">
        <ele>2471</ele>
        <time>2021-08-12T09:45:24.395Z</time>
      </trkpt>
      <trkpt lat="46.85515" lon="8.48812">
        <ele>2471</ele>
        <time>2021-08-12T09:45:25.395Z</time>
      </trkpt>
      <trkpt lat="46.85514" lon="8.48811">
        <ele>2471</ele>
        <time>2021-08-12T09:45:26.395Z</time>
      </trkpt>
      <trkpt lat="46.85514" lon="8.48811">
        <ele>2471</ele>
        <time>2021-08-12T09:45:27.394Z</time>
      </trkpt>
      <trkpt lat="46.85514" lon="8.4881">
        <ele>2471</ele>
        <time>2021-08-12T09:45:28.394Z</time>
      </trkpt>
      <trkpt lat="46.85514" lon="8.4881">
        <ele>2471</ele>
        <time>2021-08-12T09:45:29.394Z</time>
      </trkpt>
      <trkpt lat="46.85514" lon="8.48809">
        <ele>2472</ele>
        <time>2021-08-12T09:45:30.394Z</time>
      </trkpt>
      <trkpt lat="46.85514" lon="8.48809">
        <ele>2472</ele>
        <time>2021-08-12T09:45:31.394Z</time>
      </trkpt>
      <trkpt lat="46.85514" lon="8.48808">
        <ele>2473</ele>
        <time>2021-08-12T09:45:32.394Z</time>
      </trkpt>
      <trkpt lat="46.85515" lon="8.48806">
        <ele>2476</ele>
        <time>2021-08-12T09:45:33.395Z</time>
      </trkpt>
      <trkpt lat="46.85511" lon="8.48805">
        <ele>2478</ele>
        <time>2021-08-12T09:45:34.395Z</time>
      </trkpt>
      <trkpt lat="46.85511" lon="8.48805">
        <ele>2479</ele>
        <time>2021-08-12T09:45:35.394Z</time>
      </trkpt>
      <trkpt lat="46.85511" lon="8.48805">
        <ele>2480</ele>
        <time>2021-08-12T09:45:36.394Z</time>
      </trkpt>
      <trkpt lat="46.8551" lon="8.48804">
        <ele>2482</ele>
        <time>2021-08-12T09:45:37.395Z</time>
      </trkpt>
      <trkpt lat="46.85509" lon="8.48804">
        <ele>2482</ele>
        <time>2021-08-12T09:45:38.396Z</time>
      </trkpt>
      <trkpt lat="46.85509" lon="8.48804">
        <ele>2482</ele>
        <time>2021-08-12T09:45:39.395Z</time>
      </trkpt>
      <trkpt lat="46.85508" lon="8.48805">
        <ele>2482</ele>
        <time>2021-08-12T09:45:40.395Z</time>
      </trkpt>
      <trkpt lat="46.85507" lon="8.48805">
        <ele>2482</ele>
        <time>2021-08-12T09:45:41.396Z</time>
      </trkpt>
      <trkpt lat="46.85506" lon="8.48805">
        <ele>2481</ele>
        <time>2021-08-12T09:45:42.396Z</time>
      </trkpt>
      <trkpt lat="46.85506" lon="8.48805">
        <ele>2481</ele>
        <time>2021-08-12T09:45:43.396Z</time>
      </trkpt>
      <trkpt lat="46.85506" lon="8.48806">
        <ele>2480</ele>
        <time>2021-08-12T09:45:44.396Z</time>
      </trkpt>
      <trkpt lat="46.85505" lon="8.48806">
        <ele>2480</ele>
        <time>2021-08-12T09:45:45.396Z</time>
      </trkpt>
      <trkpt lat="46.85506" lon="8.48808">
        <ele>2479</ele>
        <time>2021-08-12T09:45:46.395Z</time>
      </trkpt>
      <trkpt lat="46.85506" lon="8.48808">
        <ele>2479</ele>
        <time>2021-08-12T09:45:47.396Z</time>
      </trkpt>
      <trkpt lat="46.85505" lon="8.48808">
        <ele>2478</ele>
        <time>2021-08-12T09:45:48.396Z</time>
      </trkpt>
      <trkpt lat="46.85505" lon="8.48807">
        <ele>2477</ele>
        <time>2021-08-12T09:45:49.396Z</time>
      </trkpt>
      <trkpt lat="46.85504" lon="8.48807">
        <ele>2476</ele>
        <time>2021-08-12T09:45:50.395Z</time>
      </trkpt>
      <trkpt lat="46.85504" lon="8.48807">
        <ele>2475</ele>
        <time>2021-08-12T09:45:51.395Z</time>
      </trkpt>
      <trkpt lat="46.85503" lon="8.48807">
        <ele>2474</ele>
        <time>2021-08-12T09:45:52.395Z</time>
      </trkpt>
      <trkpt lat="46.85503" lon="8.48807">
        <ele>2473</ele>
        <time>2021-08-12T09:45:53.396Z</time>
      </trkpt>
      <trkpt lat="46.85502" lon="8.48807">
        <ele>2472</ele>
        <time>2021-08-12T09:45:54.396Z</time>
      </trkpt>
      <trkpt lat="46.85502" lon="8.48807">
        <ele>2472</ele>
        <time>2021-08-12T09:45:55.396Z</time>
      </trkpt>
      <trkpt lat="46.85501" lon="8.48807">
        <ele>2471</ele>
        <time>2021-08-12T09:45:56.396Z</time>
      </trkpt>
      <trkpt lat="46.855" lon="8.48805">
        <ele>2465</ele>
        <time>2021-08-12T09:45:57.396Z</time>
      </trkpt>
      <trkpt lat="46.85499" lon="8.48805">
        <ele>2463</ele>
        <time>2021-08-12T09:45:58.396Z</time>
      </trkpt>
      <trkpt lat="46.85499" lon="8.48805">
        <ele>2464</ele>
        <time>2021-08-12T09:45:59.395Z</time>
      </trkpt>
      <trkpt lat="46.85499" lon="8.48805">
        <ele>2464</ele>
        <time>2021-08-12T09:46:00.396Z</time>
      </trkpt>
      <trkpt lat="46.85499" lon="8.48807">
        <ele>2468</ele>
        <time>2021-08-12T09:46:01.395Z</time>
      </trkpt>
      <trkpt lat="46.85502" lon="8.48811">
        <ele>2474</ele>
        <time>2021-08-12T09:46:02.395Z</time>
      </trkpt>
      <trkpt lat="46.85502" lon="8.48811">
        <ele>2475</ele>
        <time>2021-08-12T09:46:03.396Z</time>
      </trkpt>
      <trkpt lat="46.85501" lon="8.48811">
        <ele>2475</ele>
        <time>2021-08-12T09:46:04.395Z</time>
      </trkpt>
      <trkpt lat="46.85501" lon="8.48812">
        <ele>2475</ele>
        <time>2021-08-12T09:46:05.396Z</time>
      </trkpt>
      <trkpt lat="46.85501" lon="8.48812">
        <ele>2476</ele>
        <time>2021-08-12T09:46:06.395Z</time>
      </trkpt>
      <trkpt lat="46.85501" lon="8.48813">
        <ele>2476</ele>
        <time>2021-08-12T09:46:07.395Z</time>
      </trkpt>
      <trkpt lat="46.855" lon="8.48814">
        <ele>2477</ele>
        <time>2021-08-12T09:46:08.396Z</time>
      </trkpt>
      <trkpt lat="46.855" lon="8.48814">
        <ele>2477</ele>
        <time>2021-08-12T09:46:09.396Z</time>
      </trkpt>
      <trkpt lat="46.855" lon="8.48815">
        <ele>2477</ele>
        <time>2021-08-12T09:46:10.395Z</time>
      </trkpt>
      <trkpt lat="46.85499" lon="8.48815">
        <ele>2477</ele>
        <time>2021-08-12T09:46:11.396Z</time>
      </trkpt>
      <trkpt lat="46.85499" lon="8.48815">
        <ele>2477</ele>
        <time>2021-08-12T09:46:12.396Z</time>
      </trkpt>
      <trkpt lat="46.85498" lon="8.48815">
        <ele>2477</ele>
        <time>2021-08-12T09:46:13.396Z</time>
      </trkpt>
      <trkpt lat="46.85497" lon="8.48815">
        <ele>2476</ele>
        <time>2021-08-12T09:46:14.396Z</time>
      </trkpt>
      <trkpt lat="46.85497" lon="8.48816">
        <ele>2475</ele>
        <time>2021-08-12T09:46:15.395Z</time>
      </trkpt>
      <trkpt lat="46.85497" lon="8.48817">
        <ele>2475</ele>
        <time>2021-08-12T09:46:16.396Z</time>
      </trkpt>
      <trkpt lat="46.85497" lon="8.48817">
        <ele>2475</ele>
        <time>2021-08-12T09:46:17.396Z</time>
      </trkpt>
      <trkpt lat="46.85498" lon="8.48818">
        <ele>2474</ele>
        <time>2021-08-12T09:46:18.396Z</time>
      </trkpt>
      <trkpt lat="46.85498" lon="8.48819">
        <ele>2474</ele>
        <time>2021-08-12T09:46:19.396Z</time>
      </trkpt>
      <trkpt lat="46.85498" lon="8.4882">
        <ele>2473</ele>
        <time>2021-08-12T09:46:20.396Z</time>
      </trkpt>
      <trkpt lat="46.85498" lon="8.4882">
        <ele>2473</ele>
        <time>2021-08-12T09:46:21.396Z</time>
      </trkpt>
      <trkpt lat="46.85497" lon="8.4882">
        <ele>2472</ele>
        <time>2021-08-12T09:46:22.395Z</time>
      </trkpt>
      <trkpt lat="46.85497" lon="8.4882">
        <ele>2471</ele>
        <time>2021-08-12T09:46:23.395Z</time>
      </trkpt>
      <trkpt lat="46.85496" lon="8.4882">
        <ele>2471</ele>
        <time>2021-08-12T09:46:24.395Z</time>
      </trkpt>
      <trkpt lat="46.85496" lon="8.4882">
        <ele>2470</ele>
        <time>2021-08-12T09:46:25.396Z</time>
      </trkpt>
      <trkpt lat="46.85495" lon="8.48819">
        <ele>2469</ele>
        <time>2021-08-12T09:46:26.396Z</time>
      </trkpt>
      <trkpt lat="46.85497" lon="8.48821">
        <ele>2478</ele>
        <time>2021-08-12T09:46:27.397Z</time>
      </trkpt>
      <trkpt lat="46.85497" lon="8.48821">
        <ele>2477</ele>
        <time>2021-08-12T09:46:28.396Z</time>
      </trkpt>
      <trkpt lat="46.85497" lon="8.48821">
        <ele>2477</ele>
        <time>2021-08-12T09:46:29.397Z</time>
      </trkpt>
      <trkpt lat="46.85496" lon="8.48822">
        <ele>2477</ele>
        <time>2021-08-12T09:46:30.396Z</time>
      </trkpt>
      <trkpt lat="46.85496" lon="8.48821">
        <ele>2473</ele>
        <time>2021-08-12T09:46:31.397Z</time>
      </trkpt>
      <trkpt lat="46.85496" lon="8.48821">
        <ele>2472</ele>
        <time>2021-08-12T09:46:32.397Z</time>
      </trkpt>
      <trkpt lat="46.85496" lon="8.48821">
        <ele>2471</ele>
        <time>2021-08-12T09:46:33.396Z</time>
      </trkpt>
      <trkpt lat="46.85506" lon="8.48822">
        <ele>2485</ele>
        <time>2021-08-12T09:46:34.397Z</time>
      </trkpt>
      <trkpt lat="46.85505" lon="8.48822">
        <ele>2486</ele>
        <time>2021-08-12T09:46:35.398Z</time>
      </trkpt>
      <trkpt lat="46.85505" lon="8.48822">
        <ele>2488</ele>
        <time>2021-08-12T09:46:36.397Z</time>
      </trkpt>
      <trkpt lat="46.8551" lon="8.48818">
        <ele>2493</ele>
        <time>2021-08-12T09:46:37.399Z</time>
      </trkpt>
      <trkpt lat="46.8551" lon="8.48818">
        <ele>2493</ele>
        <time>2021-08-12T09:46:38.398Z</time>
      </trkpt>
      <trkpt lat="46.8551" lon="8.48818">
        <ele>2493</ele>
        <time>2021-08-12T09:46:39.398Z</time>
      </trkpt>
      <trkpt lat="46.85508" lon="8.48825">
        <ele>2490</ele>
        <time>2021-08-12T09:46:40.400Z</time>
      </trkpt>
      <trkpt lat="46.85507" lon="8.48825">
        <ele>2490</ele>
        <time>2021-08-12T09:46:41.399Z</time>
      </trkpt>
      <trkpt lat="46.85507" lon="8.48825">
        <ele>2490</ele>
        <time>2021-08-12T09:46:42.400Z</time>
      </trkpt>
      <trkpt lat="46.85509" lon="8.48826">
        <ele>2489</ele>
        <time>2021-08-12T09:46:43.400Z</time>
      </trkpt>
      <trkpt lat="46.85509" lon="8.48825">
        <ele>2488</ele>
        <time>2021-08-12T09:46:44.400Z</time>
      </trkpt>
      <trkpt lat="46.85503" lon="8.48825">
        <ele>2484</ele>
        <time>2021-08-12T09:46:45.401Z</time>
      </trkpt>
      <trkpt lat="46.85502" lon="8.48826">
        <ele>2485</ele>
        <time>2021-08-12T09:46:46.401Z</time>
      </trkpt>
      <trkpt lat="46.85501" lon="8.48829">
        <ele>2482</ele>
        <time>2021-08-12T09:46:47.401Z</time>
      </trkpt>
      <trkpt lat="46.85501" lon="8.48829">
        <ele>2481</ele>
        <time>2021-08-12T09:46:48.401Z</time>
      </trkpt>
      <trkpt lat="46.85501" lon="8.4883">
        <ele>2481</ele>
        <time>2021-08-12T09:46:49.402Z</time>
      </trkpt>
      <trkpt lat="46.85502" lon="8.48831">
        <ele>2480</ele>
        <time>2021-08-12T09:46:50.402Z</time>
      </trkpt>
      <trkpt lat="46.855" lon="8.48831">
        <ele>2479</ele>
        <time>2021-08-12T09:46:51.402Z</time>
      </trkpt>
      <trkpt lat="46.85499" lon="8.48831">
        <ele>2478</ele>
        <time>2021-08-12T09:46:52.402Z</time>
      </trkpt>
      <trkpt lat="46.85498" lon="8.48832">
        <ele>2478</ele>
        <time>2021-08-12T09:46:53.401Z</time>
      </trkpt>
      <trkpt lat="46.85498" lon="8.48832">
        <ele>2477</ele>
        <time>2021-08-12T09:46:54.402Z</time>
      </trkpt>
      <trkpt lat="46.85498" lon="8.48832">
        <ele>2477</ele>
        <time>2021-08-12T09:46:55.401Z</time>
      </trkpt>
      <trkpt lat="46.85496" lon="8.48832">
        <ele>2475</ele>
        <time>2021-08-12T09:46:56.401Z</time>
      </trkpt>
      <trkpt lat="46.85495" lon="8.48831">
        <ele>2475</ele>
        <time>2021-08-12T09:46:57.402Z</time>
      </trkpt>
      <trkpt lat="46.85494" lon="8.4883">
        <ele>2475</ele>
        <time>2021-08-12T09:46:58.401Z</time>
      </trkpt>
      <trkpt lat="46.85494" lon="8.48829">
        <ele>2471</ele>
        <time>2021-08-12T09:46:59.404Z</time>
      </trkpt>
      <trkpt lat="46.85493" lon="8.48829">
        <ele>2471</ele>
        <time>2021-08-12T09:47:00.403Z</time>
      </trkpt>
      <trkpt lat="46.85492" lon="8.48829">
        <ele>2470</ele>
        <time>2021-08-12T09:47:01.403Z</time>
      </trkpt>
      <trkpt lat="46.85492" lon="8.48829">
        <ele>2469</ele>
        <time>2021-08-12T09:47:02.404Z</time>
      </trkpt>
      <trkpt lat="46.8549" lon="8.48829">
        <ele>2468</ele>
        <time>2021-08-12T09:47:03.404Z</time>
      </trkpt>
      <trkpt lat="46.85489" lon="8.48829">
        <ele>2468</ele>
        <time>2021-08-12T09:47:04.404Z</time>
      </trkpt>
      <trkpt lat="46.85489" lon="8.4883">
        <ele>2467</ele>
        <time>2021-08-12T09:47:05.404Z</time>
      </trkpt>
      <trkpt lat="46.85489" lon="8.48831">
        <ele>2467</ele>
        <time>2021-08-12T09:47:06.404Z</time>
      </trkpt>
      <trkpt lat="46.85489" lon="8.48832">
        <ele>2468</ele>
        <time>2021-08-12T09:47:07.403Z</time>
      </trkpt>
      <trkpt lat="46.85489" lon="8.48833">
        <ele>2468</ele>
        <time>2021-08-12T09:47:08.403Z</time>
      </trkpt>
      <trkpt lat="46.85489" lon="8.48834">
        <ele>2468</ele>
        <time>2021-08-12T09:47:09.404Z</time>
      </trkpt>
      <trkpt lat="46.85489" lon="8.48835">
        <ele>2468</ele>
        <time>2021-08-12T09:47:10.404Z</time>
      </trkpt>
      <trkpt lat="46.85489" lon="8.48836">
        <ele>2469</ele>
        <time>2021-08-12T09:47:11.404Z</time>
      </trkpt>
      <trkpt lat="46.8549" lon="8.48838">
        <ele>2470</ele>
        <time>2021-08-12T09:47:12.403Z</time>
      </trkpt>
      <trkpt lat="46.8549" lon="8.48839">
        <ele>2472</ele>
        <time>2021-08-12T09:47:13.404Z</time>
      </trkpt>
      <trkpt lat="46.8549" lon="8.48841">
        <ele>2473</ele>
        <time>2021-08-12T09:47:14.404Z</time>
      </trkpt>
      <trkpt lat="46.8549" lon="8.48842">
        <ele>2474</ele>
        <time>2021-08-12T09:47:15.403Z</time>
      </trkpt>
      <trkpt lat="46.8549" lon="8.48844">
        <ele>2476</ele>
        <time>2021-08-12T09:47:16.403Z</time>
      </trkpt>
      <trkpt lat="46.85491" lon="8.48845">
        <ele>2477</ele>
        <time>2021-08-12T09:47:17.404Z</time>
      </trkpt>
      <trkpt lat="46.85492" lon="8.48845">
        <ele>2478</ele>
        <time>2021-08-12T09:47:18.404Z</time>
      </trkpt>
      <trkpt lat="46.85491" lon="8.48845">
        <ele>2479</ele>
        <time>2021-08-12T09:47:19.404Z</time>
      </trkpt>
      <trkpt lat="46.85492" lon="8.48847">
        <ele>2480</ele>
        <time>2021-08-12T09:47:20.403Z</time>
      </trkpt>
      <trkpt lat="46.85491" lon="8.48846">
        <ele>2480</ele>
        <time>2021-08-12T09:47:21.403Z</time>
      </trkpt>
      <trkpt lat="46.85491" lon="8.48847">
        <ele>2481</ele>
        <time>2021-08-12T09:47:22.404Z</time>
      </trkpt>
      <trkpt lat="46.8549" lon="8.48847">
        <ele>2482</ele>
        <time>2021-08-12T09:47:23.403Z</time>
      </trkpt>
      <trkpt lat="46.8549" lon="8.48847">
        <ele>2483</ele>
        <time>2021-08-12T09:47:24.404Z</time>
      </trkpt>
      <trkpt lat="46.8549" lon="8.48847">
        <ele>2483</ele>
        <time>2021-08-12T09:47:25.403Z</time>
      </trkpt>
      <trkpt lat="46.85489" lon="8.48848">
        <ele>2484</ele>
        <time>2021-08-12T09:47:26.403Z</time>
      </trkpt>
      <trkpt lat="46.85489" lon="8.48848">
        <ele>2484</ele>
        <time>2021-08-12T09:47:27.403Z</time>
      </trkpt>
      <trkpt lat="46.85488" lon="8.48848">
        <ele>2485</ele>
        <time>2021-08-12T09:47:28.403Z</time>
      </trkpt>
      <trkpt lat="46.85488" lon="8.48848">
        <ele>2485</ele>
        <time>2021-08-12T09:47:29.403Z</time>
      </trkpt>
      <trkpt lat="46.85488" lon="8.48847">
        <ele>2485</ele>
        <time>2021-08-12T09:47:30.405Z</time>
      </trkpt>
      <trkpt lat="46.85488" lon="8.48848">
        <ele>2482</ele>
        <time>2021-08-12T09:47:31.405Z</time>
      </trkpt>
      <trkpt lat="46.85487" lon="8.48849">
        <ele>2483</ele>
        <time>2021-08-12T09:47:32.405Z</time>
      </trkpt>
      <trkpt lat="46.85487" lon="8.4885">
        <ele>2483</ele>
        <time>2021-08-12T09:47:33.404Z</time>
      </trkpt>
      <trkpt lat="46.85487" lon="8.48851">
        <ele>2484</ele>
        <time>2021-08-12T09:47:34.405Z</time>
      </trkpt>
      <trkpt lat="46.85487" lon="8.48852">
        <ele>2484</ele>
        <time>2021-08-12T09:47:35.404Z</time>
      </trkpt>
      <trkpt lat="46.85487" lon="8.48852">
        <ele>2484</ele>
        <time>2021-08-12T09:47:36.405Z</time>
      </trkpt>
      <trkpt lat="46.85487" lon="8.48851">
        <ele>2483</ele>
        <time>2021-08-12T09:47:37.406Z</time>
      </trkpt>
      <trkpt lat="46.85487" lon="8.48852">
        <ele>2483</ele>
        <time>2021-08-12T09:47:38.405Z</time>
      </trkpt>
      <trkpt lat="46.85487" lon="8.48853">
        <ele>2483</ele>
        <time>2021-08-12T09:47:39.405Z</time>
      </trkpt>
      <trkpt lat="46.85487" lon="8.48854">
        <ele>2482</ele>
        <time>2021-08-12T09:47:40.406Z</time>
      </trkpt>
      <trkpt lat="46.85487" lon="8.48855">
        <ele>2482</ele>
        <time>2021-08-12T09:47:41.406Z</time>
      </trkpt>
      <trkpt lat="46.85487" lon="8.48856">
        <ele>2482</ele>
        <time>2021-08-12T09:47:42.406Z</time>
      </trkpt>
      <trkpt lat="46.85487" lon="8.48857">
        <ele>2482</ele>
        <time>2021-08-12T09:47:43.405Z</time>
      </trkpt>
      <trkpt lat="46.85486" lon="8.48858">
        <ele>2482</ele>
        <time>2021-08-12T09:47:44.406Z</time>
      </trkpt>
      <trkpt lat="46.85486" lon="8.48858">
        <ele>2482</ele>
        <time>2021-08-12T09:47:45.405Z</time>
      </trkpt>
      <trkpt lat="46.85486" lon="8.48859">
        <ele>2483</ele>
        <time>2021-08-12T09:47:46.406Z</time>
      </trkpt>
      <trkpt lat="46.85487" lon="8.4886">
        <ele>2483</ele>
        <time>2021-08-12T09:47:47.405Z</time>
      </trkpt>
      <trkpt lat="46.85487" lon="8.48861">
        <ele>2483</ele>
        <time>2021-08-12T09:47:48.406Z</time>
      </trkpt>
      <trkpt lat="46.85487" lon="8.48862">
        <ele>2483</ele>
        <time>2021-08-12T09:47:49.406Z</time>
      </trkpt>
      <trkpt lat="46.85486" lon="8.48863">
        <ele>2483</ele>
        <time>2021-08-12T09:47:50.406Z</time>
      </trkpt>
      <trkpt lat="46.85486" lon="8.48864">
        <ele>2483</ele>
        <time>2021-08-12T09:47:51.406Z</time>
      </trkpt>
      <trkpt lat="46.85486" lon="8.48864">
        <ele>2482</ele>
        <time>2021-08-12T09:47:52.405Z</time>
      </trkpt>
      <trkpt lat="46.85486" lon="8.48865">
        <ele>2482</ele>
        <time>2021-08-12T09:47:53.406Z</time>
      </trkpt>
      <trkpt lat="46.85486" lon="8.48865">
        <ele>2482</ele>
        <time>2021-08-12T09:47:54.406Z</time>
      </trkpt>
      <trkpt lat="46.85486" lon="8.48866">
        <ele>2481</ele>
        <time>2021-08-12T09:47:55.406Z</time>
      </trkpt>
      <trkpt lat="46.85486" lon="8.48867">
        <ele>2479</ele>
        <time>2021-08-12T09:47:56.406Z</time>
      </trkpt>
      <trkpt lat="46.85486" lon="8.48867">
        <ele>2479</ele>
        <time>2021-08-12T09:47:57.406Z</time>
      </trkpt>
      <trkpt lat="46.85486" lon="8.48867">
        <ele>2478</ele>
        <time>2021-08-12T09:47:58.406Z</time>
      </trkpt>
      <trkpt lat="46.85486" lon="8.48867">
        <ele>2478</ele>
        <time>2021-08-12T09:47:59.406Z</time>
      </trkpt>
      <trkpt lat="46.85487" lon="8.48867">
        <ele>2478</ele>
        <time>2021-08-12T09:48:00.406Z</time>
      </trkpt>
      <trkpt lat="46.85488" lon="8.48866">
        <ele>2477</ele>
        <time>2021-08-12T09:48:01.406Z</time>
      </trkpt>
      <trkpt lat="46.85489" lon="8.48866">
        <ele>2477</ele>
        <time>2021-08-12T09:48:02.406Z</time>
      </trkpt>
      <trkpt lat="46.8549" lon="8.48867">
        <ele>2477</ele>
        <time>2021-08-12T09:48:03.406Z</time>
      </trkpt>
      <trkpt lat="46.8549" lon="8.48866">
        <ele>2477</ele>
        <time>2021-08-12T09:48:04.406Z</time>
      </trkpt>
      <trkpt lat="46.8549" lon="8.48866">
        <ele>2477</ele>
        <time>2021-08-12T09:48:05.405Z</time>
      </trkpt>
      <trkpt lat="46.85489" lon="8.48866">
        <ele>2477</ele>
        <time>2021-08-12T09:48:06.405Z</time>
      </trkpt>
      <trkpt lat="46.8549" lon="8.48863">
        <ele>2464</ele>
        <time>2021-08-12T09:48:07.406Z</time>
      </trkpt>
      <trkpt lat="46.85489" lon="8.48863">
        <ele>2463</ele>
        <time>2021-08-12T09:48:08.406Z</time>
      </trkpt>
      <trkpt lat="46.85489" lon="8.48863">
        <ele>2463</ele>
        <time>2021-08-12T09:48:09.405Z</time>
      </trkpt>
      <trkpt lat="46.85489" lon="8.48863">
        <ele>2463</ele>
        <time>2021-08-12T09:48:10.406Z</time>
      </trkpt>
      <trkpt lat="46.85489" lon="8.48863">
        <ele>2463</ele>
        <time>2021-08-12T09:48:11.405Z</time>
      </trkpt>
      <trkpt lat="46.85489" lon="8.48863">
        <ele>2463</ele>
        <time>2021-08-12T09:48:12.406Z</time>
      </trkpt>
      <trkpt lat="46.85489" lon="8.48864">
        <ele>2464</ele>
        <time>2021-08-12T09:48:13.406Z</time>
      </trkpt>
      <trkpt lat="46.85489" lon="8.48864">
        <ele>2465</ele>
        <time>2021-08-12T09:48:14.406Z</time>
      </trkpt>
      <trkpt lat="46.85489" lon="8.48865">
        <ele>2465</ele>
        <time>2021-08-12T09:48:15.406Z</time>
      </trkpt>
      <trkpt lat="46.85489" lon="8.48864">
        <ele>2465</ele>
        <time>2021-08-12T09:48:16.406Z</time>
      </trkpt>
      <trkpt lat="46.85486" lon="8.48862">
        <ele>2466</ele>
        <time>2021-08-12T09:48:17.407Z</time>
      </trkpt>
      <trkpt lat="46.85485" lon="8.48862">
        <ele>2465</ele>
        <time>2021-08-12T09:48:18.407Z</time>
      </trkpt>
      <trkpt lat="46.85485" lon="8.48862">
        <ele>2465</ele>
        <time>2021-08-12T09:48:19.406Z</time>
      </trkpt>
      <trkpt lat="46.85487" lon="8.48858">
        <ele>2463</ele>
        <time>2021-08-12T09:48:20.407Z</time>
      </trkpt>
      <trkpt lat="46.85487" lon="8.48858">
        <ele>2463</ele>
        <time>2021-08-12T09:48:21.408Z</time>
      </trkpt>
      <trkpt lat="46.85487" lon="8.48859">
        <ele>2463</ele>
        <time>2021-08-12T09:48:22.408Z</time>
      </trkpt>
      <trkpt lat="46.85486" lon="8.48859">
        <ele>2463</ele>
        <time>2021-08-12T09:48:23.408Z</time>
      </trkpt>
      <trkpt lat="46.85485" lon="8.4886">
        <ele>2463</ele>
        <time>2021-08-12T09:48:24.408Z</time>
      </trkpt>
      <trkpt lat="46.85484" lon="8.48859">
        <ele>2463</ele>
        <time>2021-08-12T09:48:25.408Z</time>
      </trkpt>
      <trkpt lat="46.85483" lon="8.48858">
        <ele>2463</ele>
        <time>2021-08-12T09:48:26.407Z</time>
      </trkpt>
      <trkpt lat="46.85483" lon="8.48858">
        <ele>2463</ele>
        <time>2021-08-12T09:48:27.407Z</time>
      </trkpt>
      <trkpt lat="46.85483" lon="8.48858">
        <ele>2463</ele>
        <time>2021-08-12T09:48:28.408Z</time>
      </trkpt>
      <trkpt lat="46.85488" lon="8.48857">
        <ele>2473</ele>
        <time>2021-08-12T09:48:29.408Z</time>
      </trkpt>
      <trkpt lat="46.85489" lon="8.48858">
        <ele>2475</ele>
        <time>2021-08-12T09:48:30.408Z</time>
      </trkpt>
      <trkpt lat="46.85489" lon="8.48858">
        <ele>2476</ele>
        <time>2021-08-12T09:48:31.409Z</time>
      </trkpt>
      <trkpt lat="46.85489" lon="8.48858">
        <ele>2478</ele>
        <time>2021-08-12T09:48:32.409Z</time>
      </trkpt>
      <trkpt lat="46.8549" lon="8.48859">
        <ele>2486</ele>
        <time>2021-08-12T09:48:33.410Z</time>
      </trkpt>
      <trkpt lat="46.8549" lon="8.48859">
        <ele>2486</ele>
        <time>2021-08-12T09:48:34.409Z</time>
      </trkpt>
      <trkpt lat="46.85489" lon="8.4886">
        <ele>2488</ele>
        <time>2021-08-12T09:48:35.411Z</time>
      </trkpt>
      <trkpt lat="46.85488" lon="8.4886">
        <ele>2490</ele>
        <time>2021-08-12T09:48:36.410Z</time>
      </trkpt>
      <trkpt lat="46.85488" lon="8.48861">
        <ele>2491</ele>
        <time>2021-08-12T09:48:37.410Z</time>
      </trkpt>
      <trkpt lat="46.85486" lon="8.48864">
        <ele>2496</ele>
        <time>2021-08-12T09:48:38.410Z</time>
      </trkpt>
      <trkpt lat="46.85482" lon="8.48861">
        <ele>2498</ele>
        <time>2021-08-12T09:48:39.411Z</time>
      </trkpt>
      <trkpt lat="46.85481" lon="8.48862">
        <ele>2497</ele>
        <time>2021-08-12T09:48:40.411Z</time>
      </trkpt>
      <trkpt lat="46.85481" lon="8.48863">
        <ele>2497</ele>
        <time>2021-08-12T09:48:41.411Z</time>
      </trkpt>
      <trkpt lat="46.85482" lon="8.48864">
        <ele>2496</ele>
        <time>2021-08-12T09:48:42.411Z</time>
      </trkpt>
      <trkpt lat="46.85482" lon="8.48866">
        <ele>2496</ele>
        <time>2021-08-12T09:48:43.410Z</time>
      </trkpt>
      <trkpt lat="46.85481" lon="8.48867">
        <ele>2496</ele>
        <time>2021-08-12T09:48:44.410Z</time>
      </trkpt>
      <trkpt lat="46.85481" lon="8.48868">
        <ele>2495</ele>
        <time>2021-08-12T09:48:45.410Z</time>
      </trkpt>
      <trkpt lat="46.85481" lon="8.48869">
        <ele>2495</ele>
        <time>2021-08-12T09:48:46.410Z</time>
      </trkpt>
      <trkpt lat="46.85481" lon="8.4887">
        <ele>2495</ele>
        <time>2021-08-12T09:48:47.410Z</time>
      </trkpt>
      <trkpt lat="46.85481" lon="8.4887">
        <ele>2494</ele>
        <time>2021-08-12T09:48:48.410Z</time>
      </trkpt>
      <trkpt lat="46.85481" lon="8.48871">
        <ele>2493</ele>
        <time>2021-08-12T09:48:49.410Z</time>
      </trkpt>
      <trkpt lat="46.8548" lon="8.48872">
        <ele>2493</ele>
        <time>2021-08-12T09:48:50.411Z</time>
      </trkpt>
      <trkpt lat="46.8548" lon="8.48873">
        <ele>2492</ele>
        <time>2021-08-12T09:48:51.411Z</time>
      </trkpt>
      <trkpt lat="46.8548" lon="8.48875">
        <ele>2493</ele>
        <time>2021-08-12T09:48:52.410Z</time>
      </trkpt>
      <trkpt lat="46.8548" lon="8.48877">
        <ele>2493</ele>
        <time>2021-08-12T09:48:53.411Z</time>
      </trkpt>
      <trkpt lat="46.85479" lon="8.48878">
        <ele>2493</ele>
        <time>2021-08-12T09:48:54.411Z</time>
      </trkpt>
      <trkpt lat="46.85478" lon="8.48878">
        <ele>2493</ele>
        <time>2021-08-12T09:48:55.411Z</time>
      </trkpt>
      <trkpt lat="46.85478" lon="8.48879">
        <ele>2493</ele>
        <time>2021-08-12T09:48:56.411Z</time>
      </trkpt>
      <trkpt lat="46.85477" lon="8.4888">
        <ele>2493</ele>
        <time>2021-08-12T09:48:57.411Z</time>
      </trkpt>
      <trkpt lat="46.85476" lon="8.48882">
        <ele>2493</ele>
        <time>2021-08-12T09:48:58.410Z</time>
      </trkpt>
      <trkpt lat="46.85476" lon="8.48883">
        <ele>2493</ele>
        <time>2021-08-12T09:48:59.411Z</time>
      </trkpt>
      <trkpt lat="46.85476" lon="8.48884">
        <ele>2493</ele>
        <time>2021-08-12T09:49:00.411Z</time>
      </trkpt>
      <trkpt lat="46.85475" lon="8.48883">
        <ele>2492</ele>
        <time>2021-08-12T09:49:01.411Z</time>
      </trkpt>
      <trkpt lat="46.85475" lon="8.48884">
        <ele>2492</ele>
        <time>2021-08-12T09:49:02.411Z</time>
      </trkpt>
      <trkpt lat="46.85475" lon="8.48885">
        <ele>2492</ele>
        <time>2021-08-12T09:49:03.411Z</time>
      </trkpt>
      <trkpt lat="46.85475" lon="8.48886">
        <ele>2492</ele>
        <time>2021-08-12T09:49:04.411Z</time>
      </trkpt>
      <trkpt lat="46.85475" lon="8.48887">
        <ele>2492</ele>
        <time>2021-08-12T09:49:05.411Z</time>
      </trkpt>
      <trkpt lat="46.85477" lon="8.48888">
        <ele>2491</ele>
        <time>2021-08-12T09:49:06.411Z</time>
      </trkpt>
      <trkpt lat="46.85476" lon="8.48889">
        <ele>2491</ele>
        <time>2021-08-12T09:49:07.411Z</time>
      </trkpt>
      <trkpt lat="46.85475" lon="8.48889">
        <ele>2491</ele>
        <time>2021-08-12T09:49:08.411Z</time>
      </trkpt>
      <trkpt lat="46.85475" lon="8.48889">
        <ele>2491</ele>
        <time>2021-08-12T09:49:09.410Z</time>
      </trkpt>
      <trkpt lat="46.85473" lon="8.48888">
        <ele>2490</ele>
        <time>2021-08-12T09:49:10.411Z</time>
      </trkpt>
      <trkpt lat="46.85472" lon="8.48889">
        <ele>2489</ele>
        <time>2021-08-12T09:49:11.411Z</time>
      </trkpt>
      <trkpt lat="46.85471" lon="8.48889">
        <ele>2489</ele>
        <time>2021-08-12T09:49:12.410Z</time>
      </trkpt>
      <trkpt lat="46.85471" lon="8.48889">
        <ele>2488</ele>
        <time>2021-08-12T09:49:13.411Z</time>
      </trkpt>
      <trkpt lat="46.8547" lon="8.48889">
        <ele>2488</ele>
        <time>2021-08-12T09:49:14.411Z</time>
      </trkpt>
      <trkpt lat="46.85469" lon="8.4889">
        <ele>2488</ele>
        <time>2021-08-12T09:49:15.411Z</time>
      </trkpt>
      <trkpt lat="46.85468" lon="8.48891">
        <ele>2488</ele>
        <time>2021-08-12T09:49:16.411Z</time>
      </trkpt>
      <trkpt lat="46.85468" lon="8.48891">
        <ele>2487</ele>
        <time>2021-08-12T09:49:17.411Z</time>
      </trkpt>
      <trkpt lat="46.85467" lon="8.48892">
        <ele>2487</ele>
        <time>2021-08-12T09:49:18.410Z</time>
      </trkpt>
      <trkpt lat="46.85467" lon="8.48892">
        <ele>2486</ele>
        <time>2021-08-12T09:49:19.410Z</time>
      </trkpt>
      <trkpt lat="46.85466" lon="8.48893">
        <ele>2486</ele>
        <time>2021-08-12T09:49:20.411Z</time>
      </trkpt>
      <trkpt lat="46.85466" lon="8.48894">
        <ele>2486</ele>
        <time>2021-08-12T09:49:21.411Z</time>
      </trkpt>
      <trkpt lat="46.85465" lon="8.48894">
        <ele>2485</ele>
        <time>2021-08-12T09:49:22.411Z</time>
      </trkpt>
      <trkpt lat="46.85465" lon="8.48894">
        <ele>2485</ele>
        <time>2021-08-12T09:49:23.411Z</time>
      </trkpt>
      <trkpt lat="46.85464" lon="8.48894">
        <ele>2484</ele>
        <time>2021-08-12T09:49:24.411Z</time>
      </trkpt>
      <trkpt lat="46.85464" lon="8.48894">
        <ele>2483</ele>
        <time>2021-08-12T09:49:25.410Z</time>
      </trkpt>
      <trkpt lat="46.85464" lon="8.48895">
        <ele>2483</ele>
        <time>2021-08-12T09:49:26.411Z</time>
      </trkpt>
      <trkpt lat="46.85465" lon="8.48895">
        <ele>2482</ele>
        <time>2021-08-12T09:49:27.411Z</time>
      </trkpt>
      <trkpt lat="46.85466" lon="8.48896">
        <ele>2481</ele>
        <time>2021-08-12T09:49:28.412Z</time>
      </trkpt>
      <trkpt lat="46.85467" lon="8.48897">
        <ele>2481</ele>
        <time>2021-08-12T09:49:29.411Z</time>
      </trkpt>
      <trkpt lat="46.85467" lon="8.48897">
        <ele>2481</ele>
        <time>2021-08-12T09:49:30.412Z</time>
      </trkpt>
      <trkpt lat="46.85469" lon="8.48897">
        <ele>2482</ele>
        <time>2021-08-12T09:49:31.411Z</time>
      </trkpt>
      <trkpt lat="46.8547" lon="8.48897">
        <ele>2484</ele>
        <time>2021-08-12T09:49:32.412Z</time>
      </trkpt>
      <trkpt lat="46.85471" lon="8.48897">
        <ele>2485</ele>
        <time>2021-08-12T09:49:33.411Z</time>
      </trkpt>
      <trkpt lat="46.85477" lon="8.489">
        <ele>2494</ele>
        <time>2021-08-12T09:49:34.412Z</time>
      </trkpt>
      <trkpt lat="46.85477" lon="8.489">
        <ele>2494</ele>
        <time>2021-08-12T09:49:35.411Z</time>
      </trkpt>
      <trkpt lat="46.85477" lon="8.48901">
        <ele>2495</ele>
        <time>2021-08-12T09:49:36.411Z</time>
      </trkpt>
      <trkpt lat="46.85477" lon="8.48903">
        <ele>2495</ele>
        <time>2021-08-12T09:49:37.412Z</time>
      </trkpt>
      <trkpt lat="46.85477" lon="8.48904">
        <ele>2495</ele>
        <time>2021-08-12T09:49:38.412Z</time>
      </trkpt>
      <trkpt lat="46.85477" lon="8.48905">
        <ele>2496</ele>
        <time>2021-08-12T09:49:39.411Z</time>
      </trkpt>
      <trkpt lat="46.85477" lon="8.48905">
        <ele>2496</ele>
        <time>2021-08-12T09:49:40.411Z</time>
      </trkpt>
      <trkpt lat="46.85477" lon="8.48904">
        <ele>2497</ele>
        <time>2021-08-12T09:49:41.412Z</time>
      </trkpt>
      <trkpt lat="46.85477" lon="8.48904">
        <ele>2497</ele>
        <time>2021-08-12T09:49:42.412Z</time>
      </trkpt>
      <trkpt lat="46.85477" lon="8.48904">
        <ele>2497</ele>
        <time>2021-08-12T09:49:43.411Z</time>
      </trkpt>
      <trkpt lat="46.85477" lon="8.48904">
        <ele>2496</ele>
        <time>2021-08-12T09:49:44.412Z</time>
      </trkpt>
      <trkpt lat="46.85478" lon="8.48905">
        <ele>2496</ele>
        <time>2021-08-12T09:49:45.412Z</time>
      </trkpt>
      <trkpt lat="46.85479" lon="8.48906">
        <ele>2495</ele>
        <time>2021-08-12T09:49:46.412Z</time>
      </trkpt>
      <trkpt lat="46.85475" lon="8.48904">
        <ele>2496</ele>
        <time>2021-08-12T09:49:47.411Z</time>
      </trkpt>
      <trkpt lat="46.85473" lon="8.48901">
        <ele>2496</ele>
        <time>2021-08-12T09:49:48.411Z</time>
      </trkpt>
      <trkpt lat="46.85473" lon="8.48902">
        <ele>2496</ele>
        <time>2021-08-12T09:49:49.411Z</time>
      </trkpt>
      <trkpt lat="46.85475" lon="8.48903">
        <ele>2497</ele>
        <time>2021-08-12T09:49:50.411Z</time>
      </trkpt>
      <trkpt lat="46.85475" lon="8.48903">
        <ele>2498</ele>
        <time>2021-08-12T09:49:51.411Z</time>
      </trkpt>
      <trkpt lat="46.85476" lon="8.48904">
        <ele>2499</ele>
        <time>2021-08-12T09:49:52.412Z</time>
      </trkpt>
      <trkpt lat="46.85476" lon="8.48905">
        <ele>2499</ele>
        <time>2021-08-12T09:49:53.412Z</time>
      </trkpt>
      <trkpt lat="46.85478" lon="8.48908">
        <ele>2499</ele>
        <time>2021-08-12T09:49:54.413Z</time>
      </trkpt>
      <trkpt lat="46.85477" lon="8.48907">
        <ele>2499</ele>
        <time>2021-08-12T09:49:55.413Z</time>
      </trkpt>
      <trkpt lat="46.85476" lon="8.48907">
        <ele>2499</ele>
        <time>2021-08-12T09:49:56.412Z</time>
      </trkpt>
      <trkpt lat="46.85476" lon="8.48906">
        <ele>2499</ele>
        <time>2021-08-12T09:49:57.413Z</time>
      </trkpt>
      <trkpt lat="46.85474" lon="8.48906">
        <ele>2499</ele>
        <time>2021-08-12T09:49:58.412Z</time>
      </trkpt>
      <trkpt lat="46.85474" lon="8.48906">
        <ele>2498</ele>
        <time>2021-08-12T09:49:59.413Z</time>
      </trkpt>
      <trkpt lat="46.85474" lon="8.48906">
        <ele>2498</ele>
        <time>2021-08-12T09:50:00.412Z</time>
      </trkpt>
      <trkpt lat="46.85473" lon="8.48907">
        <ele>2497</ele>
        <time>2021-08-12T09:50:01.413Z</time>
      </trkpt>
      <trkpt lat="46.85473" lon="8.48907">
        <ele>2497</ele>
        <time>2021-08-12T09:50:02.413Z</time>
      </trkpt>
      <trkpt lat="46.85473" lon="8.48907">
        <ele>2497</ele>
        <time>2021-08-12T09:50:03.413Z</time>
      </trkpt>
      <trkpt lat="46.85473" lon="8.48907">
        <ele>2497</ele>
        <time>2021-08-12T09:50:04.413Z</time>
      </trkpt>
      <trkpt lat="46.85472" lon="8.48908">
        <ele>2496</ele>
        <time>2021-08-12T09:50:05.412Z</time>
      </trkpt>
      <trkpt lat="46.85471" lon="8.48908">
        <ele>2496</ele>
        <time>2021-08-12T09:50:06.413Z</time>
      </trkpt>
      <trkpt lat="46.85471" lon="8.48907">
        <ele>2495</ele>
        <time>2021-08-12T09:50:07.413Z</time>
      </trkpt>
      <trkpt lat="46.8547" lon="8.48907">
        <ele>2495</ele>
        <time>2021-08-12T09:50:08.412Z</time>
      </trkpt>
      <trkpt lat="46.8547" lon="8.48908">
        <ele>2495</ele>
        <time>2021-08-12T09:50:09.413Z</time>
      </trkpt>
      <trkpt lat="46.85469" lon="8.48908">
        <ele>2495</ele>
        <time>2021-08-12T09:50:10.412Z</time>
      </trkpt>
      <trkpt lat="46.85469" lon="8.48908">
        <ele>2495</ele>
        <time>2021-08-12T09:50:11.412Z</time>
      </trkpt>
      <trkpt lat="46.8547" lon="8.48908">
        <ele>2495</ele>
        <time>2021-08-12T09:50:12.413Z</time>
      </trkpt>
      <trkpt lat="46.8547" lon="8.48908">
        <ele>2495</ele>
        <time>2021-08-12T09:50:13.413Z</time>
      </trkpt>
      <trkpt lat="46.85469" lon="8.48906">
        <ele>2495</ele>
        <time>2021-08-12T09:50:14.413Z</time>
      </trkpt>
      <trkpt lat="46.8547" lon="8.48901">
        <ele>2495</ele>
        <time>2021-08-12T09:50:15.415Z</time>
      </trkpt>
      <trkpt lat="46.8547" lon="8.489">
        <ele>2495</ele>
        <time>2021-08-12T09:50:16.415Z</time>
      </trkpt>
      <trkpt lat="46.8547" lon="8.489">
        <ele>2495</ele>
        <time>2021-08-12T09:50:17.415Z</time>
      </trkpt>
      <trkpt lat="46.85471" lon="8.48899">
        <ele>2495</ele>
        <time>2021-08-12T09:50:18.415Z</time>
      </trkpt>
      <trkpt lat="46.85471" lon="8.48898">
        <ele>2495</ele>
        <time>2021-08-12T09:50:19.415Z</time>
      </trkpt>
      <trkpt lat="46.85471" lon="8.48897">
        <ele>2494</ele>
        <time>2021-08-12T09:50:20.415Z</time>
      </trkpt>
      <trkpt lat="46.85471" lon="8.48896">
        <ele>2495</ele>
        <time>2021-08-12T09:50:21.415Z</time>
      </trkpt>
      <trkpt lat="46.85471" lon="8.48895">
        <ele>2495</ele>
        <time>2021-08-12T09:50:22.415Z</time>
      </trkpt>
      <trkpt lat="46.85471" lon="8.48894">
        <ele>2495</ele>
        <time>2021-08-12T09:50:23.415Z</time>
      </trkpt>
      <trkpt lat="46.85471" lon="8.48893">
        <ele>2495</ele>
        <time>2021-08-12T09:50:24.415Z</time>
      </trkpt>
      <trkpt lat="46.85471" lon="8.48892">
        <ele>2496</ele>
        <time>2021-08-12T09:50:25.415Z</time>
      </trkpt>
      <trkpt lat="46.85471" lon="8.48891">
        <ele>2496</ele>
        <time>2021-08-12T09:50:26.415Z</time>
      </trkpt>
      <trkpt lat="46.85471" lon="8.48891">
        <ele>2496</ele>
        <time>2021-08-12T09:50:27.415Z</time>
      </trkpt>
      <trkpt lat="46.85471" lon="8.48891">
        <ele>2497</ele>
        <time>2021-08-12T09:50:28.415Z</time>
      </trkpt>
      <trkpt lat="46.85474" lon="8.48892">
        <ele>2498</ele>
        <time>2021-08-12T09:50:29.415Z</time>
      </trkpt>
      <trkpt lat="46.85474" lon="8.48893">
        <ele>2498</ele>
        <time>2021-08-12T09:50:30.416Z</time>
      </trkpt>
      <trkpt lat="46.85473" lon="8.48893">
        <ele>2498</ele>
        <time>2021-08-12T09:50:31.415Z</time>
      </trkpt>
      <trkpt lat="46.85473" lon="8.48892">
        <ele>2498</ele>
        <time>2021-08-12T09:50:32.415Z</time>
      </trkpt>
      <trkpt lat="46.85472" lon="8.48892">
        <ele>2498</ele>
        <time>2021-08-12T09:50:33.416Z</time>
      </trkpt>
      <trkpt lat="46.85472" lon="8.48892">
        <ele>2498</ele>
        <time>2021-08-12T09:50:34.416Z</time>
      </trkpt>
      <trkpt lat="46.85471" lon="8.48891">
        <ele>2498</ele>
        <time>2021-08-12T09:50:35.415Z</time>
      </trkpt>
      <trkpt lat="46.8547" lon="8.4889">
        <ele>2498</ele>
        <time>2021-08-12T09:50:36.416Z</time>
      </trkpt>
      <trkpt lat="46.8547" lon="8.48891">
        <ele>2497</ele>
        <time>2021-08-12T09:50:37.415Z</time>
      </trkpt>
      <trkpt lat="46.8547" lon="8.4889">
        <ele>2497</ele>
        <time>2021-08-12T09:50:38.415Z</time>
      </trkpt>
      <trkpt lat="46.8547" lon="8.4889">
        <ele>2497</ele>
        <time>2021-08-12T09:50:39.415Z</time>
      </trkpt>
      <trkpt lat="46.8547" lon="8.48889">
        <ele>2496</ele>
        <time>2021-08-12T09:50:40.415Z</time>
      </trkpt>
      <trkpt lat="46.8547" lon="8.48888">
        <ele>2496</ele>
        <time>2021-08-12T09:50:41.415Z</time>
      </trkpt>
      <trkpt lat="46.8547" lon="8.48887">
        <ele>2495</ele>
        <time>2021-08-12T09:50:42.416Z</time>
      </trkpt>
      <trkpt lat="46.8547" lon="8.48886">
        <ele>2495</ele>
        <time>2021-08-12T09:50:43.415Z</time>
      </trkpt>
      <trkpt lat="46.85469" lon="8.48884">
        <ele>2494</ele>
        <time>2021-08-12T09:50:44.415Z</time>
      </trkpt>
      <trkpt lat="46.85469" lon="8.48884">
        <ele>2494</ele>
        <time>2021-08-12T09:50:45.415Z</time>
      </trkpt>
      <trkpt lat="46.85469" lon="8.48883">
        <ele>2493</ele>
        <time>2021-08-12T09:50:46.416Z</time>
      </trkpt>
      <trkpt lat="46.85468" lon="8.48882">
        <ele>2493</ele>
        <time>2021-08-12T09:50:47.415Z</time>
      </trkpt>
      <trkpt lat="46.85467" lon="8.48881">
        <ele>2492</ele>
        <time>2021-08-12T09:50:48.415Z</time>
      </trkpt>
      <trkpt lat="46.85466" lon="8.48881">
        <ele>2492</ele>
        <time>2021-08-12T09:50:49.415Z</time>
      </trkpt>
      <trkpt lat="46.85465" lon="8.48881">
        <ele>2491</ele>
        <time>2021-08-12T09:50:50.416Z</time>
      </trkpt>
      <trkpt lat="46.85464" lon="8.4888">
        <ele>2491</ele>
        <time>2021-08-12T09:50:51.415Z</time>
      </trkpt>
      <trkpt lat="46.85463" lon="8.48879">
        <ele>2491</ele>
        <time>2021-08-12T09:50:52.415Z</time>
      </trkpt>
      <trkpt lat="46.85463" lon="8.48879">
        <ele>2490</ele>
        <time>2021-08-12T09:50:53.416Z</time>
      </trkpt>
      <trkpt lat="46.85463" lon="8.4888">
        <ele>2490</ele>
        <time>2021-08-12T09:50:54.415Z</time>
      </trkpt>
      <trkpt lat="46.85463" lon="8.48881">
        <ele>2490</ele>
        <time>2021-08-12T09:50:55.415Z</time>
      </trkpt>
      <trkpt lat="46.85463" lon="8.48881">
        <ele>2490</ele>
        <time>2021-08-12T09:50:56.415Z</time>
      </trkpt>
      <trkpt lat="46.85463" lon="8.48882">
        <ele>2490</ele>
        <time>2021-08-12T09:50:57.415Z</time>
      </trkpt>
      <trkpt lat="46.85462" lon="8.48881">
        <ele>2490</ele>
        <time>2021-08-12T09:50:58.415Z</time>
      </trkpt>
      <trkpt lat="46.85461" lon="8.4888">
        <ele>2490</ele>
        <time>2021-08-12T09:50:59.415Z</time>
      </trkpt>
      <trkpt lat="46.85461" lon="8.48879">
        <ele>2490</ele>
        <time>2021-08-12T09:51:00.416Z</time>
      </trkpt>
      <trkpt lat="46.8546" lon="8.48879">
        <ele>2490</ele>
        <time>2021-08-12T09:51:01.415Z</time>
      </trkpt>
      <trkpt lat="46.8546" lon="8.48879">
        <ele>2489</ele>
        <time>2021-08-12T09:51:02.416Z</time>
      </trkpt>
      <trkpt lat="46.85459" lon="8.48879">
        <ele>2489</ele>
        <time>2021-08-12T09:51:03.416Z</time>
      </trkpt>
      <trkpt lat="46.85459" lon="8.48879">
        <ele>2489</ele>
        <time>2021-08-12T09:51:04.415Z</time>
      </trkpt>
      <trkpt lat="46.85459" lon="8.48879">
        <ele>2489</ele>
        <time>2021-08-12T09:51:05.415Z</time>
      </trkpt>
      <trkpt lat="46.85457" lon="8.48884">
        <ele>2488</ele>
        <time>2021-08-12T09:51:06.416Z</time>
      </trkpt>
      <trkpt lat="46.85457" lon="8.48885">
        <ele>2488</ele>
        <time>2021-08-12T09:51:07.416Z</time>
      </trkpt>
      <trkpt lat="46.85458" lon="8.48885">
        <ele>2488</ele>
        <time>2021-08-12T09:51:08.417Z</time>
      </trkpt>
      <trkpt lat="46.85458" lon="8.48885">
        <ele>2488</ele>
        <time>2021-08-12T09:51:09.417Z</time>
      </trkpt>
      <trkpt lat="46.85458" lon="8.48885">
        <ele>2488</ele>
        <time>2021-08-12T09:51:10.416Z</time>
      </trkpt>
      <trkpt lat="46.85458" lon="8.48891">
        <ele>2504</ele>
        <time>2021-08-12T09:51:11.416Z</time>
      </trkpt>
      <trkpt lat="46.85459" lon="8.48892">
        <ele>2504</ele>
        <time>2021-08-12T09:51:12.417Z</time>
      </trkpt>
      <trkpt lat="46.85459" lon="8.48892">
        <ele>2504</ele>
        <time>2021-08-12T09:51:13.416Z</time>
      </trkpt>
      <trkpt lat="46.85458" lon="8.48893">
        <ele>2503</ele>
        <time>2021-08-12T09:51:14.417Z</time>
      </trkpt>
      <trkpt lat="46.85458" lon="8.48893">
        <ele>2503</ele>
        <time>2021-08-12T09:51:15.416Z</time>
      </trkpt>
      <trkpt lat="46.85458" lon="8.48894">
        <ele>2503</ele>
        <time>2021-08-12T09:51:16.416Z</time>
      </trkpt>
      <trkpt lat="46.85457" lon="8.48894">
        <ele>2503</ele>
        <time>2021-08-12T09:51:17.417Z</time>
      </trkpt>
      <trkpt lat="46.85457" lon="8.48895">
        <ele>2503</ele>
        <time>2021-08-12T09:51:18.417Z</time>
      </trkpt>
      <trkpt lat="46.85458" lon="8.48895">
        <ele>2504</ele>
        <time>2021-08-12T09:51:19.416Z</time>
      </trkpt>
      <trkpt lat="46.85458" lon="8.48896">
        <ele>2504</ele>
        <time>2021-08-12T09:51:20.416Z</time>
      </trkpt>
      <trkpt lat="46.85458" lon="8.48896">
        <ele>2504</ele>
        <time>2021-08-12T09:51:21.417Z</time>
      </trkpt>
      <trkpt lat="46.85459" lon="8.48894">
        <ele>2504</ele>
        <time>2021-08-12T09:51:22.417Z</time>
      </trkpt>
      <trkpt lat="46.85459" lon="8.48893">
        <ele>2504</ele>
        <time>2021-08-12T09:51:23.417Z</time>
      </trkpt>
      <trkpt lat="46.8546" lon="8.48892">
        <ele>2504</ele>
        <time>2021-08-12T09:51:24.417Z</time>
      </trkpt>
      <trkpt lat="46.8546" lon="8.48891">
        <ele>2504</ele>
        <time>2021-08-12T09:51:25.418Z</time>
      </trkpt>
      <trkpt lat="46.85459" lon="8.48891">
        <ele>2504</ele>
        <time>2021-08-12T09:51:26.417Z</time>
      </trkpt>
      <trkpt lat="46.85459" lon="8.4889">
        <ele>2504</ele>
        <time>2021-08-12T09:51:27.417Z</time>
      </trkpt>
      <trkpt lat="46.85461" lon="8.48888">
        <ele>2510</ele>
        <time>2021-08-12T09:51:28.417Z</time>
      </trkpt>
      <trkpt lat="46.85462" lon="8.48888">
        <ele>2511</ele>
        <time>2021-08-12T09:51:29.417Z</time>
      </trkpt>
      <trkpt lat="46.85464" lon="8.48889">
        <ele>2511</ele>
        <time>2021-08-12T09:51:30.417Z</time>
      </trkpt>
      <trkpt lat="46.85464" lon="8.48889">
        <ele>2512</ele>
        <time>2021-08-12T09:51:31.417Z</time>
      </trkpt>
      <trkpt lat="46.85465" lon="8.48889">
        <ele>2515</ele>
        <time>2021-08-12T09:51:32.419Z</time>
      </trkpt>
      <trkpt lat="46.85465" lon="8.48889">
        <ele>2515</ele>
        <time>2021-08-12T09:51:33.419Z</time>
      </trkpt>
      <trkpt lat="46.85463" lon="8.48888">
        <ele>2514</ele>
        <time>2021-08-12T09:51:34.419Z</time>
      </trkpt>
      <trkpt lat="46.85463" lon="8.48888">
        <ele>2514</ele>
        <time>2021-08-12T09:51:35.420Z</time>
      </trkpt>
      <trkpt lat="46.85463" lon="8.48888">
        <ele>2513</ele>
        <time>2021-08-12T09:51:36.419Z</time>
      </trkpt>
      <trkpt lat="46.85463" lon="8.48887">
        <ele>2513</ele>
        <time>2021-08-12T09:51:37.420Z</time>
      </trkpt>
      <trkpt lat="46.85453" lon="8.4888">
        <ele>2500</ele>
        <time>2021-08-12T09:51:38.421Z</time>
      </trkpt>
      <trkpt lat="46.85454" lon="8.4888">
        <ele>2500</ele>
        <time>2021-08-12T09:51:39.421Z</time>
      </trkpt>
      <trkpt lat="46.85455" lon="8.48881">
        <ele>2500</ele>
        <time>2021-08-12T09:51:40.420Z</time>
      </trkpt>
      <trkpt lat="46.85454" lon="8.48881">
        <ele>2492</ele>
        <time>2021-08-12T09:51:41.421Z</time>
      </trkpt>
      <trkpt lat="46.85459" lon="8.48884">
        <ele>2498</ele>
        <time>2021-08-12T09:51:42.423Z</time>
      </trkpt>
      <trkpt lat="46.8546" lon="8.48884">
        <ele>2499</ele>
        <time>2021-08-12T09:51:43.423Z</time>
      </trkpt>
      <trkpt lat="46.85461" lon="8.48884">
        <ele>2499</ele>
        <time>2021-08-12T09:51:44.422Z</time>
      </trkpt>
      <trkpt lat="46.85461" lon="8.48884">
        <ele>2500</ele>
        <time>2021-08-12T09:51:45.423Z</time>
      </trkpt>
      <trkpt lat="46.85459" lon="8.48884">
        <ele>2504</ele>
        <time>2021-08-12T09:51:46.422Z</time>
      </trkpt>
      <trkpt lat="46.8546" lon="8.4888">
        <ele>2502</ele>
        <time>2021-08-12T09:51:47.423Z</time>
      </trkpt>
      <trkpt lat="46.8546" lon="8.4888">
        <ele>2502</ele>
        <time>2021-08-12T09:51:48.423Z</time>
      </trkpt>
      <trkpt lat="46.8546" lon="8.48879">
        <ele>2502</ele>
        <time>2021-08-12T09:51:49.422Z</time>
      </trkpt>
      <trkpt lat="46.85458" lon="8.4888">
        <ele>2503</ele>
        <time>2021-08-12T09:51:50.423Z</time>
      </trkpt>
      <trkpt lat="46.85458" lon="8.48879">
        <ele>2503</ele>
        <time>2021-08-12T09:51:51.423Z</time>
      </trkpt>
      <trkpt lat="46.85457" lon="8.48878">
        <ele>2502</ele>
        <time>2021-08-12T09:51:52.424Z</time>
      </trkpt>
      <trkpt lat="46.85455" lon="8.48878">
        <ele>2501</ele>
        <time>2021-08-12T09:51:53.423Z</time>
      </trkpt>
      <trkpt lat="46.85455" lon="8.48878">
        <ele>2501</ele>
        <time>2021-08-12T09:51:54.424Z</time>
      </trkpt>
      <trkpt lat="46.85453" lon="8.48879">
        <ele>2494</ele>
        <time>2021-08-12T09:51:55.425Z</time>
      </trkpt>
      <trkpt lat="46.85453" lon="8.48878">
        <ele>2494</ele>
        <time>2021-08-12T09:51:56.424Z</time>
      </trkpt>
      <trkpt lat="46.85453" lon="8.48878">
        <ele>2494</ele>
        <time>2021-08-12T09:51:57.424Z</time>
      </trkpt>
      <trkpt lat="46.85454" lon="8.48877">
        <ele>2497</ele>
        <time>2021-08-12T09:51:58.424Z</time>
      </trkpt>
      <trkpt lat="46.85455" lon="8.48878">
        <ele>2498</ele>
        <time>2021-08-12T09:51:59.424Z</time>
      </trkpt>
      <trkpt lat="46.85455" lon="8.48878">
        <ele>2498</ele>
        <time>2021-08-12T09:52:00.424Z</time>
      </trkpt>
      <trkpt lat="46.85455" lon="8.48878">
        <ele>2500</ele>
        <time>2021-08-12T09:52:01.426Z</time>
      </trkpt>
      <trkpt lat="46.85455" lon="8.48878">
        <ele>2501</ele>
        <time>2021-08-12T09:52:02.427Z</time>
      </trkpt>
      <trkpt lat="46.85455" lon="8.48879">
        <ele>2501</ele>
        <time>2021-08-12T09:52:03.427Z</time>
      </trkpt>
      <trkpt lat="46.85455" lon="8.48879">
        <ele>2501</ele>
        <time>2021-08-12T09:52:04.426Z</time>
      </trkpt>
      <trkpt lat="46.85452" lon="8.4888">
        <ele>2501</ele>
        <time>2021-08-12T09:52:05.427Z</time>
      </trkpt>
      <trkpt lat="46.85451" lon="8.4888">
        <ele>2501</ele>
        <time>2021-08-12T09:52:06.428Z</time>
      </trkpt>
      <trkpt lat="46.8545" lon="8.4888">
        <ele>2501</ele>
        <time>2021-08-12T09:52:07.427Z</time>
      </trkpt>
      <trkpt lat="46.85449" lon="8.4888">
        <ele>2501</ele>
        <time>2021-08-12T09:52:08.428Z</time>
      </trkpt>
      <trkpt lat="46.85448" lon="8.4888">
        <ele>2501</ele>
        <time>2021-08-12T09:52:09.428Z</time>
      </trkpt>
      <trkpt lat="46.85448" lon="8.4888">
        <ele>2501</ele>
        <time>2021-08-12T09:52:10.428Z</time>
      </trkpt>
      <trkpt lat="46.85448" lon="8.4888">
        <ele>2501</ele>
        <time>2021-08-12T09:52:11.427Z</time>
      </trkpt>
      <trkpt lat="46.85448" lon="8.4888">
        <ele>2501</ele>
        <time>2021-08-12T09:52:12.428Z</time>
      </trkpt>
      <trkpt lat="46.85447" lon="8.4888">
        <ele>2501</ele>
        <time>2021-08-12T09:52:13.427Z</time>
      </trkpt>
      <trkpt lat="46.85446" lon="8.4888">
        <ele>2501</ele>
        <time>2021-08-12T09:52:14.428Z</time>
      </trkpt>
      <trkpt lat="46.85445" lon="8.4888">
        <ele>2501</ele>
        <time>2021-08-12T09:52:15.427Z</time>
      </trkpt>
      <trkpt lat="46.85444" lon="8.4888">
        <ele>2501</ele>
        <time>2021-08-12T09:52:16.428Z</time>
      </trkpt>
      <trkpt lat="46.85444" lon="8.4888">
        <ele>2502</ele>
        <time>2021-08-12T09:52:17.427Z</time>
      </trkpt>
      <trkpt lat="46.85444" lon="8.48881">
        <ele>2502</ele>
        <time>2021-08-12T09:52:18.428Z</time>
      </trkpt>
      <trkpt lat="46.85443" lon="8.48884">
        <ele>2503</ele>
        <time>2021-08-12T09:52:19.428Z</time>
      </trkpt>
      <trkpt lat="46.85443" lon="8.48885">
        <ele>2503</ele>
        <time>2021-08-12T09:52:20.429Z</time>
      </trkpt>
      <trkpt lat="46.85442" lon="8.48886">
        <ele>2503</ele>
        <time>2021-08-12T09:52:21.428Z</time>
      </trkpt>
      <trkpt lat="46.85442" lon="8.48887">
        <ele>2503</ele>
        <time>2021-08-12T09:52:22.428Z</time>
      </trkpt>
      <trkpt lat="46.85442" lon="8.48887">
        <ele>2503</ele>
        <time>2021-08-12T09:52:23.428Z</time>
      </trkpt>
      <trkpt lat="46.85442" lon="8.48888">
        <ele>2504</ele>
        <time>2021-08-12T09:52:24.429Z</time>
      </trkpt>
      <trkpt lat="46.85441" lon="8.48888">
        <ele>2504</ele>
        <time>2021-08-12T09:52:25.428Z</time>
      </trkpt>
      <trkpt lat="46.85441" lon="8.48889">
        <ele>2503</ele>
        <time>2021-08-12T09:52:26.429Z</time>
      </trkpt>
      <trkpt lat="46.85441" lon="8.48889">
        <ele>2503</ele>
        <time>2021-08-12T09:52:27.429Z</time>
      </trkpt>
      <trkpt lat="46.85441" lon="8.48889">
        <ele>2503</ele>
        <time>2021-08-12T09:52:28.428Z</time>
      </trkpt>
      <trkpt lat="46.8544" lon="8.48887">
        <ele>2503</ele>
        <time>2021-08-12T09:52:29.429Z</time>
      </trkpt>
      <trkpt lat="46.85441" lon="8.48888">
        <ele>2503</ele>
        <time>2021-08-12T09:52:30.430Z</time>
      </trkpt>
      <trkpt lat="46.8544" lon="8.48887">
        <ele>2503</ele>
        <time>2021-08-12T09:52:31.429Z</time>
      </trkpt>
      <trkpt lat="46.85441" lon="8.48887">
        <ele>2503</ele>
        <time>2021-08-12T09:52:32.429Z</time>
      </trkpt>
      <trkpt lat="46.8544" lon="8.48886">
        <ele>2503</ele>
        <time>2021-08-12T09:52:33.430Z</time>
      </trkpt>
      <trkpt lat="46.8544" lon="8.48886">
        <ele>2503</ele>
        <time>2021-08-12T09:52:34.430Z</time>
      </trkpt>
      <trkpt lat="46.8544" lon="8.48886">
        <ele>2503</ele>
        <time>2021-08-12T09:52:35.429Z</time>
      </trkpt>
      <trkpt lat="46.85439" lon="8.48887">
        <ele>2503</ele>
        <time>2021-08-12T09:52:36.429Z</time>
      </trkpt>
      <trkpt lat="46.85438" lon="8.48887">
        <ele>2503</ele>
        <time>2021-08-12T09:52:37.429Z</time>
      </trkpt>
      <trkpt lat="46.85438" lon="8.48887">
        <ele>2503</ele>
        <time>2021-08-12T09:52:38.430Z</time>
      </trkpt>
      <trkpt lat="46.85438" lon="8.48888">
        <ele>2504</ele>
        <time>2021-08-12T09:52:39.429Z</time>
      </trkpt>
      <trkpt lat="46.85438" lon="8.48889">
        <ele>2504</ele>
        <time>2021-08-12T09:52:40.430Z</time>
      </trkpt>
      <trkpt lat="46.85438" lon="8.4889">
        <ele>2505</ele>
        <time>2021-08-12T09:52:41.430Z</time>
      </trkpt>
      <trkpt lat="46.85437" lon="8.48891">
        <ele>2506</ele>
        <time>2021-08-12T09:52:42.429Z</time>
      </trkpt>
      <trkpt lat="46.85436" lon="8.48892">
        <ele>2506</ele>
        <time>2021-08-12T09:52:43.429Z</time>
      </trkpt>
      <trkpt lat="46.85436" lon="8.48892">
        <ele>2507</ele>
        <time>2021-08-12T09:52:44.429Z</time>
      </trkpt>
      <trkpt lat="46.85435" lon="8.48893">
        <ele>2507</ele>
        <time>2021-08-12T09:52:45.430Z</time>
      </trkpt>
      <trkpt lat="46.85435" lon="8.48893">
        <ele>2508</ele>
        <time>2021-08-12T09:52:46.429Z</time>
      </trkpt>
      <trkpt lat="46.85435" lon="8.48893">
        <ele>2508</ele>
        <time>2021-08-12T09:52:47.429Z</time>
      </trkpt>
      <trkpt lat="46.85435" lon="8.48894">
        <ele>2508</ele>
        <time>2021-08-12T09:52:48.430Z</time>
      </trkpt>
      <trkpt lat="46.85434" lon="8.48894">
        <ele>2508</ele>
        <time>2021-08-12T09:52:49.430Z</time>
      </trkpt>
      <trkpt lat="46.85434" lon="8.48895">
        <ele>2508</ele>
        <time>2021-08-12T09:52:50.429Z</time>
      </trkpt>
      <trkpt lat="46.85433" lon="8.48895">
        <ele>2509</ele>
        <time>2021-08-12T09:52:51.429Z</time>
      </trkpt>
      <trkpt lat="46.85432" lon="8.48895">
        <ele>2509</ele>
        <time>2021-08-12T09:52:52.430Z</time>
      </trkpt>
      <trkpt lat="46.85432" lon="8.48895">
        <ele>2509</ele>
        <time>2021-08-12T09:52:53.430Z</time>
      </trkpt>
      <trkpt lat="46.85431" lon="8.48894">
        <ele>2509</ele>
        <time>2021-08-12T09:52:54.430Z</time>
      </trkpt>
      <trkpt lat="46.85431" lon="8.48894">
        <ele>2508</ele>
        <time>2021-08-12T09:52:55.429Z</time>
      </trkpt>
      <trkpt lat="46.85431" lon="8.48893">
        <ele>2509</ele>
        <time>2021-08-12T09:52:56.430Z</time>
      </trkpt>
      <trkpt lat="46.8543" lon="8.48893">
        <ele>2509</ele>
        <time>2021-08-12T09:52:57.430Z</time>
      </trkpt>
      <trkpt lat="46.8543" lon="8.48893">
        <ele>2510</ele>
        <time>2021-08-12T09:52:58.429Z</time>
      </trkpt>
      <trkpt lat="46.85429" lon="8.48893">
        <ele>2510</ele>
        <time>2021-08-12T09:52:59.430Z</time>
      </trkpt>
      <trkpt lat="46.85429" lon="8.48893">
        <ele>2510</ele>
        <time>2021-08-12T09:53:00.429Z</time>
      </trkpt>
      <trkpt lat="46.85429" lon="8.48893">
        <ele>2510</ele>
        <time>2021-08-12T09:53:01.430Z</time>
      </trkpt>
      <trkpt lat="46.85428" lon="8.48894">
        <ele>2510</ele>
        <time>2021-08-12T09:53:02.429Z</time>
      </trkpt>
      <trkpt lat="46.85428" lon="8.48894">
        <ele>2510</ele>
        <time>2021-08-12T09:53:03.430Z</time>
      </trkpt>
      <trkpt lat="46.85428" lon="8.48895">
        <ele>2510</ele>
        <time>2021-08-12T09:53:04.430Z</time>
      </trkpt>
      <trkpt lat="46.85427" lon="8.48895">
        <ele>2510</ele>
        <time>2021-08-12T09:53:05.429Z</time>
      </trkpt>
      <trkpt lat="46.85427" lon="8.48895">
        <ele>2510</ele>
        <time>2021-08-12T09:53:06.430Z</time>
      </trkpt>
      <trkpt lat="46.85427" lon="8.48895">
        <ele>2510</ele>
        <time>2021-08-12T09:53:07.430Z</time>
      </trkpt>
      <trkpt lat="46.85426" lon="8.48895">
        <ele>2510</ele>
        <time>2021-08-12T09:53:08.430Z</time>
      </trkpt>
      <trkpt lat="46.85426" lon="8.48895">
        <ele>2510</ele>
        <time>2021-08-12T09:53:09.430Z</time>
      </trkpt>
      <trkpt lat="46.85426" lon="8.48895">
        <ele>2511</ele>
        <time>2021-08-12T09:53:10.429Z</time>
      </trkpt>
      <trkpt lat="46.85425" lon="8.48893">
        <ele>2513</ele>
        <time>2021-08-12T09:53:11.430Z</time>
      </trkpt>
      <trkpt lat="46.85424" lon="8.48893">
        <ele>2514</ele>
        <time>2021-08-12T09:53:12.431Z</time>
      </trkpt>
      <trkpt lat="46.85424" lon="8.48892">
        <ele>2514</ele>
        <time>2021-08-12T09:53:13.430Z</time>
      </trkpt>
      <trkpt lat="46.85423" lon="8.48892">
        <ele>2515</ele>
        <time>2021-08-12T09:53:14.431Z</time>
      </trkpt>
      <trkpt lat="46.85423" lon="8.48892">
        <ele>2515</ele>
        <time>2021-08-12T09:53:15.430Z</time>
      </trkpt>
      <trkpt lat="46.85422" lon="8.48892">
        <ele>2515</ele>
        <time>2021-08-12T09:53:16.430Z</time>
      </trkpt>
      <trkpt lat="46.85422" lon="8.48893">
        <ele>2515</ele>
        <time>2021-08-12T09:53:17.430Z</time>
      </trkpt>
      <trkpt lat="46.85423" lon="8.48893">
        <ele>2515</ele>
        <time>2021-08-12T09:53:18.430Z</time>
      </trkpt>
      <trkpt lat="46.85423" lon="8.48892">
        <ele>2515</ele>
        <time>2021-08-12T09:53:19.431Z</time>
      </trkpt>
      <trkpt lat="46.85423" lon="8.48892">
        <ele>2515</ele>
        <time>2021-08-12T09:53:20.431Z</time>
      </trkpt>
      <trkpt lat="46.85424" lon="8.48892">
        <ele>2515</ele>
        <time>2021-08-12T09:53:21.431Z</time>
      </trkpt>
      <trkpt lat="46.85424" lon="8.48892">
        <ele>2515</ele>
        <time>2021-08-12T09:53:22.430Z</time>
      </trkpt>
      <trkpt lat="46.85424" lon="8.48892">
        <ele>2515</ele>
        <time>2021-08-12T09:53:23.431Z</time>
      </trkpt>
      <trkpt lat="46.85423" lon="8.48895">
        <ele>2516</ele>
        <time>2021-08-12T09:53:24.431Z</time>
      </trkpt>
      <trkpt lat="46.85423" lon="8.48894">
        <ele>2516</ele>
        <time>2021-08-12T09:53:25.432Z</time>
      </trkpt>
      <trkpt lat="46.85425" lon="8.48894">
        <ele>2512</ele>
        <time>2021-08-12T09:53:26.431Z</time>
      </trkpt>
      <trkpt lat="46.85425" lon="8.48894">
        <ele>2512</ele>
        <time>2021-08-12T09:53:27.432Z</time>
      </trkpt>
      <trkpt lat="46.85425" lon="8.48894">
        <ele>2511</ele>
        <time>2021-08-12T09:53:28.432Z</time>
      </trkpt>
      <trkpt lat="46.85424" lon="8.48896">
        <ele>2515</ele>
        <time>2021-08-12T09:53:29.431Z</time>
      </trkpt>
      <trkpt lat="46.85423" lon="8.48895">
        <ele>2514</ele>
        <time>2021-08-12T09:53:30.432Z</time>
      </trkpt>
      <trkpt lat="46.85423" lon="8.48895">
        <ele>2514</ele>
        <time>2021-08-12T09:53:31.433Z</time>
      </trkpt>
      <trkpt lat="46.85424" lon="8.48894">
        <ele>2517</ele>
        <time>2021-08-12T09:53:32.433Z</time>
      </trkpt>
      <trkpt lat="46.85425" lon="8.48893">
        <ele>2519</ele>
        <time>2021-08-12T09:53:33.433Z</time>
      </trkpt>
      <trkpt lat="46.85424" lon="8.48892">
        <ele>2519</ele>
        <time>2021-08-12T09:53:34.433Z</time>
      </trkpt>
      <trkpt lat="46.85424" lon="8.48893">
        <ele>2519</ele>
        <time>2021-08-12T09:53:35.432Z</time>
      </trkpt>
      <trkpt lat="46.85425" lon="8.48892">
        <ele>2519</ele>
        <time>2021-08-12T09:53:36.433Z</time>
      </trkpt>
      <trkpt lat="46.85425" lon="8.48891">
        <ele>2520</ele>
        <time>2021-08-12T09:53:37.433Z</time>
      </trkpt>
      <trkpt lat="46.85425" lon="8.48891">
        <ele>2521</ele>
        <time>2021-08-12T09:53:38.434Z</time>
      </trkpt>
      <trkpt lat="46.85425" lon="8.48891">
        <ele>2521</ele>
        <time>2021-08-12T09:53:39.433Z</time>
      </trkpt>
      <trkpt lat="46.85425" lon="8.48891">
        <ele>2520</ele>
        <time>2021-08-12T09:53:40.433Z</time>
      </trkpt>
      <trkpt lat="46.85425" lon="8.48891">
        <ele>2520</ele>
        <time>2021-08-12T09:53:41.434Z</time>
      </trkpt>
      <trkpt lat="46.85425" lon="8.48891">
        <ele>2520</ele>
        <time>2021-08-12T09:53:42.434Z</time>
      </trkpt>
      <trkpt lat="46.85425" lon="8.4889">
        <ele>2520</ele>
        <time>2021-08-12T09:53:43.434Z</time>
      </trkpt>
      <trkpt lat="46.85426" lon="8.4889">
        <ele>2520</ele>
        <time>2021-08-12T09:53:44.433Z</time>
      </trkpt>
      <trkpt lat="46.85424" lon="8.48885">
        <ele>2519</ele>
        <time>2021-08-12T09:53:45.434Z</time>
      </trkpt>
      <trkpt lat="46.85424" lon="8.48885">
        <ele>2519</ele>
        <time>2021-08-12T09:53:46.434Z</time>
      </trkpt>
      <trkpt lat="46.85424" lon="8.48885">
        <ele>2519</ele>
        <time>2021-08-12T09:53:47.433Z</time>
      </trkpt>
      <trkpt lat="46.85424" lon="8.48885">
        <ele>2519</ele>
        <time>2021-08-12T09:53:48.434Z</time>
      </trkpt>
      <trkpt lat="46.85424" lon="8.48885">
        <ele>2518</ele>
        <time>2021-08-12T09:53:49.434Z</time>
      </trkpt>
      <trkpt lat="46.85424" lon="8.48885">
        <ele>2518</ele>
        <time>2021-08-12T09:53:50.434Z</time>
      </trkpt>
      <trkpt lat="46.85424" lon="8.48885">
        <ele>2518</ele>
        <time>2021-08-12T09:53:51.433Z</time>
      </trkpt>
      <trkpt lat="46.85427" lon="8.48883">
        <ele>2516</ele>
        <time>2021-08-12T09:53:52.434Z</time>
      </trkpt>
      <trkpt lat="46.85427" lon="8.48883">
        <ele>2514</ele>
        <time>2021-08-12T09:53:53.434Z</time>
      </trkpt>
      <trkpt lat="46.85427" lon="8.48883">
        <ele>2514</ele>
        <time>2021-08-12T09:53:54.434Z</time>
      </trkpt>
      <trkpt lat="46.85427" lon="8.48883">
        <ele>2513</ele>
        <time>2021-08-12T09:53:55.433Z</time>
      </trkpt>
      <trkpt lat="46.85427" lon="8.48882">
        <ele>2513</ele>
        <time>2021-08-12T09:53:56.434Z</time>
      </trkpt>
      <trkpt lat="46.85426" lon="8.48882">
        <ele>2513</ele>
        <time>2021-08-12T09:53:57.433Z</time>
      </trkpt>
      <trkpt lat="46.85426" lon="8.48882">
        <ele>2513</ele>
        <time>2021-08-12T09:53:58.434Z</time>
      </trkpt>
      <trkpt lat="46.85424" lon="8.48881">
        <ele>2513</ele>
        <time>2021-08-12T09:53:59.435Z</time>
      </trkpt>
      <trkpt lat="46.85424" lon="8.48878">
        <ele>2514</ele>
        <time>2021-08-12T09:54:00.435Z</time>
      </trkpt>
      <trkpt lat="46.85424" lon="8.48878">
        <ele>2514</ele>
        <time>2021-08-12T09:54:01.434Z</time>
      </trkpt>
      <trkpt lat="46.85424" lon="8.48877">
        <ele>2514</ele>
        <time>2021-08-12T09:54:02.435Z</time>
      </trkpt>
      <trkpt lat="46.85424" lon="8.48876">
        <ele>2514</ele>
        <time>2021-08-12T09:54:03.435Z</time>
      </trkpt>
      <trkpt lat="46.85424" lon="8.48876">
        <ele>2514</ele>
        <time>2021-08-12T09:54:04.435Z</time>
      </trkpt>
      <trkpt lat="46.85423" lon="8.48875">
        <ele>2515</ele>
        <time>2021-08-12T09:54:05.435Z</time>
      </trkpt>
      <trkpt lat="46.85423" lon="8.48875">
        <ele>2515</ele>
        <time>2021-08-12T09:54:06.435Z</time>
      </trkpt>
      <trkpt lat="46.85421" lon="8.48874">
        <ele>2510</ele>
        <time>2021-08-12T09:54:07.436Z</time>
      </trkpt>
      <trkpt lat="46.85421" lon="8.48873">
        <ele>2510</ele>
        <time>2021-08-12T09:54:08.436Z</time>
      </trkpt>
      <trkpt lat="46.85419" lon="8.4887">
        <ele>2513</ele>
        <time>2021-08-12T09:54:09.436Z</time>
      </trkpt>
      <trkpt lat="46.85418" lon="8.4887">
        <ele>2514</ele>
        <time>2021-08-12T09:54:10.436Z</time>
      </trkpt>
      <trkpt lat="46.85418" lon="8.4887">
        <ele>2515</ele>
        <time>2021-08-12T09:54:11.435Z</time>
      </trkpt>
      <trkpt lat="46.85417" lon="8.48871">
        <ele>2516</ele>
        <time>2021-08-12T09:54:12.436Z</time>
      </trkpt>
      <trkpt lat="46.85417" lon="8.48872">
        <ele>2516</ele>
        <time>2021-08-12T09:54:13.435Z</time>
      </trkpt>
      <trkpt lat="46.85417" lon="8.48873">
        <ele>2516</ele>
        <time>2021-08-12T09:54:14.436Z</time>
      </trkpt>
      <trkpt lat="46.85417" lon="8.48874">
        <ele>2517</ele>
        <time>2021-08-12T09:54:15.435Z</time>
      </trkpt>
      <trkpt lat="46.85416" lon="8.48875">
        <ele>2517</ele>
        <time>2021-08-12T09:54:16.435Z</time>
      </trkpt>
      <trkpt lat="46.85416" lon="8.48876">
        <ele>2518</ele>
        <time>2021-08-12T09:54:17.436Z</time>
      </trkpt>
      <trkpt lat="46.85416" lon="8.48877">
        <ele>2518</ele>
        <time>2021-08-12T09:54:18.435Z</time>
      </trkpt>
      <trkpt lat="46.85415" lon="8.48878">
        <ele>2519</ele>
        <time>2021-08-12T09:54:19.436Z</time>
      </trkpt>
      <trkpt lat="46.85415" lon="8.48878">
        <ele>2519</ele>
        <time>2021-08-12T09:54:20.435Z</time>
      </trkpt>
      <trkpt lat="46.85414" lon="8.48878">
        <ele>2519</ele>
        <time>2021-08-12T09:54:21.436Z</time>
      </trkpt>
      <trkpt lat="46.85414" lon="8.48878">
        <ele>2519</ele>
        <time>2021-08-12T09:54:22.436Z</time>
      </trkpt>
      <trkpt lat="46.85413" lon="8.48879">
        <ele>2519</ele>
        <time>2021-08-12T09:54:23.435Z</time>
      </trkpt>
      <trkpt lat="46.85413" lon="8.48879">
        <ele>2519</ele>
        <time>2021-08-12T09:54:24.436Z</time>
      </trkpt>
      <trkpt lat="46.85413" lon="8.48879">
        <ele>2519</ele>
        <time>2021-08-12T09:54:25.436Z</time>
      </trkpt>
      <trkpt lat="46.85412" lon="8.48879">
        <ele>2518</ele>
        <time>2021-08-12T09:54:26.435Z</time>
      </trkpt>
      <trkpt lat="46.85414" lon="8.48879">
        <ele>2517</ele>
        <time>2021-08-12T09:54:27.436Z</time>
      </trkpt>
      <trkpt lat="46.85414" lon="8.48878">
        <ele>2517</ele>
        <time>2021-08-12T09:54:28.435Z</time>
      </trkpt>
      <trkpt lat="46.85414" lon="8.48878">
        <ele>2517</ele>
        <time>2021-08-12T09:54:29.435Z</time>
      </trkpt>
      <trkpt lat="46.85414" lon="8.48877">
        <ele>2517</ele>
        <time>2021-08-12T09:54:30.436Z</time>
      </trkpt>
      <trkpt lat="46.85414" lon="8.48876">
        <ele>2518</ele>
        <time>2021-08-12T09:54:31.436Z</time>
      </trkpt>
      <trkpt lat="46.85414" lon="8.48876">
        <ele>2517</ele>
        <time>2021-08-12T09:54:32.436Z</time>
      </trkpt>
      <trkpt lat="46.85411" lon="8.48875">
        <ele>2520</ele>
        <time>2021-08-12T09:54:33.437Z</time>
      </trkpt>
      <trkpt lat="46.85411" lon="8.48875">
        <ele>2520</ele>
        <time>2021-08-12T09:54:34.436Z</time>
      </trkpt>
      <trkpt lat="46.85411" lon="8.48875">
        <ele>2520</ele>
        <time>2021-08-12T09:54:35.436Z</time>
      </trkpt>
      <trkpt lat="46.8541" lon="8.48874">
        <ele>2519</ele>
        <time>2021-08-12T09:54:36.436Z</time>
      </trkpt>
      <trkpt lat="46.8541" lon="8.48873">
        <ele>2518</ele>
        <time>2021-08-12T09:54:37.436Z</time>
      </trkpt>
      <trkpt lat="46.8541" lon="8.48873">
        <ele>2518</ele>
        <time>2021-08-12T09:54:38.436Z</time>
      </trkpt>
      <trkpt lat="46.85408" lon="8.48869">
        <ele>2515</ele>
        <time>2021-08-12T09:54:39.437Z</time>
      </trkpt>
      <trkpt lat="46.85408" lon="8.48869">
        <ele>2515</ele>
        <time>2021-08-12T09:54:40.437Z</time>
      </trkpt>
      <trkpt lat="46.85407" lon="8.48869">
        <ele>2516</ele>
        <time>2021-08-12T09:54:41.437Z</time>
      </trkpt>
      <trkpt lat="46.85406" lon="8.48869">
        <ele>2516</ele>
        <time>2021-08-12T09:54:42.437Z</time>
      </trkpt>
      <trkpt lat="46.85406" lon="8.4887">
        <ele>2517</ele>
        <time>2021-08-12T09:54:43.436Z</time>
      </trkpt>
      <trkpt lat="46.85406" lon="8.4887">
        <ele>2518</ele>
        <time>2021-08-12T09:54:44.437Z</time>
      </trkpt>
      <trkpt lat="46.85405" lon="8.4887">
        <ele>2518</ele>
        <time>2021-08-12T09:54:45.437Z</time>
      </trkpt>
      <trkpt lat="46.85404" lon="8.48872">
        <ele>2517</ele>
        <time>2021-08-12T09:54:46.439Z</time>
      </trkpt>
      <trkpt lat="46.85403" lon="8.48874">
        <ele>2517</ele>
        <time>2021-08-12T09:54:47.439Z</time>
      </trkpt>
      <trkpt lat="46.85403" lon="8.48874">
        <ele>2517</ele>
        <time>2021-08-12T09:54:48.439Z</time>
      </trkpt>
      <trkpt lat="46.85402" lon="8.48874">
        <ele>2518</ele>
        <time>2021-08-12T09:54:49.439Z</time>
      </trkpt>
      <trkpt lat="46.85402" lon="8.48875">
        <ele>2518</ele>
        <time>2021-08-12T09:54:50.439Z</time>
      </trkpt>
      <trkpt lat="46.85402" lon="8.48874">
        <ele>2518</ele>
        <time>2021-08-12T09:54:51.439Z</time>
      </trkpt>
      <trkpt lat="46.85402" lon="8.48874">
        <ele>2519</ele>
        <time>2021-08-12T09:54:52.438Z</time>
      </trkpt>
      <trkpt lat="46.85406" lon="8.48878">
        <ele>2520</ele>
        <time>2021-08-12T09:54:53.440Z</time>
      </trkpt>
      <trkpt lat="46.85406" lon="8.48878">
        <ele>2520</ele>
        <time>2021-08-12T09:54:54.441Z</time>
      </trkpt>
      <trkpt lat="46.85403" lon="8.48879">
        <ele>2523</ele>
        <time>2021-08-12T09:54:55.440Z</time>
      </trkpt>
      <trkpt lat="46.85403" lon="8.48879">
        <ele>2524</ele>
        <time>2021-08-12T09:54:56.441Z</time>
      </trkpt>
      <trkpt lat="46.85403" lon="8.48878">
        <ele>2527</ele>
        <time>2021-08-12T09:54:57.440Z</time>
      </trkpt>
      <trkpt lat="46.85402" lon="8.48878">
        <ele>2528</ele>
        <time>2021-08-12T09:54:58.441Z</time>
      </trkpt>
      <trkpt lat="46.85401" lon="8.48877">
        <ele>2528</ele>
        <time>2021-08-12T09:54:59.440Z</time>
      </trkpt>
      <trkpt lat="46.85401" lon="8.48878">
        <ele>2529</ele>
        <time>2021-08-12T09:55:00.440Z</time>
      </trkpt>
      <trkpt lat="46.85401" lon="8.48878">
        <ele>2529</ele>
        <time>2021-08-12T09:55:01.440Z</time>
      </trkpt>
      <trkpt lat="46.854" lon="8.48879">
        <ele>2530</ele>
        <time>2021-08-12T09:55:02.441Z</time>
      </trkpt>
      <trkpt lat="46.854" lon="8.48879">
        <ele>2530</ele>
        <time>2021-08-12T09:55:03.441Z</time>
      </trkpt>
      <trkpt lat="46.854" lon="8.4888">
        <ele>2530</ele>
        <time>2021-08-12T09:55:04.441Z</time>
      </trkpt>
      <trkpt lat="46.85399" lon="8.4888">
        <ele>2529</ele>
        <time>2021-08-12T09:55:05.440Z</time>
      </trkpt>
      <trkpt lat="46.85399" lon="8.4888">
        <ele>2529</ele>
        <time>2021-08-12T09:55:06.441Z</time>
      </trkpt>
      <trkpt lat="46.85399" lon="8.4888">
        <ele>2530</ele>
        <time>2021-08-12T09:55:07.440Z</time>
      </trkpt>
      <trkpt lat="46.85398" lon="8.48881">
        <ele>2531</ele>
        <time>2021-08-12T09:55:08.441Z</time>
      </trkpt>
      <trkpt lat="46.85398" lon="8.48881">
        <ele>2531</ele>
        <time>2021-08-12T09:55:09.441Z</time>
      </trkpt>
      <trkpt lat="46.85398" lon="8.48881">
        <ele>2531</ele>
        <time>2021-08-12T09:55:10.440Z</time>
      </trkpt>
      <trkpt lat="46.85398" lon="8.48882">
        <ele>2531</ele>
        <time>2021-08-12T09:55:11.440Z</time>
      </trkpt>
      <trkpt lat="46.85399" lon="8.48881">
        <ele>2532</ele>
        <time>2021-08-12T09:55:12.441Z</time>
      </trkpt>
      <trkpt lat="46.85399" lon="8.4888">
        <ele>2532</ele>
        <time>2021-08-12T09:55:13.440Z</time>
      </trkpt>
      <trkpt lat="46.85399" lon="8.4888">
        <ele>2532</ele>
        <time>2021-08-12T09:55:14.440Z</time>
      </trkpt>
      <trkpt lat="46.854" lon="8.48882">
        <ele>2528</ele>
        <time>2021-08-12T09:55:15.442Z</time>
      </trkpt>
      <trkpt lat="46.854" lon="8.48881">
        <ele>2528</ele>
        <time>2021-08-12T09:55:16.441Z</time>
      </trkpt>
      <trkpt lat="46.854" lon="8.48881">
        <ele>2529</ele>
        <time>2021-08-12T09:55:17.442Z</time>
      </trkpt>
      <trkpt lat="46.854" lon="8.48881">
        <ele>2529</ele>
        <time>2021-08-12T09:55:18.442Z</time>
      </trkpt>
      <trkpt lat="46.854" lon="8.48881">
        <ele>2529</ele>
        <time>2021-08-12T09:55:19.441Z</time>
      </trkpt>
      <trkpt lat="46.854" lon="8.48881">
        <ele>2527</ele>
        <time>2021-08-12T09:55:20.442Z</time>
      </trkpt>
      <trkpt lat="46.85401" lon="8.4888">
        <ele>2527</ele>
        <time>2021-08-12T09:55:21.442Z</time>
      </trkpt>
      <trkpt lat="46.85401" lon="8.48879">
        <ele>2526</ele>
        <time>2021-08-12T09:55:22.442Z</time>
      </trkpt>
      <trkpt lat="46.85401" lon="8.48878">
        <ele>2525</ele>
        <time>2021-08-12T09:55:23.441Z</time>
      </trkpt>
      <trkpt lat="46.854" lon="8.48877">
        <ele>2525</ele>
        <time>2021-08-12T09:55:24.442Z</time>
      </trkpt>
      <trkpt lat="46.854" lon="8.48877">
        <ele>2525</ele>
        <time>2021-08-12T09:55:25.441Z</time>
      </trkpt>
      <trkpt lat="46.854" lon="8.48876">
        <ele>2524</ele>
        <time>2021-08-12T09:55:26.442Z</time>
      </trkpt>
      <trkpt lat="46.854" lon="8.48875">
        <ele>2524</ele>
        <time>2021-08-12T09:55:27.441Z</time>
      </trkpt>
      <trkpt lat="46.85399" lon="8.48875">
        <ele>2524</ele>
        <time>2021-08-12T09:55:28.442Z</time>
      </trkpt>
      <trkpt lat="46.85399" lon="8.48874">
        <ele>2524</ele>
        <time>2021-08-12T09:55:29.442Z</time>
      </trkpt>
      <trkpt lat="46.85398" lon="8.48873">
        <ele>2524</ele>
        <time>2021-08-12T09:55:30.441Z</time>
      </trkpt>
      <trkpt lat="46.85398" lon="8.48873">
        <ele>2524</ele>
        <time>2021-08-12T09:55:31.442Z</time>
      </trkpt>
      <trkpt lat="46.85398" lon="8.48873">
        <ele>2524</ele>
        <time>2021-08-12T09:55:32.442Z</time>
      </trkpt>
      <trkpt lat="46.85397" lon="8.48873">
        <ele>2523</ele>
        <time>2021-08-12T09:55:33.441Z</time>
      </trkpt>
      <trkpt lat="46.85395" lon="8.48869">
        <ele>2533</ele>
        <time>2021-08-12T09:55:34.441Z</time>
      </trkpt>
      <trkpt lat="46.85395" lon="8.48867">
        <ele>2533</ele>
        <time>2021-08-12T09:55:35.441Z</time>
      </trkpt>
      <trkpt lat="46.85395" lon="8.48866">
        <ele>2533</ele>
        <time>2021-08-12T09:55:36.442Z</time>
      </trkpt>
      <trkpt lat="46.85394" lon="8.48861">
        <ele>2533</ele>
        <time>2021-08-12T09:55:37.443Z</time>
      </trkpt>
      <trkpt lat="46.85393" lon="8.48861">
        <ele>2533</ele>
        <time>2021-08-12T09:55:38.442Z</time>
      </trkpt>
      <trkpt lat="46.85393" lon="8.48861">
        <ele>2533</ele>
        <time>2021-08-12T09:55:39.443Z</time>
      </trkpt>
      <trkpt lat="46.85394" lon="8.48862">
        <ele>2532</ele>
        <time>2021-08-12T09:55:40.443Z</time>
      </trkpt>
      <trkpt lat="46.85393" lon="8.48864">
        <ele>2531</ele>
        <time>2021-08-12T09:55:41.444Z</time>
      </trkpt>
      <trkpt lat="46.85393" lon="8.48864">
        <ele>2530</ele>
        <time>2021-08-12T09:55:42.444Z</time>
      </trkpt>
      <trkpt lat="46.85394" lon="8.48863">
        <ele>2527</ele>
        <time>2021-08-12T09:55:43.445Z</time>
      </trkpt>
      <trkpt lat="46.85394" lon="8.48862">
        <ele>2526</ele>
        <time>2021-08-12T09:55:44.444Z</time>
      </trkpt>
      <trkpt lat="46.85394" lon="8.48862">
        <ele>2526</ele>
        <time>2021-08-12T09:55:45.445Z</time>
      </trkpt>
      <trkpt lat="46.85393" lon="8.48861">
        <ele>2526</ele>
        <time>2021-08-12T09:55:46.445Z</time>
      </trkpt>
      <trkpt lat="46.85393" lon="8.48861">
        <ele>2526</ele>
        <time>2021-08-12T09:55:47.445Z</time>
      </trkpt>
      <trkpt lat="46.85393" lon="8.4886">
        <ele>2527</ele>
        <time>2021-08-12T09:55:48.444Z</time>
      </trkpt>
      <trkpt lat="46.85393" lon="8.48859">
        <ele>2527</ele>
        <time>2021-08-12T09:55:49.445Z</time>
      </trkpt>
      <trkpt lat="46.85393" lon="8.48859">
        <ele>2527</ele>
        <time>2021-08-12T09:55:50.445Z</time>
      </trkpt>
      <trkpt lat="46.85393" lon="8.4886">
        <ele>2527</ele>
        <time>2021-08-12T09:55:51.445Z</time>
      </trkpt>
      <trkpt lat="46.85392" lon="8.4886">
        <ele>2527</ele>
        <time>2021-08-12T09:55:52.444Z</time>
      </trkpt>
      <trkpt lat="46.85392" lon="8.4886">
        <ele>2527</ele>
        <time>2021-08-12T09:55:53.445Z</time>
      </trkpt>
      <trkpt lat="46.85392" lon="8.4886">
        <ele>2527</ele>
        <time>2021-08-12T09:55:54.445Z</time>
      </trkpt>
      <trkpt lat="46.85392" lon="8.48861">
        <ele>2528</ele>
        <time>2021-08-12T09:55:55.445Z</time>
      </trkpt>
      <trkpt lat="46.85392" lon="8.48861">
        <ele>2528</ele>
        <time>2021-08-12T09:55:56.445Z</time>
      </trkpt>
      <trkpt lat="46.85392" lon="8.48861">
        <ele>2528</ele>
        <time>2021-08-12T09:55:57.444Z</time>
      </trkpt>
      <trkpt lat="46.85391" lon="8.48861">
        <ele>2528</ele>
        <time>2021-08-12T09:55:58.445Z</time>
      </trkpt>
      <trkpt lat="46.85389" lon="8.48861">
        <ele>2528</ele>
        <time>2021-08-12T09:55:59.445Z</time>
      </trkpt>
      <trkpt lat="46.85388" lon="8.4886">
        <ele>2528</ele>
        <time>2021-08-12T09:56:00.445Z</time>
      </trkpt>
      <trkpt lat="46.85389" lon="8.4886">
        <ele>2528</ele>
        <time>2021-08-12T09:56:01.445Z</time>
      </trkpt>
      <trkpt lat="46.85389" lon="8.4886">
        <ele>2528</ele>
        <time>2021-08-12T09:56:02.445Z</time>
      </trkpt>
      <trkpt lat="46.8539" lon="8.48857">
        <ele>2528</ele>
        <time>2021-08-12T09:56:03.446Z</time>
      </trkpt>
      <trkpt lat="46.85391" lon="8.48856">
        <ele>2528</ele>
        <time>2021-08-12T09:56:04.445Z</time>
      </trkpt>
      <trkpt lat="46.85391" lon="8.48856">
        <ele>2527</ele>
        <time>2021-08-12T09:56:05.445Z</time>
      </trkpt>
      <trkpt lat="46.8539" lon="8.48856">
        <ele>2527</ele>
        <time>2021-08-12T09:56:06.445Z</time>
      </trkpt>
      <trkpt lat="46.85389" lon="8.48856">
        <ele>2527</ele>
        <time>2021-08-12T09:56:07.446Z</time>
      </trkpt>
      <trkpt lat="46.85389" lon="8.48856">
        <ele>2527</ele>
        <time>2021-08-12T09:56:08.445Z</time>
      </trkpt>
      <trkpt lat="46.85388" lon="8.48856">
        <ele>2527</ele>
        <time>2021-08-12T09:56:09.446Z</time>
      </trkpt>
      <trkpt lat="46.85388" lon="8.48856">
        <ele>2528</ele>
        <time>2021-08-12T09:56:10.445Z</time>
      </trkpt>
      <trkpt lat="46.85388" lon="8.48856">
        <ele>2528</ele>
        <time>2021-08-12T09:56:11.446Z</time>
      </trkpt>
      <trkpt lat="46.85388" lon="8.48857">
        <ele>2529</ele>
        <time>2021-08-12T09:56:12.446Z</time>
      </trkpt>
      <trkpt lat="46.85387" lon="8.48858">
        <ele>2530</ele>
        <time>2021-08-12T09:56:13.446Z</time>
      </trkpt>
      <trkpt lat="46.85387" lon="8.48858">
        <ele>2530</ele>
        <time>2021-08-12T09:56:14.447Z</time>
      </trkpt>
      <trkpt lat="46.85386" lon="8.48858">
        <ele>2531</ele>
        <time>2021-08-12T09:56:15.447Z</time>
      </trkpt>
      <trkpt lat="46.85386" lon="8.48858">
        <ele>2531</ele>
        <time>2021-08-12T09:56:16.447Z</time>
      </trkpt>
      <trkpt lat="46.85386" lon="8.48858">
        <ele>2531</ele>
        <time>2021-08-12T09:56:17.447Z</time>
      </trkpt>
      <trkpt lat="46.85386" lon="8.48858">
        <ele>2532</ele>
        <time>2021-08-12T09:56:18.447Z</time>
      </trkpt>
      <trkpt lat="46.85387" lon="8.48858">
        <ele>2532</ele>
        <time>2021-08-12T09:56:19.447Z</time>
      </trkpt>
      <trkpt lat="46.85386" lon="8.48858">
        <ele>2532</ele>
        <time>2021-08-12T09:56:20.447Z</time>
      </trkpt>
      <trkpt lat="46.85386" lon="8.48857">
        <ele>2532</ele>
        <time>2021-08-12T09:56:21.447Z</time>
      </trkpt>
      <trkpt lat="46.85386" lon="8.48857">
        <ele>2532</ele>
        <time>2021-08-12T09:56:22.446Z</time>
      </trkpt>
      <trkpt lat="46.85386" lon="8.48856">
        <ele>2531</ele>
        <time>2021-08-12T09:56:23.447Z</time>
      </trkpt>
      <trkpt lat="46.85385" lon="8.48856">
        <ele>2531</ele>
        <time>2021-08-12T09:56:24.447Z</time>
      </trkpt>
      <trkpt lat="46.85385" lon="8.48855">
        <ele>2532</ele>
        <time>2021-08-12T09:56:25.447Z</time>
      </trkpt>
      <trkpt lat="46.85385" lon="8.48856">
        <ele>2532</ele>
        <time>2021-08-12T09:56:26.447Z</time>
      </trkpt>
      <trkpt lat="46.85384" lon="8.48856">
        <ele>2533</ele>
        <time>2021-08-12T09:56:27.447Z</time>
      </trkpt>
      <trkpt lat="46.85384" lon="8.48856">
        <ele>2534</ele>
        <time>2021-08-12T09:56:28.447Z</time>
      </trkpt>
      <trkpt lat="46.85384" lon="8.48856">
        <ele>2535</ele>
        <time>2021-08-12T09:56:29.447Z</time>
      </trkpt>
      <trkpt lat="46.85384" lon="8.48857">
        <ele>2536</ele>
        <time>2021-08-12T09:56:30.447Z</time>
      </trkpt>
      <trkpt lat="46.85383" lon="8.48857">
        <ele>2537</ele>
        <time>2021-08-12T09:56:31.447Z</time>
      </trkpt>
      <trkpt lat="46.85383" lon="8.48857">
        <ele>2537</ele>
        <time>2021-08-12T09:56:32.446Z</time>
      </trkpt>
      <trkpt lat="46.85383" lon="8.48857">
        <ele>2537</ele>
        <time>2021-08-12T09:56:33.446Z</time>
      </trkpt>
      <trkpt lat="46.85383" lon="8.48855">
        <ele>2537</ele>
        <time>2021-08-12T09:56:34.448Z</time>
      </trkpt>
      <trkpt lat="46.85383" lon="8.48855">
        <ele>2537</ele>
        <time>2021-08-12T09:56:35.448Z</time>
      </trkpt>
      <trkpt lat="46.85383" lon="8.48854">
        <ele>2537</ele>
        <time>2021-08-12T09:56:36.447Z</time>
      </trkpt>
      <trkpt lat="46.85383" lon="8.48853">
        <ele>2536</ele>
        <time>2021-08-12T09:56:37.448Z</time>
      </trkpt>
      <trkpt lat="46.85383" lon="8.48853">
        <ele>2536</ele>
        <time>2021-08-12T09:56:38.448Z</time>
      </trkpt>
      <trkpt lat="46.85383" lon="8.48852">
        <ele>2536</ele>
        <time>2021-08-12T09:56:39.448Z</time>
      </trkpt>
      <trkpt lat="46.85384" lon="8.48851">
        <ele>2536</ele>
        <time>2021-08-12T09:56:40.447Z</time>
      </trkpt>
      <trkpt lat="46.85384" lon="8.48851">
        <ele>2536</ele>
        <time>2021-08-12T09:56:41.447Z</time>
      </trkpt>
      <trkpt lat="46.85383" lon="8.4885">
        <ele>2536</ele>
        <time>2021-08-12T09:56:42.448Z</time>
      </trkpt>
      <trkpt lat="46.85383" lon="8.4885">
        <ele>2536</ele>
        <time>2021-08-12T09:56:43.448Z</time>
      </trkpt>
      <trkpt lat="46.85383" lon="8.4885">
        <ele>2537</ele>
        <time>2021-08-12T09:56:44.448Z</time>
      </trkpt>
      <trkpt lat="46.85384" lon="8.48851">
        <ele>2537</ele>
        <time>2021-08-12T09:56:45.448Z</time>
      </trkpt>
      <trkpt lat="46.85384" lon="8.48851">
        <ele>2537</ele>
        <time>2021-08-12T09:56:46.447Z</time>
      </trkpt>
      <trkpt lat="46.85383" lon="8.4885">
        <ele>2537</ele>
        <time>2021-08-12T09:56:47.447Z</time>
      </trkpt>
      <trkpt lat="46.85383" lon="8.4885">
        <ele>2537</ele>
        <time>2021-08-12T09:56:48.447Z</time>
      </trkpt>
      <trkpt lat="46.85383" lon="8.48851">
        <ele>2537</ele>
        <time>2021-08-12T09:56:49.448Z</time>
      </trkpt>
      <trkpt lat="46.85383" lon="8.4885">
        <ele>2538</ele>
        <time>2021-08-12T09:56:50.449Z</time>
      </trkpt>
      <trkpt lat="46.85383" lon="8.4885">
        <ele>2539</ele>
        <time>2021-08-12T09:56:51.449Z</time>
      </trkpt>
      <trkpt lat="46.85381" lon="8.48851">
        <ele>2541</ele>
        <time>2021-08-12T09:56:52.449Z</time>
      </trkpt>
      <trkpt lat="46.8538" lon="8.48852">
        <ele>2541</ele>
        <time>2021-08-12T09:56:53.450Z</time>
      </trkpt>
      <trkpt lat="46.8538" lon="8.48852">
        <ele>2541</ele>
        <time>2021-08-12T09:56:54.449Z</time>
      </trkpt>
      <trkpt lat="46.85379" lon="8.48853">
        <ele>2541</ele>
        <time>2021-08-12T09:56:55.450Z</time>
      </trkpt>
      <trkpt lat="46.85379" lon="8.48853">
        <ele>2541</ele>
        <time>2021-08-12T09:56:56.449Z</time>
      </trkpt>
      <trkpt lat="46.85378" lon="8.48854">
        <ele>2542</ele>
        <time>2021-08-12T09:56:57.449Z</time>
      </trkpt>
      <trkpt lat="46.85378" lon="8.48854">
        <ele>2542</ele>
        <time>2021-08-12T09:56:58.449Z</time>
      </trkpt>
      <trkpt lat="46.85377" lon="8.48855">
        <ele>2542</ele>
        <time>2021-08-12T09:56:59.449Z</time>
      </trkpt>
      <trkpt lat="46.85377" lon="8.48855">
        <ele>2543</ele>
        <time>2021-08-12T09:57:00.450Z</time>
      </trkpt>
      <trkpt lat="46.85377" lon="8.48855">
        <ele>2543</ele>
        <time>2021-08-12T09:57:01.450Z</time>
      </trkpt>
      <trkpt lat="46.85376" lon="8.48856">
        <ele>2543</ele>
        <time>2021-08-12T09:57:02.450Z</time>
      </trkpt>
      <trkpt lat="46.85376" lon="8.48856">
        <ele>2543</ele>
        <time>2021-08-12T09:57:03.450Z</time>
      </trkpt>
      <trkpt lat="46.85375" lon="8.48856">
        <ele>2543</ele>
        <time>2021-08-12T09:57:04.450Z</time>
      </trkpt>
      <trkpt lat="46.85375" lon="8.48856">
        <ele>2543</ele>
        <time>2021-08-12T09:57:05.450Z</time>
      </trkpt>
      <trkpt lat="46.85375" lon="8.48856">
        <ele>2543</ele>
        <time>2021-08-12T09:57:06.450Z</time>
      </trkpt>
      <trkpt lat="46.85374" lon="8.48855">
        <ele>2543</ele>
        <time>2021-08-12T09:57:07.449Z</time>
      </trkpt>
      <trkpt lat="46.85374" lon="8.48855">
        <ele>2543</ele>
        <time>2021-08-12T09:57:08.450Z</time>
      </trkpt>
      <trkpt lat="46.85373" lon="8.48855">
        <ele>2543</ele>
        <time>2021-08-12T09:57:09.449Z</time>
      </trkpt>
      <trkpt lat="46.85373" lon="8.48856">
        <ele>2543</ele>
        <time>2021-08-12T09:57:10.450Z</time>
      </trkpt>
      <trkpt lat="46.85372" lon="8.48856">
        <ele>2543</ele>
        <time>2021-08-12T09:57:11.449Z</time>
      </trkpt>
      <trkpt lat="46.85372" lon="8.48856">
        <ele>2543</ele>
        <time>2021-08-12T09:57:12.449Z</time>
      </trkpt>
      <trkpt lat="46.85371" lon="8.48856">
        <ele>2542</ele>
        <time>2021-08-12T09:57:13.450Z</time>
      </trkpt>
      <trkpt lat="46.8537" lon="8.48856">
        <ele>2542</ele>
        <time>2021-08-12T09:57:14.449Z</time>
      </trkpt>
      <trkpt lat="46.8537" lon="8.48855">
        <ele>2542</ele>
        <time>2021-08-12T09:57:15.449Z</time>
      </trkpt>
      <trkpt lat="46.85369" lon="8.48855">
        <ele>2543</ele>
        <time>2021-08-12T09:57:16.450Z</time>
      </trkpt>
      <trkpt lat="46.85369" lon="8.48855">
        <ele>2543</ele>
        <time>2021-08-12T09:57:17.450Z</time>
      </trkpt>
      <trkpt lat="46.85368" lon="8.48855">
        <ele>2543</ele>
        <time>2021-08-12T09:57:18.450Z</time>
      </trkpt>
      <trkpt lat="46.85368" lon="8.48855">
        <ele>2543</ele>
        <time>2021-08-12T09:57:19.450Z</time>
      </trkpt>
      <trkpt lat="46.85367" lon="8.48855">
        <ele>2544</ele>
        <time>2021-08-12T09:57:20.450Z</time>
      </trkpt>
      <trkpt lat="46.85367" lon="8.48855">
        <ele>2544</ele>
        <time>2021-08-12T09:57:21.450Z</time>
      </trkpt>
      <trkpt lat="46.85366" lon="8.48855">
        <ele>2544</ele>
        <time>2021-08-12T09:57:22.450Z</time>
      </trkpt>
      <trkpt lat="46.85366" lon="8.48854">
        <ele>2544</ele>
        <time>2021-08-12T09:57:23.450Z</time>
      </trkpt>
      <trkpt lat="46.85366" lon="8.48854">
        <ele>2544</ele>
        <time>2021-08-12T09:57:24.449Z</time>
      </trkpt>
      <trkpt lat="46.85365" lon="8.48854">
        <ele>2544</ele>
        <time>2021-08-12T09:57:25.449Z</time>
      </trkpt>
      <trkpt lat="46.85365" lon="8.48853">
        <ele>2544</ele>
        <time>2021-08-12T09:57:26.450Z</time>
      </trkpt>
      <trkpt lat="46.85365" lon="8.48853">
        <ele>2544</ele>
        <time>2021-08-12T09:57:27.449Z</time>
      </trkpt>
      <trkpt lat="46.85365" lon="8.48853">
        <ele>2545</ele>
        <time>2021-08-12T09:57:28.450Z</time>
      </trkpt>
      <trkpt lat="46.85365" lon="8.48853">
        <ele>2545</ele>
        <time>2021-08-12T09:57:29.450Z</time>
      </trkpt>
      <trkpt lat="46.85365" lon="8.48853">
        <ele>2545</ele>
        <time>2021-08-12T09:57:30.449Z</time>
      </trkpt>
      <trkpt lat="46.85365" lon="8.48852">
        <ele>2545</ele>
        <time>2021-08-12T09:57:31.450Z</time>
      </trkpt>
      <trkpt lat="46.85361" lon="8.4885">
        <ele>2552</ele>
        <time>2021-08-12T09:57:32.449Z</time>
      </trkpt>
      <trkpt lat="46.85361" lon="8.4885">
        <ele>2552</ele>
        <time>2021-08-12T09:57:33.450Z</time>
      </trkpt>
      <trkpt lat="46.85359" lon="8.48851">
        <ele>2551</ele>
        <time>2021-08-12T09:57:34.449Z</time>
      </trkpt>
      <trkpt lat="46.85358" lon="8.48851">
        <ele>2551</ele>
        <time>2021-08-12T09:57:35.450Z</time>
      </trkpt>
      <trkpt lat="46.85358" lon="8.48851">
        <ele>2550</ele>
        <time>2021-08-12T09:57:36.449Z</time>
      </trkpt>
      <trkpt lat="46.85358" lon="8.48851">
        <ele>2550</ele>
        <time>2021-08-12T09:57:37.449Z</time>
      </trkpt>
      <trkpt lat="46.85357" lon="8.48852">
        <ele>2551</ele>
        <time>2021-08-12T09:57:38.450Z</time>
      </trkpt>
      <trkpt lat="46.85357" lon="8.48852">
        <ele>2551</ele>
        <time>2021-08-12T09:57:39.450Z</time>
      </trkpt>
      <trkpt lat="46.85356" lon="8.48852">
        <ele>2551</ele>
        <time>2021-08-12T09:57:40.450Z</time>
      </trkpt>
      <trkpt lat="46.85355" lon="8.48852">
        <ele>2551</ele>
        <time>2021-08-12T09:57:41.450Z</time>
      </trkpt>
      <trkpt lat="46.85355" lon="8.48852">
        <ele>2551</ele>
        <time>2021-08-12T09:57:42.449Z</time>
      </trkpt>
      <trkpt lat="46.85355" lon="8.48853">
        <ele>2551</ele>
        <time>2021-08-12T09:57:43.449Z</time>
      </trkpt>
      <trkpt lat="46.85355" lon="8.48854">
        <ele>2551</ele>
        <time>2021-08-12T09:57:44.450Z</time>
      </trkpt>
      <trkpt lat="46.85354" lon="8.48854">
        <ele>2552</ele>
        <time>2021-08-12T09:57:45.450Z</time>
      </trkpt>
      <trkpt lat="46.85354" lon="8.48854">
        <ele>2551</ele>
        <time>2021-08-12T09:57:46.449Z</time>
      </trkpt>
      <trkpt lat="46.85354" lon="8.48854">
        <ele>2551</ele>
        <time>2021-08-12T09:57:47.449Z</time>
      </trkpt>
      <trkpt lat="46.85353" lon="8.48855">
        <ele>2551</ele>
        <time>2021-08-12T09:57:48.450Z</time>
      </trkpt>
      <trkpt lat="46.85353" lon="8.48855">
        <ele>2551</ele>
        <time>2021-08-12T09:57:49.449Z</time>
      </trkpt>
      <trkpt lat="46.85353" lon="8.48856">
        <ele>2552</ele>
        <time>2021-08-12T09:57:50.450Z</time>
      </trkpt>
      <trkpt lat="46.85352" lon="8.48856">
        <ele>2552</ele>
        <time>2021-08-12T09:57:51.449Z</time>
      </trkpt>
      <trkpt lat="46.85352" lon="8.48856">
        <ele>2552</ele>
        <time>2021-08-12T09:57:52.449Z</time>
      </trkpt>
      <trkpt lat="46.85351" lon="8.48856">
        <ele>2553</ele>
        <time>2021-08-12T09:57:53.450Z</time>
      </trkpt>
      <trkpt lat="46.85351" lon="8.48857">
        <ele>2553</ele>
        <time>2021-08-12T09:57:54.449Z</time>
      </trkpt>
      <trkpt lat="46.85351" lon="8.48857">
        <ele>2553</ele>
        <time>2021-08-12T09:57:55.450Z</time>
      </trkpt>
      <trkpt lat="46.8535" lon="8.48858">
        <ele>2553</ele>
        <time>2021-08-12T09:57:56.449Z</time>
      </trkpt>
      <trkpt lat="46.8535" lon="8.48858">
        <ele>2553</ele>
        <time>2021-08-12T09:57:57.450Z</time>
      </trkpt>
      <trkpt lat="46.85349" lon="8.48858">
        <ele>2553</ele>
        <time>2021-08-12T09:57:58.450Z</time>
      </trkpt>
      <trkpt lat="46.85349" lon="8.48858">
        <ele>2553</ele>
        <time>2021-08-12T09:57:59.450Z</time>
      </trkpt>
      <trkpt lat="46.85348" lon="8.48859">
        <ele>2553</ele>
        <time>2021-08-12T09:58:00.450Z</time>
      </trkpt>
      <trkpt lat="46.85348" lon="8.48859">
        <ele>2553</ele>
        <time>2021-08-12T09:58:01.449Z</time>
      </trkpt>
      <trkpt lat="46.85348" lon="8.4886">
        <ele>2554</ele>
        <time>2021-08-12T09:58:02.450Z</time>
      </trkpt>
      <trkpt lat="46.85348" lon="8.4886">
        <ele>2554</ele>
        <time>2021-08-12T09:58:03.449Z</time>
      </trkpt>
      <trkpt lat="46.85347" lon="8.4886">
        <ele>2555</ele>
        <time>2021-08-12T09:58:04.449Z</time>
      </trkpt>
      <trkpt lat="46.85347" lon="8.4886">
        <ele>2555</ele>
        <time>2021-08-12T09:58:05.450Z</time>
      </trkpt>
      <trkpt lat="46.85347" lon="8.4886">
        <ele>2555</ele>
        <time>2021-08-12T09:58:06.450Z</time>
      </trkpt>
      <trkpt lat="46.85346" lon="8.48861">
        <ele>2555</ele>
        <time>2021-08-12T09:58:07.450Z</time>
      </trkpt>
      <trkpt lat="46.85347" lon="8.48861">
        <ele>2556</ele>
        <time>2021-08-12T09:58:08.450Z</time>
      </trkpt>
      <trkpt lat="46.85346" lon="8.48862">
        <ele>2556</ele>
        <time>2021-08-12T09:58:09.450Z</time>
      </trkpt>
      <trkpt lat="46.85346" lon="8.48862">
        <ele>2557</ele>
        <time>2021-08-12T09:58:10.450Z</time>
      </trkpt>
      <trkpt lat="46.85345" lon="8.48862">
        <ele>2557</ele>
        <time>2021-08-12T09:58:11.450Z</time>
      </trkpt>
      <trkpt lat="46.85345" lon="8.48862">
        <ele>2557</ele>
        <time>2021-08-12T09:58:12.449Z</time>
      </trkpt>
      <trkpt lat="46.85344" lon="8.48863">
        <ele>2557</ele>
        <time>2021-08-12T09:58:13.449Z</time>
      </trkpt>
      <trkpt lat="46.85344" lon="8.48863">
        <ele>2557</ele>
        <time>2021-08-12T09:58:14.450Z</time>
      </trkpt>
      <trkpt lat="46.85343" lon="8.48863">
        <ele>2557</ele>
        <time>2021-08-12T09:58:15.450Z</time>
      </trkpt>
      <trkpt lat="46.85343" lon="8.48863">
        <ele>2557</ele>
        <time>2021-08-12T09:58:16.450Z</time>
      </trkpt>
      <trkpt lat="46.85343" lon="8.48863">
        <ele>2557</ele>
        <time>2021-08-12T09:58:17.449Z</time>
      </trkpt>
      <trkpt lat="46.85343" lon="8.48863">
        <ele>2557</ele>
        <time>2021-08-12T09:58:18.450Z</time>
      </trkpt>
      <trkpt lat="46.85342" lon="8.48864">
        <ele>2558</ele>
        <time>2021-08-12T09:58:19.449Z</time>
      </trkpt>
      <trkpt lat="46.85342" lon="8.48864">
        <ele>2558</ele>
        <time>2021-08-12T09:58:20.450Z</time>
      </trkpt>
      <trkpt lat="46.85341" lon="8.48864">
        <ele>2558</ele>
        <time>2021-08-12T09:58:21.450Z</time>
      </trkpt>
      <trkpt lat="46.85341" lon="8.48865">
        <ele>2558</ele>
        <time>2021-08-12T09:58:22.450Z</time>
      </trkpt>
      <trkpt lat="46.85341" lon="8.48866">
        <ele>2558</ele>
        <time>2021-08-12T09:58:23.449Z</time>
      </trkpt>
      <trkpt lat="46.8534" lon="8.48866">
        <ele>2558</ele>
        <time>2021-08-12T09:58:24.450Z</time>
      </trkpt>
      <trkpt lat="46.8534" lon="8.48867">
        <ele>2559</ele>
        <time>2021-08-12T09:58:25.449Z</time>
      </trkpt>
      <trkpt lat="46.8534" lon="8.48867">
        <ele>2559</ele>
        <time>2021-08-12T09:58:26.449Z</time>
      </trkpt>
      <trkpt lat="46.85339" lon="8.48868">
        <ele>2559</ele>
        <time>2021-08-12T09:58:27.450Z</time>
      </trkpt>
      <trkpt lat="46.85339" lon="8.48868">
        <ele>2560</ele>
        <time>2021-08-12T09:58:28.449Z</time>
      </trkpt>
      <trkpt lat="46.85339" lon="8.48869">
        <ele>2560</ele>
        <time>2021-08-12T09:58:29.450Z</time>
      </trkpt>
      <trkpt lat="46.85338" lon="8.48869">
        <ele>2561</ele>
        <time>2021-08-12T09:58:30.450Z</time>
      </trkpt>
      <trkpt lat="46.85338" lon="8.4887">
        <ele>2561</ele>
        <time>2021-08-12T09:58:31.449Z</time>
      </trkpt>
      <trkpt lat="46.85337" lon="8.4887">
        <ele>2561</ele>
        <time>2021-08-12T09:58:32.450Z</time>
      </trkpt>
      <trkpt lat="46.85337" lon="8.4887">
        <ele>2561</ele>
        <time>2021-08-12T09:58:33.450Z</time>
      </trkpt>
      <trkpt lat="46.85337" lon="8.4887">
        <ele>2561</ele>
        <time>2021-08-12T09:58:34.449Z</time>
      </trkpt>
      <trkpt lat="46.85336" lon="8.4887">
        <ele>2561</ele>
        <time>2021-08-12T09:58:35.449Z</time>
      </trkpt>
      <trkpt lat="46.85336" lon="8.48869">
        <ele>2561</ele>
        <time>2021-08-12T09:58:36.450Z</time>
      </trkpt>
      <trkpt lat="46.85336" lon="8.48869">
        <ele>2561</ele>
        <time>2021-08-12T09:58:37.449Z</time>
      </trkpt>
      <trkpt lat="46.85336" lon="8.48868">
        <ele>2561</ele>
        <time>2021-08-12T09:58:38.450Z</time>
      </trkpt>
      <trkpt lat="46.85335" lon="8.48868">
        <ele>2561</ele>
        <time>2021-08-12T09:58:39.450Z</time>
      </trkpt>
      <trkpt lat="46.85335" lon="8.48868">
        <ele>2561</ele>
        <time>2021-08-12T09:58:40.449Z</time>
      </trkpt>
      <trkpt lat="46.85334" lon="8.48868">
        <ele>2561</ele>
        <time>2021-08-12T09:58:41.450Z</time>
      </trkpt>
      <trkpt lat="46.85335" lon="8.48868">
        <ele>2560</ele>
        <time>2021-08-12T09:58:42.451Z</time>
      </trkpt>
      <trkpt lat="46.85334" lon="8.48867">
        <ele>2560</ele>
        <time>2021-08-12T09:58:43.450Z</time>
      </trkpt>
      <trkpt lat="46.85334" lon="8.48867">
        <ele>2560</ele>
        <time>2021-08-12T09:58:44.450Z</time>
      </trkpt>
      <trkpt lat="46.85334" lon="8.48867">
        <ele>2560</ele>
        <time>2021-08-12T09:58:45.450Z</time>
      </trkpt>
      <trkpt lat="46.85334" lon="8.48869">
        <ele>2560</ele>
        <time>2021-08-12T09:58:46.451Z</time>
      </trkpt>
      <trkpt lat="46.85334" lon="8.48869">
        <ele>2560</ele>
        <time>2021-08-12T09:58:47.451Z</time>
      </trkpt>
      <trkpt lat="46.85334" lon="8.48869">
        <ele>2561</ele>
        <time>2021-08-12T09:58:48.450Z</time>
      </trkpt>
      <trkpt lat="46.85333" lon="8.48869">
        <ele>2558</ele>
        <time>2021-08-12T09:58:49.451Z</time>
      </trkpt>
      <trkpt lat="46.85333" lon="8.4887">
        <ele>2558</ele>
        <time>2021-08-12T09:58:50.451Z</time>
      </trkpt>
      <trkpt lat="46.85333" lon="8.4887">
        <ele>2557</ele>
        <time>2021-08-12T09:58:51.450Z</time>
      </trkpt>
      <trkpt lat="46.85333" lon="8.48871">
        <ele>2557</ele>
        <time>2021-08-12T09:58:52.451Z</time>
      </trkpt>
      <trkpt lat="46.85333" lon="8.48872">
        <ele>2557</ele>
        <time>2021-08-12T09:58:53.451Z</time>
      </trkpt>
      <trkpt lat="46.85333" lon="8.48873">
        <ele>2557</ele>
        <time>2021-08-12T09:58:54.450Z</time>
      </trkpt>
      <trkpt lat="46.85334" lon="8.48873">
        <ele>2557</ele>
        <time>2021-08-12T09:58:55.450Z</time>
      </trkpt>
      <trkpt lat="46.85335" lon="8.48873">
        <ele>2559</ele>
        <time>2021-08-12T09:58:56.452Z</time>
      </trkpt>
      <trkpt lat="46.85335" lon="8.48874">
        <ele>2559</ele>
        <time>2021-08-12T09:58:57.452Z</time>
      </trkpt>
      <trkpt lat="46.85335" lon="8.48877">
        <ele>2562</ele>
        <time>2021-08-12T09:58:58.452Z</time>
      </trkpt>
      <trkpt lat="46.85335" lon="8.48877">
        <ele>2562</ele>
        <time>2021-08-12T09:58:59.452Z</time>
      </trkpt>
      <trkpt lat="46.85335" lon="8.48877">
        <ele>2561</ele>
        <time>2021-08-12T09:59:00.452Z</time>
      </trkpt>
      <trkpt lat="46.85335" lon="8.48877">
        <ele>2561</ele>
        <time>2021-08-12T09:59:01.451Z</time>
      </trkpt>
      <trkpt lat="46.85335" lon="8.48877">
        <ele>2561</ele>
        <time>2021-08-12T09:59:02.451Z</time>
      </trkpt>
      <trkpt lat="46.85335" lon="8.48876">
        <ele>2559</ele>
        <time>2021-08-12T09:59:03.451Z</time>
      </trkpt>
      <trkpt lat="46.85335" lon="8.48876">
        <ele>2558</ele>
        <time>2021-08-12T09:59:04.451Z</time>
      </trkpt>
      <trkpt lat="46.85335" lon="8.48876">
        <ele>2558</ele>
        <time>2021-08-12T09:59:05.452Z</time>
      </trkpt>
      <trkpt lat="46.85335" lon="8.48876">
        <ele>2558</ele>
        <time>2021-08-12T09:59:06.452Z</time>
      </trkpt>
      <trkpt lat="46.85334" lon="8.48877">
        <ele>2559</ele>
        <time>2021-08-12T09:59:07.452Z</time>
      </trkpt>
      <trkpt lat="46.85334" lon="8.48877">
        <ele>2559</ele>
        <time>2021-08-12T09:59:08.452Z</time>
      </trkpt>
      <trkpt lat="46.85333" lon="8.48876">
        <ele>2560</ele>
        <time>2021-08-12T09:59:09.453Z</time>
      </trkpt>
      <trkpt lat="46.85333" lon="8.48876">
        <ele>2560</ele>
        <time>2021-08-12T09:59:10.452Z</time>
      </trkpt>
      <trkpt lat="46.85333" lon="8.48875">
        <ele>2564</ele>
        <time>2021-08-12T09:59:11.453Z</time>
      </trkpt>
      <trkpt lat="46.85333" lon="8.48875">
        <ele>2564</ele>
        <time>2021-08-12T09:59:12.453Z</time>
      </trkpt>
      <trkpt lat="46.85333" lon="8.48875">
        <ele>2563</ele>
        <time>2021-08-12T09:59:13.452Z</time>
      </trkpt>
      <trkpt lat="46.85333" lon="8.48875">
        <ele>2562</ele>
        <time>2021-08-12T09:59:14.453Z</time>
      </trkpt>
      <trkpt lat="46.85334" lon="8.48875">
        <ele>2562</ele>
        <time>2021-08-12T09:59:15.453Z</time>
      </trkpt>
      <trkpt lat="46.85337" lon="8.48875">
        <ele>2562</ele>
        <time>2021-08-12T09:59:16.455Z</time>
      </trkpt>
      <trkpt lat="46.85336" lon="8.48875">
        <ele>2562</ele>
        <time>2021-08-12T09:59:17.455Z</time>
      </trkpt>
      <trkpt lat="46.85336" lon="8.48875">
        <ele>2562</ele>
        <time>2021-08-12T09:59:18.455Z</time>
      </trkpt>
      <trkpt lat="46.85336" lon="8.48876">
        <ele>2561</ele>
        <time>2021-08-12T09:59:19.455Z</time>
      </trkpt>
      <trkpt lat="46.85336" lon="8.48876">
        <ele>2561</ele>
        <time>2021-08-12T09:59:20.455Z</time>
      </trkpt>
      <trkpt lat="46.85336" lon="8.48876">
        <ele>2561</ele>
        <time>2021-08-12T09:59:21.455Z</time>
      </trkpt>
      <trkpt lat="46.85335" lon="8.48875">
        <ele>2565</ele>
        <time>2021-08-12T09:59:22.455Z</time>
      </trkpt>
      <trkpt lat="46.85335" lon="8.48875">
        <ele>2566</ele>
        <time>2021-08-12T09:59:23.456Z</time>
      </trkpt>
      <trkpt lat="46.85335" lon="8.48875">
        <ele>2565</ele>
        <time>2021-08-12T09:59:24.456Z</time>
      </trkpt>
      <trkpt lat="46.85335" lon="8.48875">
        <ele>2565</ele>
        <time>2021-08-12T09:59:25.455Z</time>
      </trkpt>
      <trkpt lat="46.85335" lon="8.48875">
        <ele>2565</ele>
        <time>2021-08-12T09:59:26.456Z</time>
      </trkpt>
      <trkpt lat="46.85335" lon="8.48875">
        <ele>2564</ele>
        <time>2021-08-12T09:59:27.456Z</time>
      </trkpt>
      <trkpt lat="46.85335" lon="8.48875">
        <ele>2564</ele>
        <time>2021-08-12T09:59:28.456Z</time>
      </trkpt>
      <trkpt lat="46.85335" lon="8.48876">
        <ele>2561</ele>
        <time>2021-08-12T09:59:29.456Z</time>
      </trkpt>
      <trkpt lat="46.85335" lon="8.48876">
        <ele>2561</ele>
        <time>2021-08-12T09:59:30.457Z</time>
      </trkpt>
      <trkpt lat="46.85335" lon="8.48876">
        <ele>2562</ele>
        <time>2021-08-12T09:59:31.456Z</time>
      </trkpt>
      <trkpt lat="46.85334" lon="8.48876">
        <ele>2562</ele>
        <time>2021-08-12T09:59:32.457Z</time>
      </trkpt>
      <trkpt lat="46.85334" lon="8.48876">
        <ele>2561</ele>
        <time>2021-08-12T09:59:33.456Z</time>
      </trkpt>
      <trkpt lat="46.85335" lon="8.48878">
        <ele>2555</ele>
        <time>2021-08-12T09:59:34.457Z</time>
      </trkpt>
      <trkpt lat="46.85336" lon="8.48877">
        <ele>2555</ele>
        <time>2021-08-12T09:59:35.457Z</time>
      </trkpt>
      <trkpt lat="46.85336" lon="8.48877">
        <ele>2555</ele>
        <time>2021-08-12T09:59:36.456Z</time>
      </trkpt>
      <trkpt lat="46.85336" lon="8.48877">
        <ele>2555</ele>
        <time>2021-08-12T09:59:37.456Z</time>
      </trkpt>
      <trkpt lat="46.85333" lon="8.4888">
        <ele>2560</ele>
        <time>2021-08-12T09:59:38.456Z</time>
      </trkpt>
      <trkpt lat="46.85333" lon="8.48881">
        <ele>2560</ele>
        <time>2021-08-12T09:59:39.456Z</time>
      </trkpt>
      <trkpt lat="46.85333" lon="8.48876">
        <ele>2559</ele>
        <time>2021-08-12T09:59:40.458Z</time>
      </trkpt>
      <trkpt lat="46.85333" lon="8.48876">
        <ele>2559</ele>
        <time>2021-08-12T09:59:41.457Z</time>
      </trkpt>
      <trkpt lat="46.85334" lon="8.48876">
        <ele>2560</ele>
        <time>2021-08-12T09:59:42.457Z</time>
      </trkpt>
      <trkpt lat="46.85334" lon="8.48876">
        <ele>2560</ele>
        <time>2021-08-12T09:59:43.457Z</time>
      </trkpt>
      <trkpt lat="46.85334" lon="8.48876">
        <ele>2558</ele>
        <time>2021-08-12T09:59:44.457Z</time>
      </trkpt>
      <trkpt lat="46.85334" lon="8.48875">
        <ele>2559</ele>
        <time>2021-08-12T09:59:45.458Z</time>
      </trkpt>
      <trkpt lat="46.85334" lon="8.48875">
        <ele>2560</ele>
        <time>2021-08-12T09:59:46.458Z</time>
      </trkpt>
      <trkpt lat="46.85334" lon="8.48875">
        <ele>2561</ele>
        <time>2021-08-12T09:59:47.458Z</time>
      </trkpt>
      <trkpt lat="46.85336" lon="8.48875">
        <ele>2560</ele>
        <time>2021-08-12T09:59:48.458Z</time>
      </trkpt>
      <trkpt lat="46.85336" lon="8.48875">
        <ele>2559</ele>
        <time>2021-08-12T09:59:49.458Z</time>
      </trkpt>
      <trkpt lat="46.85333" lon="8.48865">
        <ele>2568</ele>
        <time>2021-08-12T09:59:50.458Z</time>
      </trkpt>
      <trkpt lat="46.85333" lon="8.48865">
        <ele>2568</ele>
        <time>2021-08-12T09:59:51.459Z</time>
      </trkpt>
      <trkpt lat="46.85337" lon="8.48881">
        <ele>2558</ele>
        <time>2021-08-12T09:59:52.458Z</time>
      </trkpt>
      <trkpt lat="46.85336" lon="8.48879">
        <ele>2556</ele>
        <time>2021-08-12T09:59:53.460Z</time>
      </trkpt>
      <trkpt lat="46.85336" lon="8.48879">
        <ele>2556</ele>
        <time>2021-08-12T09:59:54.459Z</time>
      </trkpt>
      <trkpt lat="46.85336" lon="8.4888">
        <ele>2557</ele>
        <time>2021-08-12T09:59:55.459Z</time>
      </trkpt>
      <trkpt lat="46.85338" lon="8.48879">
        <ele>2561</ele>
        <time>2021-08-12T09:59:56.460Z</time>
      </trkpt>
      <trkpt lat="46.85335" lon="8.48877">
        <ele>2560</ele>
        <time>2021-08-12T09:59:57.462Z</time>
      </trkpt>
      <trkpt lat="46.85335" lon="8.48877">
        <ele>2560</ele>
        <time>2021-08-12T09:59:58.461Z</time>
      </trkpt>
      <trkpt lat="46.85336" lon="8.48879">
        <ele>2559</ele>
        <time>2021-08-12T09:59:59.462Z</time>
      </trkpt>
      <trkpt lat="46.85334" lon="8.48877">
        <ele>2559</ele>
        <time>2021-08-12T10:00:00.461Z</time>
      </trkpt>
      <trkpt lat="46.85335" lon="8.48877">
        <ele>2559</ele>
        <time>2021-08-12T10:00:01.462Z</time>
      </trkpt>
      <trkpt lat="46.85335" lon="8.48877">
        <ele>2559</ele>
        <time>2021-08-12T10:00:02.461Z</time>
      </trkpt>
      <trkpt lat="46.85335" lon="8.48877">
        <ele>2558</ele>
        <time>2021-08-12T10:00:03.462Z</time>
      </trkpt>
      <trkpt lat="46.85335" lon="8.48877">
        <ele>2558</ele>
        <time>2021-08-12T10:00:04.462Z</time>
      </trkpt>
      <trkpt lat="46.85335" lon="8.48876">
        <ele>2558</ele>
        <time>2021-08-12T10:00:05.461Z</time>
      </trkpt>
      <trkpt lat="46.85335" lon="8.48882">
        <ele>2555</ele>
        <time>2021-08-12T10:00:06.462Z</time>
      </trkpt>
      <trkpt lat="46.85335" lon="8.4888">
        <ele>2558</ele>
        <time>2021-08-12T10:00:07.462Z</time>
      </trkpt>
      <trkpt lat="46.85335" lon="8.48881">
        <ele>2558</ele>
        <time>2021-08-12T10:00:08.462Z</time>
      </trkpt>
      <trkpt lat="46.85335" lon="8.48881">
        <ele>2558</ele>
        <time>2021-08-12T10:00:09.461Z</time>
      </trkpt>
      <trkpt lat="46.85335" lon="8.48882">
        <ele>2559</ele>
        <time>2021-08-12T10:00:10.462Z</time>
      </trkpt>
      <trkpt lat="46.85335" lon="8.48882">
        <ele>2559</ele>
        <time>2021-08-12T10:00:11.461Z</time>
      </trkpt>
      <trkpt lat="46.85335" lon="8.48883">
        <ele>2558</ele>
        <time>2021-08-12T10:00:12.461Z</time>
      </trkpt>
      <trkpt lat="46.85335" lon="8.48884">
        <ele>2558</ele>
        <time>2021-08-12T10:00:13.461Z</time>
      </trkpt>
      <trkpt lat="46.85335" lon="8.48885">
        <ele>2558</ele>
        <time>2021-08-12T10:00:14.462Z</time>
      </trkpt>
      <trkpt lat="46.85334" lon="8.48885">
        <ele>2557</ele>
        <time>2021-08-12T10:00:15.462Z</time>
      </trkpt>
      <trkpt lat="46.85334" lon="8.48886">
        <ele>2558</ele>
        <time>2021-08-12T10:00:16.461Z</time>
      </trkpt>
      <trkpt lat="46.85334" lon="8.48887">
        <ele>2558</ele>
        <time>2021-08-12T10:00:17.461Z</time>
      </trkpt>
      <trkpt lat="46.85334" lon="8.48888">
        <ele>2558</ele>
        <time>2021-08-12T10:00:18.461Z</time>
      </trkpt>
      <trkpt lat="46.85335" lon="8.48888">
        <ele>2558</ele>
        <time>2021-08-12T10:00:19.462Z</time>
      </trkpt>
      <trkpt lat="46.85335" lon="8.48889">
        <ele>2558</ele>
        <time>2021-08-12T10:00:20.462Z</time>
      </trkpt>
      <trkpt lat="46.85335" lon="8.48889">
        <ele>2558</ele>
        <time>2021-08-12T10:00:21.461Z</time>
      </trkpt>
      <trkpt lat="46.85336" lon="8.4889">
        <ele>2558</ele>
        <time>2021-08-12T10:00:22.462Z</time>
      </trkpt>
      <trkpt lat="46.85336" lon="8.48891">
        <ele>2557</ele>
        <time>2021-08-12T10:00:23.461Z</time>
      </trkpt>
      <trkpt lat="46.85336" lon="8.48891">
        <ele>2557</ele>
        <time>2021-08-12T10:00:24.461Z</time>
      </trkpt>
      <trkpt lat="46.85336" lon="8.48892">
        <ele>2558</ele>
        <time>2021-08-12T10:00:25.462Z</time>
      </trkpt>
      <trkpt lat="46.85336" lon="8.48892">
        <ele>2558</ele>
        <time>2021-08-12T10:00:26.462Z</time>
      </trkpt>
      <trkpt lat="46.85336" lon="8.48892">
        <ele>2558</ele>
        <time>2021-08-12T10:00:27.461Z</time>
      </trkpt>
      <trkpt lat="46.85335" lon="8.48892">
        <ele>2558</ele>
        <time>2021-08-12T10:00:28.462Z</time>
      </trkpt>
      <trkpt lat="46.85335" lon="8.48892">
        <ele>2559</ele>
        <time>2021-08-12T10:00:29.461Z</time>
      </trkpt>
      <trkpt lat="46.85334" lon="8.48892">
        <ele>2559</ele>
        <time>2021-08-12T10:00:30.461Z</time>
      </trkpt>
      <trkpt lat="46.85334" lon="8.48893">
        <ele>2560</ele>
        <time>2021-08-12T10:00:31.461Z</time>
      </trkpt>
      <trkpt lat="46.85334" lon="8.48893">
        <ele>2560</ele>
        <time>2021-08-12T10:00:32.462Z</time>
      </trkpt>
      <trkpt lat="46.85334" lon="8.48894">
        <ele>2560</ele>
        <time>2021-08-12T10:00:33.462Z</time>
      </trkpt>
      <trkpt lat="46.85334" lon="8.48895">
        <ele>2560</ele>
        <time>2021-08-12T10:00:34.462Z</time>
      </trkpt>
      <trkpt lat="46.85334" lon="8.48896">
        <ele>2560</ele>
        <time>2021-08-12T10:00:35.462Z</time>
      </trkpt>
      <trkpt lat="46.85334" lon="8.48897">
        <ele>2561</ele>
        <time>2021-08-12T10:00:36.462Z</time>
      </trkpt>
      <trkpt lat="46.85334" lon="8.48897">
        <ele>2561</ele>
        <time>2021-08-12T10:00:37.461Z</time>
      </trkpt>
      <trkpt lat="46.85334" lon="8.48898">
        <ele>2561</ele>
        <time>2021-08-12T10:00:38.462Z</time>
      </trkpt>
      <trkpt lat="46.85334" lon="8.48899">
        <ele>2561</ele>
        <time>2021-08-12T10:00:39.461Z</time>
      </trkpt>
      <trkpt lat="46.85334" lon="8.48899">
        <ele>2561</ele>
        <time>2021-08-12T10:00:40.461Z</time>
      </trkpt>
      <trkpt lat="46.85333" lon="8.489">
        <ele>2561</ele>
        <time>2021-08-12T10:00:41.462Z</time>
      </trkpt>
      <trkpt lat="46.85333" lon="8.489">
        <ele>2561</ele>
        <time>2021-08-12T10:00:42.462Z</time>
      </trkpt>
      <trkpt lat="46.85333" lon="8.48901">
        <ele>2561</ele>
        <time>2021-08-12T10:00:43.462Z</time>
      </trkpt>
      <trkpt lat="46.85333" lon="8.48901">
        <ele>2561</ele>
        <time>2021-08-12T10:00:44.462Z</time>
      </trkpt>
      <trkpt lat="46.85332" lon="8.48901">
        <ele>2561</ele>
        <time>2021-08-12T10:00:45.462Z</time>
      </trkpt>
      <trkpt lat="46.85332" lon="8.48902">
        <ele>2561</ele>
        <time>2021-08-12T10:00:46.462Z</time>
      </trkpt>
      <trkpt lat="46.85331" lon="8.48902">
        <ele>2561</ele>
        <time>2021-08-12T10:00:47.461Z</time>
      </trkpt>
      <trkpt lat="46.8533" lon="8.48903">
        <ele>2561</ele>
        <time>2021-08-12T10:00:48.462Z</time>
      </trkpt>
      <trkpt lat="46.8533" lon="8.48904">
        <ele>2561</ele>
        <time>2021-08-12T10:00:49.461Z</time>
      </trkpt>
      <trkpt lat="46.85331" lon="8.48904">
        <ele>2561</ele>
        <time>2021-08-12T10:00:50.462Z</time>
      </trkpt>
      <trkpt lat="46.85331" lon="8.48905">
        <ele>2561</ele>
        <time>2021-08-12T10:00:51.462Z</time>
      </trkpt>
      <trkpt lat="46.85332" lon="8.48906">
        <ele>2561</ele>
        <time>2021-08-12T10:00:52.462Z</time>
      </trkpt>
      <trkpt lat="46.85332" lon="8.48906">
        <ele>2562</ele>
        <time>2021-08-12T10:00:53.462Z</time>
      </trkpt>
      <trkpt lat="46.85332" lon="8.48907">
        <ele>2562</ele>
        <time>2021-08-12T10:00:54.462Z</time>
      </trkpt>
      <trkpt lat="46.85332" lon="8.48907">
        <ele>2562</ele>
        <time>2021-08-12T10:00:55.462Z</time>
      </trkpt>
      <trkpt lat="46.85333" lon="8.48908">
        <ele>2562</ele>
        <time>2021-08-12T10:00:56.461Z</time>
      </trkpt>
      <trkpt lat="46.85333" lon="8.48909">
        <ele>2563</ele>
        <time>2021-08-12T10:00:57.462Z</time>
      </trkpt>
      <trkpt lat="46.85333" lon="8.48909">
        <ele>2563</ele>
        <time>2021-08-12T10:00:58.462Z</time>
      </trkpt>
      <trkpt lat="46.85333" lon="8.4891">
        <ele>2564</ele>
        <time>2021-08-12T10:00:59.462Z</time>
      </trkpt>
      <trkpt lat="46.85333" lon="8.4891">
        <ele>2563</ele>
        <time>2021-08-12T10:01:00.462Z</time>
      </trkpt>
      <trkpt lat="46.85333" lon="8.4891">
        <ele>2563</ele>
        <time>2021-08-12T10:01:01.461Z</time>
      </trkpt>
      <trkpt lat="46.85333" lon="8.48911">
        <ele>2563</ele>
        <time>2021-08-12T10:01:02.462Z</time>
      </trkpt>
      <trkpt lat="46.85333" lon="8.48911">
        <ele>2563</ele>
        <time>2021-08-12T10:01:03.462Z</time>
      </trkpt>
      <trkpt lat="46.85332" lon="8.48911">
        <ele>2563</ele>
        <time>2021-08-12T10:01:04.461Z</time>
      </trkpt>
      <trkpt lat="46.85331" lon="8.48912">
        <ele>2563</ele>
        <time>2021-08-12T10:01:05.461Z</time>
      </trkpt>
      <trkpt lat="46.85331" lon="8.48912">
        <ele>2562</ele>
        <time>2021-08-12T10:01:06.462Z</time>
      </trkpt>
      <trkpt lat="46.85331" lon="8.48912">
        <ele>2562</ele>
        <time>2021-08-12T10:01:07.461Z</time>
      </trkpt>
      <trkpt lat="46.8533" lon="8.48913">
        <ele>2563</ele>
        <time>2021-08-12T10:01:08.461Z</time>
      </trkpt>
      <trkpt lat="46.85331" lon="8.48914">
        <ele>2563</ele>
        <time>2021-08-12T10:01:09.462Z</time>
      </trkpt>
      <trkpt lat="46.85331" lon="8.48915">
        <ele>2563</ele>
        <time>2021-08-12T10:01:10.461Z</time>
      </trkpt>
      <trkpt lat="46.85331" lon="8.48915">
        <ele>2564</ele>
        <time>2021-08-12T10:01:11.462Z</time>
      </trkpt>
      <trkpt lat="46.85331" lon="8.48916">
        <ele>2565</ele>
        <time>2021-08-12T10:01:12.462Z</time>
      </trkpt>
      <trkpt lat="46.85331" lon="8.48916">
        <ele>2565</ele>
        <time>2021-08-12T10:01:13.462Z</time>
      </trkpt>
      <trkpt lat="46.85331" lon="8.48917">
        <ele>2566</ele>
        <time>2021-08-12T10:01:14.462Z</time>
      </trkpt>
      <trkpt lat="46.85331" lon="8.48917">
        <ele>2566</ele>
        <time>2021-08-12T10:01:15.461Z</time>
      </trkpt>
      <trkpt lat="46.85331" lon="8.48918">
        <ele>2567</ele>
        <time>2021-08-12T10:01:16.461Z</time>
      </trkpt>
      <trkpt lat="46.85331" lon="8.48918">
        <ele>2567</ele>
        <time>2021-08-12T10:01:17.461Z</time>
      </trkpt>
      <trkpt lat="46.85331" lon="8.48919">
        <ele>2567</ele>
        <time>2021-08-12T10:01:18.461Z</time>
      </trkpt>
      <trkpt lat="46.85331" lon="8.4892">
        <ele>2568</ele>
        <time>2021-08-12T10:01:19.461Z</time>
      </trkpt>
      <trkpt lat="46.85331" lon="8.48921">
        <ele>2568</ele>
        <time>2021-08-12T10:01:20.462Z</time>
      </trkpt>
      <trkpt lat="46.85331" lon="8.48922">
        <ele>2568</ele>
        <time>2021-08-12T10:01:21.461Z</time>
      </trkpt>
      <trkpt lat="46.85332" lon="8.48922">
        <ele>2568</ele>
        <time>2021-08-12T10:01:22.461Z</time>
      </trkpt>
      <trkpt lat="46.85332" lon="8.48923">
        <ele>2568</ele>
        <time>2021-08-12T10:01:23.461Z</time>
      </trkpt>
      <trkpt lat="46.85332" lon="8.48923">
        <ele>2568</ele>
        <time>2021-08-12T10:01:24.461Z</time>
      </trkpt>
      <trkpt lat="46.85332" lon="8.48924">
        <ele>2568</ele>
        <time>2021-08-12T10:01:25.461Z</time>
      </trkpt>
      <trkpt lat="46.85332" lon="8.48924">
        <ele>2568</ele>
        <time>2021-08-12T10:01:26.462Z</time>
      </trkpt>
      <trkpt lat="46.85332" lon="8.48925">
        <ele>2569</ele>
        <time>2021-08-12T10:01:27.462Z</time>
      </trkpt>
      <trkpt lat="46.85332" lon="8.48926">
        <ele>2569</ele>
        <time>2021-08-12T10:01:28.462Z</time>
      </trkpt>
      <trkpt lat="46.85331" lon="8.48926">
        <ele>2569</ele>
        <time>2021-08-12T10:01:29.462Z</time>
      </trkpt>
      <trkpt lat="46.85331" lon="8.48927">
        <ele>2569</ele>
        <time>2021-08-12T10:01:30.462Z</time>
      </trkpt>
      <trkpt lat="46.85331" lon="8.48927">
        <ele>2570</ele>
        <time>2021-08-12T10:01:31.462Z</time>
      </trkpt>
      <trkpt lat="46.8533" lon="8.48927">
        <ele>2570</ele>
        <time>2021-08-12T10:01:32.462Z</time>
      </trkpt>
      <trkpt lat="46.85329" lon="8.48928">
        <ele>2570</ele>
        <time>2021-08-12T10:01:33.462Z</time>
      </trkpt>
      <trkpt lat="46.85329" lon="8.48928">
        <ele>2570</ele>
        <time>2021-08-12T10:01:34.461Z</time>
      </trkpt>
      <trkpt lat="46.85328" lon="8.48928">
        <ele>2570</ele>
        <time>2021-08-12T10:01:35.461Z</time>
      </trkpt>
      <trkpt lat="46.85327" lon="8.48929">
        <ele>2570</ele>
        <time>2021-08-12T10:01:36.461Z</time>
      </trkpt>
      <trkpt lat="46.85327" lon="8.48929">
        <ele>2570</ele>
        <time>2021-08-12T10:01:37.461Z</time>
      </trkpt>
      <trkpt lat="46.85326" lon="8.4893">
        <ele>2570</ele>
        <time>2021-08-12T10:01:38.462Z</time>
      </trkpt>
      <trkpt lat="46.85326" lon="8.48931">
        <ele>2570</ele>
        <time>2021-08-12T10:01:39.462Z</time>
      </trkpt>
      <trkpt lat="46.85327" lon="8.48933">
        <ele>2570</ele>
        <time>2021-08-12T10:01:40.461Z</time>
      </trkpt>
      <trkpt lat="46.85327" lon="8.48934">
        <ele>2570</ele>
        <time>2021-08-12T10:01:41.461Z</time>
      </trkpt>
      <trkpt lat="46.85327" lon="8.48934">
        <ele>2570</ele>
        <time>2021-08-12T10:01:42.462Z</time>
      </trkpt>
      <trkpt lat="46.85328" lon="8.48935">
        <ele>2570</ele>
        <time>2021-08-12T10:01:43.461Z</time>
      </trkpt>
      <trkpt lat="46.85328" lon="8.48935">
        <ele>2571</ele>
        <time>2021-08-12T10:01:44.462Z</time>
      </trkpt>
      <trkpt lat="46.85328" lon="8.48936">
        <ele>2571</ele>
        <time>2021-08-12T10:01:45.461Z</time>
      </trkpt>
      <trkpt lat="46.85328" lon="8.48937">
        <ele>2571</ele>
        <time>2021-08-12T10:01:46.462Z</time>
      </trkpt>
      <trkpt lat="46.85328" lon="8.48937">
        <ele>2571</ele>
        <time>2021-08-12T10:01:47.461Z</time>
      </trkpt>
      <trkpt lat="46.85328" lon="8.48938">
        <ele>2571</ele>
        <time>2021-08-12T10:01:48.461Z</time>
      </trkpt>
      <trkpt lat="46.85327" lon="8.48938">
        <ele>2571</ele>
        <time>2021-08-12T10:01:49.461Z</time>
      </trkpt>
      <trkpt lat="46.85327" lon="8.48938">
        <ele>2572</ele>
        <time>2021-08-12T10:01:50.461Z</time>
      </trkpt>
      <trkpt lat="46.85326" lon="8.48938">
        <ele>2572</ele>
        <time>2021-08-12T10:01:51.462Z</time>
      </trkpt>
      <trkpt lat="46.85325" lon="8.48938">
        <ele>2572</ele>
        <time>2021-08-12T10:01:52.462Z</time>
      </trkpt>
      <trkpt lat="46.85325" lon="8.48939">
        <ele>2572</ele>
        <time>2021-08-12T10:01:53.461Z</time>
      </trkpt>
      <trkpt lat="46.85325" lon="8.4894">
        <ele>2572</ele>
        <time>2021-08-12T10:01:54.461Z</time>
      </trkpt>
      <trkpt lat="46.85325" lon="8.48941">
        <ele>2573</ele>
        <time>2021-08-12T10:01:55.461Z</time>
      </trkpt>
      <trkpt lat="46.85325" lon="8.48941">
        <ele>2573</ele>
        <time>2021-08-12T10:01:56.461Z</time>
      </trkpt>
      <trkpt lat="46.85326" lon="8.48942">
        <ele>2573</ele>
        <time>2021-08-12T10:01:57.462Z</time>
      </trkpt>
      <trkpt lat="46.85326" lon="8.48942">
        <ele>2573</ele>
        <time>2021-08-12T10:01:58.462Z</time>
      </trkpt>
      <trkpt lat="46.85326" lon="8.48943">
        <ele>2573</ele>
        <time>2021-08-12T10:01:59.462Z</time>
      </trkpt>
      <trkpt lat="46.85326" lon="8.48944">
        <ele>2574</ele>
        <time>2021-08-12T10:02:00.462Z</time>
      </trkpt>
      <trkpt lat="46.85326" lon="8.48945">
        <ele>2574</ele>
        <time>2021-08-12T10:02:01.462Z</time>
      </trkpt>
      <trkpt lat="46.85326" lon="8.48946">
        <ele>2575</ele>
        <time>2021-08-12T10:02:02.462Z</time>
      </trkpt>
      <trkpt lat="46.85325" lon="8.48947">
        <ele>2575</ele>
        <time>2021-08-12T10:02:03.462Z</time>
      </trkpt>
      <trkpt lat="46.85325" lon="8.48948">
        <ele>2575</ele>
        <time>2021-08-12T10:02:04.462Z</time>
      </trkpt>
      <trkpt lat="46.85325" lon="8.48949">
        <ele>2576</ele>
        <time>2021-08-12T10:02:05.462Z</time>
      </trkpt>
      <trkpt lat="46.85324" lon="8.48949">
        <ele>2576</ele>
        <time>2021-08-12T10:02:06.461Z</time>
      </trkpt>
      <trkpt lat="46.85324" lon="8.4895">
        <ele>2577</ele>
        <time>2021-08-12T10:02:07.462Z</time>
      </trkpt>
      <trkpt lat="46.85323" lon="8.48951">
        <ele>2577</ele>
        <time>2021-08-12T10:02:08.462Z</time>
      </trkpt>
      <trkpt lat="46.85323" lon="8.48952">
        <ele>2577</ele>
        <time>2021-08-12T10:02:09.461Z</time>
      </trkpt>
      <trkpt lat="46.85323" lon="8.48952">
        <ele>2577</ele>
        <time>2021-08-12T10:02:10.462Z</time>
      </trkpt>
      <trkpt lat="46.85323" lon="8.48953">
        <ele>2577</ele>
        <time>2021-08-12T10:02:11.462Z</time>
      </trkpt>
      <trkpt lat="46.85323" lon="8.48954">
        <ele>2578</ele>
        <time>2021-08-12T10:02:12.462Z</time>
      </trkpt>
      <trkpt lat="46.85323" lon="8.48955">
        <ele>2579</ele>
        <time>2021-08-12T10:02:13.462Z</time>
      </trkpt>
      <trkpt lat="46.85323" lon="8.48956">
        <ele>2579</ele>
        <time>2021-08-12T10:02:14.462Z</time>
      </trkpt>
      <trkpt lat="46.85323" lon="8.48957">
        <ele>2580</ele>
        <time>2021-08-12T10:02:15.461Z</time>
      </trkpt>
      <trkpt lat="46.85323" lon="8.48958">
        <ele>2580</ele>
        <time>2021-08-12T10:02:16.462Z</time>
      </trkpt>
      <trkpt lat="46.85323" lon="8.48959">
        <ele>2581</ele>
        <time>2021-08-12T10:02:17.461Z</time>
      </trkpt>
      <trkpt lat="46.85323" lon="8.4896">
        <ele>2581</ele>
        <time>2021-08-12T10:02:18.462Z</time>
      </trkpt>
      <trkpt lat="46.85323" lon="8.48961">
        <ele>2581</ele>
        <time>2021-08-12T10:02:19.461Z</time>
      </trkpt>
      <trkpt lat="46.85323" lon="8.48962">
        <ele>2582</ele>
        <time>2021-08-12T10:02:20.462Z</time>
      </trkpt>
      <trkpt lat="46.85323" lon="8.48963">
        <ele>2582</ele>
        <time>2021-08-12T10:02:21.461Z</time>
      </trkpt>
      <trkpt lat="46.85323" lon="8.48964">
        <ele>2582</ele>
        <time>2021-08-12T10:02:22.462Z</time>
      </trkpt>
      <trkpt lat="46.85323" lon="8.48965">
        <ele>2582</ele>
        <time>2021-08-12T10:02:23.462Z</time>
      </trkpt>
      <trkpt lat="46.85323" lon="8.48966">
        <ele>2582</ele>
        <time>2021-08-12T10:02:24.462Z</time>
      </trkpt>
      <trkpt lat="46.85323" lon="8.48967">
        <ele>2582</ele>
        <time>2021-08-12T10:02:25.462Z</time>
      </trkpt>
      <trkpt lat="46.85323" lon="8.48968">
        <ele>2582</ele>
        <time>2021-08-12T10:02:26.462Z</time>
      </trkpt>
      <trkpt lat="46.85323" lon="8.48969">
        <ele>2582</ele>
        <time>2021-08-12T10:02:27.462Z</time>
      </trkpt>
      <trkpt lat="46.85324" lon="8.4897">
        <ele>2582</ele>
        <time>2021-08-12T10:02:28.462Z</time>
      </trkpt>
      <trkpt lat="46.85324" lon="8.48971">
        <ele>2582</ele>
        <time>2021-08-12T10:02:29.461Z</time>
      </trkpt>
      <trkpt lat="46.85324" lon="8.48971">
        <ele>2582</ele>
        <time>2021-08-12T10:02:30.462Z</time>
      </trkpt>
      <trkpt lat="46.85324" lon="8.48971">
        <ele>2582</ele>
        <time>2021-08-12T10:02:31.462Z</time>
      </trkpt>
      <trkpt lat="46.85324" lon="8.4897">
        <ele>2584</ele>
        <time>2021-08-12T10:02:32.462Z</time>
      </trkpt>
      <trkpt lat="46.85325" lon="8.4897">
        <ele>2583</ele>
        <time>2021-08-12T10:02:33.463Z</time>
      </trkpt>
      <trkpt lat="46.85325" lon="8.4897">
        <ele>2583</ele>
        <time>2021-08-12T10:02:34.464Z</time>
      </trkpt>
      <trkpt lat="46.85325" lon="8.4897">
        <ele>2583</ele>
        <time>2021-08-12T10:02:35.463Z</time>
      </trkpt>
      <trkpt lat="46.85325" lon="8.4897">
        <ele>2583</ele>
        <time>2021-08-12T10:02:36.464Z</time>
      </trkpt>
      <trkpt lat="46.85325" lon="8.4897">
        <ele>2582</ele>
        <time>2021-08-12T10:02:37.463Z</time>
      </trkpt>
      <trkpt lat="46.85324" lon="8.48972">
        <ele>2578</ele>
        <time>2021-08-12T10:02:38.465Z</time>
      </trkpt>
      <trkpt lat="46.85323" lon="8.48971">
        <ele>2579</ele>
        <time>2021-08-12T10:02:39.466Z</time>
      </trkpt>
      <trkpt lat="46.85323" lon="8.48971">
        <ele>2578</ele>
        <time>2021-08-12T10:02:40.466Z</time>
      </trkpt>
      <trkpt lat="46.85324" lon="8.48971">
        <ele>2578</ele>
        <time>2021-08-12T10:02:41.465Z</time>
      </trkpt>
      <trkpt lat="46.85324" lon="8.48971">
        <ele>2578</ele>
        <time>2021-08-12T10:02:42.466Z</time>
      </trkpt>
      <trkpt lat="46.85325" lon="8.48971">
        <ele>2575</ele>
        <time>2021-08-12T10:02:43.466Z</time>
      </trkpt>
      <trkpt lat="46.85325" lon="8.48971">
        <ele>2575</ele>
        <time>2021-08-12T10:02:44.466Z</time>
      </trkpt>
      <trkpt lat="46.85325" lon="8.48969">
        <ele>2576</ele>
        <time>2021-08-12T10:02:45.465Z</time>
      </trkpt>
      <trkpt lat="46.85325" lon="8.48969">
        <ele>2576</ele>
        <time>2021-08-12T10:02:46.466Z</time>
      </trkpt>
      <trkpt lat="46.85324" lon="8.48967">
        <ele>2577</ele>
        <time>2021-08-12T10:02:47.465Z</time>
      </trkpt>
      <trkpt lat="46.85324" lon="8.48966">
        <ele>2577</ele>
        <time>2021-08-12T10:02:48.466Z</time>
      </trkpt>
      <trkpt lat="46.85324" lon="8.48965">
        <ele>2577</ele>
        <time>2021-08-12T10:02:49.466Z</time>
      </trkpt>
      <trkpt lat="46.85324" lon="8.48964">
        <ele>2577</ele>
        <time>2021-08-12T10:02:50.465Z</time>
      </trkpt>
      <trkpt lat="46.85324" lon="8.48963">
        <ele>2577</ele>
        <time>2021-08-12T10:02:51.466Z</time>
      </trkpt>
      <trkpt lat="46.85324" lon="8.48961">
        <ele>2578</ele>
        <time>2021-08-12T10:02:52.465Z</time>
      </trkpt>
      <trkpt lat="46.85323" lon="8.4896">
        <ele>2578</ele>
        <time>2021-08-12T10:02:53.466Z</time>
      </trkpt>
      <trkpt lat="46.85323" lon="8.48959">
        <ele>2578</ele>
        <time>2021-08-12T10:02:54.466Z</time>
      </trkpt>
      <trkpt lat="46.85323" lon="8.48958">
        <ele>2578</ele>
        <time>2021-08-12T10:02:55.465Z</time>
      </trkpt>
      <trkpt lat="46.85323" lon="8.48957">
        <ele>2579</ele>
        <time>2021-08-12T10:02:56.465Z</time>
      </trkpt>
      <trkpt lat="46.85323" lon="8.48956">
        <ele>2579</ele>
        <time>2021-08-12T10:02:57.465Z</time>
      </trkpt>
      <trkpt lat="46.85323" lon="8.48955">
        <ele>2579</ele>
        <time>2021-08-12T10:02:58.466Z</time>
      </trkpt>
      <trkpt lat="46.85323" lon="8.48955">
        <ele>2579</ele>
        <time>2021-08-12T10:02:59.465Z</time>
      </trkpt>
      <trkpt lat="46.85323" lon="8.48954">
        <ele>2579</ele>
        <time>2021-08-12T10:03:00.465Z</time>
      </trkpt>
      <trkpt lat="46.85323" lon="8.48953">
        <ele>2579</ele>
        <time>2021-08-12T10:03:01.466Z</time>
      </trkpt>
      <trkpt lat="46.85324" lon="8.48952">
        <ele>2579</ele>
        <time>2021-08-12T10:03:02.466Z</time>
      </trkpt>
      <trkpt lat="46.85324" lon="8.48951">
        <ele>2579</ele>
        <time>2021-08-12T10:03:03.465Z</time>
      </trkpt>
      <trkpt lat="46.85324" lon="8.48951">
        <ele>2580</ele>
        <time>2021-08-12T10:03:04.465Z</time>
      </trkpt>
      <trkpt lat="46.85325" lon="8.4895">
        <ele>2580</ele>
        <time>2021-08-12T10:03:05.465Z</time>
      </trkpt>
      <trkpt lat="46.85325" lon="8.48949">
        <ele>2581</ele>
        <time>2021-08-12T10:03:06.466Z</time>
      </trkpt>
      <trkpt lat="46.85326" lon="8.48949">
        <ele>2581</ele>
        <time>2021-08-12T10:03:07.466Z</time>
      </trkpt>
      <trkpt lat="46.85326" lon="8.48948">
        <ele>2582</ele>
        <time>2021-08-12T10:03:08.465Z</time>
      </trkpt>
      <trkpt lat="46.85326" lon="8.48948">
        <ele>2582</ele>
        <time>2021-08-12T10:03:09.466Z</time>
      </trkpt>
      <trkpt lat="46.85326" lon="8.48947">
        <ele>2582</ele>
        <time>2021-08-12T10:03:10.465Z</time>
      </trkpt>
      <trkpt lat="46.85326" lon="8.48947">
        <ele>2581</ele>
        <time>2021-08-12T10:03:11.465Z</time>
      </trkpt>
      <trkpt lat="46.85326" lon="8.48945">
        <ele>2580</ele>
        <time>2021-08-12T10:03:12.467Z</time>
      </trkpt>
      <trkpt lat="46.85327" lon="8.48945">
        <ele>2579</ele>
        <time>2021-08-12T10:03:13.467Z</time>
      </trkpt>
      <trkpt lat="46.85327" lon="8.48944">
        <ele>2579</ele>
        <time>2021-08-12T10:03:14.467Z</time>
      </trkpt>
      <trkpt lat="46.85328" lon="8.48943">
        <ele>2579</ele>
        <time>2021-08-12T10:03:15.467Z</time>
      </trkpt>
      <trkpt lat="46.85328" lon="8.48942">
        <ele>2578</ele>
        <time>2021-08-12T10:03:16.467Z</time>
      </trkpt>
      <trkpt lat="46.85328" lon="8.48941">
        <ele>2578</ele>
        <time>2021-08-12T10:03:17.466Z</time>
      </trkpt>
      <trkpt lat="46.85328" lon="8.48941">
        <ele>2577</ele>
        <time>2021-08-12T10:03:18.467Z</time>
      </trkpt>
      <trkpt lat="46.85327" lon="8.48942">
        <ele>2574</ele>
        <time>2021-08-12T10:03:19.469Z</time>
      </trkpt>
      <trkpt lat="46.85327" lon="8.48942">
        <ele>2574</ele>
        <time>2021-08-12T10:03:20.469Z</time>
      </trkpt>
      <trkpt lat="46.85326" lon="8.48942">
        <ele>2575</ele>
        <time>2021-08-12T10:03:21.469Z</time>
      </trkpt>
      <trkpt lat="46.85326" lon="8.48941">
        <ele>2575</ele>
        <time>2021-08-12T10:03:22.469Z</time>
      </trkpt>
      <trkpt lat="46.85325" lon="8.4894">
        <ele>2575</ele>
        <time>2021-08-12T10:03:23.469Z</time>
      </trkpt>
      <trkpt lat="46.85325" lon="8.4894">
        <ele>2575</ele>
        <time>2021-08-12T10:03:24.468Z</time>
      </trkpt>
      <trkpt lat="46.85325" lon="8.48939">
        <ele>2575</ele>
        <time>2021-08-12T10:03:25.468Z</time>
      </trkpt>
      <trkpt lat="46.85325" lon="8.48939">
        <ele>2575</ele>
        <time>2021-08-12T10:03:26.468Z</time>
      </trkpt>
      <trkpt lat="46.85326" lon="8.48939">
        <ele>2575</ele>
        <time>2021-08-12T10:03:27.469Z</time>
      </trkpt>
      <trkpt lat="46.85326" lon="8.48939">
        <ele>2575</ele>
        <time>2021-08-12T10:03:28.469Z</time>
      </trkpt>
      <trkpt lat="46.85327" lon="8.48939">
        <ele>2575</ele>
        <time>2021-08-12T10:03:29.469Z</time>
      </trkpt>
      <trkpt lat="46.85327" lon="8.48939">
        <ele>2575</ele>
        <time>2021-08-12T10:03:30.469Z</time>
      </trkpt>
      <trkpt lat="46.85328" lon="8.48938">
        <ele>2575</ele>
        <time>2021-08-12T10:03:31.469Z</time>
      </trkpt>
      <trkpt lat="46.85328" lon="8.48937">
        <ele>2576</ele>
        <time>2021-08-12T10:03:32.469Z</time>
      </trkpt>
      <trkpt lat="46.85328" lon="8.48936">
        <ele>2576</ele>
        <time>2021-08-12T10:03:33.468Z</time>
      </trkpt>
      <trkpt lat="46.85328" lon="8.48935">
        <ele>2576</ele>
        <time>2021-08-12T10:03:34.469Z</time>
      </trkpt>
      <trkpt lat="46.85328" lon="8.48934">
        <ele>2576</ele>
        <time>2021-08-12T10:03:35.469Z</time>
      </trkpt>
      <trkpt lat="46.85327" lon="8.48933">
        <ele>2576</ele>
        <time>2021-08-12T10:03:36.469Z</time>
      </trkpt>
      <trkpt lat="46.85326" lon="8.48933">
        <ele>2576</ele>
        <time>2021-08-12T10:03:37.468Z</time>
      </trkpt>
      <trkpt lat="46.85326" lon="8.48932">
        <ele>2576</ele>
        <time>2021-08-12T10:03:38.469Z</time>
      </trkpt>
      <trkpt lat="46.85326" lon="8.48932">
        <ele>2576</ele>
        <time>2021-08-12T10:03:39.469Z</time>
      </trkpt>
      <trkpt lat="46.85326" lon="8.48931">
        <ele>2577</ele>
        <time>2021-08-12T10:03:40.469Z</time>
      </trkpt>
      <trkpt lat="46.85326" lon="8.4893">
        <ele>2577</ele>
        <time>2021-08-12T10:03:41.468Z</time>
      </trkpt>
      <trkpt lat="46.85327" lon="8.4893">
        <ele>2576</ele>
        <time>2021-08-12T10:03:42.468Z</time>
      </trkpt>
      <trkpt lat="46.85327" lon="8.4893">
        <ele>2576</ele>
        <time>2021-08-12T10:03:43.469Z</time>
      </trkpt>
      <trkpt lat="46.85328" lon="8.48929">
        <ele>2575</ele>
        <time>2021-08-12T10:03:44.468Z</time>
      </trkpt>
      <trkpt lat="46.85328" lon="8.48928">
        <ele>2575</ele>
        <time>2021-08-12T10:03:45.469Z</time>
      </trkpt>
      <trkpt lat="46.85329" lon="8.48928">
        <ele>2575</ele>
        <time>2021-08-12T10:03:46.469Z</time>
      </trkpt>
      <trkpt lat="46.8533" lon="8.48927">
        <ele>2574</ele>
        <time>2021-08-12T10:03:47.469Z</time>
      </trkpt>
      <trkpt lat="46.8533" lon="8.48927">
        <ele>2574</ele>
        <time>2021-08-12T10:03:48.469Z</time>
      </trkpt>
      <trkpt lat="46.85331" lon="8.48925">
        <ele>2574</ele>
        <time>2021-08-12T10:03:49.468Z</time>
      </trkpt>
      <trkpt lat="46.85331" lon="8.48924">
        <ele>2574</ele>
        <time>2021-08-12T10:03:50.469Z</time>
      </trkpt>
      <trkpt lat="46.85331" lon="8.48924">
        <ele>2573</ele>
        <time>2021-08-12T10:03:51.468Z</time>
      </trkpt>
      <trkpt lat="46.8533" lon="8.48923">
        <ele>2573</ele>
        <time>2021-08-12T10:03:52.468Z</time>
      </trkpt>
      <trkpt lat="46.8533" lon="8.48922">
        <ele>2573</ele>
        <time>2021-08-12T10:03:53.469Z</time>
      </trkpt>
      <trkpt lat="46.85331" lon="8.48922">
        <ele>2572</ele>
        <time>2021-08-12T10:03:54.469Z</time>
      </trkpt>
      <trkpt lat="46.85331" lon="8.48921">
        <ele>2572</ele>
        <time>2021-08-12T10:03:55.468Z</time>
      </trkpt>
      <trkpt lat="46.85332" lon="8.4892">
        <ele>2572</ele>
        <time>2021-08-12T10:03:56.469Z</time>
      </trkpt>
      <trkpt lat="46.85333" lon="8.48919">
        <ele>2573</ele>
        <time>2021-08-12T10:03:57.468Z</time>
      </trkpt>
      <trkpt lat="46.85333" lon="8.48918">
        <ele>2574</ele>
        <time>2021-08-12T10:03:58.469Z</time>
      </trkpt>
      <trkpt lat="46.85332" lon="8.48916">
        <ele>2574</ele>
        <time>2021-08-12T10:03:59.469Z</time>
      </trkpt>
      <trkpt lat="46.85332" lon="8.48915">
        <ele>2574</ele>
        <time>2021-08-12T10:04:00.468Z</time>
      </trkpt>
      <trkpt lat="46.85332" lon="8.48914">
        <ele>2574</ele>
        <time>2021-08-12T10:04:01.469Z</time>
      </trkpt>
      <trkpt lat="46.85331" lon="8.48913">
        <ele>2574</ele>
        <time>2021-08-12T10:04:02.468Z</time>
      </trkpt>
      <trkpt lat="46.85332" lon="8.48912">
        <ele>2573</ele>
        <time>2021-08-12T10:04:03.469Z</time>
      </trkpt>
      <trkpt lat="46.85332" lon="8.48912">
        <ele>2573</ele>
        <time>2021-08-12T10:04:04.469Z</time>
      </trkpt>
      <trkpt lat="46.85332" lon="8.48912">
        <ele>2572</ele>
        <time>2021-08-12T10:04:05.469Z</time>
      </trkpt>
      <trkpt lat="46.85333" lon="8.48912">
        <ele>2572</ele>
        <time>2021-08-12T10:04:06.469Z</time>
      </trkpt>
      <trkpt lat="46.85334" lon="8.48911">
        <ele>2571</ele>
        <time>2021-08-12T10:04:07.469Z</time>
      </trkpt>
      <trkpt lat="46.85335" lon="8.48911">
        <ele>2571</ele>
        <time>2021-08-12T10:04:08.468Z</time>
      </trkpt>
      <trkpt lat="46.85335" lon="8.48909">
        <ele>2571</ele>
        <time>2021-08-12T10:04:09.468Z</time>
      </trkpt>
      <trkpt lat="46.85334" lon="8.48908">
        <ele>2571</ele>
        <time>2021-08-12T10:04:10.469Z</time>
      </trkpt>
      <trkpt lat="46.85334" lon="8.48907">
        <ele>2571</ele>
        <time>2021-08-12T10:04:11.469Z</time>
      </trkpt>
      <trkpt lat="46.85334" lon="8.48907">
        <ele>2570</ele>
        <time>2021-08-12T10:04:12.468Z</time>
      </trkpt>
      <trkpt lat="46.85334" lon="8.48905">
        <ele>2570</ele>
        <time>2021-08-12T10:04:13.469Z</time>
      </trkpt>
      <trkpt lat="46.85334" lon="8.48904">
        <ele>2569</ele>
        <time>2021-08-12T10:04:14.469Z</time>
      </trkpt>
      <trkpt lat="46.85334" lon="8.48903">
        <ele>2569</ele>
        <time>2021-08-12T10:04:15.468Z</time>
      </trkpt>
      <trkpt lat="46.85334" lon="8.48902">
        <ele>2569</ele>
        <time>2021-08-12T10:04:16.468Z</time>
      </trkpt>
      <trkpt lat="46.85334" lon="8.48901">
        <ele>2568</ele>
        <time>2021-08-12T10:04:17.469Z</time>
      </trkpt>
      <trkpt lat="46.85334" lon="8.489">
        <ele>2568</ele>
        <time>2021-08-12T10:04:18.468Z</time>
      </trkpt>
      <trkpt lat="46.85334" lon="8.48899">
        <ele>2568</ele>
        <time>2021-08-12T10:04:19.469Z</time>
      </trkpt>
      <trkpt lat="46.85335" lon="8.48897">
        <ele>2568</ele>
        <time>2021-08-12T10:04:20.469Z</time>
      </trkpt>
      <trkpt lat="46.85335" lon="8.48896">
        <ele>2568</ele>
        <time>2021-08-12T10:04:21.469Z</time>
      </trkpt>
      <trkpt lat="46.85335" lon="8.48895">
        <ele>2568</ele>
        <time>2021-08-12T10:04:22.469Z</time>
      </trkpt>
      <trkpt lat="46.85335" lon="8.48893">
        <ele>2568</ele>
        <time>2021-08-12T10:04:23.468Z</time>
      </trkpt>
      <trkpt lat="46.85336" lon="8.48893">
        <ele>2567</ele>
        <time>2021-08-12T10:04:24.469Z</time>
      </trkpt>
      <trkpt lat="46.85336" lon="8.48892">
        <ele>2566</ele>
        <time>2021-08-12T10:04:25.469Z</time>
      </trkpt>
      <trkpt lat="46.85337" lon="8.48892">
        <ele>2566</ele>
        <time>2021-08-12T10:04:26.469Z</time>
      </trkpt>
      <trkpt lat="46.85337" lon="8.48891">
        <ele>2565</ele>
        <time>2021-08-12T10:04:27.468Z</time>
      </trkpt>
      <trkpt lat="46.85337" lon="8.48889">
        <ele>2565</ele>
        <time>2021-08-12T10:04:28.469Z</time>
      </trkpt>
      <trkpt lat="46.85337" lon="8.48888">
        <ele>2565</ele>
        <time>2021-08-12T10:04:29.468Z</time>
      </trkpt>
      <trkpt lat="46.85336" lon="8.48887">
        <ele>2565</ele>
        <time>2021-08-12T10:04:30.469Z</time>
      </trkpt>
      <trkpt lat="46.85335" lon="8.48886">
        <ele>2564</ele>
        <time>2021-08-12T10:04:31.469Z</time>
      </trkpt>
      <trkpt lat="46.85335" lon="8.48885">
        <ele>2563</ele>
        <time>2021-08-12T10:04:32.469Z</time>
      </trkpt>
      <trkpt lat="46.85334" lon="8.48884">
        <ele>2562</ele>
        <time>2021-08-12T10:04:33.468Z</time>
      </trkpt>
      <trkpt lat="46.85334" lon="8.48883">
        <ele>2561</ele>
        <time>2021-08-12T10:04:34.469Z</time>
      </trkpt>
      <trkpt lat="46.85334" lon="8.48882">
        <ele>2561</ele>
        <time>2021-08-12T10:04:35.469Z</time>
      </trkpt>
      <trkpt lat="46.85334" lon="8.48881">
        <ele>2560</ele>
        <time>2021-08-12T10:04:36.469Z</time>
      </trkpt>
      <trkpt lat="46.85334" lon="8.4888">
        <ele>2560</ele>
        <time>2021-08-12T10:04:37.469Z</time>
      </trkpt>
      <trkpt lat="46.85334" lon="8.48879">
        <ele>2560</ele>
        <time>2021-08-12T10:04:38.469Z</time>
      </trkpt>
      <trkpt lat="46.85335" lon="8.48878">
        <ele>2559</ele>
        <time>2021-08-12T10:04:39.469Z</time>
      </trkpt>
      <trkpt lat="46.85335" lon="8.48877">
        <ele>2559</ele>
        <time>2021-08-12T10:04:40.468Z</time>
      </trkpt>
      <trkpt lat="46.85335" lon="8.48877">
        <ele>2560</ele>
        <time>2021-08-12T10:04:41.469Z</time>
      </trkpt>
      <trkpt lat="46.85333" lon="8.48877">
        <ele>2557</ele>
        <time>2021-08-12T10:04:42.470Z</time>
      </trkpt>
      <trkpt lat="46.85333" lon="8.48877">
        <ele>2558</ele>
        <time>2021-08-12T10:04:43.470Z</time>
      </trkpt>
      <trkpt lat="46.85334" lon="8.4888">
        <ele>2560</ele>
        <time>2021-08-12T10:04:44.471Z</time>
      </trkpt>
      <trkpt lat="46.85334" lon="8.4888">
        <ele>2560</ele>
        <time>2021-08-12T10:04:45.471Z</time>
      </trkpt>
      <trkpt lat="46.85335" lon="8.4888">
        <ele>2561</ele>
        <time>2021-08-12T10:04:46.471Z</time>
      </trkpt>
      <trkpt lat="46.85336" lon="8.48876">
        <ele>2560</ele>
        <time>2021-08-12T10:04:47.472Z</time>
      </trkpt>
      <trkpt lat="46.85336" lon="8.48876">
        <ele>2560</ele>
        <time>2021-08-12T10:04:48.472Z</time>
      </trkpt>
      <trkpt lat="46.85336" lon="8.48876">
        <ele>2561</ele>
        <time>2021-08-12T10:04:49.471Z</time>
      </trkpt>
      <trkpt lat="46.85337" lon="8.48878">
        <ele>2563</ele>
        <time>2021-08-12T10:04:50.472Z</time>
      </trkpt>
      <trkpt lat="46.85337" lon="8.48879">
        <ele>2562</ele>
        <time>2021-08-12T10:04:51.472Z</time>
      </trkpt>
      <trkpt lat="46.85337" lon="8.48879">
        <ele>2562</ele>
        <time>2021-08-12T10:04:52.471Z</time>
      </trkpt>
      <trkpt lat="46.85338" lon="8.48879">
        <ele>2562</ele>
        <time>2021-08-12T10:04:53.472Z</time>
      </trkpt>
      <trkpt lat="46.85338" lon="8.48879">
        <ele>2562</ele>
        <time>2021-08-12T10:04:54.471Z</time>
      </trkpt>
      <trkpt lat="46.85338" lon="8.48879">
        <ele>2561</ele>
        <time>2021-08-12T10:04:55.472Z</time>
      </trkpt>
      <trkpt lat="46.85338" lon="8.48878">
        <ele>2561</ele>
        <time>2021-08-12T10:04:56.471Z</time>
      </trkpt>
      <trkpt lat="46.85338" lon="8.48878">
        <ele>2561</ele>
        <time>2021-08-12T10:04:57.472Z</time>
      </trkpt>
      <trkpt lat="46.85338" lon="8.48877">
        <ele>2561</ele>
        <time>2021-08-12T10:04:58.472Z</time>
      </trkpt>
      <trkpt lat="46.85337" lon="8.48876">
        <ele>2557</ele>
        <time>2021-08-12T10:04:59.473Z</time>
      </trkpt>
      <trkpt lat="46.85337" lon="8.48876">
        <ele>2557</ele>
        <time>2021-08-12T10:05:00.473Z</time>
      </trkpt>
      <trkpt lat="46.85337" lon="8.48876">
        <ele>2557</ele>
        <time>2021-08-12T10:05:01.473Z</time>
      </trkpt>
      <trkpt lat="46.85338" lon="8.48876">
        <ele>2557</ele>
        <time>2021-08-12T10:05:02.473Z</time>
      </trkpt>
      <trkpt lat="46.8534" lon="8.48876">
        <ele>2561</ele>
        <time>2021-08-12T10:05:03.473Z</time>
      </trkpt>
      <trkpt lat="46.8534" lon="8.48876">
        <ele>2562</ele>
        <time>2021-08-12T10:05:04.473Z</time>
      </trkpt>
      <trkpt lat="46.8534" lon="8.48875">
        <ele>2563</ele>
        <time>2021-08-12T10:05:05.472Z</time>
      </trkpt>
      <trkpt lat="46.8534" lon="8.48875">
        <ele>2563</ele>
        <time>2021-08-12T10:05:06.472Z</time>
      </trkpt>
      <trkpt lat="46.85337" lon="8.48877">
        <ele>2556</ele>
        <time>2021-08-12T10:05:07.473Z</time>
      </trkpt>
      <trkpt lat="46.85335" lon="8.48878">
        <ele>2560</ele>
        <time>2021-08-12T10:05:08.474Z</time>
      </trkpt>
      <trkpt lat="46.85333" lon="8.48877">
        <ele>2564</ele>
        <time>2021-08-12T10:05:09.474Z</time>
      </trkpt>
      <trkpt lat="46.85333" lon="8.48876">
        <ele>2565</ele>
        <time>2021-08-12T10:05:10.474Z</time>
      </trkpt>
      <trkpt lat="46.85333" lon="8.48879">
        <ele>2568</ele>
        <time>2021-08-12T10:05:11.474Z</time>
      </trkpt>
      <trkpt lat="46.85333" lon="8.48879">
        <ele>2567</ele>
        <time>2021-08-12T10:05:12.475Z</time>
      </trkpt>
      <trkpt lat="46.85332" lon="8.48877">
        <ele>2567</ele>
        <time>2021-08-12T10:05:13.476Z</time>
      </trkpt>
      <trkpt lat="46.85332" lon="8.48877">
        <ele>2567</ele>
        <time>2021-08-12T10:05:14.475Z</time>
      </trkpt>
      <trkpt lat="46.85332" lon="8.48877">
        <ele>2566</ele>
        <time>2021-08-12T10:05:15.476Z</time>
      </trkpt>
      <trkpt lat="46.85332" lon="8.48877">
        <ele>2566</ele>
        <time>2021-08-12T10:05:16.475Z</time>
      </trkpt>
      <trkpt lat="46.85335" lon="8.48877">
        <ele>2560</ele>
        <time>2021-08-12T10:05:17.476Z</time>
      </trkpt>
      <trkpt lat="46.85335" lon="8.48877">
        <ele>2560</ele>
        <time>2021-08-12T10:05:18.475Z</time>
      </trkpt>
      <trkpt lat="46.85335" lon="8.48879">
        <ele>2561</ele>
        <time>2021-08-12T10:05:19.475Z</time>
      </trkpt>
      <trkpt lat="46.85335" lon="8.48879">
        <ele>2561</ele>
        <time>2021-08-12T10:05:20.476Z</time>
      </trkpt>
      <trkpt lat="46.85335" lon="8.48879">
        <ele>2561</ele>
        <time>2021-08-12T10:05:21.476Z</time>
      </trkpt>
      <trkpt lat="46.85335" lon="8.4888">
        <ele>2561</ele>
        <time>2021-08-12T10:05:22.476Z</time>
      </trkpt>
      <trkpt lat="46.85337" lon="8.48882">
        <ele>2562</ele>
        <time>2021-08-12T10:05:23.477Z</time>
      </trkpt>
      <trkpt lat="46.85337" lon="8.48882">
        <ele>2562</ele>
        <time>2021-08-12T10:05:24.477Z</time>
      </trkpt>
      <trkpt lat="46.85338" lon="8.48883">
        <ele>2562</ele>
        <time>2021-08-12T10:05:25.477Z</time>
      </trkpt>
      <trkpt lat="46.85338" lon="8.48884">
        <ele>2562</ele>
        <time>2021-08-12T10:05:26.478Z</time>
      </trkpt>
      <trkpt lat="46.85339" lon="8.48884">
        <ele>2562</ele>
        <time>2021-08-12T10:05:27.478Z</time>
      </trkpt>
      <trkpt lat="46.85339" lon="8.48885">
        <ele>2562</ele>
        <time>2021-08-12T10:05:28.478Z</time>
      </trkpt>
      <trkpt lat="46.8534" lon="8.48885">
        <ele>2563</ele>
        <time>2021-08-12T10:05:29.477Z</time>
      </trkpt>
      <trkpt lat="46.8534" lon="8.48886">
        <ele>2562</ele>
        <time>2021-08-12T10:05:30.477Z</time>
      </trkpt>
      <trkpt lat="46.8534" lon="8.48886">
        <ele>2562</ele>
        <time>2021-08-12T10:05:31.478Z</time>
      </trkpt>
      <trkpt lat="46.85337" lon="8.48883">
        <ele>2561</ele>
        <time>2021-08-12T10:05:32.479Z</time>
      </trkpt>
      <trkpt lat="46.85337" lon="8.48883">
        <ele>2562</ele>
        <time>2021-08-12T10:05:33.479Z</time>
      </trkpt>
      <trkpt lat="46.85338" lon="8.48882">
        <ele>2561</ele>
        <time>2021-08-12T10:05:34.478Z</time>
      </trkpt>
      <trkpt lat="46.85338" lon="8.48882">
        <ele>2561</ele>
        <time>2021-08-12T10:05:35.479Z</time>
      </trkpt>
      <trkpt lat="46.85338" lon="8.48882">
        <ele>2561</ele>
        <time>2021-08-12T10:05:36.479Z</time>
      </trkpt>
      <trkpt lat="46.85339" lon="8.48883">
        <ele>2562</ele>
        <time>2021-08-12T10:05:37.479Z</time>
      </trkpt>
      <trkpt lat="46.85339" lon="8.48882">
        <ele>2562</ele>
        <time>2021-08-12T10:05:38.480Z</time>
      </trkpt>
      <trkpt lat="46.85338" lon="8.48881">
        <ele>2562</ele>
        <time>2021-08-12T10:05:39.479Z</time>
      </trkpt>
      <trkpt lat="46.85338" lon="8.4888">
        <ele>2561</ele>
        <time>2021-08-12T10:05:40.480Z</time>
      </trkpt>
      <trkpt lat="46.85337" lon="8.48879">
        <ele>2561</ele>
        <time>2021-08-12T10:05:41.479Z</time>
      </trkpt>
      <trkpt lat="46.85337" lon="8.48879">
        <ele>2561</ele>
        <time>2021-08-12T10:05:42.480Z</time>
      </trkpt>
      <trkpt lat="46.85336" lon="8.48878">
        <ele>2560</ele>
        <time>2021-08-12T10:05:43.480Z</time>
      </trkpt>
      <trkpt lat="46.85336" lon="8.48878">
        <ele>2560</ele>
        <time>2021-08-12T10:05:44.480Z</time>
      </trkpt>
      <trkpt lat="46.85336" lon="8.48877">
        <ele>2559</ele>
        <time>2021-08-12T10:05:45.479Z</time>
      </trkpt>
      <trkpt lat="46.85335" lon="8.48877">
        <ele>2559</ele>
        <time>2021-08-12T10:05:46.480Z</time>
      </trkpt>
      <trkpt lat="46.85335" lon="8.48877">
        <ele>2558</ele>
        <time>2021-08-12T10:05:47.480Z</time>
      </trkpt>
      <trkpt lat="46.85335" lon="8.48876">
        <ele>2558</ele>
        <time>2021-08-12T10:05:48.479Z</time>
      </trkpt>
      <trkpt lat="46.85334" lon="8.48876">
        <ele>2558</ele>
        <time>2021-08-12T10:05:49.481Z</time>
      </trkpt>
      <trkpt lat="46.85334" lon="8.48875">
        <ele>2557</ele>
        <time>2021-08-12T10:05:50.480Z</time>
      </trkpt>
      <trkpt lat="46.85334" lon="8.48876">
        <ele>2557</ele>
        <time>2021-08-12T10:05:51.480Z</time>
      </trkpt>
      <trkpt lat="46.85333" lon="8.48875">
        <ele>2557</ele>
        <time>2021-08-12T10:05:52.480Z</time>
      </trkpt>
      <trkpt lat="46.85333" lon="8.48875">
        <ele>2556</ele>
        <time>2021-08-12T10:05:53.483Z</time>
      </trkpt>
      <trkpt lat="46.85334" lon="8.48875">
        <ele>2556</ele>
        <time>2021-08-12T10:05:54.483Z</time>
      </trkpt>
      <trkpt lat="46.85334" lon="8.48875">
        <ele>2556</ele>
        <time>2021-08-12T10:05:55.482Z</time>
      </trkpt>
      <trkpt lat="46.85333" lon="8.48876">
        <ele>2561</ele>
        <time>2021-08-12T10:05:56.484Z</time>
      </trkpt>
      <trkpt lat="46.85334" lon="8.48876">
        <ele>2560</ele>
        <time>2021-08-12T10:05:57.484Z</time>
      </trkpt>
      <trkpt lat="46.85334" lon="8.48875">
        <ele>2560</ele>
        <time>2021-08-12T10:05:58.483Z</time>
      </trkpt>
      <trkpt lat="46.85334" lon="8.48876">
        <ele>2559</ele>
        <time>2021-08-12T10:05:59.484Z</time>
      </trkpt>
      <trkpt lat="46.85335" lon="8.48874">
        <ele>2556</ele>
        <time>2021-08-12T10:06:00.485Z</time>
      </trkpt>
      <trkpt lat="46.85335" lon="8.48874">
        <ele>2557</ele>
        <time>2021-08-12T10:06:01.485Z</time>
      </trkpt>
      <trkpt lat="46.85334" lon="8.48874">
        <ele>2557</ele>
        <time>2021-08-12T10:06:02.485Z</time>
      </trkpt>
      <trkpt lat="46.85334" lon="8.48875">
        <ele>2557</ele>
        <time>2021-08-12T10:06:03.486Z</time>
      </trkpt>
      <trkpt lat="46.85335" lon="8.48875">
        <ele>2556</ele>
        <time>2021-08-12T10:06:04.485Z</time>
      </trkpt>
      <trkpt lat="46.85335" lon="8.48875">
        <ele>2556</ele>
        <time>2021-08-12T10:06:05.485Z</time>
      </trkpt>
      <trkpt lat="46.85335" lon="8.48875">
        <ele>2555</ele>
        <time>2021-08-12T10:06:06.487Z</time>
      </trkpt>
      <trkpt lat="46.85335" lon="8.48875">
        <ele>2556</ele>
        <time>2021-08-12T10:06:07.487Z</time>
      </trkpt>
      <trkpt lat="46.85335" lon="8.48875">
        <ele>2556</ele>
        <time>2021-08-12T10:06:08.487Z</time>
      </trkpt>
      <trkpt lat="46.85334" lon="8.48876">
        <ele>2556</ele>
        <time>2021-08-12T10:06:09.487Z</time>
      </trkpt>
      <trkpt lat="46.85334" lon="8.48876">
        <ele>2556</ele>
        <time>2021-08-12T10:06:10.487Z</time>
      </trkpt>
      <trkpt lat="46.85334" lon="8.48875">
        <ele>2556</ele>
        <time>2021-08-12T10:06:11.487Z</time>
      </trkpt>
      <trkpt lat="46.85334" lon="8.48875">
        <ele>2555</ele>
        <time>2021-08-12T10:06:12.487Z</time>
      </trkpt>
      <trkpt lat="46.85334" lon="8.48875">
        <ele>2555</ele>
        <time>2021-08-12T10:06:13.487Z</time>
      </trkpt>
      <trkpt lat="46.85334" lon="8.48875">
        <ele>2554</ele>
        <time>2021-08-12T10:06:14.487Z</time>
      </trkpt>
      <trkpt lat="46.85334" lon="8.48875">
        <ele>2553</ele>
        <time>2021-08-12T10:06:15.487Z</time>
      </trkpt>
      <trkpt lat="46.85335" lon="8.48875">
        <ele>2554</ele>
        <time>2021-08-12T10:06:16.487Z</time>
      </trkpt>
      <trkpt lat="46.85335" lon="8.48875">
        <ele>2554</ele>
        <time>2021-08-12T10:06:17.487Z</time>
      </trkpt>
      <trkpt lat="46.85334" lon="8.48875">
        <ele>2555</ele>
        <time>2021-08-12T10:06:18.487Z</time>
      </trkpt>
      <trkpt lat="46.85333" lon="8.48875">
        <ele>2558</ele>
        <time>2021-08-12T10:06:19.488Z</time>
      </trkpt>
      <trkpt lat="46.85332" lon="8.48875">
        <ele>2558</ele>
        <time>2021-08-12T10:06:20.487Z</time>
      </trkpt>
      <trkpt lat="46.85332" lon="8.48875">
        <ele>2559</ele>
        <time>2021-08-12T10:06:21.489Z</time>
      </trkpt>
      <trkpt lat="46.85331" lon="8.48874">
        <ele>2560</ele>
        <time>2021-08-12T10:06:22.488Z</time>
      </trkpt>
      <trkpt lat="46.85332" lon="8.48875">
        <ele>2559</ele>
        <time>2021-08-12T10:06:23.489Z</time>
      </trkpt>
      <trkpt lat="46.85333" lon="8.48875">
        <ele>2556</ele>
        <time>2021-08-12T10:06:24.489Z</time>
      </trkpt>
      <trkpt lat="46.85333" lon="8.48875">
        <ele>2556</ele>
        <time>2021-08-12T10:06:25.489Z</time>
      </trkpt>
      <trkpt lat="46.85333" lon="8.48876">
        <ele>2557</ele>
        <time>2021-08-12T10:06:26.488Z</time>
      </trkpt>
      <trkpt lat="46.85333" lon="8.48876">
        <ele>2558</ele>
        <time>2021-08-12T10:06:27.488Z</time>
      </trkpt>
      <trkpt lat="46.85333" lon="8.48875">
        <ele>2558</ele>
        <time>2021-08-12T10:06:28.489Z</time>
      </trkpt>
      <trkpt lat="46.85333" lon="8.48875">
        <ele>2560</ele>
        <time>2021-08-12T10:06:29.489Z</time>
      </trkpt>
      <trkpt lat="46.85334" lon="8.48875">
        <ele>2560</ele>
        <time>2021-08-12T10:06:30.490Z</time>
      </trkpt>
      <trkpt lat="46.85334" lon="8.48875">
        <ele>2561</ele>
        <time>2021-08-12T10:06:31.489Z</time>
      </trkpt>
      <trkpt lat="46.85334" lon="8.48875">
        <ele>2562</ele>
        <time>2021-08-12T10:06:32.489Z</time>
      </trkpt>
      <trkpt lat="46.85334" lon="8.48876">
        <ele>2562</ele>
        <time>2021-08-12T10:06:33.490Z</time>
      </trkpt>
      <trkpt lat="46.85334" lon="8.48874">
        <ele>2565</ele>
        <time>2021-08-12T10:06:34.491Z</time>
      </trkpt>
      <trkpt lat="46.85334" lon="8.48874">
        <ele>2565</ele>
        <time>2021-08-12T10:06:35.491Z</time>
      </trkpt>
      <trkpt lat="46.85334" lon="8.48874">
        <ele>2565</ele>
        <time>2021-08-12T10:06:36.490Z</time>
      </trkpt>
      <trkpt lat="46.85333" lon="8.48873">
        <ele>2565</ele>
        <time>2021-08-12T10:06:37.490Z</time>
      </trkpt>
      <trkpt lat="46.85334" lon="8.48874">
        <ele>2557</ele>
        <time>2021-08-12T10:06:38.492Z</time>
      </trkpt>
      <trkpt lat="46.85333" lon="8.48873">
        <ele>2555</ele>
        <time>2021-08-12T10:06:39.493Z</time>
      </trkpt>
      <trkpt lat="46.85333" lon="8.48872">
        <ele>2554</ele>
        <time>2021-08-12T10:06:40.493Z</time>
      </trkpt>
      <trkpt lat="46.85333" lon="8.48871">
        <ele>2554</ele>
        <time>2021-08-12T10:06:41.492Z</time>
      </trkpt>
      <trkpt lat="46.85333" lon="8.48872">
        <ele>2553</ele>
        <time>2021-08-12T10:06:42.492Z</time>
      </trkpt>
      <trkpt lat="46.85332" lon="8.4887">
        <ele>2555</ele>
        <time>2021-08-12T10:06:43.493Z</time>
      </trkpt>
      <trkpt lat="46.85332" lon="8.4887">
        <ele>2555</ele>
        <time>2021-08-12T10:06:44.493Z</time>
      </trkpt>
      <trkpt lat="46.85332" lon="8.4887">
        <ele>2555</ele>
        <time>2021-08-12T10:06:45.493Z</time>
      </trkpt>
      <trkpt lat="46.85332" lon="8.4887">
        <ele>2555</ele>
        <time>2021-08-12T10:06:46.493Z</time>
      </trkpt>
      <trkpt lat="46.85331" lon="8.48871">
        <ele>2554</ele>
        <time>2021-08-12T10:06:47.493Z</time>
      </trkpt>
      <trkpt lat="46.85329" lon="8.4887">
        <ele>2554</ele>
        <time>2021-08-12T10:06:48.493Z</time>
      </trkpt>
      <trkpt lat="46.85329" lon="8.4887">
        <ele>2554</ele>
        <time>2021-08-12T10:06:49.493Z</time>
      </trkpt>
      <trkpt lat="46.85329" lon="8.48869">
        <ele>2554</ele>
        <time>2021-08-12T10:06:50.493Z</time>
      </trkpt>
      <trkpt lat="46.85329" lon="8.48868">
        <ele>2554</ele>
        <time>2021-08-12T10:06:51.494Z</time>
      </trkpt>
      <trkpt lat="46.85329" lon="8.48867">
        <ele>2554</ele>
        <time>2021-08-12T10:06:52.493Z</time>
      </trkpt>
      <trkpt lat="46.85329" lon="8.48867">
        <ele>2553</ele>
        <time>2021-08-12T10:06:53.495Z</time>
      </trkpt>
      <trkpt lat="46.85329" lon="8.48866">
        <ele>2552</ele>
        <time>2021-08-12T10:06:54.495Z</time>
      </trkpt>
      <trkpt lat="46.8533" lon="8.48866">
        <ele>2552</ele>
        <time>2021-08-12T10:06:55.495Z</time>
      </trkpt>
      <trkpt lat="46.8533" lon="8.48865">
        <ele>2551</ele>
        <time>2021-08-12T10:06:56.495Z</time>
      </trkpt>
      <trkpt lat="46.85329" lon="8.48864">
        <ele>2551</ele>
        <time>2021-08-12T10:06:57.496Z</time>
      </trkpt>
      <trkpt lat="46.85329" lon="8.48863">
        <ele>2551</ele>
        <time>2021-08-12T10:06:58.495Z</time>
      </trkpt>
      <trkpt lat="46.85329" lon="8.48863">
        <ele>2551</ele>
        <time>2021-08-12T10:06:59.495Z</time>
      </trkpt>
      <trkpt lat="46.85329" lon="8.48861">
        <ele>2552</ele>
        <time>2021-08-12T10:07:00.497Z</time>
      </trkpt>
      <trkpt lat="46.85329" lon="8.48861">
        <ele>2552</ele>
        <time>2021-08-12T10:07:01.497Z</time>
      </trkpt>
      <trkpt lat="46.85329" lon="8.4886">
        <ele>2552</ele>
        <time>2021-08-12T10:07:02.497Z</time>
      </trkpt>
      <trkpt lat="46.85328" lon="8.4886">
        <ele>2552</ele>
        <time>2021-08-12T10:07:03.497Z</time>
      </trkpt>
      <trkpt lat="46.85328" lon="8.48859">
        <ele>2552</ele>
        <time>2021-08-12T10:07:04.497Z</time>
      </trkpt>
      <trkpt lat="46.85328" lon="8.48859">
        <ele>2551</ele>
        <time>2021-08-12T10:07:05.497Z</time>
      </trkpt>
      <trkpt lat="46.85327" lon="8.4886">
        <ele>2551</ele>
        <time>2021-08-12T10:07:06.496Z</time>
      </trkpt>
      <trkpt lat="46.85326" lon="8.48859">
        <ele>2551</ele>
        <time>2021-08-12T10:07:07.497Z</time>
      </trkpt>
      <trkpt lat="46.85325" lon="8.4886">
        <ele>2551</ele>
        <time>2021-08-12T10:07:08.497Z</time>
      </trkpt>
      <trkpt lat="46.85325" lon="8.48861">
        <ele>2551</ele>
        <time>2021-08-12T10:07:09.497Z</time>
      </trkpt>
      <trkpt lat="46.85324" lon="8.48861">
        <ele>2551</ele>
        <time>2021-08-12T10:07:10.496Z</time>
      </trkpt>
      <trkpt lat="46.85324" lon="8.48862">
        <ele>2550</ele>
        <time>2021-08-12T10:07:11.497Z</time>
      </trkpt>
      <trkpt lat="46.85324" lon="8.48862">
        <ele>2550</ele>
        <time>2021-08-12T10:07:12.497Z</time>
      </trkpt>
      <trkpt lat="46.85323" lon="8.48863">
        <ele>2550</ele>
        <time>2021-08-12T10:07:13.497Z</time>
      </trkpt>
      <trkpt lat="46.85323" lon="8.48863">
        <ele>2549</ele>
        <time>2021-08-12T10:07:14.497Z</time>
      </trkpt>
      <trkpt lat="46.85322" lon="8.48863">
        <ele>2549</ele>
        <time>2021-08-12T10:07:15.497Z</time>
      </trkpt>
      <trkpt lat="46.85323" lon="8.48863">
        <ele>2548</ele>
        <time>2021-08-12T10:07:16.497Z</time>
      </trkpt>
      <trkpt lat="46.85324" lon="8.48863">
        <ele>2548</ele>
        <time>2021-08-12T10:07:17.496Z</time>
      </trkpt>
      <trkpt lat="46.85324" lon="8.48863">
        <ele>2548</ele>
        <time>2021-08-12T10:07:18.497Z</time>
      </trkpt>
      <trkpt lat="46.85324" lon="8.48863">
        <ele>2548</ele>
        <time>2021-08-12T10:07:19.497Z</time>
      </trkpt>
      <trkpt lat="46.85324" lon="8.48862">
        <ele>2548</ele>
        <time>2021-08-12T10:07:20.497Z</time>
      </trkpt>
      <trkpt lat="46.85324" lon="8.48861">
        <ele>2548</ele>
        <time>2021-08-12T10:07:21.497Z</time>
      </trkpt>
      <trkpt lat="46.85324" lon="8.4886">
        <ele>2548</ele>
        <time>2021-08-12T10:07:22.497Z</time>
      </trkpt>
      <trkpt lat="46.85324" lon="8.4886">
        <ele>2547</ele>
        <time>2021-08-12T10:07:23.496Z</time>
      </trkpt>
      <trkpt lat="46.85323" lon="8.48861">
        <ele>2547</ele>
        <time>2021-08-12T10:07:24.497Z</time>
      </trkpt>
      <trkpt lat="46.85323" lon="8.48861">
        <ele>2547</ele>
        <time>2021-08-12T10:07:25.497Z</time>
      </trkpt>
      <trkpt lat="46.85322" lon="8.48861">
        <ele>2547</ele>
        <time>2021-08-12T10:07:26.496Z</time>
      </trkpt>
      <trkpt lat="46.85322" lon="8.48861">
        <ele>2547</ele>
        <time>2021-08-12T10:07:27.496Z</time>
      </trkpt>
      <trkpt lat="46.85321" lon="8.48861">
        <ele>2546</ele>
        <time>2021-08-12T10:07:28.496Z</time>
      </trkpt>
      <trkpt lat="46.85321" lon="8.48861">
        <ele>2545</ele>
        <time>2021-08-12T10:07:29.497Z</time>
      </trkpt>
      <trkpt lat="46.85322" lon="8.4886">
        <ele>2545</ele>
        <time>2021-08-12T10:07:30.496Z</time>
      </trkpt>
      <trkpt lat="46.85322" lon="8.4886">
        <ele>2545</ele>
        <time>2021-08-12T10:07:31.497Z</time>
      </trkpt>
      <trkpt lat="46.85322" lon="8.48859">
        <ele>2545</ele>
        <time>2021-08-12T10:07:32.496Z</time>
      </trkpt>
      <trkpt lat="46.85322" lon="8.48858">
        <ele>2544</ele>
        <time>2021-08-12T10:07:33.497Z</time>
      </trkpt>
      <trkpt lat="46.8532" lon="8.48856">
        <ele>2544</ele>
        <time>2021-08-12T10:07:34.497Z</time>
      </trkpt>
      <trkpt lat="46.8532" lon="8.48854">
        <ele>2544</ele>
        <time>2021-08-12T10:07:35.496Z</time>
      </trkpt>
      <trkpt lat="46.85321" lon="8.48853">
        <ele>2543</ele>
        <time>2021-08-12T10:07:36.497Z</time>
      </trkpt>
      <trkpt lat="46.85322" lon="8.48853">
        <ele>2542</ele>
        <time>2021-08-12T10:07:37.496Z</time>
      </trkpt>
      <trkpt lat="46.85323" lon="8.48852">
        <ele>2542</ele>
        <time>2021-08-12T10:07:38.497Z</time>
      </trkpt>
      <trkpt lat="46.85323" lon="8.48851">
        <ele>2542</ele>
        <time>2021-08-12T10:07:39.496Z</time>
      </trkpt>
      <trkpt lat="46.85323" lon="8.4885">
        <ele>2542</ele>
        <time>2021-08-12T10:07:40.497Z</time>
      </trkpt>
      <trkpt lat="46.85321" lon="8.48849">
        <ele>2543</ele>
        <time>2021-08-12T10:07:41.497Z</time>
      </trkpt>
      <trkpt lat="46.8532" lon="8.48849">
        <ele>2544</ele>
        <time>2021-08-12T10:07:42.497Z</time>
      </trkpt>
      <trkpt lat="46.8532" lon="8.48849">
        <ele>2544</ele>
        <time>2021-08-12T10:07:43.497Z</time>
      </trkpt>
      <trkpt lat="46.85319" lon="8.48849">
        <ele>2544</ele>
        <time>2021-08-12T10:07:44.496Z</time>
      </trkpt>
      <trkpt lat="46.85318" lon="8.48848">
        <ele>2544</ele>
        <time>2021-08-12T10:07:45.497Z</time>
      </trkpt>
      <trkpt lat="46.85318" lon="8.48848">
        <ele>2545</ele>
        <time>2021-08-12T10:07:46.497Z</time>
      </trkpt>
      <trkpt lat="46.85317" lon="8.48847">
        <ele>2545</ele>
        <time>2021-08-12T10:07:47.496Z</time>
      </trkpt>
      <trkpt lat="46.85317" lon="8.48847">
        <ele>2545</ele>
        <time>2021-08-12T10:07:48.496Z</time>
      </trkpt>
      <trkpt lat="46.85318" lon="8.48847">
        <ele>2544</ele>
        <time>2021-08-12T10:07:49.497Z</time>
      </trkpt>
      <trkpt lat="46.85318" lon="8.48847">
        <ele>2544</ele>
        <time>2021-08-12T10:07:50.497Z</time>
      </trkpt>
      <trkpt lat="46.85319" lon="8.48846">
        <ele>2544</ele>
        <time>2021-08-12T10:07:51.497Z</time>
      </trkpt>
      <trkpt lat="46.85319" lon="8.48846">
        <ele>2544</ele>
        <time>2021-08-12T10:07:52.497Z</time>
      </trkpt>
      <trkpt lat="46.85319" lon="8.48846">
        <ele>2544</ele>
        <time>2021-08-12T10:07:53.497Z</time>
      </trkpt>
      <trkpt lat="46.85318" lon="8.48845">
        <ele>2544</ele>
        <time>2021-08-12T10:07:54.497Z</time>
      </trkpt>
      <trkpt lat="46.85318" lon="8.48844">
        <ele>2544</ele>
        <time>2021-08-12T10:07:55.496Z</time>
      </trkpt>
      <trkpt lat="46.85317" lon="8.48843">
        <ele>2544</ele>
        <time>2021-08-12T10:07:56.496Z</time>
      </trkpt>
      <trkpt lat="46.85317" lon="8.48843">
        <ele>2544</ele>
        <time>2021-08-12T10:07:57.496Z</time>
      </trkpt>
      <trkpt lat="46.85316" lon="8.48844">
        <ele>2544</ele>
        <time>2021-08-12T10:07:58.496Z</time>
      </trkpt>
      <trkpt lat="46.85315" lon="8.48844">
        <ele>2544</ele>
        <time>2021-08-12T10:07:59.496Z</time>
      </trkpt>
      <trkpt lat="46.85315" lon="8.48843">
        <ele>2543</ele>
        <time>2021-08-12T10:08:00.496Z</time>
      </trkpt>
      <trkpt lat="46.85314" lon="8.48844">
        <ele>2543</ele>
        <time>2021-08-12T10:08:01.496Z</time>
      </trkpt>
      <trkpt lat="46.85315" lon="8.48844">
        <ele>2543</ele>
        <time>2021-08-12T10:08:02.496Z</time>
      </trkpt>
      <trkpt lat="46.85315" lon="8.48843">
        <ele>2543</ele>
        <time>2021-08-12T10:08:03.496Z</time>
      </trkpt>
      <trkpt lat="46.85315" lon="8.48842">
        <ele>2543</ele>
        <time>2021-08-12T10:08:04.497Z</time>
      </trkpt>
      <trkpt lat="46.85314" lon="8.48842">
        <ele>2543</ele>
        <time>2021-08-12T10:08:05.497Z</time>
      </trkpt>
      <trkpt lat="46.85314" lon="8.48841">
        <ele>2543</ele>
        <time>2021-08-12T10:08:06.497Z</time>
      </trkpt>
      <trkpt lat="46.85315" lon="8.48841">
        <ele>2543</ele>
        <time>2021-08-12T10:08:07.496Z</time>
      </trkpt>
      <trkpt lat="46.85315" lon="8.4884">
        <ele>2542</ele>
        <time>2021-08-12T10:08:08.497Z</time>
      </trkpt>
      <trkpt lat="46.85315" lon="8.48839">
        <ele>2543</ele>
        <time>2021-08-12T10:08:09.497Z</time>
      </trkpt>
      <trkpt lat="46.85315" lon="8.48838">
        <ele>2543</ele>
        <time>2021-08-12T10:08:10.496Z</time>
      </trkpt>
      <trkpt lat="46.85314" lon="8.48837">
        <ele>2543</ele>
        <time>2021-08-12T10:08:11.496Z</time>
      </trkpt>
      <trkpt lat="46.85314" lon="8.48837">
        <ele>2543</ele>
        <time>2021-08-12T10:08:12.496Z</time>
      </trkpt>
      <trkpt lat="46.85313" lon="8.48836">
        <ele>2543</ele>
        <time>2021-08-12T10:08:13.497Z</time>
      </trkpt>
      <trkpt lat="46.85313" lon="8.48836">
        <ele>2543</ele>
        <time>2021-08-12T10:08:14.496Z</time>
      </trkpt>
      <trkpt lat="46.85312" lon="8.48836">
        <ele>2543</ele>
        <time>2021-08-12T10:08:15.496Z</time>
      </trkpt>
      <trkpt lat="46.85312" lon="8.48836">
        <ele>2543</ele>
        <time>2021-08-12T10:08:16.496Z</time>
      </trkpt>
      <trkpt lat="46.85311" lon="8.48836">
        <ele>2543</ele>
        <time>2021-08-12T10:08:17.496Z</time>
      </trkpt>
      <trkpt lat="46.85312" lon="8.48836">
        <ele>2543</ele>
        <time>2021-08-12T10:08:18.496Z</time>
      </trkpt>
      <trkpt lat="46.85312" lon="8.48836">
        <ele>2543</ele>
        <time>2021-08-12T10:08:19.497Z</time>
      </trkpt>
      <trkpt lat="46.85313" lon="8.48836">
        <ele>2543</ele>
        <time>2021-08-12T10:08:20.497Z</time>
      </trkpt>
      <trkpt lat="46.85313" lon="8.48835">
        <ele>2544</ele>
        <time>2021-08-12T10:08:21.496Z</time>
      </trkpt>
      <trkpt lat="46.85313" lon="8.48834">
        <ele>2544</ele>
        <time>2021-08-12T10:08:22.497Z</time>
      </trkpt>
      <trkpt lat="46.85313" lon="8.48834">
        <ele>2544</ele>
        <time>2021-08-12T10:08:23.497Z</time>
      </trkpt>
      <trkpt lat="46.85312" lon="8.48834">
        <ele>2544</ele>
        <time>2021-08-12T10:08:24.496Z</time>
      </trkpt>
      <trkpt lat="46.85312" lon="8.48834">
        <ele>2544</ele>
        <time>2021-08-12T10:08:25.497Z</time>
      </trkpt>
      <trkpt lat="46.85311" lon="8.48834">
        <ele>2544</ele>
        <time>2021-08-12T10:08:26.497Z</time>
      </trkpt>
      <trkpt lat="46.8531" lon="8.48834">
        <ele>2544</ele>
        <time>2021-08-12T10:08:27.497Z</time>
      </trkpt>
      <trkpt lat="46.85309" lon="8.48834">
        <ele>2544</ele>
        <time>2021-08-12T10:08:28.497Z</time>
      </trkpt>
      <trkpt lat="46.85309" lon="8.48833">
        <ele>2543</ele>
        <time>2021-08-12T10:08:29.496Z</time>
      </trkpt>
      <trkpt lat="46.85308" lon="8.48834">
        <ele>2543</ele>
        <time>2021-08-12T10:08:30.497Z</time>
      </trkpt>
      <trkpt lat="46.85307" lon="8.48833">
        <ele>2542</ele>
        <time>2021-08-12T10:08:31.497Z</time>
      </trkpt>
      <trkpt lat="46.85307" lon="8.48834">
        <ele>2542</ele>
        <time>2021-08-12T10:08:32.497Z</time>
      </trkpt>
      <trkpt lat="46.8531" lon="8.48835">
        <ele>2540</ele>
        <time>2021-08-12T10:08:33.496Z</time>
      </trkpt>
      <trkpt lat="46.85311" lon="8.48834">
        <ele>2540</ele>
        <time>2021-08-12T10:08:34.497Z</time>
      </trkpt>
      <trkpt lat="46.85311" lon="8.48834">
        <ele>2540</ele>
        <time>2021-08-12T10:08:35.496Z</time>
      </trkpt>
      <trkpt lat="46.85311" lon="8.48833">
        <ele>2541</ele>
        <time>2021-08-12T10:08:36.497Z</time>
      </trkpt>
      <trkpt lat="46.85311" lon="8.48832">
        <ele>2541</ele>
        <time>2021-08-12T10:08:37.497Z</time>
      </trkpt>
      <trkpt lat="46.85311" lon="8.48831">
        <ele>2540</ele>
        <time>2021-08-12T10:08:38.496Z</time>
      </trkpt>
      <trkpt lat="46.85311" lon="8.4883">
        <ele>2540</ele>
        <time>2021-08-12T10:08:39.497Z</time>
      </trkpt>
      <trkpt lat="46.85312" lon="8.48829">
        <ele>2540</ele>
        <time>2021-08-12T10:08:40.496Z</time>
      </trkpt>
      <trkpt lat="46.85311" lon="8.48828">
        <ele>2540</ele>
        <time>2021-08-12T10:08:41.496Z</time>
      </trkpt>
      <trkpt lat="46.85311" lon="8.48826">
        <ele>2539</ele>
        <time>2021-08-12T10:08:42.496Z</time>
      </trkpt>
      <trkpt lat="46.8531" lon="8.48825">
        <ele>2539</ele>
        <time>2021-08-12T10:08:43.497Z</time>
      </trkpt>
      <trkpt lat="46.85309" lon="8.48824">
        <ele>2538</ele>
        <time>2021-08-12T10:08:44.496Z</time>
      </trkpt>
      <trkpt lat="46.85309" lon="8.48823">
        <ele>2538</ele>
        <time>2021-08-12T10:08:45.496Z</time>
      </trkpt>
      <trkpt lat="46.85308" lon="8.48823">
        <ele>2537</ele>
        <time>2021-08-12T10:08:46.496Z</time>
      </trkpt>
      <trkpt lat="46.85308" lon="8.48823">
        <ele>2537</ele>
        <time>2021-08-12T10:08:47.497Z</time>
      </trkpt>
      <trkpt lat="46.85307" lon="8.48823">
        <ele>2537</ele>
        <time>2021-08-12T10:08:48.497Z</time>
      </trkpt>
      <trkpt lat="46.85306" lon="8.48823">
        <ele>2537</ele>
        <time>2021-08-12T10:08:49.496Z</time>
      </trkpt>
      <trkpt lat="46.85306" lon="8.48823">
        <ele>2537</ele>
        <time>2021-08-12T10:08:50.496Z</time>
      </trkpt>
      <trkpt lat="46.85306" lon="8.48823">
        <ele>2536</ele>
        <time>2021-08-12T10:08:51.496Z</time>
      </trkpt>
      <trkpt lat="46.85306" lon="8.48823">
        <ele>2536</ele>
        <time>2021-08-12T10:08:52.496Z</time>
      </trkpt>
      <trkpt lat="46.85306" lon="8.48823">
        <ele>2536</ele>
        <time>2021-08-12T10:08:53.496Z</time>
      </trkpt>
      <trkpt lat="46.85306" lon="8.48822">
        <ele>2536</ele>
        <time>2021-08-12T10:08:54.497Z</time>
      </trkpt>
      <trkpt lat="46.85306" lon="8.48822">
        <ele>2536</ele>
        <time>2021-08-12T10:08:55.497Z</time>
      </trkpt>
      <trkpt lat="46.85307" lon="8.48822">
        <ele>2536</ele>
        <time>2021-08-12T10:08:56.496Z</time>
      </trkpt>
      <trkpt lat="46.85307" lon="8.48821">
        <ele>2536</ele>
        <time>2021-08-12T10:08:57.496Z</time>
      </trkpt>
      <trkpt lat="46.85308" lon="8.48821">
        <ele>2535</ele>
        <time>2021-08-12T10:08:58.497Z</time>
      </trkpt>
      <trkpt lat="46.85308" lon="8.4882">
        <ele>2535</ele>
        <time>2021-08-12T10:08:59.496Z</time>
      </trkpt>
      <trkpt lat="46.85308" lon="8.48819">
        <ele>2535</ele>
        <time>2021-08-12T10:09:00.497Z</time>
      </trkpt>
      <trkpt lat="46.85308" lon="8.48819">
        <ele>2535</ele>
        <time>2021-08-12T10:09:01.496Z</time>
      </trkpt>
      <trkpt lat="46.85309" lon="8.48818">
        <ele>2535</ele>
        <time>2021-08-12T10:09:02.497Z</time>
      </trkpt>
      <trkpt lat="46.8531" lon="8.48818">
        <ele>2535</ele>
        <time>2021-08-12T10:09:03.497Z</time>
      </trkpt>
      <trkpt lat="46.85308" lon="8.48816">
        <ele>2535</ele>
        <time>2021-08-12T10:09:04.496Z</time>
      </trkpt>
      <trkpt lat="46.85307" lon="8.48815">
        <ele>2534</ele>
        <time>2021-08-12T10:09:05.497Z</time>
      </trkpt>
      <trkpt lat="46.85306" lon="8.48814">
        <ele>2534</ele>
        <time>2021-08-12T10:09:06.496Z</time>
      </trkpt>
      <trkpt lat="46.85305" lon="8.48814">
        <ele>2534</ele>
        <time>2021-08-12T10:09:07.496Z</time>
      </trkpt>
      <trkpt lat="46.85304" lon="8.48814">
        <ele>2533</ele>
        <time>2021-08-12T10:09:08.496Z</time>
      </trkpt>
      <trkpt lat="46.85304" lon="8.48815">
        <ele>2533</ele>
        <time>2021-08-12T10:09:09.497Z</time>
      </trkpt>
      <trkpt lat="46.85303" lon="8.48815">
        <ele>2533</ele>
        <time>2021-08-12T10:09:10.496Z</time>
      </trkpt>
      <trkpt lat="46.85303" lon="8.48815">
        <ele>2533</ele>
        <time>2021-08-12T10:09:11.497Z</time>
      </trkpt>
      <trkpt lat="46.85302" lon="8.48815">
        <ele>2533</ele>
        <time>2021-08-12T10:09:12.496Z</time>
      </trkpt>
      <trkpt lat="46.85302" lon="8.48815">
        <ele>2533</ele>
        <time>2021-08-12T10:09:13.496Z</time>
      </trkpt>
      <trkpt lat="46.85303" lon="8.48815">
        <ele>2533</ele>
        <time>2021-08-12T10:09:14.496Z</time>
      </trkpt>
      <trkpt lat="46.85304" lon="8.48814">
        <ele>2533</ele>
        <time>2021-08-12T10:09:15.497Z</time>
      </trkpt>
      <trkpt lat="46.85304" lon="8.48814">
        <ele>2533</ele>
        <time>2021-08-12T10:09:16.496Z</time>
      </trkpt>
      <trkpt lat="46.85304" lon="8.48813">
        <ele>2533</ele>
        <time>2021-08-12T10:09:17.496Z</time>
      </trkpt>
      <trkpt lat="46.85304" lon="8.48812">
        <ele>2533</ele>
        <time>2021-08-12T10:09:18.496Z</time>
      </trkpt>
      <trkpt lat="46.85305" lon="8.48812">
        <ele>2532</ele>
        <time>2021-08-12T10:09:19.496Z</time>
      </trkpt>
      <trkpt lat="46.85305" lon="8.48811">
        <ele>2532</ele>
        <time>2021-08-12T10:09:20.496Z</time>
      </trkpt>
      <trkpt lat="46.85306" lon="8.4881">
        <ele>2532</ele>
        <time>2021-08-12T10:09:21.497Z</time>
      </trkpt>
      <trkpt lat="46.85306" lon="8.4881">
        <ele>2532</ele>
        <time>2021-08-12T10:09:22.496Z</time>
      </trkpt>
      <trkpt lat="46.85307" lon="8.4881">
        <ele>2532</ele>
        <time>2021-08-12T10:09:23.496Z</time>
      </trkpt>
      <trkpt lat="46.85307" lon="8.48809">
        <ele>2532</ele>
        <time>2021-08-12T10:09:24.496Z</time>
      </trkpt>
      <trkpt lat="46.85308" lon="8.48808">
        <ele>2532</ele>
        <time>2021-08-12T10:09:25.496Z</time>
      </trkpt>
      <trkpt lat="46.85308" lon="8.48808">
        <ele>2532</ele>
        <time>2021-08-12T10:09:26.496Z</time>
      </trkpt>
      <trkpt lat="46.85307" lon="8.48806">
        <ele>2532</ele>
        <time>2021-08-12T10:09:27.496Z</time>
      </trkpt>
      <trkpt lat="46.85306" lon="8.48805">
        <ele>2533</ele>
        <time>2021-08-12T10:09:28.496Z</time>
      </trkpt>
      <trkpt lat="46.85305" lon="8.48805">
        <ele>2532</ele>
        <time>2021-08-12T10:09:29.496Z</time>
      </trkpt>
      <trkpt lat="46.85304" lon="8.48805">
        <ele>2532</ele>
        <time>2021-08-12T10:09:30.496Z</time>
      </trkpt>
      <trkpt lat="46.85303" lon="8.48805">
        <ele>2531</ele>
        <time>2021-08-12T10:09:31.497Z</time>
      </trkpt>
      <trkpt lat="46.85303" lon="8.48805">
        <ele>2530</ele>
        <time>2021-08-12T10:09:32.496Z</time>
      </trkpt>
      <trkpt lat="46.85302" lon="8.48805">
        <ele>2530</ele>
        <time>2021-08-12T10:09:33.497Z</time>
      </trkpt>
      <trkpt lat="46.85301" lon="8.48805">
        <ele>2530</ele>
        <time>2021-08-12T10:09:34.496Z</time>
      </trkpt>
      <trkpt lat="46.85301" lon="8.48805">
        <ele>2530</ele>
        <time>2021-08-12T10:09:35.497Z</time>
      </trkpt>
      <trkpt lat="46.853" lon="8.48805">
        <ele>2529</ele>
        <time>2021-08-12T10:09:36.496Z</time>
      </trkpt>
      <trkpt lat="46.853" lon="8.48805">
        <ele>2529</ele>
        <time>2021-08-12T10:09:37.496Z</time>
      </trkpt>
      <trkpt lat="46.853" lon="8.48805">
        <ele>2529</ele>
        <time>2021-08-12T10:09:38.497Z</time>
      </trkpt>
      <trkpt lat="46.853" lon="8.48805">
        <ele>2529</ele>
        <time>2021-08-12T10:09:39.497Z</time>
      </trkpt>
      <trkpt lat="46.853" lon="8.48804">
        <ele>2529</ele>
        <time>2021-08-12T10:09:40.496Z</time>
      </trkpt>
      <trkpt lat="46.85301" lon="8.48804">
        <ele>2529</ele>
        <time>2021-08-12T10:09:41.497Z</time>
      </trkpt>
      <trkpt lat="46.85302" lon="8.48804">
        <ele>2529</ele>
        <time>2021-08-12T10:09:42.496Z</time>
      </trkpt>
      <trkpt lat="46.85302" lon="8.48803">
        <ele>2528</ele>
        <time>2021-08-12T10:09:43.496Z</time>
      </trkpt>
      <trkpt lat="46.85302" lon="8.48802">
        <ele>2528</ele>
        <time>2021-08-12T10:09:44.496Z</time>
      </trkpt>
      <trkpt lat="46.85303" lon="8.48802">
        <ele>2528</ele>
        <time>2021-08-12T10:09:45.496Z</time>
      </trkpt>
      <trkpt lat="46.85303" lon="8.48801">
        <ele>2527</ele>
        <time>2021-08-12T10:09:46.496Z</time>
      </trkpt>
      <trkpt lat="46.85304" lon="8.48801">
        <ele>2527</ele>
        <time>2021-08-12T10:09:47.496Z</time>
      </trkpt>
      <trkpt lat="46.85305" lon="8.488">
        <ele>2527</ele>
        <time>2021-08-12T10:09:48.496Z</time>
      </trkpt>
      <trkpt lat="46.85304" lon="8.48798">
        <ele>2527</ele>
        <time>2021-08-12T10:09:49.496Z</time>
      </trkpt>
      <trkpt lat="46.85302" lon="8.48797">
        <ele>2527</ele>
        <time>2021-08-12T10:09:50.496Z</time>
      </trkpt>
      <trkpt lat="46.85301" lon="8.48795">
        <ele>2527</ele>
        <time>2021-08-12T10:09:51.497Z</time>
      </trkpt>
      <trkpt lat="46.85301" lon="8.48795">
        <ele>2527</ele>
        <time>2021-08-12T10:09:52.497Z</time>
      </trkpt>
      <trkpt lat="46.853" lon="8.48796">
        <ele>2527</ele>
        <time>2021-08-12T10:09:53.496Z</time>
      </trkpt>
      <trkpt lat="46.85299" lon="8.48796">
        <ele>2526</ele>
        <time>2021-08-12T10:09:54.496Z</time>
      </trkpt>
      <trkpt lat="46.85299" lon="8.48796">
        <ele>2526</ele>
        <time>2021-08-12T10:09:55.496Z</time>
      </trkpt>
      <trkpt lat="46.85299" lon="8.48796">
        <ele>2525</ele>
        <time>2021-08-12T10:09:56.496Z</time>
      </trkpt>
      <trkpt lat="46.85299" lon="8.48796">
        <ele>2525</ele>
        <time>2021-08-12T10:09:57.496Z</time>
      </trkpt>
      <trkpt lat="46.853" lon="8.48795">
        <ele>2524</ele>
        <time>2021-08-12T10:09:58.496Z</time>
      </trkpt>
      <trkpt lat="46.85301" lon="8.48795">
        <ele>2523</ele>
        <time>2021-08-12T10:09:59.496Z</time>
      </trkpt>
      <trkpt lat="46.85301" lon="8.48794">
        <ele>2523</ele>
        <time>2021-08-12T10:10:00.496Z</time>
      </trkpt>
      <trkpt lat="46.85301" lon="8.48794">
        <ele>2522</ele>
        <time>2021-08-12T10:10:01.496Z</time>
      </trkpt>
      <trkpt lat="46.85302" lon="8.48793">
        <ele>2521</ele>
        <time>2021-08-12T10:10:02.497Z</time>
      </trkpt>
      <trkpt lat="46.85302" lon="8.48793">
        <ele>2521</ele>
        <time>2021-08-12T10:10:03.497Z</time>
      </trkpt>
      <trkpt lat="46.85302" lon="8.48792">
        <ele>2521</ele>
        <time>2021-08-12T10:10:04.496Z</time>
      </trkpt>
      <trkpt lat="46.85302" lon="8.48791">
        <ele>2520</ele>
        <time>2021-08-12T10:10:05.496Z</time>
      </trkpt>
      <trkpt lat="46.85302" lon="8.4879">
        <ele>2520</ele>
        <time>2021-08-12T10:10:06.496Z</time>
      </trkpt>
      <trkpt lat="46.85302" lon="8.4879">
        <ele>2520</ele>
        <time>2021-08-12T10:10:07.496Z</time>
      </trkpt>
      <trkpt lat="46.85301" lon="8.48789">
        <ele>2521</ele>
        <time>2021-08-12T10:10:08.497Z</time>
      </trkpt>
      <trkpt lat="46.85301" lon="8.48788">
        <ele>2521</ele>
        <time>2021-08-12T10:10:09.496Z</time>
      </trkpt>
      <trkpt lat="46.85301" lon="8.48788">
        <ele>2521</ele>
        <time>2021-08-12T10:10:10.497Z</time>
      </trkpt>
      <trkpt lat="46.85301" lon="8.48788">
        <ele>2520</ele>
        <time>2021-08-12T10:10:11.496Z</time>
      </trkpt>
      <trkpt lat="46.85301" lon="8.48788">
        <ele>2520</ele>
        <time>2021-08-12T10:10:12.496Z</time>
      </trkpt>
      <trkpt lat="46.85302" lon="8.48787">
        <ele>2520</ele>
        <time>2021-08-12T10:10:13.496Z</time>
      </trkpt>
      <trkpt lat="46.85302" lon="8.48786">
        <ele>2521</ele>
        <time>2021-08-12T10:10:14.497Z</time>
      </trkpt>
      <trkpt lat="46.85303" lon="8.48787">
        <ele>2521</ele>
        <time>2021-08-12T10:10:15.496Z</time>
      </trkpt>
      <trkpt lat="46.85303" lon="8.48786">
        <ele>2521</ele>
        <time>2021-08-12T10:10:16.496Z</time>
      </trkpt>
      <trkpt lat="46.85304" lon="8.48785">
        <ele>2521</ele>
        <time>2021-08-12T10:10:17.496Z</time>
      </trkpt>
      <trkpt lat="46.85304" lon="8.48785">
        <ele>2521</ele>
        <time>2021-08-12T10:10:18.496Z</time>
      </trkpt>
      <trkpt lat="46.85304" lon="8.48784">
        <ele>2521</ele>
        <time>2021-08-12T10:10:19.496Z</time>
      </trkpt>
      <trkpt lat="46.85303" lon="8.48783">
        <ele>2521</ele>
        <time>2021-08-12T10:10:20.496Z</time>
      </trkpt>
      <trkpt lat="46.85303" lon="8.48782">
        <ele>2521</ele>
        <time>2021-08-12T10:10:21.496Z</time>
      </trkpt>
      <trkpt lat="46.85304" lon="8.48781">
        <ele>2521</ele>
        <time>2021-08-12T10:10:22.496Z</time>
      </trkpt>
      <trkpt lat="46.85304" lon="8.48781">
        <ele>2521</ele>
        <time>2021-08-12T10:10:23.496Z</time>
      </trkpt>
      <trkpt lat="46.85304" lon="8.4878">
        <ele>2521</ele>
        <time>2021-08-12T10:10:24.497Z</time>
      </trkpt>
      <trkpt lat="46.85304" lon="8.4878">
        <ele>2521</ele>
        <time>2021-08-12T10:10:25.496Z</time>
      </trkpt>
      <trkpt lat="46.85304" lon="8.48779">
        <ele>2520</ele>
        <time>2021-08-12T10:10:26.496Z</time>
      </trkpt>
      <trkpt lat="46.85305" lon="8.48779">
        <ele>2520</ele>
        <time>2021-08-12T10:10:27.496Z</time>
      </trkpt>
      <trkpt lat="46.85306" lon="8.48779">
        <ele>2520</ele>
        <time>2021-08-12T10:10:28.496Z</time>
      </trkpt>
      <trkpt lat="46.85307" lon="8.48778">
        <ele>2520</ele>
        <time>2021-08-12T10:10:29.496Z</time>
      </trkpt>
      <trkpt lat="46.85307" lon="8.48778">
        <ele>2520</ele>
        <time>2021-08-12T10:10:30.496Z</time>
      </trkpt>
      <trkpt lat="46.85307" lon="8.48777">
        <ele>2520</ele>
        <time>2021-08-12T10:10:31.496Z</time>
      </trkpt>
      <trkpt lat="46.85306" lon="8.48776">
        <ele>2520</ele>
        <time>2021-08-12T10:10:32.496Z</time>
      </trkpt>
      <trkpt lat="46.85305" lon="8.48775">
        <ele>2519</ele>
        <time>2021-08-12T10:10:33.496Z</time>
      </trkpt>
      <trkpt lat="46.85304" lon="8.48774">
        <ele>2519</ele>
        <time>2021-08-12T10:10:34.497Z</time>
      </trkpt>
      <trkpt lat="46.85303" lon="8.48773">
        <ele>2518</ele>
        <time>2021-08-12T10:10:35.496Z</time>
      </trkpt>
      <trkpt lat="46.85302" lon="8.48773">
        <ele>2518</ele>
        <time>2021-08-12T10:10:36.497Z</time>
      </trkpt>
      <trkpt lat="46.85301" lon="8.48772">
        <ele>2518</ele>
        <time>2021-08-12T10:10:37.496Z</time>
      </trkpt>
      <trkpt lat="46.853" lon="8.48772">
        <ele>2518</ele>
        <time>2021-08-12T10:10:38.496Z</time>
      </trkpt>
      <trkpt lat="46.853" lon="8.48772">
        <ele>2518</ele>
        <time>2021-08-12T10:10:39.496Z</time>
      </trkpt>
      <trkpt lat="46.853" lon="8.48772">
        <ele>2517</ele>
        <time>2021-08-12T10:10:40.497Z</time>
      </trkpt>
      <trkpt lat="46.853" lon="8.48771">
        <ele>2517</ele>
        <time>2021-08-12T10:10:41.496Z</time>
      </trkpt>
      <trkpt lat="46.853" lon="8.48771">
        <ele>2517</ele>
        <time>2021-08-12T10:10:42.496Z</time>
      </trkpt>
      <trkpt lat="46.85301" lon="8.48771">
        <ele>2516</ele>
        <time>2021-08-12T10:10:43.497Z</time>
      </trkpt>
      <trkpt lat="46.85302" lon="8.4877">
        <ele>2516</ele>
        <time>2021-08-12T10:10:44.496Z</time>
      </trkpt>
      <trkpt lat="46.85302" lon="8.4877">
        <ele>2515</ele>
        <time>2021-08-12T10:10:45.496Z</time>
      </trkpt>
      <trkpt lat="46.85302" lon="8.48769">
        <ele>2514</ele>
        <time>2021-08-12T10:10:46.496Z</time>
      </trkpt>
      <trkpt lat="46.85302" lon="8.48768">
        <ele>2514</ele>
        <time>2021-08-12T10:10:47.496Z</time>
      </trkpt>
      <trkpt lat="46.85303" lon="8.48768">
        <ele>2514</ele>
        <time>2021-08-12T10:10:48.496Z</time>
      </trkpt>
      <trkpt lat="46.85303" lon="8.48767">
        <ele>2514</ele>
        <time>2021-08-12T10:10:49.496Z</time>
      </trkpt>
      <trkpt lat="46.85303" lon="8.48767">
        <ele>2514</ele>
        <time>2021-08-12T10:10:50.496Z</time>
      </trkpt>
      <trkpt lat="46.85303" lon="8.48766">
        <ele>2513</ele>
        <time>2021-08-12T10:10:51.497Z</time>
      </trkpt>
      <trkpt lat="46.85303" lon="8.48765">
        <ele>2513</ele>
        <time>2021-08-12T10:10:52.496Z</time>
      </trkpt>
      <trkpt lat="46.85304" lon="8.48764">
        <ele>2513</ele>
        <time>2021-08-12T10:10:53.496Z</time>
      </trkpt>
      <trkpt lat="46.85304" lon="8.48763">
        <ele>2513</ele>
        <time>2021-08-12T10:10:54.496Z</time>
      </trkpt>
      <trkpt lat="46.85304" lon="8.48762">
        <ele>2512</ele>
        <time>2021-08-12T10:10:55.496Z</time>
      </trkpt>
      <trkpt lat="46.85304" lon="8.48761">
        <ele>2512</ele>
        <time>2021-08-12T10:10:56.496Z</time>
      </trkpt>
      <trkpt lat="46.85303" lon="8.48761">
        <ele>2512</ele>
        <time>2021-08-12T10:10:57.497Z</time>
      </trkpt>
      <trkpt lat="46.85304" lon="8.4876">
        <ele>2512</ele>
        <time>2021-08-12T10:10:58.496Z</time>
      </trkpt>
      <trkpt lat="46.85304" lon="8.48759">
        <ele>2513</ele>
        <time>2021-08-12T10:10:59.497Z</time>
      </trkpt>
      <trkpt lat="46.85304" lon="8.48757">
        <ele>2513</ele>
        <time>2021-08-12T10:11:00.496Z</time>
      </trkpt>
      <trkpt lat="46.85304" lon="8.48756">
        <ele>2513</ele>
        <time>2021-08-12T10:11:01.496Z</time>
      </trkpt>
      <trkpt lat="46.85305" lon="8.48755">
        <ele>2513</ele>
        <time>2021-08-12T10:11:02.496Z</time>
      </trkpt>
      <trkpt lat="46.85304" lon="8.48754">
        <ele>2513</ele>
        <time>2021-08-12T10:11:03.496Z</time>
      </trkpt>
      <trkpt lat="46.85303" lon="8.48753">
        <ele>2513</ele>
        <time>2021-08-12T10:11:04.496Z</time>
      </trkpt>
      <trkpt lat="46.85303" lon="8.48752">
        <ele>2513</ele>
        <time>2021-08-12T10:11:05.496Z</time>
      </trkpt>
      <trkpt lat="46.85302" lon="8.4875">
        <ele>2513</ele>
        <time>2021-08-12T10:11:06.496Z</time>
      </trkpt>
      <trkpt lat="46.85302" lon="8.4875">
        <ele>2512</ele>
        <time>2021-08-12T10:11:07.497Z</time>
      </trkpt>
      <trkpt lat="46.85302" lon="8.48748">
        <ele>2512</ele>
        <time>2021-08-12T10:11:08.496Z</time>
      </trkpt>
      <trkpt lat="46.85301" lon="8.48747">
        <ele>2512</ele>
        <time>2021-08-12T10:11:09.496Z</time>
      </trkpt>
      <trkpt lat="46.85301" lon="8.48747">
        <ele>2512</ele>
        <time>2021-08-12T10:11:10.497Z</time>
      </trkpt>
      <trkpt lat="46.85301" lon="8.48746">
        <ele>2512</ele>
        <time>2021-08-12T10:11:11.496Z</time>
      </trkpt>
      <trkpt lat="46.853" lon="8.48746">
        <ele>2512</ele>
        <time>2021-08-12T10:11:12.496Z</time>
      </trkpt>
      <trkpt lat="46.85301" lon="8.48745">
        <ele>2511</ele>
        <time>2021-08-12T10:11:13.496Z</time>
      </trkpt>
      <trkpt lat="46.85301" lon="8.48745">
        <ele>2511</ele>
        <time>2021-08-12T10:11:14.496Z</time>
      </trkpt>
      <trkpt lat="46.85302" lon="8.48744">
        <ele>2511</ele>
        <time>2021-08-12T10:11:15.496Z</time>
      </trkpt>
      <trkpt lat="46.85302" lon="8.48744">
        <ele>2511</ele>
        <time>2021-08-12T10:11:16.496Z</time>
      </trkpt>
      <trkpt lat="46.85302" lon="8.48743">
        <ele>2511</ele>
        <time>2021-08-12T10:11:17.496Z</time>
      </trkpt>
      <trkpt lat="46.85302" lon="8.48742">
        <ele>2511</ele>
        <time>2021-08-12T10:11:18.496Z</time>
      </trkpt>
      <trkpt lat="46.85302" lon="8.48742">
        <ele>2511</ele>
        <time>2021-08-12T10:11:19.496Z</time>
      </trkpt>
      <trkpt lat="46.85302" lon="8.48741">
        <ele>2511</ele>
        <time>2021-08-12T10:11:20.496Z</time>
      </trkpt>
      <trkpt lat="46.85303" lon="8.48741">
        <ele>2511</ele>
        <time>2021-08-12T10:11:21.496Z</time>
      </trkpt>
      <trkpt lat="46.85303" lon="8.48741">
        <ele>2511</ele>
        <time>2021-08-12T10:11:22.497Z</time>
      </trkpt>
      <trkpt lat="46.85302" lon="8.4874">
        <ele>2511</ele>
        <time>2021-08-12T10:11:23.496Z</time>
      </trkpt>
      <trkpt lat="46.85302" lon="8.4874">
        <ele>2511</ele>
        <time>2021-08-12T10:11:24.496Z</time>
      </trkpt>
      <trkpt lat="46.85302" lon="8.48739">
        <ele>2512</ele>
        <time>2021-08-12T10:11:25.496Z</time>
      </trkpt>
      <trkpt lat="46.85298" lon="8.48733">
        <ele>2516</ele>
        <time>2021-08-12T10:11:26.497Z</time>
      </trkpt>
      <trkpt lat="46.85297" lon="8.48733">
        <ele>2516</ele>
        <time>2021-08-12T10:11:27.496Z</time>
      </trkpt>
      <trkpt lat="46.85297" lon="8.48732">
        <ele>2517</ele>
        <time>2021-08-12T10:11:28.497Z</time>
      </trkpt>
      <trkpt lat="46.85298" lon="8.48732">
        <ele>2516</ele>
        <time>2021-08-12T10:11:29.498Z</time>
      </trkpt>
      <trkpt lat="46.85297" lon="8.48731">
        <ele>2515</ele>
        <time>2021-08-12T10:11:30.497Z</time>
      </trkpt>
      <trkpt lat="46.85297" lon="8.48732">
        <ele>2515</ele>
        <time>2021-08-12T10:11:31.497Z</time>
      </trkpt>
      <trkpt lat="46.85296" lon="8.48732">
        <ele>2514</ele>
        <time>2021-08-12T10:11:32.498Z</time>
      </trkpt>
      <trkpt lat="46.85296" lon="8.48733">
        <ele>2513</ele>
        <time>2021-08-12T10:11:33.498Z</time>
      </trkpt>
      <trkpt lat="46.85297" lon="8.48732">
        <ele>2512</ele>
        <time>2021-08-12T10:11:34.498Z</time>
      </trkpt>
      <trkpt lat="46.85297" lon="8.48731">
        <ele>2512</ele>
        <time>2021-08-12T10:11:35.497Z</time>
      </trkpt>
      <trkpt lat="46.85298" lon="8.48731">
        <ele>2511</ele>
        <time>2021-08-12T10:11:36.498Z</time>
      </trkpt>
      <trkpt lat="46.85298" lon="8.48731">
        <ele>2511</ele>
        <time>2021-08-12T10:11:37.497Z</time>
      </trkpt>
      <trkpt lat="46.85298" lon="8.4873">
        <ele>2510</ele>
        <time>2021-08-12T10:11:38.498Z</time>
      </trkpt>
      <trkpt lat="46.85298" lon="8.48728">
        <ele>2510</ele>
        <time>2021-08-12T10:11:39.497Z</time>
      </trkpt>
      <trkpt lat="46.85298" lon="8.48728">
        <ele>2510</ele>
        <time>2021-08-12T10:11:40.498Z</time>
      </trkpt>
      <trkpt lat="46.85298" lon="8.48727">
        <ele>2510</ele>
        <time>2021-08-12T10:11:41.498Z</time>
      </trkpt>
      <trkpt lat="46.85298" lon="8.48726">
        <ele>2509</ele>
        <time>2021-08-12T10:11:42.498Z</time>
      </trkpt>
      <trkpt lat="46.85298" lon="8.48725">
        <ele>2509</ele>
        <time>2021-08-12T10:11:43.497Z</time>
      </trkpt>
      <trkpt lat="46.85298" lon="8.48725">
        <ele>2508</ele>
        <time>2021-08-12T10:11:44.498Z</time>
      </trkpt>
      <trkpt lat="46.85299" lon="8.48725">
        <ele>2507</ele>
        <time>2021-08-12T10:11:45.497Z</time>
      </trkpt>
      <trkpt lat="46.85299" lon="8.48724">
        <ele>2506</ele>
        <time>2021-08-12T10:11:46.498Z</time>
      </trkpt>
      <trkpt lat="46.85299" lon="8.48724">
        <ele>2505</ele>
        <time>2021-08-12T10:11:47.498Z</time>
      </trkpt>
      <trkpt lat="46.85299" lon="8.48723">
        <ele>2504</ele>
        <time>2021-08-12T10:11:48.498Z</time>
      </trkpt>
      <trkpt lat="46.85299" lon="8.48722">
        <ele>2504</ele>
        <time>2021-08-12T10:11:49.498Z</time>
      </trkpt>
      <trkpt lat="46.85299" lon="8.48721">
        <ele>2504</ele>
        <time>2021-08-12T10:11:50.498Z</time>
      </trkpt>
      <trkpt lat="46.85299" lon="8.4872">
        <ele>2504</ele>
        <time>2021-08-12T10:11:51.498Z</time>
      </trkpt>
      <trkpt lat="46.85298" lon="8.48719">
        <ele>2504</ele>
        <time>2021-08-12T10:11:52.498Z</time>
      </trkpt>
      <trkpt lat="46.85297" lon="8.48718">
        <ele>2504</ele>
        <time>2021-08-12T10:11:53.498Z</time>
      </trkpt>
      <trkpt lat="46.85297" lon="8.48718">
        <ele>2505</ele>
        <time>2021-08-12T10:11:54.497Z</time>
      </trkpt>
      <trkpt lat="46.85297" lon="8.48718">
        <ele>2505</ele>
        <time>2021-08-12T10:11:55.498Z</time>
      </trkpt>
      <trkpt lat="46.85297" lon="8.48718">
        <ele>2505</ele>
        <time>2021-08-12T10:11:56.498Z</time>
      </trkpt>
      <trkpt lat="46.85297" lon="8.48717">
        <ele>2505</ele>
        <time>2021-08-12T10:11:57.498Z</time>
      </trkpt>
      <trkpt lat="46.85298" lon="8.48718">
        <ele>2505</ele>
        <time>2021-08-12T10:11:58.498Z</time>
      </trkpt>
      <trkpt lat="46.85298" lon="8.48718">
        <ele>2505</ele>
        <time>2021-08-12T10:11:59.498Z</time>
      </trkpt>
      <trkpt lat="46.85299" lon="8.48717">
        <ele>2505</ele>
        <time>2021-08-12T10:12:00.498Z</time>
      </trkpt>
      <trkpt lat="46.85299" lon="8.48717">
        <ele>2505</ele>
        <time>2021-08-12T10:12:01.498Z</time>
      </trkpt>
      <trkpt lat="46.85299" lon="8.48716">
        <ele>2505</ele>
        <time>2021-08-12T10:12:02.497Z</time>
      </trkpt>
      <trkpt lat="46.85299" lon="8.48716">
        <ele>2505</ele>
        <time>2021-08-12T10:12:03.498Z</time>
      </trkpt>
      <trkpt lat="46.85299" lon="8.48715">
        <ele>2504</ele>
        <time>2021-08-12T10:12:04.498Z</time>
      </trkpt>
      <trkpt lat="46.85298" lon="8.48715">
        <ele>2503</ele>
        <time>2021-08-12T10:12:05.498Z</time>
      </trkpt>
      <trkpt lat="46.85298" lon="8.48713">
        <ele>2499</ele>
        <time>2021-08-12T10:12:06.499Z</time>
      </trkpt>
      <trkpt lat="46.85297" lon="8.48712">
        <ele>2499</ele>
        <time>2021-08-12T10:12:07.500Z</time>
      </trkpt>
      <trkpt lat="46.85297" lon="8.48712">
        <ele>2500</ele>
        <time>2021-08-12T10:12:08.499Z</time>
      </trkpt>
      <trkpt lat="46.85297" lon="8.48712">
        <ele>2500</ele>
        <time>2021-08-12T10:12:09.500Z</time>
      </trkpt>
      <trkpt lat="46.85297" lon="8.48712">
        <ele>2499</ele>
        <time>2021-08-12T10:12:10.500Z</time>
      </trkpt>
      <trkpt lat="46.85296" lon="8.48712">
        <ele>2499</ele>
        <time>2021-08-12T10:12:11.500Z</time>
      </trkpt>
      <trkpt lat="46.85296" lon="8.48711">
        <ele>2498</ele>
        <time>2021-08-12T10:12:12.500Z</time>
      </trkpt>
      <trkpt lat="46.85296" lon="8.48711">
        <ele>2498</ele>
        <time>2021-08-12T10:12:13.500Z</time>
      </trkpt>
      <trkpt lat="46.85296" lon="8.4871">
        <ele>2497</ele>
        <time>2021-08-12T10:12:14.499Z</time>
      </trkpt>
      <trkpt lat="46.85296" lon="8.4871">
        <ele>2497</ele>
        <time>2021-08-12T10:12:15.499Z</time>
      </trkpt>
      <trkpt lat="46.85296" lon="8.48709">
        <ele>2497</ele>
        <time>2021-08-12T10:12:16.499Z</time>
      </trkpt>
      <trkpt lat="46.85295" lon="8.48708">
        <ele>2497</ele>
        <time>2021-08-12T10:12:17.500Z</time>
      </trkpt>
      <trkpt lat="46.85295" lon="8.48707">
        <ele>2497</ele>
        <time>2021-08-12T10:12:18.499Z</time>
      </trkpt>
      <trkpt lat="46.85294" lon="8.48706">
        <ele>2498</ele>
        <time>2021-08-12T10:12:19.500Z</time>
      </trkpt>
      <trkpt lat="46.85294" lon="8.48705">
        <ele>2498</ele>
        <time>2021-08-12T10:12:20.500Z</time>
      </trkpt>
      <trkpt lat="46.85294" lon="8.48705">
        <ele>2498</ele>
        <time>2021-08-12T10:12:21.500Z</time>
      </trkpt>
      <trkpt lat="46.85295" lon="8.48705">
        <ele>2498</ele>
        <time>2021-08-12T10:12:22.500Z</time>
      </trkpt>
      <trkpt lat="46.85296" lon="8.48706">
        <ele>2498</ele>
        <time>2021-08-12T10:12:23.500Z</time>
      </trkpt>
      <trkpt lat="46.85296" lon="8.48705">
        <ele>2498</ele>
        <time>2021-08-12T10:12:24.500Z</time>
      </trkpt>
      <trkpt lat="46.85296" lon="8.48705">
        <ele>2498</ele>
        <time>2021-08-12T10:12:25.500Z</time>
      </trkpt>
      <trkpt lat="46.85295" lon="8.48704">
        <ele>2498</ele>
        <time>2021-08-12T10:12:26.499Z</time>
      </trkpt>
      <trkpt lat="46.85294" lon="8.48703">
        <ele>2498</ele>
        <time>2021-08-12T10:12:27.500Z</time>
      </trkpt>
      <trkpt lat="46.85293" lon="8.48702">
        <ele>2498</ele>
        <time>2021-08-12T10:12:28.500Z</time>
      </trkpt>
      <trkpt lat="46.85293" lon="8.48702">
        <ele>2497</ele>
        <time>2021-08-12T10:12:29.499Z</time>
      </trkpt>
      <trkpt lat="46.85292" lon="8.48702">
        <ele>2497</ele>
        <time>2021-08-12T10:12:30.500Z</time>
      </trkpt>
      <trkpt lat="46.85292" lon="8.48702">
        <ele>2497</ele>
        <time>2021-08-12T10:12:31.500Z</time>
      </trkpt>
      <trkpt lat="46.85292" lon="8.48701">
        <ele>2497</ele>
        <time>2021-08-12T10:12:32.500Z</time>
      </trkpt>
      <trkpt lat="46.85292" lon="8.487">
        <ele>2496</ele>
        <time>2021-08-12T10:12:33.500Z</time>
      </trkpt>
      <trkpt lat="46.85292" lon="8.487">
        <ele>2496</ele>
        <time>2021-08-12T10:12:34.499Z</time>
      </trkpt>
      <trkpt lat="46.85292" lon="8.48699">
        <ele>2496</ele>
        <time>2021-08-12T10:12:35.500Z</time>
      </trkpt>
      <trkpt lat="46.85292" lon="8.48697">
        <ele>2496</ele>
        <time>2021-08-12T10:12:36.500Z</time>
      </trkpt>
      <trkpt lat="46.85293" lon="8.48697">
        <ele>2496</ele>
        <time>2021-08-12T10:12:37.500Z</time>
      </trkpt>
      <trkpt lat="46.85293" lon="8.48696">
        <ele>2496</ele>
        <time>2021-08-12T10:12:38.499Z</time>
      </trkpt>
      <trkpt lat="46.85293" lon="8.48696">
        <ele>2495</ele>
        <time>2021-08-12T10:12:39.500Z</time>
      </trkpt>
      <trkpt lat="46.85293" lon="8.48695">
        <ele>2495</ele>
        <time>2021-08-12T10:12:40.500Z</time>
      </trkpt>
      <trkpt lat="46.85293" lon="8.48695">
        <ele>2495</ele>
        <time>2021-08-12T10:12:41.500Z</time>
      </trkpt>
      <trkpt lat="46.85292" lon="8.48694">
        <ele>2495</ele>
        <time>2021-08-12T10:12:42.500Z</time>
      </trkpt>
      <trkpt lat="46.85291" lon="8.48693">
        <ele>2495</ele>
        <time>2021-08-12T10:12:43.499Z</time>
      </trkpt>
      <trkpt lat="46.85291" lon="8.48693">
        <ele>2495</ele>
        <time>2021-08-12T10:12:44.500Z</time>
      </trkpt>
      <trkpt lat="46.85291" lon="8.48692">
        <ele>2495</ele>
        <time>2021-08-12T10:12:45.500Z</time>
      </trkpt>
      <trkpt lat="46.85289" lon="8.48691">
        <ele>2494</ele>
        <time>2021-08-12T10:12:46.499Z</time>
      </trkpt>
      <trkpt lat="46.85289" lon="8.4869">
        <ele>2494</ele>
        <time>2021-08-12T10:12:47.500Z</time>
      </trkpt>
      <trkpt lat="46.85289" lon="8.4869">
        <ele>2493</ele>
        <time>2021-08-12T10:12:48.499Z</time>
      </trkpt>
      <trkpt lat="46.85289" lon="8.48689">
        <ele>2493</ele>
        <time>2021-08-12T10:12:49.500Z</time>
      </trkpt>
      <trkpt lat="46.8529" lon="8.48688">
        <ele>2492</ele>
        <time>2021-08-12T10:12:50.499Z</time>
      </trkpt>
      <trkpt lat="46.8529" lon="8.48686">
        <ele>2492</ele>
        <time>2021-08-12T10:12:51.500Z</time>
      </trkpt>
      <trkpt lat="46.8529" lon="8.48686">
        <ele>2492</ele>
        <time>2021-08-12T10:12:52.499Z</time>
      </trkpt>
      <trkpt lat="46.8529" lon="8.48685">
        <ele>2492</ele>
        <time>2021-08-12T10:12:53.500Z</time>
      </trkpt>
      <trkpt lat="46.85289" lon="8.48684">
        <ele>2492</ele>
        <time>2021-08-12T10:12:54.499Z</time>
      </trkpt>
      <trkpt lat="46.85289" lon="8.48684">
        <ele>2492</ele>
        <time>2021-08-12T10:12:55.499Z</time>
      </trkpt>
      <trkpt lat="46.85289" lon="8.48683">
        <ele>2492</ele>
        <time>2021-08-12T10:12:56.499Z</time>
      </trkpt>
      <trkpt lat="46.85289" lon="8.48683">
        <ele>2492</ele>
        <time>2021-08-12T10:12:57.500Z</time>
      </trkpt>
      <trkpt lat="46.85288" lon="8.4868">
        <ele>2494</ele>
        <time>2021-08-12T10:12:58.500Z</time>
      </trkpt>
      <trkpt lat="46.85289" lon="8.4868">
        <ele>2494</ele>
        <time>2021-08-12T10:12:59.501Z</time>
      </trkpt>
      <trkpt lat="46.8529" lon="8.48678">
        <ele>2494</ele>
        <time>2021-08-12T10:13:00.501Z</time>
      </trkpt>
      <trkpt lat="46.85289" lon="8.48677">
        <ele>2493</ele>
        <time>2021-08-12T10:13:01.501Z</time>
      </trkpt>
      <trkpt lat="46.85289" lon="8.48676">
        <ele>2493</ele>
        <time>2021-08-12T10:13:02.500Z</time>
      </trkpt>
      <trkpt lat="46.85289" lon="8.48676">
        <ele>2493</ele>
        <time>2021-08-12T10:13:03.501Z</time>
      </trkpt>
      <trkpt lat="46.85289" lon="8.48676">
        <ele>2492</ele>
        <time>2021-08-12T10:13:04.501Z</time>
      </trkpt>
      <trkpt lat="46.85289" lon="8.48676">
        <ele>2492</ele>
        <time>2021-08-12T10:13:05.500Z</time>
      </trkpt>
      <trkpt lat="46.85289" lon="8.48675">
        <ele>2492</ele>
        <time>2021-08-12T10:13:06.501Z</time>
      </trkpt>
      <trkpt lat="46.85289" lon="8.48674">
        <ele>2492</ele>
        <time>2021-08-12T10:13:07.500Z</time>
      </trkpt>
      <trkpt lat="46.85288" lon="8.48673">
        <ele>2492</ele>
        <time>2021-08-12T10:13:08.501Z</time>
      </trkpt>
      <trkpt lat="46.85288" lon="8.48673">
        <ele>2492</ele>
        <time>2021-08-12T10:13:09.500Z</time>
      </trkpt>
      <trkpt lat="46.85287" lon="8.48673">
        <ele>2492</ele>
        <time>2021-08-12T10:13:10.500Z</time>
      </trkpt>
      <trkpt lat="46.85287" lon="8.48672">
        <ele>2491</ele>
        <time>2021-08-12T10:13:11.501Z</time>
      </trkpt>
      <trkpt lat="46.85286" lon="8.48672">
        <ele>2491</ele>
        <time>2021-08-12T10:13:12.501Z</time>
      </trkpt>
      <trkpt lat="46.85286" lon="8.48672">
        <ele>2490</ele>
        <time>2021-08-12T10:13:13.500Z</time>
      </trkpt>
      <trkpt lat="46.85286" lon="8.48671">
        <ele>2488</ele>
        <time>2021-08-12T10:13:14.501Z</time>
      </trkpt>
      <trkpt lat="46.85286" lon="8.48671">
        <ele>2487</ele>
        <time>2021-08-12T10:13:15.501Z</time>
      </trkpt>
      <trkpt lat="46.85286" lon="8.4867">
        <ele>2486</ele>
        <time>2021-08-12T10:13:16.501Z</time>
      </trkpt>
      <trkpt lat="46.85286" lon="8.48668">
        <ele>2486</ele>
        <time>2021-08-12T10:13:17.500Z</time>
      </trkpt>
      <trkpt lat="46.85286" lon="8.48667">
        <ele>2485</ele>
        <time>2021-08-12T10:13:18.500Z</time>
      </trkpt>
      <trkpt lat="46.85286" lon="8.48666">
        <ele>2485</ele>
        <time>2021-08-12T10:13:19.501Z</time>
      </trkpt>
      <trkpt lat="46.85286" lon="8.48665">
        <ele>2485</ele>
        <time>2021-08-12T10:13:20.501Z</time>
      </trkpt>
      <trkpt lat="46.85286" lon="8.48664">
        <ele>2484</ele>
        <time>2021-08-12T10:13:21.501Z</time>
      </trkpt>
      <trkpt lat="46.85285" lon="8.48663">
        <ele>2484</ele>
        <time>2021-08-12T10:13:22.501Z</time>
      </trkpt>
      <trkpt lat="46.85285" lon="8.48662">
        <ele>2483</ele>
        <time>2021-08-12T10:13:23.501Z</time>
      </trkpt>
      <trkpt lat="46.85285" lon="8.48661">
        <ele>2483</ele>
        <time>2021-08-12T10:13:24.500Z</time>
      </trkpt>
      <trkpt lat="46.85285" lon="8.4866">
        <ele>2483</ele>
        <time>2021-08-12T10:13:25.501Z</time>
      </trkpt>
      <trkpt lat="46.85285" lon="8.48659">
        <ele>2483</ele>
        <time>2021-08-12T10:13:26.501Z</time>
      </trkpt>
      <trkpt lat="46.85285" lon="8.48658">
        <ele>2483</ele>
        <time>2021-08-12T10:13:27.500Z</time>
      </trkpt>
      <trkpt lat="46.85285" lon="8.48657">
        <ele>2483</ele>
        <time>2021-08-12T10:13:28.500Z</time>
      </trkpt>
      <trkpt lat="46.85284" lon="8.48656">
        <ele>2484</ele>
        <time>2021-08-12T10:13:29.501Z</time>
      </trkpt>
      <trkpt lat="46.85284" lon="8.48655">
        <ele>2484</ele>
        <time>2021-08-12T10:13:30.501Z</time>
      </trkpt>
      <trkpt lat="46.85284" lon="8.48654">
        <ele>2484</ele>
        <time>2021-08-12T10:13:31.501Z</time>
      </trkpt>
      <trkpt lat="46.85283" lon="8.48653">
        <ele>2484</ele>
        <time>2021-08-12T10:13:32.501Z</time>
      </trkpt>
      <trkpt lat="46.85283" lon="8.48652">
        <ele>2484</ele>
        <time>2021-08-12T10:13:33.500Z</time>
      </trkpt>
      <trkpt lat="46.85283" lon="8.48651">
        <ele>2484</ele>
        <time>2021-08-12T10:13:34.501Z</time>
      </trkpt>
      <trkpt lat="46.85283" lon="8.4865">
        <ele>2484</ele>
        <time>2021-08-12T10:13:35.500Z</time>
      </trkpt>
      <trkpt lat="46.85282" lon="8.4865">
        <ele>2484</ele>
        <time>2021-08-12T10:13:36.501Z</time>
      </trkpt>
      <trkpt lat="46.85282" lon="8.48649">
        <ele>2484</ele>
        <time>2021-08-12T10:13:37.501Z</time>
      </trkpt>
      <trkpt lat="46.85281" lon="8.48649">
        <ele>2484</ele>
        <time>2021-08-12T10:13:38.501Z</time>
      </trkpt>
      <trkpt lat="46.85281" lon="8.48648">
        <ele>2484</ele>
        <time>2021-08-12T10:13:39.500Z</time>
      </trkpt>
      <trkpt lat="46.85281" lon="8.48648">
        <ele>2484</ele>
        <time>2021-08-12T10:13:40.501Z</time>
      </trkpt>
      <trkpt lat="46.85281" lon="8.48648">
        <ele>2484</ele>
        <time>2021-08-12T10:13:41.501Z</time>
      </trkpt>
      <trkpt lat="46.85281" lon="8.48646">
        <ele>2484</ele>
        <time>2021-08-12T10:13:42.501Z</time>
      </trkpt>
      <trkpt lat="46.85281" lon="8.48646">
        <ele>2484</ele>
        <time>2021-08-12T10:13:43.502Z</time>
      </trkpt>
      <trkpt lat="46.85281" lon="8.48645">
        <ele>2485</ele>
        <time>2021-08-12T10:13:44.502Z</time>
      </trkpt>
      <trkpt lat="46.85282" lon="8.48644">
        <ele>2485</ele>
        <time>2021-08-12T10:13:45.501Z</time>
      </trkpt>
      <trkpt lat="46.85282" lon="8.48644">
        <ele>2485</ele>
        <time>2021-08-12T10:13:46.502Z</time>
      </trkpt>
      <trkpt lat="46.85282" lon="8.48642">
        <ele>2485</ele>
        <time>2021-08-12T10:13:47.502Z</time>
      </trkpt>
      <trkpt lat="46.85281" lon="8.48641">
        <ele>2485</ele>
        <time>2021-08-12T10:13:48.502Z</time>
      </trkpt>
      <trkpt lat="46.85281" lon="8.4864">
        <ele>2484</ele>
        <time>2021-08-12T10:13:49.502Z</time>
      </trkpt>
      <trkpt lat="46.8528" lon="8.4864">
        <ele>2484</ele>
        <time>2021-08-12T10:13:50.502Z</time>
      </trkpt>
      <trkpt lat="46.85279" lon="8.48639">
        <ele>2483</ele>
        <time>2021-08-12T10:13:51.501Z</time>
      </trkpt>
      <trkpt lat="46.85279" lon="8.48638">
        <ele>2483</ele>
        <time>2021-08-12T10:13:52.501Z</time>
      </trkpt>
      <trkpt lat="46.85278" lon="8.48638">
        <ele>2483</ele>
        <time>2021-08-12T10:13:53.501Z</time>
      </trkpt>
      <trkpt lat="46.85277" lon="8.48639">
        <ele>2483</ele>
        <time>2021-08-12T10:13:54.502Z</time>
      </trkpt>
      <trkpt lat="46.85277" lon="8.48639">
        <ele>2482</ele>
        <time>2021-08-12T10:13:55.501Z</time>
      </trkpt>
      <trkpt lat="46.85276" lon="8.48639">
        <ele>2482</ele>
        <time>2021-08-12T10:13:56.501Z</time>
      </trkpt>
      <trkpt lat="46.85276" lon="8.4864">
        <ele>2482</ele>
        <time>2021-08-12T10:13:57.502Z</time>
      </trkpt>
      <trkpt lat="46.85275" lon="8.4864">
        <ele>2482</ele>
        <time>2021-08-12T10:13:58.502Z</time>
      </trkpt>
      <trkpt lat="46.85274" lon="8.4864">
        <ele>2481</ele>
        <time>2021-08-12T10:13:59.501Z</time>
      </trkpt>
      <trkpt lat="46.85274" lon="8.4864">
        <ele>2481</ele>
        <time>2021-08-12T10:14:00.502Z</time>
      </trkpt>
      <trkpt lat="46.85274" lon="8.4864">
        <ele>2481</ele>
        <time>2021-08-12T10:14:01.502Z</time>
      </trkpt>
      <trkpt lat="46.85274" lon="8.48639">
        <ele>2480</ele>
        <time>2021-08-12T10:14:02.501Z</time>
      </trkpt>
      <trkpt lat="46.85273" lon="8.48639">
        <ele>2480</ele>
        <time>2021-08-12T10:14:03.501Z</time>
      </trkpt>
      <trkpt lat="46.85273" lon="8.48639">
        <ele>2479</ele>
        <time>2021-08-12T10:14:04.501Z</time>
      </trkpt>
      <trkpt lat="46.85272" lon="8.48639">
        <ele>2479</ele>
        <time>2021-08-12T10:14:05.502Z</time>
      </trkpt>
      <trkpt lat="46.85272" lon="8.48639">
        <ele>2479</ele>
        <time>2021-08-12T10:14:06.502Z</time>
      </trkpt>
      <trkpt lat="46.85272" lon="8.48639">
        <ele>2479</ele>
        <time>2021-08-12T10:14:07.502Z</time>
      </trkpt>
      <trkpt lat="46.85272" lon="8.48638">
        <ele>2478</ele>
        <time>2021-08-12T10:14:08.501Z</time>
      </trkpt>
      <trkpt lat="46.85272" lon="8.48638">
        <ele>2478</ele>
        <time>2021-08-12T10:14:09.501Z</time>
      </trkpt>
      <trkpt lat="46.85273" lon="8.48637">
        <ele>2475</ele>
        <time>2021-08-12T10:14:10.501Z</time>
      </trkpt>
      <trkpt lat="46.85273" lon="8.48637">
        <ele>2474</ele>
        <time>2021-08-12T10:14:11.502Z</time>
      </trkpt>
      <trkpt lat="46.85273" lon="8.48636">
        <ele>2473</ele>
        <time>2021-08-12T10:14:12.501Z</time>
      </trkpt>
      <trkpt lat="46.85273" lon="8.48634">
        <ele>2473</ele>
        <time>2021-08-12T10:14:13.502Z</time>
      </trkpt>
      <trkpt lat="46.85273" lon="8.48633">
        <ele>2472</ele>
        <time>2021-08-12T10:14:14.502Z</time>
      </trkpt>
      <trkpt lat="46.85272" lon="8.48632">
        <ele>2472</ele>
        <time>2021-08-12T10:14:15.502Z</time>
      </trkpt>
      <trkpt lat="46.85272" lon="8.48631">
        <ele>2472</ele>
        <time>2021-08-12T10:14:16.502Z</time>
      </trkpt>
      <trkpt lat="46.85271" lon="8.48631">
        <ele>2472</ele>
        <time>2021-08-12T10:14:17.501Z</time>
      </trkpt>
      <trkpt lat="46.85271" lon="8.48631">
        <ele>2472</ele>
        <time>2021-08-12T10:14:18.502Z</time>
      </trkpt>
      <trkpt lat="46.8527" lon="8.48631">
        <ele>2472</ele>
        <time>2021-08-12T10:14:19.501Z</time>
      </trkpt>
      <trkpt lat="46.85269" lon="8.4863">
        <ele>2472</ele>
        <time>2021-08-12T10:14:20.502Z</time>
      </trkpt>
      <trkpt lat="46.85269" lon="8.4863">
        <ele>2473</ele>
        <time>2021-08-12T10:14:21.501Z</time>
      </trkpt>
      <trkpt lat="46.85268" lon="8.48629">
        <ele>2473</ele>
        <time>2021-08-12T10:14:22.501Z</time>
      </trkpt>
      <trkpt lat="46.85267" lon="8.48628">
        <ele>2474</ele>
        <time>2021-08-12T10:14:23.501Z</time>
      </trkpt>
      <trkpt lat="46.85267" lon="8.48628">
        <ele>2474</ele>
        <time>2021-08-12T10:14:24.502Z</time>
      </trkpt>
      <trkpt lat="46.85266" lon="8.48629">
        <ele>2475</ele>
        <time>2021-08-12T10:14:25.502Z</time>
      </trkpt>
      <trkpt lat="46.85265" lon="8.48629">
        <ele>2475</ele>
        <time>2021-08-12T10:14:26.502Z</time>
      </trkpt>
      <trkpt lat="46.85265" lon="8.48629">
        <ele>2475</ele>
        <time>2021-08-12T10:14:27.501Z</time>
      </trkpt>
      <trkpt lat="46.85265" lon="8.4863">
        <ele>2475</ele>
        <time>2021-08-12T10:14:28.502Z</time>
      </trkpt>
      <trkpt lat="46.85265" lon="8.4863">
        <ele>2475</ele>
        <time>2021-08-12T10:14:29.502Z</time>
      </trkpt>
      <trkpt lat="46.85266" lon="8.48629">
        <ele>2474</ele>
        <time>2021-08-12T10:14:30.501Z</time>
      </trkpt>
      <trkpt lat="46.85267" lon="8.48629">
        <ele>2473</ele>
        <time>2021-08-12T10:14:31.501Z</time>
      </trkpt>
      <trkpt lat="46.85267" lon="8.48628">
        <ele>2473</ele>
        <time>2021-08-12T10:14:32.502Z</time>
      </trkpt>
      <trkpt lat="46.85267" lon="8.48627">
        <ele>2473</ele>
        <time>2021-08-12T10:14:33.502Z</time>
      </trkpt>
      <trkpt lat="46.85268" lon="8.48625">
        <ele>2473</ele>
        <time>2021-08-12T10:14:34.502Z</time>
      </trkpt>
      <trkpt lat="46.85268" lon="8.48624">
        <ele>2472</ele>
        <time>2021-08-12T10:14:35.502Z</time>
      </trkpt>
      <trkpt lat="46.85269" lon="8.48623">
        <ele>2472</ele>
        <time>2021-08-12T10:14:36.502Z</time>
      </trkpt>
      <trkpt lat="46.85269" lon="8.48621">
        <ele>2473</ele>
        <time>2021-08-12T10:14:37.502Z</time>
      </trkpt>
      <trkpt lat="46.85269" lon="8.4862">
        <ele>2473</ele>
        <time>2021-08-12T10:14:38.502Z</time>
      </trkpt>
      <trkpt lat="46.85269" lon="8.48619">
        <ele>2474</ele>
        <time>2021-08-12T10:14:39.502Z</time>
      </trkpt>
      <trkpt lat="46.85269" lon="8.48619">
        <ele>2474</ele>
        <time>2021-08-12T10:14:40.501Z</time>
      </trkpt>
      <trkpt lat="46.85269" lon="8.48619">
        <ele>2474</ele>
        <time>2021-08-12T10:14:41.501Z</time>
      </trkpt>
      <trkpt lat="46.85268" lon="8.48618">
        <ele>2473</ele>
        <time>2021-08-12T10:14:42.502Z</time>
      </trkpt>
      <trkpt lat="46.85267" lon="8.48617">
        <ele>2473</ele>
        <time>2021-08-12T10:14:43.502Z</time>
      </trkpt>
      <trkpt lat="46.85267" lon="8.48617">
        <ele>2473</ele>
        <time>2021-08-12T10:14:44.501Z</time>
      </trkpt>
      <trkpt lat="46.85267" lon="8.48616">
        <ele>2473</ele>
        <time>2021-08-12T10:14:45.502Z</time>
      </trkpt>
      <trkpt lat="46.85268" lon="8.48615">
        <ele>2473</ele>
        <time>2021-08-12T10:14:46.501Z</time>
      </trkpt>
      <trkpt lat="46.85269" lon="8.48614">
        <ele>2473</ele>
        <time>2021-08-12T10:14:47.502Z</time>
      </trkpt>
      <trkpt lat="46.8527" lon="8.48613">
        <ele>2473</ele>
        <time>2021-08-12T10:14:48.501Z</time>
      </trkpt>
      <trkpt lat="46.8527" lon="8.48613">
        <ele>2473</ele>
        <time>2021-08-12T10:14:49.502Z</time>
      </trkpt>
      <trkpt lat="46.8527" lon="8.48612">
        <ele>2472</ele>
        <time>2021-08-12T10:14:50.502Z</time>
      </trkpt>
      <trkpt lat="46.85269" lon="8.48611">
        <ele>2472</ele>
        <time>2021-08-12T10:14:51.501Z</time>
      </trkpt>
      <trkpt lat="46.85269" lon="8.4861">
        <ele>2471</ele>
        <time>2021-08-12T10:14:52.502Z</time>
      </trkpt>
      <trkpt lat="46.85268" lon="8.4861">
        <ele>2471</ele>
        <time>2021-08-12T10:14:53.502Z</time>
      </trkpt>
      <trkpt lat="46.85267" lon="8.4861">
        <ele>2471</ele>
        <time>2021-08-12T10:14:54.501Z</time>
      </trkpt>
      <trkpt lat="46.85267" lon="8.4861">
        <ele>2470</ele>
        <time>2021-08-12T10:14:55.502Z</time>
      </trkpt>
      <trkpt lat="46.85266" lon="8.4861">
        <ele>2470</ele>
        <time>2021-08-12T10:14:56.502Z</time>
      </trkpt>
      <trkpt lat="46.85266" lon="8.4861">
        <ele>2470</ele>
        <time>2021-08-12T10:14:57.501Z</time>
      </trkpt>
      <trkpt lat="46.85265" lon="8.4861">
        <ele>2470</ele>
        <time>2021-08-12T10:14:58.502Z</time>
      </trkpt>
      <trkpt lat="46.85265" lon="8.4861">
        <ele>2470</ele>
        <time>2021-08-12T10:14:59.502Z</time>
      </trkpt>
      <trkpt lat="46.85265" lon="8.48609">
        <ele>2470</ele>
        <time>2021-08-12T10:15:00.502Z</time>
      </trkpt>
      <trkpt lat="46.85264" lon="8.48609">
        <ele>2469</ele>
        <time>2021-08-12T10:15:01.502Z</time>
      </trkpt>
      <trkpt lat="46.85263" lon="8.48608">
        <ele>2469</ele>
        <time>2021-08-12T10:15:02.501Z</time>
      </trkpt>
      <trkpt lat="46.85263" lon="8.48606">
        <ele>2468</ele>
        <time>2021-08-12T10:15:03.502Z</time>
      </trkpt>
      <trkpt lat="46.85263" lon="8.48605">
        <ele>2468</ele>
        <time>2021-08-12T10:15:04.502Z</time>
      </trkpt>
      <trkpt lat="46.85262" lon="8.48604">
        <ele>2468</ele>
        <time>2021-08-12T10:15:05.502Z</time>
      </trkpt>
      <trkpt lat="46.85261" lon="8.48603">
        <ele>2467</ele>
        <time>2021-08-12T10:15:06.502Z</time>
      </trkpt>
      <trkpt lat="46.85261" lon="8.48602">
        <ele>2467</ele>
        <time>2021-08-12T10:15:07.502Z</time>
      </trkpt>
      <trkpt lat="46.8526" lon="8.48601">
        <ele>2467</ele>
        <time>2021-08-12T10:15:08.502Z</time>
      </trkpt>
      <trkpt lat="46.8526" lon="8.486">
        <ele>2467</ele>
        <time>2021-08-12T10:15:09.502Z</time>
      </trkpt>
      <trkpt lat="46.85259" lon="8.48599">
        <ele>2466</ele>
        <time>2021-08-12T10:15:10.501Z</time>
      </trkpt>
      <trkpt lat="46.85259" lon="8.48598">
        <ele>2466</ele>
        <time>2021-08-12T10:15:11.502Z</time>
      </trkpt>
      <trkpt lat="46.85258" lon="8.48597">
        <ele>2466</ele>
        <time>2021-08-12T10:15:12.502Z</time>
      </trkpt>
      <trkpt lat="46.85257" lon="8.48596">
        <ele>2466</ele>
        <time>2021-08-12T10:15:13.501Z</time>
      </trkpt>
      <trkpt lat="46.85257" lon="8.48596">
        <ele>2466</ele>
        <time>2021-08-12T10:15:14.502Z</time>
      </trkpt>
      <trkpt lat="46.85256" lon="8.48596">
        <ele>2466</ele>
        <time>2021-08-12T10:15:15.501Z</time>
      </trkpt>
      <trkpt lat="46.85255" lon="8.48597">
        <ele>2465</ele>
        <time>2021-08-12T10:15:16.502Z</time>
      </trkpt>
      <trkpt lat="46.85254" lon="8.48597">
        <ele>2465</ele>
        <time>2021-08-12T10:15:17.502Z</time>
      </trkpt>
      <trkpt lat="46.85254" lon="8.48598">
        <ele>2465</ele>
        <time>2021-08-12T10:15:18.502Z</time>
      </trkpt>
      <trkpt lat="46.85253" lon="8.48599">
        <ele>2464</ele>
        <time>2021-08-12T10:15:19.502Z</time>
      </trkpt>
      <trkpt lat="46.85253" lon="8.48599">
        <ele>2464</ele>
        <time>2021-08-12T10:15:20.502Z</time>
      </trkpt>
      <trkpt lat="46.85252" lon="8.48599">
        <ele>2464</ele>
        <time>2021-08-12T10:15:21.502Z</time>
      </trkpt>
      <trkpt lat="46.85252" lon="8.48599">
        <ele>2464</ele>
        <time>2021-08-12T10:15:22.502Z</time>
      </trkpt>
      <trkpt lat="46.85252" lon="8.48598">
        <ele>2463</ele>
        <time>2021-08-12T10:15:23.501Z</time>
      </trkpt>
      <trkpt lat="46.85252" lon="8.48597">
        <ele>2463</ele>
        <time>2021-08-12T10:15:24.501Z</time>
      </trkpt>
      <trkpt lat="46.85252" lon="8.48596">
        <ele>2463</ele>
        <time>2021-08-12T10:15:25.502Z</time>
      </trkpt>
      <trkpt lat="46.85252" lon="8.48595">
        <ele>2463</ele>
        <time>2021-08-12T10:15:26.501Z</time>
      </trkpt>
      <trkpt lat="46.85252" lon="8.48594">
        <ele>2463</ele>
        <time>2021-08-12T10:15:27.502Z</time>
      </trkpt>
      <trkpt lat="46.85252" lon="8.48592">
        <ele>2463</ele>
        <time>2021-08-12T10:15:28.502Z</time>
      </trkpt>
      <trkpt lat="46.85251" lon="8.48591">
        <ele>2463</ele>
        <time>2021-08-12T10:15:29.502Z</time>
      </trkpt>
      <trkpt lat="46.85251" lon="8.48589">
        <ele>2464</ele>
        <time>2021-08-12T10:15:30.502Z</time>
      </trkpt>
      <trkpt lat="46.85251" lon="8.48587">
        <ele>2464</ele>
        <time>2021-08-12T10:15:31.502Z</time>
      </trkpt>
      <trkpt lat="46.8525" lon="8.48585">
        <ele>2464</ele>
        <time>2021-08-12T10:15:32.502Z</time>
      </trkpt>
      <trkpt lat="46.85249" lon="8.48584">
        <ele>2464</ele>
        <time>2021-08-12T10:15:33.501Z</time>
      </trkpt>
      <trkpt lat="46.85249" lon="8.48582">
        <ele>2464</ele>
        <time>2021-08-12T10:15:34.502Z</time>
      </trkpt>
      <trkpt lat="46.85248" lon="8.48581">
        <ele>2464</ele>
        <time>2021-08-12T10:15:35.501Z</time>
      </trkpt>
      <trkpt lat="46.85248" lon="8.4858">
        <ele>2464</ele>
        <time>2021-08-12T10:15:36.502Z</time>
      </trkpt>
      <trkpt lat="46.85247" lon="8.48579">
        <ele>2463</ele>
        <time>2021-08-12T10:15:37.502Z</time>
      </trkpt>
      <trkpt lat="46.85247" lon="8.48577">
        <ele>2462</ele>
        <time>2021-08-12T10:15:38.502Z</time>
      </trkpt>
      <trkpt lat="46.85246" lon="8.48575">
        <ele>2462</ele>
        <time>2021-08-12T10:15:39.502Z</time>
      </trkpt>
      <trkpt lat="46.85247" lon="8.48574">
        <ele>2461</ele>
        <time>2021-08-12T10:15:40.502Z</time>
      </trkpt>
      <trkpt lat="46.85247" lon="8.48572">
        <ele>2461</ele>
        <time>2021-08-12T10:15:41.502Z</time>
      </trkpt>
      <trkpt lat="46.85247" lon="8.4857">
        <ele>2461</ele>
        <time>2021-08-12T10:15:42.502Z</time>
      </trkpt>
      <trkpt lat="46.85247" lon="8.48569">
        <ele>2462</ele>
        <time>2021-08-12T10:15:43.501Z</time>
      </trkpt>
      <trkpt lat="46.85248" lon="8.48566">
        <ele>2463</ele>
        <time>2021-08-12T10:15:44.501Z</time>
      </trkpt>
      <trkpt lat="46.85248" lon="8.48564">
        <ele>2463</ele>
        <time>2021-08-12T10:15:45.502Z</time>
      </trkpt>
      <trkpt lat="46.85247" lon="8.48562">
        <ele>2464</ele>
        <time>2021-08-12T10:15:46.501Z</time>
      </trkpt>
      <trkpt lat="46.85247" lon="8.48561">
        <ele>2464</ele>
        <time>2021-08-12T10:15:47.502Z</time>
      </trkpt>
      <trkpt lat="46.85246" lon="8.4856">
        <ele>2464</ele>
        <time>2021-08-12T10:15:48.502Z</time>
      </trkpt>
      <trkpt lat="46.85246" lon="8.48559">
        <ele>2464</ele>
        <time>2021-08-12T10:15:49.501Z</time>
      </trkpt>
      <trkpt lat="46.85246" lon="8.48557">
        <ele>2464</ele>
        <time>2021-08-12T10:15:50.502Z</time>
      </trkpt>
      <trkpt lat="46.85246" lon="8.48556">
        <ele>2464</ele>
        <time>2021-08-12T10:15:51.501Z</time>
      </trkpt>
      <trkpt lat="46.85245" lon="8.48555">
        <ele>2464</ele>
        <time>2021-08-12T10:15:52.501Z</time>
      </trkpt>
      <trkpt lat="46.85244" lon="8.48554">
        <ele>2464</ele>
        <time>2021-08-12T10:15:53.501Z</time>
      </trkpt>
      <trkpt lat="46.85244" lon="8.48554">
        <ele>2464</ele>
        <time>2021-08-12T10:15:54.502Z</time>
      </trkpt>
      <trkpt lat="46.85243" lon="8.48554">
        <ele>2463</ele>
        <time>2021-08-12T10:15:55.502Z</time>
      </trkpt>
      <trkpt lat="46.85243" lon="8.48553">
        <ele>2462</ele>
        <time>2021-08-12T10:15:56.501Z</time>
      </trkpt>
      <trkpt lat="46.85243" lon="8.48552">
        <ele>2461</ele>
        <time>2021-08-12T10:15:57.502Z</time>
      </trkpt>
      <trkpt lat="46.85243" lon="8.48552">
        <ele>2460</ele>
        <time>2021-08-12T10:15:58.502Z</time>
      </trkpt>
      <trkpt lat="46.85244" lon="8.48552">
        <ele>2460</ele>
        <time>2021-08-12T10:15:59.502Z</time>
      </trkpt>
      <trkpt lat="46.85244" lon="8.4855">
        <ele>2460</ele>
        <time>2021-08-12T10:16:00.501Z</time>
      </trkpt>
      <trkpt lat="46.85244" lon="8.48548">
        <ele>2460</ele>
        <time>2021-08-12T10:16:01.502Z</time>
      </trkpt>
      <trkpt lat="46.85243" lon="8.48547">
        <ele>2460</ele>
        <time>2021-08-12T10:16:02.501Z</time>
      </trkpt>
      <trkpt lat="46.85242" lon="8.48547">
        <ele>2461</ele>
        <time>2021-08-12T10:16:03.502Z</time>
      </trkpt>
      <trkpt lat="46.85242" lon="8.48546">
        <ele>2461</ele>
        <time>2021-08-12T10:16:04.502Z</time>
      </trkpt>
      <trkpt lat="46.85242" lon="8.48545">
        <ele>2461</ele>
        <time>2021-08-12T10:16:05.501Z</time>
      </trkpt>
      <trkpt lat="46.85241" lon="8.48544">
        <ele>2461</ele>
        <time>2021-08-12T10:16:06.501Z</time>
      </trkpt>
      <trkpt lat="46.8524" lon="8.48544">
        <ele>2462</ele>
        <time>2021-08-12T10:16:07.502Z</time>
      </trkpt>
      <trkpt lat="46.85239" lon="8.48544">
        <ele>2462</ele>
        <time>2021-08-12T10:16:08.501Z</time>
      </trkpt>
      <trkpt lat="46.85239" lon="8.48544">
        <ele>2461</ele>
        <time>2021-08-12T10:16:09.502Z</time>
      </trkpt>
      <trkpt lat="46.85239" lon="8.48544">
        <ele>2461</ele>
        <time>2021-08-12T10:16:10.502Z</time>
      </trkpt>
      <trkpt lat="46.85238" lon="8.48543">
        <ele>2457</ele>
        <time>2021-08-12T10:16:11.501Z</time>
      </trkpt>
      <trkpt lat="46.85238" lon="8.48543">
        <ele>2456</ele>
        <time>2021-08-12T10:16:12.501Z</time>
      </trkpt>
      <trkpt lat="46.85238" lon="8.48542">
        <ele>2455</ele>
        <time>2021-08-12T10:16:13.501Z</time>
      </trkpt>
      <trkpt lat="46.85238" lon="8.48541">
        <ele>2455</ele>
        <time>2021-08-12T10:16:14.502Z</time>
      </trkpt>
      <trkpt lat="46.85238" lon="8.4854">
        <ele>2455</ele>
        <time>2021-08-12T10:16:15.502Z</time>
      </trkpt>
      <trkpt lat="46.85238" lon="8.48538">
        <ele>2455</ele>
        <time>2021-08-12T10:16:16.502Z</time>
      </trkpt>
      <trkpt lat="46.85238" lon="8.48536">
        <ele>2455</ele>
        <time>2021-08-12T10:16:17.502Z</time>
      </trkpt>
      <trkpt lat="46.85238" lon="8.48535">
        <ele>2454</ele>
        <time>2021-08-12T10:16:18.501Z</time>
      </trkpt>
      <trkpt lat="46.85237" lon="8.48533">
        <ele>2454</ele>
        <time>2021-08-12T10:16:19.502Z</time>
      </trkpt>
      <trkpt lat="46.85237" lon="8.48531">
        <ele>2454</ele>
        <time>2021-08-12T10:16:20.502Z</time>
      </trkpt>
      <trkpt lat="46.85237" lon="8.4853">
        <ele>2455</ele>
        <time>2021-08-12T10:16:21.502Z</time>
      </trkpt>
      <trkpt lat="46.85237" lon="8.48529">
        <ele>2454</ele>
        <time>2021-08-12T10:16:22.502Z</time>
      </trkpt>
      <trkpt lat="46.85237" lon="8.48527">
        <ele>2454</ele>
        <time>2021-08-12T10:16:23.502Z</time>
      </trkpt>
      <trkpt lat="46.85237" lon="8.48526">
        <ele>2455</ele>
        <time>2021-08-12T10:16:24.502Z</time>
      </trkpt>
      <trkpt lat="46.85236" lon="8.48524">
        <ele>2455</ele>
        <time>2021-08-12T10:16:25.502Z</time>
      </trkpt>
      <trkpt lat="46.85236" lon="8.48523">
        <ele>2455</ele>
        <time>2021-08-12T10:16:26.502Z</time>
      </trkpt>
      <trkpt lat="46.85236" lon="8.48521">
        <ele>2456</ele>
        <time>2021-08-12T10:16:27.501Z</time>
      </trkpt>
      <trkpt lat="46.85236" lon="8.4852">
        <ele>2456</ele>
        <time>2021-08-12T10:16:28.502Z</time>
      </trkpt>
      <trkpt lat="46.85235" lon="8.48518">
        <ele>2456</ele>
        <time>2021-08-12T10:16:29.502Z</time>
      </trkpt>
      <trkpt lat="46.85235" lon="8.48516">
        <ele>2456</ele>
        <time>2021-08-12T10:16:30.501Z</time>
      </trkpt>
      <trkpt lat="46.85235" lon="8.48515">
        <ele>2457</ele>
        <time>2021-08-12T10:16:31.501Z</time>
      </trkpt>
      <trkpt lat="46.85234" lon="8.48513">
        <ele>2456</ele>
        <time>2021-08-12T10:16:32.502Z</time>
      </trkpt>
      <trkpt lat="46.85233" lon="8.48512">
        <ele>2456</ele>
        <time>2021-08-12T10:16:33.501Z</time>
      </trkpt>
      <trkpt lat="46.85232" lon="8.4851">
        <ele>2456</ele>
        <time>2021-08-12T10:16:34.501Z</time>
      </trkpt>
      <trkpt lat="46.85232" lon="8.48509">
        <ele>2456</ele>
        <time>2021-08-12T10:16:35.501Z</time>
      </trkpt>
      <trkpt lat="46.85231" lon="8.48508">
        <ele>2455</ele>
        <time>2021-08-12T10:16:36.501Z</time>
      </trkpt>
      <trkpt lat="46.8523" lon="8.48506">
        <ele>2455</ele>
        <time>2021-08-12T10:16:37.501Z</time>
      </trkpt>
      <trkpt lat="46.8523" lon="8.48505">
        <ele>2455</ele>
        <time>2021-08-12T10:16:38.502Z</time>
      </trkpt>
      <trkpt lat="46.85229" lon="8.48504">
        <ele>2455</ele>
        <time>2021-08-12T10:16:39.501Z</time>
      </trkpt>
      <trkpt lat="46.85228" lon="8.48503">
        <ele>2455</ele>
        <time>2021-08-12T10:16:40.501Z</time>
      </trkpt>
      <trkpt lat="46.85228" lon="8.48503">
        <ele>2455</ele>
        <time>2021-08-12T10:16:41.502Z</time>
      </trkpt>
      <trkpt lat="46.85227" lon="8.48502">
        <ele>2455</ele>
        <time>2021-08-12T10:16:42.502Z</time>
      </trkpt>
      <trkpt lat="46.85227" lon="8.48501">
        <ele>2455</ele>
        <time>2021-08-12T10:16:43.501Z</time>
      </trkpt>
      <trkpt lat="46.85226" lon="8.48499">
        <ele>2455</ele>
        <time>2021-08-12T10:16:44.501Z</time>
      </trkpt>
      <trkpt lat="46.85225" lon="8.48498">
        <ele>2454</ele>
        <time>2021-08-12T10:16:45.502Z</time>
      </trkpt>
      <trkpt lat="46.85225" lon="8.48496">
        <ele>2454</ele>
        <time>2021-08-12T10:16:46.501Z</time>
      </trkpt>
      <trkpt lat="46.85225" lon="8.48495">
        <ele>2454</ele>
        <time>2021-08-12T10:16:47.501Z</time>
      </trkpt>
      <trkpt lat="46.85225" lon="8.48493">
        <ele>2454</ele>
        <time>2021-08-12T10:16:48.502Z</time>
      </trkpt>
      <trkpt lat="46.85224" lon="8.48491">
        <ele>2454</ele>
        <time>2021-08-12T10:16:49.502Z</time>
      </trkpt>
      <trkpt lat="46.85224" lon="8.4849">
        <ele>2454</ele>
        <time>2021-08-12T10:16:50.502Z</time>
      </trkpt>
      <trkpt lat="46.85224" lon="8.48489">
        <ele>2454</ele>
        <time>2021-08-12T10:16:51.502Z</time>
      </trkpt>
      <trkpt lat="46.85224" lon="8.48488">
        <ele>2454</ele>
        <time>2021-08-12T10:16:52.501Z</time>
      </trkpt>
      <trkpt lat="46.85224" lon="8.48487">
        <ele>2453</ele>
        <time>2021-08-12T10:16:53.502Z</time>
      </trkpt>
      <trkpt lat="46.85223" lon="8.48485">
        <ele>2453</ele>
        <time>2021-08-12T10:16:54.502Z</time>
      </trkpt>
      <trkpt lat="46.85223" lon="8.48484">
        <ele>2452</ele>
        <time>2021-08-12T10:16:55.502Z</time>
      </trkpt>
      <trkpt lat="46.85223" lon="8.48483">
        <ele>2452</ele>
        <time>2021-08-12T10:16:56.502Z</time>
      </trkpt>
      <trkpt lat="46.85223" lon="8.48482">
        <ele>2452</ele>
        <time>2021-08-12T10:16:57.501Z</time>
      </trkpt>
      <trkpt lat="46.85223" lon="8.48482">
        <ele>2451</ele>
        <time>2021-08-12T10:16:58.502Z</time>
      </trkpt>
      <trkpt lat="46.85223" lon="8.48482">
        <ele>2451</ele>
        <time>2021-08-12T10:16:59.502Z</time>
      </trkpt>
      <trkpt lat="46.85223" lon="8.48483">
        <ele>2447</ele>
        <time>2021-08-12T10:17:00.503Z</time>
      </trkpt>
      <trkpt lat="46.85223" lon="8.48482">
        <ele>2448</ele>
        <time>2021-08-12T10:17:01.502Z</time>
      </trkpt>
      <trkpt lat="46.85223" lon="8.48481">
        <ele>2448</ele>
        <time>2021-08-12T10:17:02.503Z</time>
      </trkpt>
      <trkpt lat="46.85222" lon="8.4848">
        <ele>2448</ele>
        <time>2021-08-12T10:17:03.502Z</time>
      </trkpt>
      <trkpt lat="46.85223" lon="8.48478">
        <ele>2448</ele>
        <time>2021-08-12T10:17:04.503Z</time>
      </trkpt>
      <trkpt lat="46.85223" lon="8.48477">
        <ele>2448</ele>
        <time>2021-08-12T10:17:05.503Z</time>
      </trkpt>
      <trkpt lat="46.85223" lon="8.48476">
        <ele>2448</ele>
        <time>2021-08-12T10:17:06.503Z</time>
      </trkpt>
      <trkpt lat="46.85224" lon="8.48475">
        <ele>2448</ele>
        <time>2021-08-12T10:17:07.503Z</time>
      </trkpt>
      <trkpt lat="46.85224" lon="8.48473">
        <ele>2448</ele>
        <time>2021-08-12T10:17:08.502Z</time>
      </trkpt>
      <trkpt lat="46.85224" lon="8.48472">
        <ele>2448</ele>
        <time>2021-08-12T10:17:09.502Z</time>
      </trkpt>
      <trkpt lat="46.85225" lon="8.48471">
        <ele>2448</ele>
        <time>2021-08-12T10:17:10.502Z</time>
      </trkpt>
      <trkpt lat="46.85226" lon="8.4847">
        <ele>2448</ele>
        <time>2021-08-12T10:17:11.503Z</time>
      </trkpt>
      <trkpt lat="46.85226" lon="8.48469">
        <ele>2447</ele>
        <time>2021-08-12T10:17:12.502Z</time>
      </trkpt>
      <trkpt lat="46.85227" lon="8.48468">
        <ele>2447</ele>
        <time>2021-08-12T10:17:13.502Z</time>
      </trkpt>
      <trkpt lat="46.85227" lon="8.48467">
        <ele>2448</ele>
        <time>2021-08-12T10:17:14.502Z</time>
      </trkpt>
      <trkpt lat="46.85227" lon="8.48466">
        <ele>2448</ele>
        <time>2021-08-12T10:17:15.503Z</time>
      </trkpt>
      <trkpt lat="46.85228" lon="8.48465">
        <ele>2449</ele>
        <time>2021-08-12T10:17:16.503Z</time>
      </trkpt>
      <trkpt lat="46.85228" lon="8.48464">
        <ele>2449</ele>
        <time>2021-08-12T10:17:17.503Z</time>
      </trkpt>
      <trkpt lat="46.85228" lon="8.48463">
        <ele>2449</ele>
        <time>2021-08-12T10:17:18.502Z</time>
      </trkpt>
      <trkpt lat="46.85228" lon="8.48462">
        <ele>2449</ele>
        <time>2021-08-12T10:17:19.502Z</time>
      </trkpt>
      <trkpt lat="46.85229" lon="8.4846">
        <ele>2449</ele>
        <time>2021-08-12T10:17:20.503Z</time>
      </trkpt>
      <trkpt lat="46.85229" lon="8.48459">
        <ele>2449</ele>
        <time>2021-08-12T10:17:21.502Z</time>
      </trkpt>
      <trkpt lat="46.85229" lon="8.48458">
        <ele>2448</ele>
        <time>2021-08-12T10:17:22.502Z</time>
      </trkpt>
      <trkpt lat="46.85229" lon="8.48457">
        <ele>2448</ele>
        <time>2021-08-12T10:17:23.502Z</time>
      </trkpt>
      <trkpt lat="46.8523" lon="8.48456">
        <ele>2448</ele>
        <time>2021-08-12T10:17:24.502Z</time>
      </trkpt>
      <trkpt lat="46.8523" lon="8.48456">
        <ele>2448</ele>
        <time>2021-08-12T10:17:25.502Z</time>
      </trkpt>
      <trkpt lat="46.8523" lon="8.48455">
        <ele>2447</ele>
        <time>2021-08-12T10:17:26.502Z</time>
      </trkpt>
      <trkpt lat="46.8523" lon="8.48454">
        <ele>2447</ele>
        <time>2021-08-12T10:17:27.502Z</time>
      </trkpt>
      <trkpt lat="46.8523" lon="8.48454">
        <ele>2448</ele>
        <time>2021-08-12T10:17:28.502Z</time>
      </trkpt>
      <trkpt lat="46.8523" lon="8.48453">
        <ele>2448</ele>
        <time>2021-08-12T10:17:29.502Z</time>
      </trkpt>
      <trkpt lat="46.8523" lon="8.48453">
        <ele>2448</ele>
        <time>2021-08-12T10:17:30.502Z</time>
      </trkpt>
      <trkpt lat="46.85229" lon="8.48452">
        <ele>2448</ele>
        <time>2021-08-12T10:17:31.502Z</time>
      </trkpt>
      <trkpt lat="46.8523" lon="8.48451">
        <ele>2447</ele>
        <time>2021-08-12T10:17:32.503Z</time>
      </trkpt>
      <trkpt lat="46.8523" lon="8.4845">
        <ele>2447</ele>
        <time>2021-08-12T10:17:33.502Z</time>
      </trkpt>
      <trkpt lat="46.8523" lon="8.48449">
        <ele>2447</ele>
        <time>2021-08-12T10:17:34.502Z</time>
      </trkpt>
      <trkpt lat="46.8523" lon="8.48448">
        <ele>2446</ele>
        <time>2021-08-12T10:17:35.502Z</time>
      </trkpt>
      <trkpt lat="46.8523" lon="8.48447">
        <ele>2446</ele>
        <time>2021-08-12T10:17:36.502Z</time>
      </trkpt>
      <trkpt lat="46.8523" lon="8.48447">
        <ele>2446</ele>
        <time>2021-08-12T10:17:37.502Z</time>
      </trkpt>
      <trkpt lat="46.8523" lon="8.48446">
        <ele>2447</ele>
        <time>2021-08-12T10:17:38.502Z</time>
      </trkpt>
      <trkpt lat="46.8523" lon="8.48445">
        <ele>2447</ele>
        <time>2021-08-12T10:17:39.502Z</time>
      </trkpt>
      <trkpt lat="46.8523" lon="8.48445">
        <ele>2447</ele>
        <time>2021-08-12T10:17:40.502Z</time>
      </trkpt>
      <trkpt lat="46.85229" lon="8.48445">
        <ele>2447</ele>
        <time>2021-08-12T10:17:41.502Z</time>
      </trkpt>
      <trkpt lat="46.85228" lon="8.48447">
        <ele>2445</ele>
        <time>2021-08-12T10:17:42.504Z</time>
      </trkpt>
      <trkpt lat="46.85227" lon="8.48447">
        <ele>2444</ele>
        <time>2021-08-12T10:17:43.504Z</time>
      </trkpt>
      <trkpt lat="46.85227" lon="8.48448">
        <ele>2444</ele>
        <time>2021-08-12T10:17:44.504Z</time>
      </trkpt>
      <trkpt lat="46.85227" lon="8.48449">
        <ele>2444</ele>
        <time>2021-08-12T10:17:45.504Z</time>
      </trkpt>
      <trkpt lat="46.85227" lon="8.4845">
        <ele>2444</ele>
        <time>2021-08-12T10:17:46.504Z</time>
      </trkpt>
      <trkpt lat="46.85227" lon="8.4845">
        <ele>2448</ele>
        <time>2021-08-12T10:17:47.505Z</time>
      </trkpt>
      <trkpt lat="46.85225" lon="8.48449">
        <ele>2446</ele>
        <time>2021-08-12T10:17:48.506Z</time>
      </trkpt>
      <trkpt lat="46.85224" lon="8.48448">
        <ele>2446</ele>
        <time>2021-08-12T10:17:49.506Z</time>
      </trkpt>
      <trkpt lat="46.85227" lon="8.48447">
        <ele>2446</ele>
        <time>2021-08-12T10:17:50.505Z</time>
      </trkpt>
      <trkpt lat="46.85227" lon="8.48447">
        <ele>2446</ele>
        <time>2021-08-12T10:17:51.506Z</time>
      </trkpt>
      <trkpt lat="46.85228" lon="8.48447">
        <ele>2446</ele>
        <time>2021-08-12T10:17:52.506Z</time>
      </trkpt>
      <trkpt lat="46.85228" lon="8.48447">
        <ele>2446</ele>
        <time>2021-08-12T10:17:53.505Z</time>
      </trkpt>
      <trkpt lat="46.85229" lon="8.48447">
        <ele>2446</ele>
        <time>2021-08-12T10:17:54.506Z</time>
      </trkpt>
      <trkpt lat="46.8523" lon="8.48446">
        <ele>2446</ele>
        <time>2021-08-12T10:17:55.505Z</time>
      </trkpt>
      <trkpt lat="46.8523" lon="8.48446">
        <ele>2446</ele>
        <time>2021-08-12T10:17:56.506Z</time>
      </trkpt>
      <trkpt lat="46.8523" lon="8.48446">
        <ele>2446</ele>
        <time>2021-08-12T10:17:57.505Z</time>
      </trkpt>
      <trkpt lat="46.8523" lon="8.48446">
        <ele>2446</ele>
        <time>2021-08-12T10:17:58.506Z</time>
      </trkpt>
      <trkpt lat="46.85229" lon="8.48445">
        <ele>2445</ele>
        <time>2021-08-12T10:17:59.507Z</time>
      </trkpt>
      <trkpt lat="46.85229" lon="8.48446">
        <ele>2446</ele>
        <time>2021-08-12T10:18:00.506Z</time>
      </trkpt>
      <trkpt lat="46.85228" lon="8.48446">
        <ele>2445</ele>
        <time>2021-08-12T10:18:01.507Z</time>
      </trkpt>
      <trkpt lat="46.85228" lon="8.48446">
        <ele>2445</ele>
        <time>2021-08-12T10:18:02.506Z</time>
      </trkpt>
      <trkpt lat="46.85228" lon="8.48446">
        <ele>2445</ele>
        <time>2021-08-12T10:18:03.506Z</time>
      </trkpt>
      <trkpt lat="46.85227" lon="8.48446">
        <ele>2439</ele>
        <time>2021-08-12T10:18:04.507Z</time>
      </trkpt>
      <trkpt lat="46.85227" lon="8.48446">
        <ele>2438</ele>
        <time>2021-08-12T10:18:05.507Z</time>
      </trkpt>
      <trkpt lat="46.85228" lon="8.48445">
        <ele>2438</ele>
        <time>2021-08-12T10:18:06.507Z</time>
      </trkpt>
      <trkpt lat="46.85228" lon="8.48444">
        <ele>2438</ele>
        <time>2021-08-12T10:18:07.507Z</time>
      </trkpt>
      <trkpt lat="46.85228" lon="8.48443">
        <ele>2439</ele>
        <time>2021-08-12T10:18:08.507Z</time>
      </trkpt>
      <trkpt lat="46.85229" lon="8.48442">
        <ele>2439</ele>
        <time>2021-08-12T10:18:09.507Z</time>
      </trkpt>
      <trkpt lat="46.85229" lon="8.48441">
        <ele>2440</ele>
        <time>2021-08-12T10:18:10.507Z</time>
      </trkpt>
      <trkpt lat="46.8523" lon="8.4844">
        <ele>2440</ele>
        <time>2021-08-12T10:18:11.507Z</time>
      </trkpt>
      <trkpt lat="46.8523" lon="8.48439">
        <ele>2441</ele>
        <time>2021-08-12T10:18:12.507Z</time>
      </trkpt>
      <trkpt lat="46.8523" lon="8.48438">
        <ele>2442</ele>
        <time>2021-08-12T10:18:13.507Z</time>
      </trkpt>
      <trkpt lat="46.8523" lon="8.48437">
        <ele>2442</ele>
        <time>2021-08-12T10:18:14.507Z</time>
      </trkpt>
      <trkpt lat="46.8523" lon="8.48436">
        <ele>2442</ele>
        <time>2021-08-12T10:18:15.507Z</time>
      </trkpt>
      <trkpt lat="46.8523" lon="8.48436">
        <ele>2442</ele>
        <time>2021-08-12T10:18:16.506Z</time>
      </trkpt>
      <trkpt lat="46.8523" lon="8.48434">
        <ele>2442</ele>
        <time>2021-08-12T10:18:17.507Z</time>
      </trkpt>
      <trkpt lat="46.8523" lon="8.48432">
        <ele>2442</ele>
        <time>2021-08-12T10:18:18.507Z</time>
      </trkpt>
      <trkpt lat="46.8523" lon="8.48431">
        <ele>2442</ele>
        <time>2021-08-12T10:18:19.507Z</time>
      </trkpt>
      <trkpt lat="46.8523" lon="8.48429">
        <ele>2442</ele>
        <time>2021-08-12T10:18:20.506Z</time>
      </trkpt>
      <trkpt lat="46.8523" lon="8.48428">
        <ele>2442</ele>
        <time>2021-08-12T10:18:21.506Z</time>
      </trkpt>
      <trkpt lat="46.8523" lon="8.48427">
        <ele>2442</ele>
        <time>2021-08-12T10:18:22.507Z</time>
      </trkpt>
      <trkpt lat="46.8523" lon="8.48426">
        <ele>2442</ele>
        <time>2021-08-12T10:18:23.506Z</time>
      </trkpt>
      <trkpt lat="46.8523" lon="8.48425">
        <ele>2442</ele>
        <time>2021-08-12T10:18:24.507Z</time>
      </trkpt>
      <trkpt lat="46.8523" lon="8.48423">
        <ele>2442</ele>
        <time>2021-08-12T10:18:25.507Z</time>
      </trkpt>
      <trkpt lat="46.8523" lon="8.48422">
        <ele>2443</ele>
        <time>2021-08-12T10:18:26.507Z</time>
      </trkpt>
      <trkpt lat="46.85229" lon="8.48421">
        <ele>2443</ele>
        <time>2021-08-12T10:18:27.506Z</time>
      </trkpt>
      <trkpt lat="46.85229" lon="8.4842">
        <ele>2443</ele>
        <time>2021-08-12T10:18:28.507Z</time>
      </trkpt>
      <trkpt lat="46.85229" lon="8.48419">
        <ele>2443</ele>
        <time>2021-08-12T10:18:29.507Z</time>
      </trkpt>
      <trkpt lat="46.8523" lon="8.48417">
        <ele>2443</ele>
        <time>2021-08-12T10:18:30.507Z</time>
      </trkpt>
      <trkpt lat="46.8523" lon="8.48416">
        <ele>2443</ele>
        <time>2021-08-12T10:18:31.506Z</time>
      </trkpt>
      <trkpt lat="46.8523" lon="8.48415">
        <ele>2444</ele>
        <time>2021-08-12T10:18:32.507Z</time>
      </trkpt>
      <trkpt lat="46.8523" lon="8.48413">
        <ele>2444</ele>
        <time>2021-08-12T10:18:33.507Z</time>
      </trkpt>
      <trkpt lat="46.8523" lon="8.48412">
        <ele>2444</ele>
        <time>2021-08-12T10:18:34.506Z</time>
      </trkpt>
      <trkpt lat="46.8523" lon="8.48411">
        <ele>2444</ele>
        <time>2021-08-12T10:18:35.507Z</time>
      </trkpt>
      <trkpt lat="46.8523" lon="8.48409">
        <ele>2445</ele>
        <time>2021-08-12T10:18:36.507Z</time>
      </trkpt>
      <trkpt lat="46.85231" lon="8.48408">
        <ele>2445</ele>
        <time>2021-08-12T10:18:37.507Z</time>
      </trkpt>
      <trkpt lat="46.85231" lon="8.48406">
        <ele>2445</ele>
        <time>2021-08-12T10:18:38.506Z</time>
      </trkpt>
      <trkpt lat="46.85231" lon="8.48404">
        <ele>2444</ele>
        <time>2021-08-12T10:18:39.507Z</time>
      </trkpt>
      <trkpt lat="46.85231" lon="8.48402">
        <ele>2444</ele>
        <time>2021-08-12T10:18:40.506Z</time>
      </trkpt>
      <trkpt lat="46.85231" lon="8.484">
        <ele>2444</ele>
        <time>2021-08-12T10:18:41.506Z</time>
      </trkpt>
      <trkpt lat="46.85231" lon="8.48399">
        <ele>2444</ele>
        <time>2021-08-12T10:18:42.507Z</time>
      </trkpt>
      <trkpt lat="46.85231" lon="8.48397">
        <ele>2444</ele>
        <time>2021-08-12T10:18:43.507Z</time>
      </trkpt>
      <trkpt lat="46.8523" lon="8.48396">
        <ele>2444</ele>
        <time>2021-08-12T10:18:44.507Z</time>
      </trkpt>
      <trkpt lat="46.8523" lon="8.48395">
        <ele>2443</ele>
        <time>2021-08-12T10:18:45.507Z</time>
      </trkpt>
      <trkpt lat="46.8523" lon="8.48393">
        <ele>2443</ele>
        <time>2021-08-12T10:18:46.507Z</time>
      </trkpt>
      <trkpt lat="46.8523" lon="8.48392">
        <ele>2443</ele>
        <time>2021-08-12T10:18:47.507Z</time>
      </trkpt>
      <trkpt lat="46.8523" lon="8.48391">
        <ele>2443</ele>
        <time>2021-08-12T10:18:48.507Z</time>
      </trkpt>
      <trkpt lat="46.85231" lon="8.4839">
        <ele>2443</ele>
        <time>2021-08-12T10:18:49.507Z</time>
      </trkpt>
      <trkpt lat="46.85231" lon="8.48388">
        <ele>2442</ele>
        <time>2021-08-12T10:18:50.507Z</time>
      </trkpt>
      <trkpt lat="46.85232" lon="8.48388">
        <ele>2442</ele>
        <time>2021-08-12T10:18:51.507Z</time>
      </trkpt>
      <trkpt lat="46.85232" lon="8.48387">
        <ele>2442</ele>
        <time>2021-08-12T10:18:52.507Z</time>
      </trkpt>
      <trkpt lat="46.85232" lon="8.48386">
        <ele>2442</ele>
        <time>2021-08-12T10:18:53.507Z</time>
      </trkpt>
      <trkpt lat="46.85232" lon="8.48385">
        <ele>2441</ele>
        <time>2021-08-12T10:18:54.507Z</time>
      </trkpt>
      <trkpt lat="46.85232" lon="8.48384">
        <ele>2440</ele>
        <time>2021-08-12T10:18:55.506Z</time>
      </trkpt>
      <trkpt lat="46.85231" lon="8.48382">
        <ele>2439</ele>
        <time>2021-08-12T10:18:56.507Z</time>
      </trkpt>
      <trkpt lat="46.8523" lon="8.48381">
        <ele>2439</ele>
        <time>2021-08-12T10:18:57.507Z</time>
      </trkpt>
      <trkpt lat="46.8523" lon="8.48379">
        <ele>2438</ele>
        <time>2021-08-12T10:18:58.507Z</time>
      </trkpt>
      <trkpt lat="46.8523" lon="8.48378">
        <ele>2438</ele>
        <time>2021-08-12T10:18:59.506Z</time>
      </trkpt>
      <trkpt lat="46.85229" lon="8.48377">
        <ele>2438</ele>
        <time>2021-08-12T10:19:00.507Z</time>
      </trkpt>
      <trkpt lat="46.85228" lon="8.48376">
        <ele>2438</ele>
        <time>2021-08-12T10:19:01.507Z</time>
      </trkpt>
      <trkpt lat="46.85227" lon="8.48374">
        <ele>2438</ele>
        <time>2021-08-12T10:19:02.507Z</time>
      </trkpt>
      <trkpt lat="46.85226" lon="8.48373">
        <ele>2438</ele>
        <time>2021-08-12T10:19:03.507Z</time>
      </trkpt>
      <trkpt lat="46.85226" lon="8.48371">
        <ele>2437</ele>
        <time>2021-08-12T10:19:04.507Z</time>
      </trkpt>
      <trkpt lat="46.85226" lon="8.4837">
        <ele>2437</ele>
        <time>2021-08-12T10:19:05.507Z</time>
      </trkpt>
      <trkpt lat="46.85225" lon="8.48368">
        <ele>2437</ele>
        <time>2021-08-12T10:19:06.507Z</time>
      </trkpt>
      <trkpt lat="46.85224" lon="8.48367">
        <ele>2437</ele>
        <time>2021-08-12T10:19:07.506Z</time>
      </trkpt>
      <trkpt lat="46.85223" lon="8.48365">
        <ele>2437</ele>
        <time>2021-08-12T10:19:08.507Z</time>
      </trkpt>
      <trkpt lat="46.85222" lon="8.48364">
        <ele>2436</ele>
        <time>2021-08-12T10:19:09.507Z</time>
      </trkpt>
      <trkpt lat="46.85222" lon="8.48364">
        <ele>2436</ele>
        <time>2021-08-12T10:19:10.506Z</time>
      </trkpt>
      <trkpt lat="46.85221" lon="8.48363">
        <ele>2436</ele>
        <time>2021-08-12T10:19:11.507Z</time>
      </trkpt>
      <trkpt lat="46.85221" lon="8.48362">
        <ele>2436</ele>
        <time>2021-08-12T10:19:12.507Z</time>
      </trkpt>
      <trkpt lat="46.8522" lon="8.48361">
        <ele>2436</ele>
        <time>2021-08-12T10:19:13.507Z</time>
      </trkpt>
      <trkpt lat="46.8522" lon="8.4836">
        <ele>2436</ele>
        <time>2021-08-12T10:19:14.507Z</time>
      </trkpt>
      <trkpt lat="46.85219" lon="8.4836">
        <ele>2436</ele>
        <time>2021-08-12T10:19:15.507Z</time>
      </trkpt>
      <trkpt lat="46.85219" lon="8.48359">
        <ele>2436</ele>
        <time>2021-08-12T10:19:16.507Z</time>
      </trkpt>
      <trkpt lat="46.85219" lon="8.48358">
        <ele>2435</ele>
        <time>2021-08-12T10:19:17.507Z</time>
      </trkpt>
      <trkpt lat="46.85218" lon="8.48356">
        <ele>2435</ele>
        <time>2021-08-12T10:19:18.506Z</time>
      </trkpt>
      <trkpt lat="46.85217" lon="8.48354">
        <ele>2435</ele>
        <time>2021-08-12T10:19:19.507Z</time>
      </trkpt>
      <trkpt lat="46.85217" lon="8.48353">
        <ele>2436</ele>
        <time>2021-08-12T10:19:20.506Z</time>
      </trkpt>
      <trkpt lat="46.85217" lon="8.48351">
        <ele>2436</ele>
        <time>2021-08-12T10:19:21.506Z</time>
      </trkpt>
      <trkpt lat="46.85217" lon="8.48349">
        <ele>2436</ele>
        <time>2021-08-12T10:19:22.506Z</time>
      </trkpt>
      <trkpt lat="46.85217" lon="8.48347">
        <ele>2437</ele>
        <time>2021-08-12T10:19:23.507Z</time>
      </trkpt>
      <trkpt lat="46.85217" lon="8.48346">
        <ele>2438</ele>
        <time>2021-08-12T10:19:24.507Z</time>
      </trkpt>
      <trkpt lat="46.85217" lon="8.48344">
        <ele>2439</ele>
        <time>2021-08-12T10:19:25.507Z</time>
      </trkpt>
      <trkpt lat="46.85216" lon="8.48342">
        <ele>2440</ele>
        <time>2021-08-12T10:19:26.506Z</time>
      </trkpt>
      <trkpt lat="46.85216" lon="8.48341">
        <ele>2441</ele>
        <time>2021-08-12T10:19:27.507Z</time>
      </trkpt>
      <trkpt lat="46.85216" lon="8.4834">
        <ele>2441</ele>
        <time>2021-08-12T10:19:28.507Z</time>
      </trkpt>
      <trkpt lat="46.85216" lon="8.48338">
        <ele>2442</ele>
        <time>2021-08-12T10:19:29.507Z</time>
      </trkpt>
      <trkpt lat="46.85216" lon="8.48337">
        <ele>2443</ele>
        <time>2021-08-12T10:19:30.506Z</time>
      </trkpt>
      <trkpt lat="46.85215" lon="8.48335">
        <ele>2443</ele>
        <time>2021-08-12T10:19:31.507Z</time>
      </trkpt>
      <trkpt lat="46.85215" lon="8.48334">
        <ele>2443</ele>
        <time>2021-08-12T10:19:32.507Z</time>
      </trkpt>
      <trkpt lat="46.85215" lon="8.48332">
        <ele>2443</ele>
        <time>2021-08-12T10:19:33.507Z</time>
      </trkpt>
      <trkpt lat="46.85215" lon="8.48331">
        <ele>2442</ele>
        <time>2021-08-12T10:19:34.507Z</time>
      </trkpt>
      <trkpt lat="46.85214" lon="8.4833">
        <ele>2442</ele>
        <time>2021-08-12T10:19:35.507Z</time>
      </trkpt>
      <trkpt lat="46.85214" lon="8.48328">
        <ele>2441</ele>
        <time>2021-08-12T10:19:36.507Z</time>
      </trkpt>
      <trkpt lat="46.85213" lon="8.48328">
        <ele>2441</ele>
        <time>2021-08-12T10:19:37.506Z</time>
      </trkpt>
      <trkpt lat="46.85213" lon="8.48325">
        <ele>2440</ele>
        <time>2021-08-12T10:19:38.507Z</time>
      </trkpt>
      <trkpt lat="46.85213" lon="8.48324">
        <ele>2439</ele>
        <time>2021-08-12T10:19:39.507Z</time>
      </trkpt>
      <trkpt lat="46.85212" lon="8.48322">
        <ele>2439</ele>
        <time>2021-08-12T10:19:40.506Z</time>
      </trkpt>
      <trkpt lat="46.85211" lon="8.4832">
        <ele>2439</ele>
        <time>2021-08-12T10:19:41.506Z</time>
      </trkpt>
      <trkpt lat="46.85211" lon="8.48319">
        <ele>2439</ele>
        <time>2021-08-12T10:19:42.506Z</time>
      </trkpt>
      <trkpt lat="46.8521" lon="8.48318">
        <ele>2439</ele>
        <time>2021-08-12T10:19:43.506Z</time>
      </trkpt>
      <trkpt lat="46.85209" lon="8.48317">
        <ele>2439</ele>
        <time>2021-08-12T10:19:44.506Z</time>
      </trkpt>
      <trkpt lat="46.85209" lon="8.48315">
        <ele>2438</ele>
        <time>2021-08-12T10:19:45.506Z</time>
      </trkpt>
      <trkpt lat="46.85209" lon="8.48313">
        <ele>2438</ele>
        <time>2021-08-12T10:19:46.506Z</time>
      </trkpt>
      <trkpt lat="46.85208" lon="8.48312">
        <ele>2438</ele>
        <time>2021-08-12T10:19:47.507Z</time>
      </trkpt>
      <trkpt lat="46.85207" lon="8.4831">
        <ele>2437</ele>
        <time>2021-08-12T10:19:48.507Z</time>
      </trkpt>
      <trkpt lat="46.85206" lon="8.48309">
        <ele>2437</ele>
        <time>2021-08-12T10:19:49.506Z</time>
      </trkpt>
      <trkpt lat="46.85206" lon="8.48308">
        <ele>2437</ele>
        <time>2021-08-12T10:19:50.507Z</time>
      </trkpt>
      <trkpt lat="46.85205" lon="8.48306">
        <ele>2437</ele>
        <time>2021-08-12T10:19:51.507Z</time>
      </trkpt>
      <trkpt lat="46.85205" lon="8.48305">
        <ele>2437</ele>
        <time>2021-08-12T10:19:52.506Z</time>
      </trkpt>
      <trkpt lat="46.85205" lon="8.48304">
        <ele>2437</ele>
        <time>2021-08-12T10:19:53.507Z</time>
      </trkpt>
      <trkpt lat="46.85205" lon="8.48303">
        <ele>2438</ele>
        <time>2021-08-12T10:19:54.507Z</time>
      </trkpt>
      <trkpt lat="46.85204" lon="8.48302">
        <ele>2438</ele>
        <time>2021-08-12T10:19:55.507Z</time>
      </trkpt>
      <trkpt lat="46.85203" lon="8.48301">
        <ele>2439</ele>
        <time>2021-08-12T10:19:56.506Z</time>
      </trkpt>
      <trkpt lat="46.85202" lon="8.483">
        <ele>2439</ele>
        <time>2021-08-12T10:19:57.507Z</time>
      </trkpt>
      <trkpt lat="46.85202" lon="8.48299">
        <ele>2440</ele>
        <time>2021-08-12T10:19:58.507Z</time>
      </trkpt>
      <trkpt lat="46.85201" lon="8.48298">
        <ele>2440</ele>
        <time>2021-08-12T10:19:59.507Z</time>
      </trkpt>
      <trkpt lat="46.852" lon="8.48297">
        <ele>2440</ele>
        <time>2021-08-12T10:20:00.507Z</time>
      </trkpt>
      <trkpt lat="46.85199" lon="8.48295">
        <ele>2440</ele>
        <time>2021-08-12T10:20:01.507Z</time>
      </trkpt>
      <trkpt lat="46.85199" lon="8.48294">
        <ele>2440</ele>
        <time>2021-08-12T10:20:02.507Z</time>
      </trkpt>
      <trkpt lat="46.85198" lon="8.48294">
        <ele>2439</ele>
        <time>2021-08-12T10:20:03.507Z</time>
      </trkpt>
      <trkpt lat="46.85198" lon="8.48293">
        <ele>2439</ele>
        <time>2021-08-12T10:20:04.507Z</time>
      </trkpt>
      <trkpt lat="46.85197" lon="8.48291">
        <ele>2439</ele>
        <time>2021-08-12T10:20:05.507Z</time>
      </trkpt>
      <trkpt lat="46.85197" lon="8.4829">
        <ele>2438</ele>
        <time>2021-08-12T10:20:06.507Z</time>
      </trkpt>
      <trkpt lat="46.85197" lon="8.48289">
        <ele>2438</ele>
        <time>2021-08-12T10:20:07.507Z</time>
      </trkpt>
      <trkpt lat="46.85196" lon="8.48288">
        <ele>2438</ele>
        <time>2021-08-12T10:20:08.507Z</time>
      </trkpt>
      <trkpt lat="46.85196" lon="8.48286">
        <ele>2438</ele>
        <time>2021-08-12T10:20:09.507Z</time>
      </trkpt>
      <trkpt lat="46.85196" lon="8.48286">
        <ele>2437</ele>
        <time>2021-08-12T10:20:10.507Z</time>
      </trkpt>
      <trkpt lat="46.85195" lon="8.48285">
        <ele>2437</ele>
        <time>2021-08-12T10:20:11.506Z</time>
      </trkpt>
      <trkpt lat="46.85195" lon="8.48284">
        <ele>2437</ele>
        <time>2021-08-12T10:20:12.507Z</time>
      </trkpt>
      <trkpt lat="46.85194" lon="8.48283">
        <ele>2437</ele>
        <time>2021-08-12T10:20:13.507Z</time>
      </trkpt>
      <trkpt lat="46.85194" lon="8.48282">
        <ele>2437</ele>
        <time>2021-08-12T10:20:14.506Z</time>
      </trkpt>
      <trkpt lat="46.85194" lon="8.48281">
        <ele>2437</ele>
        <time>2021-08-12T10:20:15.507Z</time>
      </trkpt>
      <trkpt lat="46.85194" lon="8.4828">
        <ele>2437</ele>
        <time>2021-08-12T10:20:16.507Z</time>
      </trkpt>
      <trkpt lat="46.85194" lon="8.48279">
        <ele>2437</ele>
        <time>2021-08-12T10:20:17.506Z</time>
      </trkpt>
      <trkpt lat="46.85193" lon="8.48278">
        <ele>2437</ele>
        <time>2021-08-12T10:20:18.506Z</time>
      </trkpt>
      <trkpt lat="46.85193" lon="8.48276">
        <ele>2437</ele>
        <time>2021-08-12T10:20:19.506Z</time>
      </trkpt>
      <trkpt lat="46.85194" lon="8.48276">
        <ele>2437</ele>
        <time>2021-08-12T10:20:20.507Z</time>
      </trkpt>
      <trkpt lat="46.85193" lon="8.48275">
        <ele>2437</ele>
        <time>2021-08-12T10:20:21.507Z</time>
      </trkpt>
      <trkpt lat="46.85193" lon="8.48274">
        <ele>2436</ele>
        <time>2021-08-12T10:20:22.506Z</time>
      </trkpt>
      <trkpt lat="46.85193" lon="8.48273">
        <ele>2435</ele>
        <time>2021-08-12T10:20:23.506Z</time>
      </trkpt>
      <trkpt lat="46.85193" lon="8.48272">
        <ele>2434</ele>
        <time>2021-08-12T10:20:24.507Z</time>
      </trkpt>
      <trkpt lat="46.85193" lon="8.48271">
        <ele>2433</ele>
        <time>2021-08-12T10:20:25.507Z</time>
      </trkpt>
      <trkpt lat="46.85193" lon="8.48271">
        <ele>2432</ele>
        <time>2021-08-12T10:20:26.507Z</time>
      </trkpt>
      <trkpt lat="46.85192" lon="8.4827">
        <ele>2432</ele>
        <time>2021-08-12T10:20:27.507Z</time>
      </trkpt>
      <trkpt lat="46.85191" lon="8.48268">
        <ele>2431</ele>
        <time>2021-08-12T10:20:28.506Z</time>
      </trkpt>
      <trkpt lat="46.85191" lon="8.48267">
        <ele>2430</ele>
        <time>2021-08-12T10:20:29.506Z</time>
      </trkpt>
      <trkpt lat="46.85191" lon="8.48265">
        <ele>2429</ele>
        <time>2021-08-12T10:20:30.507Z</time>
      </trkpt>
      <trkpt lat="46.85191" lon="8.48264">
        <ele>2428</ele>
        <time>2021-08-12T10:20:31.506Z</time>
      </trkpt>
      <trkpt lat="46.85191" lon="8.48263">
        <ele>2427</ele>
        <time>2021-08-12T10:20:32.507Z</time>
      </trkpt>
      <trkpt lat="46.85191" lon="8.48262">
        <ele>2426</ele>
        <time>2021-08-12T10:20:33.507Z</time>
      </trkpt>
      <trkpt lat="46.8519" lon="8.48261">
        <ele>2426</ele>
        <time>2021-08-12T10:20:34.507Z</time>
      </trkpt>
      <trkpt lat="46.8519" lon="8.48259">
        <ele>2425</ele>
        <time>2021-08-12T10:20:35.506Z</time>
      </trkpt>
      <trkpt lat="46.85189" lon="8.48258">
        <ele>2425</ele>
        <time>2021-08-12T10:20:36.507Z</time>
      </trkpt>
      <trkpt lat="46.85189" lon="8.48257">
        <ele>2425</ele>
        <time>2021-08-12T10:20:37.506Z</time>
      </trkpt>
      <trkpt lat="46.85189" lon="8.48255">
        <ele>2424</ele>
        <time>2021-08-12T10:20:38.506Z</time>
      </trkpt>
      <trkpt lat="46.85189" lon="8.48254">
        <ele>2423</ele>
        <time>2021-08-12T10:20:39.507Z</time>
      </trkpt>
      <trkpt lat="46.85188" lon="8.48252">
        <ele>2423</ele>
        <time>2021-08-12T10:20:40.507Z</time>
      </trkpt>
      <trkpt lat="46.85187" lon="8.48251">
        <ele>2423</ele>
        <time>2021-08-12T10:20:41.507Z</time>
      </trkpt>
      <trkpt lat="46.85186" lon="8.4825">
        <ele>2424</ele>
        <time>2021-08-12T10:20:42.507Z</time>
      </trkpt>
      <trkpt lat="46.85186" lon="8.48249">
        <ele>2424</ele>
        <time>2021-08-12T10:20:43.507Z</time>
      </trkpt>
      <trkpt lat="46.85185" lon="8.48248">
        <ele>2425</ele>
        <time>2021-08-12T10:20:44.507Z</time>
      </trkpt>
      <trkpt lat="46.85185" lon="8.48247">
        <ele>2425</ele>
        <time>2021-08-12T10:20:45.507Z</time>
      </trkpt>
      <trkpt lat="46.85185" lon="8.48246">
        <ele>2425</ele>
        <time>2021-08-12T10:20:46.506Z</time>
      </trkpt>
      <trkpt lat="46.85184" lon="8.48245">
        <ele>2424</ele>
        <time>2021-08-12T10:20:47.506Z</time>
      </trkpt>
      <trkpt lat="46.85184" lon="8.48242">
        <ele>2424</ele>
        <time>2021-08-12T10:20:48.507Z</time>
      </trkpt>
      <trkpt lat="46.85184" lon="8.4824">
        <ele>2424</ele>
        <time>2021-08-12T10:20:49.507Z</time>
      </trkpt>
      <trkpt lat="46.85184" lon="8.48238">
        <ele>2424</ele>
        <time>2021-08-12T10:20:50.507Z</time>
      </trkpt>
      <trkpt lat="46.85182" lon="8.48236">
        <ele>2425</ele>
        <time>2021-08-12T10:20:51.507Z</time>
      </trkpt>
      <trkpt lat="46.85182" lon="8.48235">
        <ele>2425</ele>
        <time>2021-08-12T10:20:52.507Z</time>
      </trkpt>
      <trkpt lat="46.85181" lon="8.48234">
        <ele>2425</ele>
        <time>2021-08-12T10:20:53.507Z</time>
      </trkpt>
      <trkpt lat="46.85181" lon="8.48233">
        <ele>2426</ele>
        <time>2021-08-12T10:20:54.506Z</time>
      </trkpt>
      <trkpt lat="46.85181" lon="8.48232">
        <ele>2427</ele>
        <time>2021-08-12T10:20:55.507Z</time>
      </trkpt>
      <trkpt lat="46.8518" lon="8.48231">
        <ele>2427</ele>
        <time>2021-08-12T10:20:56.506Z</time>
      </trkpt>
      <trkpt lat="46.8518" lon="8.4823">
        <ele>2427</ele>
        <time>2021-08-12T10:20:57.506Z</time>
      </trkpt>
      <trkpt lat="46.8518" lon="8.48228">
        <ele>2427</ele>
        <time>2021-08-12T10:20:58.506Z</time>
      </trkpt>
      <trkpt lat="46.8518" lon="8.48227">
        <ele>2427</ele>
        <time>2021-08-12T10:20:59.507Z</time>
      </trkpt>
      <trkpt lat="46.85179" lon="8.48226">
        <ele>2427</ele>
        <time>2021-08-12T10:21:00.507Z</time>
      </trkpt>
      <trkpt lat="46.85179" lon="8.48225">
        <ele>2427</ele>
        <time>2021-08-12T10:21:01.507Z</time>
      </trkpt>
      <trkpt lat="46.85178" lon="8.48225">
        <ele>2428</ele>
        <time>2021-08-12T10:21:02.507Z</time>
      </trkpt>
      <trkpt lat="46.85178" lon="8.48225">
        <ele>2428</ele>
        <time>2021-08-12T10:21:03.507Z</time>
      </trkpt>
      <trkpt lat="46.85178" lon="8.48224">
        <ele>2429</ele>
        <time>2021-08-12T10:21:04.506Z</time>
      </trkpt>
      <trkpt lat="46.85178" lon="8.48223">
        <ele>2429</ele>
        <time>2021-08-12T10:21:05.507Z</time>
      </trkpt>
      <trkpt lat="46.85178" lon="8.48222">
        <ele>2429</ele>
        <time>2021-08-12T10:21:06.507Z</time>
      </trkpt>
      <trkpt lat="46.85177" lon="8.48221">
        <ele>2429</ele>
        <time>2021-08-12T10:21:07.507Z</time>
      </trkpt>
      <trkpt lat="46.85177" lon="8.4822">
        <ele>2430</ele>
        <time>2021-08-12T10:21:08.506Z</time>
      </trkpt>
      <trkpt lat="46.85177" lon="8.48219">
        <ele>2430</ele>
        <time>2021-08-12T10:21:09.506Z</time>
      </trkpt>
      <trkpt lat="46.85176" lon="8.48218">
        <ele>2431</ele>
        <time>2021-08-12T10:21:10.507Z</time>
      </trkpt>
      <trkpt lat="46.85175" lon="8.48217">
        <ele>2432</ele>
        <time>2021-08-12T10:21:11.507Z</time>
      </trkpt>
      <trkpt lat="46.85175" lon="8.48216">
        <ele>2433</ele>
        <time>2021-08-12T10:21:12.507Z</time>
      </trkpt>
      <trkpt lat="46.85174" lon="8.48215">
        <ele>2433</ele>
        <time>2021-08-12T10:21:13.506Z</time>
      </trkpt>
      <trkpt lat="46.85174" lon="8.48213">
        <ele>2434</ele>
        <time>2021-08-12T10:21:14.507Z</time>
      </trkpt>
      <trkpt lat="46.85173" lon="8.48213">
        <ele>2434</ele>
        <time>2021-08-12T10:21:15.506Z</time>
      </trkpt>
      <trkpt lat="46.85173" lon="8.48212">
        <ele>2435</ele>
        <time>2021-08-12T10:21:16.507Z</time>
      </trkpt>
      <trkpt lat="46.85173" lon="8.4821">
        <ele>2436</ele>
        <time>2021-08-12T10:21:17.507Z</time>
      </trkpt>
      <trkpt lat="46.85172" lon="8.48209">
        <ele>2436</ele>
        <time>2021-08-12T10:21:18.507Z</time>
      </trkpt>
      <trkpt lat="46.85171" lon="8.48209">
        <ele>2437</ele>
        <time>2021-08-12T10:21:19.507Z</time>
      </trkpt>
      <trkpt lat="46.8517" lon="8.48208">
        <ele>2437</ele>
        <time>2021-08-12T10:21:20.507Z</time>
      </trkpt>
      <trkpt lat="46.8517" lon="8.48208">
        <ele>2437</ele>
        <time>2021-08-12T10:21:21.507Z</time>
      </trkpt>
      <trkpt lat="46.85169" lon="8.48207">
        <ele>2437</ele>
        <time>2021-08-12T10:21:22.506Z</time>
      </trkpt>
      <trkpt lat="46.85169" lon="8.48206">
        <ele>2437</ele>
        <time>2021-08-12T10:21:23.507Z</time>
      </trkpt>
      <trkpt lat="46.85169" lon="8.48205">
        <ele>2437</ele>
        <time>2021-08-12T10:21:24.507Z</time>
      </trkpt>
      <trkpt lat="46.85168" lon="8.48204">
        <ele>2437</ele>
        <time>2021-08-12T10:21:25.507Z</time>
      </trkpt>
      <trkpt lat="46.85168" lon="8.48204">
        <ele>2437</ele>
        <time>2021-08-12T10:21:26.506Z</time>
      </trkpt>
      <trkpt lat="46.85168" lon="8.48204">
        <ele>2437</ele>
        <time>2021-08-12T10:21:27.507Z</time>
      </trkpt>
      <trkpt lat="46.85168" lon="8.48205">
        <ele>2437</ele>
        <time>2021-08-12T10:21:28.506Z</time>
      </trkpt>
      <trkpt lat="46.85168" lon="8.48205">
        <ele>2436</ele>
        <time>2021-08-12T10:21:29.507Z</time>
      </trkpt>
      <trkpt lat="46.85167" lon="8.48206">
        <ele>2436</ele>
        <time>2021-08-12T10:21:30.506Z</time>
      </trkpt>
      <trkpt lat="46.85167" lon="8.48205">
        <ele>2435</ele>
        <time>2021-08-12T10:21:31.506Z</time>
      </trkpt>
      <trkpt lat="46.85166" lon="8.48203">
        <ele>2435</ele>
        <time>2021-08-12T10:21:32.506Z</time>
      </trkpt>
      <trkpt lat="46.85165" lon="8.48204">
        <ele>2435</ele>
        <time>2021-08-12T10:21:33.507Z</time>
      </trkpt>
      <trkpt lat="46.85164" lon="8.48204">
        <ele>2435</ele>
        <time>2021-08-12T10:21:34.507Z</time>
      </trkpt>
      <trkpt lat="46.85163" lon="8.48205">
        <ele>2435</ele>
        <time>2021-08-12T10:21:35.507Z</time>
      </trkpt>
      <trkpt lat="46.85163" lon="8.48205">
        <ele>2435</ele>
        <time>2021-08-12T10:21:36.507Z</time>
      </trkpt>
      <trkpt lat="46.85162" lon="8.48205">
        <ele>2435</ele>
        <time>2021-08-12T10:21:37.507Z</time>
      </trkpt>
      <trkpt lat="46.85161" lon="8.48205">
        <ele>2434</ele>
        <time>2021-08-12T10:21:38.507Z</time>
      </trkpt>
      <trkpt lat="46.8516" lon="8.48205">
        <ele>2434</ele>
        <time>2021-08-12T10:21:39.507Z</time>
      </trkpt>
      <trkpt lat="46.85159" lon="8.48205">
        <ele>2433</ele>
        <time>2021-08-12T10:21:40.507Z</time>
      </trkpt>
      <trkpt lat="46.85159" lon="8.48204">
        <ele>2433</ele>
        <time>2021-08-12T10:21:41.507Z</time>
      </trkpt>
      <trkpt lat="46.85159" lon="8.48204">
        <ele>2432</ele>
        <time>2021-08-12T10:21:42.507Z</time>
      </trkpt>
      <trkpt lat="46.85159" lon="8.48203">
        <ele>2431</ele>
        <time>2021-08-12T10:21:43.507Z</time>
      </trkpt>
      <trkpt lat="46.85159" lon="8.48202">
        <ele>2430</ele>
        <time>2021-08-12T10:21:44.507Z</time>
      </trkpt>
      <trkpt lat="46.85158" lon="8.48201">
        <ele>2430</ele>
        <time>2021-08-12T10:21:45.507Z</time>
      </trkpt>
      <trkpt lat="46.85158" lon="8.482">
        <ele>2430</ele>
        <time>2021-08-12T10:21:46.507Z</time>
      </trkpt>
      <trkpt lat="46.85158" lon="8.48199">
        <ele>2430</ele>
        <time>2021-08-12T10:21:47.507Z</time>
      </trkpt>
      <trkpt lat="46.85158" lon="8.48198">
        <ele>2429</ele>
        <time>2021-08-12T10:21:48.506Z</time>
      </trkpt>
      <trkpt lat="46.85158" lon="8.48196">
        <ele>2429</ele>
        <time>2021-08-12T10:21:49.506Z</time>
      </trkpt>
      <trkpt lat="46.85159" lon="8.48195">
        <ele>2428</ele>
        <time>2021-08-12T10:21:50.506Z</time>
      </trkpt>
      <trkpt lat="46.8516" lon="8.48194">
        <ele>2428</ele>
        <time>2021-08-12T10:21:51.506Z</time>
      </trkpt>
      <trkpt lat="46.85161" lon="8.48192">
        <ele>2428</ele>
        <time>2021-08-12T10:21:52.507Z</time>
      </trkpt>
      <trkpt lat="46.85162" lon="8.48192">
        <ele>2427</ele>
        <time>2021-08-12T10:21:53.507Z</time>
      </trkpt>
      <trkpt lat="46.85162" lon="8.4819">
        <ele>2427</ele>
        <time>2021-08-12T10:21:54.507Z</time>
      </trkpt>
      <trkpt lat="46.85162" lon="8.48189">
        <ele>2427</ele>
        <time>2021-08-12T10:21:55.506Z</time>
      </trkpt>
      <trkpt lat="46.85161" lon="8.48187">
        <ele>2426</ele>
        <time>2021-08-12T10:21:56.507Z</time>
      </trkpt>
      <trkpt lat="46.85161" lon="8.48187">
        <ele>2426</ele>
        <time>2021-08-12T10:21:57.507Z</time>
      </trkpt>
      <trkpt lat="46.85161" lon="8.48186">
        <ele>2427</ele>
        <time>2021-08-12T10:21:58.506Z</time>
      </trkpt>
      <trkpt lat="46.85161" lon="8.48186">
        <ele>2427</ele>
        <time>2021-08-12T10:21:59.507Z</time>
      </trkpt>
      <trkpt lat="46.8516" lon="8.48186">
        <ele>2427</ele>
        <time>2021-08-12T10:22:00.507Z</time>
      </trkpt>
      <trkpt lat="46.85159" lon="8.48186">
        <ele>2427</ele>
        <time>2021-08-12T10:22:01.506Z</time>
      </trkpt>
      <trkpt lat="46.85159" lon="8.48186">
        <ele>2428</ele>
        <time>2021-08-12T10:22:02.507Z</time>
      </trkpt>
      <trkpt lat="46.85161" lon="8.48187">
        <ele>2429</ele>
        <time>2021-08-12T10:22:03.507Z</time>
      </trkpt>
      <trkpt lat="46.85162" lon="8.48185">
        <ele>2429</ele>
        <time>2021-08-12T10:22:04.508Z</time>
      </trkpt>
      <trkpt lat="46.85162" lon="8.48183">
        <ele>2430</ele>
        <time>2021-08-12T10:22:05.508Z</time>
      </trkpt>
      <trkpt lat="46.85161" lon="8.48183">
        <ele>2430</ele>
        <time>2021-08-12T10:22:06.507Z</time>
      </trkpt>
      <trkpt lat="46.8516" lon="8.48183">
        <ele>2431</ele>
        <time>2021-08-12T10:22:07.508Z</time>
      </trkpt>
      <trkpt lat="46.85159" lon="8.48184">
        <ele>2431</ele>
        <time>2021-08-12T10:22:08.508Z</time>
      </trkpt>
      <trkpt lat="46.85159" lon="8.48184">
        <ele>2432</ele>
        <time>2021-08-12T10:22:09.508Z</time>
      </trkpt>
      <trkpt lat="46.85158" lon="8.48185">
        <ele>2432</ele>
        <time>2021-08-12T10:22:10.507Z</time>
      </trkpt>
      <trkpt lat="46.85158" lon="8.48185">
        <ele>2432</ele>
        <time>2021-08-12T10:22:11.507Z</time>
      </trkpt>
      <trkpt lat="46.85157" lon="8.48185">
        <ele>2431</ele>
        <time>2021-08-12T10:22:12.508Z</time>
      </trkpt>
      <trkpt lat="46.85156" lon="8.48186">
        <ele>2431</ele>
        <time>2021-08-12T10:22:13.508Z</time>
      </trkpt>
      <trkpt lat="46.85155" lon="8.48186">
        <ele>2431</ele>
        <time>2021-08-12T10:22:14.507Z</time>
      </trkpt>
      <trkpt lat="46.85155" lon="8.48186">
        <ele>2431</ele>
        <time>2021-08-12T10:22:15.507Z</time>
      </trkpt>
      <trkpt lat="46.85154" lon="8.48186">
        <ele>2430</ele>
        <time>2021-08-12T10:22:16.508Z</time>
      </trkpt>
      <trkpt lat="46.85153" lon="8.48186">
        <ele>2430</ele>
        <time>2021-08-12T10:22:17.507Z</time>
      </trkpt>
      <trkpt lat="46.85153" lon="8.48186">
        <ele>2430</ele>
        <time>2021-08-12T10:22:18.507Z</time>
      </trkpt>
      <trkpt lat="46.85152" lon="8.48185">
        <ele>2429</ele>
        <time>2021-08-12T10:22:19.508Z</time>
      </trkpt>
      <trkpt lat="46.85152" lon="8.48185">
        <ele>2429</ele>
        <time>2021-08-12T10:22:20.508Z</time>
      </trkpt>
      <trkpt lat="46.85152" lon="8.48185">
        <ele>2429</ele>
        <time>2021-08-12T10:22:21.508Z</time>
      </trkpt>
      <trkpt lat="46.85152" lon="8.48185">
        <ele>2429</ele>
        <time>2021-08-12T10:22:22.508Z</time>
      </trkpt>
      <trkpt lat="46.85152" lon="8.48185">
        <ele>2429</ele>
        <time>2021-08-12T10:22:23.508Z</time>
      </trkpt>
      <trkpt lat="46.85152" lon="8.48186">
        <ele>2429</ele>
        <time>2021-08-12T10:22:24.508Z</time>
      </trkpt>
      <trkpt lat="46.85155" lon="8.48186">
        <ele>2430</ele>
        <time>2021-08-12T10:22:25.507Z</time>
      </trkpt>
      <trkpt lat="46.85155" lon="8.48186">
        <ele>2430</ele>
        <time>2021-08-12T10:22:26.507Z</time>
      </trkpt>
      <trkpt lat="46.85155" lon="8.48185">
        <ele>2430</ele>
        <time>2021-08-12T10:22:27.508Z</time>
      </trkpt>
      <trkpt lat="46.85155" lon="8.48184">
        <ele>2429</ele>
        <time>2021-08-12T10:22:28.507Z</time>
      </trkpt>
      <trkpt lat="46.85155" lon="8.48183">
        <ele>2429</ele>
        <time>2021-08-12T10:22:29.507Z</time>
      </trkpt>
      <trkpt lat="46.85156" lon="8.48183">
        <ele>2428</ele>
        <time>2021-08-12T10:22:30.507Z</time>
      </trkpt>
      <trkpt lat="46.85156" lon="8.48182">
        <ele>2426</ele>
        <time>2021-08-12T10:22:31.507Z</time>
      </trkpt>
      <trkpt lat="46.85156" lon="8.48181">
        <ele>2426</ele>
        <time>2021-08-12T10:22:32.507Z</time>
      </trkpt>
      <trkpt lat="46.85156" lon="8.48181">
        <ele>2426</ele>
        <time>2021-08-12T10:22:33.508Z</time>
      </trkpt>
      <trkpt lat="46.85156" lon="8.48181">
        <ele>2426</ele>
        <time>2021-08-12T10:22:34.508Z</time>
      </trkpt>
      <trkpt lat="46.85151" lon="8.48184">
        <ele>2430</ele>
        <time>2021-08-12T10:22:35.509Z</time>
      </trkpt>
      <trkpt lat="46.85151" lon="8.48185">
        <ele>2430</ele>
        <time>2021-08-12T10:22:36.508Z</time>
      </trkpt>
      <trkpt lat="46.8515" lon="8.48191">
        <ele>2430</ele>
        <time>2021-08-12T10:22:37.508Z</time>
      </trkpt>
      <trkpt lat="46.8515" lon="8.48191">
        <ele>2430</ele>
        <time>2021-08-12T10:22:38.509Z</time>
      </trkpt>
      <trkpt lat="46.85151" lon="8.48191">
        <ele>2430</ele>
        <time>2021-08-12T10:22:39.508Z</time>
      </trkpt>
      <trkpt lat="46.85151" lon="8.48191">
        <ele>2430</ele>
        <time>2021-08-12T10:22:40.509Z</time>
      </trkpt>
      <trkpt lat="46.85153" lon="8.48179">
        <ele>2427</ele>
        <time>2021-08-12T10:22:41.510Z</time>
      </trkpt>
      <trkpt lat="46.85153" lon="8.48178">
        <ele>2427</ele>
        <time>2021-08-12T10:22:42.509Z</time>
      </trkpt>
      <trkpt lat="46.85153" lon="8.48177">
        <ele>2427</ele>
        <time>2021-08-12T10:22:43.509Z</time>
      </trkpt>
      <trkpt lat="46.85152" lon="8.48176">
        <ele>2427</ele>
        <time>2021-08-12T10:22:44.509Z</time>
      </trkpt>
      <trkpt lat="46.85152" lon="8.48174">
        <ele>2427</ele>
        <time>2021-08-12T10:22:45.509Z</time>
      </trkpt>
      <trkpt lat="46.85152" lon="8.48172">
        <ele>2427</ele>
        <time>2021-08-12T10:22:46.510Z</time>
      </trkpt>
      <trkpt lat="46.85152" lon="8.48171">
        <ele>2427</ele>
        <time>2021-08-12T10:22:47.510Z</time>
      </trkpt>
      <trkpt lat="46.85152" lon="8.48171">
        <ele>2427</ele>
        <time>2021-08-12T10:22:48.510Z</time>
      </trkpt>
      <trkpt lat="46.85153" lon="8.4817">
        <ele>2427</ele>
        <time>2021-08-12T10:22:49.510Z</time>
      </trkpt>
      <trkpt lat="46.85153" lon="8.48168">
        <ele>2427</ele>
        <time>2021-08-12T10:22:50.509Z</time>
      </trkpt>
      <trkpt lat="46.85155" lon="8.48167">
        <ele>2427</ele>
        <time>2021-08-12T10:22:51.510Z</time>
      </trkpt>
      <trkpt lat="46.85155" lon="8.48165">
        <ele>2427</ele>
        <time>2021-08-12T10:22:52.509Z</time>
      </trkpt>
      <trkpt lat="46.85155" lon="8.48163">
        <ele>2426</ele>
        <time>2021-08-12T10:22:53.510Z</time>
      </trkpt>
      <trkpt lat="46.85155" lon="8.48162">
        <ele>2426</ele>
        <time>2021-08-12T10:22:54.509Z</time>
      </trkpt>
      <trkpt lat="46.85155" lon="8.48161">
        <ele>2426</ele>
        <time>2021-08-12T10:22:55.509Z</time>
      </trkpt>
      <trkpt lat="46.85155" lon="8.4816">
        <ele>2425</ele>
        <time>2021-08-12T10:22:56.510Z</time>
      </trkpt>
      <trkpt lat="46.85155" lon="8.48159">
        <ele>2425</ele>
        <time>2021-08-12T10:22:57.510Z</time>
      </trkpt>
      <trkpt lat="46.85155" lon="8.48159">
        <ele>2425</ele>
        <time>2021-08-12T10:22:58.510Z</time>
      </trkpt>
      <trkpt lat="46.85155" lon="8.48158">
        <ele>2425</ele>
        <time>2021-08-12T10:22:59.509Z</time>
      </trkpt>
      <trkpt lat="46.85154" lon="8.48157">
        <ele>2425</ele>
        <time>2021-08-12T10:23:00.510Z</time>
      </trkpt>
      <trkpt lat="46.85154" lon="8.48156">
        <ele>2426</ele>
        <time>2021-08-12T10:23:01.510Z</time>
      </trkpt>
      <trkpt lat="46.85154" lon="8.48155">
        <ele>2426</ele>
        <time>2021-08-12T10:23:02.509Z</time>
      </trkpt>
      <trkpt lat="46.85154" lon="8.48154">
        <ele>2426</ele>
        <time>2021-08-12T10:23:03.509Z</time>
      </trkpt>
      <trkpt lat="46.85154" lon="8.48153">
        <ele>2427</ele>
        <time>2021-08-12T10:23:04.510Z</time>
      </trkpt>
      <trkpt lat="46.85153" lon="8.48151">
        <ele>2428</ele>
        <time>2021-08-12T10:23:05.509Z</time>
      </trkpt>
      <trkpt lat="46.85153" lon="8.48151">
        <ele>2428</ele>
        <time>2021-08-12T10:23:06.509Z</time>
      </trkpt>
      <trkpt lat="46.85152" lon="8.48151">
        <ele>2429</ele>
        <time>2021-08-12T10:23:07.510Z</time>
      </trkpt>
      <trkpt lat="46.85151" lon="8.48151">
        <ele>2430</ele>
        <time>2021-08-12T10:23:08.510Z</time>
      </trkpt>
      <trkpt lat="46.85151" lon="8.4815">
        <ele>2430</ele>
        <time>2021-08-12T10:23:09.510Z</time>
      </trkpt>
      <trkpt lat="46.85151" lon="8.48149">
        <ele>2431</ele>
        <time>2021-08-12T10:23:10.509Z</time>
      </trkpt>
      <trkpt lat="46.85151" lon="8.48148">
        <ele>2431</ele>
        <time>2021-08-12T10:23:11.510Z</time>
      </trkpt>
      <trkpt lat="46.85151" lon="8.48147">
        <ele>2432</ele>
        <time>2021-08-12T10:23:12.510Z</time>
      </trkpt>
      <trkpt lat="46.8515" lon="8.48147">
        <ele>2432</ele>
        <time>2021-08-12T10:23:13.510Z</time>
      </trkpt>
      <trkpt lat="46.8515" lon="8.48146">
        <ele>2433</ele>
        <time>2021-08-12T10:23:14.509Z</time>
      </trkpt>
      <trkpt lat="46.8515" lon="8.48146">
        <ele>2433</ele>
        <time>2021-08-12T10:23:15.509Z</time>
      </trkpt>
      <trkpt lat="46.85151" lon="8.48145">
        <ele>2433</ele>
        <time>2021-08-12T10:23:16.509Z</time>
      </trkpt>
      <trkpt lat="46.85151" lon="8.48144">
        <ele>2433</ele>
        <time>2021-08-12T10:23:17.510Z</time>
      </trkpt>
      <trkpt lat="46.8515" lon="8.48143">
        <ele>2433</ele>
        <time>2021-08-12T10:23:18.510Z</time>
      </trkpt>
      <trkpt lat="46.8515" lon="8.48142">
        <ele>2434</ele>
        <time>2021-08-12T10:23:19.510Z</time>
      </trkpt>
      <trkpt lat="46.8515" lon="8.48141">
        <ele>2434</ele>
        <time>2021-08-12T10:23:20.510Z</time>
      </trkpt>
      <trkpt lat="46.8515" lon="8.4814">
        <ele>2433</ele>
        <time>2021-08-12T10:23:21.510Z</time>
      </trkpt>
      <trkpt lat="46.8515" lon="8.48139">
        <ele>2433</ele>
        <time>2021-08-12T10:23:22.510Z</time>
      </trkpt>
      <trkpt lat="46.8515" lon="8.48138">
        <ele>2433</ele>
        <time>2021-08-12T10:23:23.509Z</time>
      </trkpt>
      <trkpt lat="46.8515" lon="8.48136">
        <ele>2433</ele>
        <time>2021-08-12T10:23:24.509Z</time>
      </trkpt>
      <trkpt lat="46.8515" lon="8.48134">
        <ele>2433</ele>
        <time>2021-08-12T10:23:25.509Z</time>
      </trkpt>
      <trkpt lat="46.85151" lon="8.48133">
        <ele>2434</ele>
        <time>2021-08-12T10:23:26.509Z</time>
      </trkpt>
      <trkpt lat="46.8515" lon="8.48132">
        <ele>2434</ele>
        <time>2021-08-12T10:23:27.509Z</time>
      </trkpt>
      <trkpt lat="46.8515" lon="8.4813">
        <ele>2435</ele>
        <time>2021-08-12T10:23:28.510Z</time>
      </trkpt>
      <trkpt lat="46.85149" lon="8.48129">
        <ele>2435</ele>
        <time>2021-08-12T10:23:29.510Z</time>
      </trkpt>
      <trkpt lat="46.85149" lon="8.48128">
        <ele>2436</ele>
        <time>2021-08-12T10:23:30.509Z</time>
      </trkpt>
      <trkpt lat="46.85148" lon="8.48126">
        <ele>2437</ele>
        <time>2021-08-12T10:23:31.509Z</time>
      </trkpt>
      <trkpt lat="46.85148" lon="8.48125">
        <ele>2438</ele>
        <time>2021-08-12T10:23:32.509Z</time>
      </trkpt>
      <trkpt lat="46.85148" lon="8.48123">
        <ele>2438</ele>
        <time>2021-08-12T10:23:33.510Z</time>
      </trkpt>
      <trkpt lat="46.85148" lon="8.48121">
        <ele>2438</ele>
        <time>2021-08-12T10:23:34.509Z</time>
      </trkpt>
      <trkpt lat="46.85148" lon="8.48119">
        <ele>2438</ele>
        <time>2021-08-12T10:23:35.510Z</time>
      </trkpt>
      <trkpt lat="46.85147" lon="8.48116">
        <ele>2438</ele>
        <time>2021-08-12T10:23:36.509Z</time>
      </trkpt>
      <trkpt lat="46.85147" lon="8.48115">
        <ele>2438</ele>
        <time>2021-08-12T10:23:37.510Z</time>
      </trkpt>
      <trkpt lat="46.85146" lon="8.48113">
        <ele>2438</ele>
        <time>2021-08-12T10:23:38.510Z</time>
      </trkpt>
      <trkpt lat="46.85146" lon="8.48111">
        <ele>2438</ele>
        <time>2021-08-12T10:23:39.509Z</time>
      </trkpt>
      <trkpt lat="46.85146" lon="8.4811">
        <ele>2438</ele>
        <time>2021-08-12T10:23:40.510Z</time>
      </trkpt>
      <trkpt lat="46.85146" lon="8.48108">
        <ele>2438</ele>
        <time>2021-08-12T10:23:41.509Z</time>
      </trkpt>
      <trkpt lat="46.85146" lon="8.48107">
        <ele>2438</ele>
        <time>2021-08-12T10:23:42.509Z</time>
      </trkpt>
      <trkpt lat="46.85146" lon="8.48106">
        <ele>2438</ele>
        <time>2021-08-12T10:23:43.510Z</time>
      </trkpt>
      <trkpt lat="46.85147" lon="8.48104">
        <ele>2438</ele>
        <time>2021-08-12T10:23:44.509Z</time>
      </trkpt>
      <trkpt lat="46.85147" lon="8.48104">
        <ele>2438</ele>
        <time>2021-08-12T10:23:45.509Z</time>
      </trkpt>
      <trkpt lat="46.85147" lon="8.48103">
        <ele>2438</ele>
        <time>2021-08-12T10:23:46.509Z</time>
      </trkpt>
      <trkpt lat="46.85147" lon="8.48103">
        <ele>2438</ele>
        <time>2021-08-12T10:23:47.510Z</time>
      </trkpt>
      <trkpt lat="46.85147" lon="8.48102">
        <ele>2438</ele>
        <time>2021-08-12T10:23:48.510Z</time>
      </trkpt>
      <trkpt lat="46.85147" lon="8.48101">
        <ele>2438</ele>
        <time>2021-08-12T10:23:49.510Z</time>
      </trkpt>
      <trkpt lat="46.85147" lon="8.481">
        <ele>2438</ele>
        <time>2021-08-12T10:23:50.509Z</time>
      </trkpt>
      <trkpt lat="46.85147" lon="8.48099">
        <ele>2438</ele>
        <time>2021-08-12T10:23:51.509Z</time>
      </trkpt>
      <trkpt lat="46.85148" lon="8.48098">
        <ele>2438</ele>
        <time>2021-08-12T10:23:52.509Z</time>
      </trkpt>
      <trkpt lat="46.85148" lon="8.48097">
        <ele>2438</ele>
        <time>2021-08-12T10:23:53.510Z</time>
      </trkpt>
      <trkpt lat="46.85148" lon="8.48095">
        <ele>2438</ele>
        <time>2021-08-12T10:23:54.510Z</time>
      </trkpt>
      <trkpt lat="46.85148" lon="8.48093">
        <ele>2437</ele>
        <time>2021-08-12T10:23:55.509Z</time>
      </trkpt>
      <trkpt lat="46.85149" lon="8.48091">
        <ele>2437</ele>
        <time>2021-08-12T10:23:56.510Z</time>
      </trkpt>
      <trkpt lat="46.85149" lon="8.48089">
        <ele>2437</ele>
        <time>2021-08-12T10:23:57.509Z</time>
      </trkpt>
      <trkpt lat="46.85149" lon="8.48088">
        <ele>2436</ele>
        <time>2021-08-12T10:23:58.509Z</time>
      </trkpt>
      <trkpt lat="46.85148" lon="8.48087">
        <ele>2436</ele>
        <time>2021-08-12T10:23:59.510Z</time>
      </trkpt>
      <trkpt lat="46.85148" lon="8.48086">
        <ele>2435</ele>
        <time>2021-08-12T10:24:00.510Z</time>
      </trkpt>
      <trkpt lat="46.85147" lon="8.48085">
        <ele>2435</ele>
        <time>2021-08-12T10:24:01.509Z</time>
      </trkpt>
      <trkpt lat="46.85147" lon="8.48084">
        <ele>2435</ele>
        <time>2021-08-12T10:24:02.509Z</time>
      </trkpt>
      <trkpt lat="46.85147" lon="8.48082">
        <ele>2435</ele>
        <time>2021-08-12T10:24:03.510Z</time>
      </trkpt>
      <trkpt lat="46.85146" lon="8.4808">
        <ele>2435</ele>
        <time>2021-08-12T10:24:04.510Z</time>
      </trkpt>
      <trkpt lat="46.85146" lon="8.48079">
        <ele>2435</ele>
        <time>2021-08-12T10:24:05.509Z</time>
      </trkpt>
      <trkpt lat="46.85146" lon="8.48079">
        <ele>2435</ele>
        <time>2021-08-12T10:24:06.510Z</time>
      </trkpt>
      <trkpt lat="46.85145" lon="8.48078">
        <ele>2435</ele>
        <time>2021-08-12T10:24:07.509Z</time>
      </trkpt>
      <trkpt lat="46.85145" lon="8.48076">
        <ele>2435</ele>
        <time>2021-08-12T10:24:08.509Z</time>
      </trkpt>
      <trkpt lat="46.85144" lon="8.48074">
        <ele>2435</ele>
        <time>2021-08-12T10:24:09.510Z</time>
      </trkpt>
      <trkpt lat="46.85144" lon="8.48072">
        <ele>2434</ele>
        <time>2021-08-12T10:24:10.509Z</time>
      </trkpt>
      <trkpt lat="46.85144" lon="8.48071">
        <ele>2434</ele>
        <time>2021-08-12T10:24:11.509Z</time>
      </trkpt>
      <trkpt lat="46.85144" lon="8.4807">
        <ele>2433</ele>
        <time>2021-08-12T10:24:12.509Z</time>
      </trkpt>
      <trkpt lat="46.85144" lon="8.48068">
        <ele>2433</ele>
        <time>2021-08-12T10:24:13.509Z</time>
      </trkpt>
      <trkpt lat="46.85145" lon="8.48066">
        <ele>2432</ele>
        <time>2021-08-12T10:24:14.509Z</time>
      </trkpt>
      <trkpt lat="46.85145" lon="8.48065">
        <ele>2432</ele>
        <time>2021-08-12T10:24:15.510Z</time>
      </trkpt>
      <trkpt lat="46.85145" lon="8.48063">
        <ele>2432</ele>
        <time>2021-08-12T10:24:16.509Z</time>
      </trkpt>
      <trkpt lat="46.85144" lon="8.48062">
        <ele>2432</ele>
        <time>2021-08-12T10:24:17.509Z</time>
      </trkpt>
      <trkpt lat="46.85144" lon="8.4806">
        <ele>2432</ele>
        <time>2021-08-12T10:24:18.510Z</time>
      </trkpt>
      <trkpt lat="46.85145" lon="8.48059">
        <ele>2433</ele>
        <time>2021-08-12T10:24:19.510Z</time>
      </trkpt>
      <trkpt lat="46.85145" lon="8.48057">
        <ele>2433</ele>
        <time>2021-08-12T10:24:20.509Z</time>
      </trkpt>
      <trkpt lat="46.85146" lon="8.48056">
        <ele>2433</ele>
        <time>2021-08-12T10:24:21.509Z</time>
      </trkpt>
      <trkpt lat="46.85146" lon="8.48055">
        <ele>2433</ele>
        <time>2021-08-12T10:24:22.510Z</time>
      </trkpt>
      <trkpt lat="46.85146" lon="8.48054">
        <ele>2432</ele>
        <time>2021-08-12T10:24:23.510Z</time>
      </trkpt>
      <trkpt lat="46.85147" lon="8.48054">
        <ele>2432</ele>
        <time>2021-08-12T10:24:24.509Z</time>
      </trkpt>
      <trkpt lat="46.85146" lon="8.48053">
        <ele>2432</ele>
        <time>2021-08-12T10:24:25.509Z</time>
      </trkpt>
      <trkpt lat="46.85146" lon="8.48052">
        <ele>2432</ele>
        <time>2021-08-12T10:24:26.509Z</time>
      </trkpt>
      <trkpt lat="46.85146" lon="8.48051">
        <ele>2432</ele>
        <time>2021-08-12T10:24:27.509Z</time>
      </trkpt>
      <trkpt lat="46.85145" lon="8.4805">
        <ele>2432</ele>
        <time>2021-08-12T10:24:28.509Z</time>
      </trkpt>
      <trkpt lat="46.85145" lon="8.48048">
        <ele>2432</ele>
        <time>2021-08-12T10:24:29.509Z</time>
      </trkpt>
      <trkpt lat="46.85144" lon="8.48047">
        <ele>2431</ele>
        <time>2021-08-12T10:24:30.509Z</time>
      </trkpt>
      <trkpt lat="46.85143" lon="8.48044">
        <ele>2431</ele>
        <time>2021-08-12T10:24:31.509Z</time>
      </trkpt>
      <trkpt lat="46.85143" lon="8.48043">
        <ele>2431</ele>
        <time>2021-08-12T10:24:32.509Z</time>
      </trkpt>
      <trkpt lat="46.85142" lon="8.48041">
        <ele>2431</ele>
        <time>2021-08-12T10:24:33.509Z</time>
      </trkpt>
      <trkpt lat="46.85141" lon="8.48039">
        <ele>2430</ele>
        <time>2021-08-12T10:24:34.509Z</time>
      </trkpt>
      <trkpt lat="46.85141" lon="8.48037">
        <ele>2430</ele>
        <time>2021-08-12T10:24:35.510Z</time>
      </trkpt>
      <trkpt lat="46.85141" lon="8.48036">
        <ele>2430</ele>
        <time>2021-08-12T10:24:36.510Z</time>
      </trkpt>
      <trkpt lat="46.8514" lon="8.48035">
        <ele>2429</ele>
        <time>2021-08-12T10:24:37.509Z</time>
      </trkpt>
      <trkpt lat="46.8514" lon="8.48034">
        <ele>2429</ele>
        <time>2021-08-12T10:24:38.509Z</time>
      </trkpt>
      <trkpt lat="46.85141" lon="8.48033">
        <ele>2428</ele>
        <time>2021-08-12T10:24:39.509Z</time>
      </trkpt>
      <trkpt lat="46.8514" lon="8.48031">
        <ele>2428</ele>
        <time>2021-08-12T10:24:40.510Z</time>
      </trkpt>
      <trkpt lat="46.8514" lon="8.4803">
        <ele>2428</ele>
        <time>2021-08-12T10:24:41.510Z</time>
      </trkpt>
      <trkpt lat="46.85139" lon="8.48029">
        <ele>2428</ele>
        <time>2021-08-12T10:24:42.509Z</time>
      </trkpt>
      <trkpt lat="46.85139" lon="8.48028">
        <ele>2428</ele>
        <time>2021-08-12T10:24:43.509Z</time>
      </trkpt>
      <trkpt lat="46.85138" lon="8.48027">
        <ele>2428</ele>
        <time>2021-08-12T10:24:44.510Z</time>
      </trkpt>
      <trkpt lat="46.85138" lon="8.48025">
        <ele>2427</ele>
        <time>2021-08-12T10:24:45.510Z</time>
      </trkpt>
      <trkpt lat="46.85139" lon="8.48024">
        <ele>2427</ele>
        <time>2021-08-12T10:24:46.510Z</time>
      </trkpt>
      <trkpt lat="46.85138" lon="8.48023">
        <ele>2427</ele>
        <time>2021-08-12T10:24:47.510Z</time>
      </trkpt>
      <trkpt lat="46.85138" lon="8.48021">
        <ele>2427</ele>
        <time>2021-08-12T10:24:48.510Z</time>
      </trkpt>
      <trkpt lat="46.85139" lon="8.4802">
        <ele>2427</ele>
        <time>2021-08-12T10:24:49.509Z</time>
      </trkpt>
      <trkpt lat="46.85139" lon="8.48019">
        <ele>2428</ele>
        <time>2021-08-12T10:24:50.510Z</time>
      </trkpt>
      <trkpt lat="46.85139" lon="8.48018">
        <ele>2428</ele>
        <time>2021-08-12T10:24:51.510Z</time>
      </trkpt>
      <trkpt lat="46.85139" lon="8.48016">
        <ele>2428</ele>
        <time>2021-08-12T10:24:52.510Z</time>
      </trkpt>
      <trkpt lat="46.8514" lon="8.48014">
        <ele>2428</ele>
        <time>2021-08-12T10:24:53.510Z</time>
      </trkpt>
      <trkpt lat="46.8514" lon="8.48013">
        <ele>2428</ele>
        <time>2021-08-12T10:24:54.509Z</time>
      </trkpt>
      <trkpt lat="46.8514" lon="8.48012">
        <ele>2428</ele>
        <time>2021-08-12T10:24:55.509Z</time>
      </trkpt>
      <trkpt lat="46.8514" lon="8.48011">
        <ele>2427</ele>
        <time>2021-08-12T10:24:56.510Z</time>
      </trkpt>
      <trkpt lat="46.8514" lon="8.4801">
        <ele>2427</ele>
        <time>2021-08-12T10:24:57.509Z</time>
      </trkpt>
      <trkpt lat="46.8514" lon="8.48008">
        <ele>2427</ele>
        <time>2021-08-12T10:24:58.510Z</time>
      </trkpt>
      <trkpt lat="46.8514" lon="8.48007">
        <ele>2427</ele>
        <time>2021-08-12T10:24:59.510Z</time>
      </trkpt>
      <trkpt lat="46.8514" lon="8.48006">
        <ele>2426</ele>
        <time>2021-08-12T10:25:00.509Z</time>
      </trkpt>
      <trkpt lat="46.8514" lon="8.48004">
        <ele>2426</ele>
        <time>2021-08-12T10:25:01.509Z</time>
      </trkpt>
      <trkpt lat="46.85139" lon="8.48003">
        <ele>2425</ele>
        <time>2021-08-12T10:25:02.510Z</time>
      </trkpt>
      <trkpt lat="46.85138" lon="8.48001">
        <ele>2425</ele>
        <time>2021-08-12T10:25:03.510Z</time>
      </trkpt>
      <trkpt lat="46.85138" lon="8.48">
        <ele>2425</ele>
        <time>2021-08-12T10:25:04.509Z</time>
      </trkpt>
      <trkpt lat="46.85137" lon="8.47998">
        <ele>2425</ele>
        <time>2021-08-12T10:25:05.510Z</time>
      </trkpt>
      <trkpt lat="46.85137" lon="8.47997">
        <ele>2425</ele>
        <time>2021-08-12T10:25:06.510Z</time>
      </trkpt>
      <trkpt lat="46.85137" lon="8.47995">
        <ele>2425</ele>
        <time>2021-08-12T10:25:07.509Z</time>
      </trkpt>
      <trkpt lat="46.85136" lon="8.47994">
        <ele>2425</ele>
        <time>2021-08-12T10:25:08.510Z</time>
      </trkpt>
      <trkpt lat="46.85136" lon="8.47992">
        <ele>2426</ele>
        <time>2021-08-12T10:25:09.510Z</time>
      </trkpt>
      <trkpt lat="46.85136" lon="8.47991">
        <ele>2425</ele>
        <time>2021-08-12T10:25:10.509Z</time>
      </trkpt>
      <trkpt lat="46.85136" lon="8.4799">
        <ele>2425</ele>
        <time>2021-08-12T10:25:11.509Z</time>
      </trkpt>
      <trkpt lat="46.85136" lon="8.47989">
        <ele>2426</ele>
        <time>2021-08-12T10:25:12.509Z</time>
      </trkpt>
      <trkpt lat="46.85136" lon="8.47988">
        <ele>2426</ele>
        <time>2021-08-12T10:25:13.510Z</time>
      </trkpt>
      <trkpt lat="46.85136" lon="8.47989">
        <ele>2426</ele>
        <time>2021-08-12T10:25:14.510Z</time>
      </trkpt>
      <trkpt lat="46.85135" lon="8.47992">
        <ele>2427</ele>
        <time>2021-08-12T10:25:15.511Z</time>
      </trkpt>
      <trkpt lat="46.85135" lon="8.47992">
        <ele>2426</ele>
        <time>2021-08-12T10:25:16.510Z</time>
      </trkpt>
      <trkpt lat="46.85135" lon="8.47991">
        <ele>2425</ele>
        <time>2021-08-12T10:25:17.510Z</time>
      </trkpt>
      <trkpt lat="46.85134" lon="8.4799">
        <ele>2421</ele>
        <time>2021-08-12T10:25:18.510Z</time>
      </trkpt>
      <trkpt lat="46.85134" lon="8.47989">
        <ele>2420</ele>
        <time>2021-08-12T10:25:19.512Z</time>
      </trkpt>
      <trkpt lat="46.85133" lon="8.47989">
        <ele>2419</ele>
        <time>2021-08-12T10:25:20.512Z</time>
      </trkpt>
      <trkpt lat="46.85133" lon="8.47989">
        <ele>2418</ele>
        <time>2021-08-12T10:25:21.512Z</time>
      </trkpt>
      <trkpt lat="46.85133" lon="8.47988">
        <ele>2418</ele>
        <time>2021-08-12T10:25:22.512Z</time>
      </trkpt>
      <trkpt lat="46.85133" lon="8.47988">
        <ele>2418</ele>
        <time>2021-08-12T10:25:23.512Z</time>
      </trkpt>
      <trkpt lat="46.85133" lon="8.47987">
        <ele>2418</ele>
        <time>2021-08-12T10:25:24.511Z</time>
      </trkpt>
      <trkpt lat="46.85132" lon="8.47986">
        <ele>2418</ele>
        <time>2021-08-12T10:25:25.511Z</time>
      </trkpt>
      <trkpt lat="46.85132" lon="8.47985">
        <ele>2418</ele>
        <time>2021-08-12T10:25:26.512Z</time>
      </trkpt>
      <trkpt lat="46.85132" lon="8.47983">
        <ele>2417</ele>
        <time>2021-08-12T10:25:27.512Z</time>
      </trkpt>
      <trkpt lat="46.85131" lon="8.47983">
        <ele>2417</ele>
        <time>2021-08-12T10:25:28.511Z</time>
      </trkpt>
      <trkpt lat="46.85131" lon="8.47982">
        <ele>2417</ele>
        <time>2021-08-12T10:25:29.512Z</time>
      </trkpt>
      <trkpt lat="46.85131" lon="8.47982">
        <ele>2417</ele>
        <time>2021-08-12T10:25:30.511Z</time>
      </trkpt>
      <trkpt lat="46.85131" lon="8.47982">
        <ele>2417</ele>
        <time>2021-08-12T10:25:31.512Z</time>
      </trkpt>
      <trkpt lat="46.85131" lon="8.47981">
        <ele>2417</ele>
        <time>2021-08-12T10:25:32.512Z</time>
      </trkpt>
      <trkpt lat="46.85132" lon="8.47981">
        <ele>2417</ele>
        <time>2021-08-12T10:25:33.513Z</time>
      </trkpt>
      <trkpt lat="46.85132" lon="8.4798">
        <ele>2416</ele>
        <time>2021-08-12T10:25:34.512Z</time>
      </trkpt>
      <trkpt lat="46.85133" lon="8.4798">
        <ele>2416</ele>
        <time>2021-08-12T10:25:35.513Z</time>
      </trkpt>
      <trkpt lat="46.85134" lon="8.47979">
        <ele>2416</ele>
        <time>2021-08-12T10:25:36.512Z</time>
      </trkpt>
      <trkpt lat="46.85135" lon="8.47978">
        <ele>2416</ele>
        <time>2021-08-12T10:25:37.512Z</time>
      </trkpt>
      <trkpt lat="46.85134" lon="8.47977">
        <ele>2415</ele>
        <time>2021-08-12T10:25:38.512Z</time>
      </trkpt>
      <trkpt lat="46.85134" lon="8.47976">
        <ele>2415</ele>
        <time>2021-08-12T10:25:39.512Z</time>
      </trkpt>
      <trkpt lat="46.85134" lon="8.47975">
        <ele>2415</ele>
        <time>2021-08-12T10:25:40.512Z</time>
      </trkpt>
      <trkpt lat="46.85133" lon="8.47975">
        <ele>2415</ele>
        <time>2021-08-12T10:25:41.512Z</time>
      </trkpt>
      <trkpt lat="46.85133" lon="8.47974">
        <ele>2415</ele>
        <time>2021-08-12T10:25:42.512Z</time>
      </trkpt>
      <trkpt lat="46.85133" lon="8.47973">
        <ele>2415</ele>
        <time>2021-08-12T10:25:43.512Z</time>
      </trkpt>
      <trkpt lat="46.85132" lon="8.47973">
        <ele>2415</ele>
        <time>2021-08-12T10:25:44.512Z</time>
      </trkpt>
      <trkpt lat="46.85132" lon="8.47971">
        <ele>2415</ele>
        <time>2021-08-12T10:25:45.512Z</time>
      </trkpt>
      <trkpt lat="46.85132" lon="8.4797">
        <ele>2415</ele>
        <time>2021-08-12T10:25:46.512Z</time>
      </trkpt>
      <trkpt lat="46.85132" lon="8.47969">
        <ele>2415</ele>
        <time>2021-08-12T10:25:47.512Z</time>
      </trkpt>
      <trkpt lat="46.85131" lon="8.47968">
        <ele>2415</ele>
        <time>2021-08-12T10:25:48.512Z</time>
      </trkpt>
      <trkpt lat="46.85131" lon="8.47968">
        <ele>2415</ele>
        <time>2021-08-12T10:25:49.512Z</time>
      </trkpt>
      <trkpt lat="46.85131" lon="8.47967">
        <ele>2414</ele>
        <time>2021-08-12T10:25:50.512Z</time>
      </trkpt>
      <trkpt lat="46.85131" lon="8.47966">
        <ele>2415</ele>
        <time>2021-08-12T10:25:51.512Z</time>
      </trkpt>
      <trkpt lat="46.85131" lon="8.47964">
        <ele>2414</ele>
        <time>2021-08-12T10:25:52.512Z</time>
      </trkpt>
      <trkpt lat="46.85131" lon="8.47963">
        <ele>2414</ele>
        <time>2021-08-12T10:25:53.512Z</time>
      </trkpt>
      <trkpt lat="46.85131" lon="8.47962">
        <ele>2414</ele>
        <time>2021-08-12T10:25:54.513Z</time>
      </trkpt>
      <trkpt lat="46.85131" lon="8.47961">
        <ele>2414</ele>
        <time>2021-08-12T10:25:55.513Z</time>
      </trkpt>
      <trkpt lat="46.8513" lon="8.47959">
        <ele>2414</ele>
        <time>2021-08-12T10:25:56.512Z</time>
      </trkpt>
      <trkpt lat="46.8513" lon="8.47958">
        <ele>2414</ele>
        <time>2021-08-12T10:25:57.512Z</time>
      </trkpt>
      <trkpt lat="46.8513" lon="8.47957">
        <ele>2414</ele>
        <time>2021-08-12T10:25:58.512Z</time>
      </trkpt>
      <trkpt lat="46.8513" lon="8.47956">
        <ele>2413</ele>
        <time>2021-08-12T10:25:59.512Z</time>
      </trkpt>
      <trkpt lat="46.8513" lon="8.47955">
        <ele>2413</ele>
        <time>2021-08-12T10:26:00.512Z</time>
      </trkpt>
      <trkpt lat="46.8513" lon="8.47954">
        <ele>2414</ele>
        <time>2021-08-12T10:26:01.512Z</time>
      </trkpt>
      <trkpt lat="46.8513" lon="8.47952">
        <ele>2415</ele>
        <time>2021-08-12T10:26:02.512Z</time>
      </trkpt>
      <trkpt lat="46.8513" lon="8.47951">
        <ele>2414</ele>
        <time>2021-08-12T10:26:03.512Z</time>
      </trkpt>
      <trkpt lat="46.8513" lon="8.4795">
        <ele>2414</ele>
        <time>2021-08-12T10:26:04.513Z</time>
      </trkpt>
      <trkpt lat="46.8513" lon="8.47948">
        <ele>2414</ele>
        <time>2021-08-12T10:26:05.512Z</time>
      </trkpt>
      <trkpt lat="46.8513" lon="8.47947">
        <ele>2414</ele>
        <time>2021-08-12T10:26:06.512Z</time>
      </trkpt>
      <trkpt lat="46.85129" lon="8.47946">
        <ele>2414</ele>
        <time>2021-08-12T10:26:07.512Z</time>
      </trkpt>
      <trkpt lat="46.85129" lon="8.47945">
        <ele>2414</ele>
        <time>2021-08-12T10:26:08.512Z</time>
      </trkpt>
      <trkpt lat="46.85128" lon="8.47944">
        <ele>2414</ele>
        <time>2021-08-12T10:26:09.512Z</time>
      </trkpt>
      <trkpt lat="46.85127" lon="8.47942">
        <ele>2414</ele>
        <time>2021-08-12T10:26:10.513Z</time>
      </trkpt>
      <trkpt lat="46.85126" lon="8.47941">
        <ele>2413</ele>
        <time>2021-08-12T10:26:11.512Z</time>
      </trkpt>
      <trkpt lat="46.85126" lon="8.47939">
        <ele>2413</ele>
        <time>2021-08-12T10:26:12.512Z</time>
      </trkpt>
      <trkpt lat="46.85125" lon="8.47938">
        <ele>2413</ele>
        <time>2021-08-12T10:26:13.512Z</time>
      </trkpt>
      <trkpt lat="46.85124" lon="8.47936">
        <ele>2413</ele>
        <time>2021-08-12T10:26:14.513Z</time>
      </trkpt>
      <trkpt lat="46.85123" lon="8.47935">
        <ele>2413</ele>
        <time>2021-08-12T10:26:15.513Z</time>
      </trkpt>
      <trkpt lat="46.85123" lon="8.47935">
        <ele>2413</ele>
        <time>2021-08-12T10:26:16.513Z</time>
      </trkpt>
      <trkpt lat="46.85122" lon="8.47934">
        <ele>2413</ele>
        <time>2021-08-12T10:26:17.513Z</time>
      </trkpt>
      <trkpt lat="46.85122" lon="8.47933">
        <ele>2413</ele>
        <time>2021-08-12T10:26:18.512Z</time>
      </trkpt>
      <trkpt lat="46.85121" lon="8.47932">
        <ele>2412</ele>
        <time>2021-08-12T10:26:19.512Z</time>
      </trkpt>
      <trkpt lat="46.85121" lon="8.47931">
        <ele>2412</ele>
        <time>2021-08-12T10:26:20.512Z</time>
      </trkpt>
      <trkpt lat="46.8512" lon="8.4793">
        <ele>2412</ele>
        <time>2021-08-12T10:26:21.512Z</time>
      </trkpt>
      <trkpt lat="46.8512" lon="8.47928">
        <ele>2413</ele>
        <time>2021-08-12T10:26:22.513Z</time>
      </trkpt>
      <trkpt lat="46.8512" lon="8.47927">
        <ele>2413</ele>
        <time>2021-08-12T10:26:23.512Z</time>
      </trkpt>
      <trkpt lat="46.8512" lon="8.47926">
        <ele>2413</ele>
        <time>2021-08-12T10:26:24.513Z</time>
      </trkpt>
      <trkpt lat="46.85119" lon="8.47924">
        <ele>2413</ele>
        <time>2021-08-12T10:26:25.512Z</time>
      </trkpt>
      <trkpt lat="46.85119" lon="8.47922">
        <ele>2413</ele>
        <time>2021-08-12T10:26:26.513Z</time>
      </trkpt>
      <trkpt lat="46.85119" lon="8.47921">
        <ele>2413</ele>
        <time>2021-08-12T10:26:27.512Z</time>
      </trkpt>
      <trkpt lat="46.85119" lon="8.47919">
        <ele>2413</ele>
        <time>2021-08-12T10:26:28.512Z</time>
      </trkpt>
      <trkpt lat="46.85119" lon="8.47917">
        <ele>2413</ele>
        <time>2021-08-12T10:26:29.512Z</time>
      </trkpt>
      <trkpt lat="46.85118" lon="8.47916">
        <ele>2412</ele>
        <time>2021-08-12T10:26:30.513Z</time>
      </trkpt>
      <trkpt lat="46.85118" lon="8.47914">
        <ele>2412</ele>
        <time>2021-08-12T10:26:31.512Z</time>
      </trkpt>
      <trkpt lat="46.85117" lon="8.47912">
        <ele>2412</ele>
        <time>2021-08-12T10:26:32.513Z</time>
      </trkpt>
      <trkpt lat="46.85117" lon="8.47911">
        <ele>2412</ele>
        <time>2021-08-12T10:26:33.513Z</time>
      </trkpt>
      <trkpt lat="46.85116" lon="8.4791">
        <ele>2412</ele>
        <time>2021-08-12T10:26:34.512Z</time>
      </trkpt>
      <trkpt lat="46.85116" lon="8.47909">
        <ele>2412</ele>
        <time>2021-08-12T10:26:35.512Z</time>
      </trkpt>
      <trkpt lat="46.85116" lon="8.47907">
        <ele>2413</ele>
        <time>2021-08-12T10:26:36.512Z</time>
      </trkpt>
      <trkpt lat="46.85116" lon="8.47906">
        <ele>2413</ele>
        <time>2021-08-12T10:26:37.512Z</time>
      </trkpt>
      <trkpt lat="46.85116" lon="8.47904">
        <ele>2413</ele>
        <time>2021-08-12T10:26:38.513Z</time>
      </trkpt>
      <trkpt lat="46.85115" lon="8.47903">
        <ele>2413</ele>
        <time>2021-08-12T10:26:39.513Z</time>
      </trkpt>
      <trkpt lat="46.85115" lon="8.47902">
        <ele>2413</ele>
        <time>2021-08-12T10:26:40.513Z</time>
      </trkpt>
      <trkpt lat="46.85115" lon="8.479">
        <ele>2413</ele>
        <time>2021-08-12T10:26:41.512Z</time>
      </trkpt>
      <trkpt lat="46.85114" lon="8.47899">
        <ele>2412</ele>
        <time>2021-08-12T10:26:42.512Z</time>
      </trkpt>
      <trkpt lat="46.85114" lon="8.47897">
        <ele>2412</ele>
        <time>2021-08-12T10:26:43.513Z</time>
      </trkpt>
      <trkpt lat="46.85114" lon="8.47895">
        <ele>2411</ele>
        <time>2021-08-12T10:26:44.512Z</time>
      </trkpt>
      <trkpt lat="46.85114" lon="8.47894">
        <ele>2411</ele>
        <time>2021-08-12T10:26:45.512Z</time>
      </trkpt>
      <trkpt lat="46.85114" lon="8.47892">
        <ele>2411</ele>
        <time>2021-08-12T10:26:46.512Z</time>
      </trkpt>
      <trkpt lat="46.85114" lon="8.47891">
        <ele>2410</ele>
        <time>2021-08-12T10:26:47.512Z</time>
      </trkpt>
      <trkpt lat="46.85114" lon="8.4789">
        <ele>2409</ele>
        <time>2021-08-12T10:26:48.512Z</time>
      </trkpt>
      <trkpt lat="46.85114" lon="8.47888">
        <ele>2408</ele>
        <time>2021-08-12T10:26:49.512Z</time>
      </trkpt>
      <trkpt lat="46.85115" lon="8.47887">
        <ele>2407</ele>
        <time>2021-08-12T10:26:50.512Z</time>
      </trkpt>
      <trkpt lat="46.85116" lon="8.47886">
        <ele>2406</ele>
        <time>2021-08-12T10:26:51.512Z</time>
      </trkpt>
      <trkpt lat="46.85116" lon="8.47884">
        <ele>2406</ele>
        <time>2021-08-12T10:26:52.513Z</time>
      </trkpt>
      <trkpt lat="46.85115" lon="8.47883">
        <ele>2405</ele>
        <time>2021-08-12T10:26:53.512Z</time>
      </trkpt>
      <trkpt lat="46.85115" lon="8.47881">
        <ele>2405</ele>
        <time>2021-08-12T10:26:54.513Z</time>
      </trkpt>
      <trkpt lat="46.85115" lon="8.4788">
        <ele>2405</ele>
        <time>2021-08-12T10:26:55.512Z</time>
      </trkpt>
      <trkpt lat="46.85114" lon="8.47878">
        <ele>2405</ele>
        <time>2021-08-12T10:26:56.512Z</time>
      </trkpt>
      <trkpt lat="46.85114" lon="8.47877">
        <ele>2405</ele>
        <time>2021-08-12T10:26:57.513Z</time>
      </trkpt>
      <trkpt lat="46.85113" lon="8.47875">
        <ele>2405</ele>
        <time>2021-08-12T10:26:58.513Z</time>
      </trkpt>
      <trkpt lat="46.85113" lon="8.47874">
        <ele>2406</ele>
        <time>2021-08-12T10:26:59.513Z</time>
      </trkpt>
      <trkpt lat="46.85112" lon="8.47873">
        <ele>2405</ele>
        <time>2021-08-12T10:27:00.512Z</time>
      </trkpt>
      <trkpt lat="46.85112" lon="8.47871">
        <ele>2405</ele>
        <time>2021-08-12T10:27:01.512Z</time>
      </trkpt>
      <trkpt lat="46.85112" lon="8.47869">
        <ele>2404</ele>
        <time>2021-08-12T10:27:02.513Z</time>
      </trkpt>
      <trkpt lat="46.85112" lon="8.47867">
        <ele>2404</ele>
        <time>2021-08-12T10:27:03.512Z</time>
      </trkpt>
      <trkpt lat="46.85112" lon="8.47865">
        <ele>2404</ele>
        <time>2021-08-12T10:27:04.513Z</time>
      </trkpt>
      <trkpt lat="46.85112" lon="8.47863">
        <ele>2404</ele>
        <time>2021-08-12T10:27:05.513Z</time>
      </trkpt>
      <trkpt lat="46.85112" lon="8.47861">
        <ele>2403</ele>
        <time>2021-08-12T10:27:06.513Z</time>
      </trkpt>
      <trkpt lat="46.85112" lon="8.47859">
        <ele>2403</ele>
        <time>2021-08-12T10:27:07.512Z</time>
      </trkpt>
      <trkpt lat="46.85112" lon="8.47858">
        <ele>2403</ele>
        <time>2021-08-12T10:27:08.513Z</time>
      </trkpt>
      <trkpt lat="46.85111" lon="8.47857">
        <ele>2402</ele>
        <time>2021-08-12T10:27:09.512Z</time>
      </trkpt>
      <trkpt lat="46.85111" lon="8.47856">
        <ele>2402</ele>
        <time>2021-08-12T10:27:10.512Z</time>
      </trkpt>
      <trkpt lat="46.85111" lon="8.47855">
        <ele>2402</ele>
        <time>2021-08-12T10:27:11.513Z</time>
      </trkpt>
      <trkpt lat="46.8511" lon="8.47853">
        <ele>2402</ele>
        <time>2021-08-12T10:27:12.512Z</time>
      </trkpt>
      <trkpt lat="46.8511" lon="8.47853">
        <ele>2402</ele>
        <time>2021-08-12T10:27:13.512Z</time>
      </trkpt>
      <trkpt lat="46.85109" lon="8.47851">
        <ele>2402</ele>
        <time>2021-08-12T10:27:14.513Z</time>
      </trkpt>
      <trkpt lat="46.85108" lon="8.4785">
        <ele>2402</ele>
        <time>2021-08-12T10:27:15.512Z</time>
      </trkpt>
      <trkpt lat="46.85108" lon="8.47848">
        <ele>2402</ele>
        <time>2021-08-12T10:27:16.512Z</time>
      </trkpt>
      <trkpt lat="46.85107" lon="8.47847">
        <ele>2402</ele>
        <time>2021-08-12T10:27:17.512Z</time>
      </trkpt>
      <trkpt lat="46.85107" lon="8.47846">
        <ele>2402</ele>
        <time>2021-08-12T10:27:18.512Z</time>
      </trkpt>
      <trkpt lat="46.85106" lon="8.47844">
        <ele>2402</ele>
        <time>2021-08-12T10:27:19.512Z</time>
      </trkpt>
      <trkpt lat="46.85106" lon="8.47842">
        <ele>2402</ele>
        <time>2021-08-12T10:27:20.512Z</time>
      </trkpt>
      <trkpt lat="46.85106" lon="8.47841">
        <ele>2401</ele>
        <time>2021-08-12T10:27:21.513Z</time>
      </trkpt>
      <trkpt lat="46.85106" lon="8.47839">
        <ele>2401</ele>
        <time>2021-08-12T10:27:22.512Z</time>
      </trkpt>
      <trkpt lat="46.85106" lon="8.47838">
        <ele>2401</ele>
        <time>2021-08-12T10:27:23.513Z</time>
      </trkpt>
      <trkpt lat="46.85106" lon="8.47837">
        <ele>2401</ele>
        <time>2021-08-12T10:27:24.512Z</time>
      </trkpt>
      <trkpt lat="46.85106" lon="8.47836">
        <ele>2400</ele>
        <time>2021-08-12T10:27:25.512Z</time>
      </trkpt>
      <trkpt lat="46.85107" lon="8.47834">
        <ele>2400</ele>
        <time>2021-08-12T10:27:26.513Z</time>
      </trkpt>
      <trkpt lat="46.85107" lon="8.47833">
        <ele>2400</ele>
        <time>2021-08-12T10:27:27.512Z</time>
      </trkpt>
      <trkpt lat="46.85107" lon="8.47832">
        <ele>2401</ele>
        <time>2021-08-12T10:27:28.512Z</time>
      </trkpt>
      <trkpt lat="46.85107" lon="8.4783">
        <ele>2401</ele>
        <time>2021-08-12T10:27:29.513Z</time>
      </trkpt>
      <trkpt lat="46.85107" lon="8.47829">
        <ele>2400</ele>
        <time>2021-08-12T10:27:30.512Z</time>
      </trkpt>
      <trkpt lat="46.85108" lon="8.47827">
        <ele>2400</ele>
        <time>2021-08-12T10:27:31.512Z</time>
      </trkpt>
      <trkpt lat="46.85108" lon="8.47826">
        <ele>2400</ele>
        <time>2021-08-12T10:27:32.512Z</time>
      </trkpt>
      <trkpt lat="46.85108" lon="8.47825">
        <ele>2400</ele>
        <time>2021-08-12T10:27:33.512Z</time>
      </trkpt>
      <trkpt lat="46.85108" lon="8.47824">
        <ele>2399</ele>
        <time>2021-08-12T10:27:34.512Z</time>
      </trkpt>
      <trkpt lat="46.85108" lon="8.47822">
        <ele>2399</ele>
        <time>2021-08-12T10:27:35.512Z</time>
      </trkpt>
      <trkpt lat="46.85108" lon="8.47821">
        <ele>2399</ele>
        <time>2021-08-12T10:27:36.512Z</time>
      </trkpt>
      <trkpt lat="46.85108" lon="8.4782">
        <ele>2400</ele>
        <time>2021-08-12T10:27:37.512Z</time>
      </trkpt>
      <trkpt lat="46.85108" lon="8.47818">
        <ele>2399</ele>
        <time>2021-08-12T10:27:38.512Z</time>
      </trkpt>
      <trkpt lat="46.85109" lon="8.47817">
        <ele>2399</ele>
        <time>2021-08-12T10:27:39.512Z</time>
      </trkpt>
      <trkpt lat="46.8511" lon="8.47816">
        <ele>2399</ele>
        <time>2021-08-12T10:27:40.513Z</time>
      </trkpt>
      <trkpt lat="46.8511" lon="8.47814">
        <ele>2399</ele>
        <time>2021-08-12T10:27:41.513Z</time>
      </trkpt>
      <trkpt lat="46.8511" lon="8.47814">
        <ele>2398</ele>
        <time>2021-08-12T10:27:42.512Z</time>
      </trkpt>
      <trkpt lat="46.8511" lon="8.47813">
        <ele>2398</ele>
        <time>2021-08-12T10:27:43.512Z</time>
      </trkpt>
      <trkpt lat="46.85109" lon="8.47812">
        <ele>2397</ele>
        <time>2021-08-12T10:27:44.512Z</time>
      </trkpt>
      <trkpt lat="46.85109" lon="8.47811">
        <ele>2396</ele>
        <time>2021-08-12T10:27:45.512Z</time>
      </trkpt>
      <trkpt lat="46.85108" lon="8.4781">
        <ele>2396</ele>
        <time>2021-08-12T10:27:46.512Z</time>
      </trkpt>
      <trkpt lat="46.85108" lon="8.47809">
        <ele>2395</ele>
        <time>2021-08-12T10:27:47.512Z</time>
      </trkpt>
      <trkpt lat="46.85107" lon="8.47808">
        <ele>2395</ele>
        <time>2021-08-12T10:27:48.512Z</time>
      </trkpt>
      <trkpt lat="46.85107" lon="8.47806">
        <ele>2394</ele>
        <time>2021-08-12T10:27:49.512Z</time>
      </trkpt>
      <trkpt lat="46.85106" lon="8.47805">
        <ele>2394</ele>
        <time>2021-08-12T10:27:50.513Z</time>
      </trkpt>
      <trkpt lat="46.85106" lon="8.47803">
        <ele>2394</ele>
        <time>2021-08-12T10:27:51.513Z</time>
      </trkpt>
      <trkpt lat="46.85106" lon="8.47802">
        <ele>2394</ele>
        <time>2021-08-12T10:27:52.512Z</time>
      </trkpt>
      <trkpt lat="46.85107" lon="8.478">
        <ele>2394</ele>
        <time>2021-08-12T10:27:53.512Z</time>
      </trkpt>
      <trkpt lat="46.85107" lon="8.47799">
        <ele>2393</ele>
        <time>2021-08-12T10:27:54.512Z</time>
      </trkpt>
      <trkpt lat="46.85107" lon="8.47797">
        <ele>2393</ele>
        <time>2021-08-12T10:27:55.512Z</time>
      </trkpt>
      <trkpt lat="46.85107" lon="8.47796">
        <ele>2393</ele>
        <time>2021-08-12T10:27:56.512Z</time>
      </trkpt>
      <trkpt lat="46.85106" lon="8.47795">
        <ele>2393</ele>
        <time>2021-08-12T10:27:57.513Z</time>
      </trkpt>
      <trkpt lat="46.85107" lon="8.47794">
        <ele>2393</ele>
        <time>2021-08-12T10:27:58.512Z</time>
      </trkpt>
      <trkpt lat="46.85107" lon="8.47793">
        <ele>2394</ele>
        <time>2021-08-12T10:27:59.512Z</time>
      </trkpt>
      <trkpt lat="46.85107" lon="8.47792">
        <ele>2394</ele>
        <time>2021-08-12T10:28:00.512Z</time>
      </trkpt>
      <trkpt lat="46.85108" lon="8.4779">
        <ele>2393</ele>
        <time>2021-08-12T10:28:01.512Z</time>
      </trkpt>
      <trkpt lat="46.85109" lon="8.47788">
        <ele>2393</ele>
        <time>2021-08-12T10:28:02.513Z</time>
      </trkpt>
      <trkpt lat="46.85109" lon="8.47787">
        <ele>2393</ele>
        <time>2021-08-12T10:28:03.512Z</time>
      </trkpt>
      <trkpt lat="46.8511" lon="8.47786">
        <ele>2393</ele>
        <time>2021-08-12T10:28:04.512Z</time>
      </trkpt>
      <trkpt lat="46.8511" lon="8.47784">
        <ele>2394</ele>
        <time>2021-08-12T10:28:05.512Z</time>
      </trkpt>
      <trkpt lat="46.8511" lon="8.47783">
        <ele>2393</ele>
        <time>2021-08-12T10:28:06.512Z</time>
      </trkpt>
      <trkpt lat="46.85111" lon="8.47781">
        <ele>2393</ele>
        <time>2021-08-12T10:28:07.512Z</time>
      </trkpt>
      <trkpt lat="46.85111" lon="8.4778">
        <ele>2393</ele>
        <time>2021-08-12T10:28:08.512Z</time>
      </trkpt>
      <trkpt lat="46.85111" lon="8.47778">
        <ele>2392</ele>
        <time>2021-08-12T10:28:09.512Z</time>
      </trkpt>
      <trkpt lat="46.85111" lon="8.47777">
        <ele>2393</ele>
        <time>2021-08-12T10:28:10.512Z</time>
      </trkpt>
      <trkpt lat="46.85111" lon="8.47776">
        <ele>2393</ele>
        <time>2021-08-12T10:28:11.512Z</time>
      </trkpt>
      <trkpt lat="46.85111" lon="8.47774">
        <ele>2393</ele>
        <time>2021-08-12T10:28:12.512Z</time>
      </trkpt>
      <trkpt lat="46.8511" lon="8.47773">
        <ele>2393</ele>
        <time>2021-08-12T10:28:13.512Z</time>
      </trkpt>
      <trkpt lat="46.85109" lon="8.47772">
        <ele>2393</ele>
        <time>2021-08-12T10:28:14.512Z</time>
      </trkpt>
      <trkpt lat="46.85108" lon="8.47772">
        <ele>2393</ele>
        <time>2021-08-12T10:28:15.512Z</time>
      </trkpt>
      <trkpt lat="46.85106" lon="8.47772">
        <ele>2393</ele>
        <time>2021-08-12T10:28:16.513Z</time>
      </trkpt>
      <trkpt lat="46.85106" lon="8.47772">
        <ele>2393</ele>
        <time>2021-08-12T10:28:17.512Z</time>
      </trkpt>
      <trkpt lat="46.85105" lon="8.47771">
        <ele>2392</ele>
        <time>2021-08-12T10:28:18.512Z</time>
      </trkpt>
      <trkpt lat="46.85105" lon="8.4777">
        <ele>2392</ele>
        <time>2021-08-12T10:28:19.512Z</time>
      </trkpt>
      <trkpt lat="46.85105" lon="8.47769">
        <ele>2392</ele>
        <time>2021-08-12T10:28:20.513Z</time>
      </trkpt>
      <trkpt lat="46.85105" lon="8.47768">
        <ele>2391</ele>
        <time>2021-08-12T10:28:21.512Z</time>
      </trkpt>
      <trkpt lat="46.85104" lon="8.47766">
        <ele>2391</ele>
        <time>2021-08-12T10:28:22.512Z</time>
      </trkpt>
      <trkpt lat="46.85104" lon="8.47765">
        <ele>2392</ele>
        <time>2021-08-12T10:28:23.512Z</time>
      </trkpt>
      <trkpt lat="46.85104" lon="8.47764">
        <ele>2392</ele>
        <time>2021-08-12T10:28:24.513Z</time>
      </trkpt>
      <trkpt lat="46.85103" lon="8.47763">
        <ele>2393</ele>
        <time>2021-08-12T10:28:25.513Z</time>
      </trkpt>
      <trkpt lat="46.85103" lon="8.47761">
        <ele>2393</ele>
        <time>2021-08-12T10:28:26.512Z</time>
      </trkpt>
      <trkpt lat="46.85102" lon="8.4776">
        <ele>2393</ele>
        <time>2021-08-12T10:28:27.512Z</time>
      </trkpt>
      <trkpt lat="46.85102" lon="8.47758">
        <ele>2394</ele>
        <time>2021-08-12T10:28:28.513Z</time>
      </trkpt>
      <trkpt lat="46.851" lon="8.47757">
        <ele>2394</ele>
        <time>2021-08-12T10:28:29.513Z</time>
      </trkpt>
      <trkpt lat="46.85099" lon="8.47756">
        <ele>2394</ele>
        <time>2021-08-12T10:28:30.512Z</time>
      </trkpt>
      <trkpt lat="46.85099" lon="8.47754">
        <ele>2394</ele>
        <time>2021-08-12T10:28:31.513Z</time>
      </trkpt>
      <trkpt lat="46.85099" lon="8.47752">
        <ele>2393</ele>
        <time>2021-08-12T10:28:32.512Z</time>
      </trkpt>
      <trkpt lat="46.85099" lon="8.47751">
        <ele>2393</ele>
        <time>2021-08-12T10:28:33.512Z</time>
      </trkpt>
      <trkpt lat="46.85099" lon="8.47748">
        <ele>2393</ele>
        <time>2021-08-12T10:28:34.512Z</time>
      </trkpt>
      <trkpt lat="46.85098" lon="8.47746">
        <ele>2392</ele>
        <time>2021-08-12T10:28:35.512Z</time>
      </trkpt>
      <trkpt lat="46.85098" lon="8.47746">
        <ele>2392</ele>
        <time>2021-08-12T10:28:36.512Z</time>
      </trkpt>
      <trkpt lat="46.85098" lon="8.47744">
        <ele>2391</ele>
        <time>2021-08-12T10:28:37.513Z</time>
      </trkpt>
      <trkpt lat="46.85097" lon="8.47743">
        <ele>2391</ele>
        <time>2021-08-12T10:28:38.512Z</time>
      </trkpt>
      <trkpt lat="46.85097" lon="8.47741">
        <ele>2391</ele>
        <time>2021-08-12T10:28:39.513Z</time>
      </trkpt>
      <trkpt lat="46.85096" lon="8.4774">
        <ele>2390</ele>
        <time>2021-08-12T10:28:40.513Z</time>
      </trkpt>
      <trkpt lat="46.85096" lon="8.47738">
        <ele>2390</ele>
        <time>2021-08-12T10:28:41.512Z</time>
      </trkpt>
      <trkpt lat="46.85096" lon="8.47736">
        <ele>2390</ele>
        <time>2021-08-12T10:28:42.512Z</time>
      </trkpt>
      <trkpt lat="46.85095" lon="8.47735">
        <ele>2390</ele>
        <time>2021-08-12T10:28:43.513Z</time>
      </trkpt>
      <trkpt lat="46.85095" lon="8.47733">
        <ele>2390</ele>
        <time>2021-08-12T10:28:44.512Z</time>
      </trkpt>
      <trkpt lat="46.85095" lon="8.47732">
        <ele>2390</ele>
        <time>2021-08-12T10:28:45.513Z</time>
      </trkpt>
      <trkpt lat="46.85094" lon="8.4773">
        <ele>2390</ele>
        <time>2021-08-12T10:28:46.513Z</time>
      </trkpt>
      <trkpt lat="46.85094" lon="8.47728">
        <ele>2390</ele>
        <time>2021-08-12T10:28:47.512Z</time>
      </trkpt>
      <trkpt lat="46.85094" lon="8.47726">
        <ele>2390</ele>
        <time>2021-08-12T10:28:48.512Z</time>
      </trkpt>
      <trkpt lat="46.85094" lon="8.47725">
        <ele>2390</ele>
        <time>2021-08-12T10:28:49.512Z</time>
      </trkpt>
      <trkpt lat="46.85093" lon="8.47723">
        <ele>2391</ele>
        <time>2021-08-12T10:28:50.512Z</time>
      </trkpt>
      <trkpt lat="46.85093" lon="8.47722">
        <ele>2391</ele>
        <time>2021-08-12T10:28:51.512Z</time>
      </trkpt>
      <trkpt lat="46.85092" lon="8.4772">
        <ele>2391</ele>
        <time>2021-08-12T10:28:52.512Z</time>
      </trkpt>
      <trkpt lat="46.85092" lon="8.47719">
        <ele>2391</ele>
        <time>2021-08-12T10:28:53.513Z</time>
      </trkpt>
      <trkpt lat="46.85091" lon="8.47718">
        <ele>2391</ele>
        <time>2021-08-12T10:28:54.512Z</time>
      </trkpt>
      <trkpt lat="46.85091" lon="8.47716">
        <ele>2391</ele>
        <time>2021-08-12T10:28:55.512Z</time>
      </trkpt>
      <trkpt lat="46.8509" lon="8.47715">
        <ele>2391</ele>
        <time>2021-08-12T10:28:56.513Z</time>
      </trkpt>
      <trkpt lat="46.8509" lon="8.47714">
        <ele>2391</ele>
        <time>2021-08-12T10:28:57.512Z</time>
      </trkpt>
      <trkpt lat="46.85089" lon="8.47713">
        <ele>2391</ele>
        <time>2021-08-12T10:28:58.512Z</time>
      </trkpt>
      <trkpt lat="46.85089" lon="8.47712">
        <ele>2391</ele>
        <time>2021-08-12T10:28:59.512Z</time>
      </trkpt>
      <trkpt lat="46.85089" lon="8.4771">
        <ele>2391</ele>
        <time>2021-08-12T10:29:00.512Z</time>
      </trkpt>
      <trkpt lat="46.85089" lon="8.47709">
        <ele>2390</ele>
        <time>2021-08-12T10:29:01.512Z</time>
      </trkpt>
      <trkpt lat="46.85089" lon="8.47708">
        <ele>2390</ele>
        <time>2021-08-12T10:29:02.512Z</time>
      </trkpt>
      <trkpt lat="46.85089" lon="8.47706">
        <ele>2390</ele>
        <time>2021-08-12T10:29:03.513Z</time>
      </trkpt>
      <trkpt lat="46.85089" lon="8.47705">
        <ele>2390</ele>
        <time>2021-08-12T10:29:04.513Z</time>
      </trkpt>
      <trkpt lat="46.85089" lon="8.47703">
        <ele>2390</ele>
        <time>2021-08-12T10:29:05.513Z</time>
      </trkpt>
      <trkpt lat="46.85088" lon="8.47702">
        <ele>2390</ele>
        <time>2021-08-12T10:29:06.512Z</time>
      </trkpt>
      <trkpt lat="46.85087" lon="8.47701">
        <ele>2390</ele>
        <time>2021-08-12T10:29:07.513Z</time>
      </trkpt>
      <trkpt lat="46.85086" lon="8.47699">
        <ele>2390</ele>
        <time>2021-08-12T10:29:08.512Z</time>
      </trkpt>
      <trkpt lat="46.85085" lon="8.47698">
        <ele>2390</ele>
        <time>2021-08-12T10:29:09.512Z</time>
      </trkpt>
      <trkpt lat="46.85084" lon="8.47696">
        <ele>2389</ele>
        <time>2021-08-12T10:29:10.512Z</time>
      </trkpt>
      <trkpt lat="46.85083" lon="8.47694">
        <ele>2389</ele>
        <time>2021-08-12T10:29:11.513Z</time>
      </trkpt>
      <trkpt lat="46.85083" lon="8.47692">
        <ele>2389</ele>
        <time>2021-08-12T10:29:12.512Z</time>
      </trkpt>
      <trkpt lat="46.85083" lon="8.4769">
        <ele>2389</ele>
        <time>2021-08-12T10:29:13.512Z</time>
      </trkpt>
      <trkpt lat="46.85082" lon="8.47689">
        <ele>2389</ele>
        <time>2021-08-12T10:29:14.512Z</time>
      </trkpt>
      <trkpt lat="46.85082" lon="8.47688">
        <ele>2388</ele>
        <time>2021-08-12T10:29:15.512Z</time>
      </trkpt>
      <trkpt lat="46.85081" lon="8.47687">
        <ele>2388</ele>
        <time>2021-08-12T10:29:16.512Z</time>
      </trkpt>
      <trkpt lat="46.8508" lon="8.47686">
        <ele>2388</ele>
        <time>2021-08-12T10:29:17.512Z</time>
      </trkpt>
      <trkpt lat="46.8508" lon="8.47684">
        <ele>2388</ele>
        <time>2021-08-12T10:29:18.512Z</time>
      </trkpt>
      <trkpt lat="46.85079" lon="8.47682">
        <ele>2388</ele>
        <time>2021-08-12T10:29:19.512Z</time>
      </trkpt>
      <trkpt lat="46.85079" lon="8.47681">
        <ele>2389</ele>
        <time>2021-08-12T10:29:20.512Z</time>
      </trkpt>
      <trkpt lat="46.85078" lon="8.4768">
        <ele>2389</ele>
        <time>2021-08-12T10:29:21.512Z</time>
      </trkpt>
      <trkpt lat="46.85078" lon="8.47678">
        <ele>2390</ele>
        <time>2021-08-12T10:29:22.512Z</time>
      </trkpt>
      <trkpt lat="46.85077" lon="8.47677">
        <ele>2391</ele>
        <time>2021-08-12T10:29:23.512Z</time>
      </trkpt>
      <trkpt lat="46.85075" lon="8.47675">
        <ele>2391</ele>
        <time>2021-08-12T10:29:24.512Z</time>
      </trkpt>
      <trkpt lat="46.85074" lon="8.47674">
        <ele>2391</ele>
        <time>2021-08-12T10:29:25.512Z</time>
      </trkpt>
      <trkpt lat="46.85073" lon="8.47673">
        <ele>2391</ele>
        <time>2021-08-12T10:29:26.513Z</time>
      </trkpt>
      <trkpt lat="46.85071" lon="8.47672">
        <ele>2392</ele>
        <time>2021-08-12T10:29:27.513Z</time>
      </trkpt>
      <trkpt lat="46.8507" lon="8.47671">
        <ele>2392</ele>
        <time>2021-08-12T10:29:28.512Z</time>
      </trkpt>
      <trkpt lat="46.85069" lon="8.4767">
        <ele>2392</ele>
        <time>2021-08-12T10:29:29.512Z</time>
      </trkpt>
      <trkpt lat="46.85069" lon="8.47669">
        <ele>2392</ele>
        <time>2021-08-12T10:29:30.512Z</time>
      </trkpt>
      <trkpt lat="46.85068" lon="8.47667">
        <ele>2391</ele>
        <time>2021-08-12T10:29:31.512Z</time>
      </trkpt>
      <trkpt lat="46.85068" lon="8.47666">
        <ele>2391</ele>
        <time>2021-08-12T10:29:32.512Z</time>
      </trkpt>
      <trkpt lat="46.85067" lon="8.47664">
        <ele>2390</ele>
        <time>2021-08-12T10:29:33.513Z</time>
      </trkpt>
      <trkpt lat="46.85066" lon="8.47662">
        <ele>2390</ele>
        <time>2021-08-12T10:29:34.512Z</time>
      </trkpt>
      <trkpt lat="46.85066" lon="8.4766">
        <ele>2390</ele>
        <time>2021-08-12T10:29:35.512Z</time>
      </trkpt>
      <trkpt lat="46.85066" lon="8.47658">
        <ele>2390</ele>
        <time>2021-08-12T10:29:36.512Z</time>
      </trkpt>
      <trkpt lat="46.85066" lon="8.47656">
        <ele>2390</ele>
        <time>2021-08-12T10:29:37.513Z</time>
      </trkpt>
      <trkpt lat="46.85066" lon="8.47655">
        <ele>2389</ele>
        <time>2021-08-12T10:29:38.513Z</time>
      </trkpt>
      <trkpt lat="46.85066" lon="8.47653">
        <ele>2389</ele>
        <time>2021-08-12T10:29:39.513Z</time>
      </trkpt>
      <trkpt lat="46.85065" lon="8.47651">
        <ele>2389</ele>
        <time>2021-08-12T10:29:40.512Z</time>
      </trkpt>
      <trkpt lat="46.85065" lon="8.47649">
        <ele>2388</ele>
        <time>2021-08-12T10:29:41.513Z</time>
      </trkpt>
      <trkpt lat="46.85065" lon="8.47647">
        <ele>2388</ele>
        <time>2021-08-12T10:29:42.512Z</time>
      </trkpt>
      <trkpt lat="46.85064" lon="8.47645">
        <ele>2387</ele>
        <time>2021-08-12T10:29:43.512Z</time>
      </trkpt>
      <trkpt lat="46.85064" lon="8.47643">
        <ele>2387</ele>
        <time>2021-08-12T10:29:44.512Z</time>
      </trkpt>
      <trkpt lat="46.85063" lon="8.47641">
        <ele>2386</ele>
        <time>2021-08-12T10:29:45.512Z</time>
      </trkpt>
      <trkpt lat="46.85062" lon="8.4764">
        <ele>2386</ele>
        <time>2021-08-12T10:29:46.512Z</time>
      </trkpt>
      <trkpt lat="46.85062" lon="8.47638">
        <ele>2386</ele>
        <time>2021-08-12T10:29:47.512Z</time>
      </trkpt>
      <trkpt lat="46.85061" lon="8.47636">
        <ele>2386</ele>
        <time>2021-08-12T10:29:48.512Z</time>
      </trkpt>
      <trkpt lat="46.85061" lon="8.47634">
        <ele>2386</ele>
        <time>2021-08-12T10:29:49.513Z</time>
      </trkpt>
      <trkpt lat="46.85061" lon="8.47633">
        <ele>2386</ele>
        <time>2021-08-12T10:29:50.512Z</time>
      </trkpt>
      <trkpt lat="46.8506" lon="8.47632">
        <ele>2386</ele>
        <time>2021-08-12T10:29:51.512Z</time>
      </trkpt>
      <trkpt lat="46.85059" lon="8.4763">
        <ele>2386</ele>
        <time>2021-08-12T10:29:52.512Z</time>
      </trkpt>
      <trkpt lat="46.85059" lon="8.4763">
        <ele>2386</ele>
        <time>2021-08-12T10:29:53.513Z</time>
      </trkpt>
      <trkpt lat="46.85058" lon="8.47629">
        <ele>2386</ele>
        <time>2021-08-12T10:29:54.512Z</time>
      </trkpt>
      <trkpt lat="46.85057" lon="8.47628">
        <ele>2386</ele>
        <time>2021-08-12T10:29:55.512Z</time>
      </trkpt>
      <trkpt lat="46.85056" lon="8.47627">
        <ele>2386</ele>
        <time>2021-08-12T10:29:56.512Z</time>
      </trkpt>
      <trkpt lat="46.85055" lon="8.47625">
        <ele>2387</ele>
        <time>2021-08-12T10:29:57.512Z</time>
      </trkpt>
      <trkpt lat="46.85055" lon="8.47624">
        <ele>2387</ele>
        <time>2021-08-12T10:29:58.512Z</time>
      </trkpt>
      <trkpt lat="46.85054" lon="8.47623">
        <ele>2386</ele>
        <time>2021-08-12T10:29:59.512Z</time>
      </trkpt>
      <trkpt lat="46.85053" lon="8.47621">
        <ele>2386</ele>
        <time>2021-08-12T10:30:00.512Z</time>
      </trkpt>
      <trkpt lat="46.85052" lon="8.4762">
        <ele>2385</ele>
        <time>2021-08-12T10:30:01.512Z</time>
      </trkpt>
      <trkpt lat="46.85051" lon="8.47619">
        <ele>2384</ele>
        <time>2021-08-12T10:30:02.512Z</time>
      </trkpt>
      <trkpt lat="46.8505" lon="8.47617">
        <ele>2384</ele>
        <time>2021-08-12T10:30:03.512Z</time>
      </trkpt>
      <trkpt lat="46.85049" lon="8.47616">
        <ele>2384</ele>
        <time>2021-08-12T10:30:04.513Z</time>
      </trkpt>
      <trkpt lat="46.85049" lon="8.47614">
        <ele>2383</ele>
        <time>2021-08-12T10:30:05.512Z</time>
      </trkpt>
      <trkpt lat="46.85048" lon="8.47612">
        <ele>2383</ele>
        <time>2021-08-12T10:30:06.512Z</time>
      </trkpt>
      <trkpt lat="46.85047" lon="8.47611">
        <ele>2383</ele>
        <time>2021-08-12T10:30:07.512Z</time>
      </trkpt>
      <trkpt lat="46.85046" lon="8.47609">
        <ele>2383</ele>
        <time>2021-08-12T10:30:08.512Z</time>
      </trkpt>
      <trkpt lat="46.85045" lon="8.47607">
        <ele>2383</ele>
        <time>2021-08-12T10:30:09.512Z</time>
      </trkpt>
      <trkpt lat="46.85044" lon="8.47606">
        <ele>2382</ele>
        <time>2021-08-12T10:30:10.512Z</time>
      </trkpt>
      <trkpt lat="46.85043" lon="8.47604">
        <ele>2382</ele>
        <time>2021-08-12T10:30:11.512Z</time>
      </trkpt>
      <trkpt lat="46.85042" lon="8.47603">
        <ele>2382</ele>
        <time>2021-08-12T10:30:12.512Z</time>
      </trkpt>
      <trkpt lat="46.85042" lon="8.47602">
        <ele>2381</ele>
        <time>2021-08-12T10:30:13.513Z</time>
      </trkpt>
      <trkpt lat="46.85041" lon="8.47601">
        <ele>2382</ele>
        <time>2021-08-12T10:30:14.512Z</time>
      </trkpt>
      <trkpt lat="46.8504" lon="8.476">
        <ele>2382</ele>
        <time>2021-08-12T10:30:15.513Z</time>
      </trkpt>
      <trkpt lat="46.85039" lon="8.47599">
        <ele>2382</ele>
        <time>2021-08-12T10:30:16.513Z</time>
      </trkpt>
      <trkpt lat="46.85038" lon="8.47598">
        <ele>2382</ele>
        <time>2021-08-12T10:30:17.513Z</time>
      </trkpt>
      <trkpt lat="46.85037" lon="8.47596">
        <ele>2382</ele>
        <time>2021-08-12T10:30:18.512Z</time>
      </trkpt>
      <trkpt lat="46.85036" lon="8.47594">
        <ele>2382</ele>
        <time>2021-08-12T10:30:19.512Z</time>
      </trkpt>
      <trkpt lat="46.85035" lon="8.47593">
        <ele>2382</ele>
        <time>2021-08-12T10:30:20.512Z</time>
      </trkpt>
      <trkpt lat="46.85035" lon="8.47591">
        <ele>2382</ele>
        <time>2021-08-12T10:30:43.577Z</time>
      </trkpt>
      <trkpt lat="46.85034" lon="8.4759">
        <ele>2382</ele>
        <time>2021-08-12T10:30:44.578Z</time>
      </trkpt>
      <trkpt lat="46.85034" lon="8.47588">
        <ele>2382</ele>
        <time>2021-08-12T10:30:45.578Z</time>
      </trkpt>
      <trkpt lat="46.85034" lon="8.47586">
        <ele>2382</ele>
        <time>2021-08-12T10:30:46.577Z</time>
      </trkpt>
      <trkpt lat="46.85034" lon="8.47584">
        <ele>2382</ele>
        <time>2021-08-12T10:30:47.577Z</time>
      </trkpt>
      <trkpt lat="46.85034" lon="8.47582">
        <ele>2382</ele>
        <time>2021-08-12T10:30:48.577Z</time>
      </trkpt>
      <trkpt lat="46.85035" lon="8.47581">
        <ele>2382</ele>
        <time>2021-08-12T10:30:49.577Z</time>
      </trkpt>
      <trkpt lat="46.85035" lon="8.4758">
        <ele>2382</ele>
        <time>2021-08-12T10:30:50.577Z</time>
      </trkpt>
      <trkpt lat="46.85036" lon="8.4758">
        <ele>2383</ele>
        <time>2021-08-12T10:30:51.578Z</time>
      </trkpt>
      <trkpt lat="46.85037" lon="8.47579">
        <ele>2383</ele>
        <time>2021-08-12T10:30:52.577Z</time>
      </trkpt>
      <trkpt lat="46.85037" lon="8.47578">
        <ele>2383</ele>
        <time>2021-08-12T10:30:53.577Z</time>
      </trkpt>
      <trkpt lat="46.85038" lon="8.47577">
        <ele>2384</ele>
        <time>2021-08-12T10:30:54.578Z</time>
      </trkpt>
      <trkpt lat="46.85039" lon="8.47576">
        <ele>2384</ele>
        <time>2021-08-12T10:30:55.577Z</time>
      </trkpt>
      <trkpt lat="46.8504" lon="8.47576">
        <ele>2384</ele>
        <time>2021-08-12T10:30:56.578Z</time>
      </trkpt>
      <trkpt lat="46.8504" lon="8.47575">
        <ele>2385</ele>
        <time>2021-08-12T10:30:57.577Z</time>
      </trkpt>
      <trkpt lat="46.85042" lon="8.47574">
        <ele>2385</ele>
        <time>2021-08-12T10:30:58.577Z</time>
      </trkpt>
      <trkpt lat="46.85043" lon="8.47573">
        <ele>2385</ele>
        <time>2021-08-12T10:30:59.577Z</time>
      </trkpt>
      <trkpt lat="46.85043" lon="8.47571">
        <ele>2385</ele>
        <time>2021-08-12T10:31:00.577Z</time>
      </trkpt>
      <trkpt lat="46.85044" lon="8.47569">
        <ele>2384</ele>
        <time>2021-08-12T10:31:01.577Z</time>
      </trkpt>
      <trkpt lat="46.85044" lon="8.47568">
        <ele>2384</ele>
        <time>2021-08-12T10:31:02.577Z</time>
      </trkpt>
      <trkpt lat="46.85043" lon="8.47566">
        <ele>2384</ele>
        <time>2021-08-12T10:31:03.578Z</time>
      </trkpt>
      <trkpt lat="46.85043" lon="8.47565">
        <ele>2383</ele>
        <time>2021-08-12T10:31:04.578Z</time>
      </trkpt>
      <trkpt lat="46.85042" lon="8.47563">
        <ele>2383</ele>
        <time>2021-08-12T10:31:05.578Z</time>
      </trkpt>
      <trkpt lat="46.85042" lon="8.47561">
        <ele>2382</ele>
        <time>2021-08-12T10:31:06.577Z</time>
      </trkpt>
      <trkpt lat="46.85042" lon="8.47558">
        <ele>2382</ele>
        <time>2021-08-12T10:31:07.577Z</time>
      </trkpt>
      <trkpt lat="46.85041" lon="8.47556">
        <ele>2382</ele>
        <time>2021-08-12T10:31:08.577Z</time>
      </trkpt>
      <trkpt lat="46.85041" lon="8.47554">
        <ele>2381</ele>
        <time>2021-08-12T10:31:09.577Z</time>
      </trkpt>
      <trkpt lat="46.8504" lon="8.47553">
        <ele>2381</ele>
        <time>2021-08-12T10:31:10.577Z</time>
      </trkpt>
      <trkpt lat="46.85041" lon="8.4755">
        <ele>2380</ele>
        <time>2021-08-12T10:31:11.577Z</time>
      </trkpt>
      <trkpt lat="46.85041" lon="8.47549">
        <ele>2380</ele>
        <time>2021-08-12T10:31:12.578Z</time>
      </trkpt>
      <trkpt lat="46.8504" lon="8.47547">
        <ele>2380</ele>
        <time>2021-08-12T10:31:13.577Z</time>
      </trkpt>
      <trkpt lat="46.8504" lon="8.47546">
        <ele>2380</ele>
        <time>2021-08-12T10:31:14.577Z</time>
      </trkpt>
      <trkpt lat="46.85039" lon="8.47544">
        <ele>2380</ele>
        <time>2021-08-12T10:31:15.577Z</time>
      </trkpt>
      <trkpt lat="46.85039" lon="8.47543">
        <ele>2380</ele>
        <time>2021-08-12T10:31:16.577Z</time>
      </trkpt>
      <trkpt lat="46.85038" lon="8.47542">
        <ele>2380</ele>
        <time>2021-08-12T10:31:17.577Z</time>
      </trkpt>
      <trkpt lat="46.85037" lon="8.47541">
        <ele>2380</ele>
        <time>2021-08-12T10:31:18.577Z</time>
      </trkpt>
      <trkpt lat="46.85036" lon="8.4754">
        <ele>2380</ele>
        <time>2021-08-12T10:31:19.577Z</time>
      </trkpt>
      <trkpt lat="46.85035" lon="8.47538">
        <ele>2380</ele>
        <time>2021-08-12T10:31:20.577Z</time>
      </trkpt>
      <trkpt lat="46.85034" lon="8.47538">
        <ele>2380</ele>
        <time>2021-08-12T10:31:21.577Z</time>
      </trkpt>
      <trkpt lat="46.85033" lon="8.47536">
        <ele>2380</ele>
        <time>2021-08-12T10:31:22.577Z</time>
      </trkpt>
      <trkpt lat="46.85033" lon="8.47534">
        <ele>2380</ele>
        <time>2021-08-12T10:31:23.577Z</time>
      </trkpt>
      <trkpt lat="46.85033" lon="8.47532">
        <ele>2380</ele>
        <time>2021-08-12T10:31:24.577Z</time>
      </trkpt>
      <trkpt lat="46.85032" lon="8.47531">
        <ele>2379</ele>
        <time>2021-08-12T10:31:25.577Z</time>
      </trkpt>
      <trkpt lat="46.85032" lon="8.47529">
        <ele>2379</ele>
        <time>2021-08-12T10:31:26.577Z</time>
      </trkpt>
      <trkpt lat="46.85033" lon="8.47527">
        <ele>2378</ele>
        <time>2021-08-12T10:31:27.577Z</time>
      </trkpt>
      <trkpt lat="46.85032" lon="8.47524">
        <ele>2378</ele>
        <time>2021-08-12T10:31:28.577Z</time>
      </trkpt>
      <trkpt lat="46.85032" lon="8.47523">
        <ele>2378</ele>
        <time>2021-08-12T10:31:29.578Z</time>
      </trkpt>
      <trkpt lat="46.85031" lon="8.47521">
        <ele>2378</ele>
        <time>2021-08-12T10:31:30.577Z</time>
      </trkpt>
      <trkpt lat="46.85031" lon="8.4752">
        <ele>2377</ele>
        <time>2021-08-12T10:31:31.578Z</time>
      </trkpt>
      <trkpt lat="46.8503" lon="8.47519">
        <ele>2377</ele>
        <time>2021-08-12T10:31:32.577Z</time>
      </trkpt>
      <trkpt lat="46.85029" lon="8.47517">
        <ele>2377</ele>
        <time>2021-08-12T10:31:33.577Z</time>
      </trkpt>
      <trkpt lat="46.85028" lon="8.47516">
        <ele>2377</ele>
        <time>2021-08-12T10:31:34.578Z</time>
      </trkpt>
      <trkpt lat="46.85028" lon="8.47515">
        <ele>2376</ele>
        <time>2021-08-12T10:31:35.577Z</time>
      </trkpt>
      <trkpt lat="46.85027" lon="8.47513">
        <ele>2376</ele>
        <time>2021-08-12T10:31:36.578Z</time>
      </trkpt>
      <trkpt lat="46.85026" lon="8.47512">
        <ele>2376</ele>
        <time>2021-08-12T10:31:37.577Z</time>
      </trkpt>
      <trkpt lat="46.85026" lon="8.4751">
        <ele>2375</ele>
        <time>2021-08-12T10:31:38.577Z</time>
      </trkpt>
      <trkpt lat="46.85025" lon="8.47508">
        <ele>2375</ele>
        <time>2021-08-12T10:31:39.577Z</time>
      </trkpt>
      <trkpt lat="46.85025" lon="8.47506">
        <ele>2375</ele>
        <time>2021-08-12T10:31:40.577Z</time>
      </trkpt>
      <trkpt lat="46.85024" lon="8.47504">
        <ele>2375</ele>
        <time>2021-08-12T10:31:41.577Z</time>
      </trkpt>
      <trkpt lat="46.85025" lon="8.47502">
        <ele>2374</ele>
        <time>2021-08-12T10:31:42.577Z</time>
      </trkpt>
      <trkpt lat="46.85025" lon="8.475">
        <ele>2374</ele>
        <time>2021-08-12T10:31:43.577Z</time>
      </trkpt>
      <trkpt lat="46.85025" lon="8.47497">
        <ele>2373</ele>
        <time>2021-08-12T10:31:44.578Z</time>
      </trkpt>
      <trkpt lat="46.85025" lon="8.47495">
        <ele>2373</ele>
        <time>2021-08-12T10:31:45.577Z</time>
      </trkpt>
      <trkpt lat="46.85025" lon="8.47494">
        <ele>2373</ele>
        <time>2021-08-12T10:31:46.577Z</time>
      </trkpt>
      <trkpt lat="46.85026" lon="8.47492">
        <ele>2373</ele>
        <time>2021-08-12T10:31:47.578Z</time>
      </trkpt>
      <trkpt lat="46.85026" lon="8.47491">
        <ele>2373</ele>
        <time>2021-08-12T10:31:48.577Z</time>
      </trkpt>
      <trkpt lat="46.85026" lon="8.47489">
        <ele>2374</ele>
        <time>2021-08-12T10:31:49.578Z</time>
      </trkpt>
      <trkpt lat="46.85026" lon="8.47487">
        <ele>2374</ele>
        <time>2021-08-12T10:31:50.577Z</time>
      </trkpt>
      <trkpt lat="46.85026" lon="8.47485">
        <ele>2374</ele>
        <time>2021-08-12T10:31:51.577Z</time>
      </trkpt>
      <trkpt lat="46.85026" lon="8.47483">
        <ele>2375</ele>
        <time>2021-08-12T10:31:52.577Z</time>
      </trkpt>
      <trkpt lat="46.85025" lon="8.47481">
        <ele>2375</ele>
        <time>2021-08-12T10:31:53.578Z</time>
      </trkpt>
      <trkpt lat="46.85025" lon="8.47479">
        <ele>2375</ele>
        <time>2021-08-12T10:31:54.577Z</time>
      </trkpt>
      <trkpt lat="46.85025" lon="8.47477">
        <ele>2375</ele>
        <time>2021-08-12T10:31:55.577Z</time>
      </trkpt>
      <trkpt lat="46.85025" lon="8.47475">
        <ele>2374</ele>
        <time>2021-08-12T10:31:56.577Z</time>
      </trkpt>
      <trkpt lat="46.85024" lon="8.47474">
        <ele>2374</ele>
        <time>2021-08-12T10:31:57.577Z</time>
      </trkpt>
      <trkpt lat="46.85024" lon="8.47472">
        <ele>2374</ele>
        <time>2021-08-12T10:31:58.577Z</time>
      </trkpt>
      <trkpt lat="46.85023" lon="8.4747">
        <ele>2374</ele>
        <time>2021-08-12T10:31:59.578Z</time>
      </trkpt>
      <trkpt lat="46.85023" lon="8.47469">
        <ele>2374</ele>
        <time>2021-08-12T10:32:00.578Z</time>
      </trkpt>
      <trkpt lat="46.85022" lon="8.47468">
        <ele>2374</ele>
        <time>2021-08-12T10:32:01.577Z</time>
      </trkpt>
      <trkpt lat="46.85021" lon="8.47467">
        <ele>2374</ele>
        <time>2021-08-12T10:32:02.577Z</time>
      </trkpt>
      <trkpt lat="46.8502" lon="8.47466">
        <ele>2374</ele>
        <time>2021-08-12T10:32:03.577Z</time>
      </trkpt>
      <trkpt lat="46.85019" lon="8.47466">
        <ele>2374</ele>
        <time>2021-08-12T10:32:04.577Z</time>
      </trkpt>
      <trkpt lat="46.85018" lon="8.47466">
        <ele>2374</ele>
        <time>2021-08-12T10:32:05.578Z</time>
      </trkpt>
      <trkpt lat="46.85018" lon="8.47466">
        <ele>2374</ele>
        <time>2021-08-12T10:32:06.577Z</time>
      </trkpt>
      <trkpt lat="46.85017" lon="8.47465">
        <ele>2373</ele>
        <time>2021-08-12T10:32:07.578Z</time>
      </trkpt>
      <trkpt lat="46.85017" lon="8.47464">
        <ele>2373</ele>
        <time>2021-08-12T10:32:08.578Z</time>
      </trkpt>
      <trkpt lat="46.85018" lon="8.47463">
        <ele>2373</ele>
        <time>2021-08-12T10:32:09.577Z</time>
      </trkpt>
      <trkpt lat="46.85019" lon="8.47461">
        <ele>2372</ele>
        <time>2021-08-12T10:32:10.577Z</time>
      </trkpt>
      <trkpt lat="46.8502" lon="8.47459">
        <ele>2372</ele>
        <time>2021-08-12T10:32:11.577Z</time>
      </trkpt>
      <trkpt lat="46.85021" lon="8.47457">
        <ele>2371</ele>
        <time>2021-08-12T10:32:12.577Z</time>
      </trkpt>
      <trkpt lat="46.85022" lon="8.47456">
        <ele>2371</ele>
        <time>2021-08-12T10:32:13.577Z</time>
      </trkpt>
      <trkpt lat="46.85022" lon="8.47454">
        <ele>2371</ele>
        <time>2021-08-12T10:32:14.577Z</time>
      </trkpt>
      <trkpt lat="46.85022" lon="8.47452">
        <ele>2371</ele>
        <time>2021-08-12T10:32:15.578Z</time>
      </trkpt>
      <trkpt lat="46.85022" lon="8.47451">
        <ele>2371</ele>
        <time>2021-08-12T10:32:16.578Z</time>
      </trkpt>
      <trkpt lat="46.85022" lon="8.4745">
        <ele>2371</ele>
        <time>2021-08-12T10:32:17.578Z</time>
      </trkpt>
      <trkpt lat="46.85022" lon="8.47448">
        <ele>2371</ele>
        <time>2021-08-12T10:32:18.577Z</time>
      </trkpt>
      <trkpt lat="46.85022" lon="8.47446">
        <ele>2370</ele>
        <time>2021-08-12T10:32:24.687Z</time>
      </trkpt>
      <trkpt lat="46.85021" lon="8.47444">
        <ele>2370</ele>
        <time>2021-08-12T10:32:25.688Z</time>
      </trkpt>
      <trkpt lat="46.85021" lon="8.47442">
        <ele>2370</ele>
        <time>2021-08-12T10:32:26.687Z</time>
      </trkpt>
      <trkpt lat="46.85021" lon="8.47441">
        <ele>2369</ele>
        <time>2021-08-12T10:32:27.687Z</time>
      </trkpt>
      <trkpt lat="46.85022" lon="8.47439">
        <ele>2369</ele>
        <time>2021-08-12T10:32:28.688Z</time>
      </trkpt>
      <trkpt lat="46.85023" lon="8.47436">
        <ele>2369</ele>
        <time>2021-08-12T10:32:29.687Z</time>
      </trkpt>
      <trkpt lat="46.85023" lon="8.47434">
        <ele>2368</ele>
        <time>2021-08-12T10:32:30.687Z</time>
      </trkpt>
      <trkpt lat="46.85022" lon="8.47432">
        <ele>2368</ele>
        <time>2021-08-12T10:32:31.687Z</time>
      </trkpt>
      <trkpt lat="46.85021" lon="8.4743">
        <ele>2367</ele>
        <time>2021-08-12T10:32:32.687Z</time>
      </trkpt>
      <trkpt lat="46.8502" lon="8.47429">
        <ele>2367</ele>
        <time>2021-08-12T10:32:33.687Z</time>
      </trkpt>
      <trkpt lat="46.85019" lon="8.47427">
        <ele>2367</ele>
        <time>2021-08-12T10:32:34.687Z</time>
      </trkpt>
      <trkpt lat="46.85019" lon="8.47426">
        <ele>2367</ele>
        <time>2021-08-12T10:32:35.688Z</time>
      </trkpt>
      <trkpt lat="46.85018" lon="8.47425">
        <ele>2366</ele>
        <time>2021-08-12T10:32:36.687Z</time>
      </trkpt>
      <trkpt lat="46.85017" lon="8.47424">
        <ele>2366</ele>
        <time>2021-08-12T10:32:37.687Z</time>
      </trkpt>
      <trkpt lat="46.85017" lon="8.47424">
        <ele>2366</ele>
        <time>2021-08-12T10:32:38.688Z</time>
      </trkpt>
      <trkpt lat="46.85016" lon="8.47422">
        <ele>2366</ele>
        <time>2021-08-12T10:32:39.688Z</time>
      </trkpt>
      <trkpt lat="46.85016" lon="8.47421">
        <ele>2366</ele>
        <time>2021-08-12T10:32:40.687Z</time>
      </trkpt>
      <trkpt lat="46.85017" lon="8.47421">
        <ele>2365</ele>
        <time>2021-08-12T10:32:41.687Z</time>
      </trkpt>
      <trkpt lat="46.85016" lon="8.47422">
        <ele>2367</ele>
        <time>2021-08-12T10:32:42.564Z</time>
      </trkpt>
      <trkpt lat="46.85016" lon="8.47422">
        <ele>2368</ele>
        <time>2021-08-12T10:32:43.564Z</time>
      </trkpt>
      <trkpt lat="46.85016" lon="8.47421">
        <ele>2368</ele>
        <time>2021-08-12T10:32:44.564Z</time>
      </trkpt>
      <trkpt lat="46.85016" lon="8.47421">
        <ele>2368</ele>
        <time>2021-08-12T10:32:45.565Z</time>
      </trkpt>
      <trkpt lat="46.85016" lon="8.47418">
        <ele>2366</ele>
        <time>2021-08-12T10:32:46.564Z</time>
      </trkpt>
      <trkpt lat="46.85016" lon="8.47417">
        <ele>2365</ele>
        <time>2021-08-12T10:32:47.565Z</time>
      </trkpt>
      <trkpt lat="46.85016" lon="8.47416">
        <ele>2365</ele>
        <time>2021-08-12T10:32:48.565Z</time>
      </trkpt>
      <trkpt lat="46.85016" lon="8.47416">
        <ele>2365</ele>
        <time>2021-08-12T10:32:49.565Z</time>
      </trkpt>
      <trkpt lat="46.85015" lon="8.47416">
        <ele>2365</ele>
        <time>2021-08-12T10:32:50.565Z</time>
      </trkpt>
      <trkpt lat="46.85015" lon="8.47415">
        <ele>2365</ele>
        <time>2021-08-12T10:32:51.565Z</time>
      </trkpt>
      <trkpt lat="46.85015" lon="8.47414">
        <ele>2365</ele>
        <time>2021-08-12T10:32:52.565Z</time>
      </trkpt>
      <trkpt lat="46.85014" lon="8.47413">
        <ele>2365</ele>
        <time>2021-08-12T10:32:53.565Z</time>
      </trkpt>
      <trkpt lat="46.85013" lon="8.47412">
        <ele>2365</ele>
        <time>2021-08-12T10:32:54.564Z</time>
      </trkpt>
      <trkpt lat="46.85013" lon="8.47411">
        <ele>2364</ele>
        <time>2021-08-12T10:32:55.564Z</time>
      </trkpt>
      <trkpt lat="46.85013" lon="8.47411">
        <ele>2364</ele>
        <time>2021-08-12T10:32:56.565Z</time>
      </trkpt>
      <trkpt lat="46.85012" lon="8.47411">
        <ele>2365</ele>
        <time>2021-08-12T10:32:57.564Z</time>
      </trkpt>
      <trkpt lat="46.85012" lon="8.47411">
        <ele>2365</ele>
        <time>2021-08-12T10:32:58.564Z</time>
      </trkpt>
      <trkpt lat="46.85011" lon="8.47411">
        <ele>2365</ele>
        <time>2021-08-12T10:32:59.564Z</time>
      </trkpt>
      <trkpt lat="46.85011" lon="8.47411">
        <ele>2365</ele>
        <time>2021-08-12T10:33:00.565Z</time>
      </trkpt>
      <trkpt lat="46.8501" lon="8.47411">
        <ele>2364</ele>
        <time>2021-08-12T10:33:01.565Z</time>
      </trkpt>
      <trkpt lat="46.85009" lon="8.47411">
        <ele>2364</ele>
        <time>2021-08-12T10:33:02.564Z</time>
      </trkpt>
      <trkpt lat="46.85009" lon="8.47411">
        <ele>2363</ele>
        <time>2021-08-12T10:33:03.565Z</time>
      </trkpt>
      <trkpt lat="46.85009" lon="8.4741">
        <ele>2363</ele>
        <time>2021-08-12T10:33:04.564Z</time>
      </trkpt>
      <trkpt lat="46.85008" lon="8.4741">
        <ele>2363</ele>
        <time>2021-08-12T10:33:05.565Z</time>
      </trkpt>
      <trkpt lat="46.85008" lon="8.4741">
        <ele>2362</ele>
        <time>2021-08-12T10:33:06.565Z</time>
      </trkpt>
      <trkpt lat="46.85007" lon="8.47409">
        <ele>2362</ele>
        <time>2021-08-12T10:33:07.564Z</time>
      </trkpt>
      <trkpt lat="46.85006" lon="8.47409">
        <ele>2361</ele>
        <time>2021-08-12T10:33:08.565Z</time>
      </trkpt>
      <trkpt lat="46.85006" lon="8.47409">
        <ele>2361</ele>
        <time>2021-08-12T10:33:09.564Z</time>
      </trkpt>
      <trkpt lat="46.85007" lon="8.47408">
        <ele>2361</ele>
        <time>2021-08-12T10:33:10.564Z</time>
      </trkpt>
      <trkpt lat="46.85007" lon="8.47408">
        <ele>2360</ele>
        <time>2021-08-12T10:33:11.565Z</time>
      </trkpt>
      <trkpt lat="46.85007" lon="8.47408">
        <ele>2360</ele>
        <time>2021-08-12T10:33:12.564Z</time>
      </trkpt>
      <trkpt lat="46.85008" lon="8.47409">
        <ele>2361</ele>
        <time>2021-08-12T10:33:13.565Z</time>
      </trkpt>
      <trkpt lat="46.85009" lon="8.47405">
        <ele>2361</ele>
        <time>2021-08-12T10:33:14.564Z</time>
      </trkpt>
      <trkpt lat="46.85009" lon="8.47406">
        <ele>2361</ele>
        <time>2021-08-12T10:33:15.565Z</time>
      </trkpt>
      <trkpt lat="46.85008" lon="8.47407">
        <ele>2361</ele>
        <time>2021-08-12T10:33:16.565Z</time>
      </trkpt>
      <trkpt lat="46.85007" lon="8.47407">
        <ele>2361</ele>
        <time>2021-08-12T10:33:17.564Z</time>
      </trkpt>
      <trkpt lat="46.85007" lon="8.47407">
        <ele>2361</ele>
        <time>2021-08-12T10:33:18.565Z</time>
      </trkpt>
      <trkpt lat="46.85008" lon="8.47409">
        <ele>2361</ele>
        <time>2021-08-12T10:33:19.566Z</time>
      </trkpt>
      <trkpt lat="46.85008" lon="8.47409">
        <ele>2360</ele>
        <time>2021-08-12T10:33:20.566Z</time>
      </trkpt>
      <trkpt lat="46.85008" lon="8.47408">
        <ele>2360</ele>
        <time>2021-08-12T10:33:21.566Z</time>
      </trkpt>
      <trkpt lat="46.85011" lon="8.47406">
        <ele>2355</ele>
        <time>2021-08-12T10:33:22.567Z</time>
      </trkpt>
      <trkpt lat="46.85012" lon="8.47405">
        <ele>2355</ele>
        <time>2021-08-12T10:33:23.567Z</time>
      </trkpt>
      <trkpt lat="46.85013" lon="8.47404">
        <ele>2355</ele>
        <time>2021-08-12T10:33:24.566Z</time>
      </trkpt>
      <trkpt lat="46.85013" lon="8.47404">
        <ele>2355</ele>
        <time>2021-08-12T10:33:25.566Z</time>
      </trkpt>
      <trkpt lat="46.85013" lon="8.47404">
        <ele>2355</ele>
        <time>2021-08-12T10:33:26.567Z</time>
      </trkpt>
      <trkpt lat="46.85013" lon="8.47403">
        <ele>2355</ele>
        <time>2021-08-12T10:33:27.567Z</time>
      </trkpt>
      <trkpt lat="46.85013" lon="8.47403">
        <ele>2355</ele>
        <time>2021-08-12T10:33:28.566Z</time>
      </trkpt>
      <trkpt lat="46.85013" lon="8.47402">
        <ele>2355</ele>
        <time>2021-08-12T10:33:29.567Z</time>
      </trkpt>
      <trkpt lat="46.85013" lon="8.47402">
        <ele>2355</ele>
        <time>2021-08-12T10:33:30.567Z</time>
      </trkpt>
      <trkpt lat="46.85013" lon="8.47401">
        <ele>2355</ele>
        <time>2021-08-12T10:33:31.567Z</time>
      </trkpt>
      <trkpt lat="46.85014" lon="8.47401">
        <ele>2355</ele>
        <time>2021-08-12T10:33:32.567Z</time>
      </trkpt>
      <trkpt lat="46.85014" lon="8.47401">
        <ele>2355</ele>
        <time>2021-08-12T10:33:33.566Z</time>
      </trkpt>
      <trkpt lat="46.85014" lon="8.47401">
        <ele>2355</ele>
        <time>2021-08-12T10:33:34.567Z</time>
      </trkpt>
      <trkpt lat="46.85014" lon="8.47401">
        <ele>2355</ele>
        <time>2021-08-12T10:33:35.566Z</time>
      </trkpt>
      <trkpt lat="46.85013" lon="8.474">
        <ele>2355</ele>
        <time>2021-08-12T10:33:36.567Z</time>
      </trkpt>
      <trkpt lat="46.85013" lon="8.47399">
        <ele>2355</ele>
        <time>2021-08-12T10:33:37.567Z</time>
      </trkpt>
      <trkpt lat="46.85012" lon="8.47398">
        <ele>2356</ele>
        <time>2021-08-12T10:33:38.566Z</time>
      </trkpt>
      <trkpt lat="46.85012" lon="8.47396">
        <ele>2356</ele>
        <time>2021-08-12T10:33:39.567Z</time>
      </trkpt>
      <trkpt lat="46.85012" lon="8.47395">
        <ele>2356</ele>
        <time>2021-08-12T10:33:40.567Z</time>
      </trkpt>
      <trkpt lat="46.85012" lon="8.47394">
        <ele>2356</ele>
        <time>2021-08-12T10:33:41.567Z</time>
      </trkpt>
      <trkpt lat="46.85012" lon="8.47394">
        <ele>2356</ele>
        <time>2021-08-12T10:33:42.567Z</time>
      </trkpt>
      <trkpt lat="46.85012" lon="8.47393">
        <ele>2355</ele>
        <time>2021-08-12T10:33:43.567Z</time>
      </trkpt>
      <trkpt lat="46.85012" lon="8.47393">
        <ele>2354</ele>
        <time>2021-08-12T10:33:44.566Z</time>
      </trkpt>
      <trkpt lat="46.85013" lon="8.47392">
        <ele>2354</ele>
        <time>2021-08-12T10:33:45.567Z</time>
      </trkpt>
      <trkpt lat="46.85013" lon="8.47392">
        <ele>2353</ele>
        <time>2021-08-12T10:33:46.567Z</time>
      </trkpt>
      <trkpt lat="46.85013" lon="8.47392">
        <ele>2352</ele>
        <time>2021-08-12T10:33:47.567Z</time>
      </trkpt>
      <trkpt lat="46.85013" lon="8.47392">
        <ele>2351</ele>
        <time>2021-08-12T10:33:48.566Z</time>
      </trkpt>
      <trkpt lat="46.85012" lon="8.47393">
        <ele>2350</ele>
        <time>2021-08-12T10:33:49.567Z</time>
      </trkpt>
      <trkpt lat="46.85012" lon="8.47393">
        <ele>2349</ele>
        <time>2021-08-12T10:33:50.567Z</time>
      </trkpt>
      <trkpt lat="46.85012" lon="8.47392">
        <ele>2348</ele>
        <time>2021-08-12T10:33:51.567Z</time>
      </trkpt>
      <trkpt lat="46.85012" lon="8.47392">
        <ele>2348</ele>
        <time>2021-08-12T10:33:52.566Z</time>
      </trkpt>
      <trkpt lat="46.85012" lon="8.47391">
        <ele>2347</ele>
        <time>2021-08-12T10:33:53.567Z</time>
      </trkpt>
      <trkpt lat="46.85012" lon="8.47391">
        <ele>2346</ele>
        <time>2021-08-12T10:33:54.567Z</time>
      </trkpt>
      <trkpt lat="46.85012" lon="8.47391">
        <ele>2346</ele>
        <time>2021-08-12T10:33:55.567Z</time>
      </trkpt>
      <trkpt lat="46.85012" lon="8.4739">
        <ele>2345</ele>
        <time>2021-08-12T10:33:56.567Z</time>
      </trkpt>
      <trkpt lat="46.85014" lon="8.47391">
        <ele>2347</ele>
        <time>2021-08-12T10:33:57.568Z</time>
      </trkpt>
      <trkpt lat="46.85015" lon="8.4739">
        <ele>2347</ele>
        <time>2021-08-12T10:33:58.568Z</time>
      </trkpt>
      <trkpt lat="46.85015" lon="8.4739">
        <ele>2347</ele>
        <time>2021-08-12T10:33:59.567Z</time>
      </trkpt>
      <trkpt lat="46.85016" lon="8.47389">
        <ele>2347</ele>
        <time>2021-08-12T10:34:00.569Z</time>
      </trkpt>
      <trkpt lat="46.85017" lon="8.47389">
        <ele>2348</ele>
        <time>2021-08-12T10:34:01.568Z</time>
      </trkpt>
      <trkpt lat="46.85017" lon="8.47388">
        <ele>2348</ele>
        <time>2021-08-12T10:34:02.568Z</time>
      </trkpt>
      <trkpt lat="46.85017" lon="8.47388">
        <ele>2349</ele>
        <time>2021-08-12T10:34:03.569Z</time>
      </trkpt>
      <trkpt lat="46.85018" lon="8.47387">
        <ele>2350</ele>
        <time>2021-08-12T10:34:04.569Z</time>
      </trkpt>
      <trkpt lat="46.85018" lon="8.47387">
        <ele>2351</ele>
        <time>2021-08-12T10:34:05.570Z</time>
      </trkpt>
      <trkpt lat="46.85018" lon="8.47387">
        <ele>2351</ele>
        <time>2021-08-12T10:34:06.569Z</time>
      </trkpt>
      <trkpt lat="46.85019" lon="8.47387">
        <ele>2351</ele>
        <time>2021-08-12T10:34:07.570Z</time>
      </trkpt>
      <trkpt lat="46.85019" lon="8.47387">
        <ele>2351</ele>
        <time>2021-08-12T10:34:08.570Z</time>
      </trkpt>
      <trkpt lat="46.85018" lon="8.47387">
        <ele>2351</ele>
        <time>2021-08-12T10:34:09.570Z</time>
      </trkpt>
      <trkpt lat="46.85017" lon="8.47388">
        <ele>2350</ele>
        <time>2021-08-12T10:34:10.571Z</time>
      </trkpt>
      <trkpt lat="46.85016" lon="8.47387">
        <ele>2350</ele>
        <time>2021-08-12T10:34:11.571Z</time>
      </trkpt>
      <trkpt lat="46.85016" lon="8.47388">
        <ele>2352</ele>
        <time>2021-08-12T10:34:12.572Z</time>
      </trkpt>
      <trkpt lat="46.85017" lon="8.47388">
        <ele>2353</ele>
        <time>2021-08-12T10:34:13.572Z</time>
      </trkpt>
      <trkpt lat="46.85016" lon="8.47387">
        <ele>2353</ele>
        <time>2021-08-12T10:34:14.574Z</time>
      </trkpt>
      <trkpt lat="46.85017" lon="8.47383">
        <ele>2351</ele>
        <time>2021-08-12T10:34:15.574Z</time>
      </trkpt>
      <trkpt lat="46.85017" lon="8.47383">
        <ele>2351</ele>
        <time>2021-08-12T10:34:16.574Z</time>
      </trkpt>
      <trkpt lat="46.85017" lon="8.47381">
        <ele>2351</ele>
        <time>2021-08-12T10:34:17.574Z</time>
      </trkpt>
      <trkpt lat="46.85015" lon="8.47379">
        <ele>2351</ele>
        <time>2021-08-12T10:34:18.574Z</time>
      </trkpt>
      <trkpt lat="46.85014" lon="8.47378">
        <ele>2350</ele>
        <time>2021-08-12T10:34:19.574Z</time>
      </trkpt>
      <trkpt lat="46.85013" lon="8.47378">
        <ele>2351</ele>
        <time>2021-08-12T10:34:20.574Z</time>
      </trkpt>
      <trkpt lat="46.85013" lon="8.47377">
        <ele>2351</ele>
        <time>2021-08-12T10:34:21.574Z</time>
      </trkpt>
      <trkpt lat="46.85012" lon="8.47377">
        <ele>2351</ele>
        <time>2021-08-12T10:34:22.575Z</time>
      </trkpt>
      <trkpt lat="46.85012" lon="8.47376">
        <ele>2352</ele>
        <time>2021-08-12T10:34:23.575Z</time>
      </trkpt>
      <trkpt lat="46.85012" lon="8.47375">
        <ele>2352</ele>
        <time>2021-08-12T10:34:30.704Z</time>
      </trkpt>
      <trkpt lat="46.85011" lon="8.47375">
        <ele>2352</ele>
        <time>2021-08-12T10:34:31.704Z</time>
      </trkpt>
      <trkpt lat="46.8501" lon="8.47374">
        <ele>2352</ele>
        <time>2021-08-12T10:34:33.580Z</time>
      </trkpt>
      <trkpt lat="46.85009" lon="8.47374">
        <ele>2351</ele>
        <time>2021-08-12T10:34:34.580Z</time>
      </trkpt>
      <trkpt lat="46.85008" lon="8.47373">
        <ele>2351</ele>
        <time>2021-08-12T10:34:35.580Z</time>
      </trkpt>
      <trkpt lat="46.85007" lon="8.47372">
        <ele>2351</ele>
        <time>2021-08-12T10:34:36.581Z</time>
      </trkpt>
      <trkpt lat="46.85007" lon="8.47372">
        <ele>2350</ele>
        <time>2021-08-12T10:34:37.580Z</time>
      </trkpt>
      <trkpt lat="46.85007" lon="8.47371">
        <ele>2350</ele>
        <time>2021-08-12T10:34:38.581Z</time>
      </trkpt>
      <trkpt lat="46.85006" lon="8.4737">
        <ele>2350</ele>
        <time>2021-08-12T10:34:45.729Z</time>
      </trkpt>
      <trkpt lat="46.85006" lon="8.47369">
        <ele>2350</ele>
        <time>2021-08-12T10:34:46.728Z</time>
      </trkpt>
      <trkpt lat="46.85006" lon="8.47368">
        <ele>2350</ele>
        <time>2021-08-12T10:34:47.728Z</time>
      </trkpt>
      <trkpt lat="46.85006" lon="8.47367">
        <ele>2349</ele>
        <time>2021-08-12T10:34:48.728Z</time>
      </trkpt>
      <trkpt lat="46.85006" lon="8.47366">
        <ele>2349</ele>
        <time>2021-08-12T10:34:49.729Z</time>
      </trkpt>
      <trkpt lat="46.85006" lon="8.47365">
        <ele>2348</ele>
        <time>2021-08-12T10:34:54.825Z</time>
      </trkpt>
      <trkpt lat="46.85006" lon="8.47364">
        <ele>2348</ele>
        <time>2021-08-12T10:34:55.825Z</time>
      </trkpt>
      <trkpt lat="46.85006" lon="8.47363">
        <ele>2347</ele>
        <time>2021-08-12T10:34:56.826Z</time>
      </trkpt>
      <trkpt lat="46.85006" lon="8.47361">
        <ele>2346</ele>
        <time>2021-08-12T10:34:57.825Z</time>
      </trkpt>
      <trkpt lat="46.85006" lon="8.4736">
        <ele>2346</ele>
        <time>2021-08-12T10:34:58.826Z</time>
      </trkpt>
      <trkpt lat="46.85006" lon="8.47359">
        <ele>2346</ele>
        <time>2021-08-12T10:34:59.826Z</time>
      </trkpt>
      <trkpt lat="46.85007" lon="8.47356">
        <ele>2346</ele>
        <time>2021-08-12T10:35:00.826Z</time>
      </trkpt>
      <trkpt lat="46.85009" lon="8.47352">
        <ele>2346</ele>
        <time>2021-08-12T10:35:01.825Z</time>
      </trkpt>
      <trkpt lat="46.8501" lon="8.4735">
        <ele>2346</ele>
        <time>2021-08-12T10:35:02.825Z</time>
      </trkpt>
      <trkpt lat="46.8501" lon="8.47351">
        <ele>2346</ele>
        <time>2021-08-12T10:35:03.826Z</time>
      </trkpt>
      <trkpt lat="46.8501" lon="8.47353">
        <ele>2346</ele>
        <time>2021-08-12T10:35:04.825Z</time>
      </trkpt>
      <trkpt lat="46.8501" lon="8.47354">
        <ele>2347</ele>
        <time>2021-08-12T10:35:05.826Z</time>
      </trkpt>
      <trkpt lat="46.85011" lon="8.47354">
        <ele>2347</ele>
        <time>2021-08-12T10:35:06.826Z</time>
      </trkpt>
      <trkpt lat="46.85011" lon="8.47353">
        <ele>2348</ele>
        <time>2021-08-12T10:35:07.826Z</time>
      </trkpt>
      <trkpt lat="46.85011" lon="8.47352">
        <ele>2348</ele>
        <time>2021-08-12T10:35:08.826Z</time>
      </trkpt>
      <trkpt lat="46.8501" lon="8.4735">
        <ele>2348</ele>
        <time>2021-08-12T10:35:09.825Z</time>
      </trkpt>
      <trkpt lat="46.8501" lon="8.47349">
        <ele>2347</ele>
        <time>2021-08-12T10:35:10.825Z</time>
      </trkpt>
      <trkpt lat="46.85009" lon="8.47349">
        <ele>2347</ele>
        <time>2021-08-12T10:35:11.825Z</time>
      </trkpt>
      <trkpt lat="46.85009" lon="8.47348">
        <ele>2346</ele>
        <time>2021-08-12T10:35:12.825Z</time>
      </trkpt>
      <trkpt lat="46.85009" lon="8.47348">
        <ele>2346</ele>
        <time>2021-08-12T10:35:13.826Z</time>
      </trkpt>
      <trkpt lat="46.85009" lon="8.47347">
        <ele>2345</ele>
        <time>2021-08-12T10:35:14.825Z</time>
      </trkpt>
      <trkpt lat="46.85009" lon="8.47347">
        <ele>2345</ele>
        <time>2021-08-12T10:35:15.826Z</time>
      </trkpt>
      <trkpt lat="46.85008" lon="8.47346">
        <ele>2345</ele>
        <time>2021-08-12T10:35:16.825Z</time>
      </trkpt>
      <trkpt lat="46.85008" lon="8.47346">
        <ele>2345</ele>
        <time>2021-08-12T10:35:17.825Z</time>
      </trkpt>
      <trkpt lat="46.85007" lon="8.47346">
        <ele>2344</ele>
        <time>2021-08-12T10:35:18.826Z</time>
      </trkpt>
      <trkpt lat="46.85007" lon="8.47345">
        <ele>2344</ele>
        <time>2021-08-12T10:35:19.825Z</time>
      </trkpt>
      <trkpt lat="46.85007" lon="8.47344">
        <ele>2343</ele>
        <time>2021-08-12T10:35:20.826Z</time>
      </trkpt>
      <trkpt lat="46.85006" lon="8.47343">
        <ele>2342</ele>
        <time>2021-08-12T10:35:21.826Z</time>
      </trkpt>
      <trkpt lat="46.85006" lon="8.47342">
        <ele>2342</ele>
        <time>2021-08-12T10:35:22.826Z</time>
      </trkpt>
      <trkpt lat="46.85006" lon="8.47341">
        <ele>2341</ele>
        <time>2021-08-12T10:35:23.825Z</time>
      </trkpt>
      <trkpt lat="46.85006" lon="8.4734">
        <ele>2341</ele>
        <time>2021-08-12T10:35:24.825Z</time>
      </trkpt>
      <trkpt lat="46.85006" lon="8.47339">
        <ele>2341</ele>
        <time>2021-08-12T10:35:25.825Z</time>
      </trkpt>
      <trkpt lat="46.85006" lon="8.47338">
        <ele>2340</ele>
        <time>2021-08-12T10:35:26.826Z</time>
      </trkpt>
      <trkpt lat="46.85006" lon="8.47337">
        <ele>2340</ele>
        <time>2021-08-12T10:35:27.825Z</time>
      </trkpt>
      <trkpt lat="46.85006" lon="8.47336">
        <ele>2339</ele>
        <time>2021-08-12T10:35:28.825Z</time>
      </trkpt>
      <trkpt lat="46.85006" lon="8.47334">
        <ele>2338</ele>
        <time>2021-08-12T10:35:29.826Z</time>
      </trkpt>
      <trkpt lat="46.85005" lon="8.47333">
        <ele>2338</ele>
        <time>2021-08-12T10:35:30.825Z</time>
      </trkpt>
      <trkpt lat="46.85004" lon="8.47331">
        <ele>2337</ele>
        <time>2021-08-12T10:35:31.825Z</time>
      </trkpt>
      <trkpt lat="46.85004" lon="8.47331">
        <ele>2337</ele>
        <time>2021-08-12T10:35:32.825Z</time>
      </trkpt>
      <trkpt lat="46.85003" lon="8.4733">
        <ele>2337</ele>
        <time>2021-08-12T10:35:33.825Z</time>
      </trkpt>
      <trkpt lat="46.85001" lon="8.47329">
        <ele>2337</ele>
        <time>2021-08-12T10:35:34.825Z</time>
      </trkpt>
      <trkpt lat="46.85001" lon="8.47328">
        <ele>2337</ele>
        <time>2021-08-12T10:35:35.825Z</time>
      </trkpt>
      <trkpt lat="46.85001" lon="8.47326">
        <ele>2337</ele>
        <time>2021-08-12T10:35:36.826Z</time>
      </trkpt>
      <trkpt lat="46.85" lon="8.47325">
        <ele>2336</ele>
        <time>2021-08-12T10:36:00.985Z</time>
      </trkpt>
      <trkpt lat="46.85001" lon="8.47323">
        <ele>2336</ele>
        <time>2021-08-12T10:36:01.985Z</time>
      </trkpt>
      <trkpt lat="46.85" lon="8.47323">
        <ele>2336</ele>
        <time>2021-08-12T10:36:02.985Z</time>
      </trkpt>
      <trkpt lat="46.85" lon="8.47323">
        <ele>2337</ele>
        <time>2021-08-12T10:36:03.985Z</time>
      </trkpt>
      <trkpt lat="46.85" lon="8.47323">
        <ele>2337</ele>
        <time>2021-08-12T10:36:04.985Z</time>
      </trkpt>
      <trkpt lat="46.85" lon="8.47323">
        <ele>2337</ele>
        <time>2021-08-12T10:36:05.985Z</time>
      </trkpt>
      <trkpt lat="46.85" lon="8.4732">
        <ele>2337</ele>
        <time>2021-08-12T10:36:06.986Z</time>
      </trkpt>
      <trkpt lat="46.85" lon="8.47319">
        <ele>2337</ele>
        <time>2021-08-12T10:36:07.985Z</time>
      </trkpt>
      <trkpt lat="46.85" lon="8.47318">
        <ele>2337</ele>
        <time>2021-08-12T10:36:08.986Z</time>
      </trkpt>
      <trkpt lat="46.84999" lon="8.47317">
        <ele>2337</ele>
        <time>2021-08-12T10:36:09.985Z</time>
      </trkpt>
      <trkpt lat="46.84999" lon="8.47316">
        <ele>2336</ele>
        <time>2021-08-12T10:36:10.985Z</time>
      </trkpt>
      <trkpt lat="46.84999" lon="8.47315">
        <ele>2336</ele>
        <time>2021-08-12T10:36:11.985Z</time>
      </trkpt>
      <trkpt lat="46.84999" lon="8.47314">
        <ele>2336</ele>
        <time>2021-08-12T10:36:17.106Z</time>
      </trkpt>
      <trkpt lat="46.84999" lon="8.47314">
        <ele>2335</ele>
        <time>2021-08-12T10:36:18.105Z</time>
      </trkpt>
      <trkpt lat="46.84999" lon="8.47313">
        <ele>2335</ele>
        <time>2021-08-12T10:36:19.106Z</time>
      </trkpt>
      <trkpt lat="46.84998" lon="8.47313">
        <ele>2334</ele>
        <time>2021-08-12T10:36:20.106Z</time>
      </trkpt>
      <trkpt lat="46.84998" lon="8.47313">
        <ele>2334</ele>
        <time>2021-08-12T10:36:21.106Z</time>
      </trkpt>
      <trkpt lat="46.84998" lon="8.47314">
        <ele>2333</ele>
        <time>2021-08-12T10:36:22.106Z</time>
      </trkpt>
      <trkpt lat="46.84998" lon="8.47314">
        <ele>2333</ele>
        <time>2021-08-12T10:36:23.106Z</time>
      </trkpt>
      <trkpt lat="46.84998" lon="8.47314">
        <ele>2333</ele>
        <time>2021-08-12T10:36:24.106Z</time>
      </trkpt>
      <trkpt lat="46.84998" lon="8.47313">
        <ele>2333</ele>
        <time>2021-08-12T10:36:25.106Z</time>
      </trkpt>
      <trkpt lat="46.84998" lon="8.47313">
        <ele>2334</ele>
        <time>2021-08-12T10:36:26.105Z</time>
      </trkpt>
      <trkpt lat="46.84998" lon="8.47313">
        <ele>2333</ele>
        <time>2021-08-12T10:37:05.243Z</time>
      </trkpt>
      <trkpt lat="46.84998" lon="8.47313">
        <ele>2332</ele>
        <time>2021-08-12T10:37:27.120Z</time>
      </trkpt>
      <trkpt lat="46.84998" lon="8.47307">
        <ele>2331</ele>
        <time>2021-08-12T10:37:28.121Z</time>
      </trkpt>
      <trkpt lat="46.84997" lon="8.47309">
        <ele>2331</ele>
        <time>2021-08-12T10:37:29.120Z</time>
      </trkpt>
      <trkpt lat="46.84997" lon="8.4731">
        <ele>2331</ele>
        <time>2021-08-12T10:37:43.176Z</time>
      </trkpt>
      <trkpt lat="46.84997" lon="8.47311">
        <ele>2332</ele>
        <time>2021-08-12T10:37:44.175Z</time>
      </trkpt>
      <trkpt lat="46.84996" lon="8.47309">
        <ele>2332</ele>
        <time>2021-08-12T10:37:45.176Z</time>
      </trkpt>
      <trkpt lat="46.84997" lon="8.47308">
        <ele>2332</ele>
        <time>2021-08-12T10:37:46.176Z</time>
      </trkpt>
      <trkpt lat="46.84997" lon="8.47307">
        <ele>2332</ele>
        <time>2021-08-12T10:37:47.176Z</time>
      </trkpt>
      <trkpt lat="46.84997" lon="8.47306">
        <ele>2333</ele>
        <time>2021-08-12T10:38:04.314Z</time>
      </trkpt>
      <trkpt lat="46.84997" lon="8.47305">
        <ele>2333</ele>
        <time>2021-08-12T10:38:05.313Z</time>
      </trkpt>
      <trkpt lat="46.84996" lon="8.47304">
        <ele>2333</ele>
        <time>2021-08-12T10:38:06.314Z</time>
      </trkpt>
      <trkpt lat="46.84996" lon="8.47303">
        <ele>2333</ele>
        <time>2021-08-12T10:38:07.314Z</time>
      </trkpt>
      <trkpt lat="46.84996" lon="8.47302">
        <ele>2333</ele>
        <time>2021-08-12T10:38:08.314Z</time>
      </trkpt>
      <trkpt lat="46.84995" lon="8.47301">
        <ele>2333</ele>
        <time>2021-08-12T10:38:09.314Z</time>
      </trkpt>
      <trkpt lat="46.84995" lon="8.473">
        <ele>2333</ele>
        <time>2021-08-12T10:38:10.313Z</time>
      </trkpt>
      <trkpt lat="46.84994" lon="8.473">
        <ele>2332</ele>
        <time>2021-08-12T10:38:11.313Z</time>
      </trkpt>
      <trkpt lat="46.84994" lon="8.47299">
        <ele>2332</ele>
        <time>2021-08-12T10:38:12.314Z</time>
      </trkpt>
      <trkpt lat="46.84994" lon="8.47297">
        <ele>2332</ele>
        <time>2021-08-12T10:38:13.314Z</time>
      </trkpt>
      <trkpt lat="46.84994" lon="8.47296">
        <ele>2332</ele>
        <time>2021-08-12T10:38:20.436Z</time>
      </trkpt>
      <trkpt lat="46.84993" lon="8.47294">
        <ele>2331</ele>
        <time>2021-08-12T10:38:21.437Z</time>
      </trkpt>
      <trkpt lat="46.84993" lon="8.47293">
        <ele>2331</ele>
        <time>2021-08-12T10:38:22.437Z</time>
      </trkpt>
      <trkpt lat="46.84993" lon="8.47292">
        <ele>2332</ele>
        <time>2021-08-12T10:38:23.437Z</time>
      </trkpt>
      <trkpt lat="46.84993" lon="8.4729">
        <ele>2332</ele>
        <time>2021-08-12T10:38:24.436Z</time>
      </trkpt>
      <trkpt lat="46.84992" lon="8.47289">
        <ele>2332</ele>
        <time>2021-08-12T10:38:25.436Z</time>
      </trkpt>
      <trkpt lat="46.84992" lon="8.47288">
        <ele>2332</ele>
        <time>2021-08-12T10:38:26.437Z</time>
      </trkpt>
      <trkpt lat="46.84992" lon="8.47286">
        <ele>2331</ele>
        <time>2021-08-12T10:38:27.437Z</time>
      </trkpt>
      <trkpt lat="46.84991" lon="8.47285">
        <ele>2331</ele>
        <time>2021-08-12T10:38:28.437Z</time>
      </trkpt>
      <trkpt lat="46.84991" lon="8.47284">
        <ele>2331</ele>
        <time>2021-08-12T10:38:29.436Z</time>
      </trkpt>
      <trkpt lat="46.84991" lon="8.47283">
        <ele>2331</ele>
        <time>2021-08-12T10:38:30.437Z</time>
      </trkpt>
      <trkpt lat="46.8499" lon="8.47282">
        <ele>2331</ele>
        <time>2021-08-12T10:38:31.437Z</time>
      </trkpt>
      <trkpt lat="46.8499" lon="8.47281">
        <ele>2331</ele>
        <time>2021-08-12T10:38:32.437Z</time>
      </trkpt>
      <trkpt lat="46.8499" lon="8.4728">
        <ele>2331</ele>
        <time>2021-08-12T10:38:33.436Z</time>
      </trkpt>
      <trkpt lat="46.84989" lon="8.47279">
        <ele>2331</ele>
        <time>2021-08-12T10:38:34.437Z</time>
      </trkpt>
      <trkpt lat="46.84989" lon="8.47277">
        <ele>2331</ele>
        <time>2021-08-12T10:38:38.550Z</time>
      </trkpt>
      <trkpt lat="46.84989" lon="8.47276">
        <ele>2331</ele>
        <time>2021-08-12T10:38:39.549Z</time>
      </trkpt>
      <trkpt lat="46.84989" lon="8.47274">
        <ele>2330</ele>
        <time>2021-08-12T10:38:40.549Z</time>
      </trkpt>
      <trkpt lat="46.84989" lon="8.47273">
        <ele>2330</ele>
        <time>2021-08-12T10:38:41.550Z</time>
      </trkpt>
      <trkpt lat="46.84989" lon="8.47271">
        <ele>2330</ele>
        <time>2021-08-12T10:38:42.550Z</time>
      </trkpt>
      <trkpt lat="46.84989" lon="8.4727">
        <ele>2330</ele>
        <time>2021-08-12T10:38:43.550Z</time>
      </trkpt>
      <trkpt lat="46.84989" lon="8.47269">
        <ele>2329</ele>
        <time>2021-08-12T10:38:44.550Z</time>
      </trkpt>
      <trkpt lat="46.84989" lon="8.47268">
        <ele>2329</ele>
        <time>2021-08-12T10:38:56.710Z</time>
      </trkpt>
      <trkpt lat="46.84988" lon="8.47268">
        <ele>2329</ele>
        <time>2021-08-12T10:38:57.711Z</time>
      </trkpt>
      <trkpt lat="46.84987" lon="8.47268">
        <ele>2329</ele>
        <time>2021-08-12T10:38:58.711Z</time>
      </trkpt>
      <trkpt lat="46.84987" lon="8.47268">
        <ele>2330</ele>
        <time>2021-08-12T10:38:59.711Z</time>
      </trkpt>
      <trkpt lat="46.84986" lon="8.47269">
        <ele>2330</ele>
        <time>2021-08-12T10:39:10.824Z</time>
      </trkpt>
      <trkpt lat="46.84986" lon="8.47267">
        <ele>2331</ele>
        <time>2021-08-12T10:39:18.679Z</time>
      </trkpt>
      <trkpt lat="46.84985" lon="8.47265">
        <ele>2331</ele>
        <time>2021-08-12T10:39:19.678Z</time>
      </trkpt>
      <trkpt lat="46.84984" lon="8.47264">
        <ele>2331</ele>
        <time>2021-08-12T10:39:21.537Z</time>
      </trkpt>
      <trkpt lat="46.84984" lon="8.47263">
        <ele>2331</ele>
        <time>2021-08-12T10:39:22.537Z</time>
      </trkpt>
      <trkpt lat="46.84983" lon="8.47262">
        <ele>2331</ele>
        <time>2021-08-12T10:39:23.537Z</time>
      </trkpt>
      <trkpt lat="46.84983" lon="8.47261">
        <ele>2331</ele>
        <time>2021-08-12T10:39:24.537Z</time>
      </trkpt>
      <trkpt lat="46.84982" lon="8.47259">
        <ele>2331</ele>
        <time>2021-08-12T10:39:25.537Z</time>
      </trkpt>
      <trkpt lat="46.84982" lon="8.47257">
        <ele>2332</ele>
        <time>2021-08-12T10:39:26.536Z</time>
      </trkpt>
      <trkpt lat="46.84982" lon="8.47255">
        <ele>2332</ele>
        <time>2021-08-12T10:39:27.536Z</time>
      </trkpt>
      <trkpt lat="46.84982" lon="8.47254">
        <ele>2332</ele>
        <time>2021-08-12T10:39:28.537Z</time>
      </trkpt>
      <trkpt lat="46.84981" lon="8.47253">
        <ele>2332</ele>
        <time>2021-08-12T10:39:32.564Z</time>
      </trkpt>
      <trkpt lat="46.84981" lon="8.47252">
        <ele>2332</ele>
        <time>2021-08-12T10:39:41.426Z</time>
      </trkpt>
      <trkpt lat="46.84981" lon="8.47251">
        <ele>2332</ele>
        <time>2021-08-12T10:39:59.357Z</time>
      </trkpt>
      <trkpt lat="46.84981" lon="8.4725">
        <ele>2333</ele>
        <time>2021-08-12T10:40:00.358Z</time>
      </trkpt>
      <trkpt lat="46.84981" lon="8.4725">
        <ele>2333</ele>
        <time>2021-08-12T10:40:01.358Z</time>
      </trkpt>
      <trkpt lat="46.8498" lon="8.47249">
        <ele>2333</ele>
        <time>2021-08-12T10:40:02.358Z</time>
      </trkpt>
      <trkpt lat="46.8498" lon="8.47247">
        <ele>2332</ele>
        <time>2021-08-12T10:40:03.357Z</time>
      </trkpt>
      <trkpt lat="46.8498" lon="8.47246">
        <ele>2332</ele>
        <time>2021-08-12T10:40:04.358Z</time>
      </trkpt>
      <trkpt lat="46.84979" lon="8.47245">
        <ele>2332</ele>
        <time>2021-08-12T10:40:05.358Z</time>
      </trkpt>
      <trkpt lat="46.84979" lon="8.47244">
        <ele>2332</ele>
        <time>2021-08-12T10:40:06.358Z</time>
      </trkpt>
      <trkpt lat="46.84978" lon="8.47243">
        <ele>2332</ele>
        <time>2021-08-12T10:40:07.357Z</time>
      </trkpt>
      <trkpt lat="46.84977" lon="8.47242">
        <ele>2332</ele>
        <time>2021-08-12T10:40:08.358Z</time>
      </trkpt>
      <trkpt lat="46.84977" lon="8.47241">
        <ele>2333</ele>
        <time>2021-08-12T10:40:09.358Z</time>
      </trkpt>
      <trkpt lat="46.84976" lon="8.4724">
        <ele>2333</ele>
        <time>2021-08-12T10:40:10.357Z</time>
      </trkpt>
      <trkpt lat="46.84976" lon="8.47238">
        <ele>2333</ele>
        <time>2021-08-12T10:40:11.357Z</time>
      </trkpt>
      <trkpt lat="46.84976" lon="8.47237">
        <ele>2334</ele>
        <time>2021-08-12T10:40:12.358Z</time>
      </trkpt>
      <trkpt lat="46.84975" lon="8.47235">
        <ele>2334</ele>
        <time>2021-08-12T10:40:13.358Z</time>
      </trkpt>
      <trkpt lat="46.84975" lon="8.47234">
        <ele>2335</ele>
        <time>2021-08-12T10:40:14.357Z</time>
      </trkpt>
      <trkpt lat="46.84974" lon="8.47232">
        <ele>2335</ele>
        <time>2021-08-12T10:40:15.357Z</time>
      </trkpt>
      <trkpt lat="46.84973" lon="8.47231">
        <ele>2336</ele>
        <time>2021-08-12T10:40:16.358Z</time>
      </trkpt>
      <trkpt lat="46.84972" lon="8.4723">
        <ele>2336</ele>
        <time>2021-08-12T10:40:17.357Z</time>
      </trkpt>
      <trkpt lat="46.84971" lon="8.47229">
        <ele>2336</ele>
        <time>2021-08-12T10:40:18.358Z</time>
      </trkpt>
      <trkpt lat="46.84971" lon="8.47228">
        <ele>2336</ele>
        <time>2021-08-12T10:40:19.358Z</time>
      </trkpt>
      <trkpt lat="46.84969" lon="8.47226">
        <ele>2336</ele>
        <time>2021-08-12T10:40:20.358Z</time>
      </trkpt>
      <trkpt lat="46.84969" lon="8.47225">
        <ele>2336</ele>
        <time>2021-08-12T10:40:21.357Z</time>
      </trkpt>
      <trkpt lat="46.84968" lon="8.47224">
        <ele>2335</ele>
        <time>2021-08-12T10:40:22.358Z</time>
      </trkpt>
      <trkpt lat="46.84968" lon="8.47223">
        <ele>2335</ele>
        <time>2021-08-12T10:40:23.358Z</time>
      </trkpt>
      <trkpt lat="46.84967" lon="8.47223">
        <ele>2335</ele>
        <time>2021-08-12T10:40:24.357Z</time>
      </trkpt>
      <trkpt lat="46.84967" lon="8.47223">
        <ele>2335</ele>
        <time>2021-08-12T10:40:25.358Z</time>
      </trkpt>
      <trkpt lat="46.84967" lon="8.47223">
        <ele>2334</ele>
        <time>2021-08-12T10:40:26.358Z</time>
      </trkpt>
      <trkpt lat="46.84966" lon="8.47221">
        <ele>2334</ele>
        <time>2021-08-12T10:40:27.358Z</time>
      </trkpt>
      <trkpt lat="46.84966" lon="8.4722">
        <ele>2334</ele>
        <time>2021-08-12T10:40:28.358Z</time>
      </trkpt>
      <trkpt lat="46.84966" lon="8.47219">
        <ele>2334</ele>
        <time>2021-08-12T10:40:29.358Z</time>
      </trkpt>
      <trkpt lat="46.84965" lon="8.47219">
        <ele>2334</ele>
        <time>2021-08-12T10:40:30.357Z</time>
      </trkpt>
      <trkpt lat="46.84965" lon="8.47217">
        <ele>2334</ele>
        <time>2021-08-12T10:40:31.358Z</time>
      </trkpt>
      <trkpt lat="46.84964" lon="8.47216">
        <ele>2335</ele>
        <time>2021-08-12T10:40:32.358Z</time>
      </trkpt>
      <trkpt lat="46.84964" lon="8.47215">
        <ele>2335</ele>
        <time>2021-08-12T10:40:50.445Z</time>
      </trkpt>
      <trkpt lat="46.84964" lon="8.47214">
        <ele>2335</ele>
        <time>2021-08-12T10:40:51.444Z</time>
      </trkpt>
      <trkpt lat="46.84964" lon="8.47212">
        <ele>2335</ele>
        <time>2021-08-12T10:40:52.445Z</time>
      </trkpt>
      <trkpt lat="46.84964" lon="8.47211">
        <ele>2335</ele>
        <time>2021-08-12T10:40:53.445Z</time>
      </trkpt>
      <trkpt lat="46.84964" lon="8.4721">
        <ele>2335</ele>
        <time>2021-08-12T10:40:54.445Z</time>
      </trkpt>
      <trkpt lat="46.84963" lon="8.47209">
        <ele>2335</ele>
        <time>2021-08-12T10:40:55.444Z</time>
      </trkpt>
      <trkpt lat="46.84963" lon="8.47208">
        <ele>2334</ele>
        <time>2021-08-12T10:40:58.446Z</time>
      </trkpt>
      <trkpt lat="46.84962" lon="8.47206">
        <ele>2334</ele>
        <time>2021-08-12T10:40:59.446Z</time>
      </trkpt>
      <trkpt lat="46.84962" lon="8.47205">
        <ele>2334</ele>
        <time>2021-08-12T10:41:00.445Z</time>
      </trkpt>
      <trkpt lat="46.84962" lon="8.47204">
        <ele>2334</ele>
        <time>2021-08-12T10:41:58.551Z</time>
      </trkpt>
      <trkpt lat="46.84962" lon="8.47203">
        <ele>2334</ele>
        <time>2021-08-12T10:42:07.447Z</time>
      </trkpt>
      <trkpt lat="46.84961" lon="8.47201">
        <ele>2333</ele>
        <time>2021-08-12T10:42:08.446Z</time>
      </trkpt>
      <trkpt lat="46.84961" lon="8.472">
        <ele>2333</ele>
        <time>2021-08-12T10:42:09.447Z</time>
      </trkpt>
      <trkpt lat="46.84961" lon="8.47198">
        <ele>2332</ele>
        <time>2021-08-12T10:42:10.446Z</time>
      </trkpt>
      <trkpt lat="46.8496" lon="8.47196">
        <ele>2330</ele>
        <time>2021-08-12T10:42:11.446Z</time>
      </trkpt>
      <trkpt lat="46.8496" lon="8.47195">
        <ele>2329</ele>
        <time>2021-08-12T10:42:29.462Z</time>
      </trkpt>
      <trkpt lat="46.84959" lon="8.47193">
        <ele>2329</ele>
        <time>2021-08-12T10:42:30.463Z</time>
      </trkpt>
      <trkpt lat="46.84959" lon="8.47192">
        <ele>2328</ele>
        <time>2021-08-12T10:42:31.463Z</time>
      </trkpt>
      <trkpt lat="46.84959" lon="8.4719">
        <ele>2327</ele>
        <time>2021-08-12T10:42:32.463Z</time>
      </trkpt>
      <trkpt lat="46.84958" lon="8.47189">
        <ele>2326</ele>
        <time>2021-08-12T10:42:33.462Z</time>
      </trkpt>
      <trkpt lat="46.84958" lon="8.47187">
        <ele>2326</ele>
        <time>2021-08-12T10:42:34.463Z</time>
      </trkpt>
      <trkpt lat="46.84957" lon="8.47187">
        <ele>2326</ele>
        <time>2021-08-12T10:42:35.463Z</time>
      </trkpt>
      <trkpt lat="46.84957" lon="8.47187">
        <ele>2325</ele>
        <time>2021-08-12T10:42:36.462Z</time>
      </trkpt>
      <trkpt lat="46.84956" lon="8.47185">
        <ele>2325</ele>
        <time>2021-08-12T10:42:42.551Z</time>
      </trkpt>
      <trkpt lat="46.84956" lon="8.47183">
        <ele>2325</ele>
        <time>2021-08-12T10:42:43.551Z</time>
      </trkpt>
      <trkpt lat="46.84955" lon="8.47182">
        <ele>2325</ele>
        <time>2021-08-12T10:42:44.551Z</time>
      </trkpt>
      <trkpt lat="46.84955" lon="8.4718">
        <ele>2326</ele>
        <time>2021-08-12T10:42:45.550Z</time>
      </trkpt>
      <trkpt lat="46.84954" lon="8.47179">
        <ele>2326</ele>
        <time>2021-08-12T10:42:46.550Z</time>
      </trkpt>
      <trkpt lat="46.84954" lon="8.47177">
        <ele>2326</ele>
        <time>2021-08-12T10:42:47.551Z</time>
      </trkpt>
      <trkpt lat="46.84953" lon="8.47175">
        <ele>2326</ele>
        <time>2021-08-12T10:43:08.560Z</time>
      </trkpt>
      <trkpt lat="46.84953" lon="8.47174">
        <ele>2326</ele>
        <time>2021-08-12T10:43:09.561Z</time>
      </trkpt>
      <trkpt lat="46.84953" lon="8.47172">
        <ele>2326</ele>
        <time>2021-08-12T10:43:10.560Z</time>
      </trkpt>
      <trkpt lat="46.84952" lon="8.47171">
        <ele>2325</ele>
        <time>2021-08-12T10:43:11.561Z</time>
      </trkpt>
      <trkpt lat="46.84951" lon="8.47169">
        <ele>2325</ele>
        <time>2021-08-12T10:43:12.560Z</time>
      </trkpt>
      <trkpt lat="46.8495" lon="8.47168">
        <ele>2324</ele>
        <time>2021-08-12T10:43:13.560Z</time>
      </trkpt>
      <trkpt lat="46.84949" lon="8.47167">
        <ele>2324</ele>
        <time>2021-08-12T10:43:14.560Z</time>
      </trkpt>
      <trkpt lat="46.84949" lon="8.47166">
        <ele>2324</ele>
        <time>2021-08-12T10:43:15.561Z</time>
      </trkpt>
      <trkpt lat="46.84948" lon="8.47164">
        <ele>2324</ele>
        <time>2021-08-12T10:43:16.561Z</time>
      </trkpt>
      <trkpt lat="46.84948" lon="8.47163">
        <ele>2324</ele>
        <time>2021-08-12T10:43:17.560Z</time>
      </trkpt>
      <trkpt lat="46.84948" lon="8.47161">
        <ele>2324</ele>
        <time>2021-08-12T10:43:18.560Z</time>
      </trkpt>
      <trkpt lat="46.84947" lon="8.4716">
        <ele>2324</ele>
        <time>2021-08-12T10:43:19.560Z</time>
      </trkpt>
      <trkpt lat="46.84947" lon="8.47159">
        <ele>2324</ele>
        <time>2021-08-12T10:43:20.561Z</time>
      </trkpt>
      <trkpt lat="46.84946" lon="8.47159">
        <ele>2324</ele>
        <time>2021-08-12T10:43:23.585Z</time>
      </trkpt>
      <trkpt lat="46.84945" lon="8.47158">
        <ele>2324</ele>
        <time>2021-08-12T10:43:24.585Z</time>
      </trkpt>
      <trkpt lat="46.84944" lon="8.47157">
        <ele>2324</ele>
        <time>2021-08-12T10:43:38.436Z</time>
      </trkpt>
      <trkpt lat="46.84943" lon="8.47155">
        <ele>2324</ele>
        <time>2021-08-12T10:43:39.436Z</time>
      </trkpt>
      <trkpt lat="46.84943" lon="8.47154">
        <ele>2324</ele>
        <time>2021-08-12T10:43:52.294Z</time>
      </trkpt>
      <trkpt lat="46.84943" lon="8.47153">
        <ele>2324</ele>
        <time>2021-08-12T10:44:14.063Z</time>
      </trkpt>
      <trkpt lat="46.84942" lon="8.47153">
        <ele>2324</ele>
        <time>2021-08-12T10:44:15.063Z</time>
      </trkpt>
      <trkpt lat="46.84942" lon="8.47152">
        <ele>2325</ele>
        <time>2021-08-12T10:44:16.063Z</time>
      </trkpt>
      <trkpt lat="46.84941" lon="8.47151">
        <ele>2325</ele>
        <time>2021-08-12T10:44:37.922Z</time>
      </trkpt>
      <trkpt lat="46.8494" lon="8.47151">
        <ele>2326</ele>
        <time>2021-08-12T10:44:38.922Z</time>
      </trkpt>
      <trkpt lat="46.84939" lon="8.4715">
        <ele>2326</ele>
        <time>2021-08-12T10:44:45.685Z</time>
      </trkpt>
      <trkpt lat="46.84939" lon="8.47149">
        <ele>2327</ele>
        <time>2021-08-12T10:44:46.685Z</time>
      </trkpt>
      <trkpt lat="46.84938" lon="8.47149">
        <ele>2327</ele>
        <time>2021-08-12T10:44:47.685Z</time>
      </trkpt>
      <trkpt lat="46.84938" lon="8.47148">
        <ele>2327</ele>
        <time>2021-08-12T10:44:48.685Z</time>
      </trkpt>
      <trkpt lat="46.84937" lon="8.47148">
        <ele>2327</ele>
        <time>2021-08-12T10:44:49.685Z</time>
      </trkpt>
      <trkpt lat="46.84937" lon="8.47146">
        <ele>2327</ele>
        <time>2021-08-12T10:44:50.684Z</time>
      </trkpt>
      <trkpt lat="46.84937" lon="8.47145">
        <ele>2327</ele>
        <time>2021-08-12T10:44:51.685Z</time>
      </trkpt>
      <trkpt lat="46.84936" lon="8.47144">
        <ele>2327</ele>
        <time>2021-08-12T10:44:52.685Z</time>
      </trkpt>
      <trkpt lat="46.84936" lon="8.47142">
        <ele>2326</ele>
        <time>2021-08-12T10:44:53.685Z</time>
      </trkpt>
      <trkpt lat="46.84936" lon="8.47141">
        <ele>2326</ele>
        <time>2021-08-12T10:44:54.685Z</time>
      </trkpt>
      <trkpt lat="46.84936" lon="8.47139">
        <ele>2326</ele>
        <time>2021-08-12T10:44:55.684Z</time>
      </trkpt>
      <trkpt lat="46.84935" lon="8.47138">
        <ele>2326</ele>
        <time>2021-08-12T10:44:56.684Z</time>
      </trkpt>
      <trkpt lat="46.84934" lon="8.47136">
        <ele>2326</ele>
        <time>2021-08-12T10:44:57.685Z</time>
      </trkpt>
      <trkpt lat="46.84934" lon="8.47135">
        <ele>2326</ele>
        <time>2021-08-12T10:44:58.685Z</time>
      </trkpt>
      <trkpt lat="46.84933" lon="8.47134">
        <ele>2326</ele>
        <time>2021-08-12T10:44:59.685Z</time>
      </trkpt>
      <trkpt lat="46.84931" lon="8.47133">
        <ele>2326</ele>
        <time>2021-08-12T10:45:00.684Z</time>
      </trkpt>
      <trkpt lat="46.84931" lon="8.47132">
        <ele>2326</ele>
        <time>2021-08-12T10:45:01.685Z</time>
      </trkpt>
      <trkpt lat="46.8493" lon="8.47132">
        <ele>2326</ele>
        <time>2021-08-12T10:45:02.684Z</time>
      </trkpt>
      <trkpt lat="46.84929" lon="8.47131">
        <ele>2326</ele>
        <time>2021-08-12T10:45:03.684Z</time>
      </trkpt>
      <trkpt lat="46.84928" lon="8.4713">
        <ele>2325</ele>
        <time>2021-08-12T10:45:04.685Z</time>
      </trkpt>
      <trkpt lat="46.84926" lon="8.4713">
        <ele>2324</ele>
        <time>2021-08-12T10:45:05.685Z</time>
      </trkpt>
      <trkpt lat="46.84925" lon="8.4713">
        <ele>2324</ele>
        <time>2021-08-12T10:45:06.685Z</time>
      </trkpt>
      <trkpt lat="46.84924" lon="8.47128">
        <ele>2324</ele>
        <time>2021-08-12T10:45:07.685Z</time>
      </trkpt>
      <trkpt lat="46.84923" lon="8.47127">
        <ele>2323</ele>
        <time>2021-08-12T10:45:08.685Z</time>
      </trkpt>
      <trkpt lat="46.84922" lon="8.47126">
        <ele>2323</ele>
        <time>2021-08-12T10:45:09.684Z</time>
      </trkpt>
      <trkpt lat="46.84922" lon="8.47124">
        <ele>2323</ele>
        <time>2021-08-12T10:45:10.685Z</time>
      </trkpt>
      <trkpt lat="46.84922" lon="8.47122">
        <ele>2323</ele>
        <time>2021-08-12T10:45:11.684Z</time>
      </trkpt>
      <trkpt lat="46.84921" lon="8.47121">
        <ele>2323</ele>
        <time>2021-08-12T10:45:12.685Z</time>
      </trkpt>
      <trkpt lat="46.84921" lon="8.4712">
        <ele>2322</ele>
        <time>2021-08-12T10:45:13.685Z</time>
      </trkpt>
      <trkpt lat="46.84922" lon="8.47118">
        <ele>2322</ele>
        <time>2021-08-12T10:45:14.684Z</time>
      </trkpt>
      <trkpt lat="46.84922" lon="8.47116">
        <ele>2322</ele>
        <time>2021-08-12T10:45:15.685Z</time>
      </trkpt>
      <trkpt lat="46.84921" lon="8.47115">
        <ele>2322</ele>
        <time>2021-08-12T10:45:16.685Z</time>
      </trkpt>
      <trkpt lat="46.84921" lon="8.47113">
        <ele>2322</ele>
        <time>2021-08-12T10:45:17.684Z</time>
      </trkpt>
      <trkpt lat="46.84921" lon="8.47112">
        <ele>2322</ele>
        <time>2021-08-12T10:45:18.685Z</time>
      </trkpt>
      <trkpt lat="46.84921" lon="8.4711">
        <ele>2322</ele>
        <time>2021-08-12T10:45:19.685Z</time>
      </trkpt>
      <trkpt lat="46.84921" lon="8.47108">
        <ele>2321</ele>
        <time>2021-08-12T10:45:20.685Z</time>
      </trkpt>
      <trkpt lat="46.84921" lon="8.47107">
        <ele>2321</ele>
        <time>2021-08-12T10:45:21.684Z</time>
      </trkpt>
      <trkpt lat="46.84921" lon="8.47105">
        <ele>2321</ele>
        <time>2021-08-12T10:45:22.684Z</time>
      </trkpt>
      <trkpt lat="46.8492" lon="8.47103">
        <ele>2321</ele>
        <time>2021-08-12T10:45:23.684Z</time>
      </trkpt>
      <trkpt lat="46.8492" lon="8.47102">
        <ele>2321</ele>
        <time>2021-08-12T10:45:24.685Z</time>
      </trkpt>
      <trkpt lat="46.8492" lon="8.471">
        <ele>2321</ele>
        <time>2021-08-12T10:45:25.685Z</time>
      </trkpt>
      <trkpt lat="46.8492" lon="8.47099">
        <ele>2321</ele>
        <time>2021-08-12T10:45:26.685Z</time>
      </trkpt>
      <trkpt lat="46.8492" lon="8.47098">
        <ele>2321</ele>
        <time>2021-08-12T10:45:27.685Z</time>
      </trkpt>
      <trkpt lat="46.84919" lon="8.47097">
        <ele>2321</ele>
        <time>2021-08-12T10:45:28.685Z</time>
      </trkpt>
      <trkpt lat="46.84919" lon="8.47096">
        <ele>2321</ele>
        <time>2021-08-12T10:45:29.685Z</time>
      </trkpt>
      <trkpt lat="46.84919" lon="8.47094">
        <ele>2321</ele>
        <time>2021-08-12T10:45:30.684Z</time>
      </trkpt>
      <trkpt lat="46.84918" lon="8.47093">
        <ele>2321</ele>
        <time>2021-08-12T10:45:31.684Z</time>
      </trkpt>
      <trkpt lat="46.84918" lon="8.47092">
        <ele>2321</ele>
        <time>2021-08-12T10:45:32.684Z</time>
      </trkpt>
      <trkpt lat="46.84918" lon="8.47091">
        <ele>2321</ele>
        <time>2021-08-12T10:45:33.684Z</time>
      </trkpt>
      <trkpt lat="46.84917" lon="8.4709">
        <ele>2321</ele>
        <time>2021-08-12T10:45:34.684Z</time>
      </trkpt>
      <trkpt lat="46.84916" lon="8.47089">
        <ele>2321</ele>
        <time>2021-08-12T10:45:35.685Z</time>
      </trkpt>
      <trkpt lat="46.84915" lon="8.47088">
        <ele>2320</ele>
        <time>2021-08-12T10:45:36.684Z</time>
      </trkpt>
      <trkpt lat="46.84914" lon="8.47087">
        <ele>2320</ele>
        <time>2021-08-12T10:45:37.684Z</time>
      </trkpt>
      <trkpt lat="46.84913" lon="8.47086">
        <ele>2321</ele>
        <time>2021-08-12T10:45:38.685Z</time>
      </trkpt>
      <trkpt lat="46.84912" lon="8.47085">
        <ele>2321</ele>
        <time>2021-08-12T10:45:39.684Z</time>
      </trkpt>
      <trkpt lat="46.84912" lon="8.47083">
        <ele>2321</ele>
        <time>2021-08-12T10:45:40.684Z</time>
      </trkpt>
      <trkpt lat="46.84912" lon="8.47082">
        <ele>2322</ele>
        <time>2021-08-12T10:45:41.684Z</time>
      </trkpt>
      <trkpt lat="46.84911" lon="8.47081">
        <ele>2322</ele>
        <time>2021-08-12T10:45:42.684Z</time>
      </trkpt>
      <trkpt lat="46.84911" lon="8.47079">
        <ele>2323</ele>
        <time>2021-08-12T10:45:43.685Z</time>
      </trkpt>
      <trkpt lat="46.8491" lon="8.47078">
        <ele>2323</ele>
        <time>2021-08-12T10:45:44.685Z</time>
      </trkpt>
      <trkpt lat="46.84909" lon="8.47077">
        <ele>2323</ele>
        <time>2021-08-12T10:45:45.685Z</time>
      </trkpt>
      <trkpt lat="46.84908" lon="8.47076">
        <ele>2323</ele>
        <time>2021-08-12T10:45:46.685Z</time>
      </trkpt>
      <trkpt lat="46.84907" lon="8.47075">
        <ele>2323</ele>
        <time>2021-08-12T10:45:47.685Z</time>
      </trkpt>
      <trkpt lat="46.84906" lon="8.47075">
        <ele>2323</ele>
        <time>2021-08-12T10:45:48.685Z</time>
      </trkpt>
      <trkpt lat="46.84905" lon="8.47074">
        <ele>2323</ele>
        <time>2021-08-12T10:45:49.684Z</time>
      </trkpt>
      <trkpt lat="46.84903" lon="8.47073">
        <ele>2323</ele>
        <time>2021-08-12T10:45:50.684Z</time>
      </trkpt>
      <trkpt lat="46.84902" lon="8.47072">
        <ele>2323</ele>
        <time>2021-08-12T10:45:51.685Z</time>
      </trkpt>
      <trkpt lat="46.84901" lon="8.47071">
        <ele>2323</ele>
        <time>2021-08-12T10:45:52.685Z</time>
      </trkpt>
      <trkpt lat="46.849" lon="8.4707">
        <ele>2323</ele>
        <time>2021-08-12T10:45:53.685Z</time>
      </trkpt>
      <trkpt lat="46.84899" lon="8.47068">
        <ele>2322</ele>
        <time>2021-08-12T10:45:54.684Z</time>
      </trkpt>
      <trkpt lat="46.84898" lon="8.47067">
        <ele>2322</ele>
        <time>2021-08-12T10:45:55.685Z</time>
      </trkpt>
      <trkpt lat="46.84898" lon="8.47066">
        <ele>2321</ele>
        <time>2021-08-12T10:45:56.684Z</time>
      </trkpt>
      <trkpt lat="46.84897" lon="8.47064">
        <ele>2321</ele>
        <time>2021-08-12T10:45:57.685Z</time>
      </trkpt>
      <trkpt lat="46.84896" lon="8.47063">
        <ele>2321</ele>
        <time>2021-08-12T10:45:58.684Z</time>
      </trkpt>
      <trkpt lat="46.84896" lon="8.47062">
        <ele>2320</ele>
        <time>2021-08-12T10:45:59.685Z</time>
      </trkpt>
      <trkpt lat="46.84895" lon="8.47061">
        <ele>2320</ele>
        <time>2021-08-12T10:46:00.685Z</time>
      </trkpt>
      <trkpt lat="46.84894" lon="8.4706">
        <ele>2319</ele>
        <time>2021-08-12T10:46:01.685Z</time>
      </trkpt>
      <trkpt lat="46.84893" lon="8.47058">
        <ele>2320</ele>
        <time>2021-08-12T10:46:02.685Z</time>
      </trkpt>
      <trkpt lat="46.84893" lon="8.47057">
        <ele>2320</ele>
        <time>2021-08-12T10:46:03.684Z</time>
      </trkpt>
      <trkpt lat="46.84892" lon="8.47056">
        <ele>2320</ele>
        <time>2021-08-12T10:46:04.685Z</time>
      </trkpt>
      <trkpt lat="46.84891" lon="8.47055">
        <ele>2320</ele>
        <time>2021-08-12T10:46:05.684Z</time>
      </trkpt>
      <trkpt lat="46.8489" lon="8.47054">
        <ele>2320</ele>
        <time>2021-08-12T10:46:06.684Z</time>
      </trkpt>
      <trkpt lat="46.8489" lon="8.47052">
        <ele>2320</ele>
        <time>2021-08-12T10:46:07.685Z</time>
      </trkpt>
      <trkpt lat="46.84889" lon="8.47051">
        <ele>2320</ele>
        <time>2021-08-12T10:46:08.684Z</time>
      </trkpt>
      <trkpt lat="46.84888" lon="8.47051">
        <ele>2320</ele>
        <time>2021-08-12T10:46:09.684Z</time>
      </trkpt>
      <trkpt lat="46.84888" lon="8.47049">
        <ele>2319</ele>
        <time>2021-08-12T10:46:10.684Z</time>
      </trkpt>
      <trkpt lat="46.84887" lon="8.47048">
        <ele>2318</ele>
        <time>2021-08-12T10:46:11.685Z</time>
      </trkpt>
      <trkpt lat="46.84886" lon="8.47047">
        <ele>2318</ele>
        <time>2021-08-12T10:46:12.684Z</time>
      </trkpt>
      <trkpt lat="46.84886" lon="8.47045">
        <ele>2318</ele>
        <time>2021-08-12T10:46:13.684Z</time>
      </trkpt>
      <trkpt lat="46.84885" lon="8.47044">
        <ele>2318</ele>
        <time>2021-08-12T10:46:14.685Z</time>
      </trkpt>
      <trkpt lat="46.84884" lon="8.47042">
        <ele>2318</ele>
        <time>2021-08-12T10:46:15.685Z</time>
      </trkpt>
      <trkpt lat="46.84884" lon="8.47041">
        <ele>2318</ele>
        <time>2021-08-12T10:46:16.685Z</time>
      </trkpt>
      <trkpt lat="46.84883" lon="8.47039">
        <ele>2318</ele>
        <time>2021-08-12T10:46:17.685Z</time>
      </trkpt>
      <trkpt lat="46.84883" lon="8.47038">
        <ele>2317</ele>
        <time>2021-08-12T10:46:18.685Z</time>
      </trkpt>
      <trkpt lat="46.84883" lon="8.47036">
        <ele>2317</ele>
        <time>2021-08-12T10:46:19.685Z</time>
      </trkpt>
      <trkpt lat="46.84883" lon="8.47034">
        <ele>2317</ele>
        <time>2021-08-12T10:46:20.685Z</time>
      </trkpt>
      <trkpt lat="46.84883" lon="8.47032">
        <ele>2317</ele>
        <time>2021-08-12T10:46:21.685Z</time>
      </trkpt>
      <trkpt lat="46.84883" lon="8.4703">
        <ele>2317</ele>
        <time>2021-08-12T10:46:23.833Z</time>
      </trkpt>
      <trkpt lat="46.84883" lon="8.47028">
        <ele>2318</ele>
        <time>2021-08-12T10:46:24.833Z</time>
      </trkpt>
      <trkpt lat="46.84883" lon="8.47027">
        <ele>2318</ele>
        <time>2021-08-12T10:46:25.832Z</time>
      </trkpt>
      <trkpt lat="46.84882" lon="8.47025">
        <ele>2318</ele>
        <time>2021-08-12T10:46:26.833Z</time>
      </trkpt>
      <trkpt lat="46.84882" lon="8.47024">
        <ele>2318</ele>
        <time>2021-08-12T10:46:27.833Z</time>
      </trkpt>
      <trkpt lat="46.84882" lon="8.47022">
        <ele>2318</ele>
        <time>2021-08-12T10:46:28.832Z</time>
      </trkpt>
      <trkpt lat="46.84881" lon="8.4702">
        <ele>2318</ele>
        <time>2021-08-12T10:46:29.833Z</time>
      </trkpt>
      <trkpt lat="46.84881" lon="8.47018">
        <ele>2318</ele>
        <time>2021-08-12T10:46:30.833Z</time>
      </trkpt>
      <trkpt lat="46.84881" lon="8.47016">
        <ele>2318</ele>
        <time>2021-08-12T10:46:31.833Z</time>
      </trkpt>
      <trkpt lat="46.84881" lon="8.47015">
        <ele>2318</ele>
        <time>2021-08-12T10:46:32.832Z</time>
      </trkpt>
      <trkpt lat="46.8488" lon="8.47012">
        <ele>2319</ele>
        <time>2021-08-12T10:46:33.833Z</time>
      </trkpt>
      <trkpt lat="46.84879" lon="8.47011">
        <ele>2319</ele>
        <time>2021-08-12T10:46:34.833Z</time>
      </trkpt>
      <trkpt lat="46.84878" lon="8.47009">
        <ele>2319</ele>
        <time>2021-08-12T10:46:35.832Z</time>
      </trkpt>
      <trkpt lat="46.84878" lon="8.47007">
        <ele>2319</ele>
        <time>2021-08-12T10:46:36.833Z</time>
      </trkpt>
      <trkpt lat="46.84877" lon="8.47005">
        <ele>2318</ele>
        <time>2021-08-12T10:46:37.833Z</time>
      </trkpt>
      <trkpt lat="46.84877" lon="8.47004">
        <ele>2318</ele>
        <time>2021-08-12T10:46:38.833Z</time>
      </trkpt>
      <trkpt lat="46.84876" lon="8.47002">
        <ele>2318</ele>
        <time>2021-08-12T10:46:39.833Z</time>
      </trkpt>
      <trkpt lat="46.84876" lon="8.47">
        <ele>2318</ele>
        <time>2021-08-12T10:46:40.832Z</time>
      </trkpt>
      <trkpt lat="46.84876" lon="8.46998">
        <ele>2319</ele>
        <time>2021-08-12T10:46:41.833Z</time>
      </trkpt>
      <trkpt lat="46.84875" lon="8.46996">
        <ele>2319</ele>
        <time>2021-08-12T10:46:49.941Z</time>
      </trkpt>
      <trkpt lat="46.84875" lon="8.46995">
        <ele>2319</ele>
        <time>2021-08-12T10:46:50.942Z</time>
      </trkpt>
      <trkpt lat="46.84874" lon="8.46993">
        <ele>2319</ele>
        <time>2021-08-12T10:46:51.942Z</time>
      </trkpt>
      <trkpt lat="46.84874" lon="8.46992">
        <ele>2318</ele>
        <time>2021-08-12T10:46:52.941Z</time>
      </trkpt>
      <trkpt lat="46.84873" lon="8.4699">
        <ele>2318</ele>
        <time>2021-08-12T10:46:53.942Z</time>
      </trkpt>
      <trkpt lat="46.84873" lon="8.46989">
        <ele>2317</ele>
        <time>2021-08-12T10:46:54.941Z</time>
      </trkpt>
      <trkpt lat="46.84873" lon="8.46987">
        <ele>2317</ele>
        <time>2021-08-12T10:46:55.942Z</time>
      </trkpt>
      <trkpt lat="46.84873" lon="8.46986">
        <ele>2317</ele>
        <time>2021-08-12T10:46:56.941Z</time>
      </trkpt>
      <trkpt lat="46.84873" lon="8.46984">
        <ele>2317</ele>
        <time>2021-08-12T10:46:57.942Z</time>
      </trkpt>
      <trkpt lat="46.84872" lon="8.46983">
        <ele>2317</ele>
        <time>2021-08-12T10:47:26.077Z</time>
      </trkpt>
      <trkpt lat="46.84872" lon="8.46981">
        <ele>2317</ele>
        <time>2021-08-12T10:47:27.077Z</time>
      </trkpt>
      <trkpt lat="46.84872" lon="8.4698">
        <ele>2317</ele>
        <time>2021-08-12T10:47:28.077Z</time>
      </trkpt>
      <trkpt lat="46.84872" lon="8.46978">
        <ele>2317</ele>
        <time>2021-08-12T10:47:29.078Z</time>
      </trkpt>
      <trkpt lat="46.84872" lon="8.46977">
        <ele>2316</ele>
        <time>2021-08-12T10:47:30.078Z</time>
      </trkpt>
      <trkpt lat="46.84872" lon="8.46975">
        <ele>2316</ele>
        <time>2021-08-12T10:47:31.077Z</time>
      </trkpt>
      <trkpt lat="46.84872" lon="8.46974">
        <ele>2315</ele>
        <time>2021-08-12T10:47:32.077Z</time>
      </trkpt>
      <trkpt lat="46.84872" lon="8.46972">
        <ele>2315</ele>
        <time>2021-08-12T10:47:33.078Z</time>
      </trkpt>
      <trkpt lat="46.84872" lon="8.46971">
        <ele>2314</ele>
        <time>2021-08-12T10:47:34.078Z</time>
      </trkpt>
      <trkpt lat="46.84872" lon="8.46969">
        <ele>2314</ele>
        <time>2021-08-12T10:47:35.078Z</time>
      </trkpt>
      <trkpt lat="46.84872" lon="8.46967">
        <ele>2313</ele>
        <time>2021-08-12T10:47:36.078Z</time>
      </trkpt>
      <trkpt lat="46.84872" lon="8.46965">
        <ele>2313</ele>
        <time>2021-08-12T10:47:37.078Z</time>
      </trkpt>
      <trkpt lat="46.84873" lon="8.46964">
        <ele>2312</ele>
        <time>2021-08-12T10:47:38.078Z</time>
      </trkpt>
      <trkpt lat="46.84873" lon="8.46963">
        <ele>2312</ele>
        <time>2021-08-12T10:47:39.077Z</time>
      </trkpt>
      <trkpt lat="46.84873" lon="8.46962">
        <ele>2312</ele>
        <time>2021-08-12T10:47:40.078Z</time>
      </trkpt>
      <trkpt lat="46.84873" lon="8.46961">
        <ele>2312</ele>
        <time>2021-08-12T10:47:41.078Z</time>
      </trkpt>
      <trkpt lat="46.84873" lon="8.46959">
        <ele>2312</ele>
        <time>2021-08-12T10:47:42.077Z</time>
      </trkpt>
      <trkpt lat="46.84873" lon="8.46958">
        <ele>2312</ele>
        <time>2021-08-12T10:47:44.198Z</time>
      </trkpt>
      <trkpt lat="46.84874" lon="8.46956">
        <ele>2312</ele>
        <time>2021-08-12T10:47:45.198Z</time>
      </trkpt>
      <trkpt lat="46.84874" lon="8.46955">
        <ele>2312</ele>
        <time>2021-08-12T10:47:46.198Z</time>
      </trkpt>
      <trkpt lat="46.84874" lon="8.46953">
        <ele>2312</ele>
        <time>2021-08-12T10:47:47.197Z</time>
      </trkpt>
      <trkpt lat="46.84875" lon="8.46951">
        <ele>2312</ele>
        <time>2021-08-12T10:47:48.198Z</time>
      </trkpt>
      <trkpt lat="46.84875" lon="8.4695">
        <ele>2312</ele>
        <time>2021-08-12T10:47:49.198Z</time>
      </trkpt>
      <trkpt lat="46.84875" lon="8.46949">
        <ele>2312</ele>
        <time>2021-08-12T10:47:53.333Z</time>
      </trkpt>
      <trkpt lat="46.84875" lon="8.46948">
        <ele>2312</ele>
        <time>2021-08-12T10:47:54.333Z</time>
      </trkpt>
      <trkpt lat="46.84875" lon="8.46947">
        <ele>2312</ele>
        <time>2021-08-12T10:47:55.332Z</time>
      </trkpt>
      <trkpt lat="46.84875" lon="8.46945">
        <ele>2313</ele>
        <time>2021-08-12T10:47:56.333Z</time>
      </trkpt>
      <trkpt lat="46.84875" lon="8.46944">
        <ele>2313</ele>
        <time>2021-08-12T10:47:57.332Z</time>
      </trkpt>
      <trkpt lat="46.84876" lon="8.46942">
        <ele>2313</ele>
        <time>2021-08-12T10:47:58.332Z</time>
      </trkpt>
      <trkpt lat="46.84876" lon="8.4694">
        <ele>2313</ele>
        <time>2021-08-12T10:47:59.332Z</time>
      </trkpt>
      <trkpt lat="46.84877" lon="8.46939">
        <ele>2313</ele>
        <time>2021-08-12T10:48:00.333Z</time>
      </trkpt>
      <trkpt lat="46.84877" lon="8.46938">
        <ele>2314</ele>
        <time>2021-08-12T10:48:01.332Z</time>
      </trkpt>
      <trkpt lat="46.84877" lon="8.46936">
        <ele>2315</ele>
        <time>2021-08-12T10:48:02.332Z</time>
      </trkpt>
      <trkpt lat="46.84877" lon="8.46935">
        <ele>2315</ele>
        <time>2021-08-12T10:48:03.333Z</time>
      </trkpt>
      <trkpt lat="46.84878" lon="8.46933">
        <ele>2315</ele>
        <time>2021-08-12T10:48:04.333Z</time>
      </trkpt>
      <trkpt lat="46.84878" lon="8.46932">
        <ele>2315</ele>
        <time>2021-08-12T10:48:05.333Z</time>
      </trkpt>
      <trkpt lat="46.84878" lon="8.4693">
        <ele>2315</ele>
        <time>2021-08-12T10:48:06.333Z</time>
      </trkpt>
      <trkpt lat="46.84878" lon="8.46929">
        <ele>2315</ele>
        <time>2021-08-12T10:48:07.333Z</time>
      </trkpt>
      <trkpt lat="46.84878" lon="8.46927">
        <ele>2315</ele>
        <time>2021-08-12T10:48:08.333Z</time>
      </trkpt>
      <trkpt lat="46.84878" lon="8.46926">
        <ele>2314</ele>
        <time>2021-08-12T10:48:09.333Z</time>
      </trkpt>
      <trkpt lat="46.84878" lon="8.46925">
        <ele>2314</ele>
        <time>2021-08-12T10:48:10.333Z</time>
      </trkpt>
      <trkpt lat="46.84878" lon="8.46923">
        <ele>2313</ele>
        <time>2021-08-12T10:48:11.333Z</time>
      </trkpt>
      <trkpt lat="46.84877" lon="8.46922">
        <ele>2312</ele>
        <time>2021-08-12T10:48:12.333Z</time>
      </trkpt>
      <trkpt lat="46.84877" lon="8.46921">
        <ele>2312</ele>
        <time>2021-08-12T10:48:13.333Z</time>
      </trkpt>
      <trkpt lat="46.84877" lon="8.46919">
        <ele>2312</ele>
        <time>2021-08-12T10:48:14.332Z</time>
      </trkpt>
      <trkpt lat="46.84876" lon="8.46918">
        <ele>2311</ele>
        <time>2021-08-12T10:48:15.332Z</time>
      </trkpt>
      <trkpt lat="46.84875" lon="8.46916">
        <ele>2311</ele>
        <time>2021-08-12T10:48:16.333Z</time>
      </trkpt>
      <trkpt lat="46.84875" lon="8.46914">
        <ele>2311</ele>
        <time>2021-08-12T10:48:17.333Z</time>
      </trkpt>
      <trkpt lat="46.84874" lon="8.46913">
        <ele>2311</ele>
        <time>2021-08-12T10:48:31.420Z</time>
      </trkpt>
      <trkpt lat="46.84874" lon="8.46912">
        <ele>2311</ele>
        <time>2021-08-12T10:48:32.419Z</time>
      </trkpt>
      <trkpt lat="46.84874" lon="8.4691">
        <ele>2311</ele>
        <time>2021-08-12T10:48:37.331Z</time>
      </trkpt>
      <trkpt lat="46.84874" lon="8.46909">
        <ele>2310</ele>
        <time>2021-08-12T10:48:38.331Z</time>
      </trkpt>
      <trkpt lat="46.84874" lon="8.46907">
        <ele>2310</ele>
        <time>2021-08-12T10:48:39.331Z</time>
      </trkpt>
      <trkpt lat="46.84873" lon="8.46906">
        <ele>2310</ele>
        <time>2021-08-12T10:48:40.331Z</time>
      </trkpt>
      <trkpt lat="46.84873" lon="8.46904">
        <ele>2310</ele>
        <time>2021-08-12T10:48:41.331Z</time>
      </trkpt>
      <trkpt lat="46.84872" lon="8.46904">
        <ele>2311</ele>
        <time>2021-08-12T10:48:42.331Z</time>
      </trkpt>
      <trkpt lat="46.84871" lon="8.46903">
        <ele>2311</ele>
        <time>2021-08-12T10:48:43.331Z</time>
      </trkpt>
      <trkpt lat="46.84871" lon="8.46902">
        <ele>2312</ele>
        <time>2021-08-12T10:48:59.469Z</time>
      </trkpt>
      <trkpt lat="46.8487" lon="8.469">
        <ele>2312</ele>
        <time>2021-08-12T10:49:00.469Z</time>
      </trkpt>
      <trkpt lat="46.84869" lon="8.46899">
        <ele>2312</ele>
        <time>2021-08-12T10:49:08.294Z</time>
      </trkpt>
      <trkpt lat="46.84868" lon="8.46898">
        <ele>2313</ele>
        <time>2021-08-12T10:49:09.293Z</time>
      </trkpt>
      <trkpt lat="46.84868" lon="8.46897">
        <ele>2313</ele>
        <time>2021-08-12T10:49:10.293Z</time>
      </trkpt>
      <trkpt lat="46.84868" lon="8.46896">
        <ele>2314</ele>
        <time>2021-08-12T10:49:11.293Z</time>
      </trkpt>
      <trkpt lat="46.84867" lon="8.46894">
        <ele>2314</ele>
        <time>2021-08-12T10:49:12.294Z</time>
      </trkpt>
      <trkpt lat="46.84866" lon="8.46893">
        <ele>2314</ele>
        <time>2021-08-12T10:49:13.294Z</time>
      </trkpt>
      <trkpt lat="46.84866" lon="8.46892">
        <ele>2315</ele>
        <time>2021-08-12T10:49:14.293Z</time>
      </trkpt>
      <trkpt lat="46.84866" lon="8.4689">
        <ele>2315</ele>
        <time>2021-08-12T10:49:15.294Z</time>
      </trkpt>
      <trkpt lat="46.84866" lon="8.46889">
        <ele>2315</ele>
        <time>2021-08-12T10:49:16.294Z</time>
      </trkpt>
      <trkpt lat="46.84866" lon="8.46888">
        <ele>2314</ele>
        <time>2021-08-12T10:49:17.294Z</time>
      </trkpt>
      <trkpt lat="46.84865" lon="8.46887">
        <ele>2314</ele>
        <time>2021-08-12T10:49:18.294Z</time>
      </trkpt>
      <trkpt lat="46.84865" lon="8.46885">
        <ele>2313</ele>
        <time>2021-08-12T10:49:19.294Z</time>
      </trkpt>
      <trkpt lat="46.84865" lon="8.46883">
        <ele>2313</ele>
        <time>2021-08-12T10:49:20.294Z</time>
      </trkpt>
      <trkpt lat="46.84865" lon="8.46881">
        <ele>2313</ele>
        <time>2021-08-12T10:49:21.294Z</time>
      </trkpt>
      <trkpt lat="46.84864" lon="8.4688">
        <ele>2312</ele>
        <time>2021-08-12T10:49:25.454Z</time>
      </trkpt>
      <trkpt lat="46.84864" lon="8.46878">
        <ele>2312</ele>
        <time>2021-08-12T10:49:26.454Z</time>
      </trkpt>
      <trkpt lat="46.84864" lon="8.46876">
        <ele>2312</ele>
        <time>2021-08-12T10:49:27.454Z</time>
      </trkpt>
      <trkpt lat="46.84864" lon="8.46875">
        <ele>2312</ele>
        <time>2021-08-12T10:49:28.454Z</time>
      </trkpt>
      <trkpt lat="46.84864" lon="8.46873">
        <ele>2312</ele>
        <time>2021-08-12T10:49:29.454Z</time>
      </trkpt>
      <trkpt lat="46.84864" lon="8.46871">
        <ele>2313</ele>
        <time>2021-08-12T10:49:30.454Z</time>
      </trkpt>
      <trkpt lat="46.84864" lon="8.4687">
        <ele>2313</ele>
        <time>2021-08-12T10:49:31.453Z</time>
      </trkpt>
      <trkpt lat="46.84864" lon="8.46868">
        <ele>2313</ele>
        <time>2021-08-12T10:49:32.453Z</time>
      </trkpt>
      <trkpt lat="46.84863" lon="8.46866">
        <ele>2312</ele>
        <time>2021-08-12T10:49:33.453Z</time>
      </trkpt>
      <trkpt lat="46.84863" lon="8.46865">
        <ele>2312</ele>
        <time>2021-08-12T10:49:34.454Z</time>
      </trkpt>
      <trkpt lat="46.84862" lon="8.46863">
        <ele>2312</ele>
        <time>2021-08-12T10:49:35.454Z</time>
      </trkpt>
      <trkpt lat="46.84862" lon="8.46862">
        <ele>2311</ele>
        <time>2021-08-12T10:49:36.454Z</time>
      </trkpt>
      <trkpt lat="46.84861" lon="8.4686">
        <ele>2311</ele>
        <time>2021-08-12T10:49:37.453Z</time>
      </trkpt>
      <trkpt lat="46.84861" lon="8.46859">
        <ele>2311</ele>
        <time>2021-08-12T10:49:38.454Z</time>
      </trkpt>
      <trkpt lat="46.84861" lon="8.46858">
        <ele>2310</ele>
        <time>2021-08-12T10:49:39.454Z</time>
      </trkpt>
      <trkpt lat="46.84861" lon="8.46856">
        <ele>2310</ele>
        <time>2021-08-12T10:49:40.454Z</time>
      </trkpt>
      <trkpt lat="46.84861" lon="8.46855">
        <ele>2310</ele>
        <time>2021-08-12T10:49:41.453Z</time>
      </trkpt>
      <trkpt lat="46.84861" lon="8.46854">
        <ele>2309</ele>
        <time>2021-08-12T10:49:42.454Z</time>
      </trkpt>
      <trkpt lat="46.84861" lon="8.46852">
        <ele>2309</ele>
        <time>2021-08-12T10:49:43.453Z</time>
      </trkpt>
      <trkpt lat="46.84861" lon="8.4685">
        <ele>2309</ele>
        <time>2021-08-12T10:49:45.555Z</time>
      </trkpt>
      <trkpt lat="46.84861" lon="8.46848">
        <ele>2309</ele>
        <time>2021-08-12T10:49:46.554Z</time>
      </trkpt>
      <trkpt lat="46.84861" lon="8.46846">
        <ele>2309</ele>
        <time>2021-08-12T10:49:47.555Z</time>
      </trkpt>
      <trkpt lat="46.84861" lon="8.46844">
        <ele>2309</ele>
        <time>2021-08-12T10:49:48.554Z</time>
      </trkpt>
      <trkpt lat="46.84862" lon="8.46842">
        <ele>2310</ele>
        <time>2021-08-12T10:49:49.555Z</time>
      </trkpt>
      <trkpt lat="46.84862" lon="8.4684">
        <ele>2310</ele>
        <time>2021-08-12T10:49:50.555Z</time>
      </trkpt>
      <trkpt lat="46.84862" lon="8.46838">
        <ele>2310</ele>
        <time>2021-08-12T10:49:51.554Z</time>
      </trkpt>
      <trkpt lat="46.84862" lon="8.46836">
        <ele>2310</ele>
        <time>2021-08-12T10:49:52.555Z</time>
      </trkpt>
      <trkpt lat="46.84862" lon="8.46834">
        <ele>2310</ele>
        <time>2021-08-12T10:49:53.555Z</time>
      </trkpt>
      <trkpt lat="46.84862" lon="8.46833">
        <ele>2310</ele>
        <time>2021-08-12T10:49:54.554Z</time>
      </trkpt>
      <trkpt lat="46.84861" lon="8.46831">
        <ele>2310</ele>
        <time>2021-08-12T10:49:55.555Z</time>
      </trkpt>
      <trkpt lat="46.84861" lon="8.46829">
        <ele>2310</ele>
        <time>2021-08-12T10:49:56.554Z</time>
      </trkpt>
      <trkpt lat="46.8486" lon="8.46828">
        <ele>2310</ele>
        <time>2021-08-12T10:49:57.555Z</time>
      </trkpt>
      <trkpt lat="46.8486" lon="8.46826">
        <ele>2310</ele>
        <time>2021-08-12T10:49:58.555Z</time>
      </trkpt>
      <trkpt lat="46.8486" lon="8.46825">
        <ele>2310</ele>
        <time>2021-08-12T10:49:59.555Z</time>
      </trkpt>
      <trkpt lat="46.84859" lon="8.46823">
        <ele>2310</ele>
        <time>2021-08-12T10:50:00.554Z</time>
      </trkpt>
      <trkpt lat="46.84859" lon="8.46822">
        <ele>2310</ele>
        <time>2021-08-12T10:50:01.555Z</time>
      </trkpt>
      <trkpt lat="46.84858" lon="8.46821">
        <ele>2310</ele>
        <time>2021-08-12T10:50:02.554Z</time>
      </trkpt>
      <trkpt lat="46.84858" lon="8.46819">
        <ele>2310</ele>
        <time>2021-08-12T10:50:03.555Z</time>
      </trkpt>
      <trkpt lat="46.84857" lon="8.46817">
        <ele>2309</ele>
        <time>2021-08-12T10:50:04.555Z</time>
      </trkpt>
      <trkpt lat="46.84857" lon="8.46816">
        <ele>2309</ele>
        <time>2021-08-12T10:50:05.555Z</time>
      </trkpt>
      <trkpt lat="46.84857" lon="8.46814">
        <ele>2309</ele>
        <time>2021-08-12T10:50:06.554Z</time>
      </trkpt>
      <trkpt lat="46.84857" lon="8.46813">
        <ele>2308</ele>
        <time>2021-08-12T10:50:07.555Z</time>
      </trkpt>
      <trkpt lat="46.84857" lon="8.46812">
        <ele>2308</ele>
        <time>2021-08-12T10:50:08.555Z</time>
      </trkpt>
      <trkpt lat="46.84857" lon="8.46811">
        <ele>2308</ele>
        <time>2021-08-12T10:50:09.555Z</time>
      </trkpt>
      <trkpt lat="46.84857" lon="8.4681">
        <ele>2308</ele>
        <time>2021-08-12T10:50:10.555Z</time>
      </trkpt>
      <trkpt lat="46.84858" lon="8.46809">
        <ele>2308</ele>
        <time>2021-08-12T10:50:11.555Z</time>
      </trkpt>
      <trkpt lat="46.84858" lon="8.46808">
        <ele>2308</ele>
        <time>2021-08-12T10:50:12.554Z</time>
      </trkpt>
      <trkpt lat="46.84858" lon="8.46807">
        <ele>2308</ele>
        <time>2021-08-12T10:50:13.555Z</time>
      </trkpt>
      <trkpt lat="46.84858" lon="8.46805">
        <ele>2308</ele>
        <time>2021-08-12T10:50:14.555Z</time>
      </trkpt>
      <trkpt lat="46.84858" lon="8.46805">
        <ele>2307</ele>
        <time>2021-08-12T10:50:15.554Z</time>
      </trkpt>
      <trkpt lat="46.84857" lon="8.46804">
        <ele>2307</ele>
        <time>2021-08-12T10:50:16.555Z</time>
      </trkpt>
      <trkpt lat="46.84857" lon="8.46802">
        <ele>2307</ele>
        <time>2021-08-12T10:50:17.555Z</time>
      </trkpt>
      <trkpt lat="46.84856" lon="8.46801">
        <ele>2307</ele>
        <time>2021-08-12T10:50:18.554Z</time>
      </trkpt>
      <trkpt lat="46.84856" lon="8.468">
        <ele>2307</ele>
        <time>2021-08-12T10:50:19.554Z</time>
      </trkpt>
      <trkpt lat="46.84856" lon="8.46799">
        <ele>2306</ele>
        <time>2021-08-12T10:50:20.554Z</time>
      </trkpt>
      <trkpt lat="46.84855" lon="8.46797">
        <ele>2307</ele>
        <time>2021-08-12T10:50:21.554Z</time>
      </trkpt>
      <trkpt lat="46.84855" lon="8.46795">
        <ele>2307</ele>
        <time>2021-08-12T10:50:22.555Z</time>
      </trkpt>
      <trkpt lat="46.84855" lon="8.46793">
        <ele>2307</ele>
        <time>2021-08-12T10:50:23.555Z</time>
      </trkpt>
      <trkpt lat="46.84855" lon="8.46791">
        <ele>2307</ele>
        <time>2021-08-12T10:50:24.555Z</time>
      </trkpt>
      <trkpt lat="46.84854" lon="8.4679">
        <ele>2307</ele>
        <time>2021-08-12T10:50:25.555Z</time>
      </trkpt>
      <trkpt lat="46.84854" lon="8.46788">
        <ele>2307</ele>
        <time>2021-08-12T10:50:26.555Z</time>
      </trkpt>
      <trkpt lat="46.84854" lon="8.46787">
        <ele>2307</ele>
        <time>2021-08-12T10:50:27.555Z</time>
      </trkpt>
      <trkpt lat="46.84854" lon="8.46785">
        <ele>2307</ele>
        <time>2021-08-12T10:50:28.555Z</time>
      </trkpt>
      <trkpt lat="46.84855" lon="8.46784">
        <ele>2307</ele>
        <time>2021-08-12T10:50:29.554Z</time>
      </trkpt>
      <trkpt lat="46.84856" lon="8.46782">
        <ele>2307</ele>
        <time>2021-08-12T10:50:30.554Z</time>
      </trkpt>
      <trkpt lat="46.84856" lon="8.4678">
        <ele>2307</ele>
        <time>2021-08-12T10:50:31.555Z</time>
      </trkpt>
      <trkpt lat="46.84856" lon="8.46778">
        <ele>2307</ele>
        <time>2021-08-12T10:50:32.555Z</time>
      </trkpt>
      <trkpt lat="46.84857" lon="8.46776">
        <ele>2307</ele>
        <time>2021-08-12T10:50:33.555Z</time>
      </trkpt>
      <trkpt lat="46.84857" lon="8.46774">
        <ele>2307</ele>
        <time>2021-08-12T10:50:34.554Z</time>
      </trkpt>
      <trkpt lat="46.84858" lon="8.46772">
        <ele>2307</ele>
        <time>2021-08-12T10:50:35.555Z</time>
      </trkpt>
      <trkpt lat="46.84858" lon="8.4677">
        <ele>2307</ele>
        <time>2021-08-12T10:50:36.555Z</time>
      </trkpt>
      <trkpt lat="46.84857" lon="8.46769">
        <ele>2307</ele>
        <time>2021-08-12T10:50:37.554Z</time>
      </trkpt>
      <trkpt lat="46.84857" lon="8.46767">
        <ele>2306</ele>
        <time>2021-08-12T10:50:38.555Z</time>
      </trkpt>
      <trkpt lat="46.84857" lon="8.46766">
        <ele>2306</ele>
        <time>2021-08-12T10:50:39.555Z</time>
      </trkpt>
      <trkpt lat="46.84858" lon="8.46764">
        <ele>2305</ele>
        <time>2021-08-12T10:50:40.555Z</time>
      </trkpt>
      <trkpt lat="46.84858" lon="8.46762">
        <ele>2305</ele>
        <time>2021-08-12T10:50:41.555Z</time>
      </trkpt>
      <trkpt lat="46.84858" lon="8.4676">
        <ele>2306</ele>
        <time>2021-08-12T10:50:42.555Z</time>
      </trkpt>
      <trkpt lat="46.84858" lon="8.46758">
        <ele>2306</ele>
        <time>2021-08-12T10:50:43.555Z</time>
      </trkpt>
      <trkpt lat="46.84858" lon="8.46756">
        <ele>2306</ele>
        <time>2021-08-12T10:50:44.555Z</time>
      </trkpt>
      <trkpt lat="46.84858" lon="8.46754">
        <ele>2306</ele>
        <time>2021-08-12T10:50:45.554Z</time>
      </trkpt>
      <trkpt lat="46.84857" lon="8.46752">
        <ele>2306</ele>
        <time>2021-08-12T10:50:46.555Z</time>
      </trkpt>
      <trkpt lat="46.84857" lon="8.4675">
        <ele>2306</ele>
        <time>2021-08-12T10:50:47.554Z</time>
      </trkpt>
      <trkpt lat="46.84857" lon="8.46748">
        <ele>2306</ele>
        <time>2021-08-12T10:50:48.555Z</time>
      </trkpt>
      <trkpt lat="46.84857" lon="8.46746">
        <ele>2306</ele>
        <time>2021-08-12T10:50:49.554Z</time>
      </trkpt>
      <trkpt lat="46.84857" lon="8.46744">
        <ele>2305</ele>
        <time>2021-08-12T10:50:50.555Z</time>
      </trkpt>
      <trkpt lat="46.84857" lon="8.46742">
        <ele>2305</ele>
        <time>2021-08-12T10:50:51.555Z</time>
      </trkpt>
      <trkpt lat="46.84856" lon="8.4674">
        <ele>2305</ele>
        <time>2021-08-12T10:50:52.555Z</time>
      </trkpt>
      <trkpt lat="46.84856" lon="8.46738">
        <ele>2304</ele>
        <time>2021-08-12T10:50:53.555Z</time>
      </trkpt>
      <trkpt lat="46.84856" lon="8.46736">
        <ele>2304</ele>
        <time>2021-08-12T10:50:54.555Z</time>
      </trkpt>
      <trkpt lat="46.84856" lon="8.46734">
        <ele>2304</ele>
        <time>2021-08-12T10:50:55.554Z</time>
      </trkpt>
      <trkpt lat="46.84856" lon="8.46733">
        <ele>2304</ele>
        <time>2021-08-12T10:50:56.555Z</time>
      </trkpt>
      <trkpt lat="46.84856" lon="8.46731">
        <ele>2304</ele>
        <time>2021-08-12T10:50:57.555Z</time>
      </trkpt>
      <trkpt lat="46.84856" lon="8.4673">
        <ele>2304</ele>
        <time>2021-08-12T10:50:58.555Z</time>
      </trkpt>
      <trkpt lat="46.84856" lon="8.46728">
        <ele>2305</ele>
        <time>2021-08-12T10:50:59.555Z</time>
      </trkpt>
      <trkpt lat="46.84856" lon="8.46726">
        <ele>2305</ele>
        <time>2021-08-12T10:51:00.555Z</time>
      </trkpt>
      <trkpt lat="46.84856" lon="8.46725">
        <ele>2305</ele>
        <time>2021-08-12T10:51:01.555Z</time>
      </trkpt>
      <trkpt lat="46.84856" lon="8.46723">
        <ele>2305</ele>
        <time>2021-08-12T10:51:02.554Z</time>
      </trkpt>
      <trkpt lat="46.84856" lon="8.46721">
        <ele>2306</ele>
        <time>2021-08-12T10:51:03.555Z</time>
      </trkpt>
      <trkpt lat="46.84855" lon="8.46719">
        <ele>2306</ele>
        <time>2021-08-12T10:51:04.555Z</time>
      </trkpt>
      <trkpt lat="46.84855" lon="8.46718">
        <ele>2306</ele>
        <time>2021-08-12T10:51:05.555Z</time>
      </trkpt>
      <trkpt lat="46.84855" lon="8.46716">
        <ele>2306</ele>
        <time>2021-08-12T10:51:06.555Z</time>
      </trkpt>
      <trkpt lat="46.84855" lon="8.46714">
        <ele>2306</ele>
        <time>2021-08-12T10:51:07.554Z</time>
      </trkpt>
      <trkpt lat="46.84854" lon="8.46713">
        <ele>2306</ele>
        <time>2021-08-12T10:51:08.555Z</time>
      </trkpt>
      <trkpt lat="46.84854" lon="8.46711">
        <ele>2306</ele>
        <time>2021-08-12T10:51:09.554Z</time>
      </trkpt>
      <trkpt lat="46.84854" lon="8.46709">
        <ele>2306</ele>
        <time>2021-08-12T10:51:10.554Z</time>
      </trkpt>
      <trkpt lat="46.84854" lon="8.46707">
        <ele>2306</ele>
        <time>2021-08-12T10:51:11.555Z</time>
      </trkpt>
      <trkpt lat="46.84854" lon="8.46706">
        <ele>2306</ele>
        <time>2021-08-12T10:51:12.555Z</time>
      </trkpt>
      <trkpt lat="46.84854" lon="8.46705">
        <ele>2307</ele>
        <time>2021-08-12T10:51:13.555Z</time>
      </trkpt>
      <trkpt lat="46.84854" lon="8.46705">
        <ele>2308</ele>
        <time>2021-08-12T10:51:14.554Z</time>
      </trkpt>
      <trkpt lat="46.84854" lon="8.46704">
        <ele>2308</ele>
        <time>2021-08-12T10:51:15.554Z</time>
      </trkpt>
      <trkpt lat="46.84854" lon="8.46703">
        <ele>2308</ele>
        <time>2021-08-12T10:51:16.555Z</time>
      </trkpt>
      <trkpt lat="46.84854" lon="8.46702">
        <ele>2309</ele>
        <time>2021-08-12T10:51:17.554Z</time>
      </trkpt>
      <trkpt lat="46.84854" lon="8.46701">
        <ele>2308</ele>
        <time>2021-08-12T10:51:18.555Z</time>
      </trkpt>
      <trkpt lat="46.84854" lon="8.467">
        <ele>2308</ele>
        <time>2021-08-12T10:51:24.699Z</time>
      </trkpt>
      <trkpt lat="46.84854" lon="8.46698">
        <ele>2308</ele>
        <time>2021-08-12T10:51:25.699Z</time>
      </trkpt>
      <trkpt lat="46.84854" lon="8.46696">
        <ele>2308</ele>
        <time>2021-08-12T10:51:26.698Z</time>
      </trkpt>
      <trkpt lat="46.84854" lon="8.46695">
        <ele>2308</ele>
        <time>2021-08-12T10:51:27.698Z</time>
      </trkpt>
      <trkpt lat="46.84854" lon="8.46693">
        <ele>2307</ele>
        <time>2021-08-12T10:51:28.699Z</time>
      </trkpt>
      <trkpt lat="46.84853" lon="8.46691">
        <ele>2307</ele>
        <time>2021-08-12T10:51:29.699Z</time>
      </trkpt>
      <trkpt lat="46.84853" lon="8.4669">
        <ele>2307</ele>
        <time>2021-08-12T10:51:30.698Z</time>
      </trkpt>
      <trkpt lat="46.84852" lon="8.46689">
        <ele>2307</ele>
        <time>2021-08-12T10:51:31.699Z</time>
      </trkpt>
      <trkpt lat="46.84851" lon="8.46688">
        <ele>2307</ele>
        <time>2021-08-12T10:51:32.699Z</time>
      </trkpt>
      <trkpt lat="46.84851" lon="8.46686">
        <ele>2307</ele>
        <time>2021-08-12T10:51:33.698Z</time>
      </trkpt>
      <trkpt lat="46.8485" lon="8.46685">
        <ele>2307</ele>
        <time>2021-08-12T10:51:34.699Z</time>
      </trkpt>
      <trkpt lat="46.8485" lon="8.46683">
        <ele>2306</ele>
        <time>2021-08-12T10:51:35.698Z</time>
      </trkpt>
      <trkpt lat="46.84849" lon="8.46682">
        <ele>2306</ele>
        <time>2021-08-12T10:51:36.699Z</time>
      </trkpt>
      <trkpt lat="46.84849" lon="8.4668">
        <ele>2306</ele>
        <time>2021-08-12T10:51:37.699Z</time>
      </trkpt>
      <trkpt lat="46.84849" lon="8.46679">
        <ele>2306</ele>
        <time>2021-08-12T10:51:38.699Z</time>
      </trkpt>
      <trkpt lat="46.84848" lon="8.46677">
        <ele>2306</ele>
        <time>2021-08-12T10:51:39.699Z</time>
      </trkpt>
      <trkpt lat="46.84848" lon="8.46676">
        <ele>2306</ele>
        <time>2021-08-12T10:51:40.699Z</time>
      </trkpt>
      <trkpt lat="46.84848" lon="8.46675">
        <ele>2306</ele>
        <time>2021-08-12T10:51:41.699Z</time>
      </trkpt>
      <trkpt lat="46.84847" lon="8.46674">
        <ele>2305</ele>
        <time>2021-08-12T10:51:42.699Z</time>
      </trkpt>
      <trkpt lat="46.84847" lon="8.46674">
        <ele>2305</ele>
        <time>2021-08-12T10:51:43.698Z</time>
      </trkpt>
      <trkpt lat="46.84846" lon="8.46673">
        <ele>2305</ele>
        <time>2021-08-12T10:51:44.699Z</time>
      </trkpt>
      <trkpt lat="46.84846" lon="8.46673">
        <ele>2304</ele>
        <time>2021-08-12T10:51:45.699Z</time>
      </trkpt>
      <trkpt lat="46.84846" lon="8.46672">
        <ele>2304</ele>
        <time>2021-08-12T10:51:46.699Z</time>
      </trkpt>
      <trkpt lat="46.84846" lon="8.46672">
        <ele>2303</ele>
        <time>2021-08-12T10:51:47.698Z</time>
      </trkpt>
      <trkpt lat="46.84846" lon="8.46671">
        <ele>2303</ele>
        <time>2021-08-12T10:51:48.698Z</time>
      </trkpt>
      <trkpt lat="46.84846" lon="8.4667">
        <ele>2302</ele>
        <time>2021-08-12T10:51:49.699Z</time>
      </trkpt>
      <trkpt lat="46.84847" lon="8.46669">
        <ele>2302</ele>
        <time>2021-08-12T10:51:50.699Z</time>
      </trkpt>
      <trkpt lat="46.84847" lon="8.46669">
        <ele>2302</ele>
        <time>2021-08-12T10:51:51.698Z</time>
      </trkpt>
      <trkpt lat="46.84847" lon="8.46668">
        <ele>2302</ele>
        <time>2021-08-12T10:51:52.699Z</time>
      </trkpt>
      <trkpt lat="46.84847" lon="8.46668">
        <ele>2302</ele>
        <time>2021-08-12T10:51:53.698Z</time>
      </trkpt>
      <trkpt lat="46.84847" lon="8.46667">
        <ele>2302</ele>
        <time>2021-08-12T10:51:54.699Z</time>
      </trkpt>
      <trkpt lat="46.84847" lon="8.46667">
        <ele>2301</ele>
        <time>2021-08-12T10:51:55.698Z</time>
      </trkpt>
      <trkpt lat="46.84847" lon="8.46666">
        <ele>2300</ele>
        <time>2021-08-12T10:51:56.698Z</time>
      </trkpt>
      <trkpt lat="46.84847" lon="8.46665">
        <ele>2300</ele>
        <time>2021-08-12T10:51:57.698Z</time>
      </trkpt>
      <trkpt lat="46.84847" lon="8.46664">
        <ele>2300</ele>
        <time>2021-08-12T10:51:58.698Z</time>
      </trkpt>
      <trkpt lat="46.84847" lon="8.46663">
        <ele>2300</ele>
        <time>2021-08-12T10:51:59.698Z</time>
      </trkpt>
      <trkpt lat="46.84848" lon="8.46662">
        <ele>2300</ele>
        <time>2021-08-12T10:52:00.698Z</time>
      </trkpt>
      <trkpt lat="46.84848" lon="8.46661">
        <ele>2300</ele>
        <time>2021-08-12T10:52:01.698Z</time>
      </trkpt>
      <trkpt lat="46.84847" lon="8.4666">
        <ele>2299</ele>
        <time>2021-08-12T10:52:02.698Z</time>
      </trkpt>
      <trkpt lat="46.84847" lon="8.46659">
        <ele>2299</ele>
        <time>2021-08-12T10:52:03.698Z</time>
      </trkpt>
      <trkpt lat="46.84847" lon="8.46658">
        <ele>2299</ele>
        <time>2021-08-12T10:52:04.699Z</time>
      </trkpt>
      <trkpt lat="46.84847" lon="8.46658">
        <ele>2299</ele>
        <time>2021-08-12T10:52:05.698Z</time>
      </trkpt>
      <trkpt lat="46.84847" lon="8.46657">
        <ele>2298</ele>
        <time>2021-08-12T10:52:06.699Z</time>
      </trkpt>
      <trkpt lat="46.84847" lon="8.46657">
        <ele>2298</ele>
        <time>2021-08-12T10:52:07.698Z</time>
      </trkpt>
      <trkpt lat="46.84847" lon="8.46656">
        <ele>2298</ele>
        <time>2021-08-12T10:52:08.698Z</time>
      </trkpt>
      <trkpt lat="46.84847" lon="8.46654">
        <ele>2298</ele>
        <time>2021-08-12T10:52:09.698Z</time>
      </trkpt>
      <trkpt lat="46.84848" lon="8.46653">
        <ele>2298</ele>
        <time>2021-08-12T10:52:10.698Z</time>
      </trkpt>
      <trkpt lat="46.84848" lon="8.46652">
        <ele>2298</ele>
        <time>2021-08-12T10:52:11.698Z</time>
      </trkpt>
      <trkpt lat="46.84849" lon="8.46652">
        <ele>2298</ele>
        <time>2021-08-12T10:52:12.698Z</time>
      </trkpt>
      <trkpt lat="46.8485" lon="8.46651">
        <ele>2298</ele>
        <time>2021-08-12T10:52:15.798Z</time>
      </trkpt>
      <trkpt lat="46.8485" lon="8.46651">
        <ele>2297</ele>
        <time>2021-08-12T10:52:16.798Z</time>
      </trkpt>
      <trkpt lat="46.8485" lon="8.4665">
        <ele>2297</ele>
        <time>2021-08-12T10:52:17.798Z</time>
      </trkpt>
      <trkpt lat="46.84849" lon="8.4665">
        <ele>2297</ele>
        <time>2021-08-12T10:52:18.798Z</time>
      </trkpt>
      <trkpt lat="46.84848" lon="8.46649">
        <ele>2296</ele>
        <time>2021-08-12T10:52:19.798Z</time>
      </trkpt>
      <trkpt lat="46.84848" lon="8.46648">
        <ele>2296</ele>
        <time>2021-08-12T10:52:20.798Z</time>
      </trkpt>
      <trkpt lat="46.84847" lon="8.46647">
        <ele>2296</ele>
        <time>2021-08-12T10:52:21.798Z</time>
      </trkpt>
      <trkpt lat="46.84846" lon="8.46647">
        <ele>2296</ele>
        <time>2021-08-12T10:52:22.798Z</time>
      </trkpt>
      <trkpt lat="46.84845" lon="8.46647">
        <ele>2295</ele>
        <time>2021-08-12T10:52:23.798Z</time>
      </trkpt>
      <trkpt lat="46.84844" lon="8.46647">
        <ele>2295</ele>
        <time>2021-08-12T10:52:24.798Z</time>
      </trkpt>
      <trkpt lat="46.84843" lon="8.46647">
        <ele>2295</ele>
        <time>2021-08-12T10:52:25.798Z</time>
      </trkpt>
      <trkpt lat="46.84843" lon="8.46647">
        <ele>2294</ele>
        <time>2021-08-12T10:52:26.798Z</time>
      </trkpt>
      <trkpt lat="46.84842" lon="8.46647">
        <ele>2294</ele>
        <time>2021-08-12T10:52:27.799Z</time>
      </trkpt>
      <trkpt lat="46.84842" lon="8.46647">
        <ele>2293</ele>
        <time>2021-08-12T10:52:28.798Z</time>
      </trkpt>
      <trkpt lat="46.84842" lon="8.46646">
        <ele>2292</ele>
        <time>2021-08-12T10:52:29.798Z</time>
      </trkpt>
      <trkpt lat="46.84842" lon="8.46645">
        <ele>2292</ele>
        <time>2021-08-12T10:52:30.798Z</time>
      </trkpt>
      <trkpt lat="46.84843" lon="8.46644">
        <ele>2292</ele>
        <time>2021-08-12T10:52:31.798Z</time>
      </trkpt>
      <trkpt lat="46.84843" lon="8.46642">
        <ele>2293</ele>
        <time>2021-08-12T10:52:32.798Z</time>
      </trkpt>
      <trkpt lat="46.84842" lon="8.4664">
        <ele>2293</ele>
        <time>2021-08-12T10:52:33.798Z</time>
      </trkpt>
      <trkpt lat="46.84842" lon="8.46638">
        <ele>2293</ele>
        <time>2021-08-12T10:52:34.798Z</time>
      </trkpt>
      <trkpt lat="46.84841" lon="8.46637">
        <ele>2293</ele>
        <time>2021-08-12T10:52:35.799Z</time>
      </trkpt>
      <trkpt lat="46.84841" lon="8.46635">
        <ele>2293</ele>
        <time>2021-08-12T10:52:37.914Z</time>
      </trkpt>
      <trkpt lat="46.84841" lon="8.46633">
        <ele>2293</ele>
        <time>2021-08-12T10:52:38.913Z</time>
      </trkpt>
      <trkpt lat="46.8484" lon="8.46631">
        <ele>2293</ele>
        <time>2021-08-12T10:52:39.913Z</time>
      </trkpt>
      <trkpt lat="46.8484" lon="8.46629">
        <ele>2293</ele>
        <time>2021-08-12T10:52:40.913Z</time>
      </trkpt>
      <trkpt lat="46.84839" lon="8.46628">
        <ele>2293</ele>
        <time>2021-08-12T10:52:41.913Z</time>
      </trkpt>
      <trkpt lat="46.84838" lon="8.46626">
        <ele>2293</ele>
        <time>2021-08-12T10:52:42.913Z</time>
      </trkpt>
      <trkpt lat="46.84838" lon="8.46624">
        <ele>2293</ele>
        <time>2021-08-12T10:52:43.913Z</time>
      </trkpt>
      <trkpt lat="46.84838" lon="8.46622">
        <ele>2293</ele>
        <time>2021-08-12T10:52:44.913Z</time>
      </trkpt>
      <trkpt lat="46.84838" lon="8.4662">
        <ele>2293</ele>
        <time>2021-08-12T10:52:45.913Z</time>
      </trkpt>
      <trkpt lat="46.84837" lon="8.46618">
        <ele>2293</ele>
        <time>2021-08-12T10:52:46.913Z</time>
      </trkpt>
      <trkpt lat="46.84837" lon="8.46617">
        <ele>2293</ele>
        <time>2021-08-12T10:52:47.914Z</time>
      </trkpt>
      <trkpt lat="46.84836" lon="8.46615">
        <ele>2293</ele>
        <time>2021-08-12T10:52:58.942Z</time>
      </trkpt>
      <trkpt lat="46.84836" lon="8.46613">
        <ele>2293</ele>
        <time>2021-08-12T10:52:59.942Z</time>
      </trkpt>
      <trkpt lat="46.84836" lon="8.46612">
        <ele>2293</ele>
        <time>2021-08-12T10:53:16.827Z</time>
      </trkpt>
      <trkpt lat="46.84836" lon="8.4661">
        <ele>2293</ele>
        <time>2021-08-12T10:53:17.826Z</time>
      </trkpt>
      <trkpt lat="46.84835" lon="8.46607">
        <ele>2293</ele>
        <time>2021-08-12T10:53:18.827Z</time>
      </trkpt>
      <trkpt lat="46.84835" lon="8.46605">
        <ele>2293</ele>
        <time>2021-08-12T10:53:19.826Z</time>
      </trkpt>
      <trkpt lat="46.84834" lon="8.46602">
        <ele>2292</ele>
        <time>2021-08-12T10:53:20.827Z</time>
      </trkpt>
      <trkpt lat="46.84834" lon="8.466">
        <ele>2292</ele>
        <time>2021-08-12T10:53:21.827Z</time>
      </trkpt>
      <trkpt lat="46.84833" lon="8.46599">
        <ele>2293</ele>
        <time>2021-08-12T10:53:22.827Z</time>
      </trkpt>
      <trkpt lat="46.84833" lon="8.46598">
        <ele>2293</ele>
        <time>2021-08-12T10:53:23.827Z</time>
      </trkpt>
      <trkpt lat="46.84832" lon="8.46597">
        <ele>2292</ele>
        <time>2021-08-12T10:53:24.827Z</time>
      </trkpt>
      <trkpt lat="46.84831" lon="8.46597">
        <ele>2292</ele>
        <time>2021-08-12T10:53:25.827Z</time>
      </trkpt>
      <trkpt lat="46.84831" lon="8.46596">
        <ele>2292</ele>
        <time>2021-08-12T10:53:26.826Z</time>
      </trkpt>
      <trkpt lat="46.8483" lon="8.46595">
        <ele>2291</ele>
        <time>2021-08-12T10:53:27.827Z</time>
      </trkpt>
      <trkpt lat="46.8483" lon="8.46593">
        <ele>2290</ele>
        <time>2021-08-12T10:53:28.826Z</time>
      </trkpt>
      <trkpt lat="46.84829" lon="8.46592">
        <ele>2290</ele>
        <time>2021-08-12T10:53:29.827Z</time>
      </trkpt>
      <trkpt lat="46.84829" lon="8.46591">
        <ele>2289</ele>
        <time>2021-08-12T10:53:30.827Z</time>
      </trkpt>
      <trkpt lat="46.84828" lon="8.46589">
        <ele>2289</ele>
        <time>2021-08-12T10:53:34.973Z</time>
      </trkpt>
      <trkpt lat="46.84827" lon="8.46587">
        <ele>2289</ele>
        <time>2021-08-12T10:53:35.973Z</time>
      </trkpt>
      <trkpt lat="46.84827" lon="8.46586">
        <ele>2289</ele>
        <time>2021-08-12T10:53:36.973Z</time>
      </trkpt>
      <trkpt lat="46.84827" lon="8.46585">
        <ele>2289</ele>
        <time>2021-08-12T10:53:37.972Z</time>
      </trkpt>
      <trkpt lat="46.84828" lon="8.46584">
        <ele>2289</ele>
        <time>2021-08-12T10:53:38.973Z</time>
      </trkpt>
      <trkpt lat="46.84828" lon="8.46582">
        <ele>2289</ele>
        <time>2021-08-12T10:53:39.972Z</time>
      </trkpt>
      <trkpt lat="46.84828" lon="8.46581">
        <ele>2289</ele>
        <time>2021-08-12T10:53:40.972Z</time>
      </trkpt>
      <trkpt lat="46.84828" lon="8.4658">
        <ele>2289</ele>
        <time>2021-08-12T10:53:41.973Z</time>
      </trkpt>
      <trkpt lat="46.84828" lon="8.46579">
        <ele>2289</ele>
        <time>2021-08-12T10:53:42.973Z</time>
      </trkpt>
      <trkpt lat="46.84828" lon="8.46578">
        <ele>2289</ele>
        <time>2021-08-12T10:53:43.973Z</time>
      </trkpt>
      <trkpt lat="46.84828" lon="8.46576">
        <ele>2289</ele>
        <time>2021-08-12T10:53:44.973Z</time>
      </trkpt>
      <trkpt lat="46.84828" lon="8.46575">
        <ele>2288</ele>
        <time>2021-08-12T10:53:45.973Z</time>
      </trkpt>
      <trkpt lat="46.84828" lon="8.46574">
        <ele>2288</ele>
        <time>2021-08-12T10:53:46.973Z</time>
      </trkpt>
      <trkpt lat="46.84828" lon="8.46573">
        <ele>2288</ele>
        <time>2021-08-12T10:53:47.972Z</time>
      </trkpt>
      <trkpt lat="46.84828" lon="8.46572">
        <ele>2287</ele>
        <time>2021-08-12T10:53:48.972Z</time>
      </trkpt>
      <trkpt lat="46.84828" lon="8.46571">
        <ele>2287</ele>
        <time>2021-08-12T10:53:49.973Z</time>
      </trkpt>
      <trkpt lat="46.84827" lon="8.46571">
        <ele>2287</ele>
        <time>2021-08-12T10:53:55.035Z</time>
      </trkpt>
      <trkpt lat="46.84827" lon="8.4657">
        <ele>2287</ele>
        <time>2021-08-12T10:53:56.035Z</time>
      </trkpt>
      <trkpt lat="46.84827" lon="8.46568">
        <ele>2287</ele>
        <time>2021-08-12T10:53:57.035Z</time>
      </trkpt>
      <trkpt lat="46.84826" lon="8.46567">
        <ele>2287</ele>
        <time>2021-08-12T10:53:58.035Z</time>
      </trkpt>
      <trkpt lat="46.84826" lon="8.46566">
        <ele>2287</ele>
        <time>2021-08-12T10:53:59.035Z</time>
      </trkpt>
      <trkpt lat="46.84825" lon="8.46564">
        <ele>2287</ele>
        <time>2021-08-12T10:54:01.039Z</time>
      </trkpt>
      <trkpt lat="46.84825" lon="8.46563">
        <ele>2287</ele>
        <time>2021-08-12T10:54:02.038Z</time>
      </trkpt>
      <trkpt lat="46.84824" lon="8.46561">
        <ele>2287</ele>
        <time>2021-08-12T10:54:03.038Z</time>
      </trkpt>
      <trkpt lat="46.84823" lon="8.4656">
        <ele>2287</ele>
        <time>2021-08-12T10:54:04.039Z</time>
      </trkpt>
      <trkpt lat="46.84822" lon="8.46558">
        <ele>2287</ele>
        <time>2021-08-12T10:54:05.038Z</time>
      </trkpt>
      <trkpt lat="46.84821" lon="8.46557">
        <ele>2286</ele>
        <time>2021-08-12T10:54:06.039Z</time>
      </trkpt>
      <trkpt lat="46.84821" lon="8.46555">
        <ele>2286</ele>
        <time>2021-08-12T10:54:07.039Z</time>
      </trkpt>
      <trkpt lat="46.84821" lon="8.46554">
        <ele>2286</ele>
        <time>2021-08-12T10:54:08.038Z</time>
      </trkpt>
      <trkpt lat="46.8482" lon="8.46552">
        <ele>2286</ele>
        <time>2021-08-12T10:54:09.039Z</time>
      </trkpt>
      <trkpt lat="46.8482" lon="8.4655">
        <ele>2285</ele>
        <time>2021-08-12T10:54:10.039Z</time>
      </trkpt>
      <trkpt lat="46.8482" lon="8.46548">
        <ele>2285</ele>
        <time>2021-08-12T10:54:18.158Z</time>
      </trkpt>
      <trkpt lat="46.8482" lon="8.46547">
        <ele>2285</ele>
        <time>2021-08-12T10:54:19.158Z</time>
      </trkpt>
      <trkpt lat="46.8482" lon="8.46545">
        <ele>2285</ele>
        <time>2021-08-12T10:54:20.157Z</time>
      </trkpt>
      <trkpt lat="46.8482" lon="8.46544">
        <ele>2285</ele>
        <time>2021-08-12T10:54:22.305Z</time>
      </trkpt>
      <trkpt lat="46.84821" lon="8.46542">
        <ele>2285</ele>
        <time>2021-08-12T10:54:23.304Z</time>
      </trkpt>
      <trkpt lat="46.84821" lon="8.4654">
        <ele>2286</ele>
        <time>2021-08-12T10:54:24.305Z</time>
      </trkpt>
      <trkpt lat="46.8482" lon="8.46539">
        <ele>2286</ele>
        <time>2021-08-12T10:54:25.305Z</time>
      </trkpt>
      <trkpt lat="46.8482" lon="8.46537">
        <ele>2286</ele>
        <time>2021-08-12T10:54:26.305Z</time>
      </trkpt>
      <trkpt lat="46.8482" lon="8.46535">
        <ele>2286</ele>
        <time>2021-08-12T10:54:27.305Z</time>
      </trkpt>
      <trkpt lat="46.8482" lon="8.46534">
        <ele>2286</ele>
        <time>2021-08-12T10:54:28.304Z</time>
      </trkpt>
      <trkpt lat="46.8482" lon="8.46533">
        <ele>2287</ele>
        <time>2021-08-12T10:54:29.304Z</time>
      </trkpt>
      <trkpt lat="46.84819" lon="8.46531">
        <ele>2286</ele>
        <time>2021-08-12T10:54:46.445Z</time>
      </trkpt>
      <trkpt lat="46.84819" lon="8.4653">
        <ele>2286</ele>
        <time>2021-08-12T10:54:47.445Z</time>
      </trkpt>
      <trkpt lat="46.84819" lon="8.46528">
        <ele>2286</ele>
        <time>2021-08-12T10:54:48.444Z</time>
      </trkpt>
      <trkpt lat="46.84818" lon="8.46527">
        <ele>2286</ele>
        <time>2021-08-12T10:54:49.445Z</time>
      </trkpt>
      <trkpt lat="46.84818" lon="8.46525">
        <ele>2286</ele>
        <time>2021-08-12T10:54:50.445Z</time>
      </trkpt>
      <trkpt lat="46.84818" lon="8.46523">
        <ele>2286</ele>
        <time>2021-08-12T10:54:51.445Z</time>
      </trkpt>
      <trkpt lat="46.84818" lon="8.46522">
        <ele>2285</ele>
        <time>2021-08-12T10:54:52.444Z</time>
      </trkpt>
      <trkpt lat="46.84819" lon="8.4652">
        <ele>2285</ele>
        <time>2021-08-12T10:54:53.445Z</time>
      </trkpt>
      <trkpt lat="46.84819" lon="8.46519">
        <ele>2284</ele>
        <time>2021-08-12T10:54:54.445Z</time>
      </trkpt>
      <trkpt lat="46.84819" lon="8.46517">
        <ele>2284</ele>
        <time>2021-08-12T10:54:55.444Z</time>
      </trkpt>
      <trkpt lat="46.84819" lon="8.46516">
        <ele>2284</ele>
        <time>2021-08-12T10:54:56.445Z</time>
      </trkpt>
      <trkpt lat="46.84819" lon="8.46514">
        <ele>2284</ele>
        <time>2021-08-12T10:54:57.445Z</time>
      </trkpt>
      <trkpt lat="46.84819" lon="8.46513">
        <ele>2283</ele>
        <time>2021-08-12T10:54:58.444Z</time>
      </trkpt>
      <trkpt lat="46.84819" lon="8.46513">
        <ele>2282</ele>
        <time>2021-08-12T10:54:59.445Z</time>
      </trkpt>
      <trkpt lat="46.84818" lon="8.46512">
        <ele>2282</ele>
        <time>2021-08-12T10:55:00.445Z</time>
      </trkpt>
      <trkpt lat="46.84818" lon="8.46511">
        <ele>2281</ele>
        <time>2021-08-12T10:55:01.445Z</time>
      </trkpt>
      <trkpt lat="46.84817" lon="8.46509">
        <ele>2281</ele>
        <time>2021-08-12T10:55:02.445Z</time>
      </trkpt>
      <trkpt lat="46.84817" lon="8.46508">
        <ele>2280</ele>
        <time>2021-08-12T10:55:03.445Z</time>
      </trkpt>
      <trkpt lat="46.84816" lon="8.46506">
        <ele>2279</ele>
        <time>2021-08-12T10:55:04.445Z</time>
      </trkpt>
      <trkpt lat="46.84815" lon="8.46504">
        <ele>2278</ele>
        <time>2021-08-12T10:55:05.445Z</time>
      </trkpt>
      <trkpt lat="46.84814" lon="8.46502">
        <ele>2278</ele>
        <time>2021-08-12T10:55:06.445Z</time>
      </trkpt>
      <trkpt lat="46.84813" lon="8.46501">
        <ele>2278</ele>
        <time>2021-08-12T10:55:07.444Z</time>
      </trkpt>
      <trkpt lat="46.84812" lon="8.46499">
        <ele>2278</ele>
        <time>2021-08-12T10:55:08.445Z</time>
      </trkpt>
      <trkpt lat="46.8481" lon="8.46499">
        <ele>2278</ele>
        <time>2021-08-12T10:55:09.445Z</time>
      </trkpt>
      <trkpt lat="46.84809" lon="8.46498">
        <ele>2278</ele>
        <time>2021-08-12T10:55:10.444Z</time>
      </trkpt>
      <trkpt lat="46.84808" lon="8.46498">
        <ele>2278</ele>
        <time>2021-08-12T10:55:11.444Z</time>
      </trkpt>
      <trkpt lat="46.84807" lon="8.46498">
        <ele>2278</ele>
        <time>2021-08-12T10:55:12.445Z</time>
      </trkpt>
      <trkpt lat="46.84806" lon="8.46498">
        <ele>2278</ele>
        <time>2021-08-12T10:55:13.445Z</time>
      </trkpt>
      <trkpt lat="46.84805" lon="8.46498">
        <ele>2278</ele>
        <time>2021-08-12T10:55:14.445Z</time>
      </trkpt>
      <trkpt lat="46.84804" lon="8.46498">
        <ele>2279</ele>
        <time>2021-08-12T10:55:15.444Z</time>
      </trkpt>
      <trkpt lat="46.84804" lon="8.46499">
        <ele>2279</ele>
        <time>2021-08-12T10:55:16.445Z</time>
      </trkpt>
      <trkpt lat="46.84803" lon="8.46498">
        <ele>2279</ele>
        <time>2021-08-12T10:55:40.537Z</time>
      </trkpt>
      <trkpt lat="46.84802" lon="8.46498">
        <ele>2280</ele>
        <time>2021-08-12T10:55:41.536Z</time>
      </trkpt>
      <trkpt lat="46.84801" lon="8.46497">
        <ele>2280</ele>
        <time>2021-08-12T10:55:42.536Z</time>
      </trkpt>
      <trkpt lat="46.84801" lon="8.46496">
        <ele>2280</ele>
        <time>2021-08-12T10:56:18.674Z</time>
      </trkpt>
      <trkpt lat="46.848" lon="8.46495">
        <ele>2281</ele>
        <time>2021-08-12T10:56:19.673Z</time>
      </trkpt>
      <trkpt lat="46.84799" lon="8.46494">
        <ele>2281</ele>
        <time>2021-08-12T10:56:20.674Z</time>
      </trkpt>
      <trkpt lat="46.84798" lon="8.46494">
        <ele>2281</ele>
        <time>2021-08-12T10:56:21.674Z</time>
      </trkpt>
      <trkpt lat="46.84798" lon="8.46493">
        <ele>2281</ele>
        <time>2021-08-12T10:56:22.674Z</time>
      </trkpt>
      <trkpt lat="46.84797" lon="8.46492">
        <ele>2281</ele>
        <time>2021-08-12T10:56:23.674Z</time>
      </trkpt>
      <trkpt lat="46.84796" lon="8.46492">
        <ele>2281</ele>
        <time>2021-08-12T10:56:24.673Z</time>
      </trkpt>
      <trkpt lat="46.84795" lon="8.4649">
        <ele>2282</ele>
        <time>2021-08-12T10:56:25.674Z</time>
      </trkpt>
      <trkpt lat="46.84795" lon="8.46489">
        <ele>2281</ele>
        <time>2021-08-12T10:56:26.674Z</time>
      </trkpt>
      <trkpt lat="46.84794" lon="8.46488">
        <ele>2281</ele>
        <time>2021-08-12T10:56:27.673Z</time>
      </trkpt>
      <trkpt lat="46.84794" lon="8.46487">
        <ele>2281</ele>
        <time>2021-08-12T10:56:28.674Z</time>
      </trkpt>
      <trkpt lat="46.84793" lon="8.46486">
        <ele>2281</ele>
        <time>2021-08-12T10:56:29.673Z</time>
      </trkpt>
      <trkpt lat="46.84793" lon="8.46485">
        <ele>2281</ele>
        <time>2021-08-12T10:56:30.674Z</time>
      </trkpt>
      <trkpt lat="46.84793" lon="8.46484">
        <ele>2281</ele>
        <time>2021-08-12T10:56:31.673Z</time>
      </trkpt>
      <trkpt lat="46.84792" lon="8.46482">
        <ele>2282</ele>
        <time>2021-08-12T10:56:32.674Z</time>
      </trkpt>
      <trkpt lat="46.84792" lon="8.4648">
        <ele>2282</ele>
        <time>2021-08-12T10:56:33.673Z</time>
      </trkpt>
      <trkpt lat="46.84792" lon="8.46478">
        <ele>2283</ele>
        <time>2021-08-12T10:56:38.814Z</time>
      </trkpt>
      <trkpt lat="46.84792" lon="8.46477">
        <ele>2283</ele>
        <time>2021-08-12T10:57:10.656Z</time>
      </trkpt>
      <trkpt lat="46.84792" lon="8.46475">
        <ele>2283</ele>
        <time>2021-08-12T10:57:11.656Z</time>
      </trkpt>
      <trkpt lat="46.84791" lon="8.46473">
        <ele>2284</ele>
        <time>2021-08-12T10:57:12.655Z</time>
      </trkpt>
      <trkpt lat="46.84791" lon="8.46472">
        <ele>2284</ele>
        <time>2021-08-12T10:57:13.655Z</time>
      </trkpt>
      <trkpt lat="46.8479" lon="8.46471">
        <ele>2284</ele>
        <time>2021-08-12T10:57:14.656Z</time>
      </trkpt>
      <trkpt lat="46.84789" lon="8.46469">
        <ele>2284</ele>
        <time>2021-08-12T10:57:15.656Z</time>
      </trkpt>
      <trkpt lat="46.84788" lon="8.46468">
        <ele>2284</ele>
        <time>2021-08-12T10:57:16.656Z</time>
      </trkpt>
      <trkpt lat="46.84787" lon="8.46467">
        <ele>2284</ele>
        <time>2021-08-12T10:57:17.655Z</time>
      </trkpt>
      <trkpt lat="46.84787" lon="8.46466">
        <ele>2284</ele>
        <time>2021-08-12T10:57:18.655Z</time>
      </trkpt>
      <trkpt lat="46.84786" lon="8.46464">
        <ele>2284</ele>
        <time>2021-08-12T10:57:19.656Z</time>
      </trkpt>
      <trkpt lat="46.84785" lon="8.46462">
        <ele>2284</ele>
        <time>2021-08-12T10:57:20.656Z</time>
      </trkpt>
      <trkpt lat="46.84785" lon="8.46461">
        <ele>2284</ele>
        <time>2021-08-12T10:57:21.656Z</time>
      </trkpt>
      <trkpt lat="46.84784" lon="8.4646">
        <ele>2284</ele>
        <time>2021-08-12T10:57:22.656Z</time>
      </trkpt>
      <trkpt lat="46.84783" lon="8.46458">
        <ele>2284</ele>
        <time>2021-08-12T10:57:23.655Z</time>
      </trkpt>
      <trkpt lat="46.84782" lon="8.46457">
        <ele>2284</ele>
        <time>2021-08-12T10:57:24.655Z</time>
      </trkpt>
      <trkpt lat="46.84781" lon="8.46456">
        <ele>2284</ele>
        <time>2021-08-12T10:57:25.656Z</time>
      </trkpt>
      <trkpt lat="46.84781" lon="8.46455">
        <ele>2285</ele>
        <time>2021-08-12T10:57:26.655Z</time>
      </trkpt>
      <trkpt lat="46.8478" lon="8.46454">
        <ele>2285</ele>
        <time>2021-08-12T10:57:27.655Z</time>
      </trkpt>
      <trkpt lat="46.84779" lon="8.46453">
        <ele>2285</ele>
        <time>2021-08-12T10:57:28.655Z</time>
      </trkpt>
      <trkpt lat="46.84778" lon="8.46453">
        <ele>2285</ele>
        <time>2021-08-12T10:57:29.655Z</time>
      </trkpt>
      <trkpt lat="46.84778" lon="8.46452">
        <ele>2285</ele>
        <time>2021-08-12T10:57:30.655Z</time>
      </trkpt>
      <trkpt lat="46.84777" lon="8.46451">
        <ele>2286</ele>
        <time>2021-08-12T10:57:31.656Z</time>
      </trkpt>
      <trkpt lat="46.84776" lon="8.4645">
        <ele>2286</ele>
        <time>2021-08-12T10:57:32.655Z</time>
      </trkpt>
      <trkpt lat="46.84775" lon="8.4645">
        <ele>2286</ele>
        <time>2021-08-12T10:57:33.655Z</time>
      </trkpt>
      <trkpt lat="46.84774" lon="8.46449">
        <ele>2286</ele>
        <time>2021-08-12T10:57:34.656Z</time>
      </trkpt>
      <trkpt lat="46.84773" lon="8.46448">
        <ele>2286</ele>
        <time>2021-08-12T10:57:35.656Z</time>
      </trkpt>
      <trkpt lat="46.84772" lon="8.46447">
        <ele>2286</ele>
        <time>2021-08-12T10:57:36.656Z</time>
      </trkpt>
      <trkpt lat="46.8477" lon="8.46446">
        <ele>2285</ele>
        <time>2021-08-12T10:57:37.655Z</time>
      </trkpt>
      <trkpt lat="46.84769" lon="8.46445">
        <ele>2285</ele>
        <time>2021-08-12T10:57:38.656Z</time>
      </trkpt>
      <trkpt lat="46.84768" lon="8.46444">
        <ele>2285</ele>
        <time>2021-08-12T10:57:39.656Z</time>
      </trkpt>
      <trkpt lat="46.84767" lon="8.46443">
        <ele>2285</ele>
        <time>2021-08-12T10:57:40.656Z</time>
      </trkpt>
      <trkpt lat="46.84766" lon="8.46442">
        <ele>2285</ele>
        <time>2021-08-12T10:57:41.655Z</time>
      </trkpt>
      <trkpt lat="46.84765" lon="8.46441">
        <ele>2285</ele>
        <time>2021-08-12T10:57:42.655Z</time>
      </trkpt>
      <trkpt lat="46.84763" lon="8.4644">
        <ele>2285</ele>
        <time>2021-08-12T10:57:43.655Z</time>
      </trkpt>
      <trkpt lat="46.84763" lon="8.46439">
        <ele>2284</ele>
        <time>2021-08-12T10:57:44.655Z</time>
      </trkpt>
      <trkpt lat="46.84762" lon="8.46437">
        <ele>2285</ele>
        <time>2021-08-12T10:57:45.656Z</time>
      </trkpt>
      <trkpt lat="46.84762" lon="8.46436">
        <ele>2285</ele>
        <time>2021-08-12T10:57:46.656Z</time>
      </trkpt>
      <trkpt lat="46.84762" lon="8.46434">
        <ele>2285</ele>
        <time>2021-08-12T10:57:47.656Z</time>
      </trkpt>
      <trkpt lat="46.84762" lon="8.46433">
        <ele>2285</ele>
        <time>2021-08-12T10:57:48.655Z</time>
      </trkpt>
      <trkpt lat="46.84762" lon="8.46431">
        <ele>2285</ele>
        <time>2021-08-12T10:57:49.655Z</time>
      </trkpt>
      <trkpt lat="46.84762" lon="8.4643">
        <ele>2285</ele>
        <time>2021-08-12T10:57:50.655Z</time>
      </trkpt>
      <trkpt lat="46.84761" lon="8.46428">
        <ele>2285</ele>
        <time>2021-08-12T10:57:51.655Z</time>
      </trkpt>
      <trkpt lat="46.8476" lon="8.46427">
        <ele>2285</ele>
        <time>2021-08-12T10:57:52.656Z</time>
      </trkpt>
      <trkpt lat="46.8476" lon="8.46426">
        <ele>2285</ele>
        <time>2021-08-12T10:57:53.655Z</time>
      </trkpt>
      <trkpt lat="46.84759" lon="8.46424">
        <ele>2285</ele>
        <time>2021-08-12T10:57:54.656Z</time>
      </trkpt>
      <trkpt lat="46.84759" lon="8.46423">
        <ele>2286</ele>
        <time>2021-08-12T10:57:55.656Z</time>
      </trkpt>
      <trkpt lat="46.84758" lon="8.46421">
        <ele>2286</ele>
        <time>2021-08-12T10:57:56.656Z</time>
      </trkpt>
      <trkpt lat="46.84757" lon="8.4642">
        <ele>2286</ele>
        <time>2021-08-12T10:57:57.655Z</time>
      </trkpt>
      <trkpt lat="46.84756" lon="8.4642">
        <ele>2286</ele>
        <time>2021-08-12T10:57:58.655Z</time>
      </trkpt>
      <trkpt lat="46.84755" lon="8.46419">
        <ele>2286</ele>
        <time>2021-08-12T10:57:59.656Z</time>
      </trkpt>
      <trkpt lat="46.84754" lon="8.46418">
        <ele>2286</ele>
        <time>2021-08-12T10:58:00.655Z</time>
      </trkpt>
      <trkpt lat="46.84754" lon="8.46417">
        <ele>2286</ele>
        <time>2021-08-12T10:58:01.656Z</time>
      </trkpt>
      <trkpt lat="46.84753" lon="8.46416">
        <ele>2286</ele>
        <time>2021-08-12T10:58:02.655Z</time>
      </trkpt>
      <trkpt lat="46.84752" lon="8.46415">
        <ele>2286</ele>
        <time>2021-08-12T10:58:03.655Z</time>
      </trkpt>
      <trkpt lat="46.84751" lon="8.46415">
        <ele>2286</ele>
        <time>2021-08-12T10:58:04.656Z</time>
      </trkpt>
      <trkpt lat="46.8475" lon="8.46414">
        <ele>2286</ele>
        <time>2021-08-12T10:58:05.656Z</time>
      </trkpt>
      <trkpt lat="46.84749" lon="8.46414">
        <ele>2286</ele>
        <time>2021-08-12T10:58:06.655Z</time>
      </trkpt>
      <trkpt lat="46.84748" lon="8.46414">
        <ele>2287</ele>
        <time>2021-08-12T10:58:07.656Z</time>
      </trkpt>
      <trkpt lat="46.84747" lon="8.46414">
        <ele>2286</ele>
        <time>2021-08-12T10:58:08.656Z</time>
      </trkpt>
      <trkpt lat="46.84745" lon="8.46413">
        <ele>2286</ele>
        <time>2021-08-12T10:58:09.655Z</time>
      </trkpt>
      <trkpt lat="46.84744" lon="8.46413">
        <ele>2285</ele>
        <time>2021-08-12T10:58:10.656Z</time>
      </trkpt>
      <trkpt lat="46.84743" lon="8.46412">
        <ele>2285</ele>
        <time>2021-08-12T10:58:11.655Z</time>
      </trkpt>
      <trkpt lat="46.84743" lon="8.46412">
        <ele>2285</ele>
        <time>2021-08-12T10:58:12.655Z</time>
      </trkpt>
      <trkpt lat="46.84742" lon="8.46412">
        <ele>2285</ele>
        <time>2021-08-12T10:58:13.655Z</time>
      </trkpt>
      <trkpt lat="46.8474" lon="8.46412">
        <ele>2285</ele>
        <time>2021-08-12T10:58:14.656Z</time>
      </trkpt>
      <trkpt lat="46.84739" lon="8.46411">
        <ele>2285</ele>
        <time>2021-08-12T10:58:15.656Z</time>
      </trkpt>
      <trkpt lat="46.84737" lon="8.46411">
        <ele>2285</ele>
        <time>2021-08-12T10:58:16.656Z</time>
      </trkpt>
      <trkpt lat="46.84736" lon="8.4641">
        <ele>2285</ele>
        <time>2021-08-12T10:58:17.655Z</time>
      </trkpt>
      <trkpt lat="46.84735" lon="8.46408">
        <ele>2285</ele>
        <time>2021-08-12T10:58:18.656Z</time>
      </trkpt>
      <trkpt lat="46.84734" lon="8.46407">
        <ele>2285</ele>
        <time>2021-08-12T10:58:19.656Z</time>
      </trkpt>
      <trkpt lat="46.84733" lon="8.46406">
        <ele>2286</ele>
        <time>2021-08-12T10:58:20.656Z</time>
      </trkpt>
      <trkpt lat="46.84732" lon="8.46405">
        <ele>2286</ele>
        <time>2021-08-12T10:58:21.656Z</time>
      </trkpt>
      <trkpt lat="46.84731" lon="8.46404">
        <ele>2286</ele>
        <time>2021-08-12T10:58:22.656Z</time>
      </trkpt>
      <trkpt lat="46.8473" lon="8.46404">
        <ele>2286</ele>
        <time>2021-08-12T10:58:23.656Z</time>
      </trkpt>
      <trkpt lat="46.84729" lon="8.46403">
        <ele>2286</ele>
        <time>2021-08-12T10:58:24.656Z</time>
      </trkpt>
      <trkpt lat="46.84728" lon="8.46402">
        <ele>2287</ele>
        <time>2021-08-12T10:58:25.656Z</time>
      </trkpt>
      <trkpt lat="46.84727" lon="8.46401">
        <ele>2287</ele>
        <time>2021-08-12T10:58:26.656Z</time>
      </trkpt>
      <trkpt lat="46.84726" lon="8.464">
        <ele>2287</ele>
        <time>2021-08-12T10:58:27.655Z</time>
      </trkpt>
      <trkpt lat="46.84725" lon="8.46399">
        <ele>2287</ele>
        <time>2021-08-12T10:58:28.656Z</time>
      </trkpt>
      <trkpt lat="46.84724" lon="8.464">
        <ele>2287</ele>
        <time>2021-08-12T10:58:29.656Z</time>
      </trkpt>
      <trkpt lat="46.84723" lon="8.46399">
        <ele>2287</ele>
        <time>2021-08-12T10:58:30.655Z</time>
      </trkpt>
      <trkpt lat="46.84721" lon="8.46398">
        <ele>2287</ele>
        <time>2021-08-12T10:58:31.655Z</time>
      </trkpt>
      <trkpt lat="46.8472" lon="8.46398">
        <ele>2287</ele>
        <time>2021-08-12T10:58:32.656Z</time>
      </trkpt>
      <trkpt lat="46.84719" lon="8.46398">
        <ele>2287</ele>
        <time>2021-08-12T10:58:33.655Z</time>
      </trkpt>
      <trkpt lat="46.84717" lon="8.46397">
        <ele>2287</ele>
        <time>2021-08-12T10:58:34.656Z</time>
      </trkpt>
      <trkpt lat="46.84716" lon="8.46396">
        <ele>2286</ele>
        <time>2021-08-12T10:58:35.656Z</time>
      </trkpt>
      <trkpt lat="46.84714" lon="8.46395">
        <ele>2286</ele>
        <time>2021-08-12T10:58:36.656Z</time>
      </trkpt>
      <trkpt lat="46.84713" lon="8.46395">
        <ele>2285</ele>
        <time>2021-08-12T10:58:37.656Z</time>
      </trkpt>
      <trkpt lat="46.84712" lon="8.46394">
        <ele>2285</ele>
        <time>2021-08-12T10:58:38.655Z</time>
      </trkpt>
      <trkpt lat="46.84711" lon="8.46393">
        <ele>2285</ele>
        <time>2021-08-12T10:58:39.655Z</time>
      </trkpt>
      <trkpt lat="46.84709" lon="8.46392">
        <ele>2284</ele>
        <time>2021-08-12T10:58:40.655Z</time>
      </trkpt>
      <trkpt lat="46.84708" lon="8.46391">
        <ele>2285</ele>
        <time>2021-08-12T10:58:41.656Z</time>
      </trkpt>
      <trkpt lat="46.84707" lon="8.46389">
        <ele>2285</ele>
        <time>2021-08-12T10:58:42.656Z</time>
      </trkpt>
      <trkpt lat="46.84706" lon="8.46388">
        <ele>2285</ele>
        <time>2021-08-12T10:58:43.655Z</time>
      </trkpt>
      <trkpt lat="46.84705" lon="8.46387">
        <ele>2285</ele>
        <time>2021-08-12T10:58:44.656Z</time>
      </trkpt>
      <trkpt lat="46.84704" lon="8.46386">
        <ele>2285</ele>
        <time>2021-08-12T10:58:45.656Z</time>
      </trkpt>
      <trkpt lat="46.84703" lon="8.46386">
        <ele>2285</ele>
        <time>2021-08-12T10:58:46.655Z</time>
      </trkpt>
      <trkpt lat="46.84702" lon="8.46384">
        <ele>2285</ele>
        <time>2021-08-12T10:58:47.656Z</time>
      </trkpt>
      <trkpt lat="46.84701" lon="8.46383">
        <ele>2285</ele>
        <time>2021-08-12T10:58:48.655Z</time>
      </trkpt>
      <trkpt lat="46.84701" lon="8.46382">
        <ele>2285</ele>
        <time>2021-08-12T10:58:49.656Z</time>
      </trkpt>
      <trkpt lat="46.847" lon="8.46381">
        <ele>2285</ele>
        <time>2021-08-12T10:58:50.656Z</time>
      </trkpt>
      <trkpt lat="46.84699" lon="8.46379">
        <ele>2285</ele>
        <time>2021-08-12T10:58:51.656Z</time>
      </trkpt>
      <trkpt lat="46.84699" lon="8.46377">
        <ele>2285</ele>
        <time>2021-08-12T10:58:52.655Z</time>
      </trkpt>
      <trkpt lat="46.84698" lon="8.46376">
        <ele>2285</ele>
        <time>2021-08-12T10:58:53.655Z</time>
      </trkpt>
      <trkpt lat="46.84697" lon="8.46374">
        <ele>2284</ele>
        <time>2021-08-12T10:58:54.655Z</time>
      </trkpt>
      <trkpt lat="46.84696" lon="8.46373">
        <ele>2284</ele>
        <time>2021-08-12T10:58:55.656Z</time>
      </trkpt>
      <trkpt lat="46.84696" lon="8.46371">
        <ele>2283</ele>
        <time>2021-08-12T10:58:56.656Z</time>
      </trkpt>
      <trkpt lat="46.84696" lon="8.46369">
        <ele>2283</ele>
        <time>2021-08-12T10:58:57.656Z</time>
      </trkpt>
      <trkpt lat="46.84695" lon="8.46367">
        <ele>2283</ele>
        <time>2021-08-12T10:58:58.656Z</time>
      </trkpt>
      <trkpt lat="46.84695" lon="8.46365">
        <ele>2283</ele>
        <time>2021-08-12T10:58:59.656Z</time>
      </trkpt>
      <trkpt lat="46.84694" lon="8.46363">
        <ele>2283</ele>
        <time>2021-08-12T10:59:00.656Z</time>
      </trkpt>
      <trkpt lat="46.84694" lon="8.46361">
        <ele>2283</ele>
        <time>2021-08-12T10:59:01.656Z</time>
      </trkpt>
      <trkpt lat="46.84693" lon="8.4636">
        <ele>2283</ele>
        <time>2021-08-12T10:59:02.655Z</time>
      </trkpt>
      <trkpt lat="46.84693" lon="8.46358">
        <ele>2283</ele>
        <time>2021-08-12T10:59:03.656Z</time>
      </trkpt>
      <trkpt lat="46.84693" lon="8.46357">
        <ele>2283</ele>
        <time>2021-08-12T10:59:04.656Z</time>
      </trkpt>
      <trkpt lat="46.84693" lon="8.46355">
        <ele>2283</ele>
        <time>2021-08-12T10:59:05.656Z</time>
      </trkpt>
      <trkpt lat="46.84692" lon="8.46353">
        <ele>2283</ele>
        <time>2021-08-12T10:59:06.655Z</time>
      </trkpt>
      <trkpt lat="46.84691" lon="8.46352">
        <ele>2283</ele>
        <time>2021-08-12T10:59:07.655Z</time>
      </trkpt>
      <trkpt lat="46.8469" lon="8.46351">
        <ele>2283</ele>
        <time>2021-08-12T10:59:08.656Z</time>
      </trkpt>
      <trkpt lat="46.84689" lon="8.46349">
        <ele>2283</ele>
        <time>2021-08-12T10:59:09.656Z</time>
      </trkpt>
      <trkpt lat="46.84688" lon="8.46348">
        <ele>2283</ele>
        <time>2021-08-12T10:59:10.656Z</time>
      </trkpt>
      <trkpt lat="46.84687" lon="8.46347">
        <ele>2283</ele>
        <time>2021-08-12T10:59:11.656Z</time>
      </trkpt>
      <trkpt lat="46.84686" lon="8.46347">
        <ele>2283</ele>
        <time>2021-08-12T10:59:12.656Z</time>
      </trkpt>
      <trkpt lat="46.84685" lon="8.46347">
        <ele>2283</ele>
        <time>2021-08-12T10:59:13.655Z</time>
      </trkpt>
      <trkpt lat="46.84683" lon="8.46347">
        <ele>2283</ele>
        <time>2021-08-12T10:59:14.655Z</time>
      </trkpt>
      <trkpt lat="46.84682" lon="8.46348">
        <ele>2283</ele>
        <time>2021-08-12T10:59:15.655Z</time>
      </trkpt>
      <trkpt lat="46.84681" lon="8.46348">
        <ele>2283</ele>
        <time>2021-08-12T10:59:16.656Z</time>
      </trkpt>
      <trkpt lat="46.8468" lon="8.4635">
        <ele>2283</ele>
        <time>2021-08-12T10:59:17.656Z</time>
      </trkpt>
      <trkpt lat="46.84679" lon="8.4635">
        <ele>2283</ele>
        <time>2021-08-12T10:59:18.656Z</time>
      </trkpt>
      <trkpt lat="46.84679" lon="8.46352">
        <ele>2283</ele>
        <time>2021-08-12T10:59:19.656Z</time>
      </trkpt>
      <trkpt lat="46.84677" lon="8.46352">
        <ele>2283</ele>
        <time>2021-08-12T10:59:20.655Z</time>
      </trkpt>
      <trkpt lat="46.84677" lon="8.46353">
        <ele>2284</ele>
        <time>2021-08-12T10:59:21.656Z</time>
      </trkpt>
      <trkpt lat="46.84676" lon="8.46354">
        <ele>2284</ele>
        <time>2021-08-12T10:59:22.656Z</time>
      </trkpt>
      <trkpt lat="46.84675" lon="8.46355">
        <ele>2283</ele>
        <time>2021-08-12T10:59:23.655Z</time>
      </trkpt>
      <trkpt lat="46.84675" lon="8.46356">
        <ele>2283</ele>
        <time>2021-08-12T10:59:24.656Z</time>
      </trkpt>
      <trkpt lat="46.84674" lon="8.46357">
        <ele>2283</ele>
        <time>2021-08-12T10:59:25.656Z</time>
      </trkpt>
      <trkpt lat="46.84673" lon="8.46358">
        <ele>2283</ele>
        <time>2021-08-12T10:59:26.655Z</time>
      </trkpt>
      <trkpt lat="46.84673" lon="8.46359">
        <ele>2283</ele>
        <time>2021-08-12T10:59:27.656Z</time>
      </trkpt>
      <trkpt lat="46.84672" lon="8.4636">
        <ele>2283</ele>
        <time>2021-08-12T10:59:28.655Z</time>
      </trkpt>
      <trkpt lat="46.84671" lon="8.46361">
        <ele>2283</ele>
        <time>2021-08-12T10:59:29.655Z</time>
      </trkpt>
      <trkpt lat="46.8467" lon="8.46362">
        <ele>2283</ele>
        <time>2021-08-12T10:59:30.656Z</time>
      </trkpt>
      <trkpt lat="46.84669" lon="8.46362">
        <ele>2283</ele>
        <time>2021-08-12T10:59:31.656Z</time>
      </trkpt>
      <trkpt lat="46.84668" lon="8.46363">
        <ele>2283</ele>
        <time>2021-08-12T10:59:32.656Z</time>
      </trkpt>
      <trkpt lat="46.84667" lon="8.46363">
        <ele>2283</ele>
        <time>2021-08-12T10:59:33.655Z</time>
      </trkpt>
      <trkpt lat="46.84666" lon="8.46364">
        <ele>2283</ele>
        <time>2021-08-12T10:59:34.655Z</time>
      </trkpt>
      <trkpt lat="46.84665" lon="8.46364">
        <ele>2283</ele>
        <time>2021-08-12T10:59:35.655Z</time>
      </trkpt>
      <trkpt lat="46.84664" lon="8.46363">
        <ele>2283</ele>
        <time>2021-08-12T10:59:36.655Z</time>
      </trkpt>
      <trkpt lat="46.84663" lon="8.46363">
        <ele>2284</ele>
        <time>2021-08-12T10:59:37.656Z</time>
      </trkpt>
      <trkpt lat="46.84662" lon="8.46363">
        <ele>2284</ele>
        <time>2021-08-12T10:59:38.655Z</time>
      </trkpt>
      <trkpt lat="46.84661" lon="8.46364">
        <ele>2285</ele>
        <time>2021-08-12T10:59:39.656Z</time>
      </trkpt>
      <trkpt lat="46.8466" lon="8.46364">
        <ele>2285</ele>
        <time>2021-08-12T10:59:40.655Z</time>
      </trkpt>
      <trkpt lat="46.84659" lon="8.46364">
        <ele>2285</ele>
        <time>2021-08-12T10:59:41.655Z</time>
      </trkpt>
      <trkpt lat="46.84658" lon="8.46364">
        <ele>2286</ele>
        <time>2021-08-12T10:59:42.656Z</time>
      </trkpt>
      <trkpt lat="46.84657" lon="8.46364">
        <ele>2286</ele>
        <time>2021-08-12T10:59:43.656Z</time>
      </trkpt>
      <trkpt lat="46.84656" lon="8.46364">
        <ele>2286</ele>
        <time>2021-08-12T10:59:44.656Z</time>
      </trkpt>
      <trkpt lat="46.84655" lon="8.46363">
        <ele>2286</ele>
        <time>2021-08-12T10:59:45.656Z</time>
      </trkpt>
      <trkpt lat="46.84653" lon="8.46362">
        <ele>2286</ele>
        <time>2021-08-12T10:59:46.656Z</time>
      </trkpt>
      <trkpt lat="46.84652" lon="8.46362">
        <ele>2286</ele>
        <time>2021-08-12T10:59:47.655Z</time>
      </trkpt>
      <trkpt lat="46.84651" lon="8.46361">
        <ele>2286</ele>
        <time>2021-08-12T10:59:48.656Z</time>
      </trkpt>
      <trkpt lat="46.8465" lon="8.46361">
        <ele>2287</ele>
        <time>2021-08-12T10:59:49.656Z</time>
      </trkpt>
      <trkpt lat="46.84649" lon="8.46361">
        <ele>2287</ele>
        <time>2021-08-12T10:59:50.656Z</time>
      </trkpt>
      <trkpt lat="46.84648" lon="8.4636">
        <ele>2287</ele>
        <time>2021-08-12T10:59:51.655Z</time>
      </trkpt>
      <trkpt lat="46.84647" lon="8.46359">
        <ele>2287</ele>
        <time>2021-08-12T10:59:52.656Z</time>
      </trkpt>
      <trkpt lat="46.84646" lon="8.46359">
        <ele>2287</ele>
        <time>2021-08-12T10:59:53.656Z</time>
      </trkpt>
      <trkpt lat="46.84645" lon="8.46358">
        <ele>2287</ele>
        <time>2021-08-12T10:59:54.655Z</time>
      </trkpt>
      <trkpt lat="46.84644" lon="8.46358">
        <ele>2287</ele>
        <time>2021-08-12T10:59:55.656Z</time>
      </trkpt>
      <trkpt lat="46.84643" lon="8.46357">
        <ele>2287</ele>
        <time>2021-08-12T10:59:56.656Z</time>
      </trkpt>
      <trkpt lat="46.84642" lon="8.46357">
        <ele>2287</ele>
        <time>2021-08-12T10:59:57.656Z</time>
      </trkpt>
      <trkpt lat="46.84641" lon="8.46356">
        <ele>2287</ele>
        <time>2021-08-12T10:59:58.656Z</time>
      </trkpt>
      <trkpt lat="46.84641" lon="8.46355">
        <ele>2287</ele>
        <time>2021-08-12T10:59:59.656Z</time>
      </trkpt>
      <trkpt lat="46.8464" lon="8.46353">
        <ele>2287</ele>
        <time>2021-08-12T11:00:00.655Z</time>
      </trkpt>
      <trkpt lat="46.84639" lon="8.46352">
        <ele>2287</ele>
        <time>2021-08-12T11:00:01.656Z</time>
      </trkpt>
      <trkpt lat="46.84639" lon="8.46351">
        <ele>2287</ele>
        <time>2021-08-12T11:00:02.656Z</time>
      </trkpt>
      <trkpt lat="46.84638" lon="8.4635">
        <ele>2287</ele>
        <time>2021-08-12T11:00:03.656Z</time>
      </trkpt>
      <trkpt lat="46.84638" lon="8.46348">
        <ele>2287</ele>
        <time>2021-08-12T11:00:04.656Z</time>
      </trkpt>
      <trkpt lat="46.84638" lon="8.46347">
        <ele>2288</ele>
        <time>2021-08-12T11:00:05.656Z</time>
      </trkpt>
      <trkpt lat="46.84637" lon="8.46345">
        <ele>2288</ele>
        <time>2021-08-12T11:00:06.655Z</time>
      </trkpt>
      <trkpt lat="46.84637" lon="8.46344">
        <ele>2288</ele>
        <time>2021-08-12T11:00:07.656Z</time>
      </trkpt>
      <trkpt lat="46.84637" lon="8.46342">
        <ele>2289</ele>
        <time>2021-08-12T11:00:08.655Z</time>
      </trkpt>
      <trkpt lat="46.84637" lon="8.46341">
        <ele>2289</ele>
        <time>2021-08-12T11:00:09.655Z</time>
      </trkpt>
      <trkpt lat="46.84637" lon="8.46339">
        <ele>2289</ele>
        <time>2021-08-12T11:00:10.656Z</time>
      </trkpt>
      <trkpt lat="46.84637" lon="8.46338">
        <ele>2290</ele>
        <time>2021-08-12T11:00:20.683Z</time>
      </trkpt>
      <trkpt lat="46.84638" lon="8.46336">
        <ele>2290</ele>
        <time>2021-08-12T11:00:21.683Z</time>
      </trkpt>
      <trkpt lat="46.84638" lon="8.46335">
        <ele>2291</ele>
        <time>2021-08-12T11:00:22.683Z</time>
      </trkpt>
      <trkpt lat="46.84637" lon="8.46333">
        <ele>2291</ele>
        <time>2021-08-12T11:00:23.682Z</time>
      </trkpt>
      <trkpt lat="46.84637" lon="8.46332">
        <ele>2291</ele>
        <time>2021-08-12T11:00:24.682Z</time>
      </trkpt>
      <trkpt lat="46.84637" lon="8.46331">
        <ele>2291</ele>
        <time>2021-08-12T11:00:25.683Z</time>
      </trkpt>
      <trkpt lat="46.84637" lon="8.46329">
        <ele>2291</ele>
        <time>2021-08-12T11:00:26.683Z</time>
      </trkpt>
      <trkpt lat="46.84637" lon="8.46327">
        <ele>2291</ele>
        <time>2021-08-12T11:00:27.683Z</time>
      </trkpt>
      <trkpt lat="46.84637" lon="8.46325">
        <ele>2291</ele>
        <time>2021-08-12T11:00:28.683Z</time>
      </trkpt>
      <trkpt lat="46.84637" lon="8.46324">
        <ele>2290</ele>
        <time>2021-08-12T11:00:29.682Z</time>
      </trkpt>
      <trkpt lat="46.84637" lon="8.46322">
        <ele>2290</ele>
        <time>2021-08-12T11:00:30.683Z</time>
      </trkpt>
      <trkpt lat="46.84638" lon="8.4632">
        <ele>2290</ele>
        <time>2021-08-12T11:00:31.682Z</time>
      </trkpt>
      <trkpt lat="46.84638" lon="8.46318">
        <ele>2290</ele>
        <time>2021-08-12T11:00:32.683Z</time>
      </trkpt>
      <trkpt lat="46.84638" lon="8.46317">
        <ele>2291</ele>
        <time>2021-08-12T11:00:33.682Z</time>
      </trkpt>
      <trkpt lat="46.84637" lon="8.46315">
        <ele>2291</ele>
        <time>2021-08-12T11:00:34.683Z</time>
      </trkpt>
      <trkpt lat="46.84637" lon="8.46314">
        <ele>2291</ele>
        <time>2021-08-12T11:00:35.683Z</time>
      </trkpt>
      <trkpt lat="46.84637" lon="8.46312">
        <ele>2291</ele>
        <time>2021-08-12T11:00:36.682Z</time>
      </trkpt>
      <trkpt lat="46.84637" lon="8.46311">
        <ele>2291</ele>
        <time>2021-08-12T11:00:37.683Z</time>
      </trkpt>
      <trkpt lat="46.84637" lon="8.46309">
        <ele>2292</ele>
        <time>2021-08-12T11:00:38.682Z</time>
      </trkpt>
      <trkpt lat="46.84638" lon="8.46307">
        <ele>2292</ele>
        <time>2021-08-12T11:00:39.683Z</time>
      </trkpt>
      <trkpt lat="46.84638" lon="8.46305">
        <ele>2292</ele>
        <time>2021-08-12T11:00:40.683Z</time>
      </trkpt>
      <trkpt lat="46.84638" lon="8.46304">
        <ele>2293</ele>
        <time>2021-08-12T11:00:41.683Z</time>
      </trkpt>
      <trkpt lat="46.84639" lon="8.46302">
        <ele>2292</ele>
        <time>2021-08-12T11:00:42.682Z</time>
      </trkpt>
      <trkpt lat="46.84639" lon="8.46301">
        <ele>2292</ele>
        <time>2021-08-12T11:00:43.683Z</time>
      </trkpt>
      <trkpt lat="46.84639" lon="8.46299">
        <ele>2292</ele>
        <time>2021-08-12T11:00:44.682Z</time>
      </trkpt>
      <trkpt lat="46.8464" lon="8.46297">
        <ele>2291</ele>
        <time>2021-08-12T11:00:45.683Z</time>
      </trkpt>
      <trkpt lat="46.8464" lon="8.46295">
        <ele>2291</ele>
        <time>2021-08-12T11:00:46.682Z</time>
      </trkpt>
      <trkpt lat="46.8464" lon="8.46293">
        <ele>2290</ele>
        <time>2021-08-12T11:00:47.683Z</time>
      </trkpt>
      <trkpt lat="46.8464" lon="8.46291">
        <ele>2290</ele>
        <time>2021-08-12T11:00:48.683Z</time>
      </trkpt>
      <trkpt lat="46.84639" lon="8.46289">
        <ele>2290</ele>
        <time>2021-08-12T11:00:49.683Z</time>
      </trkpt>
      <trkpt lat="46.84639" lon="8.46287">
        <ele>2290</ele>
        <time>2021-08-12T11:00:50.683Z</time>
      </trkpt>
      <trkpt lat="46.84638" lon="8.46286">
        <ele>2289</ele>
        <time>2021-08-12T11:00:51.683Z</time>
      </trkpt>
      <trkpt lat="46.84638" lon="8.46285">
        <ele>2289</ele>
        <time>2021-08-12T11:00:52.683Z</time>
      </trkpt>
      <trkpt lat="46.84638" lon="8.46283">
        <ele>2289</ele>
        <time>2021-08-12T11:00:53.683Z</time>
      </trkpt>
      <trkpt lat="46.84637" lon="8.46282">
        <ele>2289</ele>
        <time>2021-08-12T11:00:54.682Z</time>
      </trkpt>
      <trkpt lat="46.84637" lon="8.46281">
        <ele>2289</ele>
        <time>2021-08-12T11:00:55.682Z</time>
      </trkpt>
      <trkpt lat="46.84636" lon="8.4628">
        <ele>2290</ele>
        <time>2021-08-12T11:00:56.683Z</time>
      </trkpt>
      <trkpt lat="46.84635" lon="8.46279">
        <ele>2290</ele>
        <time>2021-08-12T11:00:57.682Z</time>
      </trkpt>
      <trkpt lat="46.84635" lon="8.46278">
        <ele>2290</ele>
        <time>2021-08-12T11:00:58.682Z</time>
      </trkpt>
      <trkpt lat="46.84634" lon="8.46277">
        <ele>2290</ele>
        <time>2021-08-12T11:00:59.682Z</time>
      </trkpt>
      <trkpt lat="46.84634" lon="8.46276">
        <ele>2290</ele>
        <time>2021-08-12T11:01:00.682Z</time>
      </trkpt>
      <trkpt lat="46.84633" lon="8.46275">
        <ele>2290</ele>
        <time>2021-08-12T11:01:01.682Z</time>
      </trkpt>
      <trkpt lat="46.84633" lon="8.46274">
        <ele>2289</ele>
        <time>2021-08-12T11:01:02.682Z</time>
      </trkpt>
      <trkpt lat="46.84632" lon="8.46273">
        <ele>2289</ele>
        <time>2021-08-12T11:01:03.682Z</time>
      </trkpt>
      <trkpt lat="46.84631" lon="8.46272">
        <ele>2289</ele>
        <time>2021-08-12T11:01:04.682Z</time>
      </trkpt>
      <trkpt lat="46.84631" lon="8.46271">
        <ele>2288</ele>
        <time>2021-08-12T11:01:05.682Z</time>
      </trkpt>
      <trkpt lat="46.8463" lon="8.4627">
        <ele>2288</ele>
        <time>2021-08-12T11:01:06.682Z</time>
      </trkpt>
      <trkpt lat="46.8463" lon="8.46269">
        <ele>2288</ele>
        <time>2021-08-12T11:01:07.682Z</time>
      </trkpt>
      <trkpt lat="46.8463" lon="8.46269">
        <ele>2288</ele>
        <time>2021-08-12T11:01:08.682Z</time>
      </trkpt>
      <trkpt lat="46.84629" lon="8.46269">
        <ele>2288</ele>
        <time>2021-08-12T11:01:09.682Z</time>
      </trkpt>
      <trkpt lat="46.84628" lon="8.46269">
        <ele>2287</ele>
        <time>2021-08-12T11:01:10.682Z</time>
      </trkpt>
      <trkpt lat="46.84627" lon="8.46268">
        <ele>2287</ele>
        <time>2021-08-12T11:01:11.682Z</time>
      </trkpt>
      <trkpt lat="46.84627" lon="8.46267">
        <ele>2287</ele>
        <time>2021-08-12T11:01:12.682Z</time>
      </trkpt>
      <trkpt lat="46.84627" lon="8.46266">
        <ele>2288</ele>
        <time>2021-08-12T11:01:13.682Z</time>
      </trkpt>
      <trkpt lat="46.84626" lon="8.46265">
        <ele>2288</ele>
        <time>2021-08-12T11:01:14.682Z</time>
      </trkpt>
      <trkpt lat="46.84625" lon="8.46265">
        <ele>2288</ele>
        <time>2021-08-12T11:01:15.683Z</time>
      </trkpt>
      <trkpt lat="46.84624" lon="8.46264">
        <ele>2288</ele>
        <time>2021-08-12T11:01:16.683Z</time>
      </trkpt>
      <trkpt lat="46.84624" lon="8.46263">
        <ele>2289</ele>
        <time>2021-08-12T11:01:17.682Z</time>
      </trkpt>
      <trkpt lat="46.84623" lon="8.46263">
        <ele>2289</ele>
        <time>2021-08-12T11:01:18.682Z</time>
      </trkpt>
      <trkpt lat="46.84622" lon="8.46263">
        <ele>2289</ele>
        <time>2021-08-12T11:01:19.683Z</time>
      </trkpt>
      <trkpt lat="46.84617" lon="8.46269">
        <ele>2287</ele>
        <time>2021-08-13T07:19:09.153Z</time>
      </trkpt>
      <trkpt lat="46.84617" lon="8.46269">
        <ele>2287</ele>
        <time>2021-08-13T07:19:09.153Z</time>
      </trkpt>
      <trkpt lat="46.84617" lon="8.46269">
        <ele>2287</ele>
        <time>2021-08-13T07:19:09.153Z</time>
      </trkpt>
      <trkpt lat="46.84617" lon="8.46268">
        <ele>2287</ele>
        <time>2021-08-13T07:19:10.154Z</time>
      </trkpt>
      <trkpt lat="46.84617" lon="8.46268">
        <ele>2287</ele>
        <time>2021-08-13T07:19:11.154Z</time>
      </trkpt>
      <trkpt lat="46.84617" lon="8.46267">
        <ele>2287</ele>
        <time>2021-08-13T07:19:12.154Z</time>
      </trkpt>
      <trkpt lat="46.84617" lon="8.46267">
        <ele>2287</ele>
        <time>2021-08-13T07:19:13.153Z</time>
      </trkpt>
      <trkpt lat="46.84617" lon="8.46266">
        <ele>2287</ele>
        <time>2021-08-13T07:19:14.153Z</time>
      </trkpt>
      <trkpt lat="46.84616" lon="8.46264">
        <ele>2288</ele>
        <time>2021-08-13T07:19:15.153Z</time>
      </trkpt>
      <trkpt lat="46.84617" lon="8.46263">
        <ele>2288</ele>
        <time>2021-08-13T07:19:16.153Z</time>
      </trkpt>
      <trkpt lat="46.84617" lon="8.46262">
        <ele>2288</ele>
        <time>2021-08-13T07:19:17.153Z</time>
      </trkpt>
      <trkpt lat="46.84618" lon="8.4626">
        <ele>2288</ele>
        <time>2021-08-13T07:19:18.153Z</time>
      </trkpt>
      <trkpt lat="46.84619" lon="8.46259">
        <ele>2288</ele>
        <time>2021-08-13T07:19:19.153Z</time>
      </trkpt>
      <trkpt lat="46.84619" lon="8.46258">
        <ele>2288</ele>
        <time>2021-08-13T07:19:20.153Z</time>
      </trkpt>
      <trkpt lat="46.84619" lon="8.46258">
        <ele>2288</ele>
        <time>2021-08-13T07:19:21.153Z</time>
      </trkpt>
      <trkpt lat="46.84618" lon="8.46257">
        <ele>2288</ele>
        <time>2021-08-13T07:19:22.153Z</time>
      </trkpt>
      <trkpt lat="46.84618" lon="8.46257">
        <ele>2288</ele>
        <time>2021-08-13T07:19:23.154Z</time>
      </trkpt>
      <trkpt lat="46.84618" lon="8.46256">
        <ele>2288</ele>
        <time>2021-08-13T07:19:24.153Z</time>
      </trkpt>
      <trkpt lat="46.84619" lon="8.46255">
        <ele>2288</ele>
        <time>2021-08-13T07:19:25.154Z</time>
      </trkpt>
      <trkpt lat="46.8462" lon="8.46254">
        <ele>2288</ele>
        <time>2021-08-13T07:19:26.153Z</time>
      </trkpt>
      <trkpt lat="46.8462" lon="8.46253">
        <ele>2288</ele>
        <time>2021-08-13T07:19:27.154Z</time>
      </trkpt>
      <trkpt lat="46.84621" lon="8.46251">
        <ele>2288</ele>
        <time>2021-08-13T07:19:28.153Z</time>
      </trkpt>
      <trkpt lat="46.84621" lon="8.46251">
        <ele>2288</ele>
        <time>2021-08-13T07:19:29.153Z</time>
      </trkpt>
      <trkpt lat="46.8462" lon="8.4625">
        <ele>2287</ele>
        <time>2021-08-13T07:19:30.153Z</time>
      </trkpt>
      <trkpt lat="46.8462" lon="8.4625">
        <ele>2287</ele>
        <time>2021-08-13T07:19:31.154Z</time>
      </trkpt>
      <trkpt lat="46.8462" lon="8.46251">
        <ele>2287</ele>
        <time>2021-08-13T07:19:32.154Z</time>
      </trkpt>
      <trkpt lat="46.84621" lon="8.46251">
        <ele>2287</ele>
        <time>2021-08-13T07:19:33.153Z</time>
      </trkpt>
      <trkpt lat="46.84621" lon="8.46251">
        <ele>2286</ele>
        <time>2021-08-13T07:19:34.154Z</time>
      </trkpt>
      <trkpt lat="46.84621" lon="8.46251">
        <ele>2286</ele>
        <time>2021-08-13T07:19:35.154Z</time>
      </trkpt>
      <trkpt lat="46.84621" lon="8.4625">
        <ele>2285</ele>
        <time>2021-08-13T07:19:36.154Z</time>
      </trkpt>
      <trkpt lat="46.84622" lon="8.4625">
        <ele>2285</ele>
        <time>2021-08-13T07:19:37.154Z</time>
      </trkpt>
      <trkpt lat="46.84622" lon="8.46248">
        <ele>2284</ele>
        <time>2021-08-13T07:19:38.153Z</time>
      </trkpt>
      <trkpt lat="46.84622" lon="8.46247">
        <ele>2284</ele>
        <time>2021-08-13T07:19:39.154Z</time>
      </trkpt>
      <trkpt lat="46.84623" lon="8.46246">
        <ele>2284</ele>
        <time>2021-08-13T07:19:40.154Z</time>
      </trkpt>
      <trkpt lat="46.84623" lon="8.46245">
        <ele>2284</ele>
        <time>2021-08-13T07:19:41.153Z</time>
      </trkpt>
      <trkpt lat="46.84623" lon="8.46244">
        <ele>2284</ele>
        <time>2021-08-13T07:19:42.154Z</time>
      </trkpt>
      <trkpt lat="46.84623" lon="8.46243">
        <ele>2283</ele>
        <time>2021-08-13T07:19:43.154Z</time>
      </trkpt>
      <trkpt lat="46.84623" lon="8.46242">
        <ele>2283</ele>
        <time>2021-08-13T07:19:44.154Z</time>
      </trkpt>
      <trkpt lat="46.84623" lon="8.4624">
        <ele>2283</ele>
        <time>2021-08-13T07:19:45.153Z</time>
      </trkpt>
      <trkpt lat="46.84623" lon="8.4624">
        <ele>2283</ele>
        <time>2021-08-13T07:19:46.154Z</time>
      </trkpt>
      <trkpt lat="46.84623" lon="8.46239">
        <ele>2283</ele>
        <time>2021-08-13T07:19:47.154Z</time>
      </trkpt>
      <trkpt lat="46.84623" lon="8.46238">
        <ele>2283</ele>
        <time>2021-08-13T07:19:48.154Z</time>
      </trkpt>
      <trkpt lat="46.84623" lon="8.46237">
        <ele>2283</ele>
        <time>2021-08-13T07:19:49.153Z</time>
      </trkpt>
      <trkpt lat="46.84623" lon="8.46236">
        <ele>2283</ele>
        <time>2021-08-13T07:19:50.154Z</time>
      </trkpt>
      <trkpt lat="46.84622" lon="8.46236">
        <ele>2283</ele>
        <time>2021-08-13T07:19:51.153Z</time>
      </trkpt>
      <trkpt lat="46.84622" lon="8.46235">
        <ele>2283</ele>
        <time>2021-08-13T07:19:52.154Z</time>
      </trkpt>
      <trkpt lat="46.84621" lon="8.46234">
        <ele>2283</ele>
        <time>2021-08-13T07:19:53.153Z</time>
      </trkpt>
      <trkpt lat="46.84622" lon="8.46233">
        <ele>2283</ele>
        <time>2021-08-13T07:19:54.153Z</time>
      </trkpt>
      <trkpt lat="46.84622" lon="8.46232">
        <ele>2283</ele>
        <time>2021-08-13T07:19:55.153Z</time>
      </trkpt>
      <trkpt lat="46.84622" lon="8.46232">
        <ele>2283</ele>
        <time>2021-08-13T07:19:56.154Z</time>
      </trkpt>
      <trkpt lat="46.84622" lon="8.46231">
        <ele>2283</ele>
        <time>2021-08-13T07:19:57.153Z</time>
      </trkpt>
      <trkpt lat="46.84622" lon="8.4623">
        <ele>2283</ele>
        <time>2021-08-13T07:19:58.154Z</time>
      </trkpt>
      <trkpt lat="46.84623" lon="8.46229">
        <ele>2283</ele>
        <time>2021-08-13T07:19:59.154Z</time>
      </trkpt>
      <trkpt lat="46.84623" lon="8.46228">
        <ele>2283</ele>
        <time>2021-08-13T07:20:00.153Z</time>
      </trkpt>
      <trkpt lat="46.84623" lon="8.46227">
        <ele>2283</ele>
        <time>2021-08-13T07:20:01.154Z</time>
      </trkpt>
      <trkpt lat="46.84623" lon="8.46226">
        <ele>2283</ele>
        <time>2021-08-13T07:20:02.153Z</time>
      </trkpt>
      <trkpt lat="46.84623" lon="8.46225">
        <ele>2283</ele>
        <time>2021-08-13T07:20:03.154Z</time>
      </trkpt>
      <trkpt lat="46.84624" lon="8.46224">
        <ele>2282</ele>
        <time>2021-08-13T07:20:04.154Z</time>
      </trkpt>
      <trkpt lat="46.84624" lon="8.46224">
        <ele>2282</ele>
        <time>2021-08-13T07:20:05.154Z</time>
      </trkpt>
      <trkpt lat="46.84624" lon="8.46223">
        <ele>2282</ele>
        <time>2021-08-13T07:20:06.154Z</time>
      </trkpt>
      <trkpt lat="46.84624" lon="8.46222">
        <ele>2282</ele>
        <time>2021-08-13T07:20:07.154Z</time>
      </trkpt>
      <trkpt lat="46.84624" lon="8.46222">
        <ele>2282</ele>
        <time>2021-08-13T07:20:08.154Z</time>
      </trkpt>
      <trkpt lat="46.84624" lon="8.46221">
        <ele>2282</ele>
        <time>2021-08-13T07:20:09.154Z</time>
      </trkpt>
      <trkpt lat="46.84624" lon="8.4622">
        <ele>2281</ele>
        <time>2021-08-13T07:20:10.154Z</time>
      </trkpt>
      <trkpt lat="46.84624" lon="8.46219">
        <ele>2281</ele>
        <time>2021-08-13T07:20:11.154Z</time>
      </trkpt>
      <trkpt lat="46.84625" lon="8.46218">
        <ele>2280</ele>
        <time>2021-08-13T07:20:12.154Z</time>
      </trkpt>
      <trkpt lat="46.84625" lon="8.46217">
        <ele>2280</ele>
        <time>2021-08-13T07:20:13.154Z</time>
      </trkpt>
      <trkpt lat="46.84626" lon="8.46216">
        <ele>2279</ele>
        <time>2021-08-13T07:20:14.154Z</time>
      </trkpt>
      <trkpt lat="46.84626" lon="8.46215">
        <ele>2278</ele>
        <time>2021-08-13T07:20:15.153Z</time>
      </trkpt>
      <trkpt lat="46.84627" lon="8.46214">
        <ele>2278</ele>
        <time>2021-08-13T07:20:16.153Z</time>
      </trkpt>
      <trkpt lat="46.84627" lon="8.46212">
        <ele>2277</ele>
        <time>2021-08-13T07:20:17.154Z</time>
      </trkpt>
      <trkpt lat="46.84628" lon="8.46211">
        <ele>2277</ele>
        <time>2021-08-13T07:20:18.153Z</time>
      </trkpt>
      <trkpt lat="46.84628" lon="8.4621">
        <ele>2276</ele>
        <time>2021-08-13T07:20:19.154Z</time>
      </trkpt>
      <trkpt lat="46.84629" lon="8.46209">
        <ele>2276</ele>
        <time>2021-08-13T07:20:20.154Z</time>
      </trkpt>
      <trkpt lat="46.84629" lon="8.46208">
        <ele>2275</ele>
        <time>2021-08-13T07:20:21.153Z</time>
      </trkpt>
      <trkpt lat="46.8463" lon="8.46207">
        <ele>2275</ele>
        <time>2021-08-13T07:20:22.154Z</time>
      </trkpt>
      <trkpt lat="46.8463" lon="8.46206">
        <ele>2275</ele>
        <time>2021-08-13T07:20:23.154Z</time>
      </trkpt>
      <trkpt lat="46.84631" lon="8.46205">
        <ele>2275</ele>
        <time>2021-08-13T07:20:24.153Z</time>
      </trkpt>
      <trkpt lat="46.84631" lon="8.46204">
        <ele>2274</ele>
        <time>2021-08-13T07:20:25.154Z</time>
      </trkpt>
      <trkpt lat="46.84632" lon="8.46203">
        <ele>2274</ele>
        <time>2021-08-13T07:20:26.153Z</time>
      </trkpt>
      <trkpt lat="46.84633" lon="8.46203">
        <ele>2274</ele>
        <time>2021-08-13T07:20:27.154Z</time>
      </trkpt>
      <trkpt lat="46.84633" lon="8.46202">
        <ele>2273</ele>
        <time>2021-08-13T07:20:28.153Z</time>
      </trkpt>
      <trkpt lat="46.84633" lon="8.46201">
        <ele>2273</ele>
        <time>2021-08-13T07:20:29.154Z</time>
      </trkpt>
      <trkpt lat="46.84634" lon="8.462">
        <ele>2273</ele>
        <time>2021-08-13T07:20:30.154Z</time>
      </trkpt>
      <trkpt lat="46.84634" lon="8.46199">
        <ele>2273</ele>
        <time>2021-08-13T07:20:31.154Z</time>
      </trkpt>
      <trkpt lat="46.84634" lon="8.46199">
        <ele>2273</ele>
        <time>2021-08-13T07:20:32.153Z</time>
      </trkpt>
      <trkpt lat="46.84634" lon="8.46198">
        <ele>2273</ele>
        <time>2021-08-13T07:20:33.154Z</time>
      </trkpt>
      <trkpt lat="46.84635" lon="8.46197">
        <ele>2272</ele>
        <time>2021-08-13T07:20:34.153Z</time>
      </trkpt>
      <trkpt lat="46.84635" lon="8.46196">
        <ele>2272</ele>
        <time>2021-08-13T07:20:35.153Z</time>
      </trkpt>
      <trkpt lat="46.84636" lon="8.46195">
        <ele>2272</ele>
        <time>2021-08-13T07:20:36.153Z</time>
      </trkpt>
      <trkpt lat="46.84636" lon="8.46194">
        <ele>2272</ele>
        <time>2021-08-13T07:20:37.154Z</time>
      </trkpt>
      <trkpt lat="46.84636" lon="8.46193">
        <ele>2272</ele>
        <time>2021-08-13T07:20:38.154Z</time>
      </trkpt>
      <trkpt lat="46.84637" lon="8.46192">
        <ele>2272</ele>
        <time>2021-08-13T07:20:39.153Z</time>
      </trkpt>
      <trkpt lat="46.84637" lon="8.46191">
        <ele>2272</ele>
        <time>2021-08-13T07:20:40.154Z</time>
      </trkpt>
      <trkpt lat="46.84638" lon="8.4619">
        <ele>2272</ele>
        <time>2021-08-13T07:20:41.154Z</time>
      </trkpt>
      <trkpt lat="46.84638" lon="8.46189">
        <ele>2272</ele>
        <time>2021-08-13T07:20:42.154Z</time>
      </trkpt>
      <trkpt lat="46.84639" lon="8.46188">
        <ele>2272</ele>
        <time>2021-08-13T07:20:43.154Z</time>
      </trkpt>
      <trkpt lat="46.84639" lon="8.46187">
        <ele>2272</ele>
        <time>2021-08-13T07:20:44.153Z</time>
      </trkpt>
      <trkpt lat="46.84639" lon="8.46187">
        <ele>2273</ele>
        <time>2021-08-13T07:20:45.154Z</time>
      </trkpt>
      <trkpt lat="46.84639" lon="8.46186">
        <ele>2273</ele>
        <time>2021-08-13T07:20:46.154Z</time>
      </trkpt>
      <trkpt lat="46.84638" lon="8.46187">
        <ele>2275</ele>
        <time>2021-08-13T07:20:47.156Z</time>
      </trkpt>
      <trkpt lat="46.84638" lon="8.46187">
        <ele>2275</ele>
        <time>2021-08-13T07:20:48.155Z</time>
      </trkpt>
      <trkpt lat="46.84637" lon="8.46188">
        <ele>2275</ele>
        <time>2021-08-13T07:20:49.155Z</time>
      </trkpt>
      <trkpt lat="46.84636" lon="8.46188">
        <ele>2275</ele>
        <time>2021-08-13T07:20:50.156Z</time>
      </trkpt>
      <trkpt lat="46.84635" lon="8.4619">
        <ele>2275</ele>
        <time>2021-08-13T07:20:51.155Z</time>
      </trkpt>
      <trkpt lat="46.84634" lon="8.4619">
        <ele>2275</ele>
        <time>2021-08-13T07:20:52.155Z</time>
      </trkpt>
      <trkpt lat="46.84633" lon="8.4619">
        <ele>2275</ele>
        <time>2021-08-13T07:20:53.155Z</time>
      </trkpt>
      <trkpt lat="46.84632" lon="8.4619">
        <ele>2275</ele>
        <time>2021-08-13T07:20:54.156Z</time>
      </trkpt>
      <trkpt lat="46.84631" lon="8.4619">
        <ele>2275</ele>
        <time>2021-08-13T07:20:55.155Z</time>
      </trkpt>
      <trkpt lat="46.8463" lon="8.4619">
        <ele>2274</ele>
        <time>2021-08-13T07:20:56.155Z</time>
      </trkpt>
      <trkpt lat="46.84629" lon="8.46189">
        <ele>2274</ele>
        <time>2021-08-13T07:20:57.156Z</time>
      </trkpt>
      <trkpt lat="46.84628" lon="8.46189">
        <ele>2274</ele>
        <time>2021-08-13T07:20:58.155Z</time>
      </trkpt>
      <trkpt lat="46.84628" lon="8.46189">
        <ele>2274</ele>
        <time>2021-08-13T07:20:59.155Z</time>
      </trkpt>
      <trkpt lat="46.84627" lon="8.46188">
        <ele>2274</ele>
        <time>2021-08-13T07:21:00.156Z</time>
      </trkpt>
      <trkpt lat="46.84627" lon="8.46188">
        <ele>2274</ele>
        <time>2021-08-13T07:21:01.156Z</time>
      </trkpt>
      <trkpt lat="46.84627" lon="8.46187">
        <ele>2274</ele>
        <time>2021-08-13T07:21:02.156Z</time>
      </trkpt>
      <trkpt lat="46.84627" lon="8.46186">
        <ele>2274</ele>
        <time>2021-08-13T07:21:03.156Z</time>
      </trkpt>
      <trkpt lat="46.84627" lon="8.46185">
        <ele>2274</ele>
        <time>2021-08-13T07:21:04.156Z</time>
      </trkpt>
      <trkpt lat="46.84627" lon="8.46184">
        <ele>2274</ele>
        <time>2021-08-13T07:21:05.156Z</time>
      </trkpt>
      <trkpt lat="46.84628" lon="8.46183">
        <ele>2274</ele>
        <time>2021-08-13T07:21:06.156Z</time>
      </trkpt>
      <trkpt lat="46.84628" lon="8.46182">
        <ele>2274</ele>
        <time>2021-08-13T07:21:07.156Z</time>
      </trkpt>
      <trkpt lat="46.84628" lon="8.4618">
        <ele>2274</ele>
        <time>2021-08-13T07:21:08.155Z</time>
      </trkpt>
      <trkpt lat="46.84629" lon="8.46179">
        <ele>2274</ele>
        <time>2021-08-13T07:21:09.156Z</time>
      </trkpt>
      <trkpt lat="46.84629" lon="8.46178">
        <ele>2273</ele>
        <time>2021-08-13T07:21:10.155Z</time>
      </trkpt>
      <trkpt lat="46.84629" lon="8.46177">
        <ele>2273</ele>
        <time>2021-08-13T07:21:11.156Z</time>
      </trkpt>
      <trkpt lat="46.8463" lon="8.46176">
        <ele>2273</ele>
        <time>2021-08-13T07:21:12.155Z</time>
      </trkpt>
      <trkpt lat="46.8463" lon="8.46175">
        <ele>2273</ele>
        <time>2021-08-13T07:21:13.156Z</time>
      </trkpt>
      <trkpt lat="46.84631" lon="8.46174">
        <ele>2273</ele>
        <time>2021-08-13T07:21:14.156Z</time>
      </trkpt>
      <trkpt lat="46.84631" lon="8.46173">
        <ele>2273</ele>
        <time>2021-08-13T07:21:15.156Z</time>
      </trkpt>
      <trkpt lat="46.84632" lon="8.46171">
        <ele>2273</ele>
        <time>2021-08-13T07:21:16.155Z</time>
      </trkpt>
      <trkpt lat="46.84632" lon="8.46171">
        <ele>2273</ele>
        <time>2021-08-13T07:21:17.156Z</time>
      </trkpt>
      <trkpt lat="46.84632" lon="8.4617">
        <ele>2272</ele>
        <time>2021-08-13T07:21:18.155Z</time>
      </trkpt>
      <trkpt lat="46.84632" lon="8.46169">
        <ele>2272</ele>
        <time>2021-08-13T07:21:19.155Z</time>
      </trkpt>
      <trkpt lat="46.84633" lon="8.46168">
        <ele>2272</ele>
        <time>2021-08-13T07:21:20.156Z</time>
      </trkpt>
      <trkpt lat="46.84633" lon="8.46167">
        <ele>2272</ele>
        <time>2021-08-13T07:21:21.156Z</time>
      </trkpt>
      <trkpt lat="46.84634" lon="8.46166">
        <ele>2271</ele>
        <time>2021-08-13T07:21:22.156Z</time>
      </trkpt>
      <trkpt lat="46.84634" lon="8.46165">
        <ele>2271</ele>
        <time>2021-08-13T07:21:23.156Z</time>
      </trkpt>
      <trkpt lat="46.84635" lon="8.46164">
        <ele>2271</ele>
        <time>2021-08-13T07:21:24.155Z</time>
      </trkpt>
      <trkpt lat="46.84635" lon="8.46163">
        <ele>2271</ele>
        <time>2021-08-13T07:21:25.156Z</time>
      </trkpt>
      <trkpt lat="46.84636" lon="8.46162">
        <ele>2271</ele>
        <time>2021-08-13T07:21:26.155Z</time>
      </trkpt>
      <trkpt lat="46.84637" lon="8.46162">
        <ele>2271</ele>
        <time>2021-08-13T07:21:27.155Z</time>
      </trkpt>
      <trkpt lat="46.84638" lon="8.46162">
        <ele>2271</ele>
        <time>2021-08-13T07:21:28.155Z</time>
      </trkpt>
      <trkpt lat="46.84639" lon="8.46162">
        <ele>2271</ele>
        <time>2021-08-13T07:21:29.155Z</time>
      </trkpt>
      <trkpt lat="46.8464" lon="8.46162">
        <ele>2270</ele>
        <time>2021-08-13T07:21:30.156Z</time>
      </trkpt>
      <trkpt lat="46.8464" lon="8.46161">
        <ele>2270</ele>
        <time>2021-08-13T07:21:31.156Z</time>
      </trkpt>
      <trkpt lat="46.8464" lon="8.46161">
        <ele>2270</ele>
        <time>2021-08-13T07:21:32.155Z</time>
      </trkpt>
      <trkpt lat="46.84641" lon="8.46161">
        <ele>2270</ele>
        <time>2021-08-13T07:21:33.156Z</time>
      </trkpt>
      <trkpt lat="46.84641" lon="8.46161">
        <ele>2270</ele>
        <time>2021-08-13T07:21:34.156Z</time>
      </trkpt>
      <trkpt lat="46.84642" lon="8.46161">
        <ele>2270</ele>
        <time>2021-08-13T07:21:35.156Z</time>
      </trkpt>
      <trkpt lat="46.84642" lon="8.4616">
        <ele>2270</ele>
        <time>2021-08-13T07:21:36.156Z</time>
      </trkpt>
      <trkpt lat="46.84643" lon="8.4616">
        <ele>2270</ele>
        <time>2021-08-13T07:21:37.155Z</time>
      </trkpt>
      <trkpt lat="46.84644" lon="8.46159">
        <ele>2270</ele>
        <time>2021-08-13T07:21:38.155Z</time>
      </trkpt>
      <trkpt lat="46.84645" lon="8.4616">
        <ele>2270</ele>
        <time>2021-08-13T07:21:39.155Z</time>
      </trkpt>
      <trkpt lat="46.84645" lon="8.4616">
        <ele>2270</ele>
        <time>2021-08-13T07:21:40.155Z</time>
      </trkpt>
      <trkpt lat="46.84646" lon="8.46159">
        <ele>2269</ele>
        <time>2021-08-13T07:21:41.155Z</time>
      </trkpt>
      <trkpt lat="46.84647" lon="8.46158">
        <ele>2269</ele>
        <time>2021-08-13T07:21:42.155Z</time>
      </trkpt>
      <trkpt lat="46.84648" lon="8.46158">
        <ele>2269</ele>
        <time>2021-08-13T07:21:43.155Z</time>
      </trkpt>
      <trkpt lat="46.84649" lon="8.46157">
        <ele>2268</ele>
        <time>2021-08-13T07:21:44.156Z</time>
      </trkpt>
      <trkpt lat="46.8465" lon="8.46157">
        <ele>2268</ele>
        <time>2021-08-13T07:21:45.155Z</time>
      </trkpt>
      <trkpt lat="46.84651" lon="8.46156">
        <ele>2267</ele>
        <time>2021-08-13T07:21:46.155Z</time>
      </trkpt>
      <trkpt lat="46.84651" lon="8.46156">
        <ele>2267</ele>
        <time>2021-08-13T07:21:47.155Z</time>
      </trkpt>
      <trkpt lat="46.84652" lon="8.46155">
        <ele>2266</ele>
        <time>2021-08-13T07:21:48.155Z</time>
      </trkpt>
      <trkpt lat="46.84652" lon="8.46155">
        <ele>2265</ele>
        <time>2021-08-13T07:21:49.155Z</time>
      </trkpt>
      <trkpt lat="46.84653" lon="8.46155">
        <ele>2265</ele>
        <time>2021-08-13T07:21:50.155Z</time>
      </trkpt>
      <trkpt lat="46.84654" lon="8.46154">
        <ele>2264</ele>
        <time>2021-08-13T07:21:51.155Z</time>
      </trkpt>
      <trkpt lat="46.84654" lon="8.46154">
        <ele>2263</ele>
        <time>2021-08-13T07:21:52.155Z</time>
      </trkpt>
      <trkpt lat="46.84655" lon="8.46153">
        <ele>2263</ele>
        <time>2021-08-13T07:21:53.155Z</time>
      </trkpt>
      <trkpt lat="46.84655" lon="8.46153">
        <ele>2262</ele>
        <time>2021-08-13T07:21:54.155Z</time>
      </trkpt>
      <trkpt lat="46.84656" lon="8.46152">
        <ele>2262</ele>
        <time>2021-08-13T07:21:55.155Z</time>
      </trkpt>
      <trkpt lat="46.84656" lon="8.46151">
        <ele>2262</ele>
        <time>2021-08-13T07:21:56.155Z</time>
      </trkpt>
      <trkpt lat="46.84656" lon="8.46151">
        <ele>2261</ele>
        <time>2021-08-13T07:21:57.155Z</time>
      </trkpt>
      <trkpt lat="46.84656" lon="8.4615">
        <ele>2261</ele>
        <time>2021-08-13T07:21:58.155Z</time>
      </trkpt>
      <trkpt lat="46.84657" lon="8.4615">
        <ele>2261</ele>
        <time>2021-08-13T07:21:59.155Z</time>
      </trkpt>
      <trkpt lat="46.84657" lon="8.46151">
        <ele>2260</ele>
        <time>2021-08-13T07:22:00.155Z</time>
      </trkpt>
      <trkpt lat="46.84656" lon="8.46151">
        <ele>2260</ele>
        <time>2021-08-13T07:22:01.155Z</time>
      </trkpt>
      <trkpt lat="46.84656" lon="8.46151">
        <ele>2259</ele>
        <time>2021-08-13T07:22:02.155Z</time>
      </trkpt>
      <trkpt lat="46.84656" lon="8.46151">
        <ele>2259</ele>
        <time>2021-08-13T07:22:03.155Z</time>
      </trkpt>
      <trkpt lat="46.84658" lon="8.4615">
        <ele>2257</ele>
        <time>2021-08-13T07:22:04.155Z</time>
      </trkpt>
      <trkpt lat="46.84658" lon="8.4615">
        <ele>2257</ele>
        <time>2021-08-13T07:22:05.156Z</time>
      </trkpt>
      <trkpt lat="46.84659" lon="8.4615">
        <ele>2257</ele>
        <time>2021-08-13T07:22:06.155Z</time>
      </trkpt>
      <trkpt lat="46.84659" lon="8.46149">
        <ele>2256</ele>
        <time>2021-08-13T07:22:07.155Z</time>
      </trkpt>
      <trkpt lat="46.8466" lon="8.46149">
        <ele>2256</ele>
        <time>2021-08-13T07:22:08.156Z</time>
      </trkpt>
      <trkpt lat="46.8466" lon="8.46148">
        <ele>2256</ele>
        <time>2021-08-13T07:22:09.156Z</time>
      </trkpt>
      <trkpt lat="46.84661" lon="8.46147">
        <ele>2255</ele>
        <time>2021-08-13T07:22:10.155Z</time>
      </trkpt>
      <trkpt lat="46.84661" lon="8.46146">
        <ele>2255</ele>
        <time>2021-08-13T07:22:11.156Z</time>
      </trkpt>
      <trkpt lat="46.84662" lon="8.46144">
        <ele>2254</ele>
        <time>2021-08-13T07:22:12.155Z</time>
      </trkpt>
      <trkpt lat="46.84662" lon="8.46143">
        <ele>2254</ele>
        <time>2021-08-13T07:22:13.156Z</time>
      </trkpt>
      <trkpt lat="46.84662" lon="8.46143">
        <ele>2253</ele>
        <time>2021-08-13T07:22:14.156Z</time>
      </trkpt>
      <trkpt lat="46.84662" lon="8.46142">
        <ele>2253</ele>
        <time>2021-08-13T07:22:15.155Z</time>
      </trkpt>
      <trkpt lat="46.84663" lon="8.46141">
        <ele>2253</ele>
        <time>2021-08-13T07:22:16.156Z</time>
      </trkpt>
      <trkpt lat="46.84663" lon="8.4614">
        <ele>2253</ele>
        <time>2021-08-13T07:22:17.156Z</time>
      </trkpt>
      <trkpt lat="46.84664" lon="8.46139">
        <ele>2252</ele>
        <time>2021-08-13T07:22:18.156Z</time>
      </trkpt>
      <trkpt lat="46.84664" lon="8.46138">
        <ele>2252</ele>
        <time>2021-08-13T07:22:19.156Z</time>
      </trkpt>
      <trkpt lat="46.84665" lon="8.46137">
        <ele>2252</ele>
        <time>2021-08-13T07:22:20.156Z</time>
      </trkpt>
      <trkpt lat="46.84665" lon="8.46136">
        <ele>2251</ele>
        <time>2021-08-13T07:22:21.155Z</time>
      </trkpt>
      <trkpt lat="46.84666" lon="8.46134">
        <ele>2251</ele>
        <time>2021-08-13T07:22:22.155Z</time>
      </trkpt>
      <trkpt lat="46.84666" lon="8.46133">
        <ele>2251</ele>
        <time>2021-08-13T07:22:23.156Z</time>
      </trkpt>
      <trkpt lat="46.84667" lon="8.46132">
        <ele>2251</ele>
        <time>2021-08-13T07:22:24.156Z</time>
      </trkpt>
      <trkpt lat="46.84668" lon="8.4613">
        <ele>2251</ele>
        <time>2021-08-13T07:22:25.156Z</time>
      </trkpt>
      <trkpt lat="46.84668" lon="8.46129">
        <ele>2251</ele>
        <time>2021-08-13T07:22:26.156Z</time>
      </trkpt>
      <trkpt lat="46.84669" lon="8.46127">
        <ele>2251</ele>
        <time>2021-08-13T07:22:27.156Z</time>
      </trkpt>
      <trkpt lat="46.8467" lon="8.46125">
        <ele>2251</ele>
        <time>2021-08-13T07:22:28.156Z</time>
      </trkpt>
      <trkpt lat="46.84671" lon="8.46123">
        <ele>2251</ele>
        <time>2021-08-13T07:22:29.156Z</time>
      </trkpt>
      <trkpt lat="46.84672" lon="8.46122">
        <ele>2252</ele>
        <time>2021-08-13T07:22:30.155Z</time>
      </trkpt>
      <trkpt lat="46.84672" lon="8.46121">
        <ele>2252</ele>
        <time>2021-08-13T07:22:31.156Z</time>
      </trkpt>
      <trkpt lat="46.84673" lon="8.4612">
        <ele>2251</ele>
        <time>2021-08-13T07:22:32.156Z</time>
      </trkpt>
      <trkpt lat="46.84674" lon="8.46118">
        <ele>2251</ele>
        <time>2021-08-13T07:22:33.156Z</time>
      </trkpt>
      <trkpt lat="46.84674" lon="8.46118">
        <ele>2251</ele>
        <time>2021-08-13T07:22:34.156Z</time>
      </trkpt>
      <trkpt lat="46.84675" lon="8.46116">
        <ele>2251</ele>
        <time>2021-08-13T07:22:35.155Z</time>
      </trkpt>
      <trkpt lat="46.84676" lon="8.46115">
        <ele>2250</ele>
        <time>2021-08-13T07:22:36.156Z</time>
      </trkpt>
      <trkpt lat="46.84676" lon="8.46113">
        <ele>2250</ele>
        <time>2021-08-13T07:22:37.156Z</time>
      </trkpt>
      <trkpt lat="46.84677" lon="8.46112">
        <ele>2249</ele>
        <time>2021-08-13T07:22:38.156Z</time>
      </trkpt>
      <trkpt lat="46.84676" lon="8.4611">
        <ele>2249</ele>
        <time>2021-08-13T07:22:39.156Z</time>
      </trkpt>
      <trkpt lat="46.84676" lon="8.46109">
        <ele>2248</ele>
        <time>2021-08-13T07:22:40.155Z</time>
      </trkpt>
      <trkpt lat="46.84676" lon="8.46108">
        <ele>2248</ele>
        <time>2021-08-13T07:22:41.155Z</time>
      </trkpt>
      <trkpt lat="46.84676" lon="8.46107">
        <ele>2248</ele>
        <time>2021-08-13T07:22:42.155Z</time>
      </trkpt>
      <trkpt lat="46.84677" lon="8.46106">
        <ele>2248</ele>
        <time>2021-08-13T07:22:43.155Z</time>
      </trkpt>
      <trkpt lat="46.84677" lon="8.46105">
        <ele>2247</ele>
        <time>2021-08-13T07:22:44.155Z</time>
      </trkpt>
      <trkpt lat="46.84677" lon="8.46104">
        <ele>2247</ele>
        <time>2021-08-13T07:22:45.155Z</time>
      </trkpt>
      <trkpt lat="46.84678" lon="8.46102">
        <ele>2247</ele>
        <time>2021-08-13T07:22:46.155Z</time>
      </trkpt>
      <trkpt lat="46.84677" lon="8.46101">
        <ele>2247</ele>
        <time>2021-08-13T07:22:47.155Z</time>
      </trkpt>
      <trkpt lat="46.84677" lon="8.461">
        <ele>2247</ele>
        <time>2021-08-13T07:22:48.155Z</time>
      </trkpt>
      <trkpt lat="46.84677" lon="8.46099">
        <ele>2248</ele>
        <time>2021-08-13T07:22:49.155Z</time>
      </trkpt>
      <trkpt lat="46.84678" lon="8.46097">
        <ele>2248</ele>
        <time>2021-08-13T07:22:50.155Z</time>
      </trkpt>
      <trkpt lat="46.84678" lon="8.46096">
        <ele>2248</ele>
        <time>2021-08-13T07:22:51.155Z</time>
      </trkpt>
      <trkpt lat="46.84679" lon="8.46095">
        <ele>2248</ele>
        <time>2021-08-13T07:22:52.155Z</time>
      </trkpt>
      <trkpt lat="46.84679" lon="8.46094">
        <ele>2248</ele>
        <time>2021-08-13T07:22:53.155Z</time>
      </trkpt>
      <trkpt lat="46.84679" lon="8.46092">
        <ele>2248</ele>
        <time>2021-08-13T07:22:54.155Z</time>
      </trkpt>
      <trkpt lat="46.84679" lon="8.46091">
        <ele>2248</ele>
        <time>2021-08-13T07:22:55.156Z</time>
      </trkpt>
      <trkpt lat="46.8468" lon="8.46089">
        <ele>2247</ele>
        <time>2021-08-13T07:22:56.155Z</time>
      </trkpt>
      <trkpt lat="46.8468" lon="8.46088">
        <ele>2247</ele>
        <time>2021-08-13T07:22:57.155Z</time>
      </trkpt>
      <trkpt lat="46.8468" lon="8.46087">
        <ele>2247</ele>
        <time>2021-08-13T07:22:58.156Z</time>
      </trkpt>
      <trkpt lat="46.8468" lon="8.46087">
        <ele>2247</ele>
        <time>2021-08-13T07:22:59.155Z</time>
      </trkpt>
      <trkpt lat="46.8468" lon="8.46085">
        <ele>2248</ele>
        <time>2021-08-13T07:23:00.156Z</time>
      </trkpt>
      <trkpt lat="46.8468" lon="8.46084">
        <ele>2248</ele>
        <time>2021-08-13T07:23:01.155Z</time>
      </trkpt>
      <trkpt lat="46.8468" lon="8.46083">
        <ele>2248</ele>
        <time>2021-08-13T07:23:02.156Z</time>
      </trkpt>
      <trkpt lat="46.8468" lon="8.46083">
        <ele>2249</ele>
        <time>2021-08-13T07:23:03.155Z</time>
      </trkpt>
      <trkpt lat="46.8468" lon="8.46083">
        <ele>2249</ele>
        <time>2021-08-13T07:23:04.155Z</time>
      </trkpt>
      <trkpt lat="46.8468" lon="8.46083">
        <ele>2242</ele>
        <time>2021-08-13T07:23:05.157Z</time>
      </trkpt>
      <trkpt lat="46.8468" lon="8.4608">
        <ele>2244</ele>
        <time>2021-08-13T07:23:06.158Z</time>
      </trkpt>
      <trkpt lat="46.8468" lon="8.46078">
        <ele>2243</ele>
        <time>2021-08-13T07:23:07.157Z</time>
      </trkpt>
      <trkpt lat="46.8468" lon="8.46077">
        <ele>2244</ele>
        <time>2021-08-13T07:23:08.158Z</time>
      </trkpt>
      <trkpt lat="46.8468" lon="8.46075">
        <ele>2244</ele>
        <time>2021-08-13T07:23:09.158Z</time>
      </trkpt>
      <trkpt lat="46.8468" lon="8.46074">
        <ele>2244</ele>
        <time>2021-08-13T07:23:10.158Z</time>
      </trkpt>
      <trkpt lat="46.8468" lon="8.46073">
        <ele>2244</ele>
        <time>2021-08-13T07:23:11.158Z</time>
      </trkpt>
      <trkpt lat="46.8468" lon="8.46071">
        <ele>2244</ele>
        <time>2021-08-13T07:23:12.158Z</time>
      </trkpt>
      <trkpt lat="46.84679" lon="8.4607">
        <ele>2244</ele>
        <time>2021-08-13T07:23:13.158Z</time>
      </trkpt>
      <trkpt lat="46.84679" lon="8.46069">
        <ele>2244</ele>
        <time>2021-08-13T07:23:14.157Z</time>
      </trkpt>
      <trkpt lat="46.8468" lon="8.46068">
        <ele>2244</ele>
        <time>2021-08-13T07:23:15.158Z</time>
      </trkpt>
      <trkpt lat="46.8468" lon="8.46066">
        <ele>2243</ele>
        <time>2021-08-13T07:23:16.158Z</time>
      </trkpt>
      <trkpt lat="46.8468" lon="8.46065">
        <ele>2243</ele>
        <time>2021-08-13T07:23:17.158Z</time>
      </trkpt>
      <trkpt lat="46.84681" lon="8.46063">
        <ele>2243</ele>
        <time>2021-08-13T07:23:18.158Z</time>
      </trkpt>
      <trkpt lat="46.84681" lon="8.46062">
        <ele>2243</ele>
        <time>2021-08-13T07:23:19.158Z</time>
      </trkpt>
      <trkpt lat="46.84681" lon="8.46061">
        <ele>2243</ele>
        <time>2021-08-13T07:23:20.158Z</time>
      </trkpt>
      <trkpt lat="46.84681" lon="8.4606">
        <ele>2242</ele>
        <time>2021-08-13T07:23:21.158Z</time>
      </trkpt>
      <trkpt lat="46.84681" lon="8.46058">
        <ele>2242</ele>
        <time>2021-08-13T07:23:22.157Z</time>
      </trkpt>
      <trkpt lat="46.84681" lon="8.46057">
        <ele>2242</ele>
        <time>2021-08-13T07:23:23.158Z</time>
      </trkpt>
      <trkpt lat="46.84681" lon="8.46055">
        <ele>2241</ele>
        <time>2021-08-13T07:23:24.158Z</time>
      </trkpt>
      <trkpt lat="46.84682" lon="8.46054">
        <ele>2242</ele>
        <time>2021-08-13T07:23:25.158Z</time>
      </trkpt>
      <trkpt lat="46.84682" lon="8.46052">
        <ele>2242</ele>
        <time>2021-08-13T07:23:26.158Z</time>
      </trkpt>
      <trkpt lat="46.84682" lon="8.46051">
        <ele>2242</ele>
        <time>2021-08-13T07:23:27.157Z</time>
      </trkpt>
      <trkpt lat="46.84683" lon="8.46049">
        <ele>2243</ele>
        <time>2021-08-13T07:23:28.158Z</time>
      </trkpt>
      <trkpt lat="46.84683" lon="8.46048">
        <ele>2243</ele>
        <time>2021-08-13T07:23:29.157Z</time>
      </trkpt>
      <trkpt lat="46.84684" lon="8.46047">
        <ele>2243</ele>
        <time>2021-08-13T07:23:30.158Z</time>
      </trkpt>
      <trkpt lat="46.84683" lon="8.46045">
        <ele>2243</ele>
        <time>2021-08-13T07:23:31.157Z</time>
      </trkpt>
      <trkpt lat="46.84683" lon="8.46043">
        <ele>2242</ele>
        <time>2021-08-13T07:23:32.157Z</time>
      </trkpt>
      <trkpt lat="46.84684" lon="8.46042">
        <ele>2242</ele>
        <time>2021-08-13T07:23:33.157Z</time>
      </trkpt>
      <trkpt lat="46.84684" lon="8.4604">
        <ele>2241</ele>
        <time>2021-08-13T07:23:34.157Z</time>
      </trkpt>
      <trkpt lat="46.84685" lon="8.46039">
        <ele>2241</ele>
        <time>2021-08-13T07:23:35.157Z</time>
      </trkpt>
      <trkpt lat="46.84685" lon="8.46037">
        <ele>2240</ele>
        <time>2021-08-13T07:23:36.158Z</time>
      </trkpt>
      <trkpt lat="46.84685" lon="8.46035">
        <ele>2239</ele>
        <time>2021-08-13T07:23:37.158Z</time>
      </trkpt>
      <trkpt lat="46.84685" lon="8.46033">
        <ele>2238</ele>
        <time>2021-08-13T07:23:38.157Z</time>
      </trkpt>
      <trkpt lat="46.84685" lon="8.46032">
        <ele>2238</ele>
        <time>2021-08-13T07:23:39.157Z</time>
      </trkpt>
      <trkpt lat="46.84685" lon="8.46031">
        <ele>2237</ele>
        <time>2021-08-13T07:23:40.157Z</time>
      </trkpt>
      <trkpt lat="46.84685" lon="8.46031">
        <ele>2237</ele>
        <time>2021-08-13T07:23:41.157Z</time>
      </trkpt>
      <trkpt lat="46.84685" lon="8.4603">
        <ele>2236</ele>
        <time>2021-08-13T07:23:42.157Z</time>
      </trkpt>
      <trkpt lat="46.84686" lon="8.46029">
        <ele>2236</ele>
        <time>2021-08-13T07:23:43.158Z</time>
      </trkpt>
      <trkpt lat="46.84686" lon="8.46029">
        <ele>2235</ele>
        <time>2021-08-13T07:23:44.157Z</time>
      </trkpt>
      <trkpt lat="46.84686" lon="8.46028">
        <ele>2235</ele>
        <time>2021-08-13T07:23:45.158Z</time>
      </trkpt>
      <trkpt lat="46.84687" lon="8.46027">
        <ele>2235</ele>
        <time>2021-08-13T07:23:46.157Z</time>
      </trkpt>
      <trkpt lat="46.84687" lon="8.46025">
        <ele>2235</ele>
        <time>2021-08-13T07:23:47.158Z</time>
      </trkpt>
      <trkpt lat="46.84687" lon="8.46024">
        <ele>2235</ele>
        <time>2021-08-13T07:23:48.157Z</time>
      </trkpt>
      <trkpt lat="46.84687" lon="8.46023">
        <ele>2235</ele>
        <time>2021-08-13T07:23:49.158Z</time>
      </trkpt>
      <trkpt lat="46.84687" lon="8.46021">
        <ele>2235</ele>
        <time>2021-08-13T07:23:50.157Z</time>
      </trkpt>
      <trkpt lat="46.84687" lon="8.46019">
        <ele>2235</ele>
        <time>2021-08-13T07:23:51.157Z</time>
      </trkpt>
      <trkpt lat="46.84687" lon="8.46018">
        <ele>2235</ele>
        <time>2021-08-13T07:23:52.158Z</time>
      </trkpt>
      <trkpt lat="46.84688" lon="8.46017">
        <ele>2235</ele>
        <time>2021-08-13T07:23:53.157Z</time>
      </trkpt>
      <trkpt lat="46.84688" lon="8.46016">
        <ele>2236</ele>
        <time>2021-08-13T07:23:54.157Z</time>
      </trkpt>
      <trkpt lat="46.84689" lon="8.46015">
        <ele>2236</ele>
        <time>2021-08-13T07:23:55.157Z</time>
      </trkpt>
      <trkpt lat="46.84689" lon="8.46014">
        <ele>2236</ele>
        <time>2021-08-13T07:23:56.157Z</time>
      </trkpt>
      <trkpt lat="46.8469" lon="8.46013">
        <ele>2236</ele>
        <time>2021-08-13T07:23:57.157Z</time>
      </trkpt>
      <trkpt lat="46.8469" lon="8.46012">
        <ele>2236</ele>
        <time>2021-08-13T07:23:58.158Z</time>
      </trkpt>
      <trkpt lat="46.84691" lon="8.46012">
        <ele>2235</ele>
        <time>2021-08-13T07:23:59.158Z</time>
      </trkpt>
      <trkpt lat="46.84692" lon="8.46011">
        <ele>2234</ele>
        <time>2021-08-13T07:24:00.157Z</time>
      </trkpt>
      <trkpt lat="46.84693" lon="8.4601">
        <ele>2234</ele>
        <time>2021-08-13T07:24:01.158Z</time>
      </trkpt>
      <trkpt lat="46.84693" lon="8.4601">
        <ele>2233</ele>
        <time>2021-08-13T07:24:02.157Z</time>
      </trkpt>
      <trkpt lat="46.84694" lon="8.46009">
        <ele>2232</ele>
        <time>2021-08-13T07:24:03.157Z</time>
      </trkpt>
      <trkpt lat="46.84695" lon="8.46009">
        <ele>2231</ele>
        <time>2021-08-13T07:24:04.157Z</time>
      </trkpt>
      <trkpt lat="46.84696" lon="8.46009">
        <ele>2230</ele>
        <time>2021-08-13T07:24:05.157Z</time>
      </trkpt>
      <trkpt lat="46.84697" lon="8.46009">
        <ele>2230</ele>
        <time>2021-08-13T07:24:06.158Z</time>
      </trkpt>
      <trkpt lat="46.84698" lon="8.46009">
        <ele>2229</ele>
        <time>2021-08-13T07:24:07.157Z</time>
      </trkpt>
      <trkpt lat="46.84699" lon="8.46008">
        <ele>2228</ele>
        <time>2021-08-13T07:24:08.158Z</time>
      </trkpt>
      <trkpt lat="46.847" lon="8.46008">
        <ele>2228</ele>
        <time>2021-08-13T07:24:09.157Z</time>
      </trkpt>
      <trkpt lat="46.847" lon="8.46007">
        <ele>2227</ele>
        <time>2021-08-13T07:24:10.157Z</time>
      </trkpt>
      <trkpt lat="46.84701" lon="8.46006">
        <ele>2227</ele>
        <time>2021-08-13T07:24:11.157Z</time>
      </trkpt>
      <trkpt lat="46.84702" lon="8.46006">
        <ele>2226</ele>
        <time>2021-08-13T07:24:12.157Z</time>
      </trkpt>
      <trkpt lat="46.84704" lon="8.46005">
        <ele>2226</ele>
        <time>2021-08-13T07:24:13.157Z</time>
      </trkpt>
      <trkpt lat="46.84704" lon="8.46004">
        <ele>2226</ele>
        <time>2021-08-13T07:24:14.158Z</time>
      </trkpt>
      <trkpt lat="46.84705" lon="8.46004">
        <ele>2225</ele>
        <time>2021-08-13T07:24:15.157Z</time>
      </trkpt>
      <trkpt lat="46.84706" lon="8.46003">
        <ele>2225</ele>
        <time>2021-08-13T07:24:16.157Z</time>
      </trkpt>
      <trkpt lat="46.84706" lon="8.46002">
        <ele>2225</ele>
        <time>2021-08-13T07:24:17.157Z</time>
      </trkpt>
      <trkpt lat="46.84707" lon="8.46001">
        <ele>2225</ele>
        <time>2021-08-13T07:24:18.157Z</time>
      </trkpt>
      <trkpt lat="46.84708" lon="8.46">
        <ele>2225</ele>
        <time>2021-08-13T07:24:19.158Z</time>
      </trkpt>
      <trkpt lat="46.84709" lon="8.46">
        <ele>2224</ele>
        <time>2021-08-13T07:24:20.158Z</time>
      </trkpt>
      <trkpt lat="46.84709" lon="8.45999">
        <ele>2224</ele>
        <time>2021-08-13T07:24:21.157Z</time>
      </trkpt>
      <trkpt lat="46.8471" lon="8.45997">
        <ele>2224</ele>
        <time>2021-08-13T07:24:22.157Z</time>
      </trkpt>
      <trkpt lat="46.8471" lon="8.45996">
        <ele>2224</ele>
        <time>2021-08-13T07:24:23.157Z</time>
      </trkpt>
      <trkpt lat="46.84711" lon="8.45996">
        <ele>2224</ele>
        <time>2021-08-13T07:24:24.158Z</time>
      </trkpt>
      <trkpt lat="46.84711" lon="8.45995">
        <ele>2224</ele>
        <time>2021-08-13T07:24:25.157Z</time>
      </trkpt>
      <trkpt lat="46.84712" lon="8.45994">
        <ele>2224</ele>
        <time>2021-08-13T07:24:26.157Z</time>
      </trkpt>
      <trkpt lat="46.84712" lon="8.45993">
        <ele>2224</ele>
        <time>2021-08-13T07:24:27.157Z</time>
      </trkpt>
      <trkpt lat="46.84713" lon="8.45992">
        <ele>2224</ele>
        <time>2021-08-13T07:24:28.157Z</time>
      </trkpt>
      <trkpt lat="46.84713" lon="8.45991">
        <ele>2224</ele>
        <time>2021-08-13T07:24:29.158Z</time>
      </trkpt>
      <trkpt lat="46.84714" lon="8.4599">
        <ele>2224</ele>
        <time>2021-08-13T07:24:30.158Z</time>
      </trkpt>
      <trkpt lat="46.84714" lon="8.45988">
        <ele>2224</ele>
        <time>2021-08-13T07:24:31.158Z</time>
      </trkpt>
      <trkpt lat="46.84715" lon="8.45987">
        <ele>2224</ele>
        <time>2021-08-13T07:24:32.157Z</time>
      </trkpt>
      <trkpt lat="46.84716" lon="8.45986">
        <ele>2224</ele>
        <time>2021-08-13T07:24:33.157Z</time>
      </trkpt>
      <trkpt lat="46.84716" lon="8.45984">
        <ele>2224</ele>
        <time>2021-08-13T07:24:34.157Z</time>
      </trkpt>
      <trkpt lat="46.84716" lon="8.45982">
        <ele>2224</ele>
        <time>2021-08-13T07:24:35.158Z</time>
      </trkpt>
      <trkpt lat="46.84716" lon="8.45981">
        <ele>2224</ele>
        <time>2021-08-13T07:24:36.158Z</time>
      </trkpt>
      <trkpt lat="46.84716" lon="8.4598">
        <ele>2224</ele>
        <time>2021-08-13T07:24:37.157Z</time>
      </trkpt>
      <trkpt lat="46.84716" lon="8.45979">
        <ele>2224</ele>
        <time>2021-08-13T07:24:38.157Z</time>
      </trkpt>
      <trkpt lat="46.84716" lon="8.45977">
        <ele>2224</ele>
        <time>2021-08-13T07:24:39.157Z</time>
      </trkpt>
      <trkpt lat="46.84717" lon="8.45976">
        <ele>2224</ele>
        <time>2021-08-13T07:24:40.157Z</time>
      </trkpt>
      <trkpt lat="46.84717" lon="8.45975">
        <ele>2224</ele>
        <time>2021-08-13T07:24:41.157Z</time>
      </trkpt>
      <trkpt lat="46.84718" lon="8.45974">
        <ele>2224</ele>
        <time>2021-08-13T07:24:42.157Z</time>
      </trkpt>
      <trkpt lat="46.84718" lon="8.45972">
        <ele>2224</ele>
        <time>2021-08-13T07:24:43.157Z</time>
      </trkpt>
      <trkpt lat="46.84718" lon="8.45971">
        <ele>2224</ele>
        <time>2021-08-13T07:24:44.157Z</time>
      </trkpt>
      <trkpt lat="46.84719" lon="8.4597">
        <ele>2224</ele>
        <time>2021-08-13T07:24:45.157Z</time>
      </trkpt>
      <trkpt lat="46.84719" lon="8.45969">
        <ele>2224</ele>
        <time>2021-08-13T07:24:46.158Z</time>
      </trkpt>
      <trkpt lat="46.84719" lon="8.45968">
        <ele>2224</ele>
        <time>2021-08-13T07:24:47.157Z</time>
      </trkpt>
      <trkpt lat="46.8472" lon="8.45967">
        <ele>2224</ele>
        <time>2021-08-13T07:24:48.158Z</time>
      </trkpt>
      <trkpt lat="46.8472" lon="8.45966">
        <ele>2223</ele>
        <time>2021-08-13T07:24:49.158Z</time>
      </trkpt>
      <trkpt lat="46.84721" lon="8.45965">
        <ele>2223</ele>
        <time>2021-08-13T07:24:50.158Z</time>
      </trkpt>
      <trkpt lat="46.84721" lon="8.45964">
        <ele>2222</ele>
        <time>2021-08-13T07:24:51.157Z</time>
      </trkpt>
      <trkpt lat="46.84721" lon="8.45963">
        <ele>2222</ele>
        <time>2021-08-13T07:24:52.157Z</time>
      </trkpt>
      <trkpt lat="46.84722" lon="8.45962">
        <ele>2222</ele>
        <time>2021-08-13T07:24:53.158Z</time>
      </trkpt>
      <trkpt lat="46.84722" lon="8.45961">
        <ele>2222</ele>
        <time>2021-08-13T07:24:54.158Z</time>
      </trkpt>
      <trkpt lat="46.84723" lon="8.45961">
        <ele>2223</ele>
        <time>2021-08-13T07:24:55.157Z</time>
      </trkpt>
      <trkpt lat="46.84723" lon="8.4596">
        <ele>2223</ele>
        <time>2021-08-13T07:24:56.157Z</time>
      </trkpt>
      <trkpt lat="46.84723" lon="8.45959">
        <ele>2223</ele>
        <time>2021-08-13T07:24:57.157Z</time>
      </trkpt>
      <trkpt lat="46.84724" lon="8.45958">
        <ele>2223</ele>
        <time>2021-08-13T07:24:58.157Z</time>
      </trkpt>
      <trkpt lat="46.84724" lon="8.45957">
        <ele>2223</ele>
        <time>2021-08-13T07:24:59.158Z</time>
      </trkpt>
      <trkpt lat="46.84724" lon="8.45957">
        <ele>2223</ele>
        <time>2021-08-13T07:25:00.157Z</time>
      </trkpt>
      <trkpt lat="46.84725" lon="8.45956">
        <ele>2222</ele>
        <time>2021-08-13T07:25:01.157Z</time>
      </trkpt>
      <trkpt lat="46.84725" lon="8.45956">
        <ele>2222</ele>
        <time>2021-08-13T07:25:02.157Z</time>
      </trkpt>
      <trkpt lat="46.84725" lon="8.45956">
        <ele>2222</ele>
        <time>2021-08-13T07:25:03.157Z</time>
      </trkpt>
      <trkpt lat="46.84725" lon="8.45955">
        <ele>2222</ele>
        <time>2021-08-13T07:25:04.157Z</time>
      </trkpt>
      <trkpt lat="46.84726" lon="8.45954">
        <ele>2221</ele>
        <time>2021-08-13T07:25:05.157Z</time>
      </trkpt>
      <trkpt lat="46.84726" lon="8.45954">
        <ele>2221</ele>
        <time>2021-08-13T07:25:06.157Z</time>
      </trkpt>
      <trkpt lat="46.84727" lon="8.45953">
        <ele>2215</ele>
        <time>2021-08-13T07:25:07.158Z</time>
      </trkpt>
      <trkpt lat="46.84727" lon="8.45952">
        <ele>2214</ele>
        <time>2021-08-13T07:25:08.158Z</time>
      </trkpt>
      <trkpt lat="46.84727" lon="8.45951">
        <ele>2214</ele>
        <time>2021-08-13T07:25:09.158Z</time>
      </trkpt>
      <trkpt lat="46.84727" lon="8.4595">
        <ele>2214</ele>
        <time>2021-08-13T07:25:10.158Z</time>
      </trkpt>
      <trkpt lat="46.84727" lon="8.45949">
        <ele>2214</ele>
        <time>2021-08-13T07:25:11.158Z</time>
      </trkpt>
      <trkpt lat="46.84727" lon="8.45948">
        <ele>2214</ele>
        <time>2021-08-13T07:25:12.158Z</time>
      </trkpt>
      <trkpt lat="46.84727" lon="8.45947">
        <ele>2214</ele>
        <time>2021-08-13T07:25:13.158Z</time>
      </trkpt>
      <trkpt lat="46.84727" lon="8.45946">
        <ele>2213</ele>
        <time>2021-08-13T07:25:14.158Z</time>
      </trkpt>
      <trkpt lat="46.84727" lon="8.45945">
        <ele>2213</ele>
        <time>2021-08-13T07:25:15.158Z</time>
      </trkpt>
      <trkpt lat="46.84727" lon="8.45943">
        <ele>2213</ele>
        <time>2021-08-13T07:25:16.158Z</time>
      </trkpt>
      <trkpt lat="46.84727" lon="8.45942">
        <ele>2213</ele>
        <time>2021-08-13T07:25:17.158Z</time>
      </trkpt>
      <trkpt lat="46.84727" lon="8.45941">
        <ele>2213</ele>
        <time>2021-08-13T07:25:18.158Z</time>
      </trkpt>
      <trkpt lat="46.84726" lon="8.4594">
        <ele>2213</ele>
        <time>2021-08-13T07:25:19.158Z</time>
      </trkpt>
      <trkpt lat="46.84726" lon="8.45938">
        <ele>2212</ele>
        <time>2021-08-13T07:25:20.159Z</time>
      </trkpt>
      <trkpt lat="46.84726" lon="8.45936">
        <ele>2212</ele>
        <time>2021-08-13T07:25:21.158Z</time>
      </trkpt>
      <trkpt lat="46.84726" lon="8.45935">
        <ele>2212</ele>
        <time>2021-08-13T07:25:22.159Z</time>
      </trkpt>
      <trkpt lat="46.84726" lon="8.45934">
        <ele>2212</ele>
        <time>2021-08-13T07:25:23.158Z</time>
      </trkpt>
      <trkpt lat="46.84726" lon="8.45933">
        <ele>2212</ele>
        <time>2021-08-13T07:25:24.158Z</time>
      </trkpt>
      <trkpt lat="46.84726" lon="8.45931">
        <ele>2212</ele>
        <time>2021-08-13T07:25:25.159Z</time>
      </trkpt>
      <trkpt lat="46.84726" lon="8.4593">
        <ele>2212</ele>
        <time>2021-08-13T07:25:26.158Z</time>
      </trkpt>
      <trkpt lat="46.84726" lon="8.45929">
        <ele>2212</ele>
        <time>2021-08-13T07:25:27.159Z</time>
      </trkpt>
      <trkpt lat="46.84726" lon="8.45928">
        <ele>2211</ele>
        <time>2021-08-13T07:25:28.158Z</time>
      </trkpt>
      <trkpt lat="46.84726" lon="8.45927">
        <ele>2211</ele>
        <time>2021-08-13T07:25:29.158Z</time>
      </trkpt>
      <trkpt lat="46.84726" lon="8.45926">
        <ele>2211</ele>
        <time>2021-08-13T07:25:30.158Z</time>
      </trkpt>
      <trkpt lat="46.84726" lon="8.45925">
        <ele>2212</ele>
        <time>2021-08-13T07:25:31.158Z</time>
      </trkpt>
      <trkpt lat="46.84727" lon="8.45924">
        <ele>2212</ele>
        <time>2021-08-13T07:25:32.158Z</time>
      </trkpt>
      <trkpt lat="46.84727" lon="8.45923">
        <ele>2212</ele>
        <time>2021-08-13T07:25:33.159Z</time>
      </trkpt>
      <trkpt lat="46.84728" lon="8.45921">
        <ele>2212</ele>
        <time>2021-08-13T07:25:34.158Z</time>
      </trkpt>
      <trkpt lat="46.84728" lon="8.4592">
        <ele>2212</ele>
        <time>2021-08-13T07:25:35.158Z</time>
      </trkpt>
      <trkpt lat="46.84728" lon="8.45918">
        <ele>2212</ele>
        <time>2021-08-13T07:25:36.158Z</time>
      </trkpt>
      <trkpt lat="46.84728" lon="8.45917">
        <ele>2213</ele>
        <time>2021-08-13T07:25:37.158Z</time>
      </trkpt>
      <trkpt lat="46.84729" lon="8.45916">
        <ele>2213</ele>
        <time>2021-08-13T07:25:38.158Z</time>
      </trkpt>
      <trkpt lat="46.84729" lon="8.45914">
        <ele>2213</ele>
        <time>2021-08-13T07:25:39.158Z</time>
      </trkpt>
      <trkpt lat="46.8473" lon="8.45913">
        <ele>2213</ele>
        <time>2021-08-13T07:25:40.158Z</time>
      </trkpt>
      <trkpt lat="46.8473" lon="8.45912">
        <ele>2213</ele>
        <time>2021-08-13T07:25:41.159Z</time>
      </trkpt>
      <trkpt lat="46.84731" lon="8.45911">
        <ele>2212</ele>
        <time>2021-08-13T07:25:42.158Z</time>
      </trkpt>
      <trkpt lat="46.84731" lon="8.45909">
        <ele>2211</ele>
        <time>2021-08-13T07:25:43.158Z</time>
      </trkpt>
      <trkpt lat="46.84732" lon="8.45907">
        <ele>2211</ele>
        <time>2021-08-13T07:25:44.158Z</time>
      </trkpt>
      <trkpt lat="46.84733" lon="8.45906">
        <ele>2211</ele>
        <time>2021-08-13T07:25:45.158Z</time>
      </trkpt>
      <trkpt lat="46.84734" lon="8.45905">
        <ele>2210</ele>
        <time>2021-08-13T07:25:46.159Z</time>
      </trkpt>
      <trkpt lat="46.84734" lon="8.45904">
        <ele>2210</ele>
        <time>2021-08-13T07:25:47.158Z</time>
      </trkpt>
      <trkpt lat="46.84735" lon="8.45903">
        <ele>2210</ele>
        <time>2021-08-13T07:25:48.158Z</time>
      </trkpt>
      <trkpt lat="46.84735" lon="8.45902">
        <ele>2210</ele>
        <time>2021-08-13T07:25:49.158Z</time>
      </trkpt>
      <trkpt lat="46.84736" lon="8.45902">
        <ele>2210</ele>
        <time>2021-08-13T07:25:50.158Z</time>
      </trkpt>
      <trkpt lat="46.84736" lon="8.45901">
        <ele>2210</ele>
        <time>2021-08-13T07:25:51.159Z</time>
      </trkpt>
      <trkpt lat="46.84736" lon="8.45899">
        <ele>2210</ele>
        <time>2021-08-13T07:25:52.158Z</time>
      </trkpt>
      <trkpt lat="46.84737" lon="8.45898">
        <ele>2210</ele>
        <time>2021-08-13T07:25:53.158Z</time>
      </trkpt>
      <trkpt lat="46.84737" lon="8.45897">
        <ele>2210</ele>
        <time>2021-08-13T07:25:54.159Z</time>
      </trkpt>
      <trkpt lat="46.84738" lon="8.45896">
        <ele>2210</ele>
        <time>2021-08-13T07:25:55.158Z</time>
      </trkpt>
      <trkpt lat="46.84738" lon="8.45896">
        <ele>2210</ele>
        <time>2021-08-13T07:25:56.159Z</time>
      </trkpt>
      <trkpt lat="46.84739" lon="8.45895">
        <ele>2209</ele>
        <time>2021-08-13T07:25:57.159Z</time>
      </trkpt>
      <trkpt lat="46.8474" lon="8.45894">
        <ele>2209</ele>
        <time>2021-08-13T07:25:58.158Z</time>
      </trkpt>
      <trkpt lat="46.8474" lon="8.45893">
        <ele>2209</ele>
        <time>2021-08-13T07:25:59.159Z</time>
      </trkpt>
      <trkpt lat="46.84741" lon="8.45893">
        <ele>2209</ele>
        <time>2021-08-13T07:26:00.158Z</time>
      </trkpt>
      <trkpt lat="46.84741" lon="8.45892">
        <ele>2209</ele>
        <time>2021-08-13T07:26:01.158Z</time>
      </trkpt>
      <trkpt lat="46.84741" lon="8.45891">
        <ele>2209</ele>
        <time>2021-08-13T07:26:02.158Z</time>
      </trkpt>
      <trkpt lat="46.84742" lon="8.4589">
        <ele>2209</ele>
        <time>2021-08-13T07:26:03.158Z</time>
      </trkpt>
      <trkpt lat="46.84744" lon="8.4589">
        <ele>2208</ele>
        <time>2021-08-13T07:26:04.158Z</time>
      </trkpt>
      <trkpt lat="46.84745" lon="8.45889">
        <ele>2208</ele>
        <time>2021-08-13T07:26:05.158Z</time>
      </trkpt>
      <trkpt lat="46.84746" lon="8.45888">
        <ele>2208</ele>
        <time>2021-08-13T07:26:06.158Z</time>
      </trkpt>
      <trkpt lat="46.84747" lon="8.45887">
        <ele>2209</ele>
        <time>2021-08-13T07:26:07.158Z</time>
      </trkpt>
      <trkpt lat="46.84748" lon="8.45886">
        <ele>2209</ele>
        <time>2021-08-13T07:26:08.158Z</time>
      </trkpt>
      <trkpt lat="46.84748" lon="8.45885">
        <ele>2209</ele>
        <time>2021-08-13T07:26:09.159Z</time>
      </trkpt>
      <trkpt lat="46.84748" lon="8.45884">
        <ele>2209</ele>
        <time>2021-08-13T07:26:10.159Z</time>
      </trkpt>
      <trkpt lat="46.84748" lon="8.45882">
        <ele>2209</ele>
        <time>2021-08-13T07:26:11.158Z</time>
      </trkpt>
      <trkpt lat="46.84748" lon="8.45881">
        <ele>2209</ele>
        <time>2021-08-13T07:26:12.158Z</time>
      </trkpt>
      <trkpt lat="46.84748" lon="8.45879">
        <ele>2209</ele>
        <time>2021-08-13T07:26:13.159Z</time>
      </trkpt>
      <trkpt lat="46.84748" lon="8.45878">
        <ele>2209</ele>
        <time>2021-08-13T07:26:14.158Z</time>
      </trkpt>
      <trkpt lat="46.84748" lon="8.45877">
        <ele>2209</ele>
        <time>2021-08-13T07:26:15.158Z</time>
      </trkpt>
      <trkpt lat="46.84748" lon="8.45876">
        <ele>2209</ele>
        <time>2021-08-13T07:26:16.158Z</time>
      </trkpt>
      <trkpt lat="46.84749" lon="8.45874">
        <ele>2208</ele>
        <time>2021-08-13T07:26:17.158Z</time>
      </trkpt>
      <trkpt lat="46.84749" lon="8.45873">
        <ele>2208</ele>
        <time>2021-08-13T07:26:18.158Z</time>
      </trkpt>
      <trkpt lat="46.84749" lon="8.45871">
        <ele>2208</ele>
        <time>2021-08-13T07:26:19.158Z</time>
      </trkpt>
      <trkpt lat="46.84749" lon="8.45868">
        <ele>2208</ele>
        <time>2021-08-13T07:26:20.158Z</time>
      </trkpt>
      <trkpt lat="46.84748" lon="8.45866">
        <ele>2207</ele>
        <time>2021-08-13T07:26:21.158Z</time>
      </trkpt>
      <trkpt lat="46.84748" lon="8.45865">
        <ele>2207</ele>
        <time>2021-08-13T07:26:22.158Z</time>
      </trkpt>
      <trkpt lat="46.84747" lon="8.45864">
        <ele>2207</ele>
        <time>2021-08-13T07:26:23.158Z</time>
      </trkpt>
      <trkpt lat="46.84746" lon="8.45862">
        <ele>2208</ele>
        <time>2021-08-13T07:26:24.158Z</time>
      </trkpt>
      <trkpt lat="46.84745" lon="8.4586">
        <ele>2208</ele>
        <time>2021-08-13T07:26:25.158Z</time>
      </trkpt>
      <trkpt lat="46.84744" lon="8.45859">
        <ele>2207</ele>
        <time>2021-08-13T07:26:26.159Z</time>
      </trkpt>
      <trkpt lat="46.84743" lon="8.45857">
        <ele>2207</ele>
        <time>2021-08-13T07:26:27.158Z</time>
      </trkpt>
      <trkpt lat="46.84743" lon="8.45857">
        <ele>2207</ele>
        <time>2021-08-13T07:26:28.159Z</time>
      </trkpt>
      <trkpt lat="46.84743" lon="8.45855">
        <ele>2207</ele>
        <time>2021-08-13T07:26:29.158Z</time>
      </trkpt>
      <trkpt lat="46.84743" lon="8.45854">
        <ele>2207</ele>
        <time>2021-08-13T07:26:30.158Z</time>
      </trkpt>
      <trkpt lat="46.84742" lon="8.45853">
        <ele>2208</ele>
        <time>2021-08-13T07:26:31.158Z</time>
      </trkpt>
      <trkpt lat="46.84742" lon="8.45852">
        <ele>2208</ele>
        <time>2021-08-13T07:26:32.158Z</time>
      </trkpt>
      <trkpt lat="46.84741" lon="8.4585">
        <ele>2208</ele>
        <time>2021-08-13T07:26:33.158Z</time>
      </trkpt>
      <trkpt lat="46.8474" lon="8.45848">
        <ele>2208</ele>
        <time>2021-08-13T07:26:34.158Z</time>
      </trkpt>
      <trkpt lat="46.8474" lon="8.45847">
        <ele>2208</ele>
        <time>2021-08-13T07:26:35.158Z</time>
      </trkpt>
      <trkpt lat="46.8474" lon="8.45845">
        <ele>2208</ele>
        <time>2021-08-13T07:26:36.158Z</time>
      </trkpt>
      <trkpt lat="46.84739" lon="8.45844">
        <ele>2209</ele>
        <time>2021-08-13T07:26:37.158Z</time>
      </trkpt>
      <trkpt lat="46.84738" lon="8.45843">
        <ele>2209</ele>
        <time>2021-08-13T07:26:38.159Z</time>
      </trkpt>
      <trkpt lat="46.84738" lon="8.45841">
        <ele>2208</ele>
        <time>2021-08-13T07:26:39.158Z</time>
      </trkpt>
      <trkpt lat="46.84737" lon="8.4584">
        <ele>2208</ele>
        <time>2021-08-13T07:26:40.158Z</time>
      </trkpt>
      <trkpt lat="46.84737" lon="8.4584">
        <ele>2208</ele>
        <time>2021-08-13T07:26:41.158Z</time>
      </trkpt>
      <trkpt lat="46.84736" lon="8.45838">
        <ele>2207</ele>
        <time>2021-08-13T07:26:42.158Z</time>
      </trkpt>
      <trkpt lat="46.84736" lon="8.45837">
        <ele>2206</ele>
        <time>2021-08-13T07:26:43.158Z</time>
      </trkpt>
      <trkpt lat="46.84735" lon="8.45836">
        <ele>2206</ele>
        <time>2021-08-13T07:26:44.158Z</time>
      </trkpt>
      <trkpt lat="46.84734" lon="8.45834">
        <ele>2206</ele>
        <time>2021-08-13T07:26:45.158Z</time>
      </trkpt>
      <trkpt lat="46.84733" lon="8.45834">
        <ele>2206</ele>
        <time>2021-08-13T07:26:46.158Z</time>
      </trkpt>
      <trkpt lat="46.84732" lon="8.45832">
        <ele>2205</ele>
        <time>2021-08-13T07:26:47.158Z</time>
      </trkpt>
      <trkpt lat="46.84731" lon="8.45831">
        <ele>2205</ele>
        <time>2021-08-13T07:26:48.158Z</time>
      </trkpt>
      <trkpt lat="46.8473" lon="8.4583">
        <ele>2205</ele>
        <time>2021-08-13T07:26:49.158Z</time>
      </trkpt>
      <trkpt lat="46.84729" lon="8.45829">
        <ele>2205</ele>
        <time>2021-08-13T07:26:50.159Z</time>
      </trkpt>
      <trkpt lat="46.84728" lon="8.45828">
        <ele>2205</ele>
        <time>2021-08-13T07:26:51.158Z</time>
      </trkpt>
      <trkpt lat="46.84727" lon="8.45826">
        <ele>2205</ele>
        <time>2021-08-13T07:26:52.158Z</time>
      </trkpt>
      <trkpt lat="46.84726" lon="8.45824">
        <ele>2204</ele>
        <time>2021-08-13T07:26:53.158Z</time>
      </trkpt>
      <trkpt lat="46.84725" lon="8.45823">
        <ele>2204</ele>
        <time>2021-08-13T07:26:54.158Z</time>
      </trkpt>
      <trkpt lat="46.84725" lon="8.45821">
        <ele>2204</ele>
        <time>2021-08-13T07:26:55.158Z</time>
      </trkpt>
      <trkpt lat="46.84723" lon="8.45819">
        <ele>2204</ele>
        <time>2021-08-13T07:26:56.158Z</time>
      </trkpt>
      <trkpt lat="46.84722" lon="8.45818">
        <ele>2204</ele>
        <time>2021-08-13T07:26:57.158Z</time>
      </trkpt>
      <trkpt lat="46.84721" lon="8.45816">
        <ele>2205</ele>
        <time>2021-08-13T07:26:58.158Z</time>
      </trkpt>
      <trkpt lat="46.8472" lon="8.45815">
        <ele>2205</ele>
        <time>2021-08-13T07:26:59.158Z</time>
      </trkpt>
      <trkpt lat="46.84719" lon="8.45814">
        <ele>2205</ele>
        <time>2021-08-13T07:27:00.158Z</time>
      </trkpt>
      <trkpt lat="46.84718" lon="8.45812">
        <ele>2205</ele>
        <time>2021-08-13T07:27:01.158Z</time>
      </trkpt>
      <trkpt lat="46.84717" lon="8.45812">
        <ele>2205</ele>
        <time>2021-08-13T07:27:02.158Z</time>
      </trkpt>
      <trkpt lat="46.84716" lon="8.45811">
        <ele>2205</ele>
        <time>2021-08-13T07:27:03.158Z</time>
      </trkpt>
      <trkpt lat="46.84715" lon="8.45809">
        <ele>2205</ele>
        <time>2021-08-13T07:27:04.158Z</time>
      </trkpt>
      <trkpt lat="46.84714" lon="8.45808">
        <ele>2205</ele>
        <time>2021-08-13T07:27:05.159Z</time>
      </trkpt>
      <trkpt lat="46.84713" lon="8.45808">
        <ele>2205</ele>
        <time>2021-08-13T07:27:06.158Z</time>
      </trkpt>
      <trkpt lat="46.84711" lon="8.45806">
        <ele>2205</ele>
        <time>2021-08-13T07:27:07.158Z</time>
      </trkpt>
      <trkpt lat="46.84711" lon="8.45806">
        <ele>2205</ele>
        <time>2021-08-13T07:27:08.158Z</time>
      </trkpt>
      <trkpt lat="46.84709" lon="8.45805">
        <ele>2204</ele>
        <time>2021-08-13T07:27:09.158Z</time>
      </trkpt>
      <trkpt lat="46.84708" lon="8.45804">
        <ele>2204</ele>
        <time>2021-08-13T07:27:10.158Z</time>
      </trkpt>
      <trkpt lat="46.84707" lon="8.45803">
        <ele>2204</ele>
        <time>2021-08-13T07:27:11.158Z</time>
      </trkpt>
      <trkpt lat="46.84706" lon="8.45803">
        <ele>2204</ele>
        <time>2021-08-13T07:27:12.158Z</time>
      </trkpt>
      <trkpt lat="46.84705" lon="8.45802">
        <ele>2203</ele>
        <time>2021-08-13T07:27:13.159Z</time>
      </trkpt>
      <trkpt lat="46.84703" lon="8.45801">
        <ele>2203</ele>
        <time>2021-08-13T07:27:14.158Z</time>
      </trkpt>
      <trkpt lat="46.84702" lon="8.458">
        <ele>2202</ele>
        <time>2021-08-13T07:27:15.158Z</time>
      </trkpt>
      <trkpt lat="46.84701" lon="8.458">
        <ele>2202</ele>
        <time>2021-08-13T07:27:16.158Z</time>
      </trkpt>
      <trkpt lat="46.847" lon="8.45799">
        <ele>2202</ele>
        <time>2021-08-13T07:27:17.158Z</time>
      </trkpt>
      <trkpt lat="46.84699" lon="8.45798">
        <ele>2202</ele>
        <time>2021-08-13T07:27:18.158Z</time>
      </trkpt>
      <trkpt lat="46.84699" lon="8.45797">
        <ele>2202</ele>
        <time>2021-08-13T07:27:19.158Z</time>
      </trkpt>
      <trkpt lat="46.84698" lon="8.45796">
        <ele>2202</ele>
        <time>2021-08-13T07:27:20.158Z</time>
      </trkpt>
      <trkpt lat="46.84697" lon="8.45795">
        <ele>2202</ele>
        <time>2021-08-13T07:27:21.158Z</time>
      </trkpt>
      <trkpt lat="46.84696" lon="8.45794">
        <ele>2203</ele>
        <time>2021-08-13T07:27:22.158Z</time>
      </trkpt>
      <trkpt lat="46.84695" lon="8.45793">
        <ele>2203</ele>
        <time>2021-08-13T07:27:23.159Z</time>
      </trkpt>
      <trkpt lat="46.84694" lon="8.45792">
        <ele>2203</ele>
        <time>2021-08-13T07:27:24.159Z</time>
      </trkpt>
      <trkpt lat="46.84693" lon="8.45791">
        <ele>2203</ele>
        <time>2021-08-13T07:27:25.158Z</time>
      </trkpt>
      <trkpt lat="46.84692" lon="8.4579">
        <ele>2204</ele>
        <time>2021-08-13T07:27:26.158Z</time>
      </trkpt>
      <trkpt lat="46.84691" lon="8.45789">
        <ele>2204</ele>
        <time>2021-08-13T07:27:27.158Z</time>
      </trkpt>
      <trkpt lat="46.84691" lon="8.45788">
        <ele>2204</ele>
        <time>2021-08-13T07:27:28.158Z</time>
      </trkpt>
      <trkpt lat="46.84691" lon="8.45787">
        <ele>2203</ele>
        <time>2021-08-13T07:27:29.158Z</time>
      </trkpt>
      <trkpt lat="46.8469" lon="8.45785">
        <ele>2203</ele>
        <time>2021-08-13T07:27:30.158Z</time>
      </trkpt>
      <trkpt lat="46.8469" lon="8.45784">
        <ele>2203</ele>
        <time>2021-08-13T07:27:31.158Z</time>
      </trkpt>
      <trkpt lat="46.84689" lon="8.45783">
        <ele>2203</ele>
        <time>2021-08-13T07:27:32.158Z</time>
      </trkpt>
      <trkpt lat="46.84689" lon="8.45781">
        <ele>2203</ele>
        <time>2021-08-13T07:27:33.158Z</time>
      </trkpt>
      <trkpt lat="46.84689" lon="8.4578">
        <ele>2203</ele>
        <time>2021-08-13T07:27:34.158Z</time>
      </trkpt>
      <trkpt lat="46.84688" lon="8.45779">
        <ele>2202</ele>
        <time>2021-08-13T07:27:35.158Z</time>
      </trkpt>
      <trkpt lat="46.84687" lon="8.45778">
        <ele>2202</ele>
        <time>2021-08-13T07:27:36.159Z</time>
      </trkpt>
      <trkpt lat="46.84687" lon="8.45776">
        <ele>2202</ele>
        <time>2021-08-13T07:27:37.159Z</time>
      </trkpt>
      <trkpt lat="46.84687" lon="8.45775">
        <ele>2202</ele>
        <time>2021-08-13T07:27:38.158Z</time>
      </trkpt>
      <trkpt lat="46.84688" lon="8.45775">
        <ele>2202</ele>
        <time>2021-08-13T07:27:39.159Z</time>
      </trkpt>
      <trkpt lat="46.84689" lon="8.45773">
        <ele>2202</ele>
        <time>2021-08-13T07:27:40.159Z</time>
      </trkpt>
      <trkpt lat="46.84689" lon="8.45772">
        <ele>2202</ele>
        <time>2021-08-13T07:27:41.158Z</time>
      </trkpt>
      <trkpt lat="46.84689" lon="8.4577">
        <ele>2202</ele>
        <time>2021-08-13T07:27:42.158Z</time>
      </trkpt>
      <trkpt lat="46.84689" lon="8.45769">
        <ele>2202</ele>
        <time>2021-08-13T07:27:43.158Z</time>
      </trkpt>
      <trkpt lat="46.84688" lon="8.45769">
        <ele>2202</ele>
        <time>2021-08-13T07:27:44.159Z</time>
      </trkpt>
      <trkpt lat="46.84688" lon="8.45768">
        <ele>2202</ele>
        <time>2021-08-13T07:27:45.158Z</time>
      </trkpt>
      <trkpt lat="46.84688" lon="8.45767">
        <ele>2202</ele>
        <time>2021-08-13T07:27:46.158Z</time>
      </trkpt>
      <trkpt lat="46.84688" lon="8.45766">
        <ele>2202</ele>
        <time>2021-08-13T07:27:47.158Z</time>
      </trkpt>
      <trkpt lat="46.84687" lon="8.45766">
        <ele>2201</ele>
        <time>2021-08-13T07:27:48.158Z</time>
      </trkpt>
      <trkpt lat="46.84687" lon="8.45764">
        <ele>2201</ele>
        <time>2021-08-13T07:27:49.159Z</time>
      </trkpt>
      <trkpt lat="46.84687" lon="8.45763">
        <ele>2201</ele>
        <time>2021-08-13T07:27:50.158Z</time>
      </trkpt>
      <trkpt lat="46.84687" lon="8.45762">
        <ele>2202</ele>
        <time>2021-08-13T07:27:51.158Z</time>
      </trkpt>
      <trkpt lat="46.84686" lon="8.4576">
        <ele>2202</ele>
        <time>2021-08-13T07:27:52.158Z</time>
      </trkpt>
      <trkpt lat="46.84686" lon="8.45759">
        <ele>2202</ele>
        <time>2021-08-13T07:27:53.158Z</time>
      </trkpt>
      <trkpt lat="46.84686" lon="8.45758">
        <ele>2202</ele>
        <time>2021-08-13T07:27:54.158Z</time>
      </trkpt>
      <trkpt lat="46.84685" lon="8.45757">
        <ele>2202</ele>
        <time>2021-08-13T07:27:55.159Z</time>
      </trkpt>
      <trkpt lat="46.84685" lon="8.45756">
        <ele>2202</ele>
        <time>2021-08-13T07:27:56.159Z</time>
      </trkpt>
      <trkpt lat="46.84684" lon="8.45754">
        <ele>2203</ele>
        <time>2021-08-13T07:27:57.158Z</time>
      </trkpt>
      <trkpt lat="46.84683" lon="8.45753">
        <ele>2203</ele>
        <time>2021-08-13T07:27:58.158Z</time>
      </trkpt>
      <trkpt lat="46.84683" lon="8.45752">
        <ele>2203</ele>
        <time>2021-08-13T07:27:59.159Z</time>
      </trkpt>
      <trkpt lat="46.84682" lon="8.45752">
        <ele>2202</ele>
        <time>2021-08-13T07:28:00.159Z</time>
      </trkpt>
      <trkpt lat="46.84681" lon="8.4575">
        <ele>2202</ele>
        <time>2021-08-13T07:28:01.158Z</time>
      </trkpt>
      <trkpt lat="46.84681" lon="8.4575">
        <ele>2202</ele>
        <time>2021-08-13T07:28:02.158Z</time>
      </trkpt>
      <trkpt lat="46.8468" lon="8.45748">
        <ele>2202</ele>
        <time>2021-08-13T07:28:03.159Z</time>
      </trkpt>
      <trkpt lat="46.84679" lon="8.45747">
        <ele>2202</ele>
        <time>2021-08-13T07:28:04.158Z</time>
      </trkpt>
      <trkpt lat="46.84679" lon="8.45746">
        <ele>2202</ele>
        <time>2021-08-13T07:28:05.159Z</time>
      </trkpt>
      <trkpt lat="46.84678" lon="8.45745">
        <ele>2201</ele>
        <time>2021-08-13T07:28:06.158Z</time>
      </trkpt>
      <trkpt lat="46.84678" lon="8.45743">
        <ele>2201</ele>
        <time>2021-08-13T07:28:07.159Z</time>
      </trkpt>
      <trkpt lat="46.84677" lon="8.45742">
        <ele>2201</ele>
        <time>2021-08-13T07:28:08.159Z</time>
      </trkpt>
      <trkpt lat="46.84677" lon="8.45741">
        <ele>2201</ele>
        <time>2021-08-13T07:28:09.158Z</time>
      </trkpt>
      <trkpt lat="46.84675" lon="8.45739">
        <ele>2200</ele>
        <time>2021-08-13T07:28:10.158Z</time>
      </trkpt>
      <trkpt lat="46.84675" lon="8.45738">
        <ele>2200</ele>
        <time>2021-08-13T07:28:11.158Z</time>
      </trkpt>
      <trkpt lat="46.84674" lon="8.45736">
        <ele>2200</ele>
        <time>2021-08-13T07:28:12.158Z</time>
      </trkpt>
      <trkpt lat="46.84674" lon="8.45735">
        <ele>2199</ele>
        <time>2021-08-13T07:28:13.158Z</time>
      </trkpt>
      <trkpt lat="46.84674" lon="8.45733">
        <ele>2199</ele>
        <time>2021-08-13T07:28:14.159Z</time>
      </trkpt>
      <trkpt lat="46.84674" lon="8.45732">
        <ele>2199</ele>
        <time>2021-08-13T07:28:15.159Z</time>
      </trkpt>
      <trkpt lat="46.84674" lon="8.4573">
        <ele>2198</ele>
        <time>2021-08-13T07:28:16.158Z</time>
      </trkpt>
      <trkpt lat="46.84674" lon="8.45729">
        <ele>2198</ele>
        <time>2021-08-13T07:28:17.158Z</time>
      </trkpt>
      <trkpt lat="46.84673" lon="8.45728">
        <ele>2198</ele>
        <time>2021-08-13T07:28:18.158Z</time>
      </trkpt>
      <trkpt lat="46.84673" lon="8.45727">
        <ele>2197</ele>
        <time>2021-08-13T07:28:19.159Z</time>
      </trkpt>
      <trkpt lat="46.84673" lon="8.45725">
        <ele>2197</ele>
        <time>2021-08-13T07:28:20.158Z</time>
      </trkpt>
      <trkpt lat="46.84673" lon="8.45724">
        <ele>2196</ele>
        <time>2021-08-13T07:28:21.158Z</time>
      </trkpt>
      <trkpt lat="46.84672" lon="8.45723">
        <ele>2196</ele>
        <time>2021-08-13T07:28:22.158Z</time>
      </trkpt>
      <trkpt lat="46.84672" lon="8.45723">
        <ele>2195</ele>
        <time>2021-08-13T07:28:23.158Z</time>
      </trkpt>
      <trkpt lat="46.84672" lon="8.45722">
        <ele>2195</ele>
        <time>2021-08-13T07:28:24.158Z</time>
      </trkpt>
      <trkpt lat="46.84671" lon="8.45721">
        <ele>2195</ele>
        <time>2021-08-13T07:28:25.158Z</time>
      </trkpt>
      <trkpt lat="46.84671" lon="8.45719">
        <ele>2195</ele>
        <time>2021-08-13T07:28:26.158Z</time>
      </trkpt>
      <trkpt lat="46.8467" lon="8.45718">
        <ele>2194</ele>
        <time>2021-08-13T07:28:27.158Z</time>
      </trkpt>
      <trkpt lat="46.8467" lon="8.45717">
        <ele>2194</ele>
        <time>2021-08-13T07:28:28.158Z</time>
      </trkpt>
      <trkpt lat="46.8467" lon="8.45715">
        <ele>2193</ele>
        <time>2021-08-13T07:28:29.159Z</time>
      </trkpt>
      <trkpt lat="46.84669" lon="8.45714">
        <ele>2192</ele>
        <time>2021-08-13T07:28:30.158Z</time>
      </trkpt>
      <trkpt lat="46.84669" lon="8.45712">
        <ele>2192</ele>
        <time>2021-08-13T07:28:31.158Z</time>
      </trkpt>
      <trkpt lat="46.84669" lon="8.45711">
        <ele>2192</ele>
        <time>2021-08-13T07:28:32.158Z</time>
      </trkpt>
      <trkpt lat="46.84668" lon="8.45709">
        <ele>2192</ele>
        <time>2021-08-13T07:28:33.158Z</time>
      </trkpt>
      <trkpt lat="46.84667" lon="8.45708">
        <ele>2192</ele>
        <time>2021-08-13T07:28:34.158Z</time>
      </trkpt>
      <trkpt lat="46.84667" lon="8.45707">
        <ele>2193</ele>
        <time>2021-08-13T07:28:35.158Z</time>
      </trkpt>
      <trkpt lat="46.84667" lon="8.45705">
        <ele>2193</ele>
        <time>2021-08-13T07:28:36.159Z</time>
      </trkpt>
      <trkpt lat="46.84666" lon="8.45703">
        <ele>2192</ele>
        <time>2021-08-13T07:28:37.158Z</time>
      </trkpt>
      <trkpt lat="46.84666" lon="8.45702">
        <ele>2192</ele>
        <time>2021-08-13T07:28:38.158Z</time>
      </trkpt>
      <trkpt lat="46.84666" lon="8.457">
        <ele>2192</ele>
        <time>2021-08-13T07:28:39.158Z</time>
      </trkpt>
      <trkpt lat="46.84665" lon="8.457">
        <ele>2192</ele>
        <time>2021-08-13T07:28:40.158Z</time>
      </trkpt>
      <trkpt lat="46.84665" lon="8.45699">
        <ele>2191</ele>
        <time>2021-08-13T07:28:41.158Z</time>
      </trkpt>
      <trkpt lat="46.84664" lon="8.45699">
        <ele>2191</ele>
        <time>2021-08-13T07:28:42.158Z</time>
      </trkpt>
      <trkpt lat="46.84663" lon="8.45698">
        <ele>2191</ele>
        <time>2021-08-13T07:28:43.158Z</time>
      </trkpt>
      <trkpt lat="46.84662" lon="8.45698">
        <ele>2190</ele>
        <time>2021-08-13T07:28:44.158Z</time>
      </trkpt>
      <trkpt lat="46.84661" lon="8.45698">
        <ele>2190</ele>
        <time>2021-08-13T07:28:45.158Z</time>
      </trkpt>
      <trkpt lat="46.8466" lon="8.45698">
        <ele>2189</ele>
        <time>2021-08-13T07:28:46.158Z</time>
      </trkpt>
      <trkpt lat="46.84659" lon="8.45699">
        <ele>2189</ele>
        <time>2021-08-13T07:28:47.158Z</time>
      </trkpt>
      <trkpt lat="46.84657" lon="8.45699">
        <ele>2189</ele>
        <time>2021-08-13T07:28:48.158Z</time>
      </trkpt>
      <trkpt lat="46.84655" lon="8.457">
        <ele>2189</ele>
        <time>2021-08-13T07:28:49.159Z</time>
      </trkpt>
      <trkpt lat="46.84654" lon="8.45701">
        <ele>2189</ele>
        <time>2021-08-13T07:28:50.158Z</time>
      </trkpt>
      <trkpt lat="46.84653" lon="8.45702">
        <ele>2188</ele>
        <time>2021-08-13T07:28:51.158Z</time>
      </trkpt>
      <trkpt lat="46.84652" lon="8.45703">
        <ele>2188</ele>
        <time>2021-08-13T07:28:52.158Z</time>
      </trkpt>
      <trkpt lat="46.84652" lon="8.45704">
        <ele>2188</ele>
        <time>2021-08-13T07:28:53.158Z</time>
      </trkpt>
      <trkpt lat="46.84651" lon="8.45705">
        <ele>2188</ele>
        <time>2021-08-13T07:28:54.158Z</time>
      </trkpt>
      <trkpt lat="46.84651" lon="8.45705">
        <ele>2188</ele>
        <time>2021-08-13T07:28:55.159Z</time>
      </trkpt>
      <trkpt lat="46.8465" lon="8.45706">
        <ele>2187</ele>
        <time>2021-08-13T07:28:56.158Z</time>
      </trkpt>
      <trkpt lat="46.8465" lon="8.45708">
        <ele>2187</ele>
        <time>2021-08-13T07:28:57.158Z</time>
      </trkpt>
      <trkpt lat="46.8465" lon="8.45709">
        <ele>2186</ele>
        <time>2021-08-13T07:28:58.158Z</time>
      </trkpt>
      <trkpt lat="46.84649" lon="8.45709">
        <ele>2186</ele>
        <time>2021-08-13T07:28:59.158Z</time>
      </trkpt>
      <trkpt lat="46.84648" lon="8.4571">
        <ele>2185</ele>
        <time>2021-08-13T07:29:00.158Z</time>
      </trkpt>
      <trkpt lat="46.84647" lon="8.45711">
        <ele>2185</ele>
        <time>2021-08-13T07:29:01.158Z</time>
      </trkpt>
      <trkpt lat="46.84646" lon="8.4571">
        <ele>2185</ele>
        <time>2021-08-13T07:29:02.158Z</time>
      </trkpt>
      <trkpt lat="46.84646" lon="8.45709">
        <ele>2185</ele>
        <time>2021-08-13T07:29:03.158Z</time>
      </trkpt>
      <trkpt lat="46.84645" lon="8.45708">
        <ele>2185</ele>
        <time>2021-08-13T07:29:04.159Z</time>
      </trkpt>
      <trkpt lat="46.84644" lon="8.45707">
        <ele>2185</ele>
        <time>2021-08-13T07:29:05.158Z</time>
      </trkpt>
      <trkpt lat="46.84642" lon="8.45706">
        <ele>2185</ele>
        <time>2021-08-13T07:29:06.158Z</time>
      </trkpt>
      <trkpt lat="46.84641" lon="8.45705">
        <ele>2185</ele>
        <time>2021-08-13T07:29:07.159Z</time>
      </trkpt>
      <trkpt lat="46.8464" lon="8.45704">
        <ele>2185</ele>
        <time>2021-08-13T07:29:08.158Z</time>
      </trkpt>
      <trkpt lat="46.84639" lon="8.45703">
        <ele>2185</ele>
        <time>2021-08-13T07:29:09.158Z</time>
      </trkpt>
      <trkpt lat="46.84639" lon="8.45703">
        <ele>2184</ele>
        <time>2021-08-13T07:29:10.158Z</time>
      </trkpt>
      <trkpt lat="46.84638" lon="8.45702">
        <ele>2184</ele>
        <time>2021-08-13T07:29:11.158Z</time>
      </trkpt>
      <trkpt lat="46.84637" lon="8.45701">
        <ele>2184</ele>
        <time>2021-08-13T07:29:12.158Z</time>
      </trkpt>
      <trkpt lat="46.84637" lon="8.457">
        <ele>2184</ele>
        <time>2021-08-13T07:29:13.159Z</time>
      </trkpt>
      <trkpt lat="46.84636" lon="8.457">
        <ele>2184</ele>
        <time>2021-08-13T07:29:14.158Z</time>
      </trkpt>
      <trkpt lat="46.84636" lon="8.45699">
        <ele>2184</ele>
        <time>2021-08-13T07:29:15.158Z</time>
      </trkpt>
      <trkpt lat="46.84635" lon="8.45698">
        <ele>2184</ele>
        <time>2021-08-13T07:29:16.158Z</time>
      </trkpt>
      <trkpt lat="46.84634" lon="8.45697">
        <ele>2184</ele>
        <time>2021-08-13T07:29:17.158Z</time>
      </trkpt>
      <trkpt lat="46.84633" lon="8.45696">
        <ele>2184</ele>
        <time>2021-08-13T07:29:18.158Z</time>
      </trkpt>
      <trkpt lat="46.84632" lon="8.45695">
        <ele>2185</ele>
        <time>2021-08-13T07:29:19.158Z</time>
      </trkpt>
      <trkpt lat="46.84632" lon="8.45694">
        <ele>2185</ele>
        <time>2021-08-13T07:29:20.158Z</time>
      </trkpt>
      <trkpt lat="46.84631" lon="8.45692">
        <ele>2185</ele>
        <time>2021-08-13T07:29:21.158Z</time>
      </trkpt>
      <trkpt lat="46.84629" lon="8.45691">
        <ele>2185</ele>
        <time>2021-08-13T07:29:22.159Z</time>
      </trkpt>
      <trkpt lat="46.84628" lon="8.4569">
        <ele>2185</ele>
        <time>2021-08-13T07:29:23.158Z</time>
      </trkpt>
      <trkpt lat="46.84627" lon="8.45689">
        <ele>2185</ele>
        <time>2021-08-13T07:29:24.158Z</time>
      </trkpt>
      <trkpt lat="46.84626" lon="8.45688">
        <ele>2185</ele>
        <time>2021-08-13T07:29:25.159Z</time>
      </trkpt>
      <trkpt lat="46.84625" lon="8.45688">
        <ele>2185</ele>
        <time>2021-08-13T07:29:26.159Z</time>
      </trkpt>
      <trkpt lat="46.84624" lon="8.45687">
        <ele>2185</ele>
        <time>2021-08-13T07:29:27.158Z</time>
      </trkpt>
      <trkpt lat="46.84624" lon="8.45686">
        <ele>2184</ele>
        <time>2021-08-13T07:29:28.158Z</time>
      </trkpt>
      <trkpt lat="46.84624" lon="8.45685">
        <ele>2184</ele>
        <time>2021-08-13T07:29:29.158Z</time>
      </trkpt>
      <trkpt lat="46.84624" lon="8.45684">
        <ele>2184</ele>
        <time>2021-08-13T07:29:30.158Z</time>
      </trkpt>
      <trkpt lat="46.84623" lon="8.45683">
        <ele>2184</ele>
        <time>2021-08-13T07:29:31.159Z</time>
      </trkpt>
      <trkpt lat="46.84623" lon="8.45682">
        <ele>2185</ele>
        <time>2021-08-13T07:29:32.158Z</time>
      </trkpt>
      <trkpt lat="46.84622" lon="8.45681">
        <ele>2185</ele>
        <time>2021-08-13T07:29:33.158Z</time>
      </trkpt>
      <trkpt lat="46.84621" lon="8.4568">
        <ele>2185</ele>
        <time>2021-08-13T07:29:34.158Z</time>
      </trkpt>
      <trkpt lat="46.8462" lon="8.45679">
        <ele>2185</ele>
        <time>2021-08-13T07:29:35.158Z</time>
      </trkpt>
      <trkpt lat="46.84619" lon="8.45678">
        <ele>2184</ele>
        <time>2021-08-13T07:29:36.158Z</time>
      </trkpt>
      <trkpt lat="46.84618" lon="8.45676">
        <ele>2184</ele>
        <time>2021-08-13T07:29:37.158Z</time>
      </trkpt>
      <trkpt lat="46.84618" lon="8.45675">
        <ele>2184</ele>
        <time>2021-08-13T07:29:38.158Z</time>
      </trkpt>
      <trkpt lat="46.84618" lon="8.45673">
        <ele>2184</ele>
        <time>2021-08-13T07:29:39.158Z</time>
      </trkpt>
      <trkpt lat="46.84618" lon="8.45671">
        <ele>2184</ele>
        <time>2021-08-13T07:29:40.158Z</time>
      </trkpt>
      <trkpt lat="46.84618" lon="8.45669">
        <ele>2183</ele>
        <time>2021-08-13T07:29:41.158Z</time>
      </trkpt>
      <trkpt lat="46.84618" lon="8.45667">
        <ele>2183</ele>
        <time>2021-08-13T07:29:42.158Z</time>
      </trkpt>
      <trkpt lat="46.84618" lon="8.45664">
        <ele>2182</ele>
        <time>2021-08-13T07:29:43.158Z</time>
      </trkpt>
      <trkpt lat="46.84618" lon="8.45663">
        <ele>2181</ele>
        <time>2021-08-13T07:29:44.158Z</time>
      </trkpt>
      <trkpt lat="46.84618" lon="8.45661">
        <ele>2180</ele>
        <time>2021-08-13T07:29:45.158Z</time>
      </trkpt>
      <trkpt lat="46.84618" lon="8.45659">
        <ele>2179</ele>
        <time>2021-08-13T07:29:46.158Z</time>
      </trkpt>
      <trkpt lat="46.84617" lon="8.45657">
        <ele>2179</ele>
        <time>2021-08-13T07:29:47.158Z</time>
      </trkpt>
      <trkpt lat="46.84617" lon="8.45655">
        <ele>2178</ele>
        <time>2021-08-13T07:29:48.158Z</time>
      </trkpt>
      <trkpt lat="46.84616" lon="8.45653">
        <ele>2177</ele>
        <time>2021-08-13T07:29:49.158Z</time>
      </trkpt>
      <trkpt lat="46.84616" lon="8.45652">
        <ele>2177</ele>
        <time>2021-08-13T07:29:50.158Z</time>
      </trkpt>
      <trkpt lat="46.84616" lon="8.4565">
        <ele>2177</ele>
        <time>2021-08-13T07:29:51.158Z</time>
      </trkpt>
      <trkpt lat="46.84615" lon="8.45649">
        <ele>2177</ele>
        <time>2021-08-13T07:29:52.158Z</time>
      </trkpt>
      <trkpt lat="46.84615" lon="8.45648">
        <ele>2177</ele>
        <time>2021-08-13T07:29:53.158Z</time>
      </trkpt>
      <trkpt lat="46.84614" lon="8.45646">
        <ele>2177</ele>
        <time>2021-08-13T07:29:54.158Z</time>
      </trkpt>
      <trkpt lat="46.84613" lon="8.45646">
        <ele>2177</ele>
        <time>2021-08-13T07:29:55.158Z</time>
      </trkpt>
      <trkpt lat="46.84612" lon="8.45644">
        <ele>2176</ele>
        <time>2021-08-13T07:29:56.158Z</time>
      </trkpt>
      <trkpt lat="46.84611" lon="8.45643">
        <ele>2176</ele>
        <time>2021-08-13T07:29:57.158Z</time>
      </trkpt>
      <trkpt lat="46.8461" lon="8.45642">
        <ele>2176</ele>
        <time>2021-08-13T07:29:58.158Z</time>
      </trkpt>
      <trkpt lat="46.8461" lon="8.45641">
        <ele>2176</ele>
        <time>2021-08-13T07:29:59.158Z</time>
      </trkpt>
      <trkpt lat="46.84609" lon="8.4564">
        <ele>2175</ele>
        <time>2021-08-13T07:30:00.158Z</time>
      </trkpt>
      <trkpt lat="46.84609" lon="8.45639">
        <ele>2175</ele>
        <time>2021-08-13T07:30:01.158Z</time>
      </trkpt>
      <trkpt lat="46.84608" lon="8.45637">
        <ele>2175</ele>
        <time>2021-08-13T07:30:02.158Z</time>
      </trkpt>
      <trkpt lat="46.84607" lon="8.45635">
        <ele>2175</ele>
        <time>2021-08-13T07:30:03.158Z</time>
      </trkpt>
      <trkpt lat="46.84607" lon="8.45634">
        <ele>2175</ele>
        <time>2021-08-13T07:30:04.159Z</time>
      </trkpt>
      <trkpt lat="46.84606" lon="8.45633">
        <ele>2175</ele>
        <time>2021-08-13T07:30:05.159Z</time>
      </trkpt>
      <trkpt lat="46.84606" lon="8.45631">
        <ele>2175</ele>
        <time>2021-08-13T07:30:06.158Z</time>
      </trkpt>
      <trkpt lat="46.84605" lon="8.4563">
        <ele>2175</ele>
        <time>2021-08-13T07:30:07.158Z</time>
      </trkpt>
      <trkpt lat="46.84605" lon="8.45629">
        <ele>2176</ele>
        <time>2021-08-13T07:30:08.158Z</time>
      </trkpt>
      <trkpt lat="46.84605" lon="8.45628">
        <ele>2176</ele>
        <time>2021-08-13T07:30:09.158Z</time>
      </trkpt>
      <trkpt lat="46.84604" lon="8.45626">
        <ele>2176</ele>
        <time>2021-08-13T07:30:10.158Z</time>
      </trkpt>
      <trkpt lat="46.84604" lon="8.45625">
        <ele>2176</ele>
        <time>2021-08-13T07:30:11.158Z</time>
      </trkpt>
      <trkpt lat="46.84603" lon="8.45624">
        <ele>2177</ele>
        <time>2021-08-13T07:30:12.158Z</time>
      </trkpt>
      <trkpt lat="46.84603" lon="8.45623">
        <ele>2177</ele>
        <time>2021-08-13T07:30:13.158Z</time>
      </trkpt>
      <trkpt lat="46.84602" lon="8.45621">
        <ele>2177</ele>
        <time>2021-08-13T07:30:14.158Z</time>
      </trkpt>
      <trkpt lat="46.84602" lon="8.4562">
        <ele>2177</ele>
        <time>2021-08-13T07:30:15.158Z</time>
      </trkpt>
      <trkpt lat="46.84601" lon="8.45618">
        <ele>2177</ele>
        <time>2021-08-13T07:30:16.158Z</time>
      </trkpt>
      <trkpt lat="46.84601" lon="8.45617">
        <ele>2177</ele>
        <time>2021-08-13T07:30:17.158Z</time>
      </trkpt>
      <trkpt lat="46.84601" lon="8.45616">
        <ele>2177</ele>
        <time>2021-08-13T07:30:18.158Z</time>
      </trkpt>
      <trkpt lat="46.846" lon="8.45615">
        <ele>2178</ele>
        <time>2021-08-13T07:30:19.159Z</time>
      </trkpt>
      <trkpt lat="46.846" lon="8.45614">
        <ele>2178</ele>
        <time>2021-08-13T07:30:20.158Z</time>
      </trkpt>
      <trkpt lat="46.84599" lon="8.45613">
        <ele>2178</ele>
        <time>2021-08-13T07:30:21.159Z</time>
      </trkpt>
      <trkpt lat="46.84599" lon="8.45612">
        <ele>2178</ele>
        <time>2021-08-13T07:30:22.158Z</time>
      </trkpt>
      <trkpt lat="46.84598" lon="8.4561">
        <ele>2177</ele>
        <time>2021-08-13T07:30:23.159Z</time>
      </trkpt>
      <trkpt lat="46.84598" lon="8.45608">
        <ele>2176</ele>
        <time>2021-08-13T07:30:24.158Z</time>
      </trkpt>
      <trkpt lat="46.84597" lon="8.45607">
        <ele>2176</ele>
        <time>2021-08-13T07:30:25.158Z</time>
      </trkpt>
      <trkpt lat="46.84596" lon="8.45606">
        <ele>2175</ele>
        <time>2021-08-13T07:30:26.159Z</time>
      </trkpt>
      <trkpt lat="46.84596" lon="8.45604">
        <ele>2174</ele>
        <time>2021-08-13T07:30:27.158Z</time>
      </trkpt>
      <trkpt lat="46.84595" lon="8.45602">
        <ele>2174</ele>
        <time>2021-08-13T07:30:28.158Z</time>
      </trkpt>
      <trkpt lat="46.84594" lon="8.45601">
        <ele>2173</ele>
        <time>2021-08-13T07:30:29.158Z</time>
      </trkpt>
      <trkpt lat="46.84594" lon="8.456">
        <ele>2172</ele>
        <time>2021-08-13T07:30:30.158Z</time>
      </trkpt>
      <trkpt lat="46.84593" lon="8.45599">
        <ele>2172</ele>
        <time>2021-08-13T07:30:31.158Z</time>
      </trkpt>
      <trkpt lat="46.84593" lon="8.45597">
        <ele>2172</ele>
        <time>2021-08-13T07:30:32.158Z</time>
      </trkpt>
      <trkpt lat="46.84592" lon="8.45596">
        <ele>2171</ele>
        <time>2021-08-13T07:30:33.158Z</time>
      </trkpt>
      <trkpt lat="46.84592" lon="8.45594">
        <ele>2171</ele>
        <time>2021-08-13T07:30:34.159Z</time>
      </trkpt>
      <trkpt lat="46.84591" lon="8.45593">
        <ele>2171</ele>
        <time>2021-08-13T07:30:35.159Z</time>
      </trkpt>
      <trkpt lat="46.8459" lon="8.45591">
        <ele>2171</ele>
        <time>2021-08-13T07:30:36.158Z</time>
      </trkpt>
      <trkpt lat="46.8459" lon="8.4559">
        <ele>2171</ele>
        <time>2021-08-13T07:30:37.159Z</time>
      </trkpt>
      <trkpt lat="46.84589" lon="8.45588">
        <ele>2171</ele>
        <time>2021-08-13T07:30:38.158Z</time>
      </trkpt>
      <trkpt lat="46.84589" lon="8.45587">
        <ele>2171</ele>
        <time>2021-08-13T07:30:39.158Z</time>
      </trkpt>
      <trkpt lat="46.84588" lon="8.45586">
        <ele>2171</ele>
        <time>2021-08-13T07:30:40.158Z</time>
      </trkpt>
      <trkpt lat="46.84588" lon="8.45585">
        <ele>2171</ele>
        <time>2021-08-13T07:30:41.158Z</time>
      </trkpt>
      <trkpt lat="46.84587" lon="8.45583">
        <ele>2170</ele>
        <time>2021-08-13T07:30:42.158Z</time>
      </trkpt>
      <trkpt lat="46.84587" lon="8.45582">
        <ele>2170</ele>
        <time>2021-08-13T07:30:43.158Z</time>
      </trkpt>
      <trkpt lat="46.84587" lon="8.45581">
        <ele>2170</ele>
        <time>2021-08-13T07:30:44.158Z</time>
      </trkpt>
      <trkpt lat="46.84586" lon="8.4558">
        <ele>2170</ele>
        <time>2021-08-13T07:30:45.158Z</time>
      </trkpt>
      <trkpt lat="46.84585" lon="8.45578">
        <ele>2169</ele>
        <time>2021-08-13T07:30:46.158Z</time>
      </trkpt>
      <trkpt lat="46.84585" lon="8.45576">
        <ele>2169</ele>
        <time>2021-08-13T07:30:47.158Z</time>
      </trkpt>
      <trkpt lat="46.84585" lon="8.45575">
        <ele>2169</ele>
        <time>2021-08-13T07:30:48.159Z</time>
      </trkpt>
      <trkpt lat="46.84584" lon="8.45573">
        <ele>2169</ele>
        <time>2021-08-13T07:30:49.158Z</time>
      </trkpt>
      <trkpt lat="46.84584" lon="8.45572">
        <ele>2168</ele>
        <time>2021-08-13T07:30:50.158Z</time>
      </trkpt>
      <trkpt lat="46.84584" lon="8.4557">
        <ele>2168</ele>
        <time>2021-08-13T07:30:51.158Z</time>
      </trkpt>
      <trkpt lat="46.84583" lon="8.45568">
        <ele>2168</ele>
        <time>2021-08-13T07:30:52.158Z</time>
      </trkpt>
      <trkpt lat="46.84583" lon="8.45566">
        <ele>2168</ele>
        <time>2021-08-13T07:30:53.158Z</time>
      </trkpt>
      <trkpt lat="46.84582" lon="8.45565">
        <ele>2167</ele>
        <time>2021-08-13T07:30:54.158Z</time>
      </trkpt>
      <trkpt lat="46.84582" lon="8.45563">
        <ele>2167</ele>
        <time>2021-08-13T07:30:55.158Z</time>
      </trkpt>
      <trkpt lat="46.84581" lon="8.45562">
        <ele>2167</ele>
        <time>2021-08-13T07:30:56.158Z</time>
      </trkpt>
      <trkpt lat="46.84581" lon="8.45561">
        <ele>2167</ele>
        <time>2021-08-13T07:30:57.158Z</time>
      </trkpt>
      <trkpt lat="46.8458" lon="8.4556">
        <ele>2166</ele>
        <time>2021-08-13T07:30:58.158Z</time>
      </trkpt>
      <trkpt lat="46.8458" lon="8.45559">
        <ele>2166</ele>
        <time>2021-08-13T07:30:59.158Z</time>
      </trkpt>
      <trkpt lat="46.84579" lon="8.45557">
        <ele>2166</ele>
        <time>2021-08-13T07:31:00.158Z</time>
      </trkpt>
      <trkpt lat="46.84579" lon="8.45556">
        <ele>2166</ele>
        <time>2021-08-13T07:31:01.158Z</time>
      </trkpt>
      <trkpt lat="46.84578" lon="8.45554">
        <ele>2165</ele>
        <time>2021-08-13T07:31:02.158Z</time>
      </trkpt>
      <trkpt lat="46.84577" lon="8.45553">
        <ele>2165</ele>
        <time>2021-08-13T07:31:03.159Z</time>
      </trkpt>
      <trkpt lat="46.84577" lon="8.45551">
        <ele>2164</ele>
        <time>2021-08-13T07:31:04.158Z</time>
      </trkpt>
      <trkpt lat="46.84576" lon="8.45551">
        <ele>2164</ele>
        <time>2021-08-13T07:31:05.158Z</time>
      </trkpt>
      <trkpt lat="46.84576" lon="8.4555">
        <ele>2164</ele>
        <time>2021-08-13T07:31:06.158Z</time>
      </trkpt>
      <trkpt lat="46.84576" lon="8.45549">
        <ele>2164</ele>
        <time>2021-08-13T07:31:07.158Z</time>
      </trkpt>
      <trkpt lat="46.84576" lon="8.45549">
        <ele>2164</ele>
        <time>2021-08-13T07:31:08.158Z</time>
      </trkpt>
      <trkpt lat="46.84576" lon="8.45548">
        <ele>2164</ele>
        <time>2021-08-13T07:31:09.158Z</time>
      </trkpt>
      <trkpt lat="46.84576" lon="8.45548">
        <ele>2163</ele>
        <time>2021-08-13T07:31:10.158Z</time>
      </trkpt>
      <trkpt lat="46.84576" lon="8.45547">
        <ele>2163</ele>
        <time>2021-08-13T07:31:11.159Z</time>
      </trkpt>
      <trkpt lat="46.84576" lon="8.45546">
        <ele>2162</ele>
        <time>2021-08-13T07:31:12.158Z</time>
      </trkpt>
      <trkpt lat="46.84575" lon="8.45545">
        <ele>2162</ele>
        <time>2021-08-13T07:31:13.158Z</time>
      </trkpt>
      <trkpt lat="46.84575" lon="8.45544">
        <ele>2161</ele>
        <time>2021-08-13T07:31:14.158Z</time>
      </trkpt>
      <trkpt lat="46.84575" lon="8.45544">
        <ele>2161</ele>
        <time>2021-08-13T07:31:15.158Z</time>
      </trkpt>
      <trkpt lat="46.84574" lon="8.45543">
        <ele>2161</ele>
        <time>2021-08-13T07:31:16.158Z</time>
      </trkpt>
      <trkpt lat="46.84574" lon="8.45542">
        <ele>2161</ele>
        <time>2021-08-13T07:31:17.158Z</time>
      </trkpt>
      <trkpt lat="46.84574" lon="8.45541">
        <ele>2161</ele>
        <time>2021-08-13T07:31:18.158Z</time>
      </trkpt>
      <trkpt lat="46.84574" lon="8.4554">
        <ele>2161</ele>
        <time>2021-08-13T07:31:19.158Z</time>
      </trkpt>
      <trkpt lat="46.84573" lon="8.45538">
        <ele>2161</ele>
        <time>2021-08-13T07:31:20.158Z</time>
      </trkpt>
      <trkpt lat="46.84573" lon="8.45537">
        <ele>2162</ele>
        <time>2021-08-13T07:31:21.158Z</time>
      </trkpt>
      <trkpt lat="46.84573" lon="8.45536">
        <ele>2162</ele>
        <time>2021-08-13T07:31:22.158Z</time>
      </trkpt>
      <trkpt lat="46.84572" lon="8.45534">
        <ele>2162</ele>
        <time>2021-08-13T07:31:23.158Z</time>
      </trkpt>
      <trkpt lat="46.84572" lon="8.45533">
        <ele>2162</ele>
        <time>2021-08-13T07:31:24.158Z</time>
      </trkpt>
      <trkpt lat="46.84571" lon="8.45532">
        <ele>2161</ele>
        <time>2021-08-13T07:31:25.158Z</time>
      </trkpt>
      <trkpt lat="46.84571" lon="8.45531">
        <ele>2161</ele>
        <time>2021-08-13T07:31:26.159Z</time>
      </trkpt>
      <trkpt lat="46.8457" lon="8.45529">
        <ele>2161</ele>
        <time>2021-08-13T07:31:27.158Z</time>
      </trkpt>
      <trkpt lat="46.84569" lon="8.45528">
        <ele>2161</ele>
        <time>2021-08-13T07:31:28.158Z</time>
      </trkpt>
      <trkpt lat="46.84569" lon="8.45526">
        <ele>2161</ele>
        <time>2021-08-13T07:31:29.158Z</time>
      </trkpt>
      <trkpt lat="46.84569" lon="8.45525">
        <ele>2161</ele>
        <time>2021-08-13T07:31:30.159Z</time>
      </trkpt>
      <trkpt lat="46.84569" lon="8.45523">
        <ele>2161</ele>
        <time>2021-08-13T07:31:31.158Z</time>
      </trkpt>
      <trkpt lat="46.84568" lon="8.45521">
        <ele>2160</ele>
        <time>2021-08-13T07:31:32.158Z</time>
      </trkpt>
      <trkpt lat="46.84568" lon="8.4552">
        <ele>2160</ele>
        <time>2021-08-13T07:31:33.158Z</time>
      </trkpt>
      <trkpt lat="46.84567" lon="8.45519">
        <ele>2160</ele>
        <time>2021-08-13T07:31:34.158Z</time>
      </trkpt>
      <trkpt lat="46.84566" lon="8.45518">
        <ele>2159</ele>
        <time>2021-08-13T07:31:35.158Z</time>
      </trkpt>
      <trkpt lat="46.84565" lon="8.45516">
        <ele>2159</ele>
        <time>2021-08-13T07:31:36.158Z</time>
      </trkpt>
      <trkpt lat="46.84564" lon="8.45514">
        <ele>2158</ele>
        <time>2021-08-13T07:31:37.158Z</time>
      </trkpt>
      <trkpt lat="46.84563" lon="8.45514">
        <ele>2157</ele>
        <time>2021-08-13T07:31:38.158Z</time>
      </trkpt>
      <trkpt lat="46.84563" lon="8.45513">
        <ele>2157</ele>
        <time>2021-08-13T07:31:39.158Z</time>
      </trkpt>
      <trkpt lat="46.84562" lon="8.45513">
        <ele>2156</ele>
        <time>2021-08-13T07:31:40.158Z</time>
      </trkpt>
      <trkpt lat="46.84562" lon="8.45512">
        <ele>2156</ele>
        <time>2021-08-13T07:31:41.158Z</time>
      </trkpt>
      <trkpt lat="46.84561" lon="8.45512">
        <ele>2155</ele>
        <time>2021-08-13T07:31:42.158Z</time>
      </trkpt>
      <trkpt lat="46.8456" lon="8.45511">
        <ele>2155</ele>
        <time>2021-08-13T07:31:43.158Z</time>
      </trkpt>
      <trkpt lat="46.84559" lon="8.45511">
        <ele>2154</ele>
        <time>2021-08-13T07:31:44.158Z</time>
      </trkpt>
      <trkpt lat="46.84558" lon="8.4551">
        <ele>2154</ele>
        <time>2021-08-13T07:31:45.158Z</time>
      </trkpt>
      <trkpt lat="46.84557" lon="8.4551">
        <ele>2154</ele>
        <time>2021-08-13T07:31:46.158Z</time>
      </trkpt>
      <trkpt lat="46.84556" lon="8.45509">
        <ele>2154</ele>
        <time>2021-08-13T07:31:47.158Z</time>
      </trkpt>
      <trkpt lat="46.84555" lon="8.45509">
        <ele>2153</ele>
        <time>2021-08-13T07:31:48.159Z</time>
      </trkpt>
      <trkpt lat="46.84554" lon="8.45508">
        <ele>2153</ele>
        <time>2021-08-13T07:31:49.159Z</time>
      </trkpt>
      <trkpt lat="46.84553" lon="8.45508">
        <ele>2153</ele>
        <time>2021-08-13T07:31:50.159Z</time>
      </trkpt>
      <trkpt lat="46.84552" lon="8.45507">
        <ele>2153</ele>
        <time>2021-08-13T07:31:51.158Z</time>
      </trkpt>
      <trkpt lat="46.84552" lon="8.45507">
        <ele>2153</ele>
        <time>2021-08-13T07:31:52.158Z</time>
      </trkpt>
      <trkpt lat="46.84551" lon="8.45507">
        <ele>2153</ele>
        <time>2021-08-13T07:31:53.158Z</time>
      </trkpt>
      <trkpt lat="46.8455" lon="8.45507">
        <ele>2153</ele>
        <time>2021-08-13T07:31:54.158Z</time>
      </trkpt>
      <trkpt lat="46.84549" lon="8.45506">
        <ele>2152</ele>
        <time>2021-08-13T07:31:55.158Z</time>
      </trkpt>
      <trkpt lat="46.84548" lon="8.45506">
        <ele>2152</ele>
        <time>2021-08-13T07:31:56.159Z</time>
      </trkpt>
      <trkpt lat="46.84547" lon="8.45506">
        <ele>2152</ele>
        <time>2021-08-13T07:31:57.158Z</time>
      </trkpt>
      <trkpt lat="46.84546" lon="8.45506">
        <ele>2151</ele>
        <time>2021-08-13T07:31:58.159Z</time>
      </trkpt>
      <trkpt lat="46.84546" lon="8.45506">
        <ele>2151</ele>
        <time>2021-08-13T07:31:59.159Z</time>
      </trkpt>
      <trkpt lat="46.84545" lon="8.45505">
        <ele>2151</ele>
        <time>2021-08-13T07:32:00.159Z</time>
      </trkpt>
      <trkpt lat="46.84544" lon="8.45505">
        <ele>2151</ele>
        <time>2021-08-13T07:32:01.159Z</time>
      </trkpt>
      <trkpt lat="46.84543" lon="8.45504">
        <ele>2151</ele>
        <time>2021-08-13T07:32:02.158Z</time>
      </trkpt>
      <trkpt lat="46.84542" lon="8.45504">
        <ele>2150</ele>
        <time>2021-08-13T07:32:03.159Z</time>
      </trkpt>
      <trkpt lat="46.84542" lon="8.45503">
        <ele>2150</ele>
        <time>2021-08-13T07:32:04.158Z</time>
      </trkpt>
      <trkpt lat="46.84542" lon="8.45503">
        <ele>2150</ele>
        <time>2021-08-13T07:32:05.158Z</time>
      </trkpt>
      <trkpt lat="46.84541" lon="8.45502">
        <ele>2150</ele>
        <time>2021-08-13T07:32:06.158Z</time>
      </trkpt>
      <trkpt lat="46.84541" lon="8.45501">
        <ele>2150</ele>
        <time>2021-08-13T07:32:07.159Z</time>
      </trkpt>
      <trkpt lat="46.84541" lon="8.455">
        <ele>2150</ele>
        <time>2021-08-13T07:32:08.158Z</time>
      </trkpt>
      <trkpt lat="46.8454" lon="8.45498">
        <ele>2150</ele>
        <time>2021-08-13T07:32:09.158Z</time>
      </trkpt>
      <trkpt lat="46.84539" lon="8.45496">
        <ele>2151</ele>
        <time>2021-08-13T07:32:10.158Z</time>
      </trkpt>
      <trkpt lat="46.84539" lon="8.45495">
        <ele>2151</ele>
        <time>2021-08-13T07:32:11.158Z</time>
      </trkpt>
      <trkpt lat="46.84538" lon="8.45494">
        <ele>2151</ele>
        <time>2021-08-13T07:32:12.158Z</time>
      </trkpt>
      <trkpt lat="46.84538" lon="8.45494">
        <ele>2152</ele>
        <time>2021-08-13T07:32:13.158Z</time>
      </trkpt>
      <trkpt lat="46.84537" lon="8.45493">
        <ele>2152</ele>
        <time>2021-08-13T07:32:14.158Z</time>
      </trkpt>
      <trkpt lat="46.84537" lon="8.45492">
        <ele>2152</ele>
        <time>2021-08-13T07:32:15.158Z</time>
      </trkpt>
      <trkpt lat="46.84536" lon="8.4549">
        <ele>2152</ele>
        <time>2021-08-13T07:32:16.158Z</time>
      </trkpt>
      <trkpt lat="46.84536" lon="8.45489">
        <ele>2152</ele>
        <time>2021-08-13T07:32:17.158Z</time>
      </trkpt>
      <trkpt lat="46.84535" lon="8.45488">
        <ele>2153</ele>
        <time>2021-08-13T07:32:18.158Z</time>
      </trkpt>
      <trkpt lat="46.84535" lon="8.45487">
        <ele>2152</ele>
        <time>2021-08-13T07:32:19.158Z</time>
      </trkpt>
      <trkpt lat="46.84534" lon="8.45486">
        <ele>2152</ele>
        <time>2021-08-13T07:32:20.158Z</time>
      </trkpt>
      <trkpt lat="46.84534" lon="8.45484">
        <ele>2152</ele>
        <time>2021-08-13T07:32:21.158Z</time>
      </trkpt>
      <trkpt lat="46.84533" lon="8.45483">
        <ele>2152</ele>
        <time>2021-08-13T07:32:22.158Z</time>
      </trkpt>
      <trkpt lat="46.84532" lon="8.45482">
        <ele>2152</ele>
        <time>2021-08-13T07:32:23.158Z</time>
      </trkpt>
      <trkpt lat="46.84532" lon="8.4548">
        <ele>2151</ele>
        <time>2021-08-13T07:32:24.158Z</time>
      </trkpt>
      <trkpt lat="46.84531" lon="8.4548">
        <ele>2151</ele>
        <time>2021-08-13T07:32:25.159Z</time>
      </trkpt>
      <trkpt lat="46.8453" lon="8.45478">
        <ele>2150</ele>
        <time>2021-08-13T07:32:26.158Z</time>
      </trkpt>
      <trkpt lat="46.8453" lon="8.45477">
        <ele>2149</ele>
        <time>2021-08-13T07:32:27.158Z</time>
      </trkpt>
      <trkpt lat="46.8453" lon="8.45476">
        <ele>2149</ele>
        <time>2021-08-13T07:32:28.158Z</time>
      </trkpt>
      <trkpt lat="46.8453" lon="8.45475">
        <ele>2148</ele>
        <time>2021-08-13T07:32:29.158Z</time>
      </trkpt>
      <trkpt lat="46.84529" lon="8.45474">
        <ele>2148</ele>
        <time>2021-08-13T07:32:30.159Z</time>
      </trkpt>
      <trkpt lat="46.84529" lon="8.45473">
        <ele>2148</ele>
        <time>2021-08-13T07:32:31.158Z</time>
      </trkpt>
      <trkpt lat="46.84529" lon="8.45472">
        <ele>2148</ele>
        <time>2021-08-13T07:32:32.158Z</time>
      </trkpt>
      <trkpt lat="46.84529" lon="8.45471">
        <ele>2147</ele>
        <time>2021-08-13T07:32:33.158Z</time>
      </trkpt>
      <trkpt lat="46.84529" lon="8.4547">
        <ele>2147</ele>
        <time>2021-08-13T07:32:34.158Z</time>
      </trkpt>
      <trkpt lat="46.84529" lon="8.45469">
        <ele>2146</ele>
        <time>2021-08-13T07:32:35.159Z</time>
      </trkpt>
      <trkpt lat="46.84529" lon="8.45468">
        <ele>2146</ele>
        <time>2021-08-13T07:32:36.158Z</time>
      </trkpt>
      <trkpt lat="46.84528" lon="8.45467">
        <ele>2145</ele>
        <time>2021-08-13T07:32:37.158Z</time>
      </trkpt>
      <trkpt lat="46.84528" lon="8.45465">
        <ele>2146</ele>
        <time>2021-08-13T07:32:38.159Z</time>
      </trkpt>
      <trkpt lat="46.84527" lon="8.45464">
        <ele>2146</ele>
        <time>2021-08-13T07:32:39.158Z</time>
      </trkpt>
      <trkpt lat="46.84526" lon="8.45463">
        <ele>2146</ele>
        <time>2021-08-13T07:32:40.159Z</time>
      </trkpt>
      <trkpt lat="46.84526" lon="8.45462">
        <ele>2146</ele>
        <time>2021-08-13T07:32:41.158Z</time>
      </trkpt>
      <trkpt lat="46.84525" lon="8.4546">
        <ele>2146</ele>
        <time>2021-08-13T07:32:42.158Z</time>
      </trkpt>
      <trkpt lat="46.84524" lon="8.45459">
        <ele>2147</ele>
        <time>2021-08-13T07:32:43.158Z</time>
      </trkpt>
      <trkpt lat="46.84524" lon="8.45458">
        <ele>2146</ele>
        <time>2021-08-13T07:32:44.158Z</time>
      </trkpt>
      <trkpt lat="46.84523" lon="8.45457">
        <ele>2146</ele>
        <time>2021-08-13T07:32:45.159Z</time>
      </trkpt>
      <trkpt lat="46.84522" lon="8.45456">
        <ele>2146</ele>
        <time>2021-08-13T07:32:46.158Z</time>
      </trkpt>
      <trkpt lat="46.84522" lon="8.45456">
        <ele>2145</ele>
        <time>2021-08-13T07:32:47.159Z</time>
      </trkpt>
      <trkpt lat="46.84521" lon="8.45455">
        <ele>2144</ele>
        <time>2021-08-13T07:32:48.159Z</time>
      </trkpt>
      <trkpt lat="46.84521" lon="8.45454">
        <ele>2144</ele>
        <time>2021-08-13T07:32:49.159Z</time>
      </trkpt>
      <trkpt lat="46.8452" lon="8.45453">
        <ele>2143</ele>
        <time>2021-08-13T07:32:50.158Z</time>
      </trkpt>
      <trkpt lat="46.8452" lon="8.45452">
        <ele>2142</ele>
        <time>2021-08-13T07:32:51.159Z</time>
      </trkpt>
      <trkpt lat="46.8452" lon="8.45451">
        <ele>2142</ele>
        <time>2021-08-13T07:32:52.159Z</time>
      </trkpt>
      <trkpt lat="46.84519" lon="8.4545">
        <ele>2142</ele>
        <time>2021-08-13T07:32:53.158Z</time>
      </trkpt>
      <trkpt lat="46.84518" lon="8.45449">
        <ele>2141</ele>
        <time>2021-08-13T07:32:54.158Z</time>
      </trkpt>
      <trkpt lat="46.84518" lon="8.45448">
        <ele>2140</ele>
        <time>2021-08-13T07:32:55.158Z</time>
      </trkpt>
      <trkpt lat="46.84517" lon="8.45447">
        <ele>2140</ele>
        <time>2021-08-13T07:32:56.158Z</time>
      </trkpt>
      <trkpt lat="46.84516" lon="8.45446">
        <ele>2139</ele>
        <time>2021-08-13T07:32:57.158Z</time>
      </trkpt>
      <trkpt lat="46.84516" lon="8.45446">
        <ele>2139</ele>
        <time>2021-08-13T07:32:58.158Z</time>
      </trkpt>
      <trkpt lat="46.84515" lon="8.45445">
        <ele>2138</ele>
        <time>2021-08-13T07:32:59.158Z</time>
      </trkpt>
      <trkpt lat="46.84514" lon="8.45444">
        <ele>2138</ele>
        <time>2021-08-13T07:33:00.158Z</time>
      </trkpt>
      <trkpt lat="46.84514" lon="8.45443">
        <ele>2138</ele>
        <time>2021-08-13T07:33:01.158Z</time>
      </trkpt>
      <trkpt lat="46.84513" lon="8.45442">
        <ele>2138</ele>
        <time>2021-08-13T07:33:02.158Z</time>
      </trkpt>
      <trkpt lat="46.84513" lon="8.4544">
        <ele>2137</ele>
        <time>2021-08-13T07:33:03.158Z</time>
      </trkpt>
      <trkpt lat="46.84513" lon="8.45439">
        <ele>2137</ele>
        <time>2021-08-13T07:33:04.159Z</time>
      </trkpt>
      <trkpt lat="46.84513" lon="8.45438">
        <ele>2137</ele>
        <time>2021-08-13T07:33:05.158Z</time>
      </trkpt>
      <trkpt lat="46.84512" lon="8.45438">
        <ele>2137</ele>
        <time>2021-08-13T07:33:06.158Z</time>
      </trkpt>
      <trkpt lat="46.84512" lon="8.45437">
        <ele>2137</ele>
        <time>2021-08-13T07:33:07.158Z</time>
      </trkpt>
      <trkpt lat="46.84512" lon="8.45437">
        <ele>2137</ele>
        <time>2021-08-13T07:33:08.158Z</time>
      </trkpt>
      <trkpt lat="46.8451" lon="8.45434">
        <ele>2136</ele>
        <time>2021-08-13T07:33:09.159Z</time>
      </trkpt>
      <trkpt lat="46.8451" lon="8.45434">
        <ele>2136</ele>
        <time>2021-08-13T07:33:10.159Z</time>
      </trkpt>
      <trkpt lat="46.8451" lon="8.45433">
        <ele>2136</ele>
        <time>2021-08-13T07:33:11.158Z</time>
      </trkpt>
      <trkpt lat="46.84509" lon="8.45432">
        <ele>2136</ele>
        <time>2021-08-13T07:33:12.158Z</time>
      </trkpt>
      <trkpt lat="46.84508" lon="8.45431">
        <ele>2136</ele>
        <time>2021-08-13T07:33:13.159Z</time>
      </trkpt>
      <trkpt lat="46.84508" lon="8.4543">
        <ele>2136</ele>
        <time>2021-08-13T07:33:14.158Z</time>
      </trkpt>
      <trkpt lat="46.84508" lon="8.45429">
        <ele>2135</ele>
        <time>2021-08-13T07:33:15.158Z</time>
      </trkpt>
      <trkpt lat="46.84508" lon="8.45428">
        <ele>2135</ele>
        <time>2021-08-13T07:33:16.158Z</time>
      </trkpt>
      <trkpt lat="46.84507" lon="8.45426">
        <ele>2135</ele>
        <time>2021-08-13T07:33:17.159Z</time>
      </trkpt>
      <trkpt lat="46.84507" lon="8.45424">
        <ele>2135</ele>
        <time>2021-08-13T07:33:18.158Z</time>
      </trkpt>
      <trkpt lat="46.84507" lon="8.45423">
        <ele>2135</ele>
        <time>2021-08-13T07:33:19.159Z</time>
      </trkpt>
      <trkpt lat="46.84506" lon="8.45422">
        <ele>2134</ele>
        <time>2021-08-13T07:33:20.158Z</time>
      </trkpt>
      <trkpt lat="46.84506" lon="8.45421">
        <ele>2134</ele>
        <time>2021-08-13T07:33:21.159Z</time>
      </trkpt>
      <trkpt lat="46.84506" lon="8.4542">
        <ele>2133</ele>
        <time>2021-08-13T07:33:22.159Z</time>
      </trkpt>
      <trkpt lat="46.84506" lon="8.45418">
        <ele>2133</ele>
        <time>2021-08-13T07:33:23.159Z</time>
      </trkpt>
      <trkpt lat="46.84506" lon="8.45417">
        <ele>2133</ele>
        <time>2021-08-13T07:33:24.158Z</time>
      </trkpt>
      <trkpt lat="46.84506" lon="8.45416">
        <ele>2133</ele>
        <time>2021-08-13T07:33:25.159Z</time>
      </trkpt>
      <trkpt lat="46.84506" lon="8.45416">
        <ele>2133</ele>
        <time>2021-08-13T07:33:26.158Z</time>
      </trkpt>
      <trkpt lat="46.84506" lon="8.45415">
        <ele>2133</ele>
        <time>2021-08-13T07:33:27.158Z</time>
      </trkpt>
      <trkpt lat="46.84505" lon="8.45414">
        <ele>2132</ele>
        <time>2021-08-13T07:33:28.159Z</time>
      </trkpt>
      <trkpt lat="46.84505" lon="8.45412">
        <ele>2133</ele>
        <time>2021-08-13T07:33:29.159Z</time>
      </trkpt>
      <trkpt lat="46.84505" lon="8.45411">
        <ele>2133</ele>
        <time>2021-08-13T07:33:30.158Z</time>
      </trkpt>
      <trkpt lat="46.84505" lon="8.4541">
        <ele>2133</ele>
        <time>2021-08-13T07:33:31.159Z</time>
      </trkpt>
      <trkpt lat="46.84504" lon="8.45408">
        <ele>2132</ele>
        <time>2021-08-13T07:33:32.159Z</time>
      </trkpt>
      <trkpt lat="46.84504" lon="8.45407">
        <ele>2132</ele>
        <time>2021-08-13T07:33:33.158Z</time>
      </trkpt>
      <trkpt lat="46.84504" lon="8.45406">
        <ele>2132</ele>
        <time>2021-08-13T07:33:34.159Z</time>
      </trkpt>
      <trkpt lat="46.84504" lon="8.45404">
        <ele>2132</ele>
        <time>2021-08-13T07:33:35.158Z</time>
      </trkpt>
      <trkpt lat="46.84503" lon="8.45403">
        <ele>2131</ele>
        <time>2021-08-13T07:33:36.158Z</time>
      </trkpt>
      <trkpt lat="46.84503" lon="8.45402">
        <ele>2131</ele>
        <time>2021-08-13T07:33:37.159Z</time>
      </trkpt>
      <trkpt lat="46.84504" lon="8.45402">
        <ele>2131</ele>
        <time>2021-08-13T07:33:38.159Z</time>
      </trkpt>
      <trkpt lat="46.84504" lon="8.454">
        <ele>2131</ele>
        <time>2021-08-13T07:33:39.158Z</time>
      </trkpt>
      <trkpt lat="46.84503" lon="8.45398">
        <ele>2130</ele>
        <time>2021-08-13T07:33:40.159Z</time>
      </trkpt>
      <trkpt lat="46.84503" lon="8.45397">
        <ele>2130</ele>
        <time>2021-08-13T07:33:41.158Z</time>
      </trkpt>
      <trkpt lat="46.84503" lon="8.45396">
        <ele>2130</ele>
        <time>2021-08-13T07:33:42.158Z</time>
      </trkpt>
      <trkpt lat="46.84503" lon="8.45395">
        <ele>2130</ele>
        <time>2021-08-13T07:33:43.159Z</time>
      </trkpt>
      <trkpt lat="46.84503" lon="8.45394">
        <ele>2130</ele>
        <time>2021-08-13T07:33:44.159Z</time>
      </trkpt>
      <trkpt lat="46.84503" lon="8.45393">
        <ele>2130</ele>
        <time>2021-08-13T07:33:45.158Z</time>
      </trkpt>
      <trkpt lat="46.84503" lon="8.45392">
        <ele>2130</ele>
        <time>2021-08-13T07:33:46.159Z</time>
      </trkpt>
      <trkpt lat="46.84503" lon="8.45391">
        <ele>2129</ele>
        <time>2021-08-13T07:33:47.158Z</time>
      </trkpt>
      <trkpt lat="46.84503" lon="8.4539">
        <ele>2129</ele>
        <time>2021-08-13T07:33:48.159Z</time>
      </trkpt>
      <trkpt lat="46.84502" lon="8.45389">
        <ele>2129</ele>
        <time>2021-08-13T07:33:49.159Z</time>
      </trkpt>
      <trkpt lat="46.84502" lon="8.45388">
        <ele>2129</ele>
        <time>2021-08-13T07:33:50.159Z</time>
      </trkpt>
      <trkpt lat="46.84502" lon="8.45387">
        <ele>2129</ele>
        <time>2021-08-13T07:33:51.158Z</time>
      </trkpt>
      <trkpt lat="46.84502" lon="8.45386">
        <ele>2129</ele>
        <time>2021-08-13T07:33:52.158Z</time>
      </trkpt>
      <trkpt lat="46.84502" lon="8.45384">
        <ele>2129</ele>
        <time>2021-08-13T07:33:53.158Z</time>
      </trkpt>
      <trkpt lat="46.84502" lon="8.45382">
        <ele>2129</ele>
        <time>2021-08-13T07:33:54.158Z</time>
      </trkpt>
      <trkpt lat="46.84502" lon="8.45381">
        <ele>2129</ele>
        <time>2021-08-13T07:33:55.158Z</time>
      </trkpt>
      <trkpt lat="46.84501" lon="8.4538">
        <ele>2129</ele>
        <time>2021-08-13T07:33:56.159Z</time>
      </trkpt>
      <trkpt lat="46.84501" lon="8.45379">
        <ele>2129</ele>
        <time>2021-08-13T07:33:57.158Z</time>
      </trkpt>
      <trkpt lat="46.84501" lon="8.45378">
        <ele>2128</ele>
        <time>2021-08-13T07:33:58.159Z</time>
      </trkpt>
      <trkpt lat="46.84501" lon="8.45377">
        <ele>2128</ele>
        <time>2021-08-13T07:33:59.158Z</time>
      </trkpt>
      <trkpt lat="46.84501" lon="8.45376">
        <ele>2128</ele>
        <time>2021-08-13T07:34:00.158Z</time>
      </trkpt>
      <trkpt lat="46.84501" lon="8.45375">
        <ele>2128</ele>
        <time>2021-08-13T07:34:01.158Z</time>
      </trkpt>
      <trkpt lat="46.84501" lon="8.45375">
        <ele>2128</ele>
        <time>2021-08-13T07:34:02.158Z</time>
      </trkpt>
      <trkpt lat="46.845" lon="8.45373">
        <ele>2129</ele>
        <time>2021-08-13T07:34:03.159Z</time>
      </trkpt>
      <trkpt lat="46.845" lon="8.45371">
        <ele>2129</ele>
        <time>2021-08-13T07:34:04.159Z</time>
      </trkpt>
      <trkpt lat="46.845" lon="8.45371">
        <ele>2129</ele>
        <time>2021-08-13T07:34:05.159Z</time>
      </trkpt>
      <trkpt lat="46.845" lon="8.45369">
        <ele>2129</ele>
        <time>2021-08-13T07:34:06.158Z</time>
      </trkpt>
      <trkpt lat="46.845" lon="8.45368">
        <ele>2129</ele>
        <time>2021-08-13T07:34:07.158Z</time>
      </trkpt>
      <trkpt lat="46.845" lon="8.45366">
        <ele>2129</ele>
        <time>2021-08-13T07:34:08.158Z</time>
      </trkpt>
      <trkpt lat="46.845" lon="8.45365">
        <ele>2129</ele>
        <time>2021-08-13T07:34:09.158Z</time>
      </trkpt>
      <trkpt lat="46.84499" lon="8.45364">
        <ele>2129</ele>
        <time>2021-08-13T07:34:10.158Z</time>
      </trkpt>
      <trkpt lat="46.84498" lon="8.45363">
        <ele>2129</ele>
        <time>2021-08-13T07:34:11.158Z</time>
      </trkpt>
      <trkpt lat="46.84498" lon="8.45361">
        <ele>2128</ele>
        <time>2021-08-13T07:34:12.158Z</time>
      </trkpt>
      <trkpt lat="46.84497" lon="8.4536">
        <ele>2128</ele>
        <time>2021-08-13T07:34:13.158Z</time>
      </trkpt>
      <trkpt lat="46.84497" lon="8.45359">
        <ele>2127</ele>
        <time>2021-08-13T07:34:14.158Z</time>
      </trkpt>
      <trkpt lat="46.84496" lon="8.45358">
        <ele>2127</ele>
        <time>2021-08-13T07:34:15.158Z</time>
      </trkpt>
      <trkpt lat="46.84496" lon="8.45357">
        <ele>2126</ele>
        <time>2021-08-13T07:34:16.159Z</time>
      </trkpt>
      <trkpt lat="46.84496" lon="8.45356">
        <ele>2125</ele>
        <time>2021-08-13T07:34:17.158Z</time>
      </trkpt>
      <trkpt lat="46.84496" lon="8.45355">
        <ele>2125</ele>
        <time>2021-08-13T07:34:18.158Z</time>
      </trkpt>
      <trkpt lat="46.84496" lon="8.45354">
        <ele>2124</ele>
        <time>2021-08-13T07:34:19.158Z</time>
      </trkpt>
      <trkpt lat="46.84495" lon="8.45353">
        <ele>2124</ele>
        <time>2021-08-13T07:34:20.159Z</time>
      </trkpt>
      <trkpt lat="46.84495" lon="8.45352">
        <ele>2123</ele>
        <time>2021-08-13T07:34:21.158Z</time>
      </trkpt>
      <trkpt lat="46.84495" lon="8.45351">
        <ele>2123</ele>
        <time>2021-08-13T07:34:22.158Z</time>
      </trkpt>
      <trkpt lat="46.84495" lon="8.45349">
        <ele>2123</ele>
        <time>2021-08-13T07:34:23.159Z</time>
      </trkpt>
      <trkpt lat="46.84495" lon="8.45348">
        <ele>2123</ele>
        <time>2021-08-13T07:34:24.159Z</time>
      </trkpt>
      <trkpt lat="46.84494" lon="8.45346">
        <ele>2123</ele>
        <time>2021-08-13T07:34:25.158Z</time>
      </trkpt>
      <trkpt lat="46.84494" lon="8.45344">
        <ele>2123</ele>
        <time>2021-08-13T07:34:26.158Z</time>
      </trkpt>
      <trkpt lat="46.84494" lon="8.45343">
        <ele>2123</ele>
        <time>2021-08-13T07:34:27.158Z</time>
      </trkpt>
      <trkpt lat="46.84494" lon="8.45342">
        <ele>2123</ele>
        <time>2021-08-13T07:34:28.158Z</time>
      </trkpt>
      <trkpt lat="46.84494" lon="8.45341">
        <ele>2123</ele>
        <time>2021-08-13T07:34:29.158Z</time>
      </trkpt>
      <trkpt lat="46.84493" lon="8.4534">
        <ele>2123</ele>
        <time>2021-08-13T07:34:30.158Z</time>
      </trkpt>
      <trkpt lat="46.84493" lon="8.45338">
        <ele>2122</ele>
        <time>2021-08-13T07:34:31.159Z</time>
      </trkpt>
      <trkpt lat="46.84492" lon="8.45337">
        <ele>2122</ele>
        <time>2021-08-13T07:34:32.158Z</time>
      </trkpt>
      <trkpt lat="46.84491" lon="8.45336">
        <ele>2121</ele>
        <time>2021-08-13T07:34:33.158Z</time>
      </trkpt>
      <trkpt lat="46.84491" lon="8.45335">
        <ele>2121</ele>
        <time>2021-08-13T07:34:34.158Z</time>
      </trkpt>
      <trkpt lat="46.8449" lon="8.45333">
        <ele>2120</ele>
        <time>2021-08-13T07:34:35.158Z</time>
      </trkpt>
      <trkpt lat="46.8449" lon="8.45332">
        <ele>2120</ele>
        <time>2021-08-13T07:34:36.158Z</time>
      </trkpt>
      <trkpt lat="46.8449" lon="8.45331">
        <ele>2119</ele>
        <time>2021-08-13T07:34:37.158Z</time>
      </trkpt>
      <trkpt lat="46.84489" lon="8.4533">
        <ele>2119</ele>
        <time>2021-08-13T07:34:38.158Z</time>
      </trkpt>
      <trkpt lat="46.84489" lon="8.45328">
        <ele>2118</ele>
        <time>2021-08-13T07:34:39.159Z</time>
      </trkpt>
      <trkpt lat="46.84488" lon="8.45326">
        <ele>2118</ele>
        <time>2021-08-13T07:34:40.158Z</time>
      </trkpt>
      <trkpt lat="46.84488" lon="8.45325">
        <ele>2117</ele>
        <time>2021-08-13T07:34:41.158Z</time>
      </trkpt>
      <trkpt lat="46.84488" lon="8.45325">
        <ele>2117</ele>
        <time>2021-08-13T07:34:42.158Z</time>
      </trkpt>
      <trkpt lat="46.84488" lon="8.45324">
        <ele>2116</ele>
        <time>2021-08-13T07:34:43.159Z</time>
      </trkpt>
      <trkpt lat="46.84487" lon="8.45322">
        <ele>2112</ele>
        <time>2021-08-13T07:34:44.159Z</time>
      </trkpt>
      <trkpt lat="46.84487" lon="8.45322">
        <ele>2112</ele>
        <time>2021-08-13T07:34:45.158Z</time>
      </trkpt>
      <trkpt lat="46.84486" lon="8.45321">
        <ele>2112</ele>
        <time>2021-08-13T07:34:46.159Z</time>
      </trkpt>
      <trkpt lat="46.84487" lon="8.45321">
        <ele>2112</ele>
        <time>2021-08-13T07:34:47.160Z</time>
      </trkpt>
      <trkpt lat="46.84486" lon="8.45321">
        <ele>2112</ele>
        <time>2021-08-13T07:34:48.159Z</time>
      </trkpt>
      <trkpt lat="46.84486" lon="8.4532">
        <ele>2112</ele>
        <time>2021-08-13T07:34:49.160Z</time>
      </trkpt>
      <trkpt lat="46.84486" lon="8.45319">
        <ele>2112</ele>
        <time>2021-08-13T07:34:50.159Z</time>
      </trkpt>
      <trkpt lat="46.84485" lon="8.45319">
        <ele>2111</ele>
        <time>2021-08-13T07:34:51.159Z</time>
      </trkpt>
      <trkpt lat="46.84485" lon="8.45318">
        <ele>2111</ele>
        <time>2021-08-13T07:34:52.160Z</time>
      </trkpt>
      <trkpt lat="46.84485" lon="8.45317">
        <ele>2111</ele>
        <time>2021-08-13T07:34:53.160Z</time>
      </trkpt>
      <trkpt lat="46.84485" lon="8.45316">
        <ele>2111</ele>
        <time>2021-08-13T07:34:54.159Z</time>
      </trkpt>
      <trkpt lat="46.84484" lon="8.45315">
        <ele>2111</ele>
        <time>2021-08-13T07:34:55.160Z</time>
      </trkpt>
      <trkpt lat="46.84484" lon="8.45314">
        <ele>2111</ele>
        <time>2021-08-13T07:34:56.160Z</time>
      </trkpt>
      <trkpt lat="46.84484" lon="8.45313">
        <ele>2111</ele>
        <time>2021-08-13T07:34:57.159Z</time>
      </trkpt>
      <trkpt lat="46.84484" lon="8.45312">
        <ele>2111</ele>
        <time>2021-08-13T07:34:58.160Z</time>
      </trkpt>
      <trkpt lat="46.84483" lon="8.4531">
        <ele>2112</ele>
        <time>2021-08-13T07:34:59.159Z</time>
      </trkpt>
      <trkpt lat="46.84483" lon="8.45309">
        <ele>2112</ele>
        <time>2021-08-13T07:35:00.159Z</time>
      </trkpt>
      <trkpt lat="46.84483" lon="8.45308">
        <ele>2111</ele>
        <time>2021-08-13T07:35:01.159Z</time>
      </trkpt>
      <trkpt lat="46.84482" lon="8.45307">
        <ele>2111</ele>
        <time>2021-08-13T07:35:02.159Z</time>
      </trkpt>
      <trkpt lat="46.84482" lon="8.45305">
        <ele>2111</ele>
        <time>2021-08-13T07:35:03.159Z</time>
      </trkpt>
      <trkpt lat="46.84482" lon="8.45304">
        <ele>2111</ele>
        <time>2021-08-13T07:35:04.159Z</time>
      </trkpt>
      <trkpt lat="46.84481" lon="8.45302">
        <ele>2111</ele>
        <time>2021-08-13T07:35:05.159Z</time>
      </trkpt>
      <trkpt lat="46.84481" lon="8.45301">
        <ele>2111</ele>
        <time>2021-08-13T07:35:06.160Z</time>
      </trkpt>
      <trkpt lat="46.8448" lon="8.45299">
        <ele>2111</ele>
        <time>2021-08-13T07:35:07.159Z</time>
      </trkpt>
      <trkpt lat="46.84479" lon="8.45297">
        <ele>2112</ele>
        <time>2021-08-13T07:35:08.160Z</time>
      </trkpt>
      <trkpt lat="46.84478" lon="8.45296">
        <ele>2112</ele>
        <time>2021-08-13T07:35:09.159Z</time>
      </trkpt>
      <trkpt lat="46.84478" lon="8.45294">
        <ele>2112</ele>
        <time>2021-08-13T07:35:10.160Z</time>
      </trkpt>
      <trkpt lat="46.84477" lon="8.45293">
        <ele>2112</ele>
        <time>2021-08-13T07:35:11.159Z</time>
      </trkpt>
      <trkpt lat="46.84476" lon="8.45292">
        <ele>2111</ele>
        <time>2021-08-13T07:35:12.160Z</time>
      </trkpt>
      <trkpt lat="46.84476" lon="8.4529">
        <ele>2111</ele>
        <time>2021-08-13T07:35:13.159Z</time>
      </trkpt>
      <trkpt lat="46.84475" lon="8.45289">
        <ele>2111</ele>
        <time>2021-08-13T07:35:14.160Z</time>
      </trkpt>
      <trkpt lat="46.84474" lon="8.45288">
        <ele>2111</ele>
        <time>2021-08-13T07:35:15.160Z</time>
      </trkpt>
      <trkpt lat="46.84473" lon="8.45286">
        <ele>2111</ele>
        <time>2021-08-13T07:35:16.159Z</time>
      </trkpt>
      <trkpt lat="46.84473" lon="8.45284">
        <ele>2110</ele>
        <time>2021-08-13T07:35:17.159Z</time>
      </trkpt>
      <trkpt lat="46.84472" lon="8.45283">
        <ele>2110</ele>
        <time>2021-08-13T07:35:18.159Z</time>
      </trkpt>
      <trkpt lat="46.84472" lon="8.45281">
        <ele>2110</ele>
        <time>2021-08-13T07:35:19.159Z</time>
      </trkpt>
      <trkpt lat="46.84472" lon="8.4528">
        <ele>2110</ele>
        <time>2021-08-13T07:35:20.159Z</time>
      </trkpt>
      <trkpt lat="46.84471" lon="8.45279">
        <ele>2109</ele>
        <time>2021-08-13T07:35:21.160Z</time>
      </trkpt>
      <trkpt lat="46.84471" lon="8.45278">
        <ele>2109</ele>
        <time>2021-08-13T07:35:22.160Z</time>
      </trkpt>
      <trkpt lat="46.84471" lon="8.45276">
        <ele>2109</ele>
        <time>2021-08-13T07:35:23.159Z</time>
      </trkpt>
      <trkpt lat="46.84471" lon="8.45275">
        <ele>2109</ele>
        <time>2021-08-13T07:35:24.159Z</time>
      </trkpt>
      <trkpt lat="46.8447" lon="8.45274">
        <ele>2109</ele>
        <time>2021-08-13T07:35:25.160Z</time>
      </trkpt>
      <trkpt lat="46.84469" lon="8.45272">
        <ele>2109</ele>
        <time>2021-08-13T07:35:26.159Z</time>
      </trkpt>
      <trkpt lat="46.84469" lon="8.4527">
        <ele>2109</ele>
        <time>2021-08-13T07:35:27.159Z</time>
      </trkpt>
      <trkpt lat="46.84467" lon="8.45269">
        <ele>2109</ele>
        <time>2021-08-13T07:35:28.160Z</time>
      </trkpt>
      <trkpt lat="46.84467" lon="8.45268">
        <ele>2109</ele>
        <time>2021-08-13T07:35:29.160Z</time>
      </trkpt>
      <trkpt lat="46.84465" lon="8.45267">
        <ele>2109</ele>
        <time>2021-08-13T07:35:30.159Z</time>
      </trkpt>
      <trkpt lat="46.84464" lon="8.45266">
        <ele>2109</ele>
        <time>2021-08-13T07:35:31.159Z</time>
      </trkpt>
      <trkpt lat="46.84462" lon="8.45265">
        <ele>2109</ele>
        <time>2021-08-13T07:35:32.159Z</time>
      </trkpt>
      <trkpt lat="46.84461" lon="8.45265">
        <ele>2109</ele>
        <time>2021-08-13T07:35:33.159Z</time>
      </trkpt>
      <trkpt lat="46.84461" lon="8.45265">
        <ele>2109</ele>
        <time>2021-08-13T07:35:34.159Z</time>
      </trkpt>
      <trkpt lat="46.8446" lon="8.45264">
        <ele>2109</ele>
        <time>2021-08-13T07:35:35.159Z</time>
      </trkpt>
      <trkpt lat="46.84458" lon="8.45264">
        <ele>2109</ele>
        <time>2021-08-13T07:35:36.159Z</time>
      </trkpt>
      <trkpt lat="46.84457" lon="8.45264">
        <ele>2108</ele>
        <time>2021-08-13T07:35:37.159Z</time>
      </trkpt>
      <trkpt lat="46.84456" lon="8.45263">
        <ele>2108</ele>
        <time>2021-08-13T07:35:38.159Z</time>
      </trkpt>
      <trkpt lat="46.84456" lon="8.45263">
        <ele>2107</ele>
        <time>2021-08-13T07:35:39.160Z</time>
      </trkpt>
      <trkpt lat="46.84456" lon="8.45263">
        <ele>2106</ele>
        <time>2021-08-13T07:35:40.159Z</time>
      </trkpt>
      <trkpt lat="46.84456" lon="8.45262">
        <ele>2106</ele>
        <time>2021-08-13T07:35:41.159Z</time>
      </trkpt>
      <trkpt lat="46.84456" lon="8.45262">
        <ele>2105</ele>
        <time>2021-08-13T07:35:42.160Z</time>
      </trkpt>
      <trkpt lat="46.84456" lon="8.45261">
        <ele>2105</ele>
        <time>2021-08-13T07:35:43.159Z</time>
      </trkpt>
      <trkpt lat="46.84456" lon="8.4526">
        <ele>2104</ele>
        <time>2021-08-13T07:35:44.159Z</time>
      </trkpt>
      <trkpt lat="46.84456" lon="8.45258">
        <ele>2104</ele>
        <time>2021-08-13T07:35:45.159Z</time>
      </trkpt>
      <trkpt lat="46.84456" lon="8.45256">
        <ele>2104</ele>
        <time>2021-08-13T07:35:46.159Z</time>
      </trkpt>
      <trkpt lat="46.84456" lon="8.45255">
        <ele>2104</ele>
        <time>2021-08-13T07:35:47.159Z</time>
      </trkpt>
      <trkpt lat="46.84456" lon="8.45253">
        <ele>2105</ele>
        <time>2021-08-13T07:35:48.160Z</time>
      </trkpt>
      <trkpt lat="46.84455" lon="8.45252">
        <ele>2105</ele>
        <time>2021-08-13T07:35:49.159Z</time>
      </trkpt>
      <trkpt lat="46.84455" lon="8.45251">
        <ele>2105</ele>
        <time>2021-08-13T07:35:50.160Z</time>
      </trkpt>
      <trkpt lat="46.84454" lon="8.45249">
        <ele>2105</ele>
        <time>2021-08-13T07:35:51.159Z</time>
      </trkpt>
      <trkpt lat="46.84454" lon="8.45247">
        <ele>2105</ele>
        <time>2021-08-13T07:35:52.159Z</time>
      </trkpt>
      <trkpt lat="46.84453" lon="8.45246">
        <ele>2105</ele>
        <time>2021-08-13T07:35:53.159Z</time>
      </trkpt>
      <trkpt lat="46.84452" lon="8.45244">
        <ele>2106</ele>
        <time>2021-08-13T07:35:54.160Z</time>
      </trkpt>
      <trkpt lat="46.84452" lon="8.45242">
        <ele>2106</ele>
        <time>2021-08-13T07:35:55.159Z</time>
      </trkpt>
      <trkpt lat="46.84451" lon="8.45241">
        <ele>2106</ele>
        <time>2021-08-13T07:35:56.159Z</time>
      </trkpt>
      <trkpt lat="46.84451" lon="8.4524">
        <ele>2106</ele>
        <time>2021-08-13T07:35:57.159Z</time>
      </trkpt>
      <trkpt lat="46.8445" lon="8.45238">
        <ele>2106</ele>
        <time>2021-08-13T07:35:58.160Z</time>
      </trkpt>
      <trkpt lat="46.8445" lon="8.45237">
        <ele>2106</ele>
        <time>2021-08-13T07:35:59.159Z</time>
      </trkpt>
      <trkpt lat="46.84449" lon="8.45235">
        <ele>2106</ele>
        <time>2021-08-13T07:36:00.160Z</time>
      </trkpt>
      <trkpt lat="46.84448" lon="8.45234">
        <ele>2106</ele>
        <time>2021-08-13T07:36:01.159Z</time>
      </trkpt>
      <trkpt lat="46.84447" lon="8.45233">
        <ele>2106</ele>
        <time>2021-08-13T07:36:02.160Z</time>
      </trkpt>
      <trkpt lat="46.84446" lon="8.45231">
        <ele>2106</ele>
        <time>2021-08-13T07:36:03.159Z</time>
      </trkpt>
      <trkpt lat="46.84446" lon="8.4523">
        <ele>2105</ele>
        <time>2021-08-13T07:36:04.159Z</time>
      </trkpt>
      <trkpt lat="46.84445" lon="8.45229">
        <ele>2105</ele>
        <time>2021-08-13T07:36:05.160Z</time>
      </trkpt>
      <trkpt lat="46.84445" lon="8.45228">
        <ele>2106</ele>
        <time>2021-08-13T07:36:06.160Z</time>
      </trkpt>
      <trkpt lat="46.84444" lon="8.45227">
        <ele>2106</ele>
        <time>2021-08-13T07:36:07.160Z</time>
      </trkpt>
      <trkpt lat="46.84444" lon="8.45226">
        <ele>2106</ele>
        <time>2021-08-13T07:36:08.159Z</time>
      </trkpt>
      <trkpt lat="46.84444" lon="8.45225">
        <ele>2106</ele>
        <time>2021-08-13T07:36:09.159Z</time>
      </trkpt>
      <trkpt lat="46.84444" lon="8.45224">
        <ele>2105</ele>
        <time>2021-08-13T07:36:10.160Z</time>
      </trkpt>
      <trkpt lat="46.84444" lon="8.45223">
        <ele>2104</ele>
        <time>2021-08-13T07:36:11.160Z</time>
      </trkpt>
      <trkpt lat="46.84443" lon="8.45222">
        <ele>2104</ele>
        <time>2021-08-13T07:36:12.160Z</time>
      </trkpt>
      <trkpt lat="46.84443" lon="8.4522">
        <ele>2103</ele>
        <time>2021-08-13T07:36:13.159Z</time>
      </trkpt>
      <trkpt lat="46.84443" lon="8.45219">
        <ele>2103</ele>
        <time>2021-08-13T07:36:14.160Z</time>
      </trkpt>
      <trkpt lat="46.84443" lon="8.45217">
        <ele>2102</ele>
        <time>2021-08-13T07:36:15.159Z</time>
      </trkpt>
      <trkpt lat="46.84442" lon="8.45215">
        <ele>2102</ele>
        <time>2021-08-13T07:36:16.159Z</time>
      </trkpt>
      <trkpt lat="46.84442" lon="8.45213">
        <ele>2102</ele>
        <time>2021-08-13T07:36:17.160Z</time>
      </trkpt>
      <trkpt lat="46.84441" lon="8.45212">
        <ele>2102</ele>
        <time>2021-08-13T07:36:18.159Z</time>
      </trkpt>
      <trkpt lat="46.84441" lon="8.4521">
        <ele>2102</ele>
        <time>2021-08-13T07:36:19.159Z</time>
      </trkpt>
      <trkpt lat="46.8444" lon="8.4521">
        <ele>2102</ele>
        <time>2021-08-13T07:36:20.159Z</time>
      </trkpt>
      <trkpt lat="46.8444" lon="8.4521">
        <ele>2101</ele>
        <time>2021-08-13T07:36:21.159Z</time>
      </trkpt>
      <trkpt lat="46.8444" lon="8.45209">
        <ele>2101</ele>
        <time>2021-08-13T07:36:22.159Z</time>
      </trkpt>
      <trkpt lat="46.8444" lon="8.45209">
        <ele>2101</ele>
        <time>2021-08-13T07:36:23.160Z</time>
      </trkpt>
      <trkpt lat="46.8444" lon="8.45208">
        <ele>2098</ele>
        <time>2021-08-13T07:36:24.160Z</time>
      </trkpt>
      <trkpt lat="46.8444" lon="8.45206">
        <ele>2098</ele>
        <time>2021-08-13T07:36:25.160Z</time>
      </trkpt>
      <trkpt lat="46.8444" lon="8.45205">
        <ele>2097</ele>
        <time>2021-08-13T07:36:26.160Z</time>
      </trkpt>
      <trkpt lat="46.84439" lon="8.45204">
        <ele>2097</ele>
        <time>2021-08-13T07:36:27.160Z</time>
      </trkpt>
      <trkpt lat="46.84439" lon="8.45203">
        <ele>2097</ele>
        <time>2021-08-13T07:36:28.160Z</time>
      </trkpt>
      <trkpt lat="46.84439" lon="8.45201">
        <ele>2097</ele>
        <time>2021-08-13T07:36:29.160Z</time>
      </trkpt>
      <trkpt lat="46.84438" lon="8.452">
        <ele>2097</ele>
        <time>2021-08-13T07:36:30.160Z</time>
      </trkpt>
      <trkpt lat="46.84438" lon="8.45199">
        <ele>2097</ele>
        <time>2021-08-13T07:36:31.160Z</time>
      </trkpt>
      <trkpt lat="46.84437" lon="8.45198">
        <ele>2097</ele>
        <time>2021-08-13T07:36:32.160Z</time>
      </trkpt>
      <trkpt lat="46.84437" lon="8.45197">
        <ele>2097</ele>
        <time>2021-08-13T07:36:33.160Z</time>
      </trkpt>
      <trkpt lat="46.84436" lon="8.45195">
        <ele>2097</ele>
        <time>2021-08-13T07:36:34.160Z</time>
      </trkpt>
      <trkpt lat="46.84436" lon="8.45194">
        <ele>2097</ele>
        <time>2021-08-13T07:36:35.160Z</time>
      </trkpt>
      <trkpt lat="46.84436" lon="8.45193">
        <ele>2096</ele>
        <time>2021-08-13T07:36:36.160Z</time>
      </trkpt>
      <trkpt lat="46.84436" lon="8.45192">
        <ele>2096</ele>
        <time>2021-08-13T07:36:37.160Z</time>
      </trkpt>
      <trkpt lat="46.84437" lon="8.4519">
        <ele>2096</ele>
        <time>2021-08-13T07:36:38.160Z</time>
      </trkpt>
      <trkpt lat="46.84437" lon="8.45188">
        <ele>2095</ele>
        <time>2021-08-13T07:36:39.160Z</time>
      </trkpt>
      <trkpt lat="46.84438" lon="8.45185">
        <ele>2095</ele>
        <time>2021-08-13T07:36:40.160Z</time>
      </trkpt>
      <trkpt lat="46.84438" lon="8.45183">
        <ele>2095</ele>
        <time>2021-08-13T07:36:41.160Z</time>
      </trkpt>
      <trkpt lat="46.84438" lon="8.45181">
        <ele>2095</ele>
        <time>2021-08-13T07:36:42.160Z</time>
      </trkpt>
      <trkpt lat="46.84438" lon="8.4518">
        <ele>2095</ele>
        <time>2021-08-13T07:36:43.160Z</time>
      </trkpt>
      <trkpt lat="46.84437" lon="8.45178">
        <ele>2095</ele>
        <time>2021-08-13T07:36:44.160Z</time>
      </trkpt>
      <trkpt lat="46.84436" lon="8.45178">
        <ele>2095</ele>
        <time>2021-08-13T07:36:45.160Z</time>
      </trkpt>
      <trkpt lat="46.84436" lon="8.45177">
        <ele>2094</ele>
        <time>2021-08-13T07:36:46.160Z</time>
      </trkpt>
      <trkpt lat="46.84436" lon="8.45176">
        <ele>2094</ele>
        <time>2021-08-13T07:36:47.160Z</time>
      </trkpt>
      <trkpt lat="46.84435" lon="8.45175">
        <ele>2094</ele>
        <time>2021-08-13T07:36:48.160Z</time>
      </trkpt>
      <trkpt lat="46.84435" lon="8.45174">
        <ele>2094</ele>
        <time>2021-08-13T07:36:49.160Z</time>
      </trkpt>
      <trkpt lat="46.84434" lon="8.45173">
        <ele>2094</ele>
        <time>2021-08-13T07:36:50.160Z</time>
      </trkpt>
      <trkpt lat="46.84434" lon="8.45172">
        <ele>2094</ele>
        <time>2021-08-13T07:36:51.160Z</time>
      </trkpt>
      <trkpt lat="46.84434" lon="8.45171">
        <ele>2094</ele>
        <time>2021-08-13T07:36:52.160Z</time>
      </trkpt>
      <trkpt lat="46.84433" lon="8.4517">
        <ele>2094</ele>
        <time>2021-08-13T07:36:53.160Z</time>
      </trkpt>
      <trkpt lat="46.84433" lon="8.45168">
        <ele>2094</ele>
        <time>2021-08-13T07:36:54.160Z</time>
      </trkpt>
      <trkpt lat="46.84433" lon="8.45167">
        <ele>2094</ele>
        <time>2021-08-13T07:36:55.160Z</time>
      </trkpt>
      <trkpt lat="46.84433" lon="8.45166">
        <ele>2094</ele>
        <time>2021-08-13T07:36:56.160Z</time>
      </trkpt>
      <trkpt lat="46.84433" lon="8.45165">
        <ele>2094</ele>
        <time>2021-08-13T07:36:57.160Z</time>
      </trkpt>
      <trkpt lat="46.84433" lon="8.45164">
        <ele>2093</ele>
        <time>2021-08-13T07:36:58.160Z</time>
      </trkpt>
      <trkpt lat="46.84433" lon="8.45163">
        <ele>2093</ele>
        <time>2021-08-13T07:36:59.160Z</time>
      </trkpt>
      <trkpt lat="46.84433" lon="8.45161">
        <ele>2093</ele>
        <time>2021-08-13T07:37:00.160Z</time>
      </trkpt>
      <trkpt lat="46.84434" lon="8.4516">
        <ele>2093</ele>
        <time>2021-08-13T07:37:01.160Z</time>
      </trkpt>
      <trkpt lat="46.84434" lon="8.45158">
        <ele>2093</ele>
        <time>2021-08-13T07:37:02.160Z</time>
      </trkpt>
      <trkpt lat="46.84434" lon="8.45157">
        <ele>2092</ele>
        <time>2021-08-13T07:37:03.160Z</time>
      </trkpt>
      <trkpt lat="46.84434" lon="8.45155">
        <ele>2092</ele>
        <time>2021-08-13T07:37:04.160Z</time>
      </trkpt>
      <trkpt lat="46.84435" lon="8.45154">
        <ele>2093</ele>
        <time>2021-08-13T07:37:05.160Z</time>
      </trkpt>
      <trkpt lat="46.84435" lon="8.45153">
        <ele>2093</ele>
        <time>2021-08-13T07:37:06.160Z</time>
      </trkpt>
      <trkpt lat="46.84436" lon="8.45152">
        <ele>2093</ele>
        <time>2021-08-13T07:37:07.160Z</time>
      </trkpt>
      <trkpt lat="46.84436" lon="8.45152">
        <ele>2093</ele>
        <time>2021-08-13T07:37:08.160Z</time>
      </trkpt>
      <trkpt lat="46.84436" lon="8.45151">
        <ele>2092</ele>
        <time>2021-08-13T07:37:09.160Z</time>
      </trkpt>
      <trkpt lat="46.84436" lon="8.45151">
        <ele>2092</ele>
        <time>2021-08-13T07:37:10.160Z</time>
      </trkpt>
      <trkpt lat="46.84436" lon="8.45152">
        <ele>2088</ele>
        <time>2021-08-13T07:37:11.160Z</time>
      </trkpt>
      <trkpt lat="46.84437" lon="8.45151">
        <ele>2087</ele>
        <time>2021-08-13T07:37:12.161Z</time>
      </trkpt>
      <trkpt lat="46.84437" lon="8.45151">
        <ele>2087</ele>
        <time>2021-08-13T07:37:13.161Z</time>
      </trkpt>
      <trkpt lat="46.84438" lon="8.4515">
        <ele>2087</ele>
        <time>2021-08-13T07:37:14.161Z</time>
      </trkpt>
      <trkpt lat="46.84438" lon="8.45149">
        <ele>2087</ele>
        <time>2021-08-13T07:37:15.160Z</time>
      </trkpt>
      <trkpt lat="46.84439" lon="8.45149">
        <ele>2087</ele>
        <time>2021-08-13T07:37:16.160Z</time>
      </trkpt>
      <trkpt lat="46.8444" lon="8.45148">
        <ele>2087</ele>
        <time>2021-08-13T07:37:17.161Z</time>
      </trkpt>
      <trkpt lat="46.8444" lon="8.45147">
        <ele>2087</ele>
        <time>2021-08-13T07:37:18.161Z</time>
      </trkpt>
      <trkpt lat="46.84441" lon="8.45146">
        <ele>2087</ele>
        <time>2021-08-13T07:37:19.160Z</time>
      </trkpt>
      <trkpt lat="46.84442" lon="8.45145">
        <ele>2086</ele>
        <time>2021-08-13T07:37:20.160Z</time>
      </trkpt>
      <trkpt lat="46.84442" lon="8.45144">
        <ele>2086</ele>
        <time>2021-08-13T07:37:21.160Z</time>
      </trkpt>
      <trkpt lat="46.84443" lon="8.45142">
        <ele>2086</ele>
        <time>2021-08-13T07:37:22.161Z</time>
      </trkpt>
      <trkpt lat="46.84443" lon="8.45141">
        <ele>2085</ele>
        <time>2021-08-13T07:37:23.160Z</time>
      </trkpt>
      <trkpt lat="46.84443" lon="8.4514">
        <ele>2085</ele>
        <time>2021-08-13T07:37:24.160Z</time>
      </trkpt>
      <trkpt lat="46.84443" lon="8.4514">
        <ele>2084</ele>
        <time>2021-08-13T07:37:25.160Z</time>
      </trkpt>
      <trkpt lat="46.84444" lon="8.45139">
        <ele>2084</ele>
        <time>2021-08-13T07:37:26.160Z</time>
      </trkpt>
      <trkpt lat="46.84445" lon="8.45139">
        <ele>2084</ele>
        <time>2021-08-13T07:37:27.161Z</time>
      </trkpt>
      <trkpt lat="46.84445" lon="8.45139">
        <ele>2084</ele>
        <time>2021-08-13T07:37:28.160Z</time>
      </trkpt>
      <trkpt lat="46.84445" lon="8.45139">
        <ele>2084</ele>
        <time>2021-08-13T07:37:29.160Z</time>
      </trkpt>
      <trkpt lat="46.84446" lon="8.45138">
        <ele>2084</ele>
        <time>2021-08-13T07:37:30.160Z</time>
      </trkpt>
      <trkpt lat="46.84447" lon="8.45137">
        <ele>2084</ele>
        <time>2021-08-13T07:37:31.160Z</time>
      </trkpt>
      <trkpt lat="46.84447" lon="8.45137">
        <ele>2084</ele>
        <time>2021-08-13T07:37:32.160Z</time>
      </trkpt>
      <trkpt lat="46.84448" lon="8.45136">
        <ele>2083</ele>
        <time>2021-08-13T07:37:33.161Z</time>
      </trkpt>
      <trkpt lat="46.84448" lon="8.45136">
        <ele>2083</ele>
        <time>2021-08-13T07:37:34.160Z</time>
      </trkpt>
      <trkpt lat="46.84449" lon="8.45135">
        <ele>2082</ele>
        <time>2021-08-13T07:37:35.160Z</time>
      </trkpt>
      <trkpt lat="46.8445" lon="8.45134">
        <ele>2082</ele>
        <time>2021-08-13T07:37:36.160Z</time>
      </trkpt>
      <trkpt lat="46.8445" lon="8.45134">
        <ele>2082</ele>
        <time>2021-08-13T07:37:37.161Z</time>
      </trkpt>
      <trkpt lat="46.84451" lon="8.45133">
        <ele>2081</ele>
        <time>2021-08-13T07:37:38.161Z</time>
      </trkpt>
      <trkpt lat="46.84451" lon="8.45132">
        <ele>2081</ele>
        <time>2021-08-13T07:37:39.160Z</time>
      </trkpt>
      <trkpt lat="46.84452" lon="8.45131">
        <ele>2081</ele>
        <time>2021-08-13T07:37:40.160Z</time>
      </trkpt>
      <trkpt lat="46.84452" lon="8.4513">
        <ele>2081</ele>
        <time>2021-08-13T07:37:41.160Z</time>
      </trkpt>
      <trkpt lat="46.84453" lon="8.4513">
        <ele>2081</ele>
        <time>2021-08-13T07:37:42.160Z</time>
      </trkpt>
      <trkpt lat="46.84453" lon="8.4513">
        <ele>2081</ele>
        <time>2021-08-13T07:37:43.160Z</time>
      </trkpt>
      <trkpt lat="46.84454" lon="8.4513">
        <ele>2081</ele>
        <time>2021-08-13T07:37:44.160Z</time>
      </trkpt>
      <trkpt lat="46.84454" lon="8.45129">
        <ele>2081</ele>
        <time>2021-08-13T07:37:45.160Z</time>
      </trkpt>
      <trkpt lat="46.84454" lon="8.45128">
        <ele>2081</ele>
        <time>2021-08-13T07:37:46.160Z</time>
      </trkpt>
      <trkpt lat="46.84455" lon="8.45128">
        <ele>2081</ele>
        <time>2021-08-13T07:37:47.160Z</time>
      </trkpt>
      <trkpt lat="46.84456" lon="8.45127">
        <ele>2081</ele>
        <time>2021-08-13T07:37:48.160Z</time>
      </trkpt>
      <trkpt lat="46.84457" lon="8.45126">
        <ele>2080</ele>
        <time>2021-08-13T07:37:49.160Z</time>
      </trkpt>
      <trkpt lat="46.84457" lon="8.45125">
        <ele>2080</ele>
        <time>2021-08-13T07:37:50.161Z</time>
      </trkpt>
      <trkpt lat="46.84458" lon="8.45125">
        <ele>2080</ele>
        <time>2021-08-13T07:37:51.160Z</time>
      </trkpt>
      <trkpt lat="46.8446" lon="8.45124">
        <ele>2080</ele>
        <time>2021-08-13T07:37:52.160Z</time>
      </trkpt>
      <trkpt lat="46.84461" lon="8.45123">
        <ele>2079</ele>
        <time>2021-08-13T07:37:53.160Z</time>
      </trkpt>
      <trkpt lat="46.84462" lon="8.45122">
        <ele>2078</ele>
        <time>2021-08-13T07:37:54.160Z</time>
      </trkpt>
      <trkpt lat="46.84463" lon="8.45121">
        <ele>2078</ele>
        <time>2021-08-13T07:37:55.161Z</time>
      </trkpt>
      <trkpt lat="46.84464" lon="8.4512">
        <ele>2077</ele>
        <time>2021-08-13T07:37:56.161Z</time>
      </trkpt>
      <trkpt lat="46.84465" lon="8.45118">
        <ele>2076</ele>
        <time>2021-08-13T07:37:57.160Z</time>
      </trkpt>
      <trkpt lat="46.84466" lon="8.45117">
        <ele>2075</ele>
        <time>2021-08-13T07:37:58.161Z</time>
      </trkpt>
      <trkpt lat="46.84467" lon="8.45115">
        <ele>2075</ele>
        <time>2021-08-13T07:37:59.161Z</time>
      </trkpt>
      <trkpt lat="46.84467" lon="8.45113">
        <ele>2075</ele>
        <time>2021-08-13T07:38:00.161Z</time>
      </trkpt>
      <trkpt lat="46.84468" lon="8.45112">
        <ele>2075</ele>
        <time>2021-08-13T07:38:01.161Z</time>
      </trkpt>
      <trkpt lat="46.84468" lon="8.4511">
        <ele>2074</ele>
        <time>2021-08-13T07:38:02.161Z</time>
      </trkpt>
      <trkpt lat="46.84469" lon="8.45108">
        <ele>2074</ele>
        <time>2021-08-13T07:38:03.161Z</time>
      </trkpt>
      <trkpt lat="46.84469" lon="8.45107">
        <ele>2074</ele>
        <time>2021-08-13T07:38:04.161Z</time>
      </trkpt>
      <trkpt lat="46.84469" lon="8.45105">
        <ele>2074</ele>
        <time>2021-08-13T07:38:05.161Z</time>
      </trkpt>
      <trkpt lat="46.84469" lon="8.45105">
        <ele>2074</ele>
        <time>2021-08-13T07:38:06.161Z</time>
      </trkpt>
      <trkpt lat="46.8447" lon="8.45104">
        <ele>2074</ele>
        <time>2021-08-13T07:38:07.161Z</time>
      </trkpt>
      <trkpt lat="46.8447" lon="8.45103">
        <ele>2074</ele>
        <time>2021-08-13T07:38:08.161Z</time>
      </trkpt>
      <trkpt lat="46.84471" lon="8.45102">
        <ele>2074</ele>
        <time>2021-08-13T07:38:09.161Z</time>
      </trkpt>
      <trkpt lat="46.84471" lon="8.45102">
        <ele>2073</ele>
        <time>2021-08-13T07:38:10.160Z</time>
      </trkpt>
      <trkpt lat="46.84472" lon="8.45101">
        <ele>2073</ele>
        <time>2021-08-13T07:38:11.161Z</time>
      </trkpt>
      <trkpt lat="46.84473" lon="8.45101">
        <ele>2073</ele>
        <time>2021-08-13T07:38:12.161Z</time>
      </trkpt>
      <trkpt lat="46.84473" lon="8.451">
        <ele>2073</ele>
        <time>2021-08-13T07:38:13.161Z</time>
      </trkpt>
      <trkpt lat="46.84474" lon="8.451">
        <ele>2073</ele>
        <time>2021-08-13T07:38:14.161Z</time>
      </trkpt>
      <trkpt lat="46.84474" lon="8.45101">
        <ele>2072</ele>
        <time>2021-08-13T07:38:15.161Z</time>
      </trkpt>
      <trkpt lat="46.84475" lon="8.45101">
        <ele>2072</ele>
        <time>2021-08-13T07:38:16.160Z</time>
      </trkpt>
      <trkpt lat="46.84476" lon="8.45101">
        <ele>2072</ele>
        <time>2021-08-13T07:38:17.161Z</time>
      </trkpt>
      <trkpt lat="46.84477" lon="8.45101">
        <ele>2072</ele>
        <time>2021-08-13T07:38:18.161Z</time>
      </trkpt>
      <trkpt lat="46.84477" lon="8.45101">
        <ele>2072</ele>
        <time>2021-08-13T07:38:19.160Z</time>
      </trkpt>
      <trkpt lat="46.84478" lon="8.451">
        <ele>2071</ele>
        <time>2021-08-13T07:38:20.160Z</time>
      </trkpt>
      <trkpt lat="46.84479" lon="8.45099">
        <ele>2071</ele>
        <time>2021-08-13T07:38:21.161Z</time>
      </trkpt>
      <trkpt lat="46.8448" lon="8.45098">
        <ele>2071</ele>
        <time>2021-08-13T07:38:22.160Z</time>
      </trkpt>
      <trkpt lat="46.8448" lon="8.45097">
        <ele>2070</ele>
        <time>2021-08-13T07:38:23.160Z</time>
      </trkpt>
      <trkpt lat="46.8448" lon="8.45096">
        <ele>2070</ele>
        <time>2021-08-13T07:38:24.161Z</time>
      </trkpt>
      <trkpt lat="46.84481" lon="8.45095">
        <ele>2070</ele>
        <time>2021-08-13T07:38:25.160Z</time>
      </trkpt>
      <trkpt lat="46.84482" lon="8.45094">
        <ele>2070</ele>
        <time>2021-08-13T07:38:26.160Z</time>
      </trkpt>
      <trkpt lat="46.84483" lon="8.45093">
        <ele>2070</ele>
        <time>2021-08-13T07:38:27.161Z</time>
      </trkpt>
      <trkpt lat="46.84484" lon="8.45092">
        <ele>2070</ele>
        <time>2021-08-13T07:38:28.161Z</time>
      </trkpt>
      <trkpt lat="46.84485" lon="8.45091">
        <ele>2070</ele>
        <time>2021-08-13T07:38:29.160Z</time>
      </trkpt>
      <trkpt lat="46.84485" lon="8.4509">
        <ele>2071</ele>
        <time>2021-08-13T07:38:30.160Z</time>
      </trkpt>
      <trkpt lat="46.84486" lon="8.45088">
        <ele>2071</ele>
        <time>2021-08-13T07:38:31.160Z</time>
      </trkpt>
      <trkpt lat="46.84486" lon="8.45086">
        <ele>2072</ele>
        <time>2021-08-13T07:38:32.161Z</time>
      </trkpt>
      <trkpt lat="46.84487" lon="8.45085">
        <ele>2072</ele>
        <time>2021-08-13T07:38:33.161Z</time>
      </trkpt>
      <trkpt lat="46.84487" lon="8.45083">
        <ele>2073</ele>
        <time>2021-08-13T07:38:34.160Z</time>
      </trkpt>
      <trkpt lat="46.84487" lon="8.45083">
        <ele>2073</ele>
        <time>2021-08-13T07:38:35.160Z</time>
      </trkpt>
      <trkpt lat="46.84487" lon="8.45083">
        <ele>2073</ele>
        <time>2021-08-13T07:38:36.161Z</time>
      </trkpt>
      <trkpt lat="46.84488" lon="8.45083">
        <ele>2073</ele>
        <time>2021-08-13T07:38:37.161Z</time>
      </trkpt>
      <trkpt lat="46.84488" lon="8.45084">
        <ele>2073</ele>
        <time>2021-08-13T07:38:38.160Z</time>
      </trkpt>
      <trkpt lat="46.84488" lon="8.45085">
        <ele>2073</ele>
        <time>2021-08-13T07:38:39.160Z</time>
      </trkpt>
      <trkpt lat="46.84489" lon="8.45086">
        <ele>2073</ele>
        <time>2021-08-13T07:38:40.160Z</time>
      </trkpt>
      <trkpt lat="46.84489" lon="8.45087">
        <ele>2073</ele>
        <time>2021-08-13T07:38:41.161Z</time>
      </trkpt>
      <trkpt lat="46.8449" lon="8.45087">
        <ele>2072</ele>
        <time>2021-08-13T07:38:42.161Z</time>
      </trkpt>
      <trkpt lat="46.84491" lon="8.45087">
        <ele>2072</ele>
        <time>2021-08-13T07:38:43.161Z</time>
      </trkpt>
      <trkpt lat="46.84491" lon="8.45087">
        <ele>2072</ele>
        <time>2021-08-13T07:38:44.160Z</time>
      </trkpt>
      <trkpt lat="46.84492" lon="8.45087">
        <ele>2071</ele>
        <time>2021-08-13T07:38:45.161Z</time>
      </trkpt>
      <trkpt lat="46.84492" lon="8.45087">
        <ele>2071</ele>
        <time>2021-08-13T07:38:46.161Z</time>
      </trkpt>
      <trkpt lat="46.84493" lon="8.45087">
        <ele>2071</ele>
        <time>2021-08-13T07:38:47.161Z</time>
      </trkpt>
      <trkpt lat="46.84494" lon="8.45087">
        <ele>2070</ele>
        <time>2021-08-13T07:38:48.160Z</time>
      </trkpt>
      <trkpt lat="46.84495" lon="8.45087">
        <ele>2070</ele>
        <time>2021-08-13T07:38:49.161Z</time>
      </trkpt>
      <trkpt lat="46.84495" lon="8.45087">
        <ele>2070</ele>
        <time>2021-08-13T07:38:50.161Z</time>
      </trkpt>
      <trkpt lat="46.84496" lon="8.45087">
        <ele>2070</ele>
        <time>2021-08-13T07:38:51.160Z</time>
      </trkpt>
      <trkpt lat="46.84497" lon="8.45087">
        <ele>2070</ele>
        <time>2021-08-13T07:38:52.161Z</time>
      </trkpt>
      <trkpt lat="46.84498" lon="8.45087">
        <ele>2070</ele>
        <time>2021-08-13T07:38:53.160Z</time>
      </trkpt>
      <trkpt lat="46.84498" lon="8.45087">
        <ele>2069</ele>
        <time>2021-08-13T07:38:54.161Z</time>
      </trkpt>
      <trkpt lat="46.84499" lon="8.45086">
        <ele>2070</ele>
        <time>2021-08-13T07:38:55.161Z</time>
      </trkpt>
      <trkpt lat="46.84499" lon="8.45087">
        <ele>2070</ele>
        <time>2021-08-13T07:38:56.161Z</time>
      </trkpt>
      <trkpt lat="46.845" lon="8.45087">
        <ele>2070</ele>
        <time>2021-08-13T07:38:57.160Z</time>
      </trkpt>
      <trkpt lat="46.84501" lon="8.45087">
        <ele>2069</ele>
        <time>2021-08-13T07:38:58.161Z</time>
      </trkpt>
      <trkpt lat="46.84502" lon="8.45086">
        <ele>2069</ele>
        <time>2021-08-13T07:38:59.161Z</time>
      </trkpt>
      <trkpt lat="46.84503" lon="8.45086">
        <ele>2069</ele>
        <time>2021-08-13T07:39:00.160Z</time>
      </trkpt>
      <trkpt lat="46.84504" lon="8.45085">
        <ele>2069</ele>
        <time>2021-08-13T07:39:01.160Z</time>
      </trkpt>
      <trkpt lat="46.84506" lon="8.45085">
        <ele>2069</ele>
        <time>2021-08-13T07:39:02.160Z</time>
      </trkpt>
      <trkpt lat="46.84507" lon="8.45086">
        <ele>2069</ele>
        <time>2021-08-13T07:39:03.160Z</time>
      </trkpt>
      <trkpt lat="46.84508" lon="8.45086">
        <ele>2069</ele>
        <time>2021-08-13T07:39:04.161Z</time>
      </trkpt>
      <trkpt lat="46.84508" lon="8.45086">
        <ele>2069</ele>
        <time>2021-08-13T07:39:05.160Z</time>
      </trkpt>
      <trkpt lat="46.84509" lon="8.45087">
        <ele>2069</ele>
        <time>2021-08-13T07:39:06.160Z</time>
      </trkpt>
      <trkpt lat="46.8451" lon="8.45086">
        <ele>2068</ele>
        <time>2021-08-13T07:39:07.160Z</time>
      </trkpt>
      <trkpt lat="46.84511" lon="8.45086">
        <ele>2068</ele>
        <time>2021-08-13T07:39:08.160Z</time>
      </trkpt>
      <trkpt lat="46.84512" lon="8.45086">
        <ele>2067</ele>
        <time>2021-08-13T07:39:09.160Z</time>
      </trkpt>
      <trkpt lat="46.84513" lon="8.45086">
        <ele>2067</ele>
        <time>2021-08-13T07:39:10.160Z</time>
      </trkpt>
      <trkpt lat="46.84514" lon="8.45086">
        <ele>2066</ele>
        <time>2021-08-13T07:39:11.160Z</time>
      </trkpt>
      <trkpt lat="46.84515" lon="8.45086">
        <ele>2065</ele>
        <time>2021-08-13T07:39:12.161Z</time>
      </trkpt>
      <trkpt lat="46.84515" lon="8.45085">
        <ele>2065</ele>
        <time>2021-08-13T07:39:13.160Z</time>
      </trkpt>
      <trkpt lat="46.84516" lon="8.45084">
        <ele>2065</ele>
        <time>2021-08-13T07:39:14.161Z</time>
      </trkpt>
      <trkpt lat="46.84516" lon="8.45084">
        <ele>2065</ele>
        <time>2021-08-13T07:39:15.161Z</time>
      </trkpt>
      <trkpt lat="46.84517" lon="8.45082">
        <ele>2064</ele>
        <time>2021-08-13T07:39:16.161Z</time>
      </trkpt>
      <trkpt lat="46.84517" lon="8.45081">
        <ele>2063</ele>
        <time>2021-08-13T07:39:17.161Z</time>
      </trkpt>
      <trkpt lat="46.84517" lon="8.45079">
        <ele>2063</ele>
        <time>2021-08-13T07:39:18.161Z</time>
      </trkpt>
      <trkpt lat="46.84517" lon="8.45078">
        <ele>2063</ele>
        <time>2021-08-13T07:39:19.160Z</time>
      </trkpt>
      <trkpt lat="46.84518" lon="8.45077">
        <ele>2063</ele>
        <time>2021-08-13T07:39:20.161Z</time>
      </trkpt>
      <trkpt lat="46.84518" lon="8.45075">
        <ele>2063</ele>
        <time>2021-08-13T07:39:21.161Z</time>
      </trkpt>
      <trkpt lat="46.84518" lon="8.45074">
        <ele>2063</ele>
        <time>2021-08-13T07:39:22.161Z</time>
      </trkpt>
      <trkpt lat="46.84519" lon="8.45072">
        <ele>2062</ele>
        <time>2021-08-13T07:39:23.161Z</time>
      </trkpt>
      <trkpt lat="46.84519" lon="8.45071">
        <ele>2062</ele>
        <time>2021-08-13T07:39:24.161Z</time>
      </trkpt>
      <trkpt lat="46.8452" lon="8.45069">
        <ele>2062</ele>
        <time>2021-08-13T07:39:25.161Z</time>
      </trkpt>
      <trkpt lat="46.84521" lon="8.45068">
        <ele>2062</ele>
        <time>2021-08-13T07:39:26.161Z</time>
      </trkpt>
      <trkpt lat="46.84522" lon="8.45066">
        <ele>2061</ele>
        <time>2021-08-13T07:39:27.160Z</time>
      </trkpt>
      <trkpt lat="46.84523" lon="8.45065">
        <ele>2061</ele>
        <time>2021-08-13T07:39:28.160Z</time>
      </trkpt>
      <trkpt lat="46.84524" lon="8.45064">
        <ele>2061</ele>
        <time>2021-08-13T07:39:29.161Z</time>
      </trkpt>
      <trkpt lat="46.84524" lon="8.45062">
        <ele>2061</ele>
        <time>2021-08-13T07:39:30.161Z</time>
      </trkpt>
      <trkpt lat="46.84525" lon="8.45061">
        <ele>2061</ele>
        <time>2021-08-13T07:39:31.161Z</time>
      </trkpt>
      <trkpt lat="46.84526" lon="8.4506">
        <ele>2060</ele>
        <time>2021-08-13T07:39:32.161Z</time>
      </trkpt>
      <trkpt lat="46.84526" lon="8.45059">
        <ele>2060</ele>
        <time>2021-08-13T07:39:33.160Z</time>
      </trkpt>
      <trkpt lat="46.84527" lon="8.45057">
        <ele>2060</ele>
        <time>2021-08-13T07:39:34.161Z</time>
      </trkpt>
      <trkpt lat="46.84527" lon="8.45056">
        <ele>2060</ele>
        <time>2021-08-13T07:39:35.161Z</time>
      </trkpt>
      <trkpt lat="46.84528" lon="8.45055">
        <ele>2060</ele>
        <time>2021-08-13T07:39:36.161Z</time>
      </trkpt>
      <trkpt lat="46.84528" lon="8.45054">
        <ele>2060</ele>
        <time>2021-08-13T07:39:37.160Z</time>
      </trkpt>
      <trkpt lat="46.84528" lon="8.45053">
        <ele>2060</ele>
        <time>2021-08-13T07:39:38.161Z</time>
      </trkpt>
      <trkpt lat="46.84529" lon="8.45053">
        <ele>2060</ele>
        <time>2021-08-13T07:39:39.161Z</time>
      </trkpt>
      <trkpt lat="46.8453" lon="8.45053">
        <ele>2060</ele>
        <time>2021-08-13T07:39:40.160Z</time>
      </trkpt>
      <trkpt lat="46.8453" lon="8.45052">
        <ele>2060</ele>
        <time>2021-08-13T07:39:41.161Z</time>
      </trkpt>
      <trkpt lat="46.8453" lon="8.45051">
        <ele>2060</ele>
        <time>2021-08-13T07:39:42.161Z</time>
      </trkpt>
      <trkpt lat="46.84531" lon="8.4505">
        <ele>2060</ele>
        <time>2021-08-13T07:39:43.161Z</time>
      </trkpt>
      <trkpt lat="46.84531" lon="8.45049">
        <ele>2060</ele>
        <time>2021-08-13T07:39:44.161Z</time>
      </trkpt>
      <trkpt lat="46.84531" lon="8.45048">
        <ele>2059</ele>
        <time>2021-08-13T07:39:45.161Z</time>
      </trkpt>
      <trkpt lat="46.84531" lon="8.45048">
        <ele>2059</ele>
        <time>2021-08-13T07:39:46.161Z</time>
      </trkpt>
      <trkpt lat="46.84531" lon="8.45047">
        <ele>2059</ele>
        <time>2021-08-13T07:39:47.160Z</time>
      </trkpt>
      <trkpt lat="46.84531" lon="8.45046">
        <ele>2058</ele>
        <time>2021-08-13T07:39:48.161Z</time>
      </trkpt>
      <trkpt lat="46.84531" lon="8.45045">
        <ele>2057</ele>
        <time>2021-08-13T07:39:49.161Z</time>
      </trkpt>
      <trkpt lat="46.84531" lon="8.45044">
        <ele>2057</ele>
        <time>2021-08-13T07:39:50.160Z</time>
      </trkpt>
      <trkpt lat="46.84532" lon="8.45043">
        <ele>2056</ele>
        <time>2021-08-13T07:39:51.160Z</time>
      </trkpt>
      <trkpt lat="46.84532" lon="8.45042">
        <ele>2056</ele>
        <time>2021-08-13T07:39:52.161Z</time>
      </trkpt>
      <trkpt lat="46.84532" lon="8.45041">
        <ele>2055</ele>
        <time>2021-08-13T07:39:53.161Z</time>
      </trkpt>
      <trkpt lat="46.84532" lon="8.45041">
        <ele>2055</ele>
        <time>2021-08-13T07:39:54.161Z</time>
      </trkpt>
      <trkpt lat="46.84533" lon="8.4504">
        <ele>2055</ele>
        <time>2021-08-13T07:39:55.160Z</time>
      </trkpt>
      <trkpt lat="46.84533" lon="8.4504">
        <ele>2054</ele>
        <time>2021-08-13T07:39:56.160Z</time>
      </trkpt>
      <trkpt lat="46.84533" lon="8.45039">
        <ele>2054</ele>
        <time>2021-08-13T07:39:57.161Z</time>
      </trkpt>
      <trkpt lat="46.84533" lon="8.45038">
        <ele>2054</ele>
        <time>2021-08-13T07:39:58.160Z</time>
      </trkpt>
      <trkpt lat="46.84533" lon="8.45037">
        <ele>2054</ele>
        <time>2021-08-13T07:39:59.160Z</time>
      </trkpt>
      <trkpt lat="46.84533" lon="8.45037">
        <ele>2054</ele>
        <time>2021-08-13T07:40:00.161Z</time>
      </trkpt>
      <trkpt lat="46.84534" lon="8.45036">
        <ele>2054</ele>
        <time>2021-08-13T07:40:01.160Z</time>
      </trkpt>
      <trkpt lat="46.84534" lon="8.45035">
        <ele>2054</ele>
        <time>2021-08-13T07:40:02.161Z</time>
      </trkpt>
      <trkpt lat="46.84534" lon="8.45034">
        <ele>2054</ele>
        <time>2021-08-13T07:40:03.161Z</time>
      </trkpt>
      <trkpt lat="46.84535" lon="8.45033">
        <ele>2054</ele>
        <time>2021-08-13T07:40:04.160Z</time>
      </trkpt>
      <trkpt lat="46.84535" lon="8.45032">
        <ele>2054</ele>
        <time>2021-08-13T07:40:05.160Z</time>
      </trkpt>
      <trkpt lat="46.84536" lon="8.4503">
        <ele>2053</ele>
        <time>2021-08-13T07:40:06.161Z</time>
      </trkpt>
      <trkpt lat="46.84536" lon="8.45029">
        <ele>2053</ele>
        <time>2021-08-13T07:40:07.161Z</time>
      </trkpt>
      <trkpt lat="46.84537" lon="8.45028">
        <ele>2053</ele>
        <time>2021-08-13T07:40:08.160Z</time>
      </trkpt>
      <trkpt lat="46.84537" lon="8.45027">
        <ele>2053</ele>
        <time>2021-08-13T07:40:09.161Z</time>
      </trkpt>
      <trkpt lat="46.84537" lon="8.45026">
        <ele>2052</ele>
        <time>2021-08-13T07:40:10.160Z</time>
      </trkpt>
      <trkpt lat="46.84538" lon="8.45025">
        <ele>2052</ele>
        <time>2021-08-13T07:40:11.161Z</time>
      </trkpt>
      <trkpt lat="46.84538" lon="8.45023">
        <ele>2052</ele>
        <time>2021-08-13T07:40:12.160Z</time>
      </trkpt>
      <trkpt lat="46.84538" lon="8.45022">
        <ele>2052</ele>
        <time>2021-08-13T07:40:13.161Z</time>
      </trkpt>
      <trkpt lat="46.84538" lon="8.4502">
        <ele>2051</ele>
        <time>2021-08-13T07:40:14.160Z</time>
      </trkpt>
      <trkpt lat="46.84538" lon="8.45018">
        <ele>2051</ele>
        <time>2021-08-13T07:40:15.161Z</time>
      </trkpt>
      <trkpt lat="46.84539" lon="8.45016">
        <ele>2051</ele>
        <time>2021-08-13T07:40:16.161Z</time>
      </trkpt>
      <trkpt lat="46.84539" lon="8.45014">
        <ele>2051</ele>
        <time>2021-08-13T07:40:17.161Z</time>
      </trkpt>
      <trkpt lat="46.84539" lon="8.45012">
        <ele>2051</ele>
        <time>2021-08-13T07:40:18.161Z</time>
      </trkpt>
      <trkpt lat="46.84539" lon="8.4501">
        <ele>2051</ele>
        <time>2021-08-13T07:40:19.160Z</time>
      </trkpt>
      <trkpt lat="46.8454" lon="8.45009">
        <ele>2051</ele>
        <time>2021-08-13T07:40:20.161Z</time>
      </trkpt>
      <trkpt lat="46.84539" lon="8.45007">
        <ele>2051</ele>
        <time>2021-08-13T07:40:21.161Z</time>
      </trkpt>
      <trkpt lat="46.8454" lon="8.45006">
        <ele>2051</ele>
        <time>2021-08-13T07:40:22.161Z</time>
      </trkpt>
      <trkpt lat="46.8454" lon="8.45005">
        <ele>2051</ele>
        <time>2021-08-13T07:40:23.161Z</time>
      </trkpt>
      <trkpt lat="46.8454" lon="8.45004">
        <ele>2051</ele>
        <time>2021-08-13T07:40:24.160Z</time>
      </trkpt>
      <trkpt lat="46.8454" lon="8.45002">
        <ele>2051</ele>
        <time>2021-08-13T07:40:25.161Z</time>
      </trkpt>
      <trkpt lat="46.8454" lon="8.45001">
        <ele>2051</ele>
        <time>2021-08-13T07:40:26.160Z</time>
      </trkpt>
      <trkpt lat="46.8454" lon="8.45">
        <ele>2051</ele>
        <time>2021-08-13T07:40:27.160Z</time>
      </trkpt>
      <trkpt lat="46.8454" lon="8.44999">
        <ele>2051</ele>
        <time>2021-08-13T07:40:28.161Z</time>
      </trkpt>
      <trkpt lat="46.8454" lon="8.44998">
        <ele>2051</ele>
        <time>2021-08-13T07:40:29.161Z</time>
      </trkpt>
      <trkpt lat="46.8454" lon="8.44996">
        <ele>2051</ele>
        <time>2021-08-13T07:40:30.161Z</time>
      </trkpt>
      <trkpt lat="46.84541" lon="8.44995">
        <ele>2051</ele>
        <time>2021-08-13T07:40:31.160Z</time>
      </trkpt>
      <trkpt lat="46.84541" lon="8.44993">
        <ele>2050</ele>
        <time>2021-08-13T07:40:32.160Z</time>
      </trkpt>
      <trkpt lat="46.84541" lon="8.44992">
        <ele>2050</ele>
        <time>2021-08-13T07:40:33.160Z</time>
      </trkpt>
      <trkpt lat="46.84541" lon="8.4499">
        <ele>2050</ele>
        <time>2021-08-13T07:40:34.160Z</time>
      </trkpt>
      <trkpt lat="46.84541" lon="8.44989">
        <ele>2050</ele>
        <time>2021-08-13T07:40:35.160Z</time>
      </trkpt>
      <trkpt lat="46.84541" lon="8.44988">
        <ele>2049</ele>
        <time>2021-08-13T07:40:36.161Z</time>
      </trkpt>
      <trkpt lat="46.84542" lon="8.44986">
        <ele>2049</ele>
        <time>2021-08-13T07:40:37.161Z</time>
      </trkpt>
      <trkpt lat="46.84542" lon="8.44985">
        <ele>2050</ele>
        <time>2021-08-13T07:40:38.161Z</time>
      </trkpt>
      <trkpt lat="46.84542" lon="8.44984">
        <ele>2050</ele>
        <time>2021-08-13T07:40:39.161Z</time>
      </trkpt>
      <trkpt lat="46.84542" lon="8.44983">
        <ele>2050</ele>
        <time>2021-08-13T07:40:40.161Z</time>
      </trkpt>
      <trkpt lat="46.84542" lon="8.44981">
        <ele>2049</ele>
        <time>2021-08-13T07:40:41.161Z</time>
      </trkpt>
      <trkpt lat="46.84543" lon="8.4498">
        <ele>2049</ele>
        <time>2021-08-13T07:40:42.161Z</time>
      </trkpt>
      <trkpt lat="46.84543" lon="8.44979">
        <ele>2048</ele>
        <time>2021-08-13T07:40:43.161Z</time>
      </trkpt>
      <trkpt lat="46.84543" lon="8.44978">
        <ele>2048</ele>
        <time>2021-08-13T07:40:44.161Z</time>
      </trkpt>
      <trkpt lat="46.84543" lon="8.44976">
        <ele>2047</ele>
        <time>2021-08-13T07:40:45.161Z</time>
      </trkpt>
      <trkpt lat="46.84543" lon="8.44975">
        <ele>2047</ele>
        <time>2021-08-13T07:40:46.161Z</time>
      </trkpt>
      <trkpt lat="46.84543" lon="8.44974">
        <ele>2046</ele>
        <time>2021-08-13T07:40:47.160Z</time>
      </trkpt>
      <trkpt lat="46.84543" lon="8.44973">
        <ele>2046</ele>
        <time>2021-08-13T07:40:48.161Z</time>
      </trkpt>
      <trkpt lat="46.84543" lon="8.44972">
        <ele>2045</ele>
        <time>2021-08-13T07:40:49.161Z</time>
      </trkpt>
      <trkpt lat="46.84544" lon="8.44971">
        <ele>2045</ele>
        <time>2021-08-13T07:40:50.161Z</time>
      </trkpt>
      <trkpt lat="46.84544" lon="8.4497">
        <ele>2044</ele>
        <time>2021-08-13T07:40:51.161Z</time>
      </trkpt>
      <trkpt lat="46.84545" lon="8.44968">
        <ele>2044</ele>
        <time>2021-08-13T07:40:52.161Z</time>
      </trkpt>
      <trkpt lat="46.84545" lon="8.44967">
        <ele>2044</ele>
        <time>2021-08-13T07:40:53.161Z</time>
      </trkpt>
      <trkpt lat="46.84546" lon="8.44966">
        <ele>2044</ele>
        <time>2021-08-13T07:40:54.160Z</time>
      </trkpt>
      <trkpt lat="46.84546" lon="8.44964">
        <ele>2044</ele>
        <time>2021-08-13T07:40:55.160Z</time>
      </trkpt>
      <trkpt lat="46.84546" lon="8.44963">
        <ele>2044</ele>
        <time>2021-08-13T07:40:56.161Z</time>
      </trkpt>
      <trkpt lat="46.84546" lon="8.44962">
        <ele>2044</ele>
        <time>2021-08-13T07:40:57.161Z</time>
      </trkpt>
      <trkpt lat="46.84546" lon="8.4496">
        <ele>2045</ele>
        <time>2021-08-13T07:40:58.161Z</time>
      </trkpt>
      <trkpt lat="46.84547" lon="8.44959">
        <ele>2045</ele>
        <time>2021-08-13T07:40:59.161Z</time>
      </trkpt>
      <trkpt lat="46.84547" lon="8.44958">
        <ele>2045</ele>
        <time>2021-08-13T07:41:00.161Z</time>
      </trkpt>
      <trkpt lat="46.84547" lon="8.44957">
        <ele>2045</ele>
        <time>2021-08-13T07:41:01.161Z</time>
      </trkpt>
      <trkpt lat="46.84548" lon="8.44956">
        <ele>2044</ele>
        <time>2021-08-13T07:41:02.161Z</time>
      </trkpt>
      <trkpt lat="46.84548" lon="8.44955">
        <ele>2044</ele>
        <time>2021-08-13T07:41:03.160Z</time>
      </trkpt>
      <trkpt lat="46.84548" lon="8.44954">
        <ele>2044</ele>
        <time>2021-08-13T07:41:04.161Z</time>
      </trkpt>
      <trkpt lat="46.84548" lon="8.44952">
        <ele>2043</ele>
        <time>2021-08-13T07:41:05.160Z</time>
      </trkpt>
      <trkpt lat="46.84549" lon="8.44951">
        <ele>2043</ele>
        <time>2021-08-13T07:41:06.161Z</time>
      </trkpt>
      <trkpt lat="46.84549" lon="8.44949">
        <ele>2044</ele>
        <time>2021-08-13T07:41:07.161Z</time>
      </trkpt>
      <trkpt lat="46.84549" lon="8.44948">
        <ele>2044</ele>
        <time>2021-08-13T07:41:08.161Z</time>
      </trkpt>
      <trkpt lat="46.84549" lon="8.44946">
        <ele>2044</ele>
        <time>2021-08-13T07:41:09.161Z</time>
      </trkpt>
      <trkpt lat="46.84549" lon="8.44945">
        <ele>2044</ele>
        <time>2021-08-13T07:41:10.160Z</time>
      </trkpt>
      <trkpt lat="46.84549" lon="8.44944">
        <ele>2045</ele>
        <time>2021-08-13T07:41:11.160Z</time>
      </trkpt>
      <trkpt lat="46.84549" lon="8.44943">
        <ele>2045</ele>
        <time>2021-08-13T07:41:12.160Z</time>
      </trkpt>
      <trkpt lat="46.84549" lon="8.44941">
        <ele>2046</ele>
        <time>2021-08-13T07:41:13.160Z</time>
      </trkpt>
      <trkpt lat="46.8455" lon="8.4494">
        <ele>2046</ele>
        <time>2021-08-13T07:41:14.160Z</time>
      </trkpt>
      <trkpt lat="46.8455" lon="8.44939">
        <ele>2046</ele>
        <time>2021-08-13T07:41:15.161Z</time>
      </trkpt>
      <trkpt lat="46.84551" lon="8.44938">
        <ele>2046</ele>
        <time>2021-08-13T07:41:16.160Z</time>
      </trkpt>
      <trkpt lat="46.84551" lon="8.44936">
        <ele>2046</ele>
        <time>2021-08-13T07:41:17.161Z</time>
      </trkpt>
      <trkpt lat="46.84551" lon="8.44935">
        <ele>2046</ele>
        <time>2021-08-13T07:41:18.160Z</time>
      </trkpt>
      <trkpt lat="46.84552" lon="8.44933">
        <ele>2045</ele>
        <time>2021-08-13T07:41:19.161Z</time>
      </trkpt>
      <trkpt lat="46.84552" lon="8.44932">
        <ele>2045</ele>
        <time>2021-08-13T07:41:20.160Z</time>
      </trkpt>
      <trkpt lat="46.84552" lon="8.44931">
        <ele>2045</ele>
        <time>2021-08-13T07:41:21.160Z</time>
      </trkpt>
      <trkpt lat="46.84552" lon="8.4493">
        <ele>2044</ele>
        <time>2021-08-13T07:41:22.160Z</time>
      </trkpt>
      <trkpt lat="46.84552" lon="8.44928">
        <ele>2044</ele>
        <time>2021-08-13T07:41:23.160Z</time>
      </trkpt>
      <trkpt lat="46.84552" lon="8.44927">
        <ele>2043</ele>
        <time>2021-08-13T07:41:24.160Z</time>
      </trkpt>
      <trkpt lat="46.84552" lon="8.44926">
        <ele>2043</ele>
        <time>2021-08-13T07:41:25.161Z</time>
      </trkpt>
      <trkpt lat="46.84552" lon="8.44926">
        <ele>2042</ele>
        <time>2021-08-13T07:41:26.160Z</time>
      </trkpt>
      <trkpt lat="46.84553" lon="8.44925">
        <ele>2042</ele>
        <time>2021-08-13T07:41:27.160Z</time>
      </trkpt>
      <trkpt lat="46.84553" lon="8.44924">
        <ele>2041</ele>
        <time>2021-08-13T07:41:28.160Z</time>
      </trkpt>
      <trkpt lat="46.84553" lon="8.44922">
        <ele>2041</ele>
        <time>2021-08-13T07:41:29.160Z</time>
      </trkpt>
      <trkpt lat="46.84553" lon="8.44921">
        <ele>2041</ele>
        <time>2021-08-13T07:41:30.160Z</time>
      </trkpt>
      <trkpt lat="46.84554" lon="8.4492">
        <ele>2040</ele>
        <time>2021-08-13T07:41:31.161Z</time>
      </trkpt>
      <trkpt lat="46.84555" lon="8.44919">
        <ele>2040</ele>
        <time>2021-08-13T07:41:32.161Z</time>
      </trkpt>
      <trkpt lat="46.84555" lon="8.44918">
        <ele>2039</ele>
        <time>2021-08-13T07:41:33.161Z</time>
      </trkpt>
      <trkpt lat="46.84555" lon="8.44917">
        <ele>2038</ele>
        <time>2021-08-13T07:41:34.160Z</time>
      </trkpt>
      <trkpt lat="46.84556" lon="8.44916">
        <ele>2037</ele>
        <time>2021-08-13T07:41:35.161Z</time>
      </trkpt>
      <trkpt lat="46.84556" lon="8.44915">
        <ele>2037</ele>
        <time>2021-08-13T07:41:36.160Z</time>
      </trkpt>
      <trkpt lat="46.84556" lon="8.44913">
        <ele>2036</ele>
        <time>2021-08-13T07:41:37.161Z</time>
      </trkpt>
      <trkpt lat="46.84557" lon="8.44912">
        <ele>2035</ele>
        <time>2021-08-13T07:41:38.161Z</time>
      </trkpt>
      <trkpt lat="46.84557" lon="8.44911">
        <ele>2035</ele>
        <time>2021-08-13T07:41:39.161Z</time>
      </trkpt>
      <trkpt lat="46.84557" lon="8.4491">
        <ele>2034</ele>
        <time>2021-08-13T07:41:40.161Z</time>
      </trkpt>
      <trkpt lat="46.84557" lon="8.44908">
        <ele>2034</ele>
        <time>2021-08-13T07:41:41.161Z</time>
      </trkpt>
      <trkpt lat="46.84557" lon="8.44907">
        <ele>2033</ele>
        <time>2021-08-13T07:41:42.161Z</time>
      </trkpt>
      <trkpt lat="46.84557" lon="8.44906">
        <ele>2033</ele>
        <time>2021-08-13T07:41:43.160Z</time>
      </trkpt>
      <trkpt lat="46.84558" lon="8.44904">
        <ele>2033</ele>
        <time>2021-08-13T07:41:44.160Z</time>
      </trkpt>
      <trkpt lat="46.84558" lon="8.44903">
        <ele>2033</ele>
        <time>2021-08-13T07:41:45.161Z</time>
      </trkpt>
      <trkpt lat="46.84558" lon="8.44902">
        <ele>2033</ele>
        <time>2021-08-13T07:41:46.161Z</time>
      </trkpt>
      <trkpt lat="46.84558" lon="8.449">
        <ele>2033</ele>
        <time>2021-08-13T07:41:47.161Z</time>
      </trkpt>
      <trkpt lat="46.84558" lon="8.44899">
        <ele>2033</ele>
        <time>2021-08-13T07:41:48.161Z</time>
      </trkpt>
      <trkpt lat="46.84558" lon="8.44897">
        <ele>2033</ele>
        <time>2021-08-13T07:41:49.161Z</time>
      </trkpt>
      <trkpt lat="46.84559" lon="8.44896">
        <ele>2033</ele>
        <time>2021-08-13T07:41:50.160Z</time>
      </trkpt>
      <trkpt lat="46.84559" lon="8.44895">
        <ele>2033</ele>
        <time>2021-08-13T07:41:51.161Z</time>
      </trkpt>
      <trkpt lat="46.8456" lon="8.44893">
        <ele>2033</ele>
        <time>2021-08-13T07:41:52.161Z</time>
      </trkpt>
      <trkpt lat="46.8456" lon="8.44891">
        <ele>2033</ele>
        <time>2021-08-13T07:41:53.161Z</time>
      </trkpt>
      <trkpt lat="46.8456" lon="8.4489">
        <ele>2033</ele>
        <time>2021-08-13T07:41:54.161Z</time>
      </trkpt>
      <trkpt lat="46.84561" lon="8.44889">
        <ele>2033</ele>
        <time>2021-08-13T07:41:55.161Z</time>
      </trkpt>
      <trkpt lat="46.84561" lon="8.44888">
        <ele>2033</ele>
        <time>2021-08-13T07:41:56.161Z</time>
      </trkpt>
      <trkpt lat="46.84561" lon="8.44888">
        <ele>2033</ele>
        <time>2021-08-13T07:41:57.160Z</time>
      </trkpt>
      <trkpt lat="46.84562" lon="8.44887">
        <ele>2033</ele>
        <time>2021-08-13T07:41:58.161Z</time>
      </trkpt>
      <trkpt lat="46.84562" lon="8.44886">
        <ele>2033</ele>
        <time>2021-08-13T07:41:59.160Z</time>
      </trkpt>
      <trkpt lat="46.84562" lon="8.44885">
        <ele>2033</ele>
        <time>2021-08-13T07:42:00.161Z</time>
      </trkpt>
      <trkpt lat="46.84562" lon="8.44884">
        <ele>2033</ele>
        <time>2021-08-13T07:42:01.160Z</time>
      </trkpt>
      <trkpt lat="46.84562" lon="8.44883">
        <ele>2032</ele>
        <time>2021-08-13T07:42:02.161Z</time>
      </trkpt>
      <trkpt lat="46.84562" lon="8.44882">
        <ele>2032</ele>
        <time>2021-08-13T07:42:03.160Z</time>
      </trkpt>
      <trkpt lat="46.84562" lon="8.44881">
        <ele>2032</ele>
        <time>2021-08-13T07:42:04.160Z</time>
      </trkpt>
      <trkpt lat="46.84562" lon="8.4488">
        <ele>2032</ele>
        <time>2021-08-13T07:42:05.161Z</time>
      </trkpt>
      <trkpt lat="46.84562" lon="8.44879">
        <ele>2031</ele>
        <time>2021-08-13T07:42:06.161Z</time>
      </trkpt>
      <trkpt lat="46.84562" lon="8.44878">
        <ele>2031</ele>
        <time>2021-08-13T07:42:07.161Z</time>
      </trkpt>
      <trkpt lat="46.84562" lon="8.44877">
        <ele>2031</ele>
        <time>2021-08-13T07:42:08.161Z</time>
      </trkpt>
      <trkpt lat="46.84562" lon="8.44875">
        <ele>2030</ele>
        <time>2021-08-13T07:42:09.161Z</time>
      </trkpt>
      <trkpt lat="46.84562" lon="8.44875">
        <ele>2030</ele>
        <time>2021-08-13T07:42:10.161Z</time>
      </trkpt>
      <trkpt lat="46.84562" lon="8.44874">
        <ele>2030</ele>
        <time>2021-08-13T07:42:11.160Z</time>
      </trkpt>
      <trkpt lat="46.84563" lon="8.44873">
        <ele>2030</ele>
        <time>2021-08-13T07:42:12.160Z</time>
      </trkpt>
      <trkpt lat="46.84563" lon="8.44872">
        <ele>2030</ele>
        <time>2021-08-13T07:42:13.160Z</time>
      </trkpt>
      <trkpt lat="46.84564" lon="8.4487">
        <ele>2030</ele>
        <time>2021-08-13T07:42:14.161Z</time>
      </trkpt>
      <trkpt lat="46.84564" lon="8.4487">
        <ele>2030</ele>
        <time>2021-08-13T07:42:15.161Z</time>
      </trkpt>
      <trkpt lat="46.84564" lon="8.44869">
        <ele>2030</ele>
        <time>2021-08-13T07:42:16.160Z</time>
      </trkpt>
      <trkpt lat="46.84565" lon="8.44868">
        <ele>2029</ele>
        <time>2021-08-13T07:42:17.160Z</time>
      </trkpt>
      <trkpt lat="46.84566" lon="8.44867">
        <ele>2029</ele>
        <time>2021-08-13T07:42:18.161Z</time>
      </trkpt>
      <trkpt lat="46.84567" lon="8.44866">
        <ele>2029</ele>
        <time>2021-08-13T07:42:19.161Z</time>
      </trkpt>
      <trkpt lat="46.84567" lon="8.44865">
        <ele>2030</ele>
        <time>2021-08-13T07:42:20.160Z</time>
      </trkpt>
      <trkpt lat="46.84568" lon="8.44864">
        <ele>2030</ele>
        <time>2021-08-13T07:42:21.161Z</time>
      </trkpt>
      <trkpt lat="46.84568" lon="8.44863">
        <ele>2030</ele>
        <time>2021-08-13T07:42:22.161Z</time>
      </trkpt>
      <trkpt lat="46.84568" lon="8.44861">
        <ele>2030</ele>
        <time>2021-08-13T07:42:23.161Z</time>
      </trkpt>
      <trkpt lat="46.84568" lon="8.4486">
        <ele>2030</ele>
        <time>2021-08-13T07:42:24.161Z</time>
      </trkpt>
      <trkpt lat="46.84567" lon="8.44859">
        <ele>2030</ele>
        <time>2021-08-13T07:42:25.161Z</time>
      </trkpt>
      <trkpt lat="46.84567" lon="8.44857">
        <ele>2030</ele>
        <time>2021-08-13T07:42:26.161Z</time>
      </trkpt>
      <trkpt lat="46.84566" lon="8.44856">
        <ele>2030</ele>
        <time>2021-08-13T07:42:27.160Z</time>
      </trkpt>
      <trkpt lat="46.84566" lon="8.44855">
        <ele>2030</ele>
        <time>2021-08-13T07:42:28.160Z</time>
      </trkpt>
      <trkpt lat="46.84566" lon="8.44853">
        <ele>2029</ele>
        <time>2021-08-13T07:42:29.161Z</time>
      </trkpt>
      <trkpt lat="46.84565" lon="8.44851">
        <ele>2029</ele>
        <time>2021-08-13T07:42:30.160Z</time>
      </trkpt>
      <trkpt lat="46.84565" lon="8.4485">
        <ele>2028</ele>
        <time>2021-08-13T07:42:31.160Z</time>
      </trkpt>
      <trkpt lat="46.84565" lon="8.44848">
        <ele>2028</ele>
        <time>2021-08-13T07:42:32.161Z</time>
      </trkpt>
      <trkpt lat="46.84565" lon="8.44847">
        <ele>2028</ele>
        <time>2021-08-13T07:42:33.161Z</time>
      </trkpt>
      <trkpt lat="46.84566" lon="8.44846">
        <ele>2028</ele>
        <time>2021-08-13T07:42:34.161Z</time>
      </trkpt>
      <trkpt lat="46.84566" lon="8.44845">
        <ele>2028</ele>
        <time>2021-08-13T07:42:35.161Z</time>
      </trkpt>
      <trkpt lat="46.84566" lon="8.44844">
        <ele>2028</ele>
        <time>2021-08-13T07:42:36.161Z</time>
      </trkpt>
      <trkpt lat="46.84566" lon="8.44843">
        <ele>2028</ele>
        <time>2021-08-13T07:42:37.161Z</time>
      </trkpt>
      <trkpt lat="46.84566" lon="8.44842">
        <ele>2028</ele>
        <time>2021-08-13T07:42:38.160Z</time>
      </trkpt>
      <trkpt lat="46.84566" lon="8.44841">
        <ele>2029</ele>
        <time>2021-08-13T07:42:39.160Z</time>
      </trkpt>
      <trkpt lat="46.84566" lon="8.4484">
        <ele>2029</ele>
        <time>2021-08-13T07:42:40.160Z</time>
      </trkpt>
      <trkpt lat="46.84566" lon="8.44839">
        <ele>2029</ele>
        <time>2021-08-13T07:42:41.161Z</time>
      </trkpt>
      <trkpt lat="46.84566" lon="8.44838">
        <ele>2029</ele>
        <time>2021-08-13T07:42:42.161Z</time>
      </trkpt>
      <trkpt lat="46.84566" lon="8.44837">
        <ele>2029</ele>
        <time>2021-08-13T07:42:43.161Z</time>
      </trkpt>
      <trkpt lat="46.84567" lon="8.44835">
        <ele>2028</ele>
        <time>2021-08-13T07:42:44.161Z</time>
      </trkpt>
      <trkpt lat="46.84568" lon="8.44835">
        <ele>2028</ele>
        <time>2021-08-13T07:42:45.161Z</time>
      </trkpt>
      <trkpt lat="46.84568" lon="8.44834">
        <ele>2028</ele>
        <time>2021-08-13T07:42:46.160Z</time>
      </trkpt>
      <trkpt lat="46.84569" lon="8.44832">
        <ele>2027</ele>
        <time>2021-08-13T07:42:47.161Z</time>
      </trkpt>
      <trkpt lat="46.84569" lon="8.44831">
        <ele>2026</ele>
        <time>2021-08-13T07:42:48.160Z</time>
      </trkpt>
      <trkpt lat="46.8457" lon="8.4483">
        <ele>2026</ele>
        <time>2021-08-13T07:42:49.161Z</time>
      </trkpt>
      <trkpt lat="46.8457" lon="8.44828">
        <ele>2025</ele>
        <time>2021-08-13T07:42:50.161Z</time>
      </trkpt>
      <trkpt lat="46.8457" lon="8.44827">
        <ele>2025</ele>
        <time>2021-08-13T07:42:51.161Z</time>
      </trkpt>
      <trkpt lat="46.8457" lon="8.44825">
        <ele>2024</ele>
        <time>2021-08-13T07:42:52.160Z</time>
      </trkpt>
      <trkpt lat="46.8457" lon="8.44824">
        <ele>2024</ele>
        <time>2021-08-13T07:42:53.161Z</time>
      </trkpt>
      <trkpt lat="46.84571" lon="8.44823">
        <ele>2024</ele>
        <time>2021-08-13T07:42:54.160Z</time>
      </trkpt>
      <trkpt lat="46.84572" lon="8.44822">
        <ele>2024</ele>
        <time>2021-08-13T07:42:55.161Z</time>
      </trkpt>
      <trkpt lat="46.84573" lon="8.44821">
        <ele>2023</ele>
        <time>2021-08-13T07:42:56.161Z</time>
      </trkpt>
      <trkpt lat="46.84574" lon="8.4482">
        <ele>2023</ele>
        <time>2021-08-13T07:42:57.161Z</time>
      </trkpt>
      <trkpt lat="46.84574" lon="8.4482">
        <ele>2022</ele>
        <time>2021-08-13T07:42:58.160Z</time>
      </trkpt>
      <trkpt lat="46.84575" lon="8.4482">
        <ele>2022</ele>
        <time>2021-08-13T07:42:59.161Z</time>
      </trkpt>
      <trkpt lat="46.84576" lon="8.44819">
        <ele>2021</ele>
        <time>2021-08-13T07:43:00.160Z</time>
      </trkpt>
      <trkpt lat="46.84576" lon="8.44819">
        <ele>2021</ele>
        <time>2021-08-13T07:43:01.160Z</time>
      </trkpt>
      <trkpt lat="46.84577" lon="8.44818">
        <ele>2021</ele>
        <time>2021-08-13T07:43:02.161Z</time>
      </trkpt>
      <trkpt lat="46.84578" lon="8.44818">
        <ele>2020</ele>
        <time>2021-08-13T07:43:03.161Z</time>
      </trkpt>
      <trkpt lat="46.84579" lon="8.44817">
        <ele>2019</ele>
        <time>2021-08-13T07:43:04.161Z</time>
      </trkpt>
      <trkpt lat="46.8458" lon="8.44817">
        <ele>2018</ele>
        <time>2021-08-13T07:43:05.160Z</time>
      </trkpt>
      <trkpt lat="46.84581" lon="8.44816">
        <ele>2018</ele>
        <time>2021-08-13T07:43:06.161Z</time>
      </trkpt>
      <trkpt lat="46.84582" lon="8.44816">
        <ele>2017</ele>
        <time>2021-08-13T07:43:07.161Z</time>
      </trkpt>
      <trkpt lat="46.84583" lon="8.44816">
        <ele>2016</ele>
        <time>2021-08-13T07:43:08.161Z</time>
      </trkpt>
      <trkpt lat="46.84584" lon="8.44816">
        <ele>2015</ele>
        <time>2021-08-13T07:43:09.161Z</time>
      </trkpt>
      <trkpt lat="46.84585" lon="8.44815">
        <ele>2014</ele>
        <time>2021-08-13T07:43:10.161Z</time>
      </trkpt>
      <trkpt lat="46.84587" lon="8.44815">
        <ele>2014</ele>
        <time>2021-08-13T07:43:11.161Z</time>
      </trkpt>
      <trkpt lat="46.84588" lon="8.44815">
        <ele>2014</ele>
        <time>2021-08-13T07:43:12.161Z</time>
      </trkpt>
      <trkpt lat="46.84589" lon="8.44815">
        <ele>2013</ele>
        <time>2021-08-13T07:43:13.161Z</time>
      </trkpt>
      <trkpt lat="46.84589" lon="8.44814">
        <ele>2013</ele>
        <time>2021-08-13T07:43:14.160Z</time>
      </trkpt>
      <trkpt lat="46.8459" lon="8.44814">
        <ele>2012</ele>
        <time>2021-08-13T07:43:15.161Z</time>
      </trkpt>
      <trkpt lat="46.84591" lon="8.44814">
        <ele>2012</ele>
        <time>2021-08-13T07:43:16.161Z</time>
      </trkpt>
      <trkpt lat="46.84592" lon="8.44814">
        <ele>2013</ele>
        <time>2021-08-13T07:43:17.160Z</time>
      </trkpt>
      <trkpt lat="46.84593" lon="8.44814">
        <ele>2013</ele>
        <time>2021-08-13T07:43:18.161Z</time>
      </trkpt>
      <trkpt lat="46.84594" lon="8.44815">
        <ele>2013</ele>
        <time>2021-08-13T07:43:19.160Z</time>
      </trkpt>
      <trkpt lat="46.84595" lon="8.44815">
        <ele>2013</ele>
        <time>2021-08-13T07:43:20.161Z</time>
      </trkpt>
      <trkpt lat="46.84596" lon="8.44816">
        <ele>2013</ele>
        <time>2021-08-13T07:43:21.161Z</time>
      </trkpt>
      <trkpt lat="46.84596" lon="8.44816">
        <ele>2013</ele>
        <time>2021-08-13T07:43:22.161Z</time>
      </trkpt>
      <trkpt lat="46.84597" lon="8.44817">
        <ele>2013</ele>
        <time>2021-08-13T07:43:23.160Z</time>
      </trkpt>
      <trkpt lat="46.84598" lon="8.44818">
        <ele>2014</ele>
        <time>2021-08-13T07:43:24.161Z</time>
      </trkpt>
      <trkpt lat="46.84599" lon="8.44818">
        <ele>2014</ele>
        <time>2021-08-13T07:43:25.161Z</time>
      </trkpt>
      <trkpt lat="46.846" lon="8.44818">
        <ele>2014</ele>
        <time>2021-08-13T07:43:26.160Z</time>
      </trkpt>
      <trkpt lat="46.84601" lon="8.44818">
        <ele>2015</ele>
        <time>2021-08-13T07:43:27.161Z</time>
      </trkpt>
      <trkpt lat="46.84601" lon="8.44819">
        <ele>2015</ele>
        <time>2021-08-13T07:43:28.161Z</time>
      </trkpt>
      <trkpt lat="46.84603" lon="8.44819">
        <ele>2015</ele>
        <time>2021-08-13T07:43:29.161Z</time>
      </trkpt>
      <trkpt lat="46.84604" lon="8.44819">
        <ele>2015</ele>
        <time>2021-08-13T07:43:30.161Z</time>
      </trkpt>
      <trkpt lat="46.84605" lon="8.4482">
        <ele>2015</ele>
        <time>2021-08-13T07:43:31.161Z</time>
      </trkpt>
      <trkpt lat="46.84606" lon="8.4482">
        <ele>2014</ele>
        <time>2021-08-13T07:43:32.160Z</time>
      </trkpt>
      <trkpt lat="46.84606" lon="8.44821">
        <ele>2014</ele>
        <time>2021-08-13T07:43:33.161Z</time>
      </trkpt>
      <trkpt lat="46.84607" lon="8.44821">
        <ele>2014</ele>
        <time>2021-08-13T07:43:34.160Z</time>
      </trkpt>
      <trkpt lat="46.84608" lon="8.44821">
        <ele>2013</ele>
        <time>2021-08-13T07:43:35.161Z</time>
      </trkpt>
      <trkpt lat="46.84609" lon="8.44821">
        <ele>2013</ele>
        <time>2021-08-13T07:43:36.161Z</time>
      </trkpt>
      <trkpt lat="46.8461" lon="8.44822">
        <ele>2012</ele>
        <time>2021-08-13T07:43:37.161Z</time>
      </trkpt>
      <trkpt lat="46.84611" lon="8.44822">
        <ele>2012</ele>
        <time>2021-08-13T07:43:38.161Z</time>
      </trkpt>
      <trkpt lat="46.84612" lon="8.44822">
        <ele>2011</ele>
        <time>2021-08-13T07:43:39.161Z</time>
      </trkpt>
      <trkpt lat="46.84613" lon="8.44823">
        <ele>2011</ele>
        <time>2021-08-13T07:43:40.161Z</time>
      </trkpt>
      <trkpt lat="46.84614" lon="8.44823">
        <ele>2010</ele>
        <time>2021-08-13T07:43:41.161Z</time>
      </trkpt>
      <trkpt lat="46.84614" lon="8.44824">
        <ele>2010</ele>
        <time>2021-08-13T07:43:42.160Z</time>
      </trkpt>
      <trkpt lat="46.84615" lon="8.44824">
        <ele>2010</ele>
        <time>2021-08-13T07:43:43.161Z</time>
      </trkpt>
      <trkpt lat="46.84616" lon="8.44824">
        <ele>2010</ele>
        <time>2021-08-13T07:43:44.161Z</time>
      </trkpt>
      <trkpt lat="46.84617" lon="8.44824">
        <ele>2009</ele>
        <time>2021-08-13T07:43:45.161Z</time>
      </trkpt>
      <trkpt lat="46.84618" lon="8.44823">
        <ele>2009</ele>
        <time>2021-08-13T07:43:46.161Z</time>
      </trkpt>
      <trkpt lat="46.84619" lon="8.44822">
        <ele>2009</ele>
        <time>2021-08-13T07:43:47.161Z</time>
      </trkpt>
      <trkpt lat="46.8462" lon="8.44822">
        <ele>2009</ele>
        <time>2021-08-13T07:43:48.161Z</time>
      </trkpt>
      <trkpt lat="46.84622" lon="8.44822">
        <ele>2009</ele>
        <time>2021-08-13T07:43:49.160Z</time>
      </trkpt>
      <trkpt lat="46.84623" lon="8.44822">
        <ele>2008</ele>
        <time>2021-08-13T07:43:50.160Z</time>
      </trkpt>
      <trkpt lat="46.84624" lon="8.44822">
        <ele>2008</ele>
        <time>2021-08-13T07:43:51.161Z</time>
      </trkpt>
      <trkpt lat="46.84625" lon="8.44821">
        <ele>2008</ele>
        <time>2021-08-13T07:43:52.161Z</time>
      </trkpt>
      <trkpt lat="46.84626" lon="8.44821">
        <ele>2008</ele>
        <time>2021-08-13T07:43:53.161Z</time>
      </trkpt>
      <trkpt lat="46.84627" lon="8.44821">
        <ele>2008</ele>
        <time>2021-08-13T07:43:54.161Z</time>
      </trkpt>
      <trkpt lat="46.84628" lon="8.4482">
        <ele>2008</ele>
        <time>2021-08-13T07:43:55.161Z</time>
      </trkpt>
      <trkpt lat="46.84629" lon="8.4482">
        <ele>2008</ele>
        <time>2021-08-13T07:43:56.161Z</time>
      </trkpt>
      <trkpt lat="46.8463" lon="8.44819">
        <ele>2009</ele>
        <time>2021-08-13T07:43:57.161Z</time>
      </trkpt>
      <trkpt lat="46.8463" lon="8.44818">
        <ele>2009</ele>
        <time>2021-08-13T07:43:58.161Z</time>
      </trkpt>
      <trkpt lat="46.84632" lon="8.44816">
        <ele>2010</ele>
        <time>2021-08-13T07:43:59.160Z</time>
      </trkpt>
      <trkpt lat="46.84633" lon="8.44815">
        <ele>2010</ele>
        <time>2021-08-13T07:44:00.161Z</time>
      </trkpt>
      <trkpt lat="46.84634" lon="8.44814">
        <ele>2011</ele>
        <time>2021-08-13T07:44:01.161Z</time>
      </trkpt>
      <trkpt lat="46.84635" lon="8.44813">
        <ele>2011</ele>
        <time>2021-08-13T07:44:02.160Z</time>
      </trkpt>
      <trkpt lat="46.84636" lon="8.44812">
        <ele>2011</ele>
        <time>2021-08-13T07:44:03.160Z</time>
      </trkpt>
      <trkpt lat="46.84637" lon="8.44812">
        <ele>2011</ele>
        <time>2021-08-13T07:44:04.161Z</time>
      </trkpt>
      <trkpt lat="46.84638" lon="8.44811">
        <ele>2011</ele>
        <time>2021-08-13T07:44:05.161Z</time>
      </trkpt>
      <trkpt lat="46.84639" lon="8.4481">
        <ele>2011</ele>
        <time>2021-08-13T07:44:06.161Z</time>
      </trkpt>
      <trkpt lat="46.84639" lon="8.44809">
        <ele>2011</ele>
        <time>2021-08-13T07:44:07.160Z</time>
      </trkpt>
      <trkpt lat="46.8464" lon="8.44807">
        <ele>2011</ele>
        <time>2021-08-13T07:44:08.161Z</time>
      </trkpt>
      <trkpt lat="46.84641" lon="8.44806">
        <ele>2011</ele>
        <time>2021-08-13T07:44:09.161Z</time>
      </trkpt>
      <trkpt lat="46.84642" lon="8.44804">
        <ele>2010</ele>
        <time>2021-08-13T07:44:10.161Z</time>
      </trkpt>
      <trkpt lat="46.84643" lon="8.44802">
        <ele>2010</ele>
        <time>2021-08-13T07:44:11.161Z</time>
      </trkpt>
      <trkpt lat="46.84643" lon="8.44801">
        <ele>2010</ele>
        <time>2021-08-13T07:44:12.160Z</time>
      </trkpt>
      <trkpt lat="46.84643" lon="8.44799">
        <ele>2009</ele>
        <time>2021-08-13T07:44:13.161Z</time>
      </trkpt>
      <trkpt lat="46.84643" lon="8.44797">
        <ele>2009</ele>
        <time>2021-08-13T07:44:14.160Z</time>
      </trkpt>
      <trkpt lat="46.84643" lon="8.44795">
        <ele>2009</ele>
        <time>2021-08-13T07:44:15.161Z</time>
      </trkpt>
      <trkpt lat="46.84644" lon="8.44794">
        <ele>2009</ele>
        <time>2021-08-13T07:44:16.161Z</time>
      </trkpt>
      <trkpt lat="46.84644" lon="8.44792">
        <ele>2009</ele>
        <time>2021-08-13T07:44:17.161Z</time>
      </trkpt>
      <trkpt lat="46.84644" lon="8.4479">
        <ele>2009</ele>
        <time>2021-08-13T07:44:18.161Z</time>
      </trkpt>
      <trkpt lat="46.84644" lon="8.44788">
        <ele>2008</ele>
        <time>2021-08-13T07:44:19.161Z</time>
      </trkpt>
      <trkpt lat="46.84644" lon="8.44787">
        <ele>2008</ele>
        <time>2021-08-13T07:44:20.160Z</time>
      </trkpt>
      <trkpt lat="46.84644" lon="8.44785">
        <ele>2007</ele>
        <time>2021-08-13T07:44:21.161Z</time>
      </trkpt>
      <trkpt lat="46.84644" lon="8.44783">
        <ele>2007</ele>
        <time>2021-08-13T07:44:22.161Z</time>
      </trkpt>
      <trkpt lat="46.84643" lon="8.44781">
        <ele>2006</ele>
        <time>2021-08-13T07:44:23.161Z</time>
      </trkpt>
      <trkpt lat="46.84643" lon="8.44779">
        <ele>2006</ele>
        <time>2021-08-13T07:44:24.160Z</time>
      </trkpt>
      <trkpt lat="46.84643" lon="8.44778">
        <ele>2006</ele>
        <time>2021-08-13T07:44:25.161Z</time>
      </trkpt>
      <trkpt lat="46.84643" lon="8.44776">
        <ele>2005</ele>
        <time>2021-08-13T07:44:26.160Z</time>
      </trkpt>
      <trkpt lat="46.84642" lon="8.44775">
        <ele>2005</ele>
        <time>2021-08-13T07:44:27.161Z</time>
      </trkpt>
      <trkpt lat="46.84643" lon="8.44773">
        <ele>2005</ele>
        <time>2021-08-13T07:44:28.161Z</time>
      </trkpt>
      <trkpt lat="46.84642" lon="8.44772">
        <ele>2004</ele>
        <time>2021-08-13T07:44:29.161Z</time>
      </trkpt>
      <trkpt lat="46.84642" lon="8.4477">
        <ele>2004</ele>
        <time>2021-08-13T07:44:30.161Z</time>
      </trkpt>
      <trkpt lat="46.84642" lon="8.44768">
        <ele>2004</ele>
        <time>2021-08-13T07:44:31.161Z</time>
      </trkpt>
      <trkpt lat="46.84642" lon="8.44767">
        <ele>2003</ele>
        <time>2021-08-13T07:44:32.161Z</time>
      </trkpt>
      <trkpt lat="46.84642" lon="8.44765">
        <ele>2003</ele>
        <time>2021-08-13T07:44:33.160Z</time>
      </trkpt>
      <trkpt lat="46.84642" lon="8.44764">
        <ele>2003</ele>
        <time>2021-08-13T07:44:34.161Z</time>
      </trkpt>
      <trkpt lat="46.84642" lon="8.44762">
        <ele>2003</ele>
        <time>2021-08-13T07:44:35.160Z</time>
      </trkpt>
      <trkpt lat="46.84642" lon="8.4476">
        <ele>2003</ele>
        <time>2021-08-13T07:44:36.161Z</time>
      </trkpt>
      <trkpt lat="46.84643" lon="8.44759">
        <ele>2003</ele>
        <time>2021-08-13T07:44:37.161Z</time>
      </trkpt>
      <trkpt lat="46.84643" lon="8.44757">
        <ele>2003</ele>
        <time>2021-08-13T07:44:38.161Z</time>
      </trkpt>
      <trkpt lat="46.84644" lon="8.44756">
        <ele>2003</ele>
        <time>2021-08-13T07:44:39.161Z</time>
      </trkpt>
      <trkpt lat="46.84644" lon="8.44755">
        <ele>2003</ele>
        <time>2021-08-13T07:44:40.161Z</time>
      </trkpt>
      <trkpt lat="46.84645" lon="8.44754">
        <ele>2003</ele>
        <time>2021-08-13T07:44:41.161Z</time>
      </trkpt>
      <trkpt lat="46.84646" lon="8.44753">
        <ele>2004</ele>
        <time>2021-08-13T07:44:42.161Z</time>
      </trkpt>
      <trkpt lat="46.84647" lon="8.44751">
        <ele>2004</ele>
        <time>2021-08-13T07:44:43.160Z</time>
      </trkpt>
      <trkpt lat="46.84648" lon="8.4475">
        <ele>2004</ele>
        <time>2021-08-13T07:44:44.161Z</time>
      </trkpt>
      <trkpt lat="46.84648" lon="8.44748">
        <ele>2003</ele>
        <time>2021-08-13T07:44:45.161Z</time>
      </trkpt>
      <trkpt lat="46.84649" lon="8.44747">
        <ele>2003</ele>
        <time>2021-08-13T07:44:46.161Z</time>
      </trkpt>
      <trkpt lat="46.84649" lon="8.44745">
        <ele>2003</ele>
        <time>2021-08-13T07:44:47.160Z</time>
      </trkpt>
      <trkpt lat="46.84649" lon="8.44743">
        <ele>2003</ele>
        <time>2021-08-13T07:44:48.161Z</time>
      </trkpt>
      <trkpt lat="46.8465" lon="8.44741">
        <ele>2003</ele>
        <time>2021-08-13T07:44:49.161Z</time>
      </trkpt>
      <trkpt lat="46.8465" lon="8.4474">
        <ele>2002</ele>
        <time>2021-08-13T07:44:50.161Z</time>
      </trkpt>
      <trkpt lat="46.84651" lon="8.44738">
        <ele>2002</ele>
        <time>2021-08-13T07:44:51.161Z</time>
      </trkpt>
      <trkpt lat="46.84651" lon="8.44737">
        <ele>2002</ele>
        <time>2021-08-13T07:44:52.160Z</time>
      </trkpt>
      <trkpt lat="46.84651" lon="8.44735">
        <ele>2002</ele>
        <time>2021-08-13T07:44:53.161Z</time>
      </trkpt>
      <trkpt lat="46.84652" lon="8.44734">
        <ele>2003</ele>
        <time>2021-08-13T07:44:54.160Z</time>
      </trkpt>
      <trkpt lat="46.84652" lon="8.44732">
        <ele>2003</ele>
        <time>2021-08-13T07:44:55.161Z</time>
      </trkpt>
      <trkpt lat="46.84653" lon="8.44731">
        <ele>2004</ele>
        <time>2021-08-13T07:44:56.160Z</time>
      </trkpt>
      <trkpt lat="46.84653" lon="8.4473">
        <ele>2004</ele>
        <time>2021-08-13T07:44:57.160Z</time>
      </trkpt>
      <trkpt lat="46.84654" lon="8.44728">
        <ele>2004</ele>
        <time>2021-08-13T07:44:58.160Z</time>
      </trkpt>
      <trkpt lat="46.84655" lon="8.44727">
        <ele>2004</ele>
        <time>2021-08-13T07:44:59.161Z</time>
      </trkpt>
      <trkpt lat="46.84655" lon="8.44726">
        <ele>2005</ele>
        <time>2021-08-13T07:45:00.161Z</time>
      </trkpt>
      <trkpt lat="46.84656" lon="8.44724">
        <ele>2005</ele>
        <time>2021-08-13T07:45:01.160Z</time>
      </trkpt>
      <trkpt lat="46.84656" lon="8.44722">
        <ele>2005</ele>
        <time>2021-08-13T07:45:02.161Z</time>
      </trkpt>
      <trkpt lat="46.84656" lon="8.4472">
        <ele>2006</ele>
        <time>2021-08-13T07:45:03.160Z</time>
      </trkpt>
      <trkpt lat="46.84656" lon="8.44718">
        <ele>2007</ele>
        <time>2021-08-13T07:45:04.161Z</time>
      </trkpt>
      <trkpt lat="46.84656" lon="8.44716">
        <ele>2007</ele>
        <time>2021-08-13T07:45:05.160Z</time>
      </trkpt>
      <trkpt lat="46.84656" lon="8.44715">
        <ele>2008</ele>
        <time>2021-08-13T07:45:06.160Z</time>
      </trkpt>
      <trkpt lat="46.84656" lon="8.44713">
        <ele>2008</ele>
        <time>2021-08-13T07:45:07.161Z</time>
      </trkpt>
      <trkpt lat="46.84655" lon="8.44711">
        <ele>2009</ele>
        <time>2021-08-13T07:45:08.161Z</time>
      </trkpt>
      <trkpt lat="46.84655" lon="8.4471">
        <ele>2009</ele>
        <time>2021-08-13T07:45:09.160Z</time>
      </trkpt>
      <trkpt lat="46.84655" lon="8.44708">
        <ele>2010</ele>
        <time>2021-08-13T07:45:10.161Z</time>
      </trkpt>
      <trkpt lat="46.84655" lon="8.44707">
        <ele>2010</ele>
        <time>2021-08-13T07:45:11.161Z</time>
      </trkpt>
      <trkpt lat="46.84655" lon="8.44706">
        <ele>2010</ele>
        <time>2021-08-13T07:45:12.161Z</time>
      </trkpt>
      <trkpt lat="46.84655" lon="8.44704">
        <ele>2010</ele>
        <time>2021-08-13T07:45:13.160Z</time>
      </trkpt>
      <trkpt lat="46.84655" lon="8.44702">
        <ele>2010</ele>
        <time>2021-08-13T07:45:14.161Z</time>
      </trkpt>
      <trkpt lat="46.84655" lon="8.44701">
        <ele>2010</ele>
        <time>2021-08-13T07:45:15.161Z</time>
      </trkpt>
      <trkpt lat="46.84654" lon="8.447">
        <ele>2010</ele>
        <time>2021-08-13T07:45:16.161Z</time>
      </trkpt>
      <trkpt lat="46.84654" lon="8.44699">
        <ele>2010</ele>
        <time>2021-08-13T07:45:17.161Z</time>
      </trkpt>
      <trkpt lat="46.84653" lon="8.44698">
        <ele>2010</ele>
        <time>2021-08-13T07:45:18.161Z</time>
      </trkpt>
      <trkpt lat="46.84652" lon="8.44698">
        <ele>2010</ele>
        <time>2021-08-13T07:45:19.161Z</time>
      </trkpt>
      <trkpt lat="46.84652" lon="8.44698">
        <ele>2010</ele>
        <time>2021-08-13T07:45:20.161Z</time>
      </trkpt>
      <trkpt lat="46.8465" lon="8.44696">
        <ele>2010</ele>
        <time>2021-08-13T07:45:21.160Z</time>
      </trkpt>
      <trkpt lat="46.8465" lon="8.44695">
        <ele>2009</ele>
        <time>2021-08-13T07:45:22.161Z</time>
      </trkpt>
      <trkpt lat="46.84649" lon="8.44694">
        <ele>2009</ele>
        <time>2021-08-13T07:45:23.161Z</time>
      </trkpt>
      <trkpt lat="46.84649" lon="8.44693">
        <ele>2009</ele>
        <time>2021-08-13T07:45:24.160Z</time>
      </trkpt>
      <trkpt lat="46.84648" lon="8.44692">
        <ele>2009</ele>
        <time>2021-08-13T07:45:25.160Z</time>
      </trkpt>
      <trkpt lat="46.84648" lon="8.44691">
        <ele>2009</ele>
        <time>2021-08-13T07:45:26.160Z</time>
      </trkpt>
      <trkpt lat="46.84647" lon="8.44691">
        <ele>2008</ele>
        <time>2021-08-13T07:45:27.161Z</time>
      </trkpt>
      <trkpt lat="46.84647" lon="8.4469">
        <ele>2008</ele>
        <time>2021-08-13T07:45:28.161Z</time>
      </trkpt>
      <trkpt lat="46.84647" lon="8.4469">
        <ele>2007</ele>
        <time>2021-08-13T07:45:29.161Z</time>
      </trkpt>
      <trkpt lat="46.84647" lon="8.44689">
        <ele>2007</ele>
        <time>2021-08-13T07:45:30.160Z</time>
      </trkpt>
      <trkpt lat="46.84646" lon="8.44689">
        <ele>2006</ele>
        <time>2021-08-13T07:45:31.161Z</time>
      </trkpt>
      <trkpt lat="46.84646" lon="8.44689">
        <ele>2006</ele>
        <time>2021-08-13T07:45:32.160Z</time>
      </trkpt>
      <trkpt lat="46.84645" lon="8.44688">
        <ele>2006</ele>
        <time>2021-08-13T07:45:33.161Z</time>
      </trkpt>
      <trkpt lat="46.84644" lon="8.44688">
        <ele>2006</ele>
        <time>2021-08-13T07:45:34.160Z</time>
      </trkpt>
      <trkpt lat="46.84643" lon="8.44687">
        <ele>2006</ele>
        <time>2021-08-13T07:45:35.161Z</time>
      </trkpt>
      <trkpt lat="46.84642" lon="8.44685">
        <ele>2006</ele>
        <time>2021-08-13T07:45:36.160Z</time>
      </trkpt>
      <trkpt lat="46.84642" lon="8.44684">
        <ele>2006</ele>
        <time>2021-08-13T07:45:37.161Z</time>
      </trkpt>
      <trkpt lat="46.84641" lon="8.44682">
        <ele>2005</ele>
        <time>2021-08-13T07:45:38.161Z</time>
      </trkpt>
      <trkpt lat="46.8464" lon="8.44681">
        <ele>2005</ele>
        <time>2021-08-13T07:45:39.161Z</time>
      </trkpt>
      <trkpt lat="46.84639" lon="8.44679">
        <ele>2005</ele>
        <time>2021-08-13T07:45:40.161Z</time>
      </trkpt>
      <trkpt lat="46.84638" lon="8.44679">
        <ele>2004</ele>
        <time>2021-08-13T07:45:41.161Z</time>
      </trkpt>
      <trkpt lat="46.84637" lon="8.44678">
        <ele>2004</ele>
        <time>2021-08-13T07:45:42.161Z</time>
      </trkpt>
      <trkpt lat="46.84637" lon="8.44677">
        <ele>2003</ele>
        <time>2021-08-13T07:45:43.160Z</time>
      </trkpt>
      <trkpt lat="46.84636" lon="8.44675">
        <ele>2003</ele>
        <time>2021-08-13T07:45:44.161Z</time>
      </trkpt>
      <trkpt lat="46.84635" lon="8.44674">
        <ele>2003</ele>
        <time>2021-08-13T07:45:45.161Z</time>
      </trkpt>
      <trkpt lat="46.84635" lon="8.44673">
        <ele>2003</ele>
        <time>2021-08-13T07:45:46.160Z</time>
      </trkpt>
      <trkpt lat="46.84635" lon="8.44672">
        <ele>2003</ele>
        <time>2021-08-13T07:45:47.160Z</time>
      </trkpt>
      <trkpt lat="46.84634" lon="8.44671">
        <ele>2003</ele>
        <time>2021-08-13T07:45:48.161Z</time>
      </trkpt>
      <trkpt lat="46.84634" lon="8.44669">
        <ele>2003</ele>
        <time>2021-08-13T07:45:49.161Z</time>
      </trkpt>
      <trkpt lat="46.84633" lon="8.44668">
        <ele>2004</ele>
        <time>2021-08-13T07:45:50.161Z</time>
      </trkpt>
      <trkpt lat="46.84632" lon="8.44666">
        <ele>2004</ele>
        <time>2021-08-13T07:45:51.160Z</time>
      </trkpt>
      <trkpt lat="46.84632" lon="8.44664">
        <ele>2004</ele>
        <time>2021-08-13T07:45:52.161Z</time>
      </trkpt>
      <trkpt lat="46.84631" lon="8.44662">
        <ele>2004</ele>
        <time>2021-08-13T07:45:53.161Z</time>
      </trkpt>
      <trkpt lat="46.84631" lon="8.4466">
        <ele>2004</ele>
        <time>2021-08-13T07:45:54.160Z</time>
      </trkpt>
      <trkpt lat="46.8463" lon="8.44658">
        <ele>2004</ele>
        <time>2021-08-13T07:45:55.160Z</time>
      </trkpt>
      <trkpt lat="46.8463" lon="8.44656">
        <ele>2003</ele>
        <time>2021-08-13T07:45:56.160Z</time>
      </trkpt>
      <trkpt lat="46.84629" lon="8.44654">
        <ele>2003</ele>
        <time>2021-08-13T07:45:57.161Z</time>
      </trkpt>
      <trkpt lat="46.84629" lon="8.44653">
        <ele>2002</ele>
        <time>2021-08-13T07:45:58.160Z</time>
      </trkpt>
      <trkpt lat="46.84629" lon="8.44651">
        <ele>2002</ele>
        <time>2021-08-13T07:45:59.161Z</time>
      </trkpt>
      <trkpt lat="46.84629" lon="8.4465">
        <ele>2001</ele>
        <time>2021-08-13T07:46:00.161Z</time>
      </trkpt>
      <trkpt lat="46.84629" lon="8.44648">
        <ele>2001</ele>
        <time>2021-08-13T07:46:01.160Z</time>
      </trkpt>
      <trkpt lat="46.84629" lon="8.44646">
        <ele>2001</ele>
        <time>2021-08-13T07:46:02.161Z</time>
      </trkpt>
      <trkpt lat="46.84629" lon="8.44644">
        <ele>2001</ele>
        <time>2021-08-13T07:46:03.161Z</time>
      </trkpt>
      <trkpt lat="46.84629" lon="8.44643">
        <ele>2001</ele>
        <time>2021-08-13T07:46:04.161Z</time>
      </trkpt>
      <trkpt lat="46.84628" lon="8.44641">
        <ele>2001</ele>
        <time>2021-08-13T07:46:05.160Z</time>
      </trkpt>
      <trkpt lat="46.84628" lon="8.4464">
        <ele>2001</ele>
        <time>2021-08-13T07:46:06.160Z</time>
      </trkpt>
      <trkpt lat="46.84627" lon="8.44638">
        <ele>2001</ele>
        <time>2021-08-13T07:46:07.160Z</time>
      </trkpt>
      <trkpt lat="46.84626" lon="8.44637">
        <ele>2000</ele>
        <time>2021-08-13T07:46:08.160Z</time>
      </trkpt>
      <trkpt lat="46.84626" lon="8.44636">
        <ele>2000</ele>
        <time>2021-08-13T07:46:09.160Z</time>
      </trkpt>
      <trkpt lat="46.84625" lon="8.44634">
        <ele>2000</ele>
        <time>2021-08-13T07:46:10.160Z</time>
      </trkpt>
      <trkpt lat="46.84625" lon="8.44632">
        <ele>1999</ele>
        <time>2021-08-13T07:46:11.160Z</time>
      </trkpt>
      <trkpt lat="46.84624" lon="8.44631">
        <ele>1999</ele>
        <time>2021-08-13T07:46:12.160Z</time>
      </trkpt>
      <trkpt lat="46.84623" lon="8.4463">
        <ele>1999</ele>
        <time>2021-08-13T07:46:13.160Z</time>
      </trkpt>
      <trkpt lat="46.84623" lon="8.44628">
        <ele>1999</ele>
        <time>2021-08-13T07:46:14.160Z</time>
      </trkpt>
      <trkpt lat="46.84622" lon="8.44627">
        <ele>1998</ele>
        <time>2021-08-13T07:46:15.160Z</time>
      </trkpt>
      <trkpt lat="46.84622" lon="8.44625">
        <ele>1998</ele>
        <time>2021-08-13T07:46:16.160Z</time>
      </trkpt>
      <trkpt lat="46.84621" lon="8.44624">
        <ele>1997</ele>
        <time>2021-08-13T07:46:17.160Z</time>
      </trkpt>
      <trkpt lat="46.84621" lon="8.44623">
        <ele>1997</ele>
        <time>2021-08-13T07:46:18.160Z</time>
      </trkpt>
      <trkpt lat="46.84621" lon="8.44622">
        <ele>1997</ele>
        <time>2021-08-13T07:46:19.161Z</time>
      </trkpt>
      <trkpt lat="46.8462" lon="8.4462">
        <ele>1997</ele>
        <time>2021-08-13T07:46:20.160Z</time>
      </trkpt>
      <trkpt lat="46.84621" lon="8.44619">
        <ele>1997</ele>
        <time>2021-08-13T07:46:21.161Z</time>
      </trkpt>
      <trkpt lat="46.8462" lon="8.44617">
        <ele>1998</ele>
        <time>2021-08-13T07:46:22.161Z</time>
      </trkpt>
      <trkpt lat="46.8462" lon="8.44615">
        <ele>1997</ele>
        <time>2021-08-13T07:46:23.161Z</time>
      </trkpt>
      <trkpt lat="46.8462" lon="8.44614">
        <ele>1997</ele>
        <time>2021-08-13T07:46:24.160Z</time>
      </trkpt>
      <trkpt lat="46.8462" lon="8.44612">
        <ele>1997</ele>
        <time>2021-08-13T07:46:25.161Z</time>
      </trkpt>
      <trkpt lat="46.8462" lon="8.4461">
        <ele>1997</ele>
        <time>2021-08-13T07:46:26.161Z</time>
      </trkpt>
      <trkpt lat="46.84619" lon="8.44609">
        <ele>1997</ele>
        <time>2021-08-13T07:46:27.161Z</time>
      </trkpt>
      <trkpt lat="46.84618" lon="8.44607">
        <ele>1997</ele>
        <time>2021-08-13T07:46:28.161Z</time>
      </trkpt>
      <trkpt lat="46.84618" lon="8.44605">
        <ele>1997</ele>
        <time>2021-08-13T07:46:29.161Z</time>
      </trkpt>
      <trkpt lat="46.84618" lon="8.44603">
        <ele>1997</ele>
        <time>2021-08-13T07:46:30.161Z</time>
      </trkpt>
      <trkpt lat="46.84618" lon="8.44601">
        <ele>1998</ele>
        <time>2021-08-13T07:46:31.161Z</time>
      </trkpt>
      <trkpt lat="46.84618" lon="8.446">
        <ele>1998</ele>
        <time>2021-08-13T07:46:32.161Z</time>
      </trkpt>
      <trkpt lat="46.84618" lon="8.44599">
        <ele>1998</ele>
        <time>2021-08-13T07:46:33.161Z</time>
      </trkpt>
      <trkpt lat="46.84618" lon="8.44597">
        <ele>1998</ele>
        <time>2021-08-13T07:46:34.160Z</time>
      </trkpt>
      <trkpt lat="46.84618" lon="8.44595">
        <ele>1998</ele>
        <time>2021-08-13T07:46:35.161Z</time>
      </trkpt>
      <trkpt lat="46.84618" lon="8.44593">
        <ele>1997</ele>
        <time>2021-08-13T07:46:36.161Z</time>
      </trkpt>
      <trkpt lat="46.84617" lon="8.44591">
        <ele>1997</ele>
        <time>2021-08-13T07:46:37.161Z</time>
      </trkpt>
      <trkpt lat="46.84617" lon="8.4459">
        <ele>1997</ele>
        <time>2021-08-13T07:46:38.161Z</time>
      </trkpt>
      <trkpt lat="46.84617" lon="8.44587">
        <ele>1997</ele>
        <time>2021-08-13T07:46:39.161Z</time>
      </trkpt>
      <trkpt lat="46.84617" lon="8.44585">
        <ele>1997</ele>
        <time>2021-08-13T07:46:40.161Z</time>
      </trkpt>
      <trkpt lat="46.84616" lon="8.44583">
        <ele>1997</ele>
        <time>2021-08-13T07:46:41.160Z</time>
      </trkpt>
      <trkpt lat="46.84616" lon="8.44582">
        <ele>1997</ele>
        <time>2021-08-13T07:46:42.161Z</time>
      </trkpt>
      <trkpt lat="46.84616" lon="8.4458">
        <ele>1997</ele>
        <time>2021-08-13T07:46:43.160Z</time>
      </trkpt>
      <trkpt lat="46.84616" lon="8.44578">
        <ele>1997</ele>
        <time>2021-08-13T07:46:44.161Z</time>
      </trkpt>
      <trkpt lat="46.84616" lon="8.44576">
        <ele>1997</ele>
        <time>2021-08-13T07:46:45.160Z</time>
      </trkpt>
      <trkpt lat="46.84616" lon="8.44575">
        <ele>1998</ele>
        <time>2021-08-13T07:46:46.160Z</time>
      </trkpt>
      <trkpt lat="46.84615" lon="8.44573">
        <ele>1998</ele>
        <time>2021-08-13T07:46:47.160Z</time>
      </trkpt>
      <trkpt lat="46.84615" lon="8.44572">
        <ele>1998</ele>
        <time>2021-08-13T07:46:48.160Z</time>
      </trkpt>
      <trkpt lat="46.84614" lon="8.4457">
        <ele>1998</ele>
        <time>2021-08-13T07:46:49.161Z</time>
      </trkpt>
      <trkpt lat="46.84614" lon="8.44568">
        <ele>1998</ele>
        <time>2021-08-13T07:46:50.161Z</time>
      </trkpt>
      <trkpt lat="46.84613" lon="8.44567">
        <ele>1998</ele>
        <time>2021-08-13T07:46:51.160Z</time>
      </trkpt>
      <trkpt lat="46.84613" lon="8.44565">
        <ele>1998</ele>
        <time>2021-08-13T07:46:52.161Z</time>
      </trkpt>
      <trkpt lat="46.84613" lon="8.44563">
        <ele>1998</ele>
        <time>2021-08-13T07:46:53.161Z</time>
      </trkpt>
      <trkpt lat="46.84613" lon="8.44562">
        <ele>1997</ele>
        <time>2021-08-13T07:46:54.161Z</time>
      </trkpt>
      <trkpt lat="46.84612" lon="8.4456">
        <ele>1997</ele>
        <time>2021-08-13T07:46:55.161Z</time>
      </trkpt>
      <trkpt lat="46.84612" lon="8.44559">
        <ele>1997</ele>
        <time>2021-08-13T07:46:56.161Z</time>
      </trkpt>
      <trkpt lat="46.84612" lon="8.44557">
        <ele>1997</ele>
        <time>2021-08-13T07:46:57.160Z</time>
      </trkpt>
      <trkpt lat="46.84612" lon="8.44555">
        <ele>1997</ele>
        <time>2021-08-13T07:46:58.161Z</time>
      </trkpt>
      <trkpt lat="46.84612" lon="8.44553">
        <ele>1997</ele>
        <time>2021-08-13T07:46:59.161Z</time>
      </trkpt>
      <trkpt lat="46.84612" lon="8.44552">
        <ele>1997</ele>
        <time>2021-08-13T07:47:00.161Z</time>
      </trkpt>
      <trkpt lat="46.84613" lon="8.4455">
        <ele>1997</ele>
        <time>2021-08-13T07:47:01.161Z</time>
      </trkpt>
      <trkpt lat="46.84613" lon="8.44548">
        <ele>1997</ele>
        <time>2021-08-13T07:47:02.161Z</time>
      </trkpt>
      <trkpt lat="46.84613" lon="8.44547">
        <ele>1997</ele>
        <time>2021-08-13T07:47:03.160Z</time>
      </trkpt>
      <trkpt lat="46.84612" lon="8.44545">
        <ele>1997</ele>
        <time>2021-08-13T07:47:04.161Z</time>
      </trkpt>
      <trkpt lat="46.84611" lon="8.44544">
        <ele>1997</ele>
        <time>2021-08-13T07:47:05.160Z</time>
      </trkpt>
      <trkpt lat="46.84611" lon="8.44543">
        <ele>1997</ele>
        <time>2021-08-13T07:47:06.161Z</time>
      </trkpt>
      <trkpt lat="46.8461" lon="8.44542">
        <ele>1997</ele>
        <time>2021-08-13T07:47:07.161Z</time>
      </trkpt>
      <trkpt lat="46.8461" lon="8.4454">
        <ele>1997</ele>
        <time>2021-08-13T07:47:08.160Z</time>
      </trkpt>
      <trkpt lat="46.84609" lon="8.44538">
        <ele>1997</ele>
        <time>2021-08-13T07:47:09.160Z</time>
      </trkpt>
      <trkpt lat="46.84609" lon="8.44537">
        <ele>1997</ele>
        <time>2021-08-13T07:47:10.161Z</time>
      </trkpt>
      <trkpt lat="46.84609" lon="8.44535">
        <ele>1997</ele>
        <time>2021-08-13T07:47:11.160Z</time>
      </trkpt>
      <trkpt lat="46.84609" lon="8.44533">
        <ele>1997</ele>
        <time>2021-08-13T07:47:12.161Z</time>
      </trkpt>
      <trkpt lat="46.84608" lon="8.44532">
        <ele>1997</ele>
        <time>2021-08-13T07:47:13.161Z</time>
      </trkpt>
      <trkpt lat="46.84609" lon="8.4453">
        <ele>1997</ele>
        <time>2021-08-13T07:47:14.160Z</time>
      </trkpt>
      <trkpt lat="46.84609" lon="8.44528">
        <ele>1997</ele>
        <time>2021-08-13T07:47:15.161Z</time>
      </trkpt>
      <trkpt lat="46.84609" lon="8.44526">
        <ele>1997</ele>
        <time>2021-08-13T07:47:16.161Z</time>
      </trkpt>
      <trkpt lat="46.84609" lon="8.44524">
        <ele>1997</ele>
        <time>2021-08-13T07:47:17.161Z</time>
      </trkpt>
      <trkpt lat="46.84609" lon="8.44522">
        <ele>1997</ele>
        <time>2021-08-13T07:47:18.160Z</time>
      </trkpt>
      <trkpt lat="46.8461" lon="8.4452">
        <ele>1997</ele>
        <time>2021-08-13T07:47:19.160Z</time>
      </trkpt>
      <trkpt lat="46.8461" lon="8.44518">
        <ele>1997</ele>
        <time>2021-08-13T07:47:20.161Z</time>
      </trkpt>
      <trkpt lat="46.8461" lon="8.44516">
        <ele>1996</ele>
        <time>2021-08-13T07:47:21.161Z</time>
      </trkpt>
      <trkpt lat="46.8461" lon="8.44514">
        <ele>1996</ele>
        <time>2021-08-13T07:47:22.161Z</time>
      </trkpt>
      <trkpt lat="46.8461" lon="8.44513">
        <ele>1995</ele>
        <time>2021-08-13T07:47:23.161Z</time>
      </trkpt>
      <trkpt lat="46.84611" lon="8.44511">
        <ele>1995</ele>
        <time>2021-08-13T07:47:24.161Z</time>
      </trkpt>
      <trkpt lat="46.84611" lon="8.44509">
        <ele>1994</ele>
        <time>2021-08-13T07:47:25.161Z</time>
      </trkpt>
      <trkpt lat="46.84611" lon="8.44508">
        <ele>1994</ele>
        <time>2021-08-13T07:47:26.160Z</time>
      </trkpt>
      <trkpt lat="46.84612" lon="8.44506">
        <ele>1994</ele>
        <time>2021-08-13T07:47:27.161Z</time>
      </trkpt>
      <trkpt lat="46.84612" lon="8.44504">
        <ele>1994</ele>
        <time>2021-08-13T07:47:28.161Z</time>
      </trkpt>
      <trkpt lat="46.84612" lon="8.44503">
        <ele>1993</ele>
        <time>2021-08-13T07:47:29.161Z</time>
      </trkpt>
      <trkpt lat="46.84612" lon="8.44502">
        <ele>1993</ele>
        <time>2021-08-13T07:47:30.160Z</time>
      </trkpt>
      <trkpt lat="46.84613" lon="8.44501">
        <ele>1993</ele>
        <time>2021-08-13T07:47:31.160Z</time>
      </trkpt>
      <trkpt lat="46.84613" lon="8.445">
        <ele>1993</ele>
        <time>2021-08-13T07:47:32.161Z</time>
      </trkpt>
      <trkpt lat="46.84614" lon="8.44499">
        <ele>1992</ele>
        <time>2021-08-13T07:47:33.161Z</time>
      </trkpt>
      <trkpt lat="46.84614" lon="8.44498">
        <ele>1992</ele>
        <time>2021-08-13T07:47:34.161Z</time>
      </trkpt>
      <trkpt lat="46.84616" lon="8.44497">
        <ele>1990</ele>
        <time>2021-08-13T07:47:35.160Z</time>
      </trkpt>
      <trkpt lat="46.84616" lon="8.44496">
        <ele>1989</ele>
        <time>2021-08-13T07:47:36.161Z</time>
      </trkpt>
      <trkpt lat="46.84616" lon="8.44495">
        <ele>1988</ele>
        <time>2021-08-13T07:47:37.161Z</time>
      </trkpt>
      <trkpt lat="46.84616" lon="8.44494">
        <ele>1988</ele>
        <time>2021-08-13T07:47:38.160Z</time>
      </trkpt>
      <trkpt lat="46.84616" lon="8.44493">
        <ele>1988</ele>
        <time>2021-08-13T07:47:39.161Z</time>
      </trkpt>
      <trkpt lat="46.84616" lon="8.44493">
        <ele>1987</ele>
        <time>2021-08-13T07:47:40.161Z</time>
      </trkpt>
      <trkpt lat="46.84617" lon="8.44496">
        <ele>1992</ele>
        <time>2021-08-13T07:47:41.163Z</time>
      </trkpt>
      <trkpt lat="46.84617" lon="8.44496">
        <ele>1992</ele>
        <time>2021-08-13T07:47:42.163Z</time>
      </trkpt>
      <trkpt lat="46.84618" lon="8.44496">
        <ele>1991</ele>
        <time>2021-08-13T07:47:43.162Z</time>
      </trkpt>
      <trkpt lat="46.84618" lon="8.44496">
        <ele>1991</ele>
        <time>2021-08-13T07:47:44.163Z</time>
      </trkpt>
      <trkpt lat="46.84619" lon="8.44497">
        <ele>1991</ele>
        <time>2021-08-13T07:47:45.163Z</time>
      </trkpt>
      <trkpt lat="46.84619" lon="8.44497">
        <ele>1990</ele>
        <time>2021-08-13T07:47:46.162Z</time>
      </trkpt>
      <trkpt lat="46.8462" lon="8.44497">
        <ele>1989</ele>
        <time>2021-08-13T07:47:47.162Z</time>
      </trkpt>
      <trkpt lat="46.8462" lon="8.44496">
        <ele>1989</ele>
        <time>2021-08-13T07:47:48.163Z</time>
      </trkpt>
      <trkpt lat="46.84621" lon="8.44496">
        <ele>1989</ele>
        <time>2021-08-13T07:47:49.163Z</time>
      </trkpt>
      <trkpt lat="46.84621" lon="8.44495">
        <ele>1989</ele>
        <time>2021-08-13T07:47:50.163Z</time>
      </trkpt>
      <trkpt lat="46.84622" lon="8.44494">
        <ele>1989</ele>
        <time>2021-08-13T07:47:51.163Z</time>
      </trkpt>
      <trkpt lat="46.84623" lon="8.44494">
        <ele>1989</ele>
        <time>2021-08-13T07:47:52.163Z</time>
      </trkpt>
      <trkpt lat="46.84624" lon="8.44494">
        <ele>1989</ele>
        <time>2021-08-13T07:47:53.163Z</time>
      </trkpt>
      <trkpt lat="46.84625" lon="8.44493">
        <ele>1990</ele>
        <time>2021-08-13T07:47:54.162Z</time>
      </trkpt>
      <trkpt lat="46.84626" lon="8.44494">
        <ele>1990</ele>
        <time>2021-08-13T07:47:55.163Z</time>
      </trkpt>
      <trkpt lat="46.84626" lon="8.44494">
        <ele>1990</ele>
        <time>2021-08-13T07:47:56.163Z</time>
      </trkpt>
      <trkpt lat="46.84626" lon="8.44493">
        <ele>1990</ele>
        <time>2021-08-13T07:47:57.163Z</time>
      </trkpt>
      <trkpt lat="46.84626" lon="8.44492">
        <ele>1990</ele>
        <time>2021-08-13T07:47:58.162Z</time>
      </trkpt>
      <trkpt lat="46.84626" lon="8.4449">
        <ele>1990</ele>
        <time>2021-08-13T07:47:59.163Z</time>
      </trkpt>
      <trkpt lat="46.84626" lon="8.44489">
        <ele>1990</ele>
        <time>2021-08-13T07:48:00.163Z</time>
      </trkpt>
      <trkpt lat="46.84625" lon="8.44488">
        <ele>1989</ele>
        <time>2021-08-13T07:48:01.163Z</time>
      </trkpt>
      <trkpt lat="46.84625" lon="8.44487">
        <ele>1989</ele>
        <time>2021-08-13T07:48:02.162Z</time>
      </trkpt>
      <trkpt lat="46.84624" lon="8.44486">
        <ele>1988</ele>
        <time>2021-08-13T07:48:03.163Z</time>
      </trkpt>
      <trkpt lat="46.84624" lon="8.44485">
        <ele>1988</ele>
        <time>2021-08-13T07:48:04.163Z</time>
      </trkpt>
      <trkpt lat="46.84623" lon="8.44484">
        <ele>1988</ele>
        <time>2021-08-13T07:48:05.163Z</time>
      </trkpt>
      <trkpt lat="46.84622" lon="8.44483">
        <ele>1988</ele>
        <time>2021-08-13T07:48:06.163Z</time>
      </trkpt>
      <trkpt lat="46.84622" lon="8.44482">
        <ele>1988</ele>
        <time>2021-08-13T07:48:07.162Z</time>
      </trkpt>
      <trkpt lat="46.84621" lon="8.44481">
        <ele>1988</ele>
        <time>2021-08-13T07:48:08.162Z</time>
      </trkpt>
      <trkpt lat="46.8462" lon="8.4448">
        <ele>1988</ele>
        <time>2021-08-13T07:48:09.162Z</time>
      </trkpt>
      <trkpt lat="46.84619" lon="8.44478">
        <ele>1988</ele>
        <time>2021-08-13T07:48:10.163Z</time>
      </trkpt>
      <trkpt lat="46.84619" lon="8.44476">
        <ele>1988</ele>
        <time>2021-08-13T07:48:11.163Z</time>
      </trkpt>
      <trkpt lat="46.84618" lon="8.44475">
        <ele>1987</ele>
        <time>2021-08-13T07:48:12.163Z</time>
      </trkpt>
      <trkpt lat="46.84618" lon="8.44473">
        <ele>1987</ele>
        <time>2021-08-13T07:48:13.162Z</time>
      </trkpt>
      <trkpt lat="46.84617" lon="8.44471">
        <ele>1987</ele>
        <time>2021-08-13T07:48:14.163Z</time>
      </trkpt>
      <trkpt lat="46.84617" lon="8.44469">
        <ele>1986</ele>
        <time>2021-08-13T07:48:15.163Z</time>
      </trkpt>
      <trkpt lat="46.84617" lon="8.44467">
        <ele>1986</ele>
        <time>2021-08-13T07:48:16.163Z</time>
      </trkpt>
      <trkpt lat="46.84617" lon="8.44466">
        <ele>1985</ele>
        <time>2021-08-13T07:48:17.163Z</time>
      </trkpt>
      <trkpt lat="46.84617" lon="8.44464">
        <ele>1985</ele>
        <time>2021-08-13T07:48:18.163Z</time>
      </trkpt>
      <trkpt lat="46.84617" lon="8.44462">
        <ele>1985</ele>
        <time>2021-08-13T07:48:19.163Z</time>
      </trkpt>
      <trkpt lat="46.84618" lon="8.44461">
        <ele>1985</ele>
        <time>2021-08-13T07:48:20.163Z</time>
      </trkpt>
      <trkpt lat="46.84618" lon="8.44459">
        <ele>1985</ele>
        <time>2021-08-13T07:48:21.163Z</time>
      </trkpt>
      <trkpt lat="46.84618" lon="8.44458">
        <ele>1985</ele>
        <time>2021-08-13T07:48:22.162Z</time>
      </trkpt>
      <trkpt lat="46.84618" lon="8.44456">
        <ele>1985</ele>
        <time>2021-08-13T07:48:23.162Z</time>
      </trkpt>
      <trkpt lat="46.84618" lon="8.44455">
        <ele>1984</ele>
        <time>2021-08-13T07:48:24.162Z</time>
      </trkpt>
      <trkpt lat="46.84617" lon="8.44453">
        <ele>1984</ele>
        <time>2021-08-13T07:48:25.163Z</time>
      </trkpt>
      <trkpt lat="46.84617" lon="8.44452">
        <ele>1984</ele>
        <time>2021-08-13T07:48:26.163Z</time>
      </trkpt>
      <trkpt lat="46.84617" lon="8.4445">
        <ele>1984</ele>
        <time>2021-08-13T07:48:27.163Z</time>
      </trkpt>
      <trkpt lat="46.84617" lon="8.44448">
        <ele>1985</ele>
        <time>2021-08-13T07:48:28.163Z</time>
      </trkpt>
      <trkpt lat="46.84617" lon="8.44446">
        <ele>1985</ele>
        <time>2021-08-13T07:48:29.162Z</time>
      </trkpt>
      <trkpt lat="46.84618" lon="8.44444">
        <ele>1985</ele>
        <time>2021-08-13T07:48:30.163Z</time>
      </trkpt>
      <trkpt lat="46.84618" lon="8.44442">
        <ele>1985</ele>
        <time>2021-08-13T07:48:31.163Z</time>
      </trkpt>
      <trkpt lat="46.84619" lon="8.44441">
        <ele>1984</ele>
        <time>2021-08-13T07:48:32.163Z</time>
      </trkpt>
      <trkpt lat="46.84619" lon="8.44439">
        <ele>1984</ele>
        <time>2021-08-13T07:48:33.163Z</time>
      </trkpt>
      <trkpt lat="46.8462" lon="8.44438">
        <ele>1984</ele>
        <time>2021-08-13T07:48:34.163Z</time>
      </trkpt>
      <trkpt lat="46.8462" lon="8.44436">
        <ele>1984</ele>
        <time>2021-08-13T07:48:35.162Z</time>
      </trkpt>
      <trkpt lat="46.84621" lon="8.44434">
        <ele>1984</ele>
        <time>2021-08-13T07:48:36.162Z</time>
      </trkpt>
      <trkpt lat="46.84622" lon="8.44432">
        <ele>1984</ele>
        <time>2021-08-13T07:48:37.163Z</time>
      </trkpt>
      <trkpt lat="46.84622" lon="8.4443">
        <ele>1984</ele>
        <time>2021-08-13T07:48:38.163Z</time>
      </trkpt>
      <trkpt lat="46.84622" lon="8.44429">
        <ele>1983</ele>
        <time>2021-08-13T07:48:39.163Z</time>
      </trkpt>
      <trkpt lat="46.84623" lon="8.44427">
        <ele>1983</ele>
        <time>2021-08-13T07:48:40.163Z</time>
      </trkpt>
      <trkpt lat="46.84623" lon="8.44425">
        <ele>1983</ele>
        <time>2021-08-13T07:48:41.162Z</time>
      </trkpt>
      <trkpt lat="46.84623" lon="8.44424">
        <ele>1984</ele>
        <time>2021-08-13T07:48:42.163Z</time>
      </trkpt>
      <trkpt lat="46.84623" lon="8.44422">
        <ele>1984</ele>
        <time>2021-08-13T07:48:43.163Z</time>
      </trkpt>
      <trkpt lat="46.84623" lon="8.4442">
        <ele>1984</ele>
        <time>2021-08-13T07:48:44.163Z</time>
      </trkpt>
      <trkpt lat="46.84624" lon="8.44419">
        <ele>1984</ele>
        <time>2021-08-13T07:48:45.163Z</time>
      </trkpt>
      <trkpt lat="46.84624" lon="8.44417">
        <ele>1984</ele>
        <time>2021-08-13T07:48:46.162Z</time>
      </trkpt>
      <trkpt lat="46.84625" lon="8.44415">
        <ele>1984</ele>
        <time>2021-08-13T07:48:47.163Z</time>
      </trkpt>
      <trkpt lat="46.84625" lon="8.44414">
        <ele>1984</ele>
        <time>2021-08-13T07:48:48.163Z</time>
      </trkpt>
      <trkpt lat="46.84625" lon="8.44412">
        <ele>1983</ele>
        <time>2021-08-13T07:48:49.163Z</time>
      </trkpt>
      <trkpt lat="46.84625" lon="8.44411">
        <ele>1983</ele>
        <time>2021-08-13T07:48:50.162Z</time>
      </trkpt>
      <trkpt lat="46.84625" lon="8.44409">
        <ele>1983</ele>
        <time>2021-08-13T07:48:51.163Z</time>
      </trkpt>
      <trkpt lat="46.84625" lon="8.44407">
        <ele>1982</ele>
        <time>2021-08-13T07:48:52.163Z</time>
      </trkpt>
      <trkpt lat="46.84625" lon="8.44404">
        <ele>1983</ele>
        <time>2021-08-13T07:48:53.163Z</time>
      </trkpt>
      <trkpt lat="46.84624" lon="8.44403">
        <ele>1983</ele>
        <time>2021-08-13T07:48:54.163Z</time>
      </trkpt>
      <trkpt lat="46.84624" lon="8.44401">
        <ele>1983</ele>
        <time>2021-08-13T07:48:55.162Z</time>
      </trkpt>
      <trkpt lat="46.84623" lon="8.44399">
        <ele>1983</ele>
        <time>2021-08-13T07:48:56.163Z</time>
      </trkpt>
      <trkpt lat="46.84622" lon="8.44397">
        <ele>1984</ele>
        <time>2021-08-13T07:48:57.162Z</time>
      </trkpt>
      <trkpt lat="46.84622" lon="8.44395">
        <ele>1984</ele>
        <time>2021-08-13T07:48:58.163Z</time>
      </trkpt>
      <trkpt lat="46.84622" lon="8.44394">
        <ele>1985</ele>
        <time>2021-08-13T07:48:59.162Z</time>
      </trkpt>
      <trkpt lat="46.84621" lon="8.44392">
        <ele>1985</ele>
        <time>2021-08-13T07:49:00.162Z</time>
      </trkpt>
      <trkpt lat="46.84622" lon="8.44391">
        <ele>1986</ele>
        <time>2021-08-13T07:49:01.162Z</time>
      </trkpt>
      <trkpt lat="46.84621" lon="8.44389">
        <ele>1986</ele>
        <time>2021-08-13T07:49:02.163Z</time>
      </trkpt>
      <trkpt lat="46.84621" lon="8.44388">
        <ele>1986</ele>
        <time>2021-08-13T07:49:03.163Z</time>
      </trkpt>
      <trkpt lat="46.84621" lon="8.44386">
        <ele>1986</ele>
        <time>2021-08-13T07:49:04.163Z</time>
      </trkpt>
      <trkpt lat="46.8462" lon="8.44385">
        <ele>1986</ele>
        <time>2021-08-13T07:49:05.163Z</time>
      </trkpt>
      <trkpt lat="46.8462" lon="8.44383">
        <ele>1986</ele>
        <time>2021-08-13T07:49:06.162Z</time>
      </trkpt>
      <trkpt lat="46.84619" lon="8.44381">
        <ele>1985</ele>
        <time>2021-08-13T07:49:07.163Z</time>
      </trkpt>
      <trkpt lat="46.84619" lon="8.4438">
        <ele>1985</ele>
        <time>2021-08-13T07:49:08.163Z</time>
      </trkpt>
      <trkpt lat="46.84619" lon="8.44379">
        <ele>1985</ele>
        <time>2021-08-13T07:49:09.163Z</time>
      </trkpt>
      <trkpt lat="46.84619" lon="8.44377">
        <ele>1985</ele>
        <time>2021-08-13T07:49:10.163Z</time>
      </trkpt>
      <trkpt lat="46.84619" lon="8.44377">
        <ele>1984</ele>
        <time>2021-08-13T07:49:11.163Z</time>
      </trkpt>
      <trkpt lat="46.84619" lon="8.44375">
        <ele>1984</ele>
        <time>2021-08-13T07:49:12.162Z</time>
      </trkpt>
      <trkpt lat="46.84619" lon="8.44374">
        <ele>1984</ele>
        <time>2021-08-13T07:49:13.163Z</time>
      </trkpt>
      <trkpt lat="46.84619" lon="8.44372">
        <ele>1984</ele>
        <time>2021-08-13T07:49:14.163Z</time>
      </trkpt>
      <trkpt lat="46.84619" lon="8.4437">
        <ele>1984</ele>
        <time>2021-08-13T07:49:15.163Z</time>
      </trkpt>
      <trkpt lat="46.8462" lon="8.44368">
        <ele>1984</ele>
        <time>2021-08-13T07:49:16.163Z</time>
      </trkpt>
      <trkpt lat="46.8462" lon="8.44367">
        <ele>1984</ele>
        <time>2021-08-13T07:49:17.163Z</time>
      </trkpt>
      <trkpt lat="46.8462" lon="8.44366">
        <ele>1983</ele>
        <time>2021-08-13T07:49:18.163Z</time>
      </trkpt>
      <trkpt lat="46.84621" lon="8.44364">
        <ele>1983</ele>
        <time>2021-08-13T07:49:19.163Z</time>
      </trkpt>
      <trkpt lat="46.84621" lon="8.44363">
        <ele>1983</ele>
        <time>2021-08-13T07:49:20.163Z</time>
      </trkpt>
      <trkpt lat="46.84622" lon="8.44361">
        <ele>1984</ele>
        <time>2021-08-13T07:49:21.163Z</time>
      </trkpt>
      <trkpt lat="46.84622" lon="8.4436">
        <ele>1984</ele>
        <time>2021-08-13T07:49:22.163Z</time>
      </trkpt>
      <trkpt lat="46.84623" lon="8.44358">
        <ele>1984</ele>
        <time>2021-08-13T07:49:23.163Z</time>
      </trkpt>
      <trkpt lat="46.84623" lon="8.44357">
        <ele>1985</ele>
        <time>2021-08-13T07:49:24.163Z</time>
      </trkpt>
      <trkpt lat="46.84624" lon="8.44356">
        <ele>1985</ele>
        <time>2021-08-13T07:49:25.162Z</time>
      </trkpt>
      <trkpt lat="46.84624" lon="8.44355">
        <ele>1985</ele>
        <time>2021-08-13T07:49:26.163Z</time>
      </trkpt>
      <trkpt lat="46.84625" lon="8.44353">
        <ele>1985</ele>
        <time>2021-08-13T07:49:27.163Z</time>
      </trkpt>
      <trkpt lat="46.84626" lon="8.44352">
        <ele>1986</ele>
        <time>2021-08-13T07:49:28.162Z</time>
      </trkpt>
      <trkpt lat="46.84626" lon="8.4435">
        <ele>1986</ele>
        <time>2021-08-13T07:49:29.163Z</time>
      </trkpt>
      <trkpt lat="46.84627" lon="8.44349">
        <ele>1986</ele>
        <time>2021-08-13T07:49:30.162Z</time>
      </trkpt>
      <trkpt lat="46.84627" lon="8.44347">
        <ele>1986</ele>
        <time>2021-08-13T07:49:31.162Z</time>
      </trkpt>
      <trkpt lat="46.84628" lon="8.44346">
        <ele>1986</ele>
        <time>2021-08-13T07:49:32.162Z</time>
      </trkpt>
      <trkpt lat="46.84628" lon="8.44344">
        <ele>1987</ele>
        <time>2021-08-13T07:49:33.162Z</time>
      </trkpt>
      <trkpt lat="46.84628" lon="8.44343">
        <ele>1987</ele>
        <time>2021-08-13T07:49:34.163Z</time>
      </trkpt>
      <trkpt lat="46.84629" lon="8.44342">
        <ele>1987</ele>
        <time>2021-08-13T07:49:35.162Z</time>
      </trkpt>
      <trkpt lat="46.84629" lon="8.44341">
        <ele>1987</ele>
        <time>2021-08-13T07:49:36.163Z</time>
      </trkpt>
      <trkpt lat="46.8463" lon="8.44339">
        <ele>1986</ele>
        <time>2021-08-13T07:49:37.163Z</time>
      </trkpt>
      <trkpt lat="46.8463" lon="8.44338">
        <ele>1986</ele>
        <time>2021-08-13T07:49:38.163Z</time>
      </trkpt>
      <trkpt lat="46.84631" lon="8.44336">
        <ele>1986</ele>
        <time>2021-08-13T07:49:39.163Z</time>
      </trkpt>
      <trkpt lat="46.84631" lon="8.44334">
        <ele>1986</ele>
        <time>2021-08-13T07:49:40.162Z</time>
      </trkpt>
      <trkpt lat="46.84631" lon="8.44333">
        <ele>1986</ele>
        <time>2021-08-13T07:49:41.163Z</time>
      </trkpt>
      <trkpt lat="46.84632" lon="8.44331">
        <ele>1986</ele>
        <time>2021-08-13T07:49:42.162Z</time>
      </trkpt>
      <trkpt lat="46.84633" lon="8.4433">
        <ele>1987</ele>
        <time>2021-08-13T07:49:43.162Z</time>
      </trkpt>
      <trkpt lat="46.84633" lon="8.44328">
        <ele>1987</ele>
        <time>2021-08-13T07:49:44.163Z</time>
      </trkpt>
      <trkpt lat="46.84634" lon="8.44326">
        <ele>1987</ele>
        <time>2021-08-13T07:49:45.162Z</time>
      </trkpt>
      <trkpt lat="46.84634" lon="8.44324">
        <ele>1987</ele>
        <time>2021-08-13T07:49:46.163Z</time>
      </trkpt>
      <trkpt lat="46.84635" lon="8.44322">
        <ele>1988</ele>
        <time>2021-08-13T07:49:47.163Z</time>
      </trkpt>
      <trkpt lat="46.84635" lon="8.44321">
        <ele>1988</ele>
        <time>2021-08-13T07:49:48.163Z</time>
      </trkpt>
      <trkpt lat="46.84635" lon="8.44319">
        <ele>1988</ele>
        <time>2021-08-13T07:49:49.163Z</time>
      </trkpt>
      <trkpt lat="46.84635" lon="8.44318">
        <ele>1988</ele>
        <time>2021-08-13T07:49:50.163Z</time>
      </trkpt>
      <trkpt lat="46.84636" lon="8.44316">
        <ele>1988</ele>
        <time>2021-08-13T07:49:51.163Z</time>
      </trkpt>
      <trkpt lat="46.84636" lon="8.44314">
        <ele>1989</ele>
        <time>2021-08-13T07:49:52.162Z</time>
      </trkpt>
      <trkpt lat="46.84636" lon="8.44313">
        <ele>1989</ele>
        <time>2021-08-13T07:49:53.163Z</time>
      </trkpt>
      <trkpt lat="46.84636" lon="8.44311">
        <ele>1990</ele>
        <time>2021-08-13T07:49:54.162Z</time>
      </trkpt>
      <trkpt lat="46.84636" lon="8.4431">
        <ele>1990</ele>
        <time>2021-08-13T07:49:55.163Z</time>
      </trkpt>
      <trkpt lat="46.84636" lon="8.44308">
        <ele>1991</ele>
        <time>2021-08-13T07:49:56.163Z</time>
      </trkpt>
      <trkpt lat="46.84636" lon="8.44306">
        <ele>1991</ele>
        <time>2021-08-13T07:49:57.162Z</time>
      </trkpt>
      <trkpt lat="46.84636" lon="8.44305">
        <ele>1991</ele>
        <time>2021-08-13T07:49:58.163Z</time>
      </trkpt>
      <trkpt lat="46.84636" lon="8.44303">
        <ele>1991</ele>
        <time>2021-08-13T07:49:59.162Z</time>
      </trkpt>
      <trkpt lat="46.84636" lon="8.44302">
        <ele>1990</ele>
        <time>2021-08-13T07:50:00.162Z</time>
      </trkpt>
      <trkpt lat="46.84637" lon="8.443">
        <ele>1990</ele>
        <time>2021-08-13T07:50:01.162Z</time>
      </trkpt>
      <trkpt lat="46.84637" lon="8.44298">
        <ele>1990</ele>
        <time>2021-08-13T07:50:02.162Z</time>
      </trkpt>
      <trkpt lat="46.84638" lon="8.44297">
        <ele>1989</ele>
        <time>2021-08-13T07:50:03.162Z</time>
      </trkpt>
      <trkpt lat="46.84638" lon="8.44295">
        <ele>1989</ele>
        <time>2021-08-13T07:50:04.162Z</time>
      </trkpt>
      <trkpt lat="46.84639" lon="8.44293">
        <ele>1989</ele>
        <time>2021-08-13T07:50:05.162Z</time>
      </trkpt>
      <trkpt lat="46.84639" lon="8.44291">
        <ele>1989</ele>
        <time>2021-08-13T07:50:06.162Z</time>
      </trkpt>
      <trkpt lat="46.8464" lon="8.44289">
        <ele>1989</ele>
        <time>2021-08-13T07:50:07.163Z</time>
      </trkpt>
      <trkpt lat="46.8464" lon="8.44287">
        <ele>1989</ele>
        <time>2021-08-13T07:50:08.162Z</time>
      </trkpt>
      <trkpt lat="46.84641" lon="8.44285">
        <ele>1989</ele>
        <time>2021-08-13T07:50:09.162Z</time>
      </trkpt>
      <trkpt lat="46.84641" lon="8.44284">
        <ele>1989</ele>
        <time>2021-08-13T07:50:10.163Z</time>
      </trkpt>
      <trkpt lat="46.84642" lon="8.44282">
        <ele>1989</ele>
        <time>2021-08-13T07:50:11.162Z</time>
      </trkpt>
      <trkpt lat="46.84642" lon="8.44281">
        <ele>1989</ele>
        <time>2021-08-13T07:50:12.162Z</time>
      </trkpt>
      <trkpt lat="46.84643" lon="8.4428">
        <ele>1989</ele>
        <time>2021-08-13T07:50:13.163Z</time>
      </trkpt>
      <trkpt lat="46.84643" lon="8.44278">
        <ele>1989</ele>
        <time>2021-08-13T07:50:14.162Z</time>
      </trkpt>
      <trkpt lat="46.84644" lon="8.44277">
        <ele>1988</ele>
        <time>2021-08-13T07:50:15.162Z</time>
      </trkpt>
      <trkpt lat="46.84644" lon="8.44275">
        <ele>1988</ele>
        <time>2021-08-13T07:50:16.162Z</time>
      </trkpt>
      <trkpt lat="46.84645" lon="8.44273">
        <ele>1987</ele>
        <time>2021-08-13T07:50:17.162Z</time>
      </trkpt>
      <trkpt lat="46.84644" lon="8.44271">
        <ele>1987</ele>
        <time>2021-08-13T07:50:18.162Z</time>
      </trkpt>
      <trkpt lat="46.84644" lon="8.44269">
        <ele>1986</ele>
        <time>2021-08-13T07:50:19.162Z</time>
      </trkpt>
      <trkpt lat="46.84644" lon="8.44268">
        <ele>1986</ele>
        <time>2021-08-13T07:50:20.162Z</time>
      </trkpt>
      <trkpt lat="46.84644" lon="8.44267">
        <ele>1986</ele>
        <time>2021-08-13T07:50:21.163Z</time>
      </trkpt>
      <trkpt lat="46.84644" lon="8.44265">
        <ele>1985</ele>
        <time>2021-08-13T07:50:22.162Z</time>
      </trkpt>
      <trkpt lat="46.84645" lon="8.44264">
        <ele>1985</ele>
        <time>2021-08-13T07:50:23.162Z</time>
      </trkpt>
      <trkpt lat="46.84645" lon="8.44262">
        <ele>1985</ele>
        <time>2021-08-13T07:50:24.163Z</time>
      </trkpt>
      <trkpt lat="46.84645" lon="8.4426">
        <ele>1985</ele>
        <time>2021-08-13T07:50:25.162Z</time>
      </trkpt>
      <trkpt lat="46.84645" lon="8.44258">
        <ele>1985</ele>
        <time>2021-08-13T07:50:26.162Z</time>
      </trkpt>
      <trkpt lat="46.84646" lon="8.44256">
        <ele>1985</ele>
        <time>2021-08-13T07:50:27.163Z</time>
      </trkpt>
      <trkpt lat="46.84646" lon="8.44255">
        <ele>1985</ele>
        <time>2021-08-13T07:50:28.163Z</time>
      </trkpt>
      <trkpt lat="46.84646" lon="8.44254">
        <ele>1985</ele>
        <time>2021-08-13T07:50:29.163Z</time>
      </trkpt>
      <trkpt lat="46.84646" lon="8.44252">
        <ele>1985</ele>
        <time>2021-08-13T07:50:30.163Z</time>
      </trkpt>
      <trkpt lat="46.84646" lon="8.44251">
        <ele>1985</ele>
        <time>2021-08-13T07:50:31.163Z</time>
      </trkpt>
      <trkpt lat="46.84647" lon="8.44249">
        <ele>1984</ele>
        <time>2021-08-13T07:50:32.162Z</time>
      </trkpt>
      <trkpt lat="46.84647" lon="8.44248">
        <ele>1984</ele>
        <time>2021-08-13T07:50:33.162Z</time>
      </trkpt>
      <trkpt lat="46.84647" lon="8.44246">
        <ele>1984</ele>
        <time>2021-08-13T07:50:34.163Z</time>
      </trkpt>
      <trkpt lat="46.84647" lon="8.44244">
        <ele>1983</ele>
        <time>2021-08-13T07:50:35.162Z</time>
      </trkpt>
      <trkpt lat="46.84647" lon="8.44241">
        <ele>1983</ele>
        <time>2021-08-13T07:50:36.163Z</time>
      </trkpt>
      <trkpt lat="46.84648" lon="8.4424">
        <ele>1984</ele>
        <time>2021-08-13T07:50:37.163Z</time>
      </trkpt>
      <trkpt lat="46.84647" lon="8.44238">
        <ele>1984</ele>
        <time>2021-08-13T07:50:38.162Z</time>
      </trkpt>
      <trkpt lat="46.84647" lon="8.44236">
        <ele>1984</ele>
        <time>2021-08-13T07:50:39.163Z</time>
      </trkpt>
      <trkpt lat="46.84647" lon="8.44235">
        <ele>1984</ele>
        <time>2021-08-13T07:50:40.163Z</time>
      </trkpt>
      <trkpt lat="46.84647" lon="8.44234">
        <ele>1985</ele>
        <time>2021-08-13T07:50:41.162Z</time>
      </trkpt>
      <trkpt lat="46.84647" lon="8.44232">
        <ele>1985</ele>
        <time>2021-08-13T07:50:42.162Z</time>
      </trkpt>
      <trkpt lat="46.84647" lon="8.4423">
        <ele>1985</ele>
        <time>2021-08-13T07:50:43.163Z</time>
      </trkpt>
      <trkpt lat="46.84647" lon="8.44229">
        <ele>1984</ele>
        <time>2021-08-13T07:50:44.162Z</time>
      </trkpt>
      <trkpt lat="46.84647" lon="8.44227">
        <ele>1984</ele>
        <time>2021-08-13T07:50:45.163Z</time>
      </trkpt>
      <trkpt lat="46.84647" lon="8.44226">
        <ele>1984</ele>
        <time>2021-08-13T07:50:46.162Z</time>
      </trkpt>
      <trkpt lat="46.84647" lon="8.44224">
        <ele>1984</ele>
        <time>2021-08-13T07:50:47.163Z</time>
      </trkpt>
      <trkpt lat="46.84647" lon="8.44223">
        <ele>1984</ele>
        <time>2021-08-13T07:50:48.163Z</time>
      </trkpt>
      <trkpt lat="46.84647" lon="8.44221">
        <ele>1984</ele>
        <time>2021-08-13T07:50:49.163Z</time>
      </trkpt>
      <trkpt lat="46.84647" lon="8.4422">
        <ele>1984</ele>
        <time>2021-08-13T07:50:50.163Z</time>
      </trkpt>
      <trkpt lat="46.84647" lon="8.44218">
        <ele>1984</ele>
        <time>2021-08-13T07:50:51.163Z</time>
      </trkpt>
      <trkpt lat="46.84647" lon="8.44217">
        <ele>1984</ele>
        <time>2021-08-13T07:50:52.163Z</time>
      </trkpt>
      <trkpt lat="46.84647" lon="8.44215">
        <ele>1983</ele>
        <time>2021-08-13T07:50:53.162Z</time>
      </trkpt>
      <trkpt lat="46.84647" lon="8.44213">
        <ele>1982</ele>
        <time>2021-08-13T07:50:54.163Z</time>
      </trkpt>
      <trkpt lat="46.84647" lon="8.44211">
        <ele>1982</ele>
        <time>2021-08-13T07:50:55.162Z</time>
      </trkpt>
      <trkpt lat="46.84647" lon="8.44209">
        <ele>1981</ele>
        <time>2021-08-13T07:50:56.163Z</time>
      </trkpt>
      <trkpt lat="46.84647" lon="8.44208">
        <ele>1981</ele>
        <time>2021-08-13T07:50:57.163Z</time>
      </trkpt>
      <trkpt lat="46.84647" lon="8.44206">
        <ele>1981</ele>
        <time>2021-08-13T07:50:58.163Z</time>
      </trkpt>
      <trkpt lat="46.84647" lon="8.44205">
        <ele>1981</ele>
        <time>2021-08-13T07:50:59.162Z</time>
      </trkpt>
      <trkpt lat="46.84647" lon="8.44204">
        <ele>1981</ele>
        <time>2021-08-13T07:51:00.163Z</time>
      </trkpt>
      <trkpt lat="46.84647" lon="8.44203">
        <ele>1981</ele>
        <time>2021-08-13T07:51:01.162Z</time>
      </trkpt>
      <trkpt lat="46.84647" lon="8.44201">
        <ele>1980</ele>
        <time>2021-08-13T07:51:02.163Z</time>
      </trkpt>
      <trkpt lat="46.84646" lon="8.442">
        <ele>1980</ele>
        <time>2021-08-13T07:51:03.163Z</time>
      </trkpt>
      <trkpt lat="46.84646" lon="8.44199">
        <ele>1980</ele>
        <time>2021-08-13T07:51:04.163Z</time>
      </trkpt>
      <trkpt lat="46.84645" lon="8.44198">
        <ele>1980</ele>
        <time>2021-08-13T07:51:05.162Z</time>
      </trkpt>
      <trkpt lat="46.84645" lon="8.44197">
        <ele>1980</ele>
        <time>2021-08-13T07:51:06.163Z</time>
      </trkpt>
      <trkpt lat="46.84645" lon="8.44196">
        <ele>1979</ele>
        <time>2021-08-13T07:51:07.163Z</time>
      </trkpt>
      <trkpt lat="46.84645" lon="8.44195">
        <ele>1979</ele>
        <time>2021-08-13T07:51:08.163Z</time>
      </trkpt>
      <trkpt lat="46.84645" lon="8.44194">
        <ele>1979</ele>
        <time>2021-08-13T07:51:09.163Z</time>
      </trkpt>
      <trkpt lat="46.84645" lon="8.44192">
        <ele>1979</ele>
        <time>2021-08-13T07:51:10.163Z</time>
      </trkpt>
      <trkpt lat="46.84644" lon="8.4419">
        <ele>1979</ele>
        <time>2021-08-13T07:51:11.163Z</time>
      </trkpt>
      <trkpt lat="46.84644" lon="8.44189">
        <ele>1979</ele>
        <time>2021-08-13T07:51:12.163Z</time>
      </trkpt>
      <trkpt lat="46.84644" lon="8.44187">
        <ele>1979</ele>
        <time>2021-08-13T07:51:13.162Z</time>
      </trkpt>
      <trkpt lat="46.84644" lon="8.44186">
        <ele>1979</ele>
        <time>2021-08-13T07:51:14.163Z</time>
      </trkpt>
      <trkpt lat="46.84645" lon="8.44184">
        <ele>1979</ele>
        <time>2021-08-13T07:51:15.163Z</time>
      </trkpt>
      <trkpt lat="46.84645" lon="8.44183">
        <ele>1979</ele>
        <time>2021-08-13T07:51:16.162Z</time>
      </trkpt>
      <trkpt lat="46.84646" lon="8.44181">
        <ele>1979</ele>
        <time>2021-08-13T07:51:17.162Z</time>
      </trkpt>
      <trkpt lat="46.84646" lon="8.4418">
        <ele>1980</ele>
        <time>2021-08-13T07:51:18.163Z</time>
      </trkpt>
      <trkpt lat="46.84646" lon="8.44178">
        <ele>1980</ele>
        <time>2021-08-13T07:51:19.163Z</time>
      </trkpt>
      <trkpt lat="46.84646" lon="8.44177">
        <ele>1980</ele>
        <time>2021-08-13T07:51:20.162Z</time>
      </trkpt>
      <trkpt lat="46.84646" lon="8.44176">
        <ele>1981</ele>
        <time>2021-08-13T07:51:21.163Z</time>
      </trkpt>
      <trkpt lat="46.84647" lon="8.44175">
        <ele>1981</ele>
        <time>2021-08-13T07:51:22.163Z</time>
      </trkpt>
      <trkpt lat="46.84647" lon="8.44174">
        <ele>1981</ele>
        <time>2021-08-13T07:51:23.163Z</time>
      </trkpt>
      <trkpt lat="46.84647" lon="8.44174">
        <ele>1981</ele>
        <time>2021-08-13T07:51:24.162Z</time>
      </trkpt>
      <trkpt lat="46.84648" lon="8.44173">
        <ele>1980</ele>
        <time>2021-08-13T07:51:25.163Z</time>
      </trkpt>
      <trkpt lat="46.84649" lon="8.44173">
        <ele>1981</ele>
        <time>2021-08-13T07:51:26.163Z</time>
      </trkpt>
      <trkpt lat="46.8465" lon="8.44174">
        <ele>1982</ele>
        <time>2021-08-13T07:51:27.163Z</time>
      </trkpt>
      <trkpt lat="46.8465" lon="8.44173">
        <ele>1982</ele>
        <time>2021-08-13T07:51:28.163Z</time>
      </trkpt>
      <trkpt lat="46.84651" lon="8.44173">
        <ele>1982</ele>
        <time>2021-08-13T07:51:29.163Z</time>
      </trkpt>
      <trkpt lat="46.84652" lon="8.44172">
        <ele>1982</ele>
        <time>2021-08-13T07:51:30.163Z</time>
      </trkpt>
      <trkpt lat="46.84652" lon="8.44171">
        <ele>1982</ele>
        <time>2021-08-13T07:51:31.164Z</time>
      </trkpt>
      <trkpt lat="46.84653" lon="8.4417">
        <ele>1982</ele>
        <time>2021-08-13T07:51:32.163Z</time>
      </trkpt>
      <trkpt lat="46.84655" lon="8.44169">
        <ele>1982</ele>
        <time>2021-08-13T07:51:33.163Z</time>
      </trkpt>
      <trkpt lat="46.84655" lon="8.44168">
        <ele>1982</ele>
        <time>2021-08-13T07:51:34.164Z</time>
      </trkpt>
      <trkpt lat="46.84656" lon="8.44168">
        <ele>1982</ele>
        <time>2021-08-13T07:51:35.164Z</time>
      </trkpt>
      <trkpt lat="46.84657" lon="8.44167">
        <ele>1982</ele>
        <time>2021-08-13T07:51:36.164Z</time>
      </trkpt>
      <trkpt lat="46.84658" lon="8.44166">
        <ele>1982</ele>
        <time>2021-08-13T07:51:37.164Z</time>
      </trkpt>
      <trkpt lat="46.84659" lon="8.44166">
        <ele>1981</ele>
        <time>2021-08-13T07:51:38.164Z</time>
      </trkpt>
      <trkpt lat="46.8466" lon="8.44166">
        <ele>1981</ele>
        <time>2021-08-13T07:51:39.164Z</time>
      </trkpt>
      <trkpt lat="46.84661" lon="8.44166">
        <ele>1981</ele>
        <time>2021-08-13T07:51:40.164Z</time>
      </trkpt>
      <trkpt lat="46.84662" lon="8.44166">
        <ele>1980</ele>
        <time>2021-08-13T07:51:41.164Z</time>
      </trkpt>
      <trkpt lat="46.84663" lon="8.44166">
        <ele>1980</ele>
        <time>2021-08-13T07:51:42.164Z</time>
      </trkpt>
      <trkpt lat="46.84664" lon="8.44166">
        <ele>1979</ele>
        <time>2021-08-13T07:51:43.163Z</time>
      </trkpt>
      <trkpt lat="46.84665" lon="8.44165">
        <ele>1979</ele>
        <time>2021-08-13T07:51:44.163Z</time>
      </trkpt>
      <trkpt lat="46.84667" lon="8.44165">
        <ele>1979</ele>
        <time>2021-08-13T07:51:45.164Z</time>
      </trkpt>
      <trkpt lat="46.84668" lon="8.44165">
        <ele>1979</ele>
        <time>2021-08-13T07:51:46.163Z</time>
      </trkpt>
      <trkpt lat="46.84669" lon="8.44165">
        <ele>1979</ele>
        <time>2021-08-13T07:51:47.164Z</time>
      </trkpt>
      <trkpt lat="46.8467" lon="8.44165">
        <ele>1979</ele>
        <time>2021-08-13T07:51:48.164Z</time>
      </trkpt>
      <trkpt lat="46.8467" lon="8.44166">
        <ele>1980</ele>
        <time>2021-08-13T07:51:49.164Z</time>
      </trkpt>
      <trkpt lat="46.84671" lon="8.44166">
        <ele>1980</ele>
        <time>2021-08-13T07:51:50.163Z</time>
      </trkpt>
      <trkpt lat="46.84671" lon="8.44167">
        <ele>1981</ele>
        <time>2021-08-13T07:51:51.163Z</time>
      </trkpt>
      <trkpt lat="46.84672" lon="8.44168">
        <ele>1981</ele>
        <time>2021-08-13T07:51:52.164Z</time>
      </trkpt>
      <trkpt lat="46.84673" lon="8.44168">
        <ele>1981</ele>
        <time>2021-08-13T07:51:53.164Z</time>
      </trkpt>
      <trkpt lat="46.84674" lon="8.44169">
        <ele>1981</ele>
        <time>2021-08-13T07:51:54.164Z</time>
      </trkpt>
      <trkpt lat="46.84674" lon="8.44169">
        <ele>1982</ele>
        <time>2021-08-13T07:51:55.164Z</time>
      </trkpt>
      <trkpt lat="46.84675" lon="8.44169">
        <ele>1982</ele>
        <time>2021-08-13T07:51:56.164Z</time>
      </trkpt>
      <trkpt lat="46.84676" lon="8.44169">
        <ele>1982</ele>
        <time>2021-08-13T07:51:57.163Z</time>
      </trkpt>
      <trkpt lat="46.84677" lon="8.44169">
        <ele>1981</ele>
        <time>2021-08-13T07:51:58.164Z</time>
      </trkpt>
      <trkpt lat="46.84678" lon="8.44169">
        <ele>1981</ele>
        <time>2021-08-13T07:51:59.164Z</time>
      </trkpt>
      <trkpt lat="46.84679" lon="8.4417">
        <ele>1980</ele>
        <time>2021-08-13T07:52:00.163Z</time>
      </trkpt>
      <trkpt lat="46.8468" lon="8.44171">
        <ele>1980</ele>
        <time>2021-08-13T07:52:01.163Z</time>
      </trkpt>
      <trkpt lat="46.84681" lon="8.44172">
        <ele>1980</ele>
        <time>2021-08-13T07:52:02.163Z</time>
      </trkpt>
      <trkpt lat="46.84682" lon="8.44173">
        <ele>1980</ele>
        <time>2021-08-13T07:52:03.164Z</time>
      </trkpt>
      <trkpt lat="46.84683" lon="8.44174">
        <ele>1979</ele>
        <time>2021-08-13T07:52:04.163Z</time>
      </trkpt>
      <trkpt lat="46.84684" lon="8.44175">
        <ele>1979</ele>
        <time>2021-08-13T07:52:05.164Z</time>
      </trkpt>
      <trkpt lat="46.84685" lon="8.44175">
        <ele>1979</ele>
        <time>2021-08-13T07:52:06.164Z</time>
      </trkpt>
      <trkpt lat="46.84687" lon="8.44175">
        <ele>1978</ele>
        <time>2021-08-13T07:52:07.164Z</time>
      </trkpt>
      <trkpt lat="46.84688" lon="8.44174">
        <ele>1977</ele>
        <time>2021-08-13T07:52:08.164Z</time>
      </trkpt>
      <trkpt lat="46.8469" lon="8.44173">
        <ele>1975</ele>
        <time>2021-08-13T07:52:09.164Z</time>
      </trkpt>
      <trkpt lat="46.84691" lon="8.44173">
        <ele>1975</ele>
        <time>2021-08-13T07:52:10.164Z</time>
      </trkpt>
      <trkpt lat="46.84693" lon="8.44172">
        <ele>1974</ele>
        <time>2021-08-13T07:52:11.163Z</time>
      </trkpt>
      <trkpt lat="46.84695" lon="8.4417">
        <ele>1974</ele>
        <time>2021-08-13T07:52:12.163Z</time>
      </trkpt>
      <trkpt lat="46.84697" lon="8.44169">
        <ele>1974</ele>
        <time>2021-08-13T07:52:13.164Z</time>
      </trkpt>
      <trkpt lat="46.84698" lon="8.44167">
        <ele>1974</ele>
        <time>2021-08-13T07:52:14.164Z</time>
      </trkpt>
      <trkpt lat="46.84699" lon="8.44166">
        <ele>1974</ele>
        <time>2021-08-13T07:52:15.164Z</time>
      </trkpt>
      <trkpt lat="46.84699" lon="8.44165">
        <ele>1974</ele>
        <time>2021-08-13T07:52:16.164Z</time>
      </trkpt>
      <trkpt lat="46.847" lon="8.44164">
        <ele>1974</ele>
        <time>2021-08-13T07:52:17.164Z</time>
      </trkpt>
      <trkpt lat="46.84701" lon="8.44163">
        <ele>1974</ele>
        <time>2021-08-13T07:52:18.164Z</time>
      </trkpt>
      <trkpt lat="46.84702" lon="8.44163">
        <ele>1974</ele>
        <time>2021-08-13T07:52:19.164Z</time>
      </trkpt>
      <trkpt lat="46.84703" lon="8.44163">
        <ele>1974</ele>
        <time>2021-08-13T07:52:20.164Z</time>
      </trkpt>
      <trkpt lat="46.84704" lon="8.44163">
        <ele>1973</ele>
        <time>2021-08-13T07:52:21.163Z</time>
      </trkpt>
      <trkpt lat="46.84706" lon="8.44163">
        <ele>1972</ele>
        <time>2021-08-13T07:52:22.164Z</time>
      </trkpt>
      <trkpt lat="46.84707" lon="8.44163">
        <ele>1971</ele>
        <time>2021-08-13T07:52:23.163Z</time>
      </trkpt>
      <trkpt lat="46.84708" lon="8.44162">
        <ele>1970</ele>
        <time>2021-08-13T07:52:24.164Z</time>
      </trkpt>
      <trkpt lat="46.84709" lon="8.44162">
        <ele>1969</ele>
        <time>2021-08-13T07:52:25.164Z</time>
      </trkpt>
      <trkpt lat="46.8471" lon="8.44161">
        <ele>1969</ele>
        <time>2021-08-13T07:52:26.164Z</time>
      </trkpt>
      <trkpt lat="46.84711" lon="8.4416">
        <ele>1968</ele>
        <time>2021-08-13T07:52:27.164Z</time>
      </trkpt>
      <trkpt lat="46.84712" lon="8.4416">
        <ele>1968</ele>
        <time>2021-08-13T07:52:28.164Z</time>
      </trkpt>
      <trkpt lat="46.84712" lon="8.4416">
        <ele>1967</ele>
        <time>2021-08-13T07:52:29.163Z</time>
      </trkpt>
      <trkpt lat="46.84712" lon="8.4416">
        <ele>1967</ele>
        <time>2021-08-13T07:52:30.164Z</time>
      </trkpt>
      <trkpt lat="46.84712" lon="8.44155">
        <ele>1961</ele>
        <time>2021-08-13T07:52:31.163Z</time>
      </trkpt>
      <trkpt lat="46.84712" lon="8.44154">
        <ele>1961</ele>
        <time>2021-08-13T07:52:32.164Z</time>
      </trkpt>
      <trkpt lat="46.84712" lon="8.44154">
        <ele>1960</ele>
        <time>2021-08-13T07:52:33.163Z</time>
      </trkpt>
      <trkpt lat="46.84712" lon="8.44152">
        <ele>1961</ele>
        <time>2021-08-13T07:52:34.164Z</time>
      </trkpt>
      <trkpt lat="46.84713" lon="8.44151">
        <ele>1961</ele>
        <time>2021-08-13T07:52:35.164Z</time>
      </trkpt>
      <trkpt lat="46.84713" lon="8.4415">
        <ele>1961</ele>
        <time>2021-08-13T07:52:36.163Z</time>
      </trkpt>
      <trkpt lat="46.84713" lon="8.44148">
        <ele>1961</ele>
        <time>2021-08-13T07:52:37.164Z</time>
      </trkpt>
      <trkpt lat="46.84713" lon="8.44148">
        <ele>1961</ele>
        <time>2021-08-13T07:52:38.163Z</time>
      </trkpt>
      <trkpt lat="46.84714" lon="8.44148">
        <ele>1961</ele>
        <time>2021-08-13T07:52:39.164Z</time>
      </trkpt>
      <trkpt lat="46.84713" lon="8.44148">
        <ele>1962</ele>
        <time>2021-08-13T07:52:40.164Z</time>
      </trkpt>
      <trkpt lat="46.84713" lon="8.44148">
        <ele>1962</ele>
        <time>2021-08-13T07:52:41.164Z</time>
      </trkpt>
      <trkpt lat="46.84713" lon="8.44146">
        <ele>1962</ele>
        <time>2021-08-13T07:52:42.163Z</time>
      </trkpt>
      <trkpt lat="46.84714" lon="8.44145">
        <ele>1962</ele>
        <time>2021-08-13T07:52:43.164Z</time>
      </trkpt>
      <trkpt lat="46.84714" lon="8.44144">
        <ele>1962</ele>
        <time>2021-08-13T07:52:44.163Z</time>
      </trkpt>
      <trkpt lat="46.84714" lon="8.44143">
        <ele>1962</ele>
        <time>2021-08-13T07:52:45.163Z</time>
      </trkpt>
      <trkpt lat="46.84714" lon="8.44142">
        <ele>1962</ele>
        <time>2021-08-13T07:52:46.164Z</time>
      </trkpt>
      <trkpt lat="46.84714" lon="8.44141">
        <ele>1962</ele>
        <time>2021-08-13T07:52:47.163Z</time>
      </trkpt>
      <trkpt lat="46.84713" lon="8.4414">
        <ele>1963</ele>
        <time>2021-08-13T07:52:48.164Z</time>
      </trkpt>
      <trkpt lat="46.84712" lon="8.4414">
        <ele>1963</ele>
        <time>2021-08-13T07:52:49.164Z</time>
      </trkpt>
      <trkpt lat="46.84712" lon="8.44139">
        <ele>1962</ele>
        <time>2021-08-13T07:52:50.164Z</time>
      </trkpt>
      <trkpt lat="46.84711" lon="8.44138">
        <ele>1962</ele>
        <time>2021-08-13T07:52:51.164Z</time>
      </trkpt>
      <trkpt lat="46.84711" lon="8.44137">
        <ele>1962</ele>
        <time>2021-08-13T07:52:52.164Z</time>
      </trkpt>
      <trkpt lat="46.8471" lon="8.44136">
        <ele>1962</ele>
        <time>2021-08-13T07:52:53.164Z</time>
      </trkpt>
      <trkpt lat="46.8471" lon="8.44135">
        <ele>1962</ele>
        <time>2021-08-13T07:52:54.163Z</time>
      </trkpt>
      <trkpt lat="46.84709" lon="8.44134">
        <ele>1962</ele>
        <time>2021-08-13T07:52:55.164Z</time>
      </trkpt>
      <trkpt lat="46.84709" lon="8.44132">
        <ele>1962</ele>
        <time>2021-08-13T07:52:56.163Z</time>
      </trkpt>
      <trkpt lat="46.84708" lon="8.44131">
        <ele>1963</ele>
        <time>2021-08-13T07:52:57.164Z</time>
      </trkpt>
      <trkpt lat="46.84708" lon="8.44131">
        <ele>1963</ele>
        <time>2021-08-13T07:52:58.164Z</time>
      </trkpt>
      <trkpt lat="46.84707" lon="8.44129">
        <ele>1963</ele>
        <time>2021-08-13T07:52:59.164Z</time>
      </trkpt>
      <trkpt lat="46.84707" lon="8.44128">
        <ele>1963</ele>
        <time>2021-08-13T07:53:00.163Z</time>
      </trkpt>
      <trkpt lat="46.84707" lon="8.44127">
        <ele>1963</ele>
        <time>2021-08-13T07:53:01.164Z</time>
      </trkpt>
      <trkpt lat="46.84705" lon="8.44126">
        <ele>1963</ele>
        <time>2021-08-13T07:53:02.164Z</time>
      </trkpt>
      <trkpt lat="46.84704" lon="8.44125">
        <ele>1963</ele>
        <time>2021-08-13T07:53:03.163Z</time>
      </trkpt>
      <trkpt lat="46.84704" lon="8.44124">
        <ele>1963</ele>
        <time>2021-08-13T07:53:04.163Z</time>
      </trkpt>
      <trkpt lat="46.84703" lon="8.44123">
        <ele>1963</ele>
        <time>2021-08-13T07:53:05.164Z</time>
      </trkpt>
      <trkpt lat="46.84703" lon="8.44122">
        <ele>1963</ele>
        <time>2021-08-13T07:53:06.164Z</time>
      </trkpt>
      <trkpt lat="46.84702" lon="8.44121">
        <ele>1963</ele>
        <time>2021-08-13T07:53:07.164Z</time>
      </trkpt>
      <trkpt lat="46.84702" lon="8.44119">
        <ele>1963</ele>
        <time>2021-08-13T07:53:08.164Z</time>
      </trkpt>
      <trkpt lat="46.84702" lon="8.44118">
        <ele>1963</ele>
        <time>2021-08-13T07:53:09.163Z</time>
      </trkpt>
      <trkpt lat="46.84702" lon="8.44117">
        <ele>1963</ele>
        <time>2021-08-13T07:53:10.163Z</time>
      </trkpt>
      <trkpt lat="46.84702" lon="8.44116">
        <ele>1963</ele>
        <time>2021-08-13T07:53:11.164Z</time>
      </trkpt>
      <trkpt lat="46.84702" lon="8.44114">
        <ele>1963</ele>
        <time>2021-08-13T07:53:12.164Z</time>
      </trkpt>
      <trkpt lat="46.84702" lon="8.44113">
        <ele>1963</ele>
        <time>2021-08-13T07:53:13.164Z</time>
      </trkpt>
      <trkpt lat="46.84702" lon="8.44111">
        <ele>1963</ele>
        <time>2021-08-13T07:53:14.163Z</time>
      </trkpt>
      <trkpt lat="46.84702" lon="8.44109">
        <ele>1963</ele>
        <time>2021-08-13T07:53:15.164Z</time>
      </trkpt>
      <trkpt lat="46.84701" lon="8.44108">
        <ele>1963</ele>
        <time>2021-08-13T07:53:16.163Z</time>
      </trkpt>
      <trkpt lat="46.84701" lon="8.44106">
        <ele>1963</ele>
        <time>2021-08-13T07:53:17.164Z</time>
      </trkpt>
      <trkpt lat="46.84701" lon="8.44104">
        <ele>1963</ele>
        <time>2021-08-13T07:53:18.164Z</time>
      </trkpt>
      <trkpt lat="46.847" lon="8.44103">
        <ele>1962</ele>
        <time>2021-08-13T07:53:19.164Z</time>
      </trkpt>
      <trkpt lat="46.847" lon="8.44102">
        <ele>1962</ele>
        <time>2021-08-13T07:53:20.164Z</time>
      </trkpt>
      <trkpt lat="46.84699" lon="8.441">
        <ele>1963</ele>
        <time>2021-08-13T07:53:21.164Z</time>
      </trkpt>
      <trkpt lat="46.84698" lon="8.44099">
        <ele>1963</ele>
        <time>2021-08-13T07:53:22.164Z</time>
      </trkpt>
      <trkpt lat="46.84697" lon="8.44097">
        <ele>1962</ele>
        <time>2021-08-13T07:53:23.164Z</time>
      </trkpt>
      <trkpt lat="46.84697" lon="8.44096">
        <ele>1962</ele>
        <time>2021-08-13T07:53:24.164Z</time>
      </trkpt>
      <trkpt lat="46.84696" lon="8.44095">
        <ele>1962</ele>
        <time>2021-08-13T07:53:25.164Z</time>
      </trkpt>
      <trkpt lat="46.84695" lon="8.44094">
        <ele>1962</ele>
        <time>2021-08-13T07:53:26.164Z</time>
      </trkpt>
      <trkpt lat="46.84694" lon="8.44093">
        <ele>1963</ele>
        <time>2021-08-13T07:53:27.164Z</time>
      </trkpt>
      <trkpt lat="46.84693" lon="8.44092">
        <ele>1963</ele>
        <time>2021-08-13T07:53:28.164Z</time>
      </trkpt>
      <trkpt lat="46.84692" lon="8.44091">
        <ele>1963</ele>
        <time>2021-08-13T07:53:29.163Z</time>
      </trkpt>
      <trkpt lat="46.84692" lon="8.4409">
        <ele>1963</ele>
        <time>2021-08-13T07:53:30.164Z</time>
      </trkpt>
      <trkpt lat="46.84691" lon="8.44089">
        <ele>1963</ele>
        <time>2021-08-13T07:53:31.163Z</time>
      </trkpt>
      <trkpt lat="46.8469" lon="8.44088">
        <ele>1963</ele>
        <time>2021-08-13T07:53:32.164Z</time>
      </trkpt>
      <trkpt lat="46.84689" lon="8.44086">
        <ele>1963</ele>
        <time>2021-08-13T07:53:33.164Z</time>
      </trkpt>
      <trkpt lat="46.84689" lon="8.44085">
        <ele>1963</ele>
        <time>2021-08-13T07:53:34.164Z</time>
      </trkpt>
      <trkpt lat="46.84688" lon="8.44084">
        <ele>1963</ele>
        <time>2021-08-13T07:53:35.164Z</time>
      </trkpt>
      <trkpt lat="46.84687" lon="8.44083">
        <ele>1963</ele>
        <time>2021-08-13T07:53:36.164Z</time>
      </trkpt>
      <trkpt lat="46.84686" lon="8.44081">
        <ele>1962</ele>
        <time>2021-08-13T07:53:37.163Z</time>
      </trkpt>
      <trkpt lat="46.84685" lon="8.4408">
        <ele>1962</ele>
        <time>2021-08-13T07:53:38.164Z</time>
      </trkpt>
      <trkpt lat="46.84685" lon="8.44078">
        <ele>1961</ele>
        <time>2021-08-13T07:53:39.164Z</time>
      </trkpt>
      <trkpt lat="46.84684" lon="8.44077">
        <ele>1960</ele>
        <time>2021-08-13T07:53:40.163Z</time>
      </trkpt>
      <trkpt lat="46.84683" lon="8.44075">
        <ele>1959</ele>
        <time>2021-08-13T07:53:41.164Z</time>
      </trkpt>
      <trkpt lat="46.84683" lon="8.44074">
        <ele>1959</ele>
        <time>2021-08-13T07:53:42.164Z</time>
      </trkpt>
      <trkpt lat="46.84682" lon="8.44073">
        <ele>1958</ele>
        <time>2021-08-13T07:53:43.164Z</time>
      </trkpt>
      <trkpt lat="46.84682" lon="8.44072">
        <ele>1958</ele>
        <time>2021-08-13T07:53:44.163Z</time>
      </trkpt>
      <trkpt lat="46.84681" lon="8.4407">
        <ele>1958</ele>
        <time>2021-08-13T07:53:45.164Z</time>
      </trkpt>
      <trkpt lat="46.8468" lon="8.44069">
        <ele>1958</ele>
        <time>2021-08-13T07:53:46.164Z</time>
      </trkpt>
      <trkpt lat="46.84679" lon="8.44068">
        <ele>1958</ele>
        <time>2021-08-13T07:53:47.164Z</time>
      </trkpt>
      <trkpt lat="46.84679" lon="8.44065">
        <ele>1958</ele>
        <time>2021-08-13T07:53:48.163Z</time>
      </trkpt>
      <trkpt lat="46.84679" lon="8.44064">
        <ele>1958</ele>
        <time>2021-08-13T07:53:49.164Z</time>
      </trkpt>
      <trkpt lat="46.84679" lon="8.44063">
        <ele>1958</ele>
        <time>2021-08-13T07:53:50.164Z</time>
      </trkpt>
      <trkpt lat="46.84678" lon="8.44062">
        <ele>1958</ele>
        <time>2021-08-13T07:53:51.163Z</time>
      </trkpt>
      <trkpt lat="46.84678" lon="8.44061">
        <ele>1958</ele>
        <time>2021-08-13T07:53:52.164Z</time>
      </trkpt>
      <trkpt lat="46.84677" lon="8.4406">
        <ele>1958</ele>
        <time>2021-08-13T07:53:53.163Z</time>
      </trkpt>
      <trkpt lat="46.84676" lon="8.44059">
        <ele>1958</ele>
        <time>2021-08-13T07:53:54.164Z</time>
      </trkpt>
      <trkpt lat="46.84675" lon="8.44059">
        <ele>1958</ele>
        <time>2021-08-13T07:53:55.164Z</time>
      </trkpt>
      <trkpt lat="46.84675" lon="8.44057">
        <ele>1958</ele>
        <time>2021-08-13T07:53:56.163Z</time>
      </trkpt>
      <trkpt lat="46.84674" lon="8.44056">
        <ele>1957</ele>
        <time>2021-08-13T07:53:57.163Z</time>
      </trkpt>
      <trkpt lat="46.84673" lon="8.44054">
        <ele>1956</ele>
        <time>2021-08-13T07:53:58.164Z</time>
      </trkpt>
      <trkpt lat="46.84673" lon="8.44053">
        <ele>1956</ele>
        <time>2021-08-13T07:53:59.164Z</time>
      </trkpt>
      <trkpt lat="46.84673" lon="8.44052">
        <ele>1956</ele>
        <time>2021-08-13T07:54:00.164Z</time>
      </trkpt>
      <trkpt lat="46.84672" lon="8.44052">
        <ele>1955</ele>
        <time>2021-08-13T07:54:01.164Z</time>
      </trkpt>
      <trkpt lat="46.84671" lon="8.44052">
        <ele>1955</ele>
        <time>2021-08-13T07:54:02.164Z</time>
      </trkpt>
      <trkpt lat="46.8467" lon="8.44051">
        <ele>1955</ele>
        <time>2021-08-13T07:54:03.163Z</time>
      </trkpt>
      <trkpt lat="46.84669" lon="8.44051">
        <ele>1956</ele>
        <time>2021-08-13T07:54:04.163Z</time>
      </trkpt>
      <trkpt lat="46.84668" lon="8.4405">
        <ele>1956</ele>
        <time>2021-08-13T07:54:05.164Z</time>
      </trkpt>
      <trkpt lat="46.84667" lon="8.44049">
        <ele>1956</ele>
        <time>2021-08-13T07:54:06.164Z</time>
      </trkpt>
      <trkpt lat="46.84666" lon="8.44048">
        <ele>1956</ele>
        <time>2021-08-13T07:54:07.163Z</time>
      </trkpt>
      <trkpt lat="46.84665" lon="8.44048">
        <ele>1956</ele>
        <time>2021-08-13T07:54:08.164Z</time>
      </trkpt>
      <trkpt lat="46.84664" lon="8.44047">
        <ele>1955</ele>
        <time>2021-08-13T07:54:09.163Z</time>
      </trkpt>
      <trkpt lat="46.84663" lon="8.44046">
        <ele>1955</ele>
        <time>2021-08-13T07:54:10.163Z</time>
      </trkpt>
      <trkpt lat="46.84662" lon="8.44045">
        <ele>1954</ele>
        <time>2021-08-13T07:54:11.164Z</time>
      </trkpt>
      <trkpt lat="46.84661" lon="8.44044">
        <ele>1954</ele>
        <time>2021-08-13T07:54:12.164Z</time>
      </trkpt>
      <trkpt lat="46.8466" lon="8.44042">
        <ele>1954</ele>
        <time>2021-08-13T07:54:13.164Z</time>
      </trkpt>
      <trkpt lat="46.84659" lon="8.44041">
        <ele>1954</ele>
        <time>2021-08-13T07:54:14.163Z</time>
      </trkpt>
      <trkpt lat="46.84659" lon="8.4404">
        <ele>1954</ele>
        <time>2021-08-13T07:54:15.164Z</time>
      </trkpt>
      <trkpt lat="46.84658" lon="8.4404">
        <ele>1954</ele>
        <time>2021-08-13T07:54:16.163Z</time>
      </trkpt>
      <trkpt lat="46.84658" lon="8.44039">
        <ele>1953</ele>
        <time>2021-08-13T07:54:17.164Z</time>
      </trkpt>
      <trkpt lat="46.84657" lon="8.44038">
        <ele>1953</ele>
        <time>2021-08-13T07:54:18.164Z</time>
      </trkpt>
      <trkpt lat="46.84657" lon="8.44037">
        <ele>1953</ele>
        <time>2021-08-13T07:54:19.163Z</time>
      </trkpt>
      <trkpt lat="46.84656" lon="8.44036">
        <ele>1953</ele>
        <time>2021-08-13T07:54:20.164Z</time>
      </trkpt>
      <trkpt lat="46.84656" lon="8.44034">
        <ele>1953</ele>
        <time>2021-08-13T07:54:21.163Z</time>
      </trkpt>
      <trkpt lat="46.84655" lon="8.44032">
        <ele>1953</ele>
        <time>2021-08-13T07:54:22.164Z</time>
      </trkpt>
      <trkpt lat="46.84654" lon="8.44031">
        <ele>1953</ele>
        <time>2021-08-13T07:54:23.164Z</time>
      </trkpt>
      <trkpt lat="46.84653" lon="8.4403">
        <ele>1953</ele>
        <time>2021-08-13T07:54:24.163Z</time>
      </trkpt>
      <trkpt lat="46.84652" lon="8.44029">
        <ele>1954</ele>
        <time>2021-08-13T07:54:25.164Z</time>
      </trkpt>
      <trkpt lat="46.84651" lon="8.44029">
        <ele>1954</ele>
        <time>2021-08-13T07:54:26.163Z</time>
      </trkpt>
      <trkpt lat="46.84651" lon="8.44029">
        <ele>1954</ele>
        <time>2021-08-13T07:54:27.164Z</time>
      </trkpt>
      <trkpt lat="46.84651" lon="8.44029">
        <ele>1954</ele>
        <time>2021-08-13T07:54:28.164Z</time>
      </trkpt>
      <trkpt lat="46.8465" lon="8.44029">
        <ele>1955</ele>
        <time>2021-08-13T07:54:29.163Z</time>
      </trkpt>
      <trkpt lat="46.8465" lon="8.44029">
        <ele>1955</ele>
        <time>2021-08-13T07:54:30.164Z</time>
      </trkpt>
      <trkpt lat="46.84649" lon="8.44028">
        <ele>1955</ele>
        <time>2021-08-13T07:54:31.164Z</time>
      </trkpt>
      <trkpt lat="46.84649" lon="8.44027">
        <ele>1956</ele>
        <time>2021-08-13T07:54:32.164Z</time>
      </trkpt>
      <trkpt lat="46.84649" lon="8.44026">
        <ele>1956</ele>
        <time>2021-08-13T07:54:33.164Z</time>
      </trkpt>
      <trkpt lat="46.84648" lon="8.44025">
        <ele>1956</ele>
        <time>2021-08-13T07:54:34.164Z</time>
      </trkpt>
      <trkpt lat="46.84648" lon="8.44024">
        <ele>1957</ele>
        <time>2021-08-13T07:54:35.164Z</time>
      </trkpt>
      <trkpt lat="46.84647" lon="8.44023">
        <ele>1957</ele>
        <time>2021-08-13T07:54:36.164Z</time>
      </trkpt>
      <trkpt lat="46.84646" lon="8.44022">
        <ele>1956</ele>
        <time>2021-08-13T07:54:37.164Z</time>
      </trkpt>
      <trkpt lat="46.84645" lon="8.44021">
        <ele>1956</ele>
        <time>2021-08-13T07:54:38.163Z</time>
      </trkpt>
      <trkpt lat="46.84645" lon="8.4402">
        <ele>1956</ele>
        <time>2021-08-13T07:54:39.164Z</time>
      </trkpt>
      <trkpt lat="46.84645" lon="8.44019">
        <ele>1957</ele>
        <time>2021-08-13T07:54:40.163Z</time>
      </trkpt>
      <trkpt lat="46.84644" lon="8.44018">
        <ele>1957</ele>
        <time>2021-08-13T07:54:41.164Z</time>
      </trkpt>
      <trkpt lat="46.84644" lon="8.44017">
        <ele>1958</ele>
        <time>2021-08-13T07:54:42.164Z</time>
      </trkpt>
      <trkpt lat="46.84644" lon="8.44015">
        <ele>1958</ele>
        <time>2021-08-13T07:54:43.163Z</time>
      </trkpt>
      <trkpt lat="46.84644" lon="8.44013">
        <ele>1959</ele>
        <time>2021-08-13T07:54:44.163Z</time>
      </trkpt>
      <trkpt lat="46.84644" lon="8.44012">
        <ele>1960</ele>
        <time>2021-08-13T07:54:45.164Z</time>
      </trkpt>
      <trkpt lat="46.84645" lon="8.44011">
        <ele>1960</ele>
        <time>2021-08-13T07:54:46.164Z</time>
      </trkpt>
      <trkpt lat="46.84645" lon="8.4401">
        <ele>1961</ele>
        <time>2021-08-13T07:54:47.164Z</time>
      </trkpt>
      <trkpt lat="46.84646" lon="8.44009">
        <ele>1962</ele>
        <time>2021-08-13T07:54:48.164Z</time>
      </trkpt>
      <trkpt lat="46.84646" lon="8.44008">
        <ele>1963</ele>
        <time>2021-08-13T07:54:49.164Z</time>
      </trkpt>
      <trkpt lat="46.84647" lon="8.44007">
        <ele>1963</ele>
        <time>2021-08-13T07:54:50.164Z</time>
      </trkpt>
      <trkpt lat="46.84647" lon="8.44006">
        <ele>1962</ele>
        <time>2021-08-13T07:54:51.164Z</time>
      </trkpt>
      <trkpt lat="46.84647" lon="8.44006">
        <ele>1962</ele>
        <time>2021-08-13T07:54:52.163Z</time>
      </trkpt>
      <trkpt lat="46.84647" lon="8.44007">
        <ele>1961</ele>
        <time>2021-08-13T07:54:53.164Z</time>
      </trkpt>
      <trkpt lat="46.84646" lon="8.44007">
        <ele>1960</ele>
        <time>2021-08-13T07:54:54.164Z</time>
      </trkpt>
      <trkpt lat="46.84648" lon="8.44005">
        <ele>1958</ele>
        <time>2021-08-13T07:54:55.165Z</time>
      </trkpt>
      <trkpt lat="46.84648" lon="8.44003">
        <ele>1958</ele>
        <time>2021-08-13T07:54:56.164Z</time>
      </trkpt>
      <trkpt lat="46.84649" lon="8.44002">
        <ele>1957</ele>
        <time>2021-08-13T07:54:57.164Z</time>
      </trkpt>
      <trkpt lat="46.84649" lon="8.44">
        <ele>1957</ele>
        <time>2021-08-13T07:54:58.165Z</time>
      </trkpt>
      <trkpt lat="46.84649" lon="8.43999">
        <ele>1957</ele>
        <time>2021-08-13T07:54:59.164Z</time>
      </trkpt>
      <trkpt lat="46.8465" lon="8.43997">
        <ele>1958</ele>
        <time>2021-08-13T07:55:00.164Z</time>
      </trkpt>
      <trkpt lat="46.8465" lon="8.43995">
        <ele>1958</ele>
        <time>2021-08-13T07:55:01.164Z</time>
      </trkpt>
      <trkpt lat="46.8465" lon="8.43994">
        <ele>1958</ele>
        <time>2021-08-13T07:55:02.165Z</time>
      </trkpt>
      <trkpt lat="46.8465" lon="8.43992">
        <ele>1959</ele>
        <time>2021-08-13T07:55:03.165Z</time>
      </trkpt>
      <trkpt lat="46.8465" lon="8.4399">
        <ele>1959</ele>
        <time>2021-08-13T07:55:04.164Z</time>
      </trkpt>
      <trkpt lat="46.8465" lon="8.43989">
        <ele>1959</ele>
        <time>2021-08-13T07:55:05.165Z</time>
      </trkpt>
      <trkpt lat="46.8465" lon="8.43988">
        <ele>1958</ele>
        <time>2021-08-13T07:55:06.164Z</time>
      </trkpt>
      <trkpt lat="46.8465" lon="8.43986">
        <ele>1958</ele>
        <time>2021-08-13T07:55:07.165Z</time>
      </trkpt>
      <trkpt lat="46.8465" lon="8.43985">
        <ele>1958</ele>
        <time>2021-08-13T07:55:08.165Z</time>
      </trkpt>
      <trkpt lat="46.8465" lon="8.43983">
        <ele>1957</ele>
        <time>2021-08-13T07:55:09.165Z</time>
      </trkpt>
      <trkpt lat="46.8465" lon="8.43982">
        <ele>1957</ele>
        <time>2021-08-13T07:55:10.165Z</time>
      </trkpt>
      <trkpt lat="46.8465" lon="8.43981">
        <ele>1957</ele>
        <time>2021-08-13T07:55:11.165Z</time>
      </trkpt>
      <trkpt lat="46.8465" lon="8.43979">
        <ele>1957</ele>
        <time>2021-08-13T07:55:12.165Z</time>
      </trkpt>
      <trkpt lat="46.84651" lon="8.43977">
        <ele>1956</ele>
        <time>2021-08-13T07:55:13.165Z</time>
      </trkpt>
      <trkpt lat="46.84651" lon="8.43976">
        <ele>1956</ele>
        <time>2021-08-13T07:55:14.165Z</time>
      </trkpt>
      <trkpt lat="46.84651" lon="8.43975">
        <ele>1956</ele>
        <time>2021-08-13T07:55:15.165Z</time>
      </trkpt>
      <trkpt lat="46.84651" lon="8.43974">
        <ele>1955</ele>
        <time>2021-08-13T07:55:16.165Z</time>
      </trkpt>
      <trkpt lat="46.84651" lon="8.43972">
        <ele>1955</ele>
        <time>2021-08-13T07:55:17.164Z</time>
      </trkpt>
      <trkpt lat="46.84651" lon="8.4397">
        <ele>1955</ele>
        <time>2021-08-13T07:55:18.165Z</time>
      </trkpt>
      <trkpt lat="46.84651" lon="8.43969">
        <ele>1954</ele>
        <time>2021-08-13T07:55:19.165Z</time>
      </trkpt>
      <trkpt lat="46.84651" lon="8.43968">
        <ele>1954</ele>
        <time>2021-08-13T07:55:20.165Z</time>
      </trkpt>
      <trkpt lat="46.84651" lon="8.43966">
        <ele>1954</ele>
        <time>2021-08-13T07:55:21.164Z</time>
      </trkpt>
      <trkpt lat="46.84652" lon="8.43965">
        <ele>1954</ele>
        <time>2021-08-13T07:55:22.164Z</time>
      </trkpt>
      <trkpt lat="46.84652" lon="8.43964">
        <ele>1954</ele>
        <time>2021-08-13T07:55:23.165Z</time>
      </trkpt>
      <trkpt lat="46.84653" lon="8.43962">
        <ele>1954</ele>
        <time>2021-08-13T07:55:24.164Z</time>
      </trkpt>
      <trkpt lat="46.84653" lon="8.4396">
        <ele>1954</ele>
        <time>2021-08-13T07:55:25.164Z</time>
      </trkpt>
      <trkpt lat="46.84653" lon="8.43959">
        <ele>1953</ele>
        <time>2021-08-13T07:55:26.164Z</time>
      </trkpt>
      <trkpt lat="46.84652" lon="8.43957">
        <ele>1953</ele>
        <time>2021-08-13T07:55:27.164Z</time>
      </trkpt>
      <trkpt lat="46.84652" lon="8.43956">
        <ele>1953</ele>
        <time>2021-08-13T07:55:28.164Z</time>
      </trkpt>
      <trkpt lat="46.84652" lon="8.43954">
        <ele>1953</ele>
        <time>2021-08-13T07:55:29.165Z</time>
      </trkpt>
      <trkpt lat="46.84652" lon="8.43953">
        <ele>1953</ele>
        <time>2021-08-13T07:55:30.164Z</time>
      </trkpt>
      <trkpt lat="46.84652" lon="8.43951">
        <ele>1953</ele>
        <time>2021-08-13T07:55:31.165Z</time>
      </trkpt>
      <trkpt lat="46.84651" lon="8.4395">
        <ele>1952</ele>
        <time>2021-08-13T07:55:32.165Z</time>
      </trkpt>
      <trkpt lat="46.84651" lon="8.43948">
        <ele>1952</ele>
        <time>2021-08-13T07:55:33.165Z</time>
      </trkpt>
      <trkpt lat="46.8465" lon="8.43947">
        <ele>1952</ele>
        <time>2021-08-13T07:55:34.165Z</time>
      </trkpt>
      <trkpt lat="46.8465" lon="8.43946">
        <ele>1952</ele>
        <time>2021-08-13T07:55:35.165Z</time>
      </trkpt>
      <trkpt lat="46.8465" lon="8.43944">
        <ele>1952</ele>
        <time>2021-08-13T07:55:36.165Z</time>
      </trkpt>
      <trkpt lat="46.84649" lon="8.43943">
        <ele>1951</ele>
        <time>2021-08-13T07:55:37.164Z</time>
      </trkpt>
      <trkpt lat="46.84649" lon="8.43942">
        <ele>1951</ele>
        <time>2021-08-13T07:55:38.165Z</time>
      </trkpt>
      <trkpt lat="46.84649" lon="8.43941">
        <ele>1951</ele>
        <time>2021-08-13T07:55:39.165Z</time>
      </trkpt>
      <trkpt lat="46.84649" lon="8.43941">
        <ele>1951</ele>
        <time>2021-08-13T07:55:40.165Z</time>
      </trkpt>
      <trkpt lat="46.84648" lon="8.43939">
        <ele>1951</ele>
        <time>2021-08-13T07:55:41.165Z</time>
      </trkpt>
      <trkpt lat="46.84648" lon="8.43938">
        <ele>1951</ele>
        <time>2021-08-13T07:55:42.165Z</time>
      </trkpt>
      <trkpt lat="46.84647" lon="8.43937">
        <ele>1951</ele>
        <time>2021-08-13T07:55:43.165Z</time>
      </trkpt>
      <trkpt lat="46.84647" lon="8.43935">
        <ele>1951</ele>
        <time>2021-08-13T07:55:44.165Z</time>
      </trkpt>
      <trkpt lat="46.84647" lon="8.43934">
        <ele>1951</ele>
        <time>2021-08-13T07:55:45.165Z</time>
      </trkpt>
      <trkpt lat="46.84647" lon="8.43932">
        <ele>1950</ele>
        <time>2021-08-13T07:55:46.164Z</time>
      </trkpt>
      <trkpt lat="46.84647" lon="8.43931">
        <ele>1950</ele>
        <time>2021-08-13T07:55:47.164Z</time>
      </trkpt>
      <trkpt lat="46.84647" lon="8.43929">
        <ele>1950</ele>
        <time>2021-08-13T07:55:48.165Z</time>
      </trkpt>
      <trkpt lat="46.84647" lon="8.43928">
        <ele>1949</ele>
        <time>2021-08-13T07:55:49.165Z</time>
      </trkpt>
      <trkpt lat="46.84646" lon="8.43926">
        <ele>1948</ele>
        <time>2021-08-13T07:55:50.165Z</time>
      </trkpt>
      <trkpt lat="46.84646" lon="8.43924">
        <ele>1948</ele>
        <time>2021-08-13T07:55:51.165Z</time>
      </trkpt>
      <trkpt lat="46.84646" lon="8.43922">
        <ele>1947</ele>
        <time>2021-08-13T07:55:52.165Z</time>
      </trkpt>
      <trkpt lat="46.84647" lon="8.43921">
        <ele>1947</ele>
        <time>2021-08-13T07:55:53.164Z</time>
      </trkpt>
      <trkpt lat="46.84647" lon="8.43919">
        <ele>1947</ele>
        <time>2021-08-13T07:55:54.165Z</time>
      </trkpt>
      <trkpt lat="46.84648" lon="8.43917">
        <ele>1947</ele>
        <time>2021-08-13T07:55:55.165Z</time>
      </trkpt>
      <trkpt lat="46.84648" lon="8.43915">
        <ele>1946</ele>
        <time>2021-08-13T07:55:56.165Z</time>
      </trkpt>
      <trkpt lat="46.84649" lon="8.43914">
        <ele>1946</ele>
        <time>2021-08-13T07:55:57.165Z</time>
      </trkpt>
      <trkpt lat="46.84648" lon="8.43912">
        <ele>1946</ele>
        <time>2021-08-13T07:55:58.164Z</time>
      </trkpt>
      <trkpt lat="46.84648" lon="8.4391">
        <ele>1946</ele>
        <time>2021-08-13T07:55:59.164Z</time>
      </trkpt>
      <trkpt lat="46.84648" lon="8.43909">
        <ele>1946</ele>
        <time>2021-08-13T07:56:00.164Z</time>
      </trkpt>
      <trkpt lat="46.84649" lon="8.43907">
        <ele>1946</ele>
        <time>2021-08-13T07:56:01.165Z</time>
      </trkpt>
      <trkpt lat="46.84649" lon="8.43906">
        <ele>1946</ele>
        <time>2021-08-13T07:56:02.165Z</time>
      </trkpt>
      <trkpt lat="46.84649" lon="8.43905">
        <ele>1946</ele>
        <time>2021-08-13T07:56:03.165Z</time>
      </trkpt>
      <trkpt lat="46.84649" lon="8.43902">
        <ele>1946</ele>
        <time>2021-08-13T07:56:04.165Z</time>
      </trkpt>
      <trkpt lat="46.8465" lon="8.43901">
        <ele>1946</ele>
        <time>2021-08-13T07:56:05.165Z</time>
      </trkpt>
      <trkpt lat="46.8465" lon="8.43899">
        <ele>1946</ele>
        <time>2021-08-13T07:56:06.165Z</time>
      </trkpt>
      <trkpt lat="46.84651" lon="8.43898">
        <ele>1946</ele>
        <time>2021-08-13T07:56:07.165Z</time>
      </trkpt>
      <trkpt lat="46.84652" lon="8.43897">
        <ele>1946</ele>
        <time>2021-08-13T07:56:08.164Z</time>
      </trkpt>
      <trkpt lat="46.84652" lon="8.43896">
        <ele>1947</ele>
        <time>2021-08-13T07:56:09.164Z</time>
      </trkpt>
      <trkpt lat="46.84652" lon="8.43894">
        <ele>1947</ele>
        <time>2021-08-13T07:56:10.165Z</time>
      </trkpt>
      <trkpt lat="46.84652" lon="8.43893">
        <ele>1947</ele>
        <time>2021-08-13T07:56:11.165Z</time>
      </trkpt>
      <trkpt lat="46.84652" lon="8.43892">
        <ele>1947</ele>
        <time>2021-08-13T07:56:12.164Z</time>
      </trkpt>
      <trkpt lat="46.84652" lon="8.4389">
        <ele>1948</ele>
        <time>2021-08-13T07:56:13.165Z</time>
      </trkpt>
      <trkpt lat="46.84653" lon="8.43889">
        <ele>1948</ele>
        <time>2021-08-13T07:56:14.165Z</time>
      </trkpt>
      <trkpt lat="46.84654" lon="8.43887">
        <ele>1948</ele>
        <time>2021-08-13T07:56:15.164Z</time>
      </trkpt>
      <trkpt lat="46.84654" lon="8.43885">
        <ele>1949</ele>
        <time>2021-08-13T07:56:16.164Z</time>
      </trkpt>
      <trkpt lat="46.84655" lon="8.43884">
        <ele>1949</ele>
        <time>2021-08-13T07:56:17.164Z</time>
      </trkpt>
      <trkpt lat="46.84656" lon="8.43883">
        <ele>1950</ele>
        <time>2021-08-13T07:56:18.164Z</time>
      </trkpt>
      <trkpt lat="46.84657" lon="8.43883">
        <ele>1951</ele>
        <time>2021-08-13T07:56:19.164Z</time>
      </trkpt>
      <trkpt lat="46.84658" lon="8.43882">
        <ele>1952</ele>
        <time>2021-08-13T07:56:20.164Z</time>
      </trkpt>
      <trkpt lat="46.84659" lon="8.43881">
        <ele>1952</ele>
        <time>2021-08-13T07:56:21.165Z</time>
      </trkpt>
      <trkpt lat="46.8466" lon="8.4388">
        <ele>1953</ele>
        <time>2021-08-13T07:56:22.165Z</time>
      </trkpt>
      <trkpt lat="46.8466" lon="8.43879">
        <ele>1953</ele>
        <time>2021-08-13T07:56:23.164Z</time>
      </trkpt>
      <trkpt lat="46.84661" lon="8.43879">
        <ele>1953</ele>
        <time>2021-08-13T07:56:24.164Z</time>
      </trkpt>
      <trkpt lat="46.84661" lon="8.43878">
        <ele>1953</ele>
        <time>2021-08-13T07:56:25.164Z</time>
      </trkpt>
      <trkpt lat="46.84661" lon="8.43877">
        <ele>1954</ele>
        <time>2021-08-13T07:56:26.165Z</time>
      </trkpt>
      <trkpt lat="46.84662" lon="8.43877">
        <ele>1954</ele>
        <time>2021-08-13T07:56:27.165Z</time>
      </trkpt>
      <trkpt lat="46.84662" lon="8.43876">
        <ele>1954</ele>
        <time>2021-08-13T07:56:28.164Z</time>
      </trkpt>
      <trkpt lat="46.84662" lon="8.43875">
        <ele>1954</ele>
        <time>2021-08-13T07:56:29.165Z</time>
      </trkpt>
      <trkpt lat="46.84662" lon="8.43874">
        <ele>1955</ele>
        <time>2021-08-13T07:56:30.165Z</time>
      </trkpt>
      <trkpt lat="46.84663" lon="8.43873">
        <ele>1955</ele>
        <time>2021-08-13T07:56:31.164Z</time>
      </trkpt>
      <trkpt lat="46.84663" lon="8.43871">
        <ele>1954</ele>
        <time>2021-08-13T07:56:32.165Z</time>
      </trkpt>
      <trkpt lat="46.84664" lon="8.4387">
        <ele>1954</ele>
        <time>2021-08-13T07:56:33.165Z</time>
      </trkpt>
      <trkpt lat="46.84664" lon="8.43868">
        <ele>1954</ele>
        <time>2021-08-13T07:56:34.165Z</time>
      </trkpt>
      <trkpt lat="46.84664" lon="8.43867">
        <ele>1954</ele>
        <time>2021-08-13T07:56:35.165Z</time>
      </trkpt>
      <trkpt lat="46.84664" lon="8.43866">
        <ele>1954</ele>
        <time>2021-08-13T07:56:36.165Z</time>
      </trkpt>
      <trkpt lat="46.84664" lon="8.43864">
        <ele>1955</ele>
        <time>2021-08-13T07:56:37.165Z</time>
      </trkpt>
      <trkpt lat="46.84664" lon="8.43862">
        <ele>1955</ele>
        <time>2021-08-13T07:56:38.165Z</time>
      </trkpt>
      <trkpt lat="46.84664" lon="8.4386">
        <ele>1955</ele>
        <time>2021-08-13T07:56:39.164Z</time>
      </trkpt>
      <trkpt lat="46.84663" lon="8.43859">
        <ele>1955</ele>
        <time>2021-08-13T07:56:40.165Z</time>
      </trkpt>
      <trkpt lat="46.84663" lon="8.43857">
        <ele>1955</ele>
        <time>2021-08-13T07:56:41.165Z</time>
      </trkpt>
      <trkpt lat="46.84663" lon="8.43856">
        <ele>1954</ele>
        <time>2021-08-13T07:56:42.164Z</time>
      </trkpt>
      <trkpt lat="46.84662" lon="8.43854">
        <ele>1954</ele>
        <time>2021-08-13T07:56:43.165Z</time>
      </trkpt>
      <trkpt lat="46.84663" lon="8.43853">
        <ele>1954</ele>
        <time>2021-08-13T07:56:44.165Z</time>
      </trkpt>
      <trkpt lat="46.84663" lon="8.43851">
        <ele>1953</ele>
        <time>2021-08-13T07:56:45.165Z</time>
      </trkpt>
      <trkpt lat="46.84662" lon="8.4385">
        <ele>1953</ele>
        <time>2021-08-13T07:56:46.165Z</time>
      </trkpt>
      <trkpt lat="46.84662" lon="8.43849">
        <ele>1953</ele>
        <time>2021-08-13T07:56:47.165Z</time>
      </trkpt>
      <trkpt lat="46.84662" lon="8.43848">
        <ele>1953</ele>
        <time>2021-08-13T07:56:48.165Z</time>
      </trkpt>
      <trkpt lat="46.84663" lon="8.43846">
        <ele>1952</ele>
        <time>2021-08-13T07:56:49.165Z</time>
      </trkpt>
      <trkpt lat="46.84663" lon="8.43844">
        <ele>1952</ele>
        <time>2021-08-13T07:56:50.165Z</time>
      </trkpt>
      <trkpt lat="46.84663" lon="8.43843">
        <ele>1951</ele>
        <time>2021-08-13T07:56:51.165Z</time>
      </trkpt>
      <trkpt lat="46.84663" lon="8.43842">
        <ele>1951</ele>
        <time>2021-08-13T07:56:52.165Z</time>
      </trkpt>
      <trkpt lat="46.84664" lon="8.43841">
        <ele>1951</ele>
        <time>2021-08-13T07:56:53.165Z</time>
      </trkpt>
      <trkpt lat="46.84664" lon="8.43839">
        <ele>1950</ele>
        <time>2021-08-13T07:56:54.165Z</time>
      </trkpt>
      <trkpt lat="46.84663" lon="8.43838">
        <ele>1950</ele>
        <time>2021-08-13T07:56:55.165Z</time>
      </trkpt>
      <trkpt lat="46.84663" lon="8.43836">
        <ele>1950</ele>
        <time>2021-08-13T07:56:56.164Z</time>
      </trkpt>
      <trkpt lat="46.84663" lon="8.43835">
        <ele>1949</ele>
        <time>2021-08-13T07:56:57.165Z</time>
      </trkpt>
      <trkpt lat="46.84663" lon="8.43834">
        <ele>1949</ele>
        <time>2021-08-13T07:56:58.165Z</time>
      </trkpt>
      <trkpt lat="46.84664" lon="8.43832">
        <ele>1949</ele>
        <time>2021-08-13T07:56:59.165Z</time>
      </trkpt>
      <trkpt lat="46.84664" lon="8.43831">
        <ele>1948</ele>
        <time>2021-08-13T07:57:00.165Z</time>
      </trkpt>
      <trkpt lat="46.84664" lon="8.4383">
        <ele>1948</ele>
        <time>2021-08-13T07:57:01.165Z</time>
      </trkpt>
      <trkpt lat="46.84664" lon="8.43829">
        <ele>1947</ele>
        <time>2021-08-13T07:57:02.164Z</time>
      </trkpt>
      <trkpt lat="46.84663" lon="8.43828">
        <ele>1947</ele>
        <time>2021-08-13T07:57:03.165Z</time>
      </trkpt>
      <trkpt lat="46.84663" lon="8.43827">
        <ele>1947</ele>
        <time>2021-08-13T07:57:04.164Z</time>
      </trkpt>
      <trkpt lat="46.84663" lon="8.43826">
        <ele>1948</ele>
        <time>2021-08-13T07:57:05.164Z</time>
      </trkpt>
      <trkpt lat="46.84662" lon="8.43824">
        <ele>1947</ele>
        <time>2021-08-13T07:57:06.165Z</time>
      </trkpt>
      <trkpt lat="46.84662" lon="8.43822">
        <ele>1947</ele>
        <time>2021-08-13T07:57:07.165Z</time>
      </trkpt>
      <trkpt lat="46.84662" lon="8.43821">
        <ele>1947</ele>
        <time>2021-08-13T07:57:08.164Z</time>
      </trkpt>
      <trkpt lat="46.84662" lon="8.4382">
        <ele>1946</ele>
        <time>2021-08-13T07:57:09.165Z</time>
      </trkpt>
      <trkpt lat="46.84661" lon="8.43818">
        <ele>1945</ele>
        <time>2021-08-13T07:57:10.165Z</time>
      </trkpt>
      <trkpt lat="46.8466" lon="8.43817">
        <ele>1945</ele>
        <time>2021-08-13T07:57:11.165Z</time>
      </trkpt>
      <trkpt lat="46.8466" lon="8.43816">
        <ele>1945</ele>
        <time>2021-08-13T07:57:12.164Z</time>
      </trkpt>
      <trkpt lat="46.8466" lon="8.43815">
        <ele>1945</ele>
        <time>2021-08-13T07:57:13.165Z</time>
      </trkpt>
      <trkpt lat="46.8466" lon="8.43814">
        <ele>1945</ele>
        <time>2021-08-13T07:57:14.165Z</time>
      </trkpt>
      <trkpt lat="46.84659" lon="8.43813">
        <ele>1945</ele>
        <time>2021-08-13T07:57:15.165Z</time>
      </trkpt>
      <trkpt lat="46.84659" lon="8.43812">
        <ele>1945</ele>
        <time>2021-08-13T07:57:16.165Z</time>
      </trkpt>
      <trkpt lat="46.84658" lon="8.4381">
        <ele>1945</ele>
        <time>2021-08-13T07:57:17.165Z</time>
      </trkpt>
      <trkpt lat="46.84658" lon="8.43809">
        <ele>1944</ele>
        <time>2021-08-13T07:57:18.165Z</time>
      </trkpt>
      <trkpt lat="46.84657" lon="8.43808">
        <ele>1944</ele>
        <time>2021-08-13T07:57:19.165Z</time>
      </trkpt>
      <trkpt lat="46.84656" lon="8.43807">
        <ele>1944</ele>
        <time>2021-08-13T07:57:20.164Z</time>
      </trkpt>
      <trkpt lat="46.84655" lon="8.43807">
        <ele>1944</ele>
        <time>2021-08-13T07:57:21.165Z</time>
      </trkpt>
      <trkpt lat="46.84655" lon="8.43807">
        <ele>1943</ele>
        <time>2021-08-13T07:57:22.164Z</time>
      </trkpt>
      <trkpt lat="46.84655" lon="8.43806">
        <ele>1943</ele>
        <time>2021-08-13T07:57:23.165Z</time>
      </trkpt>
      <trkpt lat="46.84655" lon="8.43805">
        <ele>1942</ele>
        <time>2021-08-13T07:57:24.165Z</time>
      </trkpt>
      <trkpt lat="46.84654" lon="8.43804">
        <ele>1942</ele>
        <time>2021-08-13T07:57:25.165Z</time>
      </trkpt>
      <trkpt lat="46.84654" lon="8.43803">
        <ele>1942</ele>
        <time>2021-08-13T07:57:26.165Z</time>
      </trkpt>
      <trkpt lat="46.84654" lon="8.43803">
        <ele>1942</ele>
        <time>2021-08-13T07:57:27.165Z</time>
      </trkpt>
      <trkpt lat="46.84653" lon="8.43802">
        <ele>1942</ele>
        <time>2021-08-13T07:57:28.165Z</time>
      </trkpt>
      <trkpt lat="46.84653" lon="8.43802">
        <ele>1942</ele>
        <time>2021-08-13T07:57:29.165Z</time>
      </trkpt>
      <trkpt lat="46.84652" lon="8.43801">
        <ele>1942</ele>
        <time>2021-08-13T07:57:30.164Z</time>
      </trkpt>
      <trkpt lat="46.84651" lon="8.43801">
        <ele>1942</ele>
        <time>2021-08-13T07:57:31.165Z</time>
      </trkpt>
      <trkpt lat="46.84651" lon="8.438">
        <ele>1942</ele>
        <time>2021-08-13T07:57:32.165Z</time>
      </trkpt>
      <trkpt lat="46.8465" lon="8.43798">
        <ele>1943</ele>
        <time>2021-08-13T07:57:33.165Z</time>
      </trkpt>
      <trkpt lat="46.8465" lon="8.43796">
        <ele>1943</ele>
        <time>2021-08-13T07:57:34.164Z</time>
      </trkpt>
      <trkpt lat="46.8465" lon="8.43795">
        <ele>1943</ele>
        <time>2021-08-13T07:57:35.165Z</time>
      </trkpt>
      <trkpt lat="46.84649" lon="8.43793">
        <ele>1943</ele>
        <time>2021-08-13T07:57:36.165Z</time>
      </trkpt>
      <trkpt lat="46.84649" lon="8.43792">
        <ele>1943</ele>
        <time>2021-08-13T07:57:37.164Z</time>
      </trkpt>
      <trkpt lat="46.8465" lon="8.4379">
        <ele>1943</ele>
        <time>2021-08-13T07:57:38.165Z</time>
      </trkpt>
      <trkpt lat="46.8465" lon="8.43787">
        <ele>1943</ele>
        <time>2021-08-13T07:57:39.165Z</time>
      </trkpt>
      <trkpt lat="46.84651" lon="8.43785">
        <ele>1943</ele>
        <time>2021-08-13T07:57:40.165Z</time>
      </trkpt>
      <trkpt lat="46.84651" lon="8.43783">
        <ele>1943</ele>
        <time>2021-08-13T07:57:41.165Z</time>
      </trkpt>
      <trkpt lat="46.8465" lon="8.43782">
        <ele>1943</ele>
        <time>2021-08-13T07:57:42.165Z</time>
      </trkpt>
      <trkpt lat="46.8465" lon="8.4378">
        <ele>1943</ele>
        <time>2021-08-13T07:57:43.165Z</time>
      </trkpt>
      <trkpt lat="46.8465" lon="8.43779">
        <ele>1943</ele>
        <time>2021-08-13T07:57:44.165Z</time>
      </trkpt>
      <trkpt lat="46.8465" lon="8.43778">
        <ele>1943</ele>
        <time>2021-08-13T07:57:45.165Z</time>
      </trkpt>
      <trkpt lat="46.84649" lon="8.43777">
        <ele>1943</ele>
        <time>2021-08-13T07:57:46.164Z</time>
      </trkpt>
      <trkpt lat="46.84649" lon="8.43776">
        <ele>1942</ele>
        <time>2021-08-13T07:57:47.165Z</time>
      </trkpt>
      <trkpt lat="46.84648" lon="8.43775">
        <ele>1942</ele>
        <time>2021-08-13T07:57:48.165Z</time>
      </trkpt>
      <trkpt lat="46.84648" lon="8.43774">
        <ele>1941</ele>
        <time>2021-08-13T07:57:49.164Z</time>
      </trkpt>
      <trkpt lat="46.84648" lon="8.43772">
        <ele>1941</ele>
        <time>2021-08-13T07:57:50.165Z</time>
      </trkpt>
      <trkpt lat="46.84647" lon="8.43771">
        <ele>1941</ele>
        <time>2021-08-13T07:57:51.165Z</time>
      </trkpt>
      <trkpt lat="46.84647" lon="8.4377">
        <ele>1940</ele>
        <time>2021-08-13T07:57:52.165Z</time>
      </trkpt>
      <trkpt lat="46.84647" lon="8.43769">
        <ele>1940</ele>
        <time>2021-08-13T07:57:53.165Z</time>
      </trkpt>
      <trkpt lat="46.84647" lon="8.43769">
        <ele>1940</ele>
        <time>2021-08-13T07:57:54.165Z</time>
      </trkpt>
      <trkpt lat="46.84647" lon="8.43769">
        <ele>1940</ele>
        <time>2021-08-13T07:57:55.165Z</time>
      </trkpt>
      <trkpt lat="46.84646" lon="8.43769">
        <ele>1941</ele>
        <time>2021-08-13T07:57:56.165Z</time>
      </trkpt>
      <trkpt lat="46.84646" lon="8.43768">
        <ele>1941</ele>
        <time>2021-08-13T07:57:57.165Z</time>
      </trkpt>
      <trkpt lat="46.84646" lon="8.43767">
        <ele>1941</ele>
        <time>2021-08-13T07:57:58.165Z</time>
      </trkpt>
      <trkpt lat="46.84646" lon="8.43765">
        <ele>1942</ele>
        <time>2021-08-13T07:57:59.165Z</time>
      </trkpt>
      <trkpt lat="46.84646" lon="8.43763">
        <ele>1942</ele>
        <time>2021-08-13T07:58:00.164Z</time>
      </trkpt>
      <trkpt lat="46.84645" lon="8.43762">
        <ele>1942</ele>
        <time>2021-08-13T07:58:01.164Z</time>
      </trkpt>
      <trkpt lat="46.84644" lon="8.43759">
        <ele>1942</ele>
        <time>2021-08-13T07:58:02.165Z</time>
      </trkpt>
      <trkpt lat="46.84643" lon="8.43758">
        <ele>1942</ele>
        <time>2021-08-13T07:58:03.164Z</time>
      </trkpt>
      <trkpt lat="46.84643" lon="8.43756">
        <ele>1942</ele>
        <time>2021-08-13T07:58:04.164Z</time>
      </trkpt>
      <trkpt lat="46.84642" lon="8.43755">
        <ele>1942</ele>
        <time>2021-08-13T07:58:05.164Z</time>
      </trkpt>
      <trkpt lat="46.84642" lon="8.43754">
        <ele>1942</ele>
        <time>2021-08-13T07:58:06.164Z</time>
      </trkpt>
      <trkpt lat="46.84641" lon="8.43753">
        <ele>1941</ele>
        <time>2021-08-13T07:58:07.164Z</time>
      </trkpt>
      <trkpt lat="46.8464" lon="8.43752">
        <ele>1941</ele>
        <time>2021-08-13T07:58:08.164Z</time>
      </trkpt>
      <trkpt lat="46.84639" lon="8.43751">
        <ele>1941</ele>
        <time>2021-08-13T07:58:09.165Z</time>
      </trkpt>
      <trkpt lat="46.84637" lon="8.4375">
        <ele>1940</ele>
        <time>2021-08-13T07:58:10.164Z</time>
      </trkpt>
      <trkpt lat="46.84636" lon="8.43748">
        <ele>1940</ele>
        <time>2021-08-13T07:58:11.164Z</time>
      </trkpt>
      <trkpt lat="46.84635" lon="8.43746">
        <ele>1939</ele>
        <time>2021-08-13T07:58:12.164Z</time>
      </trkpt>
      <trkpt lat="46.84634" lon="8.43745">
        <ele>1939</ele>
        <time>2021-08-13T07:58:13.164Z</time>
      </trkpt>
      <trkpt lat="46.84633" lon="8.43744">
        <ele>1939</ele>
        <time>2021-08-13T07:58:14.164Z</time>
      </trkpt>
      <trkpt lat="46.84632" lon="8.43743">
        <ele>1939</ele>
        <time>2021-08-13T07:58:15.164Z</time>
      </trkpt>
      <trkpt lat="46.84631" lon="8.43742">
        <ele>1939</ele>
        <time>2021-08-13T07:58:16.164Z</time>
      </trkpt>
      <trkpt lat="46.8463" lon="8.43741">
        <ele>1939</ele>
        <time>2021-08-13T07:58:17.164Z</time>
      </trkpt>
      <trkpt lat="46.84629" lon="8.43741">
        <ele>1940</ele>
        <time>2021-08-13T07:58:18.164Z</time>
      </trkpt>
      <trkpt lat="46.84629" lon="8.4374">
        <ele>1940</ele>
        <time>2021-08-13T07:58:19.164Z</time>
      </trkpt>
      <trkpt lat="46.84629" lon="8.43739">
        <ele>1940</ele>
        <time>2021-08-13T07:58:20.164Z</time>
      </trkpt>
      <trkpt lat="46.84628" lon="8.43737">
        <ele>1940</ele>
        <time>2021-08-13T07:58:21.164Z</time>
      </trkpt>
      <trkpt lat="46.84628" lon="8.43736">
        <ele>1941</ele>
        <time>2021-08-13T07:58:22.165Z</time>
      </trkpt>
      <trkpt lat="46.84628" lon="8.43735">
        <ele>1941</ele>
        <time>2021-08-13T07:58:23.164Z</time>
      </trkpt>
      <trkpt lat="46.84627" lon="8.43735">
        <ele>1941</ele>
        <time>2021-08-13T07:58:24.164Z</time>
      </trkpt>
      <trkpt lat="46.84627" lon="8.43734">
        <ele>1941</ele>
        <time>2021-08-13T07:58:25.164Z</time>
      </trkpt>
      <trkpt lat="46.84626" lon="8.43733">
        <ele>1941</ele>
        <time>2021-08-13T07:58:26.164Z</time>
      </trkpt>
      <trkpt lat="46.84626" lon="8.43732">
        <ele>1942</ele>
        <time>2021-08-13T07:58:27.165Z</time>
      </trkpt>
      <trkpt lat="46.84626" lon="8.43731">
        <ele>1942</ele>
        <time>2021-08-13T07:58:28.165Z</time>
      </trkpt>
      <trkpt lat="46.84626" lon="8.43729">
        <ele>1943</ele>
        <time>2021-08-13T07:58:29.165Z</time>
      </trkpt>
      <trkpt lat="46.84626" lon="8.43728">
        <ele>1943</ele>
        <time>2021-08-13T07:58:30.165Z</time>
      </trkpt>
      <trkpt lat="46.84626" lon="8.43727">
        <ele>1944</ele>
        <time>2021-08-13T07:58:31.165Z</time>
      </trkpt>
      <trkpt lat="46.84626" lon="8.43725">
        <ele>1944</ele>
        <time>2021-08-13T07:58:32.165Z</time>
      </trkpt>
      <trkpt lat="46.84626" lon="8.43723">
        <ele>1944</ele>
        <time>2021-08-13T07:58:33.165Z</time>
      </trkpt>
      <trkpt lat="46.84626" lon="8.43722">
        <ele>1945</ele>
        <time>2021-08-13T07:58:34.164Z</time>
      </trkpt>
      <trkpt lat="46.84627" lon="8.4372">
        <ele>1945</ele>
        <time>2021-08-13T07:58:35.165Z</time>
      </trkpt>
      <trkpt lat="46.84627" lon="8.43719">
        <ele>1945</ele>
        <time>2021-08-13T07:58:36.165Z</time>
      </trkpt>
      <trkpt lat="46.84627" lon="8.43718">
        <ele>1946</ele>
        <time>2021-08-13T07:58:37.164Z</time>
      </trkpt>
      <trkpt lat="46.84627" lon="8.43716">
        <ele>1946</ele>
        <time>2021-08-13T07:58:38.164Z</time>
      </trkpt>
      <trkpt lat="46.84627" lon="8.43714">
        <ele>1946</ele>
        <time>2021-08-13T07:58:39.165Z</time>
      </trkpt>
      <trkpt lat="46.84627" lon="8.43712">
        <ele>1945</ele>
        <time>2021-08-13T07:58:40.164Z</time>
      </trkpt>
      <trkpt lat="46.84626" lon="8.43712">
        <ele>1945</ele>
        <time>2021-08-13T07:58:41.164Z</time>
      </trkpt>
      <trkpt lat="46.84626" lon="8.43711">
        <ele>1945</ele>
        <time>2021-08-13T07:58:42.165Z</time>
      </trkpt>
      <trkpt lat="46.84626" lon="8.43711">
        <ele>1946</ele>
        <time>2021-08-13T07:58:43.164Z</time>
      </trkpt>
      <trkpt lat="46.84627" lon="8.43709">
        <ele>1946</ele>
        <time>2021-08-13T07:58:44.165Z</time>
      </trkpt>
      <trkpt lat="46.84627" lon="8.43708">
        <ele>1946</ele>
        <time>2021-08-13T07:58:45.165Z</time>
      </trkpt>
      <trkpt lat="46.84627" lon="8.43706">
        <ele>1947</ele>
        <time>2021-08-13T07:58:46.164Z</time>
      </trkpt>
      <trkpt lat="46.84627" lon="8.43704">
        <ele>1947</ele>
        <time>2021-08-13T07:58:47.165Z</time>
      </trkpt>
      <trkpt lat="46.84627" lon="8.43702">
        <ele>1947</ele>
        <time>2021-08-13T07:58:48.164Z</time>
      </trkpt>
      <trkpt lat="46.84626" lon="8.43701">
        <ele>1947</ele>
        <time>2021-08-13T07:58:49.164Z</time>
      </trkpt>
      <trkpt lat="46.84626" lon="8.43699">
        <ele>1947</ele>
        <time>2021-08-13T07:58:50.165Z</time>
      </trkpt>
      <trkpt lat="46.84626" lon="8.43698">
        <ele>1947</ele>
        <time>2021-08-13T07:58:51.165Z</time>
      </trkpt>
      <trkpt lat="46.84626" lon="8.43697">
        <ele>1947</ele>
        <time>2021-08-13T07:58:52.165Z</time>
      </trkpt>
      <trkpt lat="46.84625" lon="8.43696">
        <ele>1946</ele>
        <time>2021-08-13T07:58:53.164Z</time>
      </trkpt>
      <trkpt lat="46.84624" lon="8.43695">
        <ele>1946</ele>
        <time>2021-08-13T07:58:54.165Z</time>
      </trkpt>
      <trkpt lat="46.84623" lon="8.43694">
        <ele>1945</ele>
        <time>2021-08-13T07:58:55.165Z</time>
      </trkpt>
      <trkpt lat="46.84623" lon="8.43692">
        <ele>1945</ele>
        <time>2021-08-13T07:58:56.164Z</time>
      </trkpt>
      <trkpt lat="46.84622" lon="8.4369">
        <ele>1945</ele>
        <time>2021-08-13T07:58:57.164Z</time>
      </trkpt>
      <trkpt lat="46.84621" lon="8.43688">
        <ele>1945</ele>
        <time>2021-08-13T07:58:58.165Z</time>
      </trkpt>
      <trkpt lat="46.8462" lon="8.43686">
        <ele>1944</ele>
        <time>2021-08-13T07:58:59.164Z</time>
      </trkpt>
      <trkpt lat="46.8462" lon="8.43685">
        <ele>1944</ele>
        <time>2021-08-13T07:59:00.165Z</time>
      </trkpt>
      <trkpt lat="46.8462" lon="8.43683">
        <ele>1943</ele>
        <time>2021-08-13T07:59:01.165Z</time>
      </trkpt>
      <trkpt lat="46.84619" lon="8.43682">
        <ele>1943</ele>
        <time>2021-08-13T07:59:02.165Z</time>
      </trkpt>
      <trkpt lat="46.84619" lon="8.43681">
        <ele>1942</ele>
        <time>2021-08-13T07:59:03.165Z</time>
      </trkpt>
      <trkpt lat="46.84618" lon="8.43679">
        <ele>1942</ele>
        <time>2021-08-13T07:59:04.165Z</time>
      </trkpt>
      <trkpt lat="46.84617" lon="8.43678">
        <ele>1941</ele>
        <time>2021-08-13T07:59:05.165Z</time>
      </trkpt>
      <trkpt lat="46.84616" lon="8.43677">
        <ele>1941</ele>
        <time>2021-08-13T07:59:06.165Z</time>
      </trkpt>
      <trkpt lat="46.84615" lon="8.43676">
        <ele>1940</ele>
        <time>2021-08-13T07:59:07.165Z</time>
      </trkpt>
      <trkpt lat="46.84614" lon="8.43676">
        <ele>1940</ele>
        <time>2021-08-13T07:59:08.165Z</time>
      </trkpt>
      <trkpt lat="46.84614" lon="8.43675">
        <ele>1939</ele>
        <time>2021-08-13T07:59:09.164Z</time>
      </trkpt>
      <trkpt lat="46.84614" lon="8.43674">
        <ele>1939</ele>
        <time>2021-08-13T07:59:10.165Z</time>
      </trkpt>
      <trkpt lat="46.84613" lon="8.43674">
        <ele>1939</ele>
        <time>2021-08-13T07:59:11.165Z</time>
      </trkpt>
      <trkpt lat="46.84613" lon="8.43674">
        <ele>1938</ele>
        <time>2021-08-13T07:59:12.164Z</time>
      </trkpt>
      <trkpt lat="46.84612" lon="8.43673">
        <ele>1938</ele>
        <time>2021-08-13T07:59:13.164Z</time>
      </trkpt>
      <trkpt lat="46.84612" lon="8.43671">
        <ele>1938</ele>
        <time>2021-08-13T07:59:14.164Z</time>
      </trkpt>
      <trkpt lat="46.8461" lon="8.4367">
        <ele>1938</ele>
        <time>2021-08-13T07:59:15.165Z</time>
      </trkpt>
      <trkpt lat="46.84609" lon="8.43668">
        <ele>1937</ele>
        <time>2021-08-13T07:59:16.165Z</time>
      </trkpt>
      <trkpt lat="46.84608" lon="8.43667">
        <ele>1937</ele>
        <time>2021-08-13T07:59:17.164Z</time>
      </trkpt>
      <trkpt lat="46.84607" lon="8.43666">
        <ele>1937</ele>
        <time>2021-08-13T07:59:18.164Z</time>
      </trkpt>
      <trkpt lat="46.84605" lon="8.43664">
        <ele>1936</ele>
        <time>2021-08-13T07:59:19.165Z</time>
      </trkpt>
      <trkpt lat="46.84605" lon="8.43664">
        <ele>1936</ele>
        <time>2021-08-13T07:59:20.164Z</time>
      </trkpt>
      <trkpt lat="46.84604" lon="8.43663">
        <ele>1936</ele>
        <time>2021-08-13T07:59:21.165Z</time>
      </trkpt>
      <trkpt lat="46.84603" lon="8.43663">
        <ele>1935</ele>
        <time>2021-08-13T07:59:22.164Z</time>
      </trkpt>
      <trkpt lat="46.84602" lon="8.43662">
        <ele>1935</ele>
        <time>2021-08-13T07:59:23.165Z</time>
      </trkpt>
      <trkpt lat="46.84601" lon="8.43661">
        <ele>1935</ele>
        <time>2021-08-13T07:59:24.164Z</time>
      </trkpt>
      <trkpt lat="46.84599" lon="8.43661">
        <ele>1935</ele>
        <time>2021-08-13T07:59:25.165Z</time>
      </trkpt>
      <trkpt lat="46.84599" lon="8.4366">
        <ele>1935</ele>
        <time>2021-08-13T07:59:26.165Z</time>
      </trkpt>
      <trkpt lat="46.84598" lon="8.4366">
        <ele>1935</ele>
        <time>2021-08-13T07:59:27.165Z</time>
      </trkpt>
      <trkpt lat="46.84597" lon="8.43659">
        <ele>1935</ele>
        <time>2021-08-13T07:59:28.165Z</time>
      </trkpt>
      <trkpt lat="46.84596" lon="8.43659">
        <ele>1935</ele>
        <time>2021-08-13T07:59:29.165Z</time>
      </trkpt>
      <trkpt lat="46.84595" lon="8.43658">
        <ele>1935</ele>
        <time>2021-08-13T07:59:30.164Z</time>
      </trkpt>
      <trkpt lat="46.84594" lon="8.43658">
        <ele>1934</ele>
        <time>2021-08-13T07:59:31.164Z</time>
      </trkpt>
      <trkpt lat="46.84593" lon="8.43658">
        <ele>1934</ele>
        <time>2021-08-13T07:59:32.165Z</time>
      </trkpt>
      <trkpt lat="46.84593" lon="8.43658">
        <ele>1934</ele>
        <time>2021-08-13T07:59:33.164Z</time>
      </trkpt>
      <trkpt lat="46.84592" lon="8.43657">
        <ele>1934</ele>
        <time>2021-08-13T07:59:34.165Z</time>
      </trkpt>
      <trkpt lat="46.84591" lon="8.43656">
        <ele>1933</ele>
        <time>2021-08-13T07:59:35.165Z</time>
      </trkpt>
      <trkpt lat="46.84591" lon="8.43655">
        <ele>1933</ele>
        <time>2021-08-13T07:59:36.165Z</time>
      </trkpt>
      <trkpt lat="46.8459" lon="8.43654">
        <ele>1933</ele>
        <time>2021-08-13T07:59:37.165Z</time>
      </trkpt>
      <trkpt lat="46.8459" lon="8.43653">
        <ele>1933</ele>
        <time>2021-08-13T07:59:38.165Z</time>
      </trkpt>
      <trkpt lat="46.84589" lon="8.43652">
        <ele>1933</ele>
        <time>2021-08-13T07:59:39.165Z</time>
      </trkpt>
      <trkpt lat="46.84589" lon="8.4365">
        <ele>1933</ele>
        <time>2021-08-13T07:59:40.165Z</time>
      </trkpt>
      <trkpt lat="46.84588" lon="8.43649">
        <ele>1934</ele>
        <time>2021-08-13T07:59:41.164Z</time>
      </trkpt>
      <trkpt lat="46.84587" lon="8.43648">
        <ele>1934</ele>
        <time>2021-08-13T07:59:42.165Z</time>
      </trkpt>
      <trkpt lat="46.84587" lon="8.43647">
        <ele>1935</ele>
        <time>2021-08-13T07:59:43.165Z</time>
      </trkpt>
      <trkpt lat="46.84587" lon="8.43645">
        <ele>1935</ele>
        <time>2021-08-13T07:59:44.164Z</time>
      </trkpt>
      <trkpt lat="46.84586" lon="8.43644">
        <ele>1936</ele>
        <time>2021-08-13T07:59:45.165Z</time>
      </trkpt>
      <trkpt lat="46.84585" lon="8.43643">
        <ele>1936</ele>
        <time>2021-08-13T07:59:46.165Z</time>
      </trkpt>
      <trkpt lat="46.84585" lon="8.43642">
        <ele>1937</ele>
        <time>2021-08-13T07:59:47.164Z</time>
      </trkpt>
      <trkpt lat="46.84584" lon="8.43642">
        <ele>1937</ele>
        <time>2021-08-13T07:59:48.164Z</time>
      </trkpt>
      <trkpt lat="46.84584" lon="8.43641">
        <ele>1937</ele>
        <time>2021-08-13T07:59:49.165Z</time>
      </trkpt>
      <trkpt lat="46.84583" lon="8.4364">
        <ele>1938</ele>
        <time>2021-08-13T07:59:50.164Z</time>
      </trkpt>
      <trkpt lat="46.84582" lon="8.43639">
        <ele>1938</ele>
        <time>2021-08-13T07:59:51.164Z</time>
      </trkpt>
      <trkpt lat="46.84581" lon="8.43638">
        <ele>1938</ele>
        <time>2021-08-13T07:59:52.165Z</time>
      </trkpt>
      <trkpt lat="46.8458" lon="8.43636">
        <ele>1938</ele>
        <time>2021-08-13T07:59:53.165Z</time>
      </trkpt>
      <trkpt lat="46.84579" lon="8.43635">
        <ele>1938</ele>
        <time>2021-08-13T07:59:54.164Z</time>
      </trkpt>
      <trkpt lat="46.84577" lon="8.43634">
        <ele>1938</ele>
        <time>2021-08-13T07:59:55.164Z</time>
      </trkpt>
      <trkpt lat="46.84576" lon="8.43632">
        <ele>1938</ele>
        <time>2021-08-13T07:59:56.164Z</time>
      </trkpt>
      <trkpt lat="46.84576" lon="8.43631">
        <ele>1938</ele>
        <time>2021-08-13T07:59:57.164Z</time>
      </trkpt>
      <trkpt lat="46.84575" lon="8.43629">
        <ele>1938</ele>
        <time>2021-08-13T07:59:58.164Z</time>
      </trkpt>
      <trkpt lat="46.84574" lon="8.43627">
        <ele>1938</ele>
        <time>2021-08-13T07:59:59.165Z</time>
      </trkpt>
      <trkpt lat="46.84574" lon="8.43624">
        <ele>1938</ele>
        <time>2021-08-13T08:00:00.164Z</time>
      </trkpt>
      <trkpt lat="46.84573" lon="8.43623">
        <ele>1938</ele>
        <time>2021-08-13T08:00:01.165Z</time>
      </trkpt>
      <trkpt lat="46.84573" lon="8.43621">
        <ele>1937</ele>
        <time>2021-08-13T08:00:02.164Z</time>
      </trkpt>
      <trkpt lat="46.84572" lon="8.4362">
        <ele>1937</ele>
        <time>2021-08-13T08:00:03.165Z</time>
      </trkpt>
      <trkpt lat="46.84572" lon="8.4362">
        <ele>1937</ele>
        <time>2021-08-13T08:00:04.165Z</time>
      </trkpt>
      <trkpt lat="46.84572" lon="8.43619">
        <ele>1937</ele>
        <time>2021-08-13T08:00:05.165Z</time>
      </trkpt>
      <trkpt lat="46.84572" lon="8.43618">
        <ele>1938</ele>
        <time>2021-08-13T08:00:06.165Z</time>
      </trkpt>
      <trkpt lat="46.84571" lon="8.43616">
        <ele>1938</ele>
        <time>2021-08-13T08:00:07.165Z</time>
      </trkpt>
      <trkpt lat="46.84571" lon="8.43615">
        <ele>1938</ele>
        <time>2021-08-13T08:00:08.164Z</time>
      </trkpt>
      <trkpt lat="46.8457" lon="8.43614">
        <ele>1938</ele>
        <time>2021-08-13T08:00:09.164Z</time>
      </trkpt>
      <trkpt lat="46.8457" lon="8.43613">
        <ele>1937</ele>
        <time>2021-08-13T08:00:10.164Z</time>
      </trkpt>
      <trkpt lat="46.8457" lon="8.43611">
        <ele>1937</ele>
        <time>2021-08-13T08:00:11.165Z</time>
      </trkpt>
      <trkpt lat="46.84569" lon="8.4361">
        <ele>1936</ele>
        <time>2021-08-13T08:00:12.164Z</time>
      </trkpt>
      <trkpt lat="46.84569" lon="8.43609">
        <ele>1935</ele>
        <time>2021-08-13T08:00:13.164Z</time>
      </trkpt>
      <trkpt lat="46.84569" lon="8.43608">
        <ele>1935</ele>
        <time>2021-08-13T08:00:14.165Z</time>
      </trkpt>
      <trkpt lat="46.84569" lon="8.43607">
        <ele>1934</ele>
        <time>2021-08-13T08:00:15.165Z</time>
      </trkpt>
      <trkpt lat="46.84568" lon="8.43605">
        <ele>1933</ele>
        <time>2021-08-13T08:00:16.165Z</time>
      </trkpt>
      <trkpt lat="46.84568" lon="8.43604">
        <ele>1933</ele>
        <time>2021-08-13T08:00:17.164Z</time>
      </trkpt>
      <trkpt lat="46.84567" lon="8.43602">
        <ele>1933</ele>
        <time>2021-08-13T08:00:18.165Z</time>
      </trkpt>
      <trkpt lat="46.84567" lon="8.43601">
        <ele>1932</ele>
        <time>2021-08-13T08:00:19.165Z</time>
      </trkpt>
      <trkpt lat="46.84567" lon="8.43599">
        <ele>1932</ele>
        <time>2021-08-13T08:00:20.165Z</time>
      </trkpt>
      <trkpt lat="46.84566" lon="8.43597">
        <ele>1933</ele>
        <time>2021-08-13T08:00:21.165Z</time>
      </trkpt>
      <trkpt lat="46.84566" lon="8.43596">
        <ele>1933</ele>
        <time>2021-08-13T08:00:22.165Z</time>
      </trkpt>
      <trkpt lat="46.84565" lon="8.43594">
        <ele>1933</ele>
        <time>2021-08-13T08:00:23.165Z</time>
      </trkpt>
      <trkpt lat="46.84565" lon="8.43593">
        <ele>1933</ele>
        <time>2021-08-13T08:00:24.165Z</time>
      </trkpt>
      <trkpt lat="46.84564" lon="8.43591">
        <ele>1933</ele>
        <time>2021-08-13T08:00:25.165Z</time>
      </trkpt>
      <trkpt lat="46.84563" lon="8.4359">
        <ele>1932</ele>
        <time>2021-08-13T08:00:26.165Z</time>
      </trkpt>
      <trkpt lat="46.84562" lon="8.43588">
        <ele>1932</ele>
        <time>2021-08-13T08:00:27.165Z</time>
      </trkpt>
      <trkpt lat="46.84561" lon="8.43587">
        <ele>1932</ele>
        <time>2021-08-13T08:00:28.164Z</time>
      </trkpt>
      <trkpt lat="46.84561" lon="8.43586">
        <ele>1932</ele>
        <time>2021-08-13T08:00:29.165Z</time>
      </trkpt>
      <trkpt lat="46.8456" lon="8.43584">
        <ele>1931</ele>
        <time>2021-08-13T08:00:30.165Z</time>
      </trkpt>
      <trkpt lat="46.84559" lon="8.43583">
        <ele>1931</ele>
        <time>2021-08-13T08:00:31.164Z</time>
      </trkpt>
      <trkpt lat="46.84558" lon="8.43582">
        <ele>1931</ele>
        <time>2021-08-13T08:00:32.164Z</time>
      </trkpt>
      <trkpt lat="46.84558" lon="8.43581">
        <ele>1930</ele>
        <time>2021-08-13T08:00:33.165Z</time>
      </trkpt>
      <trkpt lat="46.84557" lon="8.4358">
        <ele>1929</ele>
        <time>2021-08-13T08:00:34.165Z</time>
      </trkpt>
      <trkpt lat="46.84556" lon="8.43579">
        <ele>1929</ele>
        <time>2021-08-13T08:00:35.165Z</time>
      </trkpt>
      <trkpt lat="46.84555" lon="8.43579">
        <ele>1928</ele>
        <time>2021-08-13T08:00:36.165Z</time>
      </trkpt>
      <trkpt lat="46.84554" lon="8.43578">
        <ele>1928</ele>
        <time>2021-08-13T08:00:37.165Z</time>
      </trkpt>
      <trkpt lat="46.84553" lon="8.43578">
        <ele>1927</ele>
        <time>2021-08-13T08:00:38.165Z</time>
      </trkpt>
      <trkpt lat="46.84552" lon="8.43577">
        <ele>1927</ele>
        <time>2021-08-13T08:00:39.164Z</time>
      </trkpt>
      <trkpt lat="46.84551" lon="8.43577">
        <ele>1926</ele>
        <time>2021-08-13T08:00:40.165Z</time>
      </trkpt>
      <trkpt lat="46.8455" lon="8.43576">
        <ele>1926</ele>
        <time>2021-08-13T08:00:41.165Z</time>
      </trkpt>
      <trkpt lat="46.84549" lon="8.43575">
        <ele>1926</ele>
        <time>2021-08-13T08:00:42.164Z</time>
      </trkpt>
      <trkpt lat="46.84548" lon="8.43574">
        <ele>1926</ele>
        <time>2021-08-13T08:00:43.165Z</time>
      </trkpt>
      <trkpt lat="46.84547" lon="8.43573">
        <ele>1926</ele>
        <time>2021-08-13T08:00:44.165Z</time>
      </trkpt>
      <trkpt lat="46.84547" lon="8.43572">
        <ele>1927</ele>
        <time>2021-08-13T08:00:45.164Z</time>
      </trkpt>
      <trkpt lat="46.84546" lon="8.4357">
        <ele>1927</ele>
        <time>2021-08-13T08:00:46.164Z</time>
      </trkpt>
      <trkpt lat="46.84546" lon="8.43569">
        <ele>1928</ele>
        <time>2021-08-13T08:00:47.165Z</time>
      </trkpt>
      <trkpt lat="46.84545" lon="8.43568">
        <ele>1928</ele>
        <time>2021-08-13T08:00:48.164Z</time>
      </trkpt>
      <trkpt lat="46.84545" lon="8.43565">
        <ele>1929</ele>
        <time>2021-08-13T08:00:49.165Z</time>
      </trkpt>
      <trkpt lat="46.84544" lon="8.43564">
        <ele>1929</ele>
        <time>2021-08-13T08:00:50.165Z</time>
      </trkpt>
      <trkpt lat="46.84543" lon="8.43562">
        <ele>1929</ele>
        <time>2021-08-13T08:00:51.164Z</time>
      </trkpt>
      <trkpt lat="46.84542" lon="8.4356">
        <ele>1929</ele>
        <time>2021-08-13T08:00:52.165Z</time>
      </trkpt>
      <trkpt lat="46.84542" lon="8.43559">
        <ele>1928</ele>
        <time>2021-08-13T08:00:53.164Z</time>
      </trkpt>
      <trkpt lat="46.8454" lon="8.43558">
        <ele>1928</ele>
        <time>2021-08-13T08:00:54.165Z</time>
      </trkpt>
      <trkpt lat="46.84539" lon="8.43557">
        <ele>1928</ele>
        <time>2021-08-13T08:00:55.165Z</time>
      </trkpt>
      <trkpt lat="46.84537" lon="8.43556">
        <ele>1929</ele>
        <time>2021-08-13T08:00:56.165Z</time>
      </trkpt>
      <trkpt lat="46.84536" lon="8.43555">
        <ele>1929</ele>
        <time>2021-08-13T08:00:57.165Z</time>
      </trkpt>
      <trkpt lat="46.84535" lon="8.43553">
        <ele>1929</ele>
        <time>2021-08-13T08:00:58.165Z</time>
      </trkpt>
      <trkpt lat="46.84534" lon="8.43551">
        <ele>1928</ele>
        <time>2021-08-13T08:00:59.165Z</time>
      </trkpt>
      <trkpt lat="46.84533" lon="8.43551">
        <ele>1928</ele>
        <time>2021-08-13T08:01:00.165Z</time>
      </trkpt>
      <trkpt lat="46.84532" lon="8.43549">
        <ele>1928</ele>
        <time>2021-08-13T08:01:01.164Z</time>
      </trkpt>
      <trkpt lat="46.84531" lon="8.43548">
        <ele>1928</ele>
        <time>2021-08-13T08:01:02.164Z</time>
      </trkpt>
      <trkpt lat="46.8453" lon="8.43547">
        <ele>1927</ele>
        <time>2021-08-13T08:01:03.164Z</time>
      </trkpt>
      <trkpt lat="46.84529" lon="8.43546">
        <ele>1927</ele>
        <time>2021-08-13T08:01:04.165Z</time>
      </trkpt>
      <trkpt lat="46.84528" lon="8.43545">
        <ele>1926</ele>
        <time>2021-08-13T08:01:05.165Z</time>
      </trkpt>
      <trkpt lat="46.84527" lon="8.43544">
        <ele>1926</ele>
        <time>2021-08-13T08:01:06.165Z</time>
      </trkpt>
      <trkpt lat="46.84526" lon="8.43543">
        <ele>1926</ele>
        <time>2021-08-13T08:01:07.164Z</time>
      </trkpt>
      <trkpt lat="46.84524" lon="8.43541">
        <ele>1925</ele>
        <time>2021-08-13T08:01:08.165Z</time>
      </trkpt>
      <trkpt lat="46.84523" lon="8.4354">
        <ele>1925</ele>
        <time>2021-08-13T08:01:09.165Z</time>
      </trkpt>
      <trkpt lat="46.84522" lon="8.43538">
        <ele>1925</ele>
        <time>2021-08-13T08:01:10.165Z</time>
      </trkpt>
      <trkpt lat="46.84521" lon="8.43536">
        <ele>1925</ele>
        <time>2021-08-13T08:01:11.164Z</time>
      </trkpt>
      <trkpt lat="46.8452" lon="8.43535">
        <ele>1925</ele>
        <time>2021-08-13T08:01:12.164Z</time>
      </trkpt>
      <trkpt lat="46.84519" lon="8.43533">
        <ele>1925</ele>
        <time>2021-08-13T08:01:13.164Z</time>
      </trkpt>
      <trkpt lat="46.84518" lon="8.43532">
        <ele>1925</ele>
        <time>2021-08-13T08:01:14.164Z</time>
      </trkpt>
      <trkpt lat="46.84518" lon="8.43532">
        <ele>1924</ele>
        <time>2021-08-13T08:01:15.164Z</time>
      </trkpt>
      <trkpt lat="46.84517" lon="8.43531">
        <ele>1924</ele>
        <time>2021-08-13T08:01:16.164Z</time>
      </trkpt>
      <trkpt lat="46.84516" lon="8.4353">
        <ele>1924</ele>
        <time>2021-08-13T08:01:17.165Z</time>
      </trkpt>
      <trkpt lat="46.84515" lon="8.43528">
        <ele>1924</ele>
        <time>2021-08-13T08:01:18.164Z</time>
      </trkpt>
      <trkpt lat="46.84515" lon="8.43527">
        <ele>1924</ele>
        <time>2021-08-13T08:01:19.165Z</time>
      </trkpt>
      <trkpt lat="46.84514" lon="8.43525">
        <ele>1924</ele>
        <time>2021-08-13T08:01:20.164Z</time>
      </trkpt>
      <trkpt lat="46.84514" lon="8.43524">
        <ele>1924</ele>
        <time>2021-08-13T08:01:21.164Z</time>
      </trkpt>
      <trkpt lat="46.84513" lon="8.43523">
        <ele>1924</ele>
        <time>2021-08-13T08:01:22.164Z</time>
      </trkpt>
      <trkpt lat="46.84512" lon="8.43522">
        <ele>1924</ele>
        <time>2021-08-13T08:01:23.164Z</time>
      </trkpt>
      <trkpt lat="46.84512" lon="8.43521">
        <ele>1924</ele>
        <time>2021-08-13T08:01:24.164Z</time>
      </trkpt>
      <trkpt lat="46.84511" lon="8.43521">
        <ele>1924</ele>
        <time>2021-08-13T08:01:25.165Z</time>
      </trkpt>
      <trkpt lat="46.84511" lon="8.4352">
        <ele>1925</ele>
        <time>2021-08-13T08:01:26.164Z</time>
      </trkpt>
      <trkpt lat="46.8451" lon="8.43519">
        <ele>1925</ele>
        <time>2021-08-13T08:01:27.165Z</time>
      </trkpt>
      <trkpt lat="46.84509" lon="8.43517">
        <ele>1925</ele>
        <time>2021-08-13T08:01:28.164Z</time>
      </trkpt>
      <trkpt lat="46.84509" lon="8.43515">
        <ele>1926</ele>
        <time>2021-08-13T08:01:29.164Z</time>
      </trkpt>
      <trkpt lat="46.84508" lon="8.43514">
        <ele>1926</ele>
        <time>2021-08-13T08:01:30.165Z</time>
      </trkpt>
      <trkpt lat="46.84507" lon="8.43513">
        <ele>1927</ele>
        <time>2021-08-13T08:01:31.164Z</time>
      </trkpt>
      <trkpt lat="46.84507" lon="8.43513">
        <ele>1927</ele>
        <time>2021-08-13T08:01:32.165Z</time>
      </trkpt>
      <trkpt lat="46.84506" lon="8.43512">
        <ele>1927</ele>
        <time>2021-08-13T08:01:33.164Z</time>
      </trkpt>
      <trkpt lat="46.84504" lon="8.43511">
        <ele>1927</ele>
        <time>2021-08-13T08:01:34.164Z</time>
      </trkpt>
      <trkpt lat="46.84503" lon="8.4351">
        <ele>1928</ele>
        <time>2021-08-13T08:01:35.164Z</time>
      </trkpt>
      <trkpt lat="46.84502" lon="8.43509">
        <ele>1928</ele>
        <time>2021-08-13T08:01:36.164Z</time>
      </trkpt>
      <trkpt lat="46.84501" lon="8.43508">
        <ele>1928</ele>
        <time>2021-08-13T08:01:37.164Z</time>
      </trkpt>
      <trkpt lat="46.845" lon="8.43507">
        <ele>1928</ele>
        <time>2021-08-13T08:01:38.164Z</time>
      </trkpt>
      <trkpt lat="46.84499" lon="8.43506">
        <ele>1927</ele>
        <time>2021-08-13T08:01:39.165Z</time>
      </trkpt>
      <trkpt lat="46.84498" lon="8.43505">
        <ele>1927</ele>
        <time>2021-08-13T08:01:40.165Z</time>
      </trkpt>
      <trkpt lat="46.84497" lon="8.43505">
        <ele>1927</ele>
        <time>2021-08-13T08:01:41.165Z</time>
      </trkpt>
      <trkpt lat="46.84497" lon="8.43504">
        <ele>1927</ele>
        <time>2021-08-13T08:01:42.165Z</time>
      </trkpt>
      <trkpt lat="46.84496" lon="8.43504">
        <ele>1927</ele>
        <time>2021-08-13T08:01:43.165Z</time>
      </trkpt>
      <trkpt lat="46.84495" lon="8.43503">
        <ele>1927</ele>
        <time>2021-08-13T08:01:44.165Z</time>
      </trkpt>
      <trkpt lat="46.84494" lon="8.43502">
        <ele>1927</ele>
        <time>2021-08-13T08:01:45.165Z</time>
      </trkpt>
      <trkpt lat="46.84493" lon="8.43501">
        <ele>1927</ele>
        <time>2021-08-13T08:01:46.165Z</time>
      </trkpt>
      <trkpt lat="46.84492" lon="8.435">
        <ele>1927</ele>
        <time>2021-08-13T08:01:47.165Z</time>
      </trkpt>
      <trkpt lat="46.84491" lon="8.435">
        <ele>1928</ele>
        <time>2021-08-13T08:01:48.165Z</time>
      </trkpt>
      <trkpt lat="46.84491" lon="8.435">
        <ele>1928</ele>
        <time>2021-08-13T08:01:49.164Z</time>
      </trkpt>
      <trkpt lat="46.84491" lon="8.435">
        <ele>1928</ele>
        <time>2021-08-13T08:01:50.164Z</time>
      </trkpt>
      <trkpt lat="46.8449" lon="8.43498">
        <ele>1929</ele>
        <time>2021-08-13T08:01:51.165Z</time>
      </trkpt>
      <trkpt lat="46.84489" lon="8.43498">
        <ele>1929</ele>
        <time>2021-08-13T08:01:52.165Z</time>
      </trkpt>
      <trkpt lat="46.84488" lon="8.43497">
        <ele>1929</ele>
        <time>2021-08-13T08:01:53.164Z</time>
      </trkpt>
      <trkpt lat="46.84487" lon="8.43497">
        <ele>1929</ele>
        <time>2021-08-13T08:01:54.164Z</time>
      </trkpt>
      <trkpt lat="46.84486" lon="8.43496">
        <ele>1928</ele>
        <time>2021-08-13T08:01:55.164Z</time>
      </trkpt>
      <trkpt lat="46.84485" lon="8.43494">
        <ele>1929</ele>
        <time>2021-08-13T08:01:56.164Z</time>
      </trkpt>
      <trkpt lat="46.84485" lon="8.43493">
        <ele>1929</ele>
        <time>2021-08-13T08:01:57.164Z</time>
      </trkpt>
      <trkpt lat="46.84484" lon="8.43493">
        <ele>1929</ele>
        <time>2021-08-13T08:01:58.165Z</time>
      </trkpt>
      <trkpt lat="46.84484" lon="8.43492">
        <ele>1929</ele>
        <time>2021-08-13T08:01:59.165Z</time>
      </trkpt>
      <trkpt lat="46.84483" lon="8.43491">
        <ele>1929</ele>
        <time>2021-08-13T08:02:00.165Z</time>
      </trkpt>
      <trkpt lat="46.84483" lon="8.4349">
        <ele>1929</ele>
        <time>2021-08-13T08:02:01.164Z</time>
      </trkpt>
      <trkpt lat="46.84482" lon="8.43488">
        <ele>1929</ele>
        <time>2021-08-13T08:02:02.164Z</time>
      </trkpt>
      <trkpt lat="46.84482" lon="8.43487">
        <ele>1929</ele>
        <time>2021-08-13T08:02:03.164Z</time>
      </trkpt>
      <trkpt lat="46.84481" lon="8.43486">
        <ele>1928</ele>
        <time>2021-08-13T08:02:04.164Z</time>
      </trkpt>
      <trkpt lat="46.84481" lon="8.43485">
        <ele>1928</ele>
        <time>2021-08-13T08:02:05.164Z</time>
      </trkpt>
      <trkpt lat="46.84481" lon="8.43484">
        <ele>1927</ele>
        <time>2021-08-13T08:02:06.165Z</time>
      </trkpt>
      <trkpt lat="46.84481" lon="8.43483">
        <ele>1927</ele>
        <time>2021-08-13T08:02:07.164Z</time>
      </trkpt>
      <trkpt lat="46.8448" lon="8.43482">
        <ele>1926</ele>
        <time>2021-08-13T08:02:08.165Z</time>
      </trkpt>
      <trkpt lat="46.84479" lon="8.43481">
        <ele>1926</ele>
        <time>2021-08-13T08:02:09.165Z</time>
      </trkpt>
      <trkpt lat="46.84479" lon="8.4348">
        <ele>1926</ele>
        <time>2021-08-13T08:02:10.164Z</time>
      </trkpt>
      <trkpt lat="46.84478" lon="8.43479">
        <ele>1926</ele>
        <time>2021-08-13T08:02:11.164Z</time>
      </trkpt>
      <trkpt lat="46.84477" lon="8.43478">
        <ele>1926</ele>
        <time>2021-08-13T08:02:12.164Z</time>
      </trkpt>
      <trkpt lat="46.84476" lon="8.43477">
        <ele>1926</ele>
        <time>2021-08-13T08:02:13.164Z</time>
      </trkpt>
      <trkpt lat="46.84475" lon="8.43477">
        <ele>1925</ele>
        <time>2021-08-13T08:02:14.165Z</time>
      </trkpt>
      <trkpt lat="46.84475" lon="8.43475">
        <ele>1925</ele>
        <time>2021-08-13T08:02:15.164Z</time>
      </trkpt>
      <trkpt lat="46.84474" lon="8.43474">
        <ele>1925</ele>
        <time>2021-08-13T08:02:16.164Z</time>
      </trkpt>
      <trkpt lat="46.84474" lon="8.43472">
        <ele>1925</ele>
        <time>2021-08-13T08:02:17.165Z</time>
      </trkpt>
      <trkpt lat="46.84474" lon="8.43471">
        <ele>1924</ele>
        <time>2021-08-13T08:02:18.164Z</time>
      </trkpt>
      <trkpt lat="46.84473" lon="8.4347">
        <ele>1924</ele>
        <time>2021-08-13T08:02:19.165Z</time>
      </trkpt>
      <trkpt lat="46.84473" lon="8.43468">
        <ele>1923</ele>
        <time>2021-08-13T08:02:20.164Z</time>
      </trkpt>
      <trkpt lat="46.84473" lon="8.43467">
        <ele>1923</ele>
        <time>2021-08-13T08:02:21.164Z</time>
      </trkpt>
      <trkpt lat="46.84472" lon="8.43465">
        <ele>1923</ele>
        <time>2021-08-13T08:02:22.164Z</time>
      </trkpt>
      <trkpt lat="46.84472" lon="8.43464">
        <ele>1922</ele>
        <time>2021-08-13T08:02:23.164Z</time>
      </trkpt>
      <trkpt lat="46.84472" lon="8.43463">
        <ele>1922</ele>
        <time>2021-08-13T08:02:24.164Z</time>
      </trkpt>
      <trkpt lat="46.84472" lon="8.43461">
        <ele>1922</ele>
        <time>2021-08-13T08:02:25.164Z</time>
      </trkpt>
      <trkpt lat="46.84472" lon="8.4346">
        <ele>1921</ele>
        <time>2021-08-13T08:02:26.164Z</time>
      </trkpt>
      <trkpt lat="46.84472" lon="8.43458">
        <ele>1921</ele>
        <time>2021-08-13T08:02:27.164Z</time>
      </trkpt>
      <trkpt lat="46.84472" lon="8.43456">
        <ele>1920</ele>
        <time>2021-08-13T08:02:28.165Z</time>
      </trkpt>
      <trkpt lat="46.84473" lon="8.43455">
        <ele>1920</ele>
        <time>2021-08-13T08:02:29.164Z</time>
      </trkpt>
      <trkpt lat="46.84473" lon="8.43454">
        <ele>1920</ele>
        <time>2021-08-13T08:02:30.164Z</time>
      </trkpt>
      <trkpt lat="46.84474" lon="8.43452">
        <ele>1920</ele>
        <time>2021-08-13T08:02:31.164Z</time>
      </trkpt>
      <trkpt lat="46.84475" lon="8.43451">
        <ele>1920</ele>
        <time>2021-08-13T08:02:32.164Z</time>
      </trkpt>
      <trkpt lat="46.84476" lon="8.43449">
        <ele>1920</ele>
        <time>2021-08-13T08:02:33.164Z</time>
      </trkpt>
      <trkpt lat="46.84476" lon="8.43448">
        <ele>1920</ele>
        <time>2021-08-13T08:02:34.165Z</time>
      </trkpt>
      <trkpt lat="46.84475" lon="8.43447">
        <ele>1920</ele>
        <time>2021-08-13T08:02:35.164Z</time>
      </trkpt>
      <trkpt lat="46.84475" lon="8.43445">
        <ele>1919</ele>
        <time>2021-08-13T08:02:36.164Z</time>
      </trkpt>
      <trkpt lat="46.84476" lon="8.43444">
        <ele>1919</ele>
        <time>2021-08-13T08:02:37.164Z</time>
      </trkpt>
      <trkpt lat="46.84476" lon="8.43442">
        <ele>1919</ele>
        <time>2021-08-13T08:02:38.164Z</time>
      </trkpt>
      <trkpt lat="46.84476" lon="8.4344">
        <ele>1919</ele>
        <time>2021-08-13T08:02:39.164Z</time>
      </trkpt>
      <trkpt lat="46.84476" lon="8.43438">
        <ele>1919</ele>
        <time>2021-08-13T08:02:40.164Z</time>
      </trkpt>
      <trkpt lat="46.84476" lon="8.43437">
        <ele>1919</ele>
        <time>2021-08-13T08:02:41.165Z</time>
      </trkpt>
      <trkpt lat="46.84476" lon="8.43436">
        <ele>1919</ele>
        <time>2021-08-13T08:02:42.164Z</time>
      </trkpt>
      <trkpt lat="46.84476" lon="8.43434">
        <ele>1919</ele>
        <time>2021-08-13T08:02:43.164Z</time>
      </trkpt>
      <trkpt lat="46.84476" lon="8.43433">
        <ele>1919</ele>
        <time>2021-08-13T08:02:44.164Z</time>
      </trkpt>
      <trkpt lat="46.84476" lon="8.43431">
        <ele>1919</ele>
        <time>2021-08-13T08:02:45.164Z</time>
      </trkpt>
      <trkpt lat="46.84476" lon="8.4343">
        <ele>1919</ele>
        <time>2021-08-13T08:02:46.164Z</time>
      </trkpt>
      <trkpt lat="46.84476" lon="8.43428">
        <ele>1919</ele>
        <time>2021-08-13T08:02:47.165Z</time>
      </trkpt>
      <trkpt lat="46.84476" lon="8.43426">
        <ele>1918</ele>
        <time>2021-08-13T08:02:48.165Z</time>
      </trkpt>
      <trkpt lat="46.84476" lon="8.43425">
        <ele>1918</ele>
        <time>2021-08-13T08:02:49.165Z</time>
      </trkpt>
      <trkpt lat="46.84476" lon="8.43423">
        <ele>1918</ele>
        <time>2021-08-13T08:02:50.165Z</time>
      </trkpt>
      <trkpt lat="46.84476" lon="8.43421">
        <ele>1918</ele>
        <time>2021-08-13T08:02:51.164Z</time>
      </trkpt>
      <trkpt lat="46.84476" lon="8.43419">
        <ele>1918</ele>
        <time>2021-08-13T08:02:52.165Z</time>
      </trkpt>
      <trkpt lat="46.84477" lon="8.43417">
        <ele>1918</ele>
        <time>2021-08-13T08:02:53.165Z</time>
      </trkpt>
      <trkpt lat="46.84477" lon="8.43415">
        <ele>1918</ele>
        <time>2021-08-13T08:02:54.165Z</time>
      </trkpt>
      <trkpt lat="46.84477" lon="8.43414">
        <ele>1918</ele>
        <time>2021-08-13T08:02:55.165Z</time>
      </trkpt>
      <trkpt lat="46.84477" lon="8.43412">
        <ele>1918</ele>
        <time>2021-08-13T08:02:56.165Z</time>
      </trkpt>
      <trkpt lat="46.84477" lon="8.43411">
        <ele>1918</ele>
        <time>2021-08-13T08:02:57.164Z</time>
      </trkpt>
      <trkpt lat="46.84477" lon="8.43409">
        <ele>1917</ele>
        <time>2021-08-13T08:02:58.165Z</time>
      </trkpt>
      <trkpt lat="46.84477" lon="8.43408">
        <ele>1917</ele>
        <time>2021-08-13T08:02:59.164Z</time>
      </trkpt>
      <trkpt lat="46.84478" lon="8.43406">
        <ele>1917</ele>
        <time>2021-08-13T08:03:00.165Z</time>
      </trkpt>
      <trkpt lat="46.84477" lon="8.43405">
        <ele>1917</ele>
        <time>2021-08-13T08:03:01.164Z</time>
      </trkpt>
      <trkpt lat="46.84477" lon="8.43403">
        <ele>1917</ele>
        <time>2021-08-13T08:03:02.165Z</time>
      </trkpt>
      <trkpt lat="46.84475" lon="8.43401">
        <ele>1916</ele>
        <time>2021-08-13T08:03:03.165Z</time>
      </trkpt>
      <trkpt lat="46.84474" lon="8.434">
        <ele>1916</ele>
        <time>2021-08-13T08:03:04.164Z</time>
      </trkpt>
      <trkpt lat="46.84473" lon="8.43399">
        <ele>1915</ele>
        <time>2021-08-13T08:03:05.165Z</time>
      </trkpt>
      <trkpt lat="46.84472" lon="8.43399">
        <ele>1915</ele>
        <time>2021-08-13T08:03:06.164Z</time>
      </trkpt>
      <trkpt lat="46.84471" lon="8.43398">
        <ele>1915</ele>
        <time>2021-08-13T08:03:07.165Z</time>
      </trkpt>
      <trkpt lat="46.8447" lon="8.43397">
        <ele>1915</ele>
        <time>2021-08-13T08:03:08.164Z</time>
      </trkpt>
      <trkpt lat="46.84469" lon="8.43397">
        <ele>1915</ele>
        <time>2021-08-13T08:03:09.164Z</time>
      </trkpt>
      <trkpt lat="46.84468" lon="8.43397">
        <ele>1915</ele>
        <time>2021-08-13T08:03:10.165Z</time>
      </trkpt>
      <trkpt lat="46.84468" lon="8.43397">
        <ele>1915</ele>
        <time>2021-08-13T08:03:11.165Z</time>
      </trkpt>
      <trkpt lat="46.84467" lon="8.43396">
        <ele>1916</ele>
        <time>2021-08-13T08:03:12.165Z</time>
      </trkpt>
      <trkpt lat="46.84466" lon="8.43395">
        <ele>1915</ele>
        <time>2021-08-13T08:03:13.165Z</time>
      </trkpt>
      <trkpt lat="46.84465" lon="8.43394">
        <ele>1916</ele>
        <time>2021-08-13T08:03:14.165Z</time>
      </trkpt>
      <trkpt lat="46.84464" lon="8.43393">
        <ele>1916</ele>
        <time>2021-08-13T08:03:15.165Z</time>
      </trkpt>
      <trkpt lat="46.84464" lon="8.43393">
        <ele>1916</ele>
        <time>2021-08-13T08:03:16.165Z</time>
      </trkpt>
      <trkpt lat="46.84464" lon="8.43393">
        <ele>1916</ele>
        <time>2021-08-13T08:03:17.164Z</time>
      </trkpt>
      <trkpt lat="46.84463" lon="8.43392">
        <ele>1916</ele>
        <time>2021-08-13T08:03:18.165Z</time>
      </trkpt>
      <trkpt lat="46.84463" lon="8.43391">
        <ele>1916</ele>
        <time>2021-08-13T08:03:19.164Z</time>
      </trkpt>
      <trkpt lat="46.84463" lon="8.4339">
        <ele>1916</ele>
        <time>2021-08-13T08:03:20.165Z</time>
      </trkpt>
      <trkpt lat="46.84462" lon="8.43389">
        <ele>1916</ele>
        <time>2021-08-13T08:03:21.164Z</time>
      </trkpt>
      <trkpt lat="46.84461" lon="8.43388">
        <ele>1916</ele>
        <time>2021-08-13T08:03:22.165Z</time>
      </trkpt>
      <trkpt lat="46.84461" lon="8.43387">
        <ele>1917</ele>
        <time>2021-08-13T08:03:23.165Z</time>
      </trkpt>
      <trkpt lat="46.84461" lon="8.43386">
        <ele>1917</ele>
        <time>2021-08-13T08:03:24.165Z</time>
      </trkpt>
      <trkpt lat="46.8446" lon="8.43385">
        <ele>1917</ele>
        <time>2021-08-13T08:03:25.164Z</time>
      </trkpt>
      <trkpt lat="46.8446" lon="8.43384">
        <ele>1917</ele>
        <time>2021-08-13T08:03:26.164Z</time>
      </trkpt>
      <trkpt lat="46.84459" lon="8.43383">
        <ele>1917</ele>
        <time>2021-08-13T08:03:27.165Z</time>
      </trkpt>
      <trkpt lat="46.84459" lon="8.43381">
        <ele>1916</ele>
        <time>2021-08-13T08:03:28.164Z</time>
      </trkpt>
      <trkpt lat="46.84458" lon="8.4338">
        <ele>1916</ele>
        <time>2021-08-13T08:03:29.164Z</time>
      </trkpt>
      <trkpt lat="46.84457" lon="8.43378">
        <ele>1915</ele>
        <time>2021-08-13T08:03:30.164Z</time>
      </trkpt>
      <trkpt lat="46.84457" lon="8.43377">
        <ele>1914</ele>
        <time>2021-08-13T08:03:31.165Z</time>
      </trkpt>
      <trkpt lat="46.84457" lon="8.43375">
        <ele>1914</ele>
        <time>2021-08-13T08:03:32.164Z</time>
      </trkpt>
      <trkpt lat="46.84457" lon="8.43373">
        <ele>1913</ele>
        <time>2021-08-13T08:03:33.165Z</time>
      </trkpt>
      <trkpt lat="46.84457" lon="8.43372">
        <ele>1913</ele>
        <time>2021-08-13T08:03:34.164Z</time>
      </trkpt>
      <trkpt lat="46.84457" lon="8.43371">
        <ele>1913</ele>
        <time>2021-08-13T08:03:35.165Z</time>
      </trkpt>
      <trkpt lat="46.84457" lon="8.43371">
        <ele>1913</ele>
        <time>2021-08-13T08:03:36.164Z</time>
      </trkpt>
      <trkpt lat="46.84457" lon="8.43369">
        <ele>1913</ele>
        <time>2021-08-13T08:03:37.164Z</time>
      </trkpt>
      <trkpt lat="46.84457" lon="8.43368">
        <ele>1912</ele>
        <time>2021-08-13T08:03:38.165Z</time>
      </trkpt>
      <trkpt lat="46.84457" lon="8.43368">
        <ele>1912</ele>
        <time>2021-08-13T08:03:39.164Z</time>
      </trkpt>
      <trkpt lat="46.84457" lon="8.43367">
        <ele>1911</ele>
        <time>2021-08-13T08:03:40.164Z</time>
      </trkpt>
      <trkpt lat="46.84457" lon="8.43367">
        <ele>1911</ele>
        <time>2021-08-13T08:03:41.165Z</time>
      </trkpt>
      <trkpt lat="46.84457" lon="8.43367">
        <ele>1911</ele>
        <time>2021-08-13T08:03:42.165Z</time>
      </trkpt>
      <trkpt lat="46.84456" lon="8.43367">
        <ele>1910</ele>
        <time>2021-08-13T08:03:43.165Z</time>
      </trkpt>
      <trkpt lat="46.84456" lon="8.43367">
        <ele>1910</ele>
        <time>2021-08-13T08:03:44.165Z</time>
      </trkpt>
      <trkpt lat="46.84456" lon="8.43367">
        <ele>1910</ele>
        <time>2021-08-13T08:03:45.165Z</time>
      </trkpt>
      <trkpt lat="46.84456" lon="8.43366">
        <ele>1910</ele>
        <time>2021-08-13T08:03:46.164Z</time>
      </trkpt>
      <trkpt lat="46.84456" lon="8.43364">
        <ele>1909</ele>
        <time>2021-08-13T08:03:47.165Z</time>
      </trkpt>
      <trkpt lat="46.84456" lon="8.43362">
        <ele>1909</ele>
        <time>2021-08-13T08:03:48.164Z</time>
      </trkpt>
      <trkpt lat="46.84456" lon="8.4336">
        <ele>1909</ele>
        <time>2021-08-13T08:03:49.164Z</time>
      </trkpt>
      <trkpt lat="46.84457" lon="8.43358">
        <ele>1909</ele>
        <time>2021-08-13T08:03:50.164Z</time>
      </trkpt>
      <trkpt lat="46.84457" lon="8.43355">
        <ele>1909</ele>
        <time>2021-08-13T08:03:51.165Z</time>
      </trkpt>
      <trkpt lat="46.84457" lon="8.43353">
        <ele>1909</ele>
        <time>2021-08-13T08:03:52.165Z</time>
      </trkpt>
      <trkpt lat="46.84457" lon="8.43351">
        <ele>1909</ele>
        <time>2021-08-13T08:03:53.165Z</time>
      </trkpt>
      <trkpt lat="46.84457" lon="8.43349">
        <ele>1909</ele>
        <time>2021-08-13T08:03:54.164Z</time>
      </trkpt>
      <trkpt lat="46.84456" lon="8.43346">
        <ele>1909</ele>
        <time>2021-08-13T08:03:55.164Z</time>
      </trkpt>
      <trkpt lat="46.84456" lon="8.43344">
        <ele>1908</ele>
        <time>2021-08-13T08:03:56.164Z</time>
      </trkpt>
      <trkpt lat="46.84456" lon="8.43342">
        <ele>1908</ele>
        <time>2021-08-13T08:03:57.164Z</time>
      </trkpt>
      <trkpt lat="46.84457" lon="8.43339">
        <ele>1909</ele>
        <time>2021-08-13T08:03:58.165Z</time>
      </trkpt>
      <trkpt lat="46.84457" lon="8.43338">
        <ele>1909</ele>
        <time>2021-08-13T08:03:59.164Z</time>
      </trkpt>
      <trkpt lat="46.84456" lon="8.43336">
        <ele>1909</ele>
        <time>2021-08-13T08:04:00.165Z</time>
      </trkpt>
      <trkpt lat="46.84456" lon="8.43334">
        <ele>1909</ele>
        <time>2021-08-13T08:04:01.165Z</time>
      </trkpt>
      <trkpt lat="46.84456" lon="8.43332">
        <ele>1909</ele>
        <time>2021-08-13T08:04:02.165Z</time>
      </trkpt>
      <trkpt lat="46.84455" lon="8.43331">
        <ele>1909</ele>
        <time>2021-08-13T08:04:03.165Z</time>
      </trkpt>
      <trkpt lat="46.84454" lon="8.4333">
        <ele>1908</ele>
        <time>2021-08-13T08:04:04.165Z</time>
      </trkpt>
      <trkpt lat="46.84454" lon="8.43329">
        <ele>1908</ele>
        <time>2021-08-13T08:04:05.164Z</time>
      </trkpt>
      <trkpt lat="46.84453" lon="8.43327">
        <ele>1908</ele>
        <time>2021-08-13T08:04:06.165Z</time>
      </trkpt>
      <trkpt lat="46.84453" lon="8.43326">
        <ele>1908</ele>
        <time>2021-08-13T08:04:07.164Z</time>
      </trkpt>
      <trkpt lat="46.84453" lon="8.43325">
        <ele>1907</ele>
        <time>2021-08-13T08:04:08.165Z</time>
      </trkpt>
      <trkpt lat="46.84452" lon="8.43324">
        <ele>1907</ele>
        <time>2021-08-13T08:04:09.165Z</time>
      </trkpt>
      <trkpt lat="46.84452" lon="8.43323">
        <ele>1907</ele>
        <time>2021-08-13T08:04:10.165Z</time>
      </trkpt>
      <trkpt lat="46.84452" lon="8.43322">
        <ele>1907</ele>
        <time>2021-08-13T08:04:11.165Z</time>
      </trkpt>
      <trkpt lat="46.84451" lon="8.43321">
        <ele>1906</ele>
        <time>2021-08-13T08:04:12.165Z</time>
      </trkpt>
      <trkpt lat="46.84451" lon="8.4332">
        <ele>1905</ele>
        <time>2021-08-13T08:04:13.165Z</time>
      </trkpt>
      <trkpt lat="46.84451" lon="8.43318">
        <ele>1905</ele>
        <time>2021-08-13T08:04:14.165Z</time>
      </trkpt>
      <trkpt lat="46.84451" lon="8.43316">
        <ele>1904</ele>
        <time>2021-08-13T08:04:15.165Z</time>
      </trkpt>
      <trkpt lat="46.84451" lon="8.43315">
        <ele>1904</ele>
        <time>2021-08-13T08:04:16.165Z</time>
      </trkpt>
      <trkpt lat="46.84451" lon="8.43314">
        <ele>1904</ele>
        <time>2021-08-13T08:04:17.165Z</time>
      </trkpt>
      <trkpt lat="46.84451" lon="8.43313">
        <ele>1903</ele>
        <time>2021-08-13T08:04:18.165Z</time>
      </trkpt>
      <trkpt lat="46.84451" lon="8.43311">
        <ele>1903</ele>
        <time>2021-08-13T08:04:19.164Z</time>
      </trkpt>
      <trkpt lat="46.84452" lon="8.4331">
        <ele>1903</ele>
        <time>2021-08-13T08:04:20.164Z</time>
      </trkpt>
      <trkpt lat="46.84452" lon="8.43308">
        <ele>1904</ele>
        <time>2021-08-13T08:04:21.165Z</time>
      </trkpt>
      <trkpt lat="46.84453" lon="8.43307">
        <ele>1904</ele>
        <time>2021-08-13T08:04:22.165Z</time>
      </trkpt>
      <trkpt lat="46.84454" lon="8.43305">
        <ele>1904</ele>
        <time>2021-08-13T08:04:23.165Z</time>
      </trkpt>
      <trkpt lat="46.84454" lon="8.43304">
        <ele>1904</ele>
        <time>2021-08-13T08:04:24.165Z</time>
      </trkpt>
      <trkpt lat="46.84455" lon="8.43303">
        <ele>1904</ele>
        <time>2021-08-13T08:04:25.165Z</time>
      </trkpt>
      <trkpt lat="46.84456" lon="8.43302">
        <ele>1905</ele>
        <time>2021-08-13T08:04:26.165Z</time>
      </trkpt>
      <trkpt lat="46.84458" lon="8.433">
        <ele>1905</ele>
        <time>2021-08-13T08:04:27.165Z</time>
      </trkpt>
      <trkpt lat="46.84459" lon="8.43299">
        <ele>1905</ele>
        <time>2021-08-13T08:04:28.164Z</time>
      </trkpt>
      <trkpt lat="46.84459" lon="8.43297">
        <ele>1905</ele>
        <time>2021-08-13T08:04:29.164Z</time>
      </trkpt>
      <trkpt lat="46.8446" lon="8.43296">
        <ele>1905</ele>
        <time>2021-08-13T08:04:30.164Z</time>
      </trkpt>
      <trkpt lat="46.8446" lon="8.43294">
        <ele>1905</ele>
        <time>2021-08-13T08:04:31.164Z</time>
      </trkpt>
      <trkpt lat="46.8446" lon="8.43292">
        <ele>1905</ele>
        <time>2021-08-13T08:04:32.165Z</time>
      </trkpt>
      <trkpt lat="46.8446" lon="8.43291">
        <ele>1905</ele>
        <time>2021-08-13T08:04:33.165Z</time>
      </trkpt>
      <trkpt lat="46.84461" lon="8.43288">
        <ele>1904</ele>
        <time>2021-08-13T08:04:34.164Z</time>
      </trkpt>
      <trkpt lat="46.8446" lon="8.43287">
        <ele>1904</ele>
        <time>2021-08-13T08:04:35.165Z</time>
      </trkpt>
      <trkpt lat="46.8446" lon="8.43285">
        <ele>1904</ele>
        <time>2021-08-13T08:04:36.164Z</time>
      </trkpt>
      <trkpt lat="46.8446" lon="8.43284">
        <ele>1904</ele>
        <time>2021-08-13T08:04:37.165Z</time>
      </trkpt>
      <trkpt lat="46.8446" lon="8.43282">
        <ele>1903</ele>
        <time>2021-08-13T08:04:38.165Z</time>
      </trkpt>
      <trkpt lat="46.8446" lon="8.43281">
        <ele>1903</ele>
        <time>2021-08-13T08:04:39.164Z</time>
      </trkpt>
      <trkpt lat="46.8446" lon="8.4328">
        <ele>1903</ele>
        <time>2021-08-13T08:04:40.164Z</time>
      </trkpt>
      <trkpt lat="46.84459" lon="8.43278">
        <ele>1903</ele>
        <time>2021-08-13T08:04:41.164Z</time>
      </trkpt>
      <trkpt lat="46.84459" lon="8.43277">
        <ele>1904</ele>
        <time>2021-08-13T08:04:42.165Z</time>
      </trkpt>
      <trkpt lat="46.84459" lon="8.43275">
        <ele>1904</ele>
        <time>2021-08-13T08:04:43.165Z</time>
      </trkpt>
      <trkpt lat="46.84459" lon="8.43273">
        <ele>1904</ele>
        <time>2021-08-13T08:04:44.164Z</time>
      </trkpt>
      <trkpt lat="46.84458" lon="8.43272">
        <ele>1904</ele>
        <time>2021-08-13T08:04:45.164Z</time>
      </trkpt>
      <trkpt lat="46.84458" lon="8.4327">
        <ele>1904</ele>
        <time>2021-08-13T08:04:46.165Z</time>
      </trkpt>
      <trkpt lat="46.84458" lon="8.43268">
        <ele>1904</ele>
        <time>2021-08-13T08:04:47.164Z</time>
      </trkpt>
      <trkpt lat="46.84459" lon="8.43266">
        <ele>1904</ele>
        <time>2021-08-13T08:04:48.165Z</time>
      </trkpt>
      <trkpt lat="46.84459" lon="8.43265">
        <ele>1903</ele>
        <time>2021-08-13T08:04:49.165Z</time>
      </trkpt>
      <trkpt lat="46.84459" lon="8.43264">
        <ele>1903</ele>
        <time>2021-08-13T08:04:50.165Z</time>
      </trkpt>
      <trkpt lat="46.84459" lon="8.43262">
        <ele>1903</ele>
        <time>2021-08-13T08:04:51.165Z</time>
      </trkpt>
      <trkpt lat="46.84459" lon="8.43261">
        <ele>1903</ele>
        <time>2021-08-13T08:04:52.164Z</time>
      </trkpt>
      <trkpt lat="46.8446" lon="8.43259">
        <ele>1903</ele>
        <time>2021-08-13T08:04:53.165Z</time>
      </trkpt>
      <trkpt lat="46.8446" lon="8.43258">
        <ele>1904</ele>
        <time>2021-08-13T08:04:54.165Z</time>
      </trkpt>
      <trkpt lat="46.8446" lon="8.43256">
        <ele>1904</ele>
        <time>2021-08-13T08:04:55.164Z</time>
      </trkpt>
      <trkpt lat="46.84461" lon="8.43255">
        <ele>1904</ele>
        <time>2021-08-13T08:04:56.165Z</time>
      </trkpt>
      <trkpt lat="46.84461" lon="8.43253">
        <ele>1905</ele>
        <time>2021-08-13T08:04:57.165Z</time>
      </trkpt>
      <trkpt lat="46.84461" lon="8.43252">
        <ele>1905</ele>
        <time>2021-08-13T08:04:58.164Z</time>
      </trkpt>
      <trkpt lat="46.84461" lon="8.4325">
        <ele>1906</ele>
        <time>2021-08-13T08:04:59.165Z</time>
      </trkpt>
      <trkpt lat="46.84461" lon="8.43249">
        <ele>1906</ele>
        <time>2021-08-13T08:05:00.165Z</time>
      </trkpt>
      <trkpt lat="46.84461" lon="8.43248">
        <ele>1907</ele>
        <time>2021-08-13T08:05:01.165Z</time>
      </trkpt>
      <trkpt lat="46.84461" lon="8.43247">
        <ele>1907</ele>
        <time>2021-08-13T08:05:02.165Z</time>
      </trkpt>
      <trkpt lat="46.84462" lon="8.43245">
        <ele>1908</ele>
        <time>2021-08-13T08:05:03.165Z</time>
      </trkpt>
      <trkpt lat="46.84462" lon="8.43244">
        <ele>1908</ele>
        <time>2021-08-13T08:05:04.165Z</time>
      </trkpt>
      <trkpt lat="46.84463" lon="8.43243">
        <ele>1909</ele>
        <time>2021-08-13T08:05:05.164Z</time>
      </trkpt>
      <trkpt lat="46.84464" lon="8.43241">
        <ele>1909</ele>
        <time>2021-08-13T08:05:06.165Z</time>
      </trkpt>
      <trkpt lat="46.84464" lon="8.4324">
        <ele>1910</ele>
        <time>2021-08-13T08:05:07.165Z</time>
      </trkpt>
      <trkpt lat="46.84465" lon="8.43239">
        <ele>1911</ele>
        <time>2021-08-13T08:05:08.164Z</time>
      </trkpt>
      <trkpt lat="46.84465" lon="8.43238">
        <ele>1911</ele>
        <time>2021-08-13T08:05:09.165Z</time>
      </trkpt>
      <trkpt lat="46.84466" lon="8.43238">
        <ele>1912</ele>
        <time>2021-08-13T08:05:10.165Z</time>
      </trkpt>
      <trkpt lat="46.84467" lon="8.43237">
        <ele>1912</ele>
        <time>2021-08-13T08:05:11.164Z</time>
      </trkpt>
      <trkpt lat="46.84467" lon="8.43236">
        <ele>1912</ele>
        <time>2021-08-13T08:05:12.165Z</time>
      </trkpt>
      <trkpt lat="46.84468" lon="8.43236">
        <ele>1912</ele>
        <time>2021-08-13T08:05:13.165Z</time>
      </trkpt>
      <trkpt lat="46.84469" lon="8.43235">
        <ele>1913</ele>
        <time>2021-08-13T08:05:14.165Z</time>
      </trkpt>
      <trkpt lat="46.84469" lon="8.43234">
        <ele>1913</ele>
        <time>2021-08-13T08:05:15.164Z</time>
      </trkpt>
      <trkpt lat="46.84469" lon="8.43233">
        <ele>1913</ele>
        <time>2021-08-13T08:05:16.164Z</time>
      </trkpt>
      <trkpt lat="46.84469" lon="8.43231">
        <ele>1913</ele>
        <time>2021-08-13T08:05:17.164Z</time>
      </trkpt>
      <trkpt lat="46.8447" lon="8.4323">
        <ele>1913</ele>
        <time>2021-08-13T08:05:18.165Z</time>
      </trkpt>
      <trkpt lat="46.8447" lon="8.43229">
        <ele>1913</ele>
        <time>2021-08-13T08:05:19.165Z</time>
      </trkpt>
      <trkpt lat="46.8447" lon="8.43227">
        <ele>1913</ele>
        <time>2021-08-13T08:05:20.165Z</time>
      </trkpt>
      <trkpt lat="46.8447" lon="8.43226">
        <ele>1912</ele>
        <time>2021-08-13T08:05:21.164Z</time>
      </trkpt>
      <trkpt lat="46.8447" lon="8.43225">
        <ele>1912</ele>
        <time>2021-08-13T08:05:22.165Z</time>
      </trkpt>
      <trkpt lat="46.8447" lon="8.43224">
        <ele>1912</ele>
        <time>2021-08-13T08:05:23.164Z</time>
      </trkpt>
      <trkpt lat="46.8447" lon="8.43223">
        <ele>1912</ele>
        <time>2021-08-13T08:05:24.164Z</time>
      </trkpt>
      <trkpt lat="46.84471" lon="8.43222">
        <ele>1912</ele>
        <time>2021-08-13T08:05:25.164Z</time>
      </trkpt>
      <trkpt lat="46.84471" lon="8.43221">
        <ele>1912</ele>
        <time>2021-08-13T08:05:26.164Z</time>
      </trkpt>
      <trkpt lat="46.8447" lon="8.4322">
        <ele>1912</ele>
        <time>2021-08-13T08:05:27.165Z</time>
      </trkpt>
      <trkpt lat="46.8447" lon="8.43219">
        <ele>1912</ele>
        <time>2021-08-13T08:05:28.165Z</time>
      </trkpt>
      <trkpt lat="46.84469" lon="8.43219">
        <ele>1913</ele>
        <time>2021-08-13T08:05:29.165Z</time>
      </trkpt>
      <trkpt lat="46.84469" lon="8.43218">
        <ele>1913</ele>
        <time>2021-08-13T08:05:30.165Z</time>
      </trkpt>
      <trkpt lat="46.84469" lon="8.43217">
        <ele>1913</ele>
        <time>2021-08-13T08:05:31.165Z</time>
      </trkpt>
      <trkpt lat="46.84469" lon="8.43216">
        <ele>1914</ele>
        <time>2021-08-13T08:05:32.165Z</time>
      </trkpt>
      <trkpt lat="46.8447" lon="8.43215">
        <ele>1914</ele>
        <time>2021-08-13T08:05:33.165Z</time>
      </trkpt>
      <trkpt lat="46.8447" lon="8.43213">
        <ele>1914</ele>
        <time>2021-08-13T08:05:34.165Z</time>
      </trkpt>
      <trkpt lat="46.8447" lon="8.43211">
        <ele>1915</ele>
        <time>2021-08-13T08:05:35.165Z</time>
      </trkpt>
      <trkpt lat="46.84469" lon="8.4321">
        <ele>1915</ele>
        <time>2021-08-13T08:05:36.165Z</time>
      </trkpt>
      <trkpt lat="46.84468" lon="8.43209">
        <ele>1915</ele>
        <time>2021-08-13T08:05:37.165Z</time>
      </trkpt>
      <trkpt lat="46.84468" lon="8.43207">
        <ele>1915</ele>
        <time>2021-08-13T08:05:38.165Z</time>
      </trkpt>
      <trkpt lat="46.84469" lon="8.43205">
        <ele>1915</ele>
        <time>2021-08-13T08:05:39.165Z</time>
      </trkpt>
      <trkpt lat="46.84469" lon="8.43203">
        <ele>1915</ele>
        <time>2021-08-13T08:05:40.165Z</time>
      </trkpt>
      <trkpt lat="46.8447" lon="8.43202">
        <ele>1915</ele>
        <time>2021-08-13T08:05:41.165Z</time>
      </trkpt>
      <trkpt lat="46.8447" lon="8.432">
        <ele>1915</ele>
        <time>2021-08-13T08:05:42.165Z</time>
      </trkpt>
      <trkpt lat="46.84471" lon="8.43198">
        <ele>1915</ele>
        <time>2021-08-13T08:05:43.165Z</time>
      </trkpt>
      <trkpt lat="46.84472" lon="8.43197">
        <ele>1914</ele>
        <time>2021-08-13T08:05:44.165Z</time>
      </trkpt>
      <trkpt lat="46.84472" lon="8.43196">
        <ele>1914</ele>
        <time>2021-08-13T08:05:45.165Z</time>
      </trkpt>
      <trkpt lat="46.84473" lon="8.43195">
        <ele>1914</ele>
        <time>2021-08-13T08:05:46.165Z</time>
      </trkpt>
      <trkpt lat="46.84473" lon="8.43195">
        <ele>1914</ele>
        <time>2021-08-13T08:05:47.165Z</time>
      </trkpt>
      <trkpt lat="46.84473" lon="8.43194">
        <ele>1915</ele>
        <time>2021-08-13T08:05:48.165Z</time>
      </trkpt>
      <trkpt lat="46.84473" lon="8.43194">
        <ele>1915</ele>
        <time>2021-08-13T08:05:49.165Z</time>
      </trkpt>
      <trkpt lat="46.84472" lon="8.43194">
        <ele>1915</ele>
        <time>2021-08-13T08:05:50.164Z</time>
      </trkpt>
      <trkpt lat="46.84472" lon="8.43195">
        <ele>1915</ele>
        <time>2021-08-13T08:05:51.165Z</time>
      </trkpt>
      <trkpt lat="46.84474" lon="8.43198">
        <ele>1914</ele>
        <time>2021-08-13T08:05:52.165Z</time>
      </trkpt>
      <trkpt lat="46.84474" lon="8.43198">
        <ele>1914</ele>
        <time>2021-08-13T08:05:53.165Z</time>
      </trkpt>
      <trkpt lat="46.84474" lon="8.43198">
        <ele>1913</ele>
        <time>2021-08-13T08:05:54.164Z</time>
      </trkpt>
      <trkpt lat="46.84473" lon="8.43197">
        <ele>1913</ele>
        <time>2021-08-13T08:05:55.164Z</time>
      </trkpt>
      <trkpt lat="46.84473" lon="8.43197">
        <ele>1912</ele>
        <time>2021-08-13T08:05:56.165Z</time>
      </trkpt>
      <trkpt lat="46.84472" lon="8.43197">
        <ele>1911</ele>
        <time>2021-08-13T08:05:57.165Z</time>
      </trkpt>
      <trkpt lat="46.84472" lon="8.43197">
        <ele>1911</ele>
        <time>2021-08-13T08:05:58.165Z</time>
      </trkpt>
      <trkpt lat="46.84471" lon="8.43198">
        <ele>1914</ele>
        <time>2021-08-13T08:05:59.165Z</time>
      </trkpt>
      <trkpt lat="46.8447" lon="8.43197">
        <ele>1914</ele>
        <time>2021-08-13T08:06:00.165Z</time>
      </trkpt>
      <trkpt lat="46.84469" lon="8.43198">
        <ele>1913</ele>
        <time>2021-08-13T08:06:01.166Z</time>
      </trkpt>
      <trkpt lat="46.84469" lon="8.43198">
        <ele>1913</ele>
        <time>2021-08-13T08:06:02.165Z</time>
      </trkpt>
      <trkpt lat="46.84469" lon="8.43199">
        <ele>1914</ele>
        <time>2021-08-13T08:06:03.166Z</time>
      </trkpt>
      <trkpt lat="46.8447" lon="8.43198">
        <ele>1916</ele>
        <time>2021-08-13T08:06:04.165Z</time>
      </trkpt>
      <trkpt lat="46.84471" lon="8.43197">
        <ele>1916</ele>
        <time>2021-08-13T08:06:05.166Z</time>
      </trkpt>
      <trkpt lat="46.8447" lon="8.43197">
        <ele>1916</ele>
        <time>2021-08-13T08:06:06.165Z</time>
      </trkpt>
      <trkpt lat="46.8447" lon="8.43197">
        <ele>1916</ele>
        <time>2021-08-13T08:06:07.165Z</time>
      </trkpt>
      <trkpt lat="46.84471" lon="8.43197">
        <ele>1917</ele>
        <time>2021-08-13T08:06:08.166Z</time>
      </trkpt>
      <trkpt lat="46.84471" lon="8.43197">
        <ele>1917</ele>
        <time>2021-08-13T08:06:09.166Z</time>
      </trkpt>
      <trkpt lat="46.84471" lon="8.43197">
        <ele>1917</ele>
        <time>2021-08-13T08:06:10.166Z</time>
      </trkpt>
      <trkpt lat="46.84472" lon="8.43198">
        <ele>1920</ele>
        <time>2021-08-13T08:06:11.166Z</time>
      </trkpt>
      <trkpt lat="46.84472" lon="8.43198">
        <ele>1920</ele>
        <time>2021-08-13T08:06:12.167Z</time>
      </trkpt>
      <trkpt lat="46.84472" lon="8.43198">
        <ele>1920</ele>
        <time>2021-08-13T08:06:13.167Z</time>
      </trkpt>
      <trkpt lat="46.84472" lon="8.43199">
        <ele>1920</ele>
        <time>2021-08-13T08:06:14.166Z</time>
      </trkpt>
      <trkpt lat="46.84473" lon="8.43199">
        <ele>1918</ele>
        <time>2021-08-13T08:06:15.167Z</time>
      </trkpt>
      <trkpt lat="46.84473" lon="8.43199">
        <ele>1918</ele>
        <time>2021-08-13T08:06:16.167Z</time>
      </trkpt>
      <trkpt lat="46.84473" lon="8.43198">
        <ele>1917</ele>
        <time>2021-08-13T08:06:17.166Z</time>
      </trkpt>
      <trkpt lat="46.84473" lon="8.43199">
        <ele>1917</ele>
        <time>2021-08-13T08:06:18.166Z</time>
      </trkpt>
      <trkpt lat="46.84473" lon="8.43198">
        <ele>1917</ele>
        <time>2021-08-13T08:06:19.166Z</time>
      </trkpt>
      <trkpt lat="46.84473" lon="8.43198">
        <ele>1916</ele>
        <time>2021-08-13T08:06:20.168Z</time>
      </trkpt>
      <trkpt lat="46.84472" lon="8.43198">
        <ele>1916</ele>
        <time>2021-08-13T08:06:21.167Z</time>
      </trkpt>
      <trkpt lat="46.84473" lon="8.43198">
        <ele>1916</ele>
        <time>2021-08-13T08:06:22.168Z</time>
      </trkpt>
      <trkpt lat="46.84473" lon="8.43197">
        <ele>1916</ele>
        <time>2021-08-13T08:06:23.167Z</time>
      </trkpt>
      <trkpt lat="46.84473" lon="8.43196">
        <ele>1916</ele>
        <time>2021-08-13T08:06:24.168Z</time>
      </trkpt>
      <trkpt lat="46.84473" lon="8.43195">
        <ele>1916</ele>
        <time>2021-08-13T08:06:25.168Z</time>
      </trkpt>
      <trkpt lat="46.84473" lon="8.43193">
        <ele>1916</ele>
        <time>2021-08-13T08:06:26.168Z</time>
      </trkpt>
      <trkpt lat="46.84473" lon="8.43193">
        <ele>1916</ele>
        <time>2021-08-13T08:06:27.168Z</time>
      </trkpt>
      <trkpt lat="46.84473" lon="8.43192">
        <ele>1916</ele>
        <time>2021-08-13T08:06:28.168Z</time>
      </trkpt>
      <trkpt lat="46.84473" lon="8.43191">
        <ele>1916</ele>
        <time>2021-08-13T08:06:29.168Z</time>
      </trkpt>
      <trkpt lat="46.84473" lon="8.43191">
        <ele>1916</ele>
        <time>2021-08-13T08:06:30.167Z</time>
      </trkpt>
      <trkpt lat="46.84472" lon="8.43191">
        <ele>1916</ele>
        <time>2021-08-13T08:06:31.167Z</time>
      </trkpt>
      <trkpt lat="46.84471" lon="8.4319">
        <ele>1915</ele>
        <time>2021-08-13T08:06:32.168Z</time>
      </trkpt>
      <trkpt lat="46.84471" lon="8.4319">
        <ele>1915</ele>
        <time>2021-08-13T08:06:33.168Z</time>
      </trkpt>
      <trkpt lat="46.8447" lon="8.43189">
        <ele>1915</ele>
        <time>2021-08-13T08:06:34.168Z</time>
      </trkpt>
      <trkpt lat="46.8447" lon="8.43188">
        <ele>1914</ele>
        <time>2021-08-13T08:06:35.168Z</time>
      </trkpt>
      <trkpt lat="46.84469" lon="8.43188">
        <ele>1914</ele>
        <time>2021-08-13T08:06:36.168Z</time>
      </trkpt>
      <trkpt lat="46.84469" lon="8.43187">
        <ele>1914</ele>
        <time>2021-08-13T08:06:37.168Z</time>
      </trkpt>
      <trkpt lat="46.84468" lon="8.43186">
        <ele>1913</ele>
        <time>2021-08-13T08:06:38.167Z</time>
      </trkpt>
      <trkpt lat="46.84467" lon="8.43186">
        <ele>1913</ele>
        <time>2021-08-13T08:06:39.167Z</time>
      </trkpt>
      <trkpt lat="46.84466" lon="8.43185">
        <ele>1912</ele>
        <time>2021-08-13T08:06:40.168Z</time>
      </trkpt>
      <trkpt lat="46.84465" lon="8.43184">
        <ele>1912</ele>
        <time>2021-08-13T08:06:41.167Z</time>
      </trkpt>
      <trkpt lat="46.84464" lon="8.43183">
        <ele>1912</ele>
        <time>2021-08-13T08:06:42.167Z</time>
      </trkpt>
      <trkpt lat="46.84463" lon="8.43182">
        <ele>1912</ele>
        <time>2021-08-13T08:06:43.168Z</time>
      </trkpt>
      <trkpt lat="46.84463" lon="8.43182">
        <ele>1912</ele>
        <time>2021-08-13T08:06:44.167Z</time>
      </trkpt>
      <trkpt lat="46.84462" lon="8.43181">
        <ele>1912</ele>
        <time>2021-08-13T08:06:45.167Z</time>
      </trkpt>
      <trkpt lat="46.84461" lon="8.4318">
        <ele>1911</ele>
        <time>2021-08-13T08:06:46.168Z</time>
      </trkpt>
      <trkpt lat="46.8446" lon="8.43179">
        <ele>1911</ele>
        <time>2021-08-13T08:06:47.168Z</time>
      </trkpt>
      <trkpt lat="46.84459" lon="8.43178">
        <ele>1910</ele>
        <time>2021-08-13T08:06:48.168Z</time>
      </trkpt>
      <trkpt lat="46.84459" lon="8.43177">
        <ele>1910</ele>
        <time>2021-08-13T08:06:49.168Z</time>
      </trkpt>
      <trkpt lat="46.84458" lon="8.43176">
        <ele>1909</ele>
        <time>2021-08-13T08:06:50.168Z</time>
      </trkpt>
      <trkpt lat="46.84457" lon="8.43175">
        <ele>1909</ele>
        <time>2021-08-13T08:06:51.167Z</time>
      </trkpt>
      <trkpt lat="46.84456" lon="8.43175">
        <ele>1908</ele>
        <time>2021-08-13T08:06:52.167Z</time>
      </trkpt>
      <trkpt lat="46.84455" lon="8.43174">
        <ele>1908</ele>
        <time>2021-08-13T08:06:53.167Z</time>
      </trkpt>
      <trkpt lat="46.84454" lon="8.43173">
        <ele>1907</ele>
        <time>2021-08-13T08:06:54.167Z</time>
      </trkpt>
      <trkpt lat="46.84453" lon="8.43172">
        <ele>1907</ele>
        <time>2021-08-13T08:06:55.167Z</time>
      </trkpt>
      <trkpt lat="46.84452" lon="8.43171">
        <ele>1906</ele>
        <time>2021-08-13T08:06:56.167Z</time>
      </trkpt>
      <trkpt lat="46.84452" lon="8.4317">
        <ele>1905</ele>
        <time>2021-08-13T08:06:57.167Z</time>
      </trkpt>
      <trkpt lat="46.84451" lon="8.43169">
        <ele>1905</ele>
        <time>2021-08-13T08:06:58.167Z</time>
      </trkpt>
      <trkpt lat="46.8445" lon="8.43168">
        <ele>1905</ele>
        <time>2021-08-13T08:06:59.167Z</time>
      </trkpt>
      <trkpt lat="46.84449" lon="8.43166">
        <ele>1904</ele>
        <time>2021-08-13T08:07:00.167Z</time>
      </trkpt>
      <trkpt lat="46.84449" lon="8.43165">
        <ele>1904</ele>
        <time>2021-08-13T08:07:01.167Z</time>
      </trkpt>
      <trkpt lat="46.84449" lon="8.43163">
        <ele>1904</ele>
        <time>2021-08-13T08:07:02.167Z</time>
      </trkpt>
      <trkpt lat="46.84448" lon="8.43162">
        <ele>1904</ele>
        <time>2021-08-13T08:07:03.167Z</time>
      </trkpt>
      <trkpt lat="46.84448" lon="8.43161">
        <ele>1904</ele>
        <time>2021-08-13T08:07:04.167Z</time>
      </trkpt>
      <trkpt lat="46.84447" lon="8.43159">
        <ele>1904</ele>
        <time>2021-08-13T08:07:05.167Z</time>
      </trkpt>
      <trkpt lat="46.84447" lon="8.43158">
        <ele>1905</ele>
        <time>2021-08-13T08:07:06.167Z</time>
      </trkpt>
      <trkpt lat="46.84447" lon="8.43156">
        <ele>1905</ele>
        <time>2021-08-13T08:07:07.167Z</time>
      </trkpt>
      <trkpt lat="46.84447" lon="8.43154">
        <ele>1906</ele>
        <time>2021-08-13T08:07:08.167Z</time>
      </trkpt>
      <trkpt lat="46.84447" lon="8.43152">
        <ele>1906</ele>
        <time>2021-08-13T08:07:09.167Z</time>
      </trkpt>
      <trkpt lat="46.84446" lon="8.4315">
        <ele>1906</ele>
        <time>2021-08-13T08:07:10.168Z</time>
      </trkpt>
      <trkpt lat="46.84445" lon="8.43147">
        <ele>1905</ele>
        <time>2021-08-13T08:07:11.167Z</time>
      </trkpt>
      <trkpt lat="46.84445" lon="8.43145">
        <ele>1905</ele>
        <time>2021-08-13T08:07:12.167Z</time>
      </trkpt>
      <trkpt lat="46.84445" lon="8.43143">
        <ele>1904</ele>
        <time>2021-08-13T08:07:13.167Z</time>
      </trkpt>
      <trkpt lat="46.84445" lon="8.43142">
        <ele>1903</ele>
        <time>2021-08-13T08:07:14.167Z</time>
      </trkpt>
      <trkpt lat="46.84444" lon="8.4314">
        <ele>1903</ele>
        <time>2021-08-13T08:07:15.168Z</time>
      </trkpt>
      <trkpt lat="46.84444" lon="8.43139">
        <ele>1902</ele>
        <time>2021-08-13T08:07:16.167Z</time>
      </trkpt>
      <trkpt lat="46.84443" lon="8.43138">
        <ele>1902</ele>
        <time>2021-08-13T08:07:17.167Z</time>
      </trkpt>
      <trkpt lat="46.84442" lon="8.43137">
        <ele>1902</ele>
        <time>2021-08-13T08:07:18.167Z</time>
      </trkpt>
      <trkpt lat="46.84442" lon="8.43136">
        <ele>1902</ele>
        <time>2021-08-13T08:07:19.167Z</time>
      </trkpt>
      <trkpt lat="46.84441" lon="8.43135">
        <ele>1902</ele>
        <time>2021-08-13T08:07:20.167Z</time>
      </trkpt>
      <trkpt lat="46.84441" lon="8.43134">
        <ele>1901</ele>
        <time>2021-08-13T08:07:21.167Z</time>
      </trkpt>
      <trkpt lat="46.8444" lon="8.43133">
        <ele>1901</ele>
        <time>2021-08-13T08:07:22.167Z</time>
      </trkpt>
      <trkpt lat="46.8444" lon="8.43132">
        <ele>1900</ele>
        <time>2021-08-13T08:07:23.167Z</time>
      </trkpt>
      <trkpt lat="46.84439" lon="8.43131">
        <ele>1900</ele>
        <time>2021-08-13T08:07:24.167Z</time>
      </trkpt>
      <trkpt lat="46.84438" lon="8.4313">
        <ele>1900</ele>
        <time>2021-08-13T08:07:25.167Z</time>
      </trkpt>
      <trkpt lat="46.84438" lon="8.43129">
        <ele>1899</ele>
        <time>2021-08-13T08:07:26.167Z</time>
      </trkpt>
      <trkpt lat="46.84437" lon="8.43128">
        <ele>1899</ele>
        <time>2021-08-13T08:07:27.168Z</time>
      </trkpt>
      <trkpt lat="46.84436" lon="8.43128">
        <ele>1899</ele>
        <time>2021-08-13T08:07:28.167Z</time>
      </trkpt>
      <trkpt lat="46.84436" lon="8.43127">
        <ele>1898</ele>
        <time>2021-08-13T08:07:29.167Z</time>
      </trkpt>
      <trkpt lat="46.84434" lon="8.43127">
        <ele>1898</ele>
        <time>2021-08-13T08:07:30.167Z</time>
      </trkpt>
      <trkpt lat="46.84433" lon="8.43127">
        <ele>1898</ele>
        <time>2021-08-13T08:07:31.167Z</time>
      </trkpt>
      <trkpt lat="46.84432" lon="8.43128">
        <ele>1898</ele>
        <time>2021-08-13T08:07:32.167Z</time>
      </trkpt>
      <trkpt lat="46.84431" lon="8.43128">
        <ele>1898</ele>
        <time>2021-08-13T08:07:33.168Z</time>
      </trkpt>
      <trkpt lat="46.8443" lon="8.43129">
        <ele>1898</ele>
        <time>2021-08-13T08:07:34.167Z</time>
      </trkpt>
      <trkpt lat="46.84429" lon="8.43129">
        <ele>1899</ele>
        <time>2021-08-13T08:07:35.168Z</time>
      </trkpt>
      <trkpt lat="46.84428" lon="8.4313">
        <ele>1899</ele>
        <time>2021-08-13T08:07:36.167Z</time>
      </trkpt>
      <trkpt lat="46.84427" lon="8.4313">
        <ele>1899</ele>
        <time>2021-08-13T08:07:37.168Z</time>
      </trkpt>
      <trkpt lat="46.84426" lon="8.4313">
        <ele>1899</ele>
        <time>2021-08-13T08:07:38.168Z</time>
      </trkpt>
      <trkpt lat="46.84424" lon="8.43129">
        <ele>1899</ele>
        <time>2021-08-13T08:07:39.168Z</time>
      </trkpt>
      <trkpt lat="46.84423" lon="8.43128">
        <ele>1900</ele>
        <time>2021-08-13T08:07:40.168Z</time>
      </trkpt>
      <trkpt lat="46.84422" lon="8.43127">
        <ele>1899</ele>
        <time>2021-08-13T08:07:41.168Z</time>
      </trkpt>
      <trkpt lat="46.84421" lon="8.43126">
        <ele>1899</ele>
        <time>2021-08-13T08:07:42.168Z</time>
      </trkpt>
      <trkpt lat="46.8442" lon="8.43126">
        <ele>1898</ele>
        <time>2021-08-13T08:07:43.168Z</time>
      </trkpt>
      <trkpt lat="46.8442" lon="8.43125">
        <ele>1898</ele>
        <time>2021-08-13T08:07:44.167Z</time>
      </trkpt>
      <trkpt lat="46.84418" lon="8.43124">
        <ele>1898</ele>
        <time>2021-08-13T08:07:45.168Z</time>
      </trkpt>
      <trkpt lat="46.84417" lon="8.43123">
        <ele>1897</ele>
        <time>2021-08-13T08:07:46.168Z</time>
      </trkpt>
      <trkpt lat="46.84416" lon="8.43122">
        <ele>1896</ele>
        <time>2021-08-13T08:07:47.168Z</time>
      </trkpt>
      <trkpt lat="46.84415" lon="8.43121">
        <ele>1895</ele>
        <time>2021-08-13T08:07:48.168Z</time>
      </trkpt>
      <trkpt lat="46.84414" lon="8.4312">
        <ele>1895</ele>
        <time>2021-08-13T08:07:49.167Z</time>
      </trkpt>
      <trkpt lat="46.84414" lon="8.43119">
        <ele>1895</ele>
        <time>2021-08-13T08:07:50.168Z</time>
      </trkpt>
      <trkpt lat="46.84413" lon="8.43118">
        <ele>1895</ele>
        <time>2021-08-13T08:07:51.168Z</time>
      </trkpt>
      <trkpt lat="46.84413" lon="8.43117">
        <ele>1895</ele>
        <time>2021-08-13T08:07:52.168Z</time>
      </trkpt>
      <trkpt lat="46.84413" lon="8.43116">
        <ele>1894</ele>
        <time>2021-08-13T08:07:53.167Z</time>
      </trkpt>
      <trkpt lat="46.84413" lon="8.43115">
        <ele>1894</ele>
        <time>2021-08-13T08:07:54.168Z</time>
      </trkpt>
      <trkpt lat="46.84413" lon="8.43113">
        <ele>1894</ele>
        <time>2021-08-13T08:07:55.168Z</time>
      </trkpt>
      <trkpt lat="46.84413" lon="8.43112">
        <ele>1893</ele>
        <time>2021-08-13T08:07:56.168Z</time>
      </trkpt>
      <trkpt lat="46.84412" lon="8.43111">
        <ele>1893</ele>
        <time>2021-08-13T08:07:57.168Z</time>
      </trkpt>
      <trkpt lat="46.84412" lon="8.4311">
        <ele>1893</ele>
        <time>2021-08-13T08:07:58.168Z</time>
      </trkpt>
      <trkpt lat="46.84411" lon="8.43109">
        <ele>1893</ele>
        <time>2021-08-13T08:07:59.168Z</time>
      </trkpt>
      <trkpt lat="46.84411" lon="8.43108">
        <ele>1893</ele>
        <time>2021-08-13T08:08:00.168Z</time>
      </trkpt>
      <trkpt lat="46.8441" lon="8.43107">
        <ele>1894</ele>
        <time>2021-08-13T08:08:01.168Z</time>
      </trkpt>
      <trkpt lat="46.84409" lon="8.43106">
        <ele>1894</ele>
        <time>2021-08-13T08:08:02.168Z</time>
      </trkpt>
      <trkpt lat="46.84409" lon="8.43105">
        <ele>1894</ele>
        <time>2021-08-13T08:08:03.168Z</time>
      </trkpt>
      <trkpt lat="46.84408" lon="8.43103">
        <ele>1894</ele>
        <time>2021-08-13T08:08:04.167Z</time>
      </trkpt>
      <trkpt lat="46.84407" lon="8.43102">
        <ele>1893</ele>
        <time>2021-08-13T08:08:05.168Z</time>
      </trkpt>
      <trkpt lat="46.84406" lon="8.43101">
        <ele>1894</ele>
        <time>2021-08-13T08:08:06.167Z</time>
      </trkpt>
      <trkpt lat="46.84405" lon="8.431">
        <ele>1894</ele>
        <time>2021-08-13T08:08:07.168Z</time>
      </trkpt>
      <trkpt lat="46.84405" lon="8.431">
        <ele>1894</ele>
        <time>2021-08-13T08:08:08.167Z</time>
      </trkpt>
      <trkpt lat="46.84404" lon="8.43099">
        <ele>1894</ele>
        <time>2021-08-13T08:08:09.167Z</time>
      </trkpt>
      <trkpt lat="46.84403" lon="8.43098">
        <ele>1894</ele>
        <time>2021-08-13T08:08:10.167Z</time>
      </trkpt>
      <trkpt lat="46.84403" lon="8.43097">
        <ele>1894</ele>
        <time>2021-08-13T08:08:11.168Z</time>
      </trkpt>
      <trkpt lat="46.84402" lon="8.43097">
        <ele>1894</ele>
        <time>2021-08-13T08:08:12.168Z</time>
      </trkpt>
      <trkpt lat="46.84402" lon="8.43097">
        <ele>1894</ele>
        <time>2021-08-13T08:08:13.168Z</time>
      </trkpt>
      <trkpt lat="46.84401" lon="8.43097">
        <ele>1894</ele>
        <time>2021-08-13T08:08:14.167Z</time>
      </trkpt>
      <trkpt lat="46.844" lon="8.43096">
        <ele>1894</ele>
        <time>2021-08-13T08:08:15.168Z</time>
      </trkpt>
      <trkpt lat="46.844" lon="8.43096">
        <ele>1895</ele>
        <time>2021-08-13T08:08:16.168Z</time>
      </trkpt>
      <trkpt lat="46.84399" lon="8.43095">
        <ele>1895</ele>
        <time>2021-08-13T08:08:17.167Z</time>
      </trkpt>
      <trkpt lat="46.84399" lon="8.43094">
        <ele>1896</ele>
        <time>2021-08-13T08:08:18.167Z</time>
      </trkpt>
      <trkpt lat="46.84399" lon="8.43093">
        <ele>1897</ele>
        <time>2021-08-13T08:08:19.167Z</time>
      </trkpt>
      <trkpt lat="46.84398" lon="8.43092">
        <ele>1898</ele>
        <time>2021-08-13T08:08:20.167Z</time>
      </trkpt>
      <trkpt lat="46.84398" lon="8.43091">
        <ele>1898</ele>
        <time>2021-08-13T08:08:21.167Z</time>
      </trkpt>
      <trkpt lat="46.84398" lon="8.43088">
        <ele>1898</ele>
        <time>2021-08-13T08:08:22.167Z</time>
      </trkpt>
      <trkpt lat="46.84399" lon="8.43086">
        <ele>1898</ele>
        <time>2021-08-13T08:08:23.168Z</time>
      </trkpt>
      <trkpt lat="46.84399" lon="8.43084">
        <ele>1897</ele>
        <time>2021-08-13T08:08:24.168Z</time>
      </trkpt>
      <trkpt lat="46.844" lon="8.43081">
        <ele>1897</ele>
        <time>2021-08-13T08:08:25.168Z</time>
      </trkpt>
      <trkpt lat="46.844" lon="8.4308">
        <ele>1897</ele>
        <time>2021-08-13T08:08:26.168Z</time>
      </trkpt>
      <trkpt lat="46.844" lon="8.43078">
        <ele>1898</ele>
        <time>2021-08-13T08:08:27.168Z</time>
      </trkpt>
      <trkpt lat="46.84401" lon="8.43077">
        <ele>1898</ele>
        <time>2021-08-13T08:08:28.167Z</time>
      </trkpt>
      <trkpt lat="46.84401" lon="8.43076">
        <ele>1898</ele>
        <time>2021-08-13T08:08:29.168Z</time>
      </trkpt>
      <trkpt lat="46.84401" lon="8.43075">
        <ele>1898</ele>
        <time>2021-08-13T08:08:30.167Z</time>
      </trkpt>
      <trkpt lat="46.84401" lon="8.43074">
        <ele>1898</ele>
        <time>2021-08-13T08:08:31.168Z</time>
      </trkpt>
      <trkpt lat="46.84401" lon="8.43072">
        <ele>1898</ele>
        <time>2021-08-13T08:08:32.168Z</time>
      </trkpt>
      <trkpt lat="46.84401" lon="8.43071">
        <ele>1898</ele>
        <time>2021-08-13T08:08:33.167Z</time>
      </trkpt>
      <trkpt lat="46.84401" lon="8.43069">
        <ele>1898</ele>
        <time>2021-08-13T08:08:34.168Z</time>
      </trkpt>
      <trkpt lat="46.844" lon="8.43068">
        <ele>1898</ele>
        <time>2021-08-13T08:08:35.167Z</time>
      </trkpt>
      <trkpt lat="46.84399" lon="8.43066">
        <ele>1898</ele>
        <time>2021-08-13T08:08:36.168Z</time>
      </trkpt>
      <trkpt lat="46.84399" lon="8.43064">
        <ele>1898</ele>
        <time>2021-08-13T08:08:37.168Z</time>
      </trkpt>
      <trkpt lat="46.84398" lon="8.43063">
        <ele>1898</ele>
        <time>2021-08-13T08:08:38.168Z</time>
      </trkpt>
      <trkpt lat="46.84397" lon="8.43062">
        <ele>1898</ele>
        <time>2021-08-13T08:08:39.168Z</time>
      </trkpt>
      <trkpt lat="46.84397" lon="8.4306">
        <ele>1898</ele>
        <time>2021-08-13T08:08:40.167Z</time>
      </trkpt>
      <trkpt lat="46.84396" lon="8.43059">
        <ele>1897</ele>
        <time>2021-08-13T08:08:41.168Z</time>
      </trkpt>
      <trkpt lat="46.84396" lon="8.43057">
        <ele>1897</ele>
        <time>2021-08-13T08:08:42.167Z</time>
      </trkpt>
      <trkpt lat="46.84395" lon="8.43055">
        <ele>1897</ele>
        <time>2021-08-13T08:08:43.168Z</time>
      </trkpt>
      <trkpt lat="46.84395" lon="8.43054">
        <ele>1897</ele>
        <time>2021-08-13T08:08:44.167Z</time>
      </trkpt>
      <trkpt lat="46.84394" lon="8.43053">
        <ele>1897</ele>
        <time>2021-08-13T08:08:45.167Z</time>
      </trkpt>
      <trkpt lat="46.84394" lon="8.43052">
        <ele>1897</ele>
        <time>2021-08-13T08:08:46.167Z</time>
      </trkpt>
      <trkpt lat="46.84393" lon="8.43051">
        <ele>1897</ele>
        <time>2021-08-13T08:08:47.167Z</time>
      </trkpt>
      <trkpt lat="46.84393" lon="8.43051">
        <ele>1897</ele>
        <time>2021-08-13T08:08:48.167Z</time>
      </trkpt>
      <trkpt lat="46.84392" lon="8.4305">
        <ele>1897</ele>
        <time>2021-08-13T08:08:49.168Z</time>
      </trkpt>
      <trkpt lat="46.84392" lon="8.4305">
        <ele>1897</ele>
        <time>2021-08-13T08:08:50.167Z</time>
      </trkpt>
      <trkpt lat="46.84392" lon="8.4305">
        <ele>1897</ele>
        <time>2021-08-13T08:08:51.167Z</time>
      </trkpt>
      <trkpt lat="46.84392" lon="8.43051">
        <ele>1897</ele>
        <time>2021-08-13T08:08:52.167Z</time>
      </trkpt>
      <trkpt lat="46.84391" lon="8.4305">
        <ele>1897</ele>
        <time>2021-08-13T08:08:53.168Z</time>
      </trkpt>
      <trkpt lat="46.8439" lon="8.43049">
        <ele>1897</ele>
        <time>2021-08-13T08:08:54.168Z</time>
      </trkpt>
      <trkpt lat="46.8439" lon="8.43048">
        <ele>1898</ele>
        <time>2021-08-13T08:08:55.168Z</time>
      </trkpt>
      <trkpt lat="46.84388" lon="8.43047">
        <ele>1898</ele>
        <time>2021-08-13T08:08:56.167Z</time>
      </trkpt>
      <trkpt lat="46.84387" lon="8.43046">
        <ele>1898</ele>
        <time>2021-08-13T08:08:57.168Z</time>
      </trkpt>
      <trkpt lat="46.84387" lon="8.43045">
        <ele>1898</ele>
        <time>2021-08-13T08:08:58.168Z</time>
      </trkpt>
      <trkpt lat="46.84387" lon="8.43045">
        <ele>1898</ele>
        <time>2021-08-13T08:08:59.167Z</time>
      </trkpt>
      <trkpt lat="46.84387" lon="8.43045">
        <ele>1898</ele>
        <time>2021-08-13T08:09:00.168Z</time>
      </trkpt>
      <trkpt lat="46.84387" lon="8.43044">
        <ele>1899</ele>
        <time>2021-08-13T08:09:01.167Z</time>
      </trkpt>
      <trkpt lat="46.84387" lon="8.43044">
        <ele>1898</ele>
        <time>2021-08-13T08:09:02.168Z</time>
      </trkpt>
      <trkpt lat="46.84387" lon="8.43043">
        <ele>1898</ele>
        <time>2021-08-13T08:09:03.168Z</time>
      </trkpt>
      <trkpt lat="46.84387" lon="8.43042">
        <ele>1898</ele>
        <time>2021-08-13T08:09:04.168Z</time>
      </trkpt>
      <trkpt lat="46.84386" lon="8.43042">
        <ele>1897</ele>
        <time>2021-08-13T08:09:05.168Z</time>
      </trkpt>
      <trkpt lat="46.84386" lon="8.43042">
        <ele>1896</ele>
        <time>2021-08-13T08:09:06.168Z</time>
      </trkpt>
      <trkpt lat="46.84386" lon="8.43042">
        <ele>1896</ele>
        <time>2021-08-13T08:09:07.167Z</time>
      </trkpt>
      <trkpt lat="46.84386" lon="8.43042">
        <ele>1896</ele>
        <time>2021-08-13T08:09:08.167Z</time>
      </trkpt>
      <trkpt lat="46.84386" lon="8.43041">
        <ele>1896</ele>
        <time>2021-08-13T08:09:09.170Z</time>
      </trkpt>
      <trkpt lat="46.84385" lon="8.4304">
        <ele>1896</ele>
        <time>2021-08-13T08:09:10.170Z</time>
      </trkpt>
      <trkpt lat="46.84385" lon="8.43039">
        <ele>1896</ele>
        <time>2021-08-13T08:09:11.170Z</time>
      </trkpt>
      <trkpt lat="46.84385" lon="8.43038">
        <ele>1896</ele>
        <time>2021-08-13T08:09:12.169Z</time>
      </trkpt>
      <trkpt lat="46.84385" lon="8.43037">
        <ele>1895</ele>
        <time>2021-08-13T08:09:13.169Z</time>
      </trkpt>
      <trkpt lat="46.84384" lon="8.43035">
        <ele>1895</ele>
        <time>2021-08-13T08:09:14.170Z</time>
      </trkpt>
      <trkpt lat="46.84383" lon="8.43033">
        <ele>1895</ele>
        <time>2021-08-13T08:09:15.170Z</time>
      </trkpt>
      <trkpt lat="46.84382" lon="8.43031">
        <ele>1894</ele>
        <time>2021-08-13T08:09:16.170Z</time>
      </trkpt>
      <trkpt lat="46.84381" lon="8.43029">
        <ele>1894</ele>
        <time>2021-08-13T08:09:17.170Z</time>
      </trkpt>
      <trkpt lat="46.8438" lon="8.43027">
        <ele>1894</ele>
        <time>2021-08-13T08:09:18.170Z</time>
      </trkpt>
      <trkpt lat="46.84379" lon="8.43025">
        <ele>1894</ele>
        <time>2021-08-13T08:09:19.170Z</time>
      </trkpt>
      <trkpt lat="46.84379" lon="8.43024">
        <ele>1895</ele>
        <time>2021-08-13T08:09:20.169Z</time>
      </trkpt>
      <trkpt lat="46.84378" lon="8.43023">
        <ele>1895</ele>
        <time>2021-08-13T08:09:21.170Z</time>
      </trkpt>
      <trkpt lat="46.84378" lon="8.43021">
        <ele>1895</ele>
        <time>2021-08-13T08:09:22.170Z</time>
      </trkpt>
      <trkpt lat="46.84378" lon="8.4302">
        <ele>1895</ele>
        <time>2021-08-13T08:09:23.170Z</time>
      </trkpt>
      <trkpt lat="46.84378" lon="8.43018">
        <ele>1895</ele>
        <time>2021-08-13T08:09:24.170Z</time>
      </trkpt>
      <trkpt lat="46.84377" lon="8.43016">
        <ele>1895</ele>
        <time>2021-08-13T08:09:25.170Z</time>
      </trkpt>
      <trkpt lat="46.84376" lon="8.43014">
        <ele>1895</ele>
        <time>2021-08-13T08:09:26.169Z</time>
      </trkpt>
      <trkpt lat="46.84375" lon="8.43012">
        <ele>1895</ele>
        <time>2021-08-13T08:09:27.170Z</time>
      </trkpt>
      <trkpt lat="46.84374" lon="8.43009">
        <ele>1895</ele>
        <time>2021-08-13T08:09:28.170Z</time>
      </trkpt>
      <trkpt lat="46.84373" lon="8.43007">
        <ele>1895</ele>
        <time>2021-08-13T08:09:29.170Z</time>
      </trkpt>
      <trkpt lat="46.84373" lon="8.43006">
        <ele>1894</ele>
        <time>2021-08-13T08:09:30.170Z</time>
      </trkpt>
      <trkpt lat="46.84373" lon="8.43004">
        <ele>1894</ele>
        <time>2021-08-13T08:09:31.170Z</time>
      </trkpt>
      <trkpt lat="46.84373" lon="8.43002">
        <ele>1893</ele>
        <time>2021-08-13T08:09:32.169Z</time>
      </trkpt>
      <trkpt lat="46.84372" lon="8.43">
        <ele>1892</ele>
        <time>2021-08-13T08:09:33.170Z</time>
      </trkpt>
      <trkpt lat="46.84372" lon="8.42999">
        <ele>1892</ele>
        <time>2021-08-13T08:09:34.170Z</time>
      </trkpt>
      <trkpt lat="46.84371" lon="8.42997">
        <ele>1891</ele>
        <time>2021-08-13T08:09:35.169Z</time>
      </trkpt>
      <trkpt lat="46.8437" lon="8.42996">
        <ele>1890</ele>
        <time>2021-08-13T08:09:36.170Z</time>
      </trkpt>
      <trkpt lat="46.84369" lon="8.42994">
        <ele>1890</ele>
        <time>2021-08-13T08:09:37.170Z</time>
      </trkpt>
      <trkpt lat="46.84368" lon="8.42993">
        <ele>1889</ele>
        <time>2021-08-13T08:09:38.170Z</time>
      </trkpt>
      <trkpt lat="46.84368" lon="8.42991">
        <ele>1889</ele>
        <time>2021-08-13T08:09:39.170Z</time>
      </trkpt>
      <trkpt lat="46.84367" lon="8.4299">
        <ele>1889</ele>
        <time>2021-08-13T08:09:40.170Z</time>
      </trkpt>
      <trkpt lat="46.84366" lon="8.42989">
        <ele>1889</ele>
        <time>2021-08-13T08:09:41.170Z</time>
      </trkpt>
      <trkpt lat="46.84365" lon="8.42987">
        <ele>1888</ele>
        <time>2021-08-13T08:09:42.170Z</time>
      </trkpt>
      <trkpt lat="46.84365" lon="8.42986">
        <ele>1888</ele>
        <time>2021-08-13T08:09:43.170Z</time>
      </trkpt>
      <trkpt lat="46.84364" lon="8.42985">
        <ele>1887</ele>
        <time>2021-08-13T08:09:44.170Z</time>
      </trkpt>
      <trkpt lat="46.84363" lon="8.42984">
        <ele>1886</ele>
        <time>2021-08-13T08:09:45.170Z</time>
      </trkpt>
      <trkpt lat="46.84362" lon="8.42984">
        <ele>1886</ele>
        <time>2021-08-13T08:09:46.170Z</time>
      </trkpt>
      <trkpt lat="46.84362" lon="8.42983">
        <ele>1886</ele>
        <time>2021-08-13T08:09:47.169Z</time>
      </trkpt>
      <trkpt lat="46.84361" lon="8.42982">
        <ele>1885</ele>
        <time>2021-08-13T08:09:48.170Z</time>
      </trkpt>
      <trkpt lat="46.8436" lon="8.42982">
        <ele>1885</ele>
        <time>2021-08-13T08:09:49.170Z</time>
      </trkpt>
      <trkpt lat="46.84359" lon="8.42981">
        <ele>1885</ele>
        <time>2021-08-13T08:09:50.170Z</time>
      </trkpt>
      <trkpt lat="46.84358" lon="8.4298">
        <ele>1885</ele>
        <time>2021-08-13T08:09:51.169Z</time>
      </trkpt>
      <trkpt lat="46.84357" lon="8.42981">
        <ele>1885</ele>
        <time>2021-08-13T08:09:52.169Z</time>
      </trkpt>
      <trkpt lat="46.84356" lon="8.4298">
        <ele>1885</ele>
        <time>2021-08-13T08:09:53.169Z</time>
      </trkpt>
      <trkpt lat="46.84355" lon="8.4298">
        <ele>1885</ele>
        <time>2021-08-13T08:09:54.169Z</time>
      </trkpt>
      <trkpt lat="46.84354" lon="8.42979">
        <ele>1885</ele>
        <time>2021-08-13T08:09:55.169Z</time>
      </trkpt>
      <trkpt lat="46.84354" lon="8.42978">
        <ele>1885</ele>
        <time>2021-08-13T08:09:56.169Z</time>
      </trkpt>
      <trkpt lat="46.84353" lon="8.42976">
        <ele>1884</ele>
        <time>2021-08-13T08:09:57.169Z</time>
      </trkpt>
      <trkpt lat="46.84352" lon="8.42975">
        <ele>1884</ele>
        <time>2021-08-13T08:09:58.170Z</time>
      </trkpt>
      <trkpt lat="46.84352" lon="8.42974">
        <ele>1884</ele>
        <time>2021-08-13T08:09:59.169Z</time>
      </trkpt>
      <trkpt lat="46.84351" lon="8.42973">
        <ele>1884</ele>
        <time>2021-08-13T08:10:00.169Z</time>
      </trkpt>
      <trkpt lat="46.8435" lon="8.42972">
        <ele>1884</ele>
        <time>2021-08-13T08:10:01.169Z</time>
      </trkpt>
      <trkpt lat="46.84348" lon="8.42971">
        <ele>1884</ele>
        <time>2021-08-13T08:10:02.169Z</time>
      </trkpt>
      <trkpt lat="46.84347" lon="8.42969">
        <ele>1883</ele>
        <time>2021-08-13T08:10:03.169Z</time>
      </trkpt>
      <trkpt lat="46.84346" lon="8.42968">
        <ele>1883</ele>
        <time>2021-08-13T08:10:04.169Z</time>
      </trkpt>
      <trkpt lat="46.84345" lon="8.42967">
        <ele>1883</ele>
        <time>2021-08-13T08:10:05.170Z</time>
      </trkpt>
      <trkpt lat="46.84344" lon="8.42967">
        <ele>1882</ele>
        <time>2021-08-13T08:10:06.169Z</time>
      </trkpt>
      <trkpt lat="46.84343" lon="8.42966">
        <ele>1882</ele>
        <time>2021-08-13T08:10:07.169Z</time>
      </trkpt>
      <trkpt lat="46.84341" lon="8.42965">
        <ele>1882</ele>
        <time>2021-08-13T08:10:08.170Z</time>
      </trkpt>
      <trkpt lat="46.8434" lon="8.42964">
        <ele>1882</ele>
        <time>2021-08-13T08:10:09.169Z</time>
      </trkpt>
      <trkpt lat="46.84338" lon="8.42963">
        <ele>1882</ele>
        <time>2021-08-13T08:10:10.169Z</time>
      </trkpt>
      <trkpt lat="46.84337" lon="8.42962">
        <ele>1882</ele>
        <time>2021-08-13T08:10:11.169Z</time>
      </trkpt>
      <trkpt lat="46.84336" lon="8.42962">
        <ele>1882</ele>
        <time>2021-08-13T08:10:12.169Z</time>
      </trkpt>
      <trkpt lat="46.84335" lon="8.42961">
        <ele>1882</ele>
        <time>2021-08-13T08:10:13.170Z</time>
      </trkpt>
      <trkpt lat="46.84333" lon="8.4296">
        <ele>1882</ele>
        <time>2021-08-13T08:10:14.169Z</time>
      </trkpt>
      <trkpt lat="46.84332" lon="8.42959">
        <ele>1882</ele>
        <time>2021-08-13T08:10:15.169Z</time>
      </trkpt>
      <trkpt lat="46.84331" lon="8.42958">
        <ele>1881</ele>
        <time>2021-08-13T08:10:16.169Z</time>
      </trkpt>
      <trkpt lat="46.84329" lon="8.42957">
        <ele>1881</ele>
        <time>2021-08-13T08:10:17.170Z</time>
      </trkpt>
      <trkpt lat="46.84328" lon="8.42956">
        <ele>1881</ele>
        <time>2021-08-13T08:10:18.169Z</time>
      </trkpt>
      <trkpt lat="46.84327" lon="8.42955">
        <ele>1880</ele>
        <time>2021-08-13T08:10:19.169Z</time>
      </trkpt>
      <trkpt lat="46.84325" lon="8.42955">
        <ele>1880</ele>
        <time>2021-08-13T08:10:20.169Z</time>
      </trkpt>
      <trkpt lat="46.84324" lon="8.42955">
        <ele>1880</ele>
        <time>2021-08-13T08:10:21.169Z</time>
      </trkpt>
      <trkpt lat="46.84323" lon="8.42954">
        <ele>1880</ele>
        <time>2021-08-13T08:10:22.169Z</time>
      </trkpt>
      <trkpt lat="46.84322" lon="8.42953">
        <ele>1881</ele>
        <time>2021-08-13T08:10:23.169Z</time>
      </trkpt>
      <trkpt lat="46.84322" lon="8.42953">
        <ele>1881</ele>
        <time>2021-08-13T08:10:24.169Z</time>
      </trkpt>
      <trkpt lat="46.84321" lon="8.42953">
        <ele>1881</ele>
        <time>2021-08-13T08:10:25.169Z</time>
      </trkpt>
      <trkpt lat="46.8432" lon="8.42952">
        <ele>1882</ele>
        <time>2021-08-13T08:10:26.169Z</time>
      </trkpt>
      <trkpt lat="46.84319" lon="8.42951">
        <ele>1882</ele>
        <time>2021-08-13T08:10:27.170Z</time>
      </trkpt>
      <trkpt lat="46.84319" lon="8.4295">
        <ele>1882</ele>
        <time>2021-08-13T08:10:28.169Z</time>
      </trkpt>
      <trkpt lat="46.84318" lon="8.4295">
        <ele>1882</ele>
        <time>2021-08-13T08:10:29.169Z</time>
      </trkpt>
      <trkpt lat="46.84318" lon="8.42948">
        <ele>1882</ele>
        <time>2021-08-13T08:10:30.169Z</time>
      </trkpt>
      <trkpt lat="46.84318" lon="8.42947">
        <ele>1883</ele>
        <time>2021-08-13T08:10:31.170Z</time>
      </trkpt>
      <trkpt lat="46.84317" lon="8.42946">
        <ele>1883</ele>
        <time>2021-08-13T08:10:32.169Z</time>
      </trkpt>
      <trkpt lat="46.84317" lon="8.42945">
        <ele>1883</ele>
        <time>2021-08-13T08:10:33.169Z</time>
      </trkpt>
      <trkpt lat="46.84317" lon="8.42944">
        <ele>1883</ele>
        <time>2021-08-13T08:10:34.170Z</time>
      </trkpt>
      <trkpt lat="46.84317" lon="8.42943">
        <ele>1884</ele>
        <time>2021-08-13T08:10:35.170Z</time>
      </trkpt>
      <trkpt lat="46.84317" lon="8.42942">
        <ele>1884</ele>
        <time>2021-08-13T08:10:36.169Z</time>
      </trkpt>
      <trkpt lat="46.84317" lon="8.42941">
        <ele>1885</ele>
        <time>2021-08-13T08:10:37.170Z</time>
      </trkpt>
      <trkpt lat="46.84318" lon="8.42939">
        <ele>1885</ele>
        <time>2021-08-13T08:10:38.170Z</time>
      </trkpt>
      <trkpt lat="46.84318" lon="8.42938">
        <ele>1885</ele>
        <time>2021-08-13T08:10:39.170Z</time>
      </trkpt>
      <trkpt lat="46.84318" lon="8.42936">
        <ele>1885</ele>
        <time>2021-08-13T08:10:40.170Z</time>
      </trkpt>
      <trkpt lat="46.84319" lon="8.42934">
        <ele>1885</ele>
        <time>2021-08-13T08:10:41.169Z</time>
      </trkpt>
      <trkpt lat="46.84319" lon="8.42933">
        <ele>1885</ele>
        <time>2021-08-13T08:10:42.170Z</time>
      </trkpt>
      <trkpt lat="46.8432" lon="8.42931">
        <ele>1885</ele>
        <time>2021-08-13T08:10:43.170Z</time>
      </trkpt>
      <trkpt lat="46.8432" lon="8.4293">
        <ele>1885</ele>
        <time>2021-08-13T08:10:44.169Z</time>
      </trkpt>
      <trkpt lat="46.8432" lon="8.42928">
        <ele>1885</ele>
        <time>2021-08-13T08:10:45.170Z</time>
      </trkpt>
      <trkpt lat="46.84321" lon="8.42927">
        <ele>1885</ele>
        <time>2021-08-13T08:10:46.170Z</time>
      </trkpt>
      <trkpt lat="46.84321" lon="8.42926">
        <ele>1885</ele>
        <time>2021-08-13T08:10:47.170Z</time>
      </trkpt>
      <trkpt lat="46.84322" lon="8.42926">
        <ele>1885</ele>
        <time>2021-08-13T08:10:48.169Z</time>
      </trkpt>
      <trkpt lat="46.84322" lon="8.42925">
        <ele>1884</ele>
        <time>2021-08-13T08:10:49.170Z</time>
      </trkpt>
      <trkpt lat="46.84322" lon="8.42924">
        <ele>1884</ele>
        <time>2021-08-13T08:10:50.169Z</time>
      </trkpt>
      <trkpt lat="46.84323" lon="8.42923">
        <ele>1883</ele>
        <time>2021-08-13T08:10:51.170Z</time>
      </trkpt>
      <trkpt lat="46.84323" lon="8.42923">
        <ele>1883</ele>
        <time>2021-08-13T08:10:52.170Z</time>
      </trkpt>
      <trkpt lat="46.84324" lon="8.42922">
        <ele>1882</ele>
        <time>2021-08-13T08:10:53.170Z</time>
      </trkpt>
      <trkpt lat="46.84325" lon="8.42922">
        <ele>1882</ele>
        <time>2021-08-13T08:10:54.169Z</time>
      </trkpt>
      <trkpt lat="46.84326" lon="8.42921">
        <ele>1882</ele>
        <time>2021-08-13T08:10:55.169Z</time>
      </trkpt>
      <trkpt lat="46.84326" lon="8.4292">
        <ele>1882</ele>
        <time>2021-08-13T08:10:56.170Z</time>
      </trkpt>
      <trkpt lat="46.84327" lon="8.42919">
        <ele>1881</ele>
        <time>2021-08-13T08:10:57.170Z</time>
      </trkpt>
      <trkpt lat="46.84327" lon="8.42917">
        <ele>1881</ele>
        <time>2021-08-13T08:10:58.170Z</time>
      </trkpt>
      <trkpt lat="46.84328" lon="8.42916">
        <ele>1881</ele>
        <time>2021-08-13T08:10:59.170Z</time>
      </trkpt>
      <trkpt lat="46.84328" lon="8.42914">
        <ele>1881</ele>
        <time>2021-08-13T08:11:00.170Z</time>
      </trkpt>
      <trkpt lat="46.84328" lon="8.42913">
        <ele>1881</ele>
        <time>2021-08-13T08:11:01.170Z</time>
      </trkpt>
      <trkpt lat="46.84328" lon="8.42912">
        <ele>1881</ele>
        <time>2021-08-13T08:11:02.169Z</time>
      </trkpt>
      <trkpt lat="46.84328" lon="8.4291">
        <ele>1880</ele>
        <time>2021-08-13T08:11:03.170Z</time>
      </trkpt>
      <trkpt lat="46.84328" lon="8.42908">
        <ele>1880</ele>
        <time>2021-08-13T08:11:04.169Z</time>
      </trkpt>
      <trkpt lat="46.84328" lon="8.42907">
        <ele>1880</ele>
        <time>2021-08-13T08:11:05.170Z</time>
      </trkpt>
      <trkpt lat="46.84327" lon="8.42906">
        <ele>1879</ele>
        <time>2021-08-13T08:11:06.169Z</time>
      </trkpt>
      <trkpt lat="46.84326" lon="8.42904">
        <ele>1879</ele>
        <time>2021-08-13T08:11:07.170Z</time>
      </trkpt>
      <trkpt lat="46.84326" lon="8.42903">
        <ele>1879</ele>
        <time>2021-08-13T08:11:08.169Z</time>
      </trkpt>
      <trkpt lat="46.84325" lon="8.42902">
        <ele>1879</ele>
        <time>2021-08-13T08:11:09.169Z</time>
      </trkpt>
      <trkpt lat="46.84324" lon="8.42901">
        <ele>1879</ele>
        <time>2021-08-13T08:11:10.169Z</time>
      </trkpt>
      <trkpt lat="46.84323" lon="8.429">
        <ele>1879</ele>
        <time>2021-08-13T08:11:11.169Z</time>
      </trkpt>
      <trkpt lat="46.84322" lon="8.42899">
        <ele>1879</ele>
        <time>2021-08-13T08:11:12.169Z</time>
      </trkpt>
      <trkpt lat="46.84322" lon="8.42899">
        <ele>1879</ele>
        <time>2021-08-13T08:11:13.169Z</time>
      </trkpt>
      <trkpt lat="46.84321" lon="8.42898">
        <ele>1879</ele>
        <time>2021-08-13T08:11:14.169Z</time>
      </trkpt>
      <trkpt lat="46.8432" lon="8.42897">
        <ele>1879</ele>
        <time>2021-08-13T08:11:15.169Z</time>
      </trkpt>
      <trkpt lat="46.8432" lon="8.42896">
        <ele>1880</ele>
        <time>2021-08-13T08:11:16.170Z</time>
      </trkpt>
      <trkpt lat="46.8432" lon="8.42894">
        <ele>1880</ele>
        <time>2021-08-13T08:11:17.169Z</time>
      </trkpt>
      <trkpt lat="46.8432" lon="8.42893">
        <ele>1880</ele>
        <time>2021-08-13T08:11:18.169Z</time>
      </trkpt>
      <trkpt lat="46.84319" lon="8.42891">
        <ele>1880</ele>
        <time>2021-08-13T08:11:19.169Z</time>
      </trkpt>
      <trkpt lat="46.84319" lon="8.4289">
        <ele>1880</ele>
        <time>2021-08-13T08:11:20.169Z</time>
      </trkpt>
      <trkpt lat="46.84319" lon="8.42889">
        <ele>1880</ele>
        <time>2021-08-13T08:11:21.169Z</time>
      </trkpt>
      <trkpt lat="46.84319" lon="8.42889">
        <ele>1880</ele>
        <time>2021-08-13T08:11:22.169Z</time>
      </trkpt>
      <trkpt lat="46.84318" lon="8.42887">
        <ele>1880</ele>
        <time>2021-08-13T08:11:23.169Z</time>
      </trkpt>
      <trkpt lat="46.84318" lon="8.42886">
        <ele>1880</ele>
        <time>2021-08-13T08:11:24.169Z</time>
      </trkpt>
      <trkpt lat="46.84317" lon="8.42885">
        <ele>1880</ele>
        <time>2021-08-13T08:11:25.170Z</time>
      </trkpt>
      <trkpt lat="46.84316" lon="8.42884">
        <ele>1880</ele>
        <time>2021-08-13T08:11:26.170Z</time>
      </trkpt>
      <trkpt lat="46.84315" lon="8.42882">
        <ele>1880</ele>
        <time>2021-08-13T08:11:27.170Z</time>
      </trkpt>
      <trkpt lat="46.84315" lon="8.42881">
        <ele>1880</ele>
        <time>2021-08-13T08:11:28.170Z</time>
      </trkpt>
      <trkpt lat="46.84314" lon="8.42879">
        <ele>1880</ele>
        <time>2021-08-13T08:11:29.169Z</time>
      </trkpt>
      <trkpt lat="46.84314" lon="8.42878">
        <ele>1880</ele>
        <time>2021-08-13T08:11:30.170Z</time>
      </trkpt>
      <trkpt lat="46.84314" lon="8.42877">
        <ele>1881</ele>
        <time>2021-08-13T08:11:31.169Z</time>
      </trkpt>
      <trkpt lat="46.84315" lon="8.42876">
        <ele>1881</ele>
        <time>2021-08-13T08:11:32.169Z</time>
      </trkpt>
      <trkpt lat="46.84315" lon="8.42875">
        <ele>1881</ele>
        <time>2021-08-13T08:11:33.170Z</time>
      </trkpt>
      <trkpt lat="46.84316" lon="8.42875">
        <ele>1881</ele>
        <time>2021-08-13T08:11:34.169Z</time>
      </trkpt>
      <trkpt lat="46.84316" lon="8.42874">
        <ele>1881</ele>
        <time>2021-08-13T08:11:35.170Z</time>
      </trkpt>
      <trkpt lat="46.84316" lon="8.42873">
        <ele>1881</ele>
        <time>2021-08-13T08:11:36.170Z</time>
      </trkpt>
      <trkpt lat="46.84316" lon="8.42872">
        <ele>1882</ele>
        <time>2021-08-13T08:11:37.170Z</time>
      </trkpt>
      <trkpt lat="46.84316" lon="8.42871">
        <ele>1882</ele>
        <time>2021-08-13T08:11:38.170Z</time>
      </trkpt>
      <trkpt lat="46.84316" lon="8.4287">
        <ele>1882</ele>
        <time>2021-08-13T08:11:39.170Z</time>
      </trkpt>
      <trkpt lat="46.84316" lon="8.4287">
        <ele>1882</ele>
        <time>2021-08-13T08:11:40.170Z</time>
      </trkpt>
      <trkpt lat="46.84317" lon="8.4287">
        <ele>1882</ele>
        <time>2021-08-13T08:11:41.169Z</time>
      </trkpt>
      <trkpt lat="46.84316" lon="8.4287">
        <ele>1882</ele>
        <time>2021-08-13T08:11:42.169Z</time>
      </trkpt>
      <trkpt lat="46.84316" lon="8.4287">
        <ele>1883</ele>
        <time>2021-08-13T08:11:43.169Z</time>
      </trkpt>
      <trkpt lat="46.84317" lon="8.4287">
        <ele>1883</ele>
        <time>2021-08-13T08:11:44.169Z</time>
      </trkpt>
      <trkpt lat="46.84318" lon="8.42869">
        <ele>1883</ele>
        <time>2021-08-13T08:11:45.171Z</time>
      </trkpt>
      <trkpt lat="46.84318" lon="8.42868">
        <ele>1882</ele>
        <time>2021-08-13T08:11:46.170Z</time>
      </trkpt>
      <trkpt lat="46.84318" lon="8.42868">
        <ele>1881</ele>
        <time>2021-08-13T08:11:47.170Z</time>
      </trkpt>
      <trkpt lat="46.84318" lon="8.42868">
        <ele>1881</ele>
        <time>2021-08-13T08:11:48.171Z</time>
      </trkpt>
      <trkpt lat="46.84319" lon="8.42867">
        <ele>1880</ele>
        <time>2021-08-13T08:11:49.171Z</time>
      </trkpt>
      <trkpt lat="46.84319" lon="8.42866">
        <ele>1880</ele>
        <time>2021-08-13T08:11:50.171Z</time>
      </trkpt>
      <trkpt lat="46.84319" lon="8.42866">
        <ele>1879</ele>
        <time>2021-08-13T08:11:51.171Z</time>
      </trkpt>
      <trkpt lat="46.84319" lon="8.42865">
        <ele>1879</ele>
        <time>2021-08-13T08:11:52.171Z</time>
      </trkpt>
      <trkpt lat="46.8432" lon="8.42865">
        <ele>1878</ele>
        <time>2021-08-13T08:11:53.171Z</time>
      </trkpt>
      <trkpt lat="46.8432" lon="8.42864">
        <ele>1878</ele>
        <time>2021-08-13T08:11:54.170Z</time>
      </trkpt>
      <trkpt lat="46.8432" lon="8.42864">
        <ele>1877</ele>
        <time>2021-08-13T08:11:55.170Z</time>
      </trkpt>
      <trkpt lat="46.8432" lon="8.42863">
        <ele>1877</ele>
        <time>2021-08-13T08:11:56.170Z</time>
      </trkpt>
      <trkpt lat="46.8432" lon="8.42862">
        <ele>1877</ele>
        <time>2021-08-13T08:11:57.170Z</time>
      </trkpt>
      <trkpt lat="46.8432" lon="8.42862">
        <ele>1877</ele>
        <time>2021-08-13T08:11:58.171Z</time>
      </trkpt>
      <trkpt lat="46.8432" lon="8.42861">
        <ele>1877</ele>
        <time>2021-08-13T08:11:59.171Z</time>
      </trkpt>
      <trkpt lat="46.8432" lon="8.4286">
        <ele>1877</ele>
        <time>2021-08-13T08:12:00.171Z</time>
      </trkpt>
      <trkpt lat="46.84319" lon="8.42858">
        <ele>1877</ele>
        <time>2021-08-13T08:12:01.171Z</time>
      </trkpt>
      <trkpt lat="46.84319" lon="8.42857">
        <ele>1877</ele>
        <time>2021-08-13T08:12:02.171Z</time>
      </trkpt>
      <trkpt lat="46.84319" lon="8.42855">
        <ele>1877</ele>
        <time>2021-08-13T08:12:03.171Z</time>
      </trkpt>
      <trkpt lat="46.84319" lon="8.42854">
        <ele>1876</ele>
        <time>2021-08-13T08:12:04.171Z</time>
      </trkpt>
      <trkpt lat="46.84319" lon="8.42852">
        <ele>1876</ele>
        <time>2021-08-13T08:12:05.171Z</time>
      </trkpt>
      <trkpt lat="46.84319" lon="8.4285">
        <ele>1876</ele>
        <time>2021-08-13T08:12:06.171Z</time>
      </trkpt>
      <trkpt lat="46.84319" lon="8.42849">
        <ele>1876</ele>
        <time>2021-08-13T08:12:07.171Z</time>
      </trkpt>
      <trkpt lat="46.84319" lon="8.42847">
        <ele>1875</ele>
        <time>2021-08-13T08:12:08.170Z</time>
      </trkpt>
      <trkpt lat="46.8432" lon="8.42846">
        <ele>1875</ele>
        <time>2021-08-13T08:12:09.171Z</time>
      </trkpt>
      <trkpt lat="46.8432" lon="8.42845">
        <ele>1876</ele>
        <time>2021-08-13T08:12:10.170Z</time>
      </trkpt>
      <trkpt lat="46.84319" lon="8.42844">
        <ele>1876</ele>
        <time>2021-08-13T08:12:11.170Z</time>
      </trkpt>
      <trkpt lat="46.8432" lon="8.42843">
        <ele>1877</ele>
        <time>2021-08-13T08:12:12.171Z</time>
      </trkpt>
      <trkpt lat="46.8432" lon="8.42842">
        <ele>1877</ele>
        <time>2021-08-13T08:12:13.170Z</time>
      </trkpt>
      <trkpt lat="46.8432" lon="8.42841">
        <ele>1876</ele>
        <time>2021-08-13T08:12:14.171Z</time>
      </trkpt>
      <trkpt lat="46.8432" lon="8.4284">
        <ele>1876</ele>
        <time>2021-08-13T08:12:15.170Z</time>
      </trkpt>
      <trkpt lat="46.8432" lon="8.42838">
        <ele>1876</ele>
        <time>2021-08-13T08:12:16.171Z</time>
      </trkpt>
      <trkpt lat="46.8432" lon="8.42837">
        <ele>1876</ele>
        <time>2021-08-13T08:12:17.170Z</time>
      </trkpt>
      <trkpt lat="46.84319" lon="8.42836">
        <ele>1875</ele>
        <time>2021-08-13T08:12:18.171Z</time>
      </trkpt>
      <trkpt lat="46.84319" lon="8.42835">
        <ele>1875</ele>
        <time>2021-08-13T08:12:19.170Z</time>
      </trkpt>
      <trkpt lat="46.84319" lon="8.42833">
        <ele>1875</ele>
        <time>2021-08-13T08:12:20.171Z</time>
      </trkpt>
      <trkpt lat="46.84318" lon="8.42832">
        <ele>1875</ele>
        <time>2021-08-13T08:12:21.171Z</time>
      </trkpt>
      <trkpt lat="46.84318" lon="8.4283">
        <ele>1875</ele>
        <time>2021-08-13T08:12:22.170Z</time>
      </trkpt>
      <trkpt lat="46.84318" lon="8.42829">
        <ele>1875</ele>
        <time>2021-08-13T08:12:23.171Z</time>
      </trkpt>
      <trkpt lat="46.84317" lon="8.42828">
        <ele>1875</ele>
        <time>2021-08-13T08:12:24.170Z</time>
      </trkpt>
      <trkpt lat="46.84317" lon="8.42825">
        <ele>1874</ele>
        <time>2021-08-13T08:12:25.170Z</time>
      </trkpt>
      <trkpt lat="46.84317" lon="8.42824">
        <ele>1874</ele>
        <time>2021-08-13T08:12:26.171Z</time>
      </trkpt>
      <trkpt lat="46.84317" lon="8.42823">
        <ele>1874</ele>
        <time>2021-08-13T08:12:27.170Z</time>
      </trkpt>
      <trkpt lat="46.84317" lon="8.42822">
        <ele>1874</ele>
        <time>2021-08-13T08:12:28.171Z</time>
      </trkpt>
      <trkpt lat="46.84317" lon="8.4282">
        <ele>1874</ele>
        <time>2021-08-13T08:12:29.171Z</time>
      </trkpt>
      <trkpt lat="46.84316" lon="8.42819">
        <ele>1874</ele>
        <time>2021-08-13T08:12:30.170Z</time>
      </trkpt>
      <trkpt lat="46.84316" lon="8.42817">
        <ele>1874</ele>
        <time>2021-08-13T08:12:31.170Z</time>
      </trkpt>
      <trkpt lat="46.84316" lon="8.42815">
        <ele>1874</ele>
        <time>2021-08-13T08:12:32.171Z</time>
      </trkpt>
      <trkpt lat="46.84315" lon="8.42814">
        <ele>1873</ele>
        <time>2021-08-13T08:12:33.170Z</time>
      </trkpt>
      <trkpt lat="46.84315" lon="8.42813">
        <ele>1873</ele>
        <time>2021-08-13T08:12:34.170Z</time>
      </trkpt>
      <trkpt lat="46.84315" lon="8.42812">
        <ele>1872</ele>
        <time>2021-08-13T08:12:35.171Z</time>
      </trkpt>
      <trkpt lat="46.84314" lon="8.42812">
        <ele>1872</ele>
        <time>2021-08-13T08:12:36.170Z</time>
      </trkpt>
      <trkpt lat="46.84313" lon="8.42813">
        <ele>1871</ele>
        <time>2021-08-13T08:12:37.170Z</time>
      </trkpt>
      <trkpt lat="46.84313" lon="8.42814">
        <ele>1871</ele>
        <time>2021-08-13T08:12:38.170Z</time>
      </trkpt>
      <trkpt lat="46.84312" lon="8.42815">
        <ele>1871</ele>
        <time>2021-08-13T08:12:39.170Z</time>
      </trkpt>
      <trkpt lat="46.84312" lon="8.42816">
        <ele>1871</ele>
        <time>2021-08-13T08:12:40.170Z</time>
      </trkpt>
      <trkpt lat="46.84311" lon="8.42819">
        <ele>1871</ele>
        <time>2021-08-13T08:12:41.171Z</time>
      </trkpt>
      <trkpt lat="46.84311" lon="8.42821">
        <ele>1871</ele>
        <time>2021-08-13T08:12:42.170Z</time>
      </trkpt>
      <trkpt lat="46.84311" lon="8.42822">
        <ele>1871</ele>
        <time>2021-08-13T08:12:43.170Z</time>
      </trkpt>
      <trkpt lat="46.84311" lon="8.42824">
        <ele>1871</ele>
        <time>2021-08-13T08:12:44.170Z</time>
      </trkpt>
      <trkpt lat="46.84311" lon="8.42826">
        <ele>1871</ele>
        <time>2021-08-13T08:12:45.170Z</time>
      </trkpt>
      <trkpt lat="46.84311" lon="8.42828">
        <ele>1870</ele>
        <time>2021-08-13T08:12:46.170Z</time>
      </trkpt>
      <trkpt lat="46.84311" lon="8.42829">
        <ele>1870</ele>
        <time>2021-08-13T08:12:47.170Z</time>
      </trkpt>
      <trkpt lat="46.84311" lon="8.42831">
        <ele>1869</ele>
        <time>2021-08-13T08:12:48.171Z</time>
      </trkpt>
      <trkpt lat="46.8431" lon="8.42833">
        <ele>1869</ele>
        <time>2021-08-13T08:12:49.170Z</time>
      </trkpt>
      <trkpt lat="46.8431" lon="8.42834">
        <ele>1869</ele>
        <time>2021-08-13T08:12:50.170Z</time>
      </trkpt>
      <trkpt lat="46.8431" lon="8.42835">
        <ele>1869</ele>
        <time>2021-08-13T08:12:51.170Z</time>
      </trkpt>
      <trkpt lat="46.84309" lon="8.42837">
        <ele>1869</ele>
        <time>2021-08-13T08:12:52.170Z</time>
      </trkpt>
      <trkpt lat="46.84309" lon="8.42839">
        <ele>1869</ele>
        <time>2021-08-13T08:12:53.170Z</time>
      </trkpt>
      <trkpt lat="46.84308" lon="8.4284">
        <ele>1869</ele>
        <time>2021-08-13T08:12:54.170Z</time>
      </trkpt>
      <trkpt lat="46.84308" lon="8.42842">
        <ele>1869</ele>
        <time>2021-08-13T08:12:55.170Z</time>
      </trkpt>
      <trkpt lat="46.84307" lon="8.42843">
        <ele>1869</ele>
        <time>2021-08-13T08:12:56.170Z</time>
      </trkpt>
      <trkpt lat="46.84306" lon="8.42844">
        <ele>1868</ele>
        <time>2021-08-13T08:12:57.170Z</time>
      </trkpt>
      <trkpt lat="46.84305" lon="8.42845">
        <ele>1868</ele>
        <time>2021-08-13T08:12:58.170Z</time>
      </trkpt>
      <trkpt lat="46.84305" lon="8.42846">
        <ele>1868</ele>
        <time>2021-08-13T08:12:59.170Z</time>
      </trkpt>
      <trkpt lat="46.84305" lon="8.42847">
        <ele>1868</ele>
        <time>2021-08-13T08:13:00.170Z</time>
      </trkpt>
      <trkpt lat="46.84304" lon="8.42848">
        <ele>1868</ele>
        <time>2021-08-13T08:13:01.170Z</time>
      </trkpt>
      <trkpt lat="46.84304" lon="8.42847">
        <ele>1868</ele>
        <time>2021-08-13T08:13:02.170Z</time>
      </trkpt>
      <trkpt lat="46.84304" lon="8.42847">
        <ele>1869</ele>
        <time>2021-08-13T08:13:03.171Z</time>
      </trkpt>
      <trkpt lat="46.84304" lon="8.42846">
        <ele>1869</ele>
        <time>2021-08-13T08:13:04.171Z</time>
      </trkpt>
      <trkpt lat="46.84304" lon="8.42845">
        <ele>1869</ele>
        <time>2021-08-13T08:13:05.171Z</time>
      </trkpt>
      <trkpt lat="46.84304" lon="8.42844">
        <ele>1869</ele>
        <time>2021-08-13T08:13:06.171Z</time>
      </trkpt>
      <trkpt lat="46.84304" lon="8.42843">
        <ele>1868</ele>
        <time>2021-08-13T08:13:07.171Z</time>
      </trkpt>
      <trkpt lat="46.84304" lon="8.42842">
        <ele>1868</ele>
        <time>2021-08-13T08:13:08.171Z</time>
      </trkpt>
      <trkpt lat="46.84304" lon="8.4284">
        <ele>1867</ele>
        <time>2021-08-13T08:13:09.171Z</time>
      </trkpt>
      <trkpt lat="46.84304" lon="8.42839">
        <ele>1867</ele>
        <time>2021-08-13T08:13:10.171Z</time>
      </trkpt>
      <trkpt lat="46.84303" lon="8.42837">
        <ele>1867</ele>
        <time>2021-08-13T08:13:11.171Z</time>
      </trkpt>
      <trkpt lat="46.84303" lon="8.42835">
        <ele>1867</ele>
        <time>2021-08-13T08:13:12.171Z</time>
      </trkpt>
      <trkpt lat="46.84304" lon="8.42833">
        <ele>1868</ele>
        <time>2021-08-13T08:13:13.171Z</time>
      </trkpt>
      <trkpt lat="46.84305" lon="8.42831">
        <ele>1868</ele>
        <time>2021-08-13T08:13:14.171Z</time>
      </trkpt>
      <trkpt lat="46.84305" lon="8.42829">
        <ele>1869</ele>
        <time>2021-08-13T08:13:15.171Z</time>
      </trkpt>
      <trkpt lat="46.84305" lon="8.42828">
        <ele>1869</ele>
        <time>2021-08-13T08:13:16.171Z</time>
      </trkpt>
      <trkpt lat="46.84305" lon="8.42827">
        <ele>1869</ele>
        <time>2021-08-13T08:13:17.171Z</time>
      </trkpt>
      <trkpt lat="46.84306" lon="8.42826">
        <ele>1869</ele>
        <time>2021-08-13T08:13:18.171Z</time>
      </trkpt>
      <trkpt lat="46.84306" lon="8.42825">
        <ele>1868</ele>
        <time>2021-08-13T08:13:19.171Z</time>
      </trkpt>
      <trkpt lat="46.84306" lon="8.42824">
        <ele>1868</ele>
        <time>2021-08-13T08:13:20.171Z</time>
      </trkpt>
      <trkpt lat="46.84305" lon="8.42822">
        <ele>1868</ele>
        <time>2021-08-13T08:13:21.171Z</time>
      </trkpt>
      <trkpt lat="46.84304" lon="8.4282">
        <ele>1868</ele>
        <time>2021-08-13T08:13:22.171Z</time>
      </trkpt>
      <trkpt lat="46.84303" lon="8.4282">
        <ele>1868</ele>
        <time>2021-08-13T08:13:23.171Z</time>
      </trkpt>
      <trkpt lat="46.84303" lon="8.42819">
        <ele>1868</ele>
        <time>2021-08-13T08:13:24.171Z</time>
      </trkpt>
      <trkpt lat="46.84302" lon="8.42818">
        <ele>1868</ele>
        <time>2021-08-13T08:13:25.171Z</time>
      </trkpt>
      <trkpt lat="46.84302" lon="8.42818">
        <ele>1868</ele>
        <time>2021-08-13T08:13:26.171Z</time>
      </trkpt>
      <trkpt lat="46.84301" lon="8.42818">
        <ele>1867</ele>
        <time>2021-08-13T08:13:27.171Z</time>
      </trkpt>
      <trkpt lat="46.84302" lon="8.42818">
        <ele>1867</ele>
        <time>2021-08-13T08:13:28.170Z</time>
      </trkpt>
      <trkpt lat="46.84301" lon="8.42817">
        <ele>1867</ele>
        <time>2021-08-13T08:13:29.171Z</time>
      </trkpt>
      <trkpt lat="46.84301" lon="8.42816">
        <ele>1866</ele>
        <time>2021-08-13T08:13:30.170Z</time>
      </trkpt>
      <trkpt lat="46.843" lon="8.42815">
        <ele>1866</ele>
        <time>2021-08-13T08:13:31.171Z</time>
      </trkpt>
      <trkpt lat="46.843" lon="8.42814">
        <ele>1866</ele>
        <time>2021-08-13T08:13:32.171Z</time>
      </trkpt>
      <trkpt lat="46.843" lon="8.42814">
        <ele>1865</ele>
        <time>2021-08-13T08:13:33.171Z</time>
      </trkpt>
      <trkpt lat="46.843" lon="8.42814">
        <ele>1865</ele>
        <time>2021-08-13T08:13:34.171Z</time>
      </trkpt>
      <trkpt lat="46.843" lon="8.42813">
        <ele>1865</ele>
        <time>2021-08-13T08:13:35.171Z</time>
      </trkpt>
      <trkpt lat="46.843" lon="8.42813">
        <ele>1864</ele>
        <time>2021-08-13T08:13:36.171Z</time>
      </trkpt>
      <trkpt lat="46.84299" lon="8.42812">
        <ele>1864</ele>
        <time>2021-08-13T08:13:37.171Z</time>
      </trkpt>
      <trkpt lat="46.84299" lon="8.42812">
        <ele>1864</ele>
        <time>2021-08-13T08:13:38.170Z</time>
      </trkpt>
      <trkpt lat="46.84298" lon="8.42812">
        <ele>1864</ele>
        <time>2021-08-13T08:13:39.171Z</time>
      </trkpt>
      <trkpt lat="46.84298" lon="8.42811">
        <ele>1864</ele>
        <time>2021-08-13T08:13:40.170Z</time>
      </trkpt>
      <trkpt lat="46.84298" lon="8.42811">
        <ele>1864</ele>
        <time>2021-08-13T08:13:41.170Z</time>
      </trkpt>
      <trkpt lat="46.84298" lon="8.4281">
        <ele>1864</ele>
        <time>2021-08-13T08:13:42.170Z</time>
      </trkpt>
      <trkpt lat="46.84298" lon="8.42809">
        <ele>1864</ele>
        <time>2021-08-13T08:13:43.170Z</time>
      </trkpt>
      <trkpt lat="46.84298" lon="8.42807">
        <ele>1864</ele>
        <time>2021-08-13T08:13:44.170Z</time>
      </trkpt>
      <trkpt lat="46.84298" lon="8.42806">
        <ele>1863</ele>
        <time>2021-08-13T08:13:45.170Z</time>
      </trkpt>
      <trkpt lat="46.84298" lon="8.42804">
        <ele>1863</ele>
        <time>2021-08-13T08:13:46.171Z</time>
      </trkpt>
      <trkpt lat="46.84298" lon="8.42803">
        <ele>1863</ele>
        <time>2021-08-13T08:13:47.170Z</time>
      </trkpt>
      <trkpt lat="46.84298" lon="8.42802">
        <ele>1862</ele>
        <time>2021-08-13T08:13:48.171Z</time>
      </trkpt>
      <trkpt lat="46.84298" lon="8.428">
        <ele>1862</ele>
        <time>2021-08-13T08:13:49.171Z</time>
      </trkpt>
      <trkpt lat="46.84299" lon="8.42799">
        <ele>1862</ele>
        <time>2021-08-13T08:13:50.171Z</time>
      </trkpt>
      <trkpt lat="46.843" lon="8.42797">
        <ele>1862</ele>
        <time>2021-08-13T08:13:51.171Z</time>
      </trkpt>
      <trkpt lat="46.84301" lon="8.42796">
        <ele>1862</ele>
        <time>2021-08-13T08:13:52.171Z</time>
      </trkpt>
      <trkpt lat="46.84301" lon="8.42795">
        <ele>1862</ele>
        <time>2021-08-13T08:13:53.170Z</time>
      </trkpt>
      <trkpt lat="46.84301" lon="8.42793">
        <ele>1861</ele>
        <time>2021-08-13T08:13:54.170Z</time>
      </trkpt>
      <trkpt lat="46.84301" lon="8.42791">
        <ele>1861</ele>
        <time>2021-08-13T08:13:55.171Z</time>
      </trkpt>
      <trkpt lat="46.84301" lon="8.4279">
        <ele>1861</ele>
        <time>2021-08-13T08:13:56.170Z</time>
      </trkpt>
      <trkpt lat="46.84302" lon="8.42789">
        <ele>1861</ele>
        <time>2021-08-13T08:13:57.171Z</time>
      </trkpt>
      <trkpt lat="46.84303" lon="8.42787">
        <ele>1861</ele>
        <time>2021-08-13T08:13:58.171Z</time>
      </trkpt>
      <trkpt lat="46.84303" lon="8.42786">
        <ele>1860</ele>
        <time>2021-08-13T08:13:59.170Z</time>
      </trkpt>
      <trkpt lat="46.84304" lon="8.42784">
        <ele>1860</ele>
        <time>2021-08-13T08:14:00.170Z</time>
      </trkpt>
      <trkpt lat="46.84304" lon="8.42783">
        <ele>1859</ele>
        <time>2021-08-13T08:14:01.171Z</time>
      </trkpt>
      <trkpt lat="46.84304" lon="8.42782">
        <ele>1859</ele>
        <time>2021-08-13T08:14:02.170Z</time>
      </trkpt>
      <trkpt lat="46.84304" lon="8.42781">
        <ele>1858</ele>
        <time>2021-08-13T08:14:03.171Z</time>
      </trkpt>
      <trkpt lat="46.84304" lon="8.4278">
        <ele>1858</ele>
        <time>2021-08-13T08:14:04.170Z</time>
      </trkpt>
      <trkpt lat="46.84303" lon="8.42779">
        <ele>1857</ele>
        <time>2021-08-13T08:14:05.170Z</time>
      </trkpt>
      <trkpt lat="46.84303" lon="8.42778">
        <ele>1857</ele>
        <time>2021-08-13T08:14:06.171Z</time>
      </trkpt>
      <trkpt lat="46.84302" lon="8.42777">
        <ele>1857</ele>
        <time>2021-08-13T08:14:07.170Z</time>
      </trkpt>
      <trkpt lat="46.84302" lon="8.42776">
        <ele>1856</ele>
        <time>2021-08-13T08:14:08.170Z</time>
      </trkpt>
      <trkpt lat="46.84302" lon="8.42775">
        <ele>1856</ele>
        <time>2021-08-13T08:14:09.171Z</time>
      </trkpt>
      <trkpt lat="46.84301" lon="8.42775">
        <ele>1856</ele>
        <time>2021-08-13T08:14:10.171Z</time>
      </trkpt>
      <trkpt lat="46.84301" lon="8.42775">
        <ele>1856</ele>
        <time>2021-08-13T08:14:11.170Z</time>
      </trkpt>
      <trkpt lat="46.843" lon="8.42775">
        <ele>1856</ele>
        <time>2021-08-13T08:14:12.170Z</time>
      </trkpt>
      <trkpt lat="46.843" lon="8.42774">
        <ele>1856</ele>
        <time>2021-08-13T08:14:13.171Z</time>
      </trkpt>
      <trkpt lat="46.84301" lon="8.42774">
        <ele>1856</ele>
        <time>2021-08-13T08:14:14.170Z</time>
      </trkpt>
      <trkpt lat="46.843" lon="8.42773">
        <ele>1856</ele>
        <time>2021-08-13T08:14:15.171Z</time>
      </trkpt>
      <trkpt lat="46.843" lon="8.42772">
        <ele>1856</ele>
        <time>2021-08-13T08:14:16.171Z</time>
      </trkpt>
      <trkpt lat="46.84299" lon="8.42772">
        <ele>1856</ele>
        <time>2021-08-13T08:14:17.172Z</time>
      </trkpt>
      <trkpt lat="46.84299" lon="8.42771">
        <ele>1856</ele>
        <time>2021-08-13T08:14:18.172Z</time>
      </trkpt>
      <trkpt lat="46.84298" lon="8.42771">
        <ele>1856</ele>
        <time>2021-08-13T08:14:19.172Z</time>
      </trkpt>
      <trkpt lat="46.84297" lon="8.4277">
        <ele>1856</ele>
        <time>2021-08-13T08:14:20.172Z</time>
      </trkpt>
      <trkpt lat="46.84297" lon="8.42769">
        <ele>1855</ele>
        <time>2021-08-13T08:14:21.172Z</time>
      </trkpt>
      <trkpt lat="46.84296" lon="8.42768">
        <ele>1855</ele>
        <time>2021-08-13T08:14:22.172Z</time>
      </trkpt>
      <trkpt lat="46.84296" lon="8.42767">
        <ele>1855</ele>
        <time>2021-08-13T08:14:23.171Z</time>
      </trkpt>
      <trkpt lat="46.84295" lon="8.42767">
        <ele>1855</ele>
        <time>2021-08-13T08:14:24.171Z</time>
      </trkpt>
      <trkpt lat="46.84295" lon="8.42766">
        <ele>1854</ele>
        <time>2021-08-13T08:14:25.171Z</time>
      </trkpt>
      <trkpt lat="46.84295" lon="8.42765">
        <ele>1854</ele>
        <time>2021-08-13T08:14:26.172Z</time>
      </trkpt>
      <trkpt lat="46.84295" lon="8.42764">
        <ele>1853</ele>
        <time>2021-08-13T08:14:27.171Z</time>
      </trkpt>
      <trkpt lat="46.84295" lon="8.42764">
        <ele>1853</ele>
        <time>2021-08-13T08:14:28.171Z</time>
      </trkpt>
      <trkpt lat="46.84295" lon="8.42764">
        <ele>1854</ele>
        <time>2021-08-13T08:14:29.172Z</time>
      </trkpt>
      <trkpt lat="46.84295" lon="8.42763">
        <ele>1854</ele>
        <time>2021-08-13T08:14:30.172Z</time>
      </trkpt>
      <trkpt lat="46.84295" lon="8.42762">
        <ele>1854</ele>
        <time>2021-08-13T08:14:31.172Z</time>
      </trkpt>
      <trkpt lat="46.84295" lon="8.42762">
        <ele>1854</ele>
        <time>2021-08-13T08:14:32.172Z</time>
      </trkpt>
      <trkpt lat="46.84295" lon="8.42761">
        <ele>1854</ele>
        <time>2021-08-13T08:14:33.171Z</time>
      </trkpt>
      <trkpt lat="46.84295" lon="8.4276">
        <ele>1854</ele>
        <time>2021-08-13T08:14:34.172Z</time>
      </trkpt>
      <trkpt lat="46.84295" lon="8.42759">
        <ele>1854</ele>
        <time>2021-08-13T08:14:35.172Z</time>
      </trkpt>
      <trkpt lat="46.84295" lon="8.42758">
        <ele>1854</ele>
        <time>2021-08-13T08:14:36.172Z</time>
      </trkpt>
      <trkpt lat="46.84295" lon="8.42758">
        <ele>1854</ele>
        <time>2021-08-13T08:14:37.172Z</time>
      </trkpt>
      <trkpt lat="46.84296" lon="8.42757">
        <ele>1854</ele>
        <time>2021-08-13T08:14:38.172Z</time>
      </trkpt>
      <trkpt lat="46.84296" lon="8.42757">
        <ele>1854</ele>
        <time>2021-08-13T08:14:39.172Z</time>
      </trkpt>
      <trkpt lat="46.84296" lon="8.42756">
        <ele>1854</ele>
        <time>2021-08-13T08:14:40.172Z</time>
      </trkpt>
      <trkpt lat="46.84296" lon="8.42755">
        <ele>1854</ele>
        <time>2021-08-13T08:14:41.172Z</time>
      </trkpt>
      <trkpt lat="46.84296" lon="8.42755">
        <ele>1853</ele>
        <time>2021-08-13T08:14:42.172Z</time>
      </trkpt>
      <trkpt lat="46.84296" lon="8.42754">
        <ele>1853</ele>
        <time>2021-08-13T08:14:43.172Z</time>
      </trkpt>
      <trkpt lat="46.84296" lon="8.42754">
        <ele>1853</ele>
        <time>2021-08-13T08:14:44.172Z</time>
      </trkpt>
      <trkpt lat="46.84297" lon="8.42752">
        <ele>1852</ele>
        <time>2021-08-13T08:14:45.171Z</time>
      </trkpt>
      <trkpt lat="46.84297" lon="8.42752">
        <ele>1852</ele>
        <time>2021-08-13T08:14:46.172Z</time>
      </trkpt>
      <trkpt lat="46.84297" lon="8.42751">
        <ele>1852</ele>
        <time>2021-08-13T08:14:47.172Z</time>
      </trkpt>
      <trkpt lat="46.84298" lon="8.4275">
        <ele>1852</ele>
        <time>2021-08-13T08:14:48.172Z</time>
      </trkpt>
      <trkpt lat="46.84298" lon="8.4275">
        <ele>1853</ele>
        <time>2021-08-13T08:14:49.171Z</time>
      </trkpt>
      <trkpt lat="46.84298" lon="8.42749">
        <ele>1853</ele>
        <time>2021-08-13T08:14:50.172Z</time>
      </trkpt>
      <trkpt lat="46.84298" lon="8.42748">
        <ele>1853</ele>
        <time>2021-08-13T08:14:51.172Z</time>
      </trkpt>
      <trkpt lat="46.84298" lon="8.42747">
        <ele>1853</ele>
        <time>2021-08-13T08:14:52.172Z</time>
      </trkpt>
      <trkpt lat="46.84298" lon="8.42746">
        <ele>1853</ele>
        <time>2021-08-13T08:14:53.171Z</time>
      </trkpt>
      <trkpt lat="46.84298" lon="8.42745">
        <ele>1852</ele>
        <time>2021-08-13T08:14:54.171Z</time>
      </trkpt>
      <trkpt lat="46.84298" lon="8.42745">
        <ele>1852</ele>
        <time>2021-08-13T08:14:55.172Z</time>
      </trkpt>
      <trkpt lat="46.84298" lon="8.42744">
        <ele>1852</ele>
        <time>2021-08-13T08:14:56.172Z</time>
      </trkpt>
      <trkpt lat="46.84298" lon="8.42743">
        <ele>1851</ele>
        <time>2021-08-13T08:14:57.172Z</time>
      </trkpt>
      <trkpt lat="46.84298" lon="8.42742">
        <ele>1851</ele>
        <time>2021-08-13T08:14:58.172Z</time>
      </trkpt>
      <trkpt lat="46.84298" lon="8.42741">
        <ele>1851</ele>
        <time>2021-08-13T08:14:59.172Z</time>
      </trkpt>
      <trkpt lat="46.84298" lon="8.4274">
        <ele>1850</ele>
        <time>2021-08-13T08:15:00.171Z</time>
      </trkpt>
      <trkpt lat="46.84298" lon="8.42738">
        <ele>1850</ele>
        <time>2021-08-13T08:15:01.171Z</time>
      </trkpt>
      <trkpt lat="46.84298" lon="8.42737">
        <ele>1849</ele>
        <time>2021-08-13T08:15:02.172Z</time>
      </trkpt>
      <trkpt lat="46.84298" lon="8.42737">
        <ele>1849</ele>
        <time>2021-08-13T08:15:03.171Z</time>
      </trkpt>
      <trkpt lat="46.84298" lon="8.42735">
        <ele>1848</ele>
        <time>2021-08-13T08:15:04.171Z</time>
      </trkpt>
      <trkpt lat="46.84298" lon="8.42734">
        <ele>1848</ele>
        <time>2021-08-13T08:15:05.171Z</time>
      </trkpt>
      <trkpt lat="46.84297" lon="8.42733">
        <ele>1847</ele>
        <time>2021-08-13T08:15:06.172Z</time>
      </trkpt>
      <trkpt lat="46.84297" lon="8.42732">
        <ele>1847</ele>
        <time>2021-08-13T08:15:07.172Z</time>
      </trkpt>
      <trkpt lat="46.84297" lon="8.42731">
        <ele>1847</ele>
        <time>2021-08-13T08:15:08.172Z</time>
      </trkpt>
      <trkpt lat="46.84297" lon="8.4273">
        <ele>1846</ele>
        <time>2021-08-13T08:15:09.171Z</time>
      </trkpt>
      <trkpt lat="46.84297" lon="8.4273">
        <ele>1846</ele>
        <time>2021-08-13T08:15:10.172Z</time>
      </trkpt>
      <trkpt lat="46.84297" lon="8.42729">
        <ele>1845</ele>
        <time>2021-08-13T08:15:11.172Z</time>
      </trkpt>
      <trkpt lat="46.84296" lon="8.42729">
        <ele>1845</ele>
        <time>2021-08-13T08:15:12.171Z</time>
      </trkpt>
      <trkpt lat="46.84296" lon="8.42728">
        <ele>1845</ele>
        <time>2021-08-13T08:15:13.172Z</time>
      </trkpt>
      <trkpt lat="46.84296" lon="8.42727">
        <ele>1845</ele>
        <time>2021-08-13T08:15:14.171Z</time>
      </trkpt>
      <trkpt lat="46.84296" lon="8.42726">
        <ele>1846</ele>
        <time>2021-08-13T08:15:15.172Z</time>
      </trkpt>
      <trkpt lat="46.84295" lon="8.42726">
        <ele>1846</ele>
        <time>2021-08-13T08:15:16.172Z</time>
      </trkpt>
      <trkpt lat="46.84295" lon="8.42725">
        <ele>1846</ele>
        <time>2021-08-13T08:15:17.171Z</time>
      </trkpt>
      <trkpt lat="46.84294" lon="8.42724">
        <ele>1846</ele>
        <time>2021-08-13T08:15:18.171Z</time>
      </trkpt>
      <trkpt lat="46.84294" lon="8.42723">
        <ele>1845</ele>
        <time>2021-08-13T08:15:19.172Z</time>
      </trkpt>
      <trkpt lat="46.84294" lon="8.42723">
        <ele>1844</ele>
        <time>2021-08-13T08:15:20.171Z</time>
      </trkpt>
      <trkpt lat="46.84293" lon="8.42722">
        <ele>1844</ele>
        <time>2021-08-13T08:15:21.172Z</time>
      </trkpt>
      <trkpt lat="46.84292" lon="8.42722">
        <ele>1844</ele>
        <time>2021-08-13T08:15:22.171Z</time>
      </trkpt>
      <trkpt lat="46.84292" lon="8.42722">
        <ele>1843</ele>
        <time>2021-08-13T08:15:23.171Z</time>
      </trkpt>
      <trkpt lat="46.84291" lon="8.4272">
        <ele>1843</ele>
        <time>2021-08-13T08:15:24.172Z</time>
      </trkpt>
      <trkpt lat="46.84291" lon="8.42719">
        <ele>1843</ele>
        <time>2021-08-13T08:15:25.172Z</time>
      </trkpt>
      <trkpt lat="46.84291" lon="8.42718">
        <ele>1843</ele>
        <time>2021-08-13T08:15:26.172Z</time>
      </trkpt>
      <trkpt lat="46.84291" lon="8.42718">
        <ele>1843</ele>
        <time>2021-08-13T08:15:27.172Z</time>
      </trkpt>
      <trkpt lat="46.84291" lon="8.42718">
        <ele>1843</ele>
        <time>2021-08-13T08:15:28.172Z</time>
      </trkpt>
      <trkpt lat="46.8429" lon="8.42717">
        <ele>1843</ele>
        <time>2021-08-13T08:15:29.172Z</time>
      </trkpt>
      <trkpt lat="46.8429" lon="8.42716">
        <ele>1842</ele>
        <time>2021-08-13T08:15:30.172Z</time>
      </trkpt>
      <trkpt lat="46.8429" lon="8.42716">
        <ele>1842</ele>
        <time>2021-08-13T08:15:31.172Z</time>
      </trkpt>
      <trkpt lat="46.8429" lon="8.42715">
        <ele>1841</ele>
        <time>2021-08-13T08:15:32.171Z</time>
      </trkpt>
      <trkpt lat="46.84289" lon="8.42715">
        <ele>1841</ele>
        <time>2021-08-13T08:15:33.172Z</time>
      </trkpt>
      <trkpt lat="46.8429" lon="8.42715">
        <ele>1840</ele>
        <time>2021-08-13T08:15:34.172Z</time>
      </trkpt>
      <trkpt lat="46.84289" lon="8.42712">
        <ele>1840</ele>
        <time>2021-08-13T08:15:35.173Z</time>
      </trkpt>
      <trkpt lat="46.84289" lon="8.42711">
        <ele>1840</ele>
        <time>2021-08-13T08:15:36.172Z</time>
      </trkpt>
      <trkpt lat="46.84289" lon="8.42709">
        <ele>1840</ele>
        <time>2021-08-13T08:15:37.173Z</time>
      </trkpt>
      <trkpt lat="46.84289" lon="8.42708">
        <ele>1840</ele>
        <time>2021-08-13T08:15:38.172Z</time>
      </trkpt>
      <trkpt lat="46.84289" lon="8.42708">
        <ele>1840</ele>
        <time>2021-08-13T08:15:39.172Z</time>
      </trkpt>
      <trkpt lat="46.84289" lon="8.42707">
        <ele>1840</ele>
        <time>2021-08-13T08:15:40.173Z</time>
      </trkpt>
      <trkpt lat="46.84289" lon="8.42707">
        <ele>1840</ele>
        <time>2021-08-13T08:15:41.173Z</time>
      </trkpt>
      <trkpt lat="46.84289" lon="8.42706">
        <ele>1840</ele>
        <time>2021-08-13T08:15:42.172Z</time>
      </trkpt>
      <trkpt lat="46.84289" lon="8.42705">
        <ele>1840</ele>
        <time>2021-08-13T08:15:43.172Z</time>
      </trkpt>
      <trkpt lat="46.84289" lon="8.42704">
        <ele>1840</ele>
        <time>2021-08-13T08:15:44.172Z</time>
      </trkpt>
      <trkpt lat="46.84288" lon="8.42704">
        <ele>1840</ele>
        <time>2021-08-13T08:15:45.172Z</time>
      </trkpt>
      <trkpt lat="46.84287" lon="8.42703">
        <ele>1839</ele>
        <time>2021-08-13T08:15:46.172Z</time>
      </trkpt>
      <trkpt lat="46.84287" lon="8.42702">
        <ele>1839</ele>
        <time>2021-08-13T08:15:47.172Z</time>
      </trkpt>
      <trkpt lat="46.84286" lon="8.42702">
        <ele>1839</ele>
        <time>2021-08-13T08:15:48.172Z</time>
      </trkpt>
      <trkpt lat="46.84286" lon="8.42701">
        <ele>1839</ele>
        <time>2021-08-13T08:15:49.172Z</time>
      </trkpt>
      <trkpt lat="46.84285" lon="8.42701">
        <ele>1839</ele>
        <time>2021-08-13T08:15:50.172Z</time>
      </trkpt>
      <trkpt lat="46.84285" lon="8.427">
        <ele>1839</ele>
        <time>2021-08-13T08:15:51.172Z</time>
      </trkpt>
      <trkpt lat="46.84285" lon="8.427">
        <ele>1838</ele>
        <time>2021-08-13T08:15:52.173Z</time>
      </trkpt>
      <trkpt lat="46.84284" lon="8.42699">
        <ele>1838</ele>
        <time>2021-08-13T08:15:53.173Z</time>
      </trkpt>
      <trkpt lat="46.84284" lon="8.42698">
        <ele>1838</ele>
        <time>2021-08-13T08:15:54.172Z</time>
      </trkpt>
      <trkpt lat="46.84283" lon="8.42697">
        <ele>1838</ele>
        <time>2021-08-13T08:15:55.172Z</time>
      </trkpt>
      <trkpt lat="46.84282" lon="8.42697">
        <ele>1837</ele>
        <time>2021-08-13T08:15:56.172Z</time>
      </trkpt>
      <trkpt lat="46.84282" lon="8.42696">
        <ele>1837</ele>
        <time>2021-08-13T08:15:57.173Z</time>
      </trkpt>
      <trkpt lat="46.84282" lon="8.42695">
        <ele>1836</ele>
        <time>2021-08-13T08:15:58.173Z</time>
      </trkpt>
      <trkpt lat="46.84282" lon="8.42694">
        <ele>1836</ele>
        <time>2021-08-13T08:15:59.173Z</time>
      </trkpt>
      <trkpt lat="46.84281" lon="8.42694">
        <ele>1836</ele>
        <time>2021-08-13T08:16:00.173Z</time>
      </trkpt>
      <trkpt lat="46.84282" lon="8.42693">
        <ele>1836</ele>
        <time>2021-08-13T08:16:01.172Z</time>
      </trkpt>
      <trkpt lat="46.84283" lon="8.42693">
        <ele>1836</ele>
        <time>2021-08-13T08:16:02.172Z</time>
      </trkpt>
      <trkpt lat="46.84283" lon="8.42692">
        <ele>1837</ele>
        <time>2021-08-13T08:16:03.172Z</time>
      </trkpt>
      <trkpt lat="46.84282" lon="8.4269">
        <ele>1837</ele>
        <time>2021-08-13T08:16:04.172Z</time>
      </trkpt>
      <trkpt lat="46.84281" lon="8.4269">
        <ele>1837</ele>
        <time>2021-08-13T08:16:05.172Z</time>
      </trkpt>
      <trkpt lat="46.84281" lon="8.42689">
        <ele>1837</ele>
        <time>2021-08-13T08:16:06.172Z</time>
      </trkpt>
      <trkpt lat="46.8428" lon="8.42689">
        <ele>1837</ele>
        <time>2021-08-13T08:16:07.172Z</time>
      </trkpt>
      <trkpt lat="46.8428" lon="8.42689">
        <ele>1837</ele>
        <time>2021-08-13T08:16:08.172Z</time>
      </trkpt>
      <trkpt lat="46.8428" lon="8.42688">
        <ele>1837</ele>
        <time>2021-08-13T08:16:09.172Z</time>
      </trkpt>
      <trkpt lat="46.8428" lon="8.42688">
        <ele>1837</ele>
        <time>2021-08-13T08:16:10.172Z</time>
      </trkpt>
      <trkpt lat="46.8428" lon="8.42687">
        <ele>1836</ele>
        <time>2021-08-13T08:16:11.172Z</time>
      </trkpt>
      <trkpt lat="46.8428" lon="8.42686">
        <ele>1836</ele>
        <time>2021-08-13T08:16:12.172Z</time>
      </trkpt>
      <trkpt lat="46.8428" lon="8.42686">
        <ele>1835</ele>
        <time>2021-08-13T08:16:13.173Z</time>
      </trkpt>
      <trkpt lat="46.8428" lon="8.42686">
        <ele>1835</ele>
        <time>2021-08-13T08:16:14.172Z</time>
      </trkpt>
      <trkpt lat="46.8428" lon="8.42685">
        <ele>1835</ele>
        <time>2021-08-13T08:16:15.172Z</time>
      </trkpt>
      <trkpt lat="46.8428" lon="8.42684">
        <ele>1835</ele>
        <time>2021-08-13T08:16:16.172Z</time>
      </trkpt>
      <trkpt lat="46.84279" lon="8.42683">
        <ele>1834</ele>
        <time>2021-08-13T08:16:17.173Z</time>
      </trkpt>
      <trkpt lat="46.84279" lon="8.42682">
        <ele>1834</ele>
        <time>2021-08-13T08:16:18.172Z</time>
      </trkpt>
      <trkpt lat="46.84279" lon="8.42681">
        <ele>1833</ele>
        <time>2021-08-13T08:16:19.172Z</time>
      </trkpt>
      <trkpt lat="46.84278" lon="8.4268">
        <ele>1832</ele>
        <time>2021-08-13T08:16:20.172Z</time>
      </trkpt>
      <trkpt lat="46.84278" lon="8.42679">
        <ele>1832</ele>
        <time>2021-08-13T08:16:21.172Z</time>
      </trkpt>
      <trkpt lat="46.84278" lon="8.42678">
        <ele>1831</ele>
        <time>2021-08-13T08:16:22.173Z</time>
      </trkpt>
      <trkpt lat="46.84278" lon="8.42677">
        <ele>1831</ele>
        <time>2021-08-13T08:16:23.172Z</time>
      </trkpt>
      <trkpt lat="46.84277" lon="8.42675">
        <ele>1830</ele>
        <time>2021-08-13T08:16:24.172Z</time>
      </trkpt>
      <trkpt lat="46.84277" lon="8.42674">
        <ele>1830</ele>
        <time>2021-08-13T08:16:25.172Z</time>
      </trkpt>
      <trkpt lat="46.84277" lon="8.42673">
        <ele>1830</ele>
        <time>2021-08-13T08:16:26.172Z</time>
      </trkpt>
      <trkpt lat="46.84276" lon="8.42672">
        <ele>1829</ele>
        <time>2021-08-13T08:16:27.172Z</time>
      </trkpt>
      <trkpt lat="46.84276" lon="8.42671">
        <ele>1829</ele>
        <time>2021-08-13T08:16:28.172Z</time>
      </trkpt>
      <trkpt lat="46.84276" lon="8.4267">
        <ele>1829</ele>
        <time>2021-08-13T08:16:29.173Z</time>
      </trkpt>
      <trkpt lat="46.84276" lon="8.42669">
        <ele>1829</ele>
        <time>2021-08-13T08:16:30.173Z</time>
      </trkpt>
      <trkpt lat="46.84276" lon="8.42668">
        <ele>1829</ele>
        <time>2021-08-13T08:16:31.173Z</time>
      </trkpt>
      <trkpt lat="46.84276" lon="8.42667">
        <ele>1829</ele>
        <time>2021-08-13T08:16:32.173Z</time>
      </trkpt>
      <trkpt lat="46.84276" lon="8.42667">
        <ele>1829</ele>
        <time>2021-08-13T08:16:33.172Z</time>
      </trkpt>
      <trkpt lat="46.84276" lon="8.42666">
        <ele>1829</ele>
        <time>2021-08-13T08:16:34.172Z</time>
      </trkpt>
      <trkpt lat="46.84276" lon="8.42665">
        <ele>1829</ele>
        <time>2021-08-13T08:16:35.172Z</time>
      </trkpt>
      <trkpt lat="46.84275" lon="8.42664">
        <ele>1829</ele>
        <time>2021-08-13T08:16:36.172Z</time>
      </trkpt>
      <trkpt lat="46.84275" lon="8.42663">
        <ele>1829</ele>
        <time>2021-08-13T08:16:37.172Z</time>
      </trkpt>
      <trkpt lat="46.84275" lon="8.42663">
        <ele>1829</ele>
        <time>2021-08-13T08:16:38.172Z</time>
      </trkpt>
      <trkpt lat="46.84275" lon="8.42662">
        <ele>1828</ele>
        <time>2021-08-13T08:16:39.172Z</time>
      </trkpt>
      <trkpt lat="46.84274" lon="8.42661">
        <ele>1828</ele>
        <time>2021-08-13T08:16:40.173Z</time>
      </trkpt>
      <trkpt lat="46.84274" lon="8.4266">
        <ele>1828</ele>
        <time>2021-08-13T08:16:41.172Z</time>
      </trkpt>
      <trkpt lat="46.84274" lon="8.42659">
        <ele>1827</ele>
        <time>2021-08-13T08:16:42.173Z</time>
      </trkpt>
      <trkpt lat="46.84274" lon="8.42658">
        <ele>1828</ele>
        <time>2021-08-13T08:16:43.173Z</time>
      </trkpt>
      <trkpt lat="46.84274" lon="8.42657">
        <ele>1828</ele>
        <time>2021-08-13T08:16:44.173Z</time>
      </trkpt>
      <trkpt lat="46.84274" lon="8.42655">
        <ele>1828</ele>
        <time>2021-08-13T08:16:45.172Z</time>
      </trkpt>
      <trkpt lat="46.84274" lon="8.42654">
        <ele>1828</ele>
        <time>2021-08-13T08:16:46.173Z</time>
      </trkpt>
      <trkpt lat="46.84274" lon="8.42653">
        <ele>1828</ele>
        <time>2021-08-13T08:16:47.173Z</time>
      </trkpt>
      <trkpt lat="46.84274" lon="8.42653">
        <ele>1828</ele>
        <time>2021-08-13T08:16:48.172Z</time>
      </trkpt>
      <trkpt lat="46.84274" lon="8.42652">
        <ele>1828</ele>
        <time>2021-08-13T08:16:49.173Z</time>
      </trkpt>
      <trkpt lat="46.84274" lon="8.42652">
        <ele>1828</ele>
        <time>2021-08-13T08:16:50.173Z</time>
      </trkpt>
      <trkpt lat="46.84275" lon="8.42652">
        <ele>1825</ele>
        <time>2021-08-13T08:16:51.173Z</time>
      </trkpt>
      <trkpt lat="46.84275" lon="8.42652">
        <ele>1825</ele>
        <time>2021-08-13T08:16:52.174Z</time>
      </trkpt>
      <trkpt lat="46.84275" lon="8.42652">
        <ele>1824</ele>
        <time>2021-08-13T08:16:53.173Z</time>
      </trkpt>
      <trkpt lat="46.84275" lon="8.42652">
        <ele>1824</ele>
        <time>2021-08-13T08:16:54.174Z</time>
      </trkpt>
      <trkpt lat="46.84275" lon="8.42651">
        <ele>1824</ele>
        <time>2021-08-13T08:16:55.173Z</time>
      </trkpt>
      <trkpt lat="46.84275" lon="8.4265">
        <ele>1824</ele>
        <time>2021-08-13T08:16:56.173Z</time>
      </trkpt>
      <trkpt lat="46.84275" lon="8.42649">
        <ele>1824</ele>
        <time>2021-08-13T08:16:57.173Z</time>
      </trkpt>
      <trkpt lat="46.84275" lon="8.42648">
        <ele>1824</ele>
        <time>2021-08-13T08:16:58.173Z</time>
      </trkpt>
      <trkpt lat="46.84276" lon="8.42647">
        <ele>1823</ele>
        <time>2021-08-13T08:16:59.173Z</time>
      </trkpt>
      <trkpt lat="46.84275" lon="8.42646">
        <ele>1823</ele>
        <time>2021-08-13T08:17:00.173Z</time>
      </trkpt>
      <trkpt lat="46.84276" lon="8.42645">
        <ele>1822</ele>
        <time>2021-08-13T08:17:01.173Z</time>
      </trkpt>
      <trkpt lat="46.84275" lon="8.42644">
        <ele>1822</ele>
        <time>2021-08-13T08:17:02.173Z</time>
      </trkpt>
      <trkpt lat="46.84275" lon="8.42643">
        <ele>1822</ele>
        <time>2021-08-13T08:17:03.173Z</time>
      </trkpt>
      <trkpt lat="46.84275" lon="8.42643">
        <ele>1822</ele>
        <time>2021-08-13T08:17:04.173Z</time>
      </trkpt>
      <trkpt lat="46.84274" lon="8.42642">
        <ele>1822</ele>
        <time>2021-08-13T08:17:05.173Z</time>
      </trkpt>
      <trkpt lat="46.84273" lon="8.42641">
        <ele>1822</ele>
        <time>2021-08-13T08:17:06.173Z</time>
      </trkpt>
      <trkpt lat="46.84273" lon="8.42641">
        <ele>1822</ele>
        <time>2021-08-13T08:17:07.173Z</time>
      </trkpt>
      <trkpt lat="46.84272" lon="8.4264">
        <ele>1821</ele>
        <time>2021-08-13T08:17:08.174Z</time>
      </trkpt>
      <trkpt lat="46.84271" lon="8.4264">
        <ele>1821</ele>
        <time>2021-08-13T08:17:09.173Z</time>
      </trkpt>
      <trkpt lat="46.84271" lon="8.42639">
        <ele>1821</ele>
        <time>2021-08-13T08:17:10.173Z</time>
      </trkpt>
      <trkpt lat="46.8427" lon="8.42638">
        <ele>1821</ele>
        <time>2021-08-13T08:17:11.174Z</time>
      </trkpt>
      <trkpt lat="46.8427" lon="8.42638">
        <ele>1821</ele>
        <time>2021-08-13T08:17:12.174Z</time>
      </trkpt>
      <trkpt lat="46.84269" lon="8.42637">
        <ele>1821</ele>
        <time>2021-08-13T08:17:13.173Z</time>
      </trkpt>
      <trkpt lat="46.84269" lon="8.42636">
        <ele>1820</ele>
        <time>2021-08-13T08:17:14.174Z</time>
      </trkpt>
      <trkpt lat="46.84268" lon="8.42636">
        <ele>1820</ele>
        <time>2021-08-13T08:17:15.174Z</time>
      </trkpt>
      <trkpt lat="46.84266" lon="8.42636">
        <ele>1820</ele>
        <time>2021-08-13T08:17:16.174Z</time>
      </trkpt>
      <trkpt lat="46.84265" lon="8.42635">
        <ele>1820</ele>
        <time>2021-08-13T08:17:17.173Z</time>
      </trkpt>
      <trkpt lat="46.84263" lon="8.42635">
        <ele>1821</ele>
        <time>2021-08-13T08:17:18.174Z</time>
      </trkpt>
      <trkpt lat="46.84262" lon="8.42635">
        <ele>1821</ele>
        <time>2021-08-13T08:17:19.174Z</time>
      </trkpt>
      <trkpt lat="46.84261" lon="8.42636">
        <ele>1820</ele>
        <time>2021-08-13T08:17:20.174Z</time>
      </trkpt>
      <trkpt lat="46.8426" lon="8.42636">
        <ele>1820</ele>
        <time>2021-08-13T08:17:21.174Z</time>
      </trkpt>
      <trkpt lat="46.8426" lon="8.42636">
        <ele>1820</ele>
        <time>2021-08-13T08:17:22.174Z</time>
      </trkpt>
      <trkpt lat="46.8426" lon="8.42636">
        <ele>1820</ele>
        <time>2021-08-13T08:17:23.174Z</time>
      </trkpt>
      <trkpt lat="46.84261" lon="8.42636">
        <ele>1819</ele>
        <time>2021-08-13T08:17:24.173Z</time>
      </trkpt>
      <trkpt lat="46.84261" lon="8.42635">
        <ele>1819</ele>
        <time>2021-08-13T08:17:25.173Z</time>
      </trkpt>
      <trkpt lat="46.84262" lon="8.42634">
        <ele>1820</ele>
        <time>2021-08-13T08:17:26.174Z</time>
      </trkpt>
      <trkpt lat="46.84262" lon="8.42634">
        <ele>1820</ele>
        <time>2021-08-13T08:17:27.174Z</time>
      </trkpt>
      <trkpt lat="46.84262" lon="8.42633">
        <ele>1820</ele>
        <time>2021-08-13T08:17:28.174Z</time>
      </trkpt>
      <trkpt lat="46.84262" lon="8.42632">
        <ele>1820</ele>
        <time>2021-08-13T08:17:29.173Z</time>
      </trkpt>
      <trkpt lat="46.84262" lon="8.42632">
        <ele>1821</ele>
        <time>2021-08-13T08:17:30.174Z</time>
      </trkpt>
      <trkpt lat="46.84262" lon="8.42631">
        <ele>1821</ele>
        <time>2021-08-13T08:17:31.174Z</time>
      </trkpt>
      <trkpt lat="46.84262" lon="8.42631">
        <ele>1821</ele>
        <time>2021-08-13T08:17:32.174Z</time>
      </trkpt>
      <trkpt lat="46.84262" lon="8.4263">
        <ele>1821</ele>
        <time>2021-08-13T08:17:33.174Z</time>
      </trkpt>
      <trkpt lat="46.84261" lon="8.42629">
        <ele>1821</ele>
        <time>2021-08-13T08:17:34.174Z</time>
      </trkpt>
      <trkpt lat="46.84261" lon="8.42628">
        <ele>1821</ele>
        <time>2021-08-13T08:17:35.174Z</time>
      </trkpt>
      <trkpt lat="46.8426" lon="8.42627">
        <ele>1820</ele>
        <time>2021-08-13T08:17:36.174Z</time>
      </trkpt>
      <trkpt lat="46.8426" lon="8.42627">
        <ele>1820</ele>
        <time>2021-08-13T08:17:37.174Z</time>
      </trkpt>
      <trkpt lat="46.84259" lon="8.42626">
        <ele>1819</ele>
        <time>2021-08-13T08:17:38.173Z</time>
      </trkpt>
      <trkpt lat="46.84258" lon="8.42625">
        <ele>1819</ele>
        <time>2021-08-13T08:17:39.173Z</time>
      </trkpt>
      <trkpt lat="46.84258" lon="8.42624">
        <ele>1819</ele>
        <time>2021-08-13T08:17:40.173Z</time>
      </trkpt>
      <trkpt lat="46.84257" lon="8.42624">
        <ele>1819</ele>
        <time>2021-08-13T08:17:41.174Z</time>
      </trkpt>
      <trkpt lat="46.84257" lon="8.42623">
        <ele>1819</ele>
        <time>2021-08-13T08:17:42.174Z</time>
      </trkpt>
      <trkpt lat="46.84257" lon="8.42623">
        <ele>1818</ele>
        <time>2021-08-13T08:17:43.173Z</time>
      </trkpt>
      <trkpt lat="46.84256" lon="8.42622">
        <ele>1818</ele>
        <time>2021-08-13T08:17:44.174Z</time>
      </trkpt>
      <trkpt lat="46.84256" lon="8.42622">
        <ele>1818</ele>
        <time>2021-08-13T08:17:45.173Z</time>
      </trkpt>
      <trkpt lat="46.84255" lon="8.42621">
        <ele>1818</ele>
        <time>2021-08-13T08:17:46.173Z</time>
      </trkpt>
      <trkpt lat="46.84255" lon="8.42621">
        <ele>1818</ele>
        <time>2021-08-13T08:17:47.174Z</time>
      </trkpt>
      <trkpt lat="46.84254" lon="8.42621">
        <ele>1817</ele>
        <time>2021-08-13T08:17:48.174Z</time>
      </trkpt>
      <trkpt lat="46.84254" lon="8.42621">
        <ele>1817</ele>
        <time>2021-08-13T08:17:49.174Z</time>
      </trkpt>
      <trkpt lat="46.84253" lon="8.4262">
        <ele>1818</ele>
        <time>2021-08-13T08:17:50.174Z</time>
      </trkpt>
      <trkpt lat="46.84252" lon="8.42619">
        <ele>1818</ele>
        <time>2021-08-13T08:17:51.173Z</time>
      </trkpt>
      <trkpt lat="46.84252" lon="8.42618">
        <ele>1818</ele>
        <time>2021-08-13T08:17:52.173Z</time>
      </trkpt>
      <trkpt lat="46.84251" lon="8.42618">
        <ele>1818</ele>
        <time>2021-08-13T08:17:53.174Z</time>
      </trkpt>
      <trkpt lat="46.8425" lon="8.42617">
        <ele>1818</ele>
        <time>2021-08-13T08:17:54.174Z</time>
      </trkpt>
      <trkpt lat="46.8425" lon="8.42617">
        <ele>1818</ele>
        <time>2021-08-13T08:17:55.174Z</time>
      </trkpt>
      <trkpt lat="46.84249" lon="8.42616">
        <ele>1817</ele>
        <time>2021-08-13T08:17:56.173Z</time>
      </trkpt>
      <trkpt lat="46.84248" lon="8.42616">
        <ele>1817</ele>
        <time>2021-08-13T08:17:57.174Z</time>
      </trkpt>
      <trkpt lat="46.84247" lon="8.42615">
        <ele>1817</ele>
        <time>2021-08-13T08:17:58.174Z</time>
      </trkpt>
      <trkpt lat="46.84247" lon="8.42615">
        <ele>1817</ele>
        <time>2021-08-13T08:17:59.174Z</time>
      </trkpt>
      <trkpt lat="46.84247" lon="8.42614">
        <ele>1818</ele>
        <time>2021-08-13T08:18:00.174Z</time>
      </trkpt>
      <trkpt lat="46.84247" lon="8.42614">
        <ele>1818</ele>
        <time>2021-08-13T08:18:01.173Z</time>
      </trkpt>
      <trkpt lat="46.84246" lon="8.42613">
        <ele>1818</ele>
        <time>2021-08-13T08:18:02.174Z</time>
      </trkpt>
      <trkpt lat="46.84246" lon="8.42612">
        <ele>1817</ele>
        <time>2021-08-13T08:18:03.174Z</time>
      </trkpt>
      <trkpt lat="46.84244" lon="8.42611">
        <ele>1817</ele>
        <time>2021-08-13T08:18:04.173Z</time>
      </trkpt>
      <trkpt lat="46.84243" lon="8.42609">
        <ele>1817</ele>
        <time>2021-08-13T08:18:05.174Z</time>
      </trkpt>
      <trkpt lat="46.84243" lon="8.42608">
        <ele>1816</ele>
        <time>2021-08-13T08:18:06.174Z</time>
      </trkpt>
      <trkpt lat="46.84242" lon="8.42607">
        <ele>1816</ele>
        <time>2021-08-13T08:18:07.173Z</time>
      </trkpt>
      <trkpt lat="46.84242" lon="8.42607">
        <ele>1816</ele>
        <time>2021-08-13T08:18:08.173Z</time>
      </trkpt>
      <trkpt lat="46.84242" lon="8.42606">
        <ele>1815</ele>
        <time>2021-08-13T08:18:09.174Z</time>
      </trkpt>
      <trkpt lat="46.84241" lon="8.42605">
        <ele>1815</ele>
        <time>2021-08-13T08:18:10.173Z</time>
      </trkpt>
      <trkpt lat="46.84241" lon="8.42604">
        <ele>1814</ele>
        <time>2021-08-13T08:18:11.173Z</time>
      </trkpt>
      <trkpt lat="46.8424" lon="8.42603">
        <ele>1814</ele>
        <time>2021-08-13T08:18:12.174Z</time>
      </trkpt>
      <trkpt lat="46.84238" lon="8.42602">
        <ele>1814</ele>
        <time>2021-08-13T08:18:13.174Z</time>
      </trkpt>
      <trkpt lat="46.84237" lon="8.426">
        <ele>1813</ele>
        <time>2021-08-13T08:18:14.173Z</time>
      </trkpt>
      <trkpt lat="46.84236" lon="8.42599">
        <ele>1813</ele>
        <time>2021-08-13T08:18:15.174Z</time>
      </trkpt>
      <trkpt lat="46.84235" lon="8.42598">
        <ele>1812</ele>
        <time>2021-08-13T08:18:16.174Z</time>
      </trkpt>
      <trkpt lat="46.84234" lon="8.42596">
        <ele>1812</ele>
        <time>2021-08-13T08:18:17.174Z</time>
      </trkpt>
      <trkpt lat="46.84233" lon="8.42595">
        <ele>1812</ele>
        <time>2021-08-13T08:18:18.174Z</time>
      </trkpt>
      <trkpt lat="46.84232" lon="8.42593">
        <ele>1812</ele>
        <time>2021-08-13T08:18:19.174Z</time>
      </trkpt>
      <trkpt lat="46.84231" lon="8.42592">
        <ele>1811</ele>
        <time>2021-08-13T08:18:20.174Z</time>
      </trkpt>
      <trkpt lat="46.8423" lon="8.42591">
        <ele>1811</ele>
        <time>2021-08-13T08:18:21.173Z</time>
      </trkpt>
      <trkpt lat="46.84229" lon="8.42589">
        <ele>1810</ele>
        <time>2021-08-13T08:18:22.173Z</time>
      </trkpt>
      <trkpt lat="46.84227" lon="8.42588">
        <ele>1810</ele>
        <time>2021-08-13T08:18:23.174Z</time>
      </trkpt>
      <trkpt lat="46.84226" lon="8.42588">
        <ele>1810</ele>
        <time>2021-08-13T08:18:24.173Z</time>
      </trkpt>
      <trkpt lat="46.84225" lon="8.42587">
        <ele>1810</ele>
        <time>2021-08-13T08:18:25.173Z</time>
      </trkpt>
      <trkpt lat="46.84224" lon="8.42587">
        <ele>1810</ele>
        <time>2021-08-13T08:18:26.173Z</time>
      </trkpt>
      <trkpt lat="46.84224" lon="8.42586">
        <ele>1810</ele>
        <time>2021-08-13T08:18:27.174Z</time>
      </trkpt>
      <trkpt lat="46.84223" lon="8.42584">
        <ele>1810</ele>
        <time>2021-08-13T08:18:28.174Z</time>
      </trkpt>
      <trkpt lat="46.84222" lon="8.42583">
        <ele>1810</ele>
        <time>2021-08-13T08:18:29.174Z</time>
      </trkpt>
      <trkpt lat="46.84221" lon="8.42581">
        <ele>1811</ele>
        <time>2021-08-13T08:18:30.173Z</time>
      </trkpt>
      <trkpt lat="46.8422" lon="8.4258">
        <ele>1811</ele>
        <time>2021-08-13T08:18:31.174Z</time>
      </trkpt>
      <trkpt lat="46.84219" lon="8.42579">
        <ele>1811</ele>
        <time>2021-08-13T08:18:32.174Z</time>
      </trkpt>
      <trkpt lat="46.84219" lon="8.42578">
        <ele>1811</ele>
        <time>2021-08-13T08:18:33.174Z</time>
      </trkpt>
      <trkpt lat="46.84218" lon="8.42577">
        <ele>1811</ele>
        <time>2021-08-13T08:18:34.174Z</time>
      </trkpt>
      <trkpt lat="46.84217" lon="8.42576">
        <ele>1811</ele>
        <time>2021-08-13T08:18:35.174Z</time>
      </trkpt>
      <trkpt lat="46.84216" lon="8.42575">
        <ele>1811</ele>
        <time>2021-08-13T08:18:36.174Z</time>
      </trkpt>
      <trkpt lat="46.84215" lon="8.42574">
        <ele>1811</ele>
        <time>2021-08-13T08:18:37.173Z</time>
      </trkpt>
      <trkpt lat="46.84214" lon="8.42574">
        <ele>1811</ele>
        <time>2021-08-13T08:18:38.173Z</time>
      </trkpt>
      <trkpt lat="46.84213" lon="8.42573">
        <ele>1811</ele>
        <time>2021-08-13T08:18:39.174Z</time>
      </trkpt>
      <trkpt lat="46.84212" lon="8.42572">
        <ele>1810</ele>
        <time>2021-08-13T08:18:40.174Z</time>
      </trkpt>
      <trkpt lat="46.84211" lon="8.42571">
        <ele>1810</ele>
        <time>2021-08-13T08:18:41.174Z</time>
      </trkpt>
      <trkpt lat="46.8421" lon="8.4257">
        <ele>1810</ele>
        <time>2021-08-13T08:18:42.174Z</time>
      </trkpt>
      <trkpt lat="46.84209" lon="8.42569">
        <ele>1809</ele>
        <time>2021-08-13T08:18:43.173Z</time>
      </trkpt>
      <trkpt lat="46.84209" lon="8.42568">
        <ele>1809</ele>
        <time>2021-08-13T08:18:44.173Z</time>
      </trkpt>
      <trkpt lat="46.84208" lon="8.42567">
        <ele>1809</ele>
        <time>2021-08-13T08:18:45.173Z</time>
      </trkpt>
      <trkpt lat="46.84207" lon="8.42565">
        <ele>1808</ele>
        <time>2021-08-13T08:18:46.173Z</time>
      </trkpt>
      <trkpt lat="46.84206" lon="8.42564">
        <ele>1808</ele>
        <time>2021-08-13T08:18:47.173Z</time>
      </trkpt>
      <trkpt lat="46.84205" lon="8.42564">
        <ele>1807</ele>
        <time>2021-08-13T08:18:48.173Z</time>
      </trkpt>
      <trkpt lat="46.84204" lon="8.42563">
        <ele>1807</ele>
        <time>2021-08-13T08:18:49.173Z</time>
      </trkpt>
      <trkpt lat="46.84204" lon="8.42563">
        <ele>1807</ele>
        <time>2021-08-13T08:18:50.173Z</time>
      </trkpt>
      <trkpt lat="46.84203" lon="8.42561">
        <ele>1807</ele>
        <time>2021-08-13T08:18:51.173Z</time>
      </trkpt>
      <trkpt lat="46.84202" lon="8.4256">
        <ele>1807</ele>
        <time>2021-08-13T08:18:52.174Z</time>
      </trkpt>
      <trkpt lat="46.84201" lon="8.4256">
        <ele>1806</ele>
        <time>2021-08-13T08:18:53.174Z</time>
      </trkpt>
      <trkpt lat="46.842" lon="8.42558">
        <ele>1806</ele>
        <time>2021-08-13T08:18:54.174Z</time>
      </trkpt>
      <trkpt lat="46.84199" lon="8.42557">
        <ele>1805</ele>
        <time>2021-08-13T08:18:55.174Z</time>
      </trkpt>
      <trkpt lat="46.84198" lon="8.42556">
        <ele>1805</ele>
        <time>2021-08-13T08:18:56.173Z</time>
      </trkpt>
      <trkpt lat="46.84197" lon="8.42554">
        <ele>1804</ele>
        <time>2021-08-13T08:18:57.174Z</time>
      </trkpt>
      <trkpt lat="46.84196" lon="8.42553">
        <ele>1804</ele>
        <time>2021-08-13T08:18:58.173Z</time>
      </trkpt>
      <trkpt lat="46.84195" lon="8.42551">
        <ele>1804</ele>
        <time>2021-08-13T08:18:59.174Z</time>
      </trkpt>
      <trkpt lat="46.84194" lon="8.4255">
        <ele>1804</ele>
        <time>2021-08-13T08:19:00.173Z</time>
      </trkpt>
      <trkpt lat="46.84193" lon="8.42549">
        <ele>1804</ele>
        <time>2021-08-13T08:19:01.173Z</time>
      </trkpt>
      <trkpt lat="46.84191" lon="8.42548">
        <ele>1804</ele>
        <time>2021-08-13T08:19:02.173Z</time>
      </trkpt>
      <trkpt lat="46.8419" lon="8.42546">
        <ele>1804</ele>
        <time>2021-08-13T08:19:03.173Z</time>
      </trkpt>
      <trkpt lat="46.84189" lon="8.42545">
        <ele>1804</ele>
        <time>2021-08-13T08:19:04.174Z</time>
      </trkpt>
      <trkpt lat="46.84188" lon="8.42544">
        <ele>1804</ele>
        <time>2021-08-13T08:19:05.174Z</time>
      </trkpt>
      <trkpt lat="46.84187" lon="8.42543">
        <ele>1804</ele>
        <time>2021-08-13T08:19:06.174Z</time>
      </trkpt>
      <trkpt lat="46.84185" lon="8.42541">
        <ele>1804</ele>
        <time>2021-08-13T08:19:07.173Z</time>
      </trkpt>
      <trkpt lat="46.84185" lon="8.4254">
        <ele>1804</ele>
        <time>2021-08-13T08:19:08.174Z</time>
      </trkpt>
      <trkpt lat="46.84184" lon="8.42539">
        <ele>1804</ele>
        <time>2021-08-13T08:19:09.173Z</time>
      </trkpt>
      <trkpt lat="46.84183" lon="8.42538">
        <ele>1803</ele>
        <time>2021-08-13T08:19:10.173Z</time>
      </trkpt>
      <trkpt lat="46.84182" lon="8.42537">
        <ele>1802</ele>
        <time>2021-08-13T08:19:11.174Z</time>
      </trkpt>
      <trkpt lat="46.84181" lon="8.42536">
        <ele>1801</ele>
        <time>2021-08-13T08:19:12.174Z</time>
      </trkpt>
      <trkpt lat="46.8418" lon="8.42536">
        <ele>1801</ele>
        <time>2021-08-13T08:19:13.173Z</time>
      </trkpt>
      <trkpt lat="46.84179" lon="8.42535">
        <ele>1800</ele>
        <time>2021-08-13T08:19:14.173Z</time>
      </trkpt>
      <trkpt lat="46.84178" lon="8.42533">
        <ele>1800</ele>
        <time>2021-08-13T08:19:15.173Z</time>
      </trkpt>
      <trkpt lat="46.84177" lon="8.42532">
        <ele>1799</ele>
        <time>2021-08-13T08:19:16.174Z</time>
      </trkpt>
      <trkpt lat="46.84176" lon="8.42531">
        <ele>1799</ele>
        <time>2021-08-13T08:19:17.173Z</time>
      </trkpt>
      <trkpt lat="46.84175" lon="8.4253">
        <ele>1799</ele>
        <time>2021-08-13T08:19:18.174Z</time>
      </trkpt>
      <trkpt lat="46.84174" lon="8.42529">
        <ele>1799</ele>
        <time>2021-08-13T08:19:19.174Z</time>
      </trkpt>
      <trkpt lat="46.84174" lon="8.42528">
        <ele>1799</ele>
        <time>2021-08-13T08:19:20.174Z</time>
      </trkpt>
      <trkpt lat="46.84173" lon="8.42527">
        <ele>1798</ele>
        <time>2021-08-13T08:19:21.173Z</time>
      </trkpt>
      <trkpt lat="46.84172" lon="8.42526">
        <ele>1798</ele>
        <time>2021-08-13T08:19:22.173Z</time>
      </trkpt>
      <trkpt lat="46.84172" lon="8.42525">
        <ele>1798</ele>
        <time>2021-08-13T08:19:23.174Z</time>
      </trkpt>
      <trkpt lat="46.84171" lon="8.42524">
        <ele>1799</ele>
        <time>2021-08-13T08:19:24.173Z</time>
      </trkpt>
      <trkpt lat="46.84171" lon="8.42523">
        <ele>1799</ele>
        <time>2021-08-13T08:19:25.173Z</time>
      </trkpt>
      <trkpt lat="46.8417" lon="8.42521">
        <ele>1799</ele>
        <time>2021-08-13T08:19:26.174Z</time>
      </trkpt>
      <trkpt lat="46.8417" lon="8.4252">
        <ele>1799</ele>
        <time>2021-08-13T08:19:27.173Z</time>
      </trkpt>
      <trkpt lat="46.8417" lon="8.42518">
        <ele>1799</ele>
        <time>2021-08-13T08:19:28.174Z</time>
      </trkpt>
      <trkpt lat="46.84171" lon="8.42517">
        <ele>1799</ele>
        <time>2021-08-13T08:19:29.174Z</time>
      </trkpt>
      <trkpt lat="46.84171" lon="8.42515">
        <ele>1799</ele>
        <time>2021-08-13T08:19:30.173Z</time>
      </trkpt>
      <trkpt lat="46.84171" lon="8.42513">
        <ele>1798</ele>
        <time>2021-08-13T08:19:31.174Z</time>
      </trkpt>
      <trkpt lat="46.84171" lon="8.42511">
        <ele>1798</ele>
        <time>2021-08-13T08:19:32.174Z</time>
      </trkpt>
      <trkpt lat="46.84171" lon="8.4251">
        <ele>1798</ele>
        <time>2021-08-13T08:19:33.174Z</time>
      </trkpt>
      <trkpt lat="46.84171" lon="8.42508">
        <ele>1798</ele>
        <time>2021-08-13T08:19:34.173Z</time>
      </trkpt>
      <trkpt lat="46.84172" lon="8.42506">
        <ele>1798</ele>
        <time>2021-08-13T08:19:35.173Z</time>
      </trkpt>
      <trkpt lat="46.84172" lon="8.42505">
        <ele>1798</ele>
        <time>2021-08-13T08:19:36.174Z</time>
      </trkpt>
      <trkpt lat="46.84172" lon="8.42504">
        <ele>1798</ele>
        <time>2021-08-13T08:19:37.174Z</time>
      </trkpt>
      <trkpt lat="46.84173" lon="8.42503">
        <ele>1798</ele>
        <time>2021-08-13T08:19:38.173Z</time>
      </trkpt>
      <trkpt lat="46.84173" lon="8.42501">
        <ele>1798</ele>
        <time>2021-08-13T08:19:39.173Z</time>
      </trkpt>
      <trkpt lat="46.84173" lon="8.425">
        <ele>1798</ele>
        <time>2021-08-13T08:19:40.174Z</time>
      </trkpt>
      <trkpt lat="46.84173" lon="8.42498">
        <ele>1798</ele>
        <time>2021-08-13T08:19:41.173Z</time>
      </trkpt>
      <trkpt lat="46.84174" lon="8.42496">
        <ele>1798</ele>
        <time>2021-08-13T08:19:42.173Z</time>
      </trkpt>
      <trkpt lat="46.84174" lon="8.42495">
        <ele>1798</ele>
        <time>2021-08-13T08:19:43.173Z</time>
      </trkpt>
      <trkpt lat="46.84174" lon="8.42493">
        <ele>1798</ele>
        <time>2021-08-13T08:19:44.173Z</time>
      </trkpt>
      <trkpt lat="46.84174" lon="8.42492">
        <ele>1798</ele>
        <time>2021-08-13T08:19:45.173Z</time>
      </trkpt>
      <trkpt lat="46.84174" lon="8.4249">
        <ele>1797</ele>
        <time>2021-08-13T08:19:46.173Z</time>
      </trkpt>
      <trkpt lat="46.84174" lon="8.42488">
        <ele>1797</ele>
        <time>2021-08-13T08:19:47.173Z</time>
      </trkpt>
      <trkpt lat="46.84173" lon="8.42486">
        <ele>1796</ele>
        <time>2021-08-13T08:19:48.173Z</time>
      </trkpt>
      <trkpt lat="46.84173" lon="8.42484">
        <ele>1796</ele>
        <time>2021-08-13T08:19:49.174Z</time>
      </trkpt>
      <trkpt lat="46.84172" lon="8.42483">
        <ele>1796</ele>
        <time>2021-08-13T08:19:50.174Z</time>
      </trkpt>
      <trkpt lat="46.84171" lon="8.42481">
        <ele>1796</ele>
        <time>2021-08-13T08:19:51.174Z</time>
      </trkpt>
      <trkpt lat="46.84171" lon="8.42479">
        <ele>1795</ele>
        <time>2021-08-13T08:19:52.174Z</time>
      </trkpt>
      <trkpt lat="46.84171" lon="8.42477">
        <ele>1795</ele>
        <time>2021-08-13T08:19:53.174Z</time>
      </trkpt>
      <trkpt lat="46.84171" lon="8.42476">
        <ele>1795</ele>
        <time>2021-08-13T08:19:54.174Z</time>
      </trkpt>
      <trkpt lat="46.8417" lon="8.42475">
        <ele>1795</ele>
        <time>2021-08-13T08:19:55.174Z</time>
      </trkpt>
      <trkpt lat="46.8417" lon="8.42474">
        <ele>1794</ele>
        <time>2021-08-13T08:19:56.174Z</time>
      </trkpt>
      <trkpt lat="46.84169" lon="8.42473">
        <ele>1794</ele>
        <time>2021-08-13T08:19:57.174Z</time>
      </trkpt>
      <trkpt lat="46.84168" lon="8.42471">
        <ele>1794</ele>
        <time>2021-08-13T08:19:58.174Z</time>
      </trkpt>
      <trkpt lat="46.84166" lon="8.42469">
        <ele>1794</ele>
        <time>2021-08-13T08:19:59.173Z</time>
      </trkpt>
      <trkpt lat="46.84165" lon="8.42468">
        <ele>1794</ele>
        <time>2021-08-13T08:20:00.173Z</time>
      </trkpt>
      <trkpt lat="46.84164" lon="8.42467">
        <ele>1794</ele>
        <time>2021-08-13T08:20:01.174Z</time>
      </trkpt>
      <trkpt lat="46.84163" lon="8.42465">
        <ele>1794</ele>
        <time>2021-08-13T08:20:02.174Z</time>
      </trkpt>
      <trkpt lat="46.84162" lon="8.42464">
        <ele>1794</ele>
        <time>2021-08-13T08:20:03.174Z</time>
      </trkpt>
      <trkpt lat="46.84161" lon="8.42463">
        <ele>1793</ele>
        <time>2021-08-13T08:20:04.174Z</time>
      </trkpt>
      <trkpt lat="46.8416" lon="8.42462">
        <ele>1793</ele>
        <time>2021-08-13T08:20:05.173Z</time>
      </trkpt>
      <trkpt lat="46.84159" lon="8.42461">
        <ele>1792</ele>
        <time>2021-08-13T08:20:06.174Z</time>
      </trkpt>
      <trkpt lat="46.84158" lon="8.42461">
        <ele>1791</ele>
        <time>2021-08-13T08:20:07.173Z</time>
      </trkpt>
      <trkpt lat="46.84158" lon="8.42461">
        <ele>1791</ele>
        <time>2021-08-13T08:20:08.173Z</time>
      </trkpt>
      <trkpt lat="46.84157" lon="8.42461">
        <ele>1791</ele>
        <time>2021-08-13T08:20:09.174Z</time>
      </trkpt>
      <trkpt lat="46.84157" lon="8.42461">
        <ele>1790</ele>
        <time>2021-08-13T08:20:10.173Z</time>
      </trkpt>
      <trkpt lat="46.84156" lon="8.4246">
        <ele>1790</ele>
        <time>2021-08-13T08:20:11.174Z</time>
      </trkpt>
      <trkpt lat="46.84155" lon="8.42459">
        <ele>1790</ele>
        <time>2021-08-13T08:20:12.174Z</time>
      </trkpt>
      <trkpt lat="46.84155" lon="8.42458">
        <ele>1790</ele>
        <time>2021-08-13T08:20:13.174Z</time>
      </trkpt>
      <trkpt lat="46.84153" lon="8.42457">
        <ele>1790</ele>
        <time>2021-08-13T08:20:14.174Z</time>
      </trkpt>
      <trkpt lat="46.84152" lon="8.42456">
        <ele>1790</ele>
        <time>2021-08-13T08:20:15.173Z</time>
      </trkpt>
      <trkpt lat="46.84151" lon="8.42455">
        <ele>1790</ele>
        <time>2021-08-13T08:20:16.174Z</time>
      </trkpt>
      <trkpt lat="46.8415" lon="8.42454">
        <ele>1791</ele>
        <time>2021-08-13T08:20:17.174Z</time>
      </trkpt>
      <trkpt lat="46.84149" lon="8.42453">
        <ele>1791</ele>
        <time>2021-08-13T08:20:18.174Z</time>
      </trkpt>
      <trkpt lat="46.84148" lon="8.42452">
        <ele>1791</ele>
        <time>2021-08-13T08:20:19.174Z</time>
      </trkpt>
      <trkpt lat="46.84147" lon="8.42451">
        <ele>1791</ele>
        <time>2021-08-13T08:20:20.174Z</time>
      </trkpt>
      <trkpt lat="46.84145" lon="8.4245">
        <ele>1791</ele>
        <time>2021-08-13T08:20:21.174Z</time>
      </trkpt>
      <trkpt lat="46.84144" lon="8.42449">
        <ele>1791</ele>
        <time>2021-08-13T08:20:22.173Z</time>
      </trkpt>
      <trkpt lat="46.84143" lon="8.42448">
        <ele>1791</ele>
        <time>2021-08-13T08:20:23.174Z</time>
      </trkpt>
      <trkpt lat="46.84143" lon="8.42447">
        <ele>1790</ele>
        <time>2021-08-13T08:20:24.173Z</time>
      </trkpt>
      <trkpt lat="46.84142" lon="8.42446">
        <ele>1790</ele>
        <time>2021-08-13T08:20:25.174Z</time>
      </trkpt>
      <trkpt lat="46.84141" lon="8.42446">
        <ele>1789</ele>
        <time>2021-08-13T08:20:26.173Z</time>
      </trkpt>
      <trkpt lat="46.8414" lon="8.42445">
        <ele>1789</ele>
        <time>2021-08-13T08:20:27.173Z</time>
      </trkpt>
      <trkpt lat="46.84139" lon="8.42443">
        <ele>1789</ele>
        <time>2021-08-13T08:20:28.173Z</time>
      </trkpt>
      <trkpt lat="46.84138" lon="8.42442">
        <ele>1789</ele>
        <time>2021-08-13T08:20:29.173Z</time>
      </trkpt>
      <trkpt lat="46.84136" lon="8.42441">
        <ele>1789</ele>
        <time>2021-08-13T08:20:30.173Z</time>
      </trkpt>
      <trkpt lat="46.84135" lon="8.4244">
        <ele>1788</ele>
        <time>2021-08-13T08:20:31.174Z</time>
      </trkpt>
      <trkpt lat="46.84135" lon="8.42439">
        <ele>1788</ele>
        <time>2021-08-13T08:20:32.174Z</time>
      </trkpt>
      <trkpt lat="46.84134" lon="8.42437">
        <ele>1788</ele>
        <time>2021-08-13T08:20:33.173Z</time>
      </trkpt>
      <trkpt lat="46.84133" lon="8.42436">
        <ele>1787</ele>
        <time>2021-08-13T08:20:34.174Z</time>
      </trkpt>
      <trkpt lat="46.84132" lon="8.42435">
        <ele>1787</ele>
        <time>2021-08-13T08:20:35.173Z</time>
      </trkpt>
      <trkpt lat="46.84131" lon="8.42433">
        <ele>1787</ele>
        <time>2021-08-13T08:20:36.173Z</time>
      </trkpt>
      <trkpt lat="46.8413" lon="8.42432">
        <ele>1786</ele>
        <time>2021-08-13T08:20:37.173Z</time>
      </trkpt>
      <trkpt lat="46.84129" lon="8.42431">
        <ele>1786</ele>
        <time>2021-08-13T08:20:38.173Z</time>
      </trkpt>
      <trkpt lat="46.84128" lon="8.4243">
        <ele>1787</ele>
        <time>2021-08-13T08:20:39.174Z</time>
      </trkpt>
      <trkpt lat="46.84127" lon="8.42429">
        <ele>1787</ele>
        <time>2021-08-13T08:20:40.174Z</time>
      </trkpt>
      <trkpt lat="46.84126" lon="8.42427">
        <ele>1787</ele>
        <time>2021-08-13T08:20:41.173Z</time>
      </trkpt>
      <trkpt lat="46.84125" lon="8.42426">
        <ele>1788</ele>
        <time>2021-08-13T08:20:42.173Z</time>
      </trkpt>
      <trkpt lat="46.84124" lon="8.42424">
        <ele>1788</ele>
        <time>2021-08-13T08:20:43.174Z</time>
      </trkpt>
      <trkpt lat="46.84123" lon="8.42423">
        <ele>1789</ele>
        <time>2021-08-13T08:20:44.174Z</time>
      </trkpt>
      <trkpt lat="46.84122" lon="8.42422">
        <ele>1789</ele>
        <time>2021-08-13T08:20:45.174Z</time>
      </trkpt>
      <trkpt lat="46.84122" lon="8.4242">
        <ele>1789</ele>
        <time>2021-08-13T08:20:46.173Z</time>
      </trkpt>
      <trkpt lat="46.84121" lon="8.42419">
        <ele>1789</ele>
        <time>2021-08-13T08:20:47.173Z</time>
      </trkpt>
      <trkpt lat="46.8412" lon="8.42418">
        <ele>1789</ele>
        <time>2021-08-13T08:20:48.173Z</time>
      </trkpt>
      <trkpt lat="46.8412" lon="8.42416">
        <ele>1789</ele>
        <time>2021-08-13T08:20:49.173Z</time>
      </trkpt>
      <trkpt lat="46.84119" lon="8.42415">
        <ele>1789</ele>
        <time>2021-08-13T08:20:50.173Z</time>
      </trkpt>
      <trkpt lat="46.84118" lon="8.42413">
        <ele>1789</ele>
        <time>2021-08-13T08:20:51.174Z</time>
      </trkpt>
      <trkpt lat="46.84118" lon="8.42412">
        <ele>1789</ele>
        <time>2021-08-13T08:20:52.174Z</time>
      </trkpt>
      <trkpt lat="46.84118" lon="8.4241">
        <ele>1789</ele>
        <time>2021-08-13T08:20:53.174Z</time>
      </trkpt>
      <trkpt lat="46.84118" lon="8.42409">
        <ele>1788</ele>
        <time>2021-08-13T08:20:54.174Z</time>
      </trkpt>
      <trkpt lat="46.84117" lon="8.42408">
        <ele>1788</ele>
        <time>2021-08-13T08:20:55.173Z</time>
      </trkpt>
      <trkpt lat="46.84117" lon="8.42406">
        <ele>1788</ele>
        <time>2021-08-13T08:20:56.174Z</time>
      </trkpt>
      <trkpt lat="46.84116" lon="8.42405">
        <ele>1788</ele>
        <time>2021-08-13T08:20:57.174Z</time>
      </trkpt>
      <trkpt lat="46.84116" lon="8.42403">
        <ele>1787</ele>
        <time>2021-08-13T08:20:58.173Z</time>
      </trkpt>
      <trkpt lat="46.84115" lon="8.42401">
        <ele>1787</ele>
        <time>2021-08-13T08:20:59.174Z</time>
      </trkpt>
      <trkpt lat="46.84115" lon="8.42399">
        <ele>1787</ele>
        <time>2021-08-13T08:21:00.174Z</time>
      </trkpt>
      <trkpt lat="46.84114" lon="8.42398">
        <ele>1788</ele>
        <time>2021-08-13T08:21:01.174Z</time>
      </trkpt>
      <trkpt lat="46.84114" lon="8.42396">
        <ele>1788</ele>
        <time>2021-08-13T08:21:02.174Z</time>
      </trkpt>
      <trkpt lat="46.84113" lon="8.42394">
        <ele>1787</ele>
        <time>2021-08-13T08:21:03.174Z</time>
      </trkpt>
      <trkpt lat="46.84113" lon="8.42392">
        <ele>1787</ele>
        <time>2021-08-13T08:21:04.174Z</time>
      </trkpt>
      <trkpt lat="46.84113" lon="8.42391">
        <ele>1787</ele>
        <time>2021-08-13T08:21:05.174Z</time>
      </trkpt>
      <trkpt lat="46.84112" lon="8.4239">
        <ele>1786</ele>
        <time>2021-08-13T08:21:06.174Z</time>
      </trkpt>
      <trkpt lat="46.84112" lon="8.42389">
        <ele>1786</ele>
        <time>2021-08-13T08:21:07.173Z</time>
      </trkpt>
      <trkpt lat="46.84111" lon="8.42388">
        <ele>1786</ele>
        <time>2021-08-13T08:21:08.174Z</time>
      </trkpt>
      <trkpt lat="46.84111" lon="8.42386">
        <ele>1785</ele>
        <time>2021-08-13T08:21:09.173Z</time>
      </trkpt>
      <trkpt lat="46.8411" lon="8.42385">
        <ele>1785</ele>
        <time>2021-08-13T08:21:10.174Z</time>
      </trkpt>
      <trkpt lat="46.84109" lon="8.42383">
        <ele>1785</ele>
        <time>2021-08-13T08:21:11.174Z</time>
      </trkpt>
      <trkpt lat="46.84108" lon="8.42382">
        <ele>1785</ele>
        <time>2021-08-13T08:21:12.173Z</time>
      </trkpt>
      <trkpt lat="46.84107" lon="8.42381">
        <ele>1785</ele>
        <time>2021-08-13T08:21:13.174Z</time>
      </trkpt>
      <trkpt lat="46.84106" lon="8.4238">
        <ele>1784</ele>
        <time>2021-08-13T08:21:14.174Z</time>
      </trkpt>
      <trkpt lat="46.84106" lon="8.42379">
        <ele>1783</ele>
        <time>2021-08-13T08:21:15.174Z</time>
      </trkpt>
      <trkpt lat="46.84105" lon="8.42378">
        <ele>1783</ele>
        <time>2021-08-13T08:21:16.174Z</time>
      </trkpt>
      <trkpt lat="46.84104" lon="8.42377">
        <ele>1783</ele>
        <time>2021-08-13T08:21:17.173Z</time>
      </trkpt>
      <trkpt lat="46.84103" lon="8.42376">
        <ele>1783</ele>
        <time>2021-08-13T08:21:18.174Z</time>
      </trkpt>
      <trkpt lat="46.84102" lon="8.42376">
        <ele>1783</ele>
        <time>2021-08-13T08:21:19.174Z</time>
      </trkpt>
      <trkpt lat="46.84102" lon="8.42375">
        <ele>1783</ele>
        <time>2021-08-13T08:21:20.174Z</time>
      </trkpt>
      <trkpt lat="46.84101" lon="8.42375">
        <ele>1784</ele>
        <time>2021-08-13T08:21:21.174Z</time>
      </trkpt>
      <trkpt lat="46.84101" lon="8.42375">
        <ele>1783</ele>
        <time>2021-08-13T08:21:22.174Z</time>
      </trkpt>
      <trkpt lat="46.84101" lon="8.42374">
        <ele>1784</ele>
        <time>2021-08-13T08:21:23.175Z</time>
      </trkpt>
      <trkpt lat="46.841" lon="8.42374">
        <ele>1783</ele>
        <time>2021-08-13T08:21:24.175Z</time>
      </trkpt>
      <trkpt lat="46.841" lon="8.42374">
        <ele>1783</ele>
        <time>2021-08-13T08:21:25.174Z</time>
      </trkpt>
      <trkpt lat="46.84099" lon="8.42373">
        <ele>1782</ele>
        <time>2021-08-13T08:21:26.174Z</time>
      </trkpt>
      <trkpt lat="46.84098" lon="8.42373">
        <ele>1781</ele>
        <time>2021-08-13T08:21:27.175Z</time>
      </trkpt>
      <trkpt lat="46.84097" lon="8.42372">
        <ele>1781</ele>
        <time>2021-08-13T08:21:28.174Z</time>
      </trkpt>
      <trkpt lat="46.84096" lon="8.42371">
        <ele>1781</ele>
        <time>2021-08-13T08:21:29.175Z</time>
      </trkpt>
      <trkpt lat="46.84094" lon="8.4237">
        <ele>1780</ele>
        <time>2021-08-13T08:21:30.175Z</time>
      </trkpt>
      <trkpt lat="46.84093" lon="8.4237">
        <ele>1779</ele>
        <time>2021-08-13T08:21:31.175Z</time>
      </trkpt>
      <trkpt lat="46.84093" lon="8.4237">
        <ele>1779</ele>
        <time>2021-08-13T08:21:32.175Z</time>
      </trkpt>
      <trkpt lat="46.84092" lon="8.42369">
        <ele>1779</ele>
        <time>2021-08-13T08:21:33.174Z</time>
      </trkpt>
      <trkpt lat="46.84091" lon="8.42369">
        <ele>1779</ele>
        <time>2021-08-13T08:21:34.175Z</time>
      </trkpt>
      <trkpt lat="46.8409" lon="8.42369">
        <ele>1779</ele>
        <time>2021-08-13T08:21:35.175Z</time>
      </trkpt>
      <trkpt lat="46.84089" lon="8.4237">
        <ele>1779</ele>
        <time>2021-08-13T08:21:36.175Z</time>
      </trkpt>
      <trkpt lat="46.84088" lon="8.4237">
        <ele>1779</ele>
        <time>2021-08-13T08:21:37.174Z</time>
      </trkpt>
      <trkpt lat="46.84087" lon="8.42369">
        <ele>1779</ele>
        <time>2021-08-13T08:21:38.175Z</time>
      </trkpt>
      <trkpt lat="46.84086" lon="8.42369">
        <ele>1779</ele>
        <time>2021-08-13T08:21:39.174Z</time>
      </trkpt>
      <trkpt lat="46.84085" lon="8.42368">
        <ele>1779</ele>
        <time>2021-08-13T08:21:40.174Z</time>
      </trkpt>
      <trkpt lat="46.84083" lon="8.42368">
        <ele>1780</ele>
        <time>2021-08-13T08:21:41.174Z</time>
      </trkpt>
      <trkpt lat="46.84082" lon="8.42367">
        <ele>1779</ele>
        <time>2021-08-13T08:21:42.175Z</time>
      </trkpt>
      <trkpt lat="46.8408" lon="8.42367">
        <ele>1779</ele>
        <time>2021-08-13T08:21:43.174Z</time>
      </trkpt>
      <trkpt lat="46.84079" lon="8.42366">
        <ele>1779</ele>
        <time>2021-08-13T08:21:44.174Z</time>
      </trkpt>
      <trkpt lat="46.84077" lon="8.42365">
        <ele>1779</ele>
        <time>2021-08-13T08:21:45.174Z</time>
      </trkpt>
      <trkpt lat="46.84076" lon="8.42365">
        <ele>1780</ele>
        <time>2021-08-13T08:21:46.174Z</time>
      </trkpt>
      <trkpt lat="46.84075" lon="8.42365">
        <ele>1780</ele>
        <time>2021-08-13T08:21:47.174Z</time>
      </trkpt>
      <trkpt lat="46.84074" lon="8.42365">
        <ele>1781</ele>
        <time>2021-08-13T08:21:48.174Z</time>
      </trkpt>
      <trkpt lat="46.84073" lon="8.42364">
        <ele>1782</ele>
        <time>2021-08-13T08:21:49.175Z</time>
      </trkpt>
      <trkpt lat="46.84072" lon="8.42364">
        <ele>1782</ele>
        <time>2021-08-13T08:21:50.175Z</time>
      </trkpt>
      <trkpt lat="46.8407" lon="8.42364">
        <ele>1782</ele>
        <time>2021-08-13T08:21:51.175Z</time>
      </trkpt>
      <trkpt lat="46.84069" lon="8.42363">
        <ele>1782</ele>
        <time>2021-08-13T08:21:52.174Z</time>
      </trkpt>
      <trkpt lat="46.84068" lon="8.42362">
        <ele>1782</ele>
        <time>2021-08-13T08:21:53.175Z</time>
      </trkpt>
      <trkpt lat="46.84067" lon="8.42362">
        <ele>1782</ele>
        <time>2021-08-13T08:21:54.175Z</time>
      </trkpt>
      <trkpt lat="46.84066" lon="8.42363">
        <ele>1781</ele>
        <time>2021-08-13T08:21:55.175Z</time>
      </trkpt>
      <trkpt lat="46.84065" lon="8.42363">
        <ele>1781</ele>
        <time>2021-08-13T08:21:56.175Z</time>
      </trkpt>
      <trkpt lat="46.84063" lon="8.42363">
        <ele>1780</ele>
        <time>2021-08-13T08:21:57.175Z</time>
      </trkpt>
      <trkpt lat="46.84062" lon="8.42362">
        <ele>1779</ele>
        <time>2021-08-13T08:21:58.175Z</time>
      </trkpt>
      <trkpt lat="46.84061" lon="8.42362">
        <ele>1779</ele>
        <time>2021-08-13T08:21:59.175Z</time>
      </trkpt>
      <trkpt lat="46.84059" lon="8.42363">
        <ele>1779</ele>
        <time>2021-08-13T08:22:00.175Z</time>
      </trkpt>
      <trkpt lat="46.84058" lon="8.42363">
        <ele>1778</ele>
        <time>2021-08-13T08:22:01.175Z</time>
      </trkpt>
      <trkpt lat="46.84058" lon="8.42364">
        <ele>1778</ele>
        <time>2021-08-13T08:22:02.174Z</time>
      </trkpt>
      <trkpt lat="46.84058" lon="8.42364">
        <ele>1777</ele>
        <time>2021-08-13T08:22:03.174Z</time>
      </trkpt>
      <trkpt lat="46.84057" lon="8.42368">
        <ele>1775</ele>
        <time>2021-08-13T08:22:04.175Z</time>
      </trkpt>
      <trkpt lat="46.84056" lon="8.4237">
        <ele>1774</ele>
        <time>2021-08-13T08:22:05.175Z</time>
      </trkpt>
      <trkpt lat="46.84056" lon="8.42371">
        <ele>1773</ele>
        <time>2021-08-13T08:22:06.174Z</time>
      </trkpt>
      <trkpt lat="46.84056" lon="8.42372">
        <ele>1773</ele>
        <time>2021-08-13T08:22:07.175Z</time>
      </trkpt>
      <trkpt lat="46.84055" lon="8.42373">
        <ele>1773</ele>
        <time>2021-08-13T08:22:08.175Z</time>
      </trkpt>
      <trkpt lat="46.84055" lon="8.42374">
        <ele>1773</ele>
        <time>2021-08-13T08:22:09.174Z</time>
      </trkpt>
      <trkpt lat="46.84054" lon="8.42376">
        <ele>1773</ele>
        <time>2021-08-13T08:22:10.174Z</time>
      </trkpt>
      <trkpt lat="46.84054" lon="8.42375">
        <ele>1772</ele>
        <time>2021-08-13T08:22:11.174Z</time>
      </trkpt>
      <trkpt lat="46.84055" lon="8.42374">
        <ele>1772</ele>
        <time>2021-08-13T08:22:12.174Z</time>
      </trkpt>
      <trkpt lat="46.84056" lon="8.42377">
        <ele>1770</ele>
        <time>2021-08-13T08:22:13.175Z</time>
      </trkpt>
      <trkpt lat="46.84056" lon="8.42376">
        <ele>1770</ele>
        <time>2021-08-13T08:22:14.175Z</time>
      </trkpt>
      <trkpt lat="46.84056" lon="8.42377">
        <ele>1770</ele>
        <time>2021-08-13T08:22:15.174Z</time>
      </trkpt>
      <trkpt lat="46.84055" lon="8.42376">
        <ele>1770</ele>
        <time>2021-08-13T08:22:16.176Z</time>
      </trkpt>
      <trkpt lat="46.84055" lon="8.42376">
        <ele>1771</ele>
        <time>2021-08-13T08:22:17.176Z</time>
      </trkpt>
      <trkpt lat="46.84055" lon="8.42377">
        <ele>1770</ele>
        <time>2021-08-13T08:22:18.175Z</time>
      </trkpt>
      <trkpt lat="46.84055" lon="8.42376">
        <ele>1770</ele>
        <time>2021-08-13T08:22:19.176Z</time>
      </trkpt>
      <trkpt lat="46.84053" lon="8.42375">
        <ele>1770</ele>
        <time>2021-08-13T08:22:20.175Z</time>
      </trkpt>
      <trkpt lat="46.84054" lon="8.42376">
        <ele>1769</ele>
        <time>2021-08-13T08:22:21.176Z</time>
      </trkpt>
      <trkpt lat="46.84054" lon="8.42375">
        <ele>1769</ele>
        <time>2021-08-13T08:22:22.175Z</time>
      </trkpt>
      <trkpt lat="46.84055" lon="8.42374">
        <ele>1769</ele>
        <time>2021-08-13T08:22:23.175Z</time>
      </trkpt>
      <trkpt lat="46.84056" lon="8.42372">
        <ele>1769</ele>
        <time>2021-08-13T08:22:24.176Z</time>
      </trkpt>
      <trkpt lat="46.84056" lon="8.4237">
        <ele>1770</ele>
        <time>2021-08-13T08:22:25.175Z</time>
      </trkpt>
      <trkpt lat="46.84056" lon="8.42369">
        <ele>1770</ele>
        <time>2021-08-13T08:22:26.175Z</time>
      </trkpt>
      <trkpt lat="46.84055" lon="8.42367">
        <ele>1770</ele>
        <time>2021-08-13T08:22:27.176Z</time>
      </trkpt>
      <trkpt lat="46.84055" lon="8.42366">
        <ele>1770</ele>
        <time>2021-08-13T08:22:28.176Z</time>
      </trkpt>
      <trkpt lat="46.84054" lon="8.42365">
        <ele>1771</ele>
        <time>2021-08-13T08:22:29.175Z</time>
      </trkpt>
      <trkpt lat="46.84053" lon="8.42364">
        <ele>1771</ele>
        <time>2021-08-13T08:22:30.175Z</time>
      </trkpt>
      <trkpt lat="46.84051" lon="8.42363">
        <ele>1772</ele>
        <time>2021-08-13T08:22:31.175Z</time>
      </trkpt>
      <trkpt lat="46.8405" lon="8.42362">
        <ele>1773</ele>
        <time>2021-08-13T08:22:32.175Z</time>
      </trkpt>
      <trkpt lat="46.84049" lon="8.42362">
        <ele>1773</ele>
        <time>2021-08-13T08:22:33.175Z</time>
      </trkpt>
      <trkpt lat="46.84048" lon="8.42361">
        <ele>1774</ele>
        <time>2021-08-13T08:22:34.175Z</time>
      </trkpt>
      <trkpt lat="46.84046" lon="8.42361">
        <ele>1774</ele>
        <time>2021-08-13T08:22:35.175Z</time>
      </trkpt>
      <trkpt lat="46.84045" lon="8.42361">
        <ele>1774</ele>
        <time>2021-08-13T08:22:36.175Z</time>
      </trkpt>
      <trkpt lat="46.84043" lon="8.42361">
        <ele>1775</ele>
        <time>2021-08-13T08:22:37.175Z</time>
      </trkpt>
      <trkpt lat="46.84042" lon="8.42361">
        <ele>1775</ele>
        <time>2021-08-13T08:22:38.175Z</time>
      </trkpt>
      <trkpt lat="46.8404" lon="8.42362">
        <ele>1775</ele>
        <time>2021-08-13T08:22:39.175Z</time>
      </trkpt>
      <trkpt lat="46.84039" lon="8.42362">
        <ele>1775</ele>
        <time>2021-08-13T08:22:40.175Z</time>
      </trkpt>
      <trkpt lat="46.84038" lon="8.42362">
        <ele>1775</ele>
        <time>2021-08-13T08:22:41.175Z</time>
      </trkpt>
      <trkpt lat="46.84037" lon="8.42363">
        <ele>1775</ele>
        <time>2021-08-13T08:22:42.175Z</time>
      </trkpt>
      <trkpt lat="46.84035" lon="8.42363">
        <ele>1775</ele>
        <time>2021-08-13T08:22:43.175Z</time>
      </trkpt>
      <trkpt lat="46.84034" lon="8.42363">
        <ele>1774</ele>
        <time>2021-08-13T08:22:44.176Z</time>
      </trkpt>
      <trkpt lat="46.84033" lon="8.42363">
        <ele>1774</ele>
        <time>2021-08-13T08:22:45.175Z</time>
      </trkpt>
      <trkpt lat="46.84032" lon="8.42363">
        <ele>1773</ele>
        <time>2021-08-13T08:22:46.175Z</time>
      </trkpt>
      <trkpt lat="46.84031" lon="8.42363">
        <ele>1773</ele>
        <time>2021-08-13T08:22:47.175Z</time>
      </trkpt>
      <trkpt lat="46.8403" lon="8.42363">
        <ele>1773</ele>
        <time>2021-08-13T08:22:48.175Z</time>
      </trkpt>
      <trkpt lat="46.8403" lon="8.42363">
        <ele>1772</ele>
        <time>2021-08-13T08:22:49.175Z</time>
      </trkpt>
      <trkpt lat="46.8403" lon="8.42362">
        <ele>1772</ele>
        <time>2021-08-13T08:22:50.175Z</time>
      </trkpt>
      <trkpt lat="46.8403" lon="8.42362">
        <ele>1772</ele>
        <time>2021-08-13T08:22:51.175Z</time>
      </trkpt>
      <trkpt lat="46.8403" lon="8.42362">
        <ele>1771</ele>
        <time>2021-08-13T08:22:52.175Z</time>
      </trkpt>
      <trkpt lat="46.84029" lon="8.42361">
        <ele>1771</ele>
        <time>2021-08-13T08:22:53.175Z</time>
      </trkpt>
      <trkpt lat="46.84028" lon="8.4236">
        <ele>1771</ele>
        <time>2021-08-13T08:22:54.176Z</time>
      </trkpt>
      <trkpt lat="46.84028" lon="8.4236">
        <ele>1771</ele>
        <time>2021-08-13T08:22:55.176Z</time>
      </trkpt>
      <trkpt lat="46.84027" lon="8.4236">
        <ele>1771</ele>
        <time>2021-08-13T08:22:56.175Z</time>
      </trkpt>
      <trkpt lat="46.84026" lon="8.4236">
        <ele>1771</ele>
        <time>2021-08-13T08:22:57.176Z</time>
      </trkpt>
      <trkpt lat="46.84025" lon="8.4236">
        <ele>1771</ele>
        <time>2021-08-13T08:22:58.176Z</time>
      </trkpt>
      <trkpt lat="46.84024" lon="8.4236">
        <ele>1771</ele>
        <time>2021-08-13T08:22:59.176Z</time>
      </trkpt>
      <trkpt lat="46.84023" lon="8.42361">
        <ele>1770</ele>
        <time>2021-08-13T08:23:00.176Z</time>
      </trkpt>
      <trkpt lat="46.84023" lon="8.42362">
        <ele>1770</ele>
        <time>2021-08-13T08:23:01.176Z</time>
      </trkpt>
      <trkpt lat="46.84023" lon="8.42363">
        <ele>1769</ele>
        <time>2021-08-13T08:23:02.175Z</time>
      </trkpt>
      <trkpt lat="46.84023" lon="8.42365">
        <ele>1768</ele>
        <time>2021-08-13T08:23:03.177Z</time>
      </trkpt>
      <trkpt lat="46.84022" lon="8.42365">
        <ele>1768</ele>
        <time>2021-08-13T08:23:04.176Z</time>
      </trkpt>
      <trkpt lat="46.84022" lon="8.42365">
        <ele>1768</ele>
        <time>2021-08-13T08:23:05.177Z</time>
      </trkpt>
      <trkpt lat="46.84022" lon="8.42366">
        <ele>1768</ele>
        <time>2021-08-13T08:23:06.177Z</time>
      </trkpt>
      <trkpt lat="46.8402" lon="8.42366">
        <ele>1769</ele>
        <time>2021-08-13T08:23:07.176Z</time>
      </trkpt>
      <trkpt lat="46.84019" lon="8.42366">
        <ele>1769</ele>
        <time>2021-08-13T08:23:08.177Z</time>
      </trkpt>
      <trkpt lat="46.84017" lon="8.42367">
        <ele>1769</ele>
        <time>2021-08-13T08:23:09.177Z</time>
      </trkpt>
      <trkpt lat="46.84016" lon="8.42367">
        <ele>1769</ele>
        <time>2021-08-13T08:23:10.176Z</time>
      </trkpt>
      <trkpt lat="46.84015" lon="8.42368">
        <ele>1768</ele>
        <time>2021-08-13T08:23:11.176Z</time>
      </trkpt>
      <trkpt lat="46.84014" lon="8.42368">
        <ele>1768</ele>
        <time>2021-08-13T08:23:12.176Z</time>
      </trkpt>
      <trkpt lat="46.84013" lon="8.42369">
        <ele>1768</ele>
        <time>2021-08-13T08:23:13.176Z</time>
      </trkpt>
      <trkpt lat="46.84012" lon="8.4237">
        <ele>1768</ele>
        <time>2021-08-13T08:23:14.176Z</time>
      </trkpt>
      <trkpt lat="46.84011" lon="8.4237">
        <ele>1768</ele>
        <time>2021-08-13T08:23:15.176Z</time>
      </trkpt>
      <trkpt lat="46.8401" lon="8.42371">
        <ele>1768</ele>
        <time>2021-08-13T08:23:16.177Z</time>
      </trkpt>
      <trkpt lat="46.84009" lon="8.42371">
        <ele>1768</ele>
        <time>2021-08-13T08:23:17.176Z</time>
      </trkpt>
      <trkpt lat="46.84008" lon="8.42372">
        <ele>1769</ele>
        <time>2021-08-13T08:23:18.176Z</time>
      </trkpt>
      <trkpt lat="46.84007" lon="8.42373">
        <ele>1769</ele>
        <time>2021-08-13T08:23:19.177Z</time>
      </trkpt>
      <trkpt lat="46.84006" lon="8.42373">
        <ele>1769</ele>
        <time>2021-08-13T08:23:20.176Z</time>
      </trkpt>
      <trkpt lat="46.84005" lon="8.42374">
        <ele>1770</ele>
        <time>2021-08-13T08:23:21.177Z</time>
      </trkpt>
      <trkpt lat="46.84005" lon="8.42374">
        <ele>1771</ele>
        <time>2021-08-13T08:23:22.176Z</time>
      </trkpt>
      <trkpt lat="46.84004" lon="8.42374">
        <ele>1772</ele>
        <time>2021-08-13T08:23:23.177Z</time>
      </trkpt>
      <trkpt lat="46.84003" lon="8.42374">
        <ele>1772</ele>
        <time>2021-08-13T08:23:24.176Z</time>
      </trkpt>
      <trkpt lat="46.84001" lon="8.42375">
        <ele>1771</ele>
        <time>2021-08-13T08:23:25.177Z</time>
      </trkpt>
      <trkpt lat="46.84" lon="8.42375">
        <ele>1771</ele>
        <time>2021-08-13T08:23:26.176Z</time>
      </trkpt>
      <trkpt lat="46.83999" lon="8.42374">
        <ele>1771</ele>
        <time>2021-08-13T08:23:27.177Z</time>
      </trkpt>
      <trkpt lat="46.83998" lon="8.42373">
        <ele>1771</ele>
        <time>2021-08-13T08:23:28.176Z</time>
      </trkpt>
      <trkpt lat="46.83997" lon="8.42372">
        <ele>1771</ele>
        <time>2021-08-13T08:23:29.177Z</time>
      </trkpt>
      <trkpt lat="46.83996" lon="8.42371">
        <ele>1771</ele>
        <time>2021-08-13T08:23:30.176Z</time>
      </trkpt>
      <trkpt lat="46.83995" lon="8.4237">
        <ele>1770</ele>
        <time>2021-08-13T08:23:31.176Z</time>
      </trkpt>
      <trkpt lat="46.83994" lon="8.42368">
        <ele>1770</ele>
        <time>2021-08-13T08:23:32.176Z</time>
      </trkpt>
      <trkpt lat="46.83993" lon="8.42368">
        <ele>1770</ele>
        <time>2021-08-13T08:23:33.177Z</time>
      </trkpt>
      <trkpt lat="46.83993" lon="8.42367">
        <ele>1769</ele>
        <time>2021-08-13T08:23:34.177Z</time>
      </trkpt>
      <trkpt lat="46.83992" lon="8.42366">
        <ele>1768</ele>
        <time>2021-08-13T08:23:35.177Z</time>
      </trkpt>
      <trkpt lat="46.83991" lon="8.42365">
        <ele>1768</ele>
        <time>2021-08-13T08:23:36.176Z</time>
      </trkpt>
      <trkpt lat="46.8399" lon="8.42363">
        <ele>1767</ele>
        <time>2021-08-13T08:23:37.177Z</time>
      </trkpt>
      <trkpt lat="46.83989" lon="8.42362">
        <ele>1766</ele>
        <time>2021-08-13T08:23:38.176Z</time>
      </trkpt>
      <trkpt lat="46.83989" lon="8.4236">
        <ele>1766</ele>
        <time>2021-08-13T08:23:39.176Z</time>
      </trkpt>
      <trkpt lat="46.83988" lon="8.42359">
        <ele>1765</ele>
        <time>2021-08-13T08:23:40.177Z</time>
      </trkpt>
      <trkpt lat="46.83988" lon="8.42357">
        <ele>1765</ele>
        <time>2021-08-13T08:23:41.177Z</time>
      </trkpt>
      <trkpt lat="46.83987" lon="8.42356">
        <ele>1764</ele>
        <time>2021-08-13T08:23:42.177Z</time>
      </trkpt>
      <trkpt lat="46.83986" lon="8.42354">
        <ele>1764</ele>
        <time>2021-08-13T08:23:43.176Z</time>
      </trkpt>
      <trkpt lat="46.83986" lon="8.42353">
        <ele>1764</ele>
        <time>2021-08-13T08:23:44.177Z</time>
      </trkpt>
      <trkpt lat="46.83986" lon="8.42351">
        <ele>1763</ele>
        <time>2021-08-13T08:23:45.177Z</time>
      </trkpt>
      <trkpt lat="46.83986" lon="8.4235">
        <ele>1763</ele>
        <time>2021-08-13T08:23:46.177Z</time>
      </trkpt>
      <trkpt lat="46.83986" lon="8.42349">
        <ele>1762</ele>
        <time>2021-08-13T08:23:47.176Z</time>
      </trkpt>
      <trkpt lat="46.83986" lon="8.42348">
        <ele>1762</ele>
        <time>2021-08-13T08:23:48.177Z</time>
      </trkpt>
      <trkpt lat="46.83985" lon="8.42346">
        <ele>1762</ele>
        <time>2021-08-13T08:23:49.177Z</time>
      </trkpt>
      <trkpt lat="46.83985" lon="8.42345">
        <ele>1762</ele>
        <time>2021-08-13T08:23:50.177Z</time>
      </trkpt>
      <trkpt lat="46.83985" lon="8.42343">
        <ele>1762</ele>
        <time>2021-08-13T08:23:51.177Z</time>
      </trkpt>
      <trkpt lat="46.83985" lon="8.42342">
        <ele>1762</ele>
        <time>2021-08-13T08:23:52.177Z</time>
      </trkpt>
      <trkpt lat="46.83986" lon="8.4234">
        <ele>1762</ele>
        <time>2021-08-13T08:23:53.176Z</time>
      </trkpt>
      <trkpt lat="46.83986" lon="8.42339">
        <ele>1762</ele>
        <time>2021-08-13T08:23:54.176Z</time>
      </trkpt>
      <trkpt lat="46.83986" lon="8.42337">
        <ele>1762</ele>
        <time>2021-08-13T08:23:55.177Z</time>
      </trkpt>
      <trkpt lat="46.83985" lon="8.42336">
        <ele>1762</ele>
        <time>2021-08-13T08:23:56.177Z</time>
      </trkpt>
      <trkpt lat="46.83985" lon="8.42334">
        <ele>1762</ele>
        <time>2021-08-13T08:23:57.177Z</time>
      </trkpt>
      <trkpt lat="46.83985" lon="8.42333">
        <ele>1762</ele>
        <time>2021-08-13T08:23:58.177Z</time>
      </trkpt>
      <trkpt lat="46.83985" lon="8.42331">
        <ele>1762</ele>
        <time>2021-08-13T08:23:59.177Z</time>
      </trkpt>
      <trkpt lat="46.83985" lon="8.4233">
        <ele>1762</ele>
        <time>2021-08-13T08:24:00.176Z</time>
      </trkpt>
      <trkpt lat="46.83984" lon="8.42329">
        <ele>1762</ele>
        <time>2021-08-13T08:24:01.177Z</time>
      </trkpt>
      <trkpt lat="46.83984" lon="8.42327">
        <ele>1762</ele>
        <time>2021-08-13T08:24:02.177Z</time>
      </trkpt>
      <trkpt lat="46.83984" lon="8.42326">
        <ele>1762</ele>
        <time>2021-08-13T08:24:03.176Z</time>
      </trkpt>
      <trkpt lat="46.83984" lon="8.42325">
        <ele>1761</ele>
        <time>2021-08-13T08:24:04.176Z</time>
      </trkpt>
      <trkpt lat="46.83984" lon="8.42324">
        <ele>1761</ele>
        <time>2021-08-13T08:24:05.177Z</time>
      </trkpt>
      <trkpt lat="46.83984" lon="8.42324">
        <ele>1761</ele>
        <time>2021-08-13T08:24:06.176Z</time>
      </trkpt>
      <trkpt lat="46.83983" lon="8.42323">
        <ele>1761</ele>
        <time>2021-08-13T08:24:07.176Z</time>
      </trkpt>
      <trkpt lat="46.83982" lon="8.42322">
        <ele>1760</ele>
        <time>2021-08-13T08:24:08.176Z</time>
      </trkpt>
      <trkpt lat="46.83982" lon="8.42321">
        <ele>1760</ele>
        <time>2021-08-13T08:24:09.177Z</time>
      </trkpt>
      <trkpt lat="46.83981" lon="8.4232">
        <ele>1760</ele>
        <time>2021-08-13T08:24:10.176Z</time>
      </trkpt>
      <trkpt lat="46.83981" lon="8.42319">
        <ele>1760</ele>
        <time>2021-08-13T08:24:11.176Z</time>
      </trkpt>
      <trkpt lat="46.8398" lon="8.42317">
        <ele>1760</ele>
        <time>2021-08-13T08:24:12.177Z</time>
      </trkpt>
      <trkpt lat="46.83979" lon="8.42316">
        <ele>1759</ele>
        <time>2021-08-13T08:24:13.176Z</time>
      </trkpt>
      <trkpt lat="46.83979" lon="8.42316">
        <ele>1759</ele>
        <time>2021-08-13T08:24:14.177Z</time>
      </trkpt>
      <trkpt lat="46.83978" lon="8.42315">
        <ele>1760</ele>
        <time>2021-08-13T08:24:15.177Z</time>
      </trkpt>
      <trkpt lat="46.83977" lon="8.42314">
        <ele>1760</ele>
        <time>2021-08-13T08:24:16.177Z</time>
      </trkpt>
      <trkpt lat="46.83976" lon="8.42313">
        <ele>1759</ele>
        <time>2021-08-13T08:24:17.177Z</time>
      </trkpt>
      <trkpt lat="46.83975" lon="8.42312">
        <ele>1759</ele>
        <time>2021-08-13T08:24:18.177Z</time>
      </trkpt>
      <trkpt lat="46.83974" lon="8.42311">
        <ele>1759</ele>
        <time>2021-08-13T08:24:19.176Z</time>
      </trkpt>
      <trkpt lat="46.83973" lon="8.42311">
        <ele>1759</ele>
        <time>2021-08-13T08:24:20.177Z</time>
      </trkpt>
      <trkpt lat="46.83972" lon="8.4231">
        <ele>1759</ele>
        <time>2021-08-13T08:24:21.177Z</time>
      </trkpt>
      <trkpt lat="46.83971" lon="8.4231">
        <ele>1759</ele>
        <time>2021-08-13T08:24:22.177Z</time>
      </trkpt>
      <trkpt lat="46.83971" lon="8.4231">
        <ele>1758</ele>
        <time>2021-08-13T08:24:23.177Z</time>
      </trkpt>
      <trkpt lat="46.83971" lon="8.4231">
        <ele>1758</ele>
        <time>2021-08-13T08:24:24.177Z</time>
      </trkpt>
      <trkpt lat="46.83973" lon="8.42314">
        <ele>1769</ele>
        <time>2021-08-13T08:24:25.177Z</time>
      </trkpt>
      <trkpt lat="46.83972" lon="8.42314">
        <ele>1769</ele>
        <time>2021-08-13T08:24:26.176Z</time>
      </trkpt>
      <trkpt lat="46.83971" lon="8.42313">
        <ele>1769</ele>
        <time>2021-08-13T08:24:27.177Z</time>
      </trkpt>
      <trkpt lat="46.83969" lon="8.42313">
        <ele>1769</ele>
        <time>2021-08-13T08:24:28.177Z</time>
      </trkpt>
      <trkpt lat="46.83968" lon="8.42313">
        <ele>1768</ele>
        <time>2021-08-13T08:24:29.176Z</time>
      </trkpt>
      <trkpt lat="46.83966" lon="8.42312">
        <ele>1768</ele>
        <time>2021-08-13T08:24:30.177Z</time>
      </trkpt>
      <trkpt lat="46.83965" lon="8.42312">
        <ele>1768</ele>
        <time>2021-08-13T08:24:31.176Z</time>
      </trkpt>
      <trkpt lat="46.83963" lon="8.42311">
        <ele>1768</ele>
        <time>2021-08-13T08:24:32.176Z</time>
      </trkpt>
      <trkpt lat="46.83962" lon="8.42311">
        <ele>1767</ele>
        <time>2021-08-13T08:24:33.176Z</time>
      </trkpt>
      <trkpt lat="46.8396" lon="8.4231">
        <ele>1767</ele>
        <time>2021-08-13T08:24:34.176Z</time>
      </trkpt>
      <trkpt lat="46.83959" lon="8.4231">
        <ele>1767</ele>
        <time>2021-08-13T08:24:35.177Z</time>
      </trkpt>
      <trkpt lat="46.83958" lon="8.4231">
        <ele>1767</ele>
        <time>2021-08-13T08:24:36.176Z</time>
      </trkpt>
      <trkpt lat="46.83956" lon="8.4231">
        <ele>1766</ele>
        <time>2021-08-13T08:24:37.177Z</time>
      </trkpt>
      <trkpt lat="46.83955" lon="8.42309">
        <ele>1765</ele>
        <time>2021-08-13T08:24:38.176Z</time>
      </trkpt>
      <trkpt lat="46.83954" lon="8.42309">
        <ele>1764</ele>
        <time>2021-08-13T08:24:39.177Z</time>
      </trkpt>
      <trkpt lat="46.83953" lon="8.42309">
        <ele>1764</ele>
        <time>2021-08-13T08:24:40.177Z</time>
      </trkpt>
      <trkpt lat="46.83951" lon="8.42308">
        <ele>1763</ele>
        <time>2021-08-13T08:24:41.177Z</time>
      </trkpt>
      <trkpt lat="46.8395" lon="8.42309">
        <ele>1763</ele>
        <time>2021-08-13T08:24:42.177Z</time>
      </trkpt>
      <trkpt lat="46.83949" lon="8.42309">
        <ele>1762</ele>
        <time>2021-08-13T08:24:43.177Z</time>
      </trkpt>
      <trkpt lat="46.83948" lon="8.42309">
        <ele>1762</ele>
        <time>2021-08-13T08:24:44.176Z</time>
      </trkpt>
      <trkpt lat="46.83947" lon="8.42308">
        <ele>1761</ele>
        <time>2021-08-13T08:24:45.177Z</time>
      </trkpt>
      <trkpt lat="46.83946" lon="8.42309">
        <ele>1761</ele>
        <time>2021-08-13T08:24:46.177Z</time>
      </trkpt>
      <trkpt lat="46.83946" lon="8.42309">
        <ele>1760</ele>
        <time>2021-08-13T08:24:47.177Z</time>
      </trkpt>
      <trkpt lat="46.83946" lon="8.42309">
        <ele>1760</ele>
        <time>2021-08-13T08:24:48.177Z</time>
      </trkpt>
      <trkpt lat="46.83946" lon="8.42309">
        <ele>1759</ele>
        <time>2021-08-13T08:24:49.177Z</time>
      </trkpt>
      <trkpt lat="46.83945" lon="8.42309">
        <ele>1758</ele>
        <time>2021-08-13T08:24:50.176Z</time>
      </trkpt>
      <trkpt lat="46.83944" lon="8.42309">
        <ele>1758</ele>
        <time>2021-08-13T08:24:51.176Z</time>
      </trkpt>
      <trkpt lat="46.83943" lon="8.42309">
        <ele>1759</ele>
        <time>2021-08-13T08:24:52.176Z</time>
      </trkpt>
      <trkpt lat="46.83943" lon="8.42309">
        <ele>1758</ele>
        <time>2021-08-13T08:24:53.176Z</time>
      </trkpt>
      <trkpt lat="46.83943" lon="8.42309">
        <ele>1758</ele>
        <time>2021-08-13T08:24:54.176Z</time>
      </trkpt>
      <trkpt lat="46.83943" lon="8.4231">
        <ele>1757</ele>
        <time>2021-08-13T08:24:55.176Z</time>
      </trkpt>
      <trkpt lat="46.83942" lon="8.42307">
        <ele>1760</ele>
        <time>2021-08-13T08:24:56.176Z</time>
      </trkpt>
      <trkpt lat="46.83941" lon="8.42307">
        <ele>1760</ele>
        <time>2021-08-13T08:24:57.176Z</time>
      </trkpt>
      <trkpt lat="46.8394" lon="8.42307">
        <ele>1759</ele>
        <time>2021-08-13T08:24:58.177Z</time>
      </trkpt>
      <trkpt lat="46.8394" lon="8.42306">
        <ele>1758</ele>
        <time>2021-08-13T08:24:59.177Z</time>
      </trkpt>
      <trkpt lat="46.8394" lon="8.42306">
        <ele>1758</ele>
        <time>2021-08-13T08:25:00.176Z</time>
      </trkpt>
      <trkpt lat="46.83939" lon="8.42305">
        <ele>1758</ele>
        <time>2021-08-13T08:25:01.176Z</time>
      </trkpt>
      <trkpt lat="46.83939" lon="8.42305">
        <ele>1758</ele>
        <time>2021-08-13T08:25:02.176Z</time>
      </trkpt>
      <trkpt lat="46.83938" lon="8.42304">
        <ele>1757</ele>
        <time>2021-08-13T08:25:03.177Z</time>
      </trkpt>
      <trkpt lat="46.83937" lon="8.42303">
        <ele>1757</ele>
        <time>2021-08-13T08:25:04.177Z</time>
      </trkpt>
      <trkpt lat="46.83936" lon="8.42302">
        <ele>1757</ele>
        <time>2021-08-13T08:25:05.177Z</time>
      </trkpt>
      <trkpt lat="46.83934" lon="8.423">
        <ele>1757</ele>
        <time>2021-08-13T08:25:06.176Z</time>
      </trkpt>
      <trkpt lat="46.83933" lon="8.42299">
        <ele>1756</ele>
        <time>2021-08-13T08:25:07.177Z</time>
      </trkpt>
      <trkpt lat="46.83932" lon="8.42298">
        <ele>1756</ele>
        <time>2021-08-13T08:25:08.177Z</time>
      </trkpt>
      <trkpt lat="46.83932" lon="8.42296">
        <ele>1756</ele>
        <time>2021-08-13T08:25:09.176Z</time>
      </trkpt>
      <trkpt lat="46.83932" lon="8.42295">
        <ele>1755</ele>
        <time>2021-08-13T08:25:10.176Z</time>
      </trkpt>
      <trkpt lat="46.83931" lon="8.42294">
        <ele>1755</ele>
        <time>2021-08-13T08:25:11.177Z</time>
      </trkpt>
      <trkpt lat="46.83931" lon="8.42292">
        <ele>1755</ele>
        <time>2021-08-13T08:25:12.176Z</time>
      </trkpt>
      <trkpt lat="46.8393" lon="8.42291">
        <ele>1755</ele>
        <time>2021-08-13T08:25:13.176Z</time>
      </trkpt>
      <trkpt lat="46.8393" lon="8.42289">
        <ele>1754</ele>
        <time>2021-08-13T08:25:14.176Z</time>
      </trkpt>
      <trkpt lat="46.83929" lon="8.42287">
        <ele>1753</ele>
        <time>2021-08-13T08:25:15.176Z</time>
      </trkpt>
      <trkpt lat="46.83929" lon="8.42286">
        <ele>1752</ele>
        <time>2021-08-13T08:25:16.177Z</time>
      </trkpt>
      <trkpt lat="46.83929" lon="8.42284">
        <ele>1751</ele>
        <time>2021-08-13T08:25:17.177Z</time>
      </trkpt>
      <trkpt lat="46.83929" lon="8.42283">
        <ele>1751</ele>
        <time>2021-08-13T08:25:18.176Z</time>
      </trkpt>
      <trkpt lat="46.83929" lon="8.42281">
        <ele>1751</ele>
        <time>2021-08-13T08:25:19.176Z</time>
      </trkpt>
      <trkpt lat="46.8393" lon="8.4228">
        <ele>1751</ele>
        <time>2021-08-13T08:25:20.176Z</time>
      </trkpt>
      <trkpt lat="46.8393" lon="8.42279">
        <ele>1751</ele>
        <time>2021-08-13T08:25:21.176Z</time>
      </trkpt>
      <trkpt lat="46.83929" lon="8.42277">
        <ele>1751</ele>
        <time>2021-08-13T08:25:22.177Z</time>
      </trkpt>
      <trkpt lat="46.83929" lon="8.42276">
        <ele>1751</ele>
        <time>2021-08-13T08:25:23.177Z</time>
      </trkpt>
      <trkpt lat="46.83928" lon="8.42275">
        <ele>1751</ele>
        <time>2021-08-13T08:25:24.176Z</time>
      </trkpt>
      <trkpt lat="46.83927" lon="8.42274">
        <ele>1751</ele>
        <time>2021-08-13T08:25:25.176Z</time>
      </trkpt>
      <trkpt lat="46.83926" lon="8.42272">
        <ele>1750</ele>
        <time>2021-08-13T08:25:26.176Z</time>
      </trkpt>
      <trkpt lat="46.83925" lon="8.42271">
        <ele>1751</ele>
        <time>2021-08-13T08:25:27.177Z</time>
      </trkpt>
      <trkpt lat="46.83924" lon="8.4227">
        <ele>1751</ele>
        <time>2021-08-13T08:25:28.177Z</time>
      </trkpt>
      <trkpt lat="46.83923" lon="8.42269">
        <ele>1751</ele>
        <time>2021-08-13T08:25:29.176Z</time>
      </trkpt>
      <trkpt lat="46.83922" lon="8.42269">
        <ele>1751</ele>
        <time>2021-08-13T08:25:30.176Z</time>
      </trkpt>
      <trkpt lat="46.8392" lon="8.42267">
        <ele>1751</ele>
        <time>2021-08-13T08:25:31.176Z</time>
      </trkpt>
      <trkpt lat="46.83919" lon="8.42265">
        <ele>1752</ele>
        <time>2021-08-13T08:25:32.177Z</time>
      </trkpt>
      <trkpt lat="46.83918" lon="8.42265">
        <ele>1752</ele>
        <time>2021-08-13T08:25:33.177Z</time>
      </trkpt>
      <trkpt lat="46.83917" lon="8.42265">
        <ele>1752</ele>
        <time>2021-08-13T08:25:34.177Z</time>
      </trkpt>
      <trkpt lat="46.83916" lon="8.42264">
        <ele>1752</ele>
        <time>2021-08-13T08:25:35.176Z</time>
      </trkpt>
      <trkpt lat="46.83914" lon="8.42263">
        <ele>1752</ele>
        <time>2021-08-13T08:25:36.177Z</time>
      </trkpt>
      <trkpt lat="46.83913" lon="8.42263">
        <ele>1752</ele>
        <time>2021-08-13T08:25:37.177Z</time>
      </trkpt>
      <trkpt lat="46.83911" lon="8.42263">
        <ele>1752</ele>
        <time>2021-08-13T08:25:38.177Z</time>
      </trkpt>
      <trkpt lat="46.8391" lon="8.42262">
        <ele>1751</ele>
        <time>2021-08-13T08:25:39.176Z</time>
      </trkpt>
      <trkpt lat="46.83909" lon="8.42262">
        <ele>1751</ele>
        <time>2021-08-13T08:25:40.177Z</time>
      </trkpt>
      <trkpt lat="46.83907" lon="8.42262">
        <ele>1751</ele>
        <time>2021-08-13T08:25:41.177Z</time>
      </trkpt>
      <trkpt lat="46.83906" lon="8.42262">
        <ele>1750</ele>
        <time>2021-08-13T08:25:42.177Z</time>
      </trkpt>
      <trkpt lat="46.83905" lon="8.42262">
        <ele>1750</ele>
        <time>2021-08-13T08:25:43.177Z</time>
      </trkpt>
      <trkpt lat="46.83904" lon="8.42263">
        <ele>1750</ele>
        <time>2021-08-13T08:25:44.176Z</time>
      </trkpt>
      <trkpt lat="46.83903" lon="8.42263">
        <ele>1749</ele>
        <time>2021-08-13T08:25:45.177Z</time>
      </trkpt>
      <trkpt lat="46.83901" lon="8.42263">
        <ele>1749</ele>
        <time>2021-08-13T08:25:46.177Z</time>
      </trkpt>
      <trkpt lat="46.839" lon="8.42264">
        <ele>1749</ele>
        <time>2021-08-13T08:25:47.177Z</time>
      </trkpt>
      <trkpt lat="46.83899" lon="8.42264">
        <ele>1749</ele>
        <time>2021-08-13T08:25:48.177Z</time>
      </trkpt>
      <trkpt lat="46.83898" lon="8.42265">
        <ele>1749</ele>
        <time>2021-08-13T08:25:49.176Z</time>
      </trkpt>
      <trkpt lat="46.83897" lon="8.42266">
        <ele>1749</ele>
        <time>2021-08-13T08:25:50.176Z</time>
      </trkpt>
      <trkpt lat="46.83896" lon="8.42267">
        <ele>1749</ele>
        <time>2021-08-13T08:25:51.176Z</time>
      </trkpt>
      <trkpt lat="46.83896" lon="8.42268">
        <ele>1749</ele>
        <time>2021-08-13T08:25:52.176Z</time>
      </trkpt>
      <trkpt lat="46.83895" lon="8.4227">
        <ele>1748</ele>
        <time>2021-08-13T08:25:53.176Z</time>
      </trkpt>
      <trkpt lat="46.83895" lon="8.4227">
        <ele>1748</ele>
        <time>2021-08-13T08:25:54.176Z</time>
      </trkpt>
      <trkpt lat="46.83894" lon="8.4227">
        <ele>1748</ele>
        <time>2021-08-13T08:25:55.177Z</time>
      </trkpt>
      <trkpt lat="46.83893" lon="8.42271">
        <ele>1747</ele>
        <time>2021-08-13T08:25:56.177Z</time>
      </trkpt>
      <trkpt lat="46.83893" lon="8.42271">
        <ele>1747</ele>
        <time>2021-08-13T08:25:57.177Z</time>
      </trkpt>
      <trkpt lat="46.83892" lon="8.42272">
        <ele>1746</ele>
        <time>2021-08-13T08:25:58.176Z</time>
      </trkpt>
      <trkpt lat="46.83891" lon="8.42273">
        <ele>1746</ele>
        <time>2021-08-13T08:25:59.177Z</time>
      </trkpt>
      <trkpt lat="46.8389" lon="8.42274">
        <ele>1745</ele>
        <time>2021-08-13T08:26:00.176Z</time>
      </trkpt>
      <trkpt lat="46.83889" lon="8.42275">
        <ele>1745</ele>
        <time>2021-08-13T08:26:01.176Z</time>
      </trkpt>
      <trkpt lat="46.83889" lon="8.42276">
        <ele>1745</ele>
        <time>2021-08-13T08:26:02.176Z</time>
      </trkpt>
      <trkpt lat="46.83888" lon="8.42277">
        <ele>1745</ele>
        <time>2021-08-13T08:26:03.177Z</time>
      </trkpt>
      <trkpt lat="46.83887" lon="8.42278">
        <ele>1745</ele>
        <time>2021-08-13T08:26:04.176Z</time>
      </trkpt>
      <trkpt lat="46.83886" lon="8.42279">
        <ele>1745</ele>
        <time>2021-08-13T08:26:05.176Z</time>
      </trkpt>
      <trkpt lat="46.83884" lon="8.42279">
        <ele>1745</ele>
        <time>2021-08-13T08:26:06.177Z</time>
      </trkpt>
      <trkpt lat="46.83883" lon="8.42279">
        <ele>1745</ele>
        <time>2021-08-13T08:26:07.177Z</time>
      </trkpt>
      <trkpt lat="46.83882" lon="8.42279">
        <ele>1745</ele>
        <time>2021-08-13T08:26:08.177Z</time>
      </trkpt>
      <trkpt lat="46.83881" lon="8.42279">
        <ele>1745</ele>
        <time>2021-08-13T08:26:09.176Z</time>
      </trkpt>
      <trkpt lat="46.83879" lon="8.42278">
        <ele>1745</ele>
        <time>2021-08-13T08:26:10.177Z</time>
      </trkpt>
      <trkpt lat="46.83878" lon="8.42277">
        <ele>1745</ele>
        <time>2021-08-13T08:26:11.176Z</time>
      </trkpt>
      <trkpt lat="46.83878" lon="8.42277">
        <ele>1746</ele>
        <time>2021-08-13T08:26:12.176Z</time>
      </trkpt>
      <trkpt lat="46.83876" lon="8.42275">
        <ele>1746</ele>
        <time>2021-08-13T08:26:13.176Z</time>
      </trkpt>
      <trkpt lat="46.83876" lon="8.42274">
        <ele>1746</ele>
        <time>2021-08-13T08:26:14.176Z</time>
      </trkpt>
      <trkpt lat="46.83875" lon="8.42273">
        <ele>1746</ele>
        <time>2021-08-13T08:26:15.176Z</time>
      </trkpt>
      <trkpt lat="46.83874" lon="8.42272">
        <ele>1746</ele>
        <time>2021-08-13T08:26:16.176Z</time>
      </trkpt>
      <trkpt lat="46.83874" lon="8.42271">
        <ele>1746</ele>
        <time>2021-08-13T08:26:17.176Z</time>
      </trkpt>
      <trkpt lat="46.83873" lon="8.4227">
        <ele>1746</ele>
        <time>2021-08-13T08:26:18.176Z</time>
      </trkpt>
      <trkpt lat="46.83873" lon="8.42269">
        <ele>1746</ele>
        <time>2021-08-13T08:26:19.176Z</time>
      </trkpt>
      <trkpt lat="46.83872" lon="8.42268">
        <ele>1746</ele>
        <time>2021-08-13T08:26:20.176Z</time>
      </trkpt>
      <trkpt lat="46.83871" lon="8.42266">
        <ele>1746</ele>
        <time>2021-08-13T08:26:21.176Z</time>
      </trkpt>
      <trkpt lat="46.8387" lon="8.42265">
        <ele>1746</ele>
        <time>2021-08-13T08:26:22.177Z</time>
      </trkpt>
      <trkpt lat="46.83869" lon="8.42263">
        <ele>1745</ele>
        <time>2021-08-13T08:26:23.177Z</time>
      </trkpt>
      <trkpt lat="46.83868" lon="8.42262">
        <ele>1745</ele>
        <time>2021-08-13T08:26:24.176Z</time>
      </trkpt>
      <trkpt lat="46.83868" lon="8.42261">
        <ele>1745</ele>
        <time>2021-08-13T08:26:25.177Z</time>
      </trkpt>
      <trkpt lat="46.83867" lon="8.4226">
        <ele>1744</ele>
        <time>2021-08-13T08:26:26.177Z</time>
      </trkpt>
      <trkpt lat="46.83866" lon="8.42259">
        <ele>1743</ele>
        <time>2021-08-13T08:26:27.176Z</time>
      </trkpt>
      <trkpt lat="46.83865" lon="8.42258">
        <ele>1742</ele>
        <time>2021-08-13T08:26:28.176Z</time>
      </trkpt>
      <trkpt lat="46.83864" lon="8.42256">
        <ele>1742</ele>
        <time>2021-08-13T08:26:29.177Z</time>
      </trkpt>
      <trkpt lat="46.83864" lon="8.42255">
        <ele>1741</ele>
        <time>2021-08-13T08:26:30.176Z</time>
      </trkpt>
      <trkpt lat="46.83863" lon="8.42254">
        <ele>1741</ele>
        <time>2021-08-13T08:26:31.176Z</time>
      </trkpt>
      <trkpt lat="46.83863" lon="8.42253">
        <ele>1741</ele>
        <time>2021-08-13T08:26:32.177Z</time>
      </trkpt>
      <trkpt lat="46.83862" lon="8.42252">
        <ele>1741</ele>
        <time>2021-08-13T08:26:33.177Z</time>
      </trkpt>
      <trkpt lat="46.83862" lon="8.42251">
        <ele>1741</ele>
        <time>2021-08-13T08:26:34.177Z</time>
      </trkpt>
      <trkpt lat="46.83861" lon="8.4225">
        <ele>1741</ele>
        <time>2021-08-13T08:26:35.177Z</time>
      </trkpt>
      <trkpt lat="46.8386" lon="8.42249">
        <ele>1740</ele>
        <time>2021-08-13T08:26:36.177Z</time>
      </trkpt>
      <trkpt lat="46.8386" lon="8.42247">
        <ele>1740</ele>
        <time>2021-08-13T08:26:37.177Z</time>
      </trkpt>
      <trkpt lat="46.83859" lon="8.42246">
        <ele>1740</ele>
        <time>2021-08-13T08:26:38.177Z</time>
      </trkpt>
      <trkpt lat="46.83858" lon="8.42245">
        <ele>1740</ele>
        <time>2021-08-13T08:26:39.176Z</time>
      </trkpt>
      <trkpt lat="46.83857" lon="8.42244">
        <ele>1740</ele>
        <time>2021-08-13T08:26:40.177Z</time>
      </trkpt>
      <trkpt lat="46.83856" lon="8.42243">
        <ele>1740</ele>
        <time>2021-08-13T08:26:41.177Z</time>
      </trkpt>
      <trkpt lat="46.83855" lon="8.42242">
        <ele>1739</ele>
        <time>2021-08-13T08:26:42.177Z</time>
      </trkpt>
      <trkpt lat="46.83854" lon="8.42241">
        <ele>1739</ele>
        <time>2021-08-13T08:26:43.177Z</time>
      </trkpt>
      <trkpt lat="46.83853" lon="8.4224">
        <ele>1738</ele>
        <time>2021-08-13T08:26:44.176Z</time>
      </trkpt>
      <trkpt lat="46.83852" lon="8.42239">
        <ele>1737</ele>
        <time>2021-08-13T08:26:45.177Z</time>
      </trkpt>
      <trkpt lat="46.83851" lon="8.42238">
        <ele>1737</ele>
        <time>2021-08-13T08:26:46.176Z</time>
      </trkpt>
      <trkpt lat="46.8385" lon="8.42237">
        <ele>1737</ele>
        <time>2021-08-13T08:26:47.177Z</time>
      </trkpt>
      <trkpt lat="46.83849" lon="8.42236">
        <ele>1737</ele>
        <time>2021-08-13T08:26:48.177Z</time>
      </trkpt>
      <trkpt lat="46.83848" lon="8.42234">
        <ele>1737</ele>
        <time>2021-08-13T08:26:49.177Z</time>
      </trkpt>
      <trkpt lat="46.83847" lon="8.42233">
        <ele>1737</ele>
        <time>2021-08-13T08:26:50.176Z</time>
      </trkpt>
      <trkpt lat="46.83846" lon="8.42232">
        <ele>1737</ele>
        <time>2021-08-13T08:26:51.177Z</time>
      </trkpt>
      <trkpt lat="46.83846" lon="8.42231">
        <ele>1736</ele>
        <time>2021-08-13T08:26:52.176Z</time>
      </trkpt>
      <trkpt lat="46.83845" lon="8.42231">
        <ele>1736</ele>
        <time>2021-08-13T08:26:53.177Z</time>
      </trkpt>
      <trkpt lat="46.83844" lon="8.4223">
        <ele>1736</ele>
        <time>2021-08-13T08:26:54.177Z</time>
      </trkpt>
      <trkpt lat="46.83842" lon="8.42229">
        <ele>1736</ele>
        <time>2021-08-13T08:26:55.177Z</time>
      </trkpt>
      <trkpt lat="46.83841" lon="8.42228">
        <ele>1736</ele>
        <time>2021-08-13T08:26:56.176Z</time>
      </trkpt>
      <trkpt lat="46.8384" lon="8.42227">
        <ele>1736</ele>
        <time>2021-08-13T08:26:57.177Z</time>
      </trkpt>
      <trkpt lat="46.83839" lon="8.42226">
        <ele>1735</ele>
        <time>2021-08-13T08:26:58.176Z</time>
      </trkpt>
      <trkpt lat="46.83838" lon="8.42226">
        <ele>1734</ele>
        <time>2021-08-13T08:26:59.177Z</time>
      </trkpt>
      <trkpt lat="46.83838" lon="8.42225">
        <ele>1734</ele>
        <time>2021-08-13T08:27:00.176Z</time>
      </trkpt>
      <trkpt lat="46.83837" lon="8.42224">
        <ele>1734</ele>
        <time>2021-08-13T08:27:01.176Z</time>
      </trkpt>
      <trkpt lat="46.83836" lon="8.42222">
        <ele>1734</ele>
        <time>2021-08-13T08:27:02.177Z</time>
      </trkpt>
      <trkpt lat="46.83835" lon="8.42221">
        <ele>1734</ele>
        <time>2021-08-13T08:27:03.177Z</time>
      </trkpt>
      <trkpt lat="46.83834" lon="8.4222">
        <ele>1734</ele>
        <time>2021-08-13T08:27:04.177Z</time>
      </trkpt>
      <trkpt lat="46.83833" lon="8.42219">
        <ele>1734</ele>
        <time>2021-08-13T08:27:05.177Z</time>
      </trkpt>
      <trkpt lat="46.83832" lon="8.42218">
        <ele>1734</ele>
        <time>2021-08-13T08:27:06.177Z</time>
      </trkpt>
      <trkpt lat="46.83831" lon="8.42217">
        <ele>1734</ele>
        <time>2021-08-13T08:27:07.177Z</time>
      </trkpt>
      <trkpt lat="46.8383" lon="8.42216">
        <ele>1734</ele>
        <time>2021-08-13T08:27:08.177Z</time>
      </trkpt>
      <trkpt lat="46.83829" lon="8.42215">
        <ele>1734</ele>
        <time>2021-08-13T08:27:09.176Z</time>
      </trkpt>
      <trkpt lat="46.83828" lon="8.42214">
        <ele>1733</ele>
        <time>2021-08-13T08:27:10.177Z</time>
      </trkpt>
      <trkpt lat="46.83827" lon="8.42212">
        <ele>1733</ele>
        <time>2021-08-13T08:27:11.176Z</time>
      </trkpt>
      <trkpt lat="46.83826" lon="8.42211">
        <ele>1732</ele>
        <time>2021-08-13T08:27:12.176Z</time>
      </trkpt>
      <trkpt lat="46.83826" lon="8.4221">
        <ele>1732</ele>
        <time>2021-08-13T08:27:13.177Z</time>
      </trkpt>
      <trkpt lat="46.83825" lon="8.42208">
        <ele>1731</ele>
        <time>2021-08-13T08:27:14.177Z</time>
      </trkpt>
      <trkpt lat="46.83824" lon="8.42206">
        <ele>1731</ele>
        <time>2021-08-13T08:27:15.177Z</time>
      </trkpt>
      <trkpt lat="46.83823" lon="8.42205">
        <ele>1730</ele>
        <time>2021-08-13T08:27:16.176Z</time>
      </trkpt>
      <trkpt lat="46.83822" lon="8.42203">
        <ele>1730</ele>
        <time>2021-08-13T08:27:17.177Z</time>
      </trkpt>
      <trkpt lat="46.83822" lon="8.42202">
        <ele>1730</ele>
        <time>2021-08-13T08:27:18.177Z</time>
      </trkpt>
      <trkpt lat="46.83821" lon="8.422">
        <ele>1729</ele>
        <time>2021-08-13T08:27:19.176Z</time>
      </trkpt>
      <trkpt lat="46.83821" lon="8.42199">
        <ele>1729</ele>
        <time>2021-08-13T08:27:20.176Z</time>
      </trkpt>
      <trkpt lat="46.83821" lon="8.42197">
        <ele>1729</ele>
        <time>2021-08-13T08:27:21.177Z</time>
      </trkpt>
      <trkpt lat="46.83821" lon="8.42194">
        <ele>1729</ele>
        <time>2021-08-13T08:27:22.177Z</time>
      </trkpt>
      <trkpt lat="46.83821" lon="8.42193">
        <ele>1729</ele>
        <time>2021-08-13T08:27:23.177Z</time>
      </trkpt>
      <trkpt lat="46.83821" lon="8.42191">
        <ele>1729</ele>
        <time>2021-08-13T08:27:24.176Z</time>
      </trkpt>
      <trkpt lat="46.83821" lon="8.42189">
        <ele>1729</ele>
        <time>2021-08-13T08:27:25.176Z</time>
      </trkpt>
      <trkpt lat="46.83821" lon="8.42187">
        <ele>1729</ele>
        <time>2021-08-13T08:27:26.177Z</time>
      </trkpt>
      <trkpt lat="46.83822" lon="8.42186">
        <ele>1729</ele>
        <time>2021-08-13T08:27:27.177Z</time>
      </trkpt>
      <trkpt lat="46.83822" lon="8.42184">
        <ele>1729</ele>
        <time>2021-08-13T08:27:28.177Z</time>
      </trkpt>
      <trkpt lat="46.83823" lon="8.42182">
        <ele>1729</ele>
        <time>2021-08-13T08:27:29.176Z</time>
      </trkpt>
      <trkpt lat="46.83823" lon="8.4218">
        <ele>1729</ele>
        <time>2021-08-13T08:27:30.177Z</time>
      </trkpt>
      <trkpt lat="46.83823" lon="8.42179">
        <ele>1728</ele>
        <time>2021-08-13T08:27:31.176Z</time>
      </trkpt>
      <trkpt lat="46.83824" lon="8.42178">
        <ele>1728</ele>
        <time>2021-08-13T08:27:32.176Z</time>
      </trkpt>
      <trkpt lat="46.83824" lon="8.42176">
        <ele>1728</ele>
        <time>2021-08-13T08:27:33.177Z</time>
      </trkpt>
      <trkpt lat="46.83825" lon="8.42174">
        <ele>1727</ele>
        <time>2021-08-13T08:27:34.177Z</time>
      </trkpt>
      <trkpt lat="46.83825" lon="8.42173">
        <ele>1727</ele>
        <time>2021-08-13T08:27:35.176Z</time>
      </trkpt>
      <trkpt lat="46.83826" lon="8.4217">
        <ele>1727</ele>
        <time>2021-08-13T08:27:36.176Z</time>
      </trkpt>
      <trkpt lat="46.83827" lon="8.42169">
        <ele>1727</ele>
        <time>2021-08-13T08:27:37.177Z</time>
      </trkpt>
      <trkpt lat="46.83828" lon="8.42167">
        <ele>1727</ele>
        <time>2021-08-13T08:27:38.177Z</time>
      </trkpt>
      <trkpt lat="46.83829" lon="8.42165">
        <ele>1727</ele>
        <time>2021-08-13T08:27:39.176Z</time>
      </trkpt>
      <trkpt lat="46.83829" lon="8.42163">
        <ele>1726</ele>
        <time>2021-08-13T08:27:40.177Z</time>
      </trkpt>
      <trkpt lat="46.8383" lon="8.42162">
        <ele>1727</ele>
        <time>2021-08-13T08:27:41.177Z</time>
      </trkpt>
      <trkpt lat="46.8383" lon="8.4216">
        <ele>1727</ele>
        <time>2021-08-13T08:27:42.176Z</time>
      </trkpt>
      <trkpt lat="46.8383" lon="8.42158">
        <ele>1726</ele>
        <time>2021-08-13T08:27:43.177Z</time>
      </trkpt>
      <trkpt lat="46.8383" lon="8.42157">
        <ele>1726</ele>
        <time>2021-08-13T08:27:44.176Z</time>
      </trkpt>
      <trkpt lat="46.83829" lon="8.42155">
        <ele>1726</ele>
        <time>2021-08-13T08:27:45.177Z</time>
      </trkpt>
      <trkpt lat="46.83829" lon="8.42154">
        <ele>1726</ele>
        <time>2021-08-13T08:27:46.177Z</time>
      </trkpt>
      <trkpt lat="46.83829" lon="8.42153">
        <ele>1726</ele>
        <time>2021-08-13T08:27:47.176Z</time>
      </trkpt>
      <trkpt lat="46.83828" lon="8.42152">
        <ele>1725</ele>
        <time>2021-08-13T08:27:48.177Z</time>
      </trkpt>
      <trkpt lat="46.83826" lon="8.42151">
        <ele>1725</ele>
        <time>2021-08-13T08:27:49.177Z</time>
      </trkpt>
      <trkpt lat="46.83825" lon="8.4215">
        <ele>1724</ele>
        <time>2021-08-13T08:27:50.176Z</time>
      </trkpt>
      <trkpt lat="46.83824" lon="8.4215">
        <ele>1724</ele>
        <time>2021-08-13T08:27:51.177Z</time>
      </trkpt>
      <trkpt lat="46.83823" lon="8.4215">
        <ele>1723</ele>
        <time>2021-08-13T08:27:52.176Z</time>
      </trkpt>
      <trkpt lat="46.83824" lon="8.42152">
        <ele>1723</ele>
        <time>2021-08-13T08:27:53.177Z</time>
      </trkpt>
      <trkpt lat="46.83824" lon="8.42152">
        <ele>1723</ele>
        <time>2021-08-13T08:27:54.176Z</time>
      </trkpt>
      <trkpt lat="46.83824" lon="8.42152">
        <ele>1723</ele>
        <time>2021-08-13T08:27:55.176Z</time>
      </trkpt>
      <trkpt lat="46.83823" lon="8.4215">
        <ele>1723</ele>
        <time>2021-08-13T08:27:56.178Z</time>
      </trkpt>
      <trkpt lat="46.83824" lon="8.42149">
        <ele>1723</ele>
        <time>2021-08-13T08:27:57.178Z</time>
      </trkpt>
      <trkpt lat="46.83823" lon="8.42148">
        <ele>1724</ele>
        <time>2021-08-13T08:27:58.177Z</time>
      </trkpt>
      <trkpt lat="46.83823" lon="8.42148">
        <ele>1724</ele>
        <time>2021-08-13T08:27:59.178Z</time>
      </trkpt>
      <trkpt lat="46.83823" lon="8.42147">
        <ele>1724</ele>
        <time>2021-08-13T08:28:00.178Z</time>
      </trkpt>
      <trkpt lat="46.83823" lon="8.42147">
        <ele>1724</ele>
        <time>2021-08-13T08:28:01.178Z</time>
      </trkpt>
      <trkpt lat="46.83823" lon="8.42146">
        <ele>1724</ele>
        <time>2021-08-13T08:28:02.177Z</time>
      </trkpt>
      <trkpt lat="46.83823" lon="8.42145">
        <ele>1723</ele>
        <time>2021-08-13T08:28:03.178Z</time>
      </trkpt>
      <trkpt lat="46.83823" lon="8.42145">
        <ele>1723</ele>
        <time>2021-08-13T08:28:04.179Z</time>
      </trkpt>
      <trkpt lat="46.83823" lon="8.42145">
        <ele>1723</ele>
        <time>2021-08-13T08:28:05.178Z</time>
      </trkpt>
      <trkpt lat="46.83823" lon="8.42145">
        <ele>1723</ele>
        <time>2021-08-13T08:28:06.179Z</time>
      </trkpt>
      <trkpt lat="46.83822" lon="8.42144">
        <ele>1722</ele>
        <time>2021-08-13T08:28:07.179Z</time>
      </trkpt>
      <trkpt lat="46.83821" lon="8.42143">
        <ele>1721</ele>
        <time>2021-08-13T08:28:08.179Z</time>
      </trkpt>
      <trkpt lat="46.83821" lon="8.42142">
        <ele>1720</ele>
        <time>2021-08-13T08:28:09.179Z</time>
      </trkpt>
      <trkpt lat="46.8382" lon="8.42141">
        <ele>1720</ele>
        <time>2021-08-13T08:28:10.178Z</time>
      </trkpt>
      <trkpt lat="46.83819" lon="8.42141">
        <ele>1720</ele>
        <time>2021-08-13T08:28:11.179Z</time>
      </trkpt>
      <trkpt lat="46.83817" lon="8.42141">
        <ele>1719</ele>
        <time>2021-08-13T08:28:12.178Z</time>
      </trkpt>
      <trkpt lat="46.83816" lon="8.42141">
        <ele>1720</ele>
        <time>2021-08-13T08:28:13.178Z</time>
      </trkpt>
      <trkpt lat="46.83815" lon="8.4214">
        <ele>1720</ele>
        <time>2021-08-13T08:28:14.178Z</time>
      </trkpt>
      <trkpt lat="46.83814" lon="8.4214">
        <ele>1720</ele>
        <time>2021-08-13T08:28:15.179Z</time>
      </trkpt>
      <trkpt lat="46.83813" lon="8.4214">
        <ele>1721</ele>
        <time>2021-08-13T08:28:16.178Z</time>
      </trkpt>
      <trkpt lat="46.83812" lon="8.4214">
        <ele>1721</ele>
        <time>2021-08-13T08:28:17.179Z</time>
      </trkpt>
      <trkpt lat="46.8381" lon="8.4214">
        <ele>1721</ele>
        <time>2021-08-13T08:28:18.179Z</time>
      </trkpt>
      <trkpt lat="46.83809" lon="8.4214">
        <ele>1721</ele>
        <time>2021-08-13T08:28:19.179Z</time>
      </trkpt>
      <trkpt lat="46.83808" lon="8.42139">
        <ele>1721</ele>
        <time>2021-08-13T08:28:20.178Z</time>
      </trkpt>
      <trkpt lat="46.83807" lon="8.42139">
        <ele>1721</ele>
        <time>2021-08-13T08:28:21.178Z</time>
      </trkpt>
      <trkpt lat="46.83807" lon="8.42138">
        <ele>1721</ele>
        <time>2021-08-13T08:28:22.179Z</time>
      </trkpt>
      <trkpt lat="46.83805" lon="8.42137">
        <ele>1721</ele>
        <time>2021-08-13T08:28:23.178Z</time>
      </trkpt>
      <trkpt lat="46.83804" lon="8.42137">
        <ele>1721</ele>
        <time>2021-08-13T08:28:24.178Z</time>
      </trkpt>
      <trkpt lat="46.83803" lon="8.42138">
        <ele>1721</ele>
        <time>2021-08-13T08:28:25.178Z</time>
      </trkpt>
      <trkpt lat="46.83803" lon="8.42138">
        <ele>1720</ele>
        <time>2021-08-13T08:28:26.178Z</time>
      </trkpt>
      <trkpt lat="46.83802" lon="8.42138">
        <ele>1720</ele>
        <time>2021-08-13T08:28:27.178Z</time>
      </trkpt>
      <trkpt lat="46.83802" lon="8.42138">
        <ele>1720</ele>
        <time>2021-08-13T08:28:28.179Z</time>
      </trkpt>
      <trkpt lat="46.83801" lon="8.42138">
        <ele>1719</ele>
        <time>2021-08-13T08:28:29.178Z</time>
      </trkpt>
      <trkpt lat="46.838" lon="8.42137">
        <ele>1718</ele>
        <time>2021-08-13T08:28:30.179Z</time>
      </trkpt>
      <trkpt lat="46.838" lon="8.42136">
        <ele>1718</ele>
        <time>2021-08-13T08:28:31.179Z</time>
      </trkpt>
      <trkpt lat="46.83799" lon="8.42136">
        <ele>1718</ele>
        <time>2021-08-13T08:28:32.179Z</time>
      </trkpt>
      <trkpt lat="46.83799" lon="8.42136">
        <ele>1718</ele>
        <time>2021-08-13T08:28:33.179Z</time>
      </trkpt>
      <trkpt lat="46.83798" lon="8.42135">
        <ele>1718</ele>
        <time>2021-08-13T08:28:34.179Z</time>
      </trkpt>
      <trkpt lat="46.83799" lon="8.42135">
        <ele>1717</ele>
        <time>2021-08-13T08:28:35.179Z</time>
      </trkpt>
      <trkpt lat="46.83798" lon="8.42134">
        <ele>1717</ele>
        <time>2021-08-13T08:28:36.178Z</time>
      </trkpt>
      <trkpt lat="46.83797" lon="8.42133">
        <ele>1716</ele>
        <time>2021-08-13T08:28:37.179Z</time>
      </trkpt>
      <trkpt lat="46.83796" lon="8.42132">
        <ele>1716</ele>
        <time>2021-08-13T08:28:38.178Z</time>
      </trkpt>
      <trkpt lat="46.83796" lon="8.42132">
        <ele>1716</ele>
        <time>2021-08-13T08:28:39.179Z</time>
      </trkpt>
      <trkpt lat="46.83795" lon="8.42132">
        <ele>1715</ele>
        <time>2021-08-13T08:28:40.178Z</time>
      </trkpt>
      <trkpt lat="46.83795" lon="8.42131">
        <ele>1715</ele>
        <time>2021-08-13T08:28:41.179Z</time>
      </trkpt>
      <trkpt lat="46.83795" lon="8.42131">
        <ele>1715</ele>
        <time>2021-08-13T08:28:42.179Z</time>
      </trkpt>
      <trkpt lat="46.83795" lon="8.42131">
        <ele>1715</ele>
        <time>2021-08-13T08:28:43.179Z</time>
      </trkpt>
      <trkpt lat="46.83793" lon="8.4213">
        <ele>1713</ele>
        <time>2021-08-13T08:28:44.180Z</time>
      </trkpt>
      <trkpt lat="46.83792" lon="8.4213">
        <ele>1713</ele>
        <time>2021-08-13T08:28:45.180Z</time>
      </trkpt>
      <trkpt lat="46.83792" lon="8.42129">
        <ele>1712</ele>
        <time>2021-08-13T08:28:46.179Z</time>
      </trkpt>
      <trkpt lat="46.83791" lon="8.42128">
        <ele>1711</ele>
        <time>2021-08-13T08:28:47.180Z</time>
      </trkpt>
      <trkpt lat="46.8379" lon="8.42127">
        <ele>1711</ele>
        <time>2021-08-13T08:28:48.179Z</time>
      </trkpt>
      <trkpt lat="46.8379" lon="8.42127">
        <ele>1711</ele>
        <time>2021-08-13T08:28:49.179Z</time>
      </trkpt>
      <trkpt lat="46.83789" lon="8.42126">
        <ele>1711</ele>
        <time>2021-08-13T08:28:50.180Z</time>
      </trkpt>
      <trkpt lat="46.83788" lon="8.42125">
        <ele>1711</ele>
        <time>2021-08-13T08:28:51.180Z</time>
      </trkpt>
      <trkpt lat="46.83788" lon="8.42124">
        <ele>1711</ele>
        <time>2021-08-13T08:28:52.179Z</time>
      </trkpt>
      <trkpt lat="46.83787" lon="8.42124">
        <ele>1711</ele>
        <time>2021-08-13T08:28:53.180Z</time>
      </trkpt>
      <trkpt lat="46.83787" lon="8.42123">
        <ele>1712</ele>
        <time>2021-08-13T08:28:54.180Z</time>
      </trkpt>
      <trkpt lat="46.83787" lon="8.42123">
        <ele>1712</ele>
        <time>2021-08-13T08:28:55.179Z</time>
      </trkpt>
      <trkpt lat="46.83786" lon="8.42122">
        <ele>1712</ele>
        <time>2021-08-13T08:28:56.180Z</time>
      </trkpt>
      <trkpt lat="46.83786" lon="8.42122">
        <ele>1712</ele>
        <time>2021-08-13T08:28:57.180Z</time>
      </trkpt>
      <trkpt lat="46.83785" lon="8.42121">
        <ele>1712</ele>
        <time>2021-08-13T08:28:58.179Z</time>
      </trkpt>
      <trkpt lat="46.83785" lon="8.42121">
        <ele>1712</ele>
        <time>2021-08-13T08:28:59.180Z</time>
      </trkpt>
      <trkpt lat="46.83784" lon="8.42121">
        <ele>1711</ele>
        <time>2021-08-13T08:29:00.180Z</time>
      </trkpt>
      <trkpt lat="46.83784" lon="8.42121">
        <ele>1711</ele>
        <time>2021-08-13T08:29:01.180Z</time>
      </trkpt>
      <trkpt lat="46.83783" lon="8.42121">
        <ele>1711</ele>
        <time>2021-08-13T08:29:02.179Z</time>
      </trkpt>
      <trkpt lat="46.83783" lon="8.42122">
        <ele>1711</ele>
        <time>2021-08-13T08:29:03.179Z</time>
      </trkpt>
      <trkpt lat="46.83782" lon="8.42122">
        <ele>1710</ele>
        <time>2021-08-13T08:29:04.179Z</time>
      </trkpt>
      <trkpt lat="46.83782" lon="8.42122">
        <ele>1710</ele>
        <time>2021-08-13T08:29:05.179Z</time>
      </trkpt>
      <trkpt lat="46.83781" lon="8.42122">
        <ele>1710</ele>
        <time>2021-08-13T08:29:06.180Z</time>
      </trkpt>
      <trkpt lat="46.8378" lon="8.42122">
        <ele>1710</ele>
        <time>2021-08-13T08:29:07.180Z</time>
      </trkpt>
      <trkpt lat="46.8378" lon="8.42121">
        <ele>1710</ele>
        <time>2021-08-13T08:29:08.179Z</time>
      </trkpt>
      <trkpt lat="46.83779" lon="8.42121">
        <ele>1710</ele>
        <time>2021-08-13T08:29:09.180Z</time>
      </trkpt>
      <trkpt lat="46.83779" lon="8.4212">
        <ele>1710</ele>
        <time>2021-08-13T08:29:10.180Z</time>
      </trkpt>
      <trkpt lat="46.83778" lon="8.4212">
        <ele>1710</ele>
        <time>2021-08-13T08:29:11.180Z</time>
      </trkpt>
      <trkpt lat="46.83777" lon="8.4212">
        <ele>1711</ele>
        <time>2021-08-13T08:29:12.180Z</time>
      </trkpt>
      <trkpt lat="46.83776" lon="8.42119">
        <ele>1711</ele>
        <time>2021-08-13T08:29:13.180Z</time>
      </trkpt>
      <trkpt lat="46.83776" lon="8.42119">
        <ele>1711</ele>
        <time>2021-08-13T08:29:14.180Z</time>
      </trkpt>
      <trkpt lat="46.83775" lon="8.42118">
        <ele>1711</ele>
        <time>2021-08-13T08:29:15.179Z</time>
      </trkpt>
      <trkpt lat="46.83775" lon="8.42117">
        <ele>1711</ele>
        <time>2021-08-13T08:29:16.180Z</time>
      </trkpt>
      <trkpt lat="46.83774" lon="8.42116">
        <ele>1711</ele>
        <time>2021-08-13T08:29:17.180Z</time>
      </trkpt>
      <trkpt lat="46.83774" lon="8.42116">
        <ele>1710</ele>
        <time>2021-08-13T08:29:18.179Z</time>
      </trkpt>
      <trkpt lat="46.83773" lon="8.42115">
        <ele>1710</ele>
        <time>2021-08-13T08:29:19.179Z</time>
      </trkpt>
      <trkpt lat="46.83773" lon="8.42114">
        <ele>1709</ele>
        <time>2021-08-13T08:29:20.180Z</time>
      </trkpt>
      <trkpt lat="46.83773" lon="8.42114">
        <ele>1709</ele>
        <time>2021-08-13T08:29:21.179Z</time>
      </trkpt>
      <trkpt lat="46.83772" lon="8.42114">
        <ele>1708</ele>
        <time>2021-08-13T08:29:22.180Z</time>
      </trkpt>
      <trkpt lat="46.83772" lon="8.42114">
        <ele>1708</ele>
        <time>2021-08-13T08:29:23.180Z</time>
      </trkpt>
      <trkpt lat="46.83771" lon="8.42114">
        <ele>1708</ele>
        <time>2021-08-13T08:29:24.179Z</time>
      </trkpt>
      <trkpt lat="46.83771" lon="8.42114">
        <ele>1707</ele>
        <time>2021-08-13T08:29:25.180Z</time>
      </trkpt>
      <trkpt lat="46.8377" lon="8.42113">
        <ele>1707</ele>
        <time>2021-08-13T08:29:26.179Z</time>
      </trkpt>
      <trkpt lat="46.83769" lon="8.42113">
        <ele>1707</ele>
        <time>2021-08-13T08:29:27.179Z</time>
      </trkpt>
      <trkpt lat="46.83768" lon="8.42112">
        <ele>1706</ele>
        <time>2021-08-13T08:29:28.180Z</time>
      </trkpt>
      <trkpt lat="46.83768" lon="8.42111">
        <ele>1706</ele>
        <time>2021-08-13T08:29:29.180Z</time>
      </trkpt>
      <trkpt lat="46.83767" lon="8.42111">
        <ele>1705</ele>
        <time>2021-08-13T08:29:30.180Z</time>
      </trkpt>
      <trkpt lat="46.83766" lon="8.42111">
        <ele>1705</ele>
        <time>2021-08-13T08:29:31.180Z</time>
      </trkpt>
      <trkpt lat="46.83766" lon="8.42111">
        <ele>1704</ele>
        <time>2021-08-13T08:29:32.179Z</time>
      </trkpt>
      <trkpt lat="46.83765" lon="8.42111">
        <ele>1704</ele>
        <time>2021-08-13T08:29:33.180Z</time>
      </trkpt>
      <trkpt lat="46.83764" lon="8.4211">
        <ele>1704</ele>
        <time>2021-08-13T08:29:34.180Z</time>
      </trkpt>
      <trkpt lat="46.83763" lon="8.4211">
        <ele>1703</ele>
        <time>2021-08-13T08:29:35.180Z</time>
      </trkpt>
      <trkpt lat="46.83763" lon="8.42109">
        <ele>1702</ele>
        <time>2021-08-13T08:29:36.180Z</time>
      </trkpt>
      <trkpt lat="46.83762" lon="8.42109">
        <ele>1702</ele>
        <time>2021-08-13T08:29:37.180Z</time>
      </trkpt>
      <trkpt lat="46.83762" lon="8.42109">
        <ele>1702</ele>
        <time>2021-08-13T08:29:38.179Z</time>
      </trkpt>
      <trkpt lat="46.83761" lon="8.42108">
        <ele>1701</ele>
        <time>2021-08-13T08:29:39.180Z</time>
      </trkpt>
      <trkpt lat="46.83761" lon="8.42108">
        <ele>1701</ele>
        <time>2021-08-13T08:29:40.180Z</time>
      </trkpt>
      <trkpt lat="46.8376" lon="8.42108">
        <ele>1701</ele>
        <time>2021-08-13T08:29:41.180Z</time>
      </trkpt>
      <trkpt lat="46.8376" lon="8.42109">
        <ele>1701</ele>
        <time>2021-08-13T08:29:42.179Z</time>
      </trkpt>
      <trkpt lat="46.83759" lon="8.42109">
        <ele>1700</ele>
        <time>2021-08-13T08:29:43.180Z</time>
      </trkpt>
      <trkpt lat="46.83758" lon="8.42108">
        <ele>1700</ele>
        <time>2021-08-13T08:29:44.180Z</time>
      </trkpt>
      <trkpt lat="46.83758" lon="8.42108">
        <ele>1700</ele>
        <time>2021-08-13T08:29:45.179Z</time>
      </trkpt>
      <trkpt lat="46.83757" lon="8.42108">
        <ele>1700</ele>
        <time>2021-08-13T08:29:46.180Z</time>
      </trkpt>
      <trkpt lat="46.83756" lon="8.42108">
        <ele>1700</ele>
        <time>2021-08-13T08:29:47.180Z</time>
      </trkpt>
      <trkpt lat="46.83755" lon="8.42108">
        <ele>1700</ele>
        <time>2021-08-13T08:29:48.180Z</time>
      </trkpt>
      <trkpt lat="46.83755" lon="8.42108">
        <ele>1700</ele>
        <time>2021-08-13T08:29:49.179Z</time>
      </trkpt>
      <trkpt lat="46.83754" lon="8.42108">
        <ele>1699</ele>
        <time>2021-08-13T08:29:50.179Z</time>
      </trkpt>
      <trkpt lat="46.83754" lon="8.42108">
        <ele>1699</ele>
        <time>2021-08-13T08:29:51.179Z</time>
      </trkpt>
      <trkpt lat="46.83753" lon="8.42108">
        <ele>1700</ele>
        <time>2021-08-13T08:29:52.180Z</time>
      </trkpt>
      <trkpt lat="46.83754" lon="8.4211">
        <ele>1697</ele>
        <time>2021-08-13T08:29:53.180Z</time>
      </trkpt>
      <trkpt lat="46.83754" lon="8.42112">
        <ele>1697</ele>
        <time>2021-08-13T08:29:54.180Z</time>
      </trkpt>
      <trkpt lat="46.83754" lon="8.42113">
        <ele>1696</ele>
        <time>2021-08-13T08:29:55.179Z</time>
      </trkpt>
      <trkpt lat="46.83755" lon="8.42114">
        <ele>1697</ele>
        <time>2021-08-13T08:29:56.179Z</time>
      </trkpt>
      <trkpt lat="46.83755" lon="8.42115">
        <ele>1697</ele>
        <time>2021-08-13T08:29:57.180Z</time>
      </trkpt>
      <trkpt lat="46.83755" lon="8.42115">
        <ele>1697</ele>
        <time>2021-08-13T08:29:58.179Z</time>
      </trkpt>
      <trkpt lat="46.83755" lon="8.42116">
        <ele>1697</ele>
        <time>2021-08-13T08:29:59.180Z</time>
      </trkpt>
      <trkpt lat="46.83755" lon="8.42116">
        <ele>1697</ele>
        <time>2021-08-13T08:30:00.180Z</time>
      </trkpt>
      <trkpt lat="46.83754" lon="8.42117">
        <ele>1697</ele>
        <time>2021-08-13T08:30:01.180Z</time>
      </trkpt>
      <trkpt lat="46.83753" lon="8.42118">
        <ele>1699</ele>
        <time>2021-08-13T08:30:02.182Z</time>
      </trkpt>
      <trkpt lat="46.83752" lon="8.42117">
        <ele>1699</ele>
        <time>2021-08-13T08:30:03.181Z</time>
      </trkpt>
      <trkpt lat="46.83752" lon="8.42117">
        <ele>1699</ele>
        <time>2021-08-13T08:30:04.181Z</time>
      </trkpt>
      <trkpt lat="46.83752" lon="8.42117">
        <ele>1698</ele>
        <time>2021-08-13T08:30:05.181Z</time>
      </trkpt>
      <trkpt lat="46.83752" lon="8.42116">
        <ele>1698</ele>
        <time>2021-08-13T08:30:06.181Z</time>
      </trkpt>
      <trkpt lat="46.83752" lon="8.42116">
        <ele>1697</ele>
        <time>2021-08-13T08:30:07.181Z</time>
      </trkpt>
      <trkpt lat="46.83751" lon="8.42116">
        <ele>1697</ele>
        <time>2021-08-13T08:30:08.182Z</time>
      </trkpt>
      <trkpt lat="46.83751" lon="8.42115">
        <ele>1696</ele>
        <time>2021-08-13T08:30:09.181Z</time>
      </trkpt>
      <trkpt lat="46.8375" lon="8.42115">
        <ele>1696</ele>
        <time>2021-08-13T08:30:10.181Z</time>
      </trkpt>
      <trkpt lat="46.8375" lon="8.42114">
        <ele>1696</ele>
        <time>2021-08-13T08:30:11.182Z</time>
      </trkpt>
      <trkpt lat="46.83749" lon="8.42114">
        <ele>1695</ele>
        <time>2021-08-13T08:30:12.181Z</time>
      </trkpt>
      <trkpt lat="46.83749" lon="8.42114">
        <ele>1695</ele>
        <time>2021-08-13T08:30:13.182Z</time>
      </trkpt>
      <trkpt lat="46.83748" lon="8.42115">
        <ele>1694</ele>
        <time>2021-08-13T08:30:14.181Z</time>
      </trkpt>
      <trkpt lat="46.83748" lon="8.42114">
        <ele>1694</ele>
        <time>2021-08-13T08:30:15.182Z</time>
      </trkpt>
      <trkpt lat="46.83748" lon="8.42114">
        <ele>1693</ele>
        <time>2021-08-13T08:30:16.182Z</time>
      </trkpt>
      <trkpt lat="46.83747" lon="8.42113">
        <ele>1693</ele>
        <time>2021-08-13T08:30:17.181Z</time>
      </trkpt>
      <trkpt lat="46.83747" lon="8.42113">
        <ele>1693</ele>
        <time>2021-08-13T08:30:18.182Z</time>
      </trkpt>
      <trkpt lat="46.83746" lon="8.42112">
        <ele>1693</ele>
        <time>2021-08-13T08:30:19.182Z</time>
      </trkpt>
      <trkpt lat="46.83746" lon="8.42112">
        <ele>1692</ele>
        <time>2021-08-13T08:30:20.182Z</time>
      </trkpt>
      <trkpt lat="46.83746" lon="8.42112">
        <ele>1692</ele>
        <time>2021-08-13T08:30:21.181Z</time>
      </trkpt>
      <trkpt lat="46.83745" lon="8.42109">
        <ele>1688</ele>
        <time>2021-08-13T08:30:22.183Z</time>
      </trkpt>
      <trkpt lat="46.83745" lon="8.42109">
        <ele>1688</ele>
        <time>2021-08-13T08:30:23.183Z</time>
      </trkpt>
      <trkpt lat="46.83745" lon="8.4211">
        <ele>1688</ele>
        <time>2021-08-13T08:30:24.182Z</time>
      </trkpt>
      <trkpt lat="46.83744" lon="8.42111">
        <ele>1687</ele>
        <time>2021-08-13T08:30:25.182Z</time>
      </trkpt>
      <trkpt lat="46.83743" lon="8.42111">
        <ele>1687</ele>
        <time>2021-08-13T08:30:26.183Z</time>
      </trkpt>
      <trkpt lat="46.83742" lon="8.42111">
        <ele>1687</ele>
        <time>2021-08-13T08:30:27.182Z</time>
      </trkpt>
      <trkpt lat="46.83741" lon="8.42111">
        <ele>1687</ele>
        <time>2021-08-13T08:30:28.182Z</time>
      </trkpt>
      <trkpt lat="46.83741" lon="8.42111">
        <ele>1688</ele>
        <time>2021-08-13T08:30:29.182Z</time>
      </trkpt>
      <trkpt lat="46.83741" lon="8.42111">
        <ele>1688</ele>
        <time>2021-08-13T08:30:30.182Z</time>
      </trkpt>
      <trkpt lat="46.83741" lon="8.42111">
        <ele>1688</ele>
        <time>2021-08-13T08:30:31.182Z</time>
      </trkpt>
      <trkpt lat="46.83741" lon="8.42111">
        <ele>1688</ele>
        <time>2021-08-13T08:30:32.182Z</time>
      </trkpt>
      <trkpt lat="46.83741" lon="8.42111">
        <ele>1689</ele>
        <time>2021-08-13T08:30:33.184Z</time>
      </trkpt>
      <trkpt lat="46.8374" lon="8.4211">
        <ele>1689</ele>
        <time>2021-08-13T08:30:34.184Z</time>
      </trkpt>
      <trkpt lat="46.8374" lon="8.4211">
        <ele>1689</ele>
        <time>2021-08-13T08:30:35.183Z</time>
      </trkpt>
      <trkpt lat="46.8374" lon="8.42109">
        <ele>1689</ele>
        <time>2021-08-13T08:30:36.183Z</time>
      </trkpt>
      <trkpt lat="46.8374" lon="8.42108">
        <ele>1689</ele>
        <time>2021-08-13T08:30:37.184Z</time>
      </trkpt>
      <trkpt lat="46.8374" lon="8.42108">
        <ele>1688</ele>
        <time>2021-08-13T08:30:38.183Z</time>
      </trkpt>
      <trkpt lat="46.8374" lon="8.42108">
        <ele>1688</ele>
        <time>2021-08-13T08:30:39.183Z</time>
      </trkpt>
      <trkpt lat="46.83738" lon="8.4211">
        <ele>1691</ele>
        <time>2021-08-13T08:30:40.184Z</time>
      </trkpt>
      <trkpt lat="46.83738" lon="8.4211">
        <ele>1691</ele>
        <time>2021-08-13T08:30:41.184Z</time>
      </trkpt>
      <trkpt lat="46.83737" lon="8.4211">
        <ele>1691</ele>
        <time>2021-08-13T08:30:42.183Z</time>
      </trkpt>
      <trkpt lat="46.83736" lon="8.4211">
        <ele>1690</ele>
        <time>2021-08-13T08:30:43.183Z</time>
      </trkpt>
      <trkpt lat="46.83735" lon="8.42109">
        <ele>1690</ele>
        <time>2021-08-13T08:30:44.184Z</time>
      </trkpt>
      <trkpt lat="46.83734" lon="8.42108">
        <ele>1690</ele>
        <time>2021-08-13T08:30:45.184Z</time>
      </trkpt>
      <trkpt lat="46.83733" lon="8.42107">
        <ele>1690</ele>
        <time>2021-08-13T08:30:46.184Z</time>
      </trkpt>
      <trkpt lat="46.83732" lon="8.42106">
        <ele>1689</ele>
        <time>2021-08-13T08:30:47.184Z</time>
      </trkpt>
      <trkpt lat="46.83732" lon="8.42106">
        <ele>1689</ele>
        <time>2021-08-13T08:30:48.183Z</time>
      </trkpt>
      <trkpt lat="46.83731" lon="8.42105">
        <ele>1689</ele>
        <time>2021-08-13T08:30:49.184Z</time>
      </trkpt>
      <trkpt lat="46.8373" lon="8.42105">
        <ele>1689</ele>
        <time>2021-08-13T08:30:50.183Z</time>
      </trkpt>
      <trkpt lat="46.83729" lon="8.42105">
        <ele>1689</ele>
        <time>2021-08-13T08:30:51.183Z</time>
      </trkpt>
      <trkpt lat="46.83729" lon="8.42106">
        <ele>1689</ele>
        <time>2021-08-13T08:30:52.183Z</time>
      </trkpt>
      <trkpt lat="46.83728" lon="8.42106">
        <ele>1690</ele>
        <time>2021-08-13T08:30:53.183Z</time>
      </trkpt>
      <trkpt lat="46.83728" lon="8.42106">
        <ele>1689</ele>
        <time>2021-08-13T08:30:54.184Z</time>
      </trkpt>
      <trkpt lat="46.83727" lon="8.42107">
        <ele>1689</ele>
        <time>2021-08-13T08:30:55.184Z</time>
      </trkpt>
      <trkpt lat="46.83727" lon="8.42107">
        <ele>1689</ele>
        <time>2021-08-13T08:30:56.184Z</time>
      </trkpt>
      <trkpt lat="46.83728" lon="8.42107">
        <ele>1688</ele>
        <time>2021-08-13T08:30:57.184Z</time>
      </trkpt>
      <trkpt lat="46.83728" lon="8.42108">
        <ele>1688</ele>
        <time>2021-08-13T08:30:58.184Z</time>
      </trkpt>
      <trkpt lat="46.83727" lon="8.42107">
        <ele>1688</ele>
        <time>2021-08-13T08:30:59.184Z</time>
      </trkpt>
      <trkpt lat="46.83726" lon="8.42106">
        <ele>1688</ele>
        <time>2021-08-13T08:31:00.183Z</time>
      </trkpt>
      <trkpt lat="46.83725" lon="8.42105">
        <ele>1689</ele>
        <time>2021-08-13T08:31:01.184Z</time>
      </trkpt>
      <trkpt lat="46.83723" lon="8.42104">
        <ele>1689</ele>
        <time>2021-08-13T08:31:02.183Z</time>
      </trkpt>
      <trkpt lat="46.83722" lon="8.42103">
        <ele>1689</ele>
        <time>2021-08-13T08:31:03.184Z</time>
      </trkpt>
      <trkpt lat="46.83721" lon="8.42102">
        <ele>1689</ele>
        <time>2021-08-13T08:31:04.184Z</time>
      </trkpt>
      <trkpt lat="46.83719" lon="8.42101">
        <ele>1689</ele>
        <time>2021-08-13T08:31:05.184Z</time>
      </trkpt>
      <trkpt lat="46.83718" lon="8.421">
        <ele>1689</ele>
        <time>2021-08-13T08:31:06.184Z</time>
      </trkpt>
      <trkpt lat="46.83717" lon="8.421">
        <ele>1689</ele>
        <time>2021-08-13T08:31:07.183Z</time>
      </trkpt>
      <trkpt lat="46.83716" lon="8.421">
        <ele>1689</ele>
        <time>2021-08-13T08:31:08.184Z</time>
      </trkpt>
      <trkpt lat="46.83715" lon="8.42101">
        <ele>1689</ele>
        <time>2021-08-13T08:31:09.184Z</time>
      </trkpt>
      <trkpt lat="46.83714" lon="8.42102">
        <ele>1689</ele>
        <time>2021-08-13T08:31:10.184Z</time>
      </trkpt>
      <trkpt lat="46.83714" lon="8.42103">
        <ele>1689</ele>
        <time>2021-08-13T08:31:11.184Z</time>
      </trkpt>
      <trkpt lat="46.83713" lon="8.42104">
        <ele>1688</ele>
        <time>2021-08-13T08:31:12.183Z</time>
      </trkpt>
      <trkpt lat="46.83712" lon="8.42104">
        <ele>1688</ele>
        <time>2021-08-13T08:31:13.184Z</time>
      </trkpt>
      <trkpt lat="46.83711" lon="8.42104">
        <ele>1688</ele>
        <time>2021-08-13T08:31:14.184Z</time>
      </trkpt>
      <trkpt lat="46.8371" lon="8.42104">
        <ele>1688</ele>
        <time>2021-08-13T08:31:15.184Z</time>
      </trkpt>
      <trkpt lat="46.83709" lon="8.42105">
        <ele>1688</ele>
        <time>2021-08-13T08:31:16.183Z</time>
      </trkpt>
      <trkpt lat="46.83707" lon="8.42106">
        <ele>1688</ele>
        <time>2021-08-13T08:31:17.184Z</time>
      </trkpt>
      <trkpt lat="46.83706" lon="8.42107">
        <ele>1688</ele>
        <time>2021-08-13T08:31:18.184Z</time>
      </trkpt>
      <trkpt lat="46.83705" lon="8.42107">
        <ele>1687</ele>
        <time>2021-08-13T08:31:19.184Z</time>
      </trkpt>
      <trkpt lat="46.83704" lon="8.42108">
        <ele>1687</ele>
        <time>2021-08-13T08:31:20.184Z</time>
      </trkpt>
      <trkpt lat="46.83703" lon="8.42109">
        <ele>1686</ele>
        <time>2021-08-13T08:31:21.184Z</time>
      </trkpt>
      <trkpt lat="46.83702" lon="8.42109">
        <ele>1686</ele>
        <time>2021-08-13T08:31:22.183Z</time>
      </trkpt>
      <trkpt lat="46.83701" lon="8.4211">
        <ele>1685</ele>
        <time>2021-08-13T08:31:23.184Z</time>
      </trkpt>
      <trkpt lat="46.837" lon="8.4211">
        <ele>1685</ele>
        <time>2021-08-13T08:31:24.184Z</time>
      </trkpt>
      <trkpt lat="46.837" lon="8.42111">
        <ele>1684</ele>
        <time>2021-08-13T08:31:25.184Z</time>
      </trkpt>
      <trkpt lat="46.83699" lon="8.42112">
        <ele>1684</ele>
        <time>2021-08-13T08:31:26.184Z</time>
      </trkpt>
      <trkpt lat="46.83699" lon="8.42113">
        <ele>1684</ele>
        <time>2021-08-13T08:31:27.184Z</time>
      </trkpt>
      <trkpt lat="46.83698" lon="8.42114">
        <ele>1684</ele>
        <time>2021-08-13T08:31:28.184Z</time>
      </trkpt>
      <trkpt lat="46.83697" lon="8.42115">
        <ele>1683</ele>
        <time>2021-08-13T08:31:29.183Z</time>
      </trkpt>
      <trkpt lat="46.83697" lon="8.42116">
        <ele>1683</ele>
        <time>2021-08-13T08:31:30.183Z</time>
      </trkpt>
      <trkpt lat="46.83696" lon="8.42116">
        <ele>1682</ele>
        <time>2021-08-13T08:31:31.184Z</time>
      </trkpt>
      <trkpt lat="46.83696" lon="8.42117">
        <ele>1682</ele>
        <time>2021-08-13T08:31:32.183Z</time>
      </trkpt>
      <trkpt lat="46.83696" lon="8.42118">
        <ele>1682</ele>
        <time>2021-08-13T08:31:33.183Z</time>
      </trkpt>
      <trkpt lat="46.83695" lon="8.42118">
        <ele>1681</ele>
        <time>2021-08-13T08:31:34.183Z</time>
      </trkpt>
      <trkpt lat="46.83695" lon="8.42119">
        <ele>1681</ele>
        <time>2021-08-13T08:31:35.184Z</time>
      </trkpt>
      <trkpt lat="46.83695" lon="8.4212">
        <ele>1681</ele>
        <time>2021-08-13T08:31:36.183Z</time>
      </trkpt>
      <trkpt lat="46.83694" lon="8.4212">
        <ele>1681</ele>
        <time>2021-08-13T08:31:37.183Z</time>
      </trkpt>
      <trkpt lat="46.83694" lon="8.42121">
        <ele>1680</ele>
        <time>2021-08-13T08:31:38.183Z</time>
      </trkpt>
      <trkpt lat="46.83694" lon="8.42122">
        <ele>1679</ele>
        <time>2021-08-13T08:31:39.184Z</time>
      </trkpt>
      <trkpt lat="46.83694" lon="8.42123">
        <ele>1679</ele>
        <time>2021-08-13T08:31:40.183Z</time>
      </trkpt>
      <trkpt lat="46.83693" lon="8.42124">
        <ele>1679</ele>
        <time>2021-08-13T08:31:41.184Z</time>
      </trkpt>
      <trkpt lat="46.83693" lon="8.42125">
        <ele>1678</ele>
        <time>2021-08-13T08:31:42.183Z</time>
      </trkpt>
      <trkpt lat="46.83693" lon="8.42126">
        <ele>1678</ele>
        <time>2021-08-13T08:31:43.183Z</time>
      </trkpt>
      <trkpt lat="46.83693" lon="8.42127">
        <ele>1678</ele>
        <time>2021-08-13T08:31:44.183Z</time>
      </trkpt>
      <trkpt lat="46.83692" lon="8.42128">
        <ele>1677</ele>
        <time>2021-08-13T08:31:45.184Z</time>
      </trkpt>
      <trkpt lat="46.83692" lon="8.42129">
        <ele>1677</ele>
        <time>2021-08-13T08:31:46.184Z</time>
      </trkpt>
      <trkpt lat="46.83692" lon="8.4213">
        <ele>1676</ele>
        <time>2021-08-13T08:31:47.183Z</time>
      </trkpt>
      <trkpt lat="46.83692" lon="8.42131">
        <ele>1676</ele>
        <time>2021-08-13T08:31:48.184Z</time>
      </trkpt>
      <trkpt lat="46.83692" lon="8.42131">
        <ele>1676</ele>
        <time>2021-08-13T08:31:49.184Z</time>
      </trkpt>
      <trkpt lat="46.83691" lon="8.42132">
        <ele>1676</ele>
        <time>2021-08-13T08:31:50.184Z</time>
      </trkpt>
      <trkpt lat="46.83691" lon="8.42132">
        <ele>1676</ele>
        <time>2021-08-13T08:31:51.184Z</time>
      </trkpt>
      <trkpt lat="46.83691" lon="8.42134">
        <ele>1677</ele>
        <time>2021-08-13T08:31:52.183Z</time>
      </trkpt>
      <trkpt lat="46.83691" lon="8.42134">
        <ele>1677</ele>
        <time>2021-08-13T08:31:53.184Z</time>
      </trkpt>
      <trkpt lat="46.8369" lon="8.42135">
        <ele>1677</ele>
        <time>2021-08-13T08:31:54.183Z</time>
      </trkpt>
      <trkpt lat="46.8369" lon="8.42136">
        <ele>1676</ele>
        <time>2021-08-13T08:31:55.184Z</time>
      </trkpt>
      <trkpt lat="46.8369" lon="8.42136">
        <ele>1676</ele>
        <time>2021-08-13T08:31:56.183Z</time>
      </trkpt>
      <trkpt lat="46.83689" lon="8.42136">
        <ele>1675</ele>
        <time>2021-08-13T08:31:57.184Z</time>
      </trkpt>
      <trkpt lat="46.83688" lon="8.42136">
        <ele>1675</ele>
        <time>2021-08-13T08:31:58.184Z</time>
      </trkpt>
      <trkpt lat="46.83687" lon="8.42136">
        <ele>1675</ele>
        <time>2021-08-13T08:31:59.184Z</time>
      </trkpt>
      <trkpt lat="46.83686" lon="8.42136">
        <ele>1675</ele>
        <time>2021-08-13T08:32:00.184Z</time>
      </trkpt>
      <trkpt lat="46.83685" lon="8.42135">
        <ele>1675</ele>
        <time>2021-08-13T08:32:01.184Z</time>
      </trkpt>
      <trkpt lat="46.83683" lon="8.42134">
        <ele>1675</ele>
        <time>2021-08-13T08:32:02.184Z</time>
      </trkpt>
      <trkpt lat="46.83683" lon="8.42135">
        <ele>1676</ele>
        <time>2021-08-13T08:32:03.184Z</time>
      </trkpt>
      <trkpt lat="46.83682" lon="8.42135">
        <ele>1676</ele>
        <time>2021-08-13T08:32:04.184Z</time>
      </trkpt>
      <trkpt lat="46.83681" lon="8.42136">
        <ele>1676</ele>
        <time>2021-08-13T08:32:05.183Z</time>
      </trkpt>
      <trkpt lat="46.8368" lon="8.42136">
        <ele>1676</ele>
        <time>2021-08-13T08:32:06.184Z</time>
      </trkpt>
      <trkpt lat="46.8368" lon="8.42136">
        <ele>1676</ele>
        <time>2021-08-13T08:32:07.184Z</time>
      </trkpt>
      <trkpt lat="46.83679" lon="8.42136">
        <ele>1676</ele>
        <time>2021-08-13T08:32:08.184Z</time>
      </trkpt>
      <trkpt lat="46.83679" lon="8.42136">
        <ele>1676</ele>
        <time>2021-08-13T08:32:09.184Z</time>
      </trkpt>
      <trkpt lat="46.83678" lon="8.42135">
        <ele>1676</ele>
        <time>2021-08-13T08:32:10.184Z</time>
      </trkpt>
      <trkpt lat="46.83677" lon="8.42133">
        <ele>1676</ele>
        <time>2021-08-13T08:32:11.183Z</time>
      </trkpt>
      <trkpt lat="46.83676" lon="8.42132">
        <ele>1675</ele>
        <time>2021-08-13T08:32:12.184Z</time>
      </trkpt>
      <trkpt lat="46.83675" lon="8.42131">
        <ele>1675</ele>
        <time>2021-08-13T08:32:13.183Z</time>
      </trkpt>
      <trkpt lat="46.83674" lon="8.4213">
        <ele>1674</ele>
        <time>2021-08-13T08:32:14.183Z</time>
      </trkpt>
      <trkpt lat="46.83674" lon="8.42131">
        <ele>1674</ele>
        <time>2021-08-13T08:32:15.184Z</time>
      </trkpt>
      <trkpt lat="46.83673" lon="8.42132">
        <ele>1673</ele>
        <time>2021-08-13T08:32:16.183Z</time>
      </trkpt>
      <trkpt lat="46.83673" lon="8.42133">
        <ele>1673</ele>
        <time>2021-08-13T08:32:17.183Z</time>
      </trkpt>
      <trkpt lat="46.83673" lon="8.42134">
        <ele>1673</ele>
        <time>2021-08-13T08:32:18.184Z</time>
      </trkpt>
      <trkpt lat="46.83672" lon="8.42135">
        <ele>1673</ele>
        <time>2021-08-13T08:32:19.184Z</time>
      </trkpt>
      <trkpt lat="46.83672" lon="8.42136">
        <ele>1672</ele>
        <time>2021-08-13T08:32:20.183Z</time>
      </trkpt>
      <trkpt lat="46.83671" lon="8.42137">
        <ele>1672</ele>
        <time>2021-08-13T08:32:21.183Z</time>
      </trkpt>
      <trkpt lat="46.83671" lon="8.42138">
        <ele>1672</ele>
        <time>2021-08-13T08:32:22.184Z</time>
      </trkpt>
      <trkpt lat="46.83671" lon="8.42139">
        <ele>1671</ele>
        <time>2021-08-13T08:32:23.183Z</time>
      </trkpt>
      <trkpt lat="46.83671" lon="8.4214">
        <ele>1671</ele>
        <time>2021-08-13T08:32:24.183Z</time>
      </trkpt>
      <trkpt lat="46.83671" lon="8.42141">
        <ele>1670</ele>
        <time>2021-08-13T08:32:25.183Z</time>
      </trkpt>
      <trkpt lat="46.83671" lon="8.42141">
        <ele>1669</ele>
        <time>2021-08-13T08:32:26.184Z</time>
      </trkpt>
      <trkpt lat="46.83671" lon="8.42142">
        <ele>1669</ele>
        <time>2021-08-13T08:32:27.183Z</time>
      </trkpt>
      <trkpt lat="46.8367" lon="8.42147">
        <ele>1668</ele>
        <time>2021-08-13T08:32:28.185Z</time>
      </trkpt>
      <trkpt lat="46.8367" lon="8.42147">
        <ele>1668</ele>
        <time>2021-08-13T08:32:29.184Z</time>
      </trkpt>
      <trkpt lat="46.8367" lon="8.42148">
        <ele>1669</ele>
        <time>2021-08-13T08:32:30.184Z</time>
      </trkpt>
      <trkpt lat="46.83671" lon="8.42148">
        <ele>1665</ele>
        <time>2021-08-13T08:32:31.185Z</time>
      </trkpt>
      <trkpt lat="46.83672" lon="8.42147">
        <ele>1665</ele>
        <time>2021-08-13T08:32:32.184Z</time>
      </trkpt>
      <trkpt lat="46.83672" lon="8.42147">
        <ele>1664</ele>
        <time>2021-08-13T08:32:33.184Z</time>
      </trkpt>
      <trkpt lat="46.83672" lon="8.42147">
        <ele>1664</ele>
        <time>2021-08-13T08:32:34.184Z</time>
      </trkpt>
      <trkpt lat="46.83674" lon="8.42146">
        <ele>1663</ele>
        <time>2021-08-13T08:32:35.186Z</time>
      </trkpt>
      <trkpt lat="46.83674" lon="8.42146">
        <ele>1663</ele>
        <time>2021-08-13T08:32:36.186Z</time>
      </trkpt>
      <trkpt lat="46.83673" lon="8.42147">
        <ele>1663</ele>
        <time>2021-08-13T08:32:37.186Z</time>
      </trkpt>
      <trkpt lat="46.83673" lon="8.42147">
        <ele>1664</ele>
        <time>2021-08-13T08:32:38.186Z</time>
      </trkpt>
      <trkpt lat="46.83673" lon="8.42147">
        <ele>1664</ele>
        <time>2021-08-13T08:32:39.186Z</time>
      </trkpt>
      <trkpt lat="46.83672" lon="8.42147">
        <ele>1664</ele>
        <time>2021-08-13T08:32:40.185Z</time>
      </trkpt>
      <trkpt lat="46.83671" lon="8.42148">
        <ele>1666</ele>
        <time>2021-08-13T08:32:41.185Z</time>
      </trkpt>
      <trkpt lat="46.8367" lon="8.42148">
        <ele>1665</ele>
        <time>2021-08-13T08:32:42.185Z</time>
      </trkpt>
      <trkpt lat="46.8367" lon="8.42149">
        <ele>1665</ele>
        <time>2021-08-13T08:32:43.185Z</time>
      </trkpt>
      <trkpt lat="46.83669" lon="8.4215">
        <ele>1664</ele>
        <time>2021-08-13T08:32:44.185Z</time>
      </trkpt>
      <trkpt lat="46.83669" lon="8.4215">
        <ele>1664</ele>
        <time>2021-08-13T08:32:45.185Z</time>
      </trkpt>
      <trkpt lat="46.83668" lon="8.4215">
        <ele>1664</ele>
        <time>2021-08-13T08:32:46.185Z</time>
      </trkpt>
      <trkpt lat="46.83668" lon="8.4215">
        <ele>1664</ele>
        <time>2021-08-13T08:32:47.185Z</time>
      </trkpt>
      <trkpt lat="46.83668" lon="8.42151">
        <ele>1663</ele>
        <time>2021-08-13T08:32:48.186Z</time>
      </trkpt>
      <trkpt lat="46.83668" lon="8.42151">
        <ele>1662</ele>
        <time>2021-08-13T08:32:49.186Z</time>
      </trkpt>
      <trkpt lat="46.83668" lon="8.42151">
        <ele>1662</ele>
        <time>2021-08-13T08:32:50.186Z</time>
      </trkpt>
      <trkpt lat="46.83668" lon="8.42151">
        <ele>1662</ele>
        <time>2021-08-13T08:32:51.185Z</time>
      </trkpt>
      <trkpt lat="46.83668" lon="8.42151">
        <ele>1662</ele>
        <time>2021-08-13T08:32:52.186Z</time>
      </trkpt>
      <trkpt lat="46.83668" lon="8.42151">
        <ele>1661</ele>
        <time>2021-08-13T08:32:53.186Z</time>
      </trkpt>
      <trkpt lat="46.83667" lon="8.42151">
        <ele>1664</ele>
        <time>2021-08-13T08:32:54.188Z</time>
      </trkpt>
      <trkpt lat="46.83667" lon="8.42151">
        <ele>1664</ele>
        <time>2021-08-13T08:32:55.187Z</time>
      </trkpt>
      <trkpt lat="46.83666" lon="8.42153">
        <ele>1660</ele>
        <time>2021-08-13T08:32:56.188Z</time>
      </trkpt>
      <trkpt lat="46.83666" lon="8.42153">
        <ele>1660</ele>
        <time>2021-08-13T08:32:57.187Z</time>
      </trkpt>
      <trkpt lat="46.83667" lon="8.42153">
        <ele>1660</ele>
        <time>2021-08-13T08:32:58.187Z</time>
      </trkpt>
      <trkpt lat="46.83667" lon="8.42152">
        <ele>1660</ele>
        <time>2021-08-13T08:32:59.187Z</time>
      </trkpt>
      <trkpt lat="46.83667" lon="8.42152">
        <ele>1660</ele>
        <time>2021-08-13T08:33:00.187Z</time>
      </trkpt>
      <trkpt lat="46.83666" lon="8.42154">
        <ele>1658</ele>
        <time>2021-08-13T08:33:01.187Z</time>
      </trkpt>
      <trkpt lat="46.83668" lon="8.42152">
        <ele>1658</ele>
        <time>2021-08-13T08:33:02.188Z</time>
      </trkpt>
      <trkpt lat="46.83668" lon="8.4215">
        <ele>1664</ele>
        <time>2021-08-13T08:33:03.189Z</time>
      </trkpt>
      <trkpt lat="46.83668" lon="8.4215">
        <ele>1665</ele>
        <time>2021-08-13T08:33:04.189Z</time>
      </trkpt>
      <trkpt lat="46.83667" lon="8.4215">
        <ele>1665</ele>
        <time>2021-08-13T08:33:05.188Z</time>
      </trkpt>
      <trkpt lat="46.83667" lon="8.42149">
        <ele>1666</ele>
        <time>2021-08-13T08:33:06.189Z</time>
      </trkpt>
      <trkpt lat="46.83666" lon="8.42149">
        <ele>1666</ele>
        <time>2021-08-13T08:33:07.189Z</time>
      </trkpt>
      <trkpt lat="46.83666" lon="8.4215">
        <ele>1666</ele>
        <time>2021-08-13T08:33:08.189Z</time>
      </trkpt>
      <trkpt lat="46.83666" lon="8.4215">
        <ele>1666</ele>
        <time>2021-08-13T08:33:09.189Z</time>
      </trkpt>
      <trkpt lat="46.83665" lon="8.4215">
        <ele>1666</ele>
        <time>2021-08-13T08:33:10.189Z</time>
      </trkpt>
      <trkpt lat="46.83665" lon="8.42151">
        <ele>1666</ele>
        <time>2021-08-13T08:33:11.189Z</time>
      </trkpt>
      <trkpt lat="46.83664" lon="8.42151">
        <ele>1665</ele>
        <time>2021-08-13T08:33:12.188Z</time>
      </trkpt>
      <trkpt lat="46.83664" lon="8.42151">
        <ele>1665</ele>
        <time>2021-08-13T08:33:13.188Z</time>
      </trkpt>
      <trkpt lat="46.83663" lon="8.42151">
        <ele>1664</ele>
        <time>2021-08-13T08:33:14.189Z</time>
      </trkpt>
      <trkpt lat="46.83662" lon="8.42152">
        <ele>1664</ele>
        <time>2021-08-13T08:33:15.188Z</time>
      </trkpt>
      <trkpt lat="46.83661" lon="8.42152">
        <ele>1663</ele>
        <time>2021-08-13T08:33:16.188Z</time>
      </trkpt>
      <trkpt lat="46.83661" lon="8.42153">
        <ele>1663</ele>
        <time>2021-08-13T08:33:17.189Z</time>
      </trkpt>
      <trkpt lat="46.8366" lon="8.42154">
        <ele>1662</ele>
        <time>2021-08-13T08:33:18.189Z</time>
      </trkpt>
      <trkpt lat="46.8366" lon="8.42156">
        <ele>1662</ele>
        <time>2021-08-13T08:33:19.188Z</time>
      </trkpt>
      <trkpt lat="46.83659" lon="8.42157">
        <ele>1661</ele>
        <time>2021-08-13T08:33:20.189Z</time>
      </trkpt>
      <trkpt lat="46.83659" lon="8.42158">
        <ele>1661</ele>
        <time>2021-08-13T08:33:21.189Z</time>
      </trkpt>
      <trkpt lat="46.83658" lon="8.4216">
        <ele>1661</ele>
        <time>2021-08-13T08:33:22.188Z</time>
      </trkpt>
      <trkpt lat="46.83658" lon="8.42161">
        <ele>1661</ele>
        <time>2021-08-13T08:33:23.188Z</time>
      </trkpt>
      <trkpt lat="46.83657" lon="8.42161">
        <ele>1661</ele>
        <time>2021-08-13T08:33:24.189Z</time>
      </trkpt>
      <trkpt lat="46.83657" lon="8.42162">
        <ele>1660</ele>
        <time>2021-08-13T08:33:25.188Z</time>
      </trkpt>
      <trkpt lat="46.83656" lon="8.42163">
        <ele>1660</ele>
        <time>2021-08-13T08:33:26.188Z</time>
      </trkpt>
      <trkpt lat="46.83655" lon="8.42163">
        <ele>1660</ele>
        <time>2021-08-13T08:33:27.188Z</time>
      </trkpt>
      <trkpt lat="46.83655" lon="8.42164">
        <ele>1660</ele>
        <time>2021-08-13T08:33:28.189Z</time>
      </trkpt>
      <trkpt lat="46.83654" lon="8.42165">
        <ele>1659</ele>
        <time>2021-08-13T08:33:29.189Z</time>
      </trkpt>
      <trkpt lat="46.83653" lon="8.42166">
        <ele>1659</ele>
        <time>2021-08-13T08:33:30.189Z</time>
      </trkpt>
      <trkpt lat="46.83653" lon="8.42167">
        <ele>1659</ele>
        <time>2021-08-13T08:33:31.188Z</time>
      </trkpt>
      <trkpt lat="46.83653" lon="8.42168">
        <ele>1658</ele>
        <time>2021-08-13T08:33:32.189Z</time>
      </trkpt>
      <trkpt lat="46.83652" lon="8.4217">
        <ele>1658</ele>
        <time>2021-08-13T08:33:33.188Z</time>
      </trkpt>
      <trkpt lat="46.83652" lon="8.4217">
        <ele>1658</ele>
        <time>2021-08-13T08:33:34.189Z</time>
      </trkpt>
      <trkpt lat="46.83652" lon="8.42172">
        <ele>1658</ele>
        <time>2021-08-13T08:33:35.189Z</time>
      </trkpt>
      <trkpt lat="46.83652" lon="8.42173">
        <ele>1658</ele>
        <time>2021-08-13T08:33:36.189Z</time>
      </trkpt>
      <trkpt lat="46.83652" lon="8.42173">
        <ele>1659</ele>
        <time>2021-08-13T08:33:37.189Z</time>
      </trkpt>
      <trkpt lat="46.83651" lon="8.42173">
        <ele>1659</ele>
        <time>2021-08-13T08:33:38.188Z</time>
      </trkpt>
      <trkpt lat="46.83651" lon="8.42174">
        <ele>1659</ele>
        <time>2021-08-13T08:33:39.189Z</time>
      </trkpt>
      <trkpt lat="46.83651" lon="8.42174">
        <ele>1659</ele>
        <time>2021-08-13T08:33:40.189Z</time>
      </trkpt>
      <trkpt lat="46.83651" lon="8.42174">
        <ele>1659</ele>
        <time>2021-08-13T08:33:41.189Z</time>
      </trkpt>
      <trkpt lat="46.8365" lon="8.42173">
        <ele>1659</ele>
        <time>2021-08-13T08:33:42.188Z</time>
      </trkpt>
      <trkpt lat="46.8365" lon="8.42172">
        <ele>1660</ele>
        <time>2021-08-13T08:33:43.189Z</time>
      </trkpt>
      <trkpt lat="46.83649" lon="8.4217">
        <ele>1660</ele>
        <time>2021-08-13T08:33:44.188Z</time>
      </trkpt>
      <trkpt lat="46.83648" lon="8.42169">
        <ele>1660</ele>
        <time>2021-08-13T08:33:45.188Z</time>
      </trkpt>
      <trkpt lat="46.83647" lon="8.42168">
        <ele>1660</ele>
        <time>2021-08-13T08:33:46.189Z</time>
      </trkpt>
      <trkpt lat="46.83646" lon="8.42168">
        <ele>1660</ele>
        <time>2021-08-13T08:33:47.188Z</time>
      </trkpt>
      <trkpt lat="46.83646" lon="8.42168">
        <ele>1660</ele>
        <time>2021-08-13T08:33:48.189Z</time>
      </trkpt>
      <trkpt lat="46.83645" lon="8.42168">
        <ele>1660</ele>
        <time>2021-08-13T08:33:49.189Z</time>
      </trkpt>
      <trkpt lat="46.83645" lon="8.42167">
        <ele>1659</ele>
        <time>2021-08-13T08:33:50.189Z</time>
      </trkpt>
      <trkpt lat="46.83645" lon="8.42166">
        <ele>1659</ele>
        <time>2021-08-13T08:33:51.189Z</time>
      </trkpt>
      <trkpt lat="46.83644" lon="8.42165">
        <ele>1659</ele>
        <time>2021-08-13T08:33:52.189Z</time>
      </trkpt>
      <trkpt lat="46.83644" lon="8.42164">
        <ele>1658</ele>
        <time>2021-08-13T08:33:53.189Z</time>
      </trkpt>
      <trkpt lat="46.83643" lon="8.42163">
        <ele>1658</ele>
        <time>2021-08-13T08:33:54.189Z</time>
      </trkpt>
      <trkpt lat="46.83643" lon="8.42162">
        <ele>1657</ele>
        <time>2021-08-13T08:33:55.189Z</time>
      </trkpt>
      <trkpt lat="46.83643" lon="8.42163">
        <ele>1657</ele>
        <time>2021-08-13T08:33:56.189Z</time>
      </trkpt>
      <trkpt lat="46.83644" lon="8.42162">
        <ele>1656</ele>
        <time>2021-08-13T08:33:57.188Z</time>
      </trkpt>
      <trkpt lat="46.83644" lon="8.42161">
        <ele>1656</ele>
        <time>2021-08-13T08:33:58.189Z</time>
      </trkpt>
      <trkpt lat="46.83644" lon="8.4216">
        <ele>1655</ele>
        <time>2021-08-13T08:33:59.189Z</time>
      </trkpt>
      <trkpt lat="46.83644" lon="8.4216">
        <ele>1655</ele>
        <time>2021-08-13T08:34:00.188Z</time>
      </trkpt>
      <trkpt lat="46.83644" lon="8.42158">
        <ele>1654</ele>
        <time>2021-08-13T08:34:01.189Z</time>
      </trkpt>
      <trkpt lat="46.83644" lon="8.42157">
        <ele>1654</ele>
        <time>2021-08-13T08:34:02.188Z</time>
      </trkpt>
      <trkpt lat="46.83645" lon="8.42157">
        <ele>1654</ele>
        <time>2021-08-13T08:34:03.189Z</time>
      </trkpt>
      <trkpt lat="46.83645" lon="8.42155">
        <ele>1655</ele>
        <time>2021-08-13T08:34:04.188Z</time>
      </trkpt>
      <trkpt lat="46.83645" lon="8.42154">
        <ele>1655</ele>
        <time>2021-08-13T08:34:05.189Z</time>
      </trkpt>
      <trkpt lat="46.83644" lon="8.42153">
        <ele>1656</ele>
        <time>2021-08-13T08:34:06.188Z</time>
      </trkpt>
      <trkpt lat="46.83643" lon="8.42152">
        <ele>1655</ele>
        <time>2021-08-13T08:34:07.188Z</time>
      </trkpt>
      <trkpt lat="46.83641" lon="8.42152">
        <ele>1655</ele>
        <time>2021-08-13T08:34:08.189Z</time>
      </trkpt>
      <trkpt lat="46.8364" lon="8.42152">
        <ele>1655</ele>
        <time>2021-08-13T08:34:09.189Z</time>
      </trkpt>
      <trkpt lat="46.8364" lon="8.42152">
        <ele>1655</ele>
        <time>2021-08-13T08:34:10.188Z</time>
      </trkpt>
      <trkpt lat="46.83638" lon="8.42152">
        <ele>1655</ele>
        <time>2021-08-13T08:34:11.189Z</time>
      </trkpt>
      <trkpt lat="46.83637" lon="8.42151">
        <ele>1655</ele>
        <time>2021-08-13T08:34:12.189Z</time>
      </trkpt>
      <trkpt lat="46.83636" lon="8.42151">
        <ele>1655</ele>
        <time>2021-08-13T08:34:13.188Z</time>
      </trkpt>
      <trkpt lat="46.83636" lon="8.42151">
        <ele>1654</ele>
        <time>2021-08-13T08:34:14.189Z</time>
      </trkpt>
      <trkpt lat="46.83636" lon="8.42151">
        <ele>1654</ele>
        <time>2021-08-13T08:34:15.188Z</time>
      </trkpt>
      <trkpt lat="46.83636" lon="8.42152">
        <ele>1653</ele>
        <time>2021-08-13T08:34:16.189Z</time>
      </trkpt>
      <trkpt lat="46.83635" lon="8.42152">
        <ele>1653</ele>
        <time>2021-08-13T08:34:17.188Z</time>
      </trkpt>
      <trkpt lat="46.83635" lon="8.42151">
        <ele>1652</ele>
        <time>2021-08-13T08:34:18.188Z</time>
      </trkpt>
      <trkpt lat="46.83635" lon="8.42151">
        <ele>1652</ele>
        <time>2021-08-13T08:34:19.188Z</time>
      </trkpt>
      <trkpt lat="46.83635" lon="8.42151">
        <ele>1652</ele>
        <time>2021-08-13T08:34:20.189Z</time>
      </trkpt>
      <trkpt lat="46.83635" lon="8.4215">
        <ele>1651</ele>
        <time>2021-08-13T08:34:21.189Z</time>
      </trkpt>
      <trkpt lat="46.83635" lon="8.42149">
        <ele>1651</ele>
        <time>2021-08-13T08:34:22.189Z</time>
      </trkpt>
      <trkpt lat="46.83635" lon="8.42147">
        <ele>1651</ele>
        <time>2021-08-13T08:34:23.189Z</time>
      </trkpt>
      <trkpt lat="46.83635" lon="8.42146">
        <ele>1652</ele>
        <time>2021-08-13T08:34:24.189Z</time>
      </trkpt>
      <trkpt lat="46.83636" lon="8.42145">
        <ele>1651</ele>
        <time>2021-08-13T08:34:25.189Z</time>
      </trkpt>
      <trkpt lat="46.83637" lon="8.42144">
        <ele>1651</ele>
        <time>2021-08-13T08:34:26.189Z</time>
      </trkpt>
      <trkpt lat="46.83637" lon="8.42143">
        <ele>1651</ele>
        <time>2021-08-13T08:34:27.188Z</time>
      </trkpt>
      <trkpt lat="46.83637" lon="8.42142">
        <ele>1651</ele>
        <time>2021-08-13T08:34:28.188Z</time>
      </trkpt>
      <trkpt lat="46.83638" lon="8.42142">
        <ele>1651</ele>
        <time>2021-08-13T08:34:29.189Z</time>
      </trkpt>
      <trkpt lat="46.83638" lon="8.42141">
        <ele>1650</ele>
        <time>2021-08-13T08:34:30.188Z</time>
      </trkpt>
      <trkpt lat="46.83638" lon="8.4214">
        <ele>1650</ele>
        <time>2021-08-13T08:34:31.189Z</time>
      </trkpt>
      <trkpt lat="46.83637" lon="8.42139">
        <ele>1650</ele>
        <time>2021-08-13T08:34:32.188Z</time>
      </trkpt>
      <trkpt lat="46.83636" lon="8.42139">
        <ele>1650</ele>
        <time>2021-08-13T08:34:33.189Z</time>
      </trkpt>
      <trkpt lat="46.83635" lon="8.42138">
        <ele>1650</ele>
        <time>2021-08-13T08:34:34.188Z</time>
      </trkpt>
      <trkpt lat="46.83635" lon="8.42138">
        <ele>1649</ele>
        <time>2021-08-13T08:34:35.189Z</time>
      </trkpt>
      <trkpt lat="46.83635" lon="8.42137">
        <ele>1649</ele>
        <time>2021-08-13T08:34:36.189Z</time>
      </trkpt>
      <trkpt lat="46.83635" lon="8.42137">
        <ele>1649</ele>
        <time>2021-08-13T08:34:37.189Z</time>
      </trkpt>
      <trkpt lat="46.83635" lon="8.42136">
        <ele>1648</ele>
        <time>2021-08-13T08:34:38.189Z</time>
      </trkpt>
      <trkpt lat="46.83634" lon="8.42136">
        <ele>1648</ele>
        <time>2021-08-13T08:34:39.188Z</time>
      </trkpt>
      <trkpt lat="46.83634" lon="8.42135">
        <ele>1648</ele>
        <time>2021-08-13T08:34:40.188Z</time>
      </trkpt>
      <trkpt lat="46.83633" lon="8.42134">
        <ele>1647</ele>
        <time>2021-08-13T08:34:41.189Z</time>
      </trkpt>
      <trkpt lat="46.83632" lon="8.42133">
        <ele>1647</ele>
        <time>2021-08-13T08:34:42.189Z</time>
      </trkpt>
      <trkpt lat="46.83632" lon="8.42132">
        <ele>1647</ele>
        <time>2021-08-13T08:34:43.189Z</time>
      </trkpt>
      <trkpt lat="46.83631" lon="8.42132">
        <ele>1646</ele>
        <time>2021-08-13T08:34:44.188Z</time>
      </trkpt>
      <trkpt lat="46.8363" lon="8.42131">
        <ele>1645</ele>
        <time>2021-08-13T08:34:45.189Z</time>
      </trkpt>
      <trkpt lat="46.8363" lon="8.4213">
        <ele>1645</ele>
        <time>2021-08-13T08:34:46.189Z</time>
      </trkpt>
      <trkpt lat="46.83628" lon="8.42129">
        <ele>1645</ele>
        <time>2021-08-13T08:34:47.188Z</time>
      </trkpt>
      <trkpt lat="46.83627" lon="8.42129">
        <ele>1644</ele>
        <time>2021-08-13T08:34:48.188Z</time>
      </trkpt>
      <trkpt lat="46.83626" lon="8.42129">
        <ele>1643</ele>
        <time>2021-08-13T08:34:49.189Z</time>
      </trkpt>
      <trkpt lat="46.83626" lon="8.42129">
        <ele>1642</ele>
        <time>2021-08-13T08:34:50.188Z</time>
      </trkpt>
      <trkpt lat="46.83625" lon="8.42129">
        <ele>1641</ele>
        <time>2021-08-13T08:34:51.188Z</time>
      </trkpt>
      <trkpt lat="46.83625" lon="8.42128">
        <ele>1641</ele>
        <time>2021-08-13T08:34:52.189Z</time>
      </trkpt>
      <trkpt lat="46.83624" lon="8.42128">
        <ele>1640</ele>
        <time>2021-08-13T08:34:53.189Z</time>
      </trkpt>
      <trkpt lat="46.83623" lon="8.42127">
        <ele>1639</ele>
        <time>2021-08-13T08:34:54.189Z</time>
      </trkpt>
      <trkpt lat="46.83622" lon="8.42127">
        <ele>1639</ele>
        <time>2021-08-13T08:34:55.189Z</time>
      </trkpt>
      <trkpt lat="46.83622" lon="8.42127">
        <ele>1638</ele>
        <time>2021-08-13T08:34:56.189Z</time>
      </trkpt>
      <trkpt lat="46.83621" lon="8.42127">
        <ele>1637</ele>
        <time>2021-08-13T08:34:57.188Z</time>
      </trkpt>
      <trkpt lat="46.83621" lon="8.42126">
        <ele>1637</ele>
        <time>2021-08-13T08:34:58.189Z</time>
      </trkpt>
      <trkpt lat="46.83621" lon="8.42126">
        <ele>1636</ele>
        <time>2021-08-13T08:34:59.189Z</time>
      </trkpt>
      <trkpt lat="46.83621" lon="8.42126">
        <ele>1635</ele>
        <time>2021-08-13T08:35:00.189Z</time>
      </trkpt>
      <trkpt lat="46.83621" lon="8.42126">
        <ele>1635</ele>
        <time>2021-08-13T08:35:01.188Z</time>
      </trkpt>
      <trkpt lat="46.83621" lon="8.42126">
        <ele>1635</ele>
        <time>2021-08-13T08:35:02.188Z</time>
      </trkpt>
      <trkpt lat="46.83621" lon="8.42126">
        <ele>1635</ele>
        <time>2021-08-13T08:35:03.189Z</time>
      </trkpt>
      <trkpt lat="46.8362" lon="8.42125">
        <ele>1634</ele>
        <time>2021-08-13T08:35:04.189Z</time>
      </trkpt>
      <trkpt lat="46.8362" lon="8.42125">
        <ele>1634</ele>
        <time>2021-08-13T08:35:05.188Z</time>
      </trkpt>
      <trkpt lat="46.83619" lon="8.42124">
        <ele>1634</ele>
        <time>2021-08-13T08:35:06.188Z</time>
      </trkpt>
      <trkpt lat="46.83618" lon="8.42123">
        <ele>1633</ele>
        <time>2021-08-13T08:35:07.188Z</time>
      </trkpt>
      <trkpt lat="46.83617" lon="8.42122">
        <ele>1633</ele>
        <time>2021-08-13T08:35:08.189Z</time>
      </trkpt>
      <trkpt lat="46.83616" lon="8.42121">
        <ele>1632</ele>
        <time>2021-08-13T08:35:09.189Z</time>
      </trkpt>
      <trkpt lat="46.83615" lon="8.4212">
        <ele>1632</ele>
        <time>2021-08-13T08:35:10.189Z</time>
      </trkpt>
      <trkpt lat="46.83614" lon="8.42119">
        <ele>1632</ele>
        <time>2021-08-13T08:35:11.188Z</time>
      </trkpt>
      <trkpt lat="46.83614" lon="8.42119">
        <ele>1631</ele>
        <time>2021-08-13T08:35:12.188Z</time>
      </trkpt>
      <trkpt lat="46.83613" lon="8.42117">
        <ele>1631</ele>
        <time>2021-08-13T08:35:13.189Z</time>
      </trkpt>
      <trkpt lat="46.83612" lon="8.42117">
        <ele>1631</ele>
        <time>2021-08-13T08:35:14.189Z</time>
      </trkpt>
      <trkpt lat="46.83611" lon="8.42116">
        <ele>1631</ele>
        <time>2021-08-13T08:35:15.189Z</time>
      </trkpt>
      <trkpt lat="46.8361" lon="8.42116">
        <ele>1630</ele>
        <time>2021-08-13T08:35:16.188Z</time>
      </trkpt>
      <trkpt lat="46.83609" lon="8.42116">
        <ele>1630</ele>
        <time>2021-08-13T08:35:17.188Z</time>
      </trkpt>
      <trkpt lat="46.83608" lon="8.42116">
        <ele>1630</ele>
        <time>2021-08-13T08:35:18.188Z</time>
      </trkpt>
      <trkpt lat="46.83608" lon="8.42116">
        <ele>1630</ele>
        <time>2021-08-13T08:35:19.189Z</time>
      </trkpt>
      <trkpt lat="46.83607" lon="8.42116">
        <ele>1630</ele>
        <time>2021-08-13T08:35:20.188Z</time>
      </trkpt>
      <trkpt lat="46.83606" lon="8.42115">
        <ele>1629</ele>
        <time>2021-08-13T08:35:21.188Z</time>
      </trkpt>
      <trkpt lat="46.83606" lon="8.42114">
        <ele>1629</ele>
        <time>2021-08-13T08:35:22.188Z</time>
      </trkpt>
      <trkpt lat="46.83605" lon="8.42114">
        <ele>1628</ele>
        <time>2021-08-13T08:35:23.188Z</time>
      </trkpt>
      <trkpt lat="46.83605" lon="8.42113">
        <ele>1627</ele>
        <time>2021-08-13T08:35:24.189Z</time>
      </trkpt>
      <trkpt lat="46.83604" lon="8.42113">
        <ele>1626</ele>
        <time>2021-08-13T08:35:25.188Z</time>
      </trkpt>
      <trkpt lat="46.83603" lon="8.42112">
        <ele>1626</ele>
        <time>2021-08-13T08:35:26.188Z</time>
      </trkpt>
      <trkpt lat="46.83603" lon="8.42112">
        <ele>1626</ele>
        <time>2021-08-13T08:35:27.188Z</time>
      </trkpt>
      <trkpt lat="46.83603" lon="8.42112">
        <ele>1626</ele>
        <time>2021-08-13T08:35:28.189Z</time>
      </trkpt>
      <trkpt lat="46.83603" lon="8.42113">
        <ele>1625</ele>
        <time>2021-08-13T08:35:29.189Z</time>
      </trkpt>
      <trkpt lat="46.83603" lon="8.42114">
        <ele>1624</ele>
        <time>2021-08-13T08:35:30.189Z</time>
      </trkpt>
      <trkpt lat="46.83604" lon="8.42115">
        <ele>1623</ele>
        <time>2021-08-13T08:35:31.188Z</time>
      </trkpt>
      <trkpt lat="46.83605" lon="8.42116">
        <ele>1626</ele>
        <time>2021-08-13T08:35:32.189Z</time>
      </trkpt>
      <trkpt lat="46.83605" lon="8.42117">
        <ele>1626</ele>
        <time>2021-08-13T08:35:33.189Z</time>
      </trkpt>
      <trkpt lat="46.83605" lon="8.42118">
        <ele>1627</ele>
        <time>2021-08-13T08:35:34.188Z</time>
      </trkpt>
      <trkpt lat="46.83604" lon="8.42118">
        <ele>1627</ele>
        <time>2021-08-13T08:35:35.188Z</time>
      </trkpt>
      <trkpt lat="46.83604" lon="8.42118">
        <ele>1627</ele>
        <time>2021-08-13T08:35:36.188Z</time>
      </trkpt>
      <trkpt lat="46.83604" lon="8.42118">
        <ele>1627</ele>
        <time>2021-08-13T08:35:37.188Z</time>
      </trkpt>
      <trkpt lat="46.83604" lon="8.42118">
        <ele>1627</ele>
        <time>2021-08-13T08:35:38.188Z</time>
      </trkpt>
      <trkpt lat="46.83604" lon="8.42119">
        <ele>1627</ele>
        <time>2021-08-13T08:35:39.188Z</time>
      </trkpt>
      <trkpt lat="46.83603" lon="8.42115">
        <ele>1626</ele>
        <time>2021-08-13T08:35:40.190Z</time>
      </trkpt>
      <trkpt lat="46.83602" lon="8.42114">
        <ele>1626</ele>
        <time>2021-08-13T08:35:41.190Z</time>
      </trkpt>
      <trkpt lat="46.83601" lon="8.42114">
        <ele>1626</ele>
        <time>2021-08-13T08:35:42.189Z</time>
      </trkpt>
      <trkpt lat="46.836" lon="8.42114">
        <ele>1626</ele>
        <time>2021-08-13T08:35:43.190Z</time>
      </trkpt>
      <trkpt lat="46.83599" lon="8.42113">
        <ele>1626</ele>
        <time>2021-08-13T08:35:44.189Z</time>
      </trkpt>
      <trkpt lat="46.83599" lon="8.42112">
        <ele>1626</ele>
        <time>2021-08-13T08:35:45.189Z</time>
      </trkpt>
      <trkpt lat="46.83598" lon="8.42112">
        <ele>1626</ele>
        <time>2021-08-13T08:35:46.189Z</time>
      </trkpt>
      <trkpt lat="46.83597" lon="8.42112">
        <ele>1626</ele>
        <time>2021-08-13T08:35:47.189Z</time>
      </trkpt>
      <trkpt lat="46.83596" lon="8.42111">
        <ele>1626</ele>
        <time>2021-08-13T08:35:48.189Z</time>
      </trkpt>
      <trkpt lat="46.83595" lon="8.4211">
        <ele>1626</ele>
        <time>2021-08-13T08:35:49.189Z</time>
      </trkpt>
      <trkpt lat="46.83594" lon="8.4211">
        <ele>1626</ele>
        <time>2021-08-13T08:35:50.190Z</time>
      </trkpt>
      <trkpt lat="46.83593" lon="8.42109">
        <ele>1625</ele>
        <time>2021-08-13T08:35:51.189Z</time>
      </trkpt>
      <trkpt lat="46.83592" lon="8.42108">
        <ele>1625</ele>
        <time>2021-08-13T08:35:52.189Z</time>
      </trkpt>
      <trkpt lat="46.83591" lon="8.42107">
        <ele>1625</ele>
        <time>2021-08-13T08:35:53.189Z</time>
      </trkpt>
      <trkpt lat="46.8359" lon="8.42107">
        <ele>1624</ele>
        <time>2021-08-13T08:35:54.190Z</time>
      </trkpt>
      <trkpt lat="46.83589" lon="8.42107">
        <ele>1624</ele>
        <time>2021-08-13T08:35:55.189Z</time>
      </trkpt>
      <trkpt lat="46.83588" lon="8.42106">
        <ele>1624</ele>
        <time>2021-08-13T08:35:56.190Z</time>
      </trkpt>
      <trkpt lat="46.83587" lon="8.42106">
        <ele>1624</ele>
        <time>2021-08-13T08:35:57.190Z</time>
      </trkpt>
      <trkpt lat="46.83586" lon="8.42105">
        <ele>1624</ele>
        <time>2021-08-13T08:35:58.190Z</time>
      </trkpt>
      <trkpt lat="46.83585" lon="8.42104">
        <ele>1624</ele>
        <time>2021-08-13T08:35:59.190Z</time>
      </trkpt>
      <trkpt lat="46.83584" lon="8.42103">
        <ele>1624</ele>
        <time>2021-08-13T08:36:00.189Z</time>
      </trkpt>
      <trkpt lat="46.83583" lon="8.42102">
        <ele>1623</ele>
        <time>2021-08-13T08:36:01.190Z</time>
      </trkpt>
      <trkpt lat="46.83582" lon="8.42101">
        <ele>1623</ele>
        <time>2021-08-13T08:36:02.190Z</time>
      </trkpt>
      <trkpt lat="46.83581" lon="8.42101">
        <ele>1623</ele>
        <time>2021-08-13T08:36:03.190Z</time>
      </trkpt>
      <trkpt lat="46.8358" lon="8.42101">
        <ele>1623</ele>
        <time>2021-08-13T08:36:04.190Z</time>
      </trkpt>
      <trkpt lat="46.83579" lon="8.42101">
        <ele>1623</ele>
        <time>2021-08-13T08:36:05.189Z</time>
      </trkpt>
      <trkpt lat="46.83579" lon="8.42101">
        <ele>1623</ele>
        <time>2021-08-13T08:36:06.190Z</time>
      </trkpt>
      <trkpt lat="46.83578" lon="8.42101">
        <ele>1623</ele>
        <time>2021-08-13T08:36:07.189Z</time>
      </trkpt>
      <trkpt lat="46.83577" lon="8.421">
        <ele>1622</ele>
        <time>2021-08-13T08:36:08.190Z</time>
      </trkpt>
      <trkpt lat="46.83576" lon="8.421">
        <ele>1622</ele>
        <time>2021-08-13T08:36:09.189Z</time>
      </trkpt>
      <trkpt lat="46.83576" lon="8.421">
        <ele>1621</ele>
        <time>2021-08-13T08:36:10.190Z</time>
      </trkpt>
      <trkpt lat="46.83575" lon="8.421">
        <ele>1621</ele>
        <time>2021-08-13T08:36:11.190Z</time>
      </trkpt>
      <trkpt lat="46.83575" lon="8.42099">
        <ele>1621</ele>
        <time>2021-08-13T08:36:12.190Z</time>
      </trkpt>
      <trkpt lat="46.83574" lon="8.42099">
        <ele>1620</ele>
        <time>2021-08-13T08:36:13.190Z</time>
      </trkpt>
      <trkpt lat="46.83573" lon="8.42099">
        <ele>1620</ele>
        <time>2021-08-13T08:36:14.189Z</time>
      </trkpt>
      <trkpt lat="46.83572" lon="8.42098">
        <ele>1620</ele>
        <time>2021-08-13T08:36:15.190Z</time>
      </trkpt>
      <trkpt lat="46.83572" lon="8.42099">
        <ele>1619</ele>
        <time>2021-08-13T08:36:16.190Z</time>
      </trkpt>
      <trkpt lat="46.83571" lon="8.42099">
        <ele>1619</ele>
        <time>2021-08-13T08:36:17.189Z</time>
      </trkpt>
      <trkpt lat="46.8357" lon="8.42098">
        <ele>1619</ele>
        <time>2021-08-13T08:36:18.190Z</time>
      </trkpt>
      <trkpt lat="46.83569" lon="8.42098">
        <ele>1619</ele>
        <time>2021-08-13T08:36:19.189Z</time>
      </trkpt>
      <trkpt lat="46.83568" lon="8.42097">
        <ele>1619</ele>
        <time>2021-08-13T08:36:20.189Z</time>
      </trkpt>
      <trkpt lat="46.83567" lon="8.42097">
        <ele>1618</ele>
        <time>2021-08-13T08:36:21.189Z</time>
      </trkpt>
      <trkpt lat="46.83567" lon="8.42096">
        <ele>1618</ele>
        <time>2021-08-13T08:36:22.190Z</time>
      </trkpt>
      <trkpt lat="46.83566" lon="8.42096">
        <ele>1618</ele>
        <time>2021-08-13T08:36:23.189Z</time>
      </trkpt>
      <trkpt lat="46.83565" lon="8.42095">
        <ele>1617</ele>
        <time>2021-08-13T08:36:24.189Z</time>
      </trkpt>
      <trkpt lat="46.83564" lon="8.42094">
        <ele>1617</ele>
        <time>2021-08-13T08:36:25.190Z</time>
      </trkpt>
      <trkpt lat="46.83563" lon="8.42093">
        <ele>1617</ele>
        <time>2021-08-13T08:36:26.190Z</time>
      </trkpt>
      <trkpt lat="46.83562" lon="8.42092">
        <ele>1616</ele>
        <time>2021-08-13T08:36:27.190Z</time>
      </trkpt>
      <trkpt lat="46.83561" lon="8.42091">
        <ele>1616</ele>
        <time>2021-08-13T08:36:28.190Z</time>
      </trkpt>
      <trkpt lat="46.8356" lon="8.42091">
        <ele>1615</ele>
        <time>2021-08-13T08:36:29.190Z</time>
      </trkpt>
      <trkpt lat="46.83559" lon="8.4209">
        <ele>1615</ele>
        <time>2021-08-13T08:36:30.190Z</time>
      </trkpt>
      <trkpt lat="46.83558" lon="8.42089">
        <ele>1614</ele>
        <time>2021-08-13T08:36:31.190Z</time>
      </trkpt>
      <trkpt lat="46.83557" lon="8.42088">
        <ele>1614</ele>
        <time>2021-08-13T08:36:32.190Z</time>
      </trkpt>
      <trkpt lat="46.83556" lon="8.42087">
        <ele>1614</ele>
        <time>2021-08-13T08:36:33.189Z</time>
      </trkpt>
      <trkpt lat="46.83556" lon="8.42087">
        <ele>1613</ele>
        <time>2021-08-13T08:36:34.189Z</time>
      </trkpt>
      <trkpt lat="46.83555" lon="8.42087">
        <ele>1613</ele>
        <time>2021-08-13T08:36:35.190Z</time>
      </trkpt>
      <trkpt lat="46.83555" lon="8.42087">
        <ele>1613</ele>
        <time>2021-08-13T08:36:36.190Z</time>
      </trkpt>
      <trkpt lat="46.83554" lon="8.42087">
        <ele>1613</ele>
        <time>2021-08-13T08:36:37.190Z</time>
      </trkpt>
      <trkpt lat="46.83553" lon="8.42086">
        <ele>1613</ele>
        <time>2021-08-13T08:36:38.189Z</time>
      </trkpt>
      <trkpt lat="46.83552" lon="8.42085">
        <ele>1613</ele>
        <time>2021-08-13T08:36:39.190Z</time>
      </trkpt>
      <trkpt lat="46.83552" lon="8.42085">
        <ele>1613</ele>
        <time>2021-08-13T08:36:40.190Z</time>
      </trkpt>
      <trkpt lat="46.83552" lon="8.42085">
        <ele>1613</ele>
        <time>2021-08-13T08:36:41.189Z</time>
      </trkpt>
      <trkpt lat="46.83552" lon="8.42085">
        <ele>1610</ele>
        <time>2021-08-13T08:36:42.190Z</time>
      </trkpt>
      <trkpt lat="46.83552" lon="8.42085">
        <ele>1612</ele>
        <time>2021-08-13T08:36:43.190Z</time>
      </trkpt>
      <trkpt lat="46.83551" lon="8.42086">
        <ele>1612</ele>
        <time>2021-08-13T08:36:44.190Z</time>
      </trkpt>
      <trkpt lat="46.83551" lon="8.42086">
        <ele>1612</ele>
        <time>2021-08-13T08:36:45.190Z</time>
      </trkpt>
      <trkpt lat="46.83551" lon="8.42085">
        <ele>1612</ele>
        <time>2021-08-13T08:36:46.190Z</time>
      </trkpt>
      <trkpt lat="46.8355" lon="8.42085">
        <ele>1612</ele>
        <time>2021-08-13T08:36:47.189Z</time>
      </trkpt>
      <trkpt lat="46.83549" lon="8.42084">
        <ele>1613</ele>
        <time>2021-08-13T08:36:48.190Z</time>
      </trkpt>
      <trkpt lat="46.83548" lon="8.42083">
        <ele>1613</ele>
        <time>2021-08-13T08:36:49.190Z</time>
      </trkpt>
      <trkpt lat="46.83547" lon="8.42082">
        <ele>1613</ele>
        <time>2021-08-13T08:36:50.189Z</time>
      </trkpt>
      <trkpt lat="46.83546" lon="8.42081">
        <ele>1613</ele>
        <time>2021-08-13T08:36:51.189Z</time>
      </trkpt>
      <trkpt lat="46.83546" lon="8.4208">
        <ele>1613</ele>
        <time>2021-08-13T08:36:52.190Z</time>
      </trkpt>
      <trkpt lat="46.83545" lon="8.42079">
        <ele>1614</ele>
        <time>2021-08-13T08:36:53.190Z</time>
      </trkpt>
      <trkpt lat="46.83544" lon="8.42078">
        <ele>1614</ele>
        <time>2021-08-13T08:36:54.190Z</time>
      </trkpt>
      <trkpt lat="46.83542" lon="8.42077">
        <ele>1614</ele>
        <time>2021-08-13T08:36:55.190Z</time>
      </trkpt>
      <trkpt lat="46.83542" lon="8.42077">
        <ele>1614</ele>
        <time>2021-08-13T08:36:56.189Z</time>
      </trkpt>
      <trkpt lat="46.83541" lon="8.42076">
        <ele>1614</ele>
        <time>2021-08-13T08:36:57.190Z</time>
      </trkpt>
      <trkpt lat="46.8354" lon="8.42076">
        <ele>1613</ele>
        <time>2021-08-13T08:36:58.190Z</time>
      </trkpt>
      <trkpt lat="46.8354" lon="8.42075">
        <ele>1612</ele>
        <time>2021-08-13T08:36:59.190Z</time>
      </trkpt>
      <trkpt lat="46.8354" lon="8.42074">
        <ele>1612</ele>
        <time>2021-08-13T08:37:00.190Z</time>
      </trkpt>
      <trkpt lat="46.8354" lon="8.42074">
        <ele>1611</ele>
        <time>2021-08-13T08:37:01.190Z</time>
      </trkpt>
      <trkpt lat="46.8354" lon="8.42075">
        <ele>1610</ele>
        <time>2021-08-13T08:37:02.190Z</time>
      </trkpt>
      <trkpt lat="46.83539" lon="8.42075">
        <ele>1610</ele>
        <time>2021-08-13T08:37:03.190Z</time>
      </trkpt>
      <trkpt lat="46.83538" lon="8.42075">
        <ele>1610</ele>
        <time>2021-08-13T08:37:04.190Z</time>
      </trkpt>
      <trkpt lat="46.83538" lon="8.42075">
        <ele>1609</ele>
        <time>2021-08-13T08:37:05.190Z</time>
      </trkpt>
      <trkpt lat="46.83537" lon="8.42075">
        <ele>1609</ele>
        <time>2021-08-13T08:37:06.189Z</time>
      </trkpt>
      <trkpt lat="46.83536" lon="8.42075">
        <ele>1609</ele>
        <time>2021-08-13T08:37:07.189Z</time>
      </trkpt>
      <trkpt lat="46.83536" lon="8.42074">
        <ele>1608</ele>
        <time>2021-08-13T08:37:08.190Z</time>
      </trkpt>
      <trkpt lat="46.83535" lon="8.42074">
        <ele>1608</ele>
        <time>2021-08-13T08:37:09.190Z</time>
      </trkpt>
      <trkpt lat="46.83533" lon="8.42073">
        <ele>1609</ele>
        <time>2021-08-13T08:37:10.189Z</time>
      </trkpt>
      <trkpt lat="46.83533" lon="8.42072">
        <ele>1609</ele>
        <time>2021-08-13T08:37:11.189Z</time>
      </trkpt>
      <trkpt lat="46.83533" lon="8.42072">
        <ele>1609</ele>
        <time>2021-08-13T08:37:12.190Z</time>
      </trkpt>
      <trkpt lat="46.83532" lon="8.42073">
        <ele>1609</ele>
        <time>2021-08-13T08:37:13.189Z</time>
      </trkpt>
      <trkpt lat="46.83532" lon="8.42073">
        <ele>1608</ele>
        <time>2021-08-13T08:37:14.190Z</time>
      </trkpt>
      <trkpt lat="46.83532" lon="8.42073">
        <ele>1608</ele>
        <time>2021-08-13T08:37:15.190Z</time>
      </trkpt>
      <trkpt lat="46.83531" lon="8.42072">
        <ele>1608</ele>
        <time>2021-08-13T08:37:16.189Z</time>
      </trkpt>
      <trkpt lat="46.83531" lon="8.42072">
        <ele>1608</ele>
        <time>2021-08-13T08:37:17.190Z</time>
      </trkpt>
      <trkpt lat="46.8353" lon="8.42072">
        <ele>1607</ele>
        <time>2021-08-13T08:37:18.190Z</time>
      </trkpt>
      <trkpt lat="46.83529" lon="8.42071">
        <ele>1607</ele>
        <time>2021-08-13T08:37:19.190Z</time>
      </trkpt>
      <trkpt lat="46.83528" lon="8.4207">
        <ele>1606</ele>
        <time>2021-08-13T08:37:20.189Z</time>
      </trkpt>
      <trkpt lat="46.83528" lon="8.4207">
        <ele>1606</ele>
        <time>2021-08-13T08:37:21.190Z</time>
      </trkpt>
      <trkpt lat="46.83527" lon="8.4207">
        <ele>1606</ele>
        <time>2021-08-13T08:37:22.189Z</time>
      </trkpt>
      <trkpt lat="46.83527" lon="8.42069">
        <ele>1605</ele>
        <time>2021-08-13T08:37:23.189Z</time>
      </trkpt>
      <trkpt lat="46.83527" lon="8.42069">
        <ele>1604</ele>
        <time>2021-08-13T08:37:24.190Z</time>
      </trkpt>
      <trkpt lat="46.83526" lon="8.42068">
        <ele>1604</ele>
        <time>2021-08-13T08:37:25.189Z</time>
      </trkpt>
      <trkpt lat="46.83525" lon="8.42067">
        <ele>1604</ele>
        <time>2021-08-13T08:37:26.190Z</time>
      </trkpt>
      <trkpt lat="46.83525" lon="8.42066">
        <ele>1603</ele>
        <time>2021-08-13T08:37:27.190Z</time>
      </trkpt>
      <trkpt lat="46.83524" lon="8.42065">
        <ele>1603</ele>
        <time>2021-08-13T08:37:28.189Z</time>
      </trkpt>
      <trkpt lat="46.83523" lon="8.42065">
        <ele>1602</ele>
        <time>2021-08-13T08:37:29.190Z</time>
      </trkpt>
      <trkpt lat="46.83522" lon="8.42064">
        <ele>1602</ele>
        <time>2021-08-13T08:37:30.190Z</time>
      </trkpt>
      <trkpt lat="46.83521" lon="8.42063">
        <ele>1602</ele>
        <time>2021-08-13T08:37:31.190Z</time>
      </trkpt>
      <trkpt lat="46.83521" lon="8.42063">
        <ele>1602</ele>
        <time>2021-08-13T08:37:32.190Z</time>
      </trkpt>
      <trkpt lat="46.83521" lon="8.42062">
        <ele>1602</ele>
        <time>2021-08-13T08:37:33.190Z</time>
      </trkpt>
      <trkpt lat="46.8352" lon="8.42061">
        <ele>1602</ele>
        <time>2021-08-13T08:37:34.190Z</time>
      </trkpt>
      <trkpt lat="46.8352" lon="8.4206">
        <ele>1602</ele>
        <time>2021-08-13T08:37:35.189Z</time>
      </trkpt>
      <trkpt lat="46.83519" lon="8.42059">
        <ele>1602</ele>
        <time>2021-08-13T08:37:36.189Z</time>
      </trkpt>
      <trkpt lat="46.83518" lon="8.42058">
        <ele>1602</ele>
        <time>2021-08-13T08:37:37.190Z</time>
      </trkpt>
      <trkpt lat="46.83517" lon="8.42058">
        <ele>1602</ele>
        <time>2021-08-13T08:37:38.190Z</time>
      </trkpt>
      <trkpt lat="46.83516" lon="8.42059">
        <ele>1602</ele>
        <time>2021-08-13T08:37:39.189Z</time>
      </trkpt>
      <trkpt lat="46.83515" lon="8.42059">
        <ele>1602</ele>
        <time>2021-08-13T08:37:40.190Z</time>
      </trkpt>
      <trkpt lat="46.83515" lon="8.42061">
        <ele>1603</ele>
        <time>2021-08-13T08:37:41.190Z</time>
      </trkpt>
      <trkpt lat="46.83515" lon="8.42062">
        <ele>1603</ele>
        <time>2021-08-13T08:37:42.189Z</time>
      </trkpt>
      <trkpt lat="46.83515" lon="8.42063">
        <ele>1602</ele>
        <time>2021-08-13T08:37:43.190Z</time>
      </trkpt>
      <trkpt lat="46.83516" lon="8.42065">
        <ele>1602</ele>
        <time>2021-08-13T08:37:44.190Z</time>
      </trkpt>
      <trkpt lat="46.83516" lon="8.42066">
        <ele>1602</ele>
        <time>2021-08-13T08:37:45.190Z</time>
      </trkpt>
      <trkpt lat="46.83516" lon="8.42068">
        <ele>1601</ele>
        <time>2021-08-13T08:37:46.190Z</time>
      </trkpt>
      <trkpt lat="46.83517" lon="8.4207">
        <ele>1601</ele>
        <time>2021-08-13T08:37:47.190Z</time>
      </trkpt>
      <trkpt lat="46.83517" lon="8.42071">
        <ele>1601</ele>
        <time>2021-08-13T08:37:48.190Z</time>
      </trkpt>
      <trkpt lat="46.83517" lon="8.42073">
        <ele>1601</ele>
        <time>2021-08-13T08:37:49.189Z</time>
      </trkpt>
      <trkpt lat="46.83517" lon="8.42074">
        <ele>1601</ele>
        <time>2021-08-13T08:37:50.190Z</time>
      </trkpt>
      <trkpt lat="46.83517" lon="8.42076">
        <ele>1600</ele>
        <time>2021-08-13T08:37:51.189Z</time>
      </trkpt>
      <trkpt lat="46.83517" lon="8.42077">
        <ele>1600</ele>
        <time>2021-08-13T08:37:52.190Z</time>
      </trkpt>
      <trkpt lat="46.83517" lon="8.42078">
        <ele>1600</ele>
        <time>2021-08-13T08:37:53.190Z</time>
      </trkpt>
      <trkpt lat="46.83517" lon="8.4208">
        <ele>1599</ele>
        <time>2021-08-13T08:37:54.189Z</time>
      </trkpt>
      <trkpt lat="46.83517" lon="8.42081">
        <ele>1599</ele>
        <time>2021-08-13T08:37:55.189Z</time>
      </trkpt>
      <trkpt lat="46.83517" lon="8.42083">
        <ele>1599</ele>
        <time>2021-08-13T08:37:56.190Z</time>
      </trkpt>
      <trkpt lat="46.83517" lon="8.42084">
        <ele>1599</ele>
        <time>2021-08-13T08:37:57.189Z</time>
      </trkpt>
      <trkpt lat="46.83517" lon="8.42085">
        <ele>1598</ele>
        <time>2021-08-13T08:37:58.190Z</time>
      </trkpt>
      <trkpt lat="46.83517" lon="8.42086">
        <ele>1598</ele>
        <time>2021-08-13T08:37:59.190Z</time>
      </trkpt>
      <trkpt lat="46.83517" lon="8.42088">
        <ele>1597</ele>
        <time>2021-08-13T08:38:00.189Z</time>
      </trkpt>
      <trkpt lat="46.83517" lon="8.42089">
        <ele>1596</ele>
        <time>2021-08-13T08:38:01.189Z</time>
      </trkpt>
      <trkpt lat="46.83516" lon="8.42089">
        <ele>1596</ele>
        <time>2021-08-13T08:38:02.190Z</time>
      </trkpt>
      <trkpt lat="46.83516" lon="8.4209">
        <ele>1596</ele>
        <time>2021-08-13T08:38:03.189Z</time>
      </trkpt>
      <trkpt lat="46.83515" lon="8.42091">
        <ele>1596</ele>
        <time>2021-08-13T08:38:04.189Z</time>
      </trkpt>
      <trkpt lat="46.83515" lon="8.42092">
        <ele>1596</ele>
        <time>2021-08-13T08:38:05.190Z</time>
      </trkpt>
      <trkpt lat="46.83514" lon="8.42093">
        <ele>1596</ele>
        <time>2021-08-13T08:38:06.189Z</time>
      </trkpt>
      <trkpt lat="46.83514" lon="8.42094">
        <ele>1595</ele>
        <time>2021-08-13T08:38:07.189Z</time>
      </trkpt>
      <trkpt lat="46.83514" lon="8.42095">
        <ele>1595</ele>
        <time>2021-08-13T08:38:08.189Z</time>
      </trkpt>
      <trkpt lat="46.83514" lon="8.42096">
        <ele>1595</ele>
        <time>2021-08-13T08:38:09.189Z</time>
      </trkpt>
      <trkpt lat="46.83513" lon="8.42097">
        <ele>1594</ele>
        <time>2021-08-13T08:38:10.189Z</time>
      </trkpt>
      <trkpt lat="46.83513" lon="8.42099">
        <ele>1594</ele>
        <time>2021-08-13T08:38:11.189Z</time>
      </trkpt>
      <trkpt lat="46.83513" lon="8.421">
        <ele>1594</ele>
        <time>2021-08-13T08:38:12.190Z</time>
      </trkpt>
      <trkpt lat="46.83513" lon="8.42102">
        <ele>1594</ele>
        <time>2021-08-13T08:38:13.189Z</time>
      </trkpt>
      <trkpt lat="46.83512" lon="8.42103">
        <ele>1593</ele>
        <time>2021-08-13T08:38:14.190Z</time>
      </trkpt>
      <trkpt lat="46.83512" lon="8.42105">
        <ele>1593</ele>
        <time>2021-08-13T08:38:15.190Z</time>
      </trkpt>
      <trkpt lat="46.83513" lon="8.42107">
        <ele>1593</ele>
        <time>2021-08-13T08:38:16.189Z</time>
      </trkpt>
      <trkpt lat="46.83513" lon="8.42108">
        <ele>1593</ele>
        <time>2021-08-13T08:38:17.190Z</time>
      </trkpt>
      <trkpt lat="46.83513" lon="8.4211">
        <ele>1593</ele>
        <time>2021-08-13T08:38:18.190Z</time>
      </trkpt>
      <trkpt lat="46.83514" lon="8.42112">
        <ele>1592</ele>
        <time>2021-08-13T08:38:19.189Z</time>
      </trkpt>
      <trkpt lat="46.83514" lon="8.42113">
        <ele>1592</ele>
        <time>2021-08-13T08:38:20.189Z</time>
      </trkpt>
      <trkpt lat="46.83514" lon="8.42115">
        <ele>1592</ele>
        <time>2021-08-13T08:38:21.189Z</time>
      </trkpt>
      <trkpt lat="46.83514" lon="8.42117">
        <ele>1592</ele>
        <time>2021-08-13T08:38:22.190Z</time>
      </trkpt>
      <trkpt lat="46.83515" lon="8.42118">
        <ele>1591</ele>
        <time>2021-08-13T08:38:23.190Z</time>
      </trkpt>
      <trkpt lat="46.83515" lon="8.4212">
        <ele>1591</ele>
        <time>2021-08-13T08:38:24.190Z</time>
      </trkpt>
      <trkpt lat="46.83515" lon="8.42121">
        <ele>1591</ele>
        <time>2021-08-13T08:38:25.189Z</time>
      </trkpt>
      <trkpt lat="46.83515" lon="8.42123">
        <ele>1591</ele>
        <time>2021-08-13T08:38:26.190Z</time>
      </trkpt>
      <trkpt lat="46.83516" lon="8.42125">
        <ele>1590</ele>
        <time>2021-08-13T08:38:27.190Z</time>
      </trkpt>
      <trkpt lat="46.83516" lon="8.42127">
        <ele>1590</ele>
        <time>2021-08-13T08:38:28.190Z</time>
      </trkpt>
      <trkpt lat="46.83516" lon="8.42129">
        <ele>1590</ele>
        <time>2021-08-13T08:38:29.190Z</time>
      </trkpt>
      <trkpt lat="46.83516" lon="8.42131">
        <ele>1590</ele>
        <time>2021-08-13T08:38:30.190Z</time>
      </trkpt>
      <trkpt lat="46.83516" lon="8.42133">
        <ele>1590</ele>
        <time>2021-08-13T08:38:31.190Z</time>
      </trkpt>
      <trkpt lat="46.83516" lon="8.42134">
        <ele>1589</ele>
        <time>2021-08-13T08:38:32.189Z</time>
      </trkpt>
      <trkpt lat="46.83516" lon="8.42136">
        <ele>1589</ele>
        <time>2021-08-13T08:38:33.189Z</time>
      </trkpt>
      <trkpt lat="46.83516" lon="8.42138">
        <ele>1589</ele>
        <time>2021-08-13T08:38:34.190Z</time>
      </trkpt>
      <trkpt lat="46.83516" lon="8.42139">
        <ele>1589</ele>
        <time>2021-08-13T08:38:35.190Z</time>
      </trkpt>
      <trkpt lat="46.83516" lon="8.42141">
        <ele>1588</ele>
        <time>2021-08-13T08:38:36.190Z</time>
      </trkpt>
      <trkpt lat="46.83516" lon="8.42142">
        <ele>1588</ele>
        <time>2021-08-13T08:38:37.190Z</time>
      </trkpt>
      <trkpt lat="46.83516" lon="8.42143">
        <ele>1588</ele>
        <time>2021-08-13T08:38:38.189Z</time>
      </trkpt>
      <trkpt lat="46.83515" lon="8.42145">
        <ele>1588</ele>
        <time>2021-08-13T08:38:39.189Z</time>
      </trkpt>
      <trkpt lat="46.83514" lon="8.42146">
        <ele>1588</ele>
        <time>2021-08-13T08:38:40.190Z</time>
      </trkpt>
      <trkpt lat="46.83513" lon="8.42148">
        <ele>1588</ele>
        <time>2021-08-13T08:38:41.190Z</time>
      </trkpt>
      <trkpt lat="46.83513" lon="8.42149">
        <ele>1589</ele>
        <time>2021-08-13T08:38:42.190Z</time>
      </trkpt>
      <trkpt lat="46.83512" lon="8.4215">
        <ele>1588</ele>
        <time>2021-08-13T08:38:43.190Z</time>
      </trkpt>
      <trkpt lat="46.83511" lon="8.42152">
        <ele>1588</ele>
        <time>2021-08-13T08:38:44.190Z</time>
      </trkpt>
      <trkpt lat="46.8351" lon="8.42153">
        <ele>1588</ele>
        <time>2021-08-13T08:38:45.190Z</time>
      </trkpt>
      <trkpt lat="46.83509" lon="8.42155">
        <ele>1588</ele>
        <time>2021-08-13T08:38:46.190Z</time>
      </trkpt>
      <trkpt lat="46.83509" lon="8.42156">
        <ele>1588</ele>
        <time>2021-08-13T08:38:47.189Z</time>
      </trkpt>
      <trkpt lat="46.83508" lon="8.42157">
        <ele>1588</ele>
        <time>2021-08-13T08:38:48.189Z</time>
      </trkpt>
      <trkpt lat="46.83507" lon="8.42158">
        <ele>1588</ele>
        <time>2021-08-13T08:38:49.190Z</time>
      </trkpt>
      <trkpt lat="46.83507" lon="8.4216">
        <ele>1589</ele>
        <time>2021-08-13T08:38:50.190Z</time>
      </trkpt>
      <trkpt lat="46.83506" lon="8.42161">
        <ele>1589</ele>
        <time>2021-08-13T08:38:51.189Z</time>
      </trkpt>
      <trkpt lat="46.83505" lon="8.42162">
        <ele>1589</ele>
        <time>2021-08-13T08:38:52.190Z</time>
      </trkpt>
      <trkpt lat="46.83505" lon="8.42162">
        <ele>1589</ele>
        <time>2021-08-13T08:38:53.190Z</time>
      </trkpt>
      <trkpt lat="46.83504" lon="8.42163">
        <ele>1589</ele>
        <time>2021-08-13T08:38:54.190Z</time>
      </trkpt>
      <trkpt lat="46.83503" lon="8.42163">
        <ele>1589</ele>
        <time>2021-08-13T08:38:55.190Z</time>
      </trkpt>
      <trkpt lat="46.83503" lon="8.42163">
        <ele>1589</ele>
        <time>2021-08-13T08:38:56.190Z</time>
      </trkpt>
      <trkpt lat="46.83503" lon="8.42163">
        <ele>1589</ele>
        <time>2021-08-13T08:38:57.190Z</time>
      </trkpt>
      <trkpt lat="46.83501" lon="8.42162">
        <ele>1590</ele>
        <time>2021-08-13T08:38:58.190Z</time>
      </trkpt>
      <trkpt lat="46.835" lon="8.42161">
        <ele>1590</ele>
        <time>2021-08-13T08:38:59.190Z</time>
      </trkpt>
      <trkpt lat="46.835" lon="8.42162">
        <ele>1589</ele>
        <time>2021-08-13T08:39:00.189Z</time>
      </trkpt>
      <trkpt lat="46.83499" lon="8.42162">
        <ele>1589</ele>
        <time>2021-08-13T08:39:01.189Z</time>
      </trkpt>
      <trkpt lat="46.835" lon="8.42163">
        <ele>1588</ele>
        <time>2021-08-13T08:39:02.192Z</time>
      </trkpt>
      <trkpt lat="46.835" lon="8.42163">
        <ele>1588</ele>
        <time>2021-08-13T08:39:03.192Z</time>
      </trkpt>
      <trkpt lat="46.83501" lon="8.42164">
        <ele>1589</ele>
        <time>2021-08-13T08:39:04.192Z</time>
      </trkpt>
      <trkpt lat="46.83503" lon="8.42165">
        <ele>1589</ele>
        <time>2021-08-13T08:39:05.192Z</time>
      </trkpt>
      <trkpt lat="46.83503" lon="8.42165">
        <ele>1589</ele>
        <time>2021-08-13T08:39:06.192Z</time>
      </trkpt>
      <trkpt lat="46.83503" lon="8.42166">
        <ele>1589</ele>
        <time>2021-08-13T08:39:07.191Z</time>
      </trkpt>
      <trkpt lat="46.83502" lon="8.42167">
        <ele>1592</ele>
        <time>2021-08-13T08:39:08.192Z</time>
      </trkpt>
      <trkpt lat="46.83502" lon="8.42166">
        <ele>1592</ele>
        <time>2021-08-13T08:39:09.192Z</time>
      </trkpt>
      <trkpt lat="46.83503" lon="8.42166">
        <ele>1592</ele>
        <time>2021-08-13T08:39:10.191Z</time>
      </trkpt>
      <trkpt lat="46.83503" lon="8.42166">
        <ele>1593</ele>
        <time>2021-08-13T08:39:11.192Z</time>
      </trkpt>
      <trkpt lat="46.83504" lon="8.42165">
        <ele>1593</ele>
        <time>2021-08-13T08:39:12.192Z</time>
      </trkpt>
      <trkpt lat="46.835" lon="8.4216">
        <ele>1601</ele>
        <time>2021-08-13T08:39:13.193Z</time>
      </trkpt>
      <trkpt lat="46.835" lon="8.42159">
        <ele>1601</ele>
        <time>2021-08-13T08:39:14.193Z</time>
      </trkpt>
      <trkpt lat="46.83502" lon="8.4216">
        <ele>1599</ele>
        <time>2021-08-13T08:39:15.192Z</time>
      </trkpt>
      <trkpt lat="46.83502" lon="8.42161">
        <ele>1598</ele>
        <time>2021-08-13T08:39:16.193Z</time>
      </trkpt>
      <trkpt lat="46.83502" lon="8.42162">
        <ele>1597</ele>
        <time>2021-08-13T08:39:17.192Z</time>
      </trkpt>
      <trkpt lat="46.83505" lon="8.42163">
        <ele>1582</ele>
        <time>2021-08-13T08:39:18.194Z</time>
      </trkpt>
      <trkpt lat="46.83506" lon="8.42162">
        <ele>1583</ele>
        <time>2021-08-13T08:39:19.193Z</time>
      </trkpt>
      <trkpt lat="46.83506" lon="8.42162">
        <ele>1583</ele>
        <time>2021-08-13T08:39:20.193Z</time>
      </trkpt>
      <trkpt lat="46.83506" lon="8.42162">
        <ele>1587</ele>
        <time>2021-08-13T08:39:21.195Z</time>
      </trkpt>
      <trkpt lat="46.83503" lon="8.42163">
        <ele>1590</ele>
        <time>2021-08-13T08:39:22.196Z</time>
      </trkpt>
      <trkpt lat="46.83503" lon="8.42163">
        <ele>1590</ele>
        <time>2021-08-13T08:39:23.195Z</time>
      </trkpt>
      <trkpt lat="46.83502" lon="8.42164">
        <ele>1590</ele>
        <time>2021-08-13T08:39:24.195Z</time>
      </trkpt>
      <trkpt lat="46.83503" lon="8.42168">
        <ele>1589</ele>
        <time>2021-08-13T08:39:25.196Z</time>
      </trkpt>
      <trkpt lat="46.83502" lon="8.42167">
        <ele>1589</ele>
        <time>2021-08-13T08:39:26.197Z</time>
      </trkpt>
      <trkpt lat="46.83501" lon="8.42167">
        <ele>1589</ele>
        <time>2021-08-13T08:39:27.196Z</time>
      </trkpt>
      <trkpt lat="46.83501" lon="8.42166">
        <ele>1589</ele>
        <time>2021-08-13T08:39:28.197Z</time>
      </trkpt>
      <trkpt lat="46.83499" lon="8.42166">
        <ele>1589</ele>
        <time>2021-08-13T08:39:29.197Z</time>
      </trkpt>
      <trkpt lat="46.83498" lon="8.42166">
        <ele>1589</ele>
        <time>2021-08-13T08:39:30.197Z</time>
      </trkpt>
      <trkpt lat="46.83497" lon="8.42166">
        <ele>1589</ele>
        <time>2021-08-13T08:39:31.197Z</time>
      </trkpt>
      <trkpt lat="46.83497" lon="8.42166">
        <ele>1588</ele>
        <time>2021-08-13T08:39:32.197Z</time>
      </trkpt>
      <trkpt lat="46.83496" lon="8.42166">
        <ele>1588</ele>
        <time>2021-08-13T08:39:33.197Z</time>
      </trkpt>
      <trkpt lat="46.83494" lon="8.42165">
        <ele>1588</ele>
        <time>2021-08-13T08:39:34.197Z</time>
      </trkpt>
      <trkpt lat="46.83493" lon="8.42165">
        <ele>1588</ele>
        <time>2021-08-13T08:39:35.197Z</time>
      </trkpt>
      <trkpt lat="46.83491" lon="8.42164">
        <ele>1588</ele>
        <time>2021-08-13T08:39:36.197Z</time>
      </trkpt>
      <trkpt lat="46.8349" lon="8.42164">
        <ele>1588</ele>
        <time>2021-08-13T08:39:37.197Z</time>
      </trkpt>
      <trkpt lat="46.83488" lon="8.42164">
        <ele>1589</ele>
        <time>2021-08-13T08:39:38.196Z</time>
      </trkpt>
      <trkpt lat="46.83487" lon="8.42164">
        <ele>1589</ele>
        <time>2021-08-13T08:39:39.196Z</time>
      </trkpt>
      <trkpt lat="46.83486" lon="8.42165">
        <ele>1589</ele>
        <time>2021-08-13T08:39:40.197Z</time>
      </trkpt>
      <trkpt lat="46.83485" lon="8.42165">
        <ele>1589</ele>
        <time>2021-08-13T08:39:41.196Z</time>
      </trkpt>
      <trkpt lat="46.83484" lon="8.42165">
        <ele>1588</ele>
        <time>2021-08-13T08:39:42.197Z</time>
      </trkpt>
      <trkpt lat="46.83483" lon="8.42166">
        <ele>1588</ele>
        <time>2021-08-13T08:39:43.197Z</time>
      </trkpt>
      <trkpt lat="46.83482" lon="8.42165">
        <ele>1587</ele>
        <time>2021-08-13T08:39:44.197Z</time>
      </trkpt>
      <trkpt lat="46.83481" lon="8.42165">
        <ele>1587</ele>
        <time>2021-08-13T08:39:45.197Z</time>
      </trkpt>
      <trkpt lat="46.8348" lon="8.42166">
        <ele>1587</ele>
        <time>2021-08-13T08:39:46.197Z</time>
      </trkpt>
      <trkpt lat="46.8348" lon="8.42166">
        <ele>1586</ele>
        <time>2021-08-13T08:39:47.196Z</time>
      </trkpt>
      <trkpt lat="46.83479" lon="8.42166">
        <ele>1586</ele>
        <time>2021-08-13T08:39:48.197Z</time>
      </trkpt>
      <trkpt lat="46.83479" lon="8.42166">
        <ele>1586</ele>
        <time>2021-08-13T08:39:49.197Z</time>
      </trkpt>
      <trkpt lat="46.83476" lon="8.42165">
        <ele>1587</ele>
        <time>2021-08-13T08:39:50.196Z</time>
      </trkpt>
      <trkpt lat="46.83475" lon="8.42164">
        <ele>1587</ele>
        <time>2021-08-13T08:39:51.196Z</time>
      </trkpt>
      <trkpt lat="46.83474" lon="8.42164">
        <ele>1587</ele>
        <time>2021-08-13T08:39:52.196Z</time>
      </trkpt>
      <trkpt lat="46.83473" lon="8.42164">
        <ele>1587</ele>
        <time>2021-08-13T08:39:53.197Z</time>
      </trkpt>
      <trkpt lat="46.83473" lon="8.42164">
        <ele>1587</ele>
        <time>2021-08-13T08:39:54.197Z</time>
      </trkpt>
      <trkpt lat="46.83472" lon="8.42163">
        <ele>1587</ele>
        <time>2021-08-13T08:39:55.197Z</time>
      </trkpt>
      <trkpt lat="46.83472" lon="8.42163">
        <ele>1587</ele>
        <time>2021-08-13T08:39:56.197Z</time>
      </trkpt>
      <trkpt lat="46.83473" lon="8.42163">
        <ele>1587</ele>
        <time>2021-08-13T08:39:57.198Z</time>
      </trkpt>
      <trkpt lat="46.83472" lon="8.42163">
        <ele>1587</ele>
        <time>2021-08-13T08:39:58.198Z</time>
      </trkpt>
      <trkpt lat="46.83472" lon="8.42164">
        <ele>1587</ele>
        <time>2021-08-13T08:39:59.197Z</time>
      </trkpt>
      <trkpt lat="46.83471" lon="8.42165">
        <ele>1587</ele>
        <time>2021-08-13T08:40:00.197Z</time>
      </trkpt>
      <trkpt lat="46.83469" lon="8.42165">
        <ele>1587</ele>
        <time>2021-08-13T08:40:01.197Z</time>
      </trkpt>
      <trkpt lat="46.83469" lon="8.42165">
        <ele>1587</ele>
        <time>2021-08-13T08:40:02.198Z</time>
      </trkpt>
      <trkpt lat="46.83468" lon="8.42166">
        <ele>1587</ele>
        <time>2021-08-13T08:40:03.198Z</time>
      </trkpt>
      <trkpt lat="46.83467" lon="8.42166">
        <ele>1586</ele>
        <time>2021-08-13T08:40:04.197Z</time>
      </trkpt>
      <trkpt lat="46.83466" lon="8.42166">
        <ele>1587</ele>
        <time>2021-08-13T08:40:05.197Z</time>
      </trkpt>
      <trkpt lat="46.83465" lon="8.42167">
        <ele>1587</ele>
        <time>2021-08-13T08:40:06.197Z</time>
      </trkpt>
      <trkpt lat="46.83464" lon="8.42168">
        <ele>1587</ele>
        <time>2021-08-13T08:40:07.198Z</time>
      </trkpt>
      <trkpt lat="46.83463" lon="8.42168">
        <ele>1587</ele>
        <time>2021-08-13T08:40:08.198Z</time>
      </trkpt>
      <trkpt lat="46.83462" lon="8.42169">
        <ele>1587</ele>
        <time>2021-08-13T08:40:09.197Z</time>
      </trkpt>
      <trkpt lat="46.8346" lon="8.42169">
        <ele>1587</ele>
        <time>2021-08-13T08:40:10.197Z</time>
      </trkpt>
      <trkpt lat="46.8346" lon="8.42169">
        <ele>1587</ele>
        <time>2021-08-13T08:40:11.197Z</time>
      </trkpt>
      <trkpt lat="46.83459" lon="8.42169">
        <ele>1587</ele>
        <time>2021-08-13T08:40:12.197Z</time>
      </trkpt>
      <trkpt lat="46.83458" lon="8.42168">
        <ele>1587</ele>
        <time>2021-08-13T08:40:13.197Z</time>
      </trkpt>
      <trkpt lat="46.83458" lon="8.42168">
        <ele>1587</ele>
        <time>2021-08-13T08:40:14.197Z</time>
      </trkpt>
      <trkpt lat="46.83458" lon="8.42167">
        <ele>1587</ele>
        <time>2021-08-13T08:40:15.197Z</time>
      </trkpt>
      <trkpt lat="46.83458" lon="8.42166">
        <ele>1587</ele>
        <time>2021-08-13T08:40:16.197Z</time>
      </trkpt>
      <trkpt lat="46.83458" lon="8.42165">
        <ele>1587</ele>
        <time>2021-08-13T08:40:17.197Z</time>
      </trkpt>
      <trkpt lat="46.83458" lon="8.42164">
        <ele>1587</ele>
        <time>2021-08-13T08:40:18.197Z</time>
      </trkpt>
      <trkpt lat="46.83459" lon="8.42163">
        <ele>1587</ele>
        <time>2021-08-13T08:40:19.197Z</time>
      </trkpt>
      <trkpt lat="46.8346" lon="8.42163">
        <ele>1587</ele>
        <time>2021-08-13T08:40:20.197Z</time>
      </trkpt>
      <trkpt lat="46.83461" lon="8.42162">
        <ele>1586</ele>
        <time>2021-08-13T08:40:21.197Z</time>
      </trkpt>
      <trkpt lat="46.83461" lon="8.42162">
        <ele>1585</ele>
        <time>2021-08-13T08:40:22.197Z</time>
      </trkpt>
      <trkpt lat="46.83462" lon="8.42162">
        <ele>1585</ele>
        <time>2021-08-13T08:40:23.197Z</time>
      </trkpt>
      <trkpt lat="46.83462" lon="8.42162">
        <ele>1584</ele>
        <time>2021-08-13T08:40:24.198Z</time>
      </trkpt>
      <trkpt lat="46.83462" lon="8.42161">
        <ele>1584</ele>
        <time>2021-08-13T08:40:25.197Z</time>
      </trkpt>
      <trkpt lat="46.83463" lon="8.42159">
        <ele>1583</ele>
        <time>2021-08-13T08:40:26.198Z</time>
      </trkpt>
      <trkpt lat="46.83463" lon="8.42158">
        <ele>1582</ele>
        <time>2021-08-13T08:40:27.197Z</time>
      </trkpt>
      <trkpt lat="46.83464" lon="8.42156">
        <ele>1582</ele>
        <time>2021-08-13T08:40:28.198Z</time>
      </trkpt>
      <trkpt lat="46.83465" lon="8.42155">
        <ele>1581</ele>
        <time>2021-08-13T08:40:29.198Z</time>
      </trkpt>
      <trkpt lat="46.83466" lon="8.42153">
        <ele>1581</ele>
        <time>2021-08-13T08:40:30.198Z</time>
      </trkpt>
      <trkpt lat="46.83467" lon="8.42152">
        <ele>1581</ele>
        <time>2021-08-13T08:40:31.198Z</time>
      </trkpt>
      <trkpt lat="46.83468" lon="8.42151">
        <ele>1581</ele>
        <time>2021-08-13T08:40:32.198Z</time>
      </trkpt>
      <trkpt lat="46.83469" lon="8.4215">
        <ele>1581</ele>
        <time>2021-08-13T08:40:33.198Z</time>
      </trkpt>
      <trkpt lat="46.83471" lon="8.42148">
        <ele>1581</ele>
        <time>2021-08-13T08:40:34.197Z</time>
      </trkpt>
      <trkpt lat="46.83472" lon="8.42147">
        <ele>1581</ele>
        <time>2021-08-13T08:40:35.197Z</time>
      </trkpt>
      <trkpt lat="46.83474" lon="8.42146">
        <ele>1581</ele>
        <time>2021-08-13T08:40:36.198Z</time>
      </trkpt>
      <trkpt lat="46.83476" lon="8.42144">
        <ele>1580</ele>
        <time>2021-08-13T08:40:37.198Z</time>
      </trkpt>
      <trkpt lat="46.83477" lon="8.42142">
        <ele>1580</ele>
        <time>2021-08-13T08:40:38.198Z</time>
      </trkpt>
      <trkpt lat="46.83477" lon="8.4214">
        <ele>1580</ele>
        <time>2021-08-13T08:40:39.197Z</time>
      </trkpt>
      <trkpt lat="46.83478" lon="8.42138">
        <ele>1579</ele>
        <time>2021-08-13T08:40:40.198Z</time>
      </trkpt>
      <trkpt lat="46.83478" lon="8.42136">
        <ele>1579</ele>
        <time>2021-08-13T08:40:41.197Z</time>
      </trkpt>
      <trkpt lat="46.83478" lon="8.42134">
        <ele>1579</ele>
        <time>2021-08-13T08:40:42.198Z</time>
      </trkpt>
      <trkpt lat="46.83479" lon="8.42133">
        <ele>1579</ele>
        <time>2021-08-13T08:40:43.198Z</time>
      </trkpt>
      <trkpt lat="46.83479" lon="8.4213">
        <ele>1579</ele>
        <time>2021-08-13T08:40:44.197Z</time>
      </trkpt>
      <trkpt lat="46.83479" lon="8.42128">
        <ele>1579</ele>
        <time>2021-08-13T08:40:45.197Z</time>
      </trkpt>
      <trkpt lat="46.83478" lon="8.42126">
        <ele>1579</ele>
        <time>2021-08-13T08:40:46.198Z</time>
      </trkpt>
      <trkpt lat="46.83477" lon="8.42124">
        <ele>1579</ele>
        <time>2021-08-13T08:40:47.198Z</time>
      </trkpt>
      <trkpt lat="46.83476" lon="8.42123">
        <ele>1579</ele>
        <time>2021-08-13T08:40:48.198Z</time>
      </trkpt>
      <trkpt lat="46.83475" lon="8.42121">
        <ele>1579</ele>
        <time>2021-08-13T08:40:49.197Z</time>
      </trkpt>
      <trkpt lat="46.83474" lon="8.42119">
        <ele>1579</ele>
        <time>2021-08-13T08:40:50.198Z</time>
      </trkpt>
      <trkpt lat="46.83473" lon="8.42118">
        <ele>1579</ele>
        <time>2021-08-13T08:40:51.198Z</time>
      </trkpt>
      <trkpt lat="46.83472" lon="8.42115">
        <ele>1579</ele>
        <time>2021-08-13T08:40:52.198Z</time>
      </trkpt>
      <trkpt lat="46.83472" lon="8.42114">
        <ele>1579</ele>
        <time>2021-08-13T08:40:53.198Z</time>
      </trkpt>
      <trkpt lat="46.83471" lon="8.42111">
        <ele>1578</ele>
        <time>2021-08-13T08:40:54.198Z</time>
      </trkpt>
      <trkpt lat="46.8347" lon="8.4211">
        <ele>1578</ele>
        <time>2021-08-13T08:40:55.198Z</time>
      </trkpt>
      <trkpt lat="46.83469" lon="8.42108">
        <ele>1578</ele>
        <time>2021-08-13T08:40:56.197Z</time>
      </trkpt>
      <trkpt lat="46.83469" lon="8.42107">
        <ele>1578</ele>
        <time>2021-08-13T08:40:57.198Z</time>
      </trkpt>
      <trkpt lat="46.83468" lon="8.42106">
        <ele>1577</ele>
        <time>2021-08-13T08:40:58.197Z</time>
      </trkpt>
      <trkpt lat="46.83467" lon="8.42104">
        <ele>1577</ele>
        <time>2021-08-13T08:40:59.197Z</time>
      </trkpt>
      <trkpt lat="46.83466" lon="8.42103">
        <ele>1577</ele>
        <time>2021-08-13T08:41:00.198Z</time>
      </trkpt>
      <trkpt lat="46.83465" lon="8.42102">
        <ele>1577</ele>
        <time>2021-08-13T08:41:01.198Z</time>
      </trkpt>
      <trkpt lat="46.83465" lon="8.42101">
        <ele>1576</ele>
        <time>2021-08-13T08:41:02.198Z</time>
      </trkpt>
      <trkpt lat="46.83464" lon="8.421">
        <ele>1576</ele>
        <time>2021-08-13T08:41:03.198Z</time>
      </trkpt>
      <trkpt lat="46.83463" lon="8.42099">
        <ele>1575</ele>
        <time>2021-08-13T08:41:04.198Z</time>
      </trkpt>
      <trkpt lat="46.83462" lon="8.42098">
        <ele>1575</ele>
        <time>2021-08-13T08:41:05.198Z</time>
      </trkpt>
      <trkpt lat="46.83462" lon="8.42097">
        <ele>1574</ele>
        <time>2021-08-13T08:41:06.198Z</time>
      </trkpt>
      <trkpt lat="46.83461" lon="8.42096">
        <ele>1573</ele>
        <time>2021-08-13T08:41:07.198Z</time>
      </trkpt>
      <trkpt lat="46.8346" lon="8.42096">
        <ele>1573</ele>
        <time>2021-08-13T08:41:08.198Z</time>
      </trkpt>
      <trkpt lat="46.83459" lon="8.42095">
        <ele>1572</ele>
        <time>2021-08-13T08:41:09.198Z</time>
      </trkpt>
      <trkpt lat="46.83458" lon="8.42094">
        <ele>1572</ele>
        <time>2021-08-13T08:41:10.198Z</time>
      </trkpt>
      <trkpt lat="46.83457" lon="8.42093">
        <ele>1572</ele>
        <time>2021-08-13T08:41:11.198Z</time>
      </trkpt>
      <trkpt lat="46.83456" lon="8.42092">
        <ele>1571</ele>
        <time>2021-08-13T08:41:12.197Z</time>
      </trkpt>
      <trkpt lat="46.83456" lon="8.42091">
        <ele>1571</ele>
        <time>2021-08-13T08:41:13.198Z</time>
      </trkpt>
      <trkpt lat="46.83455" lon="8.4209">
        <ele>1571</ele>
        <time>2021-08-13T08:41:14.198Z</time>
      </trkpt>
      <trkpt lat="46.83455" lon="8.42089">
        <ele>1571</ele>
        <time>2021-08-13T08:41:15.197Z</time>
      </trkpt>
      <trkpt lat="46.83455" lon="8.42088">
        <ele>1571</ele>
        <time>2021-08-13T08:41:16.198Z</time>
      </trkpt>
      <trkpt lat="46.83455" lon="8.42089">
        <ele>1570</ele>
        <time>2021-08-13T08:41:17.197Z</time>
      </trkpt>
      <trkpt lat="46.83455" lon="8.42089">
        <ele>1570</ele>
        <time>2021-08-13T08:41:18.198Z</time>
      </trkpt>
      <trkpt lat="46.83454" lon="8.42088">
        <ele>1568</ele>
        <time>2021-08-13T08:41:19.197Z</time>
      </trkpt>
      <trkpt lat="46.83453" lon="8.42088">
        <ele>1567</ele>
        <time>2021-08-13T08:41:20.198Z</time>
      </trkpt>
      <trkpt lat="46.83452" lon="8.42087">
        <ele>1567</ele>
        <time>2021-08-13T08:41:21.198Z</time>
      </trkpt>
      <trkpt lat="46.83451" lon="8.42086">
        <ele>1567</ele>
        <time>2021-08-13T08:41:22.197Z</time>
      </trkpt>
      <trkpt lat="46.8345" lon="8.42085">
        <ele>1567</ele>
        <time>2021-08-13T08:41:23.198Z</time>
      </trkpt>
      <trkpt lat="46.83449" lon="8.42084">
        <ele>1567</ele>
        <time>2021-08-13T08:41:24.198Z</time>
      </trkpt>
      <trkpt lat="46.83448" lon="8.42083">
        <ele>1567</ele>
        <time>2021-08-13T08:41:25.198Z</time>
      </trkpt>
      <trkpt lat="46.83447" lon="8.42082">
        <ele>1567</ele>
        <time>2021-08-13T08:41:26.197Z</time>
      </trkpt>
      <trkpt lat="46.83446" lon="8.42081">
        <ele>1566</ele>
        <time>2021-08-13T08:41:27.198Z</time>
      </trkpt>
      <trkpt lat="46.83446" lon="8.42079">
        <ele>1566</ele>
        <time>2021-08-13T08:41:28.198Z</time>
      </trkpt>
      <trkpt lat="46.83445" lon="8.42078">
        <ele>1566</ele>
        <time>2021-08-13T08:41:29.197Z</time>
      </trkpt>
      <trkpt lat="46.83445" lon="8.42077">
        <ele>1566</ele>
        <time>2021-08-13T08:41:30.197Z</time>
      </trkpt>
      <trkpt lat="46.83444" lon="8.42075">
        <ele>1566</ele>
        <time>2021-08-13T08:41:31.198Z</time>
      </trkpt>
      <trkpt lat="46.83444" lon="8.42074">
        <ele>1566</ele>
        <time>2021-08-13T08:41:32.198Z</time>
      </trkpt>
      <trkpt lat="46.83443" lon="8.42073">
        <ele>1565</ele>
        <time>2021-08-13T08:41:33.198Z</time>
      </trkpt>
      <trkpt lat="46.83442" lon="8.42072">
        <ele>1565</ele>
        <time>2021-08-13T08:41:34.198Z</time>
      </trkpt>
      <trkpt lat="46.83441" lon="8.4207">
        <ele>1566</ele>
        <time>2021-08-13T08:41:35.198Z</time>
      </trkpt>
      <trkpt lat="46.8344" lon="8.42069">
        <ele>1566</ele>
        <time>2021-08-13T08:41:36.197Z</time>
      </trkpt>
      <trkpt lat="46.83439" lon="8.42068">
        <ele>1566</ele>
        <time>2021-08-13T08:41:37.198Z</time>
      </trkpt>
      <trkpt lat="46.83438" lon="8.42067">
        <ele>1566</ele>
        <time>2021-08-13T08:41:38.198Z</time>
      </trkpt>
      <trkpt lat="46.83437" lon="8.42066">
        <ele>1566</ele>
        <time>2021-08-13T08:41:39.197Z</time>
      </trkpt>
      <trkpt lat="46.83435" lon="8.42064">
        <ele>1565</ele>
        <time>2021-08-13T08:41:40.197Z</time>
      </trkpt>
      <trkpt lat="46.83435" lon="8.42063">
        <ele>1565</ele>
        <time>2021-08-13T08:41:41.198Z</time>
      </trkpt>
      <trkpt lat="46.83434" lon="8.42062">
        <ele>1565</ele>
        <time>2021-08-13T08:41:42.197Z</time>
      </trkpt>
      <trkpt lat="46.83434" lon="8.4206">
        <ele>1566</ele>
        <time>2021-08-13T08:41:43.198Z</time>
      </trkpt>
      <trkpt lat="46.83433" lon="8.42059">
        <ele>1566</ele>
        <time>2021-08-13T08:41:44.197Z</time>
      </trkpt>
      <trkpt lat="46.83432" lon="8.42058">
        <ele>1566</ele>
        <time>2021-08-13T08:41:45.198Z</time>
      </trkpt>
      <trkpt lat="46.83432" lon="8.42057">
        <ele>1566</ele>
        <time>2021-08-13T08:41:46.198Z</time>
      </trkpt>
      <trkpt lat="46.83431" lon="8.42056">
        <ele>1566</ele>
        <time>2021-08-13T08:41:47.198Z</time>
      </trkpt>
      <trkpt lat="46.83431" lon="8.42056">
        <ele>1566</ele>
        <time>2021-08-13T08:41:48.198Z</time>
      </trkpt>
      <trkpt lat="46.8343" lon="8.42055">
        <ele>1566</ele>
        <time>2021-08-13T08:41:49.198Z</time>
      </trkpt>
      <trkpt lat="46.8343" lon="8.42055">
        <ele>1565</ele>
        <time>2021-08-13T08:41:50.198Z</time>
      </trkpt>
      <trkpt lat="46.83429" lon="8.42055">
        <ele>1565</ele>
        <time>2021-08-13T08:41:51.198Z</time>
      </trkpt>
      <trkpt lat="46.83429" lon="8.42055">
        <ele>1564</ele>
        <time>2021-08-13T08:41:52.198Z</time>
      </trkpt>
      <trkpt lat="46.83428" lon="8.42055">
        <ele>1564</ele>
        <time>2021-08-13T08:41:53.198Z</time>
      </trkpt>
      <trkpt lat="46.83427" lon="8.42054">
        <ele>1564</ele>
        <time>2021-08-13T08:41:54.198Z</time>
      </trkpt>
      <trkpt lat="46.83426" lon="8.42054">
        <ele>1564</ele>
        <time>2021-08-13T08:41:55.198Z</time>
      </trkpt>
      <trkpt lat="46.83426" lon="8.42053">
        <ele>1563</ele>
        <time>2021-08-13T08:41:56.197Z</time>
      </trkpt>
      <trkpt lat="46.83425" lon="8.42053">
        <ele>1563</ele>
        <time>2021-08-13T08:41:57.197Z</time>
      </trkpt>
      <trkpt lat="46.83425" lon="8.42052">
        <ele>1563</ele>
        <time>2021-08-13T08:41:58.198Z</time>
      </trkpt>
      <trkpt lat="46.83425" lon="8.42051">
        <ele>1562</ele>
        <time>2021-08-13T08:41:59.198Z</time>
      </trkpt>
      <trkpt lat="46.83424" lon="8.42051">
        <ele>1562</ele>
        <time>2021-08-13T08:42:00.197Z</time>
      </trkpt>
      <trkpt lat="46.83424" lon="8.4205">
        <ele>1562</ele>
        <time>2021-08-13T08:42:01.197Z</time>
      </trkpt>
      <trkpt lat="46.83423" lon="8.4205">
        <ele>1562</ele>
        <time>2021-08-13T08:42:02.198Z</time>
      </trkpt>
      <trkpt lat="46.83423" lon="8.42049">
        <ele>1562</ele>
        <time>2021-08-13T08:42:03.197Z</time>
      </trkpt>
      <trkpt lat="46.83423" lon="8.42049">
        <ele>1561</ele>
        <time>2021-08-13T08:42:04.198Z</time>
      </trkpt>
      <trkpt lat="46.83422" lon="8.42048">
        <ele>1561</ele>
        <time>2021-08-13T08:42:05.197Z</time>
      </trkpt>
      <trkpt lat="46.83422" lon="8.42048">
        <ele>1561</ele>
        <time>2021-08-13T08:42:06.197Z</time>
      </trkpt>
      <trkpt lat="46.83422" lon="8.42047">
        <ele>1561</ele>
        <time>2021-08-13T08:42:07.197Z</time>
      </trkpt>
      <trkpt lat="46.83422" lon="8.42046">
        <ele>1561</ele>
        <time>2021-08-13T08:42:08.198Z</time>
      </trkpt>
      <trkpt lat="46.83421" lon="8.42046">
        <ele>1560</ele>
        <time>2021-08-13T08:42:09.198Z</time>
      </trkpt>
      <trkpt lat="46.8342" lon="8.42044">
        <ele>1560</ele>
        <time>2021-08-13T08:42:10.197Z</time>
      </trkpt>
      <trkpt lat="46.83419" lon="8.42043">
        <ele>1560</ele>
        <time>2021-08-13T08:42:11.197Z</time>
      </trkpt>
      <trkpt lat="46.83419" lon="8.42042">
        <ele>1560</ele>
        <time>2021-08-13T08:42:12.197Z</time>
      </trkpt>
      <trkpt lat="46.83418" lon="8.4204">
        <ele>1561</ele>
        <time>2021-08-13T08:42:13.198Z</time>
      </trkpt>
      <trkpt lat="46.83417" lon="8.42038">
        <ele>1561</ele>
        <time>2021-08-13T08:42:14.197Z</time>
      </trkpt>
      <trkpt lat="46.83416" lon="8.42036">
        <ele>1561</ele>
        <time>2021-08-13T08:42:15.198Z</time>
      </trkpt>
      <trkpt lat="46.83415" lon="8.42035">
        <ele>1562</ele>
        <time>2021-08-13T08:42:16.198Z</time>
      </trkpt>
      <trkpt lat="46.83415" lon="8.42033">
        <ele>1562</ele>
        <time>2021-08-13T08:42:17.197Z</time>
      </trkpt>
      <trkpt lat="46.83414" lon="8.42031">
        <ele>1562</ele>
        <time>2021-08-13T08:42:18.197Z</time>
      </trkpt>
      <trkpt lat="46.83413" lon="8.4203">
        <ele>1561</ele>
        <time>2021-08-13T08:42:19.197Z</time>
      </trkpt>
      <trkpt lat="46.83412" lon="8.42028">
        <ele>1561</ele>
        <time>2021-08-13T08:42:20.197Z</time>
      </trkpt>
      <trkpt lat="46.83411" lon="8.42027">
        <ele>1561</ele>
        <time>2021-08-13T08:42:21.197Z</time>
      </trkpt>
      <trkpt lat="46.8341" lon="8.42025">
        <ele>1561</ele>
        <time>2021-08-13T08:42:22.197Z</time>
      </trkpt>
      <trkpt lat="46.83409" lon="8.42023">
        <ele>1561</ele>
        <time>2021-08-13T08:42:23.197Z</time>
      </trkpt>
      <trkpt lat="46.83408" lon="8.42022">
        <ele>1561</ele>
        <time>2021-08-13T08:42:24.197Z</time>
      </trkpt>
      <trkpt lat="46.83407" lon="8.4202">
        <ele>1561</ele>
        <time>2021-08-13T08:42:25.197Z</time>
      </trkpt>
      <trkpt lat="46.83406" lon="8.42018">
        <ele>1560</ele>
        <time>2021-08-13T08:42:26.197Z</time>
      </trkpt>
      <trkpt lat="46.83406" lon="8.42016">
        <ele>1560</ele>
        <time>2021-08-13T08:42:27.197Z</time>
      </trkpt>
      <trkpt lat="46.83405" lon="8.42014">
        <ele>1560</ele>
        <time>2021-08-13T08:42:28.197Z</time>
      </trkpt>
      <trkpt lat="46.83404" lon="8.42013">
        <ele>1559</ele>
        <time>2021-08-13T08:42:29.197Z</time>
      </trkpt>
      <trkpt lat="46.83403" lon="8.42011">
        <ele>1559</ele>
        <time>2021-08-13T08:42:30.197Z</time>
      </trkpt>
      <trkpt lat="46.83402" lon="8.4201">
        <ele>1558</ele>
        <time>2021-08-13T08:42:31.198Z</time>
      </trkpt>
      <trkpt lat="46.83401" lon="8.42008">
        <ele>1558</ele>
        <time>2021-08-13T08:42:32.197Z</time>
      </trkpt>
      <trkpt lat="46.834" lon="8.42007">
        <ele>1557</ele>
        <time>2021-08-13T08:42:33.197Z</time>
      </trkpt>
      <trkpt lat="46.83399" lon="8.42005">
        <ele>1557</ele>
        <time>2021-08-13T08:42:34.197Z</time>
      </trkpt>
      <trkpt lat="46.83398" lon="8.42004">
        <ele>1557</ele>
        <time>2021-08-13T08:42:35.197Z</time>
      </trkpt>
      <trkpt lat="46.83397" lon="8.42002">
        <ele>1556</ele>
        <time>2021-08-13T08:42:36.198Z</time>
      </trkpt>
      <trkpt lat="46.83395" lon="8.42001">
        <ele>1556</ele>
        <time>2021-08-13T08:42:37.197Z</time>
      </trkpt>
      <trkpt lat="46.83394" lon="8.42">
        <ele>1556</ele>
        <time>2021-08-13T08:42:38.197Z</time>
      </trkpt>
      <trkpt lat="46.83394" lon="8.41998">
        <ele>1556</ele>
        <time>2021-08-13T08:42:39.198Z</time>
      </trkpt>
      <trkpt lat="46.83393" lon="8.41998">
        <ele>1556</ele>
        <time>2021-08-13T08:42:40.198Z</time>
      </trkpt>
      <trkpt lat="46.83393" lon="8.41997">
        <ele>1556</ele>
        <time>2021-08-13T08:42:41.198Z</time>
      </trkpt>
      <trkpt lat="46.83393" lon="8.41996">
        <ele>1556</ele>
        <time>2021-08-13T08:42:42.198Z</time>
      </trkpt>
      <trkpt lat="46.83393" lon="8.41996">
        <ele>1556</ele>
        <time>2021-08-13T08:42:43.198Z</time>
      </trkpt>
      <trkpt lat="46.83393" lon="8.41996">
        <ele>1556</ele>
        <time>2021-08-13T08:42:44.197Z</time>
      </trkpt>
      <trkpt lat="46.83393" lon="8.41995">
        <ele>1556</ele>
        <time>2021-08-13T08:42:45.198Z</time>
      </trkpt>
      <trkpt lat="46.83392" lon="8.41994">
        <ele>1555</ele>
        <time>2021-08-13T08:42:46.197Z</time>
      </trkpt>
      <trkpt lat="46.83392" lon="8.41994">
        <ele>1555</ele>
        <time>2021-08-13T08:42:47.197Z</time>
      </trkpt>
      <trkpt lat="46.83391" lon="8.41993">
        <ele>1555</ele>
        <time>2021-08-13T08:42:48.197Z</time>
      </trkpt>
      <trkpt lat="46.8339" lon="8.41992">
        <ele>1555</ele>
        <time>2021-08-13T08:42:49.197Z</time>
      </trkpt>
      <trkpt lat="46.83389" lon="8.41991">
        <ele>1555</ele>
        <time>2021-08-13T08:42:50.197Z</time>
      </trkpt>
      <trkpt lat="46.83388" lon="8.41989">
        <ele>1555</ele>
        <time>2021-08-13T08:42:51.197Z</time>
      </trkpt>
      <trkpt lat="46.83387" lon="8.41988">
        <ele>1555</ele>
        <time>2021-08-13T08:42:52.198Z</time>
      </trkpt>
      <trkpt lat="46.83386" lon="8.41986">
        <ele>1555</ele>
        <time>2021-08-13T08:42:53.197Z</time>
      </trkpt>
      <trkpt lat="46.83385" lon="8.41985">
        <ele>1555</ele>
        <time>2021-08-13T08:42:54.197Z</time>
      </trkpt>
      <trkpt lat="46.83384" lon="8.41983">
        <ele>1555</ele>
        <time>2021-08-13T08:42:55.197Z</time>
      </trkpt>
      <trkpt lat="46.83383" lon="8.41982">
        <ele>1555</ele>
        <time>2021-08-13T08:42:56.197Z</time>
      </trkpt>
      <trkpt lat="46.83382" lon="8.4198">
        <ele>1555</ele>
        <time>2021-08-13T08:42:57.197Z</time>
      </trkpt>
      <trkpt lat="46.83381" lon="8.41979">
        <ele>1554</ele>
        <time>2021-08-13T08:42:58.197Z</time>
      </trkpt>
      <trkpt lat="46.83379" lon="8.41978">
        <ele>1554</ele>
        <time>2021-08-13T08:42:59.197Z</time>
      </trkpt>
      <trkpt lat="46.83378" lon="8.41977">
        <ele>1554</ele>
        <time>2021-08-13T08:43:00.197Z</time>
      </trkpt>
      <trkpt lat="46.83377" lon="8.41976">
        <ele>1554</ele>
        <time>2021-08-13T08:43:01.197Z</time>
      </trkpt>
      <trkpt lat="46.83376" lon="8.41975">
        <ele>1554</ele>
        <time>2021-08-13T08:43:02.197Z</time>
      </trkpt>
      <trkpt lat="46.83376" lon="8.41975">
        <ele>1554</ele>
        <time>2021-08-13T08:43:03.197Z</time>
      </trkpt>
      <trkpt lat="46.83375" lon="8.41974">
        <ele>1554</ele>
        <time>2021-08-13T08:43:04.197Z</time>
      </trkpt>
      <trkpt lat="46.83375" lon="8.41975">
        <ele>1555</ele>
        <time>2021-08-13T08:43:05.198Z</time>
      </trkpt>
      <trkpt lat="46.83374" lon="8.41974">
        <ele>1554</ele>
        <time>2021-08-13T08:43:06.197Z</time>
      </trkpt>
      <trkpt lat="46.83373" lon="8.41974">
        <ele>1554</ele>
        <time>2021-08-13T08:43:07.198Z</time>
      </trkpt>
      <trkpt lat="46.83373" lon="8.41973">
        <ele>1553</ele>
        <time>2021-08-13T08:43:08.198Z</time>
      </trkpt>
      <trkpt lat="46.83372" lon="8.41972">
        <ele>1553</ele>
        <time>2021-08-13T08:43:09.198Z</time>
      </trkpt>
      <trkpt lat="46.83371" lon="8.41971">
        <ele>1552</ele>
        <time>2021-08-13T08:43:10.198Z</time>
      </trkpt>
      <trkpt lat="46.8337" lon="8.4197">
        <ele>1551</ele>
        <time>2021-08-13T08:43:11.197Z</time>
      </trkpt>
      <trkpt lat="46.83369" lon="8.41969">
        <ele>1551</ele>
        <time>2021-08-13T08:43:12.198Z</time>
      </trkpt>
      <trkpt lat="46.83369" lon="8.41967">
        <ele>1550</ele>
        <time>2021-08-13T08:43:13.198Z</time>
      </trkpt>
      <trkpt lat="46.83368" lon="8.41966">
        <ele>1550</ele>
        <time>2021-08-13T08:43:14.198Z</time>
      </trkpt>
      <trkpt lat="46.83367" lon="8.41964">
        <ele>1549</ele>
        <time>2021-08-13T08:43:15.198Z</time>
      </trkpt>
      <trkpt lat="46.83366" lon="8.41963">
        <ele>1549</ele>
        <time>2021-08-13T08:43:16.197Z</time>
      </trkpt>
      <trkpt lat="46.83365" lon="8.41962">
        <ele>1549</ele>
        <time>2021-08-13T08:43:17.198Z</time>
      </trkpt>
      <trkpt lat="46.83364" lon="8.41961">
        <ele>1549</ele>
        <time>2021-08-13T08:43:18.198Z</time>
      </trkpt>
      <trkpt lat="46.83363" lon="8.4196">
        <ele>1549</ele>
        <time>2021-08-13T08:43:19.198Z</time>
      </trkpt>
      <trkpt lat="46.83362" lon="8.41958">
        <ele>1549</ele>
        <time>2021-08-13T08:43:20.198Z</time>
      </trkpt>
      <trkpt lat="46.83362" lon="8.41957">
        <ele>1548</ele>
        <time>2021-08-13T08:43:21.198Z</time>
      </trkpt>
      <trkpt lat="46.83361" lon="8.41956">
        <ele>1548</ele>
        <time>2021-08-13T08:43:22.198Z</time>
      </trkpt>
      <trkpt lat="46.8336" lon="8.41954">
        <ele>1548</ele>
        <time>2021-08-13T08:43:23.198Z</time>
      </trkpt>
      <trkpt lat="46.83359" lon="8.41953">
        <ele>1547</ele>
        <time>2021-08-13T08:43:24.197Z</time>
      </trkpt>
      <trkpt lat="46.83358" lon="8.41952">
        <ele>1547</ele>
        <time>2021-08-13T08:43:25.198Z</time>
      </trkpt>
      <trkpt lat="46.83357" lon="8.41951">
        <ele>1546</ele>
        <time>2021-08-13T08:43:26.198Z</time>
      </trkpt>
      <trkpt lat="46.83357" lon="8.41949">
        <ele>1546</ele>
        <time>2021-08-13T08:43:27.198Z</time>
      </trkpt>
      <trkpt lat="46.83356" lon="8.41948">
        <ele>1546</ele>
        <time>2021-08-13T08:43:28.198Z</time>
      </trkpt>
      <trkpt lat="46.83355" lon="8.41947">
        <ele>1546</ele>
        <time>2021-08-13T08:43:29.197Z</time>
      </trkpt>
      <trkpt lat="46.83354" lon="8.41945">
        <ele>1545</ele>
        <time>2021-08-13T08:43:30.197Z</time>
      </trkpt>
      <trkpt lat="46.83353" lon="8.41944">
        <ele>1545</ele>
        <time>2021-08-13T08:43:31.198Z</time>
      </trkpt>
      <trkpt lat="46.83352" lon="8.41943">
        <ele>1544</ele>
        <time>2021-08-13T08:43:32.197Z</time>
      </trkpt>
      <trkpt lat="46.83351" lon="8.41942">
        <ele>1544</ele>
        <time>2021-08-13T08:43:33.198Z</time>
      </trkpt>
      <trkpt lat="46.8335" lon="8.41941">
        <ele>1543</ele>
        <time>2021-08-13T08:43:34.198Z</time>
      </trkpt>
      <trkpt lat="46.83349" lon="8.4194">
        <ele>1543</ele>
        <time>2021-08-13T08:43:35.197Z</time>
      </trkpt>
      <trkpt lat="46.83348" lon="8.41938">
        <ele>1543</ele>
        <time>2021-08-13T08:43:36.198Z</time>
      </trkpt>
      <trkpt lat="46.83347" lon="8.41937">
        <ele>1543</ele>
        <time>2021-08-13T08:43:37.198Z</time>
      </trkpt>
      <trkpt lat="46.83346" lon="8.41936">
        <ele>1543</ele>
        <time>2021-08-13T08:43:38.198Z</time>
      </trkpt>
      <trkpt lat="46.83345" lon="8.41934">
        <ele>1543</ele>
        <time>2021-08-13T08:43:39.198Z</time>
      </trkpt>
      <trkpt lat="46.83344" lon="8.41933">
        <ele>1543</ele>
        <time>2021-08-13T08:43:40.198Z</time>
      </trkpt>
      <trkpt lat="46.83343" lon="8.41932">
        <ele>1543</ele>
        <time>2021-08-13T08:43:41.197Z</time>
      </trkpt>
      <trkpt lat="46.83342" lon="8.41931">
        <ele>1542</ele>
        <time>2021-08-13T08:43:42.198Z</time>
      </trkpt>
      <trkpt lat="46.83341" lon="8.4193">
        <ele>1542</ele>
        <time>2021-08-13T08:43:43.198Z</time>
      </trkpt>
      <trkpt lat="46.8334" lon="8.41929">
        <ele>1542</ele>
        <time>2021-08-13T08:43:44.198Z</time>
      </trkpt>
      <trkpt lat="46.83339" lon="8.41928">
        <ele>1542</ele>
        <time>2021-08-13T08:43:45.197Z</time>
      </trkpt>
      <trkpt lat="46.83338" lon="8.41927">
        <ele>1541</ele>
        <time>2021-08-13T08:43:46.198Z</time>
      </trkpt>
      <trkpt lat="46.83337" lon="8.41925">
        <ele>1541</ele>
        <time>2021-08-13T08:43:47.197Z</time>
      </trkpt>
      <trkpt lat="46.83336" lon="8.41924">
        <ele>1541</ele>
        <time>2021-08-13T08:43:48.198Z</time>
      </trkpt>
      <trkpt lat="46.83335" lon="8.41923">
        <ele>1541</ele>
        <time>2021-08-13T08:43:49.198Z</time>
      </trkpt>
      <trkpt lat="46.83334" lon="8.41921">
        <ele>1540</ele>
        <time>2021-08-13T08:43:50.198Z</time>
      </trkpt>
      <trkpt lat="46.83334" lon="8.4192">
        <ele>1540</ele>
        <time>2021-08-13T08:43:51.198Z</time>
      </trkpt>
      <trkpt lat="46.83333" lon="8.41918">
        <ele>1540</ele>
        <time>2021-08-13T08:43:52.197Z</time>
      </trkpt>
      <trkpt lat="46.83332" lon="8.41917">
        <ele>1539</ele>
        <time>2021-08-13T08:43:53.198Z</time>
      </trkpt>
      <trkpt lat="46.83331" lon="8.41916">
        <ele>1539</ele>
        <time>2021-08-13T08:43:54.197Z</time>
      </trkpt>
      <trkpt lat="46.8333" lon="8.41915">
        <ele>1539</ele>
        <time>2021-08-13T08:43:55.198Z</time>
      </trkpt>
      <trkpt lat="46.83329" lon="8.41914">
        <ele>1538</ele>
        <time>2021-08-13T08:43:56.197Z</time>
      </trkpt>
      <trkpt lat="46.83329" lon="8.41913">
        <ele>1538</ele>
        <time>2021-08-13T08:43:57.197Z</time>
      </trkpt>
      <trkpt lat="46.83328" lon="8.41911">
        <ele>1538</ele>
        <time>2021-08-13T08:43:58.197Z</time>
      </trkpt>
      <trkpt lat="46.83327" lon="8.4191">
        <ele>1538</ele>
        <time>2021-08-13T08:43:59.197Z</time>
      </trkpt>
      <trkpt lat="46.83326" lon="8.41909">
        <ele>1538</ele>
        <time>2021-08-13T08:44:00.197Z</time>
      </trkpt>
      <trkpt lat="46.83326" lon="8.41907">
        <ele>1537</ele>
        <time>2021-08-13T08:44:01.197Z</time>
      </trkpt>
      <trkpt lat="46.83325" lon="8.41906">
        <ele>1537</ele>
        <time>2021-08-13T08:44:02.198Z</time>
      </trkpt>
      <trkpt lat="46.83324" lon="8.41905">
        <ele>1537</ele>
        <time>2021-08-13T08:44:03.197Z</time>
      </trkpt>
      <trkpt lat="46.83323" lon="8.41903">
        <ele>1537</ele>
        <time>2021-08-13T08:44:04.198Z</time>
      </trkpt>
      <trkpt lat="46.83322" lon="8.41902">
        <ele>1537</ele>
        <time>2021-08-13T08:44:05.197Z</time>
      </trkpt>
      <trkpt lat="46.83321" lon="8.419">
        <ele>1537</ele>
        <time>2021-08-13T08:44:06.197Z</time>
      </trkpt>
      <trkpt lat="46.8332" lon="8.41899">
        <ele>1537</ele>
        <time>2021-08-13T08:44:07.197Z</time>
      </trkpt>
      <trkpt lat="46.83319" lon="8.41898">
        <ele>1536</ele>
        <time>2021-08-13T08:44:08.198Z</time>
      </trkpt>
      <trkpt lat="46.83318" lon="8.41897">
        <ele>1535</ele>
        <time>2021-08-13T08:44:09.198Z</time>
      </trkpt>
      <trkpt lat="46.83316" lon="8.41895">
        <ele>1535</ele>
        <time>2021-08-13T08:44:10.197Z</time>
      </trkpt>
      <trkpt lat="46.83315" lon="8.41894">
        <ele>1535</ele>
        <time>2021-08-13T08:44:11.197Z</time>
      </trkpt>
      <trkpt lat="46.83315" lon="8.41892">
        <ele>1535</ele>
        <time>2021-08-13T08:44:12.198Z</time>
      </trkpt>
      <trkpt lat="46.83314" lon="8.4189">
        <ele>1534</ele>
        <time>2021-08-13T08:44:13.197Z</time>
      </trkpt>
      <trkpt lat="46.83313" lon="8.41889">
        <ele>1534</ele>
        <time>2021-08-13T08:44:14.198Z</time>
      </trkpt>
      <trkpt lat="46.83313" lon="8.41887">
        <ele>1534</ele>
        <time>2021-08-13T08:44:15.197Z</time>
      </trkpt>
      <trkpt lat="46.83312" lon="8.41886">
        <ele>1534</ele>
        <time>2021-08-13T08:44:16.197Z</time>
      </trkpt>
      <trkpt lat="46.83311" lon="8.41885">
        <ele>1534</ele>
        <time>2021-08-13T08:44:17.197Z</time>
      </trkpt>
      <trkpt lat="46.8331" lon="8.41884">
        <ele>1533</ele>
        <time>2021-08-13T08:44:18.197Z</time>
      </trkpt>
      <trkpt lat="46.83309" lon="8.41883">
        <ele>1533</ele>
        <time>2021-08-13T08:44:19.197Z</time>
      </trkpt>
      <trkpt lat="46.83308" lon="8.41882">
        <ele>1533</ele>
        <time>2021-08-13T08:44:20.197Z</time>
      </trkpt>
      <trkpt lat="46.83308" lon="8.41881">
        <ele>1532</ele>
        <time>2021-08-13T08:44:21.197Z</time>
      </trkpt>
      <trkpt lat="46.83307" lon="8.4188">
        <ele>1532</ele>
        <time>2021-08-13T08:44:22.197Z</time>
      </trkpt>
      <trkpt lat="46.83306" lon="8.41879">
        <ele>1532</ele>
        <time>2021-08-13T08:44:23.197Z</time>
      </trkpt>
      <trkpt lat="46.83305" lon="8.41877">
        <ele>1532</ele>
        <time>2021-08-13T08:44:24.197Z</time>
      </trkpt>
      <trkpt lat="46.83305" lon="8.41876">
        <ele>1532</ele>
        <time>2021-08-13T08:44:25.198Z</time>
      </trkpt>
      <trkpt lat="46.83304" lon="8.41874">
        <ele>1532</ele>
        <time>2021-08-13T08:44:26.197Z</time>
      </trkpt>
      <trkpt lat="46.83303" lon="8.41873">
        <ele>1532</ele>
        <time>2021-08-13T08:44:27.197Z</time>
      </trkpt>
      <trkpt lat="46.83302" lon="8.41873">
        <ele>1532</ele>
        <time>2021-08-13T08:44:28.198Z</time>
      </trkpt>
      <trkpt lat="46.83301" lon="8.41871">
        <ele>1532</ele>
        <time>2021-08-13T08:44:29.197Z</time>
      </trkpt>
      <trkpt lat="46.833" lon="8.4187">
        <ele>1532</ele>
        <time>2021-08-13T08:44:30.198Z</time>
      </trkpt>
      <trkpt lat="46.83299" lon="8.41868">
        <ele>1532</ele>
        <time>2021-08-13T08:44:31.197Z</time>
      </trkpt>
      <trkpt lat="46.83297" lon="8.41867">
        <ele>1532</ele>
        <time>2021-08-13T08:44:32.198Z</time>
      </trkpt>
      <trkpt lat="46.83296" lon="8.41865">
        <ele>1532</ele>
        <time>2021-08-13T08:44:33.198Z</time>
      </trkpt>
      <trkpt lat="46.83294" lon="8.41864">
        <ele>1532</ele>
        <time>2021-08-13T08:44:34.198Z</time>
      </trkpt>
      <trkpt lat="46.83293" lon="8.41862">
        <ele>1532</ele>
        <time>2021-08-13T08:44:35.197Z</time>
      </trkpt>
      <trkpt lat="46.83292" lon="8.4186">
        <ele>1532</ele>
        <time>2021-08-13T08:44:36.198Z</time>
      </trkpt>
      <trkpt lat="46.83291" lon="8.41858">
        <ele>1532</ele>
        <time>2021-08-13T08:44:37.197Z</time>
      </trkpt>
      <trkpt lat="46.8329" lon="8.41857">
        <ele>1532</ele>
        <time>2021-08-13T08:44:38.198Z</time>
      </trkpt>
      <trkpt lat="46.83289" lon="8.41856">
        <ele>1531</ele>
        <time>2021-08-13T08:44:39.197Z</time>
      </trkpt>
      <trkpt lat="46.83289" lon="8.41854">
        <ele>1531</ele>
        <time>2021-08-13T08:44:40.197Z</time>
      </trkpt>
      <trkpt lat="46.83288" lon="8.41853">
        <ele>1530</ele>
        <time>2021-08-13T08:44:41.197Z</time>
      </trkpt>
      <trkpt lat="46.83287" lon="8.41852">
        <ele>1530</ele>
        <time>2021-08-13T08:44:42.198Z</time>
      </trkpt>
      <trkpt lat="46.83287" lon="8.41852">
        <ele>1530</ele>
        <time>2021-08-13T08:44:43.198Z</time>
      </trkpt>
      <trkpt lat="46.83287" lon="8.41852">
        <ele>1529</ele>
        <time>2021-08-13T08:44:44.198Z</time>
      </trkpt>
      <trkpt lat="46.83286" lon="8.41851">
        <ele>1529</ele>
        <time>2021-08-13T08:44:45.198Z</time>
      </trkpt>
      <trkpt lat="46.83286" lon="8.41851">
        <ele>1529</ele>
        <time>2021-08-13T08:44:46.198Z</time>
      </trkpt>
      <trkpt lat="46.83286" lon="8.41851">
        <ele>1529</ele>
        <time>2021-08-13T08:44:47.198Z</time>
      </trkpt>
      <trkpt lat="46.83285" lon="8.41851">
        <ele>1528</ele>
        <time>2021-08-13T08:44:48.198Z</time>
      </trkpt>
      <trkpt lat="46.83285" lon="8.41851">
        <ele>1528</ele>
        <time>2021-08-13T08:44:49.198Z</time>
      </trkpt>
      <trkpt lat="46.83285" lon="8.41851">
        <ele>1528</ele>
        <time>2021-08-13T08:44:50.198Z</time>
      </trkpt>
      <trkpt lat="46.83286" lon="8.41852">
        <ele>1527</ele>
        <time>2021-08-13T08:44:51.197Z</time>
      </trkpt>
      <trkpt lat="46.83286" lon="8.41852">
        <ele>1527</ele>
        <time>2021-08-13T08:44:52.198Z</time>
      </trkpt>
      <trkpt lat="46.83286" lon="8.41852">
        <ele>1526</ele>
        <time>2021-08-13T08:44:53.197Z</time>
      </trkpt>
      <trkpt lat="46.83286" lon="8.41852">
        <ele>1526</ele>
        <time>2021-08-13T08:44:54.197Z</time>
      </trkpt>
      <trkpt lat="46.83286" lon="8.41851">
        <ele>1526</ele>
        <time>2021-08-13T08:44:55.198Z</time>
      </trkpt>
      <trkpt lat="46.83286" lon="8.4185">
        <ele>1526</ele>
        <time>2021-08-13T08:44:56.198Z</time>
      </trkpt>
      <trkpt lat="46.83285" lon="8.41849">
        <ele>1526</ele>
        <time>2021-08-13T08:44:57.197Z</time>
      </trkpt>
      <trkpt lat="46.83285" lon="8.41848">
        <ele>1526</ele>
        <time>2021-08-13T08:44:58.198Z</time>
      </trkpt>
      <trkpt lat="46.83284" lon="8.41847">
        <ele>1526</ele>
        <time>2021-08-13T08:44:59.197Z</time>
      </trkpt>
      <trkpt lat="46.83283" lon="8.41847">
        <ele>1526</ele>
        <time>2021-08-13T08:45:00.198Z</time>
      </trkpt>
      <trkpt lat="46.83282" lon="8.41846">
        <ele>1526</ele>
        <time>2021-08-13T08:45:01.198Z</time>
      </trkpt>
      <trkpt lat="46.83282" lon="8.41845">
        <ele>1525</ele>
        <time>2021-08-13T08:45:02.198Z</time>
      </trkpt>
      <trkpt lat="46.83281" lon="8.41844">
        <ele>1525</ele>
        <time>2021-08-13T08:45:03.198Z</time>
      </trkpt>
      <trkpt lat="46.83281" lon="8.41843">
        <ele>1525</ele>
        <time>2021-08-13T08:45:04.198Z</time>
      </trkpt>
      <trkpt lat="46.8328" lon="8.41842">
        <ele>1525</ele>
        <time>2021-08-13T08:45:05.197Z</time>
      </trkpt>
      <trkpt lat="46.83279" lon="8.41841">
        <ele>1526</ele>
        <time>2021-08-13T08:45:06.198Z</time>
      </trkpt>
      <trkpt lat="46.83278" lon="8.4184">
        <ele>1526</ele>
        <time>2021-08-13T08:45:07.198Z</time>
      </trkpt>
      <trkpt lat="46.83277" lon="8.41839">
        <ele>1527</ele>
        <time>2021-08-13T08:45:08.198Z</time>
      </trkpt>
      <trkpt lat="46.83276" lon="8.41838">
        <ele>1527</ele>
        <time>2021-08-13T08:45:09.198Z</time>
      </trkpt>
      <trkpt lat="46.83275" lon="8.41837">
        <ele>1528</ele>
        <time>2021-08-13T08:45:10.198Z</time>
      </trkpt>
      <trkpt lat="46.83274" lon="8.41836">
        <ele>1528</ele>
        <time>2021-08-13T08:45:11.197Z</time>
      </trkpt>
      <trkpt lat="46.83273" lon="8.41835">
        <ele>1529</ele>
        <time>2021-08-13T08:45:12.198Z</time>
      </trkpt>
      <trkpt lat="46.83272" lon="8.41834">
        <ele>1529</ele>
        <time>2021-08-13T08:45:13.198Z</time>
      </trkpt>
      <trkpt lat="46.83271" lon="8.41832">
        <ele>1529</ele>
        <time>2021-08-13T08:45:14.198Z</time>
      </trkpt>
      <trkpt lat="46.83269" lon="8.4183">
        <ele>1530</ele>
        <time>2021-08-13T08:45:15.198Z</time>
      </trkpt>
      <trkpt lat="46.83268" lon="8.41828">
        <ele>1529</ele>
        <time>2021-08-13T08:45:16.198Z</time>
      </trkpt>
      <trkpt lat="46.83268" lon="8.41828">
        <ele>1528</ele>
        <time>2021-08-13T08:45:17.198Z</time>
      </trkpt>
      <trkpt lat="46.83267" lon="8.41827">
        <ele>1527</ele>
        <time>2021-08-13T08:45:18.198Z</time>
      </trkpt>
      <trkpt lat="46.83266" lon="8.41826">
        <ele>1527</ele>
        <time>2021-08-13T08:45:19.198Z</time>
      </trkpt>
      <trkpt lat="46.83266" lon="8.41824">
        <ele>1526</ele>
        <time>2021-08-13T08:45:20.197Z</time>
      </trkpt>
      <trkpt lat="46.83265" lon="8.41823">
        <ele>1525</ele>
        <time>2021-08-13T08:45:21.197Z</time>
      </trkpt>
      <trkpt lat="46.83265" lon="8.41821">
        <ele>1525</ele>
        <time>2021-08-13T08:45:22.197Z</time>
      </trkpt>
      <trkpt lat="46.83265" lon="8.4182">
        <ele>1525</ele>
        <time>2021-08-13T08:45:23.197Z</time>
      </trkpt>
      <trkpt lat="46.83265" lon="8.41819">
        <ele>1524</ele>
        <time>2021-08-13T08:45:24.197Z</time>
      </trkpt>
      <trkpt lat="46.83265" lon="8.41817">
        <ele>1524</ele>
        <time>2021-08-13T08:45:25.198Z</time>
      </trkpt>
      <trkpt lat="46.83264" lon="8.41815">
        <ele>1523</ele>
        <time>2021-08-13T08:45:26.198Z</time>
      </trkpt>
      <trkpt lat="46.83265" lon="8.41813">
        <ele>1522</ele>
        <time>2021-08-13T08:45:27.197Z</time>
      </trkpt>
      <trkpt lat="46.83266" lon="8.41811">
        <ele>1522</ele>
        <time>2021-08-13T08:45:28.198Z</time>
      </trkpt>
      <trkpt lat="46.83266" lon="8.41809">
        <ele>1522</ele>
        <time>2021-08-13T08:45:29.198Z</time>
      </trkpt>
      <trkpt lat="46.83267" lon="8.41808">
        <ele>1521</ele>
        <time>2021-08-13T08:45:30.198Z</time>
      </trkpt>
      <trkpt lat="46.83267" lon="8.41806">
        <ele>1521</ele>
        <time>2021-08-13T08:45:31.198Z</time>
      </trkpt>
      <trkpt lat="46.83266" lon="8.41804">
        <ele>1521</ele>
        <time>2021-08-13T08:45:32.198Z</time>
      </trkpt>
      <trkpt lat="46.83267" lon="8.41802">
        <ele>1520</ele>
        <time>2021-08-13T08:45:33.198Z</time>
      </trkpt>
      <trkpt lat="46.83267" lon="8.418">
        <ele>1520</ele>
        <time>2021-08-13T08:45:34.197Z</time>
      </trkpt>
      <trkpt lat="46.83267" lon="8.41798">
        <ele>1519</ele>
        <time>2021-08-13T08:45:35.198Z</time>
      </trkpt>
      <trkpt lat="46.83267" lon="8.41796">
        <ele>1519</ele>
        <time>2021-08-13T08:45:36.198Z</time>
      </trkpt>
      <trkpt lat="46.83267" lon="8.41794">
        <ele>1519</ele>
        <time>2021-08-13T08:45:37.198Z</time>
      </trkpt>
      <trkpt lat="46.83267" lon="8.41793">
        <ele>1519</ele>
        <time>2021-08-13T08:45:38.197Z</time>
      </trkpt>
      <trkpt lat="46.83267" lon="8.41791">
        <ele>1519</ele>
        <time>2021-08-13T08:45:39.198Z</time>
      </trkpt>
      <trkpt lat="46.83267" lon="8.41789">
        <ele>1519</ele>
        <time>2021-08-13T08:45:40.197Z</time>
      </trkpt>
      <trkpt lat="46.83267" lon="8.41787">
        <ele>1519</ele>
        <time>2021-08-13T08:45:41.198Z</time>
      </trkpt>
      <trkpt lat="46.83267" lon="8.41785">
        <ele>1519</ele>
        <time>2021-08-13T08:45:42.198Z</time>
      </trkpt>
      <trkpt lat="46.83266" lon="8.41784">
        <ele>1519</ele>
        <time>2021-08-13T08:45:43.197Z</time>
      </trkpt>
      <trkpt lat="46.83266" lon="8.41783">
        <ele>1519</ele>
        <time>2021-08-13T08:45:44.198Z</time>
      </trkpt>
      <trkpt lat="46.83265" lon="8.41782">
        <ele>1519</ele>
        <time>2021-08-13T08:45:45.198Z</time>
      </trkpt>
      <trkpt lat="46.83265" lon="8.41782">
        <ele>1519</ele>
        <time>2021-08-13T08:45:46.198Z</time>
      </trkpt>
      <trkpt lat="46.83264" lon="8.41781">
        <ele>1520</ele>
        <time>2021-08-13T08:45:47.198Z</time>
      </trkpt>
      <trkpt lat="46.83264" lon="8.4178">
        <ele>1520</ele>
        <time>2021-08-13T08:45:48.198Z</time>
      </trkpt>
      <trkpt lat="46.83264" lon="8.4178">
        <ele>1520</ele>
        <time>2021-08-13T08:45:49.197Z</time>
      </trkpt>
      <trkpt lat="46.83263" lon="8.41779">
        <ele>1519</ele>
        <time>2021-08-13T08:45:50.197Z</time>
      </trkpt>
      <trkpt lat="46.83262" lon="8.41778">
        <ele>1519</ele>
        <time>2021-08-13T08:45:51.198Z</time>
      </trkpt>
      <trkpt lat="46.83261" lon="8.41777">
        <ele>1519</ele>
        <time>2021-08-13T08:45:52.198Z</time>
      </trkpt>
      <trkpt lat="46.8326" lon="8.41776">
        <ele>1518</ele>
        <time>2021-08-13T08:45:53.197Z</time>
      </trkpt>
      <trkpt lat="46.83259" lon="8.41775">
        <ele>1518</ele>
        <time>2021-08-13T08:45:54.197Z</time>
      </trkpt>
      <trkpt lat="46.83258" lon="8.41774">
        <ele>1518</ele>
        <time>2021-08-13T08:45:55.198Z</time>
      </trkpt>
      <trkpt lat="46.83257" lon="8.41772">
        <ele>1518</ele>
        <time>2021-08-13T08:45:56.198Z</time>
      </trkpt>
      <trkpt lat="46.83257" lon="8.4177">
        <ele>1518</ele>
        <time>2021-08-13T08:45:57.198Z</time>
      </trkpt>
      <trkpt lat="46.83256" lon="8.41769">
        <ele>1518</ele>
        <time>2021-08-13T08:45:58.198Z</time>
      </trkpt>
      <trkpt lat="46.83255" lon="8.41767">
        <ele>1518</ele>
        <time>2021-08-13T08:45:59.197Z</time>
      </trkpt>
      <trkpt lat="46.83254" lon="8.41765">
        <ele>1518</ele>
        <time>2021-08-13T08:46:00.198Z</time>
      </trkpt>
      <trkpt lat="46.83254" lon="8.41764">
        <ele>1518</ele>
        <time>2021-08-13T08:46:01.198Z</time>
      </trkpt>
      <trkpt lat="46.83253" lon="8.41763">
        <ele>1518</ele>
        <time>2021-08-13T08:46:02.197Z</time>
      </trkpt>
      <trkpt lat="46.83252" lon="8.41762">
        <ele>1517</ele>
        <time>2021-08-13T08:46:03.197Z</time>
      </trkpt>
      <trkpt lat="46.83251" lon="8.41761">
        <ele>1517</ele>
        <time>2021-08-13T08:46:04.198Z</time>
      </trkpt>
      <trkpt lat="46.8325" lon="8.4176">
        <ele>1517</ele>
        <time>2021-08-13T08:46:05.198Z</time>
      </trkpt>
      <trkpt lat="46.83249" lon="8.41759">
        <ele>1517</ele>
        <time>2021-08-13T08:46:06.197Z</time>
      </trkpt>
      <trkpt lat="46.83248" lon="8.41757">
        <ele>1517</ele>
        <time>2021-08-13T08:46:07.198Z</time>
      </trkpt>
      <trkpt lat="46.83248" lon="8.41756">
        <ele>1517</ele>
        <time>2021-08-13T08:46:08.197Z</time>
      </trkpt>
      <trkpt lat="46.83247" lon="8.41755">
        <ele>1517</ele>
        <time>2021-08-13T08:46:09.198Z</time>
      </trkpt>
      <trkpt lat="46.83247" lon="8.41753">
        <ele>1517</ele>
        <time>2021-08-13T08:46:10.197Z</time>
      </trkpt>
      <trkpt lat="46.83246" lon="8.41751">
        <ele>1517</ele>
        <time>2021-08-13T08:46:11.198Z</time>
      </trkpt>
      <trkpt lat="46.83245" lon="8.4175">
        <ele>1516</ele>
        <time>2021-08-13T08:46:12.197Z</time>
      </trkpt>
      <trkpt lat="46.83244" lon="8.41748">
        <ele>1516</ele>
        <time>2021-08-13T08:46:13.198Z</time>
      </trkpt>
      <trkpt lat="46.83244" lon="8.41747">
        <ele>1516</ele>
        <time>2021-08-13T08:46:14.197Z</time>
      </trkpt>
      <trkpt lat="46.83243" lon="8.41745">
        <ele>1516</ele>
        <time>2021-08-13T08:46:15.198Z</time>
      </trkpt>
      <trkpt lat="46.83243" lon="8.41744">
        <ele>1516</ele>
        <time>2021-08-13T08:46:16.197Z</time>
      </trkpt>
      <trkpt lat="46.83242" lon="8.41743">
        <ele>1516</ele>
        <time>2021-08-13T08:46:17.198Z</time>
      </trkpt>
      <trkpt lat="46.83241" lon="8.41742">
        <ele>1516</ele>
        <time>2021-08-13T08:46:18.197Z</time>
      </trkpt>
      <trkpt lat="46.83241" lon="8.4174">
        <ele>1516</ele>
        <time>2021-08-13T08:46:19.198Z</time>
      </trkpt>
      <trkpt lat="46.8324" lon="8.41738">
        <ele>1516</ele>
        <time>2021-08-13T08:46:20.198Z</time>
      </trkpt>
      <trkpt lat="46.8324" lon="8.41737">
        <ele>1515</ele>
        <time>2021-08-13T08:46:21.197Z</time>
      </trkpt>
      <trkpt lat="46.83239" lon="8.41735">
        <ele>1515</ele>
        <time>2021-08-13T08:46:22.198Z</time>
      </trkpt>
      <trkpt lat="46.83238" lon="8.41734">
        <ele>1515</ele>
        <time>2021-08-13T08:46:23.198Z</time>
      </trkpt>
      <trkpt lat="46.83237" lon="8.41733">
        <ele>1514</ele>
        <time>2021-08-13T08:46:24.197Z</time>
      </trkpt>
      <trkpt lat="46.83236" lon="8.41731">
        <ele>1514</ele>
        <time>2021-08-13T08:46:25.198Z</time>
      </trkpt>
      <trkpt lat="46.83235" lon="8.41731">
        <ele>1514</ele>
        <time>2021-08-13T08:46:26.198Z</time>
      </trkpt>
      <trkpt lat="46.83234" lon="8.4173">
        <ele>1514</ele>
        <time>2021-08-13T08:46:27.197Z</time>
      </trkpt>
      <trkpt lat="46.83233" lon="8.4173">
        <ele>1515</ele>
        <time>2021-08-13T08:46:28.198Z</time>
      </trkpt>
      <trkpt lat="46.83232" lon="8.41729">
        <ele>1515</ele>
        <time>2021-08-13T08:46:29.198Z</time>
      </trkpt>
      <trkpt lat="46.83231" lon="8.41729">
        <ele>1515</ele>
        <time>2021-08-13T08:46:30.198Z</time>
      </trkpt>
      <trkpt lat="46.8323" lon="8.41728">
        <ele>1515</ele>
        <time>2021-08-13T08:46:31.197Z</time>
      </trkpt>
      <trkpt lat="46.83229" lon="8.41728">
        <ele>1514</ele>
        <time>2021-08-13T08:46:32.197Z</time>
      </trkpt>
      <trkpt lat="46.83228" lon="8.41727">
        <ele>1514</ele>
        <time>2021-08-13T08:46:33.198Z</time>
      </trkpt>
      <trkpt lat="46.83227" lon="8.41726">
        <ele>1514</ele>
        <time>2021-08-13T08:46:34.197Z</time>
      </trkpt>
      <trkpt lat="46.83226" lon="8.41724">
        <ele>1513</ele>
        <time>2021-08-13T08:46:35.198Z</time>
      </trkpt>
      <trkpt lat="46.83225" lon="8.41723">
        <ele>1513</ele>
        <time>2021-08-13T08:46:36.198Z</time>
      </trkpt>
      <trkpt lat="46.83224" lon="8.41721">
        <ele>1513</ele>
        <time>2021-08-13T08:46:37.198Z</time>
      </trkpt>
      <trkpt lat="46.83223" lon="8.4172">
        <ele>1513</ele>
        <time>2021-08-13T08:46:38.198Z</time>
      </trkpt>
      <trkpt lat="46.83222" lon="8.41719">
        <ele>1513</ele>
        <time>2021-08-13T08:46:39.198Z</time>
      </trkpt>
      <trkpt lat="46.83221" lon="8.41717">
        <ele>1513</ele>
        <time>2021-08-13T08:46:40.197Z</time>
      </trkpt>
      <trkpt lat="46.8322" lon="8.41715">
        <ele>1513</ele>
        <time>2021-08-13T08:46:41.198Z</time>
      </trkpt>
      <trkpt lat="46.8322" lon="8.41713">
        <ele>1512</ele>
        <time>2021-08-13T08:46:42.197Z</time>
      </trkpt>
      <trkpt lat="46.83219" lon="8.41711">
        <ele>1512</ele>
        <time>2021-08-13T08:46:43.198Z</time>
      </trkpt>
      <trkpt lat="46.83219" lon="8.41709">
        <ele>1512</ele>
        <time>2021-08-13T08:46:44.198Z</time>
      </trkpt>
      <trkpt lat="46.83218" lon="8.41707">
        <ele>1512</ele>
        <time>2021-08-13T08:46:45.197Z</time>
      </trkpt>
      <trkpt lat="46.83218" lon="8.41705">
        <ele>1511</ele>
        <time>2021-08-13T08:46:46.198Z</time>
      </trkpt>
      <trkpt lat="46.83218" lon="8.41703">
        <ele>1511</ele>
        <time>2021-08-13T08:46:47.198Z</time>
      </trkpt>
      <trkpt lat="46.83218" lon="8.41701">
        <ele>1511</ele>
        <time>2021-08-13T08:46:48.197Z</time>
      </trkpt>
      <trkpt lat="46.83218" lon="8.41699">
        <ele>1511</ele>
        <time>2021-08-13T08:46:49.198Z</time>
      </trkpt>
      <trkpt lat="46.83219" lon="8.41697">
        <ele>1510</ele>
        <time>2021-08-13T08:46:50.198Z</time>
      </trkpt>
      <trkpt lat="46.83219" lon="8.41695">
        <ele>1510</ele>
        <time>2021-08-13T08:46:51.197Z</time>
      </trkpt>
      <trkpt lat="46.83219" lon="8.41693">
        <ele>1510</ele>
        <time>2021-08-13T08:46:52.198Z</time>
      </trkpt>
      <trkpt lat="46.83219" lon="8.41691">
        <ele>1509</ele>
        <time>2021-08-13T08:46:53.197Z</time>
      </trkpt>
      <trkpt lat="46.83219" lon="8.41689">
        <ele>1509</ele>
        <time>2021-08-13T08:46:54.198Z</time>
      </trkpt>
      <trkpt lat="46.8322" lon="8.41687">
        <ele>1509</ele>
        <time>2021-08-13T08:46:55.197Z</time>
      </trkpt>
      <trkpt lat="46.83221" lon="8.41685">
        <ele>1509</ele>
        <time>2021-08-13T08:46:56.198Z</time>
      </trkpt>
      <trkpt lat="46.83222" lon="8.41683">
        <ele>1509</ele>
        <time>2021-08-13T08:46:57.198Z</time>
      </trkpt>
      <trkpt lat="46.83222" lon="8.41681">
        <ele>1509</ele>
        <time>2021-08-13T08:46:58.197Z</time>
      </trkpt>
      <trkpt lat="46.83223" lon="8.41679">
        <ele>1509</ele>
        <time>2021-08-13T08:46:59.198Z</time>
      </trkpt>
      <trkpt lat="46.83223" lon="8.41677">
        <ele>1509</ele>
        <time>2021-08-13T08:47:00.197Z</time>
      </trkpt>
      <trkpt lat="46.83224" lon="8.41675">
        <ele>1509</ele>
        <time>2021-08-13T08:47:01.198Z</time>
      </trkpt>
      <trkpt lat="46.83224" lon="8.41673">
        <ele>1508</ele>
        <time>2021-08-13T08:47:02.197Z</time>
      </trkpt>
      <trkpt lat="46.83224" lon="8.41671">
        <ele>1508</ele>
        <time>2021-08-13T08:47:03.198Z</time>
      </trkpt>
      <trkpt lat="46.83225" lon="8.4167">
        <ele>1507</ele>
        <time>2021-08-13T08:47:04.198Z</time>
      </trkpt>
      <trkpt lat="46.83226" lon="8.41668">
        <ele>1507</ele>
        <time>2021-08-13T08:47:05.198Z</time>
      </trkpt>
      <trkpt lat="46.83226" lon="8.41667">
        <ele>1507</ele>
        <time>2021-08-13T08:47:06.198Z</time>
      </trkpt>
      <trkpt lat="46.83227" lon="8.41665">
        <ele>1507</ele>
        <time>2021-08-13T08:47:07.198Z</time>
      </trkpt>
      <trkpt lat="46.83228" lon="8.41664">
        <ele>1506</ele>
        <time>2021-08-13T08:47:08.198Z</time>
      </trkpt>
      <trkpt lat="46.83228" lon="8.41663">
        <ele>1506</ele>
        <time>2021-08-13T08:47:09.197Z</time>
      </trkpt>
      <trkpt lat="46.83229" lon="8.41661">
        <ele>1506</ele>
        <time>2021-08-13T08:47:10.197Z</time>
      </trkpt>
      <trkpt lat="46.83229" lon="8.4166">
        <ele>1506</ele>
        <time>2021-08-13T08:47:11.197Z</time>
      </trkpt>
      <trkpt lat="46.83229" lon="8.41658">
        <ele>1506</ele>
        <time>2021-08-13T08:47:12.198Z</time>
      </trkpt>
      <trkpt lat="46.8323" lon="8.41656">
        <ele>1506</ele>
        <time>2021-08-13T08:47:13.198Z</time>
      </trkpt>
      <trkpt lat="46.83229" lon="8.41654">
        <ele>1506</ele>
        <time>2021-08-13T08:47:14.198Z</time>
      </trkpt>
      <trkpt lat="46.83229" lon="8.41653">
        <ele>1506</ele>
        <time>2021-08-13T08:47:15.197Z</time>
      </trkpt>
      <trkpt lat="46.83229" lon="8.41651">
        <ele>1506</ele>
        <time>2021-08-13T08:47:16.197Z</time>
      </trkpt>
      <trkpt lat="46.83229" lon="8.4165">
        <ele>1506</ele>
        <time>2021-08-13T08:47:17.197Z</time>
      </trkpt>
      <trkpt lat="46.83229" lon="8.41648">
        <ele>1506</ele>
        <time>2021-08-13T08:47:18.197Z</time>
      </trkpt>
      <trkpt lat="46.83229" lon="8.41646">
        <ele>1506</ele>
        <time>2021-08-13T08:47:19.198Z</time>
      </trkpt>
      <trkpt lat="46.83228" lon="8.41645">
        <ele>1506</ele>
        <time>2021-08-13T08:47:20.197Z</time>
      </trkpt>
      <trkpt lat="46.83228" lon="8.41643">
        <ele>1506</ele>
        <time>2021-08-13T08:47:21.197Z</time>
      </trkpt>
      <trkpt lat="46.83228" lon="8.41641">
        <ele>1506</ele>
        <time>2021-08-13T08:47:22.197Z</time>
      </trkpt>
      <trkpt lat="46.83227" lon="8.41639">
        <ele>1505</ele>
        <time>2021-08-13T08:47:23.197Z</time>
      </trkpt>
      <trkpt lat="46.83226" lon="8.41637">
        <ele>1505</ele>
        <time>2021-08-13T08:47:24.198Z</time>
      </trkpt>
      <trkpt lat="46.83226" lon="8.41635">
        <ele>1506</ele>
        <time>2021-08-13T08:47:25.197Z</time>
      </trkpt>
      <trkpt lat="46.83225" lon="8.41633">
        <ele>1506</ele>
        <time>2021-08-13T08:47:26.197Z</time>
      </trkpt>
      <trkpt lat="46.83224" lon="8.41632">
        <ele>1506</ele>
        <time>2021-08-13T08:47:27.197Z</time>
      </trkpt>
      <trkpt lat="46.83223" lon="8.4163">
        <ele>1506</ele>
        <time>2021-08-13T08:47:28.197Z</time>
      </trkpt>
      <trkpt lat="46.83223" lon="8.41627">
        <ele>1506</ele>
        <time>2021-08-13T08:47:29.197Z</time>
      </trkpt>
      <trkpt lat="46.83222" lon="8.41625">
        <ele>1505</ele>
        <time>2021-08-13T08:47:30.197Z</time>
      </trkpt>
      <trkpt lat="46.83222" lon="8.41623">
        <ele>1505</ele>
        <time>2021-08-13T08:47:31.198Z</time>
      </trkpt>
      <trkpt lat="46.83221" lon="8.41621">
        <ele>1506</ele>
        <time>2021-08-13T08:47:32.197Z</time>
      </trkpt>
      <trkpt lat="46.83221" lon="8.4162">
        <ele>1506</ele>
        <time>2021-08-13T08:47:33.197Z</time>
      </trkpt>
      <trkpt lat="46.8322" lon="8.41618">
        <ele>1505</ele>
        <time>2021-08-13T08:47:34.198Z</time>
      </trkpt>
      <trkpt lat="46.8322" lon="8.41616">
        <ele>1505</ele>
        <time>2021-08-13T08:47:35.197Z</time>
      </trkpt>
      <trkpt lat="46.8322" lon="8.41614">
        <ele>1505</ele>
        <time>2021-08-13T08:47:36.197Z</time>
      </trkpt>
      <trkpt lat="46.83219" lon="8.41612">
        <ele>1504</ele>
        <time>2021-08-13T08:47:37.197Z</time>
      </trkpt>
      <trkpt lat="46.8322" lon="8.4161">
        <ele>1504</ele>
        <time>2021-08-13T08:47:38.197Z</time>
      </trkpt>
      <trkpt lat="46.8322" lon="8.41608">
        <ele>1504</ele>
        <time>2021-08-13T08:47:39.197Z</time>
      </trkpt>
      <trkpt lat="46.83221" lon="8.41607">
        <ele>1504</ele>
        <time>2021-08-13T08:47:40.197Z</time>
      </trkpt>
      <trkpt lat="46.83222" lon="8.41606">
        <ele>1504</ele>
        <time>2021-08-13T08:47:41.197Z</time>
      </trkpt>
      <trkpt lat="46.83222" lon="8.41605">
        <ele>1504</ele>
        <time>2021-08-13T08:47:42.197Z</time>
      </trkpt>
      <trkpt lat="46.83222" lon="8.41604">
        <ele>1504</ele>
        <time>2021-08-13T08:47:43.197Z</time>
      </trkpt>
      <trkpt lat="46.83222" lon="8.41603">
        <ele>1504</ele>
        <time>2021-08-13T08:47:44.197Z</time>
      </trkpt>
      <trkpt lat="46.83222" lon="8.41602">
        <ele>1504</ele>
        <time>2021-08-13T08:47:45.197Z</time>
      </trkpt>
      <trkpt lat="46.83222" lon="8.41602">
        <ele>1503</ele>
        <time>2021-08-13T08:47:46.197Z</time>
      </trkpt>
      <trkpt lat="46.83222" lon="8.41602">
        <ele>1503</ele>
        <time>2021-08-13T08:47:47.197Z</time>
      </trkpt>
      <trkpt lat="46.83223" lon="8.41604">
        <ele>1501</ele>
        <time>2021-08-13T08:47:48.198Z</time>
      </trkpt>
      <trkpt lat="46.83223" lon="8.41604">
        <ele>1501</ele>
        <time>2021-08-13T08:47:49.198Z</time>
      </trkpt>
      <trkpt lat="46.83222" lon="8.41605">
        <ele>1501</ele>
        <time>2021-08-13T08:47:50.198Z</time>
      </trkpt>
      <trkpt lat="46.83223" lon="8.41606">
        <ele>1501</ele>
        <time>2021-08-13T08:47:51.198Z</time>
      </trkpt>
      <trkpt lat="46.83223" lon="8.41606">
        <ele>1501</ele>
        <time>2021-08-13T08:47:52.198Z</time>
      </trkpt>
      <trkpt lat="46.83223" lon="8.41607">
        <ele>1501</ele>
        <time>2021-08-13T08:47:53.198Z</time>
      </trkpt>
      <trkpt lat="46.83223" lon="8.41607">
        <ele>1501</ele>
        <time>2021-08-13T08:47:54.198Z</time>
      </trkpt>
      <trkpt lat="46.83223" lon="8.41605">
        <ele>1504</ele>
        <time>2021-08-13T08:47:55.198Z</time>
      </trkpt>
      <trkpt lat="46.83223" lon="8.41604">
        <ele>1504</ele>
        <time>2021-08-13T08:47:56.198Z</time>
      </trkpt>
      <trkpt lat="46.83224" lon="8.41602">
        <ele>1503</ele>
        <time>2021-08-13T08:47:57.199Z</time>
      </trkpt>
      <trkpt lat="46.83224" lon="8.41601">
        <ele>1503</ele>
        <time>2021-08-13T08:47:58.198Z</time>
      </trkpt>
      <trkpt lat="46.83224" lon="8.41599">
        <ele>1502</ele>
        <time>2021-08-13T08:47:59.199Z</time>
      </trkpt>
      <trkpt lat="46.83224" lon="8.41597">
        <ele>1502</ele>
        <time>2021-08-13T08:48:00.198Z</time>
      </trkpt>
      <trkpt lat="46.83224" lon="8.41596">
        <ele>1502</ele>
        <time>2021-08-13T08:48:01.198Z</time>
      </trkpt>
      <trkpt lat="46.83224" lon="8.41593">
        <ele>1501</ele>
        <time>2021-08-13T08:48:02.198Z</time>
      </trkpt>
      <trkpt lat="46.83223" lon="8.4159">
        <ele>1501</ele>
        <time>2021-08-13T08:48:03.198Z</time>
      </trkpt>
      <trkpt lat="46.83223" lon="8.41589">
        <ele>1501</ele>
        <time>2021-08-13T08:48:04.198Z</time>
      </trkpt>
      <trkpt lat="46.83222" lon="8.41587">
        <ele>1501</ele>
        <time>2021-08-13T08:48:05.199Z</time>
      </trkpt>
      <trkpt lat="46.83222" lon="8.41585">
        <ele>1500</ele>
        <time>2021-08-13T08:48:06.198Z</time>
      </trkpt>
      <trkpt lat="46.8322" lon="8.41582">
        <ele>1500</ele>
        <time>2021-08-13T08:48:07.199Z</time>
      </trkpt>
      <trkpt lat="46.83219" lon="8.4158">
        <ele>1501</ele>
        <time>2021-08-13T08:48:08.199Z</time>
      </trkpt>
      <trkpt lat="46.83218" lon="8.41578">
        <ele>1501</ele>
        <time>2021-08-13T08:48:09.199Z</time>
      </trkpt>
      <trkpt lat="46.83216" lon="8.41576">
        <ele>1502</ele>
        <time>2021-08-13T08:48:10.198Z</time>
      </trkpt>
      <trkpt lat="46.83214" lon="8.41575">
        <ele>1502</ele>
        <time>2021-08-13T08:48:11.199Z</time>
      </trkpt>
      <trkpt lat="46.83213" lon="8.41575">
        <ele>1502</ele>
        <time>2021-08-13T08:48:12.198Z</time>
      </trkpt>
      <trkpt lat="46.83211" lon="8.41574">
        <ele>1502</ele>
        <time>2021-08-13T08:48:13.199Z</time>
      </trkpt>
      <trkpt lat="46.8321" lon="8.41574">
        <ele>1503</ele>
        <time>2021-08-13T08:48:14.199Z</time>
      </trkpt>
      <trkpt lat="46.83209" lon="8.41574">
        <ele>1503</ele>
        <time>2021-08-13T08:48:15.198Z</time>
      </trkpt>
      <trkpt lat="46.83208" lon="8.41574">
        <ele>1504</ele>
        <time>2021-08-13T08:48:16.198Z</time>
      </trkpt>
      <trkpt lat="46.83207" lon="8.41574">
        <ele>1504</ele>
        <time>2021-08-13T08:48:17.199Z</time>
      </trkpt>
      <trkpt lat="46.83206" lon="8.41575">
        <ele>1504</ele>
        <time>2021-08-13T08:48:18.199Z</time>
      </trkpt>
      <trkpt lat="46.83205" lon="8.41576">
        <ele>1504</ele>
        <time>2021-08-13T08:48:19.199Z</time>
      </trkpt>
      <trkpt lat="46.83203" lon="8.41576">
        <ele>1504</ele>
        <time>2021-08-13T08:48:20.198Z</time>
      </trkpt>
      <trkpt lat="46.83202" lon="8.41576">
        <ele>1504</ele>
        <time>2021-08-13T08:48:21.198Z</time>
      </trkpt>
      <trkpt lat="46.83201" lon="8.41577">
        <ele>1505</ele>
        <time>2021-08-13T08:48:22.198Z</time>
      </trkpt>
      <trkpt lat="46.83199" lon="8.41577">
        <ele>1505</ele>
        <time>2021-08-13T08:48:23.198Z</time>
      </trkpt>
      <trkpt lat="46.83198" lon="8.41577">
        <ele>1506</ele>
        <time>2021-08-13T08:48:24.199Z</time>
      </trkpt>
      <trkpt lat="46.83196" lon="8.41578">
        <ele>1506</ele>
        <time>2021-08-13T08:48:25.199Z</time>
      </trkpt>
      <trkpt lat="46.83195" lon="8.4158">
        <ele>1505</ele>
        <time>2021-08-13T08:48:26.199Z</time>
      </trkpt>
      <trkpt lat="46.83194" lon="8.41582">
        <ele>1504</ele>
        <time>2021-08-13T08:48:27.199Z</time>
      </trkpt>
      <trkpt lat="46.83193" lon="8.41583">
        <ele>1504</ele>
        <time>2021-08-13T08:48:28.198Z</time>
      </trkpt>
      <trkpt lat="46.83192" lon="8.41585">
        <ele>1503</ele>
        <time>2021-08-13T08:48:29.199Z</time>
      </trkpt>
      <trkpt lat="46.83191" lon="8.41586">
        <ele>1502</ele>
        <time>2021-08-13T08:48:30.199Z</time>
      </trkpt>
      <trkpt lat="46.8319" lon="8.41588">
        <ele>1501</ele>
        <time>2021-08-13T08:48:31.198Z</time>
      </trkpt>
      <trkpt lat="46.83189" lon="8.41589">
        <ele>1500</ele>
        <time>2021-08-13T08:48:32.199Z</time>
      </trkpt>
      <trkpt lat="46.83188" lon="8.4159">
        <ele>1500</ele>
        <time>2021-08-13T08:48:33.198Z</time>
      </trkpt>
      <trkpt lat="46.83187" lon="8.41592">
        <ele>1499</ele>
        <time>2021-08-13T08:48:34.198Z</time>
      </trkpt>
      <trkpt lat="46.83186" lon="8.41594">
        <ele>1499</ele>
        <time>2021-08-13T08:48:35.198Z</time>
      </trkpt>
      <trkpt lat="46.83185" lon="8.41595">
        <ele>1499</ele>
        <time>2021-08-13T08:48:36.199Z</time>
      </trkpt>
      <trkpt lat="46.83185" lon="8.41597">
        <ele>1498</ele>
        <time>2021-08-13T08:48:37.198Z</time>
      </trkpt>
      <trkpt lat="46.83184" lon="8.41599">
        <ele>1498</ele>
        <time>2021-08-13T08:48:38.198Z</time>
      </trkpt>
      <trkpt lat="46.83184" lon="8.41601">
        <ele>1497</ele>
        <time>2021-08-13T08:48:39.199Z</time>
      </trkpt>
      <trkpt lat="46.83183" lon="8.41603">
        <ele>1496</ele>
        <time>2021-08-13T08:48:40.198Z</time>
      </trkpt>
      <trkpt lat="46.83182" lon="8.41605">
        <ele>1496</ele>
        <time>2021-08-13T08:48:41.198Z</time>
      </trkpt>
      <trkpt lat="46.83182" lon="8.41606">
        <ele>1495</ele>
        <time>2021-08-13T08:48:42.198Z</time>
      </trkpt>
      <trkpt lat="46.83181" lon="8.41608">
        <ele>1495</ele>
        <time>2021-08-13T08:48:43.198Z</time>
      </trkpt>
      <trkpt lat="46.8318" lon="8.4161">
        <ele>1495</ele>
        <time>2021-08-13T08:48:44.199Z</time>
      </trkpt>
      <trkpt lat="46.8318" lon="8.41612">
        <ele>1494</ele>
        <time>2021-08-13T08:48:45.199Z</time>
      </trkpt>
      <trkpt lat="46.83179" lon="8.41614">
        <ele>1494</ele>
        <time>2021-08-13T08:48:46.198Z</time>
      </trkpt>
      <trkpt lat="46.83178" lon="8.41616">
        <ele>1494</ele>
        <time>2021-08-13T08:48:47.198Z</time>
      </trkpt>
      <trkpt lat="46.83178" lon="8.41618">
        <ele>1494</ele>
        <time>2021-08-13T08:48:48.198Z</time>
      </trkpt>
      <trkpt lat="46.83177" lon="8.4162">
        <ele>1493</ele>
        <time>2021-08-13T08:48:49.198Z</time>
      </trkpt>
      <trkpt lat="46.83176" lon="8.41621">
        <ele>1493</ele>
        <time>2021-08-13T08:48:50.198Z</time>
      </trkpt>
      <trkpt lat="46.83176" lon="8.41622">
        <ele>1493</ele>
        <time>2021-08-13T08:48:51.198Z</time>
      </trkpt>
      <trkpt lat="46.83175" lon="8.41624">
        <ele>1493</ele>
        <time>2021-08-13T08:48:52.198Z</time>
      </trkpt>
      <trkpt lat="46.83174" lon="8.41625">
        <ele>1493</ele>
        <time>2021-08-13T08:48:53.199Z</time>
      </trkpt>
      <trkpt lat="46.83173" lon="8.41626">
        <ele>1492</ele>
        <time>2021-08-13T08:48:54.199Z</time>
      </trkpt>
      <trkpt lat="46.83173" lon="8.41627">
        <ele>1492</ele>
        <time>2021-08-13T08:48:55.198Z</time>
      </trkpt>
      <trkpt lat="46.83171" lon="8.41629">
        <ele>1493</ele>
        <time>2021-08-13T08:48:56.198Z</time>
      </trkpt>
      <trkpt lat="46.8317" lon="8.4163">
        <ele>1493</ele>
        <time>2021-08-13T08:48:57.198Z</time>
      </trkpt>
      <trkpt lat="46.83169" lon="8.41631">
        <ele>1493</ele>
        <time>2021-08-13T08:48:58.199Z</time>
      </trkpt>
      <trkpt lat="46.83169" lon="8.41632">
        <ele>1493</ele>
        <time>2021-08-13T08:48:59.198Z</time>
      </trkpt>
      <trkpt lat="46.83168" lon="8.41632">
        <ele>1493</ele>
        <time>2021-08-13T08:49:00.198Z</time>
      </trkpt>
      <trkpt lat="46.83166" lon="8.41633">
        <ele>1493</ele>
        <time>2021-08-13T08:49:01.198Z</time>
      </trkpt>
      <trkpt lat="46.83165" lon="8.41634">
        <ele>1493</ele>
        <time>2021-08-13T08:49:02.198Z</time>
      </trkpt>
      <trkpt lat="46.83164" lon="8.41635">
        <ele>1493</ele>
        <time>2021-08-13T08:49:03.198Z</time>
      </trkpt>
      <trkpt lat="46.83163" lon="8.41635">
        <ele>1493</ele>
        <time>2021-08-13T08:49:04.198Z</time>
      </trkpt>
      <trkpt lat="46.83161" lon="8.41636">
        <ele>1493</ele>
        <time>2021-08-13T08:49:05.198Z</time>
      </trkpt>
      <trkpt lat="46.8316" lon="8.41636">
        <ele>1493</ele>
        <time>2021-08-13T08:49:06.198Z</time>
      </trkpt>
      <trkpt lat="46.83159" lon="8.41637">
        <ele>1493</ele>
        <time>2021-08-13T08:49:07.198Z</time>
      </trkpt>
      <trkpt lat="46.83157" lon="8.41637">
        <ele>1493</ele>
        <time>2021-08-13T08:49:08.199Z</time>
      </trkpt>
      <trkpt lat="46.83156" lon="8.41638">
        <ele>1493</ele>
        <time>2021-08-13T08:49:09.199Z</time>
      </trkpt>
      <trkpt lat="46.83155" lon="8.41639">
        <ele>1494</ele>
        <time>2021-08-13T08:49:10.198Z</time>
      </trkpt>
      <trkpt lat="46.83154" lon="8.41639">
        <ele>1494</ele>
        <time>2021-08-13T08:49:11.198Z</time>
      </trkpt>
      <trkpt lat="46.83152" lon="8.4164">
        <ele>1494</ele>
        <time>2021-08-13T08:49:12.198Z</time>
      </trkpt>
      <trkpt lat="46.83151" lon="8.41641">
        <ele>1494</ele>
        <time>2021-08-13T08:49:13.198Z</time>
      </trkpt>
      <trkpt lat="46.8315" lon="8.41642">
        <ele>1494</ele>
        <time>2021-08-13T08:49:14.199Z</time>
      </trkpt>
      <trkpt lat="46.83149" lon="8.41643">
        <ele>1494</ele>
        <time>2021-08-13T08:49:15.198Z</time>
      </trkpt>
      <trkpt lat="46.83148" lon="8.41643">
        <ele>1494</ele>
        <time>2021-08-13T08:49:16.198Z</time>
      </trkpt>
      <trkpt lat="46.83147" lon="8.41644">
        <ele>1493</ele>
        <time>2021-08-13T08:49:17.199Z</time>
      </trkpt>
      <trkpt lat="46.83146" lon="8.41644">
        <ele>1493</ele>
        <time>2021-08-13T08:49:18.199Z</time>
      </trkpt>
      <trkpt lat="46.83146" lon="8.41644">
        <ele>1493</ele>
        <time>2021-08-13T08:49:19.199Z</time>
      </trkpt>
      <trkpt lat="46.83146" lon="8.41644">
        <ele>1492</ele>
        <time>2021-08-13T08:49:21.198Z</time>
      </trkpt>
      <trkpt lat="46.83146" lon="8.41642">
        <ele>1492</ele>
        <time>2021-08-13T08:49:23.198Z</time>
      </trkpt>
      <trkpt lat="46.83145" lon="8.41643">
        <ele>1492</ele>
        <time>2021-08-13T08:49:24.199Z</time>
      </trkpt>
      <trkpt lat="46.83145" lon="8.41644">
        <ele>1492</ele>
        <time>2021-08-13T08:49:25.198Z</time>
      </trkpt>
      <trkpt lat="46.83145" lon="8.41645">
        <ele>1491</ele>
        <time>2021-08-13T08:49:26.198Z</time>
      </trkpt>
      <trkpt lat="46.83144" lon="8.41645">
        <ele>1491</ele>
        <time>2021-08-13T08:49:27.199Z</time>
      </trkpt>
      <trkpt lat="46.83145" lon="8.41644">
        <ele>1490</ele>
        <time>2021-08-13T08:49:28.200Z</time>
      </trkpt>
      <trkpt lat="46.83145" lon="8.41643">
        <ele>1490</ele>
        <time>2021-08-13T08:49:29.200Z</time>
      </trkpt>
      <trkpt lat="46.83145" lon="8.41643">
        <ele>1491</ele>
        <time>2021-08-13T08:49:30.199Z</time>
      </trkpt>
      <trkpt lat="46.83144" lon="8.41643">
        <ele>1490</ele>
        <time>2021-08-13T08:49:31.199Z</time>
      </trkpt>
      <trkpt lat="46.83144" lon="8.41644">
        <ele>1490</ele>
        <time>2021-08-13T08:49:32.199Z</time>
      </trkpt>
      <trkpt lat="46.83143" lon="8.41644">
        <ele>1490</ele>
        <time>2021-08-13T08:49:33.200Z</time>
      </trkpt>
      <trkpt lat="46.83142" lon="8.41644">
        <ele>1490</ele>
        <time>2021-08-13T08:49:34.199Z</time>
      </trkpt>
      <trkpt lat="46.83142" lon="8.41645">
        <ele>1490</ele>
        <time>2021-08-13T08:49:35.200Z</time>
      </trkpt>
      <trkpt lat="46.83141" lon="8.41645">
        <ele>1490</ele>
        <time>2021-08-13T08:49:36.200Z</time>
      </trkpt>
      <trkpt lat="46.83141" lon="8.41645">
        <ele>1490</ele>
        <time>2021-08-13T08:49:37.199Z</time>
      </trkpt>
      <trkpt lat="46.8314" lon="8.41646">
        <ele>1490</ele>
        <time>2021-08-13T08:49:38.199Z</time>
      </trkpt>
      <trkpt lat="46.83139" lon="8.41645">
        <ele>1490</ele>
        <time>2021-08-13T08:49:39.199Z</time>
      </trkpt>
      <trkpt lat="46.83138" lon="8.41645">
        <ele>1491</ele>
        <time>2021-08-13T08:49:40.200Z</time>
      </trkpt>
      <trkpt lat="46.83137" lon="8.41644">
        <ele>1491</ele>
        <time>2021-08-13T08:49:41.199Z</time>
      </trkpt>
      <trkpt lat="46.83136" lon="8.41644">
        <ele>1492</ele>
        <time>2021-08-13T08:49:42.199Z</time>
      </trkpt>
      <trkpt lat="46.83135" lon="8.41644">
        <ele>1492</ele>
        <time>2021-08-13T08:49:43.200Z</time>
      </trkpt>
      <trkpt lat="46.83134" lon="8.41645">
        <ele>1493</ele>
        <time>2021-08-13T08:49:44.200Z</time>
      </trkpt>
      <trkpt lat="46.83133" lon="8.41645">
        <ele>1493</ele>
        <time>2021-08-13T08:49:45.200Z</time>
      </trkpt>
      <trkpt lat="46.83132" lon="8.41645">
        <ele>1493</ele>
        <time>2021-08-13T08:49:46.200Z</time>
      </trkpt>
      <trkpt lat="46.83131" lon="8.41645">
        <ele>1493</ele>
        <time>2021-08-13T08:49:47.199Z</time>
      </trkpt>
      <trkpt lat="46.83129" lon="8.41645">
        <ele>1493</ele>
        <time>2021-08-13T08:49:48.199Z</time>
      </trkpt>
      <trkpt lat="46.83129" lon="8.41645">
        <ele>1493</ele>
        <time>2021-08-13T08:49:49.200Z</time>
      </trkpt>
      <trkpt lat="46.83128" lon="8.41645">
        <ele>1493</ele>
        <time>2021-08-13T08:49:50.200Z</time>
      </trkpt>
      <trkpt lat="46.83128" lon="8.41644">
        <ele>1493</ele>
        <time>2021-08-13T08:49:51.200Z</time>
      </trkpt>
      <trkpt lat="46.83128" lon="8.41644">
        <ele>1493</ele>
        <time>2021-08-13T08:49:52.200Z</time>
      </trkpt>
      <trkpt lat="46.83128" lon="8.41643">
        <ele>1492</ele>
        <time>2021-08-13T08:49:53.200Z</time>
      </trkpt>
      <trkpt lat="46.83128" lon="8.41642">
        <ele>1492</ele>
        <time>2021-08-13T08:49:54.200Z</time>
      </trkpt>
      <trkpt lat="46.83127" lon="8.41642">
        <ele>1491</ele>
        <time>2021-08-13T08:49:55.200Z</time>
      </trkpt>
      <trkpt lat="46.83127" lon="8.41642">
        <ele>1489</ele>
        <time>2021-08-13T08:49:56.200Z</time>
      </trkpt>
      <trkpt lat="46.83127" lon="8.41641">
        <ele>1488</ele>
        <time>2021-08-13T08:49:57.200Z</time>
      </trkpt>
      <trkpt lat="46.83127" lon="8.4164">
        <ele>1488</ele>
        <time>2021-08-13T08:49:58.200Z</time>
      </trkpt>
      <trkpt lat="46.83126" lon="8.4164">
        <ele>1488</ele>
        <time>2021-08-13T08:49:59.200Z</time>
      </trkpt>
      <trkpt lat="46.83126" lon="8.41639">
        <ele>1487</ele>
        <time>2021-08-13T08:50:00.200Z</time>
      </trkpt>
      <trkpt lat="46.83126" lon="8.41638">
        <ele>1486</ele>
        <time>2021-08-13T08:50:01.199Z</time>
      </trkpt>
      <trkpt lat="46.83126" lon="8.41638">
        <ele>1486</ele>
        <time>2021-08-13T08:50:02.200Z</time>
      </trkpt>
      <trkpt lat="46.83126" lon="8.41637">
        <ele>1485</ele>
        <time>2021-08-13T08:50:03.199Z</time>
      </trkpt>
      <trkpt lat="46.83125" lon="8.41636">
        <ele>1485</ele>
        <time>2021-08-13T08:50:04.199Z</time>
      </trkpt>
      <trkpt lat="46.83124" lon="8.41635">
        <ele>1485</ele>
        <time>2021-08-13T08:50:05.200Z</time>
      </trkpt>
      <trkpt lat="46.83124" lon="8.41634">
        <ele>1485</ele>
        <time>2021-08-13T08:50:06.200Z</time>
      </trkpt>
      <trkpt lat="46.83123" lon="8.41634">
        <ele>1486</ele>
        <time>2021-08-13T08:50:07.200Z</time>
      </trkpt>
      <trkpt lat="46.83122" lon="8.41633">
        <ele>1486</ele>
        <time>2021-08-13T08:50:08.200Z</time>
      </trkpt>
      <trkpt lat="46.83122" lon="8.41633">
        <ele>1487</ele>
        <time>2021-08-13T08:50:09.200Z</time>
      </trkpt>
      <trkpt lat="46.8312" lon="8.41632">
        <ele>1488</ele>
        <time>2021-08-13T08:50:10.199Z</time>
      </trkpt>
      <trkpt lat="46.83119" lon="8.41632">
        <ele>1488</ele>
        <time>2021-08-13T08:50:11.200Z</time>
      </trkpt>
      <trkpt lat="46.83119" lon="8.41632">
        <ele>1488</ele>
        <time>2021-08-13T08:50:12.200Z</time>
      </trkpt>
      <trkpt lat="46.83118" lon="8.41631">
        <ele>1488</ele>
        <time>2021-08-13T08:50:13.199Z</time>
      </trkpt>
      <trkpt lat="46.83117" lon="8.41631">
        <ele>1488</ele>
        <time>2021-08-13T08:50:14.200Z</time>
      </trkpt>
      <trkpt lat="46.83116" lon="8.4163">
        <ele>1488</ele>
        <time>2021-08-13T08:50:15.200Z</time>
      </trkpt>
      <trkpt lat="46.83115" lon="8.4163">
        <ele>1488</ele>
        <time>2021-08-13T08:50:16.199Z</time>
      </trkpt>
      <trkpt lat="46.83115" lon="8.4163">
        <ele>1488</ele>
        <time>2021-08-13T08:50:17.199Z</time>
      </trkpt>
      <trkpt lat="46.83114" lon="8.4163">
        <ele>1488</ele>
        <time>2021-08-13T08:50:18.199Z</time>
      </trkpt>
      <trkpt lat="46.83113" lon="8.4163">
        <ele>1489</ele>
        <time>2021-08-13T08:50:19.199Z</time>
      </trkpt>
      <trkpt lat="46.83112" lon="8.4163">
        <ele>1489</ele>
        <time>2021-08-13T08:50:20.200Z</time>
      </trkpt>
      <trkpt lat="46.83112" lon="8.4163">
        <ele>1489</ele>
        <time>2021-08-13T08:50:21.200Z</time>
      </trkpt>
      <trkpt lat="46.83111" lon="8.4163">
        <ele>1489</ele>
        <time>2021-08-13T08:50:22.200Z</time>
      </trkpt>
      <trkpt lat="46.8311" lon="8.4163">
        <ele>1489</ele>
        <time>2021-08-13T08:50:23.200Z</time>
      </trkpt>
      <trkpt lat="46.83109" lon="8.4163">
        <ele>1490</ele>
        <time>2021-08-13T08:50:24.200Z</time>
      </trkpt>
      <trkpt lat="46.83108" lon="8.4163">
        <ele>1489</ele>
        <time>2021-08-13T08:50:25.200Z</time>
      </trkpt>
      <trkpt lat="46.83107" lon="8.4163">
        <ele>1489</ele>
        <time>2021-08-13T08:50:26.200Z</time>
      </trkpt>
      <trkpt lat="46.83106" lon="8.4163">
        <ele>1488</ele>
        <time>2021-08-13T08:50:27.200Z</time>
      </trkpt>
      <trkpt lat="46.83106" lon="8.4163">
        <ele>1487</ele>
        <time>2021-08-13T08:50:28.200Z</time>
      </trkpt>
      <trkpt lat="46.83105" lon="8.4163">
        <ele>1486</ele>
        <time>2021-08-13T08:50:29.200Z</time>
      </trkpt>
      <trkpt lat="46.83104" lon="8.4163">
        <ele>1485</ele>
        <time>2021-08-13T08:50:30.200Z</time>
      </trkpt>
      <trkpt lat="46.83104" lon="8.41629">
        <ele>1484</ele>
        <time>2021-08-13T08:50:31.200Z</time>
      </trkpt>
      <trkpt lat="46.83103" lon="8.41628">
        <ele>1484</ele>
        <time>2021-08-13T08:50:32.200Z</time>
      </trkpt>
      <trkpt lat="46.83102" lon="8.41627">
        <ele>1483</ele>
        <time>2021-08-13T08:50:33.200Z</time>
      </trkpt>
      <trkpt lat="46.83101" lon="8.41626">
        <ele>1483</ele>
        <time>2021-08-13T08:50:34.200Z</time>
      </trkpt>
      <trkpt lat="46.831" lon="8.41624">
        <ele>1483</ele>
        <time>2021-08-13T08:50:35.200Z</time>
      </trkpt>
      <trkpt lat="46.83099" lon="8.41624">
        <ele>1483</ele>
        <time>2021-08-13T08:50:36.200Z</time>
      </trkpt>
      <trkpt lat="46.83098" lon="8.41624">
        <ele>1482</ele>
        <time>2021-08-13T08:50:37.199Z</time>
      </trkpt>
      <trkpt lat="46.83097" lon="8.41623">
        <ele>1482</ele>
        <time>2021-08-13T08:50:38.199Z</time>
      </trkpt>
      <trkpt lat="46.83096" lon="8.41622">
        <ele>1481</ele>
        <time>2021-08-13T08:50:39.199Z</time>
      </trkpt>
      <trkpt lat="46.83095" lon="8.41622">
        <ele>1481</ele>
        <time>2021-08-13T08:50:40.199Z</time>
      </trkpt>
      <trkpt lat="46.83094" lon="8.41622">
        <ele>1481</ele>
        <time>2021-08-13T08:50:41.199Z</time>
      </trkpt>
      <trkpt lat="46.83093" lon="8.41622">
        <ele>1480</ele>
        <time>2021-08-13T08:50:42.200Z</time>
      </trkpt>
      <trkpt lat="46.83093" lon="8.41622">
        <ele>1480</ele>
        <time>2021-08-13T08:50:43.199Z</time>
      </trkpt>
      <trkpt lat="46.83092" lon="8.41621">
        <ele>1481</ele>
        <time>2021-08-13T08:50:44.199Z</time>
      </trkpt>
      <trkpt lat="46.83091" lon="8.41621">
        <ele>1481</ele>
        <time>2021-08-13T08:50:45.200Z</time>
      </trkpt>
      <trkpt lat="46.8309" lon="8.41621">
        <ele>1481</ele>
        <time>2021-08-13T08:50:46.200Z</time>
      </trkpt>
      <trkpt lat="46.83089" lon="8.4162">
        <ele>1482</ele>
        <time>2021-08-13T08:50:47.199Z</time>
      </trkpt>
      <trkpt lat="46.83088" lon="8.4162">
        <ele>1483</ele>
        <time>2021-08-13T08:50:48.199Z</time>
      </trkpt>
      <trkpt lat="46.83088" lon="8.4162">
        <ele>1483</ele>
        <time>2021-08-13T08:50:49.200Z</time>
      </trkpt>
      <trkpt lat="46.83087" lon="8.4162">
        <ele>1484</ele>
        <time>2021-08-13T08:50:50.200Z</time>
      </trkpt>
      <trkpt lat="46.83086" lon="8.4162">
        <ele>1484</ele>
        <time>2021-08-13T08:50:51.199Z</time>
      </trkpt>
      <trkpt lat="46.83085" lon="8.4162">
        <ele>1484</ele>
        <time>2021-08-13T08:50:52.199Z</time>
      </trkpt>
      <trkpt lat="46.83084" lon="8.4162">
        <ele>1483</ele>
        <time>2021-08-13T08:50:53.199Z</time>
      </trkpt>
      <trkpt lat="46.83084" lon="8.4162">
        <ele>1483</ele>
        <time>2021-08-13T08:50:54.199Z</time>
      </trkpt>
      <trkpt lat="46.83083" lon="8.4162">
        <ele>1483</ele>
        <time>2021-08-13T08:50:55.199Z</time>
      </trkpt>
      <trkpt lat="46.83082" lon="8.41621">
        <ele>1483</ele>
        <time>2021-08-13T08:50:56.199Z</time>
      </trkpt>
      <trkpt lat="46.83081" lon="8.41622">
        <ele>1483</ele>
        <time>2021-08-13T08:50:57.199Z</time>
      </trkpt>
      <trkpt lat="46.83081" lon="8.41622">
        <ele>1483</ele>
        <time>2021-08-13T08:50:58.199Z</time>
      </trkpt>
      <trkpt lat="46.8308" lon="8.41623">
        <ele>1483</ele>
        <time>2021-08-13T08:50:59.199Z</time>
      </trkpt>
      <trkpt lat="46.83079" lon="8.41623">
        <ele>1483</ele>
        <time>2021-08-13T08:51:00.200Z</time>
      </trkpt>
      <trkpt lat="46.83078" lon="8.41624">
        <ele>1484</ele>
        <time>2021-08-13T08:51:01.200Z</time>
      </trkpt>
      <trkpt lat="46.83078" lon="8.41624">
        <ele>1484</ele>
        <time>2021-08-13T08:51:02.199Z</time>
      </trkpt>
      <trkpt lat="46.83077" lon="8.41624">
        <ele>1485</ele>
        <time>2021-08-13T08:51:03.199Z</time>
      </trkpt>
      <trkpt lat="46.83077" lon="8.41625">
        <ele>1485</ele>
        <time>2021-08-13T08:51:04.199Z</time>
      </trkpt>
      <trkpt lat="46.83076" lon="8.41625">
        <ele>1486</ele>
        <time>2021-08-13T08:51:05.199Z</time>
      </trkpt>
      <trkpt lat="46.83075" lon="8.41625">
        <ele>1486</ele>
        <time>2021-08-13T08:51:06.199Z</time>
      </trkpt>
      <trkpt lat="46.83075" lon="8.41626">
        <ele>1487</ele>
        <time>2021-08-13T08:51:07.199Z</time>
      </trkpt>
      <trkpt lat="46.83074" lon="8.41627">
        <ele>1487</ele>
        <time>2021-08-13T08:51:08.199Z</time>
      </trkpt>
      <trkpt lat="46.83074" lon="8.41628">
        <ele>1487</ele>
        <time>2021-08-13T08:51:09.199Z</time>
      </trkpt>
      <trkpt lat="46.83073" lon="8.41628">
        <ele>1487</ele>
        <time>2021-08-13T08:51:10.200Z</time>
      </trkpt>
      <trkpt lat="46.83073" lon="8.41629">
        <ele>1487</ele>
        <time>2021-08-13T08:51:11.199Z</time>
      </trkpt>
      <trkpt lat="46.83072" lon="8.41629">
        <ele>1487</ele>
        <time>2021-08-13T08:51:12.199Z</time>
      </trkpt>
      <trkpt lat="46.83071" lon="8.4163">
        <ele>1487</ele>
        <time>2021-08-13T08:51:13.199Z</time>
      </trkpt>
      <trkpt lat="46.8307" lon="8.4163">
        <ele>1487</ele>
        <time>2021-08-13T08:51:14.199Z</time>
      </trkpt>
      <trkpt lat="46.83069" lon="8.41631">
        <ele>1486</ele>
        <time>2021-08-13T08:51:15.200Z</time>
      </trkpt>
      <trkpt lat="46.83068" lon="8.41631">
        <ele>1486</ele>
        <time>2021-08-13T08:51:16.200Z</time>
      </trkpt>
      <trkpt lat="46.83067" lon="8.41632">
        <ele>1486</ele>
        <time>2021-08-13T08:51:17.199Z</time>
      </trkpt>
      <trkpt lat="46.83066" lon="8.41632">
        <ele>1486</ele>
        <time>2021-08-13T08:51:18.199Z</time>
      </trkpt>
      <trkpt lat="46.83066" lon="8.41632">
        <ele>1486</ele>
        <time>2021-08-13T08:51:19.199Z</time>
      </trkpt>
      <trkpt lat="46.83065" lon="8.41632">
        <ele>1486</ele>
        <time>2021-08-13T08:51:20.200Z</time>
      </trkpt>
      <trkpt lat="46.83064" lon="8.41633">
        <ele>1486</ele>
        <time>2021-08-13T08:51:21.200Z</time>
      </trkpt>
      <trkpt lat="46.83063" lon="8.41632">
        <ele>1486</ele>
        <time>2021-08-13T08:51:22.199Z</time>
      </trkpt>
      <trkpt lat="46.83063" lon="8.41633">
        <ele>1485</ele>
        <time>2021-08-13T08:51:23.199Z</time>
      </trkpt>
      <trkpt lat="46.83062" lon="8.41633">
        <ele>1484</ele>
        <time>2021-08-13T08:51:24.199Z</time>
      </trkpt>
      <trkpt lat="46.83062" lon="8.41633">
        <ele>1484</ele>
        <time>2021-08-13T08:51:25.199Z</time>
      </trkpt>
      <trkpt lat="46.83062" lon="8.41633">
        <ele>1483</ele>
        <time>2021-08-13T08:51:26.199Z</time>
      </trkpt>
      <trkpt lat="46.83062" lon="8.41632">
        <ele>1483</ele>
        <time>2021-08-13T08:51:27.199Z</time>
      </trkpt>
      <trkpt lat="46.83061" lon="8.41632">
        <ele>1483</ele>
        <time>2021-08-13T08:51:28.200Z</time>
      </trkpt>
      <trkpt lat="46.83061" lon="8.41633">
        <ele>1482</ele>
        <time>2021-08-13T08:51:29.200Z</time>
      </trkpt>
      <trkpt lat="46.8306" lon="8.41633">
        <ele>1482</ele>
        <time>2021-08-13T08:51:30.200Z</time>
      </trkpt>
      <trkpt lat="46.8306" lon="8.41633">
        <ele>1481</ele>
        <time>2021-08-13T08:51:31.199Z</time>
      </trkpt>
      <trkpt lat="46.83059" lon="8.41633">
        <ele>1480</ele>
        <time>2021-08-13T08:51:32.199Z</time>
      </trkpt>
      <trkpt lat="46.83059" lon="8.41633">
        <ele>1479</ele>
        <time>2021-08-13T08:51:33.200Z</time>
      </trkpt>
      <trkpt lat="46.83058" lon="8.41632">
        <ele>1478</ele>
        <time>2021-08-13T08:51:34.200Z</time>
      </trkpt>
      <trkpt lat="46.83058" lon="8.41632">
        <ele>1477</ele>
        <time>2021-08-13T08:51:35.199Z</time>
      </trkpt>
      <trkpt lat="46.83057" lon="8.41632">
        <ele>1477</ele>
        <time>2021-08-13T08:51:36.200Z</time>
      </trkpt>
      <trkpt lat="46.83057" lon="8.41632">
        <ele>1476</ele>
        <time>2021-08-13T08:51:37.200Z</time>
      </trkpt>
      <trkpt lat="46.83056" lon="8.41632">
        <ele>1476</ele>
        <time>2021-08-13T08:51:38.200Z</time>
      </trkpt>
      <trkpt lat="46.83055" lon="8.41632">
        <ele>1476</ele>
        <time>2021-08-13T08:51:39.200Z</time>
      </trkpt>
      <trkpt lat="46.83054" lon="8.41632">
        <ele>1475</ele>
        <time>2021-08-13T08:51:40.199Z</time>
      </trkpt>
      <trkpt lat="46.83053" lon="8.41632">
        <ele>1475</ele>
        <time>2021-08-13T08:51:41.200Z</time>
      </trkpt>
      <trkpt lat="46.83052" lon="8.41632">
        <ele>1475</ele>
        <time>2021-08-13T08:51:42.199Z</time>
      </trkpt>
      <trkpt lat="46.83051" lon="8.41633">
        <ele>1475</ele>
        <time>2021-08-13T08:51:43.199Z</time>
      </trkpt>
      <trkpt lat="46.83051" lon="8.41634">
        <ele>1474</ele>
        <time>2021-08-13T08:51:44.199Z</time>
      </trkpt>
      <trkpt lat="46.8305" lon="8.41635">
        <ele>1474</ele>
        <time>2021-08-13T08:51:45.199Z</time>
      </trkpt>
      <trkpt lat="46.83049" lon="8.41637">
        <ele>1473</ele>
        <time>2021-08-13T08:51:46.199Z</time>
      </trkpt>
      <trkpt lat="46.83048" lon="8.41637">
        <ele>1472</ele>
        <time>2021-08-13T08:51:47.199Z</time>
      </trkpt>
      <trkpt lat="46.83048" lon="8.41638">
        <ele>1471</ele>
        <time>2021-08-13T08:51:48.199Z</time>
      </trkpt>
      <trkpt lat="46.83047" lon="8.41639">
        <ele>1470</ele>
        <time>2021-08-13T08:51:49.199Z</time>
      </trkpt>
      <trkpt lat="46.83047" lon="8.4164">
        <ele>1469</ele>
        <time>2021-08-13T08:51:50.199Z</time>
      </trkpt>
      <trkpt lat="46.83047" lon="8.41641">
        <ele>1468</ele>
        <time>2021-08-13T08:51:51.199Z</time>
      </trkpt>
      <trkpt lat="46.83046" lon="8.41642">
        <ele>1466</ele>
        <time>2021-08-13T08:51:52.199Z</time>
      </trkpt>
      <trkpt lat="46.83046" lon="8.41643">
        <ele>1465</ele>
        <time>2021-08-13T08:51:53.199Z</time>
      </trkpt>
      <trkpt lat="46.83046" lon="8.41643">
        <ele>1464</ele>
        <time>2021-08-13T08:51:54.200Z</time>
      </trkpt>
      <trkpt lat="46.83045" lon="8.41644">
        <ele>1463</ele>
        <time>2021-08-13T08:51:55.199Z</time>
      </trkpt>
      <trkpt lat="46.83045" lon="8.41645">
        <ele>1462</ele>
        <time>2021-08-13T08:51:56.199Z</time>
      </trkpt>
      <trkpt lat="46.83045" lon="8.41646">
        <ele>1461</ele>
        <time>2021-08-13T08:51:57.199Z</time>
      </trkpt>
      <trkpt lat="46.83044" lon="8.41648">
        <ele>1459</ele>
        <time>2021-08-13T08:51:58.199Z</time>
      </trkpt>
      <trkpt lat="46.83044" lon="8.41648">
        <ele>1459</ele>
        <time>2021-08-13T08:51:59.199Z</time>
      </trkpt>
      <trkpt lat="46.83043" lon="8.41649">
        <ele>1458</ele>
        <time>2021-08-13T08:52:00.199Z</time>
      </trkpt>
      <trkpt lat="46.83043" lon="8.4165">
        <ele>1457</ele>
        <time>2021-08-13T08:52:01.199Z</time>
      </trkpt>
      <trkpt lat="46.83042" lon="8.41651">
        <ele>1457</ele>
        <time>2021-08-13T08:52:02.200Z</time>
      </trkpt>
      <trkpt lat="46.83042" lon="8.41652">
        <ele>1457</ele>
        <time>2021-08-13T08:52:03.200Z</time>
      </trkpt>
      <trkpt lat="46.83041" lon="8.41652">
        <ele>1457</ele>
        <time>2021-08-13T08:52:04.199Z</time>
      </trkpt>
      <trkpt lat="46.83041" lon="8.41653">
        <ele>1457</ele>
        <time>2021-08-13T08:52:05.200Z</time>
      </trkpt>
      <trkpt lat="46.83041" lon="8.41653">
        <ele>1457</ele>
        <time>2021-08-13T08:52:06.199Z</time>
      </trkpt>
      <trkpt lat="46.83041" lon="8.41654">
        <ele>1457</ele>
        <time>2021-08-13T08:52:07.199Z</time>
      </trkpt>
      <trkpt lat="46.8304" lon="8.41654">
        <ele>1457</ele>
        <time>2021-08-13T08:52:08.199Z</time>
      </trkpt>
      <trkpt lat="46.8304" lon="8.41655">
        <ele>1457</ele>
        <time>2021-08-13T08:52:09.200Z</time>
      </trkpt>
      <trkpt lat="46.8304" lon="8.41654">
        <ele>1458</ele>
        <time>2021-08-13T08:52:10.199Z</time>
      </trkpt>
      <trkpt lat="46.8304" lon="8.41654">
        <ele>1458</ele>
        <time>2021-08-13T08:52:11.199Z</time>
      </trkpt>
      <trkpt lat="46.83039" lon="8.41654">
        <ele>1458</ele>
        <time>2021-08-13T08:52:12.200Z</time>
      </trkpt>
      <trkpt lat="46.83039" lon="8.41653">
        <ele>1459</ele>
        <time>2021-08-13T08:52:13.200Z</time>
      </trkpt>
      <trkpt lat="46.83039" lon="8.41653">
        <ele>1459</ele>
        <time>2021-08-13T08:52:14.200Z</time>
      </trkpt>
      <trkpt lat="46.83038" lon="8.41653">
        <ele>1460</ele>
        <time>2021-08-13T08:52:15.200Z</time>
      </trkpt>
      <trkpt lat="46.83038" lon="8.41653">
        <ele>1460</ele>
        <time>2021-08-13T08:52:16.200Z</time>
      </trkpt>
      <trkpt lat="46.83037" lon="8.41653">
        <ele>1459</ele>
        <time>2021-08-13T08:52:17.200Z</time>
      </trkpt>
      <trkpt lat="46.83037" lon="8.41654">
        <ele>1459</ele>
        <time>2021-08-13T08:52:18.200Z</time>
      </trkpt>
      <trkpt lat="46.83037" lon="8.41655">
        <ele>1458</ele>
        <time>2021-08-13T08:52:19.200Z</time>
      </trkpt>
      <trkpt lat="46.83036" lon="8.41656">
        <ele>1457</ele>
        <time>2021-08-13T08:52:20.200Z</time>
      </trkpt>
      <trkpt lat="46.83035" lon="8.41656">
        <ele>1456</ele>
        <time>2021-08-13T08:52:21.200Z</time>
      </trkpt>
      <trkpt lat="46.83035" lon="8.41656">
        <ele>1456</ele>
        <time>2021-08-13T08:52:22.200Z</time>
      </trkpt>
      <trkpt lat="46.83033" lon="8.41655">
        <ele>1455</ele>
        <time>2021-08-13T08:52:23.199Z</time>
      </trkpt>
      <trkpt lat="46.83032" lon="8.41656">
        <ele>1455</ele>
        <time>2021-08-13T08:52:24.199Z</time>
      </trkpt>
      <trkpt lat="46.83031" lon="8.41657">
        <ele>1454</ele>
        <time>2021-08-13T08:52:25.200Z</time>
      </trkpt>
      <trkpt lat="46.83031" lon="8.41657">
        <ele>1454</ele>
        <time>2021-08-13T08:52:26.199Z</time>
      </trkpt>
      <trkpt lat="46.8303" lon="8.41657">
        <ele>1454</ele>
        <time>2021-08-13T08:52:27.199Z</time>
      </trkpt>
      <trkpt lat="46.83029" lon="8.41658">
        <ele>1454</ele>
        <time>2021-08-13T08:52:28.200Z</time>
      </trkpt>
      <trkpt lat="46.83029" lon="8.41658">
        <ele>1454</ele>
        <time>2021-08-13T08:52:29.200Z</time>
      </trkpt>
      <trkpt lat="46.83029" lon="8.41659">
        <ele>1454</ele>
        <time>2021-08-13T08:52:30.200Z</time>
      </trkpt>
      <trkpt lat="46.83029" lon="8.41659">
        <ele>1454</ele>
        <time>2021-08-13T08:52:31.199Z</time>
      </trkpt>
      <trkpt lat="46.83028" lon="8.41659">
        <ele>1454</ele>
        <time>2021-08-13T08:52:32.200Z</time>
      </trkpt>
      <trkpt lat="46.83026" lon="8.4166">
        <ele>1454</ele>
        <time>2021-08-13T08:52:33.200Z</time>
      </trkpt>
      <trkpt lat="46.83024" lon="8.4166">
        <ele>1454</ele>
        <time>2021-08-13T08:52:34.200Z</time>
      </trkpt>
      <trkpt lat="46.83024" lon="8.4166">
        <ele>1453</ele>
        <time>2021-08-13T08:52:35.199Z</time>
      </trkpt>
      <trkpt lat="46.83025" lon="8.41659">
        <ele>1453</ele>
        <time>2021-08-13T08:52:36.200Z</time>
      </trkpt>
      <trkpt lat="46.83025" lon="8.4166">
        <ele>1453</ele>
        <time>2021-08-13T08:52:37.200Z</time>
      </trkpt>
      <trkpt lat="46.83026" lon="8.41659">
        <ele>1452</ele>
        <time>2021-08-13T08:52:38.199Z</time>
      </trkpt>
      <trkpt lat="46.83022" lon="8.41661">
        <ele>1453</ele>
        <time>2021-08-13T08:52:39.200Z</time>
      </trkpt>
      <trkpt lat="46.83022" lon="8.41661">
        <ele>1453</ele>
        <time>2021-08-13T08:52:40.201Z</time>
      </trkpt>
      <trkpt lat="46.83021" lon="8.41661">
        <ele>1453</ele>
        <time>2021-08-13T08:52:41.200Z</time>
      </trkpt>
      <trkpt lat="46.83021" lon="8.41661">
        <ele>1453</ele>
        <time>2021-08-13T08:52:42.201Z</time>
      </trkpt>
      <trkpt lat="46.8302" lon="8.41661">
        <ele>1454</ele>
        <time>2021-08-13T08:52:43.201Z</time>
      </trkpt>
      <trkpt lat="46.8302" lon="8.41662">
        <ele>1454</ele>
        <time>2021-08-13T08:52:44.201Z</time>
      </trkpt>
      <trkpt lat="46.8302" lon="8.41663">
        <ele>1454</ele>
        <time>2021-08-13T08:52:45.201Z</time>
      </trkpt>
      <trkpt lat="46.83019" lon="8.41664">
        <ele>1454</ele>
        <time>2021-08-13T08:52:46.201Z</time>
      </trkpt>
      <trkpt lat="46.83019" lon="8.41664">
        <ele>1454</ele>
        <time>2021-08-13T08:52:47.200Z</time>
      </trkpt>
      <trkpt lat="46.83018" lon="8.41665">
        <ele>1453</ele>
        <time>2021-08-13T08:52:48.201Z</time>
      </trkpt>
      <trkpt lat="46.83018" lon="8.41665">
        <ele>1453</ele>
        <time>2021-08-13T08:52:49.201Z</time>
      </trkpt>
      <trkpt lat="46.83018" lon="8.41664">
        <ele>1453</ele>
        <time>2021-08-13T08:52:50.200Z</time>
      </trkpt>
      <trkpt lat="46.83018" lon="8.41664">
        <ele>1453</ele>
        <time>2021-08-13T08:52:51.200Z</time>
      </trkpt>
      <trkpt lat="46.83017" lon="8.41664">
        <ele>1453</ele>
        <time>2021-08-13T08:52:52.201Z</time>
      </trkpt>
      <trkpt lat="46.83018" lon="8.41662">
        <ele>1450</ele>
        <time>2021-08-13T08:52:53.202Z</time>
      </trkpt>
      <trkpt lat="46.83018" lon="8.41663">
        <ele>1449</ele>
        <time>2021-08-13T08:52:54.202Z</time>
      </trkpt>
      <trkpt lat="46.83018" lon="8.41663">
        <ele>1448</ele>
        <time>2021-08-13T08:52:55.201Z</time>
      </trkpt>
      <trkpt lat="46.83018" lon="8.41663">
        <ele>1448</ele>
        <time>2021-08-13T08:52:56.201Z</time>
      </trkpt>
      <trkpt lat="46.83017" lon="8.41662">
        <ele>1447</ele>
        <time>2021-08-13T08:52:57.202Z</time>
      </trkpt>
      <trkpt lat="46.83017" lon="8.41662">
        <ele>1447</ele>
        <time>2021-08-13T08:52:58.201Z</time>
      </trkpt>
      <trkpt lat="46.83015" lon="8.41662">
        <ele>1446</ele>
        <time>2021-08-13T08:52:59.202Z</time>
      </trkpt>
      <trkpt lat="46.83015" lon="8.41662">
        <ele>1446</ele>
        <time>2021-08-13T08:53:00.203Z</time>
      </trkpt>
      <trkpt lat="46.83014" lon="8.41661">
        <ele>1446</ele>
        <time>2021-08-13T08:53:01.202Z</time>
      </trkpt>
      <trkpt lat="46.83013" lon="8.41657">
        <ele>1447</ele>
        <time>2021-08-13T08:53:02.203Z</time>
      </trkpt>
      <trkpt lat="46.83013" lon="8.41657">
        <ele>1448</ele>
        <time>2021-08-13T08:53:03.203Z</time>
      </trkpt>
      <trkpt lat="46.83014" lon="8.41657">
        <ele>1447</ele>
        <time>2021-08-13T08:53:04.203Z</time>
      </trkpt>
      <trkpt lat="46.83014" lon="8.41658">
        <ele>1446</ele>
        <time>2021-08-13T08:53:05.203Z</time>
      </trkpt>
      <trkpt lat="46.83013" lon="8.41658">
        <ele>1446</ele>
        <time>2021-08-13T08:53:06.203Z</time>
      </trkpt>
      <trkpt lat="46.83011" lon="8.4166">
        <ele>1446</ele>
        <time>2021-08-13T08:53:07.205Z</time>
      </trkpt>
      <trkpt lat="46.8301" lon="8.4166">
        <ele>1446</ele>
        <time>2021-08-13T08:53:08.204Z</time>
      </trkpt>
      <trkpt lat="46.83009" lon="8.41661">
        <ele>1446</ele>
        <time>2021-08-13T08:53:09.204Z</time>
      </trkpt>
      <trkpt lat="46.83009" lon="8.41661">
        <ele>1446</ele>
        <time>2021-08-13T08:53:10.205Z</time>
      </trkpt>
      <trkpt lat="46.83009" lon="8.4166">
        <ele>1446</ele>
        <time>2021-08-13T08:53:11.205Z</time>
      </trkpt>
      <trkpt lat="46.83008" lon="8.4166">
        <ele>1447</ele>
        <time>2021-08-13T08:53:12.204Z</time>
      </trkpt>
      <trkpt lat="46.83008" lon="8.4166">
        <ele>1447</ele>
        <time>2021-08-13T08:53:13.204Z</time>
      </trkpt>
      <trkpt lat="46.83008" lon="8.4166">
        <ele>1447</ele>
        <time>2021-08-13T08:53:14.205Z</time>
      </trkpt>
      <trkpt lat="46.83008" lon="8.41659">
        <ele>1447</ele>
        <time>2021-08-13T08:53:15.204Z</time>
      </trkpt>
      <trkpt lat="46.83008" lon="8.41658">
        <ele>1446</ele>
        <time>2021-08-13T08:53:16.204Z</time>
      </trkpt>
      <trkpt lat="46.83007" lon="8.41657">
        <ele>1446</ele>
        <time>2021-08-13T08:53:17.204Z</time>
      </trkpt>
      <trkpt lat="46.83007" lon="8.41657">
        <ele>1445</ele>
        <time>2021-08-13T08:53:18.204Z</time>
      </trkpt>
      <trkpt lat="46.83007" lon="8.41656">
        <ele>1444</ele>
        <time>2021-08-13T08:53:19.204Z</time>
      </trkpt>
      <trkpt lat="46.83007" lon="8.41657">
        <ele>1444</ele>
        <time>2021-08-13T08:53:20.204Z</time>
      </trkpt>
      <trkpt lat="46.83007" lon="8.41657">
        <ele>1444</ele>
        <time>2021-08-13T08:53:21.205Z</time>
      </trkpt>
      <trkpt lat="46.83008" lon="8.41656">
        <ele>1441</ele>
        <time>2021-08-13T08:53:22.205Z</time>
      </trkpt>
      <trkpt lat="46.83007" lon="8.41656">
        <ele>1440</ele>
        <time>2021-08-13T08:53:23.204Z</time>
      </trkpt>
      <trkpt lat="46.83007" lon="8.41656">
        <ele>1439</ele>
        <time>2021-08-13T08:53:24.205Z</time>
      </trkpt>
      <trkpt lat="46.83007" lon="8.41656">
        <ele>1439</ele>
        <time>2021-08-13T08:53:25.205Z</time>
      </trkpt>
      <trkpt lat="46.83008" lon="8.41651">
        <ele>1435</ele>
        <time>2021-08-13T08:53:26.205Z</time>
      </trkpt>
      <trkpt lat="46.83008" lon="8.4165">
        <ele>1435</ele>
        <time>2021-08-13T08:53:27.205Z</time>
      </trkpt>
      <trkpt lat="46.83008" lon="8.41649">
        <ele>1435</ele>
        <time>2021-08-13T08:53:28.204Z</time>
      </trkpt>
      <trkpt lat="46.83007" lon="8.41648">
        <ele>1434</ele>
        <time>2021-08-13T08:53:29.204Z</time>
      </trkpt>
      <trkpt lat="46.83007" lon="8.41648">
        <ele>1434</ele>
        <time>2021-08-13T08:53:30.205Z</time>
      </trkpt>
      <trkpt lat="46.83006" lon="8.41648">
        <ele>1434</ele>
        <time>2021-08-13T08:53:31.205Z</time>
      </trkpt>
      <trkpt lat="46.83006" lon="8.41647">
        <ele>1434</ele>
        <time>2021-08-13T08:53:32.204Z</time>
      </trkpt>
      <trkpt lat="46.83005" lon="8.41647">
        <ele>1434</ele>
        <time>2021-08-13T08:53:33.205Z</time>
      </trkpt>
      <trkpt lat="46.83005" lon="8.41646">
        <ele>1434</ele>
        <time>2021-08-13T08:53:34.205Z</time>
      </trkpt>
      <trkpt lat="46.83005" lon="8.41646">
        <ele>1435</ele>
        <time>2021-08-13T08:53:35.204Z</time>
      </trkpt>
      <trkpt lat="46.83004" lon="8.41645">
        <ele>1434</ele>
        <time>2021-08-13T08:53:36.205Z</time>
      </trkpt>
      <trkpt lat="46.83004" lon="8.41645">
        <ele>1434</ele>
        <time>2021-08-13T08:53:37.205Z</time>
      </trkpt>
      <trkpt lat="46.83004" lon="8.41644">
        <ele>1434</ele>
        <time>2021-08-13T08:53:38.204Z</time>
      </trkpt>
      <trkpt lat="46.83004" lon="8.41644">
        <ele>1434</ele>
        <time>2021-08-13T08:53:39.204Z</time>
      </trkpt>
      <trkpt lat="46.83004" lon="8.41643">
        <ele>1434</ele>
        <time>2021-08-13T08:53:40.205Z</time>
      </trkpt>
      <trkpt lat="46.83004" lon="8.41643">
        <ele>1434</ele>
        <time>2021-08-13T08:53:41.204Z</time>
      </trkpt>
      <trkpt lat="46.83004" lon="8.41642">
        <ele>1434</ele>
        <time>2021-08-13T08:53:42.204Z</time>
      </trkpt>
      <trkpt lat="46.83005" lon="8.41641">
        <ele>1434</ele>
        <time>2021-08-13T08:53:43.205Z</time>
      </trkpt>
      <trkpt lat="46.83004" lon="8.41641">
        <ele>1434</ele>
        <time>2021-08-13T08:53:44.205Z</time>
      </trkpt>
      <trkpt lat="46.83003" lon="8.41641">
        <ele>1433</ele>
        <time>2021-08-13T08:53:45.204Z</time>
      </trkpt>
      <trkpt lat="46.83003" lon="8.41642">
        <ele>1433</ele>
        <time>2021-08-13T08:53:46.204Z</time>
      </trkpt>
      <trkpt lat="46.83002" lon="8.41644">
        <ele>1433</ele>
        <time>2021-08-13T08:53:47.204Z</time>
      </trkpt>
      <trkpt lat="46.83001" lon="8.41646">
        <ele>1433</ele>
        <time>2021-08-13T08:53:48.204Z</time>
      </trkpt>
      <trkpt lat="46.83001" lon="8.41647">
        <ele>1433</ele>
        <time>2021-08-13T08:53:49.204Z</time>
      </trkpt>
      <trkpt lat="46.83001" lon="8.41648">
        <ele>1433</ele>
        <time>2021-08-13T08:53:50.204Z</time>
      </trkpt>
      <trkpt lat="46.83" lon="8.41648">
        <ele>1433</ele>
        <time>2021-08-13T08:53:51.204Z</time>
      </trkpt>
      <trkpt lat="46.83" lon="8.41648">
        <ele>1432</ele>
        <time>2021-08-13T08:53:52.204Z</time>
      </trkpt>
      <trkpt lat="46.83" lon="8.41649">
        <ele>1430</ele>
        <time>2021-08-13T08:53:53.204Z</time>
      </trkpt>
      <trkpt lat="46.83" lon="8.41648">
        <ele>1430</ele>
        <time>2021-08-13T08:53:54.205Z</time>
      </trkpt>
      <trkpt lat="46.83" lon="8.41648">
        <ele>1431</ele>
        <time>2021-08-13T08:53:55.204Z</time>
      </trkpt>
      <trkpt lat="46.82998" lon="8.41644">
        <ele>1432</ele>
        <time>2021-08-13T08:53:56.205Z</time>
      </trkpt>
      <trkpt lat="46.82998" lon="8.41643">
        <ele>1432</ele>
        <time>2021-08-13T08:53:57.204Z</time>
      </trkpt>
      <trkpt lat="46.82997" lon="8.41643">
        <ele>1432</ele>
        <time>2021-08-13T08:53:58.205Z</time>
      </trkpt>
      <trkpt lat="46.82997" lon="8.41642">
        <ele>1432</ele>
        <time>2021-08-13T08:53:59.204Z</time>
      </trkpt>
      <trkpt lat="46.82997" lon="8.41642">
        <ele>1432</ele>
        <time>2021-08-13T08:54:00.205Z</time>
      </trkpt>
      <trkpt lat="46.82997" lon="8.41642">
        <ele>1432</ele>
        <time>2021-08-13T08:54:01.205Z</time>
      </trkpt>
      <trkpt lat="46.82996" lon="8.41641">
        <ele>1432</ele>
        <time>2021-08-13T08:54:02.205Z</time>
      </trkpt>
      <trkpt lat="46.82997" lon="8.41641">
        <ele>1432</ele>
        <time>2021-08-13T08:54:03.204Z</time>
      </trkpt>
      <trkpt lat="46.83" lon="8.41642">
        <ele>1432</ele>
        <time>2021-08-13T08:54:04.204Z</time>
      </trkpt>
      <trkpt lat="46.83001" lon="8.41643">
        <ele>1431</ele>
        <time>2021-08-13T08:54:05.205Z</time>
      </trkpt>
      <trkpt lat="46.83002" lon="8.41643">
        <ele>1431</ele>
        <time>2021-08-13T08:54:06.204Z</time>
      </trkpt>
      <trkpt lat="46.83003" lon="8.41643">
        <ele>1431</ele>
        <time>2021-08-13T08:54:07.205Z</time>
      </trkpt>
      <trkpt lat="46.83004" lon="8.41643">
        <ele>1431</ele>
        <time>2021-08-13T08:54:08.204Z</time>
      </trkpt>
      <trkpt lat="46.83003" lon="8.41644">
        <ele>1431</ele>
        <time>2021-08-13T08:54:09.204Z</time>
      </trkpt>
      <trkpt lat="46.83002" lon="8.41645">
        <ele>1431</ele>
        <time>2021-08-13T08:54:10.205Z</time>
      </trkpt>
      <trkpt lat="46.83001" lon="8.41646">
        <ele>1432</ele>
        <time>2021-08-13T08:54:11.205Z</time>
      </trkpt>
      <trkpt lat="46.83001" lon="8.41647">
        <ele>1432</ele>
        <time>2021-08-13T08:54:12.204Z</time>
      </trkpt>
      <trkpt lat="46.83" lon="8.41647">
        <ele>1432</ele>
        <time>2021-08-13T08:54:13.205Z</time>
      </trkpt>
      <trkpt lat="46.82999" lon="8.41646">
        <ele>1432</ele>
        <time>2021-08-13T08:54:14.204Z</time>
      </trkpt>
      <trkpt lat="46.82998" lon="8.41646">
        <ele>1432</ele>
        <time>2021-08-13T08:54:15.205Z</time>
      </trkpt>
      <trkpt lat="46.82997" lon="8.41645">
        <ele>1432</ele>
        <time>2021-08-13T08:54:16.205Z</time>
      </trkpt>
      <trkpt lat="46.82995" lon="8.41645">
        <ele>1432</ele>
        <time>2021-08-13T08:54:17.205Z</time>
      </trkpt>
      <trkpt lat="46.82994" lon="8.41645">
        <ele>1432</ele>
        <time>2021-08-13T08:54:18.204Z</time>
      </trkpt>
      <trkpt lat="46.82994" lon="8.41645">
        <ele>1432</ele>
        <time>2021-08-13T08:54:19.205Z</time>
      </trkpt>
      <trkpt lat="46.82993" lon="8.41645">
        <ele>1432</ele>
        <time>2021-08-13T08:54:20.205Z</time>
      </trkpt>
      <trkpt lat="46.82993" lon="8.41645">
        <ele>1433</ele>
        <time>2021-08-13T08:54:21.205Z</time>
      </trkpt>
      <trkpt lat="46.82992" lon="8.41645">
        <ele>1433</ele>
        <time>2021-08-13T08:54:22.205Z</time>
      </trkpt>
      <trkpt lat="46.82991" lon="8.41644">
        <ele>1433</ele>
        <time>2021-08-13T08:54:23.204Z</time>
      </trkpt>
      <trkpt lat="46.8299" lon="8.41645">
        <ele>1433</ele>
        <time>2021-08-13T08:54:24.205Z</time>
      </trkpt>
      <trkpt lat="46.8299" lon="8.41644">
        <ele>1433</ele>
        <time>2021-08-13T08:54:25.204Z</time>
      </trkpt>
      <trkpt lat="46.82988" lon="8.41641">
        <ele>1430</ele>
        <time>2021-08-13T08:54:26.205Z</time>
      </trkpt>
      <trkpt lat="46.82987" lon="8.41641">
        <ele>1430</ele>
        <time>2021-08-13T08:54:27.205Z</time>
      </trkpt>
      <trkpt lat="46.82987" lon="8.41641">
        <ele>1429</ele>
        <time>2021-08-13T08:54:28.205Z</time>
      </trkpt>
      <trkpt lat="46.82987" lon="8.4164">
        <ele>1430</ele>
        <time>2021-08-13T08:54:29.205Z</time>
      </trkpt>
      <trkpt lat="46.82986" lon="8.4164">
        <ele>1430</ele>
        <time>2021-08-13T08:54:30.205Z</time>
      </trkpt>
      <trkpt lat="46.82986" lon="8.41641">
        <ele>1430</ele>
        <time>2021-08-13T08:54:31.206Z</time>
      </trkpt>
      <trkpt lat="46.82985" lon="8.41641">
        <ele>1430</ele>
        <time>2021-08-13T08:54:32.205Z</time>
      </trkpt>
      <trkpt lat="46.82985" lon="8.41641">
        <ele>1430</ele>
        <time>2021-08-13T08:54:33.206Z</time>
      </trkpt>
      <trkpt lat="46.82984" lon="8.41641">
        <ele>1430</ele>
        <time>2021-08-13T08:54:34.205Z</time>
      </trkpt>
      <trkpt lat="46.82984" lon="8.41641">
        <ele>1430</ele>
        <time>2021-08-13T08:54:35.205Z</time>
      </trkpt>
      <trkpt lat="46.82983" lon="8.41641">
        <ele>1430</ele>
        <time>2021-08-13T08:54:36.206Z</time>
      </trkpt>
      <trkpt lat="46.82982" lon="8.41642">
        <ele>1429</ele>
        <time>2021-08-13T08:54:37.205Z</time>
      </trkpt>
      <trkpt lat="46.82982" lon="8.41642">
        <ele>1429</ele>
        <time>2021-08-13T08:54:38.205Z</time>
      </trkpt>
      <trkpt lat="46.82981" lon="8.41643">
        <ele>1429</ele>
        <time>2021-08-13T08:54:39.205Z</time>
      </trkpt>
      <trkpt lat="46.82981" lon="8.41643">
        <ele>1429</ele>
        <time>2021-08-13T08:54:40.205Z</time>
      </trkpt>
      <trkpt lat="46.82981" lon="8.41643">
        <ele>1429</ele>
        <time>2021-08-13T08:54:41.205Z</time>
      </trkpt>
      <trkpt lat="46.8298" lon="8.41643">
        <ele>1429</ele>
        <time>2021-08-13T08:54:42.205Z</time>
      </trkpt>
      <trkpt lat="46.82979" lon="8.41643">
        <ele>1429</ele>
        <time>2021-08-13T08:54:43.205Z</time>
      </trkpt>
      <trkpt lat="46.82979" lon="8.41642">
        <ele>1429</ele>
        <time>2021-08-13T08:54:44.206Z</time>
      </trkpt>
      <trkpt lat="46.82979" lon="8.41642">
        <ele>1429</ele>
        <time>2021-08-13T08:54:45.206Z</time>
      </trkpt>
      <trkpt lat="46.82978" lon="8.41642">
        <ele>1429</ele>
        <time>2021-08-13T08:54:46.206Z</time>
      </trkpt>
      <trkpt lat="46.82978" lon="8.41642">
        <ele>1428</ele>
        <time>2021-08-13T08:54:47.205Z</time>
      </trkpt>
      <trkpt lat="46.82978" lon="8.41642">
        <ele>1428</ele>
        <time>2021-08-13T08:54:48.206Z</time>
      </trkpt>
      <trkpt lat="46.82978" lon="8.41643">
        <ele>1427</ele>
        <time>2021-08-13T08:54:49.206Z</time>
      </trkpt>
      <trkpt lat="46.82978" lon="8.41642">
        <ele>1427</ele>
        <time>2021-08-13T08:54:50.205Z</time>
      </trkpt>
      <trkpt lat="46.82977" lon="8.41643">
        <ele>1426</ele>
        <time>2021-08-13T08:54:51.205Z</time>
      </trkpt>
      <trkpt lat="46.82977" lon="8.41643">
        <ele>1425</ele>
        <time>2021-08-13T08:54:52.205Z</time>
      </trkpt>
      <trkpt lat="46.82977" lon="8.41643">
        <ele>1425</ele>
        <time>2021-08-13T08:54:53.205Z</time>
      </trkpt>
      <trkpt lat="46.82977" lon="8.41643">
        <ele>1424</ele>
        <time>2021-08-13T08:54:54.206Z</time>
      </trkpt>
      <trkpt lat="46.82976" lon="8.41643">
        <ele>1424</ele>
        <time>2021-08-13T08:54:55.205Z</time>
      </trkpt>
      <trkpt lat="46.82974" lon="8.41646">
        <ele>1422</ele>
        <time>2021-08-13T08:54:56.205Z</time>
      </trkpt>
      <trkpt lat="46.82972" lon="8.41648">
        <ele>1420</ele>
        <time>2021-08-13T08:54:57.208Z</time>
      </trkpt>
      <trkpt lat="46.82972" lon="8.41648">
        <ele>1419</ele>
        <time>2021-08-13T08:54:58.208Z</time>
      </trkpt>
      <trkpt lat="46.82971" lon="8.41649">
        <ele>1418</ele>
        <time>2021-08-13T08:54:59.208Z</time>
      </trkpt>
      <trkpt lat="46.8297" lon="8.41649">
        <ele>1418</ele>
        <time>2021-08-13T08:55:00.207Z</time>
      </trkpt>
      <trkpt lat="46.8297" lon="8.41649">
        <ele>1418</ele>
        <time>2021-08-13T08:55:01.208Z</time>
      </trkpt>
      <trkpt lat="46.8297" lon="8.41649">
        <ele>1418</ele>
        <time>2021-08-13T08:55:02.207Z</time>
      </trkpt>
      <trkpt lat="46.82969" lon="8.4165">
        <ele>1419</ele>
        <time>2021-08-13T08:55:03.207Z</time>
      </trkpt>
      <trkpt lat="46.82968" lon="8.41649">
        <ele>1419</ele>
        <time>2021-08-13T08:55:04.208Z</time>
      </trkpt>
      <trkpt lat="46.82968" lon="8.41649">
        <ele>1419</ele>
        <time>2021-08-13T08:55:05.208Z</time>
      </trkpt>
      <trkpt lat="46.82967" lon="8.41649">
        <ele>1420</ele>
        <time>2021-08-13T08:55:06.207Z</time>
      </trkpt>
      <trkpt lat="46.82967" lon="8.41649">
        <ele>1419</ele>
        <time>2021-08-13T08:55:07.208Z</time>
      </trkpt>
      <trkpt lat="46.82966" lon="8.4165">
        <ele>1419</ele>
        <time>2021-08-13T08:55:08.207Z</time>
      </trkpt>
      <trkpt lat="46.82965" lon="8.4165">
        <ele>1419</ele>
        <time>2021-08-13T08:55:09.208Z</time>
      </trkpt>
      <trkpt lat="46.82964" lon="8.41649">
        <ele>1418</ele>
        <time>2021-08-13T08:55:10.208Z</time>
      </trkpt>
      <trkpt lat="46.82964" lon="8.41649">
        <ele>1419</ele>
        <time>2021-08-13T08:55:11.208Z</time>
      </trkpt>
      <trkpt lat="46.82963" lon="8.41649">
        <ele>1419</ele>
        <time>2021-08-13T08:55:12.207Z</time>
      </trkpt>
      <trkpt lat="46.82962" lon="8.41649">
        <ele>1419</ele>
        <time>2021-08-13T08:55:13.207Z</time>
      </trkpt>
      <trkpt lat="46.82962" lon="8.41649">
        <ele>1419</ele>
        <time>2021-08-13T08:55:14.207Z</time>
      </trkpt>
      <trkpt lat="46.82959" lon="8.41651">
        <ele>1418</ele>
        <time>2021-08-13T08:55:15.208Z</time>
      </trkpt>
      <trkpt lat="46.82959" lon="8.41651">
        <ele>1418</ele>
        <time>2021-08-13T08:55:16.208Z</time>
      </trkpt>
      <trkpt lat="46.82958" lon="8.41651">
        <ele>1418</ele>
        <time>2021-08-13T08:55:17.208Z</time>
      </trkpt>
      <trkpt lat="46.82956" lon="8.41652">
        <ele>1417</ele>
        <time>2021-08-13T08:55:18.208Z</time>
      </trkpt>
      <trkpt lat="46.82955" lon="8.41651">
        <ele>1417</ele>
        <time>2021-08-13T08:55:19.208Z</time>
      </trkpt>
      <trkpt lat="46.82955" lon="8.41651">
        <ele>1416</ele>
        <time>2021-08-13T08:55:20.208Z</time>
      </trkpt>
      <trkpt lat="46.82955" lon="8.41652">
        <ele>1416</ele>
        <time>2021-08-13T08:55:21.208Z</time>
      </trkpt>
      <trkpt lat="46.82954" lon="8.41653">
        <ele>1415</ele>
        <time>2021-08-13T08:55:22.207Z</time>
      </trkpt>
      <trkpt lat="46.82953" lon="8.41653">
        <ele>1414</ele>
        <time>2021-08-13T08:55:23.207Z</time>
      </trkpt>
      <trkpt lat="46.82952" lon="8.41653">
        <ele>1414</ele>
        <time>2021-08-13T08:55:24.207Z</time>
      </trkpt>
      <trkpt lat="46.82952" lon="8.41654">
        <ele>1414</ele>
        <time>2021-08-13T08:55:25.207Z</time>
      </trkpt>
      <trkpt lat="46.82951" lon="8.41654">
        <ele>1414</ele>
        <time>2021-08-13T08:55:26.208Z</time>
      </trkpt>
      <trkpt lat="46.8295" lon="8.41655">
        <ele>1414</ele>
        <time>2021-08-13T08:55:27.207Z</time>
      </trkpt>
      <trkpt lat="46.82949" lon="8.41655">
        <ele>1414</ele>
        <time>2021-08-13T08:55:28.207Z</time>
      </trkpt>
      <trkpt lat="46.82949" lon="8.41656">
        <ele>1414</ele>
        <time>2021-08-13T08:55:29.208Z</time>
      </trkpt>
      <trkpt lat="46.82948" lon="8.41656">
        <ele>1414</ele>
        <time>2021-08-13T08:55:30.208Z</time>
      </trkpt>
      <trkpt lat="46.82947" lon="8.41656">
        <ele>1414</ele>
        <time>2021-08-13T08:55:31.208Z</time>
      </trkpt>
      <trkpt lat="46.82946" lon="8.41656">
        <ele>1414</ele>
        <time>2021-08-13T08:55:32.208Z</time>
      </trkpt>
      <trkpt lat="46.82945" lon="8.41655">
        <ele>1414</ele>
        <time>2021-08-13T08:55:33.208Z</time>
      </trkpt>
      <trkpt lat="46.82945" lon="8.41656">
        <ele>1414</ele>
        <time>2021-08-13T08:55:34.208Z</time>
      </trkpt>
      <trkpt lat="46.82944" lon="8.41655">
        <ele>1414</ele>
        <time>2021-08-13T08:55:35.207Z</time>
      </trkpt>
      <trkpt lat="46.82944" lon="8.41656">
        <ele>1413</ele>
        <time>2021-08-13T08:55:36.208Z</time>
      </trkpt>
      <trkpt lat="46.82943" lon="8.41656">
        <ele>1413</ele>
        <time>2021-08-13T08:55:37.208Z</time>
      </trkpt>
      <trkpt lat="46.82942" lon="8.41657">
        <ele>1414</ele>
        <time>2021-08-13T08:55:38.208Z</time>
      </trkpt>
      <trkpt lat="46.82941" lon="8.41657">
        <ele>1414</ele>
        <time>2021-08-13T08:55:39.208Z</time>
      </trkpt>
      <trkpt lat="46.82939" lon="8.41657">
        <ele>1414</ele>
        <time>2021-08-13T08:55:40.207Z</time>
      </trkpt>
      <trkpt lat="46.82938" lon="8.41657">
        <ele>1414</ele>
        <time>2021-08-13T08:55:41.207Z</time>
      </trkpt>
      <trkpt lat="46.82937" lon="8.41658">
        <ele>1414</ele>
        <time>2021-08-13T08:55:42.207Z</time>
      </trkpt>
      <trkpt lat="46.82935" lon="8.41659">
        <ele>1414</ele>
        <time>2021-08-13T08:55:43.208Z</time>
      </trkpt>
      <trkpt lat="46.82934" lon="8.4166">
        <ele>1415</ele>
        <time>2021-08-13T08:55:44.207Z</time>
      </trkpt>
      <trkpt lat="46.82933" lon="8.41661">
        <ele>1415</ele>
        <time>2021-08-13T08:55:45.207Z</time>
      </trkpt>
      <trkpt lat="46.82932" lon="8.41662">
        <ele>1414</ele>
        <time>2021-08-13T08:55:46.208Z</time>
      </trkpt>
      <trkpt lat="46.82931" lon="8.41662">
        <ele>1414</ele>
        <time>2021-08-13T08:55:47.207Z</time>
      </trkpt>
      <trkpt lat="46.82929" lon="8.41662">
        <ele>1413</ele>
        <time>2021-08-13T08:55:48.207Z</time>
      </trkpt>
      <trkpt lat="46.82928" lon="8.41661">
        <ele>1413</ele>
        <time>2021-08-13T08:55:49.207Z</time>
      </trkpt>
      <trkpt lat="46.82927" lon="8.41661">
        <ele>1412</ele>
        <time>2021-08-13T08:55:50.207Z</time>
      </trkpt>
      <trkpt lat="46.82928" lon="8.41661">
        <ele>1412</ele>
        <time>2021-08-13T08:55:51.208Z</time>
      </trkpt>
      <trkpt lat="46.82927" lon="8.41662">
        <ele>1411</ele>
        <time>2021-08-13T08:55:52.208Z</time>
      </trkpt>
      <trkpt lat="46.82926" lon="8.41662">
        <ele>1410</ele>
        <time>2021-08-13T08:55:53.207Z</time>
      </trkpt>
      <trkpt lat="46.82925" lon="8.41662">
        <ele>1410</ele>
        <time>2021-08-13T08:55:54.207Z</time>
      </trkpt>
      <trkpt lat="46.82924" lon="8.41663">
        <ele>1409</ele>
        <time>2021-08-13T08:55:55.208Z</time>
      </trkpt>
      <trkpt lat="46.82923" lon="8.41663">
        <ele>1409</ele>
        <time>2021-08-13T08:55:56.207Z</time>
      </trkpt>
      <trkpt lat="46.82923" lon="8.41663">
        <ele>1408</ele>
        <time>2021-08-13T08:55:57.208Z</time>
      </trkpt>
      <trkpt lat="46.82922" lon="8.41663">
        <ele>1408</ele>
        <time>2021-08-13T08:55:58.208Z</time>
      </trkpt>
      <trkpt lat="46.82921" lon="8.41664">
        <ele>1408</ele>
        <time>2021-08-13T08:55:59.208Z</time>
      </trkpt>
      <trkpt lat="46.8292" lon="8.41665">
        <ele>1408</ele>
        <time>2021-08-13T08:56:00.207Z</time>
      </trkpt>
      <trkpt lat="46.82919" lon="8.41665">
        <ele>1407</ele>
        <time>2021-08-13T08:56:01.208Z</time>
      </trkpt>
      <trkpt lat="46.82918" lon="8.41665">
        <ele>1407</ele>
        <time>2021-08-13T08:56:02.208Z</time>
      </trkpt>
      <trkpt lat="46.82917" lon="8.41666">
        <ele>1407</ele>
        <time>2021-08-13T08:56:03.207Z</time>
      </trkpt>
      <trkpt lat="46.82916" lon="8.41666">
        <ele>1406</ele>
        <time>2021-08-13T08:56:04.208Z</time>
      </trkpt>
      <trkpt lat="46.82916" lon="8.41666">
        <ele>1405</ele>
        <time>2021-08-13T08:56:05.207Z</time>
      </trkpt>
      <trkpt lat="46.82915" lon="8.41666">
        <ele>1405</ele>
        <time>2021-08-13T08:56:06.208Z</time>
      </trkpt>
      <trkpt lat="46.82913" lon="8.41665">
        <ele>1405</ele>
        <time>2021-08-13T08:56:07.207Z</time>
      </trkpt>
      <trkpt lat="46.82912" lon="8.41665">
        <ele>1405</ele>
        <time>2021-08-13T08:56:08.207Z</time>
      </trkpt>
      <trkpt lat="46.82911" lon="8.41665">
        <ele>1405</ele>
        <time>2021-08-13T08:56:09.207Z</time>
      </trkpt>
      <trkpt lat="46.82907" lon="8.41665">
        <ele>1405</ele>
        <time>2021-08-13T08:56:10.207Z</time>
      </trkpt>
      <trkpt lat="46.82906" lon="8.41665">
        <ele>1405</ele>
        <time>2021-08-13T08:56:11.208Z</time>
      </trkpt>
      <trkpt lat="46.82904" lon="8.41665">
        <ele>1405</ele>
        <time>2021-08-13T08:56:12.207Z</time>
      </trkpt>
      <trkpt lat="46.82903" lon="8.41664">
        <ele>1404</ele>
        <time>2021-08-13T08:56:13.207Z</time>
      </trkpt>
      <trkpt lat="46.82903" lon="8.41664">
        <ele>1404</ele>
        <time>2021-08-13T08:56:14.207Z</time>
      </trkpt>
      <trkpt lat="46.82902" lon="8.41664">
        <ele>1404</ele>
        <time>2021-08-13T08:56:15.208Z</time>
      </trkpt>
      <trkpt lat="46.82902" lon="8.41664">
        <ele>1403</ele>
        <time>2021-08-13T08:56:16.207Z</time>
      </trkpt>
      <trkpt lat="46.82901" lon="8.41664">
        <ele>1403</ele>
        <time>2021-08-13T08:56:17.208Z</time>
      </trkpt>
      <trkpt lat="46.829" lon="8.41664">
        <ele>1403</ele>
        <time>2021-08-13T08:56:18.208Z</time>
      </trkpt>
      <trkpt lat="46.82899" lon="8.41665">
        <ele>1403</ele>
        <time>2021-08-13T08:56:19.208Z</time>
      </trkpt>
      <trkpt lat="46.82898" lon="8.41665">
        <ele>1403</ele>
        <time>2021-08-13T08:56:20.207Z</time>
      </trkpt>
      <trkpt lat="46.82897" lon="8.41665">
        <ele>1403</ele>
        <time>2021-08-13T08:56:21.208Z</time>
      </trkpt>
      <trkpt lat="46.82896" lon="8.41666">
        <ele>1403</ele>
        <time>2021-08-13T08:56:22.207Z</time>
      </trkpt>
      <trkpt lat="46.82895" lon="8.41667">
        <ele>1403</ele>
        <time>2021-08-13T08:56:23.208Z</time>
      </trkpt>
      <trkpt lat="46.82895" lon="8.41667">
        <ele>1403</ele>
        <time>2021-08-13T08:56:24.208Z</time>
      </trkpt>
      <trkpt lat="46.82895" lon="8.41666">
        <ele>1403</ele>
        <time>2021-08-13T08:56:25.208Z</time>
      </trkpt>
      <trkpt lat="46.82894" lon="8.41666">
        <ele>1402</ele>
        <time>2021-08-13T08:56:26.208Z</time>
      </trkpt>
      <trkpt lat="46.82894" lon="8.41666">
        <ele>1402</ele>
        <time>2021-08-13T08:56:27.208Z</time>
      </trkpt>
      <trkpt lat="46.82894" lon="8.41667">
        <ele>1401</ele>
        <time>2021-08-13T08:56:28.207Z</time>
      </trkpt>
      <trkpt lat="46.82895" lon="8.41668">
        <ele>1400</ele>
        <time>2021-08-13T08:56:29.208Z</time>
      </trkpt>
      <trkpt lat="46.82891" lon="8.41669">
        <ele>1397</ele>
        <time>2021-08-13T08:56:30.209Z</time>
      </trkpt>
      <trkpt lat="46.82891" lon="8.41668">
        <ele>1396</ele>
        <time>2021-08-13T08:56:31.208Z</time>
      </trkpt>
      <trkpt lat="46.8289" lon="8.41668">
        <ele>1396</ele>
        <time>2021-08-13T08:56:32.209Z</time>
      </trkpt>
      <trkpt lat="46.8289" lon="8.41667">
        <ele>1396</ele>
        <time>2021-08-13T08:56:33.208Z</time>
      </trkpt>
      <trkpt lat="46.82889" lon="8.41667">
        <ele>1396</ele>
        <time>2021-08-13T08:56:34.208Z</time>
      </trkpt>
      <trkpt lat="46.82889" lon="8.41667">
        <ele>1396</ele>
        <time>2021-08-13T08:56:35.208Z</time>
      </trkpt>
      <trkpt lat="46.82888" lon="8.41667">
        <ele>1396</ele>
        <time>2021-08-13T08:56:36.208Z</time>
      </trkpt>
      <trkpt lat="46.82887" lon="8.41666">
        <ele>1396</ele>
        <time>2021-08-13T08:56:37.208Z</time>
      </trkpt>
      <trkpt lat="46.82887" lon="8.41666">
        <ele>1396</ele>
        <time>2021-08-13T08:56:38.208Z</time>
      </trkpt>
      <trkpt lat="46.82886" lon="8.41666">
        <ele>1396</ele>
        <time>2021-08-13T08:56:39.209Z</time>
      </trkpt>
      <trkpt lat="46.82886" lon="8.41666">
        <ele>1396</ele>
        <time>2021-08-13T08:56:40.208Z</time>
      </trkpt>
      <trkpt lat="46.82884" lon="8.41665">
        <ele>1395</ele>
        <time>2021-08-13T08:56:41.210Z</time>
      </trkpt>
      <trkpt lat="46.82883" lon="8.41665">
        <ele>1395</ele>
        <time>2021-08-13T08:56:42.210Z</time>
      </trkpt>
      <trkpt lat="46.82883" lon="8.41665">
        <ele>1395</ele>
        <time>2021-08-13T08:56:43.210Z</time>
      </trkpt>
      <trkpt lat="46.82882" lon="8.41664">
        <ele>1395</ele>
        <time>2021-08-13T08:56:44.210Z</time>
      </trkpt>
      <trkpt lat="46.82882" lon="8.41664">
        <ele>1395</ele>
        <time>2021-08-13T08:56:45.210Z</time>
      </trkpt>
      <trkpt lat="46.82882" lon="8.41664">
        <ele>1395</ele>
        <time>2021-08-13T08:56:46.211Z</time>
      </trkpt>
      <trkpt lat="46.82881" lon="8.41666">
        <ele>1396</ele>
        <time>2021-08-13T08:56:47.211Z</time>
      </trkpt>
      <trkpt lat="46.82881" lon="8.41666">
        <ele>1396</ele>
        <time>2021-08-13T08:56:48.211Z</time>
      </trkpt>
      <trkpt lat="46.82882" lon="8.41666">
        <ele>1396</ele>
        <time>2021-08-13T08:56:49.211Z</time>
      </trkpt>
      <trkpt lat="46.82882" lon="8.41665">
        <ele>1396</ele>
        <time>2021-08-13T08:56:50.211Z</time>
      </trkpt>
      <trkpt lat="46.82882" lon="8.41664">
        <ele>1396</ele>
        <time>2021-08-13T08:56:51.211Z</time>
      </trkpt>
      <trkpt lat="46.82882" lon="8.41664">
        <ele>1396</ele>
        <time>2021-08-13T08:56:52.211Z</time>
      </trkpt>
      <trkpt lat="46.82882" lon="8.41664">
        <ele>1396</ele>
        <time>2021-08-13T08:56:53.211Z</time>
      </trkpt>
      <trkpt lat="46.82881" lon="8.41665">
        <ele>1393</ele>
        <time>2021-08-13T08:56:54.213Z</time>
      </trkpt>
      <trkpt lat="46.8288" lon="8.41666">
        <ele>1392</ele>
        <time>2021-08-13T08:56:55.212Z</time>
      </trkpt>
      <trkpt lat="46.82878" lon="8.41666">
        <ele>1392</ele>
        <time>2021-08-13T08:56:56.213Z</time>
      </trkpt>
      <trkpt lat="46.82878" lon="8.41667">
        <ele>1392</ele>
        <time>2021-08-13T08:56:57.212Z</time>
      </trkpt>
      <trkpt lat="46.82877" lon="8.41668">
        <ele>1393</ele>
        <time>2021-08-13T08:56:58.213Z</time>
      </trkpt>
      <trkpt lat="46.82876" lon="8.41668">
        <ele>1393</ele>
        <time>2021-08-13T08:56:59.212Z</time>
      </trkpt>
      <trkpt lat="46.82875" lon="8.41668">
        <ele>1393</ele>
        <time>2021-08-13T08:57:00.213Z</time>
      </trkpt>
      <trkpt lat="46.82875" lon="8.41669">
        <ele>1393</ele>
        <time>2021-08-13T08:57:01.213Z</time>
      </trkpt>
      <trkpt lat="46.82874" lon="8.41669">
        <ele>1393</ele>
        <time>2021-08-13T08:57:02.213Z</time>
      </trkpt>
      <trkpt lat="46.82874" lon="8.41669">
        <ele>1393</ele>
        <time>2021-08-13T08:57:03.212Z</time>
      </trkpt>
      <trkpt lat="46.82875" lon="8.41669">
        <ele>1392</ele>
        <time>2021-08-13T08:57:04.212Z</time>
      </trkpt>
      <trkpt lat="46.82875" lon="8.4167">
        <ele>1392</ele>
        <time>2021-08-13T08:57:05.215Z</time>
      </trkpt>
      <trkpt lat="46.82875" lon="8.41669">
        <ele>1392</ele>
        <time>2021-08-13T08:57:06.214Z</time>
      </trkpt>
      <trkpt lat="46.82873" lon="8.41669">
        <ele>1391</ele>
        <time>2021-08-13T08:57:07.216Z</time>
      </trkpt>
      <trkpt lat="46.82872" lon="8.4167">
        <ele>1391</ele>
        <time>2021-08-13T08:57:08.215Z</time>
      </trkpt>
      <trkpt lat="46.82871" lon="8.41672">
        <ele>1390</ele>
        <time>2021-08-13T08:57:09.216Z</time>
      </trkpt>
      <trkpt lat="46.82871" lon="8.41673">
        <ele>1390</ele>
        <time>2021-08-13T08:57:10.215Z</time>
      </trkpt>
      <trkpt lat="46.8287" lon="8.41674">
        <ele>1390</ele>
        <time>2021-08-13T08:57:11.215Z</time>
      </trkpt>
      <trkpt lat="46.8287" lon="8.41676">
        <ele>1389</ele>
        <time>2021-08-13T08:57:12.216Z</time>
      </trkpt>
      <trkpt lat="46.82869" lon="8.41677">
        <ele>1389</ele>
        <time>2021-08-13T08:57:13.215Z</time>
      </trkpt>
      <trkpt lat="46.82868" lon="8.41679">
        <ele>1389</ele>
        <time>2021-08-13T08:57:14.216Z</time>
      </trkpt>
      <trkpt lat="46.82868" lon="8.41681">
        <ele>1389</ele>
        <time>2021-08-13T08:57:15.215Z</time>
      </trkpt>
      <trkpt lat="46.82868" lon="8.41683">
        <ele>1388</ele>
        <time>2021-08-13T08:57:16.215Z</time>
      </trkpt>
      <trkpt lat="46.82868" lon="8.41684">
        <ele>1388</ele>
        <time>2021-08-13T08:57:17.216Z</time>
      </trkpt>
      <trkpt lat="46.82868" lon="8.41685">
        <ele>1388</ele>
        <time>2021-08-13T08:57:18.215Z</time>
      </trkpt>
      <trkpt lat="46.82868" lon="8.41687">
        <ele>1387</ele>
        <time>2021-08-13T08:57:19.216Z</time>
      </trkpt>
      <trkpt lat="46.82868" lon="8.41688">
        <ele>1387</ele>
        <time>2021-08-13T08:57:20.216Z</time>
      </trkpt>
      <trkpt lat="46.82868" lon="8.4169">
        <ele>1387</ele>
        <time>2021-08-13T08:57:21.216Z</time>
      </trkpt>
      <trkpt lat="46.82868" lon="8.41692">
        <ele>1386</ele>
        <time>2021-08-13T08:57:22.216Z</time>
      </trkpt>
      <trkpt lat="46.82867" lon="8.41694">
        <ele>1386</ele>
        <time>2021-08-13T08:57:23.215Z</time>
      </trkpt>
      <trkpt lat="46.82867" lon="8.41695">
        <ele>1386</ele>
        <time>2021-08-13T08:57:24.216Z</time>
      </trkpt>
      <trkpt lat="46.82867" lon="8.41696">
        <ele>1386</ele>
        <time>2021-08-13T08:57:25.216Z</time>
      </trkpt>
      <trkpt lat="46.82866" lon="8.41697">
        <ele>1386</ele>
        <time>2021-08-13T08:57:26.216Z</time>
      </trkpt>
      <trkpt lat="46.82866" lon="8.41697">
        <ele>1385</ele>
        <time>2021-08-13T08:57:27.216Z</time>
      </trkpt>
      <trkpt lat="46.82865" lon="8.41698">
        <ele>1385</ele>
        <time>2021-08-13T08:57:28.216Z</time>
      </trkpt>
      <trkpt lat="46.82864" lon="8.41698">
        <ele>1385</ele>
        <time>2021-08-13T08:57:29.216Z</time>
      </trkpt>
      <trkpt lat="46.82863" lon="8.41699">
        <ele>1385</ele>
        <time>2021-08-13T08:57:30.216Z</time>
      </trkpt>
      <trkpt lat="46.82862" lon="8.41699">
        <ele>1385</ele>
        <time>2021-08-13T08:57:31.216Z</time>
      </trkpt>
      <trkpt lat="46.82862" lon="8.41699">
        <ele>1386</ele>
        <time>2021-08-13T08:57:32.215Z</time>
      </trkpt>
      <trkpt lat="46.82861" lon="8.417">
        <ele>1386</ele>
        <time>2021-08-13T08:57:33.216Z</time>
      </trkpt>
      <trkpt lat="46.82861" lon="8.417">
        <ele>1386</ele>
        <time>2021-08-13T08:57:34.216Z</time>
      </trkpt>
      <trkpt lat="46.8286" lon="8.41701">
        <ele>1387</ele>
        <time>2021-08-13T08:57:35.215Z</time>
      </trkpt>
      <trkpt lat="46.82858" lon="8.41701">
        <ele>1387</ele>
        <time>2021-08-13T08:57:36.216Z</time>
      </trkpt>
      <trkpt lat="46.82857" lon="8.41701">
        <ele>1387</ele>
        <time>2021-08-13T08:57:37.216Z</time>
      </trkpt>
      <trkpt lat="46.82856" lon="8.41701">
        <ele>1388</ele>
        <time>2021-08-13T08:57:38.216Z</time>
      </trkpt>
      <trkpt lat="46.82855" lon="8.41702">
        <ele>1388</ele>
        <time>2021-08-13T08:57:39.216Z</time>
      </trkpt>
      <trkpt lat="46.82855" lon="8.41702">
        <ele>1388</ele>
        <time>2021-08-13T08:57:40.216Z</time>
      </trkpt>
      <trkpt lat="46.82854" lon="8.41703">
        <ele>1388</ele>
        <time>2021-08-13T08:57:41.215Z</time>
      </trkpt>
      <trkpt lat="46.82853" lon="8.41703">
        <ele>1388</ele>
        <time>2021-08-13T08:57:42.215Z</time>
      </trkpt>
      <trkpt lat="46.82853" lon="8.41704">
        <ele>1388</ele>
        <time>2021-08-13T08:57:43.216Z</time>
      </trkpt>
      <trkpt lat="46.82853" lon="8.41705">
        <ele>1387</ele>
        <time>2021-08-13T08:57:44.216Z</time>
      </trkpt>
      <trkpt lat="46.82852" lon="8.41708">
        <ele>1387</ele>
        <time>2021-08-13T08:57:45.216Z</time>
      </trkpt>
      <trkpt lat="46.82852" lon="8.41709">
        <ele>1386</ele>
        <time>2021-08-13T08:57:46.216Z</time>
      </trkpt>
      <trkpt lat="46.82851" lon="8.4171">
        <ele>1386</ele>
        <time>2021-08-13T08:57:47.216Z</time>
      </trkpt>
      <trkpt lat="46.82851" lon="8.41711">
        <ele>1385</ele>
        <time>2021-08-13T08:57:48.216Z</time>
      </trkpt>
      <trkpt lat="46.82851" lon="8.41711">
        <ele>1385</ele>
        <time>2021-08-13T08:57:49.216Z</time>
      </trkpt>
      <trkpt lat="46.8285" lon="8.41711">
        <ele>1385</ele>
        <time>2021-08-13T08:57:50.216Z</time>
      </trkpt>
      <trkpt lat="46.8285" lon="8.41712">
        <ele>1385</ele>
        <time>2021-08-13T08:57:51.216Z</time>
      </trkpt>
      <trkpt lat="46.8285" lon="8.41712">
        <ele>1385</ele>
        <time>2021-08-13T08:57:52.216Z</time>
      </trkpt>
      <trkpt lat="46.82849" lon="8.41714">
        <ele>1385</ele>
        <time>2021-08-13T08:57:53.215Z</time>
      </trkpt>
      <trkpt lat="46.82849" lon="8.41714">
        <ele>1385</ele>
        <time>2021-08-13T08:57:54.216Z</time>
      </trkpt>
      <trkpt lat="46.82849" lon="8.41715">
        <ele>1385</ele>
        <time>2021-08-13T08:57:55.216Z</time>
      </trkpt>
      <trkpt lat="46.82849" lon="8.41716">
        <ele>1385</ele>
        <time>2021-08-13T08:57:56.215Z</time>
      </trkpt>
      <trkpt lat="46.82849" lon="8.41717">
        <ele>1385</ele>
        <time>2021-08-13T08:57:57.216Z</time>
      </trkpt>
      <trkpt lat="46.82848" lon="8.41718">
        <ele>1385</ele>
        <time>2021-08-13T08:57:58.215Z</time>
      </trkpt>
      <trkpt lat="46.82847" lon="8.41719">
        <ele>1385</ele>
        <time>2021-08-13T08:57:59.216Z</time>
      </trkpt>
      <trkpt lat="46.82847" lon="8.41719">
        <ele>1384</ele>
        <time>2021-08-13T08:58:00.215Z</time>
      </trkpt>
      <trkpt lat="46.82846" lon="8.41718">
        <ele>1384</ele>
        <time>2021-08-13T08:58:01.216Z</time>
      </trkpt>
      <trkpt lat="46.82845" lon="8.41717">
        <ele>1384</ele>
        <time>2021-08-13T08:58:02.216Z</time>
      </trkpt>
      <trkpt lat="46.82844" lon="8.41716">
        <ele>1384</ele>
        <time>2021-08-13T08:58:03.216Z</time>
      </trkpt>
      <trkpt lat="46.82844" lon="8.41716">
        <ele>1384</ele>
        <time>2021-08-13T08:58:04.216Z</time>
      </trkpt>
      <trkpt lat="46.82844" lon="8.41716">
        <ele>1383</ele>
        <time>2021-08-13T08:58:05.215Z</time>
      </trkpt>
      <trkpt lat="46.82844" lon="8.41715">
        <ele>1383</ele>
        <time>2021-08-13T08:58:06.215Z</time>
      </trkpt>
      <trkpt lat="46.82845" lon="8.41714">
        <ele>1378</ele>
        <time>2021-08-13T08:58:07.216Z</time>
      </trkpt>
      <trkpt lat="46.82844" lon="8.41715">
        <ele>1378</ele>
        <time>2021-08-13T08:58:08.215Z</time>
      </trkpt>
      <trkpt lat="46.82844" lon="8.41714">
        <ele>1375</ele>
        <time>2021-08-13T08:58:09.216Z</time>
      </trkpt>
      <trkpt lat="46.82843" lon="8.41713">
        <ele>1375</ele>
        <time>2021-08-13T08:58:10.215Z</time>
      </trkpt>
      <trkpt lat="46.82843" lon="8.41713">
        <ele>1376</ele>
        <time>2021-08-13T08:58:11.215Z</time>
      </trkpt>
      <trkpt lat="46.82842" lon="8.41712">
        <ele>1376</ele>
        <time>2021-08-13T08:58:12.215Z</time>
      </trkpt>
      <trkpt lat="46.82841" lon="8.41711">
        <ele>1376</ele>
        <time>2021-08-13T08:58:13.216Z</time>
      </trkpt>
      <trkpt lat="46.82841" lon="8.41711">
        <ele>1377</ele>
        <time>2021-08-13T08:58:14.215Z</time>
      </trkpt>
      <trkpt lat="46.8284" lon="8.4171">
        <ele>1377</ele>
        <time>2021-08-13T08:58:15.215Z</time>
      </trkpt>
      <trkpt lat="46.82839" lon="8.41709">
        <ele>1376</ele>
        <time>2021-08-13T08:58:16.216Z</time>
      </trkpt>
      <trkpt lat="46.82839" lon="8.41708">
        <ele>1376</ele>
        <time>2021-08-13T08:58:17.216Z</time>
      </trkpt>
      <trkpt lat="46.82838" lon="8.41708">
        <ele>1376</ele>
        <time>2021-08-13T08:58:18.215Z</time>
      </trkpt>
      <trkpt lat="46.82837" lon="8.41707">
        <ele>1377</ele>
        <time>2021-08-13T08:58:19.216Z</time>
      </trkpt>
      <trkpt lat="46.82836" lon="8.41706">
        <ele>1377</ele>
        <time>2021-08-13T08:58:20.216Z</time>
      </trkpt>
      <trkpt lat="46.82836" lon="8.41705">
        <ele>1377</ele>
        <time>2021-08-13T08:58:21.216Z</time>
      </trkpt>
      <trkpt lat="46.82835" lon="8.41704">
        <ele>1377</ele>
        <time>2021-08-13T08:58:22.216Z</time>
      </trkpt>
      <trkpt lat="46.82834" lon="8.41703">
        <ele>1377</ele>
        <time>2021-08-13T08:58:23.215Z</time>
      </trkpt>
      <trkpt lat="46.82834" lon="8.41702">
        <ele>1377</ele>
        <time>2021-08-13T08:58:24.216Z</time>
      </trkpt>
      <trkpt lat="46.82833" lon="8.41701">
        <ele>1377</ele>
        <time>2021-08-13T08:58:25.216Z</time>
      </trkpt>
      <trkpt lat="46.82833" lon="8.417">
        <ele>1377</ele>
        <time>2021-08-13T08:58:26.216Z</time>
      </trkpt>
      <trkpt lat="46.82833" lon="8.41698">
        <ele>1376</ele>
        <time>2021-08-13T08:58:27.216Z</time>
      </trkpt>
      <trkpt lat="46.82832" lon="8.41697">
        <ele>1376</ele>
        <time>2021-08-13T08:58:28.215Z</time>
      </trkpt>
      <trkpt lat="46.82831" lon="8.41696">
        <ele>1376</ele>
        <time>2021-08-13T08:58:29.216Z</time>
      </trkpt>
      <trkpt lat="46.82831" lon="8.41695">
        <ele>1377</ele>
        <time>2021-08-13T08:58:30.215Z</time>
      </trkpt>
      <trkpt lat="46.82831" lon="8.41694">
        <ele>1377</ele>
        <time>2021-08-13T08:58:31.215Z</time>
      </trkpt>
      <trkpt lat="46.8283" lon="8.41693">
        <ele>1377</ele>
        <time>2021-08-13T08:58:32.216Z</time>
      </trkpt>
      <trkpt lat="46.82829" lon="8.41692">
        <ele>1377</ele>
        <time>2021-08-13T08:58:33.216Z</time>
      </trkpt>
      <trkpt lat="46.82829" lon="8.41691">
        <ele>1378</ele>
        <time>2021-08-13T08:58:34.215Z</time>
      </trkpt>
      <trkpt lat="46.82829" lon="8.4169">
        <ele>1378</ele>
        <time>2021-08-13T08:58:35.216Z</time>
      </trkpt>
      <trkpt lat="46.82829" lon="8.4169">
        <ele>1378</ele>
        <time>2021-08-13T08:58:36.215Z</time>
      </trkpt>
      <trkpt lat="46.82829" lon="8.41689">
        <ele>1378</ele>
        <time>2021-08-13T08:58:37.215Z</time>
      </trkpt>
      <trkpt lat="46.82828" lon="8.41688">
        <ele>1378</ele>
        <time>2021-08-13T08:58:38.215Z</time>
      </trkpt>
      <trkpt lat="46.82828" lon="8.41687">
        <ele>1378</ele>
        <time>2021-08-13T08:58:39.216Z</time>
      </trkpt>
      <trkpt lat="46.82827" lon="8.41686">
        <ele>1378</ele>
        <time>2021-08-13T08:58:40.216Z</time>
      </trkpt>
      <trkpt lat="46.82826" lon="8.41686">
        <ele>1378</ele>
        <time>2021-08-13T08:58:41.216Z</time>
      </trkpt>
      <trkpt lat="46.82826" lon="8.41684">
        <ele>1378</ele>
        <time>2021-08-13T08:58:42.216Z</time>
      </trkpt>
      <trkpt lat="46.82825" lon="8.41683">
        <ele>1378</ele>
        <time>2021-08-13T08:58:43.216Z</time>
      </trkpt>
      <trkpt lat="46.82824" lon="8.41681">
        <ele>1378</ele>
        <time>2021-08-13T08:58:44.215Z</time>
      </trkpt>
      <trkpt lat="46.82824" lon="8.4168">
        <ele>1378</ele>
        <time>2021-08-13T08:58:45.215Z</time>
      </trkpt>
      <trkpt lat="46.82822" lon="8.41678">
        <ele>1378</ele>
        <time>2021-08-13T08:58:46.216Z</time>
      </trkpt>
      <trkpt lat="46.82822" lon="8.41677">
        <ele>1378</ele>
        <time>2021-08-13T08:58:47.215Z</time>
      </trkpt>
      <trkpt lat="46.82821" lon="8.41677">
        <ele>1378</ele>
        <time>2021-08-13T08:58:48.215Z</time>
      </trkpt>
      <trkpt lat="46.8282" lon="8.41677">
        <ele>1377</ele>
        <time>2021-08-13T08:58:49.216Z</time>
      </trkpt>
      <trkpt lat="46.8282" lon="8.41677">
        <ele>1377</ele>
        <time>2021-08-13T08:58:50.216Z</time>
      </trkpt>
      <trkpt lat="46.82819" lon="8.41676">
        <ele>1377</ele>
        <time>2021-08-13T08:58:51.216Z</time>
      </trkpt>
      <trkpt lat="46.82818" lon="8.41676">
        <ele>1376</ele>
        <time>2021-08-13T08:58:52.216Z</time>
      </trkpt>
      <trkpt lat="46.82818" lon="8.41675">
        <ele>1376</ele>
        <time>2021-08-13T08:58:53.216Z</time>
      </trkpt>
      <trkpt lat="46.82817" lon="8.41675">
        <ele>1375</ele>
        <time>2021-08-13T08:58:54.215Z</time>
      </trkpt>
      <trkpt lat="46.82817" lon="8.41673">
        <ele>1374</ele>
        <time>2021-08-13T08:58:55.216Z</time>
      </trkpt>
      <trkpt lat="46.82816" lon="8.41672">
        <ele>1373</ele>
        <time>2021-08-13T08:58:56.216Z</time>
      </trkpt>
      <trkpt lat="46.82815" lon="8.41671">
        <ele>1373</ele>
        <time>2021-08-13T08:58:57.216Z</time>
      </trkpt>
      <trkpt lat="46.82813" lon="8.4167">
        <ele>1373</ele>
        <time>2021-08-13T08:58:58.216Z</time>
      </trkpt>
      <trkpt lat="46.82812" lon="8.41669">
        <ele>1373</ele>
        <time>2021-08-13T08:58:59.216Z</time>
      </trkpt>
      <trkpt lat="46.82811" lon="8.41668">
        <ele>1372</ele>
        <time>2021-08-13T08:59:00.215Z</time>
      </trkpt>
      <trkpt lat="46.8281" lon="8.41667">
        <ele>1372</ele>
        <time>2021-08-13T08:59:01.215Z</time>
      </trkpt>
      <trkpt lat="46.82809" lon="8.41666">
        <ele>1372</ele>
        <time>2021-08-13T08:59:02.216Z</time>
      </trkpt>
      <trkpt lat="46.82808" lon="8.41666">
        <ele>1372</ele>
        <time>2021-08-13T08:59:03.216Z</time>
      </trkpt>
      <trkpt lat="46.82807" lon="8.41665">
        <ele>1372</ele>
        <time>2021-08-13T08:59:04.215Z</time>
      </trkpt>
      <trkpt lat="46.82806" lon="8.41664">
        <ele>1372</ele>
        <time>2021-08-13T08:59:05.215Z</time>
      </trkpt>
      <trkpt lat="46.82805" lon="8.41663">
        <ele>1372</ele>
        <time>2021-08-13T08:59:06.216Z</time>
      </trkpt>
      <trkpt lat="46.82804" lon="8.41662">
        <ele>1372</ele>
        <time>2021-08-13T08:59:07.215Z</time>
      </trkpt>
      <trkpt lat="46.82803" lon="8.41661">
        <ele>1372</ele>
        <time>2021-08-13T08:59:08.215Z</time>
      </trkpt>
      <trkpt lat="46.82802" lon="8.4166">
        <ele>1372</ele>
        <time>2021-08-13T08:59:09.216Z</time>
      </trkpt>
      <trkpt lat="46.82802" lon="8.41659">
        <ele>1372</ele>
        <time>2021-08-13T08:59:10.216Z</time>
      </trkpt>
      <trkpt lat="46.82801" lon="8.41658">
        <ele>1372</ele>
        <time>2021-08-13T08:59:11.215Z</time>
      </trkpt>
      <trkpt lat="46.828" lon="8.41658">
        <ele>1372</ele>
        <time>2021-08-13T08:59:12.216Z</time>
      </trkpt>
      <trkpt lat="46.82801" lon="8.41658">
        <ele>1371</ele>
        <time>2021-08-13T08:59:13.216Z</time>
      </trkpt>
      <trkpt lat="46.82801" lon="8.41657">
        <ele>1370</ele>
        <time>2021-08-13T08:59:14.216Z</time>
      </trkpt>
      <trkpt lat="46.82801" lon="8.41656">
        <ele>1369</ele>
        <time>2021-08-13T08:59:15.216Z</time>
      </trkpt>
      <trkpt lat="46.82801" lon="8.41655">
        <ele>1368</ele>
        <time>2021-08-13T08:59:16.215Z</time>
      </trkpt>
      <trkpt lat="46.828" lon="8.41654">
        <ele>1367</ele>
        <time>2021-08-13T08:59:17.216Z</time>
      </trkpt>
      <trkpt lat="46.828" lon="8.41652">
        <ele>1365</ele>
        <time>2021-08-13T08:59:18.216Z</time>
      </trkpt>
      <trkpt lat="46.82801" lon="8.41652">
        <ele>1364</ele>
        <time>2021-08-13T08:59:19.216Z</time>
      </trkpt>
      <trkpt lat="46.828" lon="8.4165">
        <ele>1363</ele>
        <time>2021-08-13T08:59:20.216Z</time>
      </trkpt>
      <trkpt lat="46.828" lon="8.41649">
        <ele>1362</ele>
        <time>2021-08-13T08:59:21.216Z</time>
      </trkpt>
      <trkpt lat="46.82799" lon="8.41648">
        <ele>1361</ele>
        <time>2021-08-13T08:59:22.215Z</time>
      </trkpt>
      <trkpt lat="46.82799" lon="8.41647">
        <ele>1360</ele>
        <time>2021-08-13T08:59:23.216Z</time>
      </trkpt>
      <trkpt lat="46.828" lon="8.41646">
        <ele>1359</ele>
        <time>2021-08-13T08:59:24.216Z</time>
      </trkpt>
      <trkpt lat="46.82799" lon="8.41645">
        <ele>1358</ele>
        <time>2021-08-13T08:59:25.216Z</time>
      </trkpt>
      <trkpt lat="46.82799" lon="8.41644">
        <ele>1358</ele>
        <time>2021-08-13T08:59:26.216Z</time>
      </trkpt>
      <trkpt lat="46.828" lon="8.41643">
        <ele>1357</ele>
        <time>2021-08-13T08:59:27.216Z</time>
      </trkpt>
      <trkpt lat="46.828" lon="8.41642">
        <ele>1357</ele>
        <time>2021-08-13T08:59:28.215Z</time>
      </trkpt>
      <trkpt lat="46.82799" lon="8.41641">
        <ele>1356</ele>
        <time>2021-08-13T08:59:29.215Z</time>
      </trkpt>
      <trkpt lat="46.82799" lon="8.4164">
        <ele>1356</ele>
        <time>2021-08-13T08:59:30.216Z</time>
      </trkpt>
      <trkpt lat="46.82798" lon="8.41639">
        <ele>1356</ele>
        <time>2021-08-13T08:59:31.216Z</time>
      </trkpt>
      <trkpt lat="46.82798" lon="8.41638">
        <ele>1355</ele>
        <time>2021-08-13T08:59:32.216Z</time>
      </trkpt>
      <trkpt lat="46.82798" lon="8.41637">
        <ele>1354</ele>
        <time>2021-08-13T08:59:33.216Z</time>
      </trkpt>
      <trkpt lat="46.82797" lon="8.41635">
        <ele>1353</ele>
        <time>2021-08-13T08:59:34.215Z</time>
      </trkpt>
      <trkpt lat="46.82796" lon="8.41634">
        <ele>1352</ele>
        <time>2021-08-13T08:59:35.215Z</time>
      </trkpt>
      <trkpt lat="46.82796" lon="8.41633">
        <ele>1352</ele>
        <time>2021-08-13T08:59:36.215Z</time>
      </trkpt>
      <trkpt lat="46.82795" lon="8.41632">
        <ele>1351</ele>
        <time>2021-08-13T08:59:37.216Z</time>
      </trkpt>
      <trkpt lat="46.82795" lon="8.4163">
        <ele>1351</ele>
        <time>2021-08-13T08:59:38.216Z</time>
      </trkpt>
      <trkpt lat="46.82794" lon="8.41628">
        <ele>1350</ele>
        <time>2021-08-13T08:59:39.216Z</time>
      </trkpt>
      <trkpt lat="46.82794" lon="8.41627">
        <ele>1350</ele>
        <time>2021-08-13T08:59:40.216Z</time>
      </trkpt>
      <trkpt lat="46.82793" lon="8.41626">
        <ele>1351</ele>
        <time>2021-08-13T08:59:41.216Z</time>
      </trkpt>
      <trkpt lat="46.82792" lon="8.41625">
        <ele>1351</ele>
        <time>2021-08-13T08:59:42.215Z</time>
      </trkpt>
      <trkpt lat="46.82791" lon="8.41625">
        <ele>1351</ele>
        <time>2021-08-13T08:59:43.215Z</time>
      </trkpt>
      <trkpt lat="46.8279" lon="8.41624">
        <ele>1351</ele>
        <time>2021-08-13T08:59:44.216Z</time>
      </trkpt>
      <trkpt lat="46.82789" lon="8.41623">
        <ele>1350</ele>
        <time>2021-08-13T08:59:45.216Z</time>
      </trkpt>
      <trkpt lat="46.82788" lon="8.41623">
        <ele>1350</ele>
        <time>2021-08-13T08:59:46.216Z</time>
      </trkpt>
      <trkpt lat="46.82787" lon="8.41622">
        <ele>1349</ele>
        <time>2021-08-13T08:59:47.216Z</time>
      </trkpt>
      <trkpt lat="46.82787" lon="8.41622">
        <ele>1349</ele>
        <time>2021-08-13T08:59:48.215Z</time>
      </trkpt>
      <trkpt lat="46.82786" lon="8.41621">
        <ele>1349</ele>
        <time>2021-08-13T08:59:49.215Z</time>
      </trkpt>
      <trkpt lat="46.82785" lon="8.41621">
        <ele>1349</ele>
        <time>2021-08-13T08:59:50.216Z</time>
      </trkpt>
      <trkpt lat="46.82784" lon="8.4162">
        <ele>1349</ele>
        <time>2021-08-13T08:59:51.216Z</time>
      </trkpt>
      <trkpt lat="46.82783" lon="8.41619">
        <ele>1350</ele>
        <time>2021-08-13T08:59:52.216Z</time>
      </trkpt>
      <trkpt lat="46.82782" lon="8.41618">
        <ele>1350</ele>
        <time>2021-08-13T08:59:53.215Z</time>
      </trkpt>
      <trkpt lat="46.82781" lon="8.41618">
        <ele>1349</ele>
        <time>2021-08-13T08:59:54.215Z</time>
      </trkpt>
      <trkpt lat="46.8278" lon="8.41618">
        <ele>1350</ele>
        <time>2021-08-13T08:59:55.216Z</time>
      </trkpt>
      <trkpt lat="46.8278" lon="8.41618">
        <ele>1349</ele>
        <time>2021-08-13T08:59:56.215Z</time>
      </trkpt>
      <trkpt lat="46.82779" lon="8.41618">
        <ele>1349</ele>
        <time>2021-08-13T08:59:57.215Z</time>
      </trkpt>
      <trkpt lat="46.82779" lon="8.41618">
        <ele>1349</ele>
        <time>2021-08-13T08:59:58.216Z</time>
      </trkpt>
      <trkpt lat="46.82778" lon="8.41619">
        <ele>1349</ele>
        <time>2021-08-13T08:59:59.216Z</time>
      </trkpt>
      <trkpt lat="46.82777" lon="8.41619">
        <ele>1349</ele>
        <time>2021-08-13T09:00:00.216Z</time>
      </trkpt>
      <trkpt lat="46.82776" lon="8.41619">
        <ele>1348</ele>
        <time>2021-08-13T09:00:01.216Z</time>
      </trkpt>
      <trkpt lat="46.82775" lon="8.41619">
        <ele>1347</ele>
        <time>2021-08-13T09:00:02.215Z</time>
      </trkpt>
      <trkpt lat="46.82774" lon="8.41619">
        <ele>1346</ele>
        <time>2021-08-13T09:00:03.216Z</time>
      </trkpt>
      <trkpt lat="46.82774" lon="8.41618">
        <ele>1346</ele>
        <time>2021-08-13T09:00:04.216Z</time>
      </trkpt>
      <trkpt lat="46.82772" lon="8.41618">
        <ele>1346</ele>
        <time>2021-08-13T09:00:05.216Z</time>
      </trkpt>
      <trkpt lat="46.82771" lon="8.41618">
        <ele>1345</ele>
        <time>2021-08-13T09:00:06.216Z</time>
      </trkpt>
      <trkpt lat="46.8277" lon="8.41618">
        <ele>1345</ele>
        <time>2021-08-13T09:00:07.216Z</time>
      </trkpt>
      <trkpt lat="46.82769" lon="8.41618">
        <ele>1344</ele>
        <time>2021-08-13T09:00:08.216Z</time>
      </trkpt>
      <trkpt lat="46.82768" lon="8.41617">
        <ele>1344</ele>
        <time>2021-08-13T09:00:09.215Z</time>
      </trkpt>
      <trkpt lat="46.82767" lon="8.41616">
        <ele>1343</ele>
        <time>2021-08-13T09:00:10.215Z</time>
      </trkpt>
      <trkpt lat="46.82766" lon="8.41616">
        <ele>1343</ele>
        <time>2021-08-13T09:00:11.216Z</time>
      </trkpt>
      <trkpt lat="46.82765" lon="8.41616">
        <ele>1342</ele>
        <time>2021-08-13T09:00:12.216Z</time>
      </trkpt>
      <trkpt lat="46.82764" lon="8.41615">
        <ele>1342</ele>
        <time>2021-08-13T09:00:13.215Z</time>
      </trkpt>
      <trkpt lat="46.82762" lon="8.41615">
        <ele>1342</ele>
        <time>2021-08-13T09:00:14.216Z</time>
      </trkpt>
      <trkpt lat="46.82761" lon="8.41615">
        <ele>1342</ele>
        <time>2021-08-13T09:00:15.215Z</time>
      </trkpt>
      <trkpt lat="46.8276" lon="8.41615">
        <ele>1342</ele>
        <time>2021-08-13T09:00:16.215Z</time>
      </trkpt>
      <trkpt lat="46.82759" lon="8.41614">
        <ele>1341</ele>
        <time>2021-08-13T09:00:17.216Z</time>
      </trkpt>
      <trkpt lat="46.82758" lon="8.41614">
        <ele>1341</ele>
        <time>2021-08-13T09:00:18.216Z</time>
      </trkpt>
      <trkpt lat="46.82757" lon="8.41614">
        <ele>1342</ele>
        <time>2021-08-13T09:00:19.216Z</time>
      </trkpt>
      <trkpt lat="46.82756" lon="8.41613">
        <ele>1342</ele>
        <time>2021-08-13T09:00:20.215Z</time>
      </trkpt>
      <trkpt lat="46.82755" lon="8.41613">
        <ele>1342</ele>
        <time>2021-08-13T09:00:21.215Z</time>
      </trkpt>
      <trkpt lat="46.82754" lon="8.41613">
        <ele>1342</ele>
        <time>2021-08-13T09:00:22.215Z</time>
      </trkpt>
      <trkpt lat="46.82754" lon="8.41613">
        <ele>1342</ele>
        <time>2021-08-13T09:00:23.215Z</time>
      </trkpt>
      <trkpt lat="46.82753" lon="8.41612">
        <ele>1342</ele>
        <time>2021-08-13T09:00:24.215Z</time>
      </trkpt>
      <trkpt lat="46.82753" lon="8.41612">
        <ele>1342</ele>
        <time>2021-08-13T09:00:25.216Z</time>
      </trkpt>
      <trkpt lat="46.82753" lon="8.41611">
        <ele>1342</ele>
        <time>2021-08-13T09:00:26.216Z</time>
      </trkpt>
      <trkpt lat="46.82753" lon="8.41611">
        <ele>1341</ele>
        <time>2021-08-13T09:00:27.215Z</time>
      </trkpt>
      <trkpt lat="46.82753" lon="8.4161">
        <ele>1341</ele>
        <time>2021-08-13T09:00:28.216Z</time>
      </trkpt>
      <trkpt lat="46.82753" lon="8.41609">
        <ele>1341</ele>
        <time>2021-08-13T09:00:29.215Z</time>
      </trkpt>
      <trkpt lat="46.82753" lon="8.41608">
        <ele>1341</ele>
        <time>2021-08-13T09:00:30.216Z</time>
      </trkpt>
      <trkpt lat="46.82753" lon="8.41607">
        <ele>1340</ele>
        <time>2021-08-13T09:00:31.215Z</time>
      </trkpt>
      <trkpt lat="46.82754" lon="8.41607">
        <ele>1340</ele>
        <time>2021-08-13T09:00:32.216Z</time>
      </trkpt>
      <trkpt lat="46.8275" lon="8.41608">
        <ele>1337</ele>
        <time>2021-08-13T09:00:33.215Z</time>
      </trkpt>
      <trkpt lat="46.8275" lon="8.41607">
        <ele>1337</ele>
        <time>2021-08-13T09:00:34.215Z</time>
      </trkpt>
      <trkpt lat="46.82749" lon="8.41607">
        <ele>1336</ele>
        <time>2021-08-13T09:00:35.215Z</time>
      </trkpt>
      <trkpt lat="46.8275" lon="8.41605">
        <ele>1333</ele>
        <time>2021-08-13T09:00:36.215Z</time>
      </trkpt>
      <trkpt lat="46.82751" lon="8.41604">
        <ele>1333</ele>
        <time>2021-08-13T09:00:37.215Z</time>
      </trkpt>
      <trkpt lat="46.82751" lon="8.41602">
        <ele>1334</ele>
        <time>2021-08-13T09:00:38.216Z</time>
      </trkpt>
      <trkpt lat="46.82751" lon="8.41601">
        <ele>1334</ele>
        <time>2021-08-13T09:00:39.215Z</time>
      </trkpt>
      <trkpt lat="46.82751" lon="8.416">
        <ele>1335</ele>
        <time>2021-08-13T09:00:40.215Z</time>
      </trkpt>
      <trkpt lat="46.82751" lon="8.416">
        <ele>1335</ele>
        <time>2021-08-13T09:00:41.215Z</time>
      </trkpt>
      <trkpt lat="46.82751" lon="8.41599">
        <ele>1335</ele>
        <time>2021-08-13T09:00:42.215Z</time>
      </trkpt>
      <trkpt lat="46.8275" lon="8.41599">
        <ele>1335</ele>
        <time>2021-08-13T09:00:43.215Z</time>
      </trkpt>
      <trkpt lat="46.82751" lon="8.41597">
        <ele>1335</ele>
        <time>2021-08-13T09:00:44.215Z</time>
      </trkpt>
      <trkpt lat="46.82751" lon="8.41596">
        <ele>1335</ele>
        <time>2021-08-13T09:00:45.215Z</time>
      </trkpt>
      <trkpt lat="46.82751" lon="8.41595">
        <ele>1336</ele>
        <time>2021-08-13T09:00:46.215Z</time>
      </trkpt>
      <trkpt lat="46.82751" lon="8.41594">
        <ele>1335</ele>
        <time>2021-08-13T09:00:47.215Z</time>
      </trkpt>
      <trkpt lat="46.82751" lon="8.41593">
        <ele>1336</ele>
        <time>2021-08-13T09:00:48.215Z</time>
      </trkpt>
      <trkpt lat="46.82752" lon="8.41592">
        <ele>1336</ele>
        <time>2021-08-13T09:00:49.215Z</time>
      </trkpt>
      <trkpt lat="46.82752" lon="8.4159">
        <ele>1336</ele>
        <time>2021-08-13T09:00:50.215Z</time>
      </trkpt>
      <trkpt lat="46.82752" lon="8.41589">
        <ele>1336</ele>
        <time>2021-08-13T09:00:51.215Z</time>
      </trkpt>
      <trkpt lat="46.82752" lon="8.41588">
        <ele>1337</ele>
        <time>2021-08-13T09:00:52.215Z</time>
      </trkpt>
      <trkpt lat="46.82752" lon="8.41587">
        <ele>1337</ele>
        <time>2021-08-13T09:00:53.215Z</time>
      </trkpt>
      <trkpt lat="46.82752" lon="8.41586">
        <ele>1337</ele>
        <time>2021-08-13T09:00:54.215Z</time>
      </trkpt>
      <trkpt lat="46.82752" lon="8.41584">
        <ele>1337</ele>
        <time>2021-08-13T09:00:55.215Z</time>
      </trkpt>
      <trkpt lat="46.82753" lon="8.41583">
        <ele>1336</ele>
        <time>2021-08-13T09:00:56.215Z</time>
      </trkpt>
      <trkpt lat="46.82753" lon="8.41581">
        <ele>1336</ele>
        <time>2021-08-13T09:00:57.215Z</time>
      </trkpt>
      <trkpt lat="46.82754" lon="8.4158">
        <ele>1336</ele>
        <time>2021-08-13T09:00:58.216Z</time>
      </trkpt>
      <trkpt lat="46.82754" lon="8.41579">
        <ele>1335</ele>
        <time>2021-08-13T09:00:59.215Z</time>
      </trkpt>
      <trkpt lat="46.82755" lon="8.41578">
        <ele>1335</ele>
        <time>2021-08-13T09:01:00.215Z</time>
      </trkpt>
      <trkpt lat="46.82755" lon="8.41577">
        <ele>1335</ele>
        <time>2021-08-13T09:01:01.216Z</time>
      </trkpt>
      <trkpt lat="46.82755" lon="8.41576">
        <ele>1334</ele>
        <time>2021-08-13T09:01:02.216Z</time>
      </trkpt>
      <trkpt lat="46.82756" lon="8.41575">
        <ele>1334</ele>
        <time>2021-08-13T09:01:03.216Z</time>
      </trkpt>
      <trkpt lat="46.82756" lon="8.41573">
        <ele>1334</ele>
        <time>2021-08-13T09:01:04.215Z</time>
      </trkpt>
      <trkpt lat="46.82757" lon="8.41572">
        <ele>1334</ele>
        <time>2021-08-13T09:01:05.215Z</time>
      </trkpt>
      <trkpt lat="46.82758" lon="8.4157">
        <ele>1334</ele>
        <time>2021-08-13T09:01:06.216Z</time>
      </trkpt>
      <trkpt lat="46.82759" lon="8.41569">
        <ele>1334</ele>
        <time>2021-08-13T09:01:07.215Z</time>
      </trkpt>
      <trkpt lat="46.82759" lon="8.41568">
        <ele>1333</ele>
        <time>2021-08-13T09:01:08.216Z</time>
      </trkpt>
      <trkpt lat="46.82759" lon="8.41566">
        <ele>1333</ele>
        <time>2021-08-13T09:01:09.215Z</time>
      </trkpt>
      <trkpt lat="46.8276" lon="8.41565">
        <ele>1333</ele>
        <time>2021-08-13T09:01:10.215Z</time>
      </trkpt>
      <trkpt lat="46.82761" lon="8.41563">
        <ele>1332</ele>
        <time>2021-08-13T09:01:11.216Z</time>
      </trkpt>
      <trkpt lat="46.82761" lon="8.41562">
        <ele>1332</ele>
        <time>2021-08-13T09:01:12.216Z</time>
      </trkpt>
      <trkpt lat="46.82762" lon="8.4156">
        <ele>1332</ele>
        <time>2021-08-13T09:01:13.215Z</time>
      </trkpt>
      <trkpt lat="46.82762" lon="8.41559">
        <ele>1332</ele>
        <time>2021-08-13T09:01:14.215Z</time>
      </trkpt>
      <trkpt lat="46.82763" lon="8.41558">
        <ele>1332</ele>
        <time>2021-08-13T09:01:15.215Z</time>
      </trkpt>
      <trkpt lat="46.82763" lon="8.41558">
        <ele>1332</ele>
        <time>2021-08-13T09:01:16.215Z</time>
      </trkpt>
      <trkpt lat="46.82763" lon="8.41557">
        <ele>1333</ele>
        <time>2021-08-13T09:01:17.215Z</time>
      </trkpt>
      <trkpt lat="46.82764" lon="8.41556">
        <ele>1332</ele>
        <time>2021-08-13T09:01:18.216Z</time>
      </trkpt>
      <trkpt lat="46.82765" lon="8.41555">
        <ele>1332</ele>
        <time>2021-08-13T09:01:19.217Z</time>
      </trkpt>
      <trkpt lat="46.82765" lon="8.41554">
        <ele>1332</ele>
        <time>2021-08-13T09:01:20.217Z</time>
      </trkpt>
      <trkpt lat="46.82766" lon="8.41553">
        <ele>1332</ele>
        <time>2021-08-13T09:01:21.216Z</time>
      </trkpt>
      <trkpt lat="46.82766" lon="8.41552">
        <ele>1332</ele>
        <time>2021-08-13T09:01:22.216Z</time>
      </trkpt>
      <trkpt lat="46.82767" lon="8.4155">
        <ele>1332</ele>
        <time>2021-08-13T09:01:23.217Z</time>
      </trkpt>
      <trkpt lat="46.82767" lon="8.41549">
        <ele>1331</ele>
        <time>2021-08-13T09:01:24.217Z</time>
      </trkpt>
      <trkpt lat="46.82767" lon="8.41549">
        <ele>1330</ele>
        <time>2021-08-13T09:01:25.217Z</time>
      </trkpt>
      <trkpt lat="46.82769" lon="8.41549">
        <ele>1315</ele>
        <time>2021-08-13T09:01:26.217Z</time>
      </trkpt>
      <trkpt lat="46.8277" lon="8.41549">
        <ele>1314</ele>
        <time>2021-08-13T09:01:27.216Z</time>
      </trkpt>
      <trkpt lat="46.82771" lon="8.41547">
        <ele>1314</ele>
        <time>2021-08-13T09:01:28.217Z</time>
      </trkpt>
      <trkpt lat="46.82772" lon="8.41546">
        <ele>1315</ele>
        <time>2021-08-13T09:01:29.216Z</time>
      </trkpt>
      <trkpt lat="46.82772" lon="8.41546">
        <ele>1315</ele>
        <time>2021-08-13T09:01:30.216Z</time>
      </trkpt>
      <trkpt lat="46.82772" lon="8.41545">
        <ele>1315</ele>
        <time>2021-08-13T09:01:31.217Z</time>
      </trkpt>
      <trkpt lat="46.82772" lon="8.41543">
        <ele>1316</ele>
        <time>2021-08-13T09:01:32.216Z</time>
      </trkpt>
      <trkpt lat="46.82773" lon="8.41541">
        <ele>1316</ele>
        <time>2021-08-13T09:01:33.217Z</time>
      </trkpt>
      <trkpt lat="46.82773" lon="8.4154">
        <ele>1317</ele>
        <time>2021-08-13T09:01:34.216Z</time>
      </trkpt>
      <trkpt lat="46.82774" lon="8.41539">
        <ele>1317</ele>
        <time>2021-08-13T09:01:35.216Z</time>
      </trkpt>
      <trkpt lat="46.82774" lon="8.41538">
        <ele>1317</ele>
        <time>2021-08-13T09:01:36.216Z</time>
      </trkpt>
      <trkpt lat="46.82775" lon="8.41536">
        <ele>1317</ele>
        <time>2021-08-13T09:01:37.216Z</time>
      </trkpt>
      <trkpt lat="46.82774" lon="8.41535">
        <ele>1317</ele>
        <time>2021-08-13T09:01:38.216Z</time>
      </trkpt>
      <trkpt lat="46.82774" lon="8.41534">
        <ele>1318</ele>
        <time>2021-08-13T09:01:39.216Z</time>
      </trkpt>
      <trkpt lat="46.82774" lon="8.41533">
        <ele>1318</ele>
        <time>2021-08-13T09:01:40.216Z</time>
      </trkpt>
      <trkpt lat="46.82773" lon="8.41533">
        <ele>1319</ele>
        <time>2021-08-13T09:01:41.216Z</time>
      </trkpt>
      <trkpt lat="46.82772" lon="8.41533">
        <ele>1319</ele>
        <time>2021-08-13T09:01:42.216Z</time>
      </trkpt>
      <trkpt lat="46.8277" lon="8.41533">
        <ele>1320</ele>
        <time>2021-08-13T09:01:43.216Z</time>
      </trkpt>
      <trkpt lat="46.82768" lon="8.41532">
        <ele>1321</ele>
        <time>2021-08-13T09:01:44.216Z</time>
      </trkpt>
      <trkpt lat="46.82768" lon="8.41532">
        <ele>1321</ele>
        <time>2021-08-13T09:01:45.216Z</time>
      </trkpt>
      <trkpt lat="46.82767" lon="8.41532">
        <ele>1321</ele>
        <time>2021-08-13T09:01:46.216Z</time>
      </trkpt>
      <trkpt lat="46.82766" lon="8.41531">
        <ele>1322</ele>
        <time>2021-08-13T09:01:47.216Z</time>
      </trkpt>
      <trkpt lat="46.82766" lon="8.4153">
        <ele>1322</ele>
        <time>2021-08-13T09:01:48.217Z</time>
      </trkpt>
      <trkpt lat="46.82766" lon="8.41529">
        <ele>1322</ele>
        <time>2021-08-13T09:01:49.216Z</time>
      </trkpt>
      <trkpt lat="46.82766" lon="8.41529">
        <ele>1322</ele>
        <time>2021-08-13T09:01:50.216Z</time>
      </trkpt>
      <trkpt lat="46.82766" lon="8.41528">
        <ele>1323</ele>
        <time>2021-08-13T09:01:51.216Z</time>
      </trkpt>
      <trkpt lat="46.82766" lon="8.41528">
        <ele>1322</ele>
        <time>2021-08-13T09:01:52.217Z</time>
      </trkpt>
      <trkpt lat="46.82765" lon="8.41528">
        <ele>1322</ele>
        <time>2021-08-13T09:01:53.216Z</time>
      </trkpt>
      <trkpt lat="46.82764" lon="8.41529">
        <ele>1321</ele>
        <time>2021-08-13T09:01:54.216Z</time>
      </trkpt>
      <trkpt lat="46.82763" lon="8.4153">
        <ele>1321</ele>
        <time>2021-08-13T09:01:55.216Z</time>
      </trkpt>
      <trkpt lat="46.82763" lon="8.4153">
        <ele>1320</ele>
        <time>2021-08-13T09:01:56.216Z</time>
      </trkpt>
      <trkpt lat="46.82763" lon="8.4153">
        <ele>1320</ele>
        <time>2021-08-13T09:01:57.216Z</time>
      </trkpt>
      <trkpt lat="46.82763" lon="8.41531">
        <ele>1320</ele>
        <time>2021-08-13T09:01:58.216Z</time>
      </trkpt>
      <trkpt lat="46.82762" lon="8.41532">
        <ele>1319</ele>
        <time>2021-08-13T09:01:59.216Z</time>
      </trkpt>
      <trkpt lat="46.82761" lon="8.41532">
        <ele>1319</ele>
        <time>2021-08-13T09:02:00.216Z</time>
      </trkpt>
      <trkpt lat="46.82761" lon="8.41533">
        <ele>1319</ele>
        <time>2021-08-13T09:02:01.216Z</time>
      </trkpt>
      <trkpt lat="46.8276" lon="8.41534">
        <ele>1318</ele>
        <time>2021-08-13T09:02:02.216Z</time>
      </trkpt>
      <trkpt lat="46.8276" lon="8.41535">
        <ele>1318</ele>
        <time>2021-08-13T09:02:03.216Z</time>
      </trkpt>
      <trkpt lat="46.8276" lon="8.41535">
        <ele>1318</ele>
        <time>2021-08-13T09:02:04.217Z</time>
      </trkpt>
      <trkpt lat="46.82761" lon="8.41535">
        <ele>1318</ele>
        <time>2021-08-13T09:02:05.216Z</time>
      </trkpt>
      <trkpt lat="46.82761" lon="8.41535">
        <ele>1318</ele>
        <time>2021-08-13T09:02:06.216Z</time>
      </trkpt>
      <trkpt lat="46.82761" lon="8.41536">
        <ele>1318</ele>
        <time>2021-08-13T09:02:07.216Z</time>
      </trkpt>
      <trkpt lat="46.82762" lon="8.41535">
        <ele>1318</ele>
        <time>2021-08-13T09:02:08.216Z</time>
      </trkpt>
      <trkpt lat="46.82764" lon="8.41534">
        <ele>1318</ele>
        <time>2021-08-13T09:02:09.216Z</time>
      </trkpt>
      <trkpt lat="46.82765" lon="8.41534">
        <ele>1318</ele>
        <time>2021-08-13T09:02:10.216Z</time>
      </trkpt>
      <trkpt lat="46.82765" lon="8.41534">
        <ele>1318</ele>
        <time>2021-08-13T09:02:11.216Z</time>
      </trkpt>
      <trkpt lat="46.82766" lon="8.41533">
        <ele>1319</ele>
        <time>2021-08-13T09:02:12.216Z</time>
      </trkpt>
      <trkpt lat="46.82767" lon="8.41532">
        <ele>1319</ele>
        <time>2021-08-13T09:02:13.216Z</time>
      </trkpt>
      <trkpt lat="46.82768" lon="8.41531">
        <ele>1318</ele>
        <time>2021-08-13T09:02:14.216Z</time>
      </trkpt>
      <trkpt lat="46.82768" lon="8.41531">
        <ele>1318</ele>
        <time>2021-08-13T09:02:15.216Z</time>
      </trkpt>
      <trkpt lat="46.82769" lon="8.4153">
        <ele>1318</ele>
        <time>2021-08-13T09:02:16.216Z</time>
      </trkpt>
      <trkpt lat="46.8277" lon="8.4153">
        <ele>1319</ele>
        <time>2021-08-13T09:02:17.217Z</time>
      </trkpt>
      <trkpt lat="46.82771" lon="8.41528">
        <ele>1319</ele>
        <time>2021-08-13T09:02:18.216Z</time>
      </trkpt>
      <trkpt lat="46.8277" lon="8.41526">
        <ele>1319</ele>
        <time>2021-08-13T09:02:19.217Z</time>
      </trkpt>
      <trkpt lat="46.82769" lon="8.41524">
        <ele>1320</ele>
        <time>2021-08-13T09:02:20.216Z</time>
      </trkpt>
      <trkpt lat="46.82767" lon="8.41522">
        <ele>1320</ele>
        <time>2021-08-13T09:02:21.216Z</time>
      </trkpt>
      <trkpt lat="46.82767" lon="8.41521">
        <ele>1320</ele>
        <time>2021-08-13T09:02:22.216Z</time>
      </trkpt>
      <trkpt lat="46.82766" lon="8.41521">
        <ele>1321</ele>
        <time>2021-08-13T09:02:23.216Z</time>
      </trkpt>
      <trkpt lat="46.82765" lon="8.41521">
        <ele>1322</ele>
        <time>2021-08-13T09:02:24.216Z</time>
      </trkpt>
      <trkpt lat="46.82765" lon="8.4152">
        <ele>1322</ele>
        <time>2021-08-13T09:02:25.217Z</time>
      </trkpt>
      <trkpt lat="46.82764" lon="8.4152">
        <ele>1322</ele>
        <time>2021-08-13T09:02:26.216Z</time>
      </trkpt>
      <trkpt lat="46.82763" lon="8.41519">
        <ele>1323</ele>
        <time>2021-08-13T09:02:27.217Z</time>
      </trkpt>
      <trkpt lat="46.82762" lon="8.41519">
        <ele>1323</ele>
        <time>2021-08-13T09:02:28.216Z</time>
      </trkpt>
      <trkpt lat="46.82761" lon="8.41519">
        <ele>1324</ele>
        <time>2021-08-13T09:02:29.216Z</time>
      </trkpt>
      <trkpt lat="46.8276" lon="8.41519">
        <ele>1324</ele>
        <time>2021-08-13T09:02:30.216Z</time>
      </trkpt>
      <trkpt lat="46.82759" lon="8.41518">
        <ele>1324</ele>
        <time>2021-08-13T09:02:31.216Z</time>
      </trkpt>
      <trkpt lat="46.82758" lon="8.41517">
        <ele>1325</ele>
        <time>2021-08-13T09:02:32.216Z</time>
      </trkpt>
      <trkpt lat="46.82757" lon="8.41515">
        <ele>1325</ele>
        <time>2021-08-13T09:02:33.217Z</time>
      </trkpt>
      <trkpt lat="46.82756" lon="8.41514">
        <ele>1324</ele>
        <time>2021-08-13T09:02:34.216Z</time>
      </trkpt>
      <trkpt lat="46.82755" lon="8.41513">
        <ele>1324</ele>
        <time>2021-08-13T09:02:35.217Z</time>
      </trkpt>
      <trkpt lat="46.82753" lon="8.41514">
        <ele>1324</ele>
        <time>2021-08-13T09:02:36.217Z</time>
      </trkpt>
      <trkpt lat="46.82752" lon="8.41514">
        <ele>1324</ele>
        <time>2021-08-13T09:02:37.216Z</time>
      </trkpt>
      <trkpt lat="46.82751" lon="8.41514">
        <ele>1324</ele>
        <time>2021-08-13T09:02:38.216Z</time>
      </trkpt>
      <trkpt lat="46.8275" lon="8.41513">
        <ele>1324</ele>
        <time>2021-08-13T09:02:39.216Z</time>
      </trkpt>
      <trkpt lat="46.82749" lon="8.41513">
        <ele>1323</ele>
        <time>2021-08-13T09:02:40.216Z</time>
      </trkpt>
      <trkpt lat="46.8275" lon="8.41513">
        <ele>1323</ele>
        <time>2021-08-13T09:02:41.216Z</time>
      </trkpt>
      <trkpt lat="46.8275" lon="8.41513">
        <ele>1322</ele>
        <time>2021-08-13T09:02:42.216Z</time>
      </trkpt>
      <trkpt lat="46.82748" lon="8.41514">
        <ele>1319</ele>
        <time>2021-08-13T09:02:43.217Z</time>
      </trkpt>
      <trkpt lat="46.82748" lon="8.41514">
        <ele>1319</ele>
        <time>2021-08-13T09:02:44.217Z</time>
      </trkpt>
      <trkpt lat="46.82748" lon="8.41517">
        <ele>1317</ele>
        <time>2021-08-13T09:02:45.217Z</time>
      </trkpt>
      <trkpt lat="46.82748" lon="8.41518">
        <ele>1317</ele>
        <time>2021-08-13T09:02:46.218Z</time>
      </trkpt>
      <trkpt lat="46.82747" lon="8.41518">
        <ele>1316</ele>
        <time>2021-08-13T09:02:47.217Z</time>
      </trkpt>
      <trkpt lat="46.82748" lon="8.41518">
        <ele>1315</ele>
        <time>2021-08-13T09:02:48.218Z</time>
      </trkpt>
      <trkpt lat="46.82748" lon="8.41518">
        <ele>1315</ele>
        <time>2021-08-13T09:02:49.218Z</time>
      </trkpt>
      <trkpt lat="46.82748" lon="8.41518">
        <ele>1315</ele>
        <time>2021-08-13T09:02:50.217Z</time>
      </trkpt>
      <trkpt lat="46.82748" lon="8.41518">
        <ele>1314</ele>
        <time>2021-08-13T09:02:51.217Z</time>
      </trkpt>
      <trkpt lat="46.82749" lon="8.41518">
        <ele>1315</ele>
        <time>2021-08-13T09:02:52.218Z</time>
      </trkpt>
      <trkpt lat="46.82749" lon="8.41518">
        <ele>1315</ele>
        <time>2021-08-13T09:02:53.219Z</time>
      </trkpt>
      <trkpt lat="46.82747" lon="8.41518">
        <ele>1318</ele>
        <time>2021-08-13T09:02:54.219Z</time>
      </trkpt>
      <trkpt lat="46.82746" lon="8.41519">
        <ele>1318</ele>
        <time>2021-08-13T09:02:55.219Z</time>
      </trkpt>
      <trkpt lat="46.82744" lon="8.41518">
        <ele>1321</ele>
        <time>2021-08-13T09:02:56.218Z</time>
      </trkpt>
      <trkpt lat="46.82744" lon="8.41518">
        <ele>1321</ele>
        <time>2021-08-13T09:02:57.218Z</time>
      </trkpt>
      <trkpt lat="46.82741" lon="8.41517">
        <ele>1321</ele>
        <time>2021-08-13T09:02:58.219Z</time>
      </trkpt>
      <trkpt lat="46.82741" lon="8.41517">
        <ele>1320</ele>
        <time>2021-08-13T09:02:59.218Z</time>
      </trkpt>
      <trkpt lat="46.8274" lon="8.41517">
        <ele>1320</ele>
        <time>2021-08-13T09:03:00.218Z</time>
      </trkpt>
      <trkpt lat="46.8274" lon="8.41517">
        <ele>1320</ele>
        <time>2021-08-13T09:03:01.219Z</time>
      </trkpt>
      <trkpt lat="46.8274" lon="8.41517">
        <ele>1320</ele>
        <time>2021-08-13T09:03:02.219Z</time>
      </trkpt>
      <trkpt lat="46.8274" lon="8.41516">
        <ele>1320</ele>
        <time>2021-08-13T09:03:03.219Z</time>
      </trkpt>
      <trkpt lat="46.8274" lon="8.41516">
        <ele>1320</ele>
        <time>2021-08-13T09:03:04.219Z</time>
      </trkpt>
      <trkpt lat="46.82741" lon="8.41515">
        <ele>1320</ele>
        <time>2021-08-13T09:03:05.219Z</time>
      </trkpt>
      <trkpt lat="46.82742" lon="8.41515">
        <ele>1320</ele>
        <time>2021-08-13T09:03:06.218Z</time>
      </trkpt>
      <trkpt lat="46.82743" lon="8.41515">
        <ele>1319</ele>
        <time>2021-08-13T09:03:07.219Z</time>
      </trkpt>
      <trkpt lat="46.82743" lon="8.41515">
        <ele>1318</ele>
        <time>2021-08-13T09:03:08.219Z</time>
      </trkpt>
      <trkpt lat="46.82744" lon="8.41514">
        <ele>1318</ele>
        <time>2021-08-13T09:03:09.219Z</time>
      </trkpt>
      <trkpt lat="46.82745" lon="8.41514">
        <ele>1317</ele>
        <time>2021-08-13T09:03:10.219Z</time>
      </trkpt>
      <trkpt lat="46.82745" lon="8.41513">
        <ele>1316</ele>
        <time>2021-08-13T09:03:11.219Z</time>
      </trkpt>
      <trkpt lat="46.82746" lon="8.41512">
        <ele>1316</ele>
        <time>2021-08-13T09:03:12.219Z</time>
      </trkpt>
      <trkpt lat="46.82746" lon="8.41511">
        <ele>1315</ele>
        <time>2021-08-13T09:03:13.218Z</time>
      </trkpt>
      <trkpt lat="46.82747" lon="8.4151">
        <ele>1315</ele>
        <time>2021-08-13T09:03:14.218Z</time>
      </trkpt>
      <trkpt lat="46.82748" lon="8.4151">
        <ele>1314</ele>
        <time>2021-08-13T09:03:15.219Z</time>
      </trkpt>
      <trkpt lat="46.82748" lon="8.41509">
        <ele>1314</ele>
        <time>2021-08-13T09:03:16.218Z</time>
      </trkpt>
      <trkpt lat="46.82749" lon="8.41509">
        <ele>1314</ele>
        <time>2021-08-13T09:03:17.218Z</time>
      </trkpt>
      <trkpt lat="46.82749" lon="8.41508">
        <ele>1313</ele>
        <time>2021-08-13T09:03:18.218Z</time>
      </trkpt>
      <trkpt lat="46.8275" lon="8.41507">
        <ele>1313</ele>
        <time>2021-08-13T09:03:19.219Z</time>
      </trkpt>
      <trkpt lat="46.8275" lon="8.41507">
        <ele>1313</ele>
        <time>2021-08-13T09:03:20.219Z</time>
      </trkpt>
      <trkpt lat="46.82751" lon="8.41506">
        <ele>1313</ele>
        <time>2021-08-13T09:03:21.219Z</time>
      </trkpt>
      <trkpt lat="46.82751" lon="8.41506">
        <ele>1313</ele>
        <time>2021-08-13T09:03:22.219Z</time>
      </trkpt>
      <trkpt lat="46.82752" lon="8.41505">
        <ele>1313</ele>
        <time>2021-08-13T09:03:23.218Z</time>
      </trkpt>
      <trkpt lat="46.82754" lon="8.41505">
        <ele>1313</ele>
        <time>2021-08-13T09:03:24.219Z</time>
      </trkpt>
      <trkpt lat="46.82756" lon="8.41504">
        <ele>1314</ele>
        <time>2021-08-13T09:03:25.219Z</time>
      </trkpt>
      <trkpt lat="46.82757" lon="8.41504">
        <ele>1314</ele>
        <time>2021-08-13T09:03:26.218Z</time>
      </trkpt>
      <trkpt lat="46.82758" lon="8.41503">
        <ele>1315</ele>
        <time>2021-08-13T09:03:27.218Z</time>
      </trkpt>
      <trkpt lat="46.82759" lon="8.41502">
        <ele>1315</ele>
        <time>2021-08-13T09:03:28.219Z</time>
      </trkpt>
      <trkpt lat="46.8276" lon="8.415">
        <ele>1315</ele>
        <time>2021-08-13T09:03:29.219Z</time>
      </trkpt>
      <trkpt lat="46.82761" lon="8.41498">
        <ele>1316</ele>
        <time>2021-08-13T09:03:30.219Z</time>
      </trkpt>
      <trkpt lat="46.82763" lon="8.41497">
        <ele>1316</ele>
        <time>2021-08-13T09:03:31.219Z</time>
      </trkpt>
      <trkpt lat="46.82763" lon="8.41497">
        <ele>1316</ele>
        <time>2021-08-13T09:03:32.219Z</time>
      </trkpt>
      <trkpt lat="46.82763" lon="8.41497">
        <ele>1316</ele>
        <time>2021-08-13T09:03:33.219Z</time>
      </trkpt>
      <trkpt lat="46.82764" lon="8.41496">
        <ele>1316</ele>
        <time>2021-08-13T09:03:34.219Z</time>
      </trkpt>
      <trkpt lat="46.82763" lon="8.41496">
        <ele>1315</ele>
        <time>2021-08-13T09:03:35.218Z</time>
      </trkpt>
      <trkpt lat="46.82763" lon="8.41496">
        <ele>1315</ele>
        <time>2021-08-13T09:03:36.219Z</time>
      </trkpt>
      <trkpt lat="46.82762" lon="8.41496">
        <ele>1314</ele>
        <time>2021-08-13T09:03:37.219Z</time>
      </trkpt>
      <trkpt lat="46.82762" lon="8.41496">
        <ele>1314</ele>
        <time>2021-08-13T09:03:38.219Z</time>
      </trkpt>
      <trkpt lat="46.82761" lon="8.41496">
        <ele>1314</ele>
        <time>2021-08-13T09:03:39.218Z</time>
      </trkpt>
      <trkpt lat="46.8276" lon="8.41496">
        <ele>1314</ele>
        <time>2021-08-13T09:03:40.219Z</time>
      </trkpt>
      <trkpt lat="46.82759" lon="8.41496">
        <ele>1314</ele>
        <time>2021-08-13T09:03:41.218Z</time>
      </trkpt>
      <trkpt lat="46.82759" lon="8.41497">
        <ele>1315</ele>
        <time>2021-08-13T09:03:42.219Z</time>
      </trkpt>
      <trkpt lat="46.82758" lon="8.41497">
        <ele>1315</ele>
        <time>2021-08-13T09:03:43.218Z</time>
      </trkpt>
      <trkpt lat="46.82757" lon="8.41497">
        <ele>1316</ele>
        <time>2021-08-13T09:03:44.218Z</time>
      </trkpt>
      <trkpt lat="46.82756" lon="8.41496">
        <ele>1316</ele>
        <time>2021-08-13T09:03:45.219Z</time>
      </trkpt>
      <trkpt lat="46.82756" lon="8.41496">
        <ele>1317</ele>
        <time>2021-08-13T09:03:46.218Z</time>
      </trkpt>
      <trkpt lat="46.82755" lon="8.41496">
        <ele>1317</ele>
        <time>2021-08-13T09:03:47.218Z</time>
      </trkpt>
      <trkpt lat="46.82754" lon="8.41496">
        <ele>1317</ele>
        <time>2021-08-13T09:03:48.219Z</time>
      </trkpt>
      <trkpt lat="46.82753" lon="8.41496">
        <ele>1317</ele>
        <time>2021-08-13T09:03:49.218Z</time>
      </trkpt>
      <trkpt lat="46.82753" lon="8.41495">
        <ele>1316</ele>
        <time>2021-08-13T09:03:50.218Z</time>
      </trkpt>
      <trkpt lat="46.82752" lon="8.41495">
        <ele>1316</ele>
        <time>2021-08-13T09:03:51.218Z</time>
      </trkpt>
      <trkpt lat="46.8275" lon="8.41495">
        <ele>1316</ele>
        <time>2021-08-13T09:03:52.218Z</time>
      </trkpt>
      <trkpt lat="46.82749" lon="8.41494">
        <ele>1315</ele>
        <time>2021-08-13T09:03:53.219Z</time>
      </trkpt>
      <trkpt lat="46.82747" lon="8.41494">
        <ele>1315</ele>
        <time>2021-08-13T09:03:54.219Z</time>
      </trkpt>
      <trkpt lat="46.82746" lon="8.41493">
        <ele>1315</ele>
        <time>2021-08-13T09:03:55.218Z</time>
      </trkpt>
      <trkpt lat="46.82745" lon="8.41493">
        <ele>1315</ele>
        <time>2021-08-13T09:03:56.218Z</time>
      </trkpt>
      <trkpt lat="46.82745" lon="8.41493">
        <ele>1315</ele>
        <time>2021-08-13T09:03:57.218Z</time>
      </trkpt>
      <trkpt lat="46.82744" lon="8.41493">
        <ele>1315</ele>
        <time>2021-08-13T09:03:58.219Z</time>
      </trkpt>
      <trkpt lat="46.82743" lon="8.41493">
        <ele>1314</ele>
        <time>2021-08-13T09:03:59.219Z</time>
      </trkpt>
      <trkpt lat="46.82742" lon="8.41493">
        <ele>1314</ele>
        <time>2021-08-13T09:04:00.219Z</time>
      </trkpt>
      <trkpt lat="46.82742" lon="8.41494">
        <ele>1314</ele>
        <time>2021-08-13T09:04:01.218Z</time>
      </trkpt>
      <trkpt lat="46.82741" lon="8.41494">
        <ele>1314</ele>
        <time>2021-08-13T09:04:02.219Z</time>
      </trkpt>
      <trkpt lat="46.82741" lon="8.41494">
        <ele>1313</ele>
        <time>2021-08-13T09:04:03.219Z</time>
      </trkpt>
      <trkpt lat="46.82741" lon="8.41494">
        <ele>1313</ele>
        <time>2021-08-13T09:04:04.218Z</time>
      </trkpt>
      <trkpt lat="46.8274" lon="8.41494">
        <ele>1312</ele>
        <time>2021-08-13T09:04:05.219Z</time>
      </trkpt>
      <trkpt lat="46.82739" lon="8.41494">
        <ele>1311</ele>
        <time>2021-08-13T09:04:06.219Z</time>
      </trkpt>
      <trkpt lat="46.82738" lon="8.41494">
        <ele>1311</ele>
        <time>2021-08-13T09:04:07.219Z</time>
      </trkpt>
      <trkpt lat="46.82736" lon="8.41494">
        <ele>1310</ele>
        <time>2021-08-13T09:04:08.219Z</time>
      </trkpt>
      <trkpt lat="46.82733" lon="8.41493">
        <ele>1309</ele>
        <time>2021-08-13T09:04:09.219Z</time>
      </trkpt>
      <trkpt lat="46.82731" lon="8.41493">
        <ele>1309</ele>
        <time>2021-08-13T09:04:10.219Z</time>
      </trkpt>
      <trkpt lat="46.82731" lon="8.41494">
        <ele>1308</ele>
        <time>2021-08-13T09:04:11.219Z</time>
      </trkpt>
      <trkpt lat="46.82731" lon="8.41495">
        <ele>1308</ele>
        <time>2021-08-13T09:04:12.219Z</time>
      </trkpt>
      <trkpt lat="46.8273" lon="8.41496">
        <ele>1307</ele>
        <time>2021-08-13T09:04:13.218Z</time>
      </trkpt>
      <trkpt lat="46.82729" lon="8.41497">
        <ele>1307</ele>
        <time>2021-08-13T09:04:14.219Z</time>
      </trkpt>
      <trkpt lat="46.82729" lon="8.41498">
        <ele>1306</ele>
        <time>2021-08-13T09:04:15.219Z</time>
      </trkpt>
      <trkpt lat="46.82728" lon="8.41498">
        <ele>1306</ele>
        <time>2021-08-13T09:04:16.218Z</time>
      </trkpt>
      <trkpt lat="46.82728" lon="8.41499">
        <ele>1305</ele>
        <time>2021-08-13T09:04:17.219Z</time>
      </trkpt>
      <trkpt lat="46.82728" lon="8.415">
        <ele>1305</ele>
        <time>2021-08-13T09:04:18.218Z</time>
      </trkpt>
      <trkpt lat="46.82727" lon="8.41501">
        <ele>1305</ele>
        <time>2021-08-13T09:04:19.219Z</time>
      </trkpt>
      <trkpt lat="46.82727" lon="8.41502">
        <ele>1304</ele>
        <time>2021-08-13T09:04:20.218Z</time>
      </trkpt>
      <trkpt lat="46.82727" lon="8.41503">
        <ele>1304</ele>
        <time>2021-08-13T09:04:21.218Z</time>
      </trkpt>
      <trkpt lat="46.82726" lon="8.41504">
        <ele>1304</ele>
        <time>2021-08-13T09:04:22.218Z</time>
      </trkpt>
      <trkpt lat="46.82724" lon="8.41503">
        <ele>1304</ele>
        <time>2021-08-13T09:04:23.219Z</time>
      </trkpt>
      <trkpt lat="46.82723" lon="8.41502">
        <ele>1304</ele>
        <time>2021-08-13T09:04:24.219Z</time>
      </trkpt>
      <trkpt lat="46.82722" lon="8.41502">
        <ele>1303</ele>
        <time>2021-08-13T09:04:25.218Z</time>
      </trkpt>
      <trkpt lat="46.82722" lon="8.41502">
        <ele>1303</ele>
        <time>2021-08-13T09:04:26.218Z</time>
      </trkpt>
      <trkpt lat="46.82721" lon="8.41502">
        <ele>1303</ele>
        <time>2021-08-13T09:04:27.218Z</time>
      </trkpt>
      <trkpt lat="46.8272" lon="8.41502">
        <ele>1303</ele>
        <time>2021-08-13T09:04:28.218Z</time>
      </trkpt>
      <trkpt lat="46.82719" lon="8.41502">
        <ele>1302</ele>
        <time>2021-08-13T09:04:29.219Z</time>
      </trkpt>
      <trkpt lat="46.82718" lon="8.41502">
        <ele>1301</ele>
        <time>2021-08-13T09:04:30.219Z</time>
      </trkpt>
      <trkpt lat="46.82718" lon="8.41502">
        <ele>1300</ele>
        <time>2021-08-13T09:04:31.219Z</time>
      </trkpt>
      <trkpt lat="46.82717" lon="8.41502">
        <ele>1299</ele>
        <time>2021-08-13T09:04:32.219Z</time>
      </trkpt>
      <trkpt lat="46.82717" lon="8.41502">
        <ele>1298</ele>
        <time>2021-08-13T09:04:33.218Z</time>
      </trkpt>
      <trkpt lat="46.82716" lon="8.41502">
        <ele>1297</ele>
        <time>2021-08-13T09:04:34.219Z</time>
      </trkpt>
      <trkpt lat="46.82715" lon="8.41502">
        <ele>1297</ele>
        <time>2021-08-13T09:04:35.219Z</time>
      </trkpt>
      <trkpt lat="46.82714" lon="8.41502">
        <ele>1296</ele>
        <time>2021-08-13T09:04:36.219Z</time>
      </trkpt>
      <trkpt lat="46.82713" lon="8.41501">
        <ele>1296</ele>
        <time>2021-08-13T09:04:37.219Z</time>
      </trkpt>
      <trkpt lat="46.82712" lon="8.41501">
        <ele>1295</ele>
        <time>2021-08-13T09:04:38.219Z</time>
      </trkpt>
      <trkpt lat="46.82711" lon="8.41501">
        <ele>1295</ele>
        <time>2021-08-13T09:04:39.218Z</time>
      </trkpt>
      <trkpt lat="46.8271" lon="8.415">
        <ele>1295</ele>
        <time>2021-08-13T09:04:40.218Z</time>
      </trkpt>
      <trkpt lat="46.82708" lon="8.415">
        <ele>1296</ele>
        <time>2021-08-13T09:04:41.218Z</time>
      </trkpt>
      <trkpt lat="46.82708" lon="8.415">
        <ele>1296</ele>
        <time>2021-08-13T09:04:42.219Z</time>
      </trkpt>
      <trkpt lat="46.82707" lon="8.415">
        <ele>1297</ele>
        <time>2021-08-13T09:04:43.219Z</time>
      </trkpt>
      <trkpt lat="46.82706" lon="8.41499">
        <ele>1297</ele>
        <time>2021-08-13T09:04:44.218Z</time>
      </trkpt>
      <trkpt lat="46.82705" lon="8.41498">
        <ele>1298</ele>
        <time>2021-08-13T09:04:45.219Z</time>
      </trkpt>
      <trkpt lat="46.82704" lon="8.41498">
        <ele>1298</ele>
        <time>2021-08-13T09:04:46.218Z</time>
      </trkpt>
      <trkpt lat="46.82704" lon="8.41498">
        <ele>1298</ele>
        <time>2021-08-13T09:04:47.219Z</time>
      </trkpt>
      <trkpt lat="46.82703" lon="8.41498">
        <ele>1297</ele>
        <time>2021-08-13T09:04:48.218Z</time>
      </trkpt>
      <trkpt lat="46.82702" lon="8.41498">
        <ele>1297</ele>
        <time>2021-08-13T09:04:49.219Z</time>
      </trkpt>
      <trkpt lat="46.82701" lon="8.41498">
        <ele>1297</ele>
        <time>2021-08-13T09:04:50.219Z</time>
      </trkpt>
      <trkpt lat="46.82701" lon="8.41498">
        <ele>1297</ele>
        <time>2021-08-13T09:04:51.219Z</time>
      </trkpt>
      <trkpt lat="46.827" lon="8.41498">
        <ele>1297</ele>
        <time>2021-08-13T09:04:52.219Z</time>
      </trkpt>
      <trkpt lat="46.82699" lon="8.41498">
        <ele>1297</ele>
        <time>2021-08-13T09:04:53.218Z</time>
      </trkpt>
      <trkpt lat="46.82699" lon="8.41499">
        <ele>1297</ele>
        <time>2021-08-13T09:04:54.218Z</time>
      </trkpt>
      <trkpt lat="46.82698" lon="8.41499">
        <ele>1296</ele>
        <time>2021-08-13T09:04:55.219Z</time>
      </trkpt>
      <trkpt lat="46.82697" lon="8.415">
        <ele>1296</ele>
        <time>2021-08-13T09:04:56.219Z</time>
      </trkpt>
      <trkpt lat="46.82696" lon="8.41501">
        <ele>1296</ele>
        <time>2021-08-13T09:04:57.218Z</time>
      </trkpt>
      <trkpt lat="46.82695" lon="8.41501">
        <ele>1296</ele>
        <time>2021-08-13T09:04:58.219Z</time>
      </trkpt>
      <trkpt lat="46.82694" lon="8.41501">
        <ele>1296</ele>
        <time>2021-08-13T09:04:59.218Z</time>
      </trkpt>
      <trkpt lat="46.82692" lon="8.415">
        <ele>1296</ele>
        <time>2021-08-13T09:05:00.218Z</time>
      </trkpt>
      <trkpt lat="46.8269" lon="8.41499">
        <ele>1296</ele>
        <time>2021-08-13T09:05:01.218Z</time>
      </trkpt>
      <trkpt lat="46.82689" lon="8.41498">
        <ele>1296</ele>
        <time>2021-08-13T09:05:02.219Z</time>
      </trkpt>
      <trkpt lat="46.82689" lon="8.41498">
        <ele>1296</ele>
        <time>2021-08-13T09:05:03.218Z</time>
      </trkpt>
      <trkpt lat="46.82688" lon="8.415">
        <ele>1296</ele>
        <time>2021-08-13T09:05:04.218Z</time>
      </trkpt>
      <trkpt lat="46.82688" lon="8.415">
        <ele>1296</ele>
        <time>2021-08-13T09:05:05.219Z</time>
      </trkpt>
      <trkpt lat="46.82687" lon="8.41501">
        <ele>1296</ele>
        <time>2021-08-13T09:05:06.218Z</time>
      </trkpt>
      <trkpt lat="46.82686" lon="8.41501">
        <ele>1296</ele>
        <time>2021-08-13T09:05:07.218Z</time>
      </trkpt>
      <trkpt lat="46.82685" lon="8.41502">
        <ele>1296</ele>
        <time>2021-08-13T09:05:08.218Z</time>
      </trkpt>
      <trkpt lat="46.82685" lon="8.41501">
        <ele>1296</ele>
        <time>2021-08-13T09:05:09.219Z</time>
      </trkpt>
      <trkpt lat="46.82685" lon="8.41501">
        <ele>1296</ele>
        <time>2021-08-13T09:05:10.218Z</time>
      </trkpt>
      <trkpt lat="46.82684" lon="8.41501">
        <ele>1295</ele>
        <time>2021-08-13T09:05:11.219Z</time>
      </trkpt>
      <trkpt lat="46.82685" lon="8.41501">
        <ele>1295</ele>
        <time>2021-08-13T09:05:12.219Z</time>
      </trkpt>
      <trkpt lat="46.82685" lon="8.41501">
        <ele>1295</ele>
        <time>2021-08-13T09:05:13.218Z</time>
      </trkpt>
      <trkpt lat="46.82686" lon="8.41501">
        <ele>1295</ele>
        <time>2021-08-13T09:05:14.219Z</time>
      </trkpt>
      <trkpt lat="46.82686" lon="8.415">
        <ele>1295</ele>
        <time>2021-08-13T09:05:15.219Z</time>
      </trkpt>
      <trkpt lat="46.82687" lon="8.415">
        <ele>1295</ele>
        <time>2021-08-13T09:05:16.218Z</time>
      </trkpt>
      <trkpt lat="46.82688" lon="8.41499">
        <ele>1294</ele>
        <time>2021-08-13T09:05:17.219Z</time>
      </trkpt>
      <trkpt lat="46.82688" lon="8.41499">
        <ele>1294</ele>
        <time>2021-08-13T09:05:18.219Z</time>
      </trkpt>
      <trkpt lat="46.82689" lon="8.41499">
        <ele>1294</ele>
        <time>2021-08-13T09:05:19.218Z</time>
      </trkpt>
      <trkpt lat="46.82689" lon="8.41498">
        <ele>1294</ele>
        <time>2021-08-13T09:05:20.218Z</time>
      </trkpt>
      <trkpt lat="46.82689" lon="8.41498">
        <ele>1293</ele>
        <time>2021-08-13T09:05:21.219Z</time>
      </trkpt>
      <trkpt lat="46.8269" lon="8.41497">
        <ele>1293</ele>
        <time>2021-08-13T09:05:22.219Z</time>
      </trkpt>
      <trkpt lat="46.82691" lon="8.41497">
        <ele>1292</ele>
        <time>2021-08-13T09:05:23.218Z</time>
      </trkpt>
      <trkpt lat="46.82692" lon="8.41496">
        <ele>1292</ele>
        <time>2021-08-13T09:05:24.219Z</time>
      </trkpt>
      <trkpt lat="46.82693" lon="8.41496">
        <ele>1292</ele>
        <time>2021-08-13T09:05:25.219Z</time>
      </trkpt>
      <trkpt lat="46.82693" lon="8.41496">
        <ele>1291</ele>
        <time>2021-08-13T09:05:26.218Z</time>
      </trkpt>
      <trkpt lat="46.82694" lon="8.41494">
        <ele>1291</ele>
        <time>2021-08-13T09:05:27.218Z</time>
      </trkpt>
      <trkpt lat="46.82695" lon="8.41494">
        <ele>1291</ele>
        <time>2021-08-13T09:05:28.218Z</time>
      </trkpt>
      <trkpt lat="46.82696" lon="8.41493">
        <ele>1290</ele>
        <time>2021-08-13T09:05:29.218Z</time>
      </trkpt>
      <trkpt lat="46.82697" lon="8.41492">
        <ele>1290</ele>
        <time>2021-08-13T09:05:30.218Z</time>
      </trkpt>
      <trkpt lat="46.82698" lon="8.41492">
        <ele>1289</ele>
        <time>2021-08-13T09:05:31.219Z</time>
      </trkpt>
      <trkpt lat="46.82698" lon="8.41491">
        <ele>1289</ele>
        <time>2021-08-13T09:05:32.218Z</time>
      </trkpt>
      <trkpt lat="46.827" lon="8.41491">
        <ele>1288</ele>
        <time>2021-08-13T09:05:33.219Z</time>
      </trkpt>
      <trkpt lat="46.82701" lon="8.4149">
        <ele>1287</ele>
        <time>2021-08-13T09:05:34.218Z</time>
      </trkpt>
      <trkpt lat="46.82702" lon="8.41488">
        <ele>1287</ele>
        <time>2021-08-13T09:05:35.218Z</time>
      </trkpt>
      <trkpt lat="46.82702" lon="8.41487">
        <ele>1286</ele>
        <time>2021-08-13T09:05:36.219Z</time>
      </trkpt>
      <trkpt lat="46.82702" lon="8.41487">
        <ele>1286</ele>
        <time>2021-08-13T09:05:37.218Z</time>
      </trkpt>
      <trkpt lat="46.82703" lon="8.41486">
        <ele>1285</ele>
        <time>2021-08-13T09:05:38.218Z</time>
      </trkpt>
      <trkpt lat="46.82704" lon="8.41486">
        <ele>1285</ele>
        <time>2021-08-13T09:05:39.218Z</time>
      </trkpt>
      <trkpt lat="46.82705" lon="8.41486">
        <ele>1284</ele>
        <time>2021-08-13T09:05:40.218Z</time>
      </trkpt>
      <trkpt lat="46.82705" lon="8.41485">
        <ele>1283</ele>
        <time>2021-08-13T09:05:41.218Z</time>
      </trkpt>
      <trkpt lat="46.82706" lon="8.41485">
        <ele>1283</ele>
        <time>2021-08-13T09:05:42.218Z</time>
      </trkpt>
      <trkpt lat="46.82708" lon="8.41484">
        <ele>1283</ele>
        <time>2021-08-13T09:05:43.219Z</time>
      </trkpt>
      <trkpt lat="46.82709" lon="8.41483">
        <ele>1282</ele>
        <time>2021-08-13T09:05:44.218Z</time>
      </trkpt>
      <trkpt lat="46.8271" lon="8.41482">
        <ele>1282</ele>
        <time>2021-08-13T09:05:45.219Z</time>
      </trkpt>
      <trkpt lat="46.8271" lon="8.41482">
        <ele>1282</ele>
        <time>2021-08-13T09:05:46.218Z</time>
      </trkpt>
      <trkpt lat="46.8271" lon="8.41482">
        <ele>1282</ele>
        <time>2021-08-13T09:05:47.218Z</time>
      </trkpt>
      <trkpt lat="46.82711" lon="8.41482">
        <ele>1281</ele>
        <time>2021-08-13T09:05:48.218Z</time>
      </trkpt>
      <trkpt lat="46.82711" lon="8.41482">
        <ele>1281</ele>
        <time>2021-08-13T09:05:49.218Z</time>
      </trkpt>
      <trkpt lat="46.82712" lon="8.41481">
        <ele>1281</ele>
        <time>2021-08-13T09:05:50.218Z</time>
      </trkpt>
      <trkpt lat="46.82712" lon="8.41481">
        <ele>1281</ele>
        <time>2021-08-13T09:05:51.218Z</time>
      </trkpt>
      <trkpt lat="46.82713" lon="8.41481">
        <ele>1281</ele>
        <time>2021-08-13T09:05:52.219Z</time>
      </trkpt>
      <trkpt lat="46.82713" lon="8.41481">
        <ele>1281</ele>
        <time>2021-08-13T09:05:53.219Z</time>
      </trkpt>
      <trkpt lat="46.82714" lon="8.41481">
        <ele>1281</ele>
        <time>2021-08-13T09:05:54.219Z</time>
      </trkpt>
      <trkpt lat="46.82716" lon="8.41479">
        <ele>1281</ele>
        <time>2021-08-13T09:05:55.219Z</time>
      </trkpt>
      <trkpt lat="46.82716" lon="8.41479">
        <ele>1281</ele>
        <time>2021-08-13T09:05:56.218Z</time>
      </trkpt>
      <trkpt lat="46.82717" lon="8.41478">
        <ele>1281</ele>
        <time>2021-08-13T09:05:57.219Z</time>
      </trkpt>
      <trkpt lat="46.82717" lon="8.41478">
        <ele>1281</ele>
        <time>2021-08-13T09:05:58.219Z</time>
      </trkpt>
      <trkpt lat="46.82717" lon="8.41477">
        <ele>1281</ele>
        <time>2021-08-13T09:05:59.218Z</time>
      </trkpt>
      <trkpt lat="46.82718" lon="8.41476">
        <ele>1281</ele>
        <time>2021-08-13T09:06:00.218Z</time>
      </trkpt>
      <trkpt lat="46.82719" lon="8.41476">
        <ele>1281</ele>
        <time>2021-08-13T09:06:01.219Z</time>
      </trkpt>
      <trkpt lat="46.8272" lon="8.41475">
        <ele>1281</ele>
        <time>2021-08-13T09:06:02.219Z</time>
      </trkpt>
      <trkpt lat="46.82722" lon="8.41475">
        <ele>1281</ele>
        <time>2021-08-13T09:06:03.218Z</time>
      </trkpt>
      <trkpt lat="46.82723" lon="8.41475">
        <ele>1281</ele>
        <time>2021-08-13T09:06:04.219Z</time>
      </trkpt>
      <trkpt lat="46.82723" lon="8.41475">
        <ele>1281</ele>
        <time>2021-08-13T09:06:05.219Z</time>
      </trkpt>
      <trkpt lat="46.82724" lon="8.41475">
        <ele>1281</ele>
        <time>2021-08-13T09:06:06.219Z</time>
      </trkpt>
      <trkpt lat="46.82724" lon="8.41475">
        <ele>1281</ele>
        <time>2021-08-13T09:06:07.218Z</time>
      </trkpt>
      <trkpt lat="46.82725" lon="8.41475">
        <ele>1281</ele>
        <time>2021-08-13T09:06:08.219Z</time>
      </trkpt>
      <trkpt lat="46.82725" lon="8.41475">
        <ele>1281</ele>
        <time>2021-08-13T09:06:09.219Z</time>
      </trkpt>
      <trkpt lat="46.82726" lon="8.41475">
        <ele>1282</ele>
        <time>2021-08-13T09:06:10.219Z</time>
      </trkpt>
      <trkpt lat="46.82726" lon="8.41475">
        <ele>1282</ele>
        <time>2021-08-13T09:06:11.219Z</time>
      </trkpt>
      <trkpt lat="46.82727" lon="8.41474">
        <ele>1282</ele>
        <time>2021-08-13T09:06:12.219Z</time>
      </trkpt>
      <trkpt lat="46.82727" lon="8.41473">
        <ele>1283</ele>
        <time>2021-08-13T09:06:13.219Z</time>
      </trkpt>
      <trkpt lat="46.82727" lon="8.41471">
        <ele>1283</ele>
        <time>2021-08-13T09:06:14.218Z</time>
      </trkpt>
      <trkpt lat="46.82727" lon="8.4147">
        <ele>1284</ele>
        <time>2021-08-13T09:06:15.219Z</time>
      </trkpt>
      <trkpt lat="46.82728" lon="8.41468">
        <ele>1284</ele>
        <time>2021-08-13T09:06:16.219Z</time>
      </trkpt>
      <trkpt lat="46.82729" lon="8.41466">
        <ele>1284</ele>
        <time>2021-08-13T09:06:17.218Z</time>
      </trkpt>
      <trkpt lat="46.8273" lon="8.41465">
        <ele>1285</ele>
        <time>2021-08-13T09:06:18.218Z</time>
      </trkpt>
      <trkpt lat="46.8273" lon="8.41465">
        <ele>1285</ele>
        <time>2021-08-13T09:06:19.218Z</time>
      </trkpt>
      <trkpt lat="46.82732" lon="8.41464">
        <ele>1286</ele>
        <time>2021-08-13T09:06:20.218Z</time>
      </trkpt>
      <trkpt lat="46.82732" lon="8.41464">
        <ele>1286</ele>
        <time>2021-08-13T09:06:21.219Z</time>
      </trkpt>
      <trkpt lat="46.82732" lon="8.41463">
        <ele>1287</ele>
        <time>2021-08-13T09:06:22.218Z</time>
      </trkpt>
      <trkpt lat="46.82731" lon="8.41462">
        <ele>1287</ele>
        <time>2021-08-13T09:06:23.218Z</time>
      </trkpt>
      <trkpt lat="46.8273" lon="8.41461">
        <ele>1288</ele>
        <time>2021-08-13T09:06:24.218Z</time>
      </trkpt>
      <trkpt lat="46.82728" lon="8.41461">
        <ele>1289</ele>
        <time>2021-08-13T09:06:25.219Z</time>
      </trkpt>
      <trkpt lat="46.82727" lon="8.4146">
        <ele>1289</ele>
        <time>2021-08-13T09:06:26.219Z</time>
      </trkpt>
      <trkpt lat="46.82726" lon="8.4146">
        <ele>1290</ele>
        <time>2021-08-13T09:06:27.219Z</time>
      </trkpt>
      <trkpt lat="46.82725" lon="8.41459">
        <ele>1291</ele>
        <time>2021-08-13T09:06:28.219Z</time>
      </trkpt>
      <trkpt lat="46.82725" lon="8.41458">
        <ele>1291</ele>
        <time>2021-08-13T09:06:29.219Z</time>
      </trkpt>
      <trkpt lat="46.82724" lon="8.41458">
        <ele>1292</ele>
        <time>2021-08-13T09:06:30.219Z</time>
      </trkpt>
      <trkpt lat="46.82723" lon="8.41456">
        <ele>1292</ele>
        <time>2021-08-13T09:06:31.218Z</time>
      </trkpt>
      <trkpt lat="46.82722" lon="8.41455">
        <ele>1293</ele>
        <time>2021-08-13T09:06:32.219Z</time>
      </trkpt>
      <trkpt lat="46.8272" lon="8.41454">
        <ele>1293</ele>
        <time>2021-08-13T09:06:33.219Z</time>
      </trkpt>
      <trkpt lat="46.82719" lon="8.41452">
        <ele>1294</ele>
        <time>2021-08-13T09:06:34.219Z</time>
      </trkpt>
      <trkpt lat="46.82719" lon="8.41451">
        <ele>1294</ele>
        <time>2021-08-13T09:06:35.219Z</time>
      </trkpt>
      <trkpt lat="46.82718" lon="8.41449">
        <ele>1294</ele>
        <time>2021-08-13T09:06:36.219Z</time>
      </trkpt>
      <trkpt lat="46.82716" lon="8.41446">
        <ele>1295</ele>
        <time>2021-08-13T09:06:37.218Z</time>
      </trkpt>
      <trkpt lat="46.82715" lon="8.41442">
        <ele>1295</ele>
        <time>2021-08-13T09:06:38.219Z</time>
      </trkpt>
      <trkpt lat="46.82713" lon="8.41439">
        <ele>1296</ele>
        <time>2021-08-13T09:06:39.219Z</time>
      </trkpt>
      <trkpt lat="46.8271" lon="8.41437">
        <ele>1296</ele>
        <time>2021-08-13T09:06:40.219Z</time>
      </trkpt>
      <trkpt lat="46.82708" lon="8.41436">
        <ele>1296</ele>
        <time>2021-08-13T09:06:41.218Z</time>
      </trkpt>
      <trkpt lat="46.82707" lon="8.41436">
        <ele>1297</ele>
        <time>2021-08-13T09:06:42.219Z</time>
      </trkpt>
      <trkpt lat="46.82706" lon="8.41435">
        <ele>1298</ele>
        <time>2021-08-13T09:06:43.219Z</time>
      </trkpt>
      <trkpt lat="46.82704" lon="8.41435">
        <ele>1298</ele>
        <time>2021-08-13T09:06:44.219Z</time>
      </trkpt>
      <trkpt lat="46.82703" lon="8.41435">
        <ele>1299</ele>
        <time>2021-08-13T09:06:45.219Z</time>
      </trkpt>
      <trkpt lat="46.82701" lon="8.41434">
        <ele>1299</ele>
        <time>2021-08-13T09:06:46.218Z</time>
      </trkpt>
      <trkpt lat="46.827" lon="8.41435">
        <ele>1299</ele>
        <time>2021-08-13T09:06:47.219Z</time>
      </trkpt>
      <trkpt lat="46.82698" lon="8.41434">
        <ele>1300</ele>
        <time>2021-08-13T09:06:48.219Z</time>
      </trkpt>
      <trkpt lat="46.82697" lon="8.41434">
        <ele>1300</ele>
        <time>2021-08-13T09:06:49.218Z</time>
      </trkpt>
      <trkpt lat="46.82697" lon="8.41432">
        <ele>1301</ele>
        <time>2021-08-13T09:06:50.219Z</time>
      </trkpt>
      <trkpt lat="46.82696" lon="8.41432">
        <ele>1301</ele>
        <time>2021-08-13T09:06:51.219Z</time>
      </trkpt>
      <trkpt lat="46.82696" lon="8.41431">
        <ele>1302</ele>
        <time>2021-08-13T09:06:52.219Z</time>
      </trkpt>
      <trkpt lat="46.82695" lon="8.4143">
        <ele>1302</ele>
        <time>2021-08-13T09:06:53.219Z</time>
      </trkpt>
      <trkpt lat="46.82695" lon="8.4143">
        <ele>1302</ele>
        <time>2021-08-13T09:06:54.218Z</time>
      </trkpt>
      <trkpt lat="46.82695" lon="8.41431">
        <ele>1303</ele>
        <time>2021-08-13T09:06:55.218Z</time>
      </trkpt>
      <trkpt lat="46.82694" lon="8.4143">
        <ele>1304</ele>
        <time>2021-08-13T09:06:56.219Z</time>
      </trkpt>
      <trkpt lat="46.82694" lon="8.41429">
        <ele>1304</ele>
        <time>2021-08-13T09:06:57.219Z</time>
      </trkpt>
      <trkpt lat="46.82693" lon="8.41427">
        <ele>1305</ele>
        <time>2021-08-13T09:06:58.218Z</time>
      </trkpt>
      <trkpt lat="46.82691" lon="8.41426">
        <ele>1305</ele>
        <time>2021-08-13T09:06:59.219Z</time>
      </trkpt>
      <trkpt lat="46.82689" lon="8.41426">
        <ele>1306</ele>
        <time>2021-08-13T09:07:00.219Z</time>
      </trkpt>
      <trkpt lat="46.82688" lon="8.41426">
        <ele>1307</ele>
        <time>2021-08-13T09:07:01.219Z</time>
      </trkpt>
      <trkpt lat="46.82687" lon="8.41426">
        <ele>1307</ele>
        <time>2021-08-13T09:07:02.219Z</time>
      </trkpt>
      <trkpt lat="46.82686" lon="8.41426">
        <ele>1308</ele>
        <time>2021-08-13T09:07:03.219Z</time>
      </trkpt>
      <trkpt lat="46.82686" lon="8.41426">
        <ele>1308</ele>
        <time>2021-08-13T09:07:04.218Z</time>
      </trkpt>
      <trkpt lat="46.82685" lon="8.41427">
        <ele>1309</ele>
        <time>2021-08-13T09:07:05.218Z</time>
      </trkpt>
      <trkpt lat="46.82685" lon="8.41427">
        <ele>1309</ele>
        <time>2021-08-13T09:07:06.219Z</time>
      </trkpt>
      <trkpt lat="46.82684" lon="8.41428">
        <ele>1308</ele>
        <time>2021-08-13T09:07:07.219Z</time>
      </trkpt>
      <trkpt lat="46.82683" lon="8.41428">
        <ele>1308</ele>
        <time>2021-08-13T09:07:08.218Z</time>
      </trkpt>
      <trkpt lat="46.82682" lon="8.41428">
        <ele>1308</ele>
        <time>2021-08-13T09:07:09.219Z</time>
      </trkpt>
      <trkpt lat="46.82682" lon="8.41428">
        <ele>1307</ele>
        <time>2021-08-13T09:07:10.219Z</time>
      </trkpt>
      <trkpt lat="46.82681" lon="8.41427">
        <ele>1307</ele>
        <time>2021-08-13T09:07:11.218Z</time>
      </trkpt>
      <trkpt lat="46.82679" lon="8.41427">
        <ele>1307</ele>
        <time>2021-08-13T09:07:12.218Z</time>
      </trkpt>
      <trkpt lat="46.82679" lon="8.41426">
        <ele>1307</ele>
        <time>2021-08-13T09:07:13.219Z</time>
      </trkpt>
      <trkpt lat="46.82678" lon="8.41426">
        <ele>1307</ele>
        <time>2021-08-13T09:07:14.218Z</time>
      </trkpt>
      <trkpt lat="46.82677" lon="8.41426">
        <ele>1307</ele>
        <time>2021-08-13T09:07:15.218Z</time>
      </trkpt>
      <trkpt lat="46.82675" lon="8.41426">
        <ele>1307</ele>
        <time>2021-08-13T09:07:16.219Z</time>
      </trkpt>
      <trkpt lat="46.82674" lon="8.41427">
        <ele>1308</ele>
        <time>2021-08-13T09:07:17.218Z</time>
      </trkpt>
      <trkpt lat="46.82673" lon="8.41428">
        <ele>1308</ele>
        <time>2021-08-13T09:07:18.219Z</time>
      </trkpt>
      <trkpt lat="46.82672" lon="8.41429">
        <ele>1308</ele>
        <time>2021-08-13T09:07:19.219Z</time>
      </trkpt>
      <trkpt lat="46.82671" lon="8.41429">
        <ele>1308</ele>
        <time>2021-08-13T09:07:20.219Z</time>
      </trkpt>
      <trkpt lat="46.82671" lon="8.41429">
        <ele>1308</ele>
        <time>2021-08-13T09:07:21.218Z</time>
      </trkpt>
      <trkpt lat="46.8267" lon="8.41429">
        <ele>1308</ele>
        <time>2021-08-13T09:07:22.219Z</time>
      </trkpt>
      <trkpt lat="46.82669" lon="8.41429">
        <ele>1308</ele>
        <time>2021-08-13T09:07:23.219Z</time>
      </trkpt>
      <trkpt lat="46.82669" lon="8.41427">
        <ele>1308</ele>
        <time>2021-08-13T09:07:24.219Z</time>
      </trkpt>
      <trkpt lat="46.82668" lon="8.41427">
        <ele>1308</ele>
        <time>2021-08-13T09:07:25.218Z</time>
      </trkpt>
      <trkpt lat="46.82667" lon="8.41426">
        <ele>1308</ele>
        <time>2021-08-13T09:07:26.219Z</time>
      </trkpt>
      <trkpt lat="46.82665" lon="8.41426">
        <ele>1308</ele>
        <time>2021-08-13T09:07:27.219Z</time>
      </trkpt>
      <trkpt lat="46.82664" lon="8.41426">
        <ele>1308</ele>
        <time>2021-08-13T09:07:28.219Z</time>
      </trkpt>
      <trkpt lat="46.82662" lon="8.41425">
        <ele>1308</ele>
        <time>2021-08-13T09:07:29.219Z</time>
      </trkpt>
      <trkpt lat="46.82661" lon="8.41426">
        <ele>1307</ele>
        <time>2021-08-13T09:07:30.219Z</time>
      </trkpt>
      <trkpt lat="46.82661" lon="8.41427">
        <ele>1307</ele>
        <time>2021-08-13T09:07:31.219Z</time>
      </trkpt>
      <trkpt lat="46.82661" lon="8.41427">
        <ele>1306</ele>
        <time>2021-08-13T09:07:32.219Z</time>
      </trkpt>
      <trkpt lat="46.82661" lon="8.41428">
        <ele>1305</ele>
        <time>2021-08-13T09:07:33.219Z</time>
      </trkpt>
      <trkpt lat="46.82661" lon="8.41428">
        <ele>1304</ele>
        <time>2021-08-13T09:07:34.219Z</time>
      </trkpt>
      <trkpt lat="46.82661" lon="8.41429">
        <ele>1304</ele>
        <time>2021-08-13T09:07:35.219Z</time>
      </trkpt>
      <trkpt lat="46.8266" lon="8.41429">
        <ele>1303</ele>
        <time>2021-08-13T09:07:36.219Z</time>
      </trkpt>
      <trkpt lat="46.8266" lon="8.4143">
        <ele>1302</ele>
        <time>2021-08-13T09:07:37.219Z</time>
      </trkpt>
      <trkpt lat="46.8266" lon="8.4143">
        <ele>1301</ele>
        <time>2021-08-13T09:07:38.219Z</time>
      </trkpt>
      <trkpt lat="46.8266" lon="8.41431">
        <ele>1301</ele>
        <time>2021-08-13T09:07:39.219Z</time>
      </trkpt>
      <trkpt lat="46.82659" lon="8.41432">
        <ele>1300</ele>
        <time>2021-08-13T09:07:40.219Z</time>
      </trkpt>
      <trkpt lat="46.82658" lon="8.41433">
        <ele>1300</ele>
        <time>2021-08-13T09:07:41.218Z</time>
      </trkpt>
      <trkpt lat="46.82658" lon="8.41434">
        <ele>1299</ele>
        <time>2021-08-13T09:07:42.219Z</time>
      </trkpt>
      <trkpt lat="46.82657" lon="8.41434">
        <ele>1299</ele>
        <time>2021-08-13T09:07:43.219Z</time>
      </trkpt>
      <trkpt lat="46.82657" lon="8.41435">
        <ele>1298</ele>
        <time>2021-08-13T09:07:44.219Z</time>
      </trkpt>
      <trkpt lat="46.82656" lon="8.41435">
        <ele>1297</ele>
        <time>2021-08-13T09:07:45.219Z</time>
      </trkpt>
      <trkpt lat="46.82655" lon="8.41435">
        <ele>1297</ele>
        <time>2021-08-13T09:07:46.219Z</time>
      </trkpt>
      <trkpt lat="46.82653" lon="8.41435">
        <ele>1296</ele>
        <time>2021-08-13T09:07:47.218Z</time>
      </trkpt>
      <trkpt lat="46.82652" lon="8.41436">
        <ele>1296</ele>
        <time>2021-08-13T09:07:48.219Z</time>
      </trkpt>
      <trkpt lat="46.8265" lon="8.41437">
        <ele>1296</ele>
        <time>2021-08-13T09:07:49.219Z</time>
      </trkpt>
      <trkpt lat="46.8265" lon="8.41438">
        <ele>1295</ele>
        <time>2021-08-13T09:07:50.218Z</time>
      </trkpt>
      <trkpt lat="46.8265" lon="8.41438">
        <ele>1295</ele>
        <time>2021-08-13T09:07:51.218Z</time>
      </trkpt>
      <trkpt lat="46.82649" lon="8.41438">
        <ele>1294</ele>
        <time>2021-08-13T09:07:52.218Z</time>
      </trkpt>
      <trkpt lat="46.82649" lon="8.41439">
        <ele>1293</ele>
        <time>2021-08-13T09:07:53.218Z</time>
      </trkpt>
      <trkpt lat="46.82648" lon="8.4144">
        <ele>1293</ele>
        <time>2021-08-13T09:07:54.219Z</time>
      </trkpt>
      <trkpt lat="46.82647" lon="8.41441">
        <ele>1292</ele>
        <time>2021-08-13T09:07:55.218Z</time>
      </trkpt>
      <trkpt lat="46.82645" lon="8.41442">
        <ele>1291</ele>
        <time>2021-08-13T09:07:56.219Z</time>
      </trkpt>
      <trkpt lat="46.82645" lon="8.41443">
        <ele>1290</ele>
        <time>2021-08-13T09:07:57.219Z</time>
      </trkpt>
      <trkpt lat="46.82644" lon="8.41444">
        <ele>1289</ele>
        <time>2021-08-13T09:07:58.218Z</time>
      </trkpt>
      <trkpt lat="46.82643" lon="8.41446">
        <ele>1288</ele>
        <time>2021-08-13T09:07:59.218Z</time>
      </trkpt>
      <trkpt lat="46.82642" lon="8.41447">
        <ele>1287</ele>
        <time>2021-08-13T09:08:00.219Z</time>
      </trkpt>
      <trkpt lat="46.82641" lon="8.41448">
        <ele>1286</ele>
        <time>2021-08-13T09:08:01.218Z</time>
      </trkpt>
      <trkpt lat="46.8264" lon="8.41449">
        <ele>1286</ele>
        <time>2021-08-13T09:08:02.219Z</time>
      </trkpt>
      <trkpt lat="46.82639" lon="8.4145">
        <ele>1285</ele>
        <time>2021-08-13T09:08:03.218Z</time>
      </trkpt>
      <trkpt lat="46.82638" lon="8.41452">
        <ele>1284</ele>
        <time>2021-08-13T09:08:04.219Z</time>
      </trkpt>
      <trkpt lat="46.82637" lon="8.41453">
        <ele>1283</ele>
        <time>2021-08-13T09:08:05.218Z</time>
      </trkpt>
      <trkpt lat="46.82636" lon="8.41453">
        <ele>1282</ele>
        <time>2021-08-13T09:08:06.219Z</time>
      </trkpt>
      <trkpt lat="46.82635" lon="8.41453">
        <ele>1281</ele>
        <time>2021-08-13T09:08:07.219Z</time>
      </trkpt>
      <trkpt lat="46.82634" lon="8.41454">
        <ele>1280</ele>
        <time>2021-08-13T09:08:08.219Z</time>
      </trkpt>
      <trkpt lat="46.82632" lon="8.41454">
        <ele>1280</ele>
        <time>2021-08-13T09:08:09.219Z</time>
      </trkpt>
      <trkpt lat="46.82632" lon="8.41454">
        <ele>1279</ele>
        <time>2021-08-13T09:08:10.219Z</time>
      </trkpt>
      <trkpt lat="46.82631" lon="8.41454">
        <ele>1278</ele>
        <time>2021-08-13T09:08:11.219Z</time>
      </trkpt>
      <trkpt lat="46.8263" lon="8.41454">
        <ele>1278</ele>
        <time>2021-08-13T09:08:12.219Z</time>
      </trkpt>
      <trkpt lat="46.82629" lon="8.41456">
        <ele>1278</ele>
        <time>2021-08-13T09:08:13.219Z</time>
      </trkpt>
      <trkpt lat="46.82629" lon="8.41457">
        <ele>1277</ele>
        <time>2021-08-13T09:08:14.219Z</time>
      </trkpt>
      <trkpt lat="46.82628" lon="8.41458">
        <ele>1276</ele>
        <time>2021-08-13T09:08:15.218Z</time>
      </trkpt>
      <trkpt lat="46.82628" lon="8.4146">
        <ele>1275</ele>
        <time>2021-08-13T09:08:16.218Z</time>
      </trkpt>
      <trkpt lat="46.82628" lon="8.41462">
        <ele>1274</ele>
        <time>2021-08-13T09:08:17.219Z</time>
      </trkpt>
      <trkpt lat="46.82627" lon="8.41463">
        <ele>1273</ele>
        <time>2021-08-13T09:08:18.219Z</time>
      </trkpt>
      <trkpt lat="46.82628" lon="8.41463">
        <ele>1272</ele>
        <time>2021-08-13T09:08:19.218Z</time>
      </trkpt>
      <trkpt lat="46.82626" lon="8.41464">
        <ele>1271</ele>
        <time>2021-08-13T09:08:20.219Z</time>
      </trkpt>
      <trkpt lat="46.82625" lon="8.41467">
        <ele>1270</ele>
        <time>2021-08-13T09:08:21.218Z</time>
      </trkpt>
      <trkpt lat="46.82624" lon="8.41469">
        <ele>1269</ele>
        <time>2021-08-13T09:08:22.219Z</time>
      </trkpt>
      <trkpt lat="46.82623" lon="8.41471">
        <ele>1268</ele>
        <time>2021-08-13T09:08:23.218Z</time>
      </trkpt>
      <trkpt lat="46.82623" lon="8.41473">
        <ele>1267</ele>
        <time>2021-08-13T09:08:24.218Z</time>
      </trkpt>
      <trkpt lat="46.82622" lon="8.41474">
        <ele>1267</ele>
        <time>2021-08-13T09:08:25.218Z</time>
      </trkpt>
      <trkpt lat="46.82621" lon="8.41475">
        <ele>1266</ele>
        <time>2021-08-13T09:08:26.219Z</time>
      </trkpt>
      <trkpt lat="46.8262" lon="8.41476">
        <ele>1265</ele>
        <time>2021-08-13T09:08:27.219Z</time>
      </trkpt>
      <trkpt lat="46.82619" lon="8.41476">
        <ele>1264</ele>
        <time>2021-08-13T09:08:28.219Z</time>
      </trkpt>
      <trkpt lat="46.82619" lon="8.41476">
        <ele>1263</ele>
        <time>2021-08-13T09:08:29.219Z</time>
      </trkpt>
      <trkpt lat="46.82618" lon="8.41476">
        <ele>1262</ele>
        <time>2021-08-13T09:08:30.219Z</time>
      </trkpt>
      <trkpt lat="46.82618" lon="8.41475">
        <ele>1261</ele>
        <time>2021-08-13T09:08:31.219Z</time>
      </trkpt>
      <trkpt lat="46.82617" lon="8.41475">
        <ele>1260</ele>
        <time>2021-08-13T09:08:32.219Z</time>
      </trkpt>
      <trkpt lat="46.82616" lon="8.41474">
        <ele>1260</ele>
        <time>2021-08-13T09:08:33.219Z</time>
      </trkpt>
      <trkpt lat="46.82615" lon="8.41474">
        <ele>1259</ele>
        <time>2021-08-13T09:08:34.219Z</time>
      </trkpt>
      <trkpt lat="46.82614" lon="8.41474">
        <ele>1258</ele>
        <time>2021-08-13T09:08:35.219Z</time>
      </trkpt>
      <trkpt lat="46.82614" lon="8.41474">
        <ele>1257</ele>
        <time>2021-08-13T09:08:36.219Z</time>
      </trkpt>
      <trkpt lat="46.82613" lon="8.41475">
        <ele>1257</ele>
        <time>2021-08-13T09:08:37.219Z</time>
      </trkpt>
      <trkpt lat="46.82612" lon="8.41475">
        <ele>1256</ele>
        <time>2021-08-13T09:08:38.219Z</time>
      </trkpt>
      <trkpt lat="46.82611" lon="8.41476">
        <ele>1255</ele>
        <time>2021-08-13T09:08:39.219Z</time>
      </trkpt>
      <trkpt lat="46.8261" lon="8.41477">
        <ele>1254</ele>
        <time>2021-08-13T09:08:40.219Z</time>
      </trkpt>
      <trkpt lat="46.82609" lon="8.41478">
        <ele>1253</ele>
        <time>2021-08-13T09:08:41.219Z</time>
      </trkpt>
      <trkpt lat="46.82608" lon="8.41479">
        <ele>1252</ele>
        <time>2021-08-13T09:08:42.219Z</time>
      </trkpt>
      <trkpt lat="46.82607" lon="8.41481">
        <ele>1251</ele>
        <time>2021-08-13T09:08:43.219Z</time>
      </trkpt>
      <trkpt lat="46.82607" lon="8.41483">
        <ele>1250</ele>
        <time>2021-08-13T09:08:44.219Z</time>
      </trkpt>
      <trkpt lat="46.82606" lon="8.41484">
        <ele>1249</ele>
        <time>2021-08-13T09:08:45.219Z</time>
      </trkpt>
      <trkpt lat="46.82605" lon="8.41484">
        <ele>1249</ele>
        <time>2021-08-13T09:08:46.218Z</time>
      </trkpt>
      <trkpt lat="46.82605" lon="8.41485">
        <ele>1248</ele>
        <time>2021-08-13T09:08:47.219Z</time>
      </trkpt>
      <trkpt lat="46.82604" lon="8.41486">
        <ele>1247</ele>
        <time>2021-08-13T09:08:48.219Z</time>
      </trkpt>
      <trkpt lat="46.82603" lon="8.41487">
        <ele>1247</ele>
        <time>2021-08-13T09:08:49.219Z</time>
      </trkpt>
      <trkpt lat="46.82603" lon="8.41489">
        <ele>1246</ele>
        <time>2021-08-13T09:08:50.219Z</time>
      </trkpt>
      <trkpt lat="46.82602" lon="8.4149">
        <ele>1246</ele>
        <time>2021-08-13T09:08:51.219Z</time>
      </trkpt>
      <trkpt lat="46.82602" lon="8.41492">
        <ele>1246</ele>
        <time>2021-08-13T09:08:52.219Z</time>
      </trkpt>
      <trkpt lat="46.82602" lon="8.41494">
        <ele>1245</ele>
        <time>2021-08-13T09:08:53.219Z</time>
      </trkpt>
      <trkpt lat="46.82602" lon="8.41495">
        <ele>1245</ele>
        <time>2021-08-13T09:08:54.218Z</time>
      </trkpt>
      <trkpt lat="46.82602" lon="8.41496">
        <ele>1245</ele>
        <time>2021-08-13T09:08:55.219Z</time>
      </trkpt>
      <trkpt lat="46.82601" lon="8.41496">
        <ele>1245</ele>
        <time>2021-08-13T09:08:56.218Z</time>
      </trkpt>
      <trkpt lat="46.82601" lon="8.41496">
        <ele>1246</ele>
        <time>2021-08-13T09:08:57.219Z</time>
      </trkpt>
      <trkpt lat="46.82601" lon="8.41495">
        <ele>1246</ele>
        <time>2021-08-13T09:08:58.218Z</time>
      </trkpt>
      <trkpt lat="46.82602" lon="8.41495">
        <ele>1246</ele>
        <time>2021-08-13T09:08:59.218Z</time>
      </trkpt>
      <trkpt lat="46.82602" lon="8.41494">
        <ele>1246</ele>
        <time>2021-08-13T09:09:00.218Z</time>
      </trkpt>
      <trkpt lat="46.82602" lon="8.41494">
        <ele>1246</ele>
        <time>2021-08-13T09:09:01.219Z</time>
      </trkpt>
      <trkpt lat="46.82602" lon="8.41494">
        <ele>1246</ele>
        <time>2021-08-13T09:09:02.219Z</time>
      </trkpt>
      <trkpt lat="46.82601" lon="8.41493">
        <ele>1246</ele>
        <time>2021-08-13T09:09:03.219Z</time>
      </trkpt>
      <trkpt lat="46.82601" lon="8.41493">
        <ele>1246</ele>
        <time>2021-08-13T09:09:04.219Z</time>
      </trkpt>
      <trkpt lat="46.826" lon="8.41492">
        <ele>1245</ele>
        <time>2021-08-13T09:09:05.219Z</time>
      </trkpt>
      <trkpt lat="46.826" lon="8.41491">
        <ele>1245</ele>
        <time>2021-08-13T09:09:06.219Z</time>
      </trkpt>
      <trkpt lat="46.826" lon="8.41491">
        <ele>1244</ele>
        <time>2021-08-13T09:09:07.218Z</time>
      </trkpt>
      <trkpt lat="46.82599" lon="8.4149">
        <ele>1244</ele>
        <time>2021-08-13T09:09:08.219Z</time>
      </trkpt>
      <trkpt lat="46.82598" lon="8.4149">
        <ele>1243</ele>
        <time>2021-08-13T09:09:09.219Z</time>
      </trkpt>
      <trkpt lat="46.82598" lon="8.4149">
        <ele>1243</ele>
        <time>2021-08-13T09:09:10.218Z</time>
      </trkpt>
      <trkpt lat="46.82598" lon="8.4149">
        <ele>1243</ele>
        <time>2021-08-13T09:09:11.219Z</time>
      </trkpt>
      <trkpt lat="46.82598" lon="8.41489">
        <ele>1242</ele>
        <time>2021-08-13T09:09:12.219Z</time>
      </trkpt>
      <trkpt lat="46.82599" lon="8.41489">
        <ele>1241</ele>
        <time>2021-08-13T09:09:13.219Z</time>
      </trkpt>
      <trkpt lat="46.82599" lon="8.41488">
        <ele>1241</ele>
        <time>2021-08-13T09:09:14.219Z</time>
      </trkpt>
      <trkpt lat="46.82599" lon="8.41487">
        <ele>1240</ele>
        <time>2021-08-13T09:09:15.218Z</time>
      </trkpt>
      <trkpt lat="46.826" lon="8.41487">
        <ele>1240</ele>
        <time>2021-08-13T09:09:16.219Z</time>
      </trkpt>
      <trkpt lat="46.826" lon="8.41487">
        <ele>1240</ele>
        <time>2021-08-13T09:09:17.219Z</time>
      </trkpt>
      <trkpt lat="46.826" lon="8.41486">
        <ele>1239</ele>
        <time>2021-08-13T09:09:18.219Z</time>
      </trkpt>
      <trkpt lat="46.82601" lon="8.41485">
        <ele>1238</ele>
        <time>2021-08-13T09:09:19.218Z</time>
      </trkpt>
      <trkpt lat="46.82601" lon="8.41484">
        <ele>1238</ele>
        <time>2021-08-13T09:09:20.219Z</time>
      </trkpt>
      <trkpt lat="46.82601" lon="8.41483">
        <ele>1238</ele>
        <time>2021-08-13T09:09:21.218Z</time>
      </trkpt>
      <trkpt lat="46.82602" lon="8.41482">
        <ele>1237</ele>
        <time>2021-08-13T09:09:22.219Z</time>
      </trkpt>
      <trkpt lat="46.82603" lon="8.41481">
        <ele>1237</ele>
        <time>2021-08-13T09:09:23.218Z</time>
      </trkpt>
      <trkpt lat="46.82603" lon="8.41481">
        <ele>1237</ele>
        <time>2021-08-13T09:09:24.218Z</time>
      </trkpt>
      <trkpt lat="46.82603" lon="8.4148">
        <ele>1238</ele>
        <time>2021-08-13T09:09:25.219Z</time>
      </trkpt>
      <trkpt lat="46.82603" lon="8.4148">
        <ele>1238</ele>
        <time>2021-08-13T09:09:26.219Z</time>
      </trkpt>
      <trkpt lat="46.82604" lon="8.41479">
        <ele>1238</ele>
        <time>2021-08-13T09:09:27.219Z</time>
      </trkpt>
      <trkpt lat="46.82606" lon="8.41478">
        <ele>1238</ele>
        <time>2021-08-13T09:09:28.219Z</time>
      </trkpt>
      <trkpt lat="46.82608" lon="8.41477">
        <ele>1239</ele>
        <time>2021-08-13T09:09:29.219Z</time>
      </trkpt>
      <trkpt lat="46.8261" lon="8.41476">
        <ele>1239</ele>
        <time>2021-08-13T09:09:30.219Z</time>
      </trkpt>
      <trkpt lat="46.82611" lon="8.41476">
        <ele>1239</ele>
        <time>2021-08-13T09:09:31.219Z</time>
      </trkpt>
      <trkpt lat="46.82611" lon="8.41475">
        <ele>1239</ele>
        <time>2021-08-13T09:09:32.219Z</time>
      </trkpt>
      <trkpt lat="46.82612" lon="8.41474">
        <ele>1239</ele>
        <time>2021-08-13T09:09:33.219Z</time>
      </trkpt>
      <trkpt lat="46.82612" lon="8.41473">
        <ele>1239</ele>
        <time>2021-08-13T09:09:34.218Z</time>
      </trkpt>
      <trkpt lat="46.82613" lon="8.41472">
        <ele>1238</ele>
        <time>2021-08-13T09:09:35.219Z</time>
      </trkpt>
      <trkpt lat="46.82613" lon="8.41472">
        <ele>1238</ele>
        <time>2021-08-13T09:09:36.218Z</time>
      </trkpt>
      <trkpt lat="46.82614" lon="8.41472">
        <ele>1238</ele>
        <time>2021-08-13T09:09:37.219Z</time>
      </trkpt>
      <trkpt lat="46.82614" lon="8.41472">
        <ele>1238</ele>
        <time>2021-08-13T09:09:38.219Z</time>
      </trkpt>
      <trkpt lat="46.82614" lon="8.41472">
        <ele>1238</ele>
        <time>2021-08-13T09:09:39.218Z</time>
      </trkpt>
      <trkpt lat="46.82615" lon="8.41472">
        <ele>1238</ele>
        <time>2021-08-13T09:09:40.219Z</time>
      </trkpt>
      <trkpt lat="46.82615" lon="8.41471">
        <ele>1238</ele>
        <time>2021-08-13T09:09:41.219Z</time>
      </trkpt>
      <trkpt lat="46.82616" lon="8.41471">
        <ele>1238</ele>
        <time>2021-08-13T09:09:42.218Z</time>
      </trkpt>
      <trkpt lat="46.82616" lon="8.41469">
        <ele>1237</ele>
        <time>2021-08-13T09:09:43.219Z</time>
      </trkpt>
      <trkpt lat="46.82617" lon="8.41467">
        <ele>1237</ele>
        <time>2021-08-13T09:09:44.219Z</time>
      </trkpt>
      <trkpt lat="46.82619" lon="8.41465">
        <ele>1237</ele>
        <time>2021-08-13T09:09:45.218Z</time>
      </trkpt>
      <trkpt lat="46.82619" lon="8.41464">
        <ele>1237</ele>
        <time>2021-08-13T09:09:46.218Z</time>
      </trkpt>
      <trkpt lat="46.8262" lon="8.41464">
        <ele>1236</ele>
        <time>2021-08-13T09:09:47.219Z</time>
      </trkpt>
      <trkpt lat="46.82621" lon="8.41462">
        <ele>1236</ele>
        <time>2021-08-13T09:09:48.219Z</time>
      </trkpt>
      <trkpt lat="46.82622" lon="8.4146">
        <ele>1236</ele>
        <time>2021-08-13T09:09:49.219Z</time>
      </trkpt>
      <trkpt lat="46.82625" lon="8.41459">
        <ele>1235</ele>
        <time>2021-08-13T09:09:50.219Z</time>
      </trkpt>
      <trkpt lat="46.82628" lon="8.41458">
        <ele>1235</ele>
        <time>2021-08-13T09:09:51.219Z</time>
      </trkpt>
      <trkpt lat="46.82631" lon="8.41458">
        <ele>1235</ele>
        <time>2021-08-13T09:09:52.218Z</time>
      </trkpt>
      <trkpt lat="46.82634" lon="8.41457">
        <ele>1234</ele>
        <time>2021-08-13T09:09:53.219Z</time>
      </trkpt>
      <trkpt lat="46.82636" lon="8.41456">
        <ele>1234</ele>
        <time>2021-08-13T09:09:54.219Z</time>
      </trkpt>
      <trkpt lat="46.82637" lon="8.41454">
        <ele>1234</ele>
        <time>2021-08-13T09:09:55.219Z</time>
      </trkpt>
      <trkpt lat="46.82636" lon="8.41452">
        <ele>1234</ele>
        <time>2021-08-13T09:09:56.219Z</time>
      </trkpt>
      <trkpt lat="46.82636" lon="8.4145">
        <ele>1233</ele>
        <time>2021-08-13T09:09:57.219Z</time>
      </trkpt>
      <trkpt lat="46.82635" lon="8.41449">
        <ele>1233</ele>
        <time>2021-08-13T09:09:58.218Z</time>
      </trkpt>
      <trkpt lat="46.82634" lon="8.41447">
        <ele>1233</ele>
        <time>2021-08-13T09:09:59.219Z</time>
      </trkpt>
      <trkpt lat="46.82632" lon="8.41445">
        <ele>1232</ele>
        <time>2021-08-13T09:10:00.219Z</time>
      </trkpt>
      <trkpt lat="46.82629" lon="8.41443">
        <ele>1231</ele>
        <time>2021-08-13T09:10:01.218Z</time>
      </trkpt>
      <trkpt lat="46.82627" lon="8.41442">
        <ele>1231</ele>
        <time>2021-08-13T09:10:02.218Z</time>
      </trkpt>
      <trkpt lat="46.82627" lon="8.41442">
        <ele>1230</ele>
        <time>2021-08-13T09:10:03.218Z</time>
      </trkpt>
      <trkpt lat="46.82627" lon="8.41441">
        <ele>1229</ele>
        <time>2021-08-13T09:10:04.219Z</time>
      </trkpt>
      <trkpt lat="46.82627" lon="8.41441">
        <ele>1228</ele>
        <time>2021-08-13T09:10:05.219Z</time>
      </trkpt>
      <trkpt lat="46.82628" lon="8.4144">
        <ele>1228</ele>
        <time>2021-08-13T09:10:06.218Z</time>
      </trkpt>
      <trkpt lat="46.82629" lon="8.41439">
        <ele>1227</ele>
        <time>2021-08-13T09:10:07.218Z</time>
      </trkpt>
      <trkpt lat="46.82629" lon="8.41439">
        <ele>1227</ele>
        <time>2021-08-13T09:10:08.219Z</time>
      </trkpt>
      <trkpt lat="46.82629" lon="8.41439">
        <ele>1226</ele>
        <time>2021-08-13T09:10:09.218Z</time>
      </trkpt>
      <trkpt lat="46.82628" lon="8.41438">
        <ele>1226</ele>
        <time>2021-08-13T09:10:10.219Z</time>
      </trkpt>
      <trkpt lat="46.82627" lon="8.41438">
        <ele>1225</ele>
        <time>2021-08-13T09:10:11.219Z</time>
      </trkpt>
      <trkpt lat="46.82626" lon="8.41436">
        <ele>1225</ele>
        <time>2021-08-13T09:10:12.218Z</time>
      </trkpt>
      <trkpt lat="46.82626" lon="8.41435">
        <ele>1224</ele>
        <time>2021-08-13T09:10:13.219Z</time>
      </trkpt>
      <trkpt lat="46.82628" lon="8.41434">
        <ele>1223</ele>
        <time>2021-08-13T09:10:14.218Z</time>
      </trkpt>
      <trkpt lat="46.82629" lon="8.41434">
        <ele>1223</ele>
        <time>2021-08-13T09:10:15.218Z</time>
      </trkpt>
      <trkpt lat="46.8263" lon="8.41434">
        <ele>1222</ele>
        <time>2021-08-13T09:10:16.219Z</time>
      </trkpt>
      <trkpt lat="46.82631" lon="8.41433">
        <ele>1222</ele>
        <time>2021-08-13T09:10:17.218Z</time>
      </trkpt>
      <trkpt lat="46.82633" lon="8.41433">
        <ele>1221</ele>
        <time>2021-08-13T09:10:18.218Z</time>
      </trkpt>
      <trkpt lat="46.82633" lon="8.41432">
        <ele>1221</ele>
        <time>2021-08-13T09:10:19.219Z</time>
      </trkpt>
      <trkpt lat="46.82633" lon="8.41433">
        <ele>1220</ele>
        <time>2021-08-13T09:10:20.218Z</time>
      </trkpt>
      <trkpt lat="46.82632" lon="8.41434">
        <ele>1220</ele>
        <time>2021-08-13T09:10:21.219Z</time>
      </trkpt>
      <trkpt lat="46.82632" lon="8.41434">
        <ele>1220</ele>
        <time>2021-08-13T09:10:22.219Z</time>
      </trkpt>
      <trkpt lat="46.82632" lon="8.41433">
        <ele>1220</ele>
        <time>2021-08-13T09:10:23.219Z</time>
      </trkpt>
      <trkpt lat="46.82632" lon="8.41432">
        <ele>1219</ele>
        <time>2021-08-13T09:10:24.219Z</time>
      </trkpt>
      <trkpt lat="46.82632" lon="8.41434">
        <ele>1219</ele>
        <time>2021-08-13T09:10:25.218Z</time>
      </trkpt>
      <trkpt lat="46.82631" lon="8.41438">
        <ele>1219</ele>
        <time>2021-08-13T09:10:26.219Z</time>
      </trkpt>
      <trkpt lat="46.82631" lon="8.41441">
        <ele>1219</ele>
        <time>2021-08-13T09:10:27.218Z</time>
      </trkpt>
      <trkpt lat="46.82631" lon="8.41441">
        <ele>1219</ele>
        <time>2021-08-13T09:10:28.218Z</time>
      </trkpt>
      <trkpt lat="46.82633" lon="8.41441">
        <ele>1219</ele>
        <time>2021-08-13T09:10:29.219Z</time>
      </trkpt>
      <trkpt lat="46.82634" lon="8.41439">
        <ele>1219</ele>
        <time>2021-08-13T09:10:30.219Z</time>
      </trkpt>
      <trkpt lat="46.82635" lon="8.41438">
        <ele>1219</ele>
        <time>2021-08-13T09:10:31.218Z</time>
      </trkpt>
      <trkpt lat="46.82636" lon="8.41437">
        <ele>1220</ele>
        <time>2021-08-13T09:10:32.218Z</time>
      </trkpt>
      <trkpt lat="46.82637" lon="8.41437">
        <ele>1220</ele>
        <time>2021-08-13T09:10:33.219Z</time>
      </trkpt>
      <trkpt lat="46.82639" lon="8.41435">
        <ele>1220</ele>
        <time>2021-08-13T09:10:34.218Z</time>
      </trkpt>
      <trkpt lat="46.8264" lon="8.41434">
        <ele>1220</ele>
        <time>2021-08-13T09:10:35.219Z</time>
      </trkpt>
      <trkpt lat="46.8264" lon="8.41432">
        <ele>1221</ele>
        <time>2021-08-13T09:10:36.218Z</time>
      </trkpt>
      <trkpt lat="46.8264" lon="8.4143">
        <ele>1221</ele>
        <time>2021-08-13T09:10:37.218Z</time>
      </trkpt>
      <trkpt lat="46.8264" lon="8.41428">
        <ele>1221</ele>
        <time>2021-08-13T09:10:38.218Z</time>
      </trkpt>
      <trkpt lat="46.82641" lon="8.41426">
        <ele>1221</ele>
        <time>2021-08-13T09:10:39.218Z</time>
      </trkpt>
      <trkpt lat="46.82642" lon="8.41424">
        <ele>1222</ele>
        <time>2021-08-13T09:10:40.218Z</time>
      </trkpt>
      <trkpt lat="46.82643" lon="8.41422">
        <ele>1222</ele>
        <time>2021-08-13T09:10:41.218Z</time>
      </trkpt>
      <trkpt lat="46.82643" lon="8.41424">
        <ele>1222</ele>
        <time>2021-08-13T09:10:42.218Z</time>
      </trkpt>
      <trkpt lat="46.82641" lon="8.41426">
        <ele>1222</ele>
        <time>2021-08-13T09:10:43.218Z</time>
      </trkpt>
      <trkpt lat="46.82641" lon="8.41427">
        <ele>1223</ele>
        <time>2021-08-13T09:10:44.218Z</time>
      </trkpt>
      <trkpt lat="46.82643" lon="8.41425">
        <ele>1223</ele>
        <time>2021-08-13T09:10:45.218Z</time>
      </trkpt>
      <trkpt lat="46.82644" lon="8.41424">
        <ele>1223</ele>
        <time>2021-08-13T09:10:46.219Z</time>
      </trkpt>
      <trkpt lat="46.82645" lon="8.41423">
        <ele>1223</ele>
        <time>2021-08-13T09:10:47.219Z</time>
      </trkpt>
      <trkpt lat="46.82646" lon="8.41422">
        <ele>1224</ele>
        <time>2021-08-13T09:10:48.219Z</time>
      </trkpt>
      <trkpt lat="46.82646" lon="8.4142">
        <ele>1224</ele>
        <time>2021-08-13T09:10:49.219Z</time>
      </trkpt>
      <trkpt lat="46.82647" lon="8.41419">
        <ele>1224</ele>
        <time>2021-08-13T09:10:50.219Z</time>
      </trkpt>
      <trkpt lat="46.82648" lon="8.41416">
        <ele>1225</ele>
        <time>2021-08-13T09:10:51.218Z</time>
      </trkpt>
      <trkpt lat="46.82649" lon="8.41414">
        <ele>1225</ele>
        <time>2021-08-13T09:10:52.219Z</time>
      </trkpt>
      <trkpt lat="46.8265" lon="8.41412">
        <ele>1225</ele>
        <time>2021-08-13T09:10:53.219Z</time>
      </trkpt>
      <trkpt lat="46.82649" lon="8.41411">
        <ele>1226</ele>
        <time>2021-08-13T09:10:54.219Z</time>
      </trkpt>
      <trkpt lat="46.82647" lon="8.4141">
        <ele>1226</ele>
        <time>2021-08-13T09:10:55.219Z</time>
      </trkpt>
      <trkpt lat="46.82646" lon="8.41411">
        <ele>1227</ele>
        <time>2021-08-13T09:10:56.218Z</time>
      </trkpt>
      <trkpt lat="46.82644" lon="8.41411">
        <ele>1227</ele>
        <time>2021-08-13T09:10:57.219Z</time>
      </trkpt>
      <trkpt lat="46.82643" lon="8.41412">
        <ele>1227</ele>
        <time>2021-08-13T09:10:58.218Z</time>
      </trkpt>
      <trkpt lat="46.82643" lon="8.41411">
        <ele>1228</ele>
        <time>2021-08-13T09:10:59.219Z</time>
      </trkpt>
      <trkpt lat="46.82643" lon="8.41411">
        <ele>1228</ele>
        <time>2021-08-13T09:11:00.219Z</time>
      </trkpt>
      <trkpt lat="46.82642" lon="8.41411">
        <ele>1229</ele>
        <time>2021-08-13T09:11:01.219Z</time>
      </trkpt>
      <trkpt lat="46.82642" lon="8.41411">
        <ele>1229</ele>
        <time>2021-08-13T09:11:02.219Z</time>
      </trkpt>
      <trkpt lat="46.82641" lon="8.41411">
        <ele>1229</ele>
        <time>2021-08-13T09:11:03.219Z</time>
      </trkpt>
      <trkpt lat="46.8264" lon="8.4141">
        <ele>1230</ele>
        <time>2021-08-13T09:11:04.219Z</time>
      </trkpt>
      <trkpt lat="46.8264" lon="8.41409">
        <ele>1230</ele>
        <time>2021-08-13T09:11:05.219Z</time>
      </trkpt>
      <trkpt lat="46.82639" lon="8.41408">
        <ele>1230</ele>
        <time>2021-08-13T09:11:06.218Z</time>
      </trkpt>
      <trkpt lat="46.8264" lon="8.41407">
        <ele>1230</ele>
        <time>2021-08-13T09:11:07.219Z</time>
      </trkpt>
      <trkpt lat="46.82641" lon="8.41405">
        <ele>1230</ele>
        <time>2021-08-13T09:11:08.218Z</time>
      </trkpt>
      <trkpt lat="46.82642" lon="8.41404">
        <ele>1231</ele>
        <time>2021-08-13T09:11:09.219Z</time>
      </trkpt>
      <trkpt lat="46.82643" lon="8.41403">
        <ele>1231</ele>
        <time>2021-08-13T09:11:10.219Z</time>
      </trkpt>
      <trkpt lat="46.82643" lon="8.41403">
        <ele>1231</ele>
        <time>2021-08-13T09:11:11.218Z</time>
      </trkpt>
      <trkpt lat="46.82643" lon="8.41401">
        <ele>1232</ele>
        <time>2021-08-13T09:11:12.218Z</time>
      </trkpt>
      <trkpt lat="46.82643" lon="8.414">
        <ele>1232</ele>
        <time>2021-08-13T09:11:13.219Z</time>
      </trkpt>
      <trkpt lat="46.82643" lon="8.41399">
        <ele>1232</ele>
        <time>2021-08-13T09:11:14.219Z</time>
      </trkpt>
      <trkpt lat="46.82643" lon="8.41398">
        <ele>1231</ele>
        <time>2021-08-13T09:11:15.218Z</time>
      </trkpt>
      <trkpt lat="46.82643" lon="8.41398">
        <ele>1231</ele>
        <time>2021-08-13T09:11:16.219Z</time>
      </trkpt>
      <trkpt lat="46.82643" lon="8.41398">
        <ele>1232</ele>
        <time>2021-08-13T09:11:17.219Z</time>
      </trkpt>
      <trkpt lat="46.82642" lon="8.41397">
        <ele>1232</ele>
        <time>2021-08-13T09:11:18.219Z</time>
      </trkpt>
      <trkpt lat="46.82642" lon="8.41397">
        <ele>1231</ele>
        <time>2021-08-13T09:11:19.219Z</time>
      </trkpt>
      <trkpt lat="46.82642" lon="8.41396">
        <ele>1231</ele>
        <time>2021-08-13T09:11:20.218Z</time>
      </trkpt>
      <trkpt lat="46.82641" lon="8.41395">
        <ele>1231</ele>
        <time>2021-08-13T09:11:21.218Z</time>
      </trkpt>
      <trkpt lat="46.82641" lon="8.41395">
        <ele>1231</ele>
        <time>2021-08-13T09:11:22.219Z</time>
      </trkpt>
      <trkpt lat="46.8264" lon="8.41394">
        <ele>1231</ele>
        <time>2021-08-13T09:11:23.219Z</time>
      </trkpt>
      <trkpt lat="46.82639" lon="8.41393">
        <ele>1231</ele>
        <time>2021-08-13T09:11:24.219Z</time>
      </trkpt>
      <trkpt lat="46.82639" lon="8.4139">
        <ele>1230</ele>
        <time>2021-08-13T09:11:25.219Z</time>
      </trkpt>
      <trkpt lat="46.82639" lon="8.41388">
        <ele>1230</ele>
        <time>2021-08-13T09:11:26.219Z</time>
      </trkpt>
      <trkpt lat="46.82639" lon="8.41386">
        <ele>1230</ele>
        <time>2021-08-13T09:11:27.219Z</time>
      </trkpt>
      <trkpt lat="46.82639" lon="8.41384">
        <ele>1230</ele>
        <time>2021-08-13T09:11:28.218Z</time>
      </trkpt>
      <trkpt lat="46.82638" lon="8.41382">
        <ele>1230</ele>
        <time>2021-08-13T09:11:29.219Z</time>
      </trkpt>
      <trkpt lat="46.82637" lon="8.41378">
        <ele>1229</ele>
        <time>2021-08-13T09:11:30.220Z</time>
      </trkpt>
      <trkpt lat="46.82636" lon="8.41378">
        <ele>1228</ele>
        <time>2021-08-13T09:11:31.220Z</time>
      </trkpt>
      <trkpt lat="46.82636" lon="8.41377">
        <ele>1228</ele>
        <time>2021-08-13T09:11:32.219Z</time>
      </trkpt>
      <trkpt lat="46.82635" lon="8.41377">
        <ele>1229</ele>
        <time>2021-08-13T09:11:33.219Z</time>
      </trkpt>
      <trkpt lat="46.82635" lon="8.41377">
        <ele>1229</ele>
        <time>2021-08-13T09:11:34.219Z</time>
      </trkpt>
      <trkpt lat="46.82634" lon="8.41377">
        <ele>1228</ele>
        <time>2021-08-13T09:11:35.219Z</time>
      </trkpt>
      <trkpt lat="46.82634" lon="8.41378">
        <ele>1228</ele>
        <time>2021-08-13T09:11:36.219Z</time>
      </trkpt>
      <trkpt lat="46.82633" lon="8.41378">
        <ele>1228</ele>
        <time>2021-08-13T09:11:37.219Z</time>
      </trkpt>
      <trkpt lat="46.82632" lon="8.41377">
        <ele>1228</ele>
        <time>2021-08-13T09:11:38.220Z</time>
      </trkpt>
      <trkpt lat="46.82632" lon="8.41376">
        <ele>1228</ele>
        <time>2021-08-13T09:11:39.219Z</time>
      </trkpt>
      <trkpt lat="46.82632" lon="8.41375">
        <ele>1228</ele>
        <time>2021-08-13T09:11:40.220Z</time>
      </trkpt>
      <trkpt lat="46.82632" lon="8.41375">
        <ele>1227</ele>
        <time>2021-08-13T09:11:41.220Z</time>
      </trkpt>
      <trkpt lat="46.82631" lon="8.41373">
        <ele>1227</ele>
        <time>2021-08-13T09:11:42.220Z</time>
      </trkpt>
      <trkpt lat="46.8263" lon="8.41373">
        <ele>1227</ele>
        <time>2021-08-13T09:11:43.219Z</time>
      </trkpt>
      <trkpt lat="46.8263" lon="8.41372">
        <ele>1226</ele>
        <time>2021-08-13T09:11:44.219Z</time>
      </trkpt>
      <trkpt lat="46.82629" lon="8.41372">
        <ele>1226</ele>
        <time>2021-08-13T09:11:45.219Z</time>
      </trkpt>
      <trkpt lat="46.82628" lon="8.41372">
        <ele>1225</ele>
        <time>2021-08-13T09:11:46.219Z</time>
      </trkpt>
      <trkpt lat="46.82627" lon="8.41372">
        <ele>1225</ele>
        <time>2021-08-13T09:11:47.220Z</time>
      </trkpt>
      <trkpt lat="46.82627" lon="8.41372">
        <ele>1224</ele>
        <time>2021-08-13T09:11:48.220Z</time>
      </trkpt>
      <trkpt lat="46.82626" lon="8.41372">
        <ele>1224</ele>
        <time>2021-08-13T09:11:49.219Z</time>
      </trkpt>
      <trkpt lat="46.82626" lon="8.41371">
        <ele>1223</ele>
        <time>2021-08-13T09:11:50.220Z</time>
      </trkpt>
      <trkpt lat="46.82626" lon="8.4137">
        <ele>1223</ele>
        <time>2021-08-13T09:11:51.219Z</time>
      </trkpt>
      <trkpt lat="46.82625" lon="8.4137">
        <ele>1222</ele>
        <time>2021-08-13T09:11:52.220Z</time>
      </trkpt>
      <trkpt lat="46.82624" lon="8.41369">
        <ele>1222</ele>
        <time>2021-08-13T09:11:53.219Z</time>
      </trkpt>
      <trkpt lat="46.82623" lon="8.41369">
        <ele>1222</ele>
        <time>2021-08-13T09:11:54.219Z</time>
      </trkpt>
      <trkpt lat="46.82623" lon="8.41369">
        <ele>1222</ele>
        <time>2021-08-13T09:11:55.220Z</time>
      </trkpt>
      <trkpt lat="46.82622" lon="8.41368">
        <ele>1222</ele>
        <time>2021-08-13T09:11:56.220Z</time>
      </trkpt>
      <trkpt lat="46.82621" lon="8.41367">
        <ele>1222</ele>
        <time>2021-08-13T09:11:57.219Z</time>
      </trkpt>
      <trkpt lat="46.8262" lon="8.41366">
        <ele>1221</ele>
        <time>2021-08-13T09:11:58.220Z</time>
      </trkpt>
      <trkpt lat="46.82619" lon="8.41364">
        <ele>1221</ele>
        <time>2021-08-13T09:11:59.219Z</time>
      </trkpt>
      <trkpt lat="46.82619" lon="8.41364">
        <ele>1222</ele>
        <time>2021-08-13T09:12:00.219Z</time>
      </trkpt>
      <trkpt lat="46.82617" lon="8.41365">
        <ele>1222</ele>
        <time>2021-08-13T09:12:01.219Z</time>
      </trkpt>
      <trkpt lat="46.82616" lon="8.41366">
        <ele>1222</ele>
        <time>2021-08-13T09:12:02.219Z</time>
      </trkpt>
      <trkpt lat="46.82615" lon="8.41367">
        <ele>1222</ele>
        <time>2021-08-13T09:12:03.219Z</time>
      </trkpt>
      <trkpt lat="46.82614" lon="8.41367">
        <ele>1222</ele>
        <time>2021-08-13T09:12:04.219Z</time>
      </trkpt>
      <trkpt lat="46.82613" lon="8.41367">
        <ele>1222</ele>
        <time>2021-08-13T09:12:05.220Z</time>
      </trkpt>
      <trkpt lat="46.82612" lon="8.41367">
        <ele>1222</ele>
        <time>2021-08-13T09:12:06.220Z</time>
      </trkpt>
      <trkpt lat="46.82611" lon="8.41366">
        <ele>1222</ele>
        <time>2021-08-13T09:12:07.220Z</time>
      </trkpt>
      <trkpt lat="46.8261" lon="8.41366">
        <ele>1221</ele>
        <time>2021-08-13T09:12:08.220Z</time>
      </trkpt>
      <trkpt lat="46.82609" lon="8.41364">
        <ele>1221</ele>
        <time>2021-08-13T09:12:09.220Z</time>
      </trkpt>
      <trkpt lat="46.82608" lon="8.41363">
        <ele>1221</ele>
        <time>2021-08-13T09:12:10.220Z</time>
      </trkpt>
      <trkpt lat="46.82608" lon="8.41362">
        <ele>1221</ele>
        <time>2021-08-13T09:12:11.220Z</time>
      </trkpt>
      <trkpt lat="46.82607" lon="8.4136">
        <ele>1220</ele>
        <time>2021-08-13T09:12:12.219Z</time>
      </trkpt>
      <trkpt lat="46.82606" lon="8.41359">
        <ele>1220</ele>
        <time>2021-08-13T09:12:13.219Z</time>
      </trkpt>
      <trkpt lat="46.82606" lon="8.41358">
        <ele>1220</ele>
        <time>2021-08-13T09:12:14.220Z</time>
      </trkpt>
      <trkpt lat="46.82605" lon="8.41358">
        <ele>1220</ele>
        <time>2021-08-13T09:12:15.220Z</time>
      </trkpt>
      <trkpt lat="46.82603" lon="8.41358">
        <ele>1219</ele>
        <time>2021-08-13T09:12:16.219Z</time>
      </trkpt>
      <trkpt lat="46.82601" lon="8.41358">
        <ele>1219</ele>
        <time>2021-08-13T09:12:17.219Z</time>
      </trkpt>
      <trkpt lat="46.82599" lon="8.41358">
        <ele>1219</ele>
        <time>2021-08-13T09:12:18.220Z</time>
      </trkpt>
      <trkpt lat="46.82598" lon="8.41358">
        <ele>1219</ele>
        <time>2021-08-13T09:12:19.220Z</time>
      </trkpt>
      <trkpt lat="46.82597" lon="8.41357">
        <ele>1219</ele>
        <time>2021-08-13T09:12:20.219Z</time>
      </trkpt>
      <trkpt lat="46.82596" lon="8.41356">
        <ele>1219</ele>
        <time>2021-08-13T09:12:21.220Z</time>
      </trkpt>
      <trkpt lat="46.82595" lon="8.41355">
        <ele>1219</ele>
        <time>2021-08-13T09:12:22.220Z</time>
      </trkpt>
      <trkpt lat="46.82594" lon="8.41355">
        <ele>1218</ele>
        <time>2021-08-13T09:12:23.220Z</time>
      </trkpt>
      <trkpt lat="46.82593" lon="8.41354">
        <ele>1218</ele>
        <time>2021-08-13T09:12:24.220Z</time>
      </trkpt>
      <trkpt lat="46.82592" lon="8.41353">
        <ele>1218</ele>
        <time>2021-08-13T09:12:25.220Z</time>
      </trkpt>
      <trkpt lat="46.82591" lon="8.41353">
        <ele>1217</ele>
        <time>2021-08-13T09:12:26.219Z</time>
      </trkpt>
      <trkpt lat="46.8259" lon="8.41352">
        <ele>1217</ele>
        <time>2021-08-13T09:12:27.220Z</time>
      </trkpt>
      <trkpt lat="46.82589" lon="8.41352">
        <ele>1217</ele>
        <time>2021-08-13T09:12:28.220Z</time>
      </trkpt>
      <trkpt lat="46.82588" lon="8.4135">
        <ele>1217</ele>
        <time>2021-08-13T09:12:29.219Z</time>
      </trkpt>
      <trkpt lat="46.82588" lon="8.41349">
        <ele>1216</ele>
        <time>2021-08-13T09:12:30.220Z</time>
      </trkpt>
      <trkpt lat="46.82587" lon="8.41348">
        <ele>1216</ele>
        <time>2021-08-13T09:12:31.220Z</time>
      </trkpt>
      <trkpt lat="46.82586" lon="8.41348">
        <ele>1216</ele>
        <time>2021-08-13T09:12:32.220Z</time>
      </trkpt>
      <trkpt lat="46.82585" lon="8.41349">
        <ele>1215</ele>
        <time>2021-08-13T09:12:33.220Z</time>
      </trkpt>
      <trkpt lat="46.82584" lon="8.41348">
        <ele>1215</ele>
        <time>2021-08-13T09:12:34.219Z</time>
      </trkpt>
      <trkpt lat="46.82582" lon="8.41346">
        <ele>1214</ele>
        <time>2021-08-13T09:12:35.220Z</time>
      </trkpt>
      <trkpt lat="46.82581" lon="8.41346">
        <ele>1214</ele>
        <time>2021-08-13T09:12:36.220Z</time>
      </trkpt>
      <trkpt lat="46.8258" lon="8.41345">
        <ele>1213</ele>
        <time>2021-08-13T09:12:37.220Z</time>
      </trkpt>
      <trkpt lat="46.82579" lon="8.41345">
        <ele>1213</ele>
        <time>2021-08-13T09:12:38.220Z</time>
      </trkpt>
      <trkpt lat="46.82578" lon="8.41345">
        <ele>1213</ele>
        <time>2021-08-13T09:12:39.219Z</time>
      </trkpt>
      <trkpt lat="46.82577" lon="8.41344">
        <ele>1212</ele>
        <time>2021-08-13T09:12:40.219Z</time>
      </trkpt>
      <trkpt lat="46.82576" lon="8.41343">
        <ele>1212</ele>
        <time>2021-08-13T09:12:41.220Z</time>
      </trkpt>
      <trkpt lat="46.82575" lon="8.41342">
        <ele>1211</ele>
        <time>2021-08-13T09:12:42.220Z</time>
      </trkpt>
      <trkpt lat="46.82574" lon="8.41342">
        <ele>1210</ele>
        <time>2021-08-13T09:12:43.220Z</time>
      </trkpt>
      <trkpt lat="46.82574" lon="8.41342">
        <ele>1210</ele>
        <time>2021-08-13T09:12:44.220Z</time>
      </trkpt>
      <trkpt lat="46.82573" lon="8.41341">
        <ele>1209</ele>
        <time>2021-08-13T09:12:45.220Z</time>
      </trkpt>
      <trkpt lat="46.82571" lon="8.41343">
        <ele>1208</ele>
        <time>2021-08-13T09:12:46.219Z</time>
      </trkpt>
      <trkpt lat="46.82569" lon="8.41343">
        <ele>1208</ele>
        <time>2021-08-13T09:12:47.220Z</time>
      </trkpt>
      <trkpt lat="46.82568" lon="8.41342">
        <ele>1208</ele>
        <time>2021-08-13T09:12:48.220Z</time>
      </trkpt>
      <trkpt lat="46.82568" lon="8.41342">
        <ele>1207</ele>
        <time>2021-08-13T09:12:49.220Z</time>
      </trkpt>
      <trkpt lat="46.82568" lon="8.41343">
        <ele>1207</ele>
        <time>2021-08-13T09:12:50.220Z</time>
      </trkpt>
      <trkpt lat="46.82567" lon="8.41343">
        <ele>1207</ele>
        <time>2021-08-13T09:12:51.220Z</time>
      </trkpt>
      <trkpt lat="46.82566" lon="8.41343">
        <ele>1207</ele>
        <time>2021-08-13T09:12:52.219Z</time>
      </trkpt>
      <trkpt lat="46.82565" lon="8.41343">
        <ele>1207</ele>
        <time>2021-08-13T09:12:53.220Z</time>
      </trkpt>
      <trkpt lat="46.82564" lon="8.41343">
        <ele>1207</ele>
        <time>2021-08-13T09:12:54.220Z</time>
      </trkpt>
      <trkpt lat="46.82563" lon="8.41343">
        <ele>1207</ele>
        <time>2021-08-13T09:12:55.220Z</time>
      </trkpt>
      <trkpt lat="46.82562" lon="8.41343">
        <ele>1207</ele>
        <time>2021-08-13T09:12:56.219Z</time>
      </trkpt>
      <trkpt lat="46.82561" lon="8.41342">
        <ele>1206</ele>
        <time>2021-08-13T09:12:57.219Z</time>
      </trkpt>
      <trkpt lat="46.8256" lon="8.41342">
        <ele>1206</ele>
        <time>2021-08-13T09:12:58.220Z</time>
      </trkpt>
      <trkpt lat="46.82559" lon="8.41342">
        <ele>1206</ele>
        <time>2021-08-13T09:12:59.220Z</time>
      </trkpt>
      <trkpt lat="46.82558" lon="8.41341">
        <ele>1206</ele>
        <time>2021-08-13T09:13:00.220Z</time>
      </trkpt>
      <trkpt lat="46.82558" lon="8.41341">
        <ele>1206</ele>
        <time>2021-08-13T09:13:01.220Z</time>
      </trkpt>
      <trkpt lat="46.82557" lon="8.41339">
        <ele>1206</ele>
        <time>2021-08-13T09:13:02.220Z</time>
      </trkpt>
      <trkpt lat="46.82556" lon="8.41338">
        <ele>1205</ele>
        <time>2021-08-13T09:13:03.220Z</time>
      </trkpt>
      <trkpt lat="46.82555" lon="8.41338">
        <ele>1205</ele>
        <time>2021-08-13T09:13:04.220Z</time>
      </trkpt>
      <trkpt lat="46.82554" lon="8.41337">
        <ele>1205</ele>
        <time>2021-08-13T09:13:05.219Z</time>
      </trkpt>
      <trkpt lat="46.82553" lon="8.41337">
        <ele>1205</ele>
        <time>2021-08-13T09:13:06.220Z</time>
      </trkpt>
      <trkpt lat="46.82551" lon="8.41337">
        <ele>1205</ele>
        <time>2021-08-13T09:13:07.219Z</time>
      </trkpt>
      <trkpt lat="46.8255" lon="8.41336">
        <ele>1205</ele>
        <time>2021-08-13T09:13:08.220Z</time>
      </trkpt>
      <trkpt lat="46.8255" lon="8.41335">
        <ele>1204</ele>
        <time>2021-08-13T09:13:09.220Z</time>
      </trkpt>
      <trkpt lat="46.82549" lon="8.41333">
        <ele>1204</ele>
        <time>2021-08-13T09:13:10.220Z</time>
      </trkpt>
      <trkpt lat="46.82548" lon="8.41332">
        <ele>1203</ele>
        <time>2021-08-13T09:13:11.219Z</time>
      </trkpt>
      <trkpt lat="46.82548" lon="8.4133">
        <ele>1202</ele>
        <time>2021-08-13T09:13:12.220Z</time>
      </trkpt>
      <trkpt lat="46.82547" lon="8.41329">
        <ele>1201</ele>
        <time>2021-08-13T09:13:13.219Z</time>
      </trkpt>
      <trkpt lat="46.82547" lon="8.41327">
        <ele>1201</ele>
        <time>2021-08-13T09:13:14.220Z</time>
      </trkpt>
      <trkpt lat="46.82545" lon="8.41327">
        <ele>1200</ele>
        <time>2021-08-13T09:13:15.219Z</time>
      </trkpt>
      <trkpt lat="46.82544" lon="8.41326">
        <ele>1200</ele>
        <time>2021-08-13T09:13:16.219Z</time>
      </trkpt>
      <trkpt lat="46.82543" lon="8.41324">
        <ele>1199</ele>
        <time>2021-08-13T09:13:17.219Z</time>
      </trkpt>
      <trkpt lat="46.82542" lon="8.41323">
        <ele>1198</ele>
        <time>2021-08-13T09:13:18.219Z</time>
      </trkpt>
      <trkpt lat="46.82541" lon="8.41323">
        <ele>1197</ele>
        <time>2021-08-13T09:13:19.220Z</time>
      </trkpt>
      <trkpt lat="46.82541" lon="8.41322">
        <ele>1196</ele>
        <time>2021-08-13T09:13:20.220Z</time>
      </trkpt>
      <trkpt lat="46.82539" lon="8.41321">
        <ele>1195</ele>
        <time>2021-08-13T09:13:21.220Z</time>
      </trkpt>
      <trkpt lat="46.82538" lon="8.41321">
        <ele>1194</ele>
        <time>2021-08-13T09:13:22.220Z</time>
      </trkpt>
      <trkpt lat="46.82537" lon="8.4132">
        <ele>1194</ele>
        <time>2021-08-13T09:13:23.220Z</time>
      </trkpt>
      <trkpt lat="46.82537" lon="8.41319">
        <ele>1194</ele>
        <time>2021-08-13T09:13:24.219Z</time>
      </trkpt>
      <trkpt lat="46.82536" lon="8.41318">
        <ele>1194</ele>
        <time>2021-08-13T09:13:25.220Z</time>
      </trkpt>
      <trkpt lat="46.82535" lon="8.41318">
        <ele>1194</ele>
        <time>2021-08-13T09:13:26.219Z</time>
      </trkpt>
      <trkpt lat="46.82534" lon="8.41317">
        <ele>1193</ele>
        <time>2021-08-13T09:13:27.220Z</time>
      </trkpt>
      <trkpt lat="46.82534" lon="8.41316">
        <ele>1193</ele>
        <time>2021-08-13T09:13:28.220Z</time>
      </trkpt>
      <trkpt lat="46.82534" lon="8.41315">
        <ele>1192</ele>
        <time>2021-08-13T09:13:29.220Z</time>
      </trkpt>
      <trkpt lat="46.82533" lon="8.41314">
        <ele>1192</ele>
        <time>2021-08-13T09:13:30.220Z</time>
      </trkpt>
      <trkpt lat="46.82533" lon="8.41311">
        <ele>1191</ele>
        <time>2021-08-13T09:13:31.220Z</time>
      </trkpt>
      <trkpt lat="46.82533" lon="8.41309">
        <ele>1191</ele>
        <time>2021-08-13T09:13:32.219Z</time>
      </trkpt>
      <trkpt lat="46.82532" lon="8.41306">
        <ele>1190</ele>
        <time>2021-08-13T09:13:33.220Z</time>
      </trkpt>
      <trkpt lat="46.82532" lon="8.41305">
        <ele>1189</ele>
        <time>2021-08-13T09:13:34.220Z</time>
      </trkpt>
      <trkpt lat="46.82531" lon="8.41304">
        <ele>1189</ele>
        <time>2021-08-13T09:13:35.220Z</time>
      </trkpt>
      <trkpt lat="46.8253" lon="8.41303">
        <ele>1189</ele>
        <time>2021-08-13T09:13:36.219Z</time>
      </trkpt>
      <trkpt lat="46.82529" lon="8.41302">
        <ele>1190</ele>
        <time>2021-08-13T09:13:37.220Z</time>
      </trkpt>
      <trkpt lat="46.82528" lon="8.41301">
        <ele>1190</ele>
        <time>2021-08-13T09:13:38.220Z</time>
      </trkpt>
      <trkpt lat="46.82526" lon="8.41298">
        <ele>1191</ele>
        <time>2021-08-13T09:13:39.219Z</time>
      </trkpt>
      <trkpt lat="46.82525" lon="8.41295">
        <ele>1191</ele>
        <time>2021-08-13T09:13:40.220Z</time>
      </trkpt>
      <trkpt lat="46.82524" lon="8.41294">
        <ele>1191</ele>
        <time>2021-08-13T09:13:41.220Z</time>
      </trkpt>
      <trkpt lat="46.82523" lon="8.41292">
        <ele>1192</ele>
        <time>2021-08-13T09:13:42.219Z</time>
      </trkpt>
      <trkpt lat="46.82522" lon="8.41291">
        <ele>1192</ele>
        <time>2021-08-13T09:13:43.220Z</time>
      </trkpt>
      <trkpt lat="46.82521" lon="8.4129">
        <ele>1192</ele>
        <time>2021-08-13T09:13:44.219Z</time>
      </trkpt>
      <trkpt lat="46.82521" lon="8.41288">
        <ele>1192</ele>
        <time>2021-08-13T09:13:45.219Z</time>
      </trkpt>
      <trkpt lat="46.8252" lon="8.41286">
        <ele>1193</ele>
        <time>2021-08-13T09:13:46.220Z</time>
      </trkpt>
      <trkpt lat="46.8252" lon="8.41284">
        <ele>1193</ele>
        <time>2021-08-13T09:13:47.220Z</time>
      </trkpt>
      <trkpt lat="46.82519" lon="8.41283">
        <ele>1193</ele>
        <time>2021-08-13T09:13:48.220Z</time>
      </trkpt>
      <trkpt lat="46.82518" lon="8.41281">
        <ele>1194</ele>
        <time>2021-08-13T09:13:49.219Z</time>
      </trkpt>
      <trkpt lat="46.82518" lon="8.4128">
        <ele>1194</ele>
        <time>2021-08-13T09:13:50.219Z</time>
      </trkpt>
      <trkpt lat="46.82517" lon="8.41279">
        <ele>1194</ele>
        <time>2021-08-13T09:13:51.220Z</time>
      </trkpt>
      <trkpt lat="46.82517" lon="8.41278">
        <ele>1194</ele>
        <time>2021-08-13T09:13:52.219Z</time>
      </trkpt>
      <trkpt lat="46.82517" lon="8.41277">
        <ele>1195</ele>
        <time>2021-08-13T09:13:53.220Z</time>
      </trkpt>
      <trkpt lat="46.82516" lon="8.41275">
        <ele>1195</ele>
        <time>2021-08-13T09:13:54.220Z</time>
      </trkpt>
      <trkpt lat="46.82516" lon="8.41273">
        <ele>1196</ele>
        <time>2021-08-13T09:13:55.220Z</time>
      </trkpt>
      <trkpt lat="46.82516" lon="8.41272">
        <ele>1196</ele>
        <time>2021-08-13T09:13:56.220Z</time>
      </trkpt>
      <trkpt lat="46.82515" lon="8.41269">
        <ele>1197</ele>
        <time>2021-08-13T09:13:57.220Z</time>
      </trkpt>
      <trkpt lat="46.82515" lon="8.41267">
        <ele>1197</ele>
        <time>2021-08-13T09:13:58.220Z</time>
      </trkpt>
      <trkpt lat="46.82514" lon="8.41264">
        <ele>1197</ele>
        <time>2021-08-13T09:13:59.220Z</time>
      </trkpt>
      <trkpt lat="46.82512" lon="8.41261">
        <ele>1197</ele>
        <time>2021-08-13T09:14:00.220Z</time>
      </trkpt>
      <trkpt lat="46.8251" lon="8.41259">
        <ele>1197</ele>
        <time>2021-08-13T09:14:01.220Z</time>
      </trkpt>
      <trkpt lat="46.82508" lon="8.41257">
        <ele>1197</ele>
        <time>2021-08-13T09:14:02.220Z</time>
      </trkpt>
      <trkpt lat="46.82508" lon="8.41256">
        <ele>1197</ele>
        <time>2021-08-13T09:14:03.220Z</time>
      </trkpt>
      <trkpt lat="46.82507" lon="8.41255">
        <ele>1197</ele>
        <time>2021-08-13T09:14:04.220Z</time>
      </trkpt>
      <trkpt lat="46.82505" lon="8.41254">
        <ele>1197</ele>
        <time>2021-08-13T09:14:05.220Z</time>
      </trkpt>
      <trkpt lat="46.82504" lon="8.41253">
        <ele>1196</ele>
        <time>2021-08-13T09:14:06.220Z</time>
      </trkpt>
      <trkpt lat="46.82502" lon="8.41253">
        <ele>1196</ele>
        <time>2021-08-13T09:14:07.219Z</time>
      </trkpt>
      <trkpt lat="46.82501" lon="8.41252">
        <ele>1195</ele>
        <time>2021-08-13T09:14:08.219Z</time>
      </trkpt>
      <trkpt lat="46.825" lon="8.4125">
        <ele>1195</ele>
        <time>2021-08-13T09:14:09.219Z</time>
      </trkpt>
      <trkpt lat="46.825" lon="8.4125">
        <ele>1195</ele>
        <time>2021-08-13T09:14:10.220Z</time>
      </trkpt>
      <trkpt lat="46.82499" lon="8.4125">
        <ele>1195</ele>
        <time>2021-08-13T09:14:11.219Z</time>
      </trkpt>
      <trkpt lat="46.82499" lon="8.4125">
        <ele>1194</ele>
        <time>2021-08-13T09:14:12.220Z</time>
      </trkpt>
      <trkpt lat="46.82499" lon="8.41249">
        <ele>1194</ele>
        <time>2021-08-13T09:14:13.220Z</time>
      </trkpt>
      <trkpt lat="46.825" lon="8.41249">
        <ele>1193</ele>
        <time>2021-08-13T09:14:14.220Z</time>
      </trkpt>
      <trkpt lat="46.825" lon="8.41248">
        <ele>1193</ele>
        <time>2021-08-13T09:14:15.220Z</time>
      </trkpt>
      <trkpt lat="46.82499" lon="8.41248">
        <ele>1192</ele>
        <time>2021-08-13T09:14:16.219Z</time>
      </trkpt>
      <trkpt lat="46.82498" lon="8.41247">
        <ele>1192</ele>
        <time>2021-08-13T09:14:17.220Z</time>
      </trkpt>
      <trkpt lat="46.82498" lon="8.41247">
        <ele>1191</ele>
        <time>2021-08-13T09:14:18.220Z</time>
      </trkpt>
      <trkpt lat="46.82497" lon="8.41245">
        <ele>1190</ele>
        <time>2021-08-13T09:14:19.220Z</time>
      </trkpt>
      <trkpt lat="46.82497" lon="8.41244">
        <ele>1190</ele>
        <time>2021-08-13T09:14:20.219Z</time>
      </trkpt>
      <trkpt lat="46.82496" lon="8.41243">
        <ele>1189</ele>
        <time>2021-08-13T09:14:21.220Z</time>
      </trkpt>
      <trkpt lat="46.82497" lon="8.41242">
        <ele>1188</ele>
        <time>2021-08-13T09:14:22.220Z</time>
      </trkpt>
      <trkpt lat="46.82497" lon="8.41241">
        <ele>1187</ele>
        <time>2021-08-13T09:14:23.219Z</time>
      </trkpt>
      <trkpt lat="46.82497" lon="8.4124">
        <ele>1186</ele>
        <time>2021-08-13T09:14:24.219Z</time>
      </trkpt>
      <trkpt lat="46.82497" lon="8.41239">
        <ele>1185</ele>
        <time>2021-08-13T09:14:25.219Z</time>
      </trkpt>
      <trkpt lat="46.82497" lon="8.41239">
        <ele>1185</ele>
        <time>2021-08-13T09:14:26.219Z</time>
      </trkpt>
      <trkpt lat="46.82497" lon="8.41238">
        <ele>1184</ele>
        <time>2021-08-13T09:14:27.219Z</time>
      </trkpt>
      <trkpt lat="46.82497" lon="8.41238">
        <ele>1184</ele>
        <time>2021-08-13T09:14:28.220Z</time>
      </trkpt>
      <trkpt lat="46.82497" lon="8.41237">
        <ele>1184</ele>
        <time>2021-08-13T09:14:29.219Z</time>
      </trkpt>
      <trkpt lat="46.82497" lon="8.41236">
        <ele>1184</ele>
        <time>2021-08-13T09:14:30.219Z</time>
      </trkpt>
      <trkpt lat="46.82497" lon="8.41236">
        <ele>1183</ele>
        <time>2021-08-13T09:14:31.219Z</time>
      </trkpt>
      <trkpt lat="46.82497" lon="8.41236">
        <ele>1183</ele>
        <time>2021-08-13T09:14:32.219Z</time>
      </trkpt>
      <trkpt lat="46.82496" lon="8.41236">
        <ele>1183</ele>
        <time>2021-08-13T09:14:33.220Z</time>
      </trkpt>
      <trkpt lat="46.82496" lon="8.41237">
        <ele>1183</ele>
        <time>2021-08-13T09:14:34.219Z</time>
      </trkpt>
      <trkpt lat="46.82496" lon="8.41238">
        <ele>1184</ele>
        <time>2021-08-13T09:14:35.219Z</time>
      </trkpt>
      <trkpt lat="46.82496" lon="8.41238">
        <ele>1184</ele>
        <time>2021-08-13T09:14:36.219Z</time>
      </trkpt>
      <trkpt lat="46.82496" lon="8.41238">
        <ele>1184</ele>
        <time>2021-08-13T09:14:37.219Z</time>
      </trkpt>
      <trkpt lat="46.82496" lon="8.41237">
        <ele>1185</ele>
        <time>2021-08-13T09:14:38.219Z</time>
      </trkpt>
      <trkpt lat="46.82496" lon="8.41236">
        <ele>1185</ele>
        <time>2021-08-13T09:14:39.219Z</time>
      </trkpt>
      <trkpt lat="46.82496" lon="8.41235">
        <ele>1185</ele>
        <time>2021-08-13T09:14:40.219Z</time>
      </trkpt>
      <trkpt lat="46.82497" lon="8.41233">
        <ele>1185</ele>
        <time>2021-08-13T09:14:41.219Z</time>
      </trkpt>
      <trkpt lat="46.82497" lon="8.41232">
        <ele>1185</ele>
        <time>2021-08-13T09:14:42.219Z</time>
      </trkpt>
      <trkpt lat="46.82497" lon="8.41231">
        <ele>1185</ele>
        <time>2021-08-13T09:14:43.219Z</time>
      </trkpt>
      <trkpt lat="46.82497" lon="8.4123">
        <ele>1185</ele>
        <time>2021-08-13T09:14:44.219Z</time>
      </trkpt>
      <trkpt lat="46.82496" lon="8.41229">
        <ele>1185</ele>
        <time>2021-08-13T09:14:45.220Z</time>
      </trkpt>
      <trkpt lat="46.82496" lon="8.41228">
        <ele>1184</ele>
        <time>2021-08-13T09:14:46.219Z</time>
      </trkpt>
      <trkpt lat="46.82495" lon="8.41227">
        <ele>1184</ele>
        <time>2021-08-13T09:14:47.219Z</time>
      </trkpt>
      <trkpt lat="46.82495" lon="8.41227">
        <ele>1183</ele>
        <time>2021-08-13T09:14:48.219Z</time>
      </trkpt>
      <trkpt lat="46.82495" lon="8.41226">
        <ele>1182</ele>
        <time>2021-08-13T09:14:49.219Z</time>
      </trkpt>
      <trkpt lat="46.82494" lon="8.41225">
        <ele>1181</ele>
        <time>2021-08-13T09:14:50.219Z</time>
      </trkpt>
      <trkpt lat="46.82494" lon="8.41223">
        <ele>1180</ele>
        <time>2021-08-13T09:14:51.219Z</time>
      </trkpt>
      <trkpt lat="46.82493" lon="8.41221">
        <ele>1179</ele>
        <time>2021-08-13T09:14:52.219Z</time>
      </trkpt>
      <trkpt lat="46.82493" lon="8.4122">
        <ele>1178</ele>
        <time>2021-08-13T09:14:53.219Z</time>
      </trkpt>
      <trkpt lat="46.82493" lon="8.41218">
        <ele>1177</ele>
        <time>2021-08-13T09:14:54.219Z</time>
      </trkpt>
      <trkpt lat="46.82492" lon="8.41217">
        <ele>1177</ele>
        <time>2021-08-13T09:14:55.219Z</time>
      </trkpt>
      <trkpt lat="46.82492" lon="8.41216">
        <ele>1176</ele>
        <time>2021-08-13T09:14:56.219Z</time>
      </trkpt>
      <trkpt lat="46.82492" lon="8.41216">
        <ele>1175</ele>
        <time>2021-08-13T09:14:57.219Z</time>
      </trkpt>
      <trkpt lat="46.82491" lon="8.41215">
        <ele>1175</ele>
        <time>2021-08-13T09:14:58.219Z</time>
      </trkpt>
      <trkpt lat="46.82492" lon="8.41215">
        <ele>1175</ele>
        <time>2021-08-13T09:14:59.220Z</time>
      </trkpt>
      <trkpt lat="46.82492" lon="8.41214">
        <ele>1175</ele>
        <time>2021-08-13T09:15:00.220Z</time>
      </trkpt>
      <trkpt lat="46.82492" lon="8.41213">
        <ele>1175</ele>
        <time>2021-08-13T09:15:01.220Z</time>
      </trkpt>
      <trkpt lat="46.82493" lon="8.41212">
        <ele>1174</ele>
        <time>2021-08-13T09:15:02.220Z</time>
      </trkpt>
      <trkpt lat="46.82493" lon="8.41211">
        <ele>1174</ele>
        <time>2021-08-13T09:15:03.219Z</time>
      </trkpt>
      <trkpt lat="46.82493" lon="8.41209">
        <ele>1174</ele>
        <time>2021-08-13T09:15:04.220Z</time>
      </trkpt>
      <trkpt lat="46.82492" lon="8.41208">
        <ele>1173</ele>
        <time>2021-08-13T09:15:05.220Z</time>
      </trkpt>
      <trkpt lat="46.82491" lon="8.41207">
        <ele>1173</ele>
        <time>2021-08-13T09:15:06.220Z</time>
      </trkpt>
      <trkpt lat="46.82491" lon="8.41206">
        <ele>1173</ele>
        <time>2021-08-13T09:15:07.220Z</time>
      </trkpt>
      <trkpt lat="46.82491" lon="8.41205">
        <ele>1173</ele>
        <time>2021-08-13T09:15:08.220Z</time>
      </trkpt>
      <trkpt lat="46.82491" lon="8.41204">
        <ele>1173</ele>
        <time>2021-08-13T09:15:09.220Z</time>
      </trkpt>
      <trkpt lat="46.82491" lon="8.41202">
        <ele>1173</ele>
        <time>2021-08-13T09:15:10.219Z</time>
      </trkpt>
      <trkpt lat="46.8249" lon="8.41201">
        <ele>1173</ele>
        <time>2021-08-13T09:15:11.220Z</time>
      </trkpt>
      <trkpt lat="46.8249" lon="8.412">
        <ele>1173</ele>
        <time>2021-08-13T09:15:12.220Z</time>
      </trkpt>
      <trkpt lat="46.8249" lon="8.41198">
        <ele>1173</ele>
        <time>2021-08-13T09:15:13.220Z</time>
      </trkpt>
      <trkpt lat="46.82491" lon="8.41197">
        <ele>1173</ele>
        <time>2021-08-13T09:15:14.220Z</time>
      </trkpt>
      <trkpt lat="46.8249" lon="8.41196">
        <ele>1172</ele>
        <time>2021-08-13T09:15:15.219Z</time>
      </trkpt>
      <trkpt lat="46.8249" lon="8.41194">
        <ele>1172</ele>
        <time>2021-08-13T09:15:16.220Z</time>
      </trkpt>
      <trkpt lat="46.8249" lon="8.41194">
        <ele>1172</ele>
        <time>2021-08-13T09:15:17.220Z</time>
      </trkpt>
      <trkpt lat="46.82489" lon="8.41193">
        <ele>1172</ele>
        <time>2021-08-13T09:15:18.219Z</time>
      </trkpt>
      <trkpt lat="46.82487" lon="8.41193">
        <ele>1172</ele>
        <time>2021-08-13T09:15:19.219Z</time>
      </trkpt>
      <trkpt lat="46.82486" lon="8.41194">
        <ele>1172</ele>
        <time>2021-08-13T09:15:20.220Z</time>
      </trkpt>
      <trkpt lat="46.82484" lon="8.41195">
        <ele>1172</ele>
        <time>2021-08-13T09:15:21.220Z</time>
      </trkpt>
      <trkpt lat="46.82483" lon="8.41196">
        <ele>1172</ele>
        <time>2021-08-13T09:15:22.220Z</time>
      </trkpt>
      <trkpt lat="46.82483" lon="8.41196">
        <ele>1172</ele>
        <time>2021-08-13T09:15:23.219Z</time>
      </trkpt>
      <trkpt lat="46.82483" lon="8.41197">
        <ele>1172</ele>
        <time>2021-08-13T09:15:24.219Z</time>
      </trkpt>
      <trkpt lat="46.82482" lon="8.41197">
        <ele>1172</ele>
        <time>2021-08-13T09:15:25.220Z</time>
      </trkpt>
      <trkpt lat="46.82482" lon="8.41197">
        <ele>1172</ele>
        <time>2021-08-13T09:15:26.220Z</time>
      </trkpt>
      <trkpt lat="46.82483" lon="8.41192">
        <ele>1169</ele>
        <time>2021-08-13T09:15:27.220Z</time>
      </trkpt>
      <trkpt lat="46.82483" lon="8.41191">
        <ele>1169</ele>
        <time>2021-08-13T09:15:28.219Z</time>
      </trkpt>
      <trkpt lat="46.82483" lon="8.4119">
        <ele>1170</ele>
        <time>2021-08-13T09:15:29.219Z</time>
      </trkpt>
      <trkpt lat="46.82483" lon="8.4119">
        <ele>1170</ele>
        <time>2021-08-13T09:15:30.220Z</time>
      </trkpt>
      <trkpt lat="46.82483" lon="8.4119">
        <ele>1170</ele>
        <time>2021-08-13T09:15:31.219Z</time>
      </trkpt>
      <trkpt lat="46.82482" lon="8.41189">
        <ele>1170</ele>
        <time>2021-08-13T09:15:32.220Z</time>
      </trkpt>
      <trkpt lat="46.82482" lon="8.41188">
        <ele>1170</ele>
        <time>2021-08-13T09:15:33.220Z</time>
      </trkpt>
      <trkpt lat="46.82482" lon="8.41186">
        <ele>1170</ele>
        <time>2021-08-13T09:15:34.219Z</time>
      </trkpt>
      <trkpt lat="46.82482" lon="8.41186">
        <ele>1170</ele>
        <time>2021-08-13T09:15:35.219Z</time>
      </trkpt>
      <trkpt lat="46.82479" lon="8.41185">
        <ele>1169</ele>
        <time>2021-08-13T09:15:36.220Z</time>
      </trkpt>
      <trkpt lat="46.82479" lon="8.41185">
        <ele>1170</ele>
        <time>2021-08-13T09:15:37.220Z</time>
      </trkpt>
      <trkpt lat="46.82479" lon="8.41186">
        <ele>1170</ele>
        <time>2021-08-13T09:15:38.221Z</time>
      </trkpt>
      <trkpt lat="46.82478" lon="8.41186">
        <ele>1170</ele>
        <time>2021-08-13T09:15:39.221Z</time>
      </trkpt>
      <trkpt lat="46.82476" lon="8.41187">
        <ele>1170</ele>
        <time>2021-08-13T09:15:40.221Z</time>
      </trkpt>
      <trkpt lat="46.82475" lon="8.41187">
        <ele>1170</ele>
        <time>2021-08-13T09:15:41.221Z</time>
      </trkpt>
      <trkpt lat="46.82474" lon="8.41187">
        <ele>1170</ele>
        <time>2021-08-13T09:15:42.221Z</time>
      </trkpt>
      <trkpt lat="46.82474" lon="8.41186">
        <ele>1170</ele>
        <time>2021-08-13T09:15:43.221Z</time>
      </trkpt>
      <trkpt lat="46.82473" lon="8.41187">
        <ele>1169</ele>
        <time>2021-08-13T09:15:44.221Z</time>
      </trkpt>
      <trkpt lat="46.82472" lon="8.41186">
        <ele>1169</ele>
        <time>2021-08-13T09:15:45.221Z</time>
      </trkpt>
      <trkpt lat="46.82471" lon="8.41187">
        <ele>1168</ele>
        <time>2021-08-13T09:15:46.220Z</time>
      </trkpt>
      <trkpt lat="46.8247" lon="8.41188">
        <ele>1168</ele>
        <time>2021-08-13T09:15:47.221Z</time>
      </trkpt>
      <trkpt lat="46.82469" lon="8.41189">
        <ele>1167</ele>
        <time>2021-08-13T09:15:48.221Z</time>
      </trkpt>
      <trkpt lat="46.82469" lon="8.4119">
        <ele>1166</ele>
        <time>2021-08-13T09:15:49.221Z</time>
      </trkpt>
      <trkpt lat="46.82468" lon="8.41192">
        <ele>1166</ele>
        <time>2021-08-13T09:15:50.221Z</time>
      </trkpt>
      <trkpt lat="46.82468" lon="8.41193">
        <ele>1165</ele>
        <time>2021-08-13T09:15:51.221Z</time>
      </trkpt>
      <trkpt lat="46.82468" lon="8.41193">
        <ele>1165</ele>
        <time>2021-08-13T09:15:52.221Z</time>
      </trkpt>
      <trkpt lat="46.82469" lon="8.41194">
        <ele>1165</ele>
        <time>2021-08-13T09:15:53.220Z</time>
      </trkpt>
      <trkpt lat="46.82469" lon="8.41195">
        <ele>1164</ele>
        <time>2021-08-13T09:15:54.221Z</time>
      </trkpt>
      <trkpt lat="46.8247" lon="8.41196">
        <ele>1164</ele>
        <time>2021-08-13T09:15:55.220Z</time>
      </trkpt>
      <trkpt lat="46.8247" lon="8.41197">
        <ele>1164</ele>
        <time>2021-08-13T09:15:56.220Z</time>
      </trkpt>
      <trkpt lat="46.8247" lon="8.41198">
        <ele>1163</ele>
        <time>2021-08-13T09:15:57.220Z</time>
      </trkpt>
      <trkpt lat="46.8247" lon="8.41199">
        <ele>1163</ele>
        <time>2021-08-13T09:15:58.220Z</time>
      </trkpt>
      <trkpt lat="46.8247" lon="8.412">
        <ele>1163</ele>
        <time>2021-08-13T09:15:59.220Z</time>
      </trkpt>
      <trkpt lat="46.8247" lon="8.412">
        <ele>1162</ele>
        <time>2021-08-13T09:16:00.220Z</time>
      </trkpt>
      <trkpt lat="46.82469" lon="8.41201">
        <ele>1162</ele>
        <time>2021-08-13T09:16:01.221Z</time>
      </trkpt>
      <trkpt lat="46.82465" lon="8.41203">
        <ele>1159</ele>
        <time>2021-08-13T09:16:02.221Z</time>
      </trkpt>
      <trkpt lat="46.82464" lon="8.41205">
        <ele>1159</ele>
        <time>2021-08-13T09:16:03.221Z</time>
      </trkpt>
      <trkpt lat="46.82464" lon="8.41206">
        <ele>1159</ele>
        <time>2021-08-13T09:16:04.220Z</time>
      </trkpt>
      <trkpt lat="46.82463" lon="8.41206">
        <ele>1158</ele>
        <time>2021-08-13T09:16:05.220Z</time>
      </trkpt>
      <trkpt lat="46.82463" lon="8.41206">
        <ele>1158</ele>
        <time>2021-08-13T09:16:06.221Z</time>
      </trkpt>
      <trkpt lat="46.82463" lon="8.41206">
        <ele>1158</ele>
        <time>2021-08-13T09:16:07.220Z</time>
      </trkpt>
      <trkpt lat="46.82462" lon="8.41207">
        <ele>1157</ele>
        <time>2021-08-13T09:16:08.221Z</time>
      </trkpt>
      <trkpt lat="46.82462" lon="8.41207">
        <ele>1157</ele>
        <time>2021-08-13T09:16:09.222Z</time>
      </trkpt>
      <trkpt lat="46.82462" lon="8.41208">
        <ele>1158</ele>
        <time>2021-08-13T09:16:10.221Z</time>
      </trkpt>
      <trkpt lat="46.82462" lon="8.41208">
        <ele>1158</ele>
        <time>2021-08-13T09:16:11.221Z</time>
      </trkpt>
      <trkpt lat="46.82459" lon="8.4121">
        <ele>1157</ele>
        <time>2021-08-13T09:16:12.222Z</time>
      </trkpt>
      <trkpt lat="46.82459" lon="8.41211">
        <ele>1157</ele>
        <time>2021-08-13T09:16:13.222Z</time>
      </trkpt>
      <trkpt lat="46.82459" lon="8.41212">
        <ele>1157</ele>
        <time>2021-08-13T09:16:14.222Z</time>
      </trkpt>
      <trkpt lat="46.82459" lon="8.41213">
        <ele>1157</ele>
        <time>2021-08-13T09:16:15.222Z</time>
      </trkpt>
      <trkpt lat="46.82459" lon="8.41214">
        <ele>1157</ele>
        <time>2021-08-13T09:16:16.222Z</time>
      </trkpt>
      <trkpt lat="46.82459" lon="8.41215">
        <ele>1156</ele>
        <time>2021-08-13T09:16:17.222Z</time>
      </trkpt>
      <trkpt lat="46.82459" lon="8.41215">
        <ele>1156</ele>
        <time>2021-08-13T09:16:18.222Z</time>
      </trkpt>
      <trkpt lat="46.8246" lon="8.41214">
        <ele>1153</ele>
        <time>2021-08-13T09:16:19.223Z</time>
      </trkpt>
      <trkpt lat="46.8246" lon="8.41215">
        <ele>1153</ele>
        <time>2021-08-13T09:16:20.223Z</time>
      </trkpt>
      <trkpt lat="46.82459" lon="8.41216">
        <ele>1153</ele>
        <time>2021-08-13T09:16:21.223Z</time>
      </trkpt>
      <trkpt lat="46.82459" lon="8.41217">
        <ele>1153</ele>
        <time>2021-08-13T09:16:22.223Z</time>
      </trkpt>
      <trkpt lat="46.82459" lon="8.41217">
        <ele>1152</ele>
        <time>2021-08-13T09:16:23.223Z</time>
      </trkpt>
      <trkpt lat="46.82458" lon="8.41217">
        <ele>1152</ele>
        <time>2021-08-13T09:16:24.223Z</time>
      </trkpt>
      <trkpt lat="46.82458" lon="8.41217">
        <ele>1152</ele>
        <time>2021-08-13T09:16:25.223Z</time>
      </trkpt>
      <trkpt lat="46.82457" lon="8.41218">
        <ele>1152</ele>
        <time>2021-08-13T09:16:26.222Z</time>
      </trkpt>
      <trkpt lat="46.82457" lon="8.41219">
        <ele>1151</ele>
        <time>2021-08-13T09:16:27.222Z</time>
      </trkpt>
      <trkpt lat="46.82457" lon="8.4122">
        <ele>1151</ele>
        <time>2021-08-13T09:16:28.223Z</time>
      </trkpt>
      <trkpt lat="46.82456" lon="8.41221">
        <ele>1151</ele>
        <time>2021-08-13T09:16:29.223Z</time>
      </trkpt>
      <trkpt lat="46.82456" lon="8.41222">
        <ele>1151</ele>
        <time>2021-08-13T09:16:30.222Z</time>
      </trkpt>
      <trkpt lat="46.82456" lon="8.41222">
        <ele>1151</ele>
        <time>2021-08-13T09:16:31.222Z</time>
      </trkpt>
      <trkpt lat="46.82453" lon="8.4123">
        <ele>1152</ele>
        <time>2021-08-13T09:16:32.223Z</time>
      </trkpt>
      <trkpt lat="46.82453" lon="8.41232">
        <ele>1152</ele>
        <time>2021-08-13T09:16:33.222Z</time>
      </trkpt>
      <trkpt lat="46.82453" lon="8.41234">
        <ele>1152</ele>
        <time>2021-08-13T09:16:34.222Z</time>
      </trkpt>
      <trkpt lat="46.82453" lon="8.41237">
        <ele>1152</ele>
        <time>2021-08-13T09:16:35.222Z</time>
      </trkpt>
      <trkpt lat="46.82452" lon="8.41239">
        <ele>1153</ele>
        <time>2021-08-13T09:16:36.223Z</time>
      </trkpt>
      <trkpt lat="46.82452" lon="8.41241">
        <ele>1152</ele>
        <time>2021-08-13T09:16:37.223Z</time>
      </trkpt>
      <trkpt lat="46.82452" lon="8.41241">
        <ele>1152</ele>
        <time>2021-08-13T09:16:38.223Z</time>
      </trkpt>
      <trkpt lat="46.82451" lon="8.41242">
        <ele>1151</ele>
        <time>2021-08-13T09:16:39.223Z</time>
      </trkpt>
      <trkpt lat="46.8245" lon="8.41242">
        <ele>1150</ele>
        <time>2021-08-13T09:16:40.222Z</time>
      </trkpt>
      <trkpt lat="46.8245" lon="8.41242">
        <ele>1150</ele>
        <time>2021-08-13T09:16:41.222Z</time>
      </trkpt>
      <trkpt lat="46.82449" lon="8.41242">
        <ele>1149</ele>
        <time>2021-08-13T09:16:42.223Z</time>
      </trkpt>
      <trkpt lat="46.82448" lon="8.41243">
        <ele>1148</ele>
        <time>2021-08-13T09:16:43.223Z</time>
      </trkpt>
      <trkpt lat="46.82448" lon="8.41243">
        <ele>1148</ele>
        <time>2021-08-13T09:16:44.223Z</time>
      </trkpt>
      <trkpt lat="46.82448" lon="8.41244">
        <ele>1148</ele>
        <time>2021-08-13T09:16:45.223Z</time>
      </trkpt>
      <trkpt lat="46.82448" lon="8.41245">
        <ele>1147</ele>
        <time>2021-08-13T09:16:46.222Z</time>
      </trkpt>
      <trkpt lat="46.82448" lon="8.41246">
        <ele>1147</ele>
        <time>2021-08-13T09:16:47.222Z</time>
      </trkpt>
      <trkpt lat="46.82447" lon="8.41248">
        <ele>1147</ele>
        <time>2021-08-13T09:16:48.223Z</time>
      </trkpt>
      <trkpt lat="46.82447" lon="8.41249">
        <ele>1147</ele>
        <time>2021-08-13T09:16:49.222Z</time>
      </trkpt>
      <trkpt lat="46.82446" lon="8.4125">
        <ele>1147</ele>
        <time>2021-08-13T09:16:50.223Z</time>
      </trkpt>
      <trkpt lat="46.82446" lon="8.41251">
        <ele>1147</ele>
        <time>2021-08-13T09:16:51.223Z</time>
      </trkpt>
      <trkpt lat="46.82445" lon="8.41252">
        <ele>1147</ele>
        <time>2021-08-13T09:16:52.223Z</time>
      </trkpt>
      <trkpt lat="46.82445" lon="8.41253">
        <ele>1146</ele>
        <time>2021-08-13T09:16:53.222Z</time>
      </trkpt>
      <trkpt lat="46.82445" lon="8.41255">
        <ele>1145</ele>
        <time>2021-08-13T09:16:54.224Z</time>
      </trkpt>
      <trkpt lat="46.82445" lon="8.41256">
        <ele>1145</ele>
        <time>2021-08-13T09:16:55.224Z</time>
      </trkpt>
      <trkpt lat="46.82445" lon="8.41257">
        <ele>1144</ele>
        <time>2021-08-13T09:16:56.223Z</time>
      </trkpt>
      <trkpt lat="46.82444" lon="8.41259">
        <ele>1144</ele>
        <time>2021-08-13T09:16:57.224Z</time>
      </trkpt>
      <trkpt lat="46.82444" lon="8.4126">
        <ele>1143</ele>
        <time>2021-08-13T09:16:58.224Z</time>
      </trkpt>
      <trkpt lat="46.82444" lon="8.41262">
        <ele>1143</ele>
        <time>2021-08-13T09:16:59.224Z</time>
      </trkpt>
      <trkpt lat="46.82443" lon="8.41264">
        <ele>1143</ele>
        <time>2021-08-13T09:17:00.223Z</time>
      </trkpt>
      <trkpt lat="46.82443" lon="8.41265">
        <ele>1143</ele>
        <time>2021-08-13T09:17:01.224Z</time>
      </trkpt>
      <trkpt lat="46.82443" lon="8.41267">
        <ele>1142</ele>
        <time>2021-08-13T09:17:02.223Z</time>
      </trkpt>
      <trkpt lat="46.82443" lon="8.41268">
        <ele>1141</ele>
        <time>2021-08-13T09:17:03.224Z</time>
      </trkpt>
      <trkpt lat="46.82443" lon="8.4127">
        <ele>1141</ele>
        <time>2021-08-13T09:17:04.224Z</time>
      </trkpt>
      <trkpt lat="46.82443" lon="8.41272">
        <ele>1140</ele>
        <time>2021-08-13T09:17:05.224Z</time>
      </trkpt>
      <trkpt lat="46.82443" lon="8.41274">
        <ele>1140</ele>
        <time>2021-08-13T09:17:06.223Z</time>
      </trkpt>
      <trkpt lat="46.82444" lon="8.41276">
        <ele>1139</ele>
        <time>2021-08-13T09:17:07.223Z</time>
      </trkpt>
      <trkpt lat="46.82443" lon="8.41278">
        <ele>1139</ele>
        <time>2021-08-13T09:17:08.224Z</time>
      </trkpt>
      <trkpt lat="46.82443" lon="8.41279">
        <ele>1139</ele>
        <time>2021-08-13T09:17:09.224Z</time>
      </trkpt>
      <trkpt lat="46.82443" lon="8.41281">
        <ele>1138</ele>
        <time>2021-08-13T09:17:10.223Z</time>
      </trkpt>
      <trkpt lat="46.82443" lon="8.41284">
        <ele>1138</ele>
        <time>2021-08-13T09:17:11.224Z</time>
      </trkpt>
      <trkpt lat="46.82442" lon="8.41285">
        <ele>1138</ele>
        <time>2021-08-13T09:17:12.224Z</time>
      </trkpt>
      <trkpt lat="46.82442" lon="8.41287">
        <ele>1138</ele>
        <time>2021-08-13T09:17:13.223Z</time>
      </trkpt>
      <trkpt lat="46.82442" lon="8.4129">
        <ele>1137</ele>
        <time>2021-08-13T09:17:14.223Z</time>
      </trkpt>
      <trkpt lat="46.82442" lon="8.41291">
        <ele>1137</ele>
        <time>2021-08-13T09:17:15.223Z</time>
      </trkpt>
      <trkpt lat="46.82442" lon="8.41292">
        <ele>1136</ele>
        <time>2021-08-13T09:17:16.224Z</time>
      </trkpt>
      <trkpt lat="46.82442" lon="8.41293">
        <ele>1136</ele>
        <time>2021-08-13T09:17:17.224Z</time>
      </trkpt>
      <trkpt lat="46.82441" lon="8.41294">
        <ele>1135</ele>
        <time>2021-08-13T09:17:18.224Z</time>
      </trkpt>
      <trkpt lat="46.82441" lon="8.41295">
        <ele>1134</ele>
        <time>2021-08-13T09:17:19.223Z</time>
      </trkpt>
      <trkpt lat="46.82441" lon="8.41296">
        <ele>1134</ele>
        <time>2021-08-13T09:17:20.224Z</time>
      </trkpt>
      <trkpt lat="46.8244" lon="8.41297">
        <ele>1133</ele>
        <time>2021-08-13T09:17:21.224Z</time>
      </trkpt>
      <trkpt lat="46.8244" lon="8.41298">
        <ele>1133</ele>
        <time>2021-08-13T09:17:22.224Z</time>
      </trkpt>
      <trkpt lat="46.82439" lon="8.41299">
        <ele>1132</ele>
        <time>2021-08-13T09:17:23.223Z</time>
      </trkpt>
      <trkpt lat="46.82439" lon="8.413">
        <ele>1132</ele>
        <time>2021-08-13T09:17:24.224Z</time>
      </trkpt>
      <trkpt lat="46.82439" lon="8.41301">
        <ele>1132</ele>
        <time>2021-08-13T09:17:25.224Z</time>
      </trkpt>
      <trkpt lat="46.82439" lon="8.41302">
        <ele>1131</ele>
        <time>2021-08-13T09:17:26.224Z</time>
      </trkpt>
      <trkpt lat="46.82439" lon="8.41304">
        <ele>1130</ele>
        <time>2021-08-13T09:17:27.224Z</time>
      </trkpt>
      <trkpt lat="46.82438" lon="8.41305">
        <ele>1130</ele>
        <time>2021-08-13T09:17:28.224Z</time>
      </trkpt>
      <trkpt lat="46.82438" lon="8.41307">
        <ele>1130</ele>
        <time>2021-08-13T09:17:29.224Z</time>
      </trkpt>
      <trkpt lat="46.82437" lon="8.41309">
        <ele>1130</ele>
        <time>2021-08-13T09:17:30.224Z</time>
      </trkpt>
      <trkpt lat="46.82437" lon="8.4131">
        <ele>1130</ele>
        <time>2021-08-13T09:17:31.224Z</time>
      </trkpt>
      <trkpt lat="46.82437" lon="8.41311">
        <ele>1130</ele>
        <time>2021-08-13T09:17:32.224Z</time>
      </trkpt>
      <trkpt lat="46.82437" lon="8.41312">
        <ele>1131</ele>
        <time>2021-08-13T09:17:33.223Z</time>
      </trkpt>
      <trkpt lat="46.82436" lon="8.41314">
        <ele>1131</ele>
        <time>2021-08-13T09:17:34.224Z</time>
      </trkpt>
      <trkpt lat="46.82435" lon="8.41315">
        <ele>1131</ele>
        <time>2021-08-13T09:17:35.224Z</time>
      </trkpt>
      <trkpt lat="46.82435" lon="8.41317">
        <ele>1131</ele>
        <time>2021-08-13T09:17:36.223Z</time>
      </trkpt>
      <trkpt lat="46.82434" lon="8.41318">
        <ele>1131</ele>
        <time>2021-08-13T09:17:37.223Z</time>
      </trkpt>
      <trkpt lat="46.82434" lon="8.41319">
        <ele>1131</ele>
        <time>2021-08-13T09:17:38.224Z</time>
      </trkpt>
      <trkpt lat="46.82434" lon="8.4132">
        <ele>1131</ele>
        <time>2021-08-13T09:17:39.224Z</time>
      </trkpt>
      <trkpt lat="46.82434" lon="8.41321">
        <ele>1131</ele>
        <time>2021-08-13T09:17:40.223Z</time>
      </trkpt>
      <trkpt lat="46.82434" lon="8.41322">
        <ele>1131</ele>
        <time>2021-08-13T09:17:41.223Z</time>
      </trkpt>
      <trkpt lat="46.82433" lon="8.41324">
        <ele>1131</ele>
        <time>2021-08-13T09:17:42.223Z</time>
      </trkpt>
      <trkpt lat="46.82433" lon="8.41326">
        <ele>1131</ele>
        <time>2021-08-13T09:17:43.223Z</time>
      </trkpt>
      <trkpt lat="46.82433" lon="8.41327">
        <ele>1131</ele>
        <time>2021-08-13T09:17:44.223Z</time>
      </trkpt>
      <trkpt lat="46.82433" lon="8.41328">
        <ele>1131</ele>
        <time>2021-08-13T09:17:45.223Z</time>
      </trkpt>
      <trkpt lat="46.82433" lon="8.41328">
        <ele>1131</ele>
        <time>2021-08-13T09:17:46.223Z</time>
      </trkpt>
      <trkpt lat="46.82434" lon="8.41329">
        <ele>1131</ele>
        <time>2021-08-13T09:17:47.224Z</time>
      </trkpt>
      <trkpt lat="46.82434" lon="8.41329">
        <ele>1131</ele>
        <time>2021-08-13T09:17:48.223Z</time>
      </trkpt>
      <trkpt lat="46.82434" lon="8.41333">
        <ele>1135</ele>
        <time>2021-08-13T09:17:49.225Z</time>
      </trkpt>
      <trkpt lat="46.82434" lon="8.41334">
        <ele>1136</ele>
        <time>2021-08-13T09:17:50.224Z</time>
      </trkpt>
      <trkpt lat="46.82435" lon="8.41336">
        <ele>1136</ele>
        <time>2021-08-13T09:17:51.224Z</time>
      </trkpt>
      <trkpt lat="46.82435" lon="8.41337">
        <ele>1137</ele>
        <time>2021-08-13T09:17:52.225Z</time>
      </trkpt>
      <trkpt lat="46.82435" lon="8.41339">
        <ele>1137</ele>
        <time>2021-08-13T09:17:53.225Z</time>
      </trkpt>
      <trkpt lat="46.82434" lon="8.41341">
        <ele>1137</ele>
        <time>2021-08-13T09:17:54.225Z</time>
      </trkpt>
      <trkpt lat="46.82434" lon="8.41342">
        <ele>1137</ele>
        <time>2021-08-13T09:17:55.224Z</time>
      </trkpt>
      <trkpt lat="46.82434" lon="8.41343">
        <ele>1137</ele>
        <time>2021-08-13T09:17:56.224Z</time>
      </trkpt>
      <trkpt lat="46.82435" lon="8.41343">
        <ele>1137</ele>
        <time>2021-08-13T09:17:57.225Z</time>
      </trkpt>
      <trkpt lat="46.82434" lon="8.41344">
        <ele>1137</ele>
        <time>2021-08-13T09:17:58.224Z</time>
      </trkpt>
      <trkpt lat="46.82434" lon="8.41346">
        <ele>1136</ele>
        <time>2021-08-13T09:17:59.225Z</time>
      </trkpt>
      <trkpt lat="46.82434" lon="8.41347">
        <ele>1136</ele>
        <time>2021-08-13T09:18:00.225Z</time>
      </trkpt>
      <trkpt lat="46.82433" lon="8.41348">
        <ele>1136</ele>
        <time>2021-08-13T09:18:01.225Z</time>
      </trkpt>
      <trkpt lat="46.82432" lon="8.41349">
        <ele>1135</ele>
        <time>2021-08-13T09:18:02.224Z</time>
      </trkpt>
      <trkpt lat="46.82432" lon="8.4135">
        <ele>1135</ele>
        <time>2021-08-13T09:18:03.225Z</time>
      </trkpt>
      <trkpt lat="46.82432" lon="8.41351">
        <ele>1134</ele>
        <time>2021-08-13T09:18:04.225Z</time>
      </trkpt>
      <trkpt lat="46.82432" lon="8.41352">
        <ele>1135</ele>
        <time>2021-08-13T09:18:05.225Z</time>
      </trkpt>
      <trkpt lat="46.82433" lon="8.41352">
        <ele>1135</ele>
        <time>2021-08-13T09:18:06.225Z</time>
      </trkpt>
      <trkpt lat="46.82433" lon="8.41353">
        <ele>1135</ele>
        <time>2021-08-13T09:18:07.224Z</time>
      </trkpt>
      <trkpt lat="46.82433" lon="8.41353">
        <ele>1135</ele>
        <time>2021-08-13T09:18:08.225Z</time>
      </trkpt>
      <trkpt lat="46.82434" lon="8.41354">
        <ele>1135</ele>
        <time>2021-08-13T09:18:09.225Z</time>
      </trkpt>
      <trkpt lat="46.82434" lon="8.41355">
        <ele>1134</ele>
        <time>2021-08-13T09:18:10.225Z</time>
      </trkpt>
      <trkpt lat="46.82434" lon="8.41357">
        <ele>1134</ele>
        <time>2021-08-13T09:18:11.225Z</time>
      </trkpt>
      <trkpt lat="46.82433" lon="8.41358">
        <ele>1133</ele>
        <time>2021-08-13T09:18:12.224Z</time>
      </trkpt>
      <trkpt lat="46.82433" lon="8.41359">
        <ele>1133</ele>
        <time>2021-08-13T09:18:13.225Z</time>
      </trkpt>
      <trkpt lat="46.82433" lon="8.4136">
        <ele>1132</ele>
        <time>2021-08-13T09:18:14.225Z</time>
      </trkpt>
      <trkpt lat="46.82433" lon="8.41361">
        <ele>1132</ele>
        <time>2021-08-13T09:18:15.225Z</time>
      </trkpt>
      <trkpt lat="46.82433" lon="8.41362">
        <ele>1132</ele>
        <time>2021-08-13T09:18:16.224Z</time>
      </trkpt>
      <trkpt lat="46.82432" lon="8.41363">
        <ele>1132</ele>
        <time>2021-08-13T09:18:17.224Z</time>
      </trkpt>
      <trkpt lat="46.82431" lon="8.41365">
        <ele>1133</ele>
        <time>2021-08-13T09:18:18.225Z</time>
      </trkpt>
      <trkpt lat="46.82431" lon="8.41366">
        <ele>1133</ele>
        <time>2021-08-13T09:18:19.224Z</time>
      </trkpt>
      <trkpt lat="46.82431" lon="8.41368">
        <ele>1133</ele>
        <time>2021-08-13T09:18:20.224Z</time>
      </trkpt>
      <trkpt lat="46.8243" lon="8.41368">
        <ele>1133</ele>
        <time>2021-08-13T09:18:21.224Z</time>
      </trkpt>
      <trkpt lat="46.8243" lon="8.41369">
        <ele>1133</ele>
        <time>2021-08-13T09:18:22.224Z</time>
      </trkpt>
      <trkpt lat="46.82429" lon="8.41369">
        <ele>1133</ele>
        <time>2021-08-13T09:18:23.224Z</time>
      </trkpt>
      <trkpt lat="46.82428" lon="8.41368">
        <ele>1132</ele>
        <time>2021-08-13T09:18:24.224Z</time>
      </trkpt>
      <trkpt lat="46.82427" lon="8.41367">
        <ele>1132</ele>
        <time>2021-08-13T09:18:25.225Z</time>
      </trkpt>
      <trkpt lat="46.82427" lon="8.41366">
        <ele>1131</ele>
        <time>2021-08-13T09:18:26.224Z</time>
      </trkpt>
      <trkpt lat="46.82426" lon="8.41365">
        <ele>1131</ele>
        <time>2021-08-13T09:18:27.224Z</time>
      </trkpt>
      <trkpt lat="46.82426" lon="8.41364">
        <ele>1130</ele>
        <time>2021-08-13T09:18:28.224Z</time>
      </trkpt>
      <trkpt lat="46.82426" lon="8.41364">
        <ele>1129</ele>
        <time>2021-08-13T09:18:29.225Z</time>
      </trkpt>
      <trkpt lat="46.82425" lon="8.41364">
        <ele>1129</ele>
        <time>2021-08-13T09:18:30.224Z</time>
      </trkpt>
      <trkpt lat="46.82425" lon="8.41364">
        <ele>1129</ele>
        <time>2021-08-13T09:18:31.224Z</time>
      </trkpt>
      <trkpt lat="46.82425" lon="8.41364">
        <ele>1128</ele>
        <time>2021-08-13T09:18:32.224Z</time>
      </trkpt>
      <trkpt lat="46.82424" lon="8.41365">
        <ele>1128</ele>
        <time>2021-08-13T09:18:33.224Z</time>
      </trkpt>
      <trkpt lat="46.82422" lon="8.41365">
        <ele>1128</ele>
        <time>2021-08-13T09:18:34.225Z</time>
      </trkpt>
      <trkpt lat="46.82421" lon="8.41365">
        <ele>1128</ele>
        <time>2021-08-13T09:18:35.225Z</time>
      </trkpt>
      <trkpt lat="46.8242" lon="8.41365">
        <ele>1128</ele>
        <time>2021-08-13T09:18:36.225Z</time>
      </trkpt>
      <trkpt lat="46.8242" lon="8.41365">
        <ele>1128</ele>
        <time>2021-08-13T09:18:37.224Z</time>
      </trkpt>
      <trkpt lat="46.82419" lon="8.41366">
        <ele>1128</ele>
        <time>2021-08-13T09:18:38.224Z</time>
      </trkpt>
      <trkpt lat="46.82417" lon="8.41366">
        <ele>1129</ele>
        <time>2021-08-13T09:18:39.224Z</time>
      </trkpt>
      <trkpt lat="46.82416" lon="8.41366">
        <ele>1129</ele>
        <time>2021-08-13T09:18:40.225Z</time>
      </trkpt>
      <trkpt lat="46.82415" lon="8.41366">
        <ele>1129</ele>
        <time>2021-08-13T09:18:41.224Z</time>
      </trkpt>
      <trkpt lat="46.82414" lon="8.41367">
        <ele>1129</ele>
        <time>2021-08-13T09:18:42.225Z</time>
      </trkpt>
      <trkpt lat="46.82413" lon="8.41367">
        <ele>1129</ele>
        <time>2021-08-13T09:18:43.225Z</time>
      </trkpt>
      <trkpt lat="46.82412" lon="8.41367">
        <ele>1128</ele>
        <time>2021-08-13T09:18:44.225Z</time>
      </trkpt>
      <trkpt lat="46.82411" lon="8.41367">
        <ele>1127</ele>
        <time>2021-08-13T09:18:45.225Z</time>
      </trkpt>
      <trkpt lat="46.8241" lon="8.41367">
        <ele>1127</ele>
        <time>2021-08-13T09:18:46.224Z</time>
      </trkpt>
      <trkpt lat="46.82409" lon="8.41367">
        <ele>1127</ele>
        <time>2021-08-13T09:18:47.225Z</time>
      </trkpt>
      <trkpt lat="46.82408" lon="8.41366">
        <ele>1127</ele>
        <time>2021-08-13T09:18:48.225Z</time>
      </trkpt>
      <trkpt lat="46.82407" lon="8.41366">
        <ele>1126</ele>
        <time>2021-08-13T09:18:49.225Z</time>
      </trkpt>
      <trkpt lat="46.82406" lon="8.41366">
        <ele>1126</ele>
        <time>2021-08-13T09:18:50.224Z</time>
      </trkpt>
      <trkpt lat="46.82406" lon="8.41366">
        <ele>1126</ele>
        <time>2021-08-13T09:18:51.224Z</time>
      </trkpt>
      <trkpt lat="46.82406" lon="8.41366">
        <ele>1125</ele>
        <time>2021-08-13T09:18:52.225Z</time>
      </trkpt>
      <trkpt lat="46.82406" lon="8.41366">
        <ele>1124</ele>
        <time>2021-08-13T09:18:53.225Z</time>
      </trkpt>
      <trkpt lat="46.82407" lon="8.41365">
        <ele>1123</ele>
        <time>2021-08-13T09:18:54.225Z</time>
      </trkpt>
      <trkpt lat="46.82407" lon="8.41364">
        <ele>1123</ele>
        <time>2021-08-13T09:18:55.225Z</time>
      </trkpt>
      <trkpt lat="46.82407" lon="8.41364">
        <ele>1122</ele>
        <time>2021-08-13T09:18:56.225Z</time>
      </trkpt>
      <trkpt lat="46.82408" lon="8.41363">
        <ele>1122</ele>
        <time>2021-08-13T09:18:57.225Z</time>
      </trkpt>
      <trkpt lat="46.82408" lon="8.41361">
        <ele>1122</ele>
        <time>2021-08-13T09:18:58.224Z</time>
      </trkpt>
      <trkpt lat="46.82408" lon="8.4136">
        <ele>1122</ele>
        <time>2021-08-13T09:18:59.224Z</time>
      </trkpt>
      <trkpt lat="46.82408" lon="8.41359">
        <ele>1122</ele>
        <time>2021-08-13T09:19:00.225Z</time>
      </trkpt>
      <trkpt lat="46.82408" lon="8.41357">
        <ele>1122</ele>
        <time>2021-08-13T09:19:01.225Z</time>
      </trkpt>
      <trkpt lat="46.82408" lon="8.41356">
        <ele>1122</ele>
        <time>2021-08-13T09:19:02.224Z</time>
      </trkpt>
      <trkpt lat="46.82408" lon="8.41355">
        <ele>1122</ele>
        <time>2021-08-13T09:19:03.224Z</time>
      </trkpt>
      <trkpt lat="46.82407" lon="8.41354">
        <ele>1123</ele>
        <time>2021-08-13T09:19:04.225Z</time>
      </trkpt>
      <trkpt lat="46.82405" lon="8.41353">
        <ele>1123</ele>
        <time>2021-08-13T09:19:05.225Z</time>
      </trkpt>
      <trkpt lat="46.82404" lon="8.41352">
        <ele>1124</ele>
        <time>2021-08-13T09:19:06.225Z</time>
      </trkpt>
      <trkpt lat="46.82402" lon="8.41351">
        <ele>1124</ele>
        <time>2021-08-13T09:19:07.225Z</time>
      </trkpt>
      <trkpt lat="46.82401" lon="8.41351">
        <ele>1125</ele>
        <time>2021-08-13T09:19:08.225Z</time>
      </trkpt>
      <trkpt lat="46.824" lon="8.4135">
        <ele>1126</ele>
        <time>2021-08-13T09:19:09.225Z</time>
      </trkpt>
      <trkpt lat="46.82399" lon="8.41348">
        <ele>1126</ele>
        <time>2021-08-13T09:19:10.225Z</time>
      </trkpt>
      <trkpt lat="46.82397" lon="8.41347">
        <ele>1127</ele>
        <time>2021-08-13T09:19:11.224Z</time>
      </trkpt>
      <trkpt lat="46.82396" lon="8.41345">
        <ele>1128</ele>
        <time>2021-08-13T09:19:12.225Z</time>
      </trkpt>
      <trkpt lat="46.82395" lon="8.41344">
        <ele>1128</ele>
        <time>2021-08-13T09:19:13.224Z</time>
      </trkpt>
      <trkpt lat="46.82395" lon="8.41343">
        <ele>1129</ele>
        <time>2021-08-13T09:19:14.225Z</time>
      </trkpt>
      <trkpt lat="46.82395" lon="8.41341">
        <ele>1129</ele>
        <time>2021-08-13T09:19:15.225Z</time>
      </trkpt>
      <trkpt lat="46.82396" lon="8.4134">
        <ele>1129</ele>
        <time>2021-08-13T09:19:16.224Z</time>
      </trkpt>
      <trkpt lat="46.82397" lon="8.41339">
        <ele>1130</ele>
        <time>2021-08-13T09:19:17.225Z</time>
      </trkpt>
      <trkpt lat="46.82397" lon="8.41338">
        <ele>1130</ele>
        <time>2021-08-13T09:19:18.225Z</time>
      </trkpt>
      <trkpt lat="46.82398" lon="8.41338">
        <ele>1129</ele>
        <time>2021-08-13T09:19:19.224Z</time>
      </trkpt>
      <trkpt lat="46.82398" lon="8.41337">
        <ele>1129</ele>
        <time>2021-08-13T09:19:20.225Z</time>
      </trkpt>
      <trkpt lat="46.82398" lon="8.41336">
        <ele>1128</ele>
        <time>2021-08-13T09:19:21.225Z</time>
      </trkpt>
      <trkpt lat="46.82398" lon="8.41335">
        <ele>1128</ele>
        <time>2021-08-13T09:19:22.224Z</time>
      </trkpt>
      <trkpt lat="46.82397" lon="8.41334">
        <ele>1128</ele>
        <time>2021-08-13T09:19:23.225Z</time>
      </trkpt>
      <trkpt lat="46.82396" lon="8.41334">
        <ele>1128</ele>
        <time>2021-08-13T09:19:24.224Z</time>
      </trkpt>
      <trkpt lat="46.82395" lon="8.41334">
        <ele>1127</ele>
        <time>2021-08-13T09:19:25.225Z</time>
      </trkpt>
      <trkpt lat="46.82395" lon="8.41335">
        <ele>1127</ele>
        <time>2021-08-13T09:19:26.225Z</time>
      </trkpt>
      <trkpt lat="46.82394" lon="8.41336">
        <ele>1126</ele>
        <time>2021-08-13T09:19:27.224Z</time>
      </trkpt>
      <trkpt lat="46.82393" lon="8.41336">
        <ele>1126</ele>
        <time>2021-08-13T09:19:28.225Z</time>
      </trkpt>
      <trkpt lat="46.82393" lon="8.41337">
        <ele>1126</ele>
        <time>2021-08-13T09:19:29.224Z</time>
      </trkpt>
      <trkpt lat="46.82393" lon="8.41338">
        <ele>1125</ele>
        <time>2021-08-13T09:19:30.225Z</time>
      </trkpt>
      <trkpt lat="46.82393" lon="8.41339">
        <ele>1125</ele>
        <time>2021-08-13T09:19:31.224Z</time>
      </trkpt>
      <trkpt lat="46.82391" lon="8.41341">
        <ele>1122</ele>
        <time>2021-08-13T09:19:32.225Z</time>
      </trkpt>
      <trkpt lat="46.82391" lon="8.41341">
        <ele>1121</ele>
        <time>2021-08-13T09:19:33.225Z</time>
      </trkpt>
      <trkpt lat="46.82391" lon="8.4134">
        <ele>1120</ele>
        <time>2021-08-13T09:19:34.226Z</time>
      </trkpt>
      <trkpt lat="46.82392" lon="8.41339">
        <ele>1120</ele>
        <time>2021-08-13T09:19:35.226Z</time>
      </trkpt>
      <trkpt lat="46.82391" lon="8.41338">
        <ele>1120</ele>
        <time>2021-08-13T09:19:36.225Z</time>
      </trkpt>
      <trkpt lat="46.8239" lon="8.41336">
        <ele>1119</ele>
        <time>2021-08-13T09:19:37.226Z</time>
      </trkpt>
      <trkpt lat="46.82388" lon="8.41335">
        <ele>1119</ele>
        <time>2021-08-13T09:19:38.225Z</time>
      </trkpt>
      <trkpt lat="46.82387" lon="8.41333">
        <ele>1120</ele>
        <time>2021-08-13T09:19:39.226Z</time>
      </trkpt>
      <trkpt lat="46.82387" lon="8.41331">
        <ele>1120</ele>
        <time>2021-08-13T09:19:40.226Z</time>
      </trkpt>
      <trkpt lat="46.82387" lon="8.4133">
        <ele>1120</ele>
        <time>2021-08-13T09:19:41.226Z</time>
      </trkpt>
      <trkpt lat="46.82386" lon="8.41329">
        <ele>1120</ele>
        <time>2021-08-13T09:19:42.226Z</time>
      </trkpt>
      <trkpt lat="46.82386" lon="8.41328">
        <ele>1120</ele>
        <time>2021-08-13T09:19:43.225Z</time>
      </trkpt>
      <trkpt lat="46.82385" lon="8.41327">
        <ele>1120</ele>
        <time>2021-08-13T09:19:44.226Z</time>
      </trkpt>
      <trkpt lat="46.82385" lon="8.41326">
        <ele>1120</ele>
        <time>2021-08-13T09:19:45.226Z</time>
      </trkpt>
      <trkpt lat="46.82385" lon="8.41325">
        <ele>1120</ele>
        <time>2021-08-13T09:19:46.226Z</time>
      </trkpt>
      <trkpt lat="46.82384" lon="8.41323">
        <ele>1119</ele>
        <time>2021-08-13T09:19:47.226Z</time>
      </trkpt>
      <trkpt lat="46.82384" lon="8.41323">
        <ele>1119</ele>
        <time>2021-08-13T09:19:48.226Z</time>
      </trkpt>
      <trkpt lat="46.82383" lon="8.41322">
        <ele>1119</ele>
        <time>2021-08-13T09:19:49.226Z</time>
      </trkpt>
      <trkpt lat="46.82382" lon="8.41321">
        <ele>1119</ele>
        <time>2021-08-13T09:19:50.226Z</time>
      </trkpt>
      <trkpt lat="46.82382" lon="8.4132">
        <ele>1119</ele>
        <time>2021-08-13T09:19:51.226Z</time>
      </trkpt>
      <trkpt lat="46.82381" lon="8.41319">
        <ele>1119</ele>
        <time>2021-08-13T09:19:52.226Z</time>
      </trkpt>
      <trkpt lat="46.82381" lon="8.41318">
        <ele>1118</ele>
        <time>2021-08-13T09:19:53.226Z</time>
      </trkpt>
      <trkpt lat="46.82381" lon="8.41318">
        <ele>1117</ele>
        <time>2021-08-13T09:19:54.226Z</time>
      </trkpt>
      <trkpt lat="46.8238" lon="8.41318">
        <ele>1117</ele>
        <time>2021-08-13T09:19:55.226Z</time>
      </trkpt>
      <trkpt lat="46.8238" lon="8.41318">
        <ele>1117</ele>
        <time>2021-08-13T09:19:56.225Z</time>
      </trkpt>
      <trkpt lat="46.8238" lon="8.41318">
        <ele>1116</ele>
        <time>2021-08-13T09:19:57.226Z</time>
      </trkpt>
      <trkpt lat="46.8238" lon="8.41317">
        <ele>1115</ele>
        <time>2021-08-13T09:19:58.226Z</time>
      </trkpt>
      <trkpt lat="46.82379" lon="8.41316">
        <ele>1115</ele>
        <time>2021-08-13T09:19:59.227Z</time>
      </trkpt>
      <trkpt lat="46.82379" lon="8.41314">
        <ele>1115</ele>
        <time>2021-08-13T09:20:00.226Z</time>
      </trkpt>
      <trkpt lat="46.82379" lon="8.41313">
        <ele>1115</ele>
        <time>2021-08-13T09:20:01.226Z</time>
      </trkpt>
      <trkpt lat="46.82379" lon="8.41313">
        <ele>1115</ele>
        <time>2021-08-13T09:20:02.226Z</time>
      </trkpt>
      <trkpt lat="46.82379" lon="8.41313">
        <ele>1115</ele>
        <time>2021-08-13T09:20:03.226Z</time>
      </trkpt>
      <trkpt lat="46.82379" lon="8.41314">
        <ele>1115</ele>
        <time>2021-08-13T09:20:04.227Z</time>
      </trkpt>
      <trkpt lat="46.82379" lon="8.41314">
        <ele>1114</ele>
        <time>2021-08-13T09:20:05.226Z</time>
      </trkpt>
      <trkpt lat="46.82378" lon="8.41314">
        <ele>1114</ele>
        <time>2021-08-13T09:20:06.226Z</time>
      </trkpt>
      <trkpt lat="46.82378" lon="8.41313">
        <ele>1113</ele>
        <time>2021-08-13T09:20:07.226Z</time>
      </trkpt>
      <trkpt lat="46.82378" lon="8.41313">
        <ele>1113</ele>
        <time>2021-08-13T09:20:08.226Z</time>
      </trkpt>
      <trkpt lat="46.82378" lon="8.41314">
        <ele>1112</ele>
        <time>2021-08-13T09:20:09.227Z</time>
      </trkpt>
      <trkpt lat="46.82378" lon="8.41315">
        <ele>1111</ele>
        <time>2021-08-13T09:20:10.228Z</time>
      </trkpt>
      <trkpt lat="46.82379" lon="8.41315">
        <ele>1111</ele>
        <time>2021-08-13T09:20:11.228Z</time>
      </trkpt>
      <trkpt lat="46.82379" lon="8.41314">
        <ele>1111</ele>
        <time>2021-08-13T09:20:12.229Z</time>
      </trkpt>
      <trkpt lat="46.82379" lon="8.41313">
        <ele>1111</ele>
        <time>2021-08-13T09:20:13.228Z</time>
      </trkpt>
      <trkpt lat="46.82379" lon="8.41312">
        <ele>1111</ele>
        <time>2021-08-13T09:20:14.228Z</time>
      </trkpt>
      <trkpt lat="46.82378" lon="8.4131">
        <ele>1111</ele>
        <time>2021-08-13T09:20:15.229Z</time>
      </trkpt>
      <trkpt lat="46.82377" lon="8.4131">
        <ele>1111</ele>
        <time>2021-08-13T09:20:16.229Z</time>
      </trkpt>
      <trkpt lat="46.82376" lon="8.41309">
        <ele>1111</ele>
        <time>2021-08-13T09:20:17.228Z</time>
      </trkpt>
      <trkpt lat="46.82376" lon="8.41309">
        <ele>1111</ele>
        <time>2021-08-13T09:20:18.228Z</time>
      </trkpt>
      <trkpt lat="46.82375" lon="8.41308">
        <ele>1111</ele>
        <time>2021-08-13T09:20:19.228Z</time>
      </trkpt>
      <trkpt lat="46.82375" lon="8.41307">
        <ele>1111</ele>
        <time>2021-08-13T09:20:20.228Z</time>
      </trkpt>
      <trkpt lat="46.82374" lon="8.41307">
        <ele>1111</ele>
        <time>2021-08-13T09:20:21.229Z</time>
      </trkpt>
      <trkpt lat="46.82374" lon="8.41306">
        <ele>1110</ele>
        <time>2021-08-13T09:20:22.228Z</time>
      </trkpt>
      <trkpt lat="46.82373" lon="8.41306">
        <ele>1110</ele>
        <time>2021-08-13T09:20:23.229Z</time>
      </trkpt>
      <trkpt lat="46.82372" lon="8.41305">
        <ele>1110</ele>
        <time>2021-08-13T09:20:24.228Z</time>
      </trkpt>
      <trkpt lat="46.82372" lon="8.41304">
        <ele>1110</ele>
        <time>2021-08-13T09:20:25.228Z</time>
      </trkpt>
      <trkpt lat="46.82371" lon="8.41303">
        <ele>1109</ele>
        <time>2021-08-13T09:20:26.229Z</time>
      </trkpt>
      <trkpt lat="46.82371" lon="8.41302">
        <ele>1109</ele>
        <time>2021-08-13T09:20:27.228Z</time>
      </trkpt>
      <trkpt lat="46.8237" lon="8.413">
        <ele>1108</ele>
        <time>2021-08-13T09:20:28.229Z</time>
      </trkpt>
      <trkpt lat="46.8237" lon="8.41299">
        <ele>1108</ele>
        <time>2021-08-13T09:20:29.228Z</time>
      </trkpt>
      <trkpt lat="46.82369" lon="8.41297">
        <ele>1107</ele>
        <time>2021-08-13T09:20:30.229Z</time>
      </trkpt>
      <trkpt lat="46.82368" lon="8.41297">
        <ele>1107</ele>
        <time>2021-08-13T09:20:31.228Z</time>
      </trkpt>
      <trkpt lat="46.82368" lon="8.41296">
        <ele>1107</ele>
        <time>2021-08-13T09:20:32.229Z</time>
      </trkpt>
      <trkpt lat="46.82368" lon="8.41296">
        <ele>1106</ele>
        <time>2021-08-13T09:20:33.229Z</time>
      </trkpt>
      <trkpt lat="46.82367" lon="8.41295">
        <ele>1106</ele>
        <time>2021-08-13T09:20:34.228Z</time>
      </trkpt>
      <trkpt lat="46.82366" lon="8.41294">
        <ele>1106</ele>
        <time>2021-08-13T09:20:35.229Z</time>
      </trkpt>
      <trkpt lat="46.82366" lon="8.41294">
        <ele>1105</ele>
        <time>2021-08-13T09:20:36.228Z</time>
      </trkpt>
      <trkpt lat="46.82366" lon="8.41293">
        <ele>1105</ele>
        <time>2021-08-13T09:20:37.229Z</time>
      </trkpt>
      <trkpt lat="46.82365" lon="8.41293">
        <ele>1104</ele>
        <time>2021-08-13T09:20:38.229Z</time>
      </trkpt>
      <trkpt lat="46.82364" lon="8.41292">
        <ele>1104</ele>
        <time>2021-08-13T09:20:39.229Z</time>
      </trkpt>
      <trkpt lat="46.82363" lon="8.41292">
        <ele>1104</ele>
        <time>2021-08-13T09:20:40.229Z</time>
      </trkpt>
      <trkpt lat="46.82363" lon="8.41291">
        <ele>1103</ele>
        <time>2021-08-13T09:20:41.228Z</time>
      </trkpt>
      <trkpt lat="46.82362" lon="8.41291">
        <ele>1103</ele>
        <time>2021-08-13T09:20:42.229Z</time>
      </trkpt>
      <trkpt lat="46.82361" lon="8.4129">
        <ele>1103</ele>
        <time>2021-08-13T09:20:43.229Z</time>
      </trkpt>
      <trkpt lat="46.8236" lon="8.41289">
        <ele>1103</ele>
        <time>2021-08-13T09:20:44.229Z</time>
      </trkpt>
      <trkpt lat="46.82359" lon="8.41288">
        <ele>1103</ele>
        <time>2021-08-13T09:20:45.229Z</time>
      </trkpt>
      <trkpt lat="46.82358" lon="8.41287">
        <ele>1103</ele>
        <time>2021-08-13T09:20:46.229Z</time>
      </trkpt>
      <trkpt lat="46.82357" lon="8.41285">
        <ele>1102</ele>
        <time>2021-08-13T09:20:52.352Z</time>
      </trkpt>
      <trkpt lat="46.82356" lon="8.41284">
        <ele>1102</ele>
        <time>2021-08-13T09:20:53.352Z</time>
      </trkpt>
      <trkpt lat="46.82356" lon="8.41282">
        <ele>1102</ele>
        <time>2021-08-13T09:20:54.352Z</time>
      </trkpt>
      <trkpt lat="46.82355" lon="8.41282">
        <ele>1102</ele>
        <time>2021-08-13T09:20:55.351Z</time>
      </trkpt>
      <trkpt lat="46.82354" lon="8.41281">
        <ele>1102</ele>
        <time>2021-08-13T09:20:56.352Z</time>
      </trkpt>
      <trkpt lat="46.82352" lon="8.41281">
        <ele>1102</ele>
        <time>2021-08-13T09:20:57.351Z</time>
      </trkpt>
      <trkpt lat="46.82351" lon="8.4128">
        <ele>1101</ele>
        <time>2021-08-13T09:20:58.352Z</time>
      </trkpt>
      <trkpt lat="46.8235" lon="8.41279">
        <ele>1101</ele>
        <time>2021-08-13T09:20:59.352Z</time>
      </trkpt>
      <trkpt lat="46.82349" lon="8.41278">
        <ele>1100</ele>
        <time>2021-08-13T09:21:00.352Z</time>
      </trkpt>
      <trkpt lat="46.82348" lon="8.41277">
        <ele>1100</ele>
        <time>2021-08-13T09:21:01.352Z</time>
      </trkpt>
      <trkpt lat="46.82347" lon="8.41276">
        <ele>1099</ele>
        <time>2021-08-13T09:21:02.351Z</time>
      </trkpt>
      <trkpt lat="46.82346" lon="8.41275">
        <ele>1099</ele>
        <time>2021-08-13T09:21:03.352Z</time>
      </trkpt>
      <trkpt lat="46.82345" lon="8.41274">
        <ele>1098</ele>
        <time>2021-08-13T09:21:04.352Z</time>
      </trkpt>
      <trkpt lat="46.82344" lon="8.41272">
        <ele>1098</ele>
        <time>2021-08-13T09:21:05.352Z</time>
      </trkpt>
      <trkpt lat="46.82343" lon="8.41271">
        <ele>1097</ele>
        <time>2021-08-13T09:21:06.351Z</time>
      </trkpt>
      <trkpt lat="46.82341" lon="8.4127">
        <ele>1097</ele>
        <time>2021-08-13T09:21:07.351Z</time>
      </trkpt>
      <trkpt lat="46.8234" lon="8.41268">
        <ele>1096</ele>
        <time>2021-08-13T09:21:08.352Z</time>
      </trkpt>
      <trkpt lat="46.82339" lon="8.41266">
        <ele>1095</ele>
        <time>2021-08-13T09:21:09.352Z</time>
      </trkpt>
      <trkpt lat="46.82337" lon="8.41264">
        <ele>1094</ele>
        <time>2021-08-13T09:21:10.352Z</time>
      </trkpt>
      <trkpt lat="46.82336" lon="8.41263">
        <ele>1094</ele>
        <time>2021-08-13T09:21:11.352Z</time>
      </trkpt>
      <trkpt lat="46.82335" lon="8.41261">
        <ele>1093</ele>
        <time>2021-08-13T09:21:12.352Z</time>
      </trkpt>
      <trkpt lat="46.82334" lon="8.4126">
        <ele>1092</ele>
        <time>2021-08-13T09:21:13.351Z</time>
      </trkpt>
      <trkpt lat="46.82332" lon="8.41257">
        <ele>1091</ele>
        <time>2021-08-13T09:21:14.352Z</time>
      </trkpt>
      <trkpt lat="46.82331" lon="8.41255">
        <ele>1090</ele>
        <time>2021-08-13T09:21:15.352Z</time>
      </trkpt>
      <trkpt lat="46.82329" lon="8.41253">
        <ele>1090</ele>
        <time>2021-08-13T09:21:16.352Z</time>
      </trkpt>
      <trkpt lat="46.82328" lon="8.41251">
        <ele>1089</ele>
        <time>2021-08-13T09:21:17.351Z</time>
      </trkpt>
      <trkpt lat="46.82326" lon="8.41249">
        <ele>1089</ele>
        <time>2021-08-13T09:21:18.352Z</time>
      </trkpt>
      <trkpt lat="46.82324" lon="8.41246">
        <ele>1089</ele>
        <time>2021-08-13T09:21:19.352Z</time>
      </trkpt>
      <trkpt lat="46.82323" lon="8.41244">
        <ele>1088</ele>
        <time>2021-08-13T09:21:20.352Z</time>
      </trkpt>
      <trkpt lat="46.82322" lon="8.41242">
        <ele>1088</ele>
        <time>2021-08-13T09:21:21.352Z</time>
      </trkpt>
      <trkpt lat="46.82321" lon="8.4124">
        <ele>1087</ele>
        <time>2021-08-13T09:21:22.351Z</time>
      </trkpt>
      <trkpt lat="46.82321" lon="8.41238">
        <ele>1087</ele>
        <time>2021-08-13T09:21:23.352Z</time>
      </trkpt>
      <trkpt lat="46.8232" lon="8.41237">
        <ele>1086</ele>
        <time>2021-08-13T09:21:24.352Z</time>
      </trkpt>
      <trkpt lat="46.8232" lon="8.41234">
        <ele>1085</ele>
        <time>2021-08-13T09:21:25.351Z</time>
      </trkpt>
      <trkpt lat="46.8232" lon="8.41232">
        <ele>1085</ele>
        <time>2021-08-13T09:21:26.352Z</time>
      </trkpt>
      <trkpt lat="46.82319" lon="8.4123">
        <ele>1084</ele>
        <time>2021-08-13T09:21:27.352Z</time>
      </trkpt>
      <trkpt lat="46.82319" lon="8.41228">
        <ele>1084</ele>
        <time>2021-08-13T09:21:28.352Z</time>
      </trkpt>
      <trkpt lat="46.82318" lon="8.41226">
        <ele>1084</ele>
        <time>2021-08-13T09:21:29.351Z</time>
      </trkpt>
      <trkpt lat="46.82317" lon="8.41224">
        <ele>1083</ele>
        <time>2021-08-13T09:21:30.352Z</time>
      </trkpt>
      <trkpt lat="46.82316" lon="8.41222">
        <ele>1082</ele>
        <time>2021-08-13T09:21:31.352Z</time>
      </trkpt>
      <trkpt lat="46.82316" lon="8.4122">
        <ele>1082</ele>
        <time>2021-08-13T09:21:32.351Z</time>
      </trkpt>
      <trkpt lat="46.82315" lon="8.41217">
        <ele>1081</ele>
        <time>2021-08-13T09:21:33.352Z</time>
      </trkpt>
      <trkpt lat="46.82314" lon="8.41215">
        <ele>1081</ele>
        <time>2021-08-13T09:21:34.352Z</time>
      </trkpt>
      <trkpt lat="46.82314" lon="8.41212">
        <ele>1080</ele>
        <time>2021-08-13T09:21:35.351Z</time>
      </trkpt>
      <trkpt lat="46.82313" lon="8.4121">
        <ele>1080</ele>
        <time>2021-08-13T09:21:36.352Z</time>
      </trkpt>
      <trkpt lat="46.82313" lon="8.41207">
        <ele>1079</ele>
        <time>2021-08-13T09:21:37.352Z</time>
      </trkpt>
      <trkpt lat="46.82312" lon="8.41205">
        <ele>1078</ele>
        <time>2021-08-13T09:21:38.351Z</time>
      </trkpt>
      <trkpt lat="46.82311" lon="8.41203">
        <ele>1078</ele>
        <time>2021-08-13T09:21:39.351Z</time>
      </trkpt>
      <trkpt lat="46.8231" lon="8.41201">
        <ele>1077</ele>
        <time>2021-08-13T09:21:40.352Z</time>
      </trkpt>
      <trkpt lat="46.82309" lon="8.41199">
        <ele>1077</ele>
        <time>2021-08-13T09:21:41.352Z</time>
      </trkpt>
      <trkpt lat="46.82308" lon="8.41197">
        <ele>1077</ele>
        <time>2021-08-13T09:21:42.351Z</time>
      </trkpt>
      <trkpt lat="46.82308" lon="8.41195">
        <ele>1076</ele>
        <time>2021-08-13T09:21:43.352Z</time>
      </trkpt>
      <trkpt lat="46.82307" lon="8.41193">
        <ele>1076</ele>
        <time>2021-08-13T09:21:44.352Z</time>
      </trkpt>
      <trkpt lat="46.82307" lon="8.41191">
        <ele>1075</ele>
        <time>2021-08-13T09:21:45.352Z</time>
      </trkpt>
      <trkpt lat="46.82306" lon="8.4119">
        <ele>1075</ele>
        <time>2021-08-13T09:21:46.352Z</time>
      </trkpt>
      <trkpt lat="46.82306" lon="8.41188">
        <ele>1075</ele>
        <time>2021-08-13T09:21:47.352Z</time>
      </trkpt>
      <trkpt lat="46.82305" lon="8.41186">
        <ele>1074</ele>
        <time>2021-08-13T09:21:48.352Z</time>
      </trkpt>
      <trkpt lat="46.82305" lon="8.41185">
        <ele>1074</ele>
        <time>2021-08-13T09:21:49.352Z</time>
      </trkpt>
      <trkpt lat="46.82304" lon="8.41183">
        <ele>1074</ele>
        <time>2021-08-13T09:21:50.351Z</time>
      </trkpt>
      <trkpt lat="46.82303" lon="8.41181">
        <ele>1073</ele>
        <time>2021-08-13T09:21:51.351Z</time>
      </trkpt>
      <trkpt lat="46.82303" lon="8.41179">
        <ele>1073</ele>
        <time>2021-08-13T09:21:52.351Z</time>
      </trkpt>
      <trkpt lat="46.82302" lon="8.41176">
        <ele>1073</ele>
        <time>2021-08-13T09:21:53.352Z</time>
      </trkpt>
      <trkpt lat="46.82301" lon="8.41174">
        <ele>1073</ele>
        <time>2021-08-13T09:21:54.351Z</time>
      </trkpt>
      <trkpt lat="46.823" lon="8.41172">
        <ele>1073</ele>
        <time>2021-08-13T09:21:55.352Z</time>
      </trkpt>
      <trkpt lat="46.82299" lon="8.4117">
        <ele>1073</ele>
        <time>2021-08-13T09:21:56.351Z</time>
      </trkpt>
      <trkpt lat="46.82299" lon="8.41167">
        <ele>1073</ele>
        <time>2021-08-13T09:21:57.352Z</time>
      </trkpt>
      <trkpt lat="46.82298" lon="8.41165">
        <ele>1073</ele>
        <time>2021-08-13T09:21:58.352Z</time>
      </trkpt>
      <trkpt lat="46.82297" lon="8.41162">
        <ele>1073</ele>
        <time>2021-08-13T09:21:59.352Z</time>
      </trkpt>
      <trkpt lat="46.82296" lon="8.41159">
        <ele>1073</ele>
        <time>2021-08-13T09:22:00.352Z</time>
      </trkpt>
      <trkpt lat="46.82295" lon="8.41156">
        <ele>1073</ele>
        <time>2021-08-13T09:22:01.352Z</time>
      </trkpt>
      <trkpt lat="46.82295" lon="8.41154">
        <ele>1073</ele>
        <time>2021-08-13T09:22:02.352Z</time>
      </trkpt>
      <trkpt lat="46.82294" lon="8.41152">
        <ele>1073</ele>
        <time>2021-08-13T09:22:03.352Z</time>
      </trkpt>
      <trkpt lat="46.82294" lon="8.4115">
        <ele>1073</ele>
        <time>2021-08-13T09:22:04.352Z</time>
      </trkpt>
      <trkpt lat="46.82293" lon="8.41148">
        <ele>1073</ele>
        <time>2021-08-13T09:22:05.352Z</time>
      </trkpt>
      <trkpt lat="46.82292" lon="8.41147">
        <ele>1072</ele>
        <time>2021-08-13T09:22:06.351Z</time>
      </trkpt>
      <trkpt lat="46.82291" lon="8.41145">
        <ele>1072</ele>
        <time>2021-08-13T09:22:13.519Z</time>
      </trkpt>
      <trkpt lat="46.82291" lon="8.41143">
        <ele>1072</ele>
        <time>2021-08-13T09:22:14.520Z</time>
      </trkpt>
      <trkpt lat="46.8229" lon="8.41142">
        <ele>1072</ele>
        <time>2021-08-13T09:22:20.392Z</time>
      </trkpt>
      <trkpt lat="46.8229" lon="8.4114">
        <ele>1071</ele>
        <time>2021-08-13T09:22:21.393Z</time>
      </trkpt>
      <trkpt lat="46.82289" lon="8.41138">
        <ele>1071</ele>
        <time>2021-08-13T09:22:22.393Z</time>
      </trkpt>
      <trkpt lat="46.82289" lon="8.41136">
        <ele>1071</ele>
        <time>2021-08-13T09:22:23.393Z</time>
      </trkpt>
      <trkpt lat="46.82288" lon="8.41134">
        <ele>1072</ele>
        <time>2021-08-13T09:22:24.393Z</time>
      </trkpt>
      <trkpt lat="46.82287" lon="8.41133">
        <ele>1072</ele>
        <time>2021-08-13T09:22:25.393Z</time>
      </trkpt>
      <trkpt lat="46.82286" lon="8.4113">
        <ele>1072</ele>
        <time>2021-08-13T09:22:26.393Z</time>
      </trkpt>
      <trkpt lat="46.82286" lon="8.41129">
        <ele>1072</ele>
        <time>2021-08-13T09:22:27.393Z</time>
      </trkpt>
      <trkpt lat="46.82286" lon="8.41127">
        <ele>1072</ele>
        <time>2021-08-13T09:22:28.393Z</time>
      </trkpt>
      <trkpt lat="46.82285" lon="8.41125">
        <ele>1072</ele>
        <time>2021-08-13T09:22:29.393Z</time>
      </trkpt>
      <trkpt lat="46.82285" lon="8.41123">
        <ele>1072</ele>
        <time>2021-08-13T09:22:30.392Z</time>
      </trkpt>
      <trkpt lat="46.82285" lon="8.41121">
        <ele>1072</ele>
        <time>2021-08-13T09:22:31.392Z</time>
      </trkpt>
      <trkpt lat="46.82285" lon="8.41119">
        <ele>1072</ele>
        <time>2021-08-13T09:22:32.392Z</time>
      </trkpt>
      <trkpt lat="46.82285" lon="8.41117">
        <ele>1072</ele>
        <time>2021-08-13T09:22:33.393Z</time>
      </trkpt>
      <trkpt lat="46.82285" lon="8.41115">
        <ele>1072</ele>
        <time>2021-08-13T09:22:34.393Z</time>
      </trkpt>
      <trkpt lat="46.82285" lon="8.41113">
        <ele>1072</ele>
        <time>2021-08-13T09:22:35.393Z</time>
      </trkpt>
      <trkpt lat="46.82285" lon="8.41111">
        <ele>1072</ele>
        <time>2021-08-13T09:22:36.393Z</time>
      </trkpt>
      <trkpt lat="46.82285" lon="8.4111">
        <ele>1071</ele>
        <time>2021-08-13T09:22:37.393Z</time>
      </trkpt>
      <trkpt lat="46.82285" lon="8.41108">
        <ele>1071</ele>
        <time>2021-08-13T09:22:38.393Z</time>
      </trkpt>
      <trkpt lat="46.82285" lon="8.41106">
        <ele>1071</ele>
        <time>2021-08-13T09:22:39.393Z</time>
      </trkpt>
      <trkpt lat="46.82285" lon="8.41104">
        <ele>1070</ele>
        <time>2021-08-13T09:22:40.393Z</time>
      </trkpt>
      <trkpt lat="46.82284" lon="8.41102">
        <ele>1070</ele>
        <time>2021-08-13T09:22:41.393Z</time>
      </trkpt>
      <trkpt lat="46.82284" lon="8.411">
        <ele>1069</ele>
        <time>2021-08-13T09:22:42.393Z</time>
      </trkpt>
      <trkpt lat="46.82283" lon="8.41098">
        <ele>1069</ele>
        <time>2021-08-13T09:22:43.393Z</time>
      </trkpt>
      <trkpt lat="46.82283" lon="8.41096">
        <ele>1069</ele>
        <time>2021-08-13T09:22:44.393Z</time>
      </trkpt>
      <trkpt lat="46.82283" lon="8.41094">
        <ele>1069</ele>
        <time>2021-08-13T09:22:45.393Z</time>
      </trkpt>
      <trkpt lat="46.82283" lon="8.41092">
        <ele>1069</ele>
        <time>2021-08-13T09:22:46.392Z</time>
      </trkpt>
      <trkpt lat="46.82283" lon="8.4109">
        <ele>1069</ele>
        <time>2021-08-13T09:22:47.393Z</time>
      </trkpt>
      <trkpt lat="46.82283" lon="8.41088">
        <ele>1069</ele>
        <time>2021-08-13T09:22:48.393Z</time>
      </trkpt>
      <trkpt lat="46.82283" lon="8.41086">
        <ele>1069</ele>
        <time>2021-08-13T09:22:49.392Z</time>
      </trkpt>
      <trkpt lat="46.82284" lon="8.41083">
        <ele>1068</ele>
        <time>2021-08-13T09:22:50.393Z</time>
      </trkpt>
      <trkpt lat="46.82284" lon="8.41081">
        <ele>1068</ele>
        <time>2021-08-13T09:22:51.393Z</time>
      </trkpt>
      <trkpt lat="46.82285" lon="8.41079">
        <ele>1068</ele>
        <time>2021-08-13T09:22:52.393Z</time>
      </trkpt>
      <trkpt lat="46.82284" lon="8.41077">
        <ele>1067</ele>
        <time>2021-08-13T09:22:53.393Z</time>
      </trkpt>
      <trkpt lat="46.82285" lon="8.41074">
        <ele>1067</ele>
        <time>2021-08-13T09:22:54.393Z</time>
      </trkpt>
      <trkpt lat="46.82285" lon="8.41071">
        <ele>1066</ele>
        <time>2021-08-13T09:22:55.393Z</time>
      </trkpt>
      <trkpt lat="46.82285" lon="8.41068">
        <ele>1066</ele>
        <time>2021-08-13T09:22:56.393Z</time>
      </trkpt>
      <trkpt lat="46.82285" lon="8.41065">
        <ele>1065</ele>
        <time>2021-08-13T09:22:57.392Z</time>
      </trkpt>
      <trkpt lat="46.82284" lon="8.41062">
        <ele>1065</ele>
        <time>2021-08-13T09:22:58.393Z</time>
      </trkpt>
      <trkpt lat="46.82284" lon="8.4106">
        <ele>1064</ele>
        <time>2021-08-13T09:22:59.392Z</time>
      </trkpt>
      <trkpt lat="46.82283" lon="8.41058">
        <ele>1064</ele>
        <time>2021-08-13T09:23:00.393Z</time>
      </trkpt>
      <trkpt lat="46.82282" lon="8.41056">
        <ele>1064</ele>
        <time>2021-08-13T09:23:01.392Z</time>
      </trkpt>
      <trkpt lat="46.82282" lon="8.41054">
        <ele>1064</ele>
        <time>2021-08-13T09:23:02.393Z</time>
      </trkpt>
      <trkpt lat="46.82282" lon="8.41052">
        <ele>1064</ele>
        <time>2021-08-13T09:23:03.392Z</time>
      </trkpt>
      <trkpt lat="46.82282" lon="8.41049">
        <ele>1064</ele>
        <time>2021-08-13T09:23:04.393Z</time>
      </trkpt>
      <trkpt lat="46.82281" lon="8.41047">
        <ele>1063</ele>
        <time>2021-08-13T09:23:05.393Z</time>
      </trkpt>
      <trkpt lat="46.82281" lon="8.41046">
        <ele>1063</ele>
        <time>2021-08-13T09:23:06.393Z</time>
      </trkpt>
      <trkpt lat="46.82279" lon="8.41044">
        <ele>1063</ele>
        <time>2021-08-13T09:23:07.393Z</time>
      </trkpt>
      <trkpt lat="46.8228" lon="8.41042">
        <ele>1063</ele>
        <time>2021-08-13T09:23:08.393Z</time>
      </trkpt>
      <trkpt lat="46.82279" lon="8.4104">
        <ele>1063</ele>
        <time>2021-08-13T09:23:09.392Z</time>
      </trkpt>
      <trkpt lat="46.82279" lon="8.41038">
        <ele>1063</ele>
        <time>2021-08-13T09:23:10.392Z</time>
      </trkpt>
      <trkpt lat="46.82278" lon="8.41037">
        <ele>1062</ele>
        <time>2021-08-13T09:23:11.393Z</time>
      </trkpt>
      <trkpt lat="46.82278" lon="8.41036">
        <ele>1062</ele>
        <time>2021-08-13T09:23:12.393Z</time>
      </trkpt>
      <trkpt lat="46.82277" lon="8.41036">
        <ele>1062</ele>
        <time>2021-08-13T09:23:13.393Z</time>
      </trkpt>
      <trkpt lat="46.82276" lon="8.41035">
        <ele>1062</ele>
        <time>2021-08-13T09:23:14.393Z</time>
      </trkpt>
      <trkpt lat="46.82274" lon="8.41034">
        <ele>1062</ele>
        <time>2021-08-13T09:23:15.393Z</time>
      </trkpt>
      <trkpt lat="46.82272" lon="8.41034">
        <ele>1062</ele>
        <time>2021-08-13T09:23:16.393Z</time>
      </trkpt>
      <trkpt lat="46.82269" lon="8.41033">
        <ele>1063</ele>
        <time>2021-08-13T09:23:17.393Z</time>
      </trkpt>
      <trkpt lat="46.82267" lon="8.41034">
        <ele>1063</ele>
        <time>2021-08-13T09:23:18.393Z</time>
      </trkpt>
      <trkpt lat="46.82266" lon="8.41035">
        <ele>1064</ele>
        <time>2021-08-13T09:23:19.392Z</time>
      </trkpt>
      <trkpt lat="46.82265" lon="8.41036">
        <ele>1064</ele>
        <time>2021-08-13T09:23:20.392Z</time>
      </trkpt>
      <trkpt lat="46.82264" lon="8.41037">
        <ele>1064</ele>
        <time>2021-08-13T09:23:39.483Z</time>
      </trkpt>
      <trkpt lat="46.82263" lon="8.41038">
        <ele>1064</ele>
        <time>2021-08-13T09:24:34.350Z</time>
      </trkpt>
      <trkpt lat="46.82262" lon="8.41039">
        <ele>1064</ele>
        <time>2021-08-13T09:24:35.351Z</time>
      </trkpt>
      <trkpt lat="46.82262" lon="8.4104">
        <ele>1064</ele>
        <time>2021-08-13T09:24:36.351Z</time>
      </trkpt>
      <trkpt lat="46.82262" lon="8.4104">
        <ele>1064</ele>
        <time>2021-08-13T09:24:37.351Z</time>
      </trkpt>
      <trkpt lat="46.82261" lon="8.41042">
        <ele>1065</ele>
        <time>2021-08-13T09:24:38.351Z</time>
      </trkpt>
      <trkpt lat="46.8226" lon="8.41042">
        <ele>1071</ele>
        <time>2021-08-13T09:24:39.352Z</time>
      </trkpt>
      <trkpt lat="46.82259" lon="8.41042">
        <ele>1072</ele>
        <time>2021-08-13T09:24:40.351Z</time>
      </trkpt>
      <trkpt lat="46.82259" lon="8.41042">
        <ele>1072</ele>
        <time>2021-08-13T09:24:41.351Z</time>
      </trkpt>
      <trkpt lat="46.82259" lon="8.4104">
        <ele>1069</ele>
        <time>2021-08-13T09:24:42.352Z</time>
      </trkpt>
      <trkpt lat="46.82259" lon="8.4104">
        <ele>1069</ele>
        <time>2021-08-13T09:24:43.351Z</time>
      </trkpt>
      <trkpt lat="46.8226" lon="8.4104">
        <ele>1068</ele>
        <time>2021-08-13T09:24:44.351Z</time>
      </trkpt>
      <trkpt lat="46.8226" lon="8.41043">
        <ele>1067</ele>
        <time>2021-08-13T09:24:45.352Z</time>
      </trkpt>
      <trkpt lat="46.8226" lon="8.41043">
        <ele>1067</ele>
        <time>2021-08-13T09:24:46.352Z</time>
      </trkpt>
      <trkpt lat="46.8226" lon="8.41045">
        <ele>1068</ele>
        <time>2021-08-13T09:24:47.353Z</time>
      </trkpt>
      <trkpt lat="46.8226" lon="8.41045">
        <ele>1068</ele>
        <time>2021-08-13T09:24:48.353Z</time>
      </trkpt>
      <trkpt lat="46.8226" lon="8.41045">
        <ele>1068</ele>
        <time>2021-08-13T09:24:49.352Z</time>
      </trkpt>
      <trkpt lat="46.82258" lon="8.41046">
        <ele>1066</ele>
        <time>2021-08-13T09:24:50.354Z</time>
      </trkpt>
      <trkpt lat="46.82257" lon="8.41047">
        <ele>1065</ele>
        <time>2021-08-13T09:24:51.354Z</time>
      </trkpt>
      <trkpt lat="46.82257" lon="8.41047">
        <ele>1064</ele>
        <time>2021-08-13T09:24:52.353Z</time>
      </trkpt>
      <trkpt lat="46.82256" lon="8.41048">
        <ele>1064</ele>
        <time>2021-08-13T09:24:53.353Z</time>
      </trkpt>
      <trkpt lat="46.82255" lon="8.41048">
        <ele>1063</ele>
        <time>2021-08-13T09:24:54.353Z</time>
      </trkpt>
      <trkpt lat="46.82253" lon="8.41048">
        <ele>1062</ele>
        <time>2021-08-13T09:24:55.353Z</time>
      </trkpt>
      <trkpt lat="46.82252" lon="8.41048">
        <ele>1062</ele>
        <time>2021-08-13T09:24:56.354Z</time>
      </trkpt>
      <trkpt lat="46.82251" lon="8.41047">
        <ele>1061</ele>
        <time>2021-08-13T09:24:57.354Z</time>
      </trkpt>
      <trkpt lat="46.82251" lon="8.41046">
        <ele>1061</ele>
        <time>2021-08-13T09:24:58.354Z</time>
      </trkpt>
      <trkpt lat="46.8225" lon="8.41044">
        <ele>1060</ele>
        <time>2021-08-13T09:24:59.354Z</time>
      </trkpt>
      <trkpt lat="46.8225" lon="8.41043">
        <ele>1059</ele>
        <time>2021-08-13T09:25:00.353Z</time>
      </trkpt>
      <trkpt lat="46.8225" lon="8.41041">
        <ele>1059</ele>
        <time>2021-08-13T09:25:01.354Z</time>
      </trkpt>
      <trkpt lat="46.82251" lon="8.41039">
        <ele>1058</ele>
        <time>2021-08-13T09:25:02.354Z</time>
      </trkpt>
      <trkpt lat="46.82251" lon="8.41037">
        <ele>1058</ele>
        <time>2021-08-13T09:25:03.354Z</time>
      </trkpt>
      <trkpt lat="46.82251" lon="8.41036">
        <ele>1057</ele>
        <time>2021-08-13T09:25:04.354Z</time>
      </trkpt>
      <trkpt lat="46.82251" lon="8.41035">
        <ele>1057</ele>
        <time>2021-08-13T09:25:05.353Z</time>
      </trkpt>
      <trkpt lat="46.82251" lon="8.41033">
        <ele>1057</ele>
        <time>2021-08-13T09:25:06.354Z</time>
      </trkpt>
      <trkpt lat="46.8225" lon="8.41032">
        <ele>1057</ele>
        <time>2021-08-13T09:25:07.354Z</time>
      </trkpt>
      <trkpt lat="46.8225" lon="8.41031">
        <ele>1057</ele>
        <time>2021-08-13T09:25:08.353Z</time>
      </trkpt>
      <trkpt lat="46.8225" lon="8.41029">
        <ele>1057</ele>
        <time>2021-08-13T09:25:09.353Z</time>
      </trkpt>
      <trkpt lat="46.8225" lon="8.41029">
        <ele>1057</ele>
        <time>2021-08-13T09:25:10.354Z</time>
      </trkpt>
      <trkpt lat="46.8225" lon="8.41028">
        <ele>1057</ele>
        <time>2021-08-13T09:25:11.354Z</time>
      </trkpt>
      <trkpt lat="46.82249" lon="8.41027">
        <ele>1057</ele>
        <time>2021-08-13T09:25:12.354Z</time>
      </trkpt>
      <trkpt lat="46.82249" lon="8.41026">
        <ele>1057</ele>
        <time>2021-08-13T09:25:13.353Z</time>
      </trkpt>
      <trkpt lat="46.82249" lon="8.41025">
        <ele>1057</ele>
        <time>2021-08-13T09:25:14.354Z</time>
      </trkpt>
      <trkpt lat="46.82249" lon="8.41024">
        <ele>1057</ele>
        <time>2021-08-13T09:25:15.354Z</time>
      </trkpt>
      <trkpt lat="46.82249" lon="8.41022">
        <ele>1057</ele>
        <time>2021-08-13T09:25:16.353Z</time>
      </trkpt>
      <trkpt lat="46.8225" lon="8.4102">
        <ele>1057</ele>
        <time>2021-08-13T09:25:17.354Z</time>
      </trkpt>
      <trkpt lat="46.8225" lon="8.41018">
        <ele>1057</ele>
        <time>2021-08-13T09:25:18.353Z</time>
      </trkpt>
      <trkpt lat="46.82249" lon="8.41017">
        <ele>1056</ele>
        <time>2021-08-13T09:25:19.354Z</time>
      </trkpt>
      <trkpt lat="46.82248" lon="8.41016">
        <ele>1056</ele>
        <time>2021-08-13T09:25:20.353Z</time>
      </trkpt>
      <trkpt lat="46.82247" lon="8.41015">
        <ele>1055</ele>
        <time>2021-08-13T09:25:21.354Z</time>
      </trkpt>
      <trkpt lat="46.82247" lon="8.41015">
        <ele>1055</ele>
        <time>2021-08-13T09:25:22.354Z</time>
      </trkpt>
      <trkpt lat="46.82246" lon="8.41014">
        <ele>1055</ele>
        <time>2021-08-13T09:25:23.354Z</time>
      </trkpt>
      <trkpt lat="46.82246" lon="8.41014">
        <ele>1055</ele>
        <time>2021-08-13T09:25:24.354Z</time>
      </trkpt>
      <trkpt lat="46.82245" lon="8.41013">
        <ele>1055</ele>
        <time>2021-08-13T09:25:25.353Z</time>
      </trkpt>
      <trkpt lat="46.82243" lon="8.41012">
        <ele>1056</ele>
        <time>2021-08-13T09:25:26.355Z</time>
      </trkpt>
      <trkpt lat="46.82242" lon="8.41012">
        <ele>1056</ele>
        <time>2021-08-13T09:25:27.354Z</time>
      </trkpt>
      <trkpt lat="46.82242" lon="8.41012">
        <ele>1056</ele>
        <time>2021-08-13T09:25:28.354Z</time>
      </trkpt>
      <trkpt lat="46.82241" lon="8.41012">
        <ele>1056</ele>
        <time>2021-08-13T09:25:29.354Z</time>
      </trkpt>
      <trkpt lat="46.8224" lon="8.41011">
        <ele>1056</ele>
        <time>2021-08-13T09:25:30.355Z</time>
      </trkpt>
      <trkpt lat="46.8224" lon="8.41011">
        <ele>1056</ele>
        <time>2021-08-13T09:25:31.355Z</time>
      </trkpt>
      <trkpt lat="46.82239" lon="8.41011">
        <ele>1056</ele>
        <time>2021-08-13T09:25:32.354Z</time>
      </trkpt>
      <trkpt lat="46.82239" lon="8.41011">
        <ele>1056</ele>
        <time>2021-08-13T09:25:33.355Z</time>
      </trkpt>
      <trkpt lat="46.82238" lon="8.41011">
        <ele>1056</ele>
        <time>2021-08-13T09:25:34.354Z</time>
      </trkpt>
      <trkpt lat="46.82237" lon="8.41011">
        <ele>1056</ele>
        <time>2021-08-13T09:25:35.355Z</time>
      </trkpt>
      <trkpt lat="46.82236" lon="8.41011">
        <ele>1056</ele>
        <time>2021-08-13T09:25:36.355Z</time>
      </trkpt>
      <trkpt lat="46.82236" lon="8.4101">
        <ele>1056</ele>
        <time>2021-08-13T09:25:37.354Z</time>
      </trkpt>
      <trkpt lat="46.82235" lon="8.41009">
        <ele>1056</ele>
        <time>2021-08-13T09:25:38.355Z</time>
      </trkpt>
      <trkpt lat="46.82234" lon="8.41009">
        <ele>1056</ele>
        <time>2021-08-13T09:25:39.354Z</time>
      </trkpt>
      <trkpt lat="46.82233" lon="8.41008">
        <ele>1056</ele>
        <time>2021-08-13T09:25:40.355Z</time>
      </trkpt>
      <trkpt lat="46.82232" lon="8.41008">
        <ele>1056</ele>
        <time>2021-08-13T09:25:41.355Z</time>
      </trkpt>
      <trkpt lat="46.82231" lon="8.41008">
        <ele>1056</ele>
        <time>2021-08-13T09:25:42.355Z</time>
      </trkpt>
      <trkpt lat="46.82231" lon="8.41007">
        <ele>1055</ele>
        <time>2021-08-13T09:25:43.355Z</time>
      </trkpt>
      <trkpt lat="46.82231" lon="8.41006">
        <ele>1055</ele>
        <time>2021-08-13T09:25:44.355Z</time>
      </trkpt>
      <trkpt lat="46.82231" lon="8.41005">
        <ele>1055</ele>
        <time>2021-08-13T09:25:45.355Z</time>
      </trkpt>
      <trkpt lat="46.82231" lon="8.41004">
        <ele>1055</ele>
        <time>2021-08-13T09:25:46.354Z</time>
      </trkpt>
      <trkpt lat="46.8223" lon="8.41003">
        <ele>1055</ele>
        <time>2021-08-13T09:25:47.355Z</time>
      </trkpt>
      <trkpt lat="46.82229" lon="8.41003">
        <ele>1055</ele>
        <time>2021-08-13T09:25:48.355Z</time>
      </trkpt>
      <trkpt lat="46.82227" lon="8.41002">
        <ele>1055</ele>
        <time>2021-08-13T09:25:49.355Z</time>
      </trkpt>
      <trkpt lat="46.82226" lon="8.41001">
        <ele>1055</ele>
        <time>2021-08-13T09:25:50.354Z</time>
      </trkpt>
      <trkpt lat="46.82226" lon="8.41">
        <ele>1055</ele>
        <time>2021-08-13T09:25:51.355Z</time>
      </trkpt>
      <trkpt lat="46.82226" lon="8.40999">
        <ele>1055</ele>
        <time>2021-08-13T09:25:52.355Z</time>
      </trkpt>
      <trkpt lat="46.82225" lon="8.40998">
        <ele>1055</ele>
        <time>2021-08-13T09:25:53.354Z</time>
      </trkpt>
      <trkpt lat="46.82224" lon="8.40997">
        <ele>1055</ele>
        <time>2021-08-13T09:25:54.355Z</time>
      </trkpt>
      <trkpt lat="46.82223" lon="8.40996">
        <ele>1055</ele>
        <time>2021-08-13T09:25:55.355Z</time>
      </trkpt>
      <trkpt lat="46.82222" lon="8.40996">
        <ele>1054</ele>
        <time>2021-08-13T09:25:56.355Z</time>
      </trkpt>
      <trkpt lat="46.82221" lon="8.40995">
        <ele>1054</ele>
        <time>2021-08-13T09:25:57.355Z</time>
      </trkpt>
      <trkpt lat="46.8222" lon="8.40995">
        <ele>1054</ele>
        <time>2021-08-13T09:25:58.355Z</time>
      </trkpt>
      <trkpt lat="46.82219" lon="8.40994">
        <ele>1054</ele>
        <time>2021-08-13T09:25:59.355Z</time>
      </trkpt>
      <trkpt lat="46.82218" lon="8.40993">
        <ele>1054</ele>
        <time>2021-08-13T09:26:00.354Z</time>
      </trkpt>
      <trkpt lat="46.82217" lon="8.40992">
        <ele>1053</ele>
        <time>2021-08-13T09:26:01.354Z</time>
      </trkpt>
      <trkpt lat="46.82217" lon="8.40992">
        <ele>1053</ele>
        <time>2021-08-13T09:26:02.355Z</time>
      </trkpt>
      <trkpt lat="46.82216" lon="8.40991">
        <ele>1052</ele>
        <time>2021-08-13T09:26:03.355Z</time>
      </trkpt>
      <trkpt lat="46.82216" lon="8.4099">
        <ele>1052</ele>
        <time>2021-08-13T09:26:04.354Z</time>
      </trkpt>
      <trkpt lat="46.82215" lon="8.40989">
        <ele>1051</ele>
        <time>2021-08-13T09:26:05.355Z</time>
      </trkpt>
      <trkpt lat="46.82215" lon="8.40989">
        <ele>1051</ele>
        <time>2021-08-13T09:26:06.355Z</time>
      </trkpt>
      <trkpt lat="46.82214" lon="8.40988">
        <ele>1050</ele>
        <time>2021-08-13T09:26:07.354Z</time>
      </trkpt>
      <trkpt lat="46.82213" lon="8.40988">
        <ele>1049</ele>
        <time>2021-08-13T09:26:08.355Z</time>
      </trkpt>
      <trkpt lat="46.82213" lon="8.40987">
        <ele>1049</ele>
        <time>2021-08-13T09:26:09.354Z</time>
      </trkpt>
      <trkpt lat="46.82212" lon="8.40987">
        <ele>1048</ele>
        <time>2021-08-13T09:26:10.354Z</time>
      </trkpt>
      <trkpt lat="46.82211" lon="8.40986">
        <ele>1047</ele>
        <time>2021-08-13T09:26:11.355Z</time>
      </trkpt>
      <trkpt lat="46.8221" lon="8.40986">
        <ele>1047</ele>
        <time>2021-08-13T09:26:12.354Z</time>
      </trkpt>
      <trkpt lat="46.82208" lon="8.40985">
        <ele>1047</ele>
        <time>2021-08-13T09:26:13.355Z</time>
      </trkpt>
      <trkpt lat="46.82207" lon="8.40984">
        <ele>1046</ele>
        <time>2021-08-13T09:26:14.354Z</time>
      </trkpt>
      <trkpt lat="46.82206" lon="8.40983">
        <ele>1046</ele>
        <time>2021-08-13T09:26:15.355Z</time>
      </trkpt>
      <trkpt lat="46.82205" lon="8.40981">
        <ele>1045</ele>
        <time>2021-08-13T09:26:16.355Z</time>
      </trkpt>
      <trkpt lat="46.82204" lon="8.4098">
        <ele>1045</ele>
        <time>2021-08-13T09:26:17.355Z</time>
      </trkpt>
      <trkpt lat="46.82204" lon="8.4098">
        <ele>1044</ele>
        <time>2021-08-13T09:26:18.355Z</time>
      </trkpt>
      <trkpt lat="46.82203" lon="8.40981">
        <ele>1043</ele>
        <time>2021-08-13T09:26:19.354Z</time>
      </trkpt>
      <trkpt lat="46.82202" lon="8.4098">
        <ele>1043</ele>
        <time>2021-08-13T09:26:20.354Z</time>
      </trkpt>
      <trkpt lat="46.82202" lon="8.4098">
        <ele>1042</ele>
        <time>2021-08-13T09:26:21.355Z</time>
      </trkpt>
      <trkpt lat="46.82201" lon="8.4098">
        <ele>1042</ele>
        <time>2021-08-13T09:26:22.354Z</time>
      </trkpt>
      <trkpt lat="46.82201" lon="8.40979">
        <ele>1042</ele>
        <time>2021-08-13T09:26:23.355Z</time>
      </trkpt>
      <trkpt lat="46.822" lon="8.40978">
        <ele>1042</ele>
        <time>2021-08-13T09:26:24.355Z</time>
      </trkpt>
      <trkpt lat="46.822" lon="8.40977">
        <ele>1042</ele>
        <time>2021-08-13T09:26:25.354Z</time>
      </trkpt>
      <trkpt lat="46.82198" lon="8.40975">
        <ele>1041</ele>
        <time>2021-08-13T09:26:26.355Z</time>
      </trkpt>
      <trkpt lat="46.82197" lon="8.40973">
        <ele>1041</ele>
        <time>2021-08-13T09:26:27.355Z</time>
      </trkpt>
      <trkpt lat="46.82196" lon="8.40972">
        <ele>1041</ele>
        <time>2021-08-13T09:26:28.355Z</time>
      </trkpt>
      <trkpt lat="46.82195" lon="8.40971">
        <ele>1040</ele>
        <time>2021-08-13T09:26:29.355Z</time>
      </trkpt>
      <trkpt lat="46.82194" lon="8.4097">
        <ele>1040</ele>
        <time>2021-08-13T09:26:30.355Z</time>
      </trkpt>
      <trkpt lat="46.82193" lon="8.40969">
        <ele>1040</ele>
        <time>2021-08-13T09:26:31.355Z</time>
      </trkpt>
      <trkpt lat="46.82193" lon="8.40968">
        <ele>1040</ele>
        <time>2021-08-13T09:26:32.355Z</time>
      </trkpt>
      <trkpt lat="46.82192" lon="8.40967">
        <ele>1040</ele>
        <time>2021-08-13T09:26:33.354Z</time>
      </trkpt>
      <trkpt lat="46.8219" lon="8.40967">
        <ele>1039</ele>
        <time>2021-08-13T09:26:34.355Z</time>
      </trkpt>
      <trkpt lat="46.82189" lon="8.40966">
        <ele>1039</ele>
        <time>2021-08-13T09:26:55.537Z</time>
      </trkpt>
      <trkpt lat="46.82188" lon="8.40965">
        <ele>1038</ele>
        <time>2021-08-13T09:26:56.536Z</time>
      </trkpt>
      <trkpt lat="46.82187" lon="8.40964">
        <ele>1038</ele>
        <time>2021-08-13T09:26:57.536Z</time>
      </trkpt>
      <trkpt lat="46.82186" lon="8.40963">
        <ele>1038</ele>
        <time>2021-08-13T09:26:58.537Z</time>
      </trkpt>
      <trkpt lat="46.82184" lon="8.40963">
        <ele>1038</ele>
        <time>2021-08-13T09:26:59.537Z</time>
      </trkpt>
      <trkpt lat="46.82183" lon="8.40962">
        <ele>1038</ele>
        <time>2021-08-13T09:27:00.537Z</time>
      </trkpt>
      <trkpt lat="46.82182" lon="8.40962">
        <ele>1037</ele>
        <time>2021-08-13T09:27:01.537Z</time>
      </trkpt>
      <trkpt lat="46.82181" lon="8.40961">
        <ele>1037</ele>
        <time>2021-08-13T09:27:02.536Z</time>
      </trkpt>
      <trkpt lat="46.82181" lon="8.40961">
        <ele>1037</ele>
        <time>2021-08-13T09:27:03.536Z</time>
      </trkpt>
      <trkpt lat="46.82182" lon="8.4096">
        <ele>1036</ele>
        <time>2021-08-13T09:27:04.537Z</time>
      </trkpt>
      <trkpt lat="46.82182" lon="8.40959">
        <ele>1036</ele>
        <time>2021-08-13T09:27:05.537Z</time>
      </trkpt>
      <trkpt lat="46.82181" lon="8.40959">
        <ele>1036</ele>
        <time>2021-08-13T09:27:06.536Z</time>
      </trkpt>
      <trkpt lat="46.8218" lon="8.40958">
        <ele>1036</ele>
        <time>2021-08-13T09:27:07.537Z</time>
      </trkpt>
      <trkpt lat="46.8218" lon="8.40957">
        <ele>1036</ele>
        <time>2021-08-13T09:27:08.537Z</time>
      </trkpt>
      <trkpt lat="46.82179" lon="8.40956">
        <ele>1037</ele>
        <time>2021-08-13T09:27:09.537Z</time>
      </trkpt>
      <trkpt lat="46.82178" lon="8.40956">
        <ele>1037</ele>
        <time>2021-08-13T09:27:10.537Z</time>
      </trkpt>
      <trkpt lat="46.82178" lon="8.40955">
        <ele>1037</ele>
        <time>2021-08-13T09:27:11.537Z</time>
      </trkpt>
      <trkpt lat="46.82177" lon="8.40955">
        <ele>1037</ele>
        <time>2021-08-13T09:27:12.536Z</time>
      </trkpt>
      <trkpt lat="46.82175" lon="8.40955">
        <ele>1037</ele>
        <time>2021-08-13T09:27:13.537Z</time>
      </trkpt>
      <trkpt lat="46.82174" lon="8.40954">
        <ele>1036</ele>
        <time>2021-08-13T09:27:14.537Z</time>
      </trkpt>
      <trkpt lat="46.82173" lon="8.40953">
        <ele>1037</ele>
        <time>2021-08-13T09:27:15.537Z</time>
      </trkpt>
      <trkpt lat="46.82173" lon="8.40953">
        <ele>1037</ele>
        <time>2021-08-13T09:27:16.536Z</time>
      </trkpt>
      <trkpt lat="46.82172" lon="8.40952">
        <ele>1037</ele>
        <time>2021-08-13T09:27:17.536Z</time>
      </trkpt>
      <trkpt lat="46.82171" lon="8.40951">
        <ele>1037</ele>
        <time>2021-08-13T09:27:18.537Z</time>
      </trkpt>
      <trkpt lat="46.8217" lon="8.40951">
        <ele>1037</ele>
        <time>2021-08-13T09:27:19.537Z</time>
      </trkpt>
      <trkpt lat="46.82169" lon="8.4095">
        <ele>1037</ele>
        <time>2021-08-13T09:27:20.537Z</time>
      </trkpt>
      <trkpt lat="46.82169" lon="8.40949">
        <ele>1037</ele>
        <time>2021-08-13T09:27:21.537Z</time>
      </trkpt>
      <trkpt lat="46.82168" lon="8.40949">
        <ele>1036</ele>
        <time>2021-08-13T09:27:22.537Z</time>
      </trkpt>
      <trkpt lat="46.82167" lon="8.40948">
        <ele>1036</ele>
        <time>2021-08-13T09:27:23.536Z</time>
      </trkpt>
      <trkpt lat="46.82166" lon="8.40947">
        <ele>1035</ele>
        <time>2021-08-13T09:27:24.536Z</time>
      </trkpt>
      <trkpt lat="46.82165" lon="8.40946">
        <ele>1035</ele>
        <time>2021-08-13T09:27:25.536Z</time>
      </trkpt>
      <trkpt lat="46.82165" lon="8.40946">
        <ele>1034</ele>
        <time>2021-08-13T09:27:26.537Z</time>
      </trkpt>
      <trkpt lat="46.82164" lon="8.40945">
        <ele>1034</ele>
        <time>2021-08-13T09:27:27.536Z</time>
      </trkpt>
      <trkpt lat="46.82164" lon="8.40944">
        <ele>1034</ele>
        <time>2021-08-13T09:27:28.536Z</time>
      </trkpt>
      <trkpt lat="46.82164" lon="8.40944">
        <ele>1034</ele>
        <time>2021-08-13T09:27:29.536Z</time>
      </trkpt>
      <trkpt lat="46.82163" lon="8.40943">
        <ele>1033</ele>
        <time>2021-08-13T09:27:30.537Z</time>
      </trkpt>
      <trkpt lat="46.82162" lon="8.40942">
        <ele>1033</ele>
        <time>2021-08-13T09:27:31.537Z</time>
      </trkpt>
      <trkpt lat="46.82161" lon="8.40941">
        <ele>1033</ele>
        <time>2021-08-13T09:27:32.537Z</time>
      </trkpt>
      <trkpt lat="46.82159" lon="8.4094">
        <ele>1033</ele>
        <time>2021-08-13T09:27:33.536Z</time>
      </trkpt>
      <trkpt lat="46.82158" lon="8.40939">
        <ele>1033</ele>
        <time>2021-08-13T09:27:34.537Z</time>
      </trkpt>
      <trkpt lat="46.82157" lon="8.40938">
        <ele>1032</ele>
        <time>2021-08-13T09:27:35.537Z</time>
      </trkpt>
      <trkpt lat="46.82157" lon="8.40938">
        <ele>1032</ele>
        <time>2021-08-13T09:27:36.537Z</time>
      </trkpt>
      <trkpt lat="46.82156" lon="8.40937">
        <ele>1032</ele>
        <time>2021-08-13T09:27:37.537Z</time>
      </trkpt>
      <trkpt lat="46.82155" lon="8.40936">
        <ele>1031</ele>
        <time>2021-08-13T09:27:38.536Z</time>
      </trkpt>
      <trkpt lat="46.82154" lon="8.40936">
        <ele>1031</ele>
        <time>2021-08-13T09:27:39.537Z</time>
      </trkpt>
      <trkpt lat="46.82153" lon="8.40935">
        <ele>1031</ele>
        <time>2021-08-13T09:27:40.537Z</time>
      </trkpt>
      <trkpt lat="46.82152" lon="8.40934">
        <ele>1031</ele>
        <time>2021-08-13T09:27:41.536Z</time>
      </trkpt>
      <trkpt lat="46.82151" lon="8.40933">
        <ele>1031</ele>
        <time>2021-08-13T09:27:42.537Z</time>
      </trkpt>
      <trkpt lat="46.8215" lon="8.40932">
        <ele>1031</ele>
        <time>2021-08-13T09:27:43.536Z</time>
      </trkpt>
      <trkpt lat="46.82149" lon="8.40932">
        <ele>1031</ele>
        <time>2021-08-13T09:27:44.536Z</time>
      </trkpt>
      <trkpt lat="46.82148" lon="8.40931">
        <ele>1030</ele>
        <time>2021-08-13T09:27:45.537Z</time>
      </trkpt>
      <trkpt lat="46.82147" lon="8.4093">
        <ele>1030</ele>
        <time>2021-08-13T09:27:46.536Z</time>
      </trkpt>
      <trkpt lat="46.82146" lon="8.40929">
        <ele>1030</ele>
        <time>2021-08-13T09:27:47.536Z</time>
      </trkpt>
      <trkpt lat="46.82145" lon="8.40928">
        <ele>1030</ele>
        <time>2021-08-13T09:27:48.536Z</time>
      </trkpt>
      <trkpt lat="46.82144" lon="8.40927">
        <ele>1030</ele>
        <time>2021-08-13T09:27:49.537Z</time>
      </trkpt>
      <trkpt lat="46.82143" lon="8.40927">
        <ele>1030</ele>
        <time>2021-08-13T09:27:50.537Z</time>
      </trkpt>
      <trkpt lat="46.82141" lon="8.40926">
        <ele>1030</ele>
        <time>2021-08-13T09:27:51.537Z</time>
      </trkpt>
      <trkpt lat="46.8214" lon="8.40926">
        <ele>1030</ele>
        <time>2021-08-13T09:27:52.537Z</time>
      </trkpt>
      <trkpt lat="46.82139" lon="8.40925">
        <ele>1030</ele>
        <time>2021-08-13T09:27:53.536Z</time>
      </trkpt>
      <trkpt lat="46.82138" lon="8.40924">
        <ele>1030</ele>
        <time>2021-08-13T09:27:54.536Z</time>
      </trkpt>
      <trkpt lat="46.82137" lon="8.40923">
        <ele>1030</ele>
        <time>2021-08-13T09:27:55.537Z</time>
      </trkpt>
      <trkpt lat="46.82136" lon="8.40923">
        <ele>1030</ele>
        <time>2021-08-13T09:27:56.537Z</time>
      </trkpt>
      <trkpt lat="46.82134" lon="8.40922">
        <ele>1031</ele>
        <time>2021-08-13T09:27:57.536Z</time>
      </trkpt>
      <trkpt lat="46.82133" lon="8.4092">
        <ele>1031</ele>
        <time>2021-08-13T09:27:58.537Z</time>
      </trkpt>
      <trkpt lat="46.82132" lon="8.40919">
        <ele>1031</ele>
        <time>2021-08-13T09:27:59.536Z</time>
      </trkpt>
      <trkpt lat="46.82131" lon="8.40919">
        <ele>1031</ele>
        <time>2021-08-13T09:28:00.537Z</time>
      </trkpt>
      <trkpt lat="46.82131" lon="8.40918">
        <ele>1031</ele>
        <time>2021-08-13T09:28:01.536Z</time>
      </trkpt>
      <trkpt lat="46.8213" lon="8.40918">
        <ele>1030</ele>
        <time>2021-08-13T09:28:02.537Z</time>
      </trkpt>
      <trkpt lat="46.8213" lon="8.40917">
        <ele>1029</ele>
        <time>2021-08-13T09:28:03.537Z</time>
      </trkpt>
      <trkpt lat="46.82129" lon="8.40915">
        <ele>1029</ele>
        <time>2021-08-13T09:28:04.536Z</time>
      </trkpt>
      <trkpt lat="46.82128" lon="8.40914">
        <ele>1028</ele>
        <time>2021-08-13T09:28:05.537Z</time>
      </trkpt>
      <trkpt lat="46.82127" lon="8.40912">
        <ele>1027</ele>
        <time>2021-08-13T09:28:06.537Z</time>
      </trkpt>
      <trkpt lat="46.82126" lon="8.40911">
        <ele>1026</ele>
        <time>2021-08-13T09:28:07.537Z</time>
      </trkpt>
      <trkpt lat="46.82125" lon="8.4091">
        <ele>1026</ele>
        <time>2021-08-13T09:28:08.537Z</time>
      </trkpt>
      <trkpt lat="46.82125" lon="8.40909">
        <ele>1025</ele>
        <time>2021-08-13T09:28:09.536Z</time>
      </trkpt>
      <trkpt lat="46.82125" lon="8.40908">
        <ele>1024</ele>
        <time>2021-08-13T09:28:10.537Z</time>
      </trkpt>
      <trkpt lat="46.82124" lon="8.40906">
        <ele>1023</ele>
        <time>2021-08-13T09:28:11.537Z</time>
      </trkpt>
      <trkpt lat="46.82123" lon="8.40906">
        <ele>1023</ele>
        <time>2021-08-13T09:28:12.537Z</time>
      </trkpt>
      <trkpt lat="46.82123" lon="8.40904">
        <ele>1022</ele>
        <time>2021-08-13T09:28:13.536Z</time>
      </trkpt>
      <trkpt lat="46.82123" lon="8.40903">
        <ele>1022</ele>
        <time>2021-08-13T09:28:14.536Z</time>
      </trkpt>
      <trkpt lat="46.82123" lon="8.40901">
        <ele>1021</ele>
        <time>2021-08-13T09:28:15.537Z</time>
      </trkpt>
      <trkpt lat="46.82122" lon="8.40899">
        <ele>1020</ele>
        <time>2021-08-13T09:28:16.537Z</time>
      </trkpt>
      <trkpt lat="46.82121" lon="8.40897">
        <ele>1020</ele>
        <time>2021-08-13T09:28:17.536Z</time>
      </trkpt>
      <trkpt lat="46.82121" lon="8.40895">
        <ele>1019</ele>
        <time>2021-08-13T09:28:18.536Z</time>
      </trkpt>
      <trkpt lat="46.8212" lon="8.40894">
        <ele>1018</ele>
        <time>2021-08-13T09:28:19.537Z</time>
      </trkpt>
      <trkpt lat="46.82118" lon="8.40893">
        <ele>1018</ele>
        <time>2021-08-13T09:28:20.537Z</time>
      </trkpt>
      <trkpt lat="46.82117" lon="8.40891">
        <ele>1018</ele>
        <time>2021-08-13T09:28:21.536Z</time>
      </trkpt>
      <trkpt lat="46.82116" lon="8.4089">
        <ele>1017</ele>
        <time>2021-08-13T09:28:22.536Z</time>
      </trkpt>
      <trkpt lat="46.82115" lon="8.40888">
        <ele>1018</ele>
        <time>2021-08-13T09:28:23.537Z</time>
      </trkpt>
      <trkpt lat="46.82114" lon="8.40888">
        <ele>1018</ele>
        <time>2021-08-13T09:28:24.537Z</time>
      </trkpt>
      <trkpt lat="46.82114" lon="8.40886">
        <ele>1018</ele>
        <time>2021-08-13T09:28:25.537Z</time>
      </trkpt>
      <trkpt lat="46.82113" lon="8.40885">
        <ele>1019</ele>
        <time>2021-08-13T09:28:26.537Z</time>
      </trkpt>
      <trkpt lat="46.82112" lon="8.40884">
        <ele>1019</ele>
        <time>2021-08-13T09:28:27.537Z</time>
      </trkpt>
      <trkpt lat="46.82111" lon="8.40882">
        <ele>1019</ele>
        <time>2021-08-13T09:28:28.537Z</time>
      </trkpt>
      <trkpt lat="46.82111" lon="8.40881">
        <ele>1018</ele>
        <time>2021-08-13T09:28:29.537Z</time>
      </trkpt>
      <trkpt lat="46.8211" lon="8.40879">
        <ele>1018</ele>
        <time>2021-08-13T09:28:30.537Z</time>
      </trkpt>
      <trkpt lat="46.82109" lon="8.40878">
        <ele>1018</ele>
        <time>2021-08-13T09:28:31.536Z</time>
      </trkpt>
      <trkpt lat="46.82108" lon="8.40876">
        <ele>1017</ele>
        <time>2021-08-13T09:28:32.536Z</time>
      </trkpt>
      <trkpt lat="46.82108" lon="8.40875">
        <ele>1017</ele>
        <time>2021-08-13T09:28:33.537Z</time>
      </trkpt>
      <trkpt lat="46.82108" lon="8.40874">
        <ele>1017</ele>
        <time>2021-08-13T09:28:34.537Z</time>
      </trkpt>
      <trkpt lat="46.82107" lon="8.40872">
        <ele>1016</ele>
        <time>2021-08-13T09:28:35.536Z</time>
      </trkpt>
      <trkpt lat="46.82107" lon="8.40871">
        <ele>1016</ele>
        <time>2021-08-13T09:28:36.537Z</time>
      </trkpt>
      <trkpt lat="46.82106" lon="8.4087">
        <ele>1015</ele>
        <time>2021-08-13T09:28:37.537Z</time>
      </trkpt>
      <trkpt lat="46.82106" lon="8.40869">
        <ele>1015</ele>
        <time>2021-08-13T09:28:38.537Z</time>
      </trkpt>
      <trkpt lat="46.82106" lon="8.40868">
        <ele>1014</ele>
        <time>2021-08-13T09:28:39.536Z</time>
      </trkpt>
      <trkpt lat="46.82106" lon="8.40867">
        <ele>1014</ele>
        <time>2021-08-13T09:28:40.537Z</time>
      </trkpt>
      <trkpt lat="46.82106" lon="8.40866">
        <ele>1013</ele>
        <time>2021-08-13T09:28:41.536Z</time>
      </trkpt>
      <trkpt lat="46.82106" lon="8.40865">
        <ele>1013</ele>
        <time>2021-08-13T09:28:42.537Z</time>
      </trkpt>
      <trkpt lat="46.82107" lon="8.40864">
        <ele>1013</ele>
        <time>2021-08-13T09:28:43.537Z</time>
      </trkpt>
      <trkpt lat="46.82107" lon="8.40863">
        <ele>1013</ele>
        <time>2021-08-13T09:28:44.536Z</time>
      </trkpt>
      <trkpt lat="46.82108" lon="8.40861">
        <ele>1013</ele>
        <time>2021-08-13T09:28:45.536Z</time>
      </trkpt>
      <trkpt lat="46.82109" lon="8.4086">
        <ele>1013</ele>
        <time>2021-08-13T09:28:46.536Z</time>
      </trkpt>
      <trkpt lat="46.82109" lon="8.40858">
        <ele>1013</ele>
        <time>2021-08-13T09:28:47.537Z</time>
      </trkpt>
      <trkpt lat="46.82108" lon="8.40856">
        <ele>1014</ele>
        <time>2021-08-13T09:28:48.537Z</time>
      </trkpt>
      <trkpt lat="46.82108" lon="8.40854">
        <ele>1015</ele>
        <time>2021-08-13T09:28:49.536Z</time>
      </trkpt>
      <trkpt lat="46.82108" lon="8.40852">
        <ele>1015</ele>
        <time>2021-08-13T09:28:50.536Z</time>
      </trkpt>
      <trkpt lat="46.82107" lon="8.4085">
        <ele>1016</ele>
        <time>2021-08-13T09:28:51.537Z</time>
      </trkpt>
      <trkpt lat="46.82107" lon="8.40849">
        <ele>1017</ele>
        <time>2021-08-13T09:28:52.536Z</time>
      </trkpt>
      <trkpt lat="46.82107" lon="8.40848">
        <ele>1017</ele>
        <time>2021-08-13T09:28:53.537Z</time>
      </trkpt>
      <trkpt lat="46.82107" lon="8.40846">
        <ele>1018</ele>
        <time>2021-08-13T09:28:54.537Z</time>
      </trkpt>
      <trkpt lat="46.82107" lon="8.40844">
        <ele>1018</ele>
        <time>2021-08-13T09:28:55.537Z</time>
      </trkpt>
      <trkpt lat="46.82108" lon="8.40842">
        <ele>1019</ele>
        <time>2021-08-13T09:28:56.536Z</time>
      </trkpt>
      <trkpt lat="46.82109" lon="8.40841">
        <ele>1019</ele>
        <time>2021-08-13T09:28:57.537Z</time>
      </trkpt>
      <trkpt lat="46.82109" lon="8.4084">
        <ele>1019</ele>
        <time>2021-08-13T09:28:58.536Z</time>
      </trkpt>
      <trkpt lat="46.82109" lon="8.40839">
        <ele>1020</ele>
        <time>2021-08-13T09:28:59.537Z</time>
      </trkpt>
      <trkpt lat="46.8211" lon="8.40839">
        <ele>1020</ele>
        <time>2021-08-13T09:29:00.537Z</time>
      </trkpt>
      <trkpt lat="46.8211" lon="8.40837">
        <ele>1020</ele>
        <time>2021-08-13T09:29:01.537Z</time>
      </trkpt>
      <trkpt lat="46.8211" lon="8.40836">
        <ele>1020</ele>
        <time>2021-08-13T09:29:02.537Z</time>
      </trkpt>
      <trkpt lat="46.8211" lon="8.40836">
        <ele>1020</ele>
        <time>2021-08-13T09:29:03.537Z</time>
      </trkpt>
      <trkpt lat="46.82109" lon="8.40835">
        <ele>1020</ele>
        <time>2021-08-13T09:29:04.536Z</time>
      </trkpt>
      <trkpt lat="46.821" lon="8.40836">
        <ele>1021</ele>
        <time>2021-08-13T09:29:05.537Z</time>
      </trkpt>
      <trkpt lat="46.821" lon="8.40835">
        <ele>1021</ele>
        <time>2021-08-13T09:29:06.536Z</time>
      </trkpt>
      <trkpt lat="46.82101" lon="8.40834">
        <ele>1021</ele>
        <time>2021-08-13T09:29:07.536Z</time>
      </trkpt>
      <trkpt lat="46.82101" lon="8.40833">
        <ele>1021</ele>
        <time>2021-08-13T09:29:08.537Z</time>
      </trkpt>
      <trkpt lat="46.82102" lon="8.40832">
        <ele>1021</ele>
        <time>2021-08-13T09:29:09.537Z</time>
      </trkpt>
      <trkpt lat="46.82102" lon="8.40831">
        <ele>1021</ele>
        <time>2021-08-13T09:29:10.537Z</time>
      </trkpt>
      <trkpt lat="46.82102" lon="8.4083">
        <ele>1020</ele>
        <time>2021-08-13T09:29:11.537Z</time>
      </trkpt>
      <trkpt lat="46.82103" lon="8.40829">
        <ele>1020</ele>
        <time>2021-08-13T09:29:12.537Z</time>
      </trkpt>
      <trkpt lat="46.82103" lon="8.40828">
        <ele>1020</ele>
        <time>2021-08-13T09:29:13.537Z</time>
      </trkpt>
      <trkpt lat="46.82103" lon="8.40827">
        <ele>1021</ele>
        <time>2021-08-13T09:29:14.536Z</time>
      </trkpt>
      <trkpt lat="46.82104" lon="8.40826">
        <ele>1021</ele>
        <time>2021-08-13T09:29:15.537Z</time>
      </trkpt>
      <trkpt lat="46.82105" lon="8.40825">
        <ele>1021</ele>
        <time>2021-08-13T09:29:16.537Z</time>
      </trkpt>
      <trkpt lat="46.82105" lon="8.40824">
        <ele>1021</ele>
        <time>2021-08-13T09:29:17.537Z</time>
      </trkpt>
      <trkpt lat="46.82106" lon="8.40822">
        <ele>1021</ele>
        <time>2021-08-13T09:29:18.537Z</time>
      </trkpt>
      <trkpt lat="46.82107" lon="8.40819">
        <ele>1022</ele>
        <time>2021-08-13T09:29:19.537Z</time>
      </trkpt>
      <trkpt lat="46.82108" lon="8.40816">
        <ele>1022</ele>
        <time>2021-08-13T09:29:20.537Z</time>
      </trkpt>
      <trkpt lat="46.82108" lon="8.40814">
        <ele>1022</ele>
        <time>2021-08-13T09:29:21.537Z</time>
      </trkpt>
      <trkpt lat="46.8211" lon="8.40812">
        <ele>1021</ele>
        <time>2021-08-13T09:29:22.536Z</time>
      </trkpt>
      <trkpt lat="46.8211" lon="8.40811">
        <ele>1021</ele>
        <time>2021-08-13T09:29:23.536Z</time>
      </trkpt>
      <trkpt lat="46.8211" lon="8.40811">
        <ele>1021</ele>
        <time>2021-08-13T09:29:24.536Z</time>
      </trkpt>
      <trkpt lat="46.8211" lon="8.4081">
        <ele>1020</ele>
        <time>2021-08-13T09:29:25.537Z</time>
      </trkpt>
      <trkpt lat="46.82111" lon="8.40809">
        <ele>1019</ele>
        <time>2021-08-13T09:29:26.537Z</time>
      </trkpt>
      <trkpt lat="46.82111" lon="8.40808">
        <ele>1018</ele>
        <time>2021-08-13T09:29:27.536Z</time>
      </trkpt>
      <trkpt lat="46.82111" lon="8.40807">
        <ele>1018</ele>
        <time>2021-08-13T09:29:28.537Z</time>
      </trkpt>
      <trkpt lat="46.8211" lon="8.40806">
        <ele>1017</ele>
        <time>2021-08-13T09:29:29.536Z</time>
      </trkpt>
      <trkpt lat="46.8211" lon="8.40804">
        <ele>1017</ele>
        <time>2021-08-13T09:29:30.536Z</time>
      </trkpt>
      <trkpt lat="46.8211" lon="8.40803">
        <ele>1016</ele>
        <time>2021-08-13T09:29:31.537Z</time>
      </trkpt>
      <trkpt lat="46.8211" lon="8.40802">
        <ele>1016</ele>
        <time>2021-08-13T09:29:32.537Z</time>
      </trkpt>
      <trkpt lat="46.82109" lon="8.40801">
        <ele>1016</ele>
        <time>2021-08-13T09:29:33.537Z</time>
      </trkpt>
      <trkpt lat="46.82109" lon="8.40799">
        <ele>1016</ele>
        <time>2021-08-13T09:29:34.537Z</time>
      </trkpt>
      <trkpt lat="46.82109" lon="8.40798">
        <ele>1016</ele>
        <time>2021-08-13T09:29:35.537Z</time>
      </trkpt>
      <trkpt lat="46.82109" lon="8.40796">
        <ele>1016</ele>
        <time>2021-08-13T09:29:36.536Z</time>
      </trkpt>
      <trkpt lat="46.82109" lon="8.40794">
        <ele>1016</ele>
        <time>2021-08-13T09:29:37.537Z</time>
      </trkpt>
      <trkpt lat="46.8211" lon="8.40793">
        <ele>1016</ele>
        <time>2021-08-13T09:29:38.537Z</time>
      </trkpt>
      <trkpt lat="46.8211" lon="8.40791">
        <ele>1017</ele>
        <time>2021-08-13T09:29:39.537Z</time>
      </trkpt>
      <trkpt lat="46.8211" lon="8.4079">
        <ele>1017</ele>
        <time>2021-08-13T09:29:40.536Z</time>
      </trkpt>
      <trkpt lat="46.8211" lon="8.40789">
        <ele>1017</ele>
        <time>2021-08-13T09:29:41.536Z</time>
      </trkpt>
      <trkpt lat="46.82111" lon="8.40788">
        <ele>1018</ele>
        <time>2021-08-13T09:29:42.536Z</time>
      </trkpt>
      <trkpt lat="46.82111" lon="8.40787">
        <ele>1018</ele>
        <time>2021-08-13T09:29:43.536Z</time>
      </trkpt>
      <trkpt lat="46.82111" lon="8.40786">
        <ele>1018</ele>
        <time>2021-08-13T09:29:44.537Z</time>
      </trkpt>
      <trkpt lat="46.82111" lon="8.40784">
        <ele>1019</ele>
        <time>2021-08-13T09:29:45.537Z</time>
      </trkpt>
      <trkpt lat="46.82111" lon="8.40783">
        <ele>1020</ele>
        <time>2021-08-13T09:29:46.537Z</time>
      </trkpt>
      <trkpt lat="46.82112" lon="8.40782">
        <ele>1020</ele>
        <time>2021-08-13T09:29:47.537Z</time>
      </trkpt>
      <trkpt lat="46.82114" lon="8.40781">
        <ele>1021</ele>
        <time>2021-08-13T09:29:48.537Z</time>
      </trkpt>
      <trkpt lat="46.82115" lon="8.4078">
        <ele>1021</ele>
        <time>2021-08-13T09:29:49.537Z</time>
      </trkpt>
      <trkpt lat="46.82117" lon="8.40779">
        <ele>1022</ele>
        <time>2021-08-13T09:29:50.537Z</time>
      </trkpt>
      <trkpt lat="46.82118" lon="8.40778">
        <ele>1022</ele>
        <time>2021-08-13T09:29:51.537Z</time>
      </trkpt>
      <trkpt lat="46.82119" lon="8.40776">
        <ele>1022</ele>
        <time>2021-08-13T09:29:52.537Z</time>
      </trkpt>
      <trkpt lat="46.82119" lon="8.40775">
        <ele>1022</ele>
        <time>2021-08-13T09:29:53.537Z</time>
      </trkpt>
      <trkpt lat="46.8212" lon="8.40774">
        <ele>1022</ele>
        <time>2021-08-13T09:29:54.537Z</time>
      </trkpt>
      <trkpt lat="46.82121" lon="8.40773">
        <ele>1022</ele>
        <time>2021-08-13T09:29:55.537Z</time>
      </trkpt>
      <trkpt lat="46.82121" lon="8.40773">
        <ele>1022</ele>
        <time>2021-08-13T09:29:56.536Z</time>
      </trkpt>
      <trkpt lat="46.82121" lon="8.40772">
        <ele>1022</ele>
        <time>2021-08-13T09:29:57.537Z</time>
      </trkpt>
      <trkpt lat="46.82122" lon="8.40772">
        <ele>1022</ele>
        <time>2021-08-13T09:29:58.536Z</time>
      </trkpt>
      <trkpt lat="46.82121" lon="8.40771">
        <ele>1022</ele>
        <time>2021-08-13T09:29:59.537Z</time>
      </trkpt>
      <trkpt lat="46.82121" lon="8.4077">
        <ele>1022</ele>
        <time>2021-08-13T09:30:00.537Z</time>
      </trkpt>
      <trkpt lat="46.8212" lon="8.40769">
        <ele>1022</ele>
        <time>2021-08-13T09:30:01.536Z</time>
      </trkpt>
      <trkpt lat="46.8212" lon="8.40768">
        <ele>1022</ele>
        <time>2021-08-13T09:30:02.537Z</time>
      </trkpt>
      <trkpt lat="46.8212" lon="8.40767">
        <ele>1022</ele>
        <time>2021-08-13T09:30:03.537Z</time>
      </trkpt>
      <trkpt lat="46.82121" lon="8.40765">
        <ele>1022</ele>
        <time>2021-08-13T09:30:04.536Z</time>
      </trkpt>
      <trkpt lat="46.82121" lon="8.40764">
        <ele>1022</ele>
        <time>2021-08-13T09:30:05.537Z</time>
      </trkpt>
      <trkpt lat="46.82121" lon="8.40762">
        <ele>1022</ele>
        <time>2021-08-13T09:30:06.537Z</time>
      </trkpt>
      <trkpt lat="46.8212" lon="8.4076">
        <ele>1022</ele>
        <time>2021-08-13T09:30:07.537Z</time>
      </trkpt>
      <trkpt lat="46.82121" lon="8.40758">
        <ele>1023</ele>
        <time>2021-08-13T09:30:08.537Z</time>
      </trkpt>
      <trkpt lat="46.82122" lon="8.40758">
        <ele>1023</ele>
        <time>2021-08-13T09:30:09.536Z</time>
      </trkpt>
      <trkpt lat="46.82123" lon="8.40756">
        <ele>1023</ele>
        <time>2021-08-13T09:30:10.537Z</time>
      </trkpt>
      <trkpt lat="46.82123" lon="8.40754">
        <ele>1023</ele>
        <time>2021-08-13T09:30:11.537Z</time>
      </trkpt>
      <trkpt lat="46.82124" lon="8.40753">
        <ele>1023</ele>
        <time>2021-08-13T09:30:12.537Z</time>
      </trkpt>
      <trkpt lat="46.82124" lon="8.40752">
        <ele>1023</ele>
        <time>2021-08-13T09:30:13.537Z</time>
      </trkpt>
      <trkpt lat="46.82125" lon="8.40751">
        <ele>1023</ele>
        <time>2021-08-13T09:30:14.537Z</time>
      </trkpt>
      <trkpt lat="46.82125" lon="8.4075">
        <ele>1023</ele>
        <time>2021-08-13T09:30:15.537Z</time>
      </trkpt>
      <trkpt lat="46.82125" lon="8.40748">
        <ele>1023</ele>
        <time>2021-08-13T09:30:16.537Z</time>
      </trkpt>
      <trkpt lat="46.82125" lon="8.40746">
        <ele>1023</ele>
        <time>2021-08-13T09:30:17.536Z</time>
      </trkpt>
      <trkpt lat="46.82125" lon="8.40745">
        <ele>1023</ele>
        <time>2021-08-13T09:30:18.537Z</time>
      </trkpt>
      <trkpt lat="46.82125" lon="8.40743">
        <ele>1023</ele>
        <time>2021-08-13T09:30:19.537Z</time>
      </trkpt>
      <trkpt lat="46.82125" lon="8.40742">
        <ele>1022</ele>
        <time>2021-08-13T09:30:20.537Z</time>
      </trkpt>
      <trkpt lat="46.82126" lon="8.40741">
        <ele>1022</ele>
        <time>2021-08-13T09:30:21.536Z</time>
      </trkpt>
      <trkpt lat="46.82126" lon="8.4074">
        <ele>1022</ele>
        <time>2021-08-13T09:30:22.537Z</time>
      </trkpt>
      <trkpt lat="46.82126" lon="8.40738">
        <ele>1021</ele>
        <time>2021-08-13T09:30:23.537Z</time>
      </trkpt>
      <trkpt lat="46.82126" lon="8.40737">
        <ele>1021</ele>
        <time>2021-08-13T09:30:24.537Z</time>
      </trkpt>
      <trkpt lat="46.82127" lon="8.40735">
        <ele>1020</ele>
        <time>2021-08-13T09:30:25.537Z</time>
      </trkpt>
      <trkpt lat="46.82128" lon="8.40733">
        <ele>1020</ele>
        <time>2021-08-13T09:30:26.537Z</time>
      </trkpt>
      <trkpt lat="46.82129" lon="8.40732">
        <ele>1021</ele>
        <time>2021-08-13T09:30:27.537Z</time>
      </trkpt>
      <trkpt lat="46.82129" lon="8.4073">
        <ele>1021</ele>
        <time>2021-08-13T09:30:28.537Z</time>
      </trkpt>
      <trkpt lat="46.82129" lon="8.40729">
        <ele>1021</ele>
        <time>2021-08-13T09:30:29.536Z</time>
      </trkpt>
      <trkpt lat="46.82129" lon="8.40727">
        <ele>1022</ele>
        <time>2021-08-13T09:30:30.537Z</time>
      </trkpt>
      <trkpt lat="46.8213" lon="8.40726">
        <ele>1022</ele>
        <time>2021-08-13T09:30:31.536Z</time>
      </trkpt>
      <trkpt lat="46.82131" lon="8.40724">
        <ele>1022</ele>
        <time>2021-08-13T09:30:32.537Z</time>
      </trkpt>
      <trkpt lat="46.82132" lon="8.40722">
        <ele>1022</ele>
        <time>2021-08-13T09:30:33.537Z</time>
      </trkpt>
      <trkpt lat="46.82132" lon="8.40721">
        <ele>1022</ele>
        <time>2021-08-13T09:30:34.536Z</time>
      </trkpt>
      <trkpt lat="46.82133" lon="8.40719">
        <ele>1022</ele>
        <time>2021-08-13T09:30:35.536Z</time>
      </trkpt>
      <trkpt lat="46.82133" lon="8.40718">
        <ele>1022</ele>
        <time>2021-08-13T09:30:36.537Z</time>
      </trkpt>
      <trkpt lat="46.82134" lon="8.40716">
        <ele>1022</ele>
        <time>2021-08-13T09:30:37.537Z</time>
      </trkpt>
      <trkpt lat="46.82134" lon="8.40714">
        <ele>1022</ele>
        <time>2021-08-13T09:30:38.536Z</time>
      </trkpt>
      <trkpt lat="46.82134" lon="8.40713">
        <ele>1022</ele>
        <time>2021-08-13T09:30:39.536Z</time>
      </trkpt>
      <trkpt lat="46.82134" lon="8.40712">
        <ele>1022</ele>
        <time>2021-08-13T09:30:40.536Z</time>
      </trkpt>
      <trkpt lat="46.82134" lon="8.4071">
        <ele>1022</ele>
        <time>2021-08-13T09:30:41.536Z</time>
      </trkpt>
      <trkpt lat="46.82135" lon="8.40709">
        <ele>1022</ele>
        <time>2021-08-13T09:30:42.537Z</time>
      </trkpt>
      <trkpt lat="46.82135" lon="8.40708">
        <ele>1022</ele>
        <time>2021-08-13T09:30:43.536Z</time>
      </trkpt>
      <trkpt lat="46.82135" lon="8.40707">
        <ele>1022</ele>
        <time>2021-08-13T09:30:44.536Z</time>
      </trkpt>
      <trkpt lat="46.82135" lon="8.40706">
        <ele>1022</ele>
        <time>2021-08-13T09:30:45.537Z</time>
      </trkpt>
      <trkpt lat="46.82136" lon="8.40705">
        <ele>1022</ele>
        <time>2021-08-13T09:30:46.536Z</time>
      </trkpt>
      <trkpt lat="46.82136" lon="8.40704">
        <ele>1022</ele>
        <time>2021-08-13T09:30:47.537Z</time>
      </trkpt>
      <trkpt lat="46.82137" lon="8.40702">
        <ele>1022</ele>
        <time>2021-08-13T09:30:48.537Z</time>
      </trkpt>
      <trkpt lat="46.82137" lon="8.40701">
        <ele>1023</ele>
        <time>2021-08-13T09:30:49.536Z</time>
      </trkpt>
      <trkpt lat="46.82138" lon="8.407">
        <ele>1023</ele>
        <time>2021-08-13T09:30:50.537Z</time>
      </trkpt>
      <trkpt lat="46.82139" lon="8.40699">
        <ele>1024</ele>
        <time>2021-08-13T09:30:51.537Z</time>
      </trkpt>
      <trkpt lat="46.8214" lon="8.40698">
        <ele>1024</ele>
        <time>2021-08-13T09:30:52.537Z</time>
      </trkpt>
      <trkpt lat="46.82141" lon="8.40695">
        <ele>1025</ele>
        <time>2021-08-13T09:30:53.536Z</time>
      </trkpt>
      <trkpt lat="46.82141" lon="8.40693">
        <ele>1025</ele>
        <time>2021-08-13T09:30:54.537Z</time>
      </trkpt>
      <trkpt lat="46.82141" lon="8.40692">
        <ele>1026</ele>
        <time>2021-08-13T09:30:55.537Z</time>
      </trkpt>
      <trkpt lat="46.82141" lon="8.40692">
        <ele>1026</ele>
        <time>2021-08-13T09:30:56.537Z</time>
      </trkpt>
      <trkpt lat="46.82141" lon="8.40692">
        <ele>1026</ele>
        <time>2021-08-13T09:30:57.537Z</time>
      </trkpt>
      <trkpt lat="46.8214" lon="8.40692">
        <ele>1026</ele>
        <time>2021-08-13T09:30:58.537Z</time>
      </trkpt>
      <trkpt lat="46.82139" lon="8.40691">
        <ele>1026</ele>
        <time>2021-08-13T09:30:59.537Z</time>
      </trkpt>
      <trkpt lat="46.82139" lon="8.4069">
        <ele>1026</ele>
        <time>2021-08-13T09:31:00.536Z</time>
      </trkpt>
      <trkpt lat="46.82139" lon="8.40688">
        <ele>1026</ele>
        <time>2021-08-13T09:31:01.536Z</time>
      </trkpt>
      <trkpt lat="46.8214" lon="8.40687">
        <ele>1026</ele>
        <time>2021-08-13T09:31:02.536Z</time>
      </trkpt>
      <trkpt lat="46.8214" lon="8.40686">
        <ele>1026</ele>
        <time>2021-08-13T09:31:03.536Z</time>
      </trkpt>
      <trkpt lat="46.8214" lon="8.40685">
        <ele>1026</ele>
        <time>2021-08-13T09:31:04.537Z</time>
      </trkpt>
      <trkpt lat="46.8214" lon="8.40684">
        <ele>1026</ele>
        <time>2021-08-13T09:31:05.537Z</time>
      </trkpt>
      <trkpt lat="46.8214" lon="8.40683">
        <ele>1025</ele>
        <time>2021-08-13T09:31:06.537Z</time>
      </trkpt>
      <trkpt lat="46.82139" lon="8.40682">
        <ele>1025</ele>
        <time>2021-08-13T09:31:07.537Z</time>
      </trkpt>
      <trkpt lat="46.82138" lon="8.40681">
        <ele>1024</ele>
        <time>2021-08-13T09:31:08.537Z</time>
      </trkpt>
      <trkpt lat="46.82139" lon="8.40679">
        <ele>1024</ele>
        <time>2021-08-13T09:31:09.537Z</time>
      </trkpt>
      <trkpt lat="46.8214" lon="8.40676">
        <ele>1023</ele>
        <time>2021-08-13T09:31:10.537Z</time>
      </trkpt>
      <trkpt lat="46.82141" lon="8.40674">
        <ele>1023</ele>
        <time>2021-08-13T09:31:11.537Z</time>
      </trkpt>
      <trkpt lat="46.82141" lon="8.40671">
        <ele>1022</ele>
        <time>2021-08-13T09:31:12.536Z</time>
      </trkpt>
      <trkpt lat="46.82141" lon="8.40669">
        <ele>1022</ele>
        <time>2021-08-13T09:31:13.536Z</time>
      </trkpt>
      <trkpt lat="46.82142" lon="8.40668">
        <ele>1022</ele>
        <time>2021-08-13T09:31:14.537Z</time>
      </trkpt>
      <trkpt lat="46.82142" lon="8.40666">
        <ele>1021</ele>
        <time>2021-08-13T09:31:15.537Z</time>
      </trkpt>
      <trkpt lat="46.82141" lon="8.40665">
        <ele>1021</ele>
        <time>2021-08-13T09:31:16.536Z</time>
      </trkpt>
      <trkpt lat="46.82139" lon="8.40664">
        <ele>1021</ele>
        <time>2021-08-13T09:31:17.537Z</time>
      </trkpt>
      <trkpt lat="46.82139" lon="8.40663">
        <ele>1021</ele>
        <time>2021-08-13T09:31:18.537Z</time>
      </trkpt>
      <trkpt lat="46.82139" lon="8.40663">
        <ele>1020</ele>
        <time>2021-08-13T09:31:19.536Z</time>
      </trkpt>
      <trkpt lat="46.8214" lon="8.40662">
        <ele>1020</ele>
        <time>2021-08-13T09:31:20.537Z</time>
      </trkpt>
      <trkpt lat="46.82141" lon="8.4066">
        <ele>1020</ele>
        <time>2021-08-13T09:31:21.536Z</time>
      </trkpt>
      <trkpt lat="46.82141" lon="8.40659">
        <ele>1020</ele>
        <time>2021-08-13T09:31:22.536Z</time>
      </trkpt>
      <trkpt lat="46.8214" lon="8.40657">
        <ele>1019</ele>
        <time>2021-08-13T09:31:23.537Z</time>
      </trkpt>
      <trkpt lat="46.8214" lon="8.40655">
        <ele>1019</ele>
        <time>2021-08-13T09:31:24.537Z</time>
      </trkpt>
      <trkpt lat="46.8214" lon="8.40654">
        <ele>1019</ele>
        <time>2021-08-13T09:31:25.537Z</time>
      </trkpt>
      <trkpt lat="46.82141" lon="8.40652">
        <ele>1018</ele>
        <time>2021-08-13T09:31:26.536Z</time>
      </trkpt>
      <trkpt lat="46.82141" lon="8.40651">
        <ele>1018</ele>
        <time>2021-08-13T09:31:27.537Z</time>
      </trkpt>
      <trkpt lat="46.82141" lon="8.4065">
        <ele>1018</ele>
        <time>2021-08-13T09:31:28.537Z</time>
      </trkpt>
      <trkpt lat="46.82141" lon="8.40648">
        <ele>1018</ele>
        <time>2021-08-13T09:31:29.537Z</time>
      </trkpt>
      <trkpt lat="46.82141" lon="8.40648">
        <ele>1017</ele>
        <time>2021-08-13T09:31:30.536Z</time>
      </trkpt>
      <trkpt lat="46.82141" lon="8.40647">
        <ele>1017</ele>
        <time>2021-08-13T09:31:31.537Z</time>
      </trkpt>
      <trkpt lat="46.82142" lon="8.40647">
        <ele>1017</ele>
        <time>2021-08-13T09:31:32.537Z</time>
      </trkpt>
      <trkpt lat="46.82142" lon="8.40647">
        <ele>1017</ele>
        <time>2021-08-13T09:31:33.536Z</time>
      </trkpt>
      <trkpt lat="46.82143" lon="8.40646">
        <ele>1017</ele>
        <time>2021-08-13T09:31:34.536Z</time>
      </trkpt>
      <trkpt lat="46.82144" lon="8.40645">
        <ele>1018</ele>
        <time>2021-08-13T09:31:35.536Z</time>
      </trkpt>
      <trkpt lat="46.82144" lon="8.40645">
        <ele>1018</ele>
        <time>2021-08-13T09:31:36.536Z</time>
      </trkpt>
      <trkpt lat="46.82145" lon="8.40645">
        <ele>1018</ele>
        <time>2021-08-13T09:31:37.536Z</time>
      </trkpt>
      <trkpt lat="46.82145" lon="8.40645">
        <ele>1018</ele>
        <time>2021-08-13T09:31:38.536Z</time>
      </trkpt>
      <trkpt lat="46.82146" lon="8.40645">
        <ele>1017</ele>
        <time>2021-08-13T09:31:39.536Z</time>
      </trkpt>
      <trkpt lat="46.82146" lon="8.40644">
        <ele>1017</ele>
        <time>2021-08-13T09:31:40.537Z</time>
      </trkpt>
      <trkpt lat="46.82145" lon="8.40645">
        <ele>1016</ele>
        <time>2021-08-13T09:31:41.538Z</time>
      </trkpt>
      <trkpt lat="46.82145" lon="8.40645">
        <ele>1016</ele>
        <time>2021-08-13T09:31:42.538Z</time>
      </trkpt>
      <trkpt lat="46.82145" lon="8.40645">
        <ele>1016</ele>
        <time>2021-08-13T09:31:43.537Z</time>
      </trkpt>
      <trkpt lat="46.82146" lon="8.40646">
        <ele>1016</ele>
        <time>2021-08-13T09:31:44.537Z</time>
      </trkpt>
      <trkpt lat="46.82146" lon="8.40646">
        <ele>1016</ele>
        <time>2021-08-13T09:31:45.537Z</time>
      </trkpt>
      <trkpt lat="46.82147" lon="8.40646">
        <ele>1016</ele>
        <time>2021-08-13T09:31:46.537Z</time>
      </trkpt>
      <trkpt lat="46.82147" lon="8.40645">
        <ele>1015</ele>
        <time>2021-08-13T09:31:47.537Z</time>
      </trkpt>
      <trkpt lat="46.82146" lon="8.40643">
        <ele>1015</ele>
        <time>2021-08-13T09:31:48.537Z</time>
      </trkpt>
      <trkpt lat="46.82146" lon="8.40642">
        <ele>1015</ele>
        <time>2021-08-13T09:31:49.537Z</time>
      </trkpt>
      <trkpt lat="46.82146" lon="8.40641">
        <ele>1015</ele>
        <time>2021-08-13T09:31:50.537Z</time>
      </trkpt>
      <trkpt lat="46.82146" lon="8.4064">
        <ele>1015</ele>
        <time>2021-08-13T09:31:51.537Z</time>
      </trkpt>
      <trkpt lat="46.82146" lon="8.4064">
        <ele>1015</ele>
        <time>2021-08-13T09:31:52.537Z</time>
      </trkpt>
      <trkpt lat="46.82146" lon="8.4064">
        <ele>1015</ele>
        <time>2021-08-13T09:31:53.538Z</time>
      </trkpt>
      <trkpt lat="46.82145" lon="8.40641">
        <ele>1016</ele>
        <time>2021-08-13T09:31:54.537Z</time>
      </trkpt>
      <trkpt lat="46.82146" lon="8.40642">
        <ele>1016</ele>
        <time>2021-08-13T09:31:55.537Z</time>
      </trkpt>
      <trkpt lat="46.82146" lon="8.40642">
        <ele>1016</ele>
        <time>2021-08-13T09:31:56.537Z</time>
      </trkpt>
      <trkpt lat="46.82147" lon="8.40643">
        <ele>1016</ele>
        <time>2021-08-13T09:31:57.538Z</time>
      </trkpt>
      <trkpt lat="46.82147" lon="8.40644">
        <ele>1016</ele>
        <time>2021-08-13T09:31:58.537Z</time>
      </trkpt>
      <trkpt lat="46.82146" lon="8.40643">
        <ele>1016</ele>
        <time>2021-08-13T09:31:59.538Z</time>
      </trkpt>
      <trkpt lat="46.82146" lon="8.40643">
        <ele>1016</ele>
        <time>2021-08-13T09:32:00.537Z</time>
      </trkpt>
      <trkpt lat="46.82146" lon="8.40643">
        <ele>1016</ele>
        <time>2021-08-13T09:32:01.537Z</time>
      </trkpt>
      <trkpt lat="46.82147" lon="8.40644">
        <ele>1016</ele>
        <time>2021-08-13T09:32:02.539Z</time>
      </trkpt>
      <trkpt lat="46.82148" lon="8.40644">
        <ele>1016</ele>
        <time>2021-08-13T09:32:03.539Z</time>
      </trkpt>
    </trkseg>
  </trk>
</gpx>